﻿_id	Fecha & Hora	PM10 (ug/m3)	SO2  (ug/m3)	NO2  (ug/m3)	CO  (ug/m3)	H2S (ug/m3)	"O3 
(ug/m3)"	Vel Viento  (m/s)	Dir Viento (Grados)	Temperatura (C°)	Humedad (%)	Radiacion Solar (Watt/M2)	Lluvia (mm)
1	2010-01-28T00:00:00	ND	48.84	ND	996.68	ND	ND	0.4	228	25	66.7	0	ND
2	2010-01-28T01:00:00	ND	ND	ND	628.60	ND	ND	1.5	238.2	24.3	67.2	0	ND
3	2010-01-28T02:00:00	ND	ND	ND	559.84	ND	ND	0.5	221.4	24.2	69.9	0	ND
4	2010-01-28T03:00:00	ND	ND	ND	797.08	ND	ND	0.1	147.1	23.2	78.2	0	ND
5	2010-01-28T04:00:00	ND	ND	ND	717.62	ND	ND	0.3	149.2	23.3	78	0	ND
6	2010-01-28T05:00:00	ND	ND	ND	796.27	ND	ND	0.7	66.4	22.9	81.1	0	ND
7	2010-01-28T06:00:00	ND	ND	ND	887.58	ND	ND	0	16.6	23	79.8	0	ND
8	2010-01-28T07:00:00	ND	0.03	ND	1390.14	ND	ND	0.4	100.7	23.4	75.6	3.8	ND
9	2010-01-28T08:00:00	ND	0.29	ND	2457.07	ND	ND	0.9	69	22.9	81.9	3.8	ND
10	2010-01-28T09:00:00	ND	0.31	ND	2235.64	ND	ND	0.3	266.5	22.2	87.2	6.5	ND
11	2010-01-28T10:00:00	ND	2.96	ND	2454.58	ND	ND	1.1	300.5	22.6	85.8	21.3	ND
12	2010-01-28T11:00:00	ND	17.48	ND	2657.62	ND	ND	1.3	17.7	23.7	83.6	89	ND
13	2010-01-28T12:00:00	ND	8.93	ND	1803.99	ND	ND	1.1	1.1	24	80.5	100.7	ND
14	2010-01-28T13:00:00	ND	23.93	ND	1797.40	ND	ND	1.9	20.3	24.8	76.8	100.9	ND
15	2010-01-28T14:00:00	ND	50.79	ND	1397.17	ND	ND	2.3	15	24.9	76.1	100.6	ND
16	2010-01-28T15:00:00	ND	9.97	ND	1277.17	ND	ND	1.2	279.1	26.3	67.4	127.8	ND
17	2010-01-28T16:00:00	ND	0.26	ND	1306.27	ND	ND	1.5	298.6	27.7	56.4	75.4	ND
18	2010-01-28T17:00:00	ND	5.23	ND	2218.76	ND	ND	0.9	91.9	27.6	59.2	56.1	ND
19	2010-01-28T18:00:00	ND	11.05	ND	2005.40	ND	ND	1.9	43.6	26.8	65.2	45.6	ND
20	2010-01-28T19:00:00	ND	2.94	ND	1448.31	ND	ND	2.1	279.9	26	64.2	2.1	ND
21	2010-01-28T20:00:00	ND	ND	ND	1364.65	ND	ND	2.9	268	25.3	64.2	0	ND
22	2010-01-28T21:00:00	ND	ND	ND	986.21	ND	ND	2.5	270.2	25.3	62.9	0	ND
23	2010-01-28T22:00:00	ND	8.67	ND	1534.60	ND	ND	0.7	348.7	24.9	65.8	0	ND
24	2010-01-28T23:00:00	ND	6.90	ND	1941.65	ND	ND	0.4	249.6	24.1	71.8	0	ND
25	2010-01-29T00:00:00	ND	4.85	ND	1483.29	ND	ND	1	199.1	23.8	72.6	0	ND
26	2010-01-29T01:00:00	ND	12.05	ND	1422.88	ND	ND	0.3	231.4	23.1	78	0	ND
27	2010-01-29T02:00:00	ND	36.14	ND	1398.22	ND	ND	0.3	96	22.7	79	0	ND
28	2010-01-29T03:00:00	ND	34.10	ND	1158.32	ND	ND	0.7	167.9	22.4	81.6	0	ND
29	2010-01-29T04:00:00	ND	41.18	ND	1135.23	ND	ND	0.4	139.1	22.3	82.7	0	ND
30	2010-01-29T05:00:00	ND	43.01	ND	1248.33	ND	ND	0.5	165.7	22.2	82.7	0	ND
31	2010-01-29T06:00:00	ND	44.44	ND	1373.16	ND	ND	0.8	136.8	22.2	85	0	ND
32	2010-01-29T07:00:00	ND	49.09	ND	1881.93	ND	ND	0.6	160.6	21.9	85.8	1.6	ND
33	2010-01-29T08:00:00	ND	41.09	ND	2517.65	ND	ND	0.4	175	22	88.5	12.9	ND
34	2010-01-29T09:00:00	ND	12.64	ND	2837.25	ND	ND	0.5	189.9	23.4	80.4	69.8	ND
35	2010-01-29T10:00:00	ND	1.34	ND	1946.88	ND	ND	0.6	146.5	24.9	73.4	105.6	ND
36	2010-01-29T11:00:00	ND	3.19	ND	1899.13	ND	ND	0.8	118.6	26.4	67.6	201.9	ND
37	2010-01-29T12:00:00	ND	1.96	ND	1551.60	ND	ND	0.5	144.5	28.2	59.1	248	ND
38	2010-01-29T13:00:00	ND	4.07	ND	1836.18	ND	ND	0.3	113.3	29.3	54.4	185.1	ND
39	2010-01-29T14:00:00	ND	6.51	ND	1765.87	ND	ND	0.6	350.1	29.2	53.6	94.9	ND
40	2010-01-29T15:00:00	ND	5.29	ND	1499.65	ND	ND	0.6	291.1	29.4	52.2	98.4	ND
41	2010-01-29T16:00:00	ND	ND	ND	1300.30	ND	ND	3.1	272.6	29	51.8	104.3	ND
42	2010-01-29T17:00:00	ND	ND	ND	1470.06	ND	ND	3.7	271.5	28.1	55.4	56.2	ND
43	2010-01-29T18:00:00	ND	ND	ND	1187.89	ND	ND	4.7	272.2	27	58.2	26.8	ND
44	2010-01-29T19:00:00	ND	ND	ND	1393.16	ND	ND	3.5	271.2	26.5	58.9	2.5	ND
45	2010-01-29T20:00:00	ND	ND	ND	1460.29	ND	ND	2.5	272.1	26.1	59.9	0	ND
46	2010-01-29T21:00:00	ND	0.08	ND	1366.93	ND	ND	0.7	289.9	25.8	61.7	0	ND
47	2010-01-29T22:00:00	ND	2.62	ND	2006.16	ND	ND	0.4	6.7	25.2	67.5	0	ND
48	2010-01-29T23:00:00	ND	ND	ND	1079.04	ND	ND	2.1	282.1	25.6	61.4	0	ND
49	2010-01-30T00:00:00	ND	2.75	ND	1374.27	ND	ND	0.5	234.7	24.9	68	0	ND
50	2010-01-30T01:00:00	ND	7.62	ND	1471.39	ND	ND	0.7	158.6	23.7	79.4	0	ND
51	2010-01-30T02:00:00	ND	2.98	ND	1323.55	ND	ND	1.4	179.2	23.8	78.4	0	ND
52	2010-01-30T03:00:00	ND	5.47	ND	1242.43	ND	ND	1.1	173	23.5	79.9	0	ND
53	2010-01-30T04:00:00	ND	16.33	ND	1171.26	ND	ND	1.1	167.8	22.8	83.4	0	ND
54	2010-01-30T05:00:00	ND	8.28	ND	1103.78	ND	ND	0.7	187.5	23	80.5	0	ND
55	2010-01-30T06:00:00	ND	8.98	ND	1342.74	ND	ND	0.7	164.3	23	82.2	0	ND
56	2010-01-30T07:00:00	ND	18.03	ND	1512.92	ND	ND	0.2	160.5	22.9	82.1	3.5	ND
57	2010-01-30T08:00:00	ND	18.05	ND	2107.28	ND	ND	0.5	113.3	23.3	81.1	47.1	ND
58	2010-01-30T09:00:00	ND	2.20	ND	1874.38	ND	ND	0.6	164.8	24.3	74.2	76.5	ND
59	2010-01-30T10:00:00	ND	2.47	ND	1527.24	ND	ND	1.1	175.8	25.7	66.4	183	ND
60	2010-01-30T11:00:00	ND	0.26	ND	1272.43	ND	ND	1.4	158.7	27.9	57.9	253.8	ND
61	2010-01-30T12:00:00	ND	0.21	ND	1485.08	ND	ND	1.4	120.6	28.8	55.1	175	ND
62	2010-01-30T13:00:00	ND	0.75	ND	1154.32	ND	ND	0.8	295.8	30.3	49.2	314.8	ND
63	2010-01-30T14:00:00	ND	1.63	ND	1218.22	ND	ND	0.2	98.3	31.7	44.2	269.2	ND
64	2010-01-30T15:00:00	ND	6.10	ND	1239.20	ND	ND	1.6	318	31.1	46	146.6	ND
65	2010-01-30T16:00:00	ND	ND	ND	1064.89	ND	ND	4	274	31.4	44.9	197.6	ND
66	2010-01-30T17:00:00	ND	ND	ND	1014.40	ND	ND	4	278.9	30.3	47.8	109.8	ND
67	2010-01-30T18:00:00	ND	ND	ND	1092.05	ND	ND	3.6	275.1	29.2	51.7	29.7	ND
68	2010-01-30T19:00:00	ND	ND	ND	1157.14	ND	ND	3.6	270	28	54.9	1.2	ND
69	2010-01-30T20:00:00	ND	ND	ND	1038.31	ND	ND	4.2	266.9	27.1	58.3	0	ND
70	2010-01-30T21:00:00	ND	ND	ND	876.21	ND	ND	2.9	285.8	26.9	58.4	0	ND
71	2010-01-30T22:00:00	ND	ND	ND	909.89	ND	ND	1.9	283.2	26.6	59.1	0	ND
72	2010-01-30T23:00:00	ND	ND	ND	931.99	ND	ND	2.5	235.9	26.3	60.2	0	ND
73	2010-01-31T00:00:00	ND	0.03	ND	1355.45	ND	ND	1.1	226.7	25.8	63.7	0	ND
74	2010-01-31T01:00:00	ND	7.95	ND	1795.59	ND	ND	0.4	13.4	24.5	71.5	0	ND
75	2010-01-31T02:00:00	ND	24.86	ND	1390.14	ND	ND	0.9	33.9	23.4	77.2	0	ND
76	2010-01-31T03:00:00	ND	16.17	ND	1457.52	ND	ND	0.2	60.7	23.2	78.2	0	ND
77	2010-01-31T04:00:00	ND	8.49	ND	1446.13	ND	ND	0.4	136.3	23.2	78.7	0	ND
78	2010-01-31T05:00:00	ND	20.33	ND	1250.02	ND	ND	0.6	126.7	22.6	81.3	0	ND
79	2010-01-31T06:00:00	ND	15.36	ND	1168.49	ND	ND	0.6	196.6	22.1	81.1	0	ND
80	2010-01-31T07:00:00	ND	11.19	ND	1407.21	ND	ND	0.7	194.9	22.2	79.4	5.6	ND
81	2010-01-31T08:00:00	ND	25.77	ND	1817.59	ND	ND	0.6	91.5	22.5	81.2	37.5	ND
82	2010-01-31T09:00:00	ND	12.87	ND	1916.87	ND	ND	0.6	72.8	23.8	75.4	105.5	ND
83	2010-01-31T10:00:00	ND	4.29	ND	1564.30	ND	ND	0.8	105.2	26.2	64.5	210.4	ND
84	2010-01-31T11:00:00	ND	2.06	ND	1190.27	ND	ND	1.4	136	27.6	59.4	272.4	ND
85	2010-01-31T12:00:00	ND	1.17	ND	1080.43	ND	ND	1	120.3	29.2	54	230.5	ND
86	2010-01-31T13:00:00	ND	1.87	ND	1145.30	ND	ND	1.1	138	31	48.5	328.1	ND
87	2010-01-31T14:00:00	ND	3.60	ND	1174.06	ND	ND	1	96.4	32.4	43.6	301.4	ND
88	2010-01-31T15:00:00	ND	2.55	ND	834.67	ND	ND	2.9	285.5	32.8	43	261.7	ND
89	2010-01-31T16:00:00	ND	ND	ND	667.46	ND	ND	4.6	282.5	31.6	46	212.4	ND
90	2010-01-31T17:00:00	ND	ND	ND	653.17	ND	ND	4.3	284.8	30.4	50	125.6	ND
91	2010-01-31T18:00:00	ND	ND	ND	661.76	ND	ND	4.1	282.1	29	53.8	35.6	ND
92	2010-01-31T19:00:00	ND	ND	ND	682.94	ND	ND	4.1	271.8	28.1	56	1.1	ND
93	2010-01-31T20:00:00	ND	ND	ND	750.89	ND	ND	3.5	272.2	27.5	58	0	ND
94	2010-01-31T21:00:00	ND	ND	ND	716.00	ND	ND	2.4	283.4	27.4	57.6	0	ND
95	2010-01-31T22:00:00	ND	ND	ND	737.37	ND	ND	2.9	267.3	26.7	61.5	0	ND
96	2010-01-31T23:00:00	ND	ND	ND	736.63	ND	ND	2	253.9	26.4	61.8	0	ND
97	2010-02-01T00:00:00	ND	0.66	ND	930.12	ND	ND	0.9	262.5	25.7	65.3	0	ND
98	2010-02-01T01:00:00	ND	ND	ND	ND	ND	ND	0.9	3.8	24.3	72.9	0	ND
99	2010-02-01T02:00:00	ND	ND	ND	ND	ND	ND	0.2	50.1	23.7	76.6	0	ND
100	2010-02-01T03:00:00	ND	7.51	ND	1049.36	ND	ND	0.6	40.1	23.5	76.4	0	ND
101	2010-02-01T04:00:00	ND	5.40	ND	695.30	ND	ND	0.4	69	22.7	80.5	0	ND
102	2010-02-01T05:00:00	ND	10.14	ND	647.96	ND	ND	0.7	144.2	22.2	82.3	0	ND
103	2010-02-01T06:00:00	ND	25.75	ND	658.21	ND	ND	0.7	202.6	22.2	80.9	0	ND
104	2010-02-01T07:00:00	ND	8.54	ND	624.16	ND	ND	0.3	216.4	22.3	77.7	4.8	ND
105	2010-02-01T08:00:00	ND	3.27	ND	737.90	ND	ND	0.6	131.5	23.6	72.7	61.1	ND
106	2010-02-01T09:00:00	ND	7.77	ND	1311.26	ND	ND	1.2	148	24.9	68.7	144.4	ND
107	2010-02-01T10:00:00	ND	9.09	ND	2588.20	ND	ND	1.3	135.5	26.5	63.1	223.4	ND
108	2010-02-01T11:00:00	ND	0.24	ND	1381.65	ND	ND	1.1	122.1	28.3	57.1	287.7	ND
109	2010-02-01T12:00:00	ND	ND	ND	1007.72	ND	ND	1.1	128.2	29.5	53.4	233.3	ND
110	2010-02-01T13:00:00	ND	0.43	ND	860.55	ND	ND	1.1	107.4	31	49	327.2	ND
111	2010-02-01T14:00:00	ND	ND	ND	934.94	ND	ND	0.7	60.3	32.9	43.4	310.7	ND
112	2010-02-01T15:00:00	ND	1.18	ND	1117.18	ND	ND	1.1	84.4	33.7	40.5	269.1	ND
113	2010-02-01T16:00:00	ND	ND	ND	1308.75	ND	ND	3.2	277.4	33.3	42.9	219.7	ND
114	2010-02-01T17:00:00	ND	ND	ND	1354.14	ND	ND	4.8	276.9	31.3	48.5	130.5	ND
115	2010-02-01T18:00:00	ND	ND	ND	1006.05	ND	ND	3.9	283.6	29.8	52.2	43.5	ND
116	2010-02-01T19:00:00	ND	ND	ND	931.25	ND	ND	4.1	279.9	28.5	55.8	1.3	ND
117	2010-02-01T20:00:00	ND	ND	ND	996.79	ND	ND	5.1	271.6	27.6	59.1	0	ND
118	2010-02-01T21:00:00	ND	ND	ND	1063.15	ND	ND	2	286.4	27.7	58.7	0	ND
119	2010-02-01T22:00:00	ND	ND	ND	647.35	ND	ND	2.9	259.3	27	61.7	0	ND
120	2010-02-01T23:00:00	ND	ND	ND	645.85	ND	ND	1.4	290.2	26.4	64.4	0	ND
121	2010-02-02T00:00:00	ND	ND	ND	690.59	ND	ND	0.9	42.5	25.1	71.2	0	ND
122	2010-02-02T01:00:00	ND	ND	ND	710.51	ND	ND	0.5	20.4	24.4	73.8	0	ND
123	2010-02-02T02:00:00	ND	ND	ND	868.91	ND	ND	0.5	64.1	24.2	75.4	0	ND
124	2010-02-02T03:00:00	ND	ND	ND	696.94	ND	ND	0.9	146.3	23.8	77.3	0	ND
125	2010-02-02T04:00:00	ND	ND	ND	821.52	ND	ND	0.3	160.9	23.6	77	0	ND
126	2010-02-02T05:00:00	ND	ND	ND	706.94	ND	ND	0.7	172.3	23.5	77	0	ND
127	2010-02-02T06:00:00	ND	ND	ND	661.11	ND	ND	0.4	191	23.1	79.5	0	ND
128	2010-02-02T07:00:00	ND	ND	ND	705.75	ND	ND	0.6	134.9	23	78.8	5.6	ND
129	2010-02-02T08:00:00	ND	ND	ND	807.92	ND	ND	0.6	144.8	23.9	74.6	57	ND
130	2010-02-02T09:00:00	ND	ND	ND	2191.45	ND	ND	1.1	134.3	25.5	68.3	137.2	ND
131	2010-02-02T10:00:00	ND	ND	ND	2903.25	ND	ND	1.1	145	27.1	62.7	216.8	ND
132	2010-02-02T11:00:00	ND	ND	ND	1984.33	ND	ND	1	72.2	28.6	57.6	272.6	ND
133	2010-02-02T12:00:00	ND	ND	ND	1124.66	ND	ND	1.3	77.6	30.4	52.3	241.5	ND
134	2010-02-02T13:00:00	ND	ND	ND	1049.73	ND	ND	1.6	91.7	32	48.6	313.5	ND
135	2010-02-02T14:00:00	ND	ND	ND	1254.59	ND	ND	1.4	52.7	33.3	45.4	282.2	ND
136	2010-02-02T15:00:00	ND	ND	ND	1330.59	ND	ND	2	290.3	33.3	44.1	240.4	ND
137	2010-02-02T16:00:00	ND	ND	ND	1047.99	ND	ND	5.4	279.9	31.9	47.5	212.9	ND
138	2010-02-02T17:00:00	ND	ND	ND	832.21	ND	ND	5.7	281.4	30.2	52.3	107	ND
139	2010-02-02T18:00:00	ND	ND	ND	769.29	ND	ND	5.9	277.1	28.9	57.1	17.4	ND
140	2010-02-02T19:00:00	ND	ND	ND	812.42	ND	ND	5.1	272.6	28.4	57.8	1.2	ND
141	2010-02-02T20:00:00	ND	ND	ND	764.73	ND	ND	2.9	289.7	28.7	56.2	0	ND
142	2010-02-02T21:00:00	ND	ND	ND	800.28	ND	ND	2.5	291.4	28.4	56.9	0	ND
143	2010-02-02T22:00:00	ND	ND	ND	718.38	ND	ND	3.4	249.4	27.6	61.1	0	ND
144	2010-02-02T23:00:00	ND	ND	ND	543.13	ND	ND	0.8	285.8	27.3	63	0	ND
145	2010-02-03T00:00:00	ND	ND	ND	681.13	ND	ND	0.6	286.3	27	64	0	ND
146	2010-02-03T01:00:00	ND	ND	ND	807.31	ND	ND	0.6	81.7	25.7	70.1	0	ND
147	2010-02-03T02:00:00	ND	ND	ND	769.36	ND	ND	1.4	153.6	25.4	72.2	0	ND
148	2010-02-03T03:00:00	ND	ND	ND	642.40	ND	ND	0.3	75.9	25	73.8	0	ND
149	2010-02-03T04:00:00	ND	ND	ND	641.54	ND	ND	0.3	167.8	25.2	73.6	0	ND
150	2010-02-03T05:00:00	ND	ND	ND	538.80	ND	ND	1.3	139	25.1	74.2	0	ND
151	2010-02-03T06:00:00	ND	ND	ND	584.46	ND	ND	0.9	173.8	24.6	76.5	0	ND
152	2010-02-03T07:00:00	ND	ND	ND	663.56	ND	ND	1	165.2	24.5	77.8	2	ND
153	2010-02-03T08:00:00	ND	ND	ND	777.71	ND	ND	1.2	186.4	25.1	74.3	38.3	ND
154	2010-02-03T09:00:00	ND	ND	ND	1524.17	ND	ND	1.3	146.8	25.8	71	67.4	ND
155	2010-02-03T10:00:00	ND	ND	ND	1677.08	ND	ND	0.7	153.3	27.2	65.4	193.8	ND
156	2010-02-03T11:00:00	ND	ND	ND	1557.99	ND	ND	1	120.9	29.6	56	261.1	ND
157	2010-02-03T12:00:00	ND	ND	ND	1384.32	ND	ND	0.9	113.1	31.2	51.1	269.8	ND
158	2010-02-03T13:00:00	ND	ND	ND	1134.36	ND	ND	0.8	88.3	32.7	46.5	310.5	ND
159	2010-02-03T14:00:00	ND	ND	ND	1081.19	ND	ND	1	98.8	33.6	42.2	305.1	ND
160	2010-02-03T15:00:00	ND	ND	ND	1178.67	ND	ND	1.3	67.7	34.7	38.1	234.1	ND
161	2010-02-03T16:00:00	ND	ND	ND	1123.75	ND	ND	1.3	340.7	34.2	40.1	139.2	ND
162	2010-02-03T17:00:00	ND	ND	ND	1051.07	ND	ND	ND	ND	ND	ND	ND	ND
163	2010-02-03T18:00:00	ND	ND	ND	ND	ND	ND	4.5	271.4	30.7	50.9	29	ND
164	2010-02-03T19:00:00	ND	ND	ND	1085.79	ND	ND	4.3	271.5	29.5	54.1	1.8	ND
165	2010-02-03T20:00:00	ND	ND	ND	941.95	ND	ND	4.3	265.6	28.7	57.2	0	3
166	2010-02-03T21:00:00	ND	6.02	ND	1101.84	ND	ND	3.4	267.8	28.1	59.8	0	0
167	2010-02-03T22:00:00	ND	6.09	ND	1018.62	ND	ND	3	277.3	27.9	60.1	0	0
168	2010-02-03T23:00:00	ND	4.55	ND	763.46	ND	ND	2.2	271.8	27.7	61.7	0	0
169	2010-02-04T00:00:00	ND	3.99	ND	635.79	ND	ND	1.6	269.3	27.2	64.3	0	0
170	2010-02-04T01:00:00	ND	3.33	ND	588.57	ND	ND	0.5	39.7	25.7	71	0	0
171	2010-02-04T02:00:00	ND	2.76	ND	631.56	ND	ND	0.4	138.8	25.3	72.4	0	0
172	2010-02-04T03:00:00	ND	3.99	ND	871.54	ND	ND	0.5	161.8	24.9	74.2	0	0
173	2010-02-04T04:00:00	ND	3.51	ND	778.75	ND	ND	0.7	159.5	24.4	75.6	0	0
174	2010-02-04T05:00:00	ND	4.16	ND	720.28	ND	ND	0.3	191.1	24.3	73.3	0	0
175	2010-02-04T06:00:00	ND	4.63	ND	720.04	ND	ND	0.5	191.8	24	74.7	0	0
176	2010-02-04T07:00:00	ND	6.45	ND	707.89	ND	ND	0.1	202.2	23.7	76.5	3.8	0
177	2010-02-04T08:00:00	ND	6.47	ND	855.46	ND	ND	0.9	94.5	24.5	74.1	57.1	0
178	2010-02-04T09:00:00	ND	8.55	ND	2070.07	ND	ND	0.8	82.8	26	69.1	130	0
179	2010-02-04T10:00:00	ND	9.65	ND	3632.27	ND	ND	1.3	104.4	27.9	61.2	208.4	0
180	2010-02-04T11:00:00	ND	9.66	ND	2487.03	ND	ND	1.3	119.8	28.9	56.9	253.8	0
181	2010-02-04T12:00:00	ND	16.11	ND	1462.36	ND	ND	0.9	98.6	30.9	51	266.6	0
182	2010-02-04T13:00:00	ND	13.20	ND	1203.34	ND	ND	0.7	62.1	32.2	47	280.5	0
183	2010-02-04T14:00:00	ND	15.35	ND	1243.68	ND	ND	1	13.7	33	44.4	157.4	0
184	2010-02-04T15:00:00	ND	16.41	ND	1305.76	ND	ND	2.7	275.3	33.7	40.2	265.8	0
185	2010-02-04T16:00:00	ND	16.18	ND	1013.99	ND	ND	4.5	276.6	32.8	43.3	199	0
186	2010-02-04T17:00:00	ND	7.04	ND	987.50	ND	ND	4.9	275.2	31	49.1	108.9	0
187	2010-02-04T18:00:00	ND	5.75	ND	911.57	ND	ND	3.9	272.9	30.2	51.1	35.7	0
188	2010-02-04T19:00:00	ND	5.57	ND	874.20	ND	ND	4.2	270.1	29.1	54.1	1.9	0
189	2010-02-04T20:00:00	ND	6.19	ND	1045.23	ND	ND	3.3	272.2	28.8	54.9	0	0
190	2010-02-04T21:00:00	ND	5.94	ND	1055.80	ND	ND	3.2	271.5	28.5	56.1	0	0
191	2010-02-04T22:00:00	ND	5.01	ND	1043.16	ND	ND	3.5	266.2	27.8	59.5	0	0
192	2010-02-04T23:00:00	ND	3.60	ND	809.46	ND	ND	3.5	267.6	27.6	60.8	0	0
193	2010-02-05T00:00:00	ND	3.41	ND	693.36	ND	ND	1.1	309.8	26.9	64.4	0	0
194	2010-02-05T01:00:00	ND	2.40	ND	587.98	ND	ND	2.3	286.7	27	64	0	0
195	2010-02-05T02:00:00	ND	3.14	ND	922.64	ND	ND	0.7	180.9	25.8	69.5	0	0
196	2010-02-05T03:00:00	ND	2.18	ND	539.88	ND	ND	1.1	162.5	24.9	73.7	0	0
197	2010-02-05T04:00:00	ND	2.91	ND	858.92	ND	ND	1.6	178.1	24.5	75.3	0	0
198	2010-02-05T05:00:00	ND	2.72	ND	823.45	ND	ND	1.3	182.3	24.3	75.9	0	0
199	2010-02-05T06:00:00	ND	2.77	ND	857.19	ND	ND	0.3	103	24.4	75.6	0	0
200	2010-02-05T07:00:00	ND	3.53	ND	914.64	ND	ND	0.7	128.5	24.2	76.3	1.5	0
201	2010-02-05T08:00:00	ND	4.47	ND	1233.93	ND	ND	0.1	54.7	24.2	78	34.6	0
202	2010-02-05T09:00:00	ND	7.74	ND	2147.96	ND	ND	0.8	125.8	26	70.7	85	0
203	2010-02-05T10:00:00	ND	7.49	ND	2666.73	ND	ND	2	160.5	27.5	63.2	203.5	0
204	2010-02-05T11:00:00	ND	10.89	ND	3407.89	ND	ND	1	159.1	29.8	54.1	272.2	0
205	2010-02-05T12:00:00	ND	12.22	ND	1757.73	ND	ND	1	89.5	30.9	50.8	205.4	0
206	2010-02-05T13:00:00	ND	9.17	ND	1098.19	ND	ND	0.7	15.5	32	47.5	280.4	0
207	2010-02-05T14:00:00	ND	8.53	ND	1453.92	ND	ND	1.2	335.1	32.9	43.1	228.3	0
208	2010-02-05T15:00:00	ND	8.50	ND	1340.61	ND	ND	3.6	278.6	33.3	41.1	288.8	0
209	2010-02-05T16:00:00	ND	7.81	ND	942.01	ND	ND	5	281.6	32.2	45.1	225.2	0
210	2010-02-05T17:00:00	ND	5.80	ND	950.36	ND	ND	5.5	286.8	30.1	51.5	103.6	0
211	2010-02-05T18:00:00	ND	4.69	ND	897.21	ND	ND	6.3	276	28.1	57.1	267.6	0
212	2010-02-05T19:00:00	ND	5.00	ND	949.17	ND	ND	6.2	275.4	27.8	57.1	11.2	0
213	2010-02-05T20:00:00	ND	5.10	ND	948.22	ND	ND	5.3	272.7	27.5	58.8	0	0
214	2010-02-05T21:00:00	ND	3.38	ND	866.41	ND	ND	3.8	274.4	26.8	61.6	0	0
215	2010-02-05T22:00:00	ND	3.32	ND	852.87	ND	ND	3.3	270	26.5	62	0	0
216	2010-02-05T23:00:00	ND	2.66	ND	771.42	ND	ND	2.1	292.2	26.6	59.5	0	0
217	2010-02-06T00:00:00	ND	2.27	ND	748.64	ND	ND	0.9	251.2	26.8	59.1	0	0
218	2010-02-06T01:00:00	ND	1.92	ND	587.79	ND	ND	1.6	142.8	24.7	80.2	0	1.5
219	2010-02-06T02:00:00	ND	2.25	ND	698.12	ND	ND	0.3	202.5	22.9	90.5	0	6
220	2010-02-06T03:00:00	ND	2.03	ND	932.78	ND	ND	0.4	298.3	22.4	89	0	2.5
221	2010-02-06T04:00:00	ND	2.05	ND	874.42	ND	ND	1.2	51.6	22	93.3	0	2.75
222	2010-02-06T05:00:00	ND	1.82	ND	805.19	ND	ND	0.4	153.5	22.2	92.7	0	0.25
223	2010-02-06T06:00:00	ND	2.34	ND	749.00	ND	ND	0.7	175.9	22.2	93.7	0	0.25
224	2010-02-06T07:00:00	ND	2.26	ND	817.09	ND	ND	1.2	170.4	22.2	93.4	3.5	1
225	2010-02-06T08:00:00	ND	2.21	ND	941.92	ND	ND	0.9	150.3	22.3	93.5	28.1	0.25
226	2010-02-06T09:00:00	ND	2.57	ND	1214.69	ND	ND	1	193.1	22.3	93.4	48.2	6.5
227	2010-02-06T10:00:00	ND	3.40	ND	1998.00	ND	ND	0.5	195.5	21.6	98.6	50.8	ND
228	2010-02-06T11:00:00	ND	4.02	ND	2117.84	ND	ND	1.3	207	22.2	94.6	164	0.5
229	2010-02-06T12:00:00	ND	4.36	ND	2031.37	ND	ND	0.9	167.4	22.9	87.1	108.8	1
230	2010-02-06T13:00:00	ND	3.56	ND	2127.19	ND	ND	1	155.3	23	86.7	211.3	0.25
231	2010-02-06T14:00:00	ND	4.58	ND	2492.04	ND	ND	1.2	153.2	22.6	90	74.9	4
232	2010-02-06T15:00:00	ND	4.37	ND	2204.58	ND	ND	1.2	182.4	22.5	90.8	74.4	0.25
233	2010-02-06T16:00:00	ND	5.72	ND	2590.07	ND	ND	1.8	157.3	22.2	88.9	54.4	0
234	2010-02-06T17:00:00	ND	4.67	ND	2088.11	ND	ND	0.9	186.2	22.3	88.1	30.2	0
235	2010-02-06T18:00:00	ND	6.65	ND	2259.10	ND	ND	1.1	209.8	22.1	87.9	18.7	0.5
236	2010-02-06T19:00:00	ND	5.50	ND	1928.58	ND	ND	0.3	237.2	22.1	86.9	0.4	0
237	2010-02-06T20:00:00	ND	5.97	ND	2132.78	ND	ND	0.7	130.1	22.3	89.2	0	0
238	2010-02-06T21:00:00	ND	4.36	ND	2327.22	ND	ND	1.1	154	21.9	91.6	0	0.25
239	2010-02-06T22:00:00	ND	8.56	ND	3843.21	ND	ND	1.4	196	21.8	91.3	0	0
240	2010-02-06T23:00:00	ND	5.29	ND	2470.61	ND	ND	0.9	235.3	21.9	87.8	0	0
241	2010-02-07T00:00:00	ND	3.16	ND	1677.86	ND	ND	0.4	148.2	21.6	88.9	0	0
242	2010-02-07T01:00:00	ND	2.33	ND	1744.11	ND	ND	0.3	89.8	21.3	90.7	0	0
243	2010-02-07T02:00:00	ND	4.19	ND	2240.14	ND	ND	0.5	191.2	20.7	93	0	0
244	2010-02-07T03:00:00	ND	4.96	ND	2404.93	ND	ND	0.7	235.7	20.6	85.8	0	0
245	2010-02-07T04:00:00	ND	3.23	ND	1478.59	ND	ND	0.5	277	20.8	86.1	0	0
246	2010-02-07T05:00:00	ND	2.61	ND	1253.70	ND	ND	0.7	232.6	20.6	85.8	0	0
247	2010-02-07T06:00:00	ND	3.23	ND	1320.57	ND	ND	0.7	218.4	20.6	88.8	0	0
248	2010-02-07T07:00:00	ND	3.41	ND	1433.44	ND	ND	0.6	175.8	20.9	86.6	20.3	0
249	2010-02-07T08:00:00	ND	2.77	ND	1276.73	ND	ND	1	129.8	20.9	87.7	77	0
250	2010-02-07T09:00:00	ND	4.01	ND	1581.78	ND	ND	0.9	131.8	21.3	87.4	180.3	0
251	2010-02-07T10:00:00	ND	4.19	ND	1742.33	ND	ND	1	122.3	22.3	81.2	333	0
252	2010-02-07T11:00:00	ND	2.99	ND	1521.21	ND	ND	0.8	88.9	23.8	73.8	590.4	0
253	2010-02-07T12:00:00	ND	2.77	ND	1551.75	ND	ND	0.5	66.6	26.3	64.5	818.7	0
254	2010-02-07T13:00:00	ND	2.50	ND	1219.64	ND	ND	1.2	90.6	27.9	59.2	951.2	0
255	2010-02-07T14:00:00	ND	3.10	ND	1179.89	ND	ND	1	106	29.1	53.6	878.6	0
256	2010-02-07T15:00:00	ND	3.24	ND	1184.60	ND	ND	0.5	108	29.7	51.5	571.7	0
257	2010-02-07T16:00:00	ND	3.49	ND	1152.04	ND	ND	0.6	67.7	30.2	50.1	405.3	0
258	2010-02-07T17:00:00	ND	3.63	ND	1200.57	ND	ND	1.2	299.1	29.2	53.2	125.6	0
259	2010-02-07T18:00:00	ND	4.09	ND	1092.05	ND	ND	3.3	270.8	28	56.8	95.8	0
260	2010-02-07T19:00:00	ND	3.36	ND	983.57	ND	ND	3.9	269.2	26.7	60.5	3.6	0
261	2010-02-07T20:00:00	ND	2.29	ND	875.63	ND	ND	3.6	265.8	25.9	64	0	0
262	2010-02-07T21:00:00	ND	2.21	ND	850.31	ND	ND	3.4	263.7	25.6	65.8	0	0
263	2010-02-07T22:00:00	ND	2.23	ND	1010.16	ND	ND	1.7	280.5	25.4	65.8	0	0
264	2010-02-07T23:00:00	ND	1.92	ND	1020.96	ND	ND	0.9	225.4	25.1	69	0	0
265	2010-02-08T00:00:00	ND	1.81	ND	1008.47	ND	ND	1.1	188.2	23.8	79.1	0	0
266	2010-02-08T01:00:00	ND	1.93	ND	1300.73	ND	ND	1.1	189	23.5	80.3	0	0
267	2010-02-08T02:00:00	ND	2.66	ND	1436.20	ND	ND	0.4	36	23.3	81.4	0	0
268	2010-02-08T03:00:00	ND	2.27	ND	1275.76	ND	ND	0.7	131.1	23.1	82.9	0	0
269	2010-02-08T04:00:00	ND	2.71	ND	1354.58	ND	ND	0.4	149	22.8	83.4	0	0
270	2010-02-08T05:00:00	ND	2.68	ND	1284.98	ND	ND	0.4	176.2	22.6	84.6	0	0
271	2010-02-08T06:00:00	ND	2.21	ND	1090.93	ND	ND	0.6	173.8	22.6	84.5	0	0
272	2010-02-08T07:00:00	ND	2.08	ND	1034.11	ND	ND	0.6	152.9	22.8	84.5	14.9	0
273	2010-02-08T08:00:00	ND	2.76	ND	1262.24	ND	ND	0.8	130.9	23.4	78.1	116.4	0
274	2010-02-08T09:00:00	ND	6.23	ND	2518.20	ND	ND	0.7	156.2	25	70.9	430.4	0
275	2010-02-08T10:00:00	ND	5.74	ND	2875.47	ND	ND	1.3	169.7	26.8	61.9	657.6	0
276	2010-02-08T11:00:00	ND	4.16	ND	2201.33	ND	ND	1.3	154.7	28.3	56.3	846.6	0
277	2010-02-08T12:00:00	ND	3.79	ND	1633.19	ND	ND	0.7	128.2	28.8	54.2	596.7	0
278	2010-02-08T13:00:00	ND	3.58	ND	1241.43	ND	ND	1.4	33.8	30.4	49.4	856.8	0
279	2010-02-08T14:00:00	ND	4.43	ND	1329.66	ND	ND	1.1	352.1	31.3	46.6	680.5	0
280	2010-02-08T15:00:00	ND	5.16	ND	1520.77	ND	ND	3.5	279.6	31.3	45.5	760.2	0
281	2010-02-08T16:00:00	ND	4.39	ND	1275.11	ND	ND	5.1	283.1	30.3	48.3	637	0
282	2010-02-08T17:00:00	ND	5.60	ND	1270.92	ND	ND	5.4	280.6	28.9	52.6	304.5	0
283	2010-02-08T18:00:00	ND	4.14	ND	1218.63	ND	ND	6	279.8	27.7	56.5	98.4	0
284	2010-02-08T19:00:00	ND	4.12	ND	1260.03	ND	ND	5.9	274.5	26.9	58.9	4.1	0
285	2010-02-08T20:00:00	ND	3.88	ND	1233.62	ND	ND	4	284.6	26.9	57.9	0	0
286	2010-02-08T21:00:00	ND	3.19	ND	1222.09	ND	ND	3.5	273	26.1	60.4	0	0
287	2010-02-08T22:00:00	ND	2.71	ND	1126.84	ND	ND	4	265.2	25.6	62.3	0	0
288	2010-02-08T23:00:00	ND	2.39	ND	1159.39	ND	ND	2.8	275.6	25.5	63.1	0	0
289	2010-02-09T00:00:00	ND	1.84	ND	1044.25	ND	ND	0.5	57.4	24.8	67.9	0	0
290	2010-02-09T01:00:00	ND	1.78	ND	938.77	ND	ND	0.9	143.4	24.1	72	0	0
291	2010-02-09T02:00:00	ND	2.12	ND	1073.62	ND	ND	0.4	142.9	23.9	72.9	0	0
292	2010-02-09T03:00:00	ND	2.27	ND	1118.55	ND	ND	1.3	150.8	23.6	77.3	0	6.35
293	2010-02-09T04:00:00	ND	2.09	ND	1049.01	ND	ND	0.6	64.1	21.3	93.2	0	11.18
294	2010-02-09T05:00:00	ND	2.17	ND	1018.25	ND	ND	0.5	134.7	20.7	95.5	0	12.45
295	2010-02-09T06:00:00	ND	1.99	ND	993.59	ND	ND	0.7	94.3	20.9	96.5	0	4.83
296	2010-02-09T07:00:00	ND	2.25	ND	1028.16	ND	ND	0.4	129.9	21.1	95.8	2	0.76
297	2010-02-09T08:00:00	ND	3.08	ND	1266.29	ND	ND	0.8	168.7	21.6	94.1	53.7	0
298	2010-02-09T09:00:00	ND	3.94	ND	1846.03	ND	ND	1.3	168.7	22.4	90.1	148.4	0
299	2010-02-09T10:00:00	ND	5.06	ND	2782.25	ND	ND	0.9	177.2	23	86.1	220.2	0
300	2010-02-09T11:00:00	ND	6.98	ND	2526.18	ND	ND	0.3	175.9	24.4	79.2	349	0
301	2010-02-09T12:00:00	ND	4.99	ND	2057.94	ND	ND	1.6	138.9	24.6	78.1	150.2	0
302	2010-02-09T13:00:00	ND	4.45	ND	2208.05	ND	ND	1.7	152.4	24.3	79.7	250.7	0
303	2010-02-09T14:00:00	ND	5.36	ND	2331.55	ND	ND	1.2	164.2	25.1	74.5	366.5	0
304	2010-02-09T15:00:00	ND	6.68	ND	2200.30	ND	ND	1.2	168.5	25.9	71.1	510.4	0
305	2010-02-09T16:00:00	ND	6.83	ND	1758.07	ND	ND	1.2	75.9	24.7	81	156.9	ND
306	2010-02-09T17:00:00	ND	4.40	ND	1773.90	ND	ND	0.7	137	21.6	100	46.7	10.16
307	2010-02-09T18:00:00	ND	6.86	ND	1947.96	ND	ND	0.8	197.4	22	99.7	44.8	0
308	2010-02-09T19:00:00	ND	8.74	ND	2415.58	ND	ND	1.2	198.8	23	91.8	2.7	0
309	2010-02-09T20:00:00	ND	11.53	ND	3129.28	ND	ND	1.2	152.2	22.8	91.4	0	0
310	2010-02-09T21:00:00	ND	7.72	ND	3820.82	ND	ND	0.9	184.2	22.1	88.1	0	0
311	2010-02-09T22:00:00	ND	14.87	ND	3823.13	ND	ND	0.7	205.1	22.3	88.8	0	0
312	2010-02-09T23:00:00	ND	4.39	ND	2111.52	ND	ND	0.5	7.4	22.5	89.6	0	0
313	2010-02-10T00:00:00	ND	5.66	ND	2839.99	ND	ND	0.1	77.5	22.4	90.1	0	0
314	2010-02-10T01:00:00	ND	6.08	ND	3122.93	ND	ND	0.7	21.2	21.9	91.7	0	0
315	2010-02-10T02:00:00	ND	5.96	ND	2936.26	ND	ND	0.3	117.1	21.5	94.1	0	0.25
316	2010-02-10T03:00:00	ND	5.39	ND	2490.73	ND	ND	0.4	236.8	21.3	94.9	0	0
317	2010-02-10T04:00:00	ND	4.63	ND	2138.31	ND	ND	0.7	225.5	21.4	89.9	0	0
318	2010-02-10T05:00:00	ND	3.78	ND	1810.83	ND	ND	0.3	177.4	21.5	88.2	0	0
319	2010-02-10T06:00:00	ND	3.03	ND	1630.30	ND	ND	0.8	259.5	21.8	86	0	0
320	2010-02-10T07:00:00	ND	3.06	ND	1677.29	ND	ND	0.4	182.5	22.1	84	16.4	0
321	2010-02-10T08:00:00	ND	3.01	ND	1508.83	ND	ND	0.5	168.3	22.6	84.6	127.7	0
322	2010-02-10T09:00:00	ND	5.98	ND	2556.86	ND	ND	1.2	134.4	23	86	292.7	0
323	2010-02-10T10:00:00	ND	8.22	ND	3925.82	ND	ND	1	123.9	24.5	78.6	510	0
324	2010-02-10T11:00:00	ND	6.12	ND	2939.27	ND	ND	0.9	132.5	26	70.2	549.5	0
325	2010-02-10T12:00:00	ND	5.63	ND	2482.82	ND	ND	1	63.3	27.2	65.3	527	0
326	2010-02-10T13:00:00	ND	6.57	ND	1996.53	ND	ND	1	101.8	28.2	61.5	484.9	0
327	2010-02-10T14:00:00	ND	6.09	ND	1910.55	ND	ND	0.8	35.2	29.6	55.5	764	0
328	2010-02-10T15:00:00	ND	8.91	ND	2128.82	ND	ND	1	315.1	30.2	52.7	506.1	0
329	2010-02-10T16:00:00	ND	10.56	ND	1678.46	ND	ND	2.4	277.4	30.3	51.2	476.8	0
330	2010-02-10T17:00:00	ND	12.93	ND	1655.69	ND	ND	3.6	266.2	29.5	52.9	278.9	0
331	2010-02-10T18:00:00	ND	9.60	ND	1755.99	ND	ND	3.4	264.5	28.1	56.3	27.6	0
332	2010-02-10T19:00:00	ND	8.15	ND	1724.71	ND	ND	3.2	267.4	27.4	57.4	0.9	0
333	2010-02-10T20:00:00	ND	5.60	ND	1928.57	ND	ND	2.6	248	26.6	61.7	0.1	0
334	2010-02-10T21:00:00	ND	ND	ND	2096.20	ND	ND	1.9	266.7	26.3	63.2	0	0
335	2010-02-10T22:00:00	ND	ND	ND	1760.43	ND	ND	0.9	13.1	26.1	67.4	0	0
336	2010-02-10T23:00:00	ND	ND	ND	1598.27	ND	ND	0.8	358.3	25.1	75.7	0	0
337	2010-02-11T00:00:00	ND	ND	ND	1902.35	ND	ND	0.3	49.3	24.6	78.8	0	0
338	2010-02-11T01:00:00	ND	ND	ND	2025.00	ND	ND	0.5	265.1	24.5	75.3	0	0
339	2010-02-11T02:00:00	ND	ND	ND	1978.58	ND	ND	1.2	33.6	23.5	84.2	0	0
340	2010-02-11T03:00:00	ND	ND	ND	1766.75	ND	ND	0.5	152.4	23.2	86.7	0	0
341	2010-02-11T04:00:00	ND	ND	ND	1639.71	ND	ND	0.4	257.1	23.5	83.6	0	0
342	2010-02-11T05:00:00	ND	0.05	ND	1481.79	ND	ND	0.4	61.3	23.4	84.8	0	0
343	2010-02-11T06:00:00	ND	0.44	ND	1401.53	ND	ND	0.3	332.3	23.5	80	0	0
344	2010-02-11T07:00:00	ND	0.91	ND	1538.79	ND	ND	0.7	78.1	23.4	80.5	13.6	0
345	2010-02-11T08:00:00	ND	1.43	ND	1618.03	ND	ND	0.3	274.1	23.1	84.2	127	0
346	2010-02-11T09:00:00	ND	1.56	ND	2583.95	ND	ND	0.2	229.2	25.1	72.5	260.7	0
347	2010-02-11T10:00:00	ND	2.15	ND	2727.46	ND	ND	1.5	168.8	26.1	68.4	349.2	0
348	2010-02-11T11:00:00	ND	2.34	ND	2598.63	ND	ND	0.7	164.1	27.4	63.2	690.9	0
349	2010-02-11T12:00:00	ND	3.80	ND	2378.96	ND	ND	0.8	58.2	29	57.6	834.9	0
350	2010-02-11T13:00:00	ND	3.13	ND	1938.84	ND	ND	1.1	116.8	29.8	54.8	855.8	0
351	2010-02-11T14:00:00	ND	3.67	ND	2025.46	ND	ND	0.5	54.2	31.3	49	798.3	0
352	2010-02-11T15:00:00	ND	4.31	ND	2246.07	ND	ND	1.2	303.5	31.4	47.1	522	0
353	2010-02-11T16:00:00	ND	4.71	ND	2024.47	ND	ND	3.5	284.7	31.9	45.7	631.6	0
354	2010-02-11T17:00:00	ND	5.28	ND	1781.64	ND	ND	4.3	278	30.1	50	356.3	0
355	2010-02-11T18:00:00	ND	5.76	ND	1689.56	ND	ND	3.5	280.5	29.5	50.3	142.8	0
356	2010-02-11T19:00:00	ND	6.06	ND	1686.21	ND	ND	3.9	271.4	28.1	54.7	4.7	0
357	2010-02-11T20:00:00	ND	6.30	ND	1771.01	ND	ND	3.7	268.3	27.8	55.2	0	0
358	2010-02-11T21:00:00	ND	6.14	ND	1873.32	ND	ND	0.4	0.8	27.4	58.2	0	0
359	2010-02-11T22:00:00	ND	6.23	ND	1709.15	ND	ND	1	270.4	27	60.8	0	0
360	2010-02-11T23:00:00	ND	6.28	ND	2179.73	ND	ND	1.8	246.3	26.4	64.9	0	0
361	2010-02-12T00:00:00	ND	6.32	ND	1887.62	ND	ND	2.1	263.9	26.4	63.3	0	0
362	2010-02-12T01:00:00	ND	6.37	ND	1761.01	ND	ND	0.5	7.7	25.1	72	0	0
363	2010-02-12T02:00:00	ND	6.34	ND	1398.11	ND	ND	0.2	84.4	24.4	76.3	0	0
364	2010-02-12T03:00:00	ND	6.35	ND	1394.83	ND	ND	0.6	183.1	24.4	76.6	0	0
365	2010-02-12T04:00:00	ND	6.64	ND	1497.72	ND	ND	0.6	96	24.3	77.5	0	0
366	2010-02-12T05:00:00	ND	6.43	ND	1428.65	ND	ND	0.5	70.3	23.4	80.9	0	0
367	2010-02-12T06:00:00	ND	6.72	ND	1469.90	ND	ND	0.7	192.3	23.8	79.8	0	0
368	2010-02-12T07:00:00	ND	6.76	ND	1369.19	ND	ND	0.9	172	23.9	80.9	16.7	0
369	2010-02-12T08:00:00	ND	6.42	ND	1826.21	ND	ND	0.7	97.6	24	80.8	73.7	0
370	2010-02-12T09:00:00	ND	6.58	ND	2534.71	ND	ND	0.3	182.2	25.2	74.8	327.2	0
371	2010-02-12T10:00:00	ND	6.35	ND	3141.07	ND	ND	0.8	182.8	27.7	62.5	605.5	0
372	2010-02-12T11:00:00	ND	6.58	ND	3040.25	ND	ND	1.5	150.7	28.8	58.8	756.4	0
373	2010-02-12T12:00:00	ND	ND	ND	2204.41	ND	ND	1.4	91.8	29.9	55.4	879.1	0
374	2010-02-12T13:00:00	ND	ND	ND	1921.33	ND	ND	1	19.3	31.3	50.1	745.2	0
375	2010-02-12T14:00:00	ND	ND	ND	ND	ND	ND	2.9	286.9	31.5	45.9	619.8	0
376	2010-02-12T15:00:00	ND	ND	ND	327.77	ND	ND	5	283.7	31.5	45.1	740	0
377	2010-02-12T16:00:00	ND	ND	ND	70.24	ND	ND	5.3	279	30.3	49.5	531	0
378	2010-02-12T17:00:00	ND	ND	ND	ND	ND	ND	5.1	284.1	29.2	52.9	348.8	0
379	2010-02-12T18:00:00	ND	ND	ND	ND	ND	ND	5.8	284.8	27.7	57	41.6	0
380	2010-02-12T19:00:00	ND	ND	ND	11.56	ND	ND	5.7	279.3	27	58.7	1.7	0
381	2010-02-12T20:00:00	ND	ND	ND	11.53	ND	ND	3.6	230.4	26.3	62.6	0	0
382	2010-02-12T21:00:00	ND	ND	ND	ND	ND	ND	1.9	173.5	25.3	66.2	0	0
383	2010-02-12T22:00:00	ND	ND	ND	80.27	ND	ND	1.9	155.7	24.5	71.1	0	0
384	2010-02-12T23:00:00	ND	ND	ND	446.04	ND	ND	0.5	148.9	23.4	77.6	0	0
385	2010-02-13T00:00:00	ND	ND	ND	364.63	ND	ND	1.3	27.3	24.3	73.1	0	0
386	2010-02-13T01:00:00	ND	ND	ND	354.30	ND	ND	1.5	72.7	22.3	80.1	0	0
387	2010-02-13T02:00:00	ND	ND	ND	544.91	ND	ND	0.9	182.1	21.9	80.2	0	0
388	2010-02-13T03:00:00	ND	ND	ND	22.67	ND	ND	0.4	224.5	22.2	79.5	0	0
389	2010-02-13T04:00:00	ND	ND	ND	11.35	ND	ND	0.7	237.6	22.7	78	0	0
390	2010-02-13T05:00:00	ND	ND	ND	ND	ND	ND	0.6	290.9	23.3	75.5	0	0
391	2010-02-13T06:00:00	ND	ND	ND	ND	ND	ND	0.8	84.9	22.8	79.9	0	0
392	2010-02-13T07:00:00	ND	ND	ND	ND	ND	ND	0.7	158.5	21.7	85.8	16.8	0
393	2010-02-13T08:00:00	ND	ND	ND	192.60	ND	ND	0.5	121.2	22.7	82	190	0
394	2010-02-13T09:00:00	ND	ND	ND	341.03	ND	ND	0.6	103.7	24.8	72.2	385.1	0
395	2010-02-13T10:00:00	ND	ND	ND	938.77	ND	ND	1.1	147.9	26.8	63	613.3	0
396	2010-02-13T11:00:00	ND	ND	ND	1060.32	ND	ND	0.9	149.7	27.8	58.7	616.4	0
397	2010-02-13T12:00:00	ND	ND	ND	370.04	ND	ND	0.8	106.6	29.2	54.1	793.9	0
398	2010-02-13T13:00:00	ND	ND	ND	116.18	ND	ND	0.8	67.2	30.5	49.7	636.2	0
399	2010-02-13T14:00:00	ND	ND	ND	268.35	ND	ND	0.7	334.3	31.1	47.4	652.2	0
400	2010-02-13T15:00:00	ND	ND	ND	187.05	ND	ND	1.3	7.3	31.8	44.7	555.4	0
401	2010-02-13T16:00:00	ND	ND	ND	70.30	ND	ND	3	284.3	32.4	42.2	641.4	0
402	2010-02-13T17:00:00	ND	ND	ND	93.92	ND	ND	4.2	280.8	30.3	48.9	190.5	0
403	2010-02-13T18:00:00	ND	ND	ND	ND	ND	ND	5	276.9	28.7	54.2	66	0
404	2010-02-13T19:00:00	ND	ND	ND	ND	ND	ND	5.4	276.8	27.5	59.2	2.4	0
405	2010-02-13T20:00:00	ND	ND	ND	ND	ND	ND	5.6	269.7	27.1	60	0	0
406	2010-02-13T21:00:00	ND	ND	ND	ND	ND	ND	2.5	290	27.4	58.3	0	0
407	2010-02-13T22:00:00	ND	ND	ND	ND	ND	ND	3	267.5	26.9	60.8	0	0
408	2010-02-13T23:00:00	ND	ND	ND	ND	ND	ND	2.5	275	26.6	62.1	0	0
409	2010-02-14T00:00:00	ND	ND	ND	ND	ND	ND	0.2	21.4	26.2	65.4	0	0
410	2010-02-14T01:00:00	ND	ND	ND	ND	ND	ND	1.6	243.5	26.1	64.5	0	0
411	2010-02-14T02:00:00	ND	ND	ND	91.99	ND	ND	1.4	229.4	25.7	67.6	0	0
412	2010-02-14T03:00:00	ND	ND	ND	ND	ND	ND	1.7	205.3	25.3	71.1	0	0
413	2010-02-14T04:00:00	ND	ND	ND	ND	ND	ND	1.7	178.5	24.7	75.2	0	0
414	2010-02-14T05:00:00	ND	ND	ND	11.44	ND	ND	1.3	183.7	24.4	75.8	0	0
415	2010-02-14T06:00:00	ND	ND	ND	ND	ND	ND	0.8	160.9	24.1	78.3	0	0
416	2010-02-14T07:00:00	ND	ND	ND	ND	ND	ND	0.5	112.6	23.9	81.1	6.1	0
417	2010-02-14T08:00:00	ND	ND	ND	11.41	ND	ND	0.4	7.8	24.2	79.3	63.7	0
418	2010-02-14T09:00:00	ND	ND	ND	22.85	ND	ND	0.9	49.2	24.4	78.4	61.6	0
419	2010-02-14T10:00:00	ND	ND	ND	80.03	ND	ND	0.7	50.1	25	76	188.4	0
420	2010-02-14T11:00:00	ND	ND	ND	ND	ND	ND	0.7	133.6	26.7	66.7	419.1	0
421	2010-02-14T12:00:00	ND	ND	ND	345.64	ND	ND	0.7	169	28.1	60.1	526	0
422	2010-02-14T13:00:00	ND	ND	ND	324.11	ND	ND	0.8	33.9	28.4	57.9	382.6	0
423	2010-02-14T14:00:00	ND	ND	ND	ND	ND	ND	0.4	94	28.8	57.1	386.1	0
424	2010-02-14T15:00:00	ND	ND	ND	ND	ND	ND	0.7	75.3	29.2	55.5	375.7	0
425	2010-02-14T16:00:00	ND	ND	ND	ND	ND	ND	1.6	296.2	29.2	53.6	202.9	0
426	2010-02-14T17:00:00	ND	ND	ND	ND	ND	ND	3.6	281.6	28.1	54.8	179.7	0
427	2010-02-14T18:00:00	ND	ND	ND	ND	ND	ND	3.7	278	27.8	56	145	0
428	2010-02-14T19:00:00	ND	ND	ND	ND	ND	ND	4.5	274.7	26.6	60.2	9.2	0
429	2010-02-14T20:00:00	ND	ND	ND	ND	ND	ND	3.1	280.1	26.3	60.6	0	0
430	2010-02-14T21:00:00	ND	ND	ND	ND	ND	ND	1.1	306.9	26.3	59.7	0	0
431	2010-02-14T22:00:00	ND	ND	ND	ND	ND	ND	1.9	305.7	25.9	61.7	0	0
432	2010-02-14T23:00:00	ND	ND	ND	ND	ND	ND	0.6	204.6	25.2	67	0	0
433	2010-02-15T00:00:00	ND	ND	ND	34.39	ND	ND	1.9	268.6	25.3	64.8	0	0
434	2010-02-15T01:00:00	ND	ND	ND	550.45	ND	ND	0.7	131.8	24.8	68.3	0	0
435	2010-02-15T02:00:00	ND	ND	ND	68.69	ND	ND	1	148.1	23.6	78.2	0	0
436	2010-02-15T03:00:00	ND	ND	ND	250.85	ND	ND	0.6	114.3	22.9	81.3	0	0
437	2010-02-15T04:00:00	ND	ND	ND	ND	ND	ND	0.3	151	22.7	81.2	0	0
438	2010-02-15T05:00:00	ND	ND	ND	ND	ND	ND	0.3	148.3	22.9	80.6	0	0
439	2010-02-15T06:00:00	ND	ND	ND	ND	ND	ND	0.2	223.9	23	79.2	0	0
440	2010-02-15T07:00:00	ND	ND	ND	ND	ND	ND	0.5	35.4	23.2	79	22.5	0
441	2010-02-15T08:00:00	ND	ND	ND	ND	ND	ND	0.3	180.6	23.8	77	163.1	0
442	2010-02-15T09:00:00	ND	ND	ND	513.45	ND	ND	0.8	165.3	25.8	65.8	458.6	0
443	2010-02-15T10:00:00	ND	ND	ND	1688.56	ND	ND	0.9	122.2	27.4	58.9	552.8	0
444	2010-02-15T11:00:00	ND	ND	ND	1224.12	ND	ND	1	136	28.7	56.7	772.1	0
445	2010-02-15T12:00:00	ND	ND	ND	579.92	ND	ND	1.2	76.7	30	52.2	617.9	0
446	2010-02-15T13:00:00	ND	ND	ND	535.82	ND	ND	1.2	100	30.6	49.9	709.7	0
447	2010-02-15T14:00:00	ND	ND	ND	408.50	ND	ND	0.9	55.1	31.4	47.3	410.5	0
448	2010-02-15T15:00:00	ND	ND	ND	678.72	ND	ND	3.1	287.5	31.2	48.3	636.7	0
449	2010-02-15T16:00:00	ND	ND	ND	526.25	ND	ND	5	280.1	30.6	48.7	603.1	0
450	2010-02-15T17:00:00	ND	ND	ND	175.07	ND	ND	4.6	282.4	29.5	51.5	324.8	0
451	2010-02-15T18:00:00	ND	ND	ND	81.40	ND	ND	4.7	278.9	28.1	56	73.5	0
452	2010-02-15T19:00:00	ND	ND	ND	81.03	ND	ND	4.8	271.9	27.4	58.1	5.8	0
453	2010-02-15T20:00:00	ND	ND	ND	161.68	ND	ND	4.3	257.1	27.3	58.1	0	0
454	2010-02-15T21:00:00	ND	0.66	ND	392.51	ND	ND	1.6	254.5	27	60.2	0	0
455	2010-02-15T22:00:00	ND	ND	ND	115.33	ND	ND	0.9	26.9	25.7	67.9	0	0
456	2010-02-15T23:00:00	ND	0.03	ND	183.73	ND	ND	0.3	64.5	25.1	70.3	0	0
457	2010-02-16T00:00:00	ND	0.39	ND	951.17	ND	ND	1.1	50.5	25.1	70.2	0	0
458	2010-02-16T01:00:00	ND	0.37	ND	836.57	ND	ND	0.8	96.6	24.6	71.5	0	0
459	2010-02-16T02:00:00	ND	0.31	ND	549.15	ND	ND	1	181.5	23.9	75.4	0	0
460	2010-02-16T03:00:00	ND	0.05	ND	91.31	ND	ND	0.6	210.3	24	74.9	0	0
461	2010-02-16T04:00:00	ND	0.13	ND	ND	ND	ND	0.4	104.8	24	78	0	0
462	2010-02-16T05:00:00	ND	ND	ND	ND	ND	ND	0.6	75.1	23.9	78.5	0	0
463	2010-02-16T06:00:00	ND	ND	ND	ND	ND	ND	0.5	165.8	24	78.1	0	0
464	2010-02-16T07:00:00	ND	ND	ND	91.34	ND	ND	0.5	198	23.9	79.1	8.6	0
465	2010-02-16T08:00:00	ND	0.42	ND	433.72	ND	ND	0.5	188.2	24.3	74.8	48.8	0
466	2010-02-16T09:00:00	ND	1.44	ND	1028.62	ND	ND	0.7	162.4	24.9	73.1	118	0
467	2010-02-16T10:00:00	ND	1.73	ND	1660.57	ND	ND	1.1	140.8	25.4	72.9	168.2	0
468	2010-02-16T11:00:00	ND	2.34	ND	1319.22	ND	ND	1.1	157.6	26.3	69.7	410.6	0
469	2010-02-16T12:00:00	ND	3.58	ND	1702.90	ND	ND	1.5	154.8	27.4	65.4	476.4	0
470	2010-02-16T13:00:00	ND	4.97	ND	808.38	ND	ND	0.6	117.9	28.4	59.3	475.7	0
471	2010-02-16T14:00:00	ND	4.64	ND	590.93	ND	ND	0.8	114.3	29.2	56.2	570.5	0
472	2010-02-16T15:00:00	ND	2.10	ND	441.47	ND	ND	1.3	5.9	30.3	53.3	483.7	0
473	2010-02-16T16:00:00	ND	2.69	ND	571.33	ND	ND	0.8	200	30.5	50.7	402.5	0
474	2010-02-16T17:00:00	ND	2.94	ND	595.04	ND	ND	1.6	145.8	29.7	57.3	139.6	0
475	2010-02-16T18:00:00	ND	4.82	ND	500.38	ND	ND	1.5	248.6	28.9	56.5	27.1	0
476	2010-02-16T19:00:00	ND	4.83	ND	1265.05	ND	ND	3.6	269.2	27.7	58.3	2.4	0
477	2010-02-16T20:00:00	ND	4.84	ND	728.27	ND	ND	3.5	262.9	26.8	61.8	0	0
478	2010-02-16T21:00:00	ND	0.37	ND	530.16	ND	ND	3.7	264.4	26.4	62.8	0	0
479	2010-02-16T22:00:00	ND	ND	ND	368.32	ND	ND	2.3	270.8	26.4	61.1	0	0
480	2010-02-16T23:00:00	ND	ND	ND	80.57	ND	ND	0.6	231.8	25.7	67.6	0	0
481	2010-02-17T00:00:00	ND	ND	ND	103.35	ND	ND	1.1	189.8	25.4	72.7	0	0
482	2010-02-17T01:00:00	ND	ND	ND	780.06	ND	ND	1.1	191.1	24.7	75.2	0	0
483	2010-02-17T02:00:00	ND	ND	ND	675.23	ND	ND	0.8	210.1	24.6	73.1	0	0
484	2010-02-17T03:00:00	ND	ND	ND	411.87	ND	ND	0.3	68	23.5	81.1	0	0
485	2010-02-17T04:00:00	ND	ND	ND	148.18	ND	ND	1	144.6	23.3	82.4	0	0
486	2010-02-17T05:00:00	ND	ND	ND	227.81	ND	ND	0.8	177.7	23.1	80.7	0	0
487	2010-02-17T06:00:00	ND	ND	ND	170.75	ND	ND	0.4	154.1	23	80.9	0	0
488	2010-02-17T07:00:00	ND	ND	ND	22.76	ND	ND	0.4	135.1	23.2	81.9	14.4	0
489	2010-02-17T08:00:00	ND	ND	ND	296.06	ND	ND	0.7	82.2	23.7	81.2	106.1	0
490	2010-02-17T09:00:00	ND	0.81	ND	1209.05	ND	ND	0.9	78.5	24.5	76.8	177.3	0
491	2010-02-17T10:00:00	ND	2.96	ND	2573.29	ND	ND	0.7	149.8	26.2	67.1	502.5	0
492	2010-02-17T11:00:00	ND	2.81	ND	2116.41	ND	ND	0.9	143.9	28.2	57.7	770.5	0
493	2010-02-17T12:00:00	ND	0.66	ND	706.32	ND	ND	1	151.9	30.1	51.5	799.9	0
494	2010-02-17T13:00:00	ND	4.24	ND	501.04	ND	ND	1.3	157.7	31	49.3	887.6	0
495	2010-02-17T14:00:00	ND	5.35	ND	549.28	ND	ND	0.6	343.8	32.1	45.6	601.2	0
496	2010-02-17T15:00:00	ND	5.37	ND	809.30	ND	ND	2.9	274.7	32.5	43.2	864	0
497	2010-02-17T16:00:00	ND	3.92	ND	528.50	ND	ND	4.7	279.9	31.4	46.4	624.4	0
498	2010-02-17T17:00:00	ND	1.23	ND	351.06	ND	ND	4.8	276.6	30.1	50.2	331.7	0
499	2010-02-17T18:00:00	ND	0.59	ND	256.35	ND	ND	4.5	271.5	28.9	53.6	82.7	0
500	2010-02-17T19:00:00	ND	0.32	ND	336.57	ND	ND	4.5	270.7	27.6	58.3	4.6	0
501	2010-02-17T20:00:00	ND	0.16	ND	392.90	ND	ND	5	274.1	27.6	57	0	0
502	2010-02-17T21:00:00	ND	0.13	ND	520.02	ND	ND	2.6	299	27.5	57.1	0	0
503	2010-02-17T22:00:00	ND	ND	ND	69.31	ND	ND	2.4	247	26.9	60.4	0	0
504	2010-02-17T23:00:00	ND	ND	ND	34.59	ND	ND	2.2	227.8	26.4	63	0	0
505	2010-02-18T00:00:00	ND	ND	ND	195.67	ND	ND	1.8	253.2	26.2	62.8	0	0
506	2010-02-18T01:00:00	ND	ND	ND	345.07	ND	ND	0.9	97.8	24.8	72	0	0
507	2010-02-18T02:00:00	ND	ND	ND	45.79	ND	ND	0.8	151.6	24.2	76	0	0
508	2010-02-18T03:00:00	ND	ND	ND	194.23	ND	ND	0.9	149.6	23.8	77.8	0	0
509	2010-02-18T04:00:00	ND	ND	ND	171.15	ND	ND	0.9	192.7	23.9	76.6	0	0
510	2010-02-18T05:00:00	ND	ND	ND	114.14	ND	ND	0.5	126.6	23.6	78.1	0	0
511	2010-02-18T06:00:00	ND	ND	ND	102.62	ND	ND	0.8	154	23.3	79.5	0	0
512	2010-02-18T07:00:00	ND	ND	ND	182.25	ND	ND	0.3	147	23.6	77.6	11.8	0
513	2010-02-18T08:00:00	ND	ND	ND	330.67	ND	ND	0.7	39.8	23.8	77.1	92.7	0
514	2010-02-18T09:00:00	ND	0.60	ND	1038.30	ND	ND	1.2	151.3	24.9	71.8	213.6	0
515	2010-02-18T10:00:00	ND	2.46	ND	2049.95	ND	ND	1.7	142.3	26.2	65.6	563.9	0
516	2010-02-18T11:00:00	ND	3.63	ND	1759.84	ND	ND	0.8	108.8	27.9	59.6	695.6	0
517	2010-02-18T12:00:00	ND	2.75	ND	740.32	ND	ND	1	171.9	29.4	53.9	794.7	0
518	2010-02-18T13:00:00	ND	4.76	ND	581.26	ND	ND	1.1	125.7	31.5	47	962.5	0
519	2010-02-18T14:00:00	ND	3.88	ND	526.77	ND	ND	1.2	121.9	32.5	43	960.8	0
520	2010-02-18T15:00:00	ND	4.14	ND	669.43	ND	ND	1.5	142.7	33.7	39.6	780.7	0
521	2010-02-18T16:00:00	ND	2.70	ND	542.36	ND	ND	1.1	121	33.1	41.7	420.4	0
522	2010-02-18T17:00:00	ND	4.41	ND	541.30	ND	ND	3.8	267	31.9	46.9	348.1	0
523	2010-02-18T18:00:00	ND	4.18	ND	726.72	ND	ND	3.6	279.2	30	50.7	126.7	0
524	2010-02-18T19:00:00	ND	4.85	ND	605.71	ND	ND	3.7	269.9	28.7	53.7	7.3	0
525	2010-02-18T20:00:00	ND	0.45	ND	533.52	ND	ND	4.5	262.2	27.9	56	0	0
526	2010-02-18T21:00:00	ND	0.29	ND	809.73	ND	ND	4	262.3	27.9	55	0	0
527	2010-02-18T22:00:00	ND	ND	ND	381.73	ND	ND	2.3	293.3	27.7	56.3	0	0
528	2010-02-18T23:00:00	ND	ND	ND	219.64	ND	ND	2	267.1	27.3	58.6	0	0
529	2010-02-19T00:00:00	ND	ND	ND	138.53	ND	ND	2.7	250.5	27	59	0	0
530	2010-02-19T01:00:00	ND	ND	ND	126.86	ND	ND	0.4	255.4	26.9	60.9	0	0
531	2010-02-19T02:00:00	ND	ND	ND	57.65	ND	ND	0.6	339.4	26.4	65.3	0	0
532	2010-02-19T03:00:00	ND	ND	ND	322.28	ND	ND	0.1	74.3	26.7	61.3	0	0
533	2010-02-19T04:00:00	ND	ND	ND	472.38	ND	ND	0.9	141.7	25.6	68.6	0	0
534	2010-02-19T05:00:00	ND	ND	ND	68.87	ND	ND	1.5	169.2	24.8	74.3	0	0
535	2010-02-19T06:00:00	ND	ND	ND	228.97	ND	ND	1.2	178.9	24.5	73.5	0	0
536	2010-02-19T07:00:00	ND	ND	ND	377.42	ND	ND	1.4	211.6	24.9	71.8	12.1	0
537	2010-02-19T08:00:00	ND	ND	ND	446.64	ND	ND	0.9	176.6	25.4	69.2	69.5	0
538	2010-02-19T09:00:00	ND	ND	ND	837.42	ND	ND	1	151	26.1	65.5	164.6	0
539	2010-02-19T10:00:00	ND	0.42	ND	1690.26	ND	ND	1.4	146	27.5	59.7	484.1	0
540	2010-02-19T11:00:00	ND	1.72	ND	1848.35	ND	ND	1.4	127.1	29	54.9	614.3	0
541	2010-02-19T12:00:00	ND	2.04	ND	1033.28	ND	ND	1.3	104.8	29.5	53.2	435.4	0
542	2010-02-19T13:00:00	ND	2.82	ND	860.55	ND	ND	1.2	82.4	30.4	52.3	626.2	0
543	2010-02-19T14:00:00	ND	4.13	ND	851.45	ND	ND	1.5	59.4	31.2	50.3	531.9	0
544	2010-02-19T15:00:00	ND	4.57	ND	877.08	ND	ND	2.3	52.8	30.6	52.2	116.4	0
545	2010-02-19T16:00:00	ND	8.70	ND	746.97	ND	ND	1.3	297.6	29.9	53.2	139.1	0
546	2010-02-19T17:00:00	ND	11.24	ND	1082.93	ND	ND	3.1	260.9	29.2	54.6	81.9	0
547	2010-02-19T18:00:00	ND	5.55	ND	871.32	ND	ND	3.2	266.7	28.8	55.4	67.9	0
548	2010-02-19T19:00:00	ND	7.75	ND	858.56	ND	ND	2.6	272.2	28.1	56.7	6.3	0
549	2010-02-19T20:00:00	ND	2.75	ND	833.42	ND	ND	2.9	263.7	27.5	59.1	0	0
550	2010-02-19T21:00:00	ND	1.11	ND	1028.14	ND	ND	3.1	258.3	27.4	59.8	0	0
551	2010-02-19T22:00:00	ND	0.16	ND	843.03	ND	ND	2.6	264.7	27.2	61.2	0	0
552	2010-02-19T23:00:00	ND	ND	ND	646.28	ND	ND	0.9	298.3	26.9	63.2	0	0
553	2010-02-20T00:00:00	ND	ND	ND	391.99	ND	ND	0.4	87	26.7	65.4	0	0
554	2010-02-20T01:00:00	ND	ND	ND	564.55	ND	ND	1.2	239.5	26.7	63.8	0	0
555	2010-02-20T02:00:00	ND	2.71	ND	1290.40	ND	ND	0.5	181	26.1	68.7	0	0
556	2010-02-20T03:00:00	ND	0.66	ND	379.45	ND	ND	1.3	148	25.3	75.1	0.1	0
557	2010-02-20T04:00:00	ND	ND	ND	561.91	ND	ND	0.9	178.3	24.7	78.1	0	0
558	2010-02-20T05:00:00	ND	ND	ND	515.00	ND	ND	1.2	167.4	24.1	82.1	0	0
559	2010-02-20T06:00:00	ND	ND	ND	274.12	ND	ND	0.4	145.3	23.9	83.3	0	0
560	2010-02-20T07:00:00	ND	ND	ND	308.17	ND	ND	0.5	94.9	23.6	84.3	11.9	0
561	2010-02-20T08:00:00	ND	0.21	ND	718.34	ND	ND	0.5	13.8	24.3	81	81	0
562	2010-02-20T09:00:00	ND	0.08	ND	1200.06	ND	ND	0.1	47.8	25.3	75.8	169	0
563	2010-02-20T10:00:00	ND	0.18	ND	1284.37	ND	ND	1.1	143.6	26.6	70.1	379.2	0
564	2010-02-20T11:00:00	ND	6.48	ND	1543.36	ND	ND	1.5	131.7	27.7	63.6	453.6	0
565	2010-02-20T12:00:00	ND	9.36	ND	1745.54	ND	ND	1.2	121.2	28.2	61.8	408.8	0
566	2010-02-20T13:00:00	ND	4.69	ND	1088.43	ND	ND	1	77.1	28.5	62.3	303.1	0
567	2010-02-20T14:00:00	ND	7.05	ND	1205.42	ND	ND	0.6	92.6	29	60.8	328.5	0
568	2010-02-20T15:00:00	ND	10.94	ND	1311.91	ND	ND	1.4	109.9	29.9	57.1	437	0
569	2010-02-20T16:00:00	50	13.16	ND	1385.69	ND	ND	1	151.5	30.6	53.9	518.5	0
570	2010-02-20T17:00:00	48	14.87	ND	1470.59	ND	ND	1.4	162.5	31.2	51.7	322.5	0
571	2010-02-20T18:00:00	69	14.82	ND	982.33	ND	ND	1.4	241.6	30	54.2	94.4	0
572	2010-02-20T19:00:00	41	11.75	ND	908.57	ND	ND	2.8	274.2	28.3	58	5.9	0
573	2010-02-20T20:00:00	48	8.16	ND	787.64	ND	ND	3.7	267.1	28	57.7	0	0
574	2010-02-20T21:00:00	26	1.61	ND	578.57	ND	ND	4.5	265.7	27.5	60.1	0	0
575	2010-02-20T22:00:00	21	0.24	ND	450.54	ND	ND	0.8	322.9	27.4	61.7	0	0
576	2010-02-20T23:00:00	13	ND	ND	242.52	ND	ND	0.9	232.6	27.2	62	0	0
577	2010-02-21T00:00:00	10	2.03	ND	623.20	ND	ND	2.7	241.5	27	61.8	0	0
578	2010-02-21T01:00:00	10	6.62	ND	1257.09	ND	ND	1.5	201.2	26.7	68.4	0	0
579	2010-02-21T02:00:00	7	ND	ND	495.42	ND	ND	1.1	172.4	26.2	72	0	0
580	2010-02-21T03:00:00	7	0.42	ND	586.61	ND	ND	1.3	158.3	25.3	76.4	0	0
581	2010-02-21T04:00:00	18	1.10	ND	779.80	ND	ND	0.9	143.8	24.8	78	0	0
582	2010-02-21T05:00:00	13	1.23	ND	446.49	ND	ND	1.1	148.8	24.6	79.1	0	0
583	2010-02-21T06:00:00	37	1.49	ND	366.10	ND	ND	1.1	182.3	24.3	81	0	0
584	2010-02-21T07:00:00	37	1.31	ND	354.30	ND	ND	0.7	180	24.7	78.4	6.6	0
585	2010-02-21T08:00:00	35	1.36	ND	320.45	ND	ND	0.9	43.4	24.7	80.4	79.4	0
586	2010-02-21T09:00:00	46	1.02	ND	503.56	ND	ND	0.3	16.2	25.8	74.4	283.8	0
587	2010-02-21T10:00:00	41	4.34	ND	1045.30	ND	ND	0.7	72	27.8	65.5	479.9	0
588	2010-02-21T11:00:00	29	16.27	ND	705.39	ND	ND	1.3	73.3	29.1	59.5	638.2	0
589	2010-02-21T12:00:00	47	48.24	ND	871.03	ND	ND	0.3	102.3	29.6	57.9	463.4	0
590	2010-02-21T13:00:00	30	61.12	ND	767.77	ND	ND	1.5	142.2	29.5	59.2	483.1	0
591	2010-02-21T14:00:00	47	22.53	ND	593.08	ND	ND	1.3	178.6	31.4	52.5	836.3	0
592	2010-02-21T15:00:00	26	12.53	ND	631.91	ND	ND	2.4	286.4	31.9	47.8	602.8	0
593	2010-02-21T16:00:00	22	8.10	ND	445.41	ND	ND	4.2	281.6	31.1	48	377.9	0
594	2010-02-21T17:00:00	12	3.16	ND	210.43	ND	ND	4.3	279.1	29.8	52.9	321.3	0
595	2010-02-21T18:00:00	6	ND	ND	46.56	ND	ND	4.1	276.3	28.8	55.5	111.4	0
596	2010-02-21T19:00:00	6	ND	ND	ND	ND	ND	4.2	271.6	28.2	55.6	5.4	0
597	2010-02-21T20:00:00	3	ND	ND	46.32	ND	ND	3	295	27.7	57.2	0	0
598	2010-02-21T21:00:00	6	ND	ND	115.60	ND	ND	4	287.5	26.9	60.8	0	0
599	2010-02-21T22:00:00	8	ND	ND	80.70	ND	ND	4.3	268.3	26.9	61	0	0
600	2010-02-21T23:00:00	4	ND	ND	34.59	ND	ND	2.2	221.2	26.4	64.5	0	0
601	2010-02-22T00:00:00	2	ND	ND	11.51	ND	ND	1.1	212.1	25.8	69.5	0	0
602	2010-02-22T01:00:00	2	ND	ND	172.30	ND	ND	0.9	174.8	25.7	69.7	0	0
603	2010-02-22T02:00:00	10	ND	ND	252.63	ND	ND	0.6	82.5	25	72.7	0	0
604	2010-02-22T03:00:00	6	ND	ND	263.49	ND	ND	0.1	132.9	24.5	75.3	0	0
605	2010-02-22T04:00:00	25	0.39	ND	194.43	ND	ND	0.8	103.9	24.2	78	0	0
606	2010-02-22T05:00:00	16	0.57	ND	148.53	ND	ND	0.5	181.4	24	79.8	0	0
607	2010-02-22T06:00:00	32	ND	ND	194.10	ND	ND	0.5	261.1	24	78.6	0	0
608	2010-02-22T07:00:00	25	0.63	ND	125.59	ND	ND	0.5	226.3	24.1	74.4	15.1	0
609	2010-02-22T08:00:00	19	0.16	ND	228.43	ND	ND	0.4	128.9	24.4	76.4	138.4	0
610	2010-02-22T09:00:00	39	0.55	ND	880.34	ND	ND	0.2	128.1	25.7	71.6	277.4	0
611	2010-02-22T10:00:00	50	9.17	ND	2273.63	ND	ND	0.9	152.8	27.6	63.8	478.7	0
612	2010-02-22T11:00:00	35	24.74	ND	2010.75	ND	ND	1.2	187	28.9	58.2	748.6	0
613	2010-02-22T12:00:00	53	15.40	ND	1462.36	ND	ND	1.3	138.5	30.4	52.7	685.8	0
614	2010-02-22T13:00:00	30	5.92	ND	839.78	ND	ND	1.2	44.2	31.1	51.4	558.7	0
615	2010-02-22T14:00:00	39	8.90	ND	818.34	ND	ND	1.1	67.3	31.9	49.1	549.3	0
616	2010-02-22T15:00:00	35	15.07	ND	867.38	ND	ND	1.3	304.7	32.6	45.6	659.8	0
617	2010-02-22T16:00:00	25	34.50	ND	716.64	ND	ND	4.6	282.6	31.8	46	599.8	0
618	2010-02-22T17:00:00	31	21.71	ND	503.85	ND	ND	5	282.7	30.6	49.9	394.9	0
619	2010-02-22T18:00:00	16	0.72	ND	396.83	ND	ND	5.7	275	29	54.3	122.3	0
620	2010-02-22T19:00:00	18	ND	ND	487.61	ND	ND	5.5	270.1	28.4	54.8	4.8	0
621	2010-02-22T20:00:00	10	ND	ND	370.78	ND	ND	4.3	278.4	28.2	55.2	0	0
622	2010-02-22T21:00:00	7	8.00	ND	567.38	ND	ND	2.9	292.5	28	56	0	0
623	2010-02-22T22:00:00	3	4.23	ND	208.29	ND	ND	4	264.3	27.2	59.3	0	0
624	2010-02-22T23:00:00	2	5.07	ND	150.03	ND	ND	4.2	278.5	26.5	62.6	0	0
625	2010-02-23T00:00:00	1	2.42	ND	172.71	ND	ND	2.8	266.3	26.1	62.2	0	0
626	2010-02-23T01:00:00	ND	1.58	ND	ND	ND	ND	2.1	238.1	25.9	62	0	0
627	2010-02-23T02:00:00	1	0.74	ND	ND	ND	ND	1.7	213.1	25.7	65.3	0	0
628	2010-02-23T03:00:00	13	1.08	ND	ND	ND	ND	0.8	149.7	25.2	73	0	0
629	2010-02-23T04:00:00	8	2.81	ND	57.32	ND	ND	0.6	56.7	24.5	76.1	0	0
630	2010-02-23T05:00:00	33	9.94	ND	205.86	ND	ND	1.2	132.3	24.3	77.6	0	0
631	2010-02-23T06:00:00	18	10.14	ND	205.72	ND	ND	0.8	124.4	24	80.4	0	0
632	2010-02-23T07:00:00	22	9.24	ND	274.02	ND	ND	1.7	194.7	22.2	88.3	4.4	0
633	2010-02-23T08:00:00	24	11.19	ND	567.42	ND	ND	1.3	193.7	22.3	86.6	49.6	0
634	2010-02-23T09:00:00	19	6.70	ND	783.31	ND	ND	1.1	117.7	23.1	81.4	142.4	0
635	2010-02-23T10:00:00	17	7.39	ND	1866.82	ND	ND	1.2	140.1	23.7	77.6	368.1	0
636	2010-02-23T11:00:00	20	12.91	ND	2851.52	ND	ND	1.3	148.6	24.9	72.7	302.8	1.27
637	2010-02-23T12:00:00	13	9.12	ND	1626.22	ND	ND	1.5	154.6	25.8	68.9	468	0
638	2010-02-23T13:00:00	21	10.09	ND	1389.91	ND	ND	1.3	147.3	26.7	64.4	451.4	0
639	2010-02-23T14:00:00	25	10.57	ND	1048.45	ND	ND	1.7	138.7	27.2	62.2	425	0
640	2010-02-23T15:00:00	41	12.01	ND	1338.72	ND	ND	2.4	167.5	26.7	66.6	236.5	0
641	2010-02-23T16:00:00	36	9.75	ND	933.24	ND	ND	2.5	267.2	23.3	80.7	30.6	ND
642	2010-02-23T17:00:00	45	11.93	ND	1059.34	ND	ND	1.9	236	20.5	91.2	21.9	6.86
643	2010-02-23T18:00:00	39	11.12	ND	733.40	ND	ND	1.7	245	22.5	86.3	33.7	0
644	2010-02-23T19:00:00	22	8.16	ND	1079.20	ND	ND	1.3	264.1	23.7	80.7	1.7	0
645	2010-02-23T20:00:00	23	9.52	ND	2075.91	ND	ND	1	253.4	23.6	80	0	0
646	2010-02-23T21:00:00	38	11.19	ND	2348.86	ND	ND	0.4	250.3	23.4	79.6	0	0
647	2010-02-23T22:00:00	64	9.83	ND	1857.31	ND	ND	0.7	30.6	23.1	84.4	0	0
648	2010-02-23T23:00:00	80	8.25	ND	1502.56	ND	ND	0.8	352.4	22.4	88.2	0	0
649	2010-02-24T00:00:00	52	9.56	ND	2725.47	ND	ND	0.9	290.7	22.4	84.3	0	0
650	2010-02-24T01:00:00	32	10.36	ND	1828.34	ND	ND	0.8	262.6	22.1	82.7	0	0
651	2010-02-24T02:00:00	36	14.89	ND	964.29	ND	ND	0.6	275.1	21.8	81.2	0	0
652	2010-02-24T03:00:00	20	10.21	ND	464.66	ND	ND	0.3	272.1	21.7	80.2	0	0
653	2010-02-24T04:00:00	19	9.15	ND	192.60	ND	ND	0.4	98.7	20.9	92.3	0	0
654	2010-02-24T05:00:00	37	8.04	ND	180.78	ND	ND	0.7	163.6	20.5	91.7	0	0
655	2010-02-24T06:00:00	20	5.94	ND	1060.61	ND	ND	0.1	146.8	20.7	90.8	0	0
656	2010-02-24T07:00:00	31	3.90	ND	688.74	ND	ND	0.3	105.5	20.9	89.2	11.2	0
657	2010-02-24T08:00:00	59	5.01	ND	915.17	ND	ND	0.4	85.4	21.4	87.8	85.9	0
658	2010-02-24T09:00:00	78	8.49	ND	1946.64	ND	ND	0.7	162.4	22.9	81.6	368.1	0
659	2010-02-24T10:00:00	58	17.12	ND	3094.09	ND	ND	1.2	133.6	24.5	74.3	548.8	0
660	2010-02-24T11:00:00	59	20.25	ND	2939.27	ND	ND	0.8	127.5	26.2	66.5	801	0
661	2010-02-24T12:00:00	41	22.41	ND	1403.27	ND	ND	0.7	138.9	26.9	62.5	525.9	0
662	2010-02-24T13:00:00	52	ND	ND	933.86	ND	ND	0.8	140	28.5	56.5	746.6	0
663	2010-02-24T14:00:00	33	22.98	ND	1031.57	ND	ND	0.8	231.2	29	54.6	491.3	0
664	2010-02-24T15:00:00	37	17.18	ND	1369.96	ND	ND	3.3	282.5	29.5	49.9	759.5	0
665	2010-02-24T16:00:00	20	12.34	ND	918.70	ND	ND	3.1	290.2	29.2	50.2	447.7	0
666	2010-02-24T17:00:00	28	6.48	ND	522.79	ND	ND	3.9	281.9	27.5	54.6	118.2	0
667	2010-02-24T18:00:00	15	4.02	ND	508.30	ND	ND	5.5	272.8	26.6	57.5	134.8	0
668	2010-02-24T19:00:00	25	4.35	ND	644.98	ND	ND	5.5	276	25.4	61.6	12.6	0
669	2010-02-24T20:00:00	14	3.62	ND	435.92	ND	ND	4	279.5	25.6	59.6	0	0
670	2010-02-24T21:00:00	12	3.73	ND	539.52	ND	ND	1.2	260.2	25.6	60.2	0	0
671	2010-02-24T22:00:00	15	2.47	ND	424.73	ND	ND	1.6	188.4	24.4	70.7	0	0
672	2010-02-24T23:00:00	29	6.85	ND	754.58	ND	ND	0.9	161.7	24.7	68.9	0	0
673	2010-02-25T00:00:00	15	6.54	ND	892.67	ND	ND	1	191.4	24.5	67.3	0	0
674	2010-02-25T01:00:00	8	6.72	ND	914.95	ND	ND	1.2	232.2	24.3	62.7	0	0
675	2010-02-25T02:00:00	5	5.15	ND	411.45	ND	ND	0.5	191.9	23.7	72.4	0	0
676	2010-02-25T03:00:00	3	1.46	2.49	148.28	ND	ND	0.6	149.9	23.3	77.9	0	0
677	2010-02-25T04:00:00	4	7.43	3.86	330.33	ND	ND	0.4	104.3	23.1	76.5	0	0
678	2010-02-25T05:00:00	31	3.75	0.77	307.34	ND	ND	1.2	182.1	22.8	80.7	0	0
679	2010-02-25T06:00:00	18	4.76	1.72	352.52	ND	ND	0.8	175.6	22.7	82.3	0	0
680	2010-02-25T07:00:00	33	3.64	2.28	352.40	ND	ND	0.3	156.9	22.2	86.8	8.1	0
681	2010-02-25T08:00:00	39	4.26	0.62	556.07	ND	ND	0.8	132.5	22.8	84.7	83.5	0
682	2010-02-25T09:00:00	50	8.32	2.94	1739.84	ND	ND	0.8	132.3	23.5	78.9	187.8	0
683	2010-02-25T10:00:00	57	12.72	3.00	2610.24	ND	ND	0.9	149.6	24	75.4	173.9	0
684	2010-02-25T11:00:00	67	12.72	5.18	1803.99	ND	ND	0.7	130.1	25.1	70.3	386.3	0
685	2010-02-25T12:00:00	49	13.68	7.44	1615.85	ND	ND	1	41.7	26.2	65	411.3	0
686	2010-02-25T13:00:00	55	16.71	7.41	1288.25	ND	ND	1.5	46.7	27	61.4	690.8	0
687	2010-02-25T14:00:00	39	18.49	9.12	1257.09	ND	ND	0.8	59.4	28.8	54.2	653.4	0
688	2010-02-25T15:00:00	37	17.65	7.42	1148.61	ND	ND	0.7	44.2	30.2	47.7	710.1	0
689	2010-02-25T16:00:00	27	23.25	4.41	885.85	ND	ND	1.3	41	30.4	46.9	395	0
690	2010-02-25T17:00:00	35	35.08	2.67	664.83	ND	ND	2.2	307.2	28.9	50.6	91.6	0
691	2010-02-25T18:00:00	19	41.78	6.18	905.27	ND	ND	3.9	271.9	27.7	53.6	41.2	0
692	2010-02-25T19:00:00	11	21.02	2.68	774.51	ND	ND	3.8	265.8	27	54.6	3.5	0
693	2010-02-25T20:00:00	6	5.38	0.27	703.51	ND	ND	3.2	271.5	26.6	55.2	0	0
694	2010-02-25T21:00:00	15	4.90	0.87	944.44	ND	ND	3.2	282.9	25.8	59.8	0	0
695	2010-02-25T22:00:00	9	3.21	0.74	804.08	ND	ND	2.5	283	25.6	60.4	0	0
696	2010-02-25T23:00:00	21	1.13	0.30	355.85	ND	ND	1.1	290	25.3	62.9	0	0
697	2010-02-26T00:00:00	ND	0.92	1.04	435.77	ND	ND	0.5	115	24.1	69.5	0	0
698	2010-02-26T01:00:00	33	2.04	1.84	582.50	ND	ND	1.3	232.3	24.5	67.7	0	0
699	2010-02-26T02:00:00	33	10.72	3.20	1360.99	ND	ND	1.1	179.7	23.8	73.2	0	0
700	2010-02-26T03:00:00	30	3.94	0.90	524.86	ND	ND	0.7	164	23.2	78.1	0	0
701	2010-02-26T04:00:00	33	8.62	0.47	569.34	ND	ND	1	164.8	23.2	77.6	0	0
702	2010-02-26T05:00:00	53	5.08	ND	444.09	ND	ND	0.8	140.6	23	77.8	0	0
703	2010-02-26T06:00:00	58	7.63	ND	580.34	ND	ND	1.1	174.1	22.8	78.6	0	0
704	2010-02-26T07:00:00	72	10.64	0.07	557.20	ND	ND	1.2	171.4	23	77.2	8.6	0
705	2010-02-26T08:00:00	75	10.54	0.13	796.54	ND	ND	1.4	184.4	23.4	75.2	65	0
706	2010-02-26T09:00:00	71	15.30	0.09	1914.29	ND	ND	1.3	154.4	23.3	78.1	77	0
707	2010-02-26T10:00:00	41	20.03	0.79	2073.11	ND	ND	1.1	152.4	23.2	81.5	182.3	0
708	2010-02-26T11:00:00	54	21.75	1.14	1958.54	ND	ND	1	136.9	23.4	83.9	258.2	0
709	2010-02-26T12:00:00	36	24.42	2.42	1720.58	ND	ND	1.3	90.1	24.2	77.3	328.1	0
710	2010-02-26T13:00:00	29	21.90	3.85	1668.10	ND	ND	1.1	95.5	24.6	73.6	235.2	0
711	2010-02-26T14:00:00	15	12.64	3.65	1510.17	ND	ND	0.4	176	25.1	71.2	323.8	0
712	2010-02-26T15:00:00	19	12.90	5.46	1466.87	ND	ND	1.3	206.4	26.4	63.9	617.2	0
713	2010-02-26T16:00:00	13	11.58	1.65	1012.87	ND	ND	1.7	174.1	27.6	60.5	696.6	0
714	2010-02-26T17:00:00	22	9.67	1.58	970.71	ND	ND	1	211.7	27.9	54.6	320	0
715	2010-02-26T18:00:00	12	10.11	1.37	902.27	ND	ND	1.1	110.8	27.6	52.7	67.5	0
716	2010-02-26T19:00:00	54	7.00	0.42	774.25	ND	ND	1	133.4	27.1	53	4.4	0
717	2010-02-26T20:00:00	56	14.38	8.52	2053.55	ND	ND	0.5	109.7	26.5	58.7	0	0
718	2010-02-26T21:00:00	63	17.57	8.63	2579.08	ND	ND	0.2	304.6	26	63.8	0	0
719	2010-02-26T22:00:00	60	26.24	9.39	2080.51	ND	ND	1.1	245.8	25.4	66.6	0	0
720	2010-02-26T23:00:00	52	15.01	12.77	2076.33	ND	ND	0.6	258.8	25	68	0	0
721	2010-02-27T00:00:00	53	7.44	9.15	1936.08	ND	ND	0.4	306.3	24.1	74.9	0	0
722	2010-02-27T01:00:00	31	5.69	5.43	1519.06	ND	ND	0.9	276.7	23.5	71.9	0	0
723	2010-02-27T02:00:00	17	7.74	4.97	1903.53	ND	ND	1.5	258.6	23.3	71.8	0	0
724	2010-02-27T03:00:00	26	5.13	0.28	797.35	ND	ND	0.6	177.7	22.9	75.4	0	0
725	2010-02-27T04:00:00	15	6.06	1.87	978.28	ND	ND	0.4	227.2	22.5	75	0	0
726	2010-02-27T05:00:00	29	5.51	0.80	1226.88	ND	ND	0.7	43.2	22.2	80.2	0	0
727	2010-02-27T06:00:00	56	3.32	ND	817.09	ND	ND	0.4	12.1	21.7	85.5	0	0
728	2010-02-27T07:00:00	95	6.17	0.24	1121.59	ND	ND	0.7	80	21.7	85.7	11.9	0
729	2010-02-27T08:00:00	94	16.04	0.54	1518.11	ND	ND	0.9	175.6	21.7	86.2	104.9	0
730	2010-02-27T09:00:00	76	28.79	1.56	2356.48	ND	ND	0.3	223.1	23.6	76.3	345.5	0
731	2010-02-27T10:00:00	41	18.36	0.13	1961.19	ND	ND	1	119.1	26.6	62.2	634	0
732	2010-02-27T11:00:00	68	20.84	10.02	2234.41	ND	ND	1.3	88.4	27.7	58.4	501.5	0
733	2010-02-27T12:00:00	41	22.71	7.05	1283.15	ND	ND	1.3	91	27.7	59.3	448.5	0
734	2010-02-27T13:00:00	60	21.63	9.62	1525.90	ND	ND	1.2	176.5	29.5	52.7	672.8	0
735	2010-02-27T14:00:00	31	20.08	8.64	1442.00	ND	ND	0.7	337.5	30.9	47.1	790.2	0
736	2010-02-27T15:00:00	29	18.09	1.65	1004.73	ND	ND	1.7	326.5	31.8	43.6	715.1	0
737	2010-02-27T16:00:00	16	12.25	0.50	738.20	ND	ND	4.4	275.3	31.1	45.6	567.9	0
738	2010-02-27T17:00:00	9	5.96	ND	549.46	ND	ND	4.1	273.7	30.3	47.3	403.2	0
739	2010-02-27T18:00:00	5	3.31	ND	571.33	ND	ND	4	276.3	28.8	50.9	155.2	0
740	2010-02-27T19:00:00	10	2.60	ND	591.71	ND	ND	4.5	274.5	27.4	55.4	4.1	0
741	2010-02-27T20:00:00	8	2.69	ND	600.51	ND	ND	3.7	278.2	27.1	56.2	0	0
742	2010-02-27T21:00:00	14	2.08	0.49	553.77	ND	ND	3.6	274.8	26.8	58.1	0	0
743	2010-02-27T22:00:00	8	2.21	2.97	668.47	ND	ND	1.6	285.3	26.7	58.9	0	0
744	2010-02-27T23:00:00	10	1.21	0.25	483.90	ND	ND	2.6	239.9	26.3	60.6	0	0
745	2010-02-28T00:00:00	7	1.50	3.05	575.30	ND	ND	1.5	269.5	25.9	62.2	0	0
746	2010-02-28T01:00:00	5	1.00	0.38	689.44	ND	ND	1.2	194.3	25.5	62.9	0	0
747	2010-02-28T02:00:00	7	2.41	0.53	677.04	ND	ND	0.9	354.6	24.2	73.8	0	0
748	2010-02-28T03:00:00	44	1.46	2.20	536.99	ND	ND	0.8	38.1	23.8	77.3	0	0
749	2010-02-28T04:00:00	46	4.96	0.28	787.29	ND	ND	0.4	2	22.9	85.8	0	0
750	2010-02-28T05:00:00	30	8.35	0.67	978.28	ND	ND	0.7	278.1	23.2	78.9	0	0
751	2010-02-28T06:00:00	16	24.56	0.17	956.50	ND	ND	0.3	167.3	23.2	81.2	0	0
752	2010-02-28T07:00:00	32	13.39	ND	535.18	ND	ND	0.4	169.3	23	84.2	12.1	0
753	2010-02-28T08:00:00	17	4.92	ND	807.92	ND	ND	0.8	226.7	23.9	75	173.7	0
754	2010-02-28T09:00:00	14	7.07	ND	1483.79	ND	ND	1.1	146.9	25.1	70	326.3	0
755	2010-02-28T10:00:00	8	11.48	0.11	813.65	ND	ND	0.7	193.5	26.2	65.9	589.4	0
756	2010-02-28T11:00:00	5	19.36	1.15	943.18	ND	ND	1.4	196.7	28.1	59	779.2	0
757	2010-02-28T12:00:00	4	27.32	0.02	694.51	ND	ND	1.2	113	29.3	54.3	782	0
758	2010-02-28T13:00:00	10	12.57	ND	522.96	ND	ND	0.9	137.7	30.7	49.2	970.2	0
759	2010-02-28T14:00:00	7	12.52	9.60	770.56	ND	ND	1.3	116	32	45.4	927.6	0
760	2010-02-28T15:00:00	8	9.55	ND	586.26	ND	ND	0.2	181.1	33	42.1	764.4	0
761	2010-02-28T16:00:00	4	8.21	ND	670.53	ND	ND	4.2	282.5	32.2	45.6	680.1	0
762	2010-02-28T17:00:00	4	6.76	ND	527.98	ND	ND	4.5	284	30.6	49.1	391.8	0
763	2010-02-28T18:00:00	3	1.60	ND	315.13	ND	ND	4.7	277.7	29.4	52.1	143.9	0
764	2010-02-28T19:00:00	2	0.96	ND	279.01	ND	ND	4.9	267	28.2	55.2	5.2	0
765	2010-02-28T20:00:00	2	1.17	11.42	289.48	ND	ND	3.8	275.6	28.1	54.5	0	0
766	2010-02-28T21:00:00	10	1.11	0.65	312.53	ND	ND	0.4	293.1	27.6	56.9	0	0
767	2010-02-28T22:00:00	17	0.56	1.42	312.01	ND	ND	2	201	26.7	63.3	0	0
768	2010-02-28T23:00:00	24	6.40	2.37	1048.45	ND	ND	1.9	230.1	26.2	64.9	0	0
769	2010-03-01T00:00:00	14	3.00	1.25	897.17	ND	ND	1.9	245.6	26.2	63.7	0	0
770	2010-03-01T01:00:00	11	3.39	0.38	713.14	ND	ND	1.4	187.5	25.5	69.3	0	0
771	2010-03-01T02:00:00	7	0.89	ND	286.88	ND	ND	0.9	190.8	24.9	72.3	0	0
772	2010-03-01T03:00:00	5	2.72	0.23	584.06	ND	ND	0.5	19.8	24.5	74.4	0	0
773	2010-03-01T04:00:00	26	3.24	13.16	537.53	ND	ND	0.6	149.4	24.2	76.2	0	0
774	2010-03-01T05:00:00	28	4.47	ND	594.12	ND	ND	0.3	66	23.9	78.1	0	0
775	2010-03-01T06:00:00	36	5.56	0.11	433.72	ND	ND	0.4	161.4	23.5	80.4	0	0
776	2010-03-01T07:00:00	33	5.19	ND	615.51	ND	ND	0.3	255.3	23.9	74.4	19.1	0
777	2010-03-01T08:00:00	50	5.95	ND	798.97	ND	ND	0.6	78.8	24.3	76.3	106.9	0
778	2010-03-01T09:00:00	89	8.70	18.79	1851.52	ND	ND	0.6	158.8	25.5	69.7	211.1	0
779	2010-03-01T10:00:00	67	17.45	2.81	2742.60	ND	ND	1.5	128.7	27	62.7	607.4	0
780	2010-03-01T11:00:00	79	23.16	7.38	1937.54	ND	ND	1.1	117	28.7	57.1	798.3	0
781	2010-03-01T12:00:00	46	ND	ND	ND	ND	ND	1.4	110	30.1	52.5	865.1	0
782	2010-03-01T13:00:00	54	ND	ND	ND	ND	ND	0.8	85.6	31.3	48.7	904.2	0
783	2010-03-01T14:00:00	56	18.38	42.87	1193.22	ND	ND	0.6	53.3	32.9	42.4	781.8	0
784	2010-03-01T15:00:00	62	12.59	37.58	1187.74	ND	ND	0.2	51.6	33.3	40.3	489.8	0
785	2010-03-01T16:00:00	32	10.32	36.09	1083.31	ND	ND	4.7	285	31.9	46	571.8	0
786	2010-03-01T17:00:00	59	10.67	41.30	1183.85	ND	ND	5.7	280	30.2	50.1	331.8	0
787	2010-03-01T18:00:00	66	4.56	13.43	874.20	ND	ND	5	279.4	29.1	52.8	112.7	0
788	2010-03-01T19:00:00	46	5.84	10.00	812.96	ND	ND	5	271.7	27.8	57.5	3.6	0
789	2010-03-01T20:00:00	30	5.24	17.00	890.41	ND	ND	2.8	280.1	27.7	56.6	0	0
790	2010-03-01T21:00:00	28	4.20	16.78	878.55	ND	ND	3.5	271.6	27.4	57.6	0	0
791	2010-03-01T22:00:00	16	3.54	15.95	808.38	ND	ND	2.8	238	27.3	58.2	0	0
792	2010-03-01T23:00:00	22	2.43	9.13	634.95	ND	ND	2	197.2	26.9	61.4	0	0
793	2010-03-02T00:00:00	13	1.95	7.79	772.45	ND	ND	0.7	268.7	26.6	63.1	0	0
794	2010-03-02T01:00:00	27	3.79	20.47	863.82	ND	ND	1	54.1	26	66.1	0	0
795	2010-03-02T02:00:00	15	7.76	23.45	862.09	ND	ND	1.1	221.3	25.5	68.6	0	0
796	2010-03-02T03:00:00	16	24.02	25.56	745.89	ND	ND	1.2	275.2	25.2	69.5	0	0
797	2010-03-02T04:00:00	17	12.74	8.97	573.19	ND	ND	0.4	178.4	24.3	77.1	0	0
798	2010-03-02T05:00:00	28	7.58	4.17	457.17	ND	ND	1.3	188.7	24.5	76.7	0	0
799	2010-03-02T06:00:00	16	22.05	15.23	560.41	ND	ND	1.7	186.7	24.3	78.9	0	0
800	2010-03-02T07:00:00	42	8.13	2.50	617.17	ND	ND	1.3	185.8	23.9	80.3	8.4	0
801	2010-03-02T08:00:00	34	7.73	17.85	924.52	ND	ND	0.8	201.4	24.1	77.7	93.3	0
802	2010-03-02T09:00:00	52	8.88	18.50	1313.47	ND	ND	0.7	140.1	25.7	68.6	235.5	0
803	2010-03-02T10:00:00	28	10.48	32.87	1676.52	ND	ND	1.2	156.6	26.7	63.8	409	0
804	2010-03-02T11:00:00	40	13.33	57.55	1970.16	ND	ND	1.1	145.6	28.4	58.9	718.3	0
805	2010-03-02T12:00:00	40	17.57	40.02	1274.55	ND	ND	1.2	80.6	28.2	59.6	161.7	0
806	2010-03-02T13:00:00	64	22.93	38.87	1169.49	ND	ND	1.1	81.5	27.8	62.8	247.8	0
807	2010-03-02T14:00:00	49	17.83	63.12	1584.23	ND	ND	0.8	73.4	28.6	60.9	437.6	0
808	2010-03-02T15:00:00	62	19.25	75.01	1959.47	ND	ND	1.2	172.9	29.1	58.1	271.1	0
809	2010-03-02T16:00:00	32	16.02	43.11	1254.28	ND	ND	3	271.3	27.6	57.9	62.6	1.52
810	2010-03-02T17:00:00	31	15.07	52.34	1398.28	ND	ND	2.3	294.5	26	65.9	95.9	2.29
811	2010-03-02T18:00:00	17	7.05	21.83	1080.48	ND	ND	2.3	274.4	26.7	60.5	130.7	0
812	2010-03-02T19:00:00	19	6.64	36.16	1451.70	ND	ND	1.8	297.1	26.3	61.1	3	0
813	2010-03-02T20:00:00	22	5.58	34.30	1461.27	ND	ND	0.4	33.5	25.9	64.5	0	0
814	2010-03-02T21:00:00	27	5.60	36.18	1597.20	ND	ND	0.4	228.3	25.4	68.2	0	0
815	2010-03-02T22:00:00	61	15.69	43.94	2087.80	ND	ND	0.7	267.4	24.9	68	0	0
816	2010-03-02T23:00:00	50	16.89	34.66	1752.19	ND	ND	1.1	244.1	24.6	70.5	0	0
817	2010-03-03T00:00:00	46	5.99	29.40	1647.46	ND	ND	1.1	226	24.6	72	0	0
818	2010-03-03T01:00:00	59	4.13	27.01	1189.83	ND	ND	0.5	154.4	24.5	77.2	0	0
819	2010-03-03T02:00:00	41	2.38	18.39	1075.06	ND	ND	0.8	348.7	23.5	83.1	0	0
820	2010-03-03T03:00:00	56	4.35	37.18	1265.22	ND	ND	0.2	236.6	23.6	83.1	0	0
821	2010-03-03T04:00:00	37	9.34	21.33	1060.41	ND	ND	1	237.2	23.3	80.6	0	0
822	2010-03-03T05:00:00	25	9.54	23.39	956.82	ND	ND	1	230.3	22.7	84.1	0	0.25
823	2010-03-03T06:00:00	13	5.02	8.19	704.79	ND	ND	0.8	235.6	22.7	81	0	0
824	2010-03-03T07:00:00	39	2.39	3.38	738.90	ND	ND	0.3	198.1	22.6	83.2	4.7	5.33
825	2010-03-03T08:00:00	33	1.33	5.79	727.28	ND	ND	1.1	264.1	22	88.9	55.4	3.56
826	2010-03-03T09:00:00	52	2.75	14.43	1372.23	ND	ND	0.4	156.9	22.8	83.2	94.7	1.27
827	2010-03-03T10:00:00	29	6.55	23.03	2649.56	ND	ND	0.4	96	23.2	84.6	85.9	0.25
828	2010-03-03T11:00:00	48	11.07	44.89	2698.69	ND	ND	1.1	170.4	23.9	84.1	461.2	0.25
829	2010-03-03T12:00:00	28	10.52	80.35	3275.76	ND	ND	0.8	81.7	25.4	74.7	377.6	0
830	2010-03-03T13:00:00	37	10.26	112.80	3166.12	ND	ND	0.4	61.8	26.4	68.5	451.6	0
831	2010-03-03T14:00:00	19	11.85	83.34	1945.17	ND	ND	0.8	70.8	28.1	60.8	553.7	0
832	2010-03-03T15:00:00	19	8.60	50.03	1504.78	ND	ND	1	99.1	29.3	55.4	664.4	0
833	2010-03-03T16:00:00	25	10.66	55.43	1522.40	ND	ND	1.1	95.3	29.1	56.3	325.7	0
834	2010-03-03T17:00:00	56	9.08	51.21	1358.80	ND	ND	0.7	89.6	29.2	56.8	223.8	0
835	2010-03-03T18:00:00	42	12.22	82.43	1847.19	ND	ND	1	243.1	28	59.4	37.2	0
836	2010-03-03T19:00:00	44	16.70	66.51	1932.42	ND	ND	2.3	262.1	26.6	65.2	3.5	0
837	2010-03-03T20:00:00	24	14.96	45.52	1543.36	ND	ND	1.5	266.6	25.6	69.8	0	0
838	2010-03-03T21:00:00	33	6.54	42.73	1767.79	ND	ND	1.9	245.8	25.6	68.2	0	0
839	2010-03-03T22:00:00	17	5.01	36.97	1641.52	ND	ND	1.9	247.7	25.2	68.2	0	0
840	2010-03-03T23:00:00	19	3.80	43.52	1444.43	ND	ND	1.7	253.1	24.4	70.2	0	0
841	2010-03-04T00:00:00	23	2.17	9.98	1017.54	ND	ND	1	240.5	24.3	68.5	0	0
842	2010-03-04T01:00:00	24	1.28	10.07	914.33	ND	ND	0.2	238.2	24	72.7	0	0
843	2010-03-04T02:00:00	33	1.12	11.02	822.07	ND	ND	0.7	177	23.6	80.1	0	0
844	2010-03-04T03:00:00	36	2.03	28.57	1083.21	ND	ND	0.9	221.1	23.3	79.6	0	0
845	2010-03-04T04:00:00	19	2.53	25.47	899.87	ND	ND	0.7	222.6	23.2	75.3	0	0
846	2010-03-04T05:00:00	34	2.68	19.13	842.63	ND	ND	0.2	135.9	23	79.9	0	0
847	2010-03-04T06:00:00	40	1.87	1.40	682.75	ND	ND	0.7	167.8	22.2	89.6	0	0
848	2010-03-04T07:00:00	61	1.79	13.71	930.57	ND	ND	0.6	149.5	22	89.4	19.8	0
849	2010-03-04T08:00:00	84	2.41	23.27	1292.84	ND	ND	0.6	1.6	23.1	83.9	183.5	0
850	2010-03-04T09:00:00	94	4.89	23.07	2413.20	ND	ND	0.7	75.8	25.2	72.4	311.5	0
851	2010-03-04T10:00:00	91	14.21	45.99	2430.32	ND	ND	1.3	115.4	26.5	66.2	610.7	0
852	2010-03-04T11:00:00	67	34.10	87.21	2533.02	ND	ND	1.7	147.8	28	60.3	790.7	0
853	2010-03-04T12:00:00	39	19.93	70.62	1816.71	ND	ND	1.4	142.8	29.2	55.8	895.9	0
854	2010-03-04T13:00:00	48	14.46	41.37	1428.96	ND	ND	1.4	119.8	29.8	52.9	509.1	0
855	2010-03-04T14:00:00	48	13.84	39.86	1303.75	ND	ND	1.1	99.5	29.8	53.4	383.3	0
856	2010-03-04T15:00:00	39	10.73	55.69	1571.48	ND	ND	0.9	51.4	29.9	52.9	336.2	0
857	2010-03-04T16:00:00	26	15.85	56.55	1525.42	ND	ND	1.2	281.1	30.5	51	572.6	0
858	2010-03-04T17:00:00	27	14.04	57.41	1610.12	ND	ND	2.3	276.8	31.2	47.4	419.1	0
859	2010-03-04T18:00:00	20	9.15	34.65	1309.78	ND	ND	3.5	278.3	29.7	50	151.8	0
860	2010-03-04T19:00:00	27	5.16	17.08	1082.22	ND	ND	3.6	271	27.9	54	3.5	0
861	2010-03-04T20:00:00	29	4.63	24.95	1168.32	ND	ND	4.1	263	27	57.9	0	0
862	2010-03-04T21:00:00	20	4.41	31.74	1326.29	ND	ND	2.4	273.2	26.7	57.6	0	0
863	2010-03-04T22:00:00	13	3.03	24.98	1094.54	ND	ND	0.6	282.5	26.5	58.3	0	0
864	2010-03-04T23:00:00	29	2.82	25.91	1013.21	ND	ND	1.8	224.2	25.8	62.6	0	0
865	2010-03-05T00:00:00	22	5.31	32.71	1768.97	ND	ND	1.4	235.8	25.5	62	0	0
866	2010-03-05T01:00:00	11	4.67	36.83	1549.16	ND	ND	1.7	259.3	24.9	62.5	0	0
867	2010-03-05T02:00:00	9	1.62	10.00	881.82	ND	ND	0.3	39.5	24.4	64.9	0	0
868	2010-03-05T03:00:00	25	0.99	5.00	731.71	ND	ND	1	187.2	22.9	79.3	0	0
869	2010-03-05T04:00:00	41	2.11	13.88	978.28	ND	ND	0.7	202.2	23	77.9	0	0
870	2010-03-05T05:00:00	41	2.47	23.40	933.09	ND	ND	0.7	286.8	23.3	73	0	0
871	2010-03-05T06:00:00	34	3.00	24.93	979.60	ND	ND	0.5	291.5	23.1	74.9	0	0
872	2010-03-05T07:00:00	59	2.99	15.94	853.73	ND	ND	0.6	60.8	23	76.6	9.9	0
873	2010-03-05T08:00:00	68	7.63	29.65	1058.26	ND	ND	0.7	184.3	23.2	78.5	75.6	0
874	2010-03-05T09:00:00	101	12.27	33.10	2573.43	ND	ND	0.5	108.5	24.6	71.9	209.9	0
875	2010-03-05T10:00:00	93	19.78	48.92	3866.96	ND	ND	1	121.5	25.7	66.7	292.7	0
876	2010-03-05T11:00:00	75	18.07	109.29	3628.62	ND	ND	0.7	80.1	27.1	61.2	593.7	0
877	2010-03-05T12:00:00	79	22.32	88.39	2307.36	ND	ND	0.6	122.6	28.4	57.5	593.8	0
878	2010-03-05T13:00:00	78	22.31	48.46	1494.69	ND	ND	1.7	182.1	29.1	54.9	396.3	0
879	2010-03-05T14:00:00	50	21.30	64.21	1660.76	ND	ND	0.9	203.1	29.9	53.9	799.1	0
880	2010-03-05T15:00:00	74	15.02	47.13	1548.71	ND	ND	1.7	135.7	31.6	49.5	793.5	0
881	2010-03-05T16:00:00	48	16.20	38.60	1522.27	ND	ND	1.3	129.3	32	47.8	553.9	0
882	2010-03-05T17:00:00	82	22.63	69.05	1911.20	ND	ND	1	152.6	32.1	47.5	349.3	0
883	2010-03-05T18:00:00	55	13.17	60.43	1688.98	ND	ND	2.3	249.5	30.6	51.7	118.5	0
884	2010-03-05T19:00:00	57	17.83	73.49	1902.43	ND	ND	4.2	265.6	28.2	58.4	2.6	0
885	2010-03-05T20:00:00	33	10.49	42.60	1551.60	ND	ND	4	272.4	27.5	59.6	0	0
886	2010-03-05T21:00:00	20	5.79	30.58	1536.44	ND	ND	4	267.1	27.1	60.2	0	0
887	2010-03-05T22:00:00	21	3.62	21.24	1119.07	ND	ND	0.6	318.6	26.7	63.1	0	0
888	2010-03-05T23:00:00	33	2.50	16.29	990.84	ND	ND	1.6	229	26	66	0	0
889	2010-03-06T00:00:00	18	6.02	31.97	1540.27	ND	ND	2.3	266.6	26.6	61.9	0	0
890	2010-03-06T01:00:00	10	12.46	31.87	1531.84	ND	ND	1.5	256	26.3	63.7	0	0
891	2010-03-06T02:00:00	16	3.50	7.96	920.48	ND	ND	1.1	150.3	24.7	74.9	0	0
892	2010-03-06T03:00:00	40	2.83	9.61	869.79	ND	ND	0.7	156.8	23.6	80	0	0
893	2010-03-06T04:00:00	41	9.39	29.58	1277.05	ND	ND	0.2	62.8	23.8	78.8	0	0
894	2010-03-06T05:00:00	53	5.48	19.83	981.25	ND	ND	0.4	220.9	23.8	78.1	0	0
895	2010-03-06T06:00:00	38	7.80	20.88	1061.12	ND	ND	0.3	297.1	23.9	76.1	0	0
896	2010-03-06T07:00:00	65	8.67	22.52	1095.72	ND	ND	0.6	49.2	24	77.3	14.9	0
897	2010-03-06T08:00:00	56	6.97	23.63	1164.60	ND	ND	1.3	61.4	23.8	79.1	85.6	0
898	2010-03-06T09:00:00	95	13.15	33.18	2133.66	ND	ND	0.5	65.6	24.6	75.5	203.6	0
899	2010-03-06T10:00:00	84	30.48	42.64	2528.39	ND	ND	0.4	162.1	26	69.4	330.9	0
900	2010-03-06T11:00:00	77	29.84	51.42	2137.98	ND	ND	0.6	125.6	28.3	59.9	764	0
901	2010-03-06T12:00:00	72	44.24	89.60	2177.59	ND	ND	1	142.6	30.2	53.4	765.6	0
902	2010-03-06T13:00:00	78	53.61	80.56	2051.45	ND	ND	1.3	153.4	31.1	51.3	631.1	0
903	2010-03-06T14:00:00	47	41.79	67.54	1858.80	ND	ND	0.5	174.4	30.8	51.5	268.7	0
904	2010-03-06T15:00:00	64	28.29	44.72	1658.42	ND	ND	1.8	279	31.2	49.7	412.6	0
905	2010-03-06T16:00:00	33	20.17	33.26	1438.41	ND	ND	2.9	280.1	31.6	47.1	444.3	0
906	2010-03-06T17:00:00	30	11.52	22.87	1334.92	ND	ND	3.1	267.6	30.9	49.3	199.7	0
907	2010-03-06T18:00:00	17	5.61	10.16	1144.92	ND	ND	3.7	268.1	29.2	54.1	80.3	0
908	2010-03-06T19:00:00	14	4.38	18.39	1254.69	ND	ND	3.5	263.5	28.2	57.7	3.2	0
909	2010-03-06T20:00:00	11	3.71	15.74	1192.65	ND	ND	2	285.9	27.9	59.1	0	0
910	2010-03-06T21:00:00	46	4.15	20.41	1272.43	ND	ND	0.6	114.4	27.7	62	0	0
911	2010-03-06T22:00:00	24	4.18	22.27	1271.59	ND	ND	0.7	278	27.4	60.6	0	0
912	2010-03-06T23:00:00	37	9.30	51.55	2078.70	ND	ND	0.8	266.5	27	63.3	0	0
913	2010-03-07T00:00:00	32	3.96	25.31	1303.22	ND	ND	1.2	195.1	26.4	66.5	0.1	0
914	2010-03-07T01:00:00	36	5.11	35.93	1645.91	ND	ND	1.1	174.4	25.5	70	0.2	0
915	2010-03-07T02:00:00	45	7.40	36.24	1744.24	ND	ND	1	135.6	24.6	73.7	0	0
916	2010-03-07T03:00:00	48	6.36	33.05	1533.05	ND	ND	1	122.1	23.8	77.8	0	0
917	2010-03-07T04:00:00	37	5.82	27.44	1631.62	ND	ND	0.4	187.6	23.2	81.1	0	0
918	2010-03-07T05:00:00	61	4.77	19.24	1491.68	ND	ND	0.2	21.6	23.5	79.8	0	0
919	2010-03-07T06:00:00	49	3.49	11.94	1185.43	ND	ND	0.4	149.1	22.8	82.7	0	0
920	2010-03-07T07:00:00	51	4.99	15.12	1523.78	ND	ND	0.9	18.6	22.7	82.5	20.7	0
921	2010-03-07T08:00:00	59	6.11	9.51	1352.75	ND	ND	0.7	28.3	22.8	82	107.7	0
922	2010-03-07T09:00:00	71	6.40	10.36	1512.41	ND	ND	0.7	149.5	24.1	76.3	253.3	0
923	2010-03-07T10:00:00	66	49.71	23.12	1519.06	ND	ND	0.5	166.5	26	67.3	540.2	0
924	2010-03-07T11:00:00	68	61.31	47.51	1850.62	ND	ND	1.7	157.8	27.8	58.9	710.4	0
925	2010-03-07T12:00:00	36	43.14	58.31	1595.79	ND	ND	1.4	164.2	29.1	54.9	714.4	0
926	2010-03-07T13:00:00	37	32.88	30.89	1358.80	ND	ND	0.8	100.6	30.1	50.3	684	0
927	2010-03-07T14:00:00	27	22.71	15.15	1106.95	ND	ND	1.3	43.9	31.8	46.3	780	0
928	2010-03-07T15:00:00	42	14.07	11.27	1124.88	ND	ND	1.9	22.2	32.1	46.9	459.6	0
929	2010-03-07T16:00:00	27	12.88	15.27	1208.09	ND	ND	2.8	281	31.7	47.3	488.9	0
930	2010-03-07T17:00:00	13	18.83	14.17	1124.51	ND	ND	4.7	282.2	29.7	51.3	235.5	0
931	2010-03-07T18:00:00	7	8.89	4.55	896.03	ND	ND	4.8	269.6	28.6	53.8	53.2	0
932	2010-03-07T19:00:00	8	4.08	ND	730.45	ND	ND	4.7	268.4	27.8	56.2	2.7	0
933	2010-03-07T20:00:00	5	4.13	ND	751.64	ND	ND	3.4	277.5	27.7	55.6	0	0
934	2010-03-07T21:00:00	4	4.34	ND	820.75	ND	ND	2.7	289.9	27.7	55.6	0	0
935	2010-03-07T22:00:00	4	4.68	0.59	843.87	ND	ND	0.9	281.9	27	60.1	0.1	0
936	2010-03-07T23:00:00	20	4.25	2.54	864.97	ND	ND	1.3	185.8	25.7	69	0.3	0
937	2010-03-08T00:00:00	41	6.67	21.30	1481.30	ND	ND	0.6	78	25.7	68.9	0.2	0
938	2010-03-08T01:00:00	29	8.19	25.49	1389.44	ND	ND	0.5	143	25.3	69.4	0.1	0
939	2010-03-08T02:00:00	15	10.88	28.41	1811.88	ND	ND	1.4	182.1	24.6	73	0.3	0
940	2010-03-08T03:00:00	19	8.35	26.90	1407.21	ND	ND	1.4	199.3	24.4	74.3	0.3	0
941	2010-03-08T04:00:00	22	6.41	13.36	983.24	ND	ND	1.3	187.7	24.3	73.7	0.3	0
942	2010-03-08T05:00:00	22	7.35	9.47	902.90	ND	ND	0.9	247.8	24.3	72.9	0.3	0
943	2010-03-08T06:00:00	13	8.84	5.94	960.05	ND	ND	0.3	240	24.6	70.1	0.4	0
944	2010-03-08T07:00:00	41	8.64	1.84	858.05	ND	ND	0.7	65.1	23.9	77.3	9.6	0
945	2010-03-08T08:00:00	45	7.41	10.70	924.52	ND	ND	0.1	141.3	25	72.2	176.6	0
946	2010-03-08T09:00:00	65	14.10	21.70	2348.50	ND	ND	0.9	178.6	26.5	65.5	336.1	0
947	2010-03-08T10:00:00	46	17.96	42.67	2475.45	ND	ND	0.9	183.7	28.3	58.5	602.1	0
948	2010-03-08T11:00:00	48	27.90	76.11	2316.59	ND	ND	1.4	149	29.7	53.7	801	0
949	2010-03-08T12:00:00	36	ND	ND	ND	ND	ND	1	99.1	31.1	49.3	817.4	0
950	2010-03-08T13:00:00	45	ND	ND	ND	ND	ND	0.9	87	32	46.9	672.8	0
951	2010-03-08T14:00:00	28	ND	16.66	1629.80	ND	ND	1.4	73.9	32.8	44.7	721.4	0
952	2010-03-08T15:00:00	52	0.03	17.68	1728.12	ND	ND	0.9	151.3	33.1	42.8	437	0
953	2010-03-08T16:00:00	30	2.66	19.25	1788.65	ND	ND	3.4	268.3	33	45	614.6	0
954	2010-03-08T17:00:00	40	0.11	22.01	1882.18	ND	ND	5.1	273.9	31.2	49.6	384.5	0
955	2010-03-08T18:00:00	40	ND	0.12	1426.72	ND	ND	5.3	272.6	29.2	54.7	89.4	0
956	2010-03-08T19:00:00	39	ND	0.21	1405.72	ND	ND	5.5	273.5	28.5	56.5	4.1	0
957	2010-03-08T20:00:00	21	ND	0.15	1448.83	ND	ND	4.2	276.4	28.2	57.7	0.1	0
958	2010-03-08T21:00:00	48	ND	ND	1401.07	ND	ND	1.2	302.5	28.1	58.4	0.1	0
959	2010-03-08T22:00:00	25	ND	0.15	1250.13	ND	ND	2.1	267.5	27.9	59.3	0.2	0
960	2010-03-08T23:00:00	14	3.31	7.15	1584.76	ND	ND	0.6	6.9	27.3	62.8	0.3	0
961	2010-03-09T00:00:00	7	ND	ND	1200.63	ND	ND	0.9	32.4	26.3	67.8	0.3	0
962	2010-03-09T01:00:00	27	ND	1.10	1231.15	ND	ND	1.3	196.7	26.4	67.3	0.3	0
963	2010-03-09T02:00:00	21	ND	ND	1197.03	ND	ND	1.6	160.2	25.8	71.4	0.4	0
964	2010-03-09T03:00:00	25	ND	ND	1137.20	ND	ND	1.9	224.5	23.2	89.6	0.2	ND
965	2010-03-09T04:00:00	15	ND	ND	1093.14	ND	ND	0.6	198.3	24.1	85.4	0	0.25
966	2010-03-09T05:00:00	33	ND	ND	1119.30	ND	ND	0.2	16.8	24	85.3	0	0
967	2010-03-09T06:00:00	26	ND	ND	1107.51	ND	ND	0.7	41.7	24	84.8	0	0
968	2010-03-09T07:00:00	56	ND	ND	1233.10	ND	ND	0.4	34.6	24.2	82.5	18.8	0
969	2010-03-09T08:00:00	63	ND	0.06	1599.54	ND	ND	0.2	29.5	24.9	79.1	86.9	0
970	2010-03-09T09:00:00	88	ND	2.86	2359.16	ND	ND	0.5	154.1	25.5	77.3	184.6	0
971	2010-03-09T10:00:00	91	10.03	20.36	2949.15	ND	ND	0.9	165.7	26.4	73.4	310.4	0
972	2010-03-09T11:00:00	86	15.16	77.32	3694.68	ND	ND	1	196.9	27.7	67.3	530.6	0
973	2010-03-09T12:00:00	61	16.76	110.70	3283.00	ND	ND	1.2	153.8	29.1	60.5	600.4	0
974	2010-03-09T13:00:00	62	8.08	69.61	2415.65	ND	ND	1	150.8	30.3	56.2	727.5	0
975	2010-03-09T14:00:00	55	1.28	24.88	1935.53	ND	ND	0.6	175.4	30.9	53.8	461.3	0
976	2010-03-09T15:00:00	60	3.15	9.41	1694.02	ND	ND	1	299.4	31.4	51.9	425.6	0
977	2010-03-09T16:00:00	31	0.80	17.43	1825.53	ND	ND	0.9	331.4	32.1	48.8	524.3	0
978	2010-03-09T17:00:00	22	1.26	13.25	1818.00	ND	ND	3.9	270.8	30.3	51.7	222.8	0
979	2010-03-09T18:00:00	16	ND	13.07	1737.31	ND	ND	3.6	279.4	28.4	59.3	87	0.76
980	2010-03-09T19:00:00	32	ND	0.30	1541.04	ND	ND	2.8	284.3	28	58.6	4.2	0
981	2010-03-09T20:00:00	18	ND	0.55	1539.00	ND	ND	3.7	272.4	27.8	58.6	0.3	0
982	2010-03-09T21:00:00	11	ND	4.89	2012.09	ND	ND	3	279.4	27.5	60.2	0.3	0
983	2010-03-09T22:00:00	5	ND	0.17	1351.61	ND	ND	3.1	265	27.1	62.5	0.4	0
984	2010-03-09T23:00:00	3	ND	ND	1084.46	ND	ND	2.1	239.1	26.8	64.6	0.4	0
985	2010-03-10T00:00:00	3	ND	ND	1198.63	ND	ND	1.5	210.5	26.7	65.5	0.5	0
986	2010-03-10T01:00:00	2	ND	0.02	1313.44	ND	ND	1.1	173.9	25.8	71.9	0.5	0
987	2010-03-10T02:00:00	3	ND	ND	1206.12	ND	ND	1	164.9	25.2	74.9	0.4	0
988	2010-03-10T03:00:00	6	ND	ND	1111.98	ND	ND	1	145.4	24.6	79.5	0.4	0
989	2010-03-10T04:00:00	17	ND	ND	1006.78	ND	ND	0.7	152.7	24.2	80.4	0.4	0
990	2010-03-10T05:00:00	17	ND	ND	1039.70	ND	ND	0.6	115	24.3	80.4	0.4	0
991	2010-03-10T06:00:00	10	ND	ND	982.91	ND	ND	0.6	183.4	23.9	82.7	0.3	0
992	2010-03-10T07:00:00	26	ND	ND	1187.03	ND	ND	0.4	128.5	24.1	81.6	10.5	0
993	2010-03-10T08:00:00	23	ND	ND	1416.26	ND	ND	0.3	296.1	24.8	78.1	116.2	0
994	2010-03-10T09:00:00	37	ND	2.58	3045.27	ND	ND	0.7	113.4	26.8	68.1	377.8	0
995	2010-03-10T10:00:00	41	ND	9.85	3273.18	ND	ND	1.3	113.4	27.8	64.8	435.7	0
996	2010-03-10T11:00:00	34	0.93	53.17	2856.24	ND	ND	1.2	139.3	29	58.8	825.5	0
997	2010-03-10T12:00:00	21	3.93	64.82	2693.48	ND	ND	1.5	141.1	30.6	53.1	823.1	0
998	2010-03-10T13:00:00	28	1.55	7.54	1622.32	ND	ND	2.2	120.1	31.2	52.7	969.2	0
999	2010-03-10T14:00:00	23	ND	10.23	1754.16	ND	ND	0.3	14.1	31.2	52.1	485.7	0
1000	2010-03-10T15:00:00	13	ND	19.92	1976.36	ND	ND	3	273.3	32	46.8	773	0
1001	2010-03-10T16:00:00	8	ND	10.62	1582.90	ND	ND	5.3	279.8	31.2	48.1	636.3	0
1002	2010-03-10T17:00:00	7	ND	ND	1426.72	ND	ND	5.1	296	30.3	50.3	520	0
1003	2010-03-10T18:00:00	6	ND	ND	1282.58	ND	ND	3.7	298.8	29.9	50.2	178.9	0
1004	2010-03-10T19:00:00	5	ND	ND	1315.82	ND	ND	4	270.2	28.5	55.4	3.1	0
1005	2010-03-10T20:00:00	14	ND	0.71	1425.65	ND	ND	1.4	192.5	27.2	62.4	0.2	0
1006	2010-03-10T21:00:00	18	ND	1.14	1858.04	ND	ND	0.3	276.3	27	62.8	0.2	0
1007	2010-03-10T22:00:00	27	1.42	7.83	1845.27	ND	ND	1.4	61.1	25.9	69.2	0.2	0
1008	2010-03-10T23:00:00	38	ND	6.10	1631.68	ND	ND	0.3	57.9	25.8	68.7	0.2	0
1009	2010-03-11T00:00:00	32	ND	12.20	2056.14	ND	ND	0.5	94.1	25.6	70	0.2	0
1010	2010-03-11T01:00:00	28	0.92	10.59	1721.87	ND	ND	1.1	138.2	24.7	76.4	0.3	0
1011	2010-03-11T02:00:00	15	ND	7.94	1682.35	ND	ND	1.3	135	23.7	85	0.3	0.25
1012	2010-03-11T03:00:00	24	ND	0.94	1243.26	ND	ND	0.8	356.3	22.9	91.4	0	5.84
1013	2010-03-11T04:00:00	17	ND	ND	1126.16	ND	ND	1.5	30.9	23	89.2	0	0.25
1014	2010-03-11T05:00:00	22	ND	ND	1194.81	ND	ND	0.9	57.4	22.1	89.3	0	2.54
1015	2010-03-11T06:00:00	22	ND	ND	1236.56	ND	ND	1.4	30.9	21.4	92	0	2.03
1016	2010-03-11T07:00:00	23	2.90	ND	1120.45	ND	ND	1.2	28.7	21.2	90.2	12.9	0.76
1017	2010-03-11T08:00:00	12	0.13	6.04	1379.82	ND	ND	1.2	144.7	21.5	89.1	59.4	0.25
1018	2010-03-11T09:00:00	26	9.58	15.75	2185.05	ND	ND	2.2	144	21.2	90.6	56.4	0.76
1019	2010-03-11T10:00:00	14	34.48	41.06	4003.74	ND	ND	1.2	144.8	21.7	87.9	216.8	0.25
1020	2010-03-11T11:00:00	10	1.63	23.08	2685.02	ND	ND	1.2	217.9	22.8	81.9	329.2	0
1021	2010-03-11T12:00:00	7	ND	17.52	2217.44	ND	ND	0.5	152.1	24.1	75.2	499.2	0
1022	2010-03-11T13:00:00	6	1.72	4.71	1804.59	ND	ND	0.7	109.2	26.3	64.1	821.2	0
1023	2010-03-11T14:00:00	4	2.03	6.62	1852.47	ND	ND	0.8	123.4	28.2	55.4	872.2	0
1024	2010-03-11T15:00:00	3	0.13	20.20	1945.29	ND	ND	0.7	87.5	29.7	48.7	824.5	0
1025	2010-03-11T16:00:00	2	ND	3.44	1489.50	ND	ND	0.9	91.3	30.4	47.8	641.7	0
1026	2010-03-11T17:00:00	14	ND	19.64	1656.24	ND	ND	1.2	99.6	30.2	49.5	231.9	0
1027	2010-03-11T18:00:00	19	ND	27.61	1795.02	ND	ND	0.4	324	29.6	52	72.4	0
1028	2010-03-11T19:00:00	33	7.66	48.08	2140.46	ND	ND	2.3	270.1	28.2	55.9	6.2	0
1029	2010-03-11T20:00:00	19	16.92	27.09	1875.81	ND	ND	2.4	261.9	27.4	58.9	0.1	0
1030	2010-03-11T21:00:00	35	ND	8.66	1928.57	ND	ND	2.4	267.5	26.6	62	0.2	0
1031	2010-03-11T22:00:00	20	ND	11.99	1934.95	ND	ND	0.3	113.1	26.5	63.6	0.3	0
1032	2010-03-11T23:00:00	47	ND	1.93	1542.84	ND	ND	0.6	104.6	25.6	70.5	0.3	0
1033	2010-03-12T00:00:00	54	1.86	15.78	2536.89	ND	ND	0.3	140.7	25.2	71.9	0.4	0
1034	2010-03-12T01:00:00	55	ND	9.39	2395.93	ND	ND	0.9	174.3	24.9	75	0.4	0
1035	2010-03-12T02:00:00	30	ND	5.25	2175.92	ND	ND	1.3	208.2	24.8	70	0.3	0
1036	2010-03-12T03:00:00	28	ND	3.22	2037.81	ND	ND	0.9	161	23.7	78	0.2	0
1037	2010-03-12T04:00:00	18	ND	4.18	1574.04	ND	ND	0.7	161.3	23.5	82	0	0
1038	2010-03-12T05:00:00	34	ND	0.71	1402.00	ND	ND	0.3	178.1	23.3	78.4	0.1	0
1039	2010-03-12T06:00:00	19	ND	0.32	1321.32	ND	ND	0.5	254.4	23.2	71.1	0	0
1040	2010-03-12T07:00:00	23	ND	ND	1252.56	ND	ND	0.2	110.4	22.9	75.5	14	0
1041	2010-03-12T08:00:00	27	ND	0.02	1228.54	ND	ND	0.5	293.6	23.6	76	189.5	0
1042	2010-03-12T09:00:00	32	ND	1.67	2132.22	ND	ND	1	141.6	26.5	60.7	472.8	0
1043	2010-03-12T10:00:00	37	0.21	12.38	2959.03	ND	ND	2.1	140.8	27.2	66.8	678.8	0
1044	2010-03-12T11:00:00	42	ND	38.74	2458.16	ND	ND	1.6	155.3	28.3	60.1	734.1	0
1045	2010-03-12T12:00:00	22	ND	31.86	2270.26	ND	ND	1	269.8	29.2	55.3	722.2	0
1046	2010-03-12T13:00:00	34	0.72	6.59	1812.34	ND	ND	0.5	33.6	31.4	48.3	756.3	0
1047	2010-03-12T14:00:00	18	ND	0.33	1685.10	ND	ND	0.8	319.5	31.6	46.3	600.2	0
1048	2010-03-12T15:00:00	14	0.19	11.53	1826.73	ND	ND	1.6	354.2	32.4	42.9	538.5	0
1049	2010-03-12T16:00:00	8	0.08	5.02	1960.67	ND	ND	3.8	279.7	32.4	42.4	680.2	0
1050	2010-03-12T17:00:00	13	ND	2.78	1491.05	ND	ND	3.9	281.1	31.3	46.3	413	0
1051	2010-03-12T18:00:00	8	ND	ND	1438.89	ND	ND	3.5	281.8	29.9	49.8	160.1	0
1052	2010-03-12T19:00:00	22	ND	ND	1513.78	ND	ND	3.4	278.2	28.4	54.8	3.4	0
1053	2010-03-12T20:00:00	12	ND	0.38	1656.91	ND	ND	3.6	272.4	27.7	56.9	0.3	0
1054	2010-03-12T21:00:00	8	ND	2.20	1757.10	ND	ND	3.1	273.7	27.3	58.4	0.3	0
1055	2010-03-12T22:00:00	4	ND	2.85	1650.86	ND	ND	2.9	266.6	26.9	60.7	0.2	0
1056	2010-03-12T23:00:00	4	ND	ND	1429.61	ND	ND	3.2	265.1	26.7	62.1	0.4	0
1057	2010-03-13T00:00:00	9	ND	ND	1290.40	ND	ND	1.9	280.8	26.5	62.6	0.4	0
1058	2010-03-13T01:00:00	6	ND	ND	1162.89	ND	ND	1.3	226	26.1	65.7	0.4	0
1059	2010-03-13T02:00:00	20	ND	ND	1057.85	ND	ND	1.7	184.2	25.1	71.6	0.4	0
1060	2010-03-13T03:00:00	16	ND	0.64	1340.81	ND	ND	0.7	224.2	25	71.4	0.4	0
1061	2010-03-13T04:00:00	10	ND	ND	1283.08	ND	ND	0.4	186.2	25.3	69.7	0.5	0
1062	2010-03-13T05:00:00	13	ND	ND	1204.10	ND	ND	0.8	223.3	25	71	0.5	0
1063	2010-03-13T06:00:00	35	ND	ND	1397.64	ND	ND	0.7	69.6	24	78.1	0.4	0
1064	2010-03-13T07:00:00	59	ND	ND	1301.61	ND	ND	0.8	168.2	24	77.8	18.1	0
1065	2010-03-13T08:00:00	44	ND	0.15	1906.74	ND	ND	0.8	148.5	24.7	73.8	131.3	0
1066	2010-03-13T09:00:00	54	0.97	1.15	2414.80	ND	ND	0.9	134	25.6	70	219.4	0
1067	2010-03-13T10:00:00	48	8.56	7.42	2559.85	ND	ND	1.3	142.9	27	64.8	493	0
1068	2010-03-13T11:00:00	39	21.52	29.14	2744.84	ND	ND	1.7	122.8	28.9	57.4	818.3	0
1069	2010-03-13T12:00:00	35	9.77	29.27	2344.41	ND	ND	2.7	137.3	29	58.8	646.6	0
1070	2010-03-13T13:00:00	43	4.81	23.55	2263.92	ND	ND	1.4	201.8	29.8	54.8	765.5	0
1071	2010-03-13T14:00:00	40	8.57	25.28	2269.92	ND	ND	1.1	140	31.3	50.7	650.6	0
1072	2010-03-13T15:00:00	31	4.20	2.69	1743.04	ND	ND	1.8	281.3	31	49.4	431.1	0
1073	2010-03-13T16:00:00	17	2.49	13.60	2045.18	ND	ND	4.1	296.5	30.8	48.7	537.1	0
1074	2010-03-13T17:00:00	10	0.45	7.01	1740.18	ND	ND	3.6	288.6	30.3	48.8	351.5	0
1075	2010-03-13T18:00:00	7	ND	ND	1364.20	ND	ND	2.6	289.9	30.2	48.1	137.1	0
1076	2010-03-13T19:00:00	14	ND	ND	1317.13	ND	ND	3	275.9	28.6	52.9	4.1	0
1077	2010-03-13T20:00:00	7	ND	ND	1391.34	ND	ND	2.5	282.6	27.8	55.6	0.4	0
1078	2010-03-13T21:00:00	4	ND	ND	1561.10	ND	ND	1.9	283.8	27.3	57.8	0.4	0
1079	2010-03-13T22:00:00	16	ND	0.09	1500.78	ND	ND	1	17.3	25.9	66.9	0.4	0
1080	2010-03-13T23:00:00	26	ND	ND	1367.39	ND	ND	0.5	255.9	25.5	68.2	0.4	0
1081	2010-03-14T00:00:00	14	ND	6.45	2054.08	ND	ND	1.3	212.5	26.1	63.2	0.4	0
1082	2010-03-14T01:00:00	13	2.89	5.67	1816.74	ND	ND	0.4	337.5	25.2	71	0.4	0
1083	2010-03-14T02:00:00	11	ND	ND	1524.68	ND	ND	0.9	155.2	24.4	77.4	0.5	0
1084	2010-03-14T03:00:00	22	ND	0.43	1840.71	ND	ND	1	171.8	24.3	75.7	0.5	0
1085	2010-03-14T04:00:00	13	ND	0.60	1508.65	ND	ND	0.5	146	24.2	76.3	0.4	0
1086	2010-03-14T05:00:00	28	ND	ND	1302.49	ND	ND	0.4	168.7	23.9	78.6	0.4	0
1087	2010-03-14T06:00:00	19	ND	ND	1312.59	ND	ND	0.4	57.7	24	77.1	0.3	0
1088	2010-03-14T07:00:00	31	ND	ND	1450.04	ND	ND	1	174.5	23.6	79.4	15.7	0
1089	2010-03-14T08:00:00	26	0.13	0.02	1573.51	ND	ND	0.9	186.2	24.3	75.2	133	0
1090	2010-03-14T09:00:00	19	ND	ND	1565.80	ND	ND	0.9	164.5	25.3	71.3	246.9	0
1091	2010-03-14T10:00:00	11	1.52	ND	1582.53	ND	ND	1.2	175.5	26.6	65.8	400.4	0
1092	2010-03-14T11:00:00	22	9.06	4.13	1923.44	ND	ND	1.5	154.8	28.3	60	751.4	0
1093	2010-03-14T12:00:00	13	4.82	ND	1691.11	ND	ND	1.7	149.5	29.5	54.9	810.1	0
1094	2010-03-14T13:00:00	28	1.54	ND	1616.44	ND	ND	0.5	130	30.9	49.8	779.3	0
1095	2010-03-14T14:00:00	18	0.48	2.23	1635.60	ND	ND	0.7	27.6	33	44.1	912.1	0
1096	2010-03-14T15:00:00	18	ND	3.04	1552.80	ND	ND	3.4	286.5	32.6	42.8	683.1	0
1097	2010-03-14T16:00:00	10	ND	0.06	1492.03	ND	ND	4.7	278.5	31.7	45	608.5	0
1098	2010-03-14T17:00:00	20	ND	ND	1265.07	ND	ND	4.6	277.5	30.2	49.4	263.9	0
1099	2010-03-14T18:00:00	11	ND	ND	1153.94	ND	ND	4.3	280.6	28.8	53.9	79.3	0
1100	2010-03-14T19:00:00	13	ND	ND	1195.02	ND	ND	4.9	270.3	27.7	57.2	2.7	0
1101	2010-03-14T20:00:00	8	ND	ND	1075.07	ND	ND	2.5	276.2	27.8	55.3	0.4	0
1102	2010-03-14T21:00:00	7	ND	ND	1086.99	ND	ND	2.9	274.5	27.2	57.4	0.4	0
1103	2010-03-14T22:00:00	5	ND	ND	1154.06	ND	ND	3.4	269.2	26.8	59	0.4	0
1104	2010-03-14T23:00:00	4	ND	0.02	1175.58	ND	ND	2.1	254	26.5	60	0.4	0
1105	2010-03-15T00:00:00	2	ND	ND	1162.89	ND	ND	1	230	26.1	62.5	0.3	0
1106	2010-03-15T01:00:00	1	ND	ND	1379.80	ND	ND	1.3	172.2	24.8	72.9	0.4	0
1107	2010-03-15T02:00:00	2	ND	ND	1179.18	ND	ND	1	203.6	24.4	73.8	0.4	0
1108	2010-03-15T03:00:00	18	ND	ND	1383.39	ND	ND	0.7	182.8	24.3	74.4	0.4	0
1109	2010-03-15T04:00:00	10	ND	ND	1188.63	ND	ND	0.7	147	24.1	75.9	0.5	0
1110	2010-03-15T05:00:00	10	ND	ND	1244.94	ND	ND	0.8	167.2	23.8	77.5	0.4	0
1111	2010-03-15T06:00:00	6	ND	ND	1277.91	ND	ND	0.2	306.2	23.7	77.6	0.4	0
1112	2010-03-15T07:00:00	38	ND	ND	1197.64	ND	ND	0.4	41.1	23.8	76.7	14.7	0
1113	2010-03-15T08:00:00	44	ND	ND	1266.50	ND	ND	0.3	111.8	24	74.8	171	0
1114	2010-03-15T09:00:00	70	0.57	0.77	2340.61	ND	ND	0.9	125.2	25.6	70.5	357.6	0
1115	2010-03-15T10:00:00	37	7.33	13.49	3328.95	ND	ND	0.3	176.6	27.6	61.8	675.6	0
1116	2010-03-15T11:00:00	31	3.99	38.42	2981.45	ND	ND	1	157.7	29.5	54.2	780.9	0
1117	2010-03-15T12:00:00	30	2.50	17.44	2035.09	ND	ND	0.8	65.9	31	49.3	869.2	0
1118	2010-03-15T13:00:00	51	4.92	22.46	2091.93	ND	ND	1.6	124.8	31.4	48.2	611.7	0
1119	2010-03-15T14:00:00	37	2.17	20.59	2024.47	ND	ND	0.8	151.9	31.9	46.3	380.2	0
1120	2010-03-15T15:00:00	38	1.77	34.98	2320.82	ND	ND	3.3	275.8	31.7	44.3	439.2	0
1121	2010-03-15T16:00:00	20	1.88	22.92	1967.89	ND	ND	4.4	277.7	32.1	43.1	609.1	0
1122	2010-03-15T17:00:00	14	0.46	2.58	1642.06	ND	ND	4.6	280.2	31	45.5	381	0
1123	2010-03-15T18:00:00	8	ND	0.08	1589.40	ND	ND	4.6	279.2	29.9	48.2	148.4	0
1124	2010-03-15T19:00:00	13	ND	ND	1583.64	ND	ND	4.4	276.5	28.4	53.6	4.3	0
1125	2010-03-15T20:00:00	8	ND	ND	1598.98	ND	ND	3.2	286.3	28	54	0.4	0
1126	2010-03-15T21:00:00	9	ND	ND	1689.42	ND	ND	3.3	280.4	27.6	55.6	0.4	0
1127	2010-03-15T22:00:00	6	ND	1.56	1560.06	ND	ND	2.8	254.5	26.7	60.5	0.4	0
1128	2010-03-15T23:00:00	4	ND	ND	1267.36	ND	ND	1.7	269.8	26.4	60.9	0.4	0
1129	2010-03-16T00:00:00	22	ND	ND	1392.70	ND	ND	0.7	64.1	25.6	67.5	0.4	0
1130	2010-03-16T01:00:00	37	ND	ND	1377.50	ND	ND	1.7	189.4	25.7	66.6	0.4	0
1131	2010-03-16T02:00:00	21	11.61	2.62	1860.24	ND	ND	1.6	192.5	25.2	69.4	0.4	0
1132	2010-03-16T03:00:00	29	ND	0.11	1662.25	ND	ND	0.9	141.4	24.7	72.5	0.4	0
1133	2010-03-16T04:00:00	33	0.29	ND	1281.79	ND	ND	0.6	139.6	24.6	73.1	0.4	0
1134	2010-03-16T05:00:00	43	0.26	ND	1327.12	ND	ND	0.7	138.9	24.1	75.9	0.4	0
1135	2010-03-16T06:00:00	23	ND	0.04	1461.95	ND	ND	0.8	188.5	23.9	76.5	0.4	0
1136	2010-03-16T07:00:00	40	ND	ND	1518.03	ND	ND	0.6	187.9	23.9	75.9	24.4	0
1137	2010-03-16T08:00:00	39	ND	ND	1529.45	ND	ND	0.8	228.7	24.5	71.7	86.8	0
1138	2010-03-16T09:00:00	70	3.98	0.73	2619.04	ND	ND	0.9	173.6	25.3	69.1	200.2	0
1139	2010-03-16T10:00:00	59	12.01	2.94	2786.63	ND	ND	0.7	112.6	26.1	66.2	316.3	0
1140	2010-03-16T11:00:00	51	28.38	28.94	2966.58	ND	ND	1.2	149	27.4	61.4	429.1	0
1141	2010-03-16T12:00:00	59	26.07	29.68	2540.63	ND	ND	1.1	133.9	28.6	57.5	714.3	0
1142	2010-03-16T13:00:00	59	16.55	27.94	2284.11	ND	ND	1.2	84.1	30.5	50.9	865.5	0
1143	2010-03-16T14:00:00	52	7.42	25.78	2251.83	ND	ND	1.8	91.2	30.8	50.4	432.3	0
1144	2010-03-16T15:00:00	64	0.77	23.41	2242.38	ND	ND	1.9	60.8	30.1	53.4	383.9	0
1145	2010-03-16T16:00:00	73	0.21	30.63	2330.43	ND	ND	1.1	338.6	30.4	52.5	348.1	0
1146	2010-03-16T17:00:00	59	6.51	32.46	2309.41	ND	ND	3.3	283.5	29.8	50.4	308.3	0
1147	2010-03-16T18:00:00	39	15.55	17.68	2025.46	ND	ND	4.1	275.8	28.8	53.1	98.9	0
1148	2010-03-16T19:00:00	36	ND	0.10	1798.33	ND	ND	3.9	274.3	27.7	56	4	0
1149	2010-03-16T20:00:00	18	ND	3.99	1826.46	ND	ND	3.3	278.8	27.3	57.1	0.4	0
1150	2010-03-16T21:00:00	23	ND	0.27	1777.85	ND	ND	3.9	264.1	27	57.8	0.4	0
1151	2010-03-16T22:00:00	15	ND	1.73	1637.68	ND	ND	0.8	314.4	26.9	59.6	0.3	0
1152	2010-03-16T23:00:00	24	ND	ND	1602.55	ND	ND	2.9	246.2	25.3	72.9	0.2	4.83
1153	2010-03-17T00:00:00	13	0.47	3.21	1834.82	ND	ND	2.8	261.9	24.5	75.6	0.3	0.25
1154	2010-03-17T01:00:00	11	ND	1.18	1749.84	ND	ND	2.1	216.4	24.6	75.4	0.4	0
1155	2010-03-17T02:00:00	6	ND	ND	1304.24	ND	ND	1.7	205.9	22.6	90.4	0.3	ND
1156	2010-03-17T03:00:00	19	ND	ND	1306.84	ND	ND	1.7	228	22.1	92	0	3.3
1157	2010-03-17T04:00:00	11	ND	ND	1293.28	ND	ND	1.3	212.7	22.4	86.6	0	0.25
1158	2010-03-17T05:00:00	12	ND	ND	1260.53	ND	ND	1.6	185.5	22	90.2	0	0
1159	2010-03-17T06:00:00	8	ND	ND	1224.80	ND	ND	1.5	181.7	21.9	91.5	0	0
1160	2010-03-17T07:00:00	5	ND	ND	1235.72	ND	ND	0.9	186.5	21.9	91.5	23.8	0.25
1161	2010-03-17T08:00:00	11	ND	ND	1451.12	ND	ND	0.4	139.2	22.6	88.6	124.5	0.25
1162	2010-03-17T09:00:00	28	ND	0.13	2250.03	ND	ND	0.8	127.5	24.1	81.7	303.1	0
1163	2010-03-17T10:00:00	22	ND	25.63	3894.72	ND	ND	0.6	104	24.6	78.7	310.5	0
1164	2010-03-17T11:00:00	53	ND	76.35	3855.51	ND	ND	1.1	131.2	26.6	66.5	600.3	0
1165	2010-03-17T12:00:00	38	0.05	53.15	2948.50	ND	ND	1.4	164.1	27.1	63	397.2	0
1166	2010-03-17T13:00:00	40	ND	ND	ND	ND	ND	1.3	175	26.9	64.4	289.4	0
1167	2010-03-17T14:00:00	31	ND	ND	ND	ND	ND	0.9	295.9	27.3	60.9	298.5	0
1168	2010-03-17T15:00:00	16	10.17	27.01	1373.79	ND	ND	1.6	307.7	27.8	56.5	409.1	0
1169	2010-03-17T16:00:00	10	6.59	10.44	1040.73	ND	ND	1.4	324.7	26.6	64.8	163.1	0
1170	2010-03-17T17:00:00	27	4.87	5.09	932.92	ND	ND	1.7	12.9	24.6	78.1	102.4	0
1171	2010-03-17T18:00:00	46	8.74	20.05	1212.71	ND	ND	1.8	359.2	23.8	80.7	22	0
1172	2010-03-17T19:00:00	60	15.32	65.34	2110.84	ND	ND	0.8	45.2	24	79.1	1.1	0
1173	2010-03-17T20:00:00	62	12.77	44.66	1952.41	ND	ND	1.4	59.5	23.5	80.4	0.3	0
1174	2010-03-17T21:00:00	63	21.82	44.51	3123.16	ND	ND	0.3	115.2	23.4	80.3	0.4	0
1175	2010-03-17T22:00:00	58	23.87	30.27	2233.33	ND	ND	1.1	126	23.4	80	0.4	0
1176	2010-03-17T23:00:00	48	24.86	27.88	2278.91	ND	ND	0.6	60.7	23	82	0.4	0
1177	2010-03-18T00:00:00	50	18.79	23.80	2059.63	ND	ND	0.2	126.3	22.8	83	0.4	0
1178	2010-03-18T01:00:00	39	25.02	19.33	1523.78	ND	ND	0.8	214.7	22.8	83.3	0.3	0
1179	2010-03-18T02:00:00	28	32.85	20.94	1387.32	ND	ND	1.3	167.9	22.3	86.2	0.4	0
1180	2010-03-18T03:00:00	20	16.15	10.58	1021.70	ND	ND	0.7	187.1	21.8	86.2	0.4	0
1181	2010-03-18T04:00:00	10	8.50	7.64	781.98	ND	ND	0.9	150	21.7	86.2	0.4	0
1182	2010-03-18T05:00:00	10	6.56	2.78	577.79	ND	ND	0.7	156.6	21.6	87.1	0.4	0
1183	2010-03-18T06:00:00	7	5.18	0.19	600.24	ND	ND	0.4	139.2	21.6	87.4	0.4	0
1184	2010-03-18T07:00:00	14	4.82	1.96	600.24	ND	ND	0.8	78	21.9	86	4.4	0
1185	2010-03-18T08:00:00	42	4.90	7.25	759.57	ND	ND	0.3	50.6	22.1	84.6	43.8	0
1186	2010-03-18T09:00:00	60	11.78	22.74	1701.69	ND	ND	0.6	97.6	22.8	80.4	122.7	0
1187	2010-03-18T10:00:00	38	18.86	30.32	2183.33	ND	ND	0.5	86.6	23.5	77.2	236.3	0
1188	2010-03-18T11:00:00	49	29.93	54.31	2336.67	ND	ND	0.6	116.2	24.6	71.9	357.5	0
1189	2010-03-18T12:00:00	45	19.00	51.61	1727.55	ND	ND	0.8	132.3	25.9	66	570.8	0
1190	2010-03-18T13:00:00	49	18.21	59.85	1769.56	ND	ND	0.9	7.8	27.8	57.1	716.6	0
1191	2010-03-18T14:00:00	32	16.90	50.53	1514.85	ND	ND	2.2	62.8	28.4	55.8	612.2	0
1192	2010-03-18T15:00:00	48	23.03	39.41	1286.13	ND	ND	2.4	52.9	27.6	59.2	321.2	0
1193	2010-03-18T16:00:00	25	40.28	53.56	1328.94	ND	ND	1.7	42.8	27.9	57.5	298.8	0
1194	2010-03-18T17:00:00	40	22.89	49.90	1353.40	ND	ND	1	22	28.1	56.2	148.1	0
1195	2010-03-18T18:00:00	49	16.36	43.08	1296.43	ND	ND	0.9	56.1	27.9	57.6	50.9	0
1196	2010-03-18T19:00:00	83	27.01	49.18	1295.57	ND	ND	0	27.6	27.2	59.1	1.5	0
1197	2010-03-18T20:00:00	59	39.25	86.80	2008.07	ND	ND	0.9	259.4	26.2	61.9	0.3	0
1198	2010-03-18T21:00:00	41	18.31	90.16	2438.47	ND	ND	1.8	274	25.2	65.5	0.4	0
1199	2010-03-18T22:00:00	38	11.43	48.66	2052.01	ND	ND	1.9	277.1	24.7	67	0.4	0
1200	2010-03-18T23:00:00	20	7.72	39.02	1396.23	ND	ND	1.2	261.4	24.3	67	0.4	0
1201	2010-03-19T00:00:00	24	6.67	27.88	1142.92	ND	ND	0	164.9	23.3	77	0.4	0
1202	2010-03-19T01:00:00	35	5.45	16.12	1082.12	ND	ND	0.7	257.4	23.4	76.9	0.3	0
1203	2010-03-19T02:00:00	18	8.76	21.71	1606.63	ND	ND	0.8	255.1	23.6	70.9	0.4	0
1204	2010-03-19T03:00:00	10	6.88	30.44	1208.64	ND	ND	0.9	259.9	23.6	70.5	0.5	0
1205	2010-03-19T04:00:00	7	6.29	16.44	1003.40	ND	ND	0.5	246.1	23.6	71.6	0.4	0
1206	2010-03-19T05:00:00	10	4.56	ND	763.95	ND	ND	0.5	179.2	23.2	77.4	0.4	0
1207	2010-03-19T06:00:00	17	4.56	ND	660.44	ND	ND	0.5	68	22.4	84.8	0.4	0
1208	2010-03-19T07:00:00	53	3.97	10.96	794.93	ND	ND	0.2	97.6	22.6	83.6	19.1	0
1209	2010-03-19T08:00:00	58	6.34	23.65	1352.29	ND	ND	0.3	143.3	23.1	81.1	98.1	0
1210	2010-03-19T09:00:00	72	9.55	29.21	2231.07	ND	ND	0.3	135.6	24.8	70.6	358.2	0
1211	2010-03-19T10:00:00	69	13.80	55.02	2930.79	ND	ND	0.9	123.9	26.8	64	582.6	0
1212	2010-03-19T11:00:00	66	14.02	89.49	2500.98	ND	ND	1.2	147.2	28.3	57.5	680.4	0
1213	2010-03-19T12:00:00	35	15.42	89.65	2200.76	ND	ND	1.3	137.3	29.7	52.8	901.1	0
1214	2010-03-19T13:00:00	55	16.74	48.13	1524.42	ND	ND	0.9	116.4	31.2	48.4	928.3	0
1215	2010-03-19T14:00:00	31	15.11	31.74	1298.08	ND	ND	0.9	129.4	32.7	43.4	916.6	0
1216	2010-03-19T15:00:00	49	12.93	36.03	1433.75	ND	ND	0.7	139.7	33.9	39.5	794.9	0
1217	2010-03-19T16:00:00	41	11.85	28.47	1309.60	ND	ND	2.4	273.9	33.6	42.5	524.6	0
1218	2010-03-19T17:00:00	49	12.99	34.71	1308.32	ND	ND	5.2	277.9	30.4	51.4	390.2	0
1219	2010-03-19T18:00:00	25	11.10	24.77	1352.99	ND	ND	4.5	279.9	28.9	53.8	121.3	0
1220	2010-03-19T19:00:00	32	6.11	9.29	1079.36	ND	ND	4.8	266.5	28.1	55.9	2.9	0
1221	2010-03-19T20:00:00	18	5.88	10.64	1088.07	ND	ND	2.8	276.4	28.1	55.8	0.4	0
1222	2010-03-19T21:00:00	10	6.04	10.22	1111.22	ND	ND	1.9	293.3	27.3	58.7	0.4	0
1223	2010-03-19T22:00:00	33	7.10	28.07	1304.53	ND	ND	0.4	326.7	26.4	64	0.4	0
1224	2010-03-19T23:00:00	40	5.55	19.87	1012.87	ND	ND	1.7	206.5	26.2	63.9	0.4	0
1225	2010-03-20T00:00:00	34	12.89	42.87	1690.82	ND	ND	0.7	179.5	25.5	68.3	0.4	0
1226	2010-03-20T01:00:00	37	7.95	26.92	1273.76	ND	ND	0.4	67.9	25.1	70.1	0.4	0
1227	2010-03-20T02:00:00	26	11.82	50.89	1650.23	ND	ND	0.7	138.8	24.1	76	0.3	0
1228	2010-03-20T03:00:00	31	10.01	34.89	1519.06	ND	ND	0.5	164.9	23.8	77.3	0.4	0
1229	2010-03-20T04:00:00	16	8.25	23.22	1106.76	ND	ND	0.2	194.4	23.6	76.4	0.4	0
1230	2010-03-20T05:00:00	63	7.15	19.27	1128.82	ND	ND	0.6	5.4	23.7	77	0.4	0
1231	2010-03-20T06:00:00	70	5.97	13.90	923.89	ND	ND	0.6	65.4	23.5	78.3	0.4	0
1232	2010-03-20T07:00:00	90	9.91	28.67	1481.79	ND	ND	0.5	65.2	23.3	79.4	12	0
1233	2010-03-20T08:00:00	110	17.09	26.50	1606.09	ND	ND	0.5	5	23.8	77.2	66.3	0
1234	2010-03-20T09:00:00	128	30.14	33.20	2213.53	ND	ND	0.4	85.3	24.8	73.2	187.3	0
1235	2010-03-20T10:00:00	145	60.09	49.97	2472.85	ND	ND	1.2	144.7	25.5	72.3	231.8	0
1236	2010-03-20T11:00:00	138	77.58	91.31	2937.68	ND	ND	1.2	153.5	26.5	67.1	465.7	0
1237	2010-03-20T12:00:00	169	44.16	146.19	3350.50	ND	ND	1.2	133.1	28.1	59	642.9	0
1238	2010-03-20T13:00:00	134	32.59	92.92	2326.62	ND	ND	1	157.1	29.2	55.1	630.5	0
1239	2010-03-20T14:00:00	85	26.84	72.81	3403.94	ND	ND	1.8	129.8	29.7	54.2	477.4	0
1240	2010-03-20T15:00:00	89	16.66	54.45	3607.39	ND	ND	1.7	157.6	29.9	55.3	503.5	0
1241	2010-03-20T16:00:00	69	17.58	70.30	2724.80	ND	ND	1.4	149.6	29.8	56.4	292	0
1242	2010-03-20T17:00:00	93	22.50	38.37	1827.57	ND	ND	1	143.5	29.8	55.7	240.1	0
1243	2010-03-20T18:00:00	69	23.99	50.37	2130.23	ND	ND	2.1	273.6	29.4	54.4	58.2	0
1244	2010-03-20T19:00:00	43	20.74	43.19	1976.29	ND	ND	2.5	272.4	28.3	56.9	4.6	0
1245	2010-03-20T20:00:00	25	10.57	26.68	1702.69	ND	ND	3	276.5	27.7	58.1	0.3	0
1246	2010-03-20T21:00:00	18	7.46	27.86	1606.82	ND	ND	3.6	266.7	27.4	59.3	0.2	0
1247	2010-03-20T22:00:00	10	6.02	15.74	1189.48	ND	ND	2.9	268.3	27.3	59.3	0	0
1248	2010-03-20T23:00:00	24	5.02	5.88	1004.37	ND	ND	0.6	311.5	26.7	64.4	0	0
1249	2010-03-21T00:00:00	13	4.85	5.97	979.32	ND	ND	1.5	248.5	26.6	63.4	0.1	0
1250	2010-03-21T01:00:00	13	10.41	23.86	1543.36	ND	ND	1.6	254.9	26.4	64.3	0	0
1251	2010-03-21T02:00:00	14	7.11	9.63	1427.23	ND	ND	0.7	145.5	25.4	72.3	0	0
1252	2010-03-21T03:00:00	30	4.30	0.04	1009.49	ND	ND	0.4	89	24.7	75.6	0.1	0
1253	2010-03-21T04:00:00	28	6.28	11.10	1236.01	ND	ND	1.2	167	24.5	77.5	0.3	0
1254	2010-03-21T05:00:00	44	7.85	14.99	1395.30	ND	ND	0.9	187.2	23.9	81.8	0.4	0
1255	2010-03-21T06:00:00	42	7.10	13.34	1050.07	ND	ND	0.4	324.4	24.1	80.5	0.4	0
1256	2010-03-21T07:00:00	55	5.51	13.43	1027.93	ND	ND	1.1	42.6	23.9	79.3	17.5	0
1257	2010-03-21T08:00:00	46	5.43	17.32	1129.96	ND	ND	0.8	64.7	24.7	73.3	186	0
1258	2010-03-21T09:00:00	35	8.48	16.20	1407.68	ND	ND	1.2	79	26.4	65.8	431	0
1259	2010-03-21T10:00:00	23	18.35	17.20	1277.60	ND	ND	1.3	101.7	27.4	63.1	599.2	0
1260	2010-03-21T11:00:00	21	21.00	19.14	1143.29	ND	ND	1.2	116.5	29	57.1	850.5	0
1261	2010-03-21T12:00:00	12	17.58	14.32	1114.55	ND	ND	1.3	146.1	30.7	50.8	892.3	0
1262	2010-03-21T13:00:00	40	17.36	16.56	1155.84	ND	ND	1.5	104.5	31.5	48.4	581	0
1263	2010-03-21T14:00:00	27	14.97	12.16	1112.07	ND	ND	0.2	337.7	32.1	46.2	667.1	0
1264	2010-03-21T15:00:00	16	12.98	13.59	1196.36	ND	ND	3.1	277.2	32.8	42.3	810.6	0
1265	2010-03-21T16:00:00	12	11.19	11.56	999.25	ND	ND	4.1	278.1	32.6	43	615.6	0
1266	2010-03-21T17:00:00	11	4.35	ND	681.40	ND	ND	5.6	278.2	30.4	49.6	359.7	0
1267	2010-03-21T18:00:00	12	3.97	ND	653.17	ND	ND	6.1	278	28.7	53.8	107.3	0
1268	2010-03-21T19:00:00	7	3.48	ND	579.92	ND	ND	5.1	278.2	27.8	56.1	1.4	0
1269	2010-03-21T20:00:00	4	3.41	ND	578.19	ND	ND	4.4	276.9	27.9	54	0.3	0
1270	2010-03-21T21:00:00	4	3.10	ND	589.95	ND	ND	1.9	302.7	27.9	54	0.2	0
1271	2010-03-21T22:00:00	4	3.25	ND	601.51	ND	ND	4.1	279	26.7	58.1	0.2	0
1272	2010-03-21T23:00:00	3	3.72	5.91	748.89	ND	ND	2	292.8	26.6	57.8	0.1	0
1273	2010-03-22T00:00:00	2	2.58	ND	564.36	ND	ND	2.1	267.9	26.1	60.1	0.1	0
1274	2010-03-22T01:00:00	16	3.26	3.04	678.40	ND	ND	0.7	151.4	24.8	70.6	0.1	0
1275	2010-03-22T02:00:00	21	2.96	3.01	675.45	ND	ND	1.1	157.1	24.2	74.2	0.3	0
1276	2010-03-22T03:00:00	24	6.64	10.37	959.73	ND	ND	0.8	132.2	24.5	71.9	0.4	0
1277	2010-03-22T04:00:00	14	6.20	5.92	903.51	ND	ND	1.1	154.4	23.8	76.1	0.4	0
1278	2010-03-22T05:00:00	28	7.99	7.80	1026.89	ND	ND	0.8	82.2	23.6	76	0.4	0
1279	2010-03-22T06:00:00	21	13.07	4.74	809.56	ND	ND	0.5	194.9	23.6	76.5	0.4	0
1280	2010-03-22T07:00:00	46	13.61	4.63	809.56	ND	ND	0.5	251	23.6	75.7	11.1	0
1281	2010-03-22T08:00:00	34	16.51	2.17	741.15	ND	ND	0.8	201.5	23.8	74.1	89.4	0
1282	2010-03-22T09:00:00	51	14.09	5.25	878.57	ND	ND	1.4	139.9	24.3	75	200.2	0
1283	2010-03-22T10:00:00	45	11.14	10.52	1120.06	ND	ND	1.2	141.7	25.8	67.9	563.9	0
1284	2010-03-22T11:00:00	28	14.90	21.09	1309.50	ND	ND	1.2	127.6	28	56.9	822.5	0
1285	2010-03-22T12:00:00	15	19.32	16.89	1087.71	ND	ND	0.9	120.8	29.6	52	648.6	0
1286	2010-03-22T13:00:00	25	17.35	4.53	884.10	ND	ND	0.7	91	30.8	48.4	752	0
1287	2010-03-22T14:00:00	13	13.86	2.07	1097.83	ND	ND	0.8	357.2	32.1	44.2	722	0
1288	2010-03-22T15:00:00	9	10.57	8.08	950.05	ND	ND	1	319.7	31.9	43.5	399.2	0
1289	2010-03-22T16:00:00	4	8.42	4.05	902.54	ND	ND	3.9	276.8	32	42.6	637	0
1290	2010-03-22T17:00:00	2	8.26	0.85	691.79	ND	ND	4.8	276	30.4	47.6	412.3	0
1291	2010-03-22T18:00:00	3	3.49	ND	559.86	ND	ND	4.8	279	28.5	53.4	96.3	0
1292	2010-03-22T19:00:00	3	3.47	ND	579.53	ND	ND	4.6	279	27.2	56.9	2.3	0
1293	2010-03-22T20:00:00	3	3.27	ND	565.49	ND	ND	4.1	278.3	27.1	57.4	0.3	0
1294	2010-03-22T21:00:00	6	3.19	ND	611.45	ND	ND	3.5	266.9	27.4	55.5	0.2	0
1295	2010-03-22T22:00:00	4	3.25	ND	635.16	ND	ND	2.5	230	26.6	61.3	0	0
1296	2010-03-22T23:00:00	8	2.63	ND	587.40	ND	ND	1.4	206.9	26.3	63.8	0.1	0
1297	2010-03-23T00:00:00	6	3.68	2.18	770.91	ND	ND	1.4	207.2	25.9	66.1	0	0
1298	2010-03-23T01:00:00	5	6.89	5.99	873.29	ND	ND	0.6	221.4	25.8	66.2	0	0
1299	2010-03-23T02:00:00	11	4.41	3.25	792.59	ND	ND	1.2	343.4	25	69.8	0	0
1300	2010-03-23T03:00:00	23	4.30	1.98	721.73	ND	ND	0.3	59.8	24.5	75.1	0	0
1301	2010-03-23T04:00:00	17	6.51	4.27	709.08	ND	ND	0.1	24.4	24.7	72.1	0	0
1302	2010-03-23T05:00:00	28	7.88	4.42	812.56	ND	ND	0.3	26.5	24.5	73.4	0	0
1303	2010-03-23T06:00:00	18	8.40	5.85	834.89	ND	ND	0.8	171.2	24.1	77.5	0	0
1304	2010-03-23T07:00:00	36	6.48	3.00	742.40	ND	ND	0.1	22.7	24.1	77.8	8	0
1305	2010-03-23T08:00:00	42	7.68	4.96	1142.15	ND	ND	0.6	34.6	24.7	73.7	69.2	0
1306	2010-03-23T09:00:00	56	6.75	5.19	1419.12	ND	ND	0.7	150	25.7	69.7	304.5	0
1307	2010-03-23T10:00:00	29	13.26	30.98	2354.01	ND	ND	0.5	155.6	26.7	63.8	464.1	0
1308	2010-03-23T11:00:00	39	17.26	50.63	2235.16	ND	ND	0.2	101.5	28.6	55.7	751.3	0
1309	2010-03-23T12:00:00	22	20.42	25.30	1368.15	ND	ND	1.2	109.5	30.7	49.4	935.1	0
1310	2010-03-23T13:00:00	53	15.49	13.88	1167.52	ND	ND	1.5	134.6	31.6	46.9	715.2	0
1311	2010-03-23T14:00:00	31	15.21	35.25	1463.72	ND	ND	0.5	47	32.7	43.7	757.3	0
1312	2010-03-23T15:00:00	25	14.14	32.48	1374.99	ND	ND	2.2	303	32.9	43.6	711.9	0
1313	2010-03-23T16:00:00	17	11.14	24.52	1281.82	ND	ND	4.2	279.5	32.6	44.2	616.4	0
1314	2010-03-23T17:00:00	31	9.35	8.32	986.85	ND	ND	4.2	276.5	31.4	47.4	370.1	0
1315	2010-03-23T18:00:00	17	5.94	1.89	1029.79	ND	ND	4.1	281.6	30	50.9	135.7	0
1316	2010-03-23T19:00:00	38	6.39	3.93	1164.83	ND	ND	5.6	274.6	28.5	55.4	3.8	0
1317	2010-03-23T20:00:00	20	6.47	6.73	1159.06	ND	ND	4.6	268.3	28.2	56.3	0.3	0
1318	2010-03-23T21:00:00	12	5.35	0.55	1018.96	ND	ND	3.8	267.2	27.8	58.6	0.1	0
1319	2010-03-23T22:00:00	7	4.34	2.89	959.79	ND	ND	3.2	264.6	27.2	60.8	0	0
1320	2010-03-23T23:00:00	11	4.09	2.20	900.17	ND	ND	0.4	352.2	26.7	64	0	0
1321	2010-03-24T00:00:00	7	3.64	0.11	829.54	ND	ND	2.4	256.9	26.8	62.9	0	0
1322	2010-03-24T01:00:00	4	13.79	23.31	1429.13	ND	ND	1.5	212.4	26.3	65	0	0
1323	2010-03-24T02:00:00	4	7.05	0.93	713.38	ND	ND	1	243.6	25.9	66	0	0
1324	2010-03-24T03:00:00	19	3.36	ND	643.48	ND	ND	0.2	5.1	24.9	71.6	0	0
1325	2010-03-24T04:00:00	20	3.01	1.90	675.68	ND	ND	0.7	266.5	24.7	71	0	0
1326	2010-03-24T05:00:00	12	6.73	8.75	869.79	ND	ND	0.5	230.1	24.6	68.3	0.1	0
1327	2010-03-24T06:00:00	22	12.66	7.39	869.49	ND	ND	0.3	33.6	24.4	71.1	0.2	0
1328	2010-03-24T07:00:00	37	5.28	ND	674.55	ND	ND	0.6	245.8	24.4	71.2	18.2	0
1329	2010-03-24T08:00:00	29	8.63	9.42	1131.87	ND	ND	0.6	166.1	25.1	67.4	115.4	0
1330	2010-03-24T09:00:00	52	17.19	16.94	1810.67	ND	ND	0.8	128.6	26.5	63.6	371.7	0
1331	2010-03-24T10:00:00	29	14.59	32.60	2717.24	ND	ND	1	173.9	28.2	58.8	663.3	0
1332	2010-03-24T11:00:00	43	15.15	55.51	2234.76	ND	ND	0.8	164	29.5	53.7	768.4	0
1333	2010-03-24T12:00:00	30	13.49	24.62	1500.15	ND	ND	1	127.1	31.1	48.9	934.4	0
1334	2010-03-24T13:00:00	38	12.43	14.09	1110.60	ND	ND	0.7	104.2	32.7	44	901	0
1335	2010-03-24T14:00:00	21	11.24	15.71	1139.95	ND	ND	2.7	289.3	33.2	42.3	718.5	0
1336	2010-03-24T15:00:00	19	14.54	32.55	2318.95	ND	ND	4.6	284.9	32.8	41.9	831.1	0
1337	2010-03-24T16:00:00	12	7.13	1.01	975.74	ND	ND	5	288.1	32	44.1	608.5	0
1338	2010-03-24T17:00:00	34	5.98	0.39	1008.37	ND	ND	5.1	282.8	31.1	46.2	381.2	0
1339	2010-03-24T18:00:00	25	ND	ND	ND	ND	ND	5.5	281	29.4	51.9	98.2	0
1340	2010-03-24T19:00:00	27	6.94	ND	1127.65	ND	ND	4.7	276.9	28.3	55.1	1.1	0
1341	2010-03-24T20:00:00	21	5.64	0.53	1054.05	ND	ND	5.4	267.3	27.5	58.6	0.2	0
1342	2010-03-24T21:00:00	15	5.50	1.67	1062.80	ND	ND	3.1	273.8	27.3	58.3	0.4	0
1343	2010-03-24T22:00:00	9	4.57	1.77	958.19	ND	ND	3.1	264.1	26.9	60.3	0.4	0
1344	2010-03-24T23:00:00	14	3.40	ND	841.63	ND	ND	0.7	280	26.4	62.4	0.5	0
1345	2010-03-25T00:00:00	8	3.29	ND	840.22	ND	ND	1.9	206.5	25.8	66.6	0.4	0
1346	2010-03-25T01:00:00	24	6.75	11.41	1194.63	ND	ND	1.7	199.5	25.5	68.6	0.4	0
1347	2010-03-25T02:00:00	29	4.78	5.23	940.97	ND	ND	1.5	175.6	24.7	73.3	0.5	0
1348	2010-03-25T03:00:00	37	5.18	1.07	881.23	ND	ND	1.3	186.1	24.4	73.5	0.4	0
1349	2010-03-25T04:00:00	25	9.88	0.55	880.34	ND	ND	0.8	346.8	23.9	76.9	0.4	0
1350	2010-03-25T05:00:00	48	15.48	0.04	833.21	ND	ND	0.5	0.7	23.7	78.7	0.4	0
1351	2010-03-25T06:00:00	38	14.61	5.19	935.30	ND	ND	0.8	174.1	23.7	76.8	0.5	0
1352	2010-03-25T07:00:00	48	18.52	8.51	1094.99	ND	ND	0.9	206.2	23.7	73.8	32	0
1353	2010-03-25T08:00:00	61	16.85	7.82	1277.48	ND	ND	0.9	134.1	24.2	74.3	108.8	0
1354	2010-03-25T09:00:00	79	12.57	9.88	1530.99	ND	ND	0.9	120.6	25.8	66.9	400	0
1355	2010-03-25T10:00:00	53	18.15	44.27	3296.72	ND	ND	1.3	151.8	27.6	57.9	642.5	0
1356	2010-03-25T11:00:00	56	21.70	58.00	2449.88	ND	ND	0.9	166.8	29	53.3	826.1	0
1357	2010-03-25T12:00:00	37	24.03	24.41	1474.45	ND	ND	1.3	152.3	30.7	48	878	0
1358	2010-03-25T13:00:00	52	20.37	17.51	1366.00	ND	ND	1	130.4	31.7	44.9	841.5	0
1359	2010-03-25T14:00:00	30	16.66	21.95	1405.64	ND	ND	1.3	311.9	32.1	42.5	487.2	0
1360	2010-03-25T15:00:00	31	13.36	23.66	1419.21	ND	ND	4.3	279.8	32.5	40.9	702.2	0
1361	2010-03-25T16:00:00	59	11.31	13.65	1233.16	ND	ND	4.9	284.1	31.3	44.7	568.6	0
1362	2010-03-25T17:00:00	83	7.06	ND	1649.46	ND	ND	5.5	281	30	48.9	364.2	0
1363	2010-03-25T18:00:00	64	8.85	23.11	1560.87	ND	ND	5.9	280.4	28.3	54	112.5	0
1364	2010-03-25T19:00:00	68	7.95	9.77	1355.20	ND	ND	6.1	277.1	27.4	56.6	2	0
1365	2010-03-25T20:00:00	35	5.97	4.69	1247.22	ND	ND	5.5	260.6	26.8	59.2	0.4	0
1366	2010-03-25T21:00:00	26	5.67	1.36	1048.80	ND	ND	2.6	245.2	26.4	61.5	0.4	0
1367	2010-03-25T22:00:00	14	5.00	0.49	1243.07	ND	ND	2.3	271.1	26.4	60.1	0.4	0
1368	2010-03-25T23:00:00	7	4.63	6.81	1139.48	ND	ND	1.8	275.7	26.3	59	0.4	0
1369	2010-03-26T00:00:00	17	5.53	5.71	1035.54	ND	ND	1.2	348.4	25.8	62.8	0.4	0
1370	2010-03-26T01:00:00	38	5.31	2.68	941.92	ND	ND	1.1	73.2	24.7	71.9	0.4	0
1371	2010-03-26T02:00:00	31	17.56	12.57	915.56	ND	ND	0.8	122.8	24.5	73.5	0.4	0
1372	2010-03-26T03:00:00	44	20.59	19.67	1086.50	ND	ND	0.7	140.5	23.8	79.5	0.4	0
1373	2010-03-26T04:00:00	24	11.25	11.18	1004.07	ND	ND	0.9	146.2	23.8	79.6	0.4	0
1374	2010-03-26T05:00:00	43	7.78	7.13	832.93	ND	ND	1.3	150.5	23.4	80.6	0.5	0
1375	2010-03-26T06:00:00	44	5.60	3.22	820.41	ND	ND	0.8	171.6	23.5	79	0.4	0
1376	2010-03-26T07:00:00	51	8.42	6.69	889.08	ND	ND	0.7	181.5	23.6	78.3	14.4	0
1377	2010-03-26T08:00:00	44	12.96	13.52	1254.25	ND	ND	1.5	182.3	23.8	76.9	61.1	0
1378	2010-03-26T09:00:00	70	15.84	22.75	1597.39	ND	ND	1.7	175.4	24.1	75.7	118.2	0
1379	2010-03-26T10:00:00	50	16.69	21.80	2147.24	ND	ND	1.7	144.2	24.5	76.7	257.6	0
1380	2010-03-26T11:00:00	46	20.98	25.99	1909.95	ND	ND	2.1	152.9	25.9	68.4	412	0
1381	2010-03-26T12:00:00	25	20.24	32.91	1930.43	ND	ND	2.3	144	26.4	64	454.1	0
1382	2010-03-26T13:00:00	36	20.06	36.24	1795.54	ND	ND	1.5	157.2	27.2	60.4	538.7	0
1383	2010-03-26T14:00:00	23	25.05	38.33	1661.85	ND	ND	1.1	182	28.5	55	663.6	0
1384	2010-03-26T15:00:00	16	18.98	30.72	1541.55	ND	ND	1.8	280.7	29.1	51.6	433	0
1385	2010-03-26T16:00:00	14	13.49	16.15	1149.76	ND	ND	2.3	299.2	27.3	58.5	102.9	0
1386	2010-03-26T17:00:00	22	8.61	3.70	1027.46	ND	ND	2.2	298.5	27.2	56.7	165.2	0
1387	2010-03-26T18:00:00	29	7.71	25.77	1488.74	ND	ND	1.6	267.3	26.5	61.2	59.6	1.52
1388	2010-03-26T19:00:00	43	8.35	36.25	1565.87	ND	ND	0.8	287	24.9	69.3	0.6	2.54
1389	2010-03-26T20:00:00	26	7.10	23.80	1477.34	ND	ND	0.9	331.6	25	69.2	0.3	0
1390	2010-03-26T21:00:00	39	8.96	55.00	2875.47	ND	ND	1	14.3	24.7	69.8	0.4	0
1391	2010-03-26T22:00:00	52	10.84	59.83	2884.02	ND	ND	0.4	322.1	24.2	73.9	0.4	0
1392	2010-03-26T23:00:00	29	9.54	51.99	1965.15	ND	ND	1.4	243.5	24.3	70.9	0.3	0
1393	2010-03-27T00:00:00	55	14.61	51.41	1931.53	ND	ND	0.8	126.6	23.7	77.5	0	0
1394	2010-03-27T01:00:00	43	12.50	26.53	1722.32	ND	ND	0.4	15.8	23.2	80.1	0	0
1395	2010-03-27T02:00:00	51	8.49	33.04	1423.36	ND	ND	0.7	60.8	22.8	81.3	0.1	0
1396	2010-03-27T03:00:00	42	6.35	22.43	1159.89	ND	ND	1	43.4	22.5	82.2	0.3	0
1397	2010-03-27T04:00:00	24	8.31	23.07	1260.96	ND	ND	0.6	82.1	22.2	84.1	0.3	0
1398	2010-03-27T05:00:00	51	11.52	20.34	1259.68	ND	ND	0.3	141.1	22.4	83.4	0.4	0
1399	2010-03-27T06:00:00	59	10.34	14.81	1192.39	ND	ND	0.8	76.6	21.8	86.6	0.4	0
1400	2010-03-27T07:00:00	50	12.83	21.56	1529.96	ND	ND	0.4	87.8	21.3	88	19.7	0
1401	2010-03-27T08:00:00	71	10.87	24.70	1617.88	ND	ND	0.3	157.3	22.1	85.1	64.2	0
1402	2010-03-27T09:00:00	69	11.62	30.01	1826.48	ND	ND	1	206.3	23.1	81.2	273.7	0
1403	2010-03-27T10:00:00	59	17.65	48.90	2458.73	ND	ND	1.1	122.4	25.7	68.9	637.3	0
1404	2010-03-27T11:00:00	50	13.66	40.99	2331.05	ND	ND	1.3	134.1	27.7	59.8	847.6	0
1405	2010-03-27T12:00:00	49	13.11	50.34	2080.78	ND	ND	1.3	105.4	29	54.8	827.2	0
1406	2010-03-27T13:00:00	46	13.22	29.17	1648.60	ND	ND	1.2	14.6	30	51.8	719.1	0
1407	2010-03-27T14:00:00	31	14.87	36.73	1712.30	ND	ND	1.3	336.5	31.2	47.7	715.9	0
1408	2010-03-27T15:00:00	32	16.37	23.94	1531.97	ND	ND	3.3	282.3	31.9	43.8	770.8	0
1409	2010-03-27T16:00:00	16	24.93	16.36	1430.00	ND	ND	4.8	289.8	30.9	46.3	597.7	0
1410	2010-03-27T17:00:00	23	9.19	1.61	1273.43	ND	ND	4.9	280.5	29.4	50.8	262.6	0
1411	2010-03-27T18:00:00	27	5.32	ND	1220.65	ND	ND	5.5	273.2	28.1	55	39.8	0
1412	2010-03-27T19:00:00	24	4.87	ND	1284.85	ND	ND	5	275.6	27.9	55.3	1.6	0
1413	2010-03-27T20:00:00	20	4.89	0.80	1237.73	ND	ND	3.9	265.2	27.4	59.1	0.2	0
1414	2010-03-27T21:00:00	25	4.86	0.17	1293.41	ND	ND	3.2	263.2	26.7	62	0.1	0
1415	2010-03-27T22:00:00	14	5.69	15.40	1290.40	ND	ND	3.6	251.3	26.1	65.4	0.2	0
1416	2010-03-27T23:00:00	9	4.60	7.96	1115.34	ND	ND	2.9	247.2	25.9	65.9	0	0
1417	2010-03-28T00:00:00	6	3.84	2.12	1068.63	ND	ND	1.6	223.8	25.5	67.1	0.1	0
1418	2010-03-28T01:00:00	10	3.31	ND	1113.10	ND	ND	0.3	294.6	25.1	68.2	0.1	0
1419	2010-03-28T02:00:00	33	3.54	4.18	1214.75	ND	ND	0.8	344	24.5	71.2	0.1	0
1420	2010-03-28T03:00:00	57	8.14	22.00	1292.36	ND	ND	0.4	101	24	74.7	0.2	0
1421	2010-03-28T04:00:00	32	30.11	29.13	1415.79	ND	ND	0	100.6	23.4	77.8	0.4	0
1422	2010-03-28T05:00:00	59	24.13	24.84	1481.29	ND	ND	0.4	56.5	23.6	76.9	0.4	0
1423	2010-03-28T06:00:00	56	9.91	20.79	1379.67	ND	ND	0.6	11.4	23.2	79.6	0.4	0
1424	2010-03-28T07:00:00	74	9.43	21.77	1537.23	ND	ND	0.1	277.2	23.2	77.8	29.5	0
1425	2010-03-28T08:00:00	44	13.23	19.77	1480.29	ND	ND	0.2	185.6	23.9	73.9	83.8	0
1426	2010-03-28T09:00:00	83	30.60	22.63	1597.93	ND	ND	0.5	136.9	24.5	74.7	228.3	0
1427	2010-03-28T10:00:00	57	18.89	25.08	1624.03	ND	ND	0.9	157.5	26.2	66.1	412.2	0
1428	2010-03-28T11:00:00	60	19.73	62.31	2553.49	ND	ND	1.6	160.4	28	59	764.3	0
1429	2010-03-28T12:00:00	38	22.92	32.63	1458.00	ND	ND	1.6	179.8	29.5	54.7	856.3	0
1430	2010-03-28T13:00:00	33	29.87	16.67	1267.57	ND	ND	2.1	162.7	30.9	50.4	937.6	0
1431	2010-03-28T14:00:00	18	21.75	4.19	1261.75	ND	ND	1.5	145.7	32.7	43.2	987	0
1432	2010-03-28T15:00:00	24	19.89	3.61	1292.73	ND	ND	1.4	257.1	32.8	44.3	651.5	0
1433	2010-03-28T16:00:00	39	13.12	3.09	1210.86	ND	ND	5.1	282.2	30.9	50	506.4	0
1434	2010-03-28T17:00:00	38	9.51	1.36	1086.51	ND	ND	4.6	284.5	29.4	53.5	353.2	0
1435	2010-03-28T18:00:00	24	8.08	ND	1069.52	ND	ND	4.6	276.8	28.6	54.4	123.5	0
1436	2010-03-28T19:00:00	23	7.50	ND	1229.01	ND	ND	3	289	28.5	52.2	1.5	0
1437	2010-03-28T20:00:00	13	6.28	0.04	1043.16	ND	ND	2.9	283.4	28.2	51.4	0	0
1438	2010-03-28T21:00:00	20	4.42	ND	984.22	ND	ND	1.8	278.4	28.2	51	0	0
1439	2010-03-28T22:00:00	12	4.18	ND	903.17	ND	ND	2.2	241.9	27.7	54.4	0	0
1440	2010-03-28T23:00:00	18	4.39	2.60	1028.83	ND	ND	2.3	196.5	26.9	61	0	0
1441	2010-03-29T00:00:00	10	3.88	0.08	1014.56	ND	ND	2.1	188.4	25.9	66.8	0	0
1442	2010-03-29T01:00:00	22	5.07	3.44	1103.10	ND	ND	1.3	216.6	25.6	68	0	0
1443	2010-03-29T02:00:00	16	6.77	10.44	1182.35	ND	ND	0.2	266.9	25.3	65.7	0	0
1444	2010-03-29T03:00:00	27	7.29	1.47	1009.15	ND	ND	0.5	29.3	24.5	70.5	0	0
1445	2010-03-29T04:00:00	14	7.80	3.08	1006.44	ND	ND	0.7	120.6	23.8	74.9	0.2	0
1446	2010-03-29T05:00:00	31	7.62	5.85	1061.12	ND	ND	0.6	156.2	23.7	74.8	0.1	0
1447	2010-03-29T06:00:00	34	6.47	6.45	1037.95	ND	ND	0.6	132.1	23.8	74.6	0.3	0
1448	2010-03-29T07:00:00	50	6.58	6.32	1049.71	ND	ND	1.1	162.5	23.6	76.6	49.8	0
1449	2010-03-29T08:00:00	48	9.81	17.00	1391.07	ND	ND	0.8	152.9	24.4	73	196.3	0
1450	2010-03-29T09:00:00	61	11.98	21.86	1737.82	ND	ND	1.3	173.8	26.1	65.9	448.9	0
1451	2010-03-29T10:00:00	44	14.15	41.17	2414.66	ND	ND	1	172.6	27.8	58.7	664.6	0
1452	2010-03-29T11:00:00	39	14.73	37.07	1884.89	ND	ND	1	110.1	30	50.8	799.6	0
1453	2010-03-29T12:00:00	46	15.69	21.64	1525.93	ND	ND	1.5	109.4	31.4	47	896.9	0
1454	2010-03-29T13:00:00	44	15.15	29.82	1696.81	ND	ND	1.2	25	32.1	44.7	596.6	0
1455	2010-03-29T14:00:00	37	15.45	39.53	1712.44	ND	ND	3	284.1	32.3	43.4	667.4	0
1456	2010-03-29T15:00:00	22	17.21	38.13	1631.40	ND	ND	4.2	281.4	32.4	42.6	742.3	0
1457	2010-03-29T16:00:00	13	10.63	1.02	1209.28	ND	ND	4.7	284.9	31.4	45.2	480.2	0
1458	2010-03-29T17:00:00	16	6.34	0.65	1240.42	ND	ND	5.7	286.4	29.7	50.9	273.4	0
1459	2010-03-29T18:00:00	11	6.71	1.89	1268.41	ND	ND	6	276.3	28.3	55.4	91.7	0
1460	2010-03-29T19:00:00	18	7.44	0.80	1250.96	ND	ND	5.4	268.9	27.7	57.2	4.1	0
1461	2010-03-29T20:00:00	11	6.29	1.05	1225.35	ND	ND	1.8	269.5	27.9	56.7	0	0
1462	2010-03-29T21:00:00	25	6.09	3.56	1237.73	ND	ND	3.5	265.8	27.1	60.2	0	0
1463	2010-03-29T22:00:00	13	6.17	19.90	1465.17	ND	ND	2.7	271.9	26.8	61.1	0	0
1464	2010-03-29T23:00:00	8	4.82	3.85	1152.53	ND	ND	1.9	264.3	26.9	60.3	0	0
1465	2010-03-30T00:00:00	5	3.53	ND	864.68	ND	ND	1	324.5	26.3	63.9	0	0
1466	2010-03-30T01:00:00	28	3.47	ND	1070.06	ND	ND	0.7	173.7	25.8	67.5	0	0
1467	2010-03-30T02:00:00	15	4.68	3.13	1091.25	ND	ND	1.5	161.9	24.9	75	0	1.02
1468	2010-03-30T03:00:00	9	10.69	9.45	1202.48	ND	ND	1.4	263.2	23.9	80	0	0.25
1469	2010-03-30T04:00:00	17	7.31	3.38	1187.03	ND	ND	0.8	325.8	24.1	79.2	0	0
1470	2010-03-30T05:00:00	9	4.34	ND	1062.20	ND	ND	0.2	173.5	24	80.6	0	0
1471	2010-03-30T06:00:00	33	4.18	ND	1084.67	ND	ND	0.6	162.4	23.8	82.1	0	0
1472	2010-03-30T07:00:00	41	5.64	4.43	1243.68	ND	ND	0.4	153.1	23.9	82.2	9.3	0
1473	2010-03-30T08:00:00	50	6.00	11.54	1677.83	ND	ND	0.2	91.9	24.3	80.5	103.1	0
1474	2010-03-30T09:00:00	67	8.39	15.58	2468.70	ND	ND	0.7	120.1	25.1	77.4	199.2	0
1475	2010-03-30T10:00:00	57	12.69	30.11	3220.24	ND	ND	1.3	75.7	25.5	66.8	509.8	0
1476	2010-03-30T11:00:00	42	14.83	60.86	3018.00	ND	ND	0.9	119.6	28.1	60.4	558.9	0
1477	2010-03-30T12:00:00	23	ND	ND	ND	ND	ND	1.5	54	30.1	52.5	815.6	0
1478	2010-03-30T13:00:00	36	ND	ND	ND	ND	ND	2.6	83	30	53.5	412	0
1479	2010-03-30T14:00:00	26	31.70	7.70	1863.73	ND	ND	0.3	352.5	28.9	56.2	261.9	0
1480	2010-03-30T15:00:00	27	18.74	10.78	2089.08	ND	ND	2.6	252.2	28.7	53.9	302.3	0
1481	2010-03-30T16:00:00	15	12.52	4.10	1855.73	ND	ND	3.1	256.8	29.3	51.9	234.1	0
1482	2010-03-30T17:00:00	24	10.98	ND	1964.01	ND	ND	2.9	273.7	28.7	54.1	161.9	0
1483	2010-03-30T18:00:00	26	10.16	ND	1925.32	ND	ND	3.9	274.9	27.7	54.9	41.3	0
1484	2010-03-30T19:00:00	26	9.31	ND	1918.94	ND	ND	4.3	264.4	26.7	58	0.7	0
1485	2010-03-30T20:00:00	14	6.80	ND	1774.30	ND	ND	1.6	291.9	26.5	60	0	0
1486	2010-03-30T21:00:00	15	5.37	ND	1646.46	ND	ND	0.5	91	26.1	65.3	0	0
1487	2010-03-30T22:00:00	9	5.44	ND	1736.25	ND	ND	2.9	256.8	24.2	74.7	0	0
1488	2010-03-30T23:00:00	6	6.22	3.21	2067.98	ND	ND	2	281.8	24.7	66.8	0.1	0
1489	2010-03-31T00:00:00	4	4.69	ND	1556.46	ND	ND	1.8	214.8	24.3	72.6	0.2	0
1490	2010-03-31T01:00:00	9	3.11	ND	1280.07	ND	ND	0.7	192.1	23.6	83.6	0.1	0
1491	2010-03-31T02:00:00	6	2.74	ND	1516.50	ND	ND	0.3	210.1	23.8	77.3	0.1	0
1492	2010-03-31T03:00:00	11	2.90	ND	1517.52	ND	ND	0.9	190.3	23.5	81.4	0.2	0
1493	2010-03-31T04:00:00	11	3.26	ND	1333.61	ND	ND	0.6	167.3	22.8	88.9	0.3	0
1494	2010-03-31T05:00:00	22	3.33	ND	1307.72	ND	ND	1	142.9	22.8	87.5	0.3	0
1495	2010-03-31T06:00:00	15	2.76	ND	1296.35	ND	ND	1.1	139.9	21.8	90	0.4	0
1496	2010-03-31T07:00:00	30	2.70	ND	1348.63	ND	ND	1	146.2	21.7	89.6	15.9	0
1497	2010-03-31T08:00:00	26	3.01	ND	1518.11	ND	ND	0.7	119.9	22.2	87	59.6	0
1498	2010-03-31T09:00:00	50	3.95	0.07	1940.58	ND	ND	1	101.1	23.2	82.5	141.6	0
1499	2010-03-31T10:00:00	30	6.72	1.25	2994.75	ND	ND	0.7	123.3	24.5	76.2	288.2	0
1500	2010-03-31T11:00:00	41	11.72	19.46	3419.62	ND	ND	1.1	157.6	25.9	68.5	502	0
1501	2010-03-31T12:00:00	22	28.20	25.24	2700.31	ND	ND	2	149.8	27.3	61.7	551.5	0
1502	2010-03-31T13:00:00	17	29.55	21.92	2355.08	ND	ND	1.8	150.3	27.5	60.9	589.1	0
1503	2010-03-31T14:00:00	9	19.37	8.89	2044.74	ND	ND	1.3	135.4	28.2	58.1	618.9	0
1504	2010-03-31T15:00:00	22	15.52	5.43	1991.60	ND	ND	1.1	137.6	29.3	54.1	541.4	0
1505	2010-03-31T16:00:00	13	11.62	ND	1871.04	ND	ND	0.8	60.7	29.2	53.6	148.7	0
1506	2010-03-31T17:00:00	34	10.73	4.55	1951.75	ND	ND	1.8	294.4	28.6	53.4	74.2	0
1507	2010-03-31T18:00:00	22	10.61	ND	2040.63	ND	ND	2.7	254.5	27.6	58.9	24	0
1508	2010-03-31T19:00:00	24	11.44	7.90	1976.08	ND	ND	3.2	292.9	25.9	64.3	0.8	0
1509	2010-03-31T20:00:00	13	8.23	1.38	2573.91	ND	ND	3.3	270.6	25.8	65.1	0	0
1510	2010-03-31T21:00:00	13	6.33	ND	1814.92	ND	ND	2.9	276.5	25.7	65.2	0	0
1511	2010-03-31T22:00:00	8	5.04	ND	1848.76	ND	ND	1.5	256.5	25.7	65.2	0	0
1512	2010-03-31T23:00:00	12	4.33	ND	1573.17	ND	ND	2.1	165	24.8	73.7	0	0
1513	2010-04-01T00:00:00	7	4.35	ND	1591.33	ND	ND	1.6	193.4	24.7	72.7	0	0
1514	2010-04-01T01:00:00	5	5.13	ND	1922.68	ND	ND	0.9	178.1	24.1	79.2	0	0
1515	2010-04-01T02:00:00	3	4.15	ND	1747.49	ND	ND	0.8	141.6	23.5	81.5	0	0
1516	2010-04-01T03:00:00	4	3.73	ND	1755.35	ND	ND	1	158.8	22.8	84	0	0
1517	2010-04-01T04:00:00	3	3.43	ND	1580.64	ND	ND	0.3	149.7	22.4	86.2	0.2	0
1518	2010-04-01T05:00:00	9	2.99	ND	1408.16	ND	ND	0.5	166.1	22.2	87	0.4	0
1519	2010-04-01T06:00:00	13	2.80	ND	1418.55	ND	ND	0.4	48.7	22	86.6	0.4	0
1520	2010-04-01T07:00:00	38	3.01	ND	1485.64	ND	ND	0.9	33.8	21.9	86.6	28.9	0
1521	2010-04-01T08:00:00	26	3.22	ND	1643.85	ND	ND	0.7	77	22.6	83.5	187.1	0
1522	2010-04-01T09:00:00	39	7.80	ND	2079.58	ND	ND	0.7	80.4	24.8	73.2	464.7	0
1523	2010-04-01T10:00:00	23	26.05	0.36	2106.50	ND	ND	0.8	149	26.9	61.9	668	0
1524	2010-04-01T11:00:00	39	59.89	1.38	1798.54	ND	ND	1.2	125.5	28.3	56.7	843.3	0
1525	2010-04-01T12:00:00	38	35.66	ND	1575.28	ND	ND	1.5	130.2	30.3	49.6	909.3	0
1526	2010-04-01T13:00:00	21	20.51	ND	1760.63	ND	ND	1.1	106.3	31.1	46.7	549.1	0
1527	2010-04-01T14:00:00	12	13.53	34.65	1800.35	ND	ND	4.3	281	31.3	46.6	828.2	0
1528	2010-04-01T15:00:00	6	9.23	29.14	1602.66	ND	ND	4.9	281.9	31.4	44.7	825.4	0
1529	2010-04-01T16:00:00	4	5.27	8.06	1310.64	ND	ND	5.8	282.5	30.1	48	521.7	0
1530	2010-04-01T17:00:00	3	4.21	4.44	1258.43	ND	ND	5.1	280.9	29.2	50.7	198.7	0
1531	2010-04-01T18:00:00	15	3.96	2.54	1243.08	ND	ND	1.1	153.3	27.3	60.3	14.6	0
1532	2010-04-01T19:00:00	14	4.04	3.99	1235.26	ND	ND	1	181	25.9	71	0.9	0
1533	2010-04-01T20:00:00	9	6.83	28.79	1562.73	ND	ND	1.4	227.1	25.2	75.9	0	0
1534	2010-04-01T21:00:00	14	8.02	40.18	1845.67	ND	ND	0.9	161.3	24.9	77.2	0	0
1535	2010-04-01T22:00:00	13	6.23	41.20	1809.45	ND	ND	0.9	237.5	25.4	69.2	0	0
1536	2010-04-01T23:00:00	8	6.56	60.18	2213.99	ND	ND	1.1	10.5	24.8	75.8	0	0
1537	2010-04-02T00:00:00	10	5.47	35.23	1728.71	ND	ND	0.5	65.4	24.1	79.8	0	0
1538	2010-04-02T01:00:00	9	4.60	42.87	1918.81	ND	ND	1.2	150.4	23.4	84.3	0	0
1539	2010-04-02T02:00:00	6	5.89	41.33	1766.16	ND	ND	0.4	142.7	22.9	86.4	0	0
1540	2010-04-02T03:00:00	5	4.68	30.33	1490.17	ND	ND	0.4	237.7	23.2	81.3	0.1	0
1541	2010-04-02T04:00:00	17	3.67	21.15	1343.65	ND	ND	0.8	205.1	23.3	79.2	0.3	0
1542	2010-04-02T05:00:00	12	4.46	19.53	1355.50	ND	ND	1	173.3	22.8	85.9	0.1	0
1543	2010-04-02T06:00:00	14	4.34	11.12	1307.72	ND	ND	0.8	229.5	23.1	81	0.1	0
1544	2010-04-02T07:00:00	15	3.88	17.18	1320.43	ND	ND	0.4	46	23.5	77.7	40.7	0
1545	2010-04-02T08:00:00	15	3.55	10.31	1242.43	ND	ND	0.8	46.2	24	80.4	186.3	0
1546	2010-04-02T09:00:00	16	3.89	19.95	1495.71	ND	ND	0.8	157.3	25.4	72.6	420.9	0
1547	2010-04-02T10:00:00	10	7.37	33.57	1823.96	ND	ND	0.9	142.9	27.2	62.6	644.8	0
1548	2010-04-02T11:00:00	9	7.18	24.80	1581.07	ND	ND	1.3	160.3	29	54.5	821.8	0
1549	2010-04-02T12:00:00	6	8.34	13.59	1439.62	ND	ND	1.1	98.3	30.8	48.7	867	0
1550	2010-04-02T13:00:00	4	8.41	11.89	1471.56	ND	ND	1.1	320	31.4	46.1	433.9	0
1551	2010-04-02T14:00:00	3	8.51	14.53	1497.87	ND	ND	4	290.1	31.6	44.5	652.9	0
1552	2010-04-02T15:00:00	8	6.64	9.63	1381.76	ND	ND	4.6	287.9	30	50	494.1	0
1553	2010-04-02T16:00:00	6	3.62	1.93	1258.02	ND	ND	3.9	289.8	30.3	48.4	316.1	0
1554	2010-04-02T17:00:00	4	2.93	1.84	1270.92	ND	ND	2.5	236.8	29.3	53.2	127.9	0
1555	2010-04-02T18:00:00	11	3.54	3.80	1289.97	ND	ND	3.1	217.2	27.1	62.6	17.9	0
1556	2010-04-02T19:00:00	19	3.96	6.79	1326.73	ND	ND	3.8	258.1	26.2	61.9	2	0
1557	2010-04-02T20:00:00	11	4.10	13.22	1449.28	ND	ND	1.8	273.7	26.5	62.9	0	0
1558	2010-04-02T21:00:00	8	3.56	11.70	1358.62	ND	ND	0.7	67.2	26.2	65.6	0	0
1559	2010-04-02T22:00:00	27	3.45	18.31	1518.29	ND	ND	1.3	121.5	25.9	69.9	0	0
1560	2010-04-02T23:00:00	15	5.65	29.24	1666.15	ND	ND	0.7	172.9	25.7	69.2	0	0
1561	2010-04-03T00:00:00	8	5.65	38.85	1952.11	ND	ND	2	223	24.3	75	0	0
1562	2010-04-03T01:00:00	6	5.39	30.59	1782.95	ND	ND	1.2	258.6	23.6	78.2	0	0
1563	2010-04-03T02:00:00	4	3.29	8.29	1299.86	ND	ND	0.7	343.6	23.4	82.8	0	0
1564	2010-04-03T03:00:00	3	2.40	1.99	1207.82	ND	ND	1	359.3	23	86.6	0	0
1565	2010-04-03T04:00:00	3	2.63	7.99	1285.85	ND	ND	1.3	348.7	22.4	89.9	0	1.02
1566	2010-04-03T05:00:00	3	3.09	10.49	1317.31	ND	ND	0.2	78.7	22.5	88.3	0	0
1567	2010-04-03T06:00:00	9	3.66	10.48	1363.20	ND	ND	1	139.4	22.4	90.2	0.1	0
1568	2010-04-03T07:00:00	14	11.30	21.51	1430.87	ND	ND	0.3	137	22.3	88.6	8	0
1569	2010-04-03T08:00:00	8	73.69	37.25	1702.84	ND	ND	1.1	249.9	23.1	84.7	91.5	0
1570	2010-04-03T09:00:00	15	35.95	30.24	1582.24	ND	ND	1.5	144.1	24.4	79.5	297.5	0
1571	2010-04-03T10:00:00	8	23.61	30.15	1920.75	ND	ND	1.1	139.6	25.2	75.9	308.9	0
1572	2010-04-03T11:00:00	7	13.16	41.46	2212.51	ND	ND	0.6	300.7	25.9	71	438.1	0
1573	2010-04-03T12:00:00	5	10.67	36.20	1964.90	ND	ND	1.1	54.8	28.7	58.1	943.3	0
1574	2010-04-03T13:00:00	4	11.88	30.76	1809.34	ND	ND	1.5	67.6	30.1	52	689.8	0
1575	2010-04-03T14:00:00	11	11.43	33.75	1782.78	ND	ND	2.6	292.1	29.1	53.2	222.6	0
1576	2010-04-03T15:00:00	7	20.43	42.14	1858.19	ND	ND	2.2	297.2	29.3	51.4	342.7	0
1577	2010-04-03T16:00:00	4	12.92	17.50	1534.02	ND	ND	2.8	288.3	29.9	48.2	389.9	0
1578	2010-04-03T17:00:00	3	6.07	15.01	1525.42	ND	ND	3.2	270.9	28.6	50.1	160.2	0
1579	2010-04-03T18:00:00	3	5.73	14.83	1518.88	ND	ND	2.2	266.7	28.2	51.4	50.4	0
1580	2010-04-03T19:00:00	6	4.74	18.12	1621.07	ND	ND	2.2	267.3	27.4	55.9	2.3	0
1581	2010-04-03T20:00:00	4	5.28	34.59	1836.19	ND	ND	2.1	275.2	26.9	57.5	0	0
1582	2010-04-03T21:00:00	9	6.04	45.64	2144.42	ND	ND	1.9	289.9	26.8	57.6	0	0
1583	2010-04-03T22:00:00	6	6.01	40.30	1913.20	ND	ND	1.7	281.2	26.6	58.7	0	0
1584	2010-04-03T23:00:00	4	5.03	22.70	1543.36	ND	ND	2	198.1	26	67.5	0	0
1585	2010-04-04T00:00:00	3	4.47	22.15	1574.75	ND	ND	2.2	189.3	25.1	73.5	0	0
1586	2010-04-04T01:00:00	21	4.43	29.20	1833.59	ND	ND	1	171.2	24.8	74.8	0	0
1587	2010-04-04T02:00:00	12	6.02	26.16	1602.77	ND	ND	0.4	199.8	24.7	72.1	0	0
1588	2010-04-04T03:00:00	22	6.39	26.81	1625.12	ND	ND	0.6	211.2	24.4	72.4	0	0
1589	2010-04-04T04:00:00	12	5.60	22.72	1577.76	ND	ND	0.8	180.4	24.2	76.9	0	0
1590	2010-04-04T05:00:00	8	4.65	21.06	1519.57	ND	ND	0.9	168.3	24.1	77.5	0	0
1591	2010-04-04T06:00:00	6	4.68	21.74	1496.21	ND	ND	0.3	10.9	23.3	83.3	0	0
1592	2010-04-04T07:00:00	21	4.74	29.03	1674.44	ND	ND	0.6	10.5	23.4	81.2	25.6	0
1593	2010-04-04T08:00:00	15	4.59	23.66	1663.61	ND	ND	0.7	125.5	24.1	80.1	89.7	0
1594	2010-04-04T09:00:00	31	12.33	28.05	1781.75	ND	ND	0.5	10.9	25.1	74.6	187	0
1595	2010-04-04T10:00:00	16	13.73	36.14	2097.16	ND	ND	1	153.4	26.5	66.8	454.4	0
1596	2010-04-04T11:00:00	10	11.19	38.69	1807.66	ND	ND	1.1	102.8	28	61.4	612.5	0
1597	2010-04-04T12:00:00	7	12.47	32.68	1805.14	ND	ND	1.5	119.7	28.7	59.4	509.1	0
1598	2010-04-04T13:00:00	10	11.73	27.11	1762.94	ND	ND	1.4	309.4	28.6	56.7	390.2	0
1599	2010-04-04T14:00:00	19	16.04	29.45	1797.14	ND	ND	1.5	354.7	29.2	56.9	522	0
1600	2010-04-04T15:00:00	11	9.25	11.88	1452.19	ND	ND	2.4	314.8	30	50.1	617.6	0
1601	2010-04-04T16:00:00	6	7.35	17.45	1502.63	ND	ND	3.7	282.4	28.9	53.6	203.5	0
1602	2010-04-04T17:00:00	16	4.54	3.55	1299.87	ND	ND	2.8	199.7	25.5	67.1	18.2	0
1603	2010-04-04T18:00:00	10	3.83	3.34	1204.91	ND	ND	1.8	203.4	24.7	74.3	13.7	0
1604	2010-04-04T19:00:00	5	5.31	23.29	1590.79	ND	ND	0.7	189.6	22.7	85	0.7	0.76
1605	2010-04-04T20:00:00	5	5.51	30.28	1796.09	ND	ND	0.9	357.7	22.4	89.6	0	8.64
1606	2010-04-04T21:00:00	16	5.04	32.17	1703.42	ND	ND	0.7	259.6	22.2	89.6	0	4.32
1607	2010-04-04T22:00:00	9	4.72	53.06	2088.11	ND	ND	0.8	236.6	22.6	88.2	0.1	0.25
1608	2010-04-04T23:00:00	9	5.28	48.43	1977.30	ND	ND	0.3	187.1	22.5	88.5	0.3	0
1609	2010-04-05T00:00:00	6	6.11	44.82	2237.91	ND	ND	0.5	176.3	22.3	87.3	0.3	0
1610	2010-04-05T01:00:00	5	6.78	52.20	2520.21	ND	ND	0.9	182	21.8	92.9	0.3	0.25
1611	2010-04-05T02:00:00	4	5.24	25.53	1643.29	ND	ND	0.2	184.2	22.1	89.8	0.3	0
1612	2010-04-05T03:00:00	3	3.24	17.64	1474.80	ND	ND	0.1	45.8	22.4	86.8	0.2	0
1613	2010-04-05T04:00:00	3	2.81	18.15	1476.30	ND	ND	0.5	72	22	92.4	0.1	0
1614	2010-04-05T05:00:00	3	3.16	16.35	1406.25	ND	ND	0.4	160.9	22	91.8	0.1	0
1615	2010-04-05T06:00:00	11	2.72	20.06	1474.30	ND	ND	0.2	103.1	22	90.4	0	0
1616	2010-04-05T07:00:00	29	2.80	24.61	1496.98	ND	ND	0.3	143.7	21.9	92.5	23.7	0
1617	2010-04-05T08:00:00	18	3.47	24.38	1677.86	ND	ND	0.7	165.1	22.5	88.4	90.3	0
1618	2010-04-05T09:00:00	27	5.12	38.45	2419.67	ND	ND	0.8	152	24.1	80.1	428.7	0
1619	2010-04-05T10:00:00	22	7.31	57.67	3483.55	ND	ND	1.4	127.3	25.9	70.1	725.5	0
1620	2010-04-05T11:00:00	18	8.17	55.14	2516.46	ND	ND	1.2	148.8	27.7	62.1	841.4	0
1621	2010-04-05T12:00:00	9	8.70	46.33	2046.10	ND	ND	0.7	133.8	28.9	56.9	869	0
1622	2010-04-05T13:00:00	5	8.12	35.68	1880.17	ND	ND	0.9	49.5	30.8	50.3	989.4	0
1623	2010-04-05T14:00:00	3	8.36	38.19	1880.33	ND	ND	1.1	95.6	31.4	48.1	727.8	0
1624	2010-04-05T15:00:00	23	8.89	39.44	1965.95	ND	ND	1.4	299.5	30.7	50.2	219.9	0
1625	2010-04-05T16:00:00	12	9.24	46.20	1973.11	ND	ND	4.4	275.8	30.7	48.5	663.4	0
1626	2010-04-05T17:00:00	9	12.82	46.41	2043.16	ND	ND	4.4	277.6	30.2	48.5	343.7	0.76
1627	2010-04-05T18:00:00	6	ND	ND	ND	ND	ND	4.4	272.6	28.5	53.6	60.1	0
1628	2010-04-05T19:00:00	9	ND	ND	ND	ND	ND	4.3	269.8	27.5	57.8	1.8	0
1629	2010-04-05T20:00:00	5	6.31	ND	1836.80	ND	ND	3.4	253.8	25.9	68.7	0	0.51
1630	2010-04-05T21:00:00	15	6.57	31.93	2010.87	ND	ND	2.1	263.9	24.5	78.3	0	2.03
1631	2010-04-05T22:00:00	9	4.55	26.70	1909.95	ND	ND	1.9	271.8	24.2	76.9	0	0
1632	2010-04-05T23:00:00	6	4.44	35.60	1999.43	ND	ND	0.8	237.6	24.7	72.7	0	0
1633	2010-04-06T00:00:00	5	3.40	17.52	1648.01	ND	ND	1.3	248.1	24	76.9	0	0
1634	2010-04-06T01:00:00	4	2.85	17.29	1529.96	ND	ND	0.5	219.9	23.7	77.8	0	0
1635	2010-04-06T02:00:00	3	2.40	14.57	1562.64	ND	ND	0.5	22.4	23	83.2	0	0
1636	2010-04-06T03:00:00	24	2.63	13.79	1411.02	ND	ND	0.4	153.2	22.8	86.3	0	0
1637	2010-04-06T04:00:00	13	27.41	22.10	1478.29	ND	ND	0.9	132.8	21.5	95.3	0	15.24
1638	2010-04-06T05:00:00	12	114.25	33.58	1494.44	ND	ND	1.1	183.7	21.3	96.8	0	12.95
1639	2010-04-06T06:00:00	6	43.19	29.41	1493.43	ND	ND	1.7	182.1	21.1	95.9	0.2	6.35
1640	2010-04-06T07:00:00	3	11.27	15.58	1379.35	ND	ND	1.3	192.7	20.8	96.4	7.5	11.68
1641	2010-04-06T08:00:00	2	6.79	25.63	1513.48	ND	ND	1.1	164.5	21.2	93.6	53.9	0.51
1642	2010-04-06T09:00:00	1	5.54	34.29	2137.59	ND	ND	0.6	133.4	22	90	137.9	0
1643	2010-04-06T10:00:00	8	7.52	48.87	3039.32	ND	ND	0.5	194.4	22.7	86.1	159.5	0
1644	2010-04-06T11:00:00	9	9.13	50.85	2705.50	ND	ND	0.8	211.8	23.9	81.8	584.2	0
1645	2010-04-06T12:00:00	6	8.46	ND	2431.14	ND	ND	1.2	155.6	26	70.4	690.1	0
1646	2010-04-06T13:00:00	4	8.41	ND	2632.24	ND	ND	1.5	168	26.9	64.3	568.2	0
1647	2010-04-06T14:00:00	4	7.75	64.16	2305.82	ND	ND	1.5	148.2	26.7	66.8	381.9	0
1648	2010-04-06T15:00:00	5	7.19	43.19	2223.64	ND	ND	1.4	99.5	27.9	60.6	614.2	0
1649	2010-04-06T16:00:00	13	7.28	56.31	2533.30	ND	ND	1.6	5.7	27.2	66.4	114.6	0.76
1650	2010-04-06T17:00:00	21	7.29	49.73	2158.10	ND	ND	2.8	254.4	23	80.8	14.4	14.99
1651	2010-04-06T18:00:00	12	12.47	77.15	2412.39	ND	ND	1.1	72.6	22.4	87.2	5.8	5.84
1652	2010-04-06T19:00:00	38	11.22	40.29	2384.79	ND	ND	1.2	6.8	22.1	90.7	0.4	1.27
1653	2010-04-06T20:00:00	30	9.29	63.64	3539.51	ND	ND	0.7	70.1	22.1	89.6	0.2	4.83
1654	2010-04-06T21:00:00	23	8.61	66.47	3210.52	ND	ND	0.8	129.4	21.4	95.6	0.4	5.84
1655	2010-04-06T22:00:00	14	38.78	56.42	2535.16	ND	ND	1	152	21.4	94.8	0.3	0.51
1656	2010-04-06T23:00:00	8	12.74	53.18	2727.56	ND	ND	0.6	149.4	21.6	93.6	0.2	0
1657	2010-04-07T00:00:00	6	7.87	51.61	2899.29	ND	ND	0.6	175.1	21.6	92.9	0.1	0
1658	2010-04-07T01:00:00	4	6.61	52.02	2355.68	ND	ND	0.5	214	21.5	92.3	0	0
1659	2010-04-07T02:00:00	4	5.85	42.34	2151.09	ND	ND	0.3	98.7	21.3	91.9	0.2	0
1660	2010-04-07T03:00:00	3	4.89	32.48	1878.10	ND	ND	0.3	69.9	21.1	95.2	0.3	0
1661	2010-04-07T04:00:00	3	4.50	25.60	1741.15	ND	ND	0.1	97.9	21	95.8	0.3	0
1662	2010-04-07T05:00:00	13	3.88	25.53	1638.83	ND	ND	0.1	63.8	21.1	92.4	0.3	0
1663	2010-04-07T06:00:00	7	3.05	25.80	1594.17	ND	ND	0.3	64.8	21.3	91.6	0.3	0
1664	2010-04-07T07:00:00	49	3.65	26.38	1572.62	ND	ND	0.7	81.4	21.2	93.3	23.9	0
1665	2010-04-07T08:00:00	47	5.85	32.86	1820.91	ND	ND	0.7	15.6	21.8	89.7	60.3	0.25
1666	2010-04-07T09:00:00	48	13.30	47.08	2991.93	ND	ND	0.8	66.6	22.9	83.6	334.7	0
1667	2010-04-07T10:00:00	31	24.53	57.79	3276.10	ND	ND	1.1	114.4	24.7	74	356.2	0
1668	2010-04-07T11:00:00	32	33.64	66.12	2597.91	ND	ND	1.2	226.2	24.7	72.7	240.5	0
1669	2010-04-07T12:00:00	20	46.57	62.28	2266.02	ND	ND	0.2	117.2	26.9	64	760.7	0
1670	2010-04-07T13:00:00	29	39.08	67.08	2305.82	ND	ND	1.2	134	28.4	59.1	774.4	0
1671	2010-04-07T14:00:00	24	33.47	66.67	2328.94	ND	ND	1.4	160.5	29.2	56.9	860.4	0
1672	2010-04-07T15:00:00	34	24.82	67.00	2462.92	ND	ND	1.7	171.7	29.9	54.8	728.3	0
1673	2010-04-07T16:00:00	23	17.23	43.73	2002.84	ND	ND	1.1	142.8	29.9	54.7	444.1	0
1674	2010-04-07T17:00:00	49	14.97	47.92	2165.87	ND	ND	1.3	240.2	29.3	57	185	0
1675	2010-04-07T18:00:00	44	13.00	56.94	2161.58	ND	ND	1.5	279.3	28.3	60.1	34.3	0
1676	2010-04-07T19:00:00	58	12.64	51.64	2374.50	ND	ND	1.7	301.3	26.4	69.4	2.3	0
1677	2010-04-07T20:00:00	30	10.58	54.23	2520.67	ND	ND	1.5	275.8	27	64	0	0
1678	2010-04-07T21:00:00	26	11.82	92.60	3240.76	ND	ND	1	273.4	26.9	62.8	0	0
1679	2010-04-07T22:00:00	14	9.97	50.42	2570.99	ND	ND	1.5	273.2	26.6	65.7	0	0
1680	2010-04-07T23:00:00	20	7.74	40.20	2004.06	ND	ND	3.3	190.9	24.9	71.7	0	0
1681	2010-04-08T00:00:00	11	6.92	38.37	2198.83	ND	ND	3	177	22.8	73.8	0	5.59
1682	2010-04-08T01:00:00	13	4.58	19.44	1614.75	ND	ND	0.9	55.7	19.8	98.9	0	55.88
1683	2010-04-08T02:00:00	8	3.45	10.81	1373.25	ND	ND	0.9	285.7	19.5	100	0.4	15.24
1684	2010-04-08T03:00:00	5	2.62	12.94	1428.07	ND	ND	1.2	26.1	20	97.1	0.3	7.37
1685	2010-04-08T04:00:00	4	2.34	9.13	1430.51	ND	ND	1.3	1.4	20	94.4	0.1	5.08
1686	2010-04-08T05:00:00	4	2.14	13.15	1464.30	ND	ND	1.3	230.3	20.1	92.9	0.3	2.29
1687	2010-04-08T06:00:00	3	4.10	19.19	1498.60	ND	ND	1.7	213.4	20.1	92.7	0.4	0.25
1688	2010-04-08T07:00:00	3	12.45	15.19	1509.87	ND	ND	0.7	38.9	20.3	91.5	21.9	0
1689	2010-04-08T08:00:00	9	6.34	14.90	1510.90	ND	ND	2.2	27.1	20.7	91.1	95.5	0.25
1690	2010-04-08T09:00:00	39	7.31	29.66	2461.39	ND	ND	1.6	39.2	21.2	88.6	127.1	0
1691	2010-04-08T10:00:00	27	21.11	53.05	3302.52	ND	ND	1.4	13.3	22.1	83.5	319	0
1692	2010-04-08T11:00:00	16	31.66	51.68	2779.42	ND	ND	0.5	354.9	24.6	68.4	778.9	0
1693	2010-04-08T12:00:00	30	31.48	40.33	2105.09	ND	ND	1.1	60.2	27	59.9	935.1	0
1694	2010-04-08T13:00:00	17	66.74	44.12	1845.27	ND	ND	0.5	54.7	28.6	54.5	960.1	0
1695	2010-04-08T14:00:00	10	49.09	63.30	2075.41	ND	ND	1.4	136.9	29.1	52.8	944.7	0
1696	2010-04-08T15:00:00	22	36.26	59.27	2113.69	ND	ND	1.3	152.6	30.2	51.7	793.5	0
1697	2010-04-08T16:00:00	25	18.34	42.64	1981.52	ND	ND	1.3	155.2	30.5	50.8	555.1	0
1698	2010-04-08T17:00:00	54	11.77	47.21	2135.15	ND	ND	1.1	160.3	29.7	53.7	122.1	0
1699	2010-04-08T18:00:00	51	12.24	56.86	2257.53	ND	ND	1	47.5	29.3	55.9	92.6	0
1700	2010-04-08T19:00:00	47	16.24	77.63	2556.70	ND	ND	1.8	273.9	28.1	59.1	2.8	0
1701	2010-04-08T20:00:00	26	19.11	91.06	2673.88	ND	ND	2.7	271.2	26.8	63	0	0
1702	2010-04-08T21:00:00	28	12.65	56.56	2339.63	ND	ND	2.9	266.6	26.3	65	0	0
1703	2010-04-08T22:00:00	16	7.84	44.36	2163.14	ND	ND	2.4	272.9	25.9	66.3	0	0
1704	2010-04-08T23:00:00	9	5.62	33.87	1827.02	ND	ND	0.6	182.3	25	74.7	0	0
1705	2010-04-09T00:00:00	6	4.48	50.40	1706.95	ND	ND	1.5	210.1	24.3	76.5	0	0
1706	2010-04-09T01:00:00	14	7.53	50.56	2674.42	ND	ND	1.1	240.2	24.4	69.5	0	0
1707	2010-04-09T02:00:00	14	6.46	49.19	2240.87	ND	ND	0.6	258.8	24.3	72.3	0	0
1708	2010-04-09T03:00:00	36	4.91	23.96	1840.10	ND	ND	0.4	248.5	23.9	77.2	0	0
1709	2010-04-09T04:00:00	20	4.80	25.41	1700.65	ND	ND	0.3	194.5	23.9	75.1	0	0
1710	2010-04-09T05:00:00	33	13.13	44.51	2020.24	ND	ND	1	140.9	23.3	81.1	0	0
1711	2010-04-09T06:00:00	21	9.46	31.65	1754.17	ND	ND	1.2	195.4	22.8	85.4	0	0.25
1712	2010-04-09T07:00:00	48	6.74	27.24	1660.24	ND	ND	1.5	173	22.1	91.6	14.2	0.76
1713	2010-04-09T08:00:00	54	6.85	26.52	1917.24	ND	ND	1.3	174.2	22.3	91.1	41.8	0
1714	2010-04-09T09:00:00	47	6.67	31.90	2758.60	ND	ND	0.4	196.8	22.7	87.5	79.6	1.02
1715	2010-04-09T10:00:00	37	8.29	51.60	3580.81	ND	ND	0.6	150.8	23.5	85.7	326.6	1.27
1716	2010-04-09T11:00:00	23	9.59	64.46	2906.59	ND	ND	0.8	210.8	25.6	73.5	569.6	0
1717	2010-04-09T12:00:00	13	10.29	71.09	3007.53	ND	ND	0.9	140.8	27.7	63.3	831.6	0
1718	2010-04-09T13:00:00	28	9.23	53.44	2231.05	ND	ND	1.5	129.5	29	58.9	564	0
1719	2010-04-09T14:00:00	16	9.85	71.63	2670.26	ND	ND	1.1	81.5	29.2	59	459.4	0
1720	2010-04-09T15:00:00	30	10.36	58.41	2335.12	ND	ND	2.8	283.7	22.6	88.1	11.5	82.04
1721	2010-04-09T16:00:00	24	9.38	54.93	2159.12	ND	ND	1.7	210	19.6	100	8.2	56.9
1722	2010-04-09T17:00:00	41	6.66	43.51	2159.71	ND	ND	0.6	210.1	21.2	100	23.7	2.54
1723	2010-04-09T18:00:00	31	5.54	55.43	2714.40	ND	ND	0.7	42.6	21.6	100	12.9	0.25
1724	2010-04-09T19:00:00	67	10.00	87.33	4892.56	ND	ND	0.4	207.4	21.6	97.2	0.2	1.78
1725	2010-04-09T20:00:00	39	14.04	103.06	4813.28	ND	ND	1.6	193.9	21.6	93.3	0	0.25
1726	2010-04-09T21:00:00	27	22.02	96.39	4813.28	ND	ND	0.6	191.3	21.8	88.1	0	0
1727	2010-04-09T22:00:00	31	14.31	60.26	3547.25	ND	ND	1	53	21.7	90.6	0.3	0
1728	2010-04-09T23:00:00	39	11.06	48.46	3206.17	ND	ND	0.2	102	21.4	94.2	0.3	0
1729	2010-04-10T00:00:00	28	12.27	52.49	3915.92	ND	ND	0.2	36	21.5	94.3	0.3	0
1730	2010-04-10T01:00:00	42	7.79	44.69	2717.17	ND	ND	0.5	347.6	21.5	93.3	0.2	0
1731	2010-04-10T02:00:00	37	7.28	46.16	2637.91	ND	ND	0.4	42.2	21.3	93.9	0.2	0
1732	2010-04-10T03:00:00	30	7.35	45.59	2602.18	ND	ND	0.8	240.9	21.1	89.7	0.2	0
1733	2010-04-10T04:00:00	16	10.52	44.95	2679.56	ND	ND	0.6	222.8	21	87.8	0.3	0
1734	2010-04-10T05:00:00	23	14.01	22.78	2215.25	ND	ND	0.3	188	20.9	89.9	0.4	0
1735	2010-04-10T06:00:00	27	11.45	14.86	1728.66	ND	ND	0.3	215.9	20.8	91.3	0.6	0
1736	2010-04-10T07:00:00	43	9.56	19.96	2021.74	ND	ND	0.7	205	20.8	92.5	37.8	0
1737	2010-04-10T08:00:00	58	7.93	20.02	2157.27	ND	ND	0.9	170.2	21.9	87.3	228.2	0
1738	2010-04-10T09:00:00	72	8.45	29.15	2788.88	ND	ND	0.5	172.8	23.1	81.9	254.3	0
1739	2010-04-10T10:00:00	66	11.30	55.04	3153.10	ND	ND	0.8	115.9	24.3	77.5	416.1	0
1740	2010-04-10T11:00:00	77	31.21	95.68	3051.59	ND	ND	1	85.6	25.4	72.5	453	0
1741	2010-04-10T12:00:00	40	51.58	95.51	2833.45	ND	ND	0.7	108.8	26.3	68.8	390.4	0
1742	2010-04-10T13:00:00	54	34.32	81.70	2634.89	ND	ND	0.8	127.8	27.5	64.7	686.8	0
1743	2010-04-10T14:00:00	52	16.51	60.09	2437.51	ND	ND	0.4	82.9	28.5	60.5	667.9	0
1744	2010-04-10T15:00:00	80	16.12	63.30	2422.44	ND	ND	0.9	127.8	29.4	57.5	491.5	0
1745	2010-04-10T16:00:00	80	18.67	56.04	2359.92	ND	ND	0.8	97.4	29.6	57.4	228.2	0
1746	2010-04-10T17:00:00	93	17.80	82.18	2791.90	ND	ND	2.5	267	26	72.7	40.1	31.24
1747	2010-04-10T18:00:00	66	16.09	105.15	3126.51	ND	ND	1	177.7	21.2	100	8.7	14.48
1748	2010-04-10T19:00:00	42	14.07	96.13	2850.12	ND	ND	2.1	248.1	22.5	93.6	0.2	1.27
1749	2010-04-10T20:00:00	44	6.89	77.02	2885.43	ND	ND	0.9	293.7	23.8	84.7	0	0.76
1750	2010-04-10T21:00:00	32	7.20	93.79	3605.54	ND	ND	0.2	285.1	23.7	86.3	0	1.02
1751	2010-04-10T22:00:00	53	8.09	61.56	3558.70	ND	ND	0	18.4	23.5	91.2	0	0.25
1752	2010-04-10T23:00:00	40	12.07	64.26	4661.95	ND	ND	0.7	206.6	23.2	89.9	0	0.25
1753	2010-04-11T00:00:00	26	13.15	81.02	5351.83	ND	ND	0.5	202.5	23	88.3	0	0
1754	2010-04-11T01:00:00	30	13.33	43.29	4050.99	ND	ND	0.1	87.2	22.9	89.1	0	0
1755	2010-04-11T02:00:00	21	10.20	46.92	3355.73	ND	ND	0.3	145.5	22.2	94.3	0	26.67
1756	2010-04-11T03:00:00	13	7.42	46.05	2666.88	ND	ND	0.2	71	21.3	100	0	2.79
1757	2010-04-11T04:00:00	9	6.83	42.48	2590.87	ND	ND	1.4	43	21.5	98.6	0	2.54
1758	2010-04-11T05:00:00	18	5.85	44.62	2298.27	ND	ND	0.8	23.7	21.3	98.5	0	12.19
1759	2010-04-11T06:00:00	11	4.22	33.74	1810.21	ND	ND	0.8	20.5	21.3	98.2	0	4.06
1760	2010-04-11T07:00:00	25	3.62	24.52	1674.45	ND	ND	1.2	8.6	21.4	97.7	14.7	3.56
1761	2010-04-11T08:00:00	17	3.52	37.29	1810.83	ND	ND	2.1	21.8	21.7	94.6	82.4	0.51
1762	2010-04-11T09:00:00	10	5.34	44.27	2050.59	ND	ND	1.5	38.8	21.7	85.4	94.8	0.25
1763	2010-04-11T10:00:00	5	45.24	38.11	1925.97	ND	ND	0.6	169.4	21.3	89.2	107.3	5.59
1764	2010-04-11T11:00:00	4	40.42	49.92	1945.98	ND	ND	1.8	193.2	20.7	94.5	197.6	6.6
1765	2010-04-11T12:00:00	4	16.42	49.04	2303.32	ND	ND	1.8	188.9	21.1	92.9	295.2	3.05
1766	2010-04-11T13:00:00	3	9.44	41.08	2102.94	ND	ND	1.3	158.3	21.8	91.2	264.9	0.25
1767	2010-04-11T14:00:00	2	7.36	39.30	2107.95	ND	ND	0.4	182.4	22.6	86.2	363.6	0
1768	2010-04-11T15:00:00	2	6.89	38.73	2113.67	ND	ND	0.4	306.8	23.5	80.2	303.6	0
1769	2010-04-11T16:00:00	2	6.10	27.88	1983.32	ND	ND	0.6	6.9	24.4	74.9	267.5	0
1770	2010-04-11T17:00:00	8	6.22	30.84	1955.04	ND	ND	1.5	275.2	24	75.7	103.5	0
1771	2010-04-11T18:00:00	5	6.48	37.13	1998.09	ND	ND	2.5	259.8	22.6	78.1	23.7	0
1772	2010-04-11T19:00:00	4	8.34	25.74	1738.66	ND	ND	1.6	245.6	22.2	81.7	0.9	0
1773	2010-04-11T20:00:00	10	5.30	26.03	1781.70	ND	ND	1	238.2	22.1	83.6	0	0
1774	2010-04-11T21:00:00	16	4.36	40.86	2019.34	ND	ND	0.7	290.1	22.3	82.2	0	0
1775	2010-04-11T22:00:00	10	5.30	49.78	2361.27	ND	ND	1.5	12.2	22.3	85	0	0
1776	2010-04-11T23:00:00	48	4.96	43.30	2179.64	ND	ND	1.2	2.3	21.6	89.9	0	0
1777	2010-04-12T00:00:00	34	8.63	59.23	2989.90	ND	ND	0.5	314.3	21.6	89	0	0
1778	2010-04-12T01:00:00	28	10.36	50.63	2468.93	ND	ND	1.1	244.6	21.4	86.2	0	0
1779	2010-04-12T02:00:00	15	10.82	44.82	2082.45	ND	ND	1.4	274.4	21.8	81.5	0	0
1780	2010-04-12T03:00:00	16	21.54	27.87	1688.63	ND	ND	0.7	84.9	21.5	87.7	0	0
1781	2010-04-12T04:00:00	14	26.75	20.36	1517.08	ND	ND	0.7	161.3	20.9	93.5	0	0
1782	2010-04-12T05:00:00	24	24.76	32.80	1830.35	ND	ND	0.2	345.9	21	92.7	0	0
1783	2010-04-12T06:00:00	13	14.45	27.84	1989.20	ND	ND	0.3	320.9	21.1	91.7	0.2	0
1784	2010-04-12T07:00:00	53	11.48	25.58	1797.68	ND	ND	0.3	229	21.1	91.1	19.3	0
1785	2010-04-12T08:00:00	49	12.72	29.41	1842.90	ND	ND	0.4	239.6	21.8	85.9	94.9	0
1786	2010-04-12T09:00:00	83	14.62	34.84	2946.59	ND	ND	1.2	53.3	23.6	81.2	443	0
1787	2010-04-12T10:00:00	47	20.29	46.64	3705.73	ND	ND	1.2	61.8	25.3	71.8	537.4	0
1788	2010-04-12T11:00:00	54	42.39	103.32	3635.23	ND	ND	0.5	119.5	25.9	67.2	367.8	0
1789	2010-04-12T12:00:00	35	83.86	66.38	2344.10	ND	ND	0.6	203.9	27	63.4	525.3	0
1790	2010-04-12T13:00:00	50	23.05	54.76	2364.26	ND	ND	0.4	105	28	59.7	543.7	0
1791	2010-04-12T14:00:00	29	19.93	48.02	2187.00	ND	ND	1.1	157.1	28.2	59.2	330.5	0
1792	2010-04-12T15:00:00	45	20.02	65.35	2489.50	ND	ND	1	173.9	28.2	60.4	270.7	0
1793	2010-04-12T16:00:00	51	18.11	52.16	2396.87	ND	ND	1.1	218.4	28.2	61.4	241.5	0
1794	2010-04-12T17:00:00	54	17.43	66.91	2987.41	ND	ND	1.8	276.9	27.8	60.9	126.7	0
1795	2010-04-12T18:00:00	28	16.82	57.81	2439.94	ND	ND	3.3	269.8	26.6	62	18.3	0
1796	2010-04-12T19:00:00	52	11.75	44.01	2407.17	ND	ND	4.3	265.1	24.4	75.1	0.2	0.76
1797	2010-04-12T20:00:00	28	9.49	40.51	2389.50	ND	ND	2	277.3	23.6	79	0	3.81
1798	2010-04-12T21:00:00	29	7.35	32.77	2440.08	ND	ND	1.8	187.5	22.3	88.1	0	3.56
1799	2010-04-12T22:00:00	23	7.01	39.68	2349.92	ND	ND	1.9	193.8	21	95.3	0	8.64
1800	2010-04-12T23:00:00	17	6.77	49.76	2712.55	ND	ND	1.5	171.3	20.3	96.6	0	8.89
1801	2010-04-13T00:00:00	11	4.18	39.58	2063.40	ND	ND	1.2	200.6	19.7	96	0.1	3.81
1802	2010-04-13T01:00:00	6	4.12	31.95	1811.62	ND	ND	1.4	249.3	20.6	92.9	0.2	0.25
1803	2010-04-13T02:00:00	5	4.18	22.86	1625.32	ND	ND	0.5	107.6	20.7	91.5	0.1	0.25
1804	2010-04-13T03:00:00	4	4.13	23.48	1625.87	ND	ND	0.6	106.2	19.7	96.4	0.3	0
1805	2010-04-13T04:00:00	4	4.58	18.76	1440.30	ND	ND	0.4	8.2	19.9	95.4	0.3	0
1806	2010-04-13T05:00:00	21	4.53	17.73	1553.88	ND	ND	0.7	189.1	20.1	95.3	0.1	0
1807	2010-04-13T06:00:00	13	4.79	15.97	1577.48	ND	ND	0.8	185.8	20.3	95.5	0.1	0
1808	2010-04-13T07:00:00	32	5.52	22.67	1691.31	ND	ND	0.5	179.4	20.5	94.4	34.6	0
1809	2010-04-13T08:00:00	30	6.40	27.36	1918.12	ND	ND	0.6	129.4	21.3	89.1	140.5	0
1810	2010-04-13T09:00:00	39	8.28	40.14	3292.33	ND	ND	0.9	136.1	22.2	85.1	294.9	0
1811	2010-04-13T10:00:00	21	13.11	63.47	4505.33	ND	ND	0.7	119.4	23.2	81.6	327.1	0
1812	2010-04-13T11:00:00	33	11.41	64.06	3473.00	ND	ND	0.4	83.5	24.5	73.4	456.2	0
1813	2010-04-13T12:00:00	26	ND	ND	ND	ND	ND	0.5	134.5	25.8	69.1	433.3	0
1814	2010-04-13T13:00:00	32	ND	ND	2033.17	ND	ND	1.3	141.2	26.1	69.9	492.8	0
1815	2010-04-13T14:00:00	25	8.71	ND	2564.13	ND	ND	1.4	154.6	26.3	69.1	488.7	0
1816	2010-04-13T15:00:00	21	9.03	90.50	3497.84	ND	ND	1	146.6	27.5	64.8	599.1	0
1817	2010-04-13T16:00:00	23	7.32	60.85	2483.72	ND	ND	1.1	126.6	27.6	62.9	285.7	0
1818	2010-04-13T17:00:00	33	6.63	49.99	2276.54	ND	ND	0.7	171.5	27.1	64.3	95.8	0
1819	2010-04-13T18:00:00	25	7.55	56.86	2491.95	ND	ND	0.6	154.1	25.7	79	39.2	1.02
1820	2010-04-13T19:00:00	60	11.24	52.67	2319.56	ND	ND	0.6	224.4	25.4	77.2	0.6	0
1821	2010-04-13T20:00:00	35	18.21	105.52	4439.45	ND	ND	0.5	223.6	25.2	72.3	0	0.25
1822	2010-04-13T21:00:00	19	23.78	94.40	5021.13	ND	ND	1	253.5	24.6	72.3	0	0
1823	2010-04-13T22:00:00	13	21.30	55.90	3855.51	ND	ND	1.5	275.1	24.2	71.6	0	0
1824	2010-04-13T23:00:00	22	13.38	40.78	2662.10	ND	ND	1.7	228	23.6	73.7	0	0
1825	2010-04-14T00:00:00	32	7.85	ND	1881.37	ND	ND	0.5	219.7	22.9	79.3	0	0
1826	2010-04-14T01:00:00	21	7.00	ND	2377.45	ND	ND	0.3	240.1	23	75.5	0	0
1827	2010-04-14T02:00:00	21	10.36	ND	3334.10	ND	ND	0.3	320.3	22.9	81.1	0	0
1828	2010-04-14T03:00:00	21	5.39	ND	1831.43	ND	ND	0.3	148.8	22.3	88.5	0	0
1829	2010-04-14T04:00:00	11	6.47	ND	2236.40	ND	ND	0.4	79.5	21.9	88.3	0	0
1830	2010-04-14T05:00:00	23	3.01	ND	1825.24	ND	ND	0.6	10.8	22	88.3	0	0
1831	2010-04-14T06:00:00	38	1.69	ND	1621.73	ND	ND	0.3	42.5	22	88.4	0	0
1832	2010-04-14T07:00:00	59	11.05	ND	1825.86	ND	ND	0.2	57.5	22	88.4	29.3	0
1833	2010-04-14T08:00:00	74	24.02	ND	ND	ND	ND	0.8	0.3	22.7	83.7	118.4	0
1834	2010-04-14T09:00:00	ND	30.50	ND	ND	ND	ND	ND	ND	ND	ND	ND	ND
1835	2010-04-14T10:00:00	ND	ND	ND	ND	ND	ND	ND	ND	ND	ND	ND	ND
1836	2010-04-14T11:00:00	3	ND	ND	ND	ND	ND	0.6	79.8	26.9	65.1	679.9	0
1837	2010-04-14T12:00:00	4	ND	ND	ND	ND	ND	0.7	113.9	29.2	56.3	736.4	0
1838	2010-04-14T13:00:00	37	ND	ND	ND	ND	ND	0.6	100.4	29.6	54.2	639.7	0
1839	2010-04-14T14:00:00	34	6.31	ND	1826.37	ND	ND	1.5	64.7	30.4	52.4	450.5	0
1840	2010-04-14T15:00:00	43	8.86	ND	1936.17	ND	ND	2.1	287.9	29.1	55.2	199.5	0
1841	2010-04-14T16:00:00	22	16.97	ND	2055.62	ND	ND	3.7	265	29.2	52.5	354	0
1842	2010-04-14T17:00:00	29	20.06	ND	1928.51	ND	ND	3.7	262.6	27.9	56.6	86.6	0
1843	2010-04-14T18:00:00	26	9.00	ND	1862.38	ND	ND	1.4	224.1	27.5	59.5	26.8	0
1844	2010-04-14T19:00:00	38	9.38	ND	1998.53	ND	ND	3.1	263	24.5	79.1	0.2	1.27
1845	2010-04-14T20:00:00	28	8.53	ND	2470.36	ND	ND	2.6	266.5	24.1	78.6	0	0
1846	2010-04-14T21:00:00	40	7.89	ND	2272.87	ND	ND	1.7	242.1	24	77.8	0	0
1847	2010-04-14T22:00:00	36	5.20	ND	1986.67	ND	ND	0.6	259.4	23.8	80.1	0	0
1848	2010-04-14T23:00:00	44	4.62	ND	2373.27	ND	ND	0.8	320.2	23.9	83.7	0	0
1849	2010-04-15T00:00:00	42	5.12	ND	2727.89	ND	ND	0.2	183.8	23.7	84.7	0	0
1850	2010-04-15T01:00:00	39	4.93	ND	2554.97	ND	ND	0.7	164.1	22.9	84.7	0	0
1851	2010-04-15T02:00:00	28	5.96	ND	2445.70	ND	ND	0.4	288.7	23	82.8	0	0
1852	2010-04-15T03:00:00	26	5.49	ND	1911.70	ND	ND	0.2	35.3	23.2	81	0	0
1853	2010-04-15T04:00:00	15	3.96	ND	1913.00	ND	ND	0.4	3.2	22.7	87	0	0
1854	2010-04-15T05:00:00	29	4.73	ND	1716.52	ND	ND	0.4	217.1	22.4	86.6	0	0
1855	2010-04-15T06:00:00	25	5.92	ND	1862.40	ND	ND	0.7	187.4	22.3	87.8	0	0
1856	2010-04-15T07:00:00	32	5.76	ND	1589.32	ND	ND	1.4	186.8	21.8	90.5	14.7	0
1857	2010-04-15T08:00:00	17	4.72	ND	1745.29	ND	ND	0.7	97.2	21.7	91.4	56	0.51
1858	2010-04-15T09:00:00	21	4.69	ND	2356.48	ND	ND	1.8	53.4	22.1	90.2	163.8	0
1859	2010-04-15T10:00:00	13	6.43	ND	3448.75	ND	ND	1.6	13.8	23	85.2	403.1	0
1860	2010-04-15T11:00:00	21	6.38	ND	2810.66	ND	ND	0.9	23.7	24.9	73.8	566.5	0
1861	2010-04-15T12:00:00	16	7.99	ND	2450.78	ND	ND	1.2	62.1	27.1	61	708	0
1862	2010-04-15T13:00:00	36	16.62	ND	2307.36	ND	ND	1.5	30.2	27.7	59.7	469.8	0
1863	2010-04-15T14:00:00	27	22.16	ND	2381.33	ND	ND	1.5	15.3	28	58.2	491.4	0
1864	2010-04-15T15:00:00	19	30.12	ND	2279.57	ND	ND	1.9	25.2	29	55.3	719.9	0
1865	2010-04-15T16:00:00	11	25.92	ND	2171.04	ND	ND	2.4	26.5	29.8	51.7	708.6	0
1866	2010-04-15T17:00:00	25	21.17	ND	2037.11	ND	ND	3.2	35.3	29.2	49.3	351.2	0
1867	2010-04-15T18:00:00	25	21.44	ND	1974.98	ND	ND	1.8	49.3	27.6	55.8	34.8	0
1868	2010-04-15T19:00:00	ND	26.17	ND	2264.98	ND	ND	ND	ND	ND	ND	ND	ND
1869	2010-04-15T20:00:00	59	ND	ND	ND	ND	ND	1.8	29	25	68.2	1	0
1870	2010-04-15T21:00:00	60	ND	ND	ND	ND	ND	0.4	98.1	24.2	72.1	0	0
1871	2010-04-15T22:00:00	51	43.38	ND	3176.24	ND	ND	0.6	88.2	24	73.7	0	0
1872	2010-04-15T23:00:00	55	49.38	ND	3128.43	ND	ND	0.4	59.9	23.4	76.5	0	0
1873	2010-04-16T00:00:00	54	31.74	ND	3395.58	ND	ND	1	49.9	22.9	80.5	0	0
1874	2010-04-16T01:00:00	57	19.02	ND	2502.58	ND	ND	0.6	81.5	22.2	84.8	0	0
1875	2010-04-16T02:00:00	38	16.95	ND	2315.08	ND	ND	0.6	219.2	22.1	85.3	0	0
1876	2010-04-16T03:00:00	39	20.50	ND	2007.99	ND	ND	1	228.2	22.2	81.7	0	0
1877	2010-04-16T04:00:00	35	22.19	ND	1985.98	ND	ND	1.3	183.9	22	83.3	0	0
1878	2010-04-16T05:00:00	28	15.20	ND	1927.93	ND	ND	0.6	187.8	21.7	85.5	0	0
1879	2010-04-16T06:00:00	17	9.33	ND	1903.31	ND	ND	0.7	55.3	21.9	83.9	0	0
1880	2010-04-16T07:00:00	41	7.31	ND	1847.91	ND	ND	1.7	21	21.7	85.8	16.6	0
1881	2010-04-16T08:00:00	67	7.20	ND	2061.92	ND	ND	1.1	18.1	22.1	85.5	67.3	0
1882	2010-04-16T09:00:00	83	10.30	ND	2552.53	ND	ND	0.5	164.7	23.2	79.9	193.3	0
1883	2010-04-16T10:00:00	90	44.28	ND	3142.78	ND	ND	1.1	169	25	72	585.8	0
1884	2010-04-16T11:00:00	75	80.34	ND	3196.24	ND	ND	1.3	118.3	26.9	65.3	800.9	0
1885	2010-04-16T12:00:00	46	56.75	ND	3078.27	ND	ND	1.8	121.9	27.4	62.8	445.6	0
1886	2010-04-16T13:00:00	45	30.38	ND	2760.05	ND	ND	0.8	76.2	27.9	59.9	335.8	0
1887	2010-04-16T14:00:00	24	20.82	ND	2695.24	ND	ND	1.7	66.9	29	56.4	566.3	0
1888	2010-04-16T15:00:00	53	14.58	ND	2565.78	ND	ND	2.1	48.6	29.7	53.6	527.8	0
1889	2010-04-16T16:00:00	40	12.40	ND	2420.45	ND	ND	1.5	353.1	29.7	52.6	322.1	0
1890	2010-04-16T17:00:00	49	13.87	ND	2513.54	ND	ND	2	274.5	28.4	54.6	83.7	0
1891	2010-04-16T18:00:00	39	23.72	ND	2213.08	ND	ND	2.1	271.1	27.5	58.8	15.4	0
1892	2010-04-16T19:00:00	49	20.16	ND	2633.90	ND	ND	1.7	255.4	27	60.4	0.3	0
1893	2010-04-16T20:00:00	37	13.40	ND	3148.50	ND	ND	1.3	259	26.7	62.1	0	0
1894	2010-04-16T21:00:00	32	12.89	ND	3156.87	ND	ND	1.9	238.2	26.3	62.7	0	0
1895	2010-04-16T22:00:00	18	11.11	ND	3026.09	ND	ND	1.9	211.4	25.9	62.9	0	0
1896	2010-04-16T23:00:00	53	8.94	ND	2700.31	ND	ND	1.5	188.7	25.2	67.8	0	0
1897	2010-04-17T00:00:00	28	7.53	ND	2418.85	ND	ND	1	190.6	24.9	69.8	0	0
1898	2010-04-17T01:00:00	45	9.25	ND	2805.80	ND	ND	1.3	200.6	24.5	72.2	0	0
1899	2010-04-17T02:00:00	26	8.79	ND	2619.04	ND	ND	0.2	299.2	24.5	71.1	0	0
1900	2010-04-17T03:00:00	29	9.63	ND	2127.25	ND	ND	0.6	257	23.9	72.4	0	0
1901	2010-04-17T04:00:00	25	9.95	ND	2237.10	ND	ND	0.8	262.2	23.6	72.4	0	0
1902	2010-04-17T05:00:00	18	8.16	ND	2052.41	ND	ND	0.3	222.8	23.2	73.3	0	0
1903	2010-04-17T06:00:00	15	6.30	ND	1821.90	ND	ND	0.5	225.6	22.7	76.3	0.3	0
1904	2010-04-17T07:00:00	31	5.30	ND	1887.03	ND	ND	0.6	228.4	22.7	76.5	19.2	0
1905	2010-04-17T08:00:00	30	5.02	ND	1909.77	ND	ND	0.8	185.5	23.3	79.9	166	0
1906	2010-04-17T09:00:00	42	6.59	ND	2642.65	ND	ND	0.6	93.5	25.7	67.4	406.5	0
1907	2010-04-17T10:00:00	57	8.19	ND	3433.41	ND	ND	1.1	85.8	27.6	61.8	610.2	0
1908	2010-04-17T11:00:00	66	11.02	ND	3154.80	ND	ND	1.4	133.1	28	61.1	559.3	0
1909	2010-04-17T12:00:00	68	16.51	ND	2823.42	ND	ND	1.1	273.9	27.9	61.9	221.2	0.25
1910	2010-04-17T13:00:00	53	17.46	ND	2915.02	ND	ND	2.6	264.8	27	66.3	182.2	0
1911	2010-04-17T14:00:00	27	18.02	ND	2641.05	ND	ND	1.2	269.2	27.7	62.3	181.1	0
1912	2010-04-17T15:00:00	21	12.90	ND	2889.97	ND	ND	2.6	45.5	24.4	76.9	92.6	0.25
1913	2010-04-17T16:00:00	20	10.88	ND	2766.79	ND	ND	0.2	106.2	22.8	83.4	60.1	0.25
1914	2010-04-17T17:00:00	28	12.38	ND	2740.53	ND	ND	0.7	196.2	24.1	81	70.4	0
1915	2010-04-17T18:00:00	41	20.17	ND	3415.02	ND	ND	1.2	215.5	24.4	81	35.3	0
1916	2010-04-17T19:00:00	62	13.78	ND	3727.16	ND	ND	1.5	187.4	24.1	80.1	1.5	0
1917	2010-04-17T20:00:00	41	8.46	ND	3986.09	ND	ND	0.7	274.3	23.7	78.8	0	0
1918	2010-04-17T21:00:00	76	6.76	ND	3649.95	ND	ND	1.2	12.9	22.8	88.7	0	0
1919	2010-04-17T22:00:00	62	8.56	ND	3184.02	ND	ND	0.7	17.1	22.5	87.5	0	0
1920	2010-04-17T23:00:00	57	9.20	ND	3828.31	ND	ND	0.5	324.3	22.4	86.8	0	0
1921	2010-04-18T00:00:00	41	6.10	ND	3213.78	ND	ND	0.8	250.5	22	81	0	0
1922	2010-04-18T01:00:00	34	5.99	ND	3027.98	ND	ND	0.9	247.6	21.7	78	0	0
1923	2010-04-18T02:00:00	30	13.24	ND	2469.77	ND	ND	0.4	135.1	21.5	83.1	0	0
1924	2010-04-18T03:00:00	39	11.57	ND	2275.63	ND	ND	0.4	223.2	20.8	89.4	0	0
1925	2010-04-18T04:00:00	31	10.36	ND	3038.25	ND	ND	0.5	141	20.7	85.4	0	0
1926	2010-04-18T05:00:00	31	7.85	ND	2788.82	ND	ND	0.7	218.5	20.5	85.2	0	0
1927	2010-04-18T06:00:00	34	8.05	ND	2707.94	ND	ND	0.6	215.3	20.5	86.4	0.2	0
1928	2010-04-18T07:00:00	34	7.23	ND	2470.99	ND	ND	0.6	149.2	20.4	88.2	38.6	0
1929	2010-04-18T08:00:00	38	8.28	ND	2752.13	ND	ND	0.4	128	21.5	83	158	0
1930	2010-04-18T09:00:00	42	8.29	ND	2977.56	ND	ND	0.3	27.3	23.3	74.9	437.6	0
1931	2010-04-18T10:00:00	21	7.92	ND	3007.15	ND	ND	1.7	75	25.6	66.6	634.2	0
1932	2010-04-18T11:00:00	36	8.51	ND	2663.16	ND	ND	1.3	61.5	26.1	67.1	688.4	0
1933	2010-04-18T12:00:00	23	11.07	ND	2575.63	ND	ND	1.2	41.7	28.2	58.8	758.2	0
1934	2010-04-18T13:00:00	30	19.02	ND	2420.03	ND	ND	1.6	81.8	29.4	55.3	901.1	0
1935	2010-04-18T14:00:00	21	36.48	ND	2278.54	ND	ND	1.3	28.5	31.1	50.9	738.6	0
1936	2010-04-18T15:00:00	29	22.30	ND	2349.81	ND	ND	2.2	14.8	31.2	50.8	485.7	0
1937	2010-04-18T16:00:00	25	17.31	ND	2175.16	ND	ND	2	26.1	30.6	51.6	246.7	0
1938	2010-04-18T17:00:00	14	29.23	ND	2112.52	ND	ND	2.2	275.4	29.1	54.8	79.8	0
1939	2010-04-18T18:00:00	9	21.14	ND	2125.31	ND	ND	0.7	232.4	28.5	57	28.1	0
1940	2010-04-18T19:00:00	20	7.58	ND	1935.63	ND	ND	3	273.1	27.7	58.2	2.1	0
1941	2010-04-18T20:00:00	13	7.75	ND	2288.85	ND	ND	2.3	270.9	27.3	60	0	0
1942	2010-04-18T21:00:00	7	5.39	ND	1974.11	ND	ND	1.3	246.6	26.7	63.8	0	0
1943	2010-04-18T22:00:00	23	5.06	ND	2177.55	ND	ND	0.6	204.9	25.9	69.7	0	0
1944	2010-04-18T23:00:00	52	4.55	ND	2217.70	ND	ND	0.8	17.2	25	72.9	0	0
1945	2010-04-19T00:00:00	57	5.87	ND	2875.47	ND	ND	0.9	11.6	24.4	76.8	0	0
1946	2010-04-19T01:00:00	43	6.67	ND	3018.31	ND	ND	0.4	59.3	23.7	79.6	0	0
1947	2010-04-19T02:00:00	25	7.88	ND	2566.37	ND	ND	0.7	21	23.6	79.4	0	0
1948	2010-04-19T03:00:00	35	8.79	ND	2565.51	ND	ND	0.6	12.1	23.6	78.8	0	0
1949	2010-04-19T04:00:00	20	9.34	ND	2177.83	ND	ND	0.5	287.7	23.8	79.5	0	0
1950	2010-04-19T05:00:00	25	13.15	ND	2088.02	ND	ND	0.8	208.4	23.5	80.3	0	0
1951	2010-04-19T06:00:00	44	9.83	ND	2199.89	ND	ND	0.9	94.9	22.7	86.7	0.1	0
1952	2010-04-19T07:00:00	41	7.83	ND	2091.65	ND	ND	0.5	79.4	22.4	85.7	16.3	0
1953	2010-04-19T08:00:00	49	7.22	ND	2464.28	ND	ND	0.9	239.9	23.1	82.9	80.7	0
1954	2010-04-19T09:00:00	76	8.12	ND	3005.12	ND	ND	1	25.8	24.5	76.8	154.4	0
1955	2010-04-19T10:00:00	90	9.16	ND	3751.29	ND	ND	1.8	49.6	24.5	77.5	88.5	0
1956	2010-04-19T11:00:00	86	21.48	ND	3911.40	ND	ND	1.8	40.9	23.7	81.6	94.3	0
1957	2010-04-19T12:00:00	52	95.09	ND	3216.52	ND	ND	1.1	41.1	23.2	89.4	117.3	5.08
1958	2010-04-19T13:00:00	29	33.57	ND	2915.04	ND	ND	1.6	28.5	23.5	88.6	182.3	0.25
1959	2010-04-19T14:00:00	16	ND	ND	ND	ND	ND	2.2	28.7	23.9	77.5	241.2	0.25
1960	2010-04-19T15:00:00	9	ND	ND	ND	ND	ND	1.8	47.3	24.1	75.1	229.7	0
1961	2010-04-19T16:00:00	22	25.68	ND	2546.99	ND	ND	1.6	65.9	23.4	75.3	143	0
1962	2010-04-19T17:00:00	54	22.10	ND	2860.04	ND	ND	1	136.6	23.1	78.7	85.2	0
1963	2010-04-19T18:00:00	41	21.32	ND	2993.74	ND	ND	1.7	165.9	22.8	82.2	26.2	0
1964	2010-04-19T19:00:00	61	22.47	ND	3832.20	ND	ND	0.7	183.3	22.6	84.3	0.4	0
1965	2010-04-19T20:00:00	52	21.57	ND	3840.97	ND	ND	0.5	55.1	22.6	85.4	0	0
1966	2010-04-19T21:00:00	64	11.59	ND	3806.88	ND	ND	1	58.3	22.2	86.7	0	0
1967	2010-04-19T22:00:00	34	11.34	75.67	4085.44	ND	ND	1	12.5	22	87.8	0	0
1968	2010-04-19T23:00:00	58	11.39	62.63	3504.29	ND	ND	1.6	13.2	21.8	88.7	0	0
1969	2010-04-20T00:00:00	30	10.58	52.24	3003.26	ND	ND	0.5	323.1	21.9	85.8	0	0
1970	2010-04-20T01:00:00	54	10.24	51.46	2641.50	ND	ND	1.3	28.3	21.6	87.7	0	0
1971	2010-04-20T02:00:00	35	24.38	54.61	2446.28	ND	ND	0.3	198.2	21.3	89.6	0	0
1972	2010-04-20T03:00:00	46	26.03	48.99	2353.28	ND	ND	1.1	232	21.1	85.4	0	0
1973	2010-04-20T04:00:00	24	30.46	43.01	2283.84	ND	ND	0.9	217.6	20.7	84.9	0	0
1974	2010-04-20T05:00:00	34	28.41	30.22	2179.12	ND	ND	0.9	215.2	20.4	82.3	0	0
1975	2010-04-20T06:00:00	21	20.17	23.83	1917.47	ND	ND	0.4	218.1	20.2	89.5	0.4	0
1976	2010-04-20T07:00:00	76	14.23	13.42	1792.18	ND	ND	0.7	344.4	20.6	84.9	50.4	0
1977	2010-04-20T08:00:00	105	10.07	22.08	2325.11	ND	ND	0.7	32.6	21.9	84.1	212.8	0
1978	2010-04-20T09:00:00	114	12.19	30.27	3060.96	ND	ND	1.3	67.4	23.4	79.7	487	0
1979	2010-04-20T10:00:00	ND	20.69	68.19	4079.25	ND	ND	ND	ND	ND	ND	ND	ND
1980	2010-04-20T11:00:00	57	ND	ND	ND	ND	ND	1.4	51.4	25.4	69	582.6	0
1981	2010-04-20T12:00:00	34	ND	ND	ND	ND	ND	1.3	66.7	27.3	60.9	640.5	0
1982	2010-04-20T13:00:00	49	25.08	24.75	2736.04	ND	ND	1.5	35.1	28.3	58	623.7	0
1983	2010-04-20T14:00:00	46	20.11	26.76	2687.24	ND	ND	1.4	90.5	28.6	57.1	406.8	0
1984	2010-04-20T15:00:00	40	24.56	18.64	2469.62	ND	ND	0.7	54.3	29.1	56.2	627.3	0
1985	2010-04-20T16:00:00	33	27.09	24.17	2682.76	ND	ND	0.7	75.7	29.9	54	351.9	0
1986	2010-04-20T17:00:00	59	15.29	17.11	2503.56	ND	ND	0.6	211.3	29.5	55.2	197.9	0
1987	2010-04-20T18:00:00	36	19.02	21.51	2628.17	ND	ND	2.5	271.4	28.9	54.8	96.2	0
1988	2010-04-20T19:00:00	35	16.59	27.21	2982.74	ND	ND	2.7	256.4	27.6	57.9	2.3	0
1989	2010-04-20T20:00:00	23	9.57	10.91	2553.88	ND	ND	1.6	268.9	27.1	59.2	0	0
1990	2010-04-20T21:00:00	ND	9.50	12.29	2988.03	ND	ND	ND	ND	ND	ND	ND	ND
1991	2010-04-20T22:00:00	15	ND	ND	ND	ND	ND	1.4	277.3	25.9	66.2	0	0
1992	2010-04-20T23:00:00	37	ND	ND	ND	ND	ND	0.3	247.1	25.5	69.6	0	0
1993	2010-04-21T00:00:00	22	5.38	9.70	2340.96	ND	ND	0.5	193.9	25.2	70.5	0	0
1994	2010-04-21T01:00:00	30	8.42	16.74	2900.33	ND	ND	0.7	183.9	24.2	77.6	0	0
1995	2010-04-21T02:00:00	28	8.13	12.10	2639.25	ND	ND	1.3	174.2	23.5	81.8	0	0
1996	2010-04-21T03:00:00	24	6.47	22.11	2872.40	ND	ND	0.7	173.2	23.5	79.9	0	0
1997	2010-04-21T04:00:00	19	5.66	11.96	2142.90	ND	ND	0.8	148	23.2	82	0	0
1998	2010-04-21T05:00:00	53	5.44	10.95	2231.83	ND	ND	0.4	131	22.8	84.5	0	0
1999	2010-04-21T06:00:00	40	4.79	9.65	2137.84	ND	ND	0.7	186.9	22.5	86.4	0.3	0
2000	2010-04-21T07:00:00	71	4.57	6.87	2022.07	ND	ND	0.6	56.5	22.5	86.7	45.3	0
2001	2010-04-21T08:00:00	75	4.96	10.22	2203.83	ND	ND	0.4	211.9	24.1	79.3	235	0
2002	2010-04-21T09:00:00	73	7.58	13.03	3335.07	ND	ND	0.9	139.5	25.7	72.4	429.6	0
2003	2010-04-21T10:00:00	47	11.32	25.34	3628.62	ND	ND	1.1	133.9	27.2	63.9	635.4	0
2004	2010-04-21T11:00:00	63	11.75	31.04	3300.63	ND	ND	0.9	145.6	28.5	58.9	667	0
2005	2010-04-21T12:00:00	34	13.47	16.12	2549.94	ND	ND	1.1	136.3	30.1	53.1	869.5	0
2006	2010-04-21T13:00:00	38	14.79	14.83	2586.77	ND	ND	1.1	179.6	31.3	49.3	940.9	0
2007	2010-04-21T14:00:00	24	13.27	15.35	2515.13	ND	ND	1.2	153.9	31.8	46.7	623.3	0
2008	2010-04-21T15:00:00	37	11.01	10.21	2355.21	ND	ND	0.8	99.1	32.6	44.3	728.6	0
2009	2010-04-21T16:00:00	31	9.92	12.40	2431.89	ND	ND	0.8	115.2	32.4	45.3	260.1	0
2010	2010-04-21T17:00:00	70	9.59	14.86	2535.96	ND	ND	1	97.4	32	46.3	180.2	0
2011	2010-04-21T18:00:00	63	11.16	23.52	2896.12	ND	ND	1	289.3	30.9	52.1	62.4	0
2012	2010-04-21T19:00:00	46	11.97	29.71	3131.01	ND	ND	2.7	279.6	28.9	58.8	2.4	0
2013	2010-04-21T20:00:00	26	8.57	23.32	2889.89	ND	ND	4.3	273.4	28	61.5	0	0
2014	2010-04-21T21:00:00	25	7.94	19.94	2858.14	ND	ND	4.4	267.8	27.8	61.2	0	0
2015	2010-04-21T22:00:00	17	5.92	10.11	2266.49	ND	ND	1.3	320.3	27.3	63.6	0	0
2016	2010-04-21T23:00:00	16	4.86	4.88	2078.01	ND	ND	1.6	258.8	26.7	66.2	0	0
2017	2010-04-22T00:00:00	8	5.24	8.45	2223.64	ND	ND	0.6	287	26.1	69.7	0	0
2018	2010-04-22T01:00:00	22	5.89	7.03	2150.19	ND	ND	0.4	58.4	25	78.3	0	0
2019	2010-04-22T02:00:00	17	5.55	8.17	2165.20	ND	ND	0.8	107.9	24.2	82.9	0	0
2020	2010-04-22T03:00:00	45	7.03	12.83	2399.32	ND	ND	0.5	163.7	24.1	82.3	0	0
2021	2010-04-22T04:00:00	38	3.92	9.65	2204.34	ND	ND	0.3	118.4	24.1	81.4	0	0
2022	2010-04-22T05:00:00	42	3.19	6.99	2055.87	ND	ND	1	147.7	23.7	83.6	0	0
2023	2010-04-22T06:00:00	43	3.91	7.95	2098.72	ND	ND	1	202.3	23.8	81.2	0.2	0
2024	2010-04-22T07:00:00	55	4.44	8.48	2156.48	ND	ND	0.8	192.9	24	80.8	41.3	0
2025	2010-04-22T08:00:00	75	3.86	7.94	2135.10	ND	ND	1.3	179.4	24.5	79	139.1	0
2026	2010-04-22T09:00:00	77	6.15	9.78	3030.77	ND	ND	1.2	150.3	25.7	71.9	306.9	0
2027	2010-04-22T10:00:00	64	7.96	17.09	4156.84	ND	ND	1.3	175.1	27.2	66.5	535.6	0
2028	2010-04-22T11:00:00	52	7.87	20.21	3023.65	ND	ND	1.3	143.1	28.8	61.2	694.9	0
2029	2010-04-22T12:00:00	38	11.65	18.60	2587.28	ND	ND	1.7	142.5	29.3	59.9	567.5	0
2030	2010-04-22T13:00:00	61	9.20	18.95	2638.05	ND	ND	1.3	155.5	29.7	57	518.2	0
2031	2010-04-22T14:00:00	71	6.89	21.37	2595.00	ND	ND	2.1	146.7	30.5	56.9	551.5	0
2032	2010-04-22T15:00:00	62	4.75	19.30	3336.91	ND	ND	2.1	161	30.8	56	614.9	0
2033	2010-04-22T16:00:00	69	5.42	20.35	2849.69	ND	ND	1.3	167.9	31.8	52.7	542.8	0
2034	2010-04-22T17:00:00	45	5.31	21.34	2741.89	ND	ND	2.9	281.4	31.7	49.8	356.5	0
2035	2010-04-22T18:00:00	30	3.83	21.09	2717.57	ND	ND	2.9	278.8	29.9	54	120.2	0
2036	2010-04-22T19:00:00	37	11.11	ND	2352.18	ND	ND	3.2	273.2	28.6	57.4	1.7	0
2037	2010-04-22T20:00:00	20	11.32	ND	2655.13	ND	ND	3.4	268.8	27.8	60.4	0	0
2038	2010-04-22T21:00:00	11	9.26	ND	2601.84	ND	ND	3.4	263.3	27.4	62.1	0	0
2039	2010-04-22T22:00:00	6	8.08	17.64	2298.12	ND	ND	1.6	284.3	27.1	62.9	0	0
2040	2010-04-22T23:00:00	14	5.99	12.94	2318.90	ND	ND	1	275.8	26.8	65.3	0	0
2041	2010-04-23T00:00:00	9	6.35	12.05	2039.97	ND	ND	1.6	255.6	26.6	64.7	0	0
2042	2010-04-23T01:00:00	15	6.38	18.27	2533.87	ND	ND	0.7	319.8	25.7	71	0	0
2043	2010-04-23T02:00:00	27	5.80	11.18	2147.32	ND	ND	1.1	152.2	24.3	80.7	0	0
2044	2010-04-23T03:00:00	43	6.74	16.10	2114.40	ND	ND	1.1	177.3	24.1	80	0	0
2045	2010-04-23T04:00:00	34	7.78	17.71	2227.19	ND	ND	0.2	195.5	24.1	80.1	0	0
2046	2010-04-23T05:00:00	38	10.11	11.47	2078.71	ND	ND	0.5	264.2	24.3	77.4	0	0
2047	2010-04-23T06:00:00	46	8.78	12.63	1897.24	ND	ND	0.3	68.8	24	80.5	0.4	0
2048	2010-04-23T07:00:00	82	8.57	13.53	1918.16	ND	ND	0.7	159.5	23.4	83.3	43.5	0
2049	2010-04-23T08:00:00	63	9.17	17.85	2700.51	ND	ND	0.1	188.9	25.1	72.2	188.8	0
2050	2010-04-23T09:00:00	75	11.01	20.42	3735.93	ND	ND	1	74.7	26.9	66.8	411.1	0
2051	2010-04-23T10:00:00	79	12.79	31.46	3493.32	ND	ND	0.9	104.5	28.3	63.1	601.7	0
2052	2010-04-23T11:00:00	96	14.92	54.92	3602.29	ND	ND	1.4	135.6	29.4	57.4	622.2	0
2053	2010-04-23T12:00:00	68	23.98	59.57	3243.44	ND	ND	1	107.5	30.6	53.3	724.1	0
2054	2010-04-23T13:00:00	75	23.89	38.88	2941.18	ND	ND	0.9	107.6	31.5	49.7	728.1	0
2055	2010-04-23T14:00:00	78	19.20	28.29	2668.96	ND	ND	0.9	23	31.8	49	291.5	0
2056	2010-04-23T15:00:00	53	17.93	32.58	2671.59	ND	ND	3.6	285.2	30.7	49.2	263.8	0
2057	2010-04-23T16:00:00	31	19.52	27.49	2440.12	ND	ND	3.9	279.4	31.3	46.7	579.3	0
2058	2010-04-23T17:00:00	33	9.98	16.58	2409.84	ND	ND	3.3	279.5	31.4	47.5	295.7	0
2059	2010-04-23T18:00:00	18	7.60	13.99	2211.70	ND	ND	3.5	285	30	50.8	83.4	0
2060	2010-04-23T19:00:00	37	7.19	16.39	2283.06	ND	ND	3	277.9	28.9	53.1	0.9	0
2061	2010-04-23T20:00:00	35	6.82	18.87	2495.29	ND	ND	3.4	276.2	28.5	54.9	0	0
2062	2010-04-23T21:00:00	22	7.61	22.77	2619.48	ND	ND	2.5	286.5	28	57.2	0	0
2063	2010-04-23T22:00:00	13	5.85	15.41	2244.85	ND	ND	2	275.7	27.6	58.7	0	0
2064	2010-04-23T23:00:00	19	4.94	15.83	2184.09	ND	ND	0.6	328.7	27.1	62.7	0	0
2065	2010-04-24T00:00:00	14	4.67	14.13	2122.77	ND	ND	0.3	174.2	26.4	67.6	0	0
2066	2010-04-24T01:00:00	18	6.16	17.33	2555.20	ND	ND	1.2	202.1	26.8	64.5	0	0
2067	2010-04-24T02:00:00	13	7.75	19.25	2616.24	ND	ND	0.9	160	25.9	72.9	0	0
2068	2010-04-24T03:00:00	41	5.68	14.74	2194.72	ND	ND	1.2	162.7	25.5	73.9	0	0
2069	2010-04-24T04:00:00	22	6.85	15.85	2226.21	ND	ND	1	179.2	25	74.8	0	0
2070	2010-04-24T05:00:00	44	9.17	15.71	2245.39	ND	ND	0.6	221.2	25.1	73.5	0	0
2071	2010-04-24T06:00:00	41	11.45	12.96	1845.05	ND	ND	0.3	310.4	25	75.2	0.3	0
2072	2010-04-24T07:00:00	63	11.58	13.22	1741.32	ND	ND	0.7	54.1	24.7	77.7	38.1	0
2073	2010-04-24T08:00:00	77	11.10	15.47	2472.02	ND	ND	0.8	70	24.9	78.6	136.8	0
2074	2010-04-24T09:00:00	89	12.73	17.53	3011.94	ND	ND	0.9	167	26.8	68.5	426	0
2075	2010-04-24T10:00:00	58	14.16	29.29	3768.76	ND	ND	0.3	8.3	28.8	58.9	499	0
2076	2010-04-24T11:00:00	60	16.37	45.02	3445.84	ND	ND	0.8	108.2	29.6	56.6	473.8	0
2077	2010-04-24T12:00:00	54	20.43	32.19	2815.16	ND	ND	0.6	62.7	30	55.1	316.1	0
2078	2010-04-24T13:00:00	75	20.38	40.56	3005.26	ND	ND	0.8	60.7	30.3	54.5	282.8	0
2079	2010-04-24T14:00:00	49	20.85	31.38	2646.78	ND	ND	0.8	307	30	55.2	209.8	0
2080	2010-04-24T15:00:00	35	22.67	37.40	2772.29	ND	ND	2.7	258.2	30.1	54.2	503.1	0
2081	2010-04-24T16:00:00	18	17.35	24.52	2621.73	ND	ND	1.5	263.7	31.7	49.2	561.4	0
2082	2010-04-24T17:00:00	24	10.93	16.81	2459.87	ND	ND	2	253.1	30.7	50.3	70.8	0
2083	2010-04-24T18:00:00	14	9.59	11.86	2206.61	ND	ND	4	269.3	28.6	55.9	39.9	0
2084	2010-04-24T19:00:00	20	8.75	15.78	2400.06	ND	ND	2.4	287.4	27.8	59.2	0.6	0
2085	2010-04-24T20:00:00	15	6.00	12.85	2139.29	ND	ND	2.1	24.8	25.8	72.2	0	0
2086	2010-04-24T21:00:00	37	5.41	14.26	2021.68	ND	ND	1.7	32.4	25.1	76.6	0	0
2087	2010-04-24T22:00:00	50	18.11	22.95	2716.00	ND	ND	1.3	46.4	24.3	79.1	0	0
2088	2010-04-24T23:00:00	46	19.40	25.08	2891.58	ND	ND	0.6	176	25	76.8	0	0
2089	2010-04-25T00:00:00	33	21.93	22.98	3012.95	ND	ND	1.6	193.2	25.5	73.3	0	0
2090	2010-04-25T01:00:00	41	17.14	19.71	3132.76	ND	ND	1.9	168.3	24.7	78.8	0	0
2091	2010-04-25T02:00:00	26	16.23	21.37	3124.36	ND	ND	1.3	166.3	24.4	79	0	0
2092	2010-04-25T03:00:00	20	11.38	20.51	2549.56	ND	ND	0.6	164.2	24.4	78.9	0	0
2093	2010-04-25T04:00:00	11	9.07	17.20	2218.00	ND	ND	0.7	166.1	24	82.9	0	0
2094	2010-04-25T05:00:00	24	8.12	14.94	2215.02	ND	ND	1	168.4	24	82.5	0	0
2095	2010-04-25T06:00:00	19	7.10	17.46	2237.86	ND	ND	1.2	193.8	23.8	82.5	0.1	0
2096	2010-04-25T07:00:00	24	5.79	14.18	2190.71	ND	ND	0.7	147.2	23.8	83.4	20.1	0
2097	2010-04-25T08:00:00	29	7.20	10.90	1894.05	ND	ND	0.8	171.3	24.1	82.7	77.1	0
2098	2010-04-25T09:00:00	24	9.90	14.65	2489.88	ND	ND	0.8	177	24.5	80.5	97.9	0.76
2099	2010-04-25T10:00:00	14	9.52	17.07	2527.54	ND	ND	0.9	177.6	25.5	76.8	339.4	0.25
2100	2010-04-25T11:00:00	39	10.37	18.43	2375.39	ND	ND	1.4	97.4	25.3	80.8	229.8	0
2101	2010-04-25T12:00:00	21	13.51	20.57	2522.87	ND	ND	0.4	132.6	26.3	76.5	571.1	0
2102	2010-04-25T13:00:00	28	11.24	25.80	2795.97	ND	ND	0.5	4.5	28.7	62.9	769.8	0
2103	2010-04-25T14:00:00	27	6.07	20.08	2540.03	ND	ND	0.9	42.9	29.9	55.5	478.6	0
2104	2010-04-25T15:00:00	36	4.34	14.86	2375.47	ND	ND	1.3	32.9	29.1	58.7	115.1	0
2105	2010-04-25T16:00:00	18	3.80	11.95	2264.67	ND	ND	2.8	283.5	28.3	57.6	202.7	0
2106	2010-04-25T17:00:00	9	3.47	22.22	2444.00	ND	ND	3.2	281.8	27.7	58.2	134.6	0
2107	2010-04-25T18:00:00	6	2.93	5.34	2011.42	ND	ND	1.9	286.7	27.6	57.1	64	0
2108	2010-04-25T19:00:00	12	9.78	3.95	1952.97	ND	ND	3.7	269.9	26.9	58.8	0.9	0
2109	2010-04-25T20:00:00	7	7.54	5.63	1959.95	ND	ND	2.5	226.9	25.8	64.9	0	0
2110	2010-04-25T21:00:00	6	5.23	4.93	1952.76	ND	ND	2.4	139.3	24	76.2	0	0
2111	2010-04-25T22:00:00	14	4.62	10.49	2123.68	ND	ND	1.2	152.4	23	81.7	0	0
2112	2010-04-25T23:00:00	7	4.95	14.26	2378.25	ND	ND	0.3	86.1	23.1	81.6	0	0
2113	2010-04-26T00:00:00	5	4.89	11.77	2287.99	ND	ND	1	142.1	23	82.8	0	0
2114	2010-04-26T01:00:00	4	4.87	13.13	2230.32	ND	ND	0.1	161.5	22.7	84.4	0	0
2115	2010-04-26T02:00:00	3	5.46	12.71	2216.69	ND	ND	0.6	69.8	23	83.3	0	0
2116	2010-04-26T03:00:00	3	4.27	8.72	1957.22	ND	ND	0.7	82.3	22.4	86.9	0	0
2117	2010-04-26T04:00:00	4	3.25	11.35	2066.81	ND	ND	0.6	45.3	22.3	87.2	0	0
2118	2010-04-26T05:00:00	16	3.95	7.67	1918.53	ND	ND	0.9	63.6	22.4	87	0	0
2119	2010-04-26T06:00:00	9	3.56	7.32	1885.12	ND	ND	0.9	62.2	22.3	88.5	0	0
2120	2010-04-26T07:00:00	23	4.26	8.73	1918.53	ND	ND	1.6	138.9	22	88.4	3.8	0
2121	2010-04-26T08:00:00	14	4.64	8.61	2109.38	ND	ND	1.7	150.6	21.5	91.2	15.9	0.76
2122	2010-04-26T09:00:00	15	5.96	10.52	2909.63	ND	ND	2	174.8	21	94.5	46.2	1.02
2123	2010-04-26T10:00:00	8	7.39	13.82	3650.64	ND	ND	1.1	188.9	21.5	92.8	159.6	0.25
2124	2010-04-26T11:00:00	11	6.63	13.38	2728.49	ND	ND	0.1	128.1	23	85.2	348.7	0.25
2125	2010-04-26T12:00:00	7	6.66	14.33	2674.11	ND	ND	0.8	72.1	24	79.6	259.7	0
2126	2010-04-26T13:00:00	4	5.35	27.24	2774.48	ND	ND	1	65.6	24.7	73.5	327.2	0
2127	2010-04-26T14:00:00	4	7.33	27.88	2735.25	ND	ND	1.5	60.1	24.7	74.3	295.7	0
2128	2010-04-26T15:00:00	12	8.43	21.60	2609.36	ND	ND	1	76.9	24.4	76	322.7	0
2129	2010-04-26T16:00:00	7	ND	ND	ND	ND	ND	0.6	120.6	25.2	72.4	305.8	0
2130	2010-04-26T17:00:00	20	16.99	ND	1421.51	ND	ND	0.7	172.7	25.2	73.5	122	0
2131	2010-04-26T18:00:00	27	10.57	40.54	997.35	ND	ND	1.2	175.7	25.1	74.7	46.5	0
2132	2010-04-26T19:00:00	38	7.31	39.28	1134.53	ND	ND	0.5	194	24.5	77.3	0.7	0
2133	2010-04-26T20:00:00	35	6.83	50.56	1646.91	ND	ND	1.2	317	21.5	97.1	0	55.63
2134	2010-04-26T21:00:00	18	7.90	55.52	2128.45	ND	ND	0.4	242.8	21.3	97.8	0	0.25
2135	2010-04-26T22:00:00	23	4.09	42.46	1278.46	ND	ND	0.3	223.3	22.1	90.7	0	0
2136	2010-04-26T23:00:00	11	2.85	31.59	1281.94	ND	ND	0.3	243.9	22.4	88.3	0	0
2137	2010-04-27T00:00:00	7	3.69	14.04	1226.46	ND	ND	0.3	92.1	22.1	92.6	0	0.25
2138	2010-04-27T01:00:00	23	2.83	9.40	1270.59	ND	ND	1	194.5	22.1	92.1	0	0
2139	2010-04-27T02:00:00	20	2.67	12.51	964.29	ND	ND	0.6	203.3	22.1	91.5	0	0
2140	2010-04-27T03:00:00	11	3.37	12.37	1486.14	ND	ND	0.3	171	21.9	91.9	0	0
2141	2010-04-27T04:00:00	7	2.13	13.70	1031.66	ND	ND	0.6	156.2	21.9	93.7	0	0
2142	2010-04-27T05:00:00	18	1.17	13.51	328.77	ND	ND	0.4	167.6	21.9	94.5	0	0
2143	2010-04-27T06:00:00	11	1.53	11.98	691.55	ND	ND	0.8	246.6	21.9	91.5	0.1	0
2144	2010-04-27T07:00:00	28	1.09	8.56	600.86	ND	ND	0.2	163.5	22	88.1	18.3	0
2145	2010-04-27T08:00:00	26	1.19	5.02	669.10	ND	ND	0.1	76.7	22.7	87.1	82.5	0
2146	2010-04-27T09:00:00	46	3.56	4.77	1546.00	ND	ND	0.3	143	23.7	83.9	209.6	0
2147	2010-04-27T10:00:00	41	3.65	25.28	2315.44	ND	ND	0.6	65.9	25.3	74.3	525.6	0
2148	2010-04-27T11:00:00	24	3.49	57.28	2408.20	ND	ND	1	109.6	26.7	67	712.3	0
2149	2010-04-27T12:00:00	18	2.16	42.37	1002.36	ND	ND	0.7	95.3	28.2	60.6	807.2	0
2150	2010-04-27T13:00:00	42	2.20	38.05	1065.28	ND	ND	0.5	31.8	29.1	55.6	765.8	0
2151	2010-04-27T14:00:00	35	2.05	33.80	963.94	ND	ND	1.7	55	30.3	53.4	760.2	0
2152	2010-04-27T15:00:00	30	2.48	33.72	1014.40	ND	ND	1	79.4	30.5	51.8	413.9	0
2153	2010-04-27T16:00:00	16	4.46	38.40	898.40	ND	ND	1	295.1	29.5	54.9	156.9	0
2154	2010-04-27T17:00:00	28	12.29	41.53	732.63	ND	ND	3.6	260.7	28	58.2	200.8	0
2155	2010-04-27T18:00:00	16	10.59	32.78	590.14	ND	ND	3	271.1	27.7	57.9	64.5	0
2156	2010-04-27T19:00:00	16	9.07	23.57	832.31	ND	ND	3.1	273.1	26.9	59.9	0.9	0
2157	2010-04-27T20:00:00	10	6.94	23.96	622.57	ND	ND	1.2	296.2	26.7	60.2	0	0
2158	2010-04-27T21:00:00	32	6.35	23.13	875.63	ND	ND	1	79.7	25.7	70.5	0	0
2159	2010-04-27T22:00:00	17	5.91	41.08	884.19	ND	ND	0.3	114.8	24.4	79.9	0	0
2160	2010-04-27T23:00:00	41	8.18	44.64	1291.93	ND	ND	0.2	125.6	24.4	80	0	0
2161	2010-04-28T00:00:00	22	6.01	33.03	1394.83	ND	ND	0.6	203.1	24.6	72.5	0	0
2162	2010-04-28T01:00:00	14	5.36	28.27	1487.29	ND	ND	0.9	151.2	23.2	86.6	0	1.52
2163	2010-04-28T02:00:00	24	5.70	16.42	899.56	ND	ND	0.7	151.1	22.5	91.7	0	2.54
2164	2010-04-28T03:00:00	13	3.53	12.25	488.48	ND	ND	0.7	172	22.2	93.3	0	5.08
2165	2010-04-28T04:00:00	7	1.79	7.24	431.24	ND	ND	0.8	178.4	22	94.4	0	3.05
2166	2010-04-28T05:00:00	5	1.30	6.71	362.90	ND	ND	0.9	182	21.9	94.4	0	1.27
2167	2010-04-28T06:00:00	4	0.93	5.27	340.11	ND	ND	0.6	214.8	21.8	94.9	0	2.54
2168	2010-04-28T07:00:00	5	0.75	2.31	407.99	ND	ND	0.2	123.6	21.8	92	8.3	0.25
2169	2010-04-28T08:00:00	12	0.47	8.18	430.66	ND	ND	0.9	68	21.8	93.1	32.1	0
2170	2010-04-28T09:00:00	29	2.13	10.86	1461.96	ND	ND	1	154.4	22.6	90.6	161.5	0.25
2171	2010-04-28T10:00:00	21	3.48	23.09	2715.95	ND	ND	1.6	168.7	24	83.2	374.4	0
2172	2010-04-28T11:00:00	34	4.13	31.72	2683.14	ND	ND	1.8	143.8	24.7	79.5	299.4	0
2173	2010-04-28T12:00:00	19	2.15	29.84	1281.79	ND	ND	1.6	160.5	25.2	75.7	396	0
2174	2010-04-28T13:00:00	24	2.36	42.18	1696.64	ND	ND	1	159.7	25.3	72.7	163.5	0
2175	2010-04-28T14:00:00	13	2.36	33.69	1100.89	ND	ND	0.7	117.5	26	70.2	442.2	0
2176	2010-04-28T15:00:00	28	1.63	40.06	1643.72	ND	ND	1	120	26.5	69.4	244.5	0
2177	2010-04-28T16:00:00	55	1.37	34.36	1047.75	ND	ND	1.7	146.7	26	73.2	75.3	0
2178	2010-04-28T17:00:00	55	1.84	56.16	1459.80	ND	ND	1	163.7	25.7	73	31	0
2179	2010-04-28T18:00:00	30	2.99	68.55	1722.45	ND	ND	1.5	270.1	23.9	76.4	1.7	1.52
2180	2010-04-28T19:00:00	41	3.39	66.75	1712.07	ND	ND	1.6	268.8	21	95.7	0	36.83
2181	2010-04-28T20:00:00	22	3.57	28.39	1582.32	ND	ND	0.9	330	21.8	90.8	0	2.29
2182	2010-04-28T21:00:00	30	3.27	23.63	1337.30	ND	ND	1.2	11.4	21.5	93.8	0	3.56
2183	2010-04-28T22:00:00	19	3.78	23.12	1777.48	ND	ND	1.2	3.7	21.2	95.4	0	3.3
2184	2010-04-28T23:00:00	22	4.19	24.54	1786.98	ND	ND	1.5	2.5	21	95.4	0	0
2185	2010-04-29T00:00:00	21	2.97	32.52	1424.09	ND	ND	1.1	17.3	21	95.8	0	0
2186	2010-04-29T01:00:00	12	1.84	43.78	1005.90	ND	ND	1	40.8	20.8	95.6	0	0
2187	2010-04-29T02:00:00	18	2.22	24.05	734.15	ND	ND	0.6	36.5	20.9	95.7	0	0
2188	2010-04-29T03:00:00	10	2.95	20.43	485.83	ND	ND	0.5	90.6	20.7	96.5	0	0
2189	2010-04-29T04:00:00	7	8.63	18.47	519.38	ND	ND	0.3	131.8	20.9	96.1	0	0.25
2190	2010-04-29T05:00:00	11	15.09	20.54	497.13	ND	ND	0.4	175.2	20.8	96.5	0	9.4
2191	2010-04-29T06:00:00	6	13.51	23.73	530.85	ND	ND	0.6	49.2	20.5	98.5	0	8.13
2192	2010-04-29T07:00:00	4	10.40	23.43	552.87	ND	ND	0.3	5.2	20.6	98.3	17.4	5.59
2193	2010-04-29T08:00:00	4	7.28	18.33	733.65	ND	ND	0.1	171.3	21.1	93.4	19.4	1.02
2194	2010-04-29T09:00:00	12	7.68	25.43	1492.41	ND	ND	0.1	221.9	21.1	95	24.3	7.37
2195	2010-04-29T10:00:00	7	6.49	24.48	2148.17	ND	ND	1.1	21.5	21.4	91.8	118.2	0.76
2196	2010-04-29T11:00:00	11	7.97	31.89	3180.27	ND	ND	1.2	13.3	22	89.6	234	1.02
2197	2010-04-29T12:00:00	6	6.74	43.95	1950.61	ND	ND	0.6	8.3	23.7	81.3	507.6	0
2198	2010-04-29T13:00:00	8	6.89	41.31	1448.57	ND	ND	0.8	68	25.1	73.6	481.9	0
2199	2010-04-29T14:00:00	5	34.83	51.62	1283.51	ND	ND	1.4	37.9	25.8	70.6	450.1	0
2200	2010-04-29T15:00:00	4	62.66	82.66	1481.80	ND	ND	1.6	36.5	26.7	64.9	504.7	0
2201	2010-04-29T16:00:00	15	17.92	45.56	1094.54	ND	ND	2.3	70.8	25.4	73.8	87	0
2202	2010-04-29T17:00:00	38	12.02	30.57	975.07	ND	ND	1.7	44.7	24.5	79.9	103.6	0
2203	2010-04-29T18:00:00	22	14.75	48.70	1543.98	ND	ND	0.9	7.7	24.7	77	47.3	0
2204	2010-04-29T19:00:00	45	15.23	56.86	1819.68	ND	ND	0.4	326.5	24.4	79.6	1.2	0
2205	2010-04-29T20:00:00	57	26.12	64.15	1772.12	ND	ND	0.3	215.1	24.1	82.2	0	0
2206	2010-04-29T21:00:00	58	25.97	65.76	2033.02	ND	ND	0.9	232.2	23.4	80	0	0
2207	2010-04-29T22:00:00	38	32.63	55.17	3703.23	ND	ND	1.3	247.4	22.8	79.1	0	0
2208	2010-04-29T23:00:00	38	23.85	25.54	2160.58	ND	ND	1.5	245.6	22.5	76.4	0	0
2209	2010-04-30T00:00:00	26	17.46	9.66	2010.71	ND	ND	1.5	260.7	22.3	76.2	0	0
2210	2010-04-30T01:00:00	13	11.24	4.29	1044.41	ND	ND	1	312.5	22	80.2	0	0
2211	2010-04-30T02:00:00	19	8.30	0.13	226.81	ND	ND	0.8	335.4	21.5	85.9	0	0
2212	2010-04-30T03:00:00	47	6.45	9.75	577.40	ND	ND	0.5	0.4	20.9	93.4	0	0
2213	2010-04-30T04:00:00	39	8.17	17.07	1208.93	ND	ND	0.6	250.1	20.9	86.8	0	0
2214	2010-04-30T05:00:00	31	7.16	15.86	1242.83	ND	ND	0.5	272.6	21.1	83.8	0	0
2215	2010-04-30T06:00:00	22	8.25	6.12	814.04	ND	ND	0.1	174.1	21.3	81.7	0.1	0
2216	2010-04-30T07:00:00	45	6.86	1.10	475.18	ND	ND	0.2	55.3	21.4	88	30.4	0
2217	2010-04-30T08:00:00	71	7.09	6.61	905.41	ND	ND	0.1	294.9	22.1	86.2	129.8	0
2218	2010-04-30T09:00:00	118	9.57	22.27	2382.36	ND	ND	1	143.8	23.1	82.6	216.4	0
2219	2010-04-30T10:00:00	139	24.37	52.25	3130.33	ND	ND	1.1	122	24	80	392.3	0
2220	2010-04-30T11:00:00	95	33.30	105.34	3847.74	ND	ND	1.2	155.8	25.4	74.8	652.1	0
2221	2010-04-30T12:00:00	49	22.17	139.62	3074.35	ND	ND	0.8	160.5	27.1	62.1	884.7	0
2222	2010-04-30T13:00:00	39	24.96	68.19	1753.59	ND	ND	1.1	114.4	28.2	58.4	547.8	0
2223	2010-04-30T14:00:00	30	26.03	32.63	961.06	ND	ND	0.5	105.9	28.6	57.9	507.1	0
2224	2010-04-30T15:00:00	46	19.68	61.46	1379.74	ND	ND	0.7	156.9	28.9	56.3	336.9	0
2225	2010-04-30T16:00:00	35	14.81	41.63	1079.36	ND	ND	1.4	143.9	28.5	58.4	129	0
2226	2010-04-30T17:00:00	64	14.34	45.01	1205.42	ND	ND	0.9	14.8	28.4	58.7	76.8	0
2227	2010-04-30T18:00:00	40	13.46	71.97	1552.63	ND	ND	1.5	266.9	27.9	59.5	59.1	0
2228	2010-04-30T19:00:00	36	21.17	81.15	1492.22	ND	ND	1.9	272.1	26.7	63.4	1	0
2229	2010-04-30T20:00:00	19	18.08	41.52	1440.18	ND	ND	2.1	275	26.1	64.7	0	0
2230	2010-04-30T21:00:00	16	9.68	30.98	1747.75	ND	ND	1	290.1	25.9	64.5	0	0
2231	2010-04-30T22:00:00	10	7.62	30.30	1367.39	ND	ND	0.3	242.1	25.2	69.3	0	0
2232	2010-04-30T23:00:00	6	6.21	30.42	1192.23	ND	ND	1.3	197.8	24.5	77.6	0	0
2233	2010-05-01T00:00:00	4	6.85	28.30	1864.21	ND	ND	1.3	205	24	77.9	0	0
2234	2010-05-01T01:00:00	2	6.01	37.64	1769.73	ND	ND	0.2	327.6	23.8	73.8	0	0
2235	2010-05-01T02:00:00	2	5.14	27.03	1209.45	ND	ND	0.6	54.7	23.3	81.5	0	0
2236	2010-05-01T03:00:00	2	5.50	19.70	1161.85	ND	ND	0.5	109.7	22.8	85.5	0	0
2237	2010-05-01T04:00:00	3	7.00	20.15	1569.27	ND	ND	0.7	197.8	22.8	84.4	0	0
2238	2010-05-01T05:00:00	2	6.24	17.48	1228.12	ND	ND	1	200.6	22.8	84.5	0	0
2239	2010-05-01T06:00:00	4	5.10	12.60	727.78	ND	ND	0.4	171.7	22.9	84.6	0.4	0
2240	2010-05-01T07:00:00	3	3.80	13.61	659.77	ND	ND	0.5	167.9	22.9	86.3	20.3	0
2241	2010-05-01T08:00:00	6	4.68	14.29	1023.78	ND	ND	0.6	136.1	23.3	84.6	131.8	0
2242	2010-05-01T09:00:00	7	5.63	18.13	1446.62	ND	ND	0.9	121.8	24.9	76.6	396.7	0
2243	2010-05-01T10:00:00	8	5.34	24.91	1637.67	ND	ND	1	132.1	26	71.8	416.5	0
2244	2010-05-01T11:00:00	7	4.81	33.26	1310.37	ND	ND	0.9	111.7	27.2	66.1	445.2	0
2245	2010-05-01T12:00:00	8	7.60	37.40	1327.17	ND	ND	0.8	211.4	27.9	62.4	563.9	0
2246	2010-05-01T13:00:00	6	12.28	36.74	1249.30	ND	ND	1.1	127	29.1	57	596.9	0
2247	2010-05-01T14:00:00	4	11.87	17.20	952.32	ND	ND	1.4	3.8	28.9	57.3	131.1	0
2248	2010-05-01T15:00:00	2	10.19	39.65	1241.84	ND	ND	2.2	256.3	27.1	64.7	293.1	1.52
2249	2010-05-01T16:00:00	7	11.56	44.16	1096.00	ND	ND	2.8	281.8	28.4	57.2	440.2	0
2250	2010-05-01T17:00:00	4	6.41	13.26	845.83	ND	ND	3.6	267.4	27.9	56	153.6	0
2251	2010-05-01T18:00:00	3	5.29	7.34	682.49	ND	ND	2.3	192.7	24.5	75.3	35.1	0.25
2252	2010-05-01T19:00:00	2	3.58	2.14	651.90	ND	ND	1.5	133.2	22.9	84.5	0.3	1.27
2253	2010-05-01T20:00:00	2	5.20	20.53	978.28	ND	ND	0.8	23.4	21.9	93	0	2.79
2254	2010-05-01T21:00:00	2	6.20	46.75	1643.85	ND	ND	0.1	16.7	22.1	93.1	0	1.78
2255	2010-05-01T22:00:00	2	3.87	36.63	1236.56	ND	ND	1.4	195.3	22	92.1	0	0.25
2256	2010-05-01T23:00:00	2	2.08	35.28	1247.48	ND	ND	0.7	168.8	22	90.9	0	0
2257	2010-05-02T00:00:00	3	1.97	41.91	1780.50	ND	ND	0.9	138.4	21.6	93.4	0	0
2258	2010-05-02T01:00:00	2	2.75	33.42	1925.31	ND	ND	0.9	143.2	21.3	93.8	0	0
2259	2010-05-02T02:00:00	3	2.28	23.98	1436.86	ND	ND	0.7	166.3	21.3	94.9	0	0
2260	2010-05-02T03:00:00	3	1.09	16.93	905.11	ND	ND	0.6	142.2	21.3	95.1	0	0
2261	2010-05-02T04:00:00	4	1.37	12.61	791.97	ND	ND	0.6	123.7	21.3	95.2	0	0
2262	2010-05-02T05:00:00	3	1.81	14.27	905.11	ND	ND	0.2	172	21.4	94.9	0	0
2263	2010-05-02T06:00:00	4	1.99	14.48	939.37	ND	ND	0.4	176	21.5	94.1	0.2	0
2264	2010-05-02T07:00:00	3	1.58	12.14	883.08	ND	ND	0.5	145	21.5	94.3	21.8	0
2265	2010-05-02T08:00:00	5	2.25	11.50	973.65	ND	ND	0.6	141.1	21.6	94	122	0
2266	2010-05-02T09:00:00	5	2.54	11.40	1449.65	ND	ND	1	69.2	22.8	88.8	274.2	0
2267	2010-05-02T10:00:00	7	1.72	17.11	1466.92	ND	ND	1.3	65.7	23.6	84.3	417.5	0
2268	2010-05-02T11:00:00	8	1.36	29.32	1345.47	ND	ND	1.1	48.6	26.3	70.6	741.2	0
2269	2010-05-02T12:00:00	8	1.00	30.04	1208.14	ND	ND	1.8	75.5	27.5	65.1	730.4	0
2270	2010-05-02T13:00:00	7	1.22	22.35	970.38	ND	ND	1.8	57.8	28.5	61.3	764.7	0
2271	2010-05-02T14:00:00	9	1.72	26.35	1008.38	ND	ND	1.8	28.5	29.4	57.7	778.9	0
2272	2010-05-02T15:00:00	6	2.10	19.11	860.27	ND	ND	1.7	322.1	29.8	53.3	387.1	0
2273	2010-05-02T16:00:00	5	4.55	18.56	803.20	ND	ND	3.4	274.1	29.2	52.2	403.7	0
2274	2010-05-02T17:00:00	3	7.36	7.87	569.26	ND	ND	3.1	283.3	28.4	52.6	128.6	0
2275	2010-05-02T18:00:00	3	12.96	ND	486.64	ND	ND	2.6	268.9	27.6	55.4	47.9	0
2276	2010-05-02T19:00:00	2	5.92	ND	450.69	ND	ND	3	260.2	26.1	62	0.7	0
2277	2010-05-02T20:00:00	1	4.26	1.30	459.93	ND	ND	2.2	187.9	25	72.5	0	0
2278	2010-05-02T21:00:00	1	3.51	6.69	572.80	ND	ND	1.5	143.7	23.4	84.9	0	1.52
2279	2010-05-02T22:00:00	1	2.97	32.31	1082.48	ND	ND	1.4	173.5	22.6	89	0	2.03
2280	2010-05-02T23:00:00	2	3.33	41.66	1443.20	ND	ND	0.8	141.7	22.1	92.2	0	0.76
2281	2010-05-03T00:00:00	2	2.52	24.19	1168.49	ND	ND	1.2	149.9	21.5	96	0	7.37
2282	2010-05-03T01:00:00	2	2.23	17.87	1007.62	ND	ND	1.1	157	21.2	97.2	0	7.37
2283	2010-05-03T02:00:00	4	0.78	7.87	610.74	ND	ND	0.7	153.6	21.2	96.8	0	2.54
2284	2010-05-03T03:00:00	3	0.62	0.74	520.26	ND	ND	1.2	137.2	21.1	97.2	0	6.35
2285	2010-05-03T04:00:00	3	0.28	ND	452.25	ND	ND	1.2	116.3	20.6	98.6	0	22.1
2286	2010-05-03T05:00:00	3	0.18	ND	316.03	ND	ND	1.2	90.8	19.9	100	0	34.8
2287	2010-05-03T06:00:00	3	0.10	ND	213.94	ND	ND	0.7	114.9	19.8	100	0	9.65
2288	2010-05-03T07:00:00	3	0.15	0.61	438.99	ND	ND	0.9	180.8	20	100	9.7	3.81
2289	2010-05-03T08:00:00	5	1.06	9.70	765.94	ND	ND	0.8	196.8	20.6	96.4	85.9	1.27
2290	2010-05-03T09:00:00	6	1.47	16.13	1377.00	ND	ND	1.1	140	21.6	91	181.8	0
2291	2010-05-03T10:00:00	7	2.02	20.20	1710.13	ND	ND	0.7	165.9	22.2	87.5	215.9	0
2292	2010-05-03T11:00:00	7	4.26	43.45	2553.40	ND	ND	0.5	209.7	23.2	82.2	354.2	0
2293	2010-05-03T12:00:00	ND	ND	ND	ND	ND	ND	0.6	174	25.5	70.4	724	0
2294	2010-05-03T13:00:00	ND	ND	ND	ND	ND	ND	0.6	80.6	26.5	66.5	402.5	0
2295	2010-05-03T14:00:00	3	5.32	ND	1681.01	ND	ND	1.4	75.8	26.7	67.1	277.8	0
2296	2010-05-03T15:00:00	32	5.27	68.80	1785.82	ND	ND	1.5	86.7	26.7	67.8	224.8	0
2297	2010-05-03T16:00:00	36	5.16	61.41	1613.00	ND	ND	0.6	147.1	26.3	67.5	50.3	0
2298	2010-05-03T17:00:00	39	7.26	59.08	1921.51	ND	ND	2.4	220.3	22.5	85.8	7.9	33.78
2299	2010-05-03T18:00:00	48	9.56	58.76	1953.91	ND	ND	1.1	206.3	21.3	92.5	8.4	7.87
2300	2010-05-03T19:00:00	34	6.47	40.25	1900.72	ND	ND	0.3	144.1	22	89.8	0.2	3.3
2301	2010-05-03T20:00:00	18	6.67	50.53	2517.65	ND	ND	0.7	14.3	22.1	90.9	0	1.27
2302	2010-05-03T21:00:00	24	9.78	45.56	4390.36	ND	ND	0.7	52.7	21.9	91.2	0	0
2303	2010-05-03T22:00:00	19	12.08	46.78	4614.12	ND	ND	0.9	43.2	21.4	92.9	0	0
2304	2010-05-03T23:00:00	25	10.46	46.31	3700.88	ND	ND	0.7	31	21.5	92.6	0	0
2305	2010-05-04T00:00:00	13	4.82	25.41	1449.15	ND	ND	1.1	90.2	21.1	95.5	0	4.57
2306	2010-05-04T01:00:00	28	4.42	22.06	1175.84	ND	ND	0.9	93.6	20.2	98.2	0	11.68
2307	2010-05-04T02:00:00	14	5.13	15.90	969.35	ND	ND	1.1	75.7	19.8	99.1	0	31.24
2308	2010-05-04T03:00:00	8	4.92	2.11	540.30	ND	ND	1.7	70.3	19.1	100	0	38.1
2309	2010-05-04T04:00:00	5	3.44	ND	437.94	ND	ND	1.3	355.2	18.6	100	0	19.3
2310	2010-05-04T05:00:00	4	2.23	ND	437.19	ND	ND	1	1.5	18.8	100	0	12.95
2311	2010-05-04T06:00:00	2	2.10	ND	358.97	ND	ND	0.4	273.7	19.4	96.1	0.2	0.76
2312	2010-05-04T07:00:00	2	1.44	1.64	505.84	ND	ND	0.8	144.1	19.8	95.4	34.9	0
2313	2010-05-04T08:00:00	3	1.44	4.24	720.39	ND	ND	1	157.9	20.4	92.7	149.4	0
2314	2010-05-04T09:00:00	19	6.09	33.45	3101.79	ND	ND	0.5	105.6	21.4	86.2	281.4	0
2315	2010-05-04T10:00:00	20	8.44	55.28	3553.75	ND	ND	0.9	80.2	22.3	81.9	330.5	0
2316	2010-05-04T11:00:00	44	9.40	50.86	2066.11	ND	ND	0.7	72.4	23.1	78.1	304.1	0
2317	2010-05-04T12:00:00	23	10.18	54.50	1878.20	ND	ND	0.7	60.9	23.8	74.6	316.7	0
2318	2010-05-04T13:00:00	20	7.28	20.15	1255.09	ND	ND	0.9	76.4	24.4	72.2	300.3	0
2319	2010-05-04T14:00:00	11	6.88	38.34	1417.69	ND	ND	0.8	356.5	24.9	70	330.4	0
2320	2010-05-04T15:00:00	27	8.43	49.82	1454.43	ND	ND	1	52.3	25.6	67.5	312.4	0
2321	2010-05-04T16:00:00	18	7.33	32.69	1170.87	ND	ND	1	51.6	25.9	66.5	286.9	0
2322	2010-05-04T17:00:00	48	8.54	62.04	1689.13	ND	ND	0.9	29	26	67.6	99.1	0
2323	2010-05-04T18:00:00	54	11.44	58.62	1482.79	ND	ND	1.1	18.4	25.6	68.6	22	0
2324	2010-05-04T19:00:00	98	30.56	99.61	1882.58	ND	ND	0.3	52.7	25.3	69.2	0.9	0
2325	2010-05-04T20:00:00	96	72.23	111.35	2316.46	ND	ND	0.8	220	24.6	76.1	0.4	0
2326	2010-05-04T21:00:00	109	118.75	126.62	3832.63	ND	ND	1.1	241	24.2	76	0.3	0
2327	2010-05-04T22:00:00	71	43.64	121.14	4204.52	ND	ND	2.2	270	24.4	69.5	0.3	0
2328	2010-05-04T23:00:00	56	22.07	69.43	2492.40	ND	ND	0.2	57.4	23.9	77.4	0.3	0
2329	2010-05-05T00:00:00	59	14.59	9.93	1129.96	ND	ND	0.1	241	23.5	80.3	0.3	0
2330	2010-05-05T01:00:00	54	11.99	43.40	2313.88	ND	ND	0.6	217.1	22.8	84.2	0.3	0
2331	2010-05-05T02:00:00	48	10.87	35.95	2046.87	ND	ND	0.5	249.9	22.6	84.8	0.3	0
2332	2010-05-05T03:00:00	32	7.67	36.02	2034.12	ND	ND	0.3	240.6	22.7	81.4	0.2	0
2333	2010-05-05T04:00:00	17	4.42	29.79	1386.85	ND	ND	0.3	211	22.3	84.1	0.2	0
2334	2010-05-05T05:00:00	25	4.08	3.53	794.66	ND	ND	0.5	184.1	22.1	86.4	0.1	0
2335	2010-05-05T06:00:00	22	3.35	4.05	760.09	ND	ND	0.2	103.8	21.9	92.5	0.5	0
2336	2010-05-05T07:00:00	53	2.33	13.07	940.96	ND	ND	0.4	73.6	22.1	92.6	47.6	0
2337	2010-05-05T08:00:00	59	2.70	24.32	1440.76	ND	ND	0.7	82.2	23.4	83.7	196.2	0
2338	2010-05-05T09:00:00	81	3.41	31.06	2176.36	ND	ND	1.2	114	25	74	463.8	0
2339	2010-05-05T10:00:00	59	4.66	55.15	2703.63	ND	ND	1.2	111.4	26.2	67	479.4	0
2340	2010-05-05T11:00:00	64	6.00	62.88	2001.38	ND	ND	0.8	131.4	27.6	60.7	723.2	0
2341	2010-05-05T12:00:00	33	15.20	46.98	1548.51	ND	ND	1.2	65.6	28.6	56.8	882.8	0
2342	2010-05-05T13:00:00	46	18.75	33.66	1310.18	ND	ND	1.3	68.8	29.1	55.6	613.4	0
2343	2010-05-05T14:00:00	28	14.34	33.05	1184.60	ND	ND	1.1	94.1	29.5	55	491.8	0
2344	2010-05-05T15:00:00	40	10.61	39.44	1232.68	ND	ND	0.6	60.3	30.4	52.7	515	0
2345	2010-05-05T16:00:00	41	11.28	38.37	1259.68	ND	ND	1.8	291	31.1	48.5	518.2	0
2346	2010-05-05T17:00:00	29	15.62	42.71	1239.20	ND	ND	1.9	276.8	30.1	50.2	137	0
2347	2010-05-05T18:00:00	16	13.09	14.98	990.43	ND	ND	3.7	189.5	25.9	61.7	9.2	0
2348	2010-05-05T19:00:00	41	5.39	9.05	1126.09	ND	ND	1.6	193	23.8	70.4	2.3	0
2349	2010-05-05T20:00:00	32	5.19	37.14	1528.93	ND	ND	0.5	62.1	24.5	67.1	0	0
2350	2010-05-05T21:00:00	37	5.89	50.13	2012.89	ND	ND	0.6	127.8	24.3	70.5	0.1	0
2351	2010-05-05T22:00:00	34	8.86	65.54	2594.42	ND	ND	1	192.2	23.4	77.1	0.2	0
2352	2010-05-05T23:00:00	56	13.34	64.07	3247.45	ND	ND	0.5	183.2	23.5	76.7	0	0
2353	2010-05-06T00:00:00	36	8.19	42.20	2370.87	ND	ND	0.5	36.4	23.2	79.1	0	0
2354	2010-05-06T01:00:00	63	8.49	46.37	2994.75	ND	ND	0.8	7.4	22.8	81.4	0.1	0
2355	2010-05-06T02:00:00	66	8.27	34.40	2399.39	ND	ND	0.2	150.6	22.9	81	0.2	0
2356	2010-05-06T03:00:00	89	6.30	25.81	1581.17	ND	ND	0.5	71.9	22.3	84.6	0.2	0
2357	2010-05-06T04:00:00	52	9.19	29.79	1748.25	ND	ND	0.3	133.5	22.4	82.9	0.2	0
2358	2010-05-06T05:00:00	65	6.03	11.59	1067.48	ND	ND	0.6	189.1	21.2	92.9	0.1	22.61
2359	2010-05-06T06:00:00	34	5.33	10.64	836.94	ND	ND	1.3	228.9	20.4	99.5	0	40.13
2360	2010-05-06T07:00:00	25	4.82	2.30	755.71	ND	ND	1.3	169	20.7	98.5	8.3	0.25
2361	2010-05-06T08:00:00	13	3.00	4.10	903.26	ND	ND	1.5	186.3	21.1	94.4	30	0
2362	2010-05-06T09:00:00	16	4.91	19.55	2385.60	ND	ND	1.3	175.8	21.4	93.3	83.5	0
2363	2010-05-06T10:00:00	10	4.66	15.18	2320.12	ND	ND	2	164.5	22.3	88.3	320	0
2364	2010-05-06T11:00:00	24	7.37	26.20	2452.09	ND	ND	1.5	189.7	24.1	78.3	621.1	0
2365	2010-05-06T12:00:00	12	7.78	22.38	1656.11	ND	ND	1.3	159.5	26.1	69.6	748	0
2366	2010-05-06T13:00:00	12	9.49	9.68	1172.83	ND	ND	1.3	119.4	26.9	65.6	494.6	0
2367	2010-05-06T14:00:00	12	5.96	13.84	1060.68	ND	ND	0.2	129.1	27.9	60	530	0
2368	2010-05-06T15:00:00	23	6.22	39.20	1584.76	ND	ND	1	71.7	28.5	57.5	545.3	0
2369	2010-05-06T16:00:00	13	6.02	19.04	1182.24	ND	ND	1	63.2	28.7	56.5	338.6	0
2370	2010-05-06T17:00:00	15	7.08	37.66	1275.81	ND	ND	0.6	85.2	29.5	55	299.7	0
2371	2010-05-06T18:00:00	31	6.01	41.11	1348.97	ND	ND	1.2	18.5	28.7	59.7	77.1	0
2372	2010-05-06T19:00:00	60	9.44	60.90	1646.96	ND	ND	0.5	279.5	27.4	63	2	0
2373	2010-05-06T20:00:00	65	22.40	88.46	2078.70	ND	ND	1	268.4	26.3	65.2	0.3	0
2374	2010-05-06T21:00:00	46	32.00	73.53	2128.62	ND	ND	2.1	270.1	25.5	68.1	0.3	0
2375	2010-05-06T22:00:00	24	9.42	29.34	2042.60	ND	ND	1.5	289.5	25.3	68.6	0.3	0
2376	2010-05-06T23:00:00	23	4.96	15.10	1284.37	ND	ND	0.6	156.4	24.2	78.3	0.3	0
2377	2010-05-07T00:00:00	38	3.58	8.38	982.58	ND	ND	1.4	217.2	24.3	74.3	0.3	0
2378	2010-05-07T01:00:00	31	6.25	21.42	2057.25	ND	ND	0.5	202	23.7	79.5	0.3	0
2379	2010-05-07T02:00:00	16	3.70	25.30	1049.36	ND	ND	0.7	187.6	22.9	85.5	0.2	0
2380	2010-05-07T03:00:00	22	2.00	24.07	1251.29	ND	ND	0.9	211.4	22.7	84.8	0.2	0
2381	2010-05-07T04:00:00	20	1.38	16.78	1091.29	ND	ND	0.6	284.5	22.5	81.6	0.1	0
2382	2010-05-07T05:00:00	20	1.66	6.09	954.24	ND	ND	0.3	31.4	22.1	83.5	0	0
2383	2010-05-07T06:00:00	26	1.50	4.96	782.78	ND	ND	0.4	22.1	21.9	89.1	0.5	0
2384	2010-05-07T07:00:00	52	1.82	2.93	929.63	ND	ND	0.4	231.8	22.4	83.1	64.6	0
2385	2010-05-07T08:00:00	54	3.92	10.10	1760.20	ND	ND	0.5	142.8	23.7	81.7	229.3	0
2386	2010-05-07T09:00:00	92	9.89	16.43	2064.50	ND	ND	0.9	149.3	25.3	72.7	425.9	0
2387	2010-05-07T10:00:00	97	11.46	73.17	3543.49	ND	ND	0.9	144.5	26.8	67.2	640.6	0
2388	2010-05-07T11:00:00	62	13.00	78.41	2351.16	ND	ND	1.3	133.7	28.4	62.1	806.3	0
2389	2010-05-07T12:00:00	32	19.66	48.56	1541.04	ND	ND	1.3	158.4	29	57.9	635	0
2390	2010-05-07T13:00:00	31	15.69	40.75	1369.96	ND	ND	1.2	83.1	30.2	54.6	774.6	0
2391	2010-05-07T14:00:00	29	11.86	15.75	1142.29	ND	ND	1.2	63.7	30.8	53.1	587.2	0
2392	2010-05-07T15:00:00	40	10.42	35.69	1424.84	ND	ND	0.8	50.9	29.9	55.8	166.5	0
2393	2010-05-07T16:00:00	47	11.32	41.20	1374.04	ND	ND	2.7	274.6	29.4	55	258	0
2394	2010-05-07T17:00:00	44	12.07	46.90	1522.90	ND	ND	3.4	278.7	29.8	52.8	334.7	0
2395	2010-05-07T18:00:00	22	7.59	15.41	1385.23	ND	ND	2.9	280.4	28.7	55.6	39.6	0
2396	2010-05-07T19:00:00	29	5.01	8.81	1194.63	ND	ND	3.4	274.3	28	57.1	1.1	0
2397	2010-05-07T20:00:00	17	4.55	13.91	1353.85	ND	ND	3.6	273.2	27.6	58.9	0.4	0
2398	2010-05-07T21:00:00	21	4.33	ND	1444.50	ND	ND	0.8	277.4	27.4	61.1	0.5	0
2399	2010-05-07T22:00:00	11	3.14	ND	993.16	ND	ND	2	271	26.6	65.4	0.5	0
2400	2010-05-07T23:00:00	20	3.82	ND	1405.15	ND	ND	1.6	284	26.1	66.7	0.5	0
2401	2010-05-08T00:00:00	11	2.58	ND	896.87	ND	ND	1.4	215.7	25.8	68.6	0.4	0
2402	2010-05-08T01:00:00	21	2.34	ND	861.51	ND	ND	1.4	278.7	25.8	66.9	0.4	0
2403	2010-05-08T02:00:00	11	3.05	ND	1079.76	ND	ND	0.9	103.7	24.8	77.7	0.4	0
2404	2010-05-08T03:00:00	7	2.51	ND	755.59	ND	ND	1	179.4	24	82.7	0.4	0
2405	2010-05-08T04:00:00	4	1.57	ND	970.50	ND	ND	0.3	150.1	24.1	83.5	0.4	0
2406	2010-05-08T05:00:00	14	1.36	ND	810.92	ND	ND	1	61.8	23.8	85.4	0.4	0
2407	2010-05-08T06:00:00	19	1.41	ND	912.80	ND	ND	0.2	93	23	89.9	0.9	0
2408	2010-05-08T07:00:00	33	1.09	ND	1024.13	ND	ND	0.5	234.5	23.2	83.2	39.7	0
2409	2010-05-08T08:00:00	32	0.52	ND	1070.37	ND	ND	0.6	56	24.5	79.2	122.8	0
2410	2010-05-08T09:00:00	69	1.94	ND	1841.33	ND	ND	0.9	42.7	25.3	76.5	247.2	0
2411	2010-05-08T10:00:00	80	4.56	ND	2683.42	ND	ND	1.6	32.6	27.1	64.7	570.6	0
2412	2010-05-08T11:00:00	63	9.87	ND	2676.54	ND	ND	1.3	70.7	28	62.7	483	0
2413	2010-05-08T12:00:00	58	43.62	ND	1342.28	ND	ND	1	85.4	28.3	63	355.3	0
2414	2010-05-08T13:00:00	56	26.04	ND	1424.70	ND	ND	0.9	119.5	29	60.6	438	0
2415	2010-05-08T14:00:00	56	21.00	ND	1660.21	ND	ND	1.3	92.4	29.1	60.3	376.8	0
2416	2010-05-08T15:00:00	64	21.83	ND	1916.26	ND	ND	0.9	61.9	30.4	56.8	648.5	0
2417	2010-05-08T16:00:00	39	16.75	ND	1982.82	ND	ND	0.7	4.5	30.9	55.4	432.9	0
2418	2010-05-08T17:00:00	42	14.96	ND	1658.97	ND	ND	1.5	266.5	31	51.5	280.1	0
2419	2010-05-08T18:00:00	24	13.69	ND	1355.66	ND	ND	3	271.4	29.6	52.6	81.4	0
2420	2010-05-08T19:00:00	26	11.41	ND	1349.42	ND	ND	2.7	281.7	28.3	56.1	3	0
2421	2010-05-08T20:00:00	22	5.14	ND	1297.29	ND	ND	3.1	263.5	27.4	59.8	0.5	0
2422	2010-05-08T21:00:00	18	4.52	ND	1535.93	ND	ND	3.2	269	27	61.4	0.4	0
2423	2010-05-08T22:00:00	10	3.72	ND	1476.22	ND	ND	0.4	51.8	26.2	69	0.5	0
2424	2010-05-08T23:00:00	30	2.68	ND	1127.22	ND	ND	0.3	13.6	25.8	70.5	0.5	0
2425	2010-05-09T00:00:00	16	5.65	ND	2067.63	ND	ND	0.2	267.8	25.6	71.5	0.5	0
2426	2010-05-09T01:00:00	29	7.98	ND	2112.16	ND	ND	0.6	152.7	25.5	72.2	0.4	0
2427	2010-05-09T02:00:00	24	11.36	ND	2180.31	ND	ND	0.5	139.8	24.5	77.8	0.4	0
2428	2010-05-09T03:00:00	41	8.97	ND	1990.01	ND	ND	0.9	134.3	24.2	80.3	0.4	0
2429	2010-05-09T04:00:00	32	7.13	ND	1371.04	ND	ND	1.8	249.2	22.8	89.3	0.4	14.48
2430	2010-05-09T05:00:00	22	4.84	ND	1034.81	ND	ND	1.4	246.5	23.3	82.5	0.1	0
2431	2010-05-09T06:00:00	12	1.98	ND	854.30	ND	ND	0.7	326.3	23.2	87.6	0.5	0
2432	2010-05-09T07:00:00	14	2.03	ND	671.83	ND	ND	0.7	255.4	23.1	84.4	42.2	0
2433	2010-05-09T08:00:00	8	2.06	ND	1058.62	ND	ND	1.1	242.2	23.6	80	124.5	0
2434	2010-05-09T09:00:00	14	2.58	ND	957.79	ND	ND	0.4	219	25.2	72.7	352.6	0
2435	2010-05-09T10:00:00	15	2.91	ND	905.64	ND	ND	1	98.5	27.1	66.5	515	0
2436	2010-05-09T11:00:00	19	4.96	ND	819.11	ND	ND	1.2	124.8	27.2	67.6	391.1	0
2437	2010-05-09T12:00:00	11	13.30	ND	1442.58	ND	ND	0.9	145.6	29.1	61.2	753.5	0
2438	2010-05-09T13:00:00	32	13.04	ND	1428.48	ND	ND	1.2	176.6	29.6	60.1	679.8	0
2439	2010-05-09T14:00:00	17	10.30	ND	1477.38	ND	ND	1	120.8	30.7	55.4	687.9	0
2440	2010-05-09T15:00:00	34	5.29	ND	1272.60	ND	ND	0.9	107.9	31.5	52.1	586.9	0
2441	2010-05-09T16:00:00	29	1.98	ND	1229.13	ND	ND	0.7	66.4	31.2	52.7	247	0
2442	2010-05-09T17:00:00	30	6.61	ND	1344.86	ND	ND	1.4	309.6	30.3	56.2	119.5	0
2443	2010-05-09T18:00:00	19	6.43	ND	1224.28	ND	ND	1.6	286.5	29.7	56.3	65	0
2444	2010-05-09T19:00:00	28	4.07	ND	965.85	ND	ND	2.2	272.7	28.7	58.1	2.6	0
2445	2010-05-09T20:00:00	23	2.12	ND	835.08	ND	ND	3.1	264.9	27.6	62.2	0.4	0
2446	2010-05-09T21:00:00	13	1.35	ND	878.26	ND	ND	2.8	276.5	27.3	63	0.4	0
2447	2010-05-09T22:00:00	8	0.84	ND	888.93	ND	ND	2.2	275.3	27.2	63.9	0.4	0
2448	2010-05-09T23:00:00	9	0.71	ND	923.25	ND	ND	1.5	270	26.7	66.3	0.4	0
2449	2010-05-10T00:00:00	5	ND	ND	806.50	ND	ND	1.5	257.5	26.8	66	0.4	0
2450	2010-05-10T01:00:00	2	0.87	ND	1117.95	ND	ND	0.7	214.1	26.4	69	0.4	0
2451	2010-05-10T02:00:00	2	0.24	ND	828.71	ND	ND	0.6	89.3	25.4	78.7	0.5	0
2452	2010-05-10T03:00:00	17	1.60	ND	837.42	ND	ND	0.8	233	24.6	79.9	0.4	7.87
2453	2010-05-10T04:00:00	10	0.99	ND	1132.63	ND	ND	3	267.5	22.1	85.3	0.4	7.87
2454	2010-05-10T05:00:00	14	ND	ND	782.78	ND	ND	1.7	241.8	23.3	76.6	0.1	0
2455	2010-05-10T06:00:00	9	ND	ND	489.80	ND	ND	0.9	277	23.3	78.4	0.3	0
2456	2010-05-10T07:00:00	11	0.13	ND	558.15	ND	ND	0.5	35.4	23.2	83	10.2	0
2457	2010-05-10T08:00:00	36	2.81	ND	797.08	ND	ND	1.1	254.6	23.5	80.2	82.8	0
2458	2010-05-10T09:00:00	39	10.01	ND	1800.95	ND	ND	0.8	242.4	25	73.5	385.6	0
2459	2010-05-10T10:00:00	36	16.06	ND	2485.97	ND	ND	1	176.8	26.9	67.1	373.9	0
2460	2010-05-10T11:00:00	48	16.06	ND	2743.93	ND	ND	1.3	165.4	27.2	67.4	333.7	0
2461	2010-05-10T12:00:00	60	19.19	ND	2469.70	ND	ND	1.5	153	27.6	67.3	404.2	0
2462	2010-05-10T13:00:00	70	20.88	ND	2137.86	ND	ND	1.8	155.6	27.7	67.1	335.2	0
2463	2010-05-10T14:00:00	56	25.65	ND	1872.70	ND	ND	1.4	197.3	28.5	63.8	533.8	0
2464	2010-05-10T15:00:00	61	21.53	ND	2121.08	ND	ND	1.1	176	29.9	55.4	565.3	0
2465	2010-05-10T16:00:00	45	14.65	ND	1537.07	ND	ND	1.1	145.4	29.9	55.9	373.7	0
2466	2010-05-10T17:00:00	49	12.62	ND	1211.02	ND	ND	1.1	77.1	30.1	56.1	225.1	0
2467	2010-05-10T18:00:00	55	9.35	ND	1386.60	ND	ND	1.1	287.7	28.9	58.8	54.3	0
2468	2010-05-10T19:00:00	54	12.24	ND	2297.99	ND	ND	2.4	273.7	27.6	61	1.8	0
2469	2010-05-10T20:00:00	40	20.56	ND	1733.40	ND	ND	2.5	270.7	26.9	63.3	0.5	0
2470	2010-05-10T21:00:00	33	7.17	ND	1648.66	ND	ND	2.3	271	26.7	63.9	0.4	0
2471	2010-05-10T22:00:00	18	3.32	ND	1244.31	ND	ND	0.7	51.2	25.6	72.5	0.5	0
2472	2010-05-10T23:00:00	38	1.86	ND	1067.56	ND	ND	0.4	69.3	25.4	73.4	0.5	0
2473	2010-05-11T00:00:00	25	5.59	ND	1938.68	ND	ND	0.5	141.9	24.9	74.6	0.4	0
2474	2010-05-11T01:00:00	43	16.74	ND	1855.26	ND	ND	0.7	118.9	24.3	78	0.5	0
2475	2010-05-11T02:00:00	32	14.27	ND	1508.65	ND	ND	0.4	205.3	23.8	81.1	0.5	0
2476	2010-05-11T03:00:00	36	6.50	ND	1118.17	ND	ND	0.5	163.1	23.9	83.6	0.4	0
2477	2010-05-11T04:00:00	21	3.71	ND	844.62	ND	ND	0.4	78.3	23.5	83.6	0.5	0
2478	2010-05-11T05:00:00	49	1.77	ND	786.49	ND	ND	0.6	194.7	23.4	84.1	0.4	0
2479	2010-05-11T06:00:00	33	1.62	ND	1025.51	ND	ND	0.7	208.2	23.1	85.4	1	0
2480	2010-05-11T07:00:00	39	5.26	ND	1024.47	ND	ND	0.4	52.1	23.2	85.2	45.1	0
2481	2010-05-11T08:00:00	44	4.32	ND	1036.21	ND	ND	1	61.4	23.7	81.9	131.1	0
2482	2010-05-11T09:00:00	87	6.31	ND	2429.50	ND	ND	0.3	104.8	25.2	74.8	299.4	0
2483	2010-05-11T10:00:00	73	12.51	ND	2969.11	ND	ND	0.8	85.8	27.1	67.2	535.2	0
2484	2010-05-11T11:00:00	73	18.71	ND	2180.46	ND	ND	0.9	84.7	28.3	62.7	561.8	0
2485	2010-05-11T12:00:00	87	24.59	ND	1888.02	ND	ND	1.4	52.7	29.3	58.9	682.4	0
2486	2010-05-11T13:00:00	61	41.01	ND	1731.59	ND	ND	1.3	63.4	29.6	57.1	495.5	0
2487	2010-05-11T14:00:00	51	31.50	ND	1547.18	ND	ND	0.9	149.5	30.2	56	331.4	0
2488	2010-05-11T15:00:00	59	17.44	ND	1118.97	ND	ND	1.8	154.8	29.8	59.7	292.4	0
2489	2010-05-11T16:00:00	58	14.16	ND	1443.43	ND	ND	2.5	157.9	29.3	61.3	223.7	0
2490	2010-05-11T17:00:00	66	9.73	ND	1812.94	ND	ND	1.8	187.9	28.8	61.9	97.9	0
2491	2010-05-11T18:00:00	62	5.68	ND	1925.96	ND	ND	0.8	297.2	28.1	59.2	17.7	0
2492	2010-05-11T19:00:00	59	8.07	ND	1678.41	ND	ND	1.5	39.8	26.1	64.3	0.7	0
2493	2010-05-11T20:00:00	55	12.81	ND	1690.26	ND	ND	0.5	101.5	25	69.8	0.5	0
2494	2010-05-11T21:00:00	102	49.73	ND	2875.47	ND	ND	0.8	64.7	24.8	71.8	0.5	0
2495	2010-05-11T22:00:00	74	39.91	ND	2804.85	ND	ND	0.6	49.1	24.3	75.1	0.5	0
2496	2010-05-11T23:00:00	74	21.70	ND	3063.02	ND	ND	0.7	64.6	24.3	75.6	0.4	0
2497	2010-05-12T00:00:00	121	16.57	ND	2388.70	ND	ND	0.1	117.1	24.3	76.4	0.5	0
2498	2010-05-12T01:00:00	133	22.72	ND	2240.12	ND	ND	0.8	162.7	24.3	76	0.4	0
2499	2010-05-12T02:00:00	87	37.85	ND	2057.25	ND	ND	0.9	146.8	24.1	79.7	0.4	0
2500	2010-05-12T03:00:00	75	22.70	ND	1621.85	ND	ND	0.8	12.3	23.1	87.5	0.4	1.78
2501	2010-05-12T04:00:00	42	10.73	ND	1639.16	ND	ND	1	11.8	22.1	92.9	0.4	2.03
2502	2010-05-12T05:00:00	54	5.35	ND	1247.90	ND	ND	0.8	67.7	21.9	93	0.3	0.25
2503	2010-05-12T06:00:00	29	5.19	ND	1201.71	ND	ND	0.6	76.6	21.4	91.7	0.2	0
2504	2010-05-12T07:00:00	42	8.46	ND	1222.31	ND	ND	0.6	184.5	21.8	90.9	20.2	0
2505	2010-05-12T08:00:00	25	9.07	ND	1257.97	ND	ND	0.9	154.9	22.4	89.7	73.7	0
2506	2010-05-12T09:00:00	69	8.88	ND	2100.88	ND	ND	0.9	136.8	23.1	87.1	170	0
2507	2010-05-12T10:00:00	79	10.18	ND	3574.27	ND	ND	1	123.4	23.9	83.3	285	0
2508	2010-05-12T11:00:00	77	9.45	ND	3812.20	ND	ND	0.7	142.9	24.9	79.3	274	0
2509	2010-05-12T12:00:00	69	4.92	ND	2416.42	ND	ND	1	62.3	25.3	77.9	158.3	0
2510	2010-05-12T13:00:00	70	ND	ND	ND	ND	ND	0.7	61.7	25.2	78.2	215.3	0
2511	2010-05-12T14:00:00	47	ND	ND	ND	ND	ND	0.5	158.3	26.4	72.5	364.6	0
2512	2010-05-12T15:00:00	54	22.38	ND	2255.94	ND	ND	0.6	104.9	27.4	65.5	356.1	0
2513	2010-05-12T16:00:00	41	13.47	ND	1917.02	ND	ND	1.4	69.3	27.4	64.9	230.9	0
2514	2010-05-12T17:00:00	50	11.81	ND	2113.35	ND	ND	0.8	116.4	27.6	63.5	161.3	0
2515	2010-05-12T18:00:00	64	16.07	ND	2392.10	ND	ND	0.8	163.4	27.2	63.4	55.4	0
2516	2010-05-12T19:00:00	67	16.87	ND	2308.13	ND	ND	0.8	166.4	26.6	68.1	1	0
2517	2010-05-12T20:00:00	79	13.09	ND	2706.63	ND	ND	1.2	252.7	25.9	73.8	0	0
2518	2010-05-12T21:00:00	87	13.67	ND	3539.13	ND	ND	0.4	280.8	25.7	73.5	0	0
2519	2010-05-12T22:00:00	90	11.00	ND	3720.49	ND	ND	0.3	284.1	25.7	74.2	0	0
2520	2010-05-12T23:00:00	87	8.56	ND	3042.99	ND	ND	0.3	72.2	25.1	76.5	0	0
2521	2010-05-13T00:00:00	71	8.44	ND	3266.08	ND	ND	0.4	136.4	24.4	81.5	0	0
2522	2010-05-13T01:00:00	69	9.41	ND	3189.81	ND	ND	1.1	207.4	24	83.2	0	0
2523	2010-05-13T02:00:00	46	6.69	ND	2055.17	ND	ND	1	237.9	23.7	81.5	0	0
2524	2010-05-13T03:00:00	47	5.27	ND	1642.48	ND	ND	1.3	242.4	23.5	76.9	0	0
2525	2010-05-13T04:00:00	24	3.99	ND	1447.60	ND	ND	0.6	261.6	23.3	76.9	0	0
2526	2010-05-13T05:00:00	17	2.97	ND	1355.50	ND	ND	0.4	269.9	22.7	83.9	0	0
2527	2010-05-13T06:00:00	26	1.74	ND	1148.13	ND	ND	0.2	356.8	22.7	81.9	0.7	0
2528	2010-05-13T07:00:00	42	3.20	ND	1330.02	ND	ND	0	93.9	22.7	87.6	71.1	0
2529	2010-05-13T08:00:00	86	4.47	ND	1568.74	ND	ND	0.4	149.8	24.1	80	145.8	0
2530	2010-05-13T09:00:00	90	14.18	ND	3118.06	ND	ND	1	145.8	25.3	74.1	392.6	0
2531	2010-05-13T10:00:00	71	26.12	ND	2866.90	ND	ND	0.8	152.8	27.1	66.2	636.4	0
2532	2010-05-13T11:00:00	72	16.62	ND	2515.02	ND	ND	1	90.7	28.6	59.6	638.5	0
2533	2010-05-13T12:00:00	48	18.96	ND	1669.60	ND	ND	1.4	75.2	29.7	56.1	732.2	0
2534	2010-05-13T13:00:00	60	15.52	ND	1536.05	ND	ND	1.5	76.7	30.5	53.3	781.2	0
2535	2010-05-13T14:00:00	50	12.46	ND	1726.79	ND	ND	1.6	66.8	31	51.9	610.2	0
2536	2010-05-13T15:00:00	74	12.56	ND	1717.95	ND	ND	1.1	22.7	31.9	50.4	402.4	0
2537	2010-05-13T16:00:00	61	18.77	ND	1687.87	ND	ND	2.9	282.4	31.3	50.5	408.2	0
2538	2010-05-13T17:00:00	47	39.79	ND	1743.04	ND	ND	3.7	277.1	30.4	51.7	188.3	0
2539	2010-05-13T18:00:00	25	18.11	ND	1434.63	ND	ND	2.9	282.5	28.9	55.6	38.9	0
2540	2010-05-13T19:00:00	32	4.80	ND	1346.30	ND	ND	4.3	269.2	28.1	57.3	1.7	0
2541	2010-05-13T20:00:00	31	4.66	ND	1551.08	ND	ND	4.2	271.7	27.6	59	0	0
2542	2010-05-13T21:00:00	33	3.70	ND	1421.39	ND	ND	2.3	261.7	27.3	60.8	0	0
2543	2010-05-13T22:00:00	24	1.51	ND	1119.82	ND	ND	1.2	213.5	26.4	66.1	0	0
2544	2010-05-13T23:00:00	23	1.50	ND	1116.46	ND	ND	1.1	176.4	26.2	68.1	0	0
2545	2010-05-14T00:00:00	26	1.63	ND	1081.21	ND	ND	1.2	195.5	25.8	70.1	0	0
2546	2010-05-14T01:00:00	33	2.39	ND	1320.99	ND	ND	0.9	212.6	25.7	70	0	0
2547	2010-05-14T02:00:00	18	2.89	ND	1217.20	ND	ND	0.6	136.1	24	77.9	0	0
2548	2010-05-14T03:00:00	24	1.62	ND	947.66	ND	ND	0.7	345.6	24.1	78.1	0	0
2549	2010-05-14T04:00:00	33	0.89	ND	856.61	ND	ND	0.2	173.2	24	78.7	0	0
2550	2010-05-14T05:00:00	43	1.70	ND	993.33	ND	ND	0.7	213.5	23.8	78.8	0	0
2551	2010-05-14T06:00:00	37	4.07	ND	1209.45	ND	ND	0.7	120.2	23.1	83.8	0.4	0
2552	2010-05-14T07:00:00	54	2.37	ND	1115.54	ND	ND	0.9	72	23	84.5	47.6	0
2553	2010-05-14T08:00:00	63	2.52	ND	1547.57	ND	ND	0.8	56.4	24.2	79.3	204.8	0
2554	2010-05-14T09:00:00	90	7.40	ND	2387.89	ND	ND	0.8	103.2	25.7	72.5	344.5	0
2555	2010-05-14T10:00:00	97	17.02	ND	2859.26	ND	ND	1	111.6	27.6	64.7	624.9	0
2556	2010-05-14T11:00:00	74	21.65	ND	2160.98	ND	ND	1.5	127.3	29	58.2	752.4	0
2557	2010-05-14T12:00:00	58	25.17	ND	1880.80	ND	ND	0.9	78.6	30.1	54.4	688.1	0
2558	2010-05-14T13:00:00	52	23.40	ND	1607.99	ND	ND	1.3	56.7	31	51.1	774.2	0
2559	2010-05-14T14:00:00	53	19.62	ND	ND	ND	ND	1.6	2.2	32.3	47.7	672.1	0
2560	2010-05-14T15:00:00	54	16.19	ND	ND	ND	ND	1.7	323.6	32.6	46.7	673.5	0
2561	2010-05-14T16:00:00	31	14.94	ND	ND	ND	ND	3.9	278.2	31.6	47.7	398.2	0
2562	2010-05-14T17:00:00	32	40.79	ND	ND	ND	ND	3.8	275.7	30.3	51.6	176.9	0
2563	2010-05-14T18:00:00	17	6.19	ND	ND	ND	ND	4.2	269.5	28.8	56.5	62.2	0
2564	2010-05-14T19:00:00	25	4.51	ND	ND	ND	ND	4.8	266.9	27.7	60	1.6	0
2565	2010-05-14T20:00:00	14	3.83	ND	ND	ND	ND	4.2	279.4	27.8	58.3	0.3	0
2566	2010-05-14T21:00:00	10	3.07	ND	ND	ND	ND	2.5	296.5	27.8	57.9	0.2	0
2567	2010-05-14T22:00:00	6	1.48	ND	ND	ND	ND	0.4	160	26.7	65.3	0.3	0
2568	2010-05-14T23:00:00	12	1.40	ND	ND	ND	ND	2.7	256.7	26.9	60.5	0.3	0
2569	2010-05-15T00:00:00	8	4.93	ND	ND	ND	ND	1.1	267.8	26.7	60.5	0.3	0
2570	2010-05-15T01:00:00	4	1.82	ND	ND	ND	ND	1.6	272.7	26.6	59.7	0.3	0
2571	2010-05-15T02:00:00	3	0.53	ND	ND	ND	ND	1.8	195.2	25.2	74.9	0.4	0
2572	2010-05-15T03:00:00	7	ND	ND	ND	ND	ND	0.6	202.1	25.2	73.4	0.4	0
2573	2010-05-15T04:00:00	15	0.97	ND	ND	ND	ND	0.9	163.3	24.4	79.5	0.4	0
2574	2010-05-15T05:00:00	29	4.89	ND	ND	ND	ND	0.1	185.4	24.2	81	0.3	0
2575	2010-05-15T06:00:00	16	4.83	ND	ND	ND	ND	0.7	2.2	24.1	80.8	1.2	0
2576	2010-05-15T07:00:00	40	3.47	ND	ND	ND	ND	0.4	59.5	24.3	79.6	28.6	0
2577	2010-05-15T08:00:00	67	7.55	ND	ND	ND	ND	0.5	76.6	25.3	76	209.1	0
2578	2010-05-15T09:00:00	80	25.99	ND	ND	ND	ND	1.1	128.5	26.2	71.1	332.4	0
2579	2010-05-15T10:00:00	60	55.62	ND	ND	ND	ND	0.9	153.5	27.4	65.7	471.4	0
2580	2010-05-15T11:00:00	74	30.40	ND	ND	ND	ND	0.9	176.2	29	57.5	690.6	0
2581	2010-05-15T12:00:00	51	17.34	ND	ND	ND	ND	0.7	112.2	30.2	52.8	802.2	0
2582	2010-05-15T13:00:00	36	15.20	ND	ND	ND	ND	0.9	89	31.2	50.5	737	0
2583	2010-05-15T14:00:00	29	10.67	ND	ND	ND	ND	1.4	29.2	32.2	49.3	473.6	0
2584	2010-05-15T15:00:00	59	9.55	ND	ND	ND	ND	4.2	286.3	31.9	48.2	739	0
2585	2010-05-15T16:00:00	31	22.17	ND	ND	ND	ND	4.2	277.6	31.5	47.7	552.1	0
2586	2010-05-15T17:00:00	16	16.44	ND	ND	ND	ND	4.3	277.1	30.9	49	351.3	0
2587	2010-05-15T18:00:00	9	2.99	ND	ND	ND	ND	3.8	275.4	29.4	53.6	44.4	0
2588	2010-05-15T19:00:00	6	1.89	ND	ND	ND	ND	4.9	273.3	28.2	57.1	1.1	0
2589	2010-05-15T20:00:00	3	2.25	ND	ND	ND	ND	3.3	283.9	27.9	57.5	0.5	0
2590	2010-05-15T21:00:00	9	1.69	ND	ND	ND	ND	2.9	278.6	27.7	58.5	0.5	0
2591	2010-05-15T22:00:00	6	0.90	ND	ND	ND	ND	3.1	260.8	27.1	61.3	0.5	0
2592	2010-05-15T23:00:00	8	0.16	ND	ND	ND	ND	1.5	271.7	26.7	64.1	0.4	0
2593	2010-05-16T00:00:00	4	ND	ND	ND	ND	ND	0.2	199.8	26.2	68.2	0.4	0
2594	2010-05-16T01:00:00	3	0.55	ND	ND	ND	ND	1.9	188.7	26	69.9	0.4	0
2595	2010-05-16T02:00:00	12	3.15	ND	ND	ND	ND	0.5	193.3	25.6	71.4	0.4	0
2596	2010-05-16T03:00:00	36	3.10	ND	ND	ND	ND	0.4	0.9	25.1	75	0.4	0
2597	2010-05-16T04:00:00	26	3.80	ND	ND	ND	ND	0.9	0.9	24.9	76.8	0.5	0
2598	2010-05-16T05:00:00	44	5.32	ND	ND	ND	ND	0.7	20.2	24.6	78.2	0.5	0
2599	2010-05-16T06:00:00	23	5.26	ND	ND	ND	ND	0.5	178.9	24.6	78	1.3	0
2600	2010-05-16T07:00:00	49	5.29	ND	ND	ND	ND	0.8	183.3	24.4	78.3	44	0
2601	2010-05-16T08:00:00	26	6.69	ND	ND	ND	ND	1.2	133.1	24	82	70.1	0
2602	2010-05-16T09:00:00	42	9.45	ND	ND	ND	ND	0.3	223.9	25.1	77.2	272.9	0
2603	2010-05-16T10:00:00	22	11.66	ND	ND	ND	ND	0.5	118.5	27.5	63.8	434.3	0
2604	2010-05-16T11:00:00	30	9.04	ND	ND	ND	ND	0.5	180.9	28.9	59.3	440.6	0
2605	2010-05-16T12:00:00	16	13.49	ND	ND	ND	ND	1.2	67.3	30.1	55.6	667.7	0
2606	2010-05-16T13:00:00	19	10.29	ND	ND	ND	ND	1.2	37.4	30.7	53.7	647.1	0
2607	2010-05-16T14:00:00	13	11.56	ND	ND	ND	ND	1.1	301.7	32	49.3	732.1	0
2608	2010-05-16T15:00:00	37	24.51	ND	ND	ND	ND	1.6	300.5	32.4	46.6	548.9	0
2609	2010-05-16T16:00:00	18	42.32	ND	ND	ND	ND	2.9	275.2	32	46.1	431.9	0
2610	2010-05-16T17:00:00	9	24.27	ND	ND	ND	ND	3.7	280.3	30.7	49.7	161.9	0
2611	2010-05-16T18:00:00	14	5.45	ND	ND	ND	ND	4	276.8	29.5	53.6	109.1	0
2612	2010-05-16T19:00:00	8	1.84	ND	ND	ND	ND	3.9	277.4	28.4	56.9	1.6	0
2613	2010-05-16T20:00:00	5	0.53	ND	ND	ND	ND	3.8	270.4	27.7	59.9	0.5	0
2614	2010-05-16T21:00:00	11	0.11	ND	ND	ND	ND	4	272.4	27.5	60.6	0.5	0
2615	2010-05-16T22:00:00	6	ND	ND	ND	ND	ND	0.1	20.2	27.1	63.2	0.5	0
2616	2010-05-16T23:00:00	20	ND	ND	ND	ND	ND	2.9	257.3	26.8	63.6	0.4	0
2617	2010-05-17T00:00:00	10	2.21	ND	ND	ND	ND	2.5	271	26.5	64.2	0.4	0
2618	2010-05-17T01:00:00	5	0.32	ND	ND	ND	ND	1.5	279.9	26.2	65.6	0.4	0
2619	2010-05-17T02:00:00	4	ND	ND	ND	ND	ND	0.6	105.7	25.2	74.5	0.4	0
2620	2010-05-17T03:00:00	11	ND	ND	ND	ND	ND	1.2	192.1	24.9	76.1	0.4	0
2621	2010-05-17T04:00:00	8	ND	ND	ND	ND	ND	1.4	155.1	24.6	78.6	0.4	0
2622	2010-05-17T05:00:00	23	0.50	ND	ND	ND	ND	1.2	146.8	24.2	79	0.5	0
2623	2010-05-17T06:00:00	19	0.31	ND	ND	ND	ND	0.6	133.3	24	80	0.6	0
2624	2010-05-17T07:00:00	19	0.57	ND	ND	ND	ND	0.8	38.3	23.8	80.8	24.5	0
2625	2010-05-17T08:00:00	16	0.73	ND	ND	ND	ND	0.3	351.9	24.4	78.3	101.4	0
2626	2010-05-17T09:00:00	29	2.48	ND	ND	ND	ND	0.1	263.3	25.2	74.9	242.8	0
2627	2010-05-17T10:00:00	21	3.99	ND	ND	ND	ND	1	167.2	26.9	68.6	573.1	0
2628	2010-05-17T11:00:00	24	9.26	ND	ND	ND	ND	0.6	133.8	28.8	60	770.2	0
2629	2010-05-17T12:00:00	13	14.54	ND	ND	ND	ND	1.7	32.3	29.9	55.9	504.1	0
2630	2010-05-17T13:00:00	28	11.59	ND	ND	ND	ND	1.9	25.5	30.7	53.8	693.8	0
2631	2010-05-17T14:00:00	18	18.80	ND	ND	ND	ND	1.5	303.5	31.7	48.1	523.1	0
2632	2010-05-17T15:00:00	26	45.63	ND	ND	ND	ND	1.8	291	32.5	44.3	556.5	0
2633	2010-05-17T16:00:00	15	16.01	ND	ND	ND	ND	4.2	280.2	32.3	44	557.1	0
2634	2010-05-17T17:00:00	9	5.56	ND	ND	ND	ND	3.9	281.6	31.4	47.6	342.5	0
2635	2010-05-17T18:00:00	4	0.62	ND	ND	ND	ND	2.9	279.2	30.1	50.3	82.8	0
2636	2010-05-17T19:00:00	2	ND	ND	ND	ND	ND	2.4	283.3	29.3	52.6	3.5	0
2637	2010-05-17T20:00:00	3	ND	ND	ND	ND	ND	2.8	248.8	28.5	57.5	0.2	0
2638	2010-05-17T21:00:00	21	ND	ND	ND	ND	ND	2.1	195.6	26.9	68.7	0.1	0
2639	2010-05-17T22:00:00	12	ND	ND	ND	ND	ND	1.8	220.4	27	66.6	0.2	0
2640	2010-05-17T23:00:00	29	2.77	ND	ND	ND	ND	2	238.6	27.2	63	0.3	0
2641	2010-05-18T00:00:00	14	5.73	ND	ND	ND	ND	0.5	160.6	27	66.3	0.3	0
2642	2010-05-18T01:00:00	7	1.16	ND	ND	ND	ND	1.2	2.2	25.9	73.7	0.4	0
2643	2010-05-18T02:00:00	17	2.44	ND	ND	ND	ND	1.1	57.1	24.6	79.1	0.4	0
2644	2010-05-18T03:00:00	35	13.48	ND	ND	ND	ND	0.4	121.2	24.7	76.5	0.4	0
2645	2010-05-18T04:00:00	18	16.07	ND	ND	ND	ND	0.8	153.6	24.6	78	0.5	0
2646	2010-05-18T05:00:00	31	8.27	ND	ND	ND	ND	0.7	54.9	24	80.2	0.5	0
2647	2010-05-18T06:00:00	16	4.49	ND	ND	ND	ND	0.4	1.6	24.1	80.4	1	0
2648	2010-05-18T07:00:00	45	3.08	ND	ND	ND	ND	0.8	76.1	24.5	76.7	48.4	0
2649	2010-05-18T08:00:00	40	3.92	ND	ND	ND	ND	1.1	54.7	25.4	71.9	207.9	0
2650	2010-05-18T09:00:00	58	15.03	ND	ND	ND	ND	1.1	124.2	26.3	69.6	275	0
2651	2010-05-18T10:00:00	61	19.84	ND	ND	ND	ND	1	163.3	27.3	65.4	449.1	0
2652	2010-05-18T11:00:00	46	15.95	ND	ND	ND	ND	0.7	122	29.2	58	568.6	0
2653	2010-05-18T12:00:00	37	15.31	ND	ND	ND	ND	1.8	144.9	29.7	57.4	621.8	0
2654	2010-05-18T13:00:00	53	17.35	ND	ND	ND	ND	1.5	128.4	31.3	52	808.1	0
2655	2010-05-18T14:00:00	44	12.28	ND	ND	ND	ND	1	72.3	31.7	50.9	458.9	0
2656	2010-05-18T15:00:00	45	9.11	ND	ND	ND	ND	1.7	333.6	30.5	53.4	134.4	0
2657	2010-05-18T16:00:00	34	6.86	ND	ND	ND	ND	1.7	8.8	30.4	51.7	288.1	0
2658	2010-05-18T17:00:00	40	6.11	ND	ND	ND	ND	1.8	271.4	30.2	53.7	130.8	0
2659	2010-05-18T18:00:00	21	22.05	ND	ND	ND	ND	1.1	132.6	29.2	57.7	42.7	0
2660	2010-05-18T19:00:00	39	14.06	ND	ND	ND	ND	1.3	259.4	28.2	60.5	1.2	0
2661	2010-05-18T20:00:00	28	7.68	ND	ND	ND	ND	1	78.4	26.6	69.3	0.4	0
2662	2010-05-18T21:00:00	37	5.87	ND	ND	ND	ND	0.2	192.5	26.5	69.2	0.5	0
2663	2010-05-18T22:00:00	30	5.74	ND	ND	ND	ND	1.1	71.9	25.1	76.6	0.2	0
2664	2010-05-18T23:00:00	96	9.99	ND	ND	ND	ND	0.5	234.5	24.7	77.7	0	0
2665	2010-05-19T00:00:00	49	11.75	ND	ND	ND	ND	1.3	224.6	24.7	73.2	0	0
2666	2010-05-19T01:00:00	42	10.97	ND	ND	ND	ND	0.9	67.8	23.8	79.3	0	0
2667	2010-05-19T02:00:00	35	6.11	ND	ND	ND	ND	0.3	148.8	23.3	84.1	0	0
2668	2010-05-19T03:00:00	41	2.55	ND	ND	ND	ND	0.6	104.7	23.2	84.2	0	0
2669	2010-05-19T04:00:00	34	2.73	ND	ND	ND	ND	0.3	318	23	84	0	0
2670	2010-05-19T05:00:00	34	5.31	ND	ND	ND	ND	0.9	221.9	23.4	81.8	0	0
2671	2010-05-19T06:00:00	17	8.73	ND	ND	ND	ND	0.4	266.9	23.2	79.9	0.5	0
2672	2010-05-19T07:00:00	25	7.16	ND	ND	ND	ND	1	53.9	22.6	85.8	61.1	0
2673	2010-05-19T08:00:00	35	4.37	ND	ND	ND	ND	0.8	232.2	24	78.5	194.7	0
2674	2010-05-19T09:00:00	48	5.69	ND	ND	ND	ND	1.3	140.4	25.7	71.1	275.5	0
2675	2010-05-19T10:00:00	64	14.94	ND	ND	ND	ND	1.1	133	26.3	71.1	346.5	0
2676	2010-05-19T11:00:00	64	12.40	ND	ND	ND	ND	0.8	86.9	27.3	67.4	425.3	0
2677	2010-05-19T12:00:00	66	12.17	ND	ND	ND	ND	1.1	102.2	28.2	63.3	470.6	0
2678	2010-05-19T13:00:00	77	13.75	ND	ND	ND	ND	1.1	73.2	29.3	57.5	544.8	0
2679	2010-05-19T14:00:00	62	21.98	ND	4497.47	ND	ND	0.9	62.5	30	55.5	499.3	0
2680	2010-05-19T15:00:00	50	15.08	ND	4228.33	ND	ND	2.2	285.4	30.9	51	509.4	0
2681	2010-05-19T16:00:00	30	13.20	ND	4053.96	ND	ND	4.2	280.5	29.6	53.8	309.4	0
2682	2010-05-19T17:00:00	37	ND	ND	ND	ND	ND	3.4	279.2	28.5	55.8	189.6	0
2683	2010-05-19T18:00:00	22	ND	ND	ND	ND	ND	4.4	278	28	55.9	49.2	0
2684	2010-05-19T19:00:00	27	9.18	ND	1041.43	ND	ND	4.6	283.3	27.1	58.8	1	0
2685	2010-05-19T20:00:00	15	7.52	ND	819.11	ND	ND	5.1	276.4	25.8	62.7	0.4	0
2686	2010-05-19T21:00:00	23	6.46	ND	1056.79	ND	ND	3.6	280.2	25.8	61.7	0.4	0
2687	2010-05-19T22:00:00	13	4.83	ND	367.58	ND	ND	1.9	219.3	25.6	65.9	0.5	0
2688	2010-05-19T23:00:00	7	3.86	ND	436.21	ND	ND	1.1	160.2	24.9	72.7	0.5	0
2689	2010-05-20T00:00:00	18	4.61	ND	790.20	ND	ND	1.2	138.8	24.6	74.5	0.4	0
2690	2010-05-20T01:00:00	24	12.14	ND	1029.66	ND	ND	0.7	108.7	24.3	75.9	0.5	0
2691	2010-05-20T02:00:00	14	12.08	ND	834.33	ND	ND	1	144.2	23.7	79.9	0.5	0
2692	2010-05-20T03:00:00	25	10.23	ND	536.09	ND	ND	0.8	124.1	23.4	82	0.3	0
2693	2010-05-20T04:00:00	27	7.77	ND	512.76	ND	ND	0.6	115.2	23.3	82.3	0.3	0
2694	2010-05-20T05:00:00	16	6.72	ND	546.75	ND	ND	0.7	134.2	23.4	82	0.4	0
2695	2010-05-20T06:00:00	10	6.33	ND	467.18	ND	ND	0.9	99.2	23.3	82.3	0.5	0
2696	2010-05-20T07:00:00	29	7.19	ND	523.97	ND	ND	1.4	133.9	22.4	89.5	4.7	7.11
2697	2010-05-20T08:00:00	23	9.06	ND	874.42	ND	ND	0.9	232.1	21.4	97.1	27.8	19.3
2698	2010-05-20T09:00:00	28	10.74	ND	1618.43	ND	ND	1.4	231.7	22.7	89.4	165.5	0.25
2699	2010-05-20T10:00:00	14	9.23	ND	2364.47	ND	ND	1	151.5	24	82.7	332.7	0
2700	2010-05-20T11:00:00	7	8.98	ND	2340.61	ND	ND	0.7	163.5	25.3	76.5	445.1	0
2701	2010-05-20T12:00:00	4	8.87	ND	1823.35	ND	ND	0.9	147.9	27.3	67.3	698.3	0
2702	2010-05-20T13:00:00	8	6.73	ND	1570.05	ND	ND	0.7	185.1	28.7	62	798.7	0
2703	2010-05-20T14:00:00	10	6.10	ND	1403.40	ND	ND	1.1	97	29.6	56.9	631	0
2704	2010-05-20T15:00:00	38	5.45	ND	1326.15	ND	ND	1.4	31.2	30.4	55.2	555.3	0
2705	2010-05-20T16:00:00	46	5.34	ND	1387.98	ND	ND	1.8	319.4	30.5	53.9	588.8	0
2706	2010-05-20T17:00:00	25	14.89	ND	1271.76	ND	ND	3.1	269	29.6	54.3	377.8	0
2707	2010-05-20T18:00:00	14	27.14	ND	988.80	ND	ND	2.7	290	29	52.8	129.7	0
2708	2010-05-20T19:00:00	20	8.82	ND	893.96	ND	ND	3.9	268.9	26.9	61.3	2.1	0
2709	2010-05-20T20:00:00	16	7.81	ND	1106.80	ND	ND	2.9	275.8	26.5	59.8	0.5	0
2710	2010-05-20T21:00:00	20	7.06	ND	1393.16	ND	ND	1.1	292.6	26.5	60	0.4	0
2711	2010-05-20T22:00:00	11	6.24	ND	1197.43	ND	ND	1.6	224.9	25.1	75.4	0.4	0
2712	2010-05-20T23:00:00	13	5.16	ND	825.11	ND	ND	2	189.9	24.5	80.3	0.4	0
2713	2010-05-21T00:00:00	8	6.51	ND	1452.48	ND	ND	2	188.5	23.7	85.3	0.4	0
2714	2010-05-21T01:00:00	17	6.47	ND	1288.89	ND	ND	1	160	23.2	89.2	0.4	0
2715	2010-05-21T02:00:00	10	5.73	ND	478.25	ND	ND	1	140.2	22.6	88.5	0.4	0
2716	2010-05-21T03:00:00	5	4.50	ND	590.92	ND	ND	0.5	137.9	22.2	88.6	0.4	0
2717	2010-05-21T04:00:00	4	3.58	ND	522.03	ND	ND	0.3	163.6	22.5	88.3	0.3	0
2718	2010-05-21T05:00:00	3	3.07	ND	556.64	ND	ND	0.6	161.9	22.2	91.9	0.4	0
2719	2010-05-21T06:00:00	2	3.82	ND	692.25	ND	ND	0.6	172.3	22.4	88.2	0.5	0
2720	2010-05-21T07:00:00	25	3.82	ND	874.42	ND	ND	0.5	68.6	22.5	86.7	15.9	0
2721	2010-05-21T08:00:00	13	3.56	ND	1090.56	ND	ND	1.2	81.3	22.6	88.7	58	0
2722	2010-05-21T09:00:00	33	5.17	ND	1681.84	ND	ND	1.5	155	22.6	88.1	104.8	0
2723	2010-05-21T10:00:00	23	9.95	ND	3011.41	ND	ND	2.3	159.3	22.7	86.4	218	0
2724	2010-05-21T11:00:00	28	10.87	ND	2205.32	ND	ND	1.6	169.4	23	83.6	216.6	0
2725	2010-05-21T12:00:00	15	10.18	ND	1183.44	ND	ND	1.3	159.7	23.4	80.7	192.1	0
2726	2010-05-21T13:00:00	20	9.56	ND	1344.56	ND	ND	1.7	137.6	24.2	76.8	318.4	0
2727	2010-05-21T14:00:00	11	11.97	ND	1325.34	ND	ND	1.9	132.1	23.8	79.8	144.9	0
2728	2010-05-21T15:00:00	19	11.27	ND	1551.75	ND	ND	1.4	152.4	24	80	273.7	0
2729	2010-05-21T16:00:00	11	10.39	ND	1632.72	ND	ND	1.3	176.5	24.7	76.5	221.5	0
2730	2010-05-21T17:00:00	14	11.81	ND	1499.23	ND	ND	0.8	138.1	24.7	75.8	96.7	0
2731	2010-05-21T18:00:00	17	11.31	ND	1339.01	ND	ND	1.1	48.1	24.1	78.5	12.2	1.27
2732	2010-05-21T19:00:00	38	10.01	ND	1564.74	ND	ND	1.1	34.1	22.4	87.7	0.7	1.27
2733	2010-05-21T20:00:00	30	11.69	ND	1907.83	ND	ND	0.2	54.5	22.6	85.1	0.4	0
2734	2010-05-21T21:00:00	49	15.20	ND	2011.39	ND	ND	1	189.9	22.5	88.2	0.4	0.25
2735	2010-05-21T22:00:00	31	24.42	ND	1601.76	ND	ND	0.9	182.8	22.5	87.8	0.4	0
2736	2010-05-21T23:00:00	42	17.82	ND	2340.15	ND	ND	0.8	206.1	22.5	88.4	0.2	0
2737	2010-05-22T00:00:00	35	13.93	ND	2578.71	ND	ND	0.8	223.5	22.5	86.8	0.4	0
2738	2010-05-22T01:00:00	37	12.60	ND	2692.31	ND	ND	0.3	314.2	22.4	85.6	0.4	0
2739	2010-05-22T02:00:00	20	11.53	ND	1885.12	ND	ND	0.4	81.6	21.8	92	0.3	0
2740	2010-05-22T03:00:00	23	10.29	ND	1167.30	ND	ND	0.8	148.5	21.4	92.9	0.4	0
2741	2010-05-22T04:00:00	13	9.55	ND	905.41	ND	ND	0.2	182.8	21.5	92.8	0.3	0
2742	2010-05-22T05:00:00	20	6.94	ND	769.86	ND	ND	0.6	138.3	21.4	93.5	0.3	0
2743	2010-05-22T06:00:00	17	5.54	ND	769.60	ND	ND	0.5	70.5	21.4	93.6	0.7	0
2744	2010-05-22T07:00:00	30	5.72	ND	1154.40	ND	ND	0.8	63.7	21.5	92.3	50.8	0
2745	2010-05-22T08:00:00	35	5.33	ND	1052.90	ND	ND	0.7	70.5	22.2	87.6	139.6	0
2746	2010-05-22T09:00:00	37	7.42	ND	1713.61	ND	ND	0.9	92.6	23.1	79	239.7	0
2747	2010-05-22T10:00:00	31	10.02	ND	1502.56	ND	ND	0.8	54.8	23.8	75.6	291.9	0
2748	2010-05-22T11:00:00	25	12.94	ND	1631.62	ND	ND	0.8	43.4	25.3	67.4	529.9	0
2749	2010-05-22T12:00:00	12	11.78	ND	1123.83	ND	ND	0.9	187.3	26.3	62.3	455.6	0
2750	2010-05-22T13:00:00	22	11.92	ND	1173.62	ND	ND	1.2	155.6	27.1	59.9	514.7	0
2751	2010-05-22T14:00:00	24	10.00	ND	1419.03	ND	ND	1.3	142	27.4	59.5	443	0
2752	2010-05-22T15:00:00	13	7.77	ND	1662.96	ND	ND	0.5	117.2	27.7	59.5	403	0
2753	2010-05-22T16:00:00	17	8.41	ND	1653.06	ND	ND	1.2	46.7	28.4	57.1	295	0
2754	2010-05-22T17:00:00	30	8.40	ND	1367.24	ND	ND	1.6	25.4	27.8	60.1	110.5	0
2755	2010-05-22T18:00:00	49	13.01	ND	1595.79	ND	ND	1.4	11.6	27.1	62	21.4	0
2756	2010-05-22T19:00:00	65	52.83	ND	1834.35	ND	ND	0.2	168.3	26.5	63.4	1.9	0
2757	2010-05-22T20:00:00	54	96.81	ND	1750.09	ND	ND	1.3	257.4	25.8	65.7	0.2	0
2758	2010-05-22T21:00:00	40	43.48	ND	2676.43	ND	ND	1.9	293.2	25.4	66.5	0.3	0
2759	2010-05-22T22:00:00	28	17.84	ND	2213.99	ND	ND	1	352.7	24.4	75.7	0.4	0
2760	2010-05-22T23:00:00	58	9.91	ND	1166.17	ND	ND	0.8	341.1	23.6	80.1	0.5	0
2761	2010-05-23T00:00:00	33	14.08	ND	2668.13	ND	ND	0.7	238.8	23.7	76.4	0.5	0
2762	2010-05-23T01:00:00	33	12.10	ND	1802.16	ND	ND	0.5	260.2	23.9	75.1	0.5	0
2763	2010-05-23T02:00:00	18	10.96	ND	1826.21	ND	ND	0.8	155.8	23.1	83.6	0.5	0
2764	2010-05-23T03:00:00	24	8.90	ND	1570.86	ND	ND	0.8	157.9	23	84.6	0.4	0
2765	2010-05-23T04:00:00	18	9.16	ND	2162.05	ND	ND	0.4	48.3	22.7	85.2	0.4	0
2766	2010-05-23T05:00:00	35	6.81	ND	1466.43	ND	ND	0.9	19.3	22.1	90.4	0.4	1.02
2767	2010-05-23T06:00:00	19	6.64	ND	907.57	ND	ND	0.5	349.4	22.1	91.1	0.7	0.25
2768	2010-05-23T07:00:00	18	6.05	ND	986.98	ND	ND	0.3	85.2	22.2	91.3	22.2	0.51
2769	2010-05-23T08:00:00	24	6.15	ND	1225.63	ND	ND	0.5	122.5	22.4	91.2	64.3	0
2770	2010-05-23T09:00:00	43	7.66	ND	1760.20	ND	ND	0.6	111.2	22.9	88.9	111.6	0
2771	2010-05-23T10:00:00	29	9.60	ND	1865.56	ND	ND	0.9	63.7	23.3	86.6	130.1	0
2772	2010-05-23T11:00:00	68	7.79	ND	1651.65	ND	ND	0.9	30.7	24.2	80.8	278.1	0
2773	2010-05-23T12:00:00	36	8.02	ND	1828.05	ND	ND	0.8	118	25.1	76.2	291.5	0
2774	2010-05-23T13:00:00	45	8.26	ND	1455.41	ND	ND	0.6	117.3	25.6	72.9	258.2	0
2775	2010-05-23T14:00:00	37	8.87	ND	1526.73	ND	ND	0.7	151.3	26.1	70.3	326.9	0
2776	2010-05-23T15:00:00	43	7.76	ND	1483.29	ND	ND	1.1	82.5	26.8	65.8	354.2	0
2777	2010-05-23T16:00:00	30	9.02	ND	1452.18	ND	ND	2.1	38.9	27.7	60.9	457.8	0
2778	2010-05-23T17:00:00	26	15.36	ND	1537.46	ND	ND	2	37	27.5	60.4	254.1	0
2779	2010-05-23T18:00:00	23	15.64	ND	1189.87	ND	ND	2.1	44.7	26.8	65.3	74	0
2780	2010-05-23T19:00:00	43	49.53	ND	864.40	ND	ND	0.4	322.3	26	67.9	2.1	0
2781	2010-05-23T20:00:00	32	23.61	ND	1068.99	ND	ND	0.8	296.8	25.7	66	0	0
2782	2010-05-23T21:00:00	29	14.63	ND	1332.03	ND	ND	0.1	48	25.4	70.2	0	0
2783	2010-05-23T22:00:00	35	10.42	ND	1307.75	ND	ND	1.3	186.2	24.6	75.5	0	0
2784	2010-05-23T23:00:00	32	15.46	ND	2139.41	ND	ND	0.9	213.9	24.2	74	0	0
2785	2010-05-24T00:00:00	19	14.37	ND	2205.09	ND	ND	0.4	227	23.6	75	0.2	0
2786	2010-05-24T01:00:00	20	9.23	ND	1345.47	ND	ND	0.9	258.6	23	72.7	0.4	0
2787	2010-05-24T02:00:00	12	7.11	ND	1217.57	ND	ND	0.7	306.8	22.8	77.5	0.4	0
2788	2010-05-24T03:00:00	7	5.67	ND	739.15	ND	ND	0.7	253.2	22.7	75.1	0.5	0
2789	2010-05-24T04:00:00	4	4.89	ND	966.25	ND	ND	0.7	200	22.2	80.7	0.5	0
2790	2010-05-24T05:00:00	11	5.74	ND	794.39	ND	ND	0.5	164.7	22	85.5	0.4	0
2791	2010-05-24T06:00:00	7	5.01	ND	952.62	ND	ND	0.6	175.7	22.1	85.1	0.8	0
2792	2010-05-24T07:00:00	33	4.80	ND	1123.11	ND	ND	0.2	159.3	22.6	80.4	32.6	0
2793	2010-05-24T08:00:00	33	4.47	ND	1227.29	ND	ND	0.8	136.1	23.7	76.4	157.3	0
2794	2010-05-24T09:00:00	74	7.15	ND	1824.98	ND	ND	0.7	74.2	25	73.5	393.4	0
2795	2010-05-24T10:00:00	64	11.06	ND	3287.89	ND	ND	1.1	155.7	26.6	66.9	541.7	0
2796	2010-05-24T11:00:00	52	12.01	ND	2407.17	ND	ND	1.2	136.5	27.9	61.8	702.5	0
2797	2010-05-24T12:00:00	39	17.25	ND	1353.40	ND	ND	1.2	83.7	29.1	56.6	745.6	0
2798	2010-05-24T13:00:00	43	17.58	ND	1184.60	ND	ND	0.8	50.6	30.6	51.7	825.4	0
2799	2010-05-24T14:00:00	46	15.46	ND	1400.56	ND	ND	1.9	358	31.6	49.4	615.5	0
2800	2010-05-24T15:00:00	55	16.98	ND	1194.40	ND	ND	2.5	297.8	30.7	49.1	288.1	0
2801	2010-05-24T16:00:00	29	29.24	ND	1004.07	ND	ND	4	284.5	29.7	50.6	341.9	0
2802	2010-05-24T17:00:00	35	23.26	ND	1163.68	ND	ND	4.3	276.3	28.8	52.5	150.5	0
2803	2010-05-24T18:00:00	19	7.85	ND	1125.41	ND	ND	4.3	276.8	27.8	56.7	61.9	0
2804	2010-05-24T19:00:00	19	7.19	ND	1017.61	ND	ND	4.3	272.9	27.1	59	1.2	0
2805	2010-05-24T20:00:00	11	6.23	ND	1176.75	ND	ND	1.6	242.2	26.8	60.9	0	0
2806	2010-05-24T21:00:00	7	5.27	ND	1359.98	ND	ND	2.1	177.4	25.4	67.4	0	0
2807	2010-05-24T22:00:00	9	5.56	ND	1388.05	ND	ND	1.7	177.5	24.7	68.1	0	0
2808	2010-05-24T23:00:00	22	5.60	ND	1590.79	ND	ND	0.9	157.4	24	72.4	0.1	0
2809	2010-05-25T00:00:00	13	5.48	ND	1461.46	ND	ND	0.6	2.3	24	73.6	0.2	0
2810	2010-05-25T01:00:00	15	4.60	ND	1301.61	ND	ND	0.7	6.3	23.8	74.8	0.3	0
2811	2010-05-25T02:00:00	45	4.51	ND	1152.40	ND	ND	1	108.2	23.1	78.6	0.4	0
2812	2010-05-25T03:00:00	44	47.54	ND	1297.67	ND	ND	0.5	161.6	22.3	81.8	0.4	0
2813	2010-05-25T04:00:00	23	42.17	ND	942.24	ND	ND	0.7	279.2	22.9	78.6	0.4	0
2814	2010-05-25T05:00:00	23	11.73	ND	682.52	ND	ND	0.8	78.4	23.1	79.2	0.4	0
2815	2010-05-25T06:00:00	25	10.54	ND	865.11	ND	ND	0.7	194.5	22.5	82.1	0.7	0
2816	2010-05-25T07:00:00	41	20.37	ND	1147.36	ND	ND	0.6	157.2	22.7	81.3	27.4	0
2817	2010-05-25T08:00:00	53	12.58	ND	988.99	ND	ND	0.7	82.6	23.4	79.4	75.5	0
2818	2010-05-25T09:00:00	76	11.34	ND	2051.02	ND	ND	1.3	138.2	24.1	77.2	224	0
2819	2010-05-25T10:00:00	65	16.30	ND	3632.03	ND	ND	1.1	102.1	25.8	68.8	595	0
2820	2010-05-25T11:00:00	56	18.31	ND	3055.50	ND	ND	1.4	111.5	27.6	62.5	764.6	0
2821	2010-05-25T12:00:00	44	17.84	ND	1952.97	ND	ND	1.6	140.7	29.1	57.2	806.8	0
2822	2010-05-25T13:00:00	66	ND	ND	ND	ND	ND	1.1	165.3	30.7	51.9	873.4	0
2823	2010-05-25T14:00:00	33	31.80	ND	1622.85	ND	ND	1.1	118.8	31	49.6	542	0
2824	2010-05-25T15:00:00	58	28.25	ND	1542.65	ND	ND	2	292.8	30.4	51	249.8	0
2825	2010-05-25T16:00:00	39	24.22	ND	1457.96	ND	ND	3	291.7	29.1	52.9	137.4	0
2826	2010-05-25T17:00:00	25	20.77	ND	1138.14	ND	ND	3.4	276.4	28.8	53.4	133	0
2827	2010-05-25T18:00:00	17	19.21	ND	1334.25	ND	ND	3.6	266.1	27.7	56.4	41.1	0
2828	2010-05-25T19:00:00	22	19.46	ND	1190.67	ND	ND	3.2	279	27.4	55.9	1.9	0
2829	2010-05-25T20:00:00	12	20.23	ND	1339.61	ND	ND	0.5	343.4	27.2	57.2	0	0
2830	2010-05-25T21:00:00	24	18.35	ND	1327.17	ND	ND	1.6	305.7	26.8	59.8	0	0
2831	2010-05-25T22:00:00	12	21.14	ND	1671.16	ND	ND	2	270.6	26.4	62.7	0.3	0
2832	2010-05-25T23:00:00	8	18.30	ND	966.83	ND	ND	2.2	251.8	26	65	0.3	0
2833	2010-05-26T00:00:00	5	15.77	ND	770.13	ND	ND	1.7	224.5	25.7	66	0.5	0
2834	2010-05-26T01:00:00	7	16.70	ND	1044.95	ND	ND	2.3	194.5	24.9	73	0.5	0
2835	2010-05-26T02:00:00	5	15.19	ND	744.39	ND	ND	2.4	191.6	23.9	78.3	0.4	0
2836	2010-05-26T03:00:00	4	15.85	ND	650.59	ND	ND	0.7	179.5	22.9	87	0.3	0.51
2837	2010-05-26T04:00:00	6	17.02	ND	523.27	ND	ND	1.1	31.6	22.2	92	0.4	0
2838	2010-05-26T05:00:00	5	15.99	ND	805.74	ND	ND	0.7	38.2	21.9	91.8	0.4	0.25
2839	2010-05-26T06:00:00	3	16.34	ND	759.57	ND	ND	0.8	162	21.7	93.6	0.4	2.54
2840	2010-05-26T07:00:00	4	17.13	ND	770.39	ND	ND	1.5	176.8	20.9	93.1	20.3	0
2841	2010-05-26T08:00:00	3	18.86	ND	1039.46	ND	ND	0.8	137.5	21	93.3	27.2	2.54
2842	2010-05-26T09:00:00	3	18.92	ND	1367.58	ND	ND	1.2	132.9	20.8	95.9	79.7	7.11
2843	2010-05-26T10:00:00	8	21.42	ND	2846.24	ND	ND	0.7	81.2	21.3	92.8	107.7	1.02
2844	2010-05-26T11:00:00	25	21.40	ND	2511.67	ND	ND	1.5	26.9	21.7	91.1	134.8	0
2845	2010-05-26T12:00:00	23	22.52	ND	1710.71	ND	ND	1.4	53.1	22.1	87.3	192.7	0
2846	2010-05-26T13:00:00	28	24.52	ND	1996.65	ND	ND	ND	ND	ND	ND	ND	ND
2847	2010-05-26T14:00:00	39	ND	ND	ND	ND	ND	0.6	142	24.5	73	295.5	0
2848	2010-05-26T15:00:00	42	ND	ND	ND	ND	ND	0.6	142.3	25.3	67.5	461.2	0
2849	2010-05-26T16:00:00	25	61.80	ND	2132.97	ND	ND	1.1	128.3	25.6	67.2	318.9	0
2850	2010-05-26T17:00:00	36	38.36	ND	1607.08	ND	ND	0.7	150.2	25.2	67.7	112.3	0
2851	2010-05-26T18:00:00	34	26.43	ND	1765.42	ND	ND	0.7	101.4	25.1	68.5	27.3	0
2852	2010-05-26T19:00:00	49	24.64	ND	1948.19	ND	ND	0.9	76.9	24.7	71.2	1.2	0
2853	2010-05-26T20:00:00	68	25.60	ND	2666.58	ND	ND	1	225.8	24.3	75.5	0.4	0
2854	2010-05-26T21:00:00	41	29.23	ND	2994.44	ND	ND	1.2	260.8	24	74.6	0.4	0
2855	2010-05-26T22:00:00	33	23.14	ND	1849.66	ND	ND	0.8	264.8	23.7	76.2	0.2	0
2856	2010-05-26T23:00:00	39	20.92	ND	1939.04	ND	ND	0.2	49.9	23.5	80	0.2	0
2857	2010-05-27T00:00:00	23	19.14	ND	1800.95	ND	ND	0.9	266.9	23	78.3	0.2	0
2858	2010-05-27T01:00:00	29	20.20	ND	1490.67	ND	ND	0.2	156.5	22.9	79.3	0	0
2859	2010-05-27T02:00:00	29	20.92	ND	1148.91	ND	ND	0.6	236.6	22.7	79.5	0	0
2860	2010-05-27T03:00:00	30	18.75	ND	1216.34	ND	ND	0.7	225	22.4	78.9	0	0
2861	2010-05-27T04:00:00	25	17.51	ND	1090.19	ND	ND	0.2	191.9	22.5	81.7	0	0
2862	2010-05-27T05:00:00	28	16.37	ND	840.64	ND	ND	0.7	78	22.3	87.7	0	0
2863	2010-05-27T06:00:00	24	15.76	ND	919.53	ND	ND	1.3	47.1	21.6	90.6	0.1	0.76
2864	2010-05-27T07:00:00	31	15.80	ND	1132.54	ND	ND	0.5	1.5	21.3	93.4	13.7	0.25
2865	2010-05-27T08:00:00	16	17.08	ND	1052.19	ND	ND	1.1	37.3	21.9	91.2	47.9	0
2866	2010-05-27T09:00:00	46	19.47	ND	1802.57	ND	ND	1.9	32	22	89.3	132	0
2867	2010-05-27T10:00:00	31	50.89	ND	2846.53	ND	ND	1	53.6	22.8	84.6	283.8	0.25
2868	2010-05-27T11:00:00	32	52.41	ND	1887.67	ND	ND	0.8	118.4	23.9	77.5	402.1	0
2869	2010-05-27T12:00:00	18	34.54	ND	1312.59	ND	ND	1.2	191.6	24.7	73.6	451.3	0
2870	2010-05-27T13:00:00	38	25.91	ND	1236.01	ND	ND	1	41.7	25.9	67.5	416.7	0
2871	2010-05-27T14:00:00	20	22.37	ND	965.22	ND	ND	3.1	28.2	25.6	64.2	334.3	0
2872	2010-05-27T15:00:00	25	25.26	ND	1388.98	ND	ND	2.9	37.6	25	64.8	199.7	0
2873	2010-05-27T16:00:00	19	32.86	ND	1271.62	ND	ND	2.4	24	24.9	64.3	137.3	0
2874	2010-05-27T17:00:00	25	28.60	ND	1603.31	ND	ND	1.4	35	24.8	64.8	89.7	0
2875	2010-05-27T18:00:00	17	23.83	ND	1511.19	ND	ND	1.1	51.4	24.6	66.8	31.5	0
2876	2010-05-27T19:00:00	61	34.72	ND	2242.38	ND	ND	1.4	58.3	23.9	73.3	1.2	0
2877	2010-05-27T20:00:00	46	53.91	ND	2819.21	ND	ND	1	32.6	23.5	76	0	0
2878	2010-05-27T21:00:00	57	54.70	ND	3248.55	ND	ND	0.6	77.5	23.1	77.4	0	0
2879	2010-05-27T22:00:00	42	36.27	ND	2287.99	ND	ND	0.6	204.3	23.1	77.4	0	0
2880	2010-05-27T23:00:00	57	36.68	ND	2379.05	ND	ND	1.1	235.6	22.9	77.4	0	0
2881	2010-05-28T00:00:00	30	32.08	ND	2718.71	ND	ND	1.1	211.3	22.9	73.7	0	0
2882	2010-05-28T01:00:00	32	25.86	ND	1899.68	ND	ND	0.6	154.9	22.4	79.9	0	0
2883	2010-05-28T02:00:00	18	22.42	ND	1215.10	ND	ND	0.2	142.2	22	82.5	0	0
2884	2010-05-28T03:00:00	30	21.27	ND	1587.70	ND	ND	0.2	258.7	21.8	82.5	0	0
2885	2010-05-28T04:00:00	32	19.00	ND	1121.97	ND	ND	1.2	255.7	21.4	76.4	0	0
2886	2010-05-28T05:00:00	19	18.61	ND	1018.59	ND	ND	0.8	255.3	21.2	71.9	0	0
2887	2010-05-28T06:00:00	10	18.73	ND	825.63	ND	ND	0.6	269.9	21	74.4	0.4	0
2888	2010-05-28T07:00:00	18	16.80	ND	700.74	ND	ND	0.4	313.9	21.2	73.8	27	0
2889	2010-05-28T08:00:00	25	16.19	ND	599.43	ND	ND	0.3	316.6	21.9	71.4	145.8	0
2890	2010-05-28T09:00:00	45	17.50	ND	1394.44	ND	ND	0.6	214.3	24	66.2	371.2	0
2891	2010-05-28T10:00:00	28	22.75	ND	2112.26	ND	ND	0.9	167.4	25.7	61.5	563.8	0
2892	2010-05-28T11:00:00	32	26.03	ND	1986.56	ND	ND	0.8	114.6	27.5	55.7	674.4	0
2893	2010-05-28T12:00:00	18	23.54	ND	1455.57	ND	ND	1.3	91.1	28.3	53.9	694.6	0
2894	2010-05-28T13:00:00	42	26.89	ND	1250.96	ND	ND	1	67.1	29.5	51.3	804.6	0
2895	2010-05-28T14:00:00	33	27.66	ND	1407.12	ND	ND	1.3	61.7	29.7	51.6	490.2	0
2896	2010-05-28T15:00:00	33	25.95	ND	1384.77	ND	ND	1	66.8	29.9	50.7	241.6	0
2897	2010-05-28T16:00:00	47	25.49	ND	1455.56	ND	ND	1.8	329	29.1	54.7	94	0
2898	2010-05-28T17:00:00	64	29.67	ND	1556.23	ND	ND	1.4	348.3	28.6	56	66.1	0
2899	2010-05-28T18:00:00	40	33.10	ND	1530.47	ND	ND	0.5	293.7	28.3	56.5	36.7	0
2900	2010-05-28T19:00:00	46	37.67	ND	1610.03	ND	ND	1.9	253.5	27.4	57.4	1.3	0
2901	2010-05-28T20:00:00	35	35.58	ND	1986.31	ND	ND	2.2	266.3	26.4	61.2	0.4	0
2902	2010-05-28T21:00:00	35	22.98	ND	1599.88	ND	ND	1.6	250.7	25.9	62.7	0.4	0
2903	2010-05-28T22:00:00	18	18.66	ND	1240.99	ND	ND	1.6	276.5	25.4	64.9	0.3	0
2904	2010-05-28T23:00:00	17	17.32	ND	1388.05	ND	ND	0.2	62.5	25.2	68.5	0.2	0
2905	2010-05-29T00:00:00	26	16.23	ND	1123.45	ND	ND	1	203.8	24.1	74.3	0.2	0
2906	2010-05-29T01:00:00	44	18.05	ND	1690.38	ND	ND	0.7	132.8	23.8	76.5	0.1	0
2907	2010-05-29T02:00:00	35	16.28	ND	1186.63	ND	ND	0.7	46.1	23.1	79	0.1	0
2908	2010-05-29T03:00:00	44	18.04	ND	1548.09	ND	ND	0.2	106.5	22.8	77.6	0.1	0
2909	2010-05-29T04:00:00	41	17.63	ND	989.32	ND	ND	0.5	326.9	23	77.7	0.1	0
2910	2010-05-29T05:00:00	45	21.13	ND	671.37	ND	ND	0.6	49.6	22.9	77.9	0	0
2911	2010-05-29T06:00:00	24	20.11	ND	989.65	ND	ND	1	56.7	22	83.3	0.3	0
2912	2010-05-29T07:00:00	51	23.03	ND	986.64	ND	ND	0.2	78.8	22.2	82.6	30.2	0
2913	2010-05-29T08:00:00	61	29.23	ND	1055.40	ND	ND	0.2	70	23.1	78	85.4	0
2914	2010-05-29T09:00:00	62	33.74	ND	1957.88	ND	ND	0.8	63.7	24.3	73.3	241.5	0
2915	2010-05-29T10:00:00	42	45.17	ND	1828.67	ND	ND	1.3	71.6	25.9	66.7	579.7	0
2916	2010-05-29T11:00:00	76	35.51	ND	2206.21	ND	ND	1.5	116	27.9	59.7	771.4	0
2917	2010-05-29T12:00:00	64	36.99	ND	1804.54	ND	ND	1.8	114	29	55.5	704	0
2918	2010-05-29T13:00:00	37	34.10	ND	1695.04	ND	ND	0.7	355.8	29.7	52.1	541.1	0
2919	2010-05-29T14:00:00	31	33.35	ND	1792.06	ND	ND	1.3	107.5	30.1	51.9	457.7	0
2920	2010-05-29T15:00:00	29	27.64	ND	1141.91	ND	ND	0.9	81.4	29.9	52.4	184.8	0
2921	2010-05-29T16:00:00	45	27.09	ND	1700.09	ND	ND	2.3	283.9	30.6	47.6	491.4	0
2922	2010-05-29T17:00:00	23	25.52	ND	1750.70	ND	ND	3.1	272.7	29.9	48	238.1	0
2923	2010-05-29T18:00:00	13	20.51	ND	1082.93	ND	ND	2.8	273.6	28.9	51.3	110.5	0
2924	2010-05-29T19:00:00	15	16.80	ND	1067.75	ND	ND	3.5	273.2	27.1	57	1.9	0
2925	2010-05-29T20:00:00	14	16.57	ND	1211.36	ND	ND	3.3	274	26.5	59.6	0.4	0
2926	2010-05-29T21:00:00	18	16.56	ND	1093.81	ND	ND	2.1	292.3	26.2	61.8	0.4	0
2927	2010-05-29T22:00:00	10	16.21	ND	1023.70	ND	ND	0.6	264.4	25.4	66.5	0.4	0
2928	2010-05-29T23:00:00	17	14.80	ND	986.54	ND	ND	1.7	263.6	25.6	64.1	0.3	0
2929	2010-05-30T00:00:00	10	19.11	ND	1710.39	ND	ND	0.7	307.5	24.9	69.9	0.2	0
2930	2010-05-30T01:00:00	6	15.22	ND	836.01	ND	ND	0.9	125.7	24.4	73	0.1	0
2931	2010-05-30T02:00:00	15	17.15	ND	1314.80	ND	ND	1	150.8	23.3	81.2	0	0
2932	2010-05-30T03:00:00	21	20.53	ND	1492.18	ND	ND	0.3	157.5	23	82.9	0.1	0
2933	2010-05-30T04:00:00	12	16.19	ND	705.51	ND	ND	0.9	193.9	22.8	83.5	0.3	0
2934	2010-05-30T05:00:00	23	15.35	ND	682.29	ND	ND	0.3	166.6	22.6	82.4	0.2	0
2935	2010-05-30T06:00:00	13	15.67	ND	795.47	ND	ND	0.6	97.3	22.5	84.8	0.6	0
2936	2010-05-30T07:00:00	19	16.40	ND	863.36	ND	ND	0.8	210	22.2	84.7	20.1	0
2937	2010-05-30T08:00:00	18	17.83	ND	1010.01	ND	ND	0.5	194.5	23.2	77.6	48.3	0
2938	2010-05-30T09:00:00	17	17.01	ND	1047.59	ND	ND	0.6	74.2	23.9	76.4	231.8	0
2939	2010-05-30T10:00:00	15	18.22	ND	1209.86	ND	ND	0.9	61.9	26.3	66.1	516.9	0
2940	2010-05-30T11:00:00	27	25.08	ND	1357.71	ND	ND	1.1	72.2	27.9	61.3	706	0
2941	2010-05-30T12:00:00	15	30.21	ND	1318.70	ND	ND	1.4	356.9	28.8	56.9	624.6	0
2942	2010-05-30T13:00:00	29	29.22	ND	1287.84	ND	ND	5	280.7	24.2	69.4	111.6	1.02
2943	2010-05-30T14:00:00	14	28.90	ND	1108.26	ND	ND	0.9	321	26.3	55.4	312.7	0
2944	2010-05-30T15:00:00	11	16.74	ND	713.38	ND	ND	2.7	52.6	26.8	52.4	159.8	0
2945	2010-05-30T16:00:00	18	15.37	ND	1002.70	ND	ND	1.8	7.5	25.5	64.3	160.7	0
2946	2010-05-30T17:00:00	11	17.95	ND	1021.30	ND	ND	1.5	259.7	25.7	61.4	112.2	0
2947	2010-05-30T18:00:00	6	17.57	ND	1090.88	ND	ND	3.1	270.3	26	57.8	54.3	0
2948	2010-05-30T19:00:00	5	18.32	ND	816.11	ND	ND	0.6	250	25.6	60.7	1.3	0
2949	2010-05-30T20:00:00	3	14.68	ND	815.02	ND	ND	0.6	338.5	24.7	69.2	0	0
2950	2010-05-30T21:00:00	6	15.18	ND	1178.79	ND	ND	1.7	270	24.1	68.9	0	0
2951	2010-05-30T22:00:00	4	20.79	ND	1747.49	ND	ND	1	290.7	24.2	67.5	0	0
2952	2010-05-30T23:00:00	4	19.29	ND	1405.31	ND	ND	0.5	79.1	23.5	75.3	0	0
2953	2010-05-31T00:00:00	17	15.90	ND	991.66	ND	ND	0.4	209.4	22.9	76.7	0	0
2954	2010-05-31T01:00:00	22	23.10	ND	2434.32	ND	ND	1.7	211.5	22.6	77.2	0	0
2955	2010-05-31T02:00:00	12	21.31	ND	1090.93	ND	ND	1	234.4	22.9	73.4	0	0
2956	2010-05-31T03:00:00	7	16.60	ND	841.78	ND	ND	0.9	170.9	23.2	71.2	0	0
2957	2010-05-31T04:00:00	4	15.31	ND	831.24	ND	ND	0.5	62.4	22.5	79.5	0	0
2958	2010-05-31T05:00:00	3	14.78	ND	692.96	ND	ND	0.4	338.8	22.4	80.1	0	0
2959	2010-05-31T06:00:00	2	15.01	ND	772.22	ND	ND	0.3	109.5	22.3	82	0.4	0
2960	2010-05-31T07:00:00	23	15.76	ND	885.48	ND	ND	0.7	58.5	22.1	84.1	50.3	0
2961	2010-05-31T08:00:00	48	18.63	ND	1508.83	ND	ND	0.2	96.4	22.7	80.8	112.4	0
2962	2010-05-31T09:00:00	80	23.76	ND	2557.72	ND	ND	0.4	69.9	23.8	75.3	194.3	0
2963	2010-05-31T10:00:00	74	31.99	ND	2464.55	ND	ND	0.9	88.8	25.2	69.3	310.1	0
2964	2010-05-31T11:00:00	81	36.29	ND	2831.55	ND	ND	1.5	126.4	26	64.9	438.9	0
2965	2010-05-31T12:00:00	62	42.80	ND	2540.29	ND	ND	1.4	143.1	26.5	63.6	411.8	0
2966	2010-05-31T13:00:00	65	37.13	ND	2176.10	ND	ND	1.3	142.1	27.1	61	524.2	0
2967	2010-05-31T14:00:00	2	31.82	ND	2007.40	ND	ND	1	163.6	27.7	57.8	464.6	0
2968	2010-05-31T15:00:00	12	35.46	ND	1433.42	ND	ND	0.4	71	29.1	53.8	586.2	0
2969	2010-05-31T16:00:00	13	33.71	ND	1265.89	ND	ND	0.5	101.9	29	54.1	171.7	0
2970	2010-05-31T17:00:00	45	ND	ND	ND	ND	ND	2	308.9	23.9	82.2	15.8	69.85
2971	2010-05-31T18:00:00	51	14.44	ND	1586.52	ND	ND	1.8	292.1	23.2	82	21.9	7.11
2972	2010-05-31T19:00:00	32	11.02	ND	1309.49	ND	ND	1.6	337.8	23.3	82	0.6	1.78
2973	2010-05-31T20:00:00	23	10.73	ND	1480.79	ND	ND	1.6	34.6	22	90.1	0	4.83
2974	2010-05-31T21:00:00	54	12.22	ND	3016.64	ND	ND	1	187.9	21.6	94.4	0	8.38
2975	2010-05-31T22:00:00	32	12.93	ND	2842.67	ND	ND	1.6	229.6	21.1	94.7	0	4.57
2976	2010-05-31T23:00:00	20	9.93	ND	1854.21	ND	ND	1.2	214.7	21.4	92.1	0	0.25
2977	2010-06-01T00:00:00	11	8.18	ND	1595.79	ND	ND	0.7	236.6	21.7	89.9	0	0.25
2978	2010-06-01T01:00:00	5	7.77	ND	1223.55	ND	ND	1.4	38.8	21.4	92.9	0	0
2979	2010-06-01T02:00:00	4	7.53	ND	1109.13	ND	ND	1.1	57.9	20.8	97.1	0	0
2980	2010-06-01T03:00:00	11	7.62	ND	1095.58	ND	ND	0.1	167.3	21.1	94.8	0	0
2981	2010-06-01T04:00:00	17	6.54	ND	734.90	ND	ND	0.9	176.3	21.1	94.7	0	0
2982	2010-06-01T05:00:00	9	6.57	ND	610.53	ND	ND	0.7	211.2	21.2	93.5	0	0
2983	2010-06-01T06:00:00	6	6.62	ND	497.64	ND	ND	0.6	248.7	21.3	90.6	0.3	0
2984	2010-06-01T07:00:00	6	6.42	ND	656.20	ND	ND	0.6	149	21.3	90.1	33.4	0
2985	2010-06-01T08:00:00	16	6.83	ND	588.32	ND	ND	0.5	157.4	21.6	91.3	134.9	0
2986	2010-06-01T09:00:00	19	10.28	ND	1766.76	ND	ND	0.9	142.4	23.2	82.9	424.6	0
2987	2010-06-01T10:00:00	16	10.50	ND	1890.22	ND	ND	1.2	115.6	24.3	76.6	454.6	0
2988	2010-06-01T11:00:00	41	11.84	ND	1840.10	ND	ND	0.9	19.7	25.2	72.2	544.8	0
2989	2010-06-01T12:00:00	22	11.48	ND	1490.29	ND	ND	0.7	102.7	26.5	65.3	431.3	0
2990	2010-06-01T13:00:00	42	12.77	ND	1174.40	ND	ND	1.4	62.8	27.7	61.8	670.5	0
2991	2010-06-01T14:00:00	23	13.03	ND	1364.06	ND	ND	1.6	63.7	28.1	60.6	343.8	0
2992	2010-06-01T15:00:00	43	15.86	ND	1319.58	ND	ND	0.6	352.4	28.1	59.4	238.7	0
2993	2010-06-01T16:00:00	27	17.71	ND	1470.06	ND	ND	3.2	276.4	27.1	57.9	149.4	0
2994	2010-06-01T17:00:00	18	18.89	ND	1419.03	ND	ND	2.7	273.4	26.3	60.7	73.9	0
2995	2010-06-01T18:00:00	17	10.79	ND	1162.11	ND	ND	2.3	294.1	25.8	63	35	0
2996	2010-06-01T19:00:00	15	11.40	ND	1366.93	ND	ND	2.6	265.8	25.7	63.5	2	0
2997	2010-06-01T20:00:00	35	10.24	ND	1458.34	ND	ND	1.5	234.3	25.1	68.1	0	0
2998	2010-06-01T21:00:00	19	10.22	ND	1650.23	ND	ND	1.8	164.7	23.9	74.7	0	0
2999	2010-06-01T22:00:00	30	8.82	ND	1472.38	ND	ND	1	186.2	23	77.8	0	0
3000	2010-06-01T23:00:00	26	9.53	ND	1741.02	ND	ND	1	198.7	23	79	0	0
3001	2010-06-02T00:00:00	14	9.45	ND	1797.91	ND	ND	0.9	187.7	23	79.3	0	0
3002	2010-06-02T01:00:00	15	7.78	ND	1206.19	ND	ND	0.2	245.1	23	79.9	0	0
3003	2010-06-02T02:00:00	10	7.78	ND	1081.02	ND	ND	0	218.2	23	79.2	0	0
3004	2010-06-02T03:00:00	6	8.07	ND	1285.85	ND	ND	0.9	47.7	22.2	88.1	0	0
3005	2010-06-02T04:00:00	12	7.50	ND	1032.71	ND	ND	0.8	117.3	21.7	90.9	0	0
3006	2010-06-02T05:00:00	14	8.27	ND	883.68	ND	ND	0.6	163.6	21.5	92.8	0	0
3007	2010-06-02T06:00:00	17	10.41	ND	860.44	ND	ND	1.2	139.8	21.2	95.6	0	3.56
3008	2010-06-02T07:00:00	9	7.94	ND	803.01	ND	ND	1.2	151.4	20.8	97.4	2	4.57
3009	2010-06-02T08:00:00	9	8.14	ND	892.27	ND	ND	1.1	146.5	20.4	97.9	4.6	25.91
3010	2010-06-02T09:00:00	25	9.18	ND	1703.16	ND	ND	1	134.7	20.2	99.5	34.5	17.53
3011	2010-06-02T10:00:00	14	11.01	ND	2908.06	ND	ND	1.6	134.2	20.5	97.7	67.4	0.76
3012	2010-06-02T11:00:00	15	11.23	ND	2425.86	ND	ND	1.8	142.1	20.4	97.2	102.4	11.94
3013	2010-06-02T12:00:00	12	10.84	ND	1838.52	ND	ND	1.2	150.2	21.3	92.2	189.5	0.51
3014	2010-06-02T13:00:00	11	11.77	ND	1731.02	ND	ND	0.7	137.7	22.9	81.6	331.5	0
3015	2010-06-02T14:00:00	7	13.09	ND	1694.93	ND	ND	0.5	257	24.2	75.2	574.6	0
3016	2010-06-02T15:00:00	5	14.22	ND	1519.57	ND	ND	0.5	207.6	25.6	65.1	489.6	0
3017	2010-06-02T16:00:00	4	11.39	ND	1515.25	ND	ND	0.2	47.7	25.8	63	242.1	0
3018	2010-06-02T17:00:00	10	9.83	ND	1102.74	ND	ND	1.1	48.4	25.1	71.1	124.7	0
3019	2010-06-02T18:00:00	54	10.96	ND	1283.51	ND	ND	1	54.6	24.8	73.8	37.2	0
3020	2010-06-02T19:00:00	62	23.46	ND	2278.23	ND	ND	0.8	39	24.1	76.9	0.6	0
3021	2010-06-02T20:00:00	70	23.07	ND	2752.58	ND	ND	0.7	356.4	24	77.6	0	0
3022	2010-06-02T21:00:00	91	21.47	ND	3139.85	ND	ND	0.4	80.3	23.8	79.8	0	0
3023	2010-06-02T22:00:00	83	41.36	ND	2453.14	ND	ND	0.7	151.5	23.3	82.8	0	0.76
3024	2010-06-02T23:00:00	62	37.28	ND	2619.87	ND	ND	0.6	142.1	22.2	90.6	0	0.25
3025	2010-06-03T00:00:00	44	18.90	ND	2281.03	ND	ND	0.4	62.6	22	92.2	0	0
3026	2010-06-03T01:00:00	39	11.80	ND	1451.62	ND	ND	0.3	86.5	21.9	92.1	0	0.25
3027	2010-06-03T02:00:00	21	11.38	ND	1167.70	ND	ND	0.1	186.4	21.8	90.9	0	0
3028	2010-06-03T03:00:00	31	15.60	ND	1019.97	ND	ND	0.1	96.9	21.9	91.6	0	0
3029	2010-06-03T04:00:00	18	16.83	ND	759.57	ND	ND	0.4	65.9	21.6	94.7	0	0.51
3030	2010-06-03T05:00:00	25	15.70	ND	917.35	ND	ND	1.3	22.4	21.2	93.8	0.1	0.51
3031	2010-06-03T06:00:00	22	13.81	ND	1153.62	ND	ND	1.5	46.4	20.5	93.1	0.2	0.51
3032	2010-06-03T07:00:00	27	19.36	ND	1173.44	ND	ND	0.2	23.5	20.6	93.5	33.8	0
3033	2010-06-03T08:00:00	13	16.29	ND	1117.41	ND	ND	0.8	175.8	21.4	90.9	141.3	0
3034	2010-06-03T09:00:00	17	15.71	ND	1765.56	ND	ND	1	148.8	21.9	88.6	88.2	0
3035	2010-06-03T10:00:00	36	31.43	ND	3367.06	ND	ND	0.7	131.5	21.8	90	108.5	0.51
3036	2010-06-03T11:00:00	49	32.19	ND	3263.92	ND	ND	1.3	155.1	22.7	86.1	333	0.25
3037	2010-06-03T12:00:00	39	21.89	ND	2876.02	ND	ND	1.2	145.5	23	85.5	310.2	0.25
3038	2010-06-03T13:00:00	29	20.82	ND	2036.87	ND	ND	1.1	120.5	24	80.8	517.7	0
3039	2010-06-03T14:00:00	19	19.79	ND	1872.49	ND	ND	1.1	118.7	24.9	75.2	318.6	0
3040	2010-06-03T15:00:00	36	18.81	ND	2038.50	ND	ND	0.9	94	25.1	73.1	287.1	0
3041	2010-06-03T16:00:00	34	16.88	ND	1845.05	ND	ND	0.5	124.1	25.5	71	198.3	0
3042	2010-06-03T17:00:00	31	16.51	ND	1870.47	ND	ND	1.1	143.3	25.3	72.5	104.6	0
3043	2010-06-03T18:00:00	37	18.26	ND	1502.26	ND	ND	1.2	135.5	24.9	74.5	41.6	0
3044	2010-06-03T19:00:00	65	19.10	ND	2508.04	ND	ND	0.7	163.6	24.4	76.2	0.7	0
3045	2010-06-03T20:00:00	48	17.70	ND	3052.61	ND	ND	0.6	195.2	24.1	78.3	0	0
3046	2010-06-03T21:00:00	66	17.35	ND	3060.96	ND	ND	0	336.4	23.7	82.3	0	0
3047	2010-06-03T22:00:00	64	16.17	ND	2429.50	ND	ND	0.7	55.4	22.8	83.9	0	0
3048	2010-06-03T23:00:00	89	16.98	ND	3297.73	ND	ND	0.2	254.1	22.5	85.3	0	0
3049	2010-06-04T00:00:00	67	16.24	ND	3010.39	ND	ND	0.2	260.4	22.2	85.9	0	0
3050	2010-06-04T01:00:00	68	15.29	ND	2666.88	ND	ND	1	237.2	21.9	80.1	0	0
3051	2010-06-04T02:00:00	36	13.28	ND	2006.63	ND	ND	0.9	242.6	21.6	81.2	0	0
3052	2010-06-04T03:00:00	24	11.45	ND	985.31	ND	ND	0.3	26.6	21.1	88.8	0	0
3053	2010-06-04T04:00:00	30	10.09	ND	768.82	ND	ND	0.4	163.2	20.6	94	0	0
3054	2010-06-04T05:00:00	40	10.12	ND	1309.28	ND	ND	0.4	189.2	20.8	89.5	0	0
3055	2010-06-04T06:00:00	21	8.45	ND	971.34	ND	ND	0.2	173.4	20.9	87.8	0.6	0
3056	2010-06-04T07:00:00	33	8.76	ND	994.26	ND	ND	0.7	48.9	20.6	94	40.6	0
3057	2010-06-04T08:00:00	56	9.86	ND	1433.44	ND	ND	0.9	77.6	21.1	91.4	190.1	0
3058	2010-06-04T09:00:00	87	12.93	ND	2984.82	ND	ND	0.8	69.3	23	81.7	395.1	0
3059	2010-06-04T10:00:00	86	18.14	ND	3402.38	ND	ND	1.3	75.2	24	77.9	381.2	0
3060	2010-06-04T11:00:00	83	23.76	ND	3048.51	ND	ND	1.2	91	25.8	69.6	596.9	0
3061	2010-06-04T12:00:00	63	24.99	ND	2079.12	ND	ND	1.2	96.7	26.8	63.7	484.5	0
3062	2010-06-04T13:00:00	63	20.30	ND	1901.67	ND	ND	0.7	97.2	26.9	64.6	320.1	0
3063	2010-06-04T14:00:00	41	17.90	ND	1740.90	ND	ND	1.2	146.2	27.6	61.9	361.2	0
3064	2010-06-04T15:00:00	59	17.74	ND	1664.07	ND	ND	1.1	143.2	27.5	60.5	288.2	0
3065	2010-06-04T16:00:00	46	16.25	ND	1432.47	ND	ND	0.4	199.4	28.1	59.1	362.2	0
3066	2010-06-04T17:00:00	54	17.74	ND	1852.04	ND	ND	1.1	111.4	28.3	59	259.6	0
3067	2010-06-04T18:00:00	60	14.68	ND	1308.87	ND	ND	1.1	132.8	28	60.2	103.8	0
3068	2010-06-04T19:00:00	86	20.19	ND	2233.28	ND	ND	1	251.5	26.7	61.6	1.1	0
3069	2010-06-04T20:00:00	67	23.11	ND	2765.14	ND	ND	2.5	262.4	25.4	64.9	0	0
3070	2010-06-04T21:00:00	64	19.65	ND	2638.43	ND	ND	1.7	268.2	25.1	65.6	0	0
3071	2010-06-04T22:00:00	33	12.08	ND	1684.61	ND	ND	0.5	339.2	24.5	71.4	0	0
3072	2010-06-04T23:00:00	34	10.83	ND	1543.98	ND	ND	0.3	3.3	23.4	80.6	0	0
3073	2010-06-05T00:00:00	25	10.89	ND	1743.37	ND	ND	0.9	237.1	23	75.5	0	0
3074	2010-06-05T01:00:00	39	12.28	ND	2230.32	ND	ND	0.7	255.8	22.8	77.9	0	0
3075	2010-06-05T02:00:00	26	12.02	ND	1933.15	ND	ND	1.2	257.7	22.4	75.4	0	0
3076	2010-06-05T03:00:00	23	10.78	ND	1760.20	ND	ND	0.6	299.5	22.4	76.6	0	0
3077	2010-06-05T04:00:00	12	9.06	ND	1010.69	ND	ND	0.5	239.3	22.2	76.7	0	0
3078	2010-06-05T05:00:00	17	8.25	ND	1225.63	ND	ND	0	198.9	21.9	79	0	0
3079	2010-06-05T06:00:00	11	8.30	ND	1530.48	ND	ND	0.7	166.3	21	89.9	0.3	0
3080	2010-06-05T07:00:00	30	8.19	ND	1254.56	ND	ND	0.4	227	21.4	86.3	27.4	0
3081	2010-06-05T08:00:00	32	8.62	ND	1403.39	ND	ND	0	195	22.5	79.6	109.5	0
3082	2010-06-05T09:00:00	73	8.96	ND	1840.31	ND	ND	0.5	171.6	24.4	71.7	407.8	0
3083	2010-06-05T10:00:00	65	14.28	ND	2549.56	ND	ND	1.1	133.6	25.8	66.5	558.1	0
3084	2010-06-05T11:00:00	64	16.16	ND	2998.06	ND	ND	0.5	153.6	28	57	772	0
3085	2010-06-05T12:00:00	51	12.81	ND	2175.42	ND	ND	0.7	120.1	29	54.4	785.1	0
3086	2010-06-05T13:00:00	78	14.66	ND	1660.21	ND	ND	1.3	72.5	30.3	51	788	0
3087	2010-06-05T14:00:00	66	17.01	ND	1900.55	ND	ND	1.5	56	31	49.3	754.1	0
3088	2010-06-05T15:00:00	63	18.47	ND	1975.06	ND	ND	1.4	104	31.5	49.6	575.2	0
3089	2010-06-05T16:00:00	53	16.89	ND	1662.25	ND	ND	1.1	309.6	30.9	51.5	327.8	0
3090	2010-06-05T17:00:00	53	19.00	ND	1822.53	ND	ND	3.8	275.7	29.8	53.3	294.4	0
3091	2010-06-05T18:00:00	36	26.15	ND	1699.53	ND	ND	4.3	272.5	28.2	56.5	90.9	0
3092	2010-06-05T19:00:00	34	11.89	ND	1366.33	ND	ND	3.9	275.4	27.2	58.5	2.1	0
3093	2010-06-05T20:00:00	21	9.71	ND	1142.52	ND	ND	5.2	271.4	26.5	60.1	0	0
3094	2010-06-05T21:00:00	23	10.17	ND	1151.37	ND	ND	2.8	297	26.6	59.7	0	0
3095	2010-06-05T22:00:00	13	9.01	ND	702.57	ND	ND	1.3	273.5	26.3	61.4	0	0
3096	2010-06-05T23:00:00	7	8.32	ND	701.87	ND	ND	1.9	220.5	25.9	63.9	0	0
3097	2010-06-06T00:00:00	4	8.49	ND	850.31	ND	ND	0.5	198.6	24.6	75.9	0	0
3098	2010-06-06T01:00:00	15	8.45	ND	1098.31	ND	ND	1	194	24.3	77.8	0	0
3099	2010-06-06T02:00:00	8	11.11	ND	1497.22	ND	ND	0.7	175.4	23.9	79.2	0	0
3100	2010-06-06T03:00:00	27	9.92	ND	1289.76	ND	ND	0.6	244.6	23.5	77.3	0	0
3101	2010-06-06T04:00:00	23	10.12	ND	1139.84	ND	ND	0.3	321.1	23.2	77.6	0	0
3102	2010-06-06T05:00:00	12	10.91	ND	1115.91	ND	ND	0.9	46.2	22.2	86.9	0	0
3103	2010-06-06T06:00:00	28	9.97	ND	1225.63	ND	ND	0	100.3	21.9	88.4	0.4	0
3104	2010-06-06T07:00:00	39	14.21	ND	1349.09	ND	ND	0.3	142	21.9	87.5	29.2	0
3105	2010-06-06T08:00:00	56	12.65	ND	1224.39	ND	ND	0.5	143.2	23.1	80.4	193.6	0
3106	2010-06-06T09:00:00	46	13.46	ND	1707.45	ND	ND	1.3	153.3	25	70.3	396.4	0
3107	2010-06-06T10:00:00	27	16.09	ND	1649.67	ND	ND	1.1	135.8	25.8	66.5	296.9	0
3108	2010-06-06T11:00:00	46	17.81	ND	1332.47	ND	ND	0.5	41.6	27.3	59.8	642.9	0
3109	2010-06-06T12:00:00	24	20.54	ND	1339.16	ND	ND	1	42.9	29.4	53	827.9	0
3110	2010-06-06T13:00:00	39	19.14	ND	1220.65	ND	ND	1.6	60.8	30.4	51.9	832	0
3111	2010-06-06T14:00:00	40	21.93	ND	1352.99	ND	ND	1.4	65.6	31.7	49.1	758.6	0
3112	2010-06-06T15:00:00	35	31.35	ND	1335.36	ND	ND	1.8	21.3	31.8	49.8	366	0
3113	2010-06-06T16:00:00	33	31.38	ND	1359.23	ND	ND	3	282.9	30.3	50.2	214.9	0
3114	2010-06-06T17:00:00	36	30.62	ND	1224.28	ND	ND	3.9	279.6	29.4	52	156.6	0
3115	2010-06-06T18:00:00	19	13.91	ND	1034.64	ND	ND	3.6	287.8	27.9	56.4	24.5	0
3116	2010-06-06T19:00:00	17	9.92	ND	971.67	ND	ND	5.1	271	27.4	57.3	0.9	0
3117	2010-06-06T20:00:00	10	8.72	ND	958.51	ND	ND	4.2	274.8	26.9	60.4	0	0
3118	2010-06-06T21:00:00	6	8.12	ND	956.92	ND	ND	2.8	275.8	26.6	61.2	0	0
3119	2010-06-06T22:00:00	4	7.64	ND	909.89	ND	ND	2.2	247.7	26.3	61.6	0.1	0
3120	2010-06-06T23:00:00	4	7.71	ND	978.01	ND	ND	0.9	240.4	25.6	67.7	0.1	0
3121	2010-06-07T00:00:00	2	7.82	ND	975.73	ND	ND	1.1	172	24.6	76.7	0.1	0
3122	2010-06-07T01:00:00	20	9.97	ND	1361.44	ND	ND	1.5	189.7	24.2	78.1	0.2	0
3123	2010-06-07T02:00:00	11	10.87	ND	1371.04	ND	ND	1.5	199.9	23.8	79.2	0.2	0
3124	2010-06-07T03:00:00	21	9.06	ND	821.52	ND	ND	1.3	223.5	23.7	75.9	0.1	0
3125	2010-06-07T04:00:00	11	8.56	ND	695.77	ND	ND	0.2	317.7	23.5	77.3	0.2	0
3126	2010-06-07T05:00:00	8	9.39	ND	649.71	ND	ND	0.8	40.7	22.3	87.3	0.1	0
3127	2010-06-07T06:00:00	20	8.67	ND	726.55	ND	ND	0.1	141.4	22.3	86.9	0.6	0
3128	2010-06-07T07:00:00	38	9.22	ND	749.25	ND	ND	0.5	272.5	22.7	78.7	46.8	0
3129	2010-06-07T08:00:00	26	9.00	ND	898.04	ND	ND	0.2	4.1	24	71.8	167	0
3130	2010-06-07T09:00:00	14	9.71	ND	833.49	ND	ND	1	103.1	24.5	75.8	234.1	0
3131	2010-06-07T10:00:00	36	11.25	ND	1040.75	ND	ND	0.9	129.6	25.8	68.2	516.1	0
3132	2010-06-07T11:00:00	34	14.69	ND	1596.67	ND	ND	1.3	59.5	27.3	62.6	520	0
3133	2010-06-07T12:00:00	19	18.03	ND	1189.08	ND	ND	1.6	36.1	28	60.4	537.6	0
3134	2010-06-07T13:00:00	25	22.76	ND	1018.28	ND	ND	1.3	61.1	28.7	58.9	439.8	0
3135	2010-06-07T14:00:00	13	38.60	ND	927.87	ND	ND	1.2	74.8	29.3	55.8	421.9	0
3136	2010-06-07T15:00:00	21	40.88	ND	1034.30	ND	ND	1.5	301.8	29	54.2	172.5	0
3137	2010-06-07T16:00:00	12	28.04	ND	1021.67	ND	ND	3.4	277.3	28.2	53.5	349.5	0
3138	2010-06-07T17:00:00	7	18.62	ND	903.17	ND	ND	3.8	282.8	28.1	52.6	319.2	0
3139	2010-06-07T18:00:00	5	8.60	ND	555.61	ND	ND	2.6	285.3	27.8	52.1	83.3	0
3140	2010-06-07T19:00:00	3	7.91	ND	693.82	ND	ND	3.1	274.1	26.5	57.4	1.9	0
3141	2010-06-07T20:00:00	3	8.11	ND	909.59	ND	ND	1.5	281.2	26.4	56.5	0.3	0
3142	2010-06-07T21:00:00	11	7.69	ND	1012.87	ND	ND	3.5	274.5	25.5	61.3	0.4	0
3143	2010-06-07T22:00:00	15	7.53	ND	1078.68	ND	ND	2.9	257.5	25	64.7	0.4	0
3144	2010-06-07T23:00:00	17	7.21	ND	905.03	ND	ND	2.5	267	24.8	64.7	0.5	0
3145	2010-06-08T00:00:00	9	6.94	ND	961.66	ND	ND	1.8	224.3	24.5	67.3	0.4	0
3146	2010-06-08T01:00:00	4	6.64	ND	834.89	ND	ND	1.5	175.5	23.6	75.4	0.4	0
3147	2010-06-08T02:00:00	3	6.42	ND	866.57	ND	ND	0.8	174.9	23.1	78.8	0.4	0
3148	2010-06-08T03:00:00	15	7.97	ND	967.56	ND	ND	0.4	82.9	23	78.8	0.4	0
3149	2010-06-08T04:00:00	13	8.77	ND	898.96	ND	ND	0.8	100.5	22.7	79.8	0.3	0
3150	2010-06-08T05:00:00	12	10.56	ND	988.99	ND	ND	0.8	145.2	22.4	82.5	0.4	0
3151	2010-06-08T06:00:00	7	11.56	ND	976.63	ND	ND	1.1	144.9	22.2	83	0.4	0
3152	2010-06-08T07:00:00	19	10.43	ND	1010.01	ND	ND	0.6	131.6	22.3	82.8	20	0
3153	2010-06-08T08:00:00	17	11.27	ND	1328.22	ND	ND	0.9	157.3	22.7	80.6	119.7	0
3154	2010-06-08T09:00:00	50	14.43	ND	2034.81	ND	ND	1.5	161.2	23.6	76.1	180	0
3155	2010-06-08T10:00:00	50	21.98	ND	2611.12	ND	ND	1.4	151	25.2	68.8	517.8	0
3156	2010-06-08T11:00:00	60	24.02	ND	2281.29	ND	ND	1	145.9	26.7	61.5	583.4	0
3157	2010-06-08T12:00:00	31	28.88	ND	1613.00	ND	ND	1.1	126.7	28	57.7	716	0
3158	2010-06-08T13:00:00	37	23.32	ND	1365.43	ND	ND	1.5	63.1	28.8	55.3	534.1	0
3159	2010-06-08T14:00:00	40	ND	ND	ND	ND	ND	1.2	68.8	29	54.7	529.8	0
3160	2010-06-08T15:00:00	44	14.47	ND	1741.48	ND	ND	1.6	325.3	29.1	52.8	339.1	0
3161	2010-06-08T16:00:00	38	31.32	ND	1463.33	ND	ND	3.4	271.8	28.4	52.1	214.1	0
3162	2010-06-08T17:00:00	46	23.80	ND	1367.24	ND	ND	4.1	258.2	26.6	60.9	63.9	0
3163	2010-06-08T18:00:00	23	6.66	ND	1186.31	ND	ND	3.1	267.4	25.6	65.5	25.7	0
3164	2010-06-08T19:00:00	28	6.80	ND	1526.73	ND	ND	1.8	264	25.6	64.2	2	0
3165	2010-06-08T20:00:00	37	7.67	ND	1951.45	ND	ND	0.4	308.4	25.6	65.5	0.4	0
3166	2010-06-08T21:00:00	48	10.06	ND	2215.47	ND	ND	1.7	249.1	25.2	65.5	0.3	0
3167	2010-06-08T22:00:00	28	12.53	ND	2097.87	ND	ND	1.8	260.7	24.9	66.2	0.4	0
3168	2010-06-08T23:00:00	28	9.35	ND	1259.75	ND	ND	0.4	215.5	24.5	71.1	0.3	0
3169	2010-06-09T00:00:00	15	5.31	ND	1017.88	ND	ND	0.1	267	24.2	72.1	0.4	0
3170	2010-06-09T01:00:00	25	6.56	ND	1428.16	ND	ND	0.6	80.1	23.2	80	0.4	0
3171	2010-06-09T02:00:00	17	13.86	ND	1093.14	ND	ND	0.5	154.8	23	80.6	0.4	0
3172	2010-06-09T03:00:00	31	8.22	ND	1228.95	ND	ND	0.8	146.3	22.6	84.9	0.4	0
3173	2010-06-09T04:00:00	16	7.54	ND	681.83	ND	ND	0.7	153.4	22.4	86.3	0.4	0
3174	2010-06-09T05:00:00	23	5.22	ND	681.37	ND	ND	1	161.4	22	88.3	0.5	0
3175	2010-06-09T06:00:00	21	3.99	ND	725.81	ND	ND	0.3	77.4	21.9	88.1	0.6	0
3176	2010-06-09T07:00:00	24	4.15	ND	736.90	ND	ND	0.4	118.2	22.4	84.5	45.1	0
3177	2010-06-09T08:00:00	32	5.14	ND	1146.97	ND	ND	0.5	95.4	23.2	80.8	118.1	0
3178	2010-06-09T09:00:00	56	8.41	ND	2072.41	ND	ND	0.7	136	24	77.2	234	0
3179	2010-06-09T10:00:00	54	13.06	ND	2352.03	ND	ND	1.2	150.5	25.2	72.8	283.3	0
3180	2010-06-09T11:00:00	80	17.17	ND	2338.61	ND	ND	2.1	158.2	26.3	66.4	625.6	0
3181	2010-06-09T12:00:00	45	17.11	ND	2128.62	ND	ND	1.1	148.8	27.7	59.1	675.8	0
3182	2010-06-09T13:00:00	43	21.05	ND	1491.22	ND	ND	2.4	176.5	28.8	55.1	617.8	0
3183	2010-06-09T14:00:00	23	17.22	ND	1380.66	ND	ND	2.5	179.7	28.3	55.8	411.6	0
3184	2010-06-09T15:00:00	37	14.84	ND	1389.95	ND	ND	1.1	170.6	27.9	59.7	187.3	0
3185	2010-06-09T16:00:00	20	10.79	ND	1179.89	ND	ND	1.4	320.4	27.7	55.9	280.7	0
3186	2010-06-09T17:00:00	15	11.16	ND	1444.98	ND	ND	1.2	337.7	28.3	52.5	250.2	0
3187	2010-06-09T18:00:00	8	8.74	ND	1297.29	ND	ND	1.7	278.6	27.1	58.1	52.7	0
3188	2010-06-09T19:00:00	13	6.17	ND	992.17	ND	ND	2.9	265.7	26	58.4	1.1	0
3189	2010-06-09T20:00:00	8	8.20	ND	1459.80	ND	ND	2.3	268	25.6	60	0.4	0
3190	2010-06-09T21:00:00	12	7.09	ND	1411.93	ND	ND	1.3	243.9	25.1	64.5	0.3	0
3191	2010-06-09T22:00:00	8	6.08	ND	1123.07	ND	ND	1.6	216.7	24.8	66.4	0.2	0
3192	2010-06-09T23:00:00	5	5.26	ND	1476.84	ND	ND	1.6	159.9	23.7	78.2	0.3	0
3193	2010-06-10T00:00:00	16	4.72	ND	1368.73	ND	ND	1.5	181	23.3	79.5	0.3	0
3194	2010-06-10T01:00:00	33	7.09	ND	1651.65	ND	ND	0.9	154.2	23.2	78.1	0.3	0
3195	2010-06-10T02:00:00	20	6.90	ND	1263.94	ND	ND	1	173	22.7	81.3	0.4	0
3196	2010-06-10T03:00:00	28	8.40	ND	1227.71	ND	ND	0.5	151.7	22.5	82.8	0.4	0
3197	2010-06-10T04:00:00	14	8.37	ND	1056.48	ND	ND	0.4	139	22.5	84.1	0.4	0
3198	2010-06-10T05:00:00	7	6.57	ND	999.68	ND	ND	1.5	26.6	21.9	86.3	0.3	2.54
3199	2010-06-10T06:00:00	20	6.15	ND	1065.67	ND	ND	1.1	9.5	20.9	94.4	0.5	2.29
3200	2010-06-10T07:00:00	30	8.37	ND	1197.64	ND	ND	0.4	164.6	21.4	92	15.5	0
3201	2010-06-10T08:00:00	21	18.77	ND	1459.98	ND	ND	1	67.7	21.5	91.7	89.2	0
3202	2010-06-10T09:00:00	54	28.33	ND	2592.63	ND	ND	0.5	169.6	22.5	84.6	241.2	0
3203	2010-06-10T10:00:00	29	33.18	ND	3158.07	ND	ND	0.5	160.5	24.3	76	413.2	0
3204	2010-06-10T11:00:00	42	31.84	ND	2125.82	ND	ND	1.1	129.4	25.4	69.6	331.5	0
3205	2010-06-10T12:00:00	29	20.23	ND	1674.83	ND	ND	1	74.1	25.8	67.9	246.2	0
3206	2010-06-10T13:00:00	52	15.26	ND	1504.77	ND	ND	0.9	72.2	26.1	67.5	255.2	0
3207	2010-06-10T14:00:00	39	13.28	ND	1621.27	ND	ND	0.9	94.9	26.5	65.5	235.7	0
3208	2010-06-10T15:00:00	56	14.77	ND	1784.63	ND	ND	0.9	93.9	26.4	65.1	300.3	0
3209	2010-06-10T16:00:00	39	14.85	ND	1945.17	ND	ND	1	13.2	27.8	60.6	400.2	0
3210	2010-06-10T17:00:00	49	15.87	ND	1908.01	ND	ND	1.4	6.9	28.1	60.3	263.9	0
3211	2010-06-10T18:00:00	45	19.06	ND	1516.36	ND	ND	1.8	286.4	27.6	57.2	138	0
3212	2010-06-10T19:00:00	43	34.31	ND	1848.96	ND	ND	2.5	268.1	26.1	59.3	2.2	0
3213	2010-06-10T20:00:00	22	28.56	ND	1586.77	ND	ND	2.4	274.4	25.4	60.7	0	0
3214	2010-06-10T21:00:00	19	9.89	ND	1732.19	ND	ND	2.1	277.6	25.2	61.5	0	0
3215	2010-06-10T22:00:00	11	7.03	ND	1524.68	ND	ND	0.7	103.8	23.9	72.3	0	0
3216	2010-06-10T23:00:00	50	5.48	ND	1278.34	ND	ND	0.8	194.5	23.1	76.9	0	0
3217	2010-06-11T00:00:00	38	14.19	ND	2743.31	ND	ND	1.2	199.1	22.8	79.6	0.2	0
3218	2010-06-11T01:00:00	36	12.69	ND	2797.39	ND	ND	0.9	226.1	22.5	79.7	0.3	0
3219	2010-06-11T02:00:00	19	9.51	ND	2056.15	ND	ND	1	251.2	22.3	71.3	0.3	0
3220	2010-06-11T03:00:00	16	6.93	ND	1839.07	ND	ND	0.8	257.9	21.9	72	0.4	0
3221	2010-06-11T04:00:00	9	5.68	ND	1020.32	ND	ND	0.4	353.5	21.3	81.2	0.4	0
3222	2010-06-11T05:00:00	19	4.30	ND	916.42	ND	ND	0.5	267.4	21.4	74.2	0.4	0
3223	2010-06-11T06:00:00	11	7.40	ND	1539.20	ND	ND	0.7	63.4	20.7	85.8	0.8	0
3224	2010-06-11T07:00:00	30	8.75	ND	1027.46	ND	ND	0.6	157.3	20.7	87.8	21	0
3225	2010-06-11T08:00:00	55	8.81	ND	1862.98	ND	ND	0.2	269.3	21.7	82.4	170.1	0
3226	2010-06-11T09:00:00	74	14.46	ND	3058.89	ND	ND	0.5	70.9	24.8	67.5	398.9	0
3227	2010-06-11T10:00:00	83	18.17	ND	3262.79	ND	ND	1.5	116.8	25.4	67.2	401.8	0
3228	2010-06-11T11:00:00	87	63.15	ND	3395.55	ND	ND	0.9	98.4	26.1	65	653.1	0
3229	2010-06-11T12:00:00	55	86.23	ND	2518.14	ND	ND	0.9	57.1	28.3	55.8	831.5	0
3230	2010-06-11T13:00:00	60	58.18	ND	1795.36	ND	ND	1.9	65.9	29.1	53.1	684.6	0
3231	2010-06-11T14:00:00	47	32.73	ND	1428.48	ND	ND	1.5	45.3	29.7	51.6	735.7	0
3232	2010-06-11T15:00:00	35	20.81	ND	1466.23	ND	ND	1.7	57.9	29.9	52.5	438.5	0
3233	2010-06-11T16:00:00	52	18.51	ND	1315.82	ND	ND	1.5	57.3	29.6	53.1	271.2	0
3234	2010-06-11T17:00:00	44	25.81	ND	1803.10	ND	ND	1.5	31.9	29.1	54.9	125.7	0
3235	2010-06-11T18:00:00	36	28.21	ND	1927.87	ND	ND	1.8	290	28.5	56.2	43.9	0
3236	2010-06-11T19:00:00	28	31.57	ND	2028.36	ND	ND	3.3	265.9	27.3	59.6	2.5	0
3237	2010-06-11T20:00:00	15	13.70	ND	1570.05	ND	ND	4.3	263.9	26.6	61.1	0	0
3238	2010-06-11T21:00:00	33	9.11	ND	1428.18	ND	ND	2.8	270.6	26.4	61.6	0	0
3239	2010-06-11T22:00:00	18	5.87	ND	1012.87	ND	ND	1	67.8	25.2	70.4	0	0
3240	2010-06-11T23:00:00	30	5.53	ND	1020.27	ND	ND	1	223.1	26	65.2	0	0
3241	2010-06-12T00:00:00	16	11.73	ND	2137.98	ND	ND	1.8	197.1	25	72.3	0	0
3242	2010-06-12T01:00:00	19	12.58	ND	1638.22	ND	ND	1.3	235.2	25.1	69.1	0	0
3243	2010-06-12T02:00:00	11	7.44	ND	1237.67	ND	ND	1.2	169	23.5	81	0	0
3244	2010-06-12T03:00:00	28	5.34	ND	854.88	ND	ND	1.5	177.9	23.1	82.7	0	0
3245	2010-06-12T04:00:00	35	5.42	ND	1195.22	ND	ND	0.6	191.9	23.1	80.5	0	0
3246	2010-06-12T05:00:00	46	6.93	ND	1092.77	ND	ND	0.8	246.5	23	78.1	0	0
3247	2010-06-12T06:00:00	28	8.88	ND	1160.68	ND	ND	0.5	252.6	22.6	76.9	0.5	0
3248	2010-06-12T07:00:00	34	10.71	ND	1022.74	ND	ND	0.4	54.3	22.5	82.9	37.5	0
3249	2010-06-12T08:00:00	62	7.77	ND	1056.48	ND	ND	1.1	121.2	22.8	82.7	105.1	0
3250	2010-06-12T09:00:00	89	13.73	ND	2592.70	ND	ND	0.8	130.9	24.4	74.6	384.1	0
3251	2010-06-12T10:00:00	68	23.38	ND	3235.54	ND	ND	1	105.1	26.2	66.2	501.7	0
3252	2010-06-12T11:00:00	90	18.05	ND	2645.51	ND	ND	1.1	93.4	27.6	62.2	608.3	0
3253	2010-06-12T12:00:00	69	20.93	ND	2322.76	ND	ND	0.9	33.2	28.8	57.1	532.1	0
3254	2010-06-12T13:00:00	63	28.66	ND	2007.17	ND	ND	1.3	138.3	29.1	57.1	517.2	0
3255	2010-06-12T14:00:00	51	22.29	ND	1753.67	ND	ND	1.8	112.6	29.3	55.7	357.5	0
3256	2010-06-12T15:00:00	70	17.52	ND	2056.98	ND	ND	1.6	306.4	28.7	54	272.3	0
3257	2010-06-12T16:00:00	38	16.24	ND	2377.65	ND	ND	1.9	337.2	29.6	50.1	482.5	0
3258	2010-06-12T17:00:00	22	10.64	ND	1582.08	ND	ND	2.1	319.2	29.1	52.7	264.7	0
3259	2010-06-12T18:00:00	12	9.85	ND	1382.03	ND	ND	2.8	280.6	27.5	57.3	75.8	0
3260	2010-06-12T19:00:00	6	18.73	ND	1455.57	ND	ND	3	281	26.5	58.3	1.5	0
3261	2010-06-12T20:00:00	5	6.35	ND	1473.76	ND	ND	2	269.1	26.3	58.9	0	0
3262	2010-06-12T21:00:00	7	6.03	ND	1426.75	ND	ND	2.5	248.6	25.7	62.3	0	0
3263	2010-06-12T22:00:00	17	5.52	ND	1332.03	ND	ND	1.5	191.3	24.8	72.2	0	2.03
3264	2010-06-12T23:00:00	10	4.32	ND	950.22	ND	ND	1.6	195.1	23.9	79.1	0	0
3265	2010-06-13T00:00:00	11	5.51	ND	1289.76	ND	ND	1.5	190.4	23.2	78.6	0	0.25
3266	2010-06-13T01:00:00	16	6.54	ND	1491.68	ND	ND	0.5	232.2	23	79.4	0	0
3267	2010-06-13T02:00:00	9	5.91	ND	1285.85	ND	ND	0.3	98.2	22.7	80	0	0
3268	2010-06-13T03:00:00	17	5.30	ND	1148.13	ND	ND	0.7	39.6	22.1	83.2	0	0
3269	2010-06-13T04:00:00	10	5.27	ND	1418.07	ND	ND	0.3	179	22	83.4	0	0
3270	2010-06-13T05:00:00	12	5.34	ND	1111.39	ND	ND	0.7	250.6	21.8	81.8	0.2	0
3271	2010-06-13T06:00:00	7	5.60	ND	1076.64	ND	ND	0.3	63.9	21.9	81.6	0.7	0
3272	2010-06-13T07:00:00	4	5.00	ND	906.95	ND	ND	0.3	86.6	22	84.5	24.1	0
3273	2010-06-13T08:00:00	5	5.86	ND	1202.12	ND	ND	0.4	87	23.4	78	230.9	0
3274	2010-06-13T09:00:00	36	7.53	ND	1606.63	ND	ND	0.5	90.9	24.3	73.3	233.7	0
3275	2010-06-13T10:00:00	30	16.36	ND	1565.80	ND	ND	1	152	25.6	68.7	506.5	0
3276	2010-06-13T11:00:00	49	24.15	ND	1434.89	ND	ND	0.7	161.9	27.1	61.4	624.1	0
3277	2010-06-13T12:00:00	26	19.98	ND	1326.73	ND	ND	0.9	84.4	28.5	55.3	592.9	0
3278	2010-06-13T13:00:00	44	15.61	ND	1077.93	ND	ND	1.3	69.7	28.7	54.7	446.9	0
3279	2010-06-13T14:00:00	23	15.57	ND	1113.44	ND	ND	0.9	65.5	29.9	50.9	535.3	0
3280	2010-06-13T15:00:00	29	19.50	ND	1315.82	ND	ND	2.1	286.1	29.5	50.4	387.2	0
3281	2010-06-13T16:00:00	15	32.88	ND	895.44	ND	ND	4.1	280.6	29.2	50.6	516.4	0
3282	2010-06-13T17:00:00	9	15.81	ND	859.70	ND	ND	4.7	266.5	27.1	59.3	150.8	0
3283	2010-06-13T18:00:00	5	4.80	ND	807.58	ND	ND	3.7	216.7	24.2	73.6	30.5	0
3284	2010-06-13T19:00:00	15	4.65	ND	982.58	ND	ND	2.8	244.9	25.1	60.5	2.5	0
3285	2010-06-13T20:00:00	9	5.19	ND	870.95	ND	ND	1.4	210	24.5	67.7	0	0
3286	2010-06-13T21:00:00	8	4.08	ND	880.64	ND	ND	1.3	182	22.4	85.6	0	2.29
3287	2010-06-13T22:00:00	20	4.88	ND	1249.17	ND	ND	2	221.2	21.9	88.5	0	0.76
3288	2010-06-13T23:00:00	22	4.05	ND	1383.10	ND	ND	1	258.3	21.6	84.9	0.1	2.03
3289	2010-06-14T00:00:00	13	3.34	ND	1268.44	ND	ND	1.8	253.2	21.5	81.1	0	0
3290	2010-06-14T01:00:00	7	2.90	ND	1075.54	ND	ND	0.9	46.3	21.2	88.7	0.3	0
3291	2010-06-14T02:00:00	5	2.46	ND	870.87	ND	ND	0.4	293.8	21	88.2	0.3	0
3292	2010-06-14T03:00:00	6	3.41	ND	1118.93	ND	ND	0.1	109	21.3	83.4	0.2	0
3293	2010-06-14T04:00:00	8	5.33	ND	791.97	ND	ND	0.4	358.4	21.3	88.5	0.3	0
3294	2010-06-14T05:00:00	14	17.70	ND	916.42	ND	ND	0.8	60.9	21	88.6	0.2	0
3295	2010-06-14T06:00:00	14	36.91	ND	1062.42	ND	ND	0.4	56.3	20.5	90.2	0.7	0
3296	2010-06-14T07:00:00	23	29.99	ND	1071.89	ND	ND	0.1	331.1	20.7	88.7	31.4	0
3297	2010-06-14T08:00:00	12	15.99	ND	1083.91	ND	ND	0.6	37.8	21.7	83.7	172.6	0
3298	2010-06-14T09:00:00	18	12.05	ND	1132.92	ND	ND	0.7	78.6	23.6	75	410.3	0
3299	2010-06-14T10:00:00	13	25.22	ND	1277.05	ND	ND	1.3	61.7	25.2	67.7	663	0
3300	2010-06-14T11:00:00	26	52.68	ND	1432.97	ND	ND	1.2	58.2	26.6	60.3	563.1	0
3301	2010-06-14T12:00:00	14	86.72	ND	1278.45	ND	ND	1.1	83.2	26.4	61.2	346.4	0
3302	2010-06-14T13:00:00	9	37.38	ND	1185.52	ND	ND	0.7	96.3	27.5	58.2	504.6	0
3303	2010-06-14T14:00:00	6	19.47	ND	1236.08	ND	ND	1.2	101.4	27.6	59	338.2	0
3304	2010-06-14T15:00:00	4	18.08	ND	1248.05	ND	ND	0.6	70.1	28.1	57.8	224.4	0
3305	2010-06-14T16:00:00	5	15.70	ND	1331.15	ND	ND	1	198	27.7	59.4	127.8	0
3306	2010-06-14T17:00:00	14	32.31	ND	1317.83	ND	ND	0.7	190.8	27.7	56.7	109.3	0
3307	2010-06-14T18:00:00	8	27.66	ND	1179.11	ND	ND	1	267.1	27.9	55	94	0
3308	2010-06-14T19:00:00	ND	17.65	ND	1284.00	ND	ND	2.5	263.4	26.4	58.8	1.8	0
3309	2010-06-14T20:00:00	ND	16.61	ND	1185.52	ND	ND	2.8	272.3	26	58.7	0	0
3310	2010-06-14T21:00:00	ND	ND	ND	ND	ND	ND	2.1	289	25.7	60.5	0	0
3311	2010-06-14T22:00:00	ND	ND	ND	ND	ND	ND	3.1	276.4	25.1	62.6	0	0
3312	2010-06-14T23:00:00	ND	ND	ND	ND	ND	ND	1.8	266.4	25	61.6	0	0
3313	2010-06-15T00:00:00	ND	ND	ND	ND	ND	ND	0.1	24.2	24.6	65.2	0	0
3314	2010-06-15T01:00:00	ND	ND	ND	ND	ND	ND	0.7	128.5	23.8	70.2	0	0
3315	2010-06-15T02:00:00	ND	ND	ND	ND	ND	ND	1.1	133.6	23	74.3	0	0
3316	2010-06-15T03:00:00	ND	ND	ND	ND	ND	ND	1.2	160	22.4	80	0	0
3317	2010-06-15T04:00:00	ND	ND	ND	ND	ND	ND	0.7	186.4	21.9	82.6	0	0
3318	2010-06-15T05:00:00	ND	ND	ND	ND	ND	ND	1.2	194.1	22	83.1	0	0
3319	2010-06-15T06:00:00	ND	ND	ND	ND	ND	ND	0.3	106	21.9	83.7	0.2	0
3320	2010-06-15T07:00:00	ND	ND	ND	ND	ND	ND	0.4	91.8	21.9	83.8	52.3	0
3321	2010-06-15T08:00:00	ND	ND	ND	ND	ND	ND	0.4	170.1	23.3	78	185.8	0
3322	2010-06-15T09:00:00	ND	ND	ND	ND	ND	ND	0.5	130.6	24.4	73	289.1	0
3323	2010-06-15T10:00:00	ND	ND	ND	ND	ND	ND	1.6	129.2	25.2	71	370.9	0
3324	2010-06-15T11:00:00	ND	ND	ND	ND	ND	ND	0.7	143.6	26.1	64.4	405.3	0
3325	2010-06-15T12:00:00	ND	ND	ND	ND	ND	ND	0.5	203	27.7	57.8	559.6	0
3326	2010-06-15T13:00:00	ND	ND	ND	ND	ND	ND	0.6	118.3	28.4	54.7	407.4	0
3327	2010-06-15T14:00:00	ND	ND	ND	ND	ND	ND	1	55.3	29	52.8	313.9	0
3328	2010-06-15T15:00:00	ND	ND	ND	ND	ND	ND	1	222.5	28.8	54.3	178	0
3329	2010-06-15T16:00:00	ND	ND	ND	ND	ND	ND	3.1	274.7	29.6	48.3	444.3	0
3330	2010-06-15T17:00:00	ND	ND	ND	ND	ND	ND	3.4	286.2	27	59.9	39.6	0
3331	2010-06-15T18:00:00	29	ND	ND	ND	ND	ND	3	280.3	24.9	69.2	21.7	0.76
3332	2010-06-15T19:00:00	16	12.42	ND	1259.75	ND	ND	3.9	270.8	24.7	66.6	1.6	0
3333	2010-06-15T20:00:00	11	12.17	ND	1419.12	ND	ND	2.7	285.9	24.8	63.5	0	0
3334	2010-06-15T21:00:00	6	11.44	ND	1156.29	ND	ND	1.2	332.1	24.9	63.1	0	0
3335	2010-06-15T22:00:00	4	10.03	ND	1145.22	ND	ND	2.3	252.5	24.6	62.8	0	0
3336	2010-06-15T23:00:00	2	9.08	ND	1109.75	ND	ND	1.7	273.9	24.5	64.1	0	0
3337	2010-06-16T00:00:00	9	9.13	ND	1258.05	ND	ND	0.3	331	23.7	76.3	0	0
3338	2010-06-16T01:00:00	6	7.83	ND	798.43	ND	ND	0.8	180.8	23.3	77.5	0	0
3339	2010-06-16T02:00:00	6	12.51	ND	1173.24	ND	ND	1.1	168.6	22.8	81.2	0	0
3340	2010-06-16T03:00:00	4	10.82	ND	1125.78	ND	ND	0.6	145.7	22.5	83.2	0	0
3341	2010-06-16T04:00:00	11	9.95	ND	942.88	ND	ND	0.7	222.7	22.5	82.2	0	0
3342	2010-06-16T05:00:00	5	9.54	ND	817.92	ND	ND	0.4	244.6	22.5	79.5	0	0
3343	2010-06-16T06:00:00	13	9.48	ND	806.56	ND	ND	0.3	193.4	22.4	83.2	0.3	0
3344	2010-06-16T07:00:00	9	9.69	ND	908.49	ND	ND	0.1	88.4	22.2	81.6	18.3	0
3345	2010-06-16T08:00:00	75	10.17	ND	1044.06	ND	ND	0.3	116.6	22.7	80	108	0
3346	2010-06-16T09:00:00	72	13.62	ND	1898.40	ND	ND	1.2	133	23.5	78.1	244.7	0
3347	2010-06-16T10:00:00	58	19.32	ND	3373.93	ND	ND	0.7	123.5	24.7	73.3	382.6	0
3348	2010-06-16T11:00:00	45	23.09	ND	2037.13	ND	ND	0.8	99.7	25.5	67.5	278.4	0
3349	2010-06-16T12:00:00	51	21.89	ND	1285.23	ND	ND	1.2	156	25.4	70	164.9	0
3350	2010-06-16T13:00:00	37	21.67	ND	1560.12	ND	ND	1	130.7	25.8	67.5	270.6	0
3351	2010-06-16T14:00:00	36	21.68	ND	1700.05	ND	ND	0.5	102	26.4	64.4	263.5	0
3352	2010-06-16T15:00:00	27	20.67	ND	1565.35	ND	ND	0.3	67.9	26.8	63.3	277.6	0
3353	2010-06-16T16:00:00	49	17.37	ND	1083.38	ND	ND	0.6	99.6	27.1	62.4	208.2	0
3354	2010-06-16T17:00:00	57	18.79	ND	1753.59	ND	ND	1.1	58.5	27.3	62.2	142.7	0
3355	2010-06-16T18:00:00	85	20.97	ND	2008.74	ND	ND	0.6	133.1	26.6	64.2	39.5	0
3356	2010-06-16T19:00:00	43	27.95	ND	2418.69	ND	ND	1.7	256.2	26.2	61.3	1.6	0
3357	2010-06-16T20:00:00	38	33.83	ND	2070.40	ND	ND	1.6	254.8	25.8	62.8	0	0
3358	2010-06-16T21:00:00	24	18.47	ND	1435.85	ND	ND	0.4	348.1	25.3	68.2	0	0
3359	2010-06-16T22:00:00	33	16.73	ND	1628.40	ND	ND	1.5	271	24.8	67.1	0	0
3360	2010-06-16T23:00:00	18	22.00	ND	1888.98	ND	ND	1.1	282.1	24.5	68.4	0	0
3361	2010-06-17T00:00:00	19	17.66	ND	1315.24	ND	ND	0.8	193.5	24	75.4	0	0
3362	2010-06-17T01:00:00	17	15.22	ND	1096.09	ND	ND	1	30.7	23.2	79.4	0	0
3363	2010-06-17T02:00:00	24	16.33	ND	1537.23	ND	ND	1.2	7.9	22.5	83.2	0	0
3364	2010-06-17T03:00:00	12	15.95	ND	817.92	ND	ND	0.6	12.4	22.3	87	0	0
3365	2010-06-17T04:00:00	15	24.04	ND	692.49	ND	ND	0.8	159.9	22.3	86	0	0
3366	2010-06-17T05:00:00	8	34.79	ND	896.83	ND	ND	0.9	181.7	21.9	88.8	0	0
3367	2010-06-17T06:00:00	7	31.53	ND	634.87	ND	ND	0.9	147.3	21.6	89.4	0.4	0
3368	2010-06-17T07:00:00	9	19.79	ND	532.29	ND	ND	0.4	155.9	21.7	87	50.2	0
3369	2010-06-17T08:00:00	29	17.93	ND	827.03	ND	ND	0.6	90.2	23.3	78.9	189.8	0
3370	2010-06-17T09:00:00	17	18.34	ND	1480.79	ND	ND	1	75.8	24.7	71.7	405.9	0
3371	2010-06-17T10:00:00	32	23.03	ND	2472.02	ND	ND	1.2	65	26.2	64.9	630.8	0
3372	2010-06-17T11:00:00	18	28.04	ND	1805.85	ND	ND	1	70.8	27.4	59.7	808.8	0
3373	2010-06-17T12:00:00	50	28.16	ND	1351.16	ND	ND	1.4	53.8	28.6	55.8	638.8	0
3374	2010-06-17T13:00:00	40	24.05	ND	1217.42	ND	ND	1.1	62.2	29.4	54.2	787.4	0
3375	2010-06-17T14:00:00	43	24.83	ND	1860.04	ND	ND	1.6	76.8	30.1	52.8	723.5	0
3376	2010-06-17T15:00:00	23	22.39	ND	1340.00	ND	ND	0.8	0.4	30.9	50	632	0
3377	2010-06-17T16:00:00	43	24.10	ND	1647.29	ND	ND	1.6	60.1	30	52.5	188.8	0
3378	2010-06-17T17:00:00	40	23.42	ND	1327.91	ND	ND	1.7	274.8	29.3	53	130.2	0
3379	2010-06-17T18:00:00	34	28.28	ND	1871.04	ND	ND	3.2	273.5	28.4	55.1	87.3	0
3380	2010-06-17T19:00:00	18	24.28	ND	1668.50	ND	ND	4.1	269.9	27	58.1	0.9	0
3381	2010-06-17T20:00:00	20	18.20	ND	1476.22	ND	ND	4.4	271.6	26.5	59.9	0	0
3382	2010-06-17T21:00:00	10	17.54	ND	1393.16	ND	ND	2.1	289.3	26.5	59.3	0	0
3383	2010-06-17T22:00:00	5	16.06	ND	1082.29	ND	ND	0.8	51.5	25.4	65.9	0	0
3384	2010-06-17T23:00:00	12	15.66	ND	1112.73	ND	ND	0.5	131	24.4	70.4	0	0
3385	2010-06-18T00:00:00	19	20.63	ND	1989.34	ND	ND	1.9	199.7	24.2	74.3	0	0
3386	2010-06-18T01:00:00	24	23.70	ND	2170.81	ND	ND	0.7	168.4	23.7	76.7	0	0
3387	2010-06-18T02:00:00	17	18.34	ND	1231.86	ND	ND	0.9	150.3	22.8	78.9	0	0
3388	2010-06-18T03:00:00	10	17.37	ND	1239.49	ND	ND	0.4	131.4	22.6	80	0	0
3389	2010-06-18T04:00:00	28	17.41	ND	1136.38	ND	ND	0.4	197.3	22.6	78.9	0	0
3390	2010-06-18T05:00:00	15	18.04	ND	1045.47	ND	ND	0.5	162.8	22.5	78.8	0	0
3391	2010-06-18T06:00:00	22	18.50	ND	1113.28	ND	ND	0.5	167	22	84.5	0.5	0
3392	2010-06-18T07:00:00	34	18.21	ND	1088.71	ND	ND	0.7	18.5	22	84.9	18	0
3393	2010-06-18T08:00:00	47	19.30	ND	1440.27	ND	ND	0.9	175	23.2	77.1	99.3	0
3394	2010-06-18T09:00:00	57	27.55	ND	2300.15	ND	ND	1.1	160	23.5	82.4	176.3	0
3395	2010-06-18T10:00:00	61	40.28	ND	2895.20	ND	ND	1.2	144.6	25.1	72.5	497.2	0
3396	2010-06-18T11:00:00	36	32.84	ND	3380.68	ND	ND	1.3	154.3	27.5	60.1	666.8	0
3397	2010-06-18T12:00:00	34	31.34	ND	2345.09	ND	ND	1.3	162.9	28.1	58.4	472.2	0
3398	2010-06-18T13:00:00	22	30.76	ND	1701.56	ND	ND	0.8	157.8	28.4	58.9	344.4	0
3399	2010-06-18T14:00:00	34	29.13	ND	1459.93	ND	ND	1.4	311.3	28.6	55.8	334.8	0
3400	2010-06-18T15:00:00	18	25.99	ND	1518.88	ND	ND	3.1	282.6	28.4	52.7	295.7	0
3401	2010-06-18T16:00:00	10	23.22	ND	1332.48	ND	ND	2.8	289.5	28.6	51.7	375.8	0
3402	2010-06-18T17:00:00	5	20.05	ND	1298.58	ND	ND	3.7	287.3	28.4	51.7	348	0
3403	2010-06-18T18:00:00	2	19.21	ND	1344.07	ND	ND	3.3	278.5	26.9	54.2	110.7	0
3404	2010-06-18T19:00:00	3	19.09	ND	1302.79	ND	ND	3.9	284.1	26.1	54.8	2.9	0
3405	2010-06-18T20:00:00	22	20.07	ND	1368.30	ND	ND	3.6	272.1	25.7	56.3	0.3	0
3406	2010-06-18T21:00:00	13	19.09	ND	1171.26	ND	ND	2.1	181.7	23.5	74.7	0	0
3407	2010-06-18T22:00:00	32	17.88	ND	1037.26	ND	ND	1.7	146.7	22.8	79.6	0	0
3408	2010-06-18T23:00:00	21	17.79	ND	1364.58	ND	ND	1.6	172.1	22.2	81.1	0	0
3409	2010-06-19T00:00:00	22	19.91	ND	1373.16	ND	ND	0.8	160.8	22.1	82.6	0	0
3410	2010-06-19T01:00:00	12	18.60	ND	907.57	ND	ND	0.7	109.1	21.8	85.3	0	0
3411	2010-06-19T02:00:00	7	17.52	ND	634.65	ND	ND	0.5	118.9	21.6	86	0	0
3412	2010-06-19T03:00:00	5	17.80	ND	747.47	ND	ND	0.3	66.6	21.8	85.2	0	0
3413	2010-06-19T04:00:00	8	16.90	ND	543.99	ND	ND	0.6	64.6	21.8	85.2	0	0
3414	2010-06-19T05:00:00	5	21.13	ND	770.65	ND	ND	0.2	66.1	21.7	85.6	0	0
3415	2010-06-19T06:00:00	33	23.45	ND	657.09	ND	ND	0.7	50.3	21.7	85.6	0.3	0
3416	2010-06-19T07:00:00	32	26.17	ND	1076.28	ND	ND	0.6	19.6	21.9	84.5	17	0
3417	2010-06-19T08:00:00	71	36.74	ND	1507.81	ND	ND	1	35.6	22.2	83.4	80.3	0
3418	2010-06-19T09:00:00	68	40.08	ND	1463.95	ND	ND	1	46.8	22.9	79.3	197.2	0
3419	2010-06-19T10:00:00	61	57.73	ND	2093.06	ND	ND	1	44.1	23.9	73	211	0
3420	2010-06-19T11:00:00	46	84.95	ND	1894.69	ND	ND	1.6	6.9	23.9	73.7	95.6	4.57
3421	2010-06-19T12:00:00	52	63.83	ND	1563.69	ND	ND	0.9	313.1	21.9	89.4	163.1	15.24
3422	2010-06-19T13:00:00	29	49.11	ND	1462.46	ND	ND	0.9	61.8	24.6	71.8	330.6	0
3423	2010-06-19T14:00:00	40	90.46	ND	1750.43	ND	ND	2.2	81.1	25.1	68.5	293.2	0
3424	2010-06-19T15:00:00	26	78.50	ND	1741.91	ND	ND	2.5	61.2	22.7	83.5	214.6	0
3425	2010-06-19T16:00:00	34	38.90	ND	1887.03	ND	ND	1.2	59.2	23.5	76.6	191.9	0
3426	2010-06-19T17:00:00	26	32.90	ND	1595.78	ND	ND	0.8	142.3	23.3	79.6	103.3	0
3427	2010-06-19T18:00:00	43	40.75	ND	1617.48	ND	ND	2	184.2	22.8	81.3	22	0
3428	2010-06-19T19:00:00	36	29.73	ND	2251.56	ND	ND	2	165.9	21.7	87.1	1	0
3429	2010-06-19T20:00:00	41	26.56	ND	2061.92	ND	ND	2	183.5	20.6	89.3	0.2	4.06
3430	2010-06-19T21:00:00	22	25.48	ND	2065.51	ND	ND	0.6	171.6	19.7	94.7	0	29.46
3431	2010-06-19T22:00:00	12	21.36	ND	1597.83	ND	ND	0.8	286.9	19	99.6	0	41.15
3432	2010-06-19T23:00:00	7	19.85	ND	1582.78	ND	ND	0.7	200.5	19.7	97.9	0	0.76
3433	2010-06-20T00:00:00	4	18.74	ND	1372.78	ND	ND	0.2	179	20.2	93.7	0	0.51
3434	2010-06-20T01:00:00	3	18.56	ND	1634.37	ND	ND	0.2	93	20.2	94.1	0	0.25
3435	2010-06-20T02:00:00	3	19.00	ND	1690.73	ND	ND	0.2	147.5	20.4	93.9	0	0
3436	2010-06-20T03:00:00	2	19.30	ND	1748.28	ND	ND	1.2	55.4	19.8	96.7	0	13.72
3437	2010-06-20T04:00:00	3	19.72	ND	1846.01	ND	ND	1.7	29.2	19.3	98.5	0	12.95
3438	2010-06-20T05:00:00	3	19.02	ND	1460.80	ND	ND	2.1	20.1	19.3	97.2	0	7.11
3439	2010-06-20T06:00:00	2	18.25	ND	1011.33	ND	ND	1.3	38.7	19.2	96.6	0	6.86
3440	2010-06-20T07:00:00	1	22.56	ND	864.95	ND	ND	0.9	21.8	19.2	96.2	5.6	6.86
3441	2010-06-20T08:00:00	1	36.48	ND	898.65	ND	ND	0.2	35.2	19.1	97	21.8	9.4
3442	2010-06-20T09:00:00	ND	25.30	ND	1033.09	ND	ND	0.7	172.2	19.5	96.3	78.3	2.79
3443	2010-06-20T10:00:00	12	25.02	ND	1416.82	ND	ND	1.2	150.1	20	94.6	182.9	0.76
3444	2010-06-20T11:00:00	8	38.62	ND	1858.54	ND	ND	1.4	169.7	20.7	91.6	189.9	0.25
3445	2010-06-20T12:00:00	5	32.07	ND	1885.56	ND	ND	0.8	182.6	21.1	87.6	259.4	0.25
3446	2010-06-20T13:00:00	3	26.53	ND	1616.78	ND	ND	0.8	129.7	22	82.5	302.6	0
3447	2010-06-20T14:00:00	1	22.96	ND	1338.21	ND	ND	0.6	110.4	23.2	76.2	451.5	0
3448	2010-06-20T15:00:00	1	22.35	ND	1400.59	ND	ND	0.7	133.1	23.9	71	340.5	0
3449	2010-06-20T16:00:00	ND	21.38	ND	947.34	ND	ND	1	122	23.8	72.2	262.8	0
3450	2010-06-20T17:00:00	12	20.51	ND	798.70	ND	ND	1.2	89.1	23.5	74.3	120.1	0
3451	2010-06-20T18:00:00	16	21.04	ND	934.67	ND	ND	1.2	68.4	23.1	74.1	39	0
3452	2010-06-20T19:00:00	15	21.48	ND	1001.71	ND	ND	1.1	62.2	22.5	77.8	3.6	0
3453	2010-06-20T20:00:00	23	23.51	ND	1022.40	ND	ND	0.9	9.1	22.2	81.6	0.4	0
3454	2010-06-20T21:00:00	13	27.72	ND	1429.90	ND	ND	0.4	328.9	22.1	81.3	0.4	0
3455	2010-06-20T22:00:00	20	35.39	ND	1315.97	ND	ND	0.8	262.3	21.6	82.4	0.3	0
3456	2010-06-20T23:00:00	11	41.65	ND	1098.56	ND	ND	0.9	266.7	21.3	81.7	0.3	0
3457	2010-06-21T00:00:00	12	43.16	ND	1233.21	ND	ND	0.2	13.9	20.7	85.1	0	0
3458	2010-06-21T01:00:00	7	28.87	ND	801.64	ND	ND	0.3	246.8	20.5	83.1	0	0
3459	2010-06-21T02:00:00	20	24.41	ND	1229.86	ND	ND	1	206.3	20	89.8	0	0
3460	2010-06-21T03:00:00	11	24.63	ND	878.58	ND	ND	1.1	194.9	19.8	91.8	0	0
3461	2010-06-21T04:00:00	7	21.03	ND	607.83	ND	ND	0.5	219.5	20	89.6	0	0
3462	2010-06-21T05:00:00	8	20.20	ND	788.47	ND	ND	0	270.6	20.3	88.4	0	0
3463	2010-06-21T06:00:00	6	19.83	ND	823.10	ND	ND	0.1	147.3	20.5	87.1	0.3	0
3464	2010-06-21T07:00:00	4	19.46	ND	812.38	ND	ND	0.2	256.9	20.6	84.9	31.3	0
3465	2010-06-21T08:00:00	51	20.27	ND	1049.68	ND	ND	0.9	33.4	21.1	85.9	108.3	0
3466	2010-06-21T09:00:00	76	22.65	ND	1786.37	ND	ND	0.7	52.5	22.1	81.5	309.1	0
3467	2010-06-21T10:00:00	72	32.10	ND	3199.17	ND	ND	0.6	134	24.5	67.8	275.1	0
3468	2010-06-21T11:00:00	54	62.52	ND	2836.34	ND	ND	0.4	176.6	26.2	59.6	733.8	0
3469	2010-06-21T12:00:00	60	43.80	ND	2035.89	ND	ND	1.2	111.3	27.6	55.8	853.1	0
3470	2010-06-21T13:00:00	33	33.46	ND	1814.30	ND	ND	1.1	105.3	28.4	52.8	872.5	0
3471	2010-06-21T14:00:00	35	31.54	ND	1877.06	ND	ND	1.4	95.4	29.2	50.7	810.8	0
3472	2010-06-21T15:00:00	28	30.19	ND	1754.25	ND	ND	1.2	98.9	28.9	51.3	275.9	0
3473	2010-06-21T16:00:00	25	30.29	ND	1636.45	ND	ND	1.6	302.8	27.9	54.7	69.6	0
3474	2010-06-21T17:00:00	30	28.49	ND	1781.40	ND	ND	2.1	310.3	26.8	59	147.5	0
3475	2010-06-21T18:00:00	20	27.02	ND	1613.54	ND	ND	4.5	269.2	26.5	58	90.9	0
3476	2010-06-21T19:00:00	12	25.81	ND	2026.42	ND	ND	3.7	269.2	25.4	61.4	1.7	0
3477	2010-06-21T20:00:00	9	21.75	ND	1365.10	ND	ND	3.3	274.4	25.2	60.1	0.4	0
3478	2010-06-21T21:00:00	7	20.92	ND	1547.61	ND	ND	0.1	19.9	25.3	60.8	0.4	0
3479	2010-06-21T22:00:00	24	20.64	ND	1318.77	ND	ND	0.7	65.5	24	70.7	0.4	0
3480	2010-06-21T23:00:00	17	23.14	ND	1872.49	ND	ND	0.5	94.9	23.7	72.7	0.4	0
3481	2010-06-22T00:00:00	37	25.75	ND	1870.60	ND	ND	0.9	63.6	23	75.6	0.4	0
3482	2010-06-22T01:00:00	19	28.16	ND	1888.95	ND	ND	0.7	41.8	22.2	79.3	0.4	0
3483	2010-06-22T02:00:00	29	31.74	ND	1384.51	ND	ND	0.2	171.6	22	80.9	0.4	0
3484	2010-06-22T03:00:00	15	28.04	ND	1145.42	ND	ND	0.4	177.8	21.8	83.3	0.4	0
3485	2010-06-22T04:00:00	16	39.58	ND	1019.97	ND	ND	0.5	270.7	21.2	81.8	0.4	0
3486	2010-06-22T05:00:00	9	39.79	ND	995.28	ND	ND	0.4	7.5	20.8	86.8	0.3	0
3487	2010-06-22T06:00:00	13	28.03	ND	1061.69	ND	ND	0.3	153.1	21	87.1	0.2	0
3488	2010-06-22T07:00:00	8	45.29	ND	994.60	ND	ND	0.5	93.4	20.7	90.5	6	0
3489	2010-06-22T08:00:00	30	59.27	ND	1388.76	ND	ND	0.8	160.6	20.9	90.9	21.6	0
3490	2010-06-22T09:00:00	38	35.20	ND	2677.73	ND	ND	0.8	157.2	21.1	90.3	66.6	0
3491	2010-06-22T10:00:00	54	32.17	ND	2679.56	ND	ND	1.3	144.3	21.7	86.7	154.4	0
3492	2010-06-22T11:00:00	55	29.36	ND	2005.27	ND	ND	0.6	151.3	22.8	80.4	240.4	0
3493	2010-06-22T12:00:00	38	ND	ND	ND	ND	ND	0.5	64.7	24.8	70.2	615.4	0
3494	2010-06-22T13:00:00	43	ND	ND	ND	ND	ND	1.3	39	25.8	65.6	637.3	0
3495	2010-06-22T14:00:00	31	27.74	ND	1677.08	ND	ND	1.7	46.1	28.1	57	836	0
3496	2010-06-22T15:00:00	30	46.94	ND	1365.88	ND	ND	1.7	57.5	28.2	56.1	594.1	0
3497	2010-06-22T16:00:00	28	47.46	ND	1215.80	ND	ND	1.5	53.4	28.8	54.3	533.1	0
3498	2010-06-22T17:00:00	35	24.73	ND	1403.86	ND	ND	1.9	76.1	28.2	56.4	208.7	0
3499	2010-06-22T18:00:00	47	21.50	ND	1470.54	ND	ND	1.3	52.7	27.5	58.4	64.2	0
3500	2010-06-22T19:00:00	58	20.40	ND	2079.39	ND	ND	1.2	292.9	26.9	62.4	2.8	0
3501	2010-06-22T20:00:00	46	36.57	ND	2052.18	ND	ND	2.1	262.1	25.7	65.3	0.4	0
3502	2010-06-22T21:00:00	24	76.74	ND	2181.77	ND	ND	1.1	277.3	25.4	66.1	0.4	0
3503	2010-06-22T22:00:00	22	16.37	ND	1606.00	ND	ND	0.8	276.4	24.8	67.9	0.4	0
3504	2010-06-22T23:00:00	14	12.91	ND	1728.71	ND	ND	1.4	220	24.5	70.6	0.4	0
3505	2010-06-23T00:00:00	33	11.14	ND	1441.04	ND	ND	1	174.4	23.8	77.1	0.4	0
3506	2010-06-23T01:00:00	31	9.32	ND	1437.65	ND	ND	0.4	94.3	23.1	81.3	0.4	0
3507	2010-06-23T02:00:00	49	9.55	ND	1798.52	ND	ND	0.2	47.5	22.6	82	0.4	0
3508	2010-06-23T03:00:00	38	8.55	ND	1397.75	ND	ND	0.3	102	22.5	83	0.4	0
3509	2010-06-23T04:00:00	44	11.80	ND	1158.72	ND	ND	0.6	180.9	22.1	85.1	0.4	0
3510	2010-06-23T05:00:00	23	13.80	ND	1236.56	ND	ND	0.9	183	21.8	87.2	0.4	0
3511	2010-06-23T06:00:00	51	13.76	ND	1087.97	ND	ND	1.1	203.9	21.9	86.2	0.7	0
3512	2010-06-23T07:00:00	39	9.44	ND	1031.66	ND	ND	0.3	231.4	22.2	82	27.7	0
3513	2010-06-23T08:00:00	46	8.02	ND	930.57	ND	ND	0.6	191.4	23	78.8	92.9	0
3514	2010-06-23T09:00:00	29	10.64	ND	1342.74	ND	ND	0.8	202.2	24.1	74.7	326.6	0
3515	2010-06-23T10:00:00	53	14.68	ND	2387.09	ND	ND	1	143.4	26.1	66.5	584.6	0
3516	2010-06-23T11:00:00	32	16.67	ND	1724.75	ND	ND	0.8	153.3	27.7	59.3	733	0
3517	2010-06-23T12:00:00	43	19.49	ND	1525.90	ND	ND	0.5	223.3	29.2	53.5	805	0
3518	2010-06-23T13:00:00	33	19.66	ND	1161.75	ND	ND	1.2	71.8	30	51.7	616	0
3519	2010-06-23T14:00:00	37	16.25	ND	1048.35	ND	ND	1	76.5	30.5	50.4	538.4	0
3520	2010-06-23T15:00:00	45	17.99	ND	1376.77	ND	ND	1.4	68.6	30.4	51.4	236.4	0
3521	2010-06-23T16:00:00	52	18.59	ND	1574.60	ND	ND	1.6	293.8	30.2	50	292.9	0
3522	2010-06-23T17:00:00	35	ND	ND	ND	ND	ND	4.5	281.8	29.3	50.8	338.2	0
3523	2010-06-23T18:00:00	18	ND	ND	ND	ND	ND	4.3	278.5	28.1	53.4	127.1	0
3524	2010-06-23T19:00:00	10	ND	ND	ND	ND	ND	5.1	274.4	26.8	57.9	2.1	0
3525	2010-06-23T20:00:00	13	ND	ND	ND	ND	ND	2.6	292.5	27	57.4	0.4	0
3526	2010-06-23T21:00:00	8	7.94	ND	1026.43	ND	ND	1.4	264.3	26.7	60	0.3	0
3527	2010-06-23T22:00:00	7	7.19	ND	1094.54	ND	ND	1.9	224.3	25.7	65.7	0.3	0
3528	2010-06-23T23:00:00	4	16.76	ND	1286.09	ND	ND	1.4	204.3	25	69.3	0.3	0
3529	2010-06-24T00:00:00	10	8.52	ND	1248.71	ND	ND	1.3	201	24.6	70.7	0.4	0
3530	2010-06-24T01:00:00	7	8.82	ND	1487.29	ND	ND	0.4	82.6	23.5	78.1	0.3	0
3531	2010-06-24T02:00:00	28	7.72	ND	820.69	ND	ND	0.4	133.6	22.9	80.9	0.4	0
3532	2010-06-24T03:00:00	15	7.60	ND	1012.41	ND	ND	0.7	197.5	22.8	81.6	0.4	0
3533	2010-06-24T04:00:00	12	7.28	ND	761.89	ND	ND	0.5	248.1	22.6	80	0.4	0
3534	2010-06-24T05:00:00	8	7.02	ND	795.47	ND	ND	0.5	238.4	22.3	79.5	0.4	0
3535	2010-06-24T06:00:00	11	7.11	ND	908.18	ND	ND	0.6	204	22.4	80.4	0.5	0
3536	2010-06-24T07:00:00	24	7.48	ND	681.37	ND	ND	0.8	79.4	22.2	81.8	15	0
3537	2010-06-24T08:00:00	54	7.19	ND	805.74	ND	ND	0.5	22.7	22.3	81.5	101.9	0
3538	2010-06-24T09:00:00	37	10.33	ND	2066.11	ND	ND	0.2	146.7	23.5	76.1	218.1	0
3539	2010-06-24T10:00:00	73	17.26	ND	1994.72	ND	ND	0.5	137.1	24.9	69.8	349.3	0
3540	2010-06-24T11:00:00	67	22.76	ND	2359.16	ND	ND	1.3	64.8	25.9	67	429	0
3541	2010-06-24T12:00:00	53	25.34	ND	1551.24	ND	ND	1.5	61.9	28	59.6	892.2	0
3542	2010-06-24T13:00:00	27	30.65	ND	1492.71	ND	ND	1.7	57.6	28.7	55.7	705	0
3543	2010-06-24T14:00:00	23	25.65	ND	1159.83	ND	ND	1.7	15.6	30.1	49.4	839.4	0
3544	2010-06-24T15:00:00	12	19.40	ND	1141.91	ND	ND	1.7	78.8	30.5	48.5	675.9	0
3545	2010-06-24T16:00:00	8	15.69	ND	816.73	ND	ND	1.5	87	30.7	48.2	527.7	0
3546	2010-06-24T17:00:00	7	18.64	ND	1307.62	ND	ND	1.4	25.6	30.9	47.9	295.3	0
3547	2010-06-24T18:00:00	39	17.98	ND	1670.65	ND	ND	1.5	335.4	30.1	51.1	90.7	0
3548	2010-06-24T19:00:00	21	35.71	ND	1619.65	ND	ND	1.9	288.3	28.4	57.9	2.8	0
3549	2010-06-24T20:00:00	16	34.88	ND	1587.39	ND	ND	1.8	275.4	27.4	61.3	0.4	0
3550	2010-06-24T21:00:00	9	15.21	ND	1813.09	ND	ND	2.9	262.5	26.6	63.5	0.4	0
3551	2010-06-24T22:00:00	20	12.28	ND	1969.51	ND	ND	2.4	267.1	26	65.2	0.4	0
3552	2010-06-24T23:00:00	11	9.39	ND	1425.32	ND	ND	0.8	283	25.7	67.3	0.3	0
3553	2010-06-25T00:00:00	52	7.77	ND	1240.16	ND	ND	0.7	65.9	24.1	77.5	0.3	0
3554	2010-06-25T01:00:00	42	7.31	ND	1142.15	ND	ND	0.8	90.5	23.8	78.8	0.3	0
3555	2010-06-25T02:00:00	42	16.99	ND	1643.03	ND	ND	1.2	179.1	23.9	78.8	0.4	0
3556	2010-06-25T03:00:00	37	19.84	ND	1232.69	ND	ND	1.7	173.3	23.5	80.9	0.3	0
3557	2010-06-25T04:00:00	48	13.40	ND	1105.65	ND	ND	0.9	177.2	23.1	81.7	0.2	0
3558	2010-06-25T05:00:00	38	9.32	ND	1001.71	ND	ND	0.7	144.4	23	81.7	0.3	0
3559	2010-06-25T06:00:00	46	7.91	ND	1035.51	ND	ND	0.5	67.8	22.8	82.9	0.5	0
3560	2010-06-25T07:00:00	39	7.49	ND	1216.75	ND	ND	0.8	117	22.7	83	13.1	0
3561	2010-06-25T08:00:00	72	8.50	ND	1557.37	ND	ND	0.5	105.6	23.5	79.1	167.4	0
3562	2010-06-25T09:00:00	92	17.44	ND	2382.27	ND	ND	1.4	138.7	24.5	75.7	199.5	0
3563	2010-06-25T10:00:00	85	21.89	ND	2401.74	ND	ND	0.8	179.7	24.9	74.4	389.3	0
3564	2010-06-25T11:00:00	60	26.35	ND	2542.39	ND	ND	1.1	110.6	26.8	64.9	423.8	0
3565	2010-06-25T12:00:00	63	19.19	ND	1256.25	ND	ND	1.1	85.3	27.6	62.6	511.3	0
3566	2010-06-25T13:00:00	43	19.53	ND	1513.84	ND	ND	1.6	73.1	28.2	60.2	599.4	0
3567	2010-06-25T14:00:00	43	21.16	ND	1841.08	ND	ND	1.4	56.3	29.2	58.8	628.9	0
3568	2010-06-25T15:00:00	42	18.95	ND	1847.19	ND	ND	2.2	43.1	29.3	58.2	289.2	0
3569	2010-06-25T16:00:00	39	24.00	ND	1534.02	ND	ND	2.1	287.1	30.2	50.8	507	0
3570	2010-06-25T17:00:00	23	36.15	ND	1223.88	ND	ND	3.5	270.7	29.6	51.5	307.4	0
3571	2010-06-25T18:00:00	18	20.51	ND	1023.70	ND	ND	2.5	274.5	29.2	50.1	138.7	0
3572	2010-06-25T19:00:00	16	12.46	ND	1103.67	ND	ND	2.4	273.4	28	54.8	2.9	0
3573	2010-06-25T20:00:00	10	11.49	ND	1434.85	ND	ND	2.7	264.8	27.3	56.2	0	0
3574	2010-06-25T21:00:00	6	10.85	ND	1431.52	ND	ND	0.5	194.3	26.9	58.8	0	0
3575	2010-06-25T22:00:00	32	9.44	ND	1187.50	ND	ND	0.6	189.2	26	61.6	0	0
3576	2010-06-25T23:00:00	17	11.04	ND	1885.10	ND	ND	1.7	45.1	24.3	68.7	0	0
3577	2010-06-26T00:00:00	34	11.97	ND	1782.95	ND	ND	0.2	108.3	23.2	73.9	0	0
3578	2010-06-26T01:00:00	21	16.80	ND	1161.46	ND	ND	0.6	349.5	23.4	72.5	0	0
3579	2010-06-26T02:00:00	31	11.18	ND	1264.80	ND	ND	0.6	34.4	23.4	73.4	0.1	0
3580	2010-06-26T03:00:00	52	11.49	ND	1173.64	ND	ND	0.9	65	22.6	75.7	0.2	0
3581	2010-06-26T04:00:00	35	20.59	ND	1204.56	ND	ND	0.5	46	22.2	77.1	0.3	0
3582	2010-06-26T05:00:00	26	31.77	ND	1134.84	ND	ND	0.5	113.5	22.2	78.7	0.3	0
3583	2010-06-26T06:00:00	36	28.03	ND	873.83	ND	ND	0.8	51.9	22.1	80	1	0
3584	2010-06-26T07:00:00	51	25.97	ND	1225.22	ND	ND	0.3	66.1	22.3	79.1	34.1	0
3585	2010-06-26T08:00:00	56	19.81	ND	1248.75	ND	ND	0.3	204.1	23.1	76	96.7	0
3586	2010-06-26T09:00:00	35	30.57	ND	1855.43	ND	ND	0.7	38.2	24.7	69.3	360.1	0
3587	2010-06-26T10:00:00	42	42.30	ND	1945.57	ND	ND	1	36.6	26.5	62.3	607.6	0
3588	2010-06-26T11:00:00	41	44.06	ND	2348.80	ND	ND	1.1	98.8	27.5	60	639.2	0
3589	2010-06-26T12:00:00	55	56.81	ND	1732.83	ND	ND	1.1	30.7	28.8	55.9	719.6	0
3590	2010-06-26T13:00:00	51	50.18	ND	1763.53	ND	ND	1.3	51.3	29.9	52.3	767.9	0
3591	2010-06-26T14:00:00	49	33.72	ND	1548.71	ND	ND	1.7	69.4	29.8	53.4	319.4	0
3592	2010-06-26T15:00:00	44	29.37	ND	1734.45	ND	ND	1.4	40.6	29.7	54	274.7	0
3593	2010-06-26T16:00:00	42	30.45	ND	1908.43	ND	ND	1.3	291.9	29.9	52.5	336.1	0
3594	2010-06-26T17:00:00	25	35.10	ND	1676.80	ND	ND	3.3	278.4	29.7	49.9	323.6	0
3595	2010-06-26T18:00:00	18	25.95	ND	1442.96	ND	ND	4.1	278.2	28.5	53.6	122.8	0
3596	2010-06-26T19:00:00	10	11.51	ND	1541.55	ND	ND	3.4	251.2	27.1	58.4	1.7	0
3597	2010-06-26T20:00:00	12	9.08	ND	1361.34	ND	ND	3.6	269	26.4	61	0	0
3598	2010-06-26T21:00:00	7	9.42	ND	1438.74	ND	ND	2	232.7	26.1	59.8	0	0
3599	2010-06-26T22:00:00	10	7.89	ND	1322.31	ND	ND	1.8	172.9	24	74.7	0	1.27
3600	2010-06-26T23:00:00	9	8.20	ND	1484.29	ND	ND	0.8	251.8	22.6	85.7	0	4.57
3601	2010-06-27T00:00:00	12	10.01	ND	1840.94	ND	ND	1.3	203.2	22.8	83.4	0	0
3602	2010-06-27T01:00:00	8	7.62	ND	1717.10	ND	ND	0.8	170.8	22.2	82.9	0	0
3603	2010-06-27T02:00:00	5	8.80	ND	1656.87	ND	ND	0.5	242.3	22.5	81.2	0.1	0
3604	2010-06-27T03:00:00	4	8.86	ND	1522.24	ND	ND	0.2	187.2	22.4	82.7	0.1	0
3605	2010-06-27T04:00:00	7	9.22	ND	1362.73	ND	ND	0.7	125.3	22.1	85.6	0.2	0
3606	2010-06-27T05:00:00	4	8.72	ND	1100.43	ND	ND	0.8	112.9	21.6	88.8	0.1	0
3607	2010-06-27T06:00:00	22	7.85	ND	1143.86	ND	ND	0.5	152.1	21.5	89.4	0.2	0
3608	2010-06-27T07:00:00	17	6.71	ND	1041.58	ND	ND	0.8	215.2	21.6	88.8	18.3	0
3609	2010-06-27T08:00:00	25	7.02	ND	894.70	ND	ND	0.6	229	22.6	81.4	112.2	0
3610	2010-06-27T09:00:00	25	7.54	ND	954.56	ND	ND	0.4	84.2	23.9	77.3	254.8	0
3611	2010-06-27T10:00:00	30	10.31	ND	1141.38	ND	ND	1.2	85.8	25.4	71.5	591	0
3612	2010-06-27T11:00:00	27	19.42	ND	1330.69	ND	ND	1.1	54.4	26.3	66.1	409.5	0
3613	2010-06-27T12:00:00	29	17.26	ND	1472.77	ND	ND	0.8	58.9	26.5	65.1	342.2	0
3614	2010-06-27T13:00:00	21	18.04	ND	955.64	ND	ND	1.4	101.6	27.6	61	620.9	0
3615	2010-06-27T14:00:00	31	19.03	ND	1167.16	ND	ND	2.4	128	27.4	64.1	410	0
3616	2010-06-27T15:00:00	20	17.46	ND	1593.67	ND	ND	2.1	137.8	26.6	67.4	338.4	0
3617	2010-06-27T16:00:00	29	17.76	ND	1566.39	ND	ND	1	130.9	26.7	65	313.6	0
3618	2010-06-27T17:00:00	24	19.18	ND	1417.14	ND	ND	0.9	14.6	27.5	61.6	244.6	0
3619	2010-06-27T18:00:00	22	14.66	ND	1328.50	ND	ND	1.6	283	27	57.3	74.8	0
3620	2010-06-27T19:00:00	12	12.53	ND	1245.56	ND	ND	1.4	272.2	26.4	58.1	1.3	0
3621	2010-06-27T20:00:00	12	8.00	ND	1093.44	ND	ND	1.3	267.5	25.9	60	0	0
3622	2010-06-27T21:00:00	27	7.20	ND	1183.54	ND	ND	0.5	82.3	24.9	69.5	0	0
3623	2010-06-27T22:00:00	19	7.12	ND	1191.03	ND	ND	1.5	205.1	24.6	69.4	0	0
3624	2010-06-27T23:00:00	11	12.56	ND	2093.65	ND	ND	1.1	185.3	23.8	77.9	0	0
3625	2010-06-28T00:00:00	27	10.31	ND	1460.47	ND	ND	0.3	22.9	23.4	77.9	0	0
3626	2010-06-28T01:00:00	15	8.50	ND	1492.69	ND	ND	0.6	186.2	23.3	79.9	0	0
3627	2010-06-28T02:00:00	12	10.21	ND	1594.70	ND	ND	0.6	76.3	22.3	83.8	0	0
3628	2010-06-28T03:00:00	7	10.83	ND	1498.50	ND	ND	1	179.5	22	85.3	0	0
3629	2010-06-28T04:00:00	28	10.45	ND	1122.73	ND	ND	0.6	149.8	21.8	85.6	0	0
3630	2010-06-28T05:00:00	16	9.85	ND	1053.97	ND	ND	0.3	75.7	21.7	85.7	0	0
3631	2010-06-28T06:00:00	25	9.25	ND	1110.26	ND	ND	0.4	47.8	21.9	85.3	0.2	0
3632	2010-06-28T07:00:00	24	8.74	ND	1111.02	ND	ND	0.4	29.1	22.2	83.9	23.6	0
3633	2010-06-28T08:00:00	36	10.75	ND	1327.77	ND	ND	0.4	158.5	23	80.5	133.1	0
3634	2010-06-28T09:00:00	50	16.45	ND	1843.43	ND	ND	1.2	139.7	23.7	77.5	172.1	0
3635	2010-06-28T10:00:00	58	22.93	ND	2600.59	ND	ND	0.9	163.5	25.2	71.2	557.9	0
3636	2010-06-28T11:00:00	55	26.27	ND	2567.88	ND	ND	1.4	117.9	26.8	63.2	598.7	0
3637	2010-06-28T12:00:00	43	ND	ND	ND	ND	ND	0.9	62.5	28.2	55.9	785	0
3638	2010-06-28T13:00:00	29	ND	ND	ND	ND	ND	1.3	70.5	29.1	53.3	545.1	0
3639	2010-06-28T14:00:00	31	13.81	ND	1091.69	ND	ND	1.8	63.5	29.4	53.9	726.3	0
3640	2010-06-28T15:00:00	27	13.51	ND	1092.77	ND	ND	1.7	67.5	29.7	53.1	385.3	0
3641	2010-06-28T16:00:00	38	12.38	ND	1245.13	ND	ND	1.8	33.7	29.5	53.4	401.7	0
3642	2010-06-28T17:00:00	20	17.69	ND	1162.91	ND	ND	1.8	301.1	30.2	46.3	381.3	0
3643	2010-06-28T18:00:00	11	33.24	ND	1060.69	ND	ND	2.7	275.4	29.4	48.4	166.8	0
3644	2010-06-28T19:00:00	6	11.70	ND	720.76	ND	ND	3.5	267.8	27.5	54.1	3.1	0
3645	2010-06-28T20:00:00	9	9.93	21.31	1409.37	ND	ND	2.9	271.8	26.8	57.2	0	0
3646	2010-06-28T21:00:00	5	2.11	24.73	1083.38	ND	ND	3	259.8	26.2	59.4	0	0
3647	2010-06-28T22:00:00	4	4.08	24.24	598.11	ND	ND	2.3	257.7	25.8	60.7	0	0
3648	2010-06-28T23:00:00	5	4.60	16.60	367.58	ND	ND	1.1	253.2	25.3	67.1	0	0
3649	2010-06-29T00:00:00	11	3.15	7.86	676.59	ND	ND	1.6	246.3	24.8	67.6	0	0
3650	2010-06-29T01:00:00	7	3.72	27.08	858.63	ND	ND	1	226.4	24.5	69.6	0	0
3651	2010-06-29T02:00:00	18	3.11	16.55	720.52	ND	ND	0.2	283.4	24.2	72	0	0
3652	2010-06-29T03:00:00	31	3.01	10.29	662.67	ND	ND	0.8	32.9	23.2	76.3	0	0
3653	2010-06-29T04:00:00	33	3.54	11.25	603.50	ND	ND	0.6	24.3	23	76.7	0	0
3654	2010-06-29T05:00:00	37	10.78	19.91	739.65	ND	ND	0.4	96	22.6	78.5	0	0
3655	2010-06-29T06:00:00	46	12.68	19.69	761.38	ND	ND	0.3	88.3	22.2	80.9	0.3	0
3656	2010-06-29T07:00:00	46	20.35	18.75	714.95	ND	ND	0.9	352.2	22.3	81.3	34.3	0
3657	2010-06-29T08:00:00	64	14.15	18.63	1033.06	ND	ND	0.1	100.6	23.7	74.5	174.6	0
3658	2010-06-29T09:00:00	67	14.64	25.63	1380.14	ND	ND	1	144.5	25.4	67.8	375.4	0
3659	2010-06-29T10:00:00	81	28.78	51.03	2145.16	ND	ND	1.7	136.2	26.6	63.6	623.2	0
3660	2010-06-29T11:00:00	64	32.43	91.38	1957.99	ND	ND	0.6	117.1	28	57.5	646.4	0
3661	2010-06-29T12:00:00	53	31.10	63.81	1631.57	ND	ND	0.7	48.6	28.8	54.7	523	0
3662	2010-06-29T13:00:00	45	18.39	26.44	672.93	ND	ND	0.9	61.8	30.3	51.3	633.5	0
3663	2010-06-29T14:00:00	52	15.15	41.19	862.83	ND	ND	0.6	160.7	30.6	50	613.6	0
3664	2010-06-29T15:00:00	28	16.68	56.49	1493.93	ND	ND	2.1	295	30	50.3	142.4	0
3665	2010-06-29T16:00:00	31	14.15	34.82	1141.53	ND	ND	4	274.1	27.4	57.7	61.6	4.83
3666	2010-06-29T17:00:00	30	10.38	25.75	946.96	ND	ND	2.6	274.5	24	78.7	56.4	23.11
3667	2010-06-29T18:00:00	32	9.66	ND	1107.51	ND	ND	3.8	261.6	25.1	70.4	18.6	0
3668	2010-06-29T19:00:00	18	9.30	ND	1581.47	ND	ND	2	313.3	25	67.4	1.2	0
3669	2010-06-29T20:00:00	17	7.18	26.50	1294.54	ND	ND	3.8	284.2	24.8	63.9	0	0
3670	2010-06-29T21:00:00	14	5.08	22.12	801.39	ND	ND	2.9	242.5	22.8	77.8	0	4.32
3671	2010-06-29T22:00:00	17	3.77	9.03	591.32	ND	ND	1.3	290.4	22.9	74.9	0	0
3672	2010-06-29T23:00:00	9	2.63	17.07	682.52	ND	ND	0.9	350	23.1	77.2	0	0
3673	2010-06-30T00:00:00	15	2.79	20.89	774.05	ND	ND	0.8	97.1	22.4	83.3	0	0.25
3674	2010-06-30T01:00:00	9	5.22	29.78	908.49	ND	ND	0.7	187.9	21.9	88.6	0	0
3675	2010-06-30T02:00:00	13	5.08	22.68	623.53	ND	ND	1	197.3	21.3	91.5	0	0
3676	2010-06-30T03:00:00	8	3.93	13.56	678.83	ND	ND	1.1	235.1	21.5	89.7	0	0
3677	2010-06-30T04:00:00	10	2.28	6.81	396.25	ND	ND	1.3	252.3	21.5	85.2	0	0
3678	2010-06-30T05:00:00	6	1.73	3.87	464.18	ND	ND	1.3	245.5	21.2	82.4	0	0
3679	2010-06-30T06:00:00	5	2.38	1.30	418.47	ND	ND	0.9	243.7	21.2	84.3	0.2	0
3680	2010-06-30T07:00:00	11	2.43	0.50	655.98	ND	ND	1	262.7	21.4	82	17.9	0
3681	2010-06-30T08:00:00	37	1.94	4.30	350.85	ND	ND	0.5	208	21.7	78.5	108.3	0
3682	2010-06-30T09:00:00	21	4.22	11.75	1189.57	ND	ND	0.5	36.5	23.6	75.4	364.3	0
3683	2010-06-30T10:00:00	48	8.32	24.52	2132.22	ND	ND	1.3	38.3	24.7	73.4	511.2	0
3684	2010-06-30T11:00:00	30	14.14	72.80	1934.13	ND	ND	0.6	60.7	26.5	63.5	627.7	0
3685	2010-06-30T12:00:00	39	23.17	64.02	1381.65	ND	ND	1	78.4	27.5	59.9	589	0
3686	2010-06-30T13:00:00	39	17.97	56.65	1444.02	ND	ND	1.1	66.2	28.3	57.2	635.7	0
3687	2010-06-30T14:00:00	29	12.82	56.42	1111.96	ND	ND	1.4	37.5	29.3	53	695.9	0
3688	2010-06-30T15:00:00	27	11.11	57.18	1301.59	ND	ND	2.2	36.4	28.7	57.1	455.2	0
3689	2010-06-30T16:00:00	49	17.51	44.28	974.26	ND	ND	1.8	72.4	29	54.1	308.4	0
3690	2010-06-30T17:00:00	33	45.97	61.44	1195.81	ND	ND	1.2	53	28.4	54	100.7	0
3691	2010-06-30T18:00:00	21	23.19	53.19	1251.37	ND	ND	2.7	258.6	27.5	57.1	45.5	0
3692	2010-06-30T19:00:00	26	35.41	53.25	1444.02	ND	ND	1.9	273.8	26.3	61.9	1.7	0
3693	2010-06-30T20:00:00	32	16.11	31.02	1840.97	ND	ND	0.8	109.6	25.4	67.7	0.4	0
3694	2010-06-30T21:00:00	19	9.21	35.31	1410.99	ND	ND	0.9	243.8	25.2	65.9	0.5	0
3695	2010-06-30T22:00:00	27	13.14	43.16	2418.85	ND	ND	0.6	30.8	24.2	72.1	0.3	0
3696	2010-06-30T23:00:00	22	10.17	31.43	1576.69	ND	ND	0.8	75.7	23.4	77	0	0
3697	2010-07-01T00:00:00	34	8.39	25.07	1219.22	ND	ND	0.4	90	22.7	80	0	0
3698	2010-07-01T01:00:00	18	11.15	29.66	1636.94	ND	ND	0.7	194.5	22.9	80.2	0	0
3699	2010-07-01T02:00:00	42	10.33	25.28	955.53	ND	ND	0.6	191.6	22.8	82.1	0	0
3700	2010-07-01T03:00:00	23	12.77	25.63	841.49	ND	ND	1.1	167.4	22.5	81.9	0	0
3701	2010-07-01T04:00:00	28	7.15	23.87	852.00	ND	ND	0.7	159.7	22	86.2	0	0
3702	2010-07-01T05:00:00	16	5.58	17.04	521.67	ND	ND	0.5	153.3	21.9	86.3	0	0
3703	2010-07-01T06:00:00	33	4.36	13.31	532.83	ND	ND	0.6	108.6	21.9	85	0.3	0
3704	2010-07-01T07:00:00	39	4.62	17.07	668.88	ND	ND	0.7	53.7	21.6	84	17.9	0
3705	2010-07-01T08:00:00	52	6.40	21.39	1132.54	ND	ND	0.3	215.5	22.5	80.6	134.9	0
3706	2010-07-01T09:00:00	57	9.72	27.94	1874.39	ND	ND	0.6	156.2	24	75.1	324.7	0
3707	2010-07-01T10:00:00	64	14.42	37.77	1803.99	ND	ND	0.9	110.4	25.7	67.1	586.5	0
3708	2010-07-01T11:00:00	49	15.39	80.54	2181.77	ND	ND	0.6	99.9	26.8	62.2	528.4	0
3709	2010-07-01T12:00:00	51	15.74	76.74	2178.28	ND	ND	0.6	54.2	28.1	57.5	654.8	0
3710	2010-07-01T13:00:00	33	18.72	54.07	1620.53	ND	ND	1.5	58.9	29.4	53.7	705.6	0
3711	2010-07-01T14:00:00	53	17.07	62.50	1534.53	ND	ND	1.7	18.5	29	54.4	199.7	0
3712	2010-07-01T15:00:00	28	26.37	54.57	1300.30	ND	ND	2.5	284.9	28.3	55.6	249.5	0
3713	2010-07-01T16:00:00	15	37.75	60.37	1239.37	ND	ND	3.3	268.7	28.6	53.8	323.3	0
3714	2010-07-01T17:00:00	9	26.49	33.85	1171.04	ND	ND	3.6	281.3	27.6	55.6	168.7	0
3715	2010-07-01T18:00:00	17	12.32	24.57	1224.94	ND	ND	4	273.5	26.7	56.7	44.1	0
3716	2010-07-01T19:00:00	9	6.88	18.45	1175.19	ND	ND	3.8	275.7	26	58.4	1.9	0
3717	2010-07-01T20:00:00	17	5.76	16.71	1080.48	ND	ND	2.5	286.8	25.8	59.1	0.1	0
3718	2010-07-01T21:00:00	9	5.57	20.74	1137.20	ND	ND	2.5	197.9	24.4	70.5	0.3	0
3719	2010-07-01T22:00:00	13	7.69	22.71	1109.00	ND	ND	1.5	204.1	23.4	74.2	0.4	0
3720	2010-07-01T23:00:00	18	4.93	21.28	1128.06	ND	ND	1.6	147.1	23.6	74.5	0.4	0
3721	2010-07-02T00:00:00	28	4.15	22.01	1083.21	ND	ND	1.2	153	21.5	88.8	0.3	2.03
3722	2010-07-02T01:00:00	16	5.67	34.58	1494.44	ND	ND	0.1	171.5	21.3	90.6	0	0.25
3723	2010-07-02T02:00:00	9	3.29	13.36	893.79	ND	ND	0.5	163.5	21.6	89.4	0	0
3724	2010-07-02T03:00:00	6	2.41	15.77	883.38	ND	ND	0.8	80.5	21.2	91.4	0	0
3725	2010-07-02T04:00:00	4	2.77	22.35	995.28	ND	ND	0.4	104	21.1	92.2	0	0
3726	2010-07-02T05:00:00	9	2.43	10.86	881.88	ND	ND	1	136.4	21	92.6	0	0
3727	2010-07-02T06:00:00	7	2.35	10.74	779.86	ND	ND	1	137.5	21.1	92.2	0	0
3728	2010-07-02T07:00:00	9	2.46	9.55	881.88	ND	ND	0.9	129.9	21.1	92	5.5	0
3729	2010-07-02T08:00:00	21	2.84	17.12	1198.45	ND	ND	1.1	156.5	21.2	91.1	19.7	1.27
3730	2010-07-02T09:00:00	12	4.66	25.08	1945.32	ND	ND	1.2	142.6	21	94	35.6	0.76
3731	2010-07-02T10:00:00	20	5.20	35.30	2599.53	ND	ND	1.3	176.3	21	94	187.4	1.02
3732	2010-07-02T11:00:00	12	6.07	32.07	2543.02	ND	ND	1.2	148.4	22.9	84.2	474.7	0.25
3733	2010-07-02T12:00:00	19	4.74	28.80	1683.55	ND	ND	1	123.4	25	72.8	561.3	0
3734	2010-07-02T13:00:00	22	4.82	37.22	1592.39	ND	ND	1.1	76.4	26	68.1	647.8	0
3735	2010-07-02T14:00:00	16	3.63	43.62	1643.72	ND	ND	0.2	343.3	27.3	61.2	710.1	0
3736	2010-07-02T15:00:00	14	5.91	53.20	2054.92	ND	ND	0.9	100.5	28.6	56.9	564.9	0
3737	2010-07-02T16:00:00	27	9.60	28.00	1321.77	ND	ND	1.7	70.8	28.2	58.4	267.9	0
3738	2010-07-02T17:00:00	25	11.55	63.85	1829.50	ND	ND	1.9	76.2	27.3	60.5	97.6	0
3739	2010-07-02T18:00:00	46	12.52	67.99	1893.30	ND	ND	1.1	305.6	25.3	69.4	19.4	0
3740	2010-07-02T19:00:00	38	14.58	72.28	2190.31	ND	ND	0.8	220.7	24.5	73.5	1.9	0
3741	2010-07-02T20:00:00	49	10.46	49.79	1807.02	ND	ND	0.7	241.6	23.9	72.7	0.3	0
3742	2010-07-02T21:00:00	47	13.26	61.40	2933.34	ND	ND	0.9	252.5	23.7	71.8	0.4	0
3743	2010-07-02T22:00:00	40	11.30	45.53	2737.46	ND	ND	0.9	236.2	23.7	72.1	0.4	0
3744	2010-07-02T23:00:00	21	10.25	31.54	2395.28	ND	ND	0.4	103.4	23.5	76.4	0.5	0
3745	2010-07-03T00:00:00	36	8.71	30.28	2165.70	ND	ND	0.4	76.8	22.8	81.2	0.4	0
3746	2010-07-03T01:00:00	21	6.79	42.06	1876.30	ND	ND	0.4	248.2	22.9	79.8	0.5	0
3747	2010-07-03T02:00:00	34	7.88	29.32	1558.42	ND	ND	0.9	184.7	22.4	83.7	0.5	0
3748	2010-07-03T03:00:00	18	7.43	25.22	1476.30	ND	ND	1	190.4	22.2	86.7	0.5	0
3749	2010-07-03T04:00:00	17	6.20	17.86	1339.12	ND	ND	0.9	200.3	22.1	86.8	0.5	0
3750	2010-07-03T05:00:00	10	5.27	17.85	1123.11	ND	ND	0.1	252.4	22.1	87	0.5	0
3751	2010-07-03T06:00:00	28	5.06	17.55	1191.18	ND	ND	0.2	33.4	22	85.6	0.5	0
3752	2010-07-03T07:00:00	35	4.82	17.17	1236.14	ND	ND	0.7	57.7	21.8	86.1	30.1	0
3753	2010-07-03T08:00:00	43	5.91	16.56	1189.97	ND	ND	0.8	67.4	22.1	85.2	123.6	0
3754	2010-07-03T09:00:00	43	10.22	25.59	1667.65	ND	ND	0.5	124.5	24.1	76.2	307.4	0
3755	2010-07-03T10:00:00	50	14.42	37.63	1804.59	ND	ND	0.6	144.8	25.2	69.5	402.4	0
3756	2010-07-03T11:00:00	31	20.19	70.28	1948.84	ND	ND	0.2	76.4	26.3	64.5	422.2	0
3757	2010-07-03T12:00:00	54	14.42	55.08	1530.30	ND	ND	1.2	53.5	27.8	59.2	770.5	0
3758	2010-07-03T13:00:00	71	11.40	42.66	1260.44	ND	ND	1.2	50.5	28.4	57	429.7	0
3759	2010-07-03T14:00:00	60	13.25	53.49	1390.41	ND	ND	1.1	57.6	28.9	54.9	382.7	0
3760	2010-07-03T15:00:00	41	15.61	55.53	1462.36	ND	ND	2.2	278.1	28.3	55.9	166	0
3761	2010-07-03T16:00:00	30	25.30	55.83	1297.29	ND	ND	2.8	271.8	27.4	58.8	198.8	0
3762	2010-07-03T17:00:00	28	24.25	22.90	946.96	ND	ND	2.8	268.4	26.6	62.4	118.3	0
3763	2010-07-03T18:00:00	23	7.51	13.80	1002.03	ND	ND	2.4	279	26.8	59.5	110.5	0
3764	2010-07-03T19:00:00	13	7.75	26.17	1429.13	ND	ND	2.1	272.6	25.7	62.2	1.8	0
3765	2010-07-03T20:00:00	13	7.54	28.11	1343.51	ND	ND	2	277.1	25.9	61.1	0	0
3766	2010-07-03T21:00:00	10	6.49	29.89	1286.96	ND	ND	0.4	103.1	25.4	66.1	0	0
3767	2010-07-03T22:00:00	13	4.51	26.08	1089.79	ND	ND	1	303.7	24.4	72.1	0	0
3768	2010-07-03T23:00:00	13	10.30	44.36	2400.93	ND	ND	0.5	61.2	23.5	81.2	0	0
3769	2010-07-04T00:00:00	33	6.99	21.44	1128.44	ND	ND	0.1	314.1	23.1	82.3	0.1	0
3770	2010-07-04T01:00:00	18	8.54	31.25	2845.76	ND	ND	0.3	264.7	23.5	74.2	0.3	0
3771	2010-07-04T02:00:00	22	9.02	24.62	2245.49	ND	ND	0.6	187.4	23.1	81.2	0.4	0
3772	2010-07-04T03:00:00	15	9.32	15.59	1479.79	ND	ND	0.8	140.6	22.7	84.8	0.4	0
3773	2010-07-04T04:00:00	46	7.41	19.62	1671.05	ND	ND	1.4	133.9	21.9	90.1	0.4	0.25
3774	2010-07-04T05:00:00	24	6.17	16.23	1360.43	ND	ND	0.4	120.3	21.4	91.6	0.4	0
3775	2010-07-04T06:00:00	30	4.35	10.33	1109.13	ND	ND	0.2	126.5	21.6	90.8	0.4	0.25
3776	2010-07-04T07:00:00	16	3.26	10.32	1007.96	ND	ND	1	93.9	21.4	91.4	3.3	0
3777	2010-07-04T08:00:00	18	3.75	11.59	1143.09	ND	ND	1.5	50.5	21	94.2	7.7	0
3778	2010-07-04T09:00:00	23	4.47	13.40	1367.58	ND	ND	1.4	32.5	20.4	95.6	28.8	8.64
3779	2010-07-04T10:00:00	13	4.33	9.94	1229.44	ND	ND	0.7	80.5	20.5	95.2	92.2	0.76
3780	2010-07-04T11:00:00	8	5.65	13.52	1105.74	ND	ND	0.7	130.8	21.2	93.2	120.4	1.27
3781	2010-07-04T12:00:00	13	14.95	21.61	1425.06	ND	ND	0.9	162.9	21.6	92.9	170.3	2.03
3782	2010-07-04T13:00:00	8	19.97	28.73	1766.76	ND	ND	1.3	146.7	22.4	88.9	272.1	0.25
3783	2010-07-04T14:00:00	7	12.03	21.83	1396.80	ND	ND	0.9	146.5	23.5	80.8	269.1	0
3784	2010-07-04T15:00:00	4	5.76	21.93	1413.40	ND	ND	0.5	75.5	23.9	79.7	241	0
3785	2010-07-04T16:00:00	3	3.29	25.39	1415.31	ND	ND	0.4	165.8	24.7	74.4	260.7	0
3786	2010-07-04T17:00:00	1	2.59	28.07	1464.90	ND	ND	0.8	208.1	25.7	68.3	350.9	0
3787	2010-07-04T18:00:00	1	2.31	16.03	1263.13	ND	ND	0.4	244.9	25.8	66.7	130.9	0
3788	2010-07-04T19:00:00	12	2.05	10.37	1114.22	ND	ND	0.6	53.5	24.7	74	3.1	0
3789	2010-07-04T20:00:00	30	3.32	9.84	1110.12	ND	ND	0.2	337.3	23.6	79.7	0	0
3790	2010-07-04T21:00:00	16	5.01	32.36	1698.94	ND	ND	1.1	269.5	22.7	80.7	0	0
3791	2010-07-04T22:00:00	30	6.84	48.07	2046.18	ND	ND	1.2	247.9	22.4	79.7	0.2	0
3792	2010-07-04T23:00:00	16	6.55	30.82	1703.42	ND	ND	1.2	242.2	22.1	79.5	0.4	0
3793	2010-07-05T00:00:00	11	5.09	20.93	1463.45	ND	ND	1.2	244.9	21.8	78.1	0.4	0
3794	2010-07-05T01:00:00	7	4.98	13.21	1518.63	ND	ND	0.2	250.2	21.6	79.5	0.4	0
3795	2010-07-05T02:00:00	34	3.91	5.59	917.35	ND	ND	0.4	322.3	21.5	88.2	0.4	0
3796	2010-07-05T03:00:00	19	3.68	9.19	939.69	ND	ND	0.2	347.7	21.6	87.1	0.4	0
3797	2010-07-05T04:00:00	17	5.41	26.27	1823.38	ND	ND	0.2	84.4	21.6	84	0.4	0
3798	2010-07-05T05:00:00	10	6.63	22.12	1925.31	ND	ND	0.2	39.6	21.1	91.3	0.4	0.25
3799	2010-07-05T06:00:00	7	6.05	13.36	1232.37	ND	ND	0.3	239.7	21.1	87.6	0.4	0
3800	2010-07-05T07:00:00	4	4.84	11.84	1164.53	ND	ND	0.7	233.4	21.1	85.8	20.4	0
3801	2010-07-05T08:00:00	16	4.71	8.18	825.35	ND	ND	0.8	146.2	21.4	88	104.2	0
3802	2010-07-05T09:00:00	10	4.92	4.09	928.05	ND	ND	0.4	94.1	22	85.9	187.1	0
3803	2010-07-05T10:00:00	44	5.99	14.64	1565.02	ND	ND	1.4	16.2	22.9	82.4	299.1	0
3804	2010-07-05T11:00:00	29	5.85	29.60	1319.54	ND	ND	1.3	48.8	24.6	73.7	496	0
3805	2010-07-05T12:00:00	44	13.14	38.69	1155.51	ND	ND	1.3	68.6	25.8	68.5	490	0
3806	2010-07-05T13:00:00	24	22.49	21.21	1045.30	ND	ND	1.1	82.4	27.2	62.9	578.2	0
3807	2010-07-05T14:00:00	37	21.70	28.44	980.96	ND	ND	1.9	62.7	26.2	69.2	172.5	1.78
3808	2010-07-05T15:00:00	41	32.70	26.30	1058.20	ND	ND	0.4	0.2	22.6	87.7	34	10.41
3809	2010-07-05T16:00:00	45	27.91	33.12	1079.56	ND	ND	0.9	206.1	21.9	92.2	38.5	6.35
3810	2010-07-05T17:00:00	23	11.67	29.43	1133.69	ND	ND	1.7	281.3	23.2	80.3	92.9	0.25
3811	2010-07-05T18:00:00	17	10.24	46.95	1218.40	ND	ND	0.8	307	23.6	75.7	35.5	0
3812	2010-07-05T19:00:00	9	6.39	27.86	1197.24	ND	ND	1	296.7	23.7	71.8	1	0
3813	2010-07-05T20:00:00	23	9.31	44.74	1528.42	ND	ND	1.1	202.6	22.4	88	0	0
3814	2010-07-05T21:00:00	13	8.47	29.27	1385.45	ND	ND	1.5	175.8	21.8	90.5	0.1	0
3815	2010-07-05T22:00:00	30	8.14	48.67	2481.94	ND	ND	1.7	186.9	21.6	91.5	0.2	0
3816	2010-07-05T23:00:00	23	5.44	42.04	1959.29	ND	ND	0.8	150.5	21.3	92.1	0.3	0
3817	2010-07-06T00:00:00	22	4.14	37.78	1606.56	ND	ND	0.5	146.4	21.1	92.8	0.3	0
3818	2010-07-06T01:00:00	13	3.59	31.34	1537.64	ND	ND	0.8	41	21.1	92.7	0.4	0
3819	2010-07-06T02:00:00	12	2.90	20.47	1175.84	ND	ND	0.9	63.3	20.7	94.8	0.3	0
3820	2010-07-06T03:00:00	7	2.79	18.60	1117.79	ND	ND	0.3	59.4	20.6	94.1	0.4	0
3821	2010-07-06T04:00:00	8	3.64	10.45	925.53	ND	ND	0.1	117.8	20.7	93.2	0.3	0
3822	2010-07-06T05:00:00	5	4.44	8.09	858.10	ND	ND	0.4	121.7	20.7	93	0.4	0
3823	2010-07-06T06:00:00	10	8.11	10.45	925.84	ND	ND	0.8	77.5	20.4	94.9	0.4	0
3824	2010-07-06T07:00:00	6	9.03	11.33	1105.37	ND	ND	0.4	124.2	20.5	93.7	8.9	0
3825	2010-07-06T08:00:00	49	8.41	12.30	1432.95	ND	ND	0.8	169.3	20.9	91.8	48.8	0
3826	2010-07-06T09:00:00	46	9.64	19.99	2270.99	ND	ND	1.1	166.1	21.4	88.8	108.8	0
3827	2010-07-06T10:00:00	42	11.08	29.18	2886.01	ND	ND	1.4	166.2	22	85.9	165.5	0
3828	2010-07-06T11:00:00	48	11.80	33.32	2075.36	ND	ND	1.4	164.5	22.5	83.6	221.2	0
3829	2010-07-06T12:00:00	40	15.38	32.12	1953.91	ND	ND	0.9	189.6	23.7	75.5	424.3	0
3830	2010-07-06T13:00:00	26	16.98	31.60	1824.98	ND	ND	0.9	85.6	26.2	63.4	778.9	0
3831	2010-07-06T14:00:00	29	16.47	25.36	1414.77	ND	ND	1.7	31.4	27.9	59.3	864.3	0
3832	2010-07-06T15:00:00	16	14.97	47.51	1781.40	ND	ND	1.3	354.1	28	57.5	582.2	0
3833	2010-07-06T16:00:00	24	16.04	53.95	1608.43	ND	ND	1.7	289.8	27.2	57.2	174	0
3834	2010-07-06T17:00:00	13	28.27	37.74	1350.26	ND	ND	1.3	216.7	25.6	65.3	182.7	9.65
3835	2010-07-06T18:00:00	43	43.03	36.86	1377.50	ND	ND	0.3	244.5	24.2	73.4	43.4	2.79
3836	2010-07-06T19:00:00	22	ND	ND	ND	ND	ND	1.9	283.3	24.2	68.4	2.7	0
3837	2010-07-06T20:00:00	21	14.66	ND	4615.83	ND	ND	0.4	207.2	24	68.4	0.1	0.25
3838	2010-07-06T21:00:00	15	9.11	39.55	2363.45	ND	ND	1.5	296.7	23.3	72.3	0	0
3839	2010-07-06T22:00:00	16	5.81	41.29	2278.14	ND	ND	0.9	182.7	21.8	81.2	0	0
3840	2010-07-06T23:00:00	9	4.87	37.10	1937.95	ND	ND	1.9	160.1	20.4	94.4	0	0.25
3841	2010-07-07T00:00:00	5	1.86	32.38	1601.65	ND	ND	1.4	144.1	20.2	93.2	0	0
3842	2010-07-07T01:00:00	3	0.21	28.24	1228.60	ND	ND	1	155.5	20.1	92.8	0	0
3843	2010-07-07T02:00:00	1	ND	22.80	777.47	ND	ND	0.9	185.5	20.1	93.2	0	1.27
3844	2010-07-07T03:00:00	2	ND	15.84	608.46	ND	ND	0.3	144.2	20	95.1	0	1.78
3845	2010-07-07T04:00:00	2	ND	8.19	506.87	ND	ND	0.4	144.4	20.2	94.5	0	0.25
3846	2010-07-07T05:00:00	3	ND	16.40	619.94	ND	ND	0.9	108.3	20	95.8	0	0
3847	2010-07-07T06:00:00	2	ND	22.15	1103.86	ND	ND	0.4	127.3	19.7	96.3	0.1	0
3848	2010-07-07T07:00:00	3	ND	19.74	1080.22	ND	ND	0.4	81.3	19.8	91.9	30.1	0
3849	2010-07-07T08:00:00	34	ND	25.22	1226.92	ND	ND	0.3	78	20.5	87.7	101.3	0.25
3850	2010-07-07T09:00:00	45	2.55	39.96	1816.58	ND	ND	0.5	110.3	21.5	83.3	209.5	0
3851	2010-07-07T10:00:00	43	17.04	52.38	2173.73	ND	ND	1.2	68.4	22.8	77.2	484	0
3852	2010-07-07T11:00:00	37	26.76	82.95	2615.44	ND	ND	1.2	43.3	24	70.8	486.4	0
3853	2010-07-07T12:00:00	31	16.63	79.59	1906.74	ND	ND	1.2	58.2	25.4	65.2	732	0
3854	2010-07-07T13:00:00	16	16.35	59.58	1479.82	ND	ND	1.7	8.4	27.2	58.1	859.4	0
3855	2010-07-07T14:00:00	9	15.12	58.67	1465.66	ND	ND	1.3	52.6	28.4	54.9	891.7	0
3856	2010-07-07T15:00:00	6	11.29	43.68	1205.03	ND	ND	2.1	47.9	28.5	55	686.5	0
3857	2010-07-07T16:00:00	14	11.40	42.97	1309.74	ND	ND	1.5	15.4	28.6	55.7	460.3	0
3858	2010-07-07T17:00:00	8	22.12	47.54	846.40	ND	ND	1.5	52.9	28.7	56.1	337.3	0
3859	2010-07-07T18:00:00	6	21.46	41.44	916.27	ND	ND	1.7	304.4	28.4	52.7	222.7	0
3860	2010-07-07T19:00:00	3	21.81	63.87	1598.98	ND	ND	2.7	272	26.5	56.7	8.6	0
3861	2010-07-07T20:00:00	17	14.62	34.83	1128.35	ND	ND	2.1	271.9	25.6	58.6	0.4	0
3862	2010-07-07T21:00:00	9	4.46	36.01	1297.14	ND	ND	1.3	280.1	25.1	59.8	0.4	0
3863	2010-07-07T22:00:00	13	3.85	42.75	1352.27	ND	ND	0.8	208.2	24.2	65.8	0.3	0
3864	2010-07-07T23:00:00	44	2.38	35.39	1211.08	ND	ND	1.1	173.3	23.2	77.6	0.1	0
3865	2010-07-08T00:00:00	39	2.81	36.80	1423.36	ND	ND	1	229.7	22.8	72	0	0
3866	2010-07-08T01:00:00	20	5.75	58.89	2365.27	ND	ND	1.5	256.2	22.3	68.5	0	0
3867	2010-07-08T02:00:00	12	3.14	31.95	1010.35	ND	ND	0.4	254	22.4	68.6	0	0
3868	2010-07-08T03:00:00	7	0.70	9.93	613.23	ND	ND	0	173.9	22.1	74	0	0
3869	2010-07-08T04:00:00	5	0.16	10.61	612.61	ND	ND	0.2	271.4	22.1	74.2	0	0
3870	2010-07-08T05:00:00	4	0.67	23.78	941.60	ND	ND	0	235.8	21.8	79.7	0	0
3871	2010-07-08T06:00:00	16	1.06	19.15	634.65	ND	ND	0.2	259.9	21.6	81.6	0.1	0
3872	2010-07-08T07:00:00	9	0.65	24.99	849.40	ND	ND	0.6	240.6	21.6	78.6	23.1	0
3873	2010-07-08T08:00:00	36	2.20	24.43	1211.81	ND	ND	0.2	77.4	22.2	77.4	95.9	0
3874	2010-07-08T09:00:00	66	2.49	20.69	1883.84	ND	ND	0.8	91	22.7	81.6	210	0
3875	2010-07-08T10:00:00	89	5.67	36.63	2762.34	ND	ND	1.1	123.1	23.9	75.1	344.5	0
3876	2010-07-08T11:00:00	63	11.41	79.00	2876.27	ND	ND	0.6	130.6	25.5	67.5	464	0
3877	2010-07-08T12:00:00	55	10.50	73.75	1870.47	ND	ND	1.1	98.6	26.8	62.1	618.5	0
3878	2010-07-08T13:00:00	40	8.17	60.31	1555.91	ND	ND	0.9	85	28	57.2	481.4	0
3879	2010-07-08T14:00:00	46	9.47	72.44	1585.28	ND	ND	0.8	58	28.3	54.9	409.3	0
3880	2010-07-08T15:00:00	24	10.65	56.41	1424.70	ND	ND	0.6	13.2	29	53.1	454.7	0
3881	2010-07-08T16:00:00	24	10.99	41.30	1114.55	ND	ND	0.8	189.7	28.8	53.8	161.8	0
3882	2010-07-08T17:00:00	23	20.75	42.71	1276.24	ND	ND	2.8	284.5	25.6	70.4	52.4	11.43
3883	2010-07-08T18:00:00	34	16.33	65.71	1561.16	ND	ND	2	252.5	24.5	74.8	37.6	0
3884	2010-07-08T19:00:00	22	14.36	62.69	1704.09	ND	ND	2.2	186.2	24.3	75.6	1.5	0
3885	2010-07-08T20:00:00	31	8.23	58.44	2388.70	ND	ND	0	210.6	23.8	77.1	0	0
3886	2010-07-08T21:00:00	50	8.12	65.99	3229.01	ND	ND	0.8	170.9	23.1	77.1	0	0
3887	2010-07-08T22:00:00	42	8.75	70.37	3255.55	ND	ND	1.7	188.5	22.8	81.5	0	0.25
3888	2010-07-08T23:00:00	22	7.36	79.04	2740.53	ND	ND	1.4	216.1	21.9	89.4	0	2.03
3889	2010-07-09T00:00:00	14	4.51	68.68	2142.67	ND	ND	0.6	283	22.2	87.8	0	0.25
3890	2010-07-09T01:00:00	8	1.71	54.68	1600.13	ND	ND	0.6	65.3	21.7	91.8	0	0
3891	2010-07-09T02:00:00	16	1.94	42.76	2005.27	ND	ND	0.4	62.8	21.5	93.1	0	0
3892	2010-07-09T03:00:00	19	1.40	48.90	1256.69	ND	ND	0.5	238.2	21.6	92.2	0	0
3893	2010-07-09T04:00:00	12	2.38	40.07	1132.54	ND	ND	0.6	208.7	21.6	89.8	0	0
3894	2010-07-09T05:00:00	21	3.45	40.11	1019.28	ND	ND	0.4	271.3	21.6	90.5	0	0
3895	2010-07-09T06:00:00	31	3.70	25.62	849.40	ND	ND	0.4	56.2	21.6	92.7	0	0
3896	2010-07-09T07:00:00	26	2.31	26.09	973.98	ND	ND	0.4	148.1	21.4	95.4	13.5	0.25
3897	2010-07-09T08:00:00	47	3.70	33.08	1539.20	ND	ND	0.5	126.6	21.7	93.6	54.3	0
3898	2010-07-09T09:00:00	40	4.59	33.49	2118.56	ND	ND	0.8	117.5	22.5	87.9	168.2	0
3899	2010-07-09T10:00:00	43	5.40	55.51	3158.07	ND	ND	0.4	200.2	23.7	79	344.3	0
3900	2010-07-09T11:00:00	30	6.57	55.43	2383.87	ND	ND	0.9	251.8	25.7	69.7	727.7	0
3901	2010-07-09T12:00:00	40	5.75	39.66	1332.03	ND	ND	0.4	88.1	27.6	61	726	0
3902	2010-07-09T13:00:00	22	5.37	60.21	1502.28	ND	ND	0.7	81	28.4	57.3	535.8	0
3903	2010-07-09T14:00:00	24	5.17	62.46	1494.69	ND	ND	0.8	90.3	29.1	54.9	502.8	0
3904	2010-07-09T15:00:00	18	4.83	65.26	1486.55	ND	ND	1.2	41.9	30.1	52.3	543.8	0
3905	2010-07-09T16:00:00	33	5.09	45.32	1235.13	ND	ND	0.9	1.1	29.8	53.2	240.8	0
3906	2010-07-09T17:00:00	60	8.95	64.42	1361.95	ND	ND	0.9	74.4	29	56.5	33.5	0
3907	2010-07-09T18:00:00	50	38.66	59.67	1300.30	ND	ND	2.4	264.3	27.5	61.1	17.6	0
3908	2010-07-09T19:00:00	32	30.81	103.60	2298.88	ND	ND	3	276.9	26.5	62.8	1.6	0
3909	2010-07-09T20:00:00	29	10.98	44.79	1784.63	ND	ND	2.7	284.4	26.4	62.1	0	0
3910	2010-07-09T21:00:00	15	5.50	36.33	1450.25	ND	ND	1.9	239.5	25.7	64.5	0	0
3911	2010-07-09T22:00:00	24	3.52	27.03	1010.50	ND	ND	1.6	232	25	66.2	0	0
3912	2010-07-09T23:00:00	13	2.88	32.15	1214.34	ND	ND	2	240.8	25.1	66.4	0	0
3913	2010-07-10T00:00:00	9	4.74	40.53	1363.73	ND	ND	1.1	296.4	24.4	68	0	0
3914	2010-07-10T01:00:00	36	1.94	21.79	1280.50	ND	ND	0.7	18.5	23.7	74.3	0	0
3915	2010-07-10T02:00:00	39	4.64	32.80	1174.83	ND	ND	0.6	45.3	23.2	78.8	0	0
3916	2010-07-10T03:00:00	35	9.30	46.99	1400.59	ND	ND	0.2	321.4	22.6	84.2	0	0.51
3917	2010-07-10T04:00:00	23	10.06	44.61	1500.02	ND	ND	0.5	245.8	22.6	78.7	0	0
3918	2010-07-10T05:00:00	13	13.70	43.31	1443.20	ND	ND	0.3	184.4	22.5	80.3	0	0
3919	2010-07-10T06:00:00	16	11.48	23.94	1101.92	ND	ND	1.1	157.1	21.6	93.2	0	10.92
3920	2010-07-10T07:00:00	9	5.03	22.55	1041.93	ND	ND	0.8	303.3	20.1	99.2	7.1	110.49
3921	2010-07-10T08:00:00	18	2.40	27.58	1352.12	ND	ND	0.8	262.9	20.1	100	110.6	1.02
3922	2010-07-10T09:00:00	10	5.10	31.10	1442.27	ND	ND	0.4	25.9	22	91.9	101.3	0
3923	2010-07-10T10:00:00	33	9.91	39.94	1701.11	ND	ND	0.1	77.9	23.8	79.5	318.3	0
3924	2010-07-10T11:00:00	29	14.98	88.13	2726.98	ND	ND	1	132.4	25.8	69.5	720.6	0
3925	2010-07-10T12:00:00	51	36.86	124.62	2745.35	ND	ND	0.9	167.4	27.5	62.9	834.1	0
3926	2010-07-10T13:00:00	34	24.44	89.72	2310.44	ND	ND	1.4	146.5	28.6	57.9	829.3	0
3927	2010-07-10T14:00:00	43	15.49	72.45	2098.60	ND	ND	1.1	143.2	29.2	55.5	557.4	0
3928	2010-07-10T15:00:00	41	13.60	54.45	1800.72	ND	ND	1.3	95.5	29.9	54.1	633.7	0
3929	2010-07-10T16:00:00	54	12.12	55.61	1874.76	ND	ND	1.5	78	29.6	56	218.4	0
3930	2010-07-10T17:00:00	49	10.38	73.98	2093.92	ND	ND	0.5	314.4	29.4	55.1	239.1	0
3931	2010-07-10T18:00:00	35	11.01	82.49	2011.16	ND	ND	3.7	276.5	28.4	54.7	125.7	0
3932	2010-07-10T19:00:00	19	15.42	69.07	2004.51	ND	ND	4.6	261.7	26.7	61.2	2	0
3933	2010-07-10T20:00:00	30	3.66	23.18	1382.57	ND	ND	3.2	269.1	26.2	62.6	0	0
3934	2010-07-10T21:00:00	16	2.92	21.63	1334.26	ND	ND	3.1	273.7	26.1	63	0	0
3935	2010-07-10T22:00:00	16	2.21	29.94	1195.83	ND	ND	0.7	89.2	24.7	73.8	0	0
3936	2010-07-10T23:00:00	23	1.41	24.35	904.12	ND	ND	0.4	134.7	24.4	76.8	0	0
3937	2010-07-11T00:00:00	36	3.63	33.68	1543.46	ND	ND	1	172.8	23.7	83.1	0	0
3938	2010-07-11T01:00:00	26	5.19	37.34	1836.38	ND	ND	1.3	176.2	23.7	81.2	0	0
3939	2010-07-11T02:00:00	34	4.49	33.38	1733.73	ND	ND	0.7	184.6	22	92.6	0	24.64
3940	2010-07-11T03:00:00	18	3.48	30.93	1440.27	ND	ND	1.3	250.3	22.2	84.5	0	0
3941	2010-07-11T04:00:00	10	2.44	23.14	1123.49	ND	ND	0.5	334.2	22.3	84.3	0	0
3942	2010-07-11T05:00:00	10	1.17	15.30	658.43	ND	ND	0.8	29.4	22.1	91.4	0	0.25
3943	2010-07-11T06:00:00	25	1.79	29.26	964.29	ND	ND	0.9	78.5	21.4	90.2	0	0
3944	2010-07-11T07:00:00	15	2.23	23.78	1018.59	ND	ND	0.8	141.6	21.4	89.9	7.2	0
3945	2010-07-11T08:00:00	10	2.87	17.84	860.14	ND	ND	1	145.7	21.2	89.9	49.8	0
3946	2010-07-11T09:00:00	9	2.41	26.57	1221.48	ND	ND	0.6	152	22	85.8	163.2	0.25
3947	2010-07-11T10:00:00	6	1.87	28.49	1304.19	ND	ND	1.1	183.8	22.8	82.6	303.4	0
3948	2010-07-11T11:00:00	5	2.57	25.22	966.58	ND	ND	1.1	158	24	75.8	396.8	0
3949	2010-07-11T12:00:00	6	2.40	22.54	1050.42	ND	ND	1.1	149	25	72.3	535.6	0
3950	2010-07-11T13:00:00	4	2.83	20.74	1031.05	ND	ND	0.7	119.7	26.3	64.5	527.6	0
3951	2010-07-11T14:00:00	3	4.95	25.42	955.00	ND	ND	0.9	68.8	26.9	61.4	356.6	0
3952	2010-07-11T15:00:00	2	3.32	25.10	1014.56	ND	ND	1.8	277.7	25.6	65.4	69.3	0
3953	2010-07-11T16:00:00	4	6.41	31.72	1102.00	ND	ND	3.2	261.6	23.7	68.9	139.1	0
3954	2010-07-11T17:00:00	3	8.53	17.14	969.52	ND	ND	3.1	260.5	24	65.7	102.9	0
3955	2010-07-11T18:00:00	2	1.10	8.43	844.90	ND	ND	1.3	286.2	23.9	66	40.2	0
3956	2010-07-11T19:00:00	3	0.60	10.11	901.69	ND	ND	1.3	61.5	22.1	77.7	1.4	0.25
3957	2010-07-11T20:00:00	14	0.21	13.56	930.26	ND	ND	2.5	41.5	21.3	84.2	0	0
3958	2010-07-11T21:00:00	8	2.02	37.50	1561.31	ND	ND	1	2.3	21.2	83.8	0	0
3959	2010-07-11T22:00:00	12	2.69	32.99	1425.06	ND	ND	0.6	96	21.3	82.2	0	0
3960	2010-07-11T23:00:00	8	1.22	26.88	1142.70	ND	ND	0.9	145.9	21	83.8	0	0
3961	2010-07-12T00:00:00	15	2.35	32.85	1412.79	ND	ND	0.8	180.4	20.7	86.6	0	0
3962	2010-07-12T01:00:00	9	2.17	30.11	1287.15	ND	ND	1.1	181.9	20.7	87.9	0	0.51
3963	2010-07-12T02:00:00	9	0.44	24.24	1038.75	ND	ND	1.6	182.8	19.9	94.1	0	0.25
3964	2010-07-12T03:00:00	7	ND	16.96	878.28	ND	ND	0.9	184.9	19.7	92	0	0.25
3965	2010-07-12T04:00:00	4	0.49	11.36	832.67	ND	ND	0.7	163	19.8	91.2	0	0
3966	2010-07-12T05:00:00	3	0.62	4.87	776.68	ND	ND	0.9	194	20	89.5	0	0
3967	2010-07-12T06:00:00	5	ND	11.89	889.84	ND	ND	0.4	109.5	20.2	90.9	0.1	0
3968	2010-07-12T07:00:00	3	0.15	8.49	969.35	ND	ND	0.7	77	20.1	91.4	32.4	0
3969	2010-07-12T08:00:00	25	1.16	27.34	1431.00	ND	ND	0.7	72.5	20.8	88.7	193.6	0
3970	2010-07-12T09:00:00	44	3.93	37.58	2394.46	ND	ND	0.7	126.6	22.3	79.6	326.3	0
3971	2010-07-12T10:00:00	32	8.52	44.74	2440.74	ND	ND	0.7	124.9	24.1	69.3	598.4	0
3972	2010-07-12T11:00:00	17	7.97	62.70	2112.97	ND	ND	1	169.2	24.6	66	389.7	0
3973	2010-07-12T12:00:00	9	ND	ND	ND	ND	ND	0.5	65.3	25.7	61.9	537.4	0
3974	2010-07-12T13:00:00	12	ND	ND	757.88	ND	ND	1.1	79.8	26.8	59	719.2	0
3975	2010-07-12T14:00:00	24	10.83	41.59	956.60	ND	ND	1.9	48.8	28.2	53.7	785.6	0
3976	2010-07-12T15:00:00	21	16.26	56.29	1111.59	ND	ND	1.6	34.6	28.7	51.9	542.9	0
3977	2010-07-12T16:00:00	32	29.82	49.27	939.46	ND	ND	1.9	47.6	28.5	52.7	188.4	0
3978	2010-07-12T17:00:00	38	17.52	36.51	834.52	ND	ND	2.1	284.2	27.2	56.1	82.1	0
3979	2010-07-12T18:00:00	31	19.93	65.80	1350.26	ND	ND	2.7	263.8	26.2	57.5	50.3	0
3980	2010-07-12T19:00:00	22	15.50	38.37	1081.21	ND	ND	3.1	255.5	25.7	58.7	4.3	0
3981	2010-07-12T20:00:00	25	10.01	34.13	1171.26	ND	ND	1.8	280	25.2	61.1	0	0
3982	2010-07-12T21:00:00	17	8.73	31.36	997.35	ND	ND	0.5	357.1	24.6	65.6	0	0
3983	2010-07-12T22:00:00	35	7.80	31.90	777.97	ND	ND	0.8	32.4	23.8	72.1	0	0
3984	2010-07-12T23:00:00	19	11.35	46.24	1186.63	ND	ND	1.1	207.5	23.4	77.2	0	0
3985	2010-07-13T00:00:00	26	17.04	41.74	1014.12	ND	ND	1.7	184	23.1	80.3	0	0
3986	2010-07-13T01:00:00	14	17.26	37.69	796.81	ND	ND	0.9	163.4	22.6	83.1	0	0
3987	2010-07-13T02:00:00	16	9.33	28.08	329.55	ND	ND	0.8	160.5	22.3	84.7	0	0
3988	2010-07-13T03:00:00	9	7.22	19.73	170.28	ND	ND	0.2	106.9	22.1	85.5	0	0
3989	2010-07-13T04:00:00	9	6.28	20.53	170.17	ND	ND	0.8	51.6	21.5	87.7	0	0
3990	2010-07-13T05:00:00	16	6.47	18.45	113.22	ND	ND	0.4	171.7	21.6	87.2	0	0
3991	2010-07-13T06:00:00	13	6.99	16.31	237.83	ND	ND	0.4	230.4	21.8	83.7	0.1	0
3992	2010-07-13T07:00:00	7	7.72	15.93	373.99	ND	ND	0.4	136.6	21.7	85.6	22.6	0
3993	2010-07-13T08:00:00	60	8.16	14.77	373.86	ND	ND	0.8	109.6	21.8	86.3	43.2	0
3994	2010-07-13T09:00:00	59	8.92	22.97	838.65	ND	ND	1.6	124.6	20.8	94.6	24.5	20.07
3995	2010-07-13T10:00:00	40	14.47	34.54	2270.22	ND	ND	0.3	18.6	20.6	98.1	152.3	8.13
3996	2010-07-13T11:00:00	21	12.49	28.98	1930.06	ND	ND	0.7	161	23.2	84	651.6	0
3997	2010-07-13T12:00:00	13	10.96	42.16	1389.20	ND	ND	0.3	164.1	25.7	67.9	777.9	0
3998	2010-07-13T13:00:00	12	14.39	67.21	1251.65	ND	ND	0.3	86.9	26.9	61.2	527.2	0
3999	2010-07-13T14:00:00	31	13.58	48.20	864.68	ND	ND	0.6	39.7	28.2	57.3	808.7	0
4000	2010-07-13T15:00:00	28	13.19	66.69	1377.91	ND	ND	1.7	91.9	28.6	56.6	521.5	0
4001	2010-07-13T16:00:00	33	13.66	46.95	985.53	ND	ND	1.2	43.6	27.7	58.7	37.4	0
4002	2010-07-13T17:00:00	20	14.07	75.41	1352.50	ND	ND	3.5	274.3	24.8	67.3	44.4	0
4003	2010-07-13T18:00:00	29	15.29	82.16	1488.29	ND	ND	2.4	270.4	24.9	69.2	64.6	0
4004	2010-07-13T19:00:00	29	12.83	41.08	1202.48	ND	ND	2.1	271.6	24.2	70.3	2.6	0
4005	2010-07-13T20:00:00	27	10.30	35.76	1519.57	ND	ND	2.3	277.5	23.4	70.5	0	0
4006	2010-07-13T21:00:00	15	10.92	33.59	1743.37	ND	ND	2.2	277.4	23.3	69.6	0	0
4007	2010-07-13T22:00:00	9	8.88	33.93	1309.93	ND	ND	1.4	262.6	23.2	70.2	0	0
4008	2010-07-13T23:00:00	15	6.95	23.29	751.53	ND	ND	0.3	343.9	22.9	76.2	0	0
4009	2010-07-14T00:00:00	37	6.04	22.93	705.27	ND	ND	1.3	254.4	22.2	75.3	0	0
4010	2010-07-14T01:00:00	19	19.73	33.88	1940.58	ND	ND	0.2	42.7	22.3	75.5	0	0
4011	2010-07-14T02:00:00	32	14.49	18.79	885.48	ND	ND	0.3	49.2	21.9	83.6	0	0
4012	2010-07-14T03:00:00	17	9.33	20.17	770.91	ND	ND	0.9	232	21.9	78.6	0	0
4013	2010-07-14T04:00:00	18	12.29	32.47	1281.07	ND	ND	0.7	226.4	21.6	81.7	0	0
4014	2010-07-14T05:00:00	10	17.36	14.73	634.22	ND	ND	0	291.9	21.6	79.2	0	0
4015	2010-07-14T06:00:00	29	9.79	24.50	758.80	ND	ND	0.3	288	21.3	85.3	0.1	0
4016	2010-07-14T07:00:00	49	8.93	20.94	667.52	ND	ND	0.2	94.3	21.2	87.2	15.3	0
4017	2010-07-14T08:00:00	58	9.65	20.45	1153.62	ND	ND	1	257.5	21.9	79.5	103.2	0
4018	2010-07-14T09:00:00	31	10.99	24.14	1723.21	ND	ND	0.9	232	23.4	73.1	314.9	0
4019	2010-07-14T10:00:00	41	18.48	34.47	2176.36	ND	ND	0.6	175.9	25.3	66.6	418.5	0
4020	2010-07-14T11:00:00	39	18.23	79.79	2373.79	ND	ND	1.5	111.5	26.1	65.5	463.4	0
4021	2010-07-14T12:00:00	58	15.04	80.97	1563.78	ND	ND	1	53.1	26.7	62.6	370.3	0
4022	2010-07-14T13:00:00	32	13.62	67.53	1497.79	ND	ND	0.5	81	27.7	58.6	709.8	0
4023	2010-07-14T14:00:00	27	14.73	61.22	1144.43	ND	ND	1	58.7	28.7	54.7	565.4	0
4024	2010-07-14T15:00:00	15	17.27	55.72	1322.21	ND	ND	1.6	302.1	28.5	53.7	270.6	0
4025	2010-07-14T16:00:00	48	14.66	48.76	1054.75	ND	ND	3.6	262.1	24	75.2	51.3	28.45
4026	2010-07-14T17:00:00	25	14.42	35.83	1039.00	ND	ND	3.1	273.9	24.3	70.1	96.1	0.76
4027	2010-07-14T18:00:00	14	10.95	25.07	1108.63	ND	ND	1.8	285.3	25	65.1	47	0
4028	2010-07-14T19:00:00	18	11.01	28.74	1157.06	ND	ND	3.2	268.8	24.2	68.5	2.3	0
4029	2010-07-14T20:00:00	23	10.32	31.29	1256.79	ND	ND	1.7	260.6	23.8	68.7	0	0
4030	2010-07-14T21:00:00	28	8.12	24.89	1049.71	ND	ND	1.6	191.9	22.4	76.5	0	0
4031	2010-07-14T22:00:00	22	7.43	24.16	908.49	ND	ND	0.9	217.9	22.2	78	0	0
4032	2010-07-14T23:00:00	30	9.42	37.91	1055.40	ND	ND	0.4	307.9	22.6	76.1	0	0
4033	2010-07-15T00:00:00	22	11.02	35.85	1125.02	ND	ND	0.2	204.8	22.2	81.3	0	0
4034	2010-07-15T01:00:00	12	11.76	34.61	692.25	ND	ND	0.9	134.8	21.8	85.4	0	0
4035	2010-07-15T02:00:00	27	11.22	32.59	668.65	ND	ND	1	182	21.1	88.7	0	0.25
4036	2010-07-15T03:00:00	14	9.10	29.09	339.18	ND	ND	1	256.6	19.9	96.8	0	20.83
4037	2010-07-15T04:00:00	9	7.26	13.79	78.82	ND	ND	0.4	319.7	20.1	94.2	0	1.02
4038	2010-07-15T05:00:00	6	5.80	2.98	45.07	ND	ND	0.4	247.1	20.7	89.8	0	0.25
4039	2010-07-15T06:00:00	4	5.22	9.04	67.74	ND	ND	0.3	61.7	20.7	92	0	0.51
4040	2010-07-15T07:00:00	3	4.80	4.96	22.58	ND	ND	0.6	51.2	20	97.3	4.3	12.45
4041	2010-07-15T08:00:00	18	5.95	20.15	484.35	ND	ND	0.4	80.7	20	97.2	36.3	7.87
4042	2010-07-15T09:00:00	10	9.61	29.48	1317.87	ND	ND	0.8	198.2	20	96.8	50.8	22.35
4043	2010-07-15T10:00:00	20	20.61	42.98	2264.04	ND	ND	0.8	97.4	19.9	98.3	46.6	13.46
4044	2010-07-15T11:00:00	11	16.95	37.41	1497.58	ND	ND	1.2	45.9	19.9	96.2	91.7	4.83
4045	2010-07-15T12:00:00	6	16.48	53.06	2173.18	ND	ND	1	52.6	21	91.7	235.3	0.25
4046	2010-07-15T13:00:00	5	16.83	41.49	1356.28	ND	ND	1.4	47.9	22.1	85	221.8	0
4047	2010-07-15T14:00:00	25	25.74	50.67	1304.63	ND	ND	1.7	12.5	22.4	81.9	167.2	0
4048	2010-07-15T15:00:00	14	30.16	56.61	1271.89	ND	ND	1.2	353.7	22	84	111	0
4049	2010-07-15T16:00:00	32	28.53	49.00	1032.01	ND	ND	1	257.8	22.3	82.5	73.7	0
4050	2010-07-15T17:00:00	23	28.09	59.22	1498.50	ND	ND	1.5	269.7	22.8	74.6	73	0
4051	2010-07-15T18:00:00	37	31.57	60.72	1523.78	ND	ND	0.7	226.5	22.9	74.7	36.6	0
4052	2010-07-15T19:00:00	27	21.67	61.83	1490.17	ND	ND	0.6	257.2	22.8	76.4	2.8	0
4053	2010-07-15T20:00:00	42	16.31	69.98	1876.30	ND	ND	1	255.9	22.4	79.5	0	0
4054	2010-07-15T21:00:00	32	17.35	68.67	2532.42	ND	ND	1.4	253.9	22	79.3	0	0
4055	2010-07-15T22:00:00	39	14.84	35.97	2109.38	ND	ND	0.5	245.6	21.9	78.6	0	0
4056	2010-07-15T23:00:00	38	10.84	25.11	1213.05	ND	ND	0.9	358.4	21.8	83.8	0	0
4057	2010-07-16T00:00:00	56	8.68	18.00	815.98	ND	ND	0.8	262.4	21.6	82.4	0	0
4058	2010-07-16T01:00:00	29	14.38	39.58	2015.92	ND	ND	0.6	268	21.5	81.6	0	0
4059	2010-07-16T02:00:00	23	14.68	25.46	939.69	ND	ND	0.4	224.8	21.3	83.8	0	0
4060	2010-07-16T03:00:00	12	12.91	13.89	441.24	ND	ND	0.6	202.1	20.9	90.1	0	1.52
4061	2010-07-16T04:00:00	24	13.59	12.85	576.22	ND	ND	1.6	253.7	19.2	98.3	0	34.29
4062	2010-07-16T05:00:00	13	9.45	16.29	438.09	ND	ND	0.6	232.2	19.3	96.8	0	6.86
4063	2010-07-16T06:00:00	8	6.97	6.98	157.32	ND	ND	0.4	196.6	19.5	96.3	0	6.1
4064	2010-07-16T07:00:00	5	5.66	5.32	101.20	ND	ND	0.7	191.8	19.6	96.7	7.1	5.08
4065	2010-07-16T08:00:00	10	5.48	20.03	438.69	ND	ND	0.5	191.5	19.7	96.8	22.5	6.35
4066	2010-07-16T09:00:00	6	6.49	33.78	1204.00	ND	ND	0.6	164.3	19.7	96.5	40.5	5.08
4067	2010-07-16T10:00:00	5	8.16	40.94	2486.76	ND	ND	0.2	202.8	20.1	93.8	123.3	2.29
4068	2010-07-16T11:00:00	14	8.81	43.42	2523.97	ND	ND	0.7	166.3	20.9	89.6	190	0
4069	2010-07-16T12:00:00	10	8.73	57.95	2225.80	ND	ND	0.9	159.8	21.5	86.1	258.6	0.25
4070	2010-07-16T13:00:00	5	12.09	82.88	2388.84	ND	ND	0.6	145.7	22.8	78.3	470.8	0
4071	2010-07-16T14:00:00	2	12.15	71.32	1978.64	ND	ND	0.4	167	23.6	72.8	301.4	0
4072	2010-07-16T15:00:00	2	9.39	45.18	1208.64	ND	ND	0.8	335.7	23.6	74.1	273.9	0
4073	2010-07-16T16:00:00	25	7.69	24.54	900.78	ND	ND	0.7	351.1	23.9	73.8	222.9	0
4074	2010-07-16T17:00:00	43	8.54	51.96	1335.41	ND	ND	0.9	81	23.9	72	123.1	0
4075	2010-07-16T18:00:00	43	12.77	78.81	1677.83	ND	ND	0.8	84.1	23.7	72.4	38.2	0
4076	2010-07-16T19:00:00	58	20.45	91.89	2098.72	ND	ND	0.7	53.1	23.4	75.3	2.2	0.25
4077	2010-07-16T20:00:00	73	20.82	96.01	2438.44	ND	ND	0.1	69.9	22.4	84	0	1.27
4078	2010-07-16T21:00:00	48	14.81	95.87	2714.11	ND	ND	0.9	259.8	21.9	86.8	0	0.25
4079	2010-07-16T22:00:00	55	15.32	102.68	3639.14	ND	ND	0.2	50.3	21.7	87.2	0	0
4080	2010-07-16T23:00:00	30	13.79	86.09	2775.66	ND	ND	0.2	249	21.4	85.2	0	0
4081	2010-07-17T00:00:00	35	13.87	77.89	2953.91	ND	ND	0.5	258.8	21	85.4	0	0
4082	2010-07-17T01:00:00	29	11.92	53.05	1944.00	ND	ND	0.9	247.9	20.7	87.4	0	0
4083	2010-07-17T02:00:00	21	9.71	33.86	1614.58	ND	ND	0.8	257.2	20.6	83.6	0	0
4084	2010-07-17T03:00:00	11	8.44	29.97	1636.60	ND	ND	0.4	288.8	20.6	84.2	0	0
4085	2010-07-17T04:00:00	17	7.51	18.41	756.22	ND	ND	0.8	246.9	20.4	84	0	0
4086	2010-07-17T05:00:00	11	6.81	21.47	857.22	ND	ND	0.5	225.3	20.3	84.2	0	0
4087	2010-07-17T06:00:00	27	6.68	18.76	924.58	ND	ND	0.7	173.4	20.1	92	0.1	0
4088	2010-07-17T07:00:00	30	6.55	11.00	709.87	ND	ND	0.5	194.9	19.9	94.8	34.5	0
4089	2010-07-17T08:00:00	41	6.82	13.64	1126.00	ND	ND	0.3	187	20.8	86.7	123	0
4090	2010-07-17T09:00:00	38	6.04	17.86	1185.93	ND	ND	0.5	139.4	21.8	81.6	174.5	0
4091	2010-07-17T10:00:00	62	8.45	37.88	1677.29	ND	ND	0.8	148.6	22.8	79.6	506.6	0
4092	2010-07-17T11:00:00	42	10.87	72.99	2399.39	ND	ND	0.8	156.2	24.8	68.7	594.2	0
4093	2010-07-17T12:00:00	44	11.47	76.00	1866.09	ND	ND	0.6	106.1	26.2	61.1	613.2	0
4094	2010-07-17T13:00:00	33	15.71	54.54	977.69	ND	ND	1	69.1	27.3	55.9	625.4	0
4095	2010-07-17T14:00:00	39	15.84	49.23	1050.55	ND	ND	1.4	81.9	27.8	55.2	505.1	0
4096	2010-07-17T15:00:00	23	19.20	47.78	821.02	ND	ND	1.5	106	27.4	56.5	310.6	0
4097	2010-07-17T16:00:00	60	20.58	65.33	1154.83	ND	ND	1.6	124.1	27	61.4	230.2	0
4098	2010-07-17T17:00:00	67	17.52	66.25	1268.63	ND	ND	0.6	147.1	26.9	64	282	0
4099	2010-07-17T18:00:00	59	15.22	72.41	1441.14	ND	ND	0.9	191.6	26.4	64.8	51.6	0
4100	2010-07-17T19:00:00	36	25.72	49.48	1081.93	ND	ND	0.7	42.5	25.5	65.9	1.9	0
4101	2010-07-17T20:00:00	67	17.27	52.81	1181.96	ND	ND	0.6	68.8	25.1	68.8	0	0
4102	2010-07-17T21:00:00	52	13.29	68.81	1661.69	ND	ND	0.7	213.6	24.7	69.2	0	0
4103	2010-07-17T22:00:00	50	16.70	82.19	2060.02	ND	ND	1.5	241.7	23.8	70.2	0	0
4104	2010-07-17T23:00:00	26	15.66	67.94	2453.14	ND	ND	1	261.4	23.4	70.9	0	0
4105	2010-07-18T00:00:00	30	9.85	36.01	1162.25	ND	ND	0.2	58.4	22.9	79.6	0	0
4106	2010-07-18T01:00:00	31	7.75	29.32	762.15	ND	ND	0.7	234.7	22.6	82.9	0	0
4107	2010-07-18T02:00:00	41	9.20	30.71	1215.93	ND	ND	0.8	216.9	22.3	79.4	0	0
4108	2010-07-18T03:00:00	33	9.01	28.78	1055.76	ND	ND	0.8	157	22	85.7	0	0
4109	2010-07-18T04:00:00	40	8.04	22.34	771.17	ND	ND	1	138.7	21.5	89.4	0	0
4110	2010-07-18T05:00:00	21	7.66	22.15	701.93	ND	ND	0.8	19.1	21.2	89.2	0	0
4111	2010-07-18T06:00:00	42	7.32	16.47	689.91	ND	ND	0.5	345.5	21.4	88.9	0	0
4112	2010-07-18T07:00:00	56	6.70	18.07	645.11	ND	ND	0.1	175.6	21.6	88.3	10.7	0
4113	2010-07-18T08:00:00	47	8.03	18.02	724.82	ND	ND	0.6	61.9	21.2	91.3	68.7	2.03
4114	2010-07-18T09:00:00	25	9.88	21.14	1085.76	ND	ND	0.7	148.5	21.7	91.3	200.2	0.25
4115	2010-07-18T10:00:00	36	9.61	21.64	996.97	ND	ND	0.9	153.5	23	83.8	279.9	0
4116	2010-07-18T11:00:00	27	9.97	38.35	1103.78	ND	ND	1	91.6	24.8	73.7	646.9	0
4117	2010-07-18T12:00:00	33	13.20	35.86	973.11	ND	ND	1.1	97.2	26.1	66.8	535.1	0
4118	2010-07-18T13:00:00	17	20.78	37.39	965.86	ND	ND	1	74.8	27	62.9	482.1	0
4119	2010-07-18T14:00:00	21	19.10	34.89	841.91	ND	ND	1.5	52.5	27.6	61	397.9	0
4120	2010-07-18T15:00:00	12	20.35	24.28	785.81	ND	ND	1.5	43.1	28.3	56.1	531.5	0
4121	2010-07-18T16:00:00	7	18.07	28.47	764.47	ND	ND	1.5	2.1	28.6	55.3	355.9	0
4122	2010-07-18T17:00:00	4	27.90	22.09	486.97	ND	ND	1.2	4.5	28.5	56.4	294.6	0
4123	2010-07-18T18:00:00	22	31.89	15.09	521.58	ND	ND	1.5	334.7	27.9	59.2	89	0
4124	2010-07-18T19:00:00	12	39.08	18.22	601.51	ND	ND	0.9	279.9	26.7	62	2.5	0
4125	2010-07-18T20:00:00	9	30.52	18.92	564.55	ND	ND	1.6	216.8	25.1	68.5	0	0
4126	2010-07-18T21:00:00	6	13.73	25.11	790.73	ND	ND	2.1	255.2	24.6	67.2	0	0
4127	2010-07-18T22:00:00	3	9.05	23.59	961.02	ND	ND	1.7	264.2	24.3	68.5	0	0
4128	2010-07-18T23:00:00	3	7.27	15.63	742.90	ND	ND	1.4	278	23.9	71.3	0	0
4129	2010-07-19T00:00:00	3	7.21	16.72	776.14	ND	ND	0.8	264.1	23.6	73.5	0	0
4130	2010-07-19T01:00:00	24	6.44	12.22	604.32	ND	ND	0.8	218.1	22.9	84	0	0
4131	2010-07-19T02:00:00	12	6.45	17.39	739.40	ND	ND	1.6	248.3	22.6	75.2	0	0
4132	2010-07-19T03:00:00	8	7.82	26.64	1556.84	ND	ND	0.7	280.8	22.3	77.5	0	0
4133	2010-07-19T04:00:00	5	6.26	3.84	385.98	ND	ND	0.5	356.8	21.8	84.3	0	0
4134	2010-07-19T05:00:00	16	5.62	4.38	396.66	ND	ND	0.5	348.7	21.3	86.8	0	0
4135	2010-07-19T06:00:00	34	6.68	20.76	882.48	ND	ND	0.3	316.1	21	89.1	0.2	0
4136	2010-07-19T07:00:00	18	8.27	20.48	960.70	ND	ND	0.5	251.8	21.1	79	27	0
4137	2010-07-19T08:00:00	54	12.72	19.57	791.43	ND	ND	0.2	119.3	22.7	75.2	186.1	0
4138	2010-07-19T09:00:00	59	17.58	19.34	1204.97	ND	ND	1	85.8	24.4	75	382.8	0
4139	2010-07-19T10:00:00	73	28.95	57.44	2503.83	ND	ND	1	85.8	25.5	69.9	594.5	0
4140	2010-07-19T11:00:00	42	34.36	96.39	2203.26	ND	ND	1	82.2	27.4	61.6	736	0
4141	2010-07-19T12:00:00	55	28.63	66.32	1443.54	ND	ND	0.8	42.7	28.4	56.5	724.9	0
4142	2010-07-19T13:00:00	30	28.22	50.35	1123.92	ND	ND	1.3	43.7	29.7	52.1	797.8	0
4143	2010-07-19T14:00:00	40	23.34	37.42	674.93	ND	ND	1.1	69.4	29.9	51.9	451.4	0
4144	2010-07-19T15:00:00	40	24.56	35.93	768.53	ND	ND	1.3	269.9	29.3	51.6	314.3	0
4145	2010-07-19T16:00:00	22	25.76	39.49	639.18	ND	ND	3.7	279.6	29.6	50.3	464.8	0
4146	2010-07-19T17:00:00	11	19.53	30.28	709.61	ND	ND	3.8	271.4	28.6	52.2	272.4	0
4147	2010-07-19T18:00:00	17	10.53	15.04	684.07	ND	ND	3.7	276.9	27.4	54.3	63.6	0
4148	2010-07-19T19:00:00	10	10.99	23.37	831.48	ND	ND	3.4	275.2	26.7	54.2	2.7	0
4149	2010-07-19T20:00:00	7	10.51	30.34	714.33	ND	ND	2.5	284	26.2	56.6	0	0
4150	2010-07-19T21:00:00	13	9.76	36.69	943.18	ND	ND	0.3	55	25.4	62.5	0	0
4151	2010-07-19T22:00:00	24	8.76	30.02	791.53	ND	ND	0.7	56.2	24.1	69.6	0	0
4152	2010-07-19T23:00:00	13	10.29	33.91	1244.94	ND	ND	1.7	223.3	24.4	67.9	0	0
4153	2010-07-20T00:00:00	8	13.55	32.87	1451.99	ND	ND	0.7	244.6	24.2	68.1	0	0
4154	2010-07-20T01:00:00	16	14.48	28.29	1142.53	ND	ND	0.5	191.9	22.9	76.9	0	0
4155	2010-07-20T02:00:00	20	9.73	17.56	819.02	ND	ND	0.4	179.4	22.9	75.7	0	0
4156	2010-07-20T03:00:00	24	8.79	20.80	682.52	ND	ND	0.2	69.3	22.9	76.3	0	0
4157	2010-07-20T04:00:00	28	9.34	20.50	546.02	ND	ND	0.2	233.4	22.8	76.6	0	0
4158	2010-07-20T05:00:00	24	9.99	22.43	761.89	ND	ND	0.3	125.6	22.6	78.9	0	0
4159	2010-07-20T06:00:00	41	10.29	20.29	681.83	ND	ND	0.5	67.3	21.9	82.3	0.2	0
4160	2010-07-20T07:00:00	27	10.16	20.00	974.97	ND	ND	0.6	176.3	22.1	81.5	29	0
4161	2010-07-20T08:00:00	49	10.02	18.30	1009.67	ND	ND	0.8	211.7	22.4	81.1	77.2	0
4162	2010-07-20T09:00:00	26	13.14	22.74	1158.32	ND	ND	0.2	212.4	23.7	72.9	225.4	0
4163	2010-07-20T10:00:00	39	14.22	28.84	1140.61	ND	ND	0.7	136.2	25.5	65.9	521.4	0
4164	2010-07-20T11:00:00	25	16.98	31.85	711.47	ND	ND	1.1	128.9	27.1	58.1	812.6	0
4165	2010-07-20T12:00:00	18	18.79	47.68	922.94	ND	ND	1	95.2	28.2	54.5	613.4	0
4166	2010-07-20T13:00:00	14	20.95	27.05	463.16	ND	ND	1	62.5	29.2	52.7	649	0
4167	2010-07-20T14:00:00	37	17.62	30.56	685.43	ND	ND	1.4	110	28.7	54.7	306.7	0
4168	2010-07-20T15:00:00	20	18.99	25.15	835.08	ND	ND	1.2	276.3	27.6	56.6	175.4	0
4169	2010-07-20T16:00:00	10	17.79	37.90	1051.60	ND	ND	2.4	263.9	28.7	51.3	586	0
4170	2010-07-20T17:00:00	6	12.79	14.74	510.33	ND	ND	3	277.7	29	49.1	330.7	0
4171	2010-07-20T18:00:00	4	7.97	2.98	371.52	ND	ND	2.9	280.5	27.7	53.3	132.6	0
4172	2010-07-20T19:00:00	4	7.14	0.67	381.48	ND	ND	3.3	272.5	26.1	56.6	2.3	0
4173	2010-07-20T20:00:00	8	6.47	2.63	402.44	ND	ND	2.5	278.7	25.7	57.1	0	0
4174	2010-07-20T21:00:00	5	6.49	5.29	447.84	ND	ND	1.9	277.1	25.8	54.9	0	0
4175	2010-07-20T22:00:00	8	6.36	14.64	528.39	ND	ND	1.7	197.2	24.7	66.9	0	0
4176	2010-07-20T23:00:00	5	6.13	17.71	583.67	ND	ND	2	193.9	24	74.7	0	0
4177	2010-07-21T00:00:00	23	7.42	31.85	1004.75	ND	ND	1.4	229.3	23.8	72.4	0	0
4178	2010-07-21T01:00:00	13	8.51	23.22	741.65	ND	ND	0.8	306.1	23.2	71.2	0	0
4179	2010-07-21T02:00:00	24	8.65	16.40	557.96	ND	ND	1.2	29.1	22	82.3	0	0
4180	2010-07-21T03:00:00	20	8.20	15.05	578.38	ND	ND	0.1	79.4	21.7	82.2	0	0
4181	2010-07-21T04:00:00	26	10.24	19.26	668.42	ND	ND	0.3	325.4	21.9	79.5	0	0
4182	2010-07-21T05:00:00	17	9.75	15.23	340.11	ND	ND	0.9	254.2	21.6	76	0	0
4183	2010-07-21T06:00:00	15	10.21	16.11	486.99	ND	ND	0.5	244.4	21.4	76.7	0.2	0
4184	2010-07-21T07:00:00	45	10.28	6.40	328.21	ND	ND	0.3	148.6	21	86.6	30	0
4185	2010-07-21T08:00:00	48	8.45	9.89	587.72	ND	ND	0.5	183.4	21.7	82.8	97.4	0
4186	2010-07-21T09:00:00	49	11.04	25.48	1778.69	ND	ND	1	164.6	23	77.6	296	0
4187	2010-07-21T10:00:00	47	12.65	35.71	1832.05	ND	ND	1.3	154.3	24.7	70.8	634.3	0
4188	2010-07-21T11:00:00	29	15.60	54.56	1888.35	ND	ND	0.6	105.4	26.3	62.2	620.1	0
4189	2010-07-21T12:00:00	44	13.45	45.74	1162.11	ND	ND	1.1	49	27.7	57.8	684.9	0
4190	2010-07-21T13:00:00	31	21.42	44.78	1017.27	ND	ND	1.2	62.8	28.9	52.5	772.6	0
4191	2010-07-21T14:00:00	30	22.30	54.38	1207.02	ND	ND	1.1	37	30.4	48.2	772.7	0
4192	2010-07-21T15:00:00	ND	33.61	58.68	1271.34	ND	ND	1	20.9	30.4	48.6	480.5	0
4193	2010-07-21T16:00:00	ND	39.46	40.46	851.45	ND	ND	2	262.4	29.2	50.4	62.3	0
4194	2010-07-21T17:00:00	3	38.61	39.23	917.79	ND	ND	4	263	27.8	56.6	159.1	0
4195	2010-07-21T18:00:00	12	ND	ND	ND	ND	ND	3.1	279.6	27.1	58.1	69.8	0
4196	2010-07-21T19:00:00	7	3.96	28.19	1165.22	ND	ND	3.1	271.1	26.8	57.4	17.5	0
4197	2010-07-21T20:00:00	22	1.32	26.19	933.55	ND	ND	2.9	266	26.2	59.3	0	0
4198	2010-07-21T21:00:00	13	0.03	31.54	1012.19	ND	ND	1.8	305.1	25.4	63.7	0	0
4199	2010-07-21T22:00:00	24	ND	32.36	871.83	ND	ND	1.2	276.9	24.7	63.8	0	0
4200	2010-07-21T23:00:00	14	ND	28.54	995.68	ND	ND	1.4	262.9	24.3	63.5	0	0
4201	2010-07-22T00:00:00	22	0.16	27.08	582.89	ND	ND	1.5	259.1	23.9	62.8	0	0
4202	2010-07-22T01:00:00	12	ND	21.30	479.38	ND	ND	1.5	252	23.1	65.6	0	0
4203	2010-07-22T02:00:00	7	ND	5.48	387.02	ND	ND	1.7	237.5	23.1	65.8	0	0
4204	2010-07-22T03:00:00	5	ND	3.18	273.19	ND	ND	1.5	254.2	22.5	68.3	0	0
4205	2010-07-22T04:00:00	6	ND	1.44	193.12	ND	ND	1.1	258.8	22.1	71.1	0	0
4206	2010-07-22T05:00:00	5	ND	1.19	34.03	ND	ND	0.6	275.3	21.7	71.2	0	0
4207	2010-07-22T06:00:00	4	ND	7.97	147.28	ND	ND	0.7	265.3	21.6	70.2	0.2	0
4208	2010-07-22T07:00:00	3	ND	3.93	158.56	ND	ND	1.3	259.8	21.6	70.8	36.3	0
4209	2010-07-22T08:00:00	21	ND	9.12	181.21	ND	ND	0.8	265.7	22.7	66.6	155.9	0
4210	2010-07-22T09:00:00	16	2.44	24.73	716.16	ND	ND	0.6	103.5	24.5	66.9	366.2	0
4211	2010-07-22T10:00:00	70	4.55	40.82	1841.33	ND	ND	0.9	93.3	26.2	62	588.4	0
4212	2010-07-22T11:00:00	61	5.58	91.94	2047.39	ND	ND	1.1	68.5	27.6	56.7	719	0
4213	2010-07-22T12:00:00	61	4.33	68.40	1409.84	ND	ND	1.5	59.6	28.6	54.1	823.7	0
4214	2010-07-22T13:00:00	39	5.01	56.75	1159.45	ND	ND	1.4	48.9	30	51.1	776.8	0
4215	2010-07-22T14:00:00	62	7.30	47.09	966.81	ND	ND	2.1	33.6	31.3	48.7	853.6	0
4216	2010-07-22T15:00:00	33	13.91	53.39	1017.75	ND	ND	1.3	308.4	31	47.1	484.3	0
4217	2010-07-22T16:00:00	37	21.14	51.05	876.50	ND	ND	4	278.1	30.2	46.9	415.6	0
4218	2010-07-22T17:00:00	19	14.80	19.57	862.54	ND	ND	5.2	278.1	28.8	51.8	327.9	0
4219	2010-07-22T18:00:00	24	ND	14.61	754.14	ND	ND	6.1	273.4	26.9	55.9	123.1	0
4220	2010-07-22T19:00:00	17	ND	12.45	783.98	ND	ND	4.7	271.6	26.6	55.2	2.6	0
4221	2010-07-22T20:00:00	15	ND	9.37	610.43	ND	ND	3.6	286.4	26.5	55.2	0	0
4222	2010-07-22T21:00:00	11	ND	19.48	633.26	ND	ND	1.7	231.1	26.1	59.4	0	0
4223	2010-07-22T22:00:00	23	ND	20.45	471.43	ND	ND	1	192.8	25.6	59.9	0	0
4224	2010-07-22T23:00:00	17	ND	26.55	539.52	ND	ND	1.5	155.6	24.4	69.7	0	0
4225	2010-07-23T00:00:00	27	ND	36.99	880.34	ND	ND	0.9	139.1	23.6	72.9	0	0
4226	2010-07-23T01:00:00	23	ND	43.79	934.98	ND	ND	0.7	219.6	23.8	68.5	0	0
4227	2010-07-23T02:00:00	20	ND	31.98	650.37	ND	ND	0.3	35	23.1	72.7	0	0
4228	2010-07-23T03:00:00	26	ND	16.08	341.49	ND	ND	0.2	123.1	22.7	75	0	0
4229	2010-07-23T04:00:00	25	0.99	26.93	773.00	ND	ND	0.6	232.3	22.6	71.2	0	0
4230	2010-07-23T05:00:00	13	8.21	27.20	715.92	ND	ND	0.7	264.8	22.4	71.6	0	0
4231	2010-07-23T06:00:00	17	2.29	9.50	397.46	ND	ND	1.3	50	21.3	81.4	0.1	0
4232	2010-07-23T07:00:00	37	ND	8.37	486.49	ND	ND	0.2	347.6	21.6	78.5	48.8	0
4233	2010-07-23T08:00:00	44	0.91	24.35	588.92	ND	ND	0.5	58.3	23.1	72.9	153.7	0
4234	2010-07-23T09:00:00	47	24.76	36.06	1013.09	ND	ND	1.6	67.4	24.5	66.7	348.9	0
4235	2010-07-23T10:00:00	88	42.12	57.99	1612.60	ND	ND	1.3	75.4	24.2	69.1	267.7	0
4236	2010-07-23T11:00:00	67	67.73	78.18	1668.10	ND	ND	0.3	64.4	26	61.1	494.6	0
4237	2010-07-23T12:00:00	68	54.26	56.48	1137.96	ND	ND	0.9	109.6	27.2	56.7	545.1	0
4238	2010-07-23T13:00:00	50	36.93	51.91	888.63	ND	ND	0.9	60.5	28.7	49.2	683.9	0
4239	2010-07-23T14:00:00	30	22.58	63.10	1043.85	ND	ND	1.1	56.6	29.7	46.1	729.9	0
4240	2010-07-23T15:00:00	22	10.25	44.48	907.67	ND	ND	1.5	57.6	30.9	41.9	743.5	0
4241	2010-07-23T16:00:00	21	9.78	33.69	887.90	ND	ND	1.4	60.6	31	43.8	430.8	0
4242	2010-07-23T17:00:00	13	16.73	41.08	853.13	ND	ND	1.2	43.9	30.6	47.1	230.6	0
4243	2010-07-23T18:00:00	49	20.61	71.38	1237.16	ND	ND	1	337.7	29.8	49.8	93.2	0
4244	2010-07-23T19:00:00	40	25.53	66.66	1303.75	ND	ND	3.2	270.1	27.8	56.4	4.6	0
4245	2010-07-23T20:00:00	45	23.20	67.21	1376.08	ND	ND	3.8	264.4	26.9	58.9	0	0
4246	2010-07-23T21:00:00	26	4.27	55.97	1383.49	ND	ND	3.2	263.9	26.2	61.7	0	0
4247	2010-07-23T22:00:00	29	0.21	44.42	1000.69	ND	ND	1.5	291.2	25.8	64.2	0	0
4248	2010-07-23T23:00:00	16	0.16	39.88	976.38	ND	ND	0.5	114.3	25.3	67.8	0	0
4249	2010-07-24T00:00:00	17	0.13	32.50	928.88	ND	ND	1.8	229.5	25.6	64.8	0	0
4250	2010-07-24T01:00:00	18	6.09	44.50	1595.60	ND	ND	0.9	172.2	25	70.5	0	0
4251	2010-07-24T02:00:00	24	0.42	22.38	916.49	ND	ND	1	181.2	24.8	71.5	0	0
4252	2010-07-24T03:00:00	24	0.65	45.96	1247.87	ND	ND	1.1	160.9	24.1	75.5	0	0
4253	2010-07-24T04:00:00	32	0.60	36.33	993.67	ND	ND	0.5	135.8	23.3	78.9	0	0
4254	2010-07-24T05:00:00	21	ND	25.60	797.35	ND	ND	0.4	152.8	23.1	78.9	0	0
4255	2010-07-24T06:00:00	30	ND	19.69	808.20	ND	ND	0.3	42.8	23.2	79	0.2	0
4256	2010-07-24T07:00:00	35	2.16	20.48	831.24	ND	ND	0.4	79	23.3	79.1	23.3	0
4257	2010-07-24T08:00:00	75	3.96	26.57	1002.38	ND	ND	1.2	62.7	23.1	80.4	109.8	0
4258	2010-07-24T09:00:00	77	8.62	31.55	1764.37	ND	ND	0.4	94.6	24.1	74.4	210.3	0
4259	2010-07-24T10:00:00	78	12.98	39.75	2021.60	ND	ND	0.9	142	25.7	66.4	372.6	0
4260	2010-07-24T11:00:00	63	23.93	68.59	1814.31	ND	ND	1.4	140.7	27.6	58.4	688.3	0
4261	2010-07-24T12:00:00	64	18.55	81.69	1814.30	ND	ND	1.2	143.6	28.5	53.4	656.1	0
4262	2010-07-24T13:00:00	33	12.54	50.92	1170.65	ND	ND	1.2	157	29.7	49.2	629.4	0
4263	2010-07-24T14:00:00	40	8.04	37.84	907.67	ND	ND	1.5	161.2	29.2	51.9	305.1	0
4264	2010-07-24T15:00:00	35	5.31	41.69	917.79	ND	ND	0.7	177.4	29.6	50.5	360	0
4265	2010-07-24T16:00:00	32	5.03	38.33	942.27	ND	ND	1.2	224.6	29.1	51.9	87.1	0
4266	2010-07-24T17:00:00	21	4.09	36.24	812.96	ND	ND	2.9	264.9	28.5	53.5	193.5	0
4267	2010-07-24T18:00:00	21	4.69	37.62	1043.16	ND	ND	3.1	260.3	28.2	54.7	139.7	0
4268	2010-07-24T19:00:00	12	0.48	43.61	1204.23	ND	ND	2.8	264.1	26.7	58.3	4	0
4269	2010-07-24T20:00:00	24	ND	27.26	967.80	ND	ND	2.1	282.5	26	60.2	0	0
4270	2010-07-24T21:00:00	13	ND	36.85	1252.90	ND	ND	2.2	291.6	25.7	61.7	0	0
4271	2010-07-24T22:00:00	11	ND	29.56	1033.47	ND	ND	2.3	270.9	25.1	64	0	0
4272	2010-07-24T23:00:00	6	ND	19.48	859.49	ND	ND	0.7	329.7	24.1	70.4	0	0
4273	2010-07-25T00:00:00	28	ND	18.33	673.87	ND	ND	0.8	178.4	23.7	75.4	0	0
4274	2010-07-25T01:00:00	24	ND	22.67	923.89	ND	ND	1.1	231	23.7	68.4	0	0
4275	2010-07-25T02:00:00	23	0.81	45.10	1688.10	ND	ND	1.2	195.6	23.3	74.2	0	0
4276	2010-07-25T03:00:00	13	ND	22.12	911.26	ND	ND	0.4	233.4	23	74.2	0	0
4277	2010-07-25T04:00:00	34	ND	28.42	898.96	ND	ND	0.3	48.3	22.1	82	0	0
4278	2010-07-25T05:00:00	28	ND	30.63	1100.43	ND	ND	0.5	165.7	22	82.1	0	0
4279	2010-07-25T06:00:00	19	6.02	22.77	1054.69	ND	ND	0.6	48.2	22.2	81.1	0.2	0
4280	2010-07-25T07:00:00	12	2.49	16.94	419.89	ND	ND	0.7	51.7	21.8	83.6	51.6	0
4281	2010-07-25T08:00:00	47	1.30	19.90	747.98	ND	ND	0.5	83.6	23.2	77.2	190.5	0
4282	2010-07-25T09:00:00	39	4.35	17.34	1093.14	ND	ND	1	53.6	24.7	69.4	354.2	0
4283	2010-07-25T10:00:00	54	36.10	38.10	1304.68	ND	ND	1	48.6	25.8	63.5	495	0
4284	2010-07-25T11:00:00	29	81.18	53.12	873.00	ND	ND	1.1	87	27.8	57.4	754.3	0
4285	2010-07-25T12:00:00	34	66.89	40.80	844.15	ND	ND	1.3	91.4	29	53.3	788.2	0
4286	2010-07-25T13:00:00	25	37.15	36.06	859.13	ND	ND	0.6	46.6	29.8	50.6	645.5	0
4287	2010-07-25T14:00:00	27	18.53	30.52	954.53	ND	ND	1.8	7.8	30.1	49.5	467.4	0
4288	2010-07-25T15:00:00	19	14.68	13.83	780.69	ND	ND	2.3	279.8	30	47.9	301.6	0
4289	2010-07-25T16:00:00	21	21.77	16.85	710.55	ND	ND	3.3	278.8	29.3	49.2	446.5	0
4290	2010-07-25T17:00:00	11	4.57	2.43	557.83	ND	ND	3.3	271.8	29.2	49.5	278	0
4291	2010-07-25T18:00:00	6	ND	1.15	476.32	ND	ND	3.5	280.1	27.8	51.9	50.8	0
4292	2010-07-25T19:00:00	5	ND	0.78	416.29	ND	ND	3.5	272.5	27	55.2	3.3	0
4293	2010-07-25T20:00:00	4	ND	2.79	530.52	ND	ND	4.6	270.6	26.1	59.5	0	0
4294	2010-07-25T21:00:00	3	ND	6.47	563.42	ND	ND	3.4	278.4	25.9	59.8	0	0
4295	2010-07-25T22:00:00	2	ND	1.34	517.08	ND	ND	3.6	272.2	25.4	61.8	0	0
4296	2010-07-25T23:00:00	2	ND	2.02	481.80	ND	ND	2.9	260.8	25	63.6	0	0
4297	2010-07-26T00:00:00	4	ND	1.04	400.96	ND	ND	1.4	277.5	24.8	63.6	0	0
4298	2010-07-26T01:00:00	3	ND	1.84	469.38	ND	ND	0.2	342.3	23.8	71.7	0	0
4299	2010-07-26T02:00:00	3	ND	1.43	433.58	ND	ND	0.6	32.1	23.5	74.1	0	0
4300	2010-07-26T03:00:00	6	0.18	20.46	661.11	ND	ND	1.2	48.2	22.6	83.2	0	0
4301	2010-07-26T04:00:00	25	2.16	28.92	738.65	ND	ND	1.2	18.9	22.3	82.5	0	0
4302	2010-07-26T05:00:00	24	0.23	15.90	522.20	ND	ND	0.2	21.5	22.5	80.8	0	0
4303	2010-07-26T06:00:00	15	ND	11.95	477.12	ND	ND	0.6	104.8	22.8	80.2	0	0
4304	2010-07-26T07:00:00	18	2.37	15.98	523.09	ND	ND	0.5	64.8	22.5	81.6	19.4	0
4305	2010-07-26T08:00:00	50	3.85	25.57	931.52	ND	ND	0.5	147.7	23.3	77.6	146.6	0
4306	2010-07-26T09:00:00	46	6.93	29.23	1366.89	ND	ND	1.1	75.7	24.3	74.4	305.9	0
4307	2010-07-26T10:00:00	73	12.10	44.29	1920.10	ND	ND	1.3	68.5	25.1	70.8	373.9	0
4308	2010-07-26T11:00:00	52	22.49	84.41	2360.74	ND	ND	0.9	58.3	26.7	62.8	707.3	0
4309	2010-07-26T12:00:00	53	26.62	73.99	1532.35	ND	ND	1.4	71	28.1	57	752.9	0
4310	2010-07-26T13:00:00	40	20.52	48.58	972.32	ND	ND	1.6	66.6	29.2	53.8	824.9	0
4311	2010-07-26T14:00:00	35	17.72	49.60	1173.37	ND	ND	1.6	43.6	29.9	51.7	547.5	0
4312	2010-07-26T15:00:00	18	21.33	48.76	1339.11	ND	ND	1.5	351	29.1	53.2	124.9	0
4313	2010-07-26T16:00:00	36	27.12	42.46	1172.98	ND	ND	4.1	259.3	28.7	52.8	275.8	0
4314	2010-07-26T17:00:00	19	23.16	46.37	1206.22	ND	ND	1	273.2	27.9	55.8	128.4	0
4315	2010-07-26T18:00:00	22	3.17	24.02	1017.95	ND	ND	2.9	271.1	27.5	57.1	162.5	0
4316	2010-07-26T19:00:00	13	2.51	31.87	958.83	ND	ND	3	278	26	60.6	2.5	0
4317	2010-07-26T20:00:00	10	0.58	22.36	873.58	ND	ND	3.1	263.9	25.5	61.6	0	0
4318	2010-07-26T21:00:00	7	0.58	30.34	963.92	ND	ND	1.4	209.8	24.7	64.9	0	0
4319	2010-07-26T22:00:00	5	ND	21.52	652.34	ND	ND	1.9	150.4	22.5	78.3	0	0
4320	2010-07-26T23:00:00	3	ND	18.62	692.96	ND	ND	0.6	220.8	21.3	89.5	0	12.45
4321	2010-07-27T00:00:00	7	ND	24.31	644.89	ND	ND	0.9	141.1	21.2	92.5	0	0.25
4322	2010-07-27T01:00:00	5	ND	20.08	508.95	ND	ND	0.4	216.1	21.2	90.9	0	0
4323	2010-07-27T02:00:00	3	ND	29.66	644.67	ND	ND	1.3	235.7	21.2	86.2	0	0
4324	2010-07-27T03:00:00	3	ND	28.23	452.40	ND	ND	0.8	237.6	21.1	84.6	0	0
4325	2010-07-27T04:00:00	3	ND	12.64	395.72	ND	ND	0.5	240.3	21.1	82.2	0	0
4326	2010-07-27T05:00:00	3	ND	7.84	339.18	ND	ND	0.5	147.3	21.1	85	0.1	0
4327	2010-07-27T06:00:00	15	ND	0.39	305.27	ND	ND	0.6	167.7	20.3	92.8	0.1	0
4328	2010-07-27T07:00:00	8	ND	10.01	383.36	ND	ND	0.2	189.5	20.9	86.5	28.7	0
4329	2010-07-27T08:00:00	31	ND	13.08	598.82	ND	ND	0.2	75.9	21.9	82.2	116.9	0
4330	2010-07-27T09:00:00	42	ND	18.99	940.96	ND	ND	0.5	79.8	22.6	82.9	172.1	0
4331	2010-07-27T10:00:00	83	2.78	43.96	1954.58	ND	ND	0.8	65.9	24.1	76.6	404.4	0
4332	2010-07-27T11:00:00	66	14.60	91.41	2569.83	ND	ND	1.5	69.9	25.1	71.4	400.5	0
4333	2010-07-27T12:00:00	74	35.12	103.79	1971.11	ND	ND	1.2	76	25.9	65.9	658.7	0
4334	2010-07-27T13:00:00	38	84.15	71.75	1424.84	ND	ND	0.8	84.6	28.1	56.5	795.1	0
4335	2010-07-27T14:00:00	20	23.75	48.30	972.32	ND	ND	1.2	78.4	27.8	58.8	425.1	0
4336	2010-07-27T15:00:00	21	12.25	33.76	797.90	ND	ND	1.4	69.9	28.3	57.5	253.1	0
4337	2010-07-27T16:00:00	68	8.74	41.32	961.38	ND	ND	0.9	68.7	27.2	62.7	125.1	0
4338	2010-07-27T17:00:00	51	ND	ND	ND	ND	ND	2.2	290.6	27.2	57.5	130.3	0
4339	2010-07-27T18:00:00	40	ND	ND	1396.42	ND	ND	1.8	270.9	26.3	60.6	36.2	0
4340	2010-07-27T19:00:00	21	ND	ND	1150.60	ND	ND	2.7	271.9	25.3	63.8	2.7	0
4341	2010-07-27T20:00:00	18	ND	ND	1399.05	ND	ND	3.7	273.9	24.9	64.7	0	0
4342	2010-07-27T21:00:00	10	4.35	42.06	1236.84	ND	ND	2.1	235.1	23.8	69.9	0	0
4343	2010-07-27T22:00:00	5	0.91	31.03	798.70	ND	ND	1.1	206.7	23.5	72.5	0	0
4344	2010-07-27T23:00:00	14	0.23	27.85	877.68	ND	ND	0.8	163	23	77.3	0	0
4345	2010-07-28T00:00:00	23	0.05	43.98	1069.64	ND	ND	0.9	154	22.6	77.9	0	0
4346	2010-07-28T01:00:00	22	0.91	47.77	1113.65	ND	ND	1	146.8	22.4	78.8	0	0
4347	2010-07-28T02:00:00	25	ND	43.37	829.00	ND	ND	1.2	170.6	22.2	79.9	0	0
4348	2010-07-28T03:00:00	14	ND	30.34	510.68	ND	ND	1	155.2	21.8	81.7	0	0
4349	2010-07-28T04:00:00	9	ND	19.55	249.33	ND	ND	0.8	140.2	21.3	86.8	0	0
4350	2010-07-28T05:00:00	6	ND	13.39	282.85	ND	ND	0.1	123.4	21.5	85.7	0	0
4351	2010-07-28T06:00:00	3	ND	16.08	249.07	ND	ND	0.6	56.8	21.7	85.4	0	0
4352	2010-07-28T07:00:00	33	ND	19.95	351.21	ND	ND	0.8	356.7	21.6	85.7	13.7	0
4353	2010-07-28T08:00:00	29	0.67	30.89	724.82	ND	ND	0	287.9	22.1	82.8	106.4	0
4354	2010-07-28T09:00:00	28	7.91	36.95	1168.49	ND	ND	0.6	195.1	23.1	79.7	230.7	0
4355	2010-07-28T10:00:00	63	17.65	48.21	1183.84	ND	ND	0.8	165.7	24.7	71.5	386.6	0
4356	2010-07-28T11:00:00	48	34.63	87.89	1968.46	ND	ND	0.7	166.6	25.7	65.9	435.5	0
4357	2010-07-28T12:00:00	49	20.98	85.22	1446.86	ND	ND	1.3	107.4	27.2	61.1	720	0
4358	2010-07-28T13:00:00	43	10.95	66.50	1188.69	ND	ND	1.4	154.9	28.5	56.6	828	0
4359	2010-07-28T14:00:00	27	10.39	94.71	1402.47	ND	ND	0.9	135.3	29.1	53.2	426.2	0
4360	2010-07-28T15:00:00	14	9.59	64.10	952.32	ND	ND	0.9	16.2	29.4	51.3	429.7	0
4361	2010-07-28T16:00:00	30	6.57	54.72	1046.27	ND	ND	3	282.3	29.1	50.6	407.1	0
4362	2010-07-28T17:00:00	17	7.84	58.01	1161.37	ND	ND	3.7	280	27.9	52.7	245.5	0
4363	2010-07-28T18:00:00	13	6.64	37.83	948.54	ND	ND	3.1	280.9	27.3	54	89.5	0
4364	2010-07-28T19:00:00	19	1.93	33.29	958.19	ND	ND	3.4	278	26.1	57.8	3.6	0
4365	2010-07-28T20:00:00	16	2.45	41.80	1023.35	ND	ND	2.9	284.2	25.6	59.3	0	0
4366	2010-07-28T21:00:00	10	2.02	40.52	1044.60	ND	ND	2.8	281.5	25.1	62.2	0	0
4367	2010-07-28T22:00:00	17	0.84	38.57	882.41	ND	ND	2.7	265	24.8	62.7	0	0
4368	2010-07-28T23:00:00	9	ND	26.86	675.45	ND	ND	1.4	248	23.8	70.6	0	0
4369	2010-07-29T00:00:00	16	ND	17.93	490.63	ND	ND	1	232.5	23.5	70.5	0	0
4370	2010-07-29T01:00:00	9	1.54	37.29	911.87	ND	ND	0.8	356.2	23.4	71.2	0	0
4371	2010-07-29T02:00:00	11	0.99	32.05	797.62	ND	ND	1	59.5	21.7	81.9	0	0
4372	2010-07-29T03:00:00	12	2.20	34.40	827.03	ND	ND	0.5	190.1	21.9	83.4	0	0
4373	2010-07-29T04:00:00	20	4.77	26.99	578.18	ND	ND	0.4	144	21.7	84.2	0	0
4374	2010-07-29T05:00:00	11	2.07	26.11	611.78	ND	ND	0.4	50.1	21.5	83.3	0	0
4375	2010-07-29T06:00:00	23	1.32	27.34	747.22	ND	ND	0.7	190.5	21.2	84.5	0.1	0
4376	2010-07-29T07:00:00	12	3.96	29.66	655.98	ND	ND	0.5	251.9	21.3	80.7	20.5	0
4377	2010-07-29T08:00:00	31	3.26	27.99	972.99	ND	ND	0.9	245	22	75.7	119	0
4378	2010-07-29T09:00:00	44	3.94	29.05	1315.53	ND	ND	1	134.1	24.3	69.2	421.7	0
4379	2010-07-29T10:00:00	51	9.36	45.66	2377.27	ND	ND	1.9	144	24.8	69	372.9	0
4380	2010-07-29T11:00:00	53	13.12	76.74	1843.19	ND	ND	1.9	167.6	25.4	67.2	494.7	0
4381	2010-07-29T12:00:00	37	16.03	60.31	1376.57	ND	ND	2.2	151.6	26.7	61.1	660	0
4382	2010-07-29T13:00:00	25	16.84	52.00	1405.61	ND	ND	1.6	169.3	26.9	60.8	486.3	0
4383	2010-07-29T14:00:00	38	20.17	67.36	1406.55	ND	ND	1.1	181.5	27.9	58.4	627.3	0
4384	2010-07-29T15:00:00	21	14.74	59.89	1434.38	ND	ND	1	85	28.6	55.5	401.9	0
4385	2010-07-29T16:00:00	39	10.79	43.65	1205.82	ND	ND	0.8	70.5	28.7	54.5	241.4	0
4386	2010-07-29T17:00:00	24	11.80	76.86	1565.77	ND	ND	1.4	273.7	28.3	52.9	141.1	0
4387	2010-07-29T18:00:00	26	15.45	95.31	1737.44	ND	ND	2.3	245.8	27	58.8	69.3	0
4388	2010-07-29T19:00:00	27	13.24	47.97	1280.16	ND	ND	0.9	217.1	25.1	67	1.1	0
4389	2010-07-29T20:00:00	22	4.46	43.71	1409.57	ND	ND	1.3	359.7	25.1	68.1	0	0
4390	2010-07-29T21:00:00	42	6.37	71.27	2360.74	ND	ND	0.8	85.1	23.9	74.9	0	0
4391	2010-07-29T22:00:00	65	5.69	66.82	2065.90	ND	ND	1.6	200.7	23.6	73.8	0	0
4392	2010-07-29T23:00:00	45	11.63	73.26	2417.28	ND	ND	1.7	185.5	23.2	74.7	0	0
4393	2010-07-30T00:00:00	30	11.77	50.96	1594.16	ND	ND	1.2	154.7	23.3	74.3	0	0
4394	2010-07-30T01:00:00	16	3.49	47.62	1139.07	ND	ND	1.4	178.8	22.9	77.1	0	0
4395	2010-07-30T02:00:00	18	2.26	50.98	1160.28	ND	ND	0.8	172.4	22.6	78.5	0	0
4396	2010-07-30T03:00:00	10	1.61	38.82	875.01	ND	ND	0.5	155	22.5	79.7	0	0
4397	2010-07-30T04:00:00	12	0.03	28.11	602.08	ND	ND	0.5	87.6	22.4	80.3	0	0
4398	2010-07-30T05:00:00	16	0.16	22.16	442.89	ND	ND	0.9	42.5	22	84.7	0	0
4399	2010-07-30T06:00:00	23	0.83	23.03	374.24	ND	ND	0.3	70.3	22.2	83.3	0	0
4400	2010-07-30T07:00:00	25	0.73	30.60	465.29	ND	ND	0.7	152.4	22	85.5	6.7	0
4401	2010-07-30T08:00:00	38	5.40	36.15	771.17	ND	ND	0.6	118.2	21.8	87.6	59.7	1.27
4402	2010-07-30T09:00:00	28	7.57	35.05	1303.30	ND	ND	1.6	160.9	22.3	86.2	247.1	0
4403	2010-07-30T10:00:00	42	5.37	41.83	2100.17	ND	ND	1.3	123.1	23.4	79	410.1	0
4404	2010-07-30T11:00:00	29	7.40	53.18	1845.92	ND	ND	0.7	50.6	25.2	69.1	468.6	0
4405	2010-07-30T12:00:00	30	21.89	61.80	1570.54	ND	ND	1.7	129.9	26.2	64.6	432.6	0
4406	2010-07-30T13:00:00	16	17.94	47.39	874.17	ND	ND	0	44.7	26.9	60.7	303.5	0
4407	2010-07-30T14:00:00	15	14.48	78.76	1152.91	ND	ND	1	123.9	28.1	56.1	465.5	0
4408	2010-07-30T15:00:00	25	9.11	48.58	949.17	ND	ND	1.3	279.3	27.6	56.2	141	0
4409	2010-07-30T16:00:00	29	8.48	77.80	1224.94	ND	ND	1.3	284	27.9	54.6	242.7	0
4410	2010-07-30T17:00:00	ND	8.94	54.52	1110.49	ND	ND	2.5	289	27.4	55.7	191.6	0
4411	2010-07-30T18:00:00	4	12.78	46.71	1085.54	ND	ND	3	282.1	26.3	57.3	85.3	0
4412	2010-07-30T19:00:00	19	4.34	35.34	1127.59	ND	ND	2.4	276.6	25.5	58.6	2.9	0
4413	2010-07-30T20:00:00	12	3.28	32.51	1101.63	ND	ND	3.3	274.7	24.6	62.5	0	0
4414	2010-07-30T21:00:00	7	3.64	41.04	1430.09	ND	ND	3.7	254.6	23.7	66.3	0	0
4415	2010-07-30T22:00:00	7	1.72	31.99	969.52	ND	ND	1.5	212.2	23	76.1	0	0
4416	2010-07-30T23:00:00	9	0.21	20.50	796.54	ND	ND	1.1	167	23	75.5	0	0
4417	2010-07-31T00:00:00	9	1.67	41.25	1172.06	ND	ND	1.1	167.7	22.5	79.5	0	0
4418	2010-07-31T01:00:00	22	4.52	59.93	1647.20	ND	ND	0.9	137.4	22.1	81.5	0	0
4419	2010-07-31T02:00:00	12	2.39	48.16	1157.15	ND	ND	0.4	85	22.2	80.5	0	0
4420	2010-07-31T03:00:00	11	1.64	41.87	1089.45	ND	ND	0.4	66.2	22.3	79.9	0	0
4421	2010-07-31T04:00:00	6	0.86	33.28	919.53	ND	ND	0.4	74.1	20.3	93.6	0	32.26
4422	2010-07-31T05:00:00	21	8.02	37.39	924.58	ND	ND	1.3	334.8	19.9	94.1	0	5.33
4423	2010-07-31T06:00:00	12	5.61	34.77	934.58	ND	ND	0.1	278.2	20.8	88.5	0	0
4424	2010-07-31T07:00:00	27	14.31	36.64	734.15	ND	ND	0.3	68.5	21.1	88.4	7.3	0.25
4425	2010-07-31T08:00:00	28	20.33	44.54	1243.68	ND	ND	0.8	58.6	21.3	88.8	18.7	0
4426	2010-07-31T09:00:00	48	39.98	54.37	1934.67	ND	ND	1	53.9	21	90	26.6	0
4427	2010-07-31T10:00:00	26	55.04	57.31	2452.60	ND	ND	0.4	11.7	21.4	87.8	129.1	0.25
4428	2010-07-31T11:00:00	45	33.34	54.61	2523.84	ND	ND	0.5	217.1	22.8	79.9	345	0
4429	2010-07-31T12:00:00	28	31.42	60.57	1785.33	ND	ND	1.6	205.7	24.3	72.3	618.5	0
4430	2010-07-31T13:00:00	20	29.88	92.41	1988.67	ND	ND	1.9	230.4	25.6	67.2	655.9	0
4431	2010-07-31T14:00:00	20	23.10	58.28	1159.39	ND	ND	1.3	155.8	26.4	62.6	343.1	0
4432	2010-07-31T15:00:00	24	16.95	40.87	1104.95	ND	ND	0.8	265.5	26.7	60.4	377.3	0
4433	2010-07-31T16:00:00	25	13.41	65.25	1601.48	ND	ND	2	293.9	26.1	61.1	188.5	10.16
4434	2010-07-31T17:00:00	25	9.10	43.99	1023.35	ND	ND	0.8	190.1	21.8	86.4	18.3	10.92
4435	2010-07-31T18:00:00	14	3.81	29.81	1019.97	ND	ND	1.8	21.4	21.5	89.3	10	3.56
4436	2010-07-31T19:00:00	27	5.28	63.25	1981.27	ND	ND	0.8	358.4	21.5	90.2	0.8	2.79
4437	2010-07-31T20:00:00	20	7.15	77.73	2264.30	ND	ND	0.9	21.3	21.3	90.1	0	2.29
4438	2010-07-31T21:00:00	45	7.37	74.29	2579.55	ND	ND	0.8	70.2	20.9	91.1	0	0.25
4439	2010-07-31T22:00:00	24	10.78	69.40	2768.12	ND	ND	1	197.2	21	89.7	0	0
4440	2010-07-31T23:00:00	43	13.11	65.04	1887.48	ND	ND	0.7	208.3	20.8	92.6	0	0.76
4441	2010-08-01T00:00:00	22	30.43	48.93	1434.42	ND	ND	0.6	198.6	20.7	93.2	0	0
4442	2010-08-01T01:00:00	20	20.87	47.80	1603.29	ND	ND	0.8	187.8	20.8	92.6	0	0.25
4443	2010-08-01T02:00:00	11	11.75	49.58	1558.66	ND	ND	1	185.9	20.7	91.7	0	2.03
4444	2010-08-01T03:00:00	8	7.00	39.93	869.39	ND	ND	0.7	165.8	20.1	96.9	0	17.78
4445	2010-08-01T04:00:00	5	5.77	35.86	721.13	ND	ND	0.3	232.6	19.7	98.8	0	32.26
4446	2010-08-01T05:00:00	4	3.60	35.43	765.16	ND	ND	1.2	253	19.9	95.1	0	1.27
4447	2010-08-01T06:00:00	3	2.01	33.12	867.02	ND	ND	0.7	211.4	20	93.1	0	0.25
4448	2010-08-01T07:00:00	2	1.31	16.87	608.25	ND	ND	0.6	175.2	20	95.4	2.8	2.29
4449	2010-08-01T08:00:00	3	0.15	20.56	720.89	ND	ND	0.9	249.1	19.9	95.3	48.3	1.78
4450	2010-08-01T09:00:00	2	0.64	38.41	776.94	ND	ND	0.9	218.4	21.4	87.4	372.1	0
4451	2010-08-01T10:00:00	2	0.49	34.61	735.65	ND	ND	1	190.9	22.9	80.7	400.6	0
4452	2010-08-01T11:00:00	3	2.99	21.17	625.64	ND	ND	0.6	171.5	24.5	74.1	596	0
4453	2010-08-01T12:00:00	1	3.37	23.90	526.10	ND	ND	0.6	102	26.5	62.4	882.4	0
4454	2010-08-01T13:00:00	1	4.21	32.10	748.39	ND	ND	1	83.4	27.3	59.2	661.5	0
4455	2010-08-01T14:00:00	5	3.54	25.00	715.76	ND	ND	1.5	75.4	28.4	55.9	642.2	0
4456	2010-08-01T15:00:00	4	3.50	36.44	950.12	ND	ND	1.4	75.6	28.4	54.4	475.2	0
4457	2010-08-01T16:00:00	3	3.07	40.21	1147.09	ND	ND	1.3	15.5	28.1	55.4	156.9	0
4458	2010-08-01T17:00:00	17	4.92	44.59	1007.05	ND	ND	1.9	265.1	26.5	62.5	106.5	0
4459	2010-08-01T18:00:00	9	15.30	36.48	564.17	ND	ND	2.2	264.8	26	63.8	95.3	0
4460	2010-08-01T19:00:00	6	4.63	20.81	528.75	ND	ND	2	262.7	25.5	63.9	11.1	0
4461	2010-08-01T20:00:00	4	1.57	25.94	826.22	ND	ND	1.5	268.8	25	65.4	0	0
4462	2010-08-01T21:00:00	15	0.89	25.78	824.84	ND	ND	2.1	262.9	24.5	66.6	0	0
4463	2010-08-01T22:00:00	9	0.84	34.24	995.01	ND	ND	2.2	268.5	24.4	67	0	0
4464	2010-08-01T23:00:00	14	0.73	30.64	800.31	ND	ND	0.7	248.5	23.8	71.6	0	0
4465	2010-08-02T00:00:00	8	0.08	25.16	730.24	ND	ND	1.7	250.3	23.4	71.1	0	0
4466	2010-08-02T01:00:00	5	0.86	30.07	945.75	ND	ND	0.9	242.6	22.9	73.2	0	0
4467	2010-08-02T02:00:00	4	ND	16.40	523.27	ND	ND	0.5	168.8	22.8	77.2	0	0
4468	2010-08-02T03:00:00	2	ND	16.83	579.95	ND	ND	0.5	137	22.2	84.5	0	0
4469	2010-08-02T04:00:00	2	ND	23.49	635.51	ND	ND	0.3	141.4	22.1	85.8	0	0
4470	2010-08-02T05:00:00	27	ND	20.14	601.26	ND	ND	0.9	153.7	21.8	87.8	0	0
4471	2010-08-02T06:00:00	22	ND	22.58	702.65	ND	ND	1	180.3	21.6	87.4	0.1	0
4472	2010-08-02T07:00:00	42	ND	20.98	486.99	ND	ND	0.4	98.1	21.7	86.2	19.7	0
4473	2010-08-02T08:00:00	46	0.78	29.47	996.97	ND	ND	1	139.6	22.3	83.2	123.7	0
4474	2010-08-02T09:00:00	43	4.73	41.90	1521.21	ND	ND	2	156.4	22.7	81.9	184.8	0
4475	2010-08-02T10:00:00	23	9.26	60.31	2057.55	ND	ND	1.7	144.4	24	76.2	595.4	0
4476	2010-08-02T11:00:00	35	9.11	55.60	1678.39	ND	ND	1.3	148.2	25.8	67.4	691.6	0
4477	2010-08-02T12:00:00	19	6.94	49.86	1206.12	ND	ND	1.4	165.6	27.2	61.2	788.4	0
4478	2010-08-02T13:00:00	11	5.38	45.56	969.41	ND	ND	1	155.6	28.3	56.3	820.4	0
4479	2010-08-02T14:00:00	5	4.42	40.52	949.80	ND	ND	1.1	127.6	29.5	52.5	675.5	0
4480	2010-08-02T15:00:00	3	4.02	40.72	976.84	ND	ND	1.1	105	29.6	51.5	394.7	0
4481	2010-08-02T16:00:00	3	4.04	52.75	1035.33	ND	ND	0.8	124	30.2	49.6	368.5	0
4482	2010-08-02T17:00:00	22	6.13	73.97	1422.03	ND	ND	1.4	75.3	30.1	50.5	285.8	0
4483	2010-08-02T18:00:00	36	6.98	85.02	1677.91	ND	ND	1.3	101	29.7	52.6	131.2	0
4484	2010-08-02T19:00:00	44	8.78	104.23	1873.52	ND	ND	1.2	269.8	28.6	54.2	4	0
4485	2010-08-02T20:00:00	25	15.54	127.31	2434.84	ND	ND	2.8	266	26.7	62.8	0	0
4486	2010-08-02T21:00:00	27	7.27	70.08	1774.30	ND	ND	3.2	271.3	26.5	62.3	0	0
4487	2010-08-02T22:00:00	15	2.84	48.82	1588.90	ND	ND	2.5	268.6	26.3	62.8	0	0
4488	2010-08-02T23:00:00	9	1.76	35.49	1047.05	ND	ND	0.5	315	25.4	70.5	0	0
4489	2010-08-03T00:00:00	6	ND	20.56	757.12	ND	ND	0.9	275.2	25	71.8	0	0
4490	2010-08-03T01:00:00	5	0.21	33.81	1019.59	ND	ND	1.7	289.8	24.9	67.6	0	0
4491	2010-08-03T02:00:00	4	1.20	31.29	1076.51	ND	ND	1	217.2	24.4	71.3	0	0
4492	2010-08-03T03:00:00	3	0.55	5.32	663.11	ND	ND	1.5	176.7	23.5	82.7	0	0
4493	2010-08-03T04:00:00	3	ND	10.81	706.70	ND	ND	0.3	173.7	23	83	0	0
4494	2010-08-03T05:00:00	13	ND	23.20	819.30	ND	ND	0.5	175.2	22.8	82.9	0	0
4495	2010-08-03T06:00:00	12	0.21	18.96	761.89	ND	ND	0.6	286	22.9	78.6	0	0
4496	2010-08-03T07:00:00	37	0.26	25.98	830.40	ND	ND	0.9	31.8	22.5	85.7	15.9	0
4497	2010-08-03T08:00:00	41	0.70	23.83	863.36	ND	ND	0.9	48.3	23	82.2	56	0
4498	2010-08-03T09:00:00	84	4.84	37.58	1797.91	ND	ND	1.1	136.7	23.2	82.3	114.2	0
4499	2010-08-03T10:00:00	70	21.20	65.17	3393.29	ND	ND	1	195.8	22.5	86.9	80.5	1.78
4500	2010-08-03T11:00:00	49	19.07	66.82	2669.59	ND	ND	0.3	14.7	23.6	76.6	214.4	0
4501	2010-08-03T12:00:00	39	11.47	52.60	2006.80	ND	ND	0.6	73.7	24	76	210.4	1.02
4502	2010-08-03T13:00:00	33	11.28	80.92	2454.79	ND	ND	0.9	82.5	26	64.4	400.1	0
4503	2010-08-03T14:00:00	21	13.64	116.65	2655.23	ND	ND	1.6	57.8	26.9	63.3	427.6	0
4504	2010-08-03T15:00:00	19	11.23	123.45	2398.06	ND	ND	2.6	31.7	27.8	60.9	490.7	0
4505	2010-08-03T16:00:00	15	17.19	76.73	1653.61	ND	ND	2.9	46.1	26.7	62.6	267.8	0
4506	2010-08-03T17:00:00	30	ND	ND	ND	ND	ND	2.3	53.1	26.5	62.6	135.1	0
4507	2010-08-03T18:00:00	34	ND	ND	1174.40	ND	ND	2	141.3	24.2	73.1	28.5	0.25
4508	2010-08-03T19:00:00	35	19.57	61.37	1496.72	ND	ND	1.8	198.5	21.3	86.1	0.1	3.3
4509	2010-08-03T20:00:00	18	13.38	63.61	1866.78	ND	ND	1.2	206.8	20.9	88.2	0	1.78
4510	2010-08-03T21:00:00	20	8.68	46.81	1299.32	ND	ND	1.1	174.5	20.9	90	0	1.02
4511	2010-08-03T22:00:00	11	7.13	51.14	982.97	ND	ND	1.2	209.3	20.8	90.5	0	0.51
4512	2010-08-03T23:00:00	8	6.69	47.28	1242.41	ND	ND	1.2	255	21.3	86.7	0	0.25
4513	2010-08-04T00:00:00	6	6.37	44.18	1244.52	ND	ND	0.7	84.7	21	88.6	0	0
4514	2010-08-04T01:00:00	5	5.56	29.62	892.88	ND	ND	0.6	157.8	20.1	93.4	0	0
4515	2010-08-04T02:00:00	10	6.13	33.46	698.60	ND	ND	0.5	104.3	20	93.4	0	0
4516	2010-08-04T03:00:00	12	4.84	18.43	506.87	ND	ND	0.4	4	20.3	92.2	0	0
4517	2010-08-04T04:00:00	7	4.33	7.12	22.55	ND	ND	0.3	47.1	20.6	91.4	0	0
4518	2010-08-04T05:00:00	33	4.47	19.63	146.73	ND	ND	0.3	21.6	20.3	93.5	0	0
4519	2010-08-04T06:00:00	18	8.64	27.25	586.32	ND	ND	0.3	187.8	20.6	89.8	0.1	0
4520	2010-08-04T07:00:00	41	9.32	21.36	632.07	ND	ND	0.6	81.7	20.4	92.1	28.6	0
4521	2010-08-04T08:00:00	71	12.82	20.56	1026.41	ND	ND	1.5	143.5	20.4	91.7	96.1	0
4522	2010-08-04T09:00:00	67	16.28	36.14	1985.15	ND	ND	1.2	161.6	21.2	87.7	202.9	0
4523	2010-08-04T10:00:00	34	22.56	38.45	2329.86	ND	ND	0.8	142.5	23	77.2	612.8	0
4524	2010-08-04T11:00:00	40	26.96	41.29	1228.95	ND	ND	1.4	102.2	25	67.1	797.8	0
4525	2010-08-04T12:00:00	22	19.76	41.21	607.17	ND	ND	1.6	94.8	26.2	62.2	856	0
4526	2010-08-04T13:00:00	46	14.57	52.38	759.15	ND	ND	0.9	91.8	27.5	58	852	0
4527	2010-08-04T14:00:00	24	12.15	61.12	820.20	ND	ND	1.4	62.7	28.5	54.4	824.7	0
4528	2010-08-04T15:00:00	24	11.13	55.43	834.52	ND	ND	1.4	69.4	29.6	51.4	740.7	0
4529	2010-08-04T16:00:00	22	10.83	49.40	791.04	ND	ND	1.9	48.8	30	51	476.7	0
4530	2010-08-04T17:00:00	33	15.43	52.72	931.86	ND	ND	1.1	323.3	29.8	51.6	257.8	0
4531	2010-08-04T18:00:00	35	27.34	64.32	1001.09	ND	ND	3.3	274.7	28.5	55.9	119.8	0
4532	2010-08-04T19:00:00	47	23.94	43.88	695.44	ND	ND	3.8	263.5	26.8	61.1	2.7	0
4533	2010-08-04T20:00:00	29	11.31	37.06	760.67	ND	ND	3.7	266.2	26.3	62.2	0	0
4534	2010-08-04T21:00:00	22	7.97	38.36	828.44	ND	ND	2.6	277.1	26.1	63	0	0
4535	2010-08-04T22:00:00	12	7.39	35.26	804.89	ND	ND	1.9	303	25.5	67.2	0	0
4536	2010-08-04T23:00:00	32	6.22	23.47	401.64	ND	ND	0.3	99.7	24.6	74.4	0	0
4537	2010-08-05T00:00:00	31	5.10	16.50	457.63	ND	ND	1.9	205.5	24.1	78.2	0	0
4538	2010-08-05T01:00:00	50	10.95	49.97	1804.59	ND	ND	1.2	176.4	23.2	82.5	0	0
4539	2010-08-05T02:00:00	39	7.79	47.91	774.31	ND	ND	0.4	180.4	23	83.4	0	0
4540	2010-08-05T03:00:00	39	5.88	34.70	512.06	ND	ND	0.9	170.8	22.8	84.3	0	0
4541	2010-08-05T04:00:00	31	5.62	25.31	386.63	ND	ND	1.3	168.5	22.2	85.8	0	0
4542	2010-08-05T05:00:00	37	5.22	28.32	544.72	ND	ND	0.5	154.1	22	85.5	0	0
4543	2010-08-05T06:00:00	30	5.89	15.49	283.52	ND	ND	0.7	198	22.3	83.7	0.1	0
4544	2010-08-05T07:00:00	25	5.32	16.61	295.16	ND	ND	0.5	217.6	22.6	79.8	15.3	0
4545	2010-08-05T08:00:00	40	6.13	23.75	363.64	ND	ND	0.8	56	22.9	81	167.7	0
4546	2010-08-05T09:00:00	66	7.57	28.45	989.65	ND	ND	0.8	89.6	24.3	75.2	364	0
4547	2010-08-05T10:00:00	68	13.44	59.26	2605.85	ND	ND	1	89.3	25.8	68.4	467.3	0
4548	2010-08-05T11:00:00	67	22.15	87.34	1849.38	ND	ND	0.8	139.4	27.2	62.5	663.8	0
4549	2010-08-05T12:00:00	58	22.41	76.06	1200.23	ND	ND	1.9	171.1	28.2	59.1	513.3	0
4550	2010-08-05T13:00:00	73	24.13	61.45	1053.70	ND	ND	1.4	175.5	27.6	60.9	229.5	0
4551	2010-08-05T14:00:00	53	18.69	51.85	1120.93	ND	ND	0.6	229.6	28.8	53.9	659	0
4552	2010-08-05T15:00:00	48	16.77	65.96	1438.67	ND	ND	1.2	168.3	30.2	50.1	627.3	0
4553	2010-08-05T16:00:00	42	12.34	43.71	920.82	ND	ND	1.1	44.8	30.6	49.8	434.8	0
4554	2010-08-05T17:00:00	72	13.08	56.72	1155.46	ND	ND	1.6	293.2	30	50.1	221.9	0
4555	2010-08-05T18:00:00	37	17.64	69.96	1269.66	ND	ND	3.6	277	28.9	51.8	113.7	0
4556	2010-08-05T19:00:00	30	18.74	51.12	1183.81	ND	ND	4.2	275.1	27	57.4	2.4	0
4557	2010-08-05T20:00:00	16	8.52	31.38	945.70	ND	ND	4.5	272.1	26.4	59.8	0	0
4558	2010-08-05T21:00:00	30	7.00	23.80	863.24	ND	ND	4.7	268.4	25.7	62.6	0	0
4559	2010-08-05T22:00:00	16	6.20	21.67	654.53	ND	ND	1.2	306.1	25.4	65.2	0	0
4560	2010-08-05T23:00:00	15	5.01	8.24	401.50	ND	ND	1.2	228.5	25.3	65.4	0	7.62
4561	2010-08-06T00:00:00	8	5.38	22.04	825.67	ND	ND	1.3	237	22.6	82.9	0	10.67
4562	2010-08-06T01:00:00	5	6.21	19.50	704.56	ND	ND	1.3	216.5	23.5	77.9	0	0
4563	2010-08-06T02:00:00	3	3.78	14.26	467.33	ND	ND	0.1	353	23.3	77.4	0	0
4564	2010-08-06T03:00:00	5	3.00	24.53	672.05	ND	ND	0.2	221.1	22.8	82.2	0	0
4565	2010-08-06T04:00:00	5	4.45	22.15	579.95	ND	ND	0.3	192.3	22.6	82.5	0	0
4566	2010-08-06T05:00:00	18	4.83	23.47	590.92	ND	ND	0.1	65.4	22.4	82.5	0	0
4567	2010-08-06T06:00:00	37	5.27	20.05	567.81	ND	ND	0.4	79.5	21.9	88	0.2	0
4568	2010-08-06T07:00:00	47	5.73	17.80	476.15	ND	ND	1	250.3	21.9	82.7	37.7	0
4569	2010-08-06T08:00:00	32	7.16	23.56	1201.71	ND	ND	0.8	231.4	23.3	73.2	158.8	0
4570	2010-08-06T09:00:00	37	8.23	22.88	1355.50	ND	ND	1.2	153	25	61.4	340.6	0
4571	2010-08-06T10:00:00	19	15.38	47.14	1626.76	ND	ND	1.6	154.6	25.9	54	387.9	0
4572	2010-08-06T11:00:00	37	18.06	76.91	1723.60	ND	ND	1.8	165.1	27.4	43	726.6	0
4573	2010-08-06T12:00:00	20	13.15	59.50	1166.38	ND	ND	1.5	166.7	28.3	41	783.4	0
4574	2010-08-06T13:00:00	11	11.31	51.49	1065.63	ND	ND	2	178.3	29.8	38.5	868.7	0
4575	2010-08-06T14:00:00	9	6.82	37.62	768.28	ND	ND	2	146.5	29.9	40.1	613.1	0
4576	2010-08-06T15:00:00	11	5.35	31.59	687.02	ND	ND	1.2	238.6	29.8	42.6	424.6	0
4577	2010-08-06T16:00:00	7	6.98	48.34	675.15	ND	ND	3.5	279.1	28.9	49.1	408.3	0
4578	2010-08-06T17:00:00	6	6.66	33.18	777.60	ND	ND	3.5	277.5	28.6	48.5	290.6	0
4579	2010-08-06T18:00:00	5	6.50	28.67	684.07	ND	ND	3.5	282.3	27.3	51.6	60.7	0
4580	2010-08-06T19:00:00	27	6.07	27.20	704.21	ND	ND	4.5	271.2	26.3	52.5	2	0
4581	2010-08-06T20:00:00	14	7.26	32.31	955.00	ND	ND	2.3	272.1	26.2	53.3	0	0
4582	2010-08-06T21:00:00	14	5.76	24.77	690.13	ND	ND	0.6	286.5	25.6	57.9	0	0
4583	2010-08-06T22:00:00	9	7.09	37.76	746.14	ND	ND	1.6	278.4	25.2	58.9	0	0
4584	2010-08-06T23:00:00	5	14.19	38.52	871.25	ND	ND	1.5	240.3	25	60.2	0	0
4585	2010-08-07T00:00:00	4	5.16	26.99	412.42	ND	ND	1.9	183.6	24.1	70.6	0	0
4586	2010-08-07T01:00:00	20	5.04	23.51	582.50	ND	ND	0.9	178	23.5	72.4	0	0
4587	2010-08-07T02:00:00	12	5.58	29.59	649.71	ND	ND	1	170.3	23.3	73.9	0	0
4588	2010-08-07T03:00:00	22	6.41	27.81	683.44	ND	ND	0.8	149.7	22.9	76.4	0	0
4589	2010-08-07T04:00:00	13	5.72	23.96	398.14	ND	ND	0.7	152.6	22.5	77.8	0	0
4590	2010-08-07T05:00:00	37	5.79	23.12	420.32	ND	ND	0.6	198.6	22	79.4	0	0
4591	2010-08-07T06:00:00	19	5.60	19.07	340.22	ND	ND	0.6	227.5	22	76.4	0.3	0
4592	2010-08-07T07:00:00	21	5.40	16.09	340.22	ND	ND	0.3	257	22.3	73.9	18.9	0
4593	2010-08-07T08:00:00	ND	5.66	14.46	102.17	ND	ND	ND	ND	ND	ND	ND	ND
4594	2010-08-07T09:00:00	ND	ND	ND	ND	ND	ND	ND	ND	ND	ND	ND	ND
4595	2010-08-07T10:00:00	ND	ND	ND	ND	ND	ND	ND	ND	ND	ND	ND	ND
4596	2010-08-07T11:00:00	ND	ND	ND	ND	ND	ND	0.8	91.5	26.2	61	562.4	0
4597	2010-08-07T12:00:00	4	ND	ND	ND	ND	ND	0.7	121.5	27.9	55.2	642.8	0
4598	2010-08-07T13:00:00	24	13.76	40.96	578.38	ND	ND	1.2	120.3	27.8	57.1	331.6	0
4599	2010-08-07T14:00:00	21	13.49	33.27	936.66	ND	ND	1.9	271.4	28.2	52.4	620.5	0
4600	2010-08-07T15:00:00	12	15.28	54.08	961.06	ND	ND	1.8	262.2	29.4	47.3	575.3	0
4601	2010-08-07T16:00:00	8	11.06	24.98	616.14	ND	ND	3.6	277.4	27.8	52.2	135.4	0
4602	2010-08-07T17:00:00	13	6.06	3.16	254.40	ND	ND	2.8	287.6	26	60.1	102.2	0
4603	2010-08-07T18:00:00	8	6.13	10.09	275.87	ND	ND	3.2	281.8	25.3	59.5	47.8	0
4604	2010-08-07T19:00:00	4	6.09	15.29	504.57	ND	ND	3.2	285.3	24.8	58.9	3.1	0
4605	2010-08-07T20:00:00	4	5.58	12.05	263.31	ND	ND	2.2	299.4	24.5	59.7	0	0
4606	2010-08-07T21:00:00	3	5.13	13.01	365.98	ND	ND	1.6	296.1	24.3	61	0	0
4607	2010-08-07T22:00:00	3	5.07	12.10	262.87	ND	ND	1.8	224.5	23.9	64.4	0	0
4608	2010-08-07T23:00:00	3	4.96	20.02	467.97	ND	ND	2.2	193.6	23.3	73.7	0	0
4609	2010-08-08T00:00:00	2	7.27	22.40	877.09	ND	ND	1.3	187.2	22.8	76.1	0	0
4610	2010-08-08T01:00:00	13	5.80	22.43	579.95	ND	ND	0.5	129.3	22.4	76.6	0	0
4611	2010-08-08T02:00:00	7	6.21	23.02	533.74	ND	ND	0.5	139.7	22.2	76.8	0	0
4612	2010-08-08T03:00:00	3	7.22	25.30	533.38	ND	ND	0.8	75.2	21.9	77.9	0	0
4613	2010-08-08T04:00:00	6	6.46	19.35	430.80	ND	ND	0.2	70.2	21.8	79.4	0	0
4614	2010-08-08T05:00:00	17	6.87	19.60	453.32	ND	ND	0.7	161.6	21.4	84.4	0	0
4615	2010-08-08T06:00:00	20	8.93	25.84	554.57	ND	ND	0.3	83.1	21.3	84.6	0.4	0
4616	2010-08-08T07:00:00	16	8.00	23.96	520.44	ND	ND	0.5	118.1	21.3	84.1	27.2	0
4617	2010-08-08T08:00:00	9	7.04	22.30	588.32	ND	ND	0.5	43.3	21.9	81.5	142.5	0
4618	2010-08-08T09:00:00	19	8.56	23.65	793.58	ND	ND	0.3	63.1	23.2	75.9	269.7	0
4619	2010-08-08T10:00:00	19	11.36	29.99	842.63	ND	ND	0.4	124.6	24.7	68.5	428.4	0
4620	2010-08-08T11:00:00	22	20.34	48.15	961.34	ND	ND	1.3	77.6	26.1	62.4	697.2	0
4621	2010-08-08T12:00:00	12	28.03	43.31	770.39	ND	ND	1	91.8	27.4	58.1	740.8	0
4622	2010-08-08T13:00:00	15	19.86	33.24	681.35	ND	ND	0.3	22.8	28.8	52.1	810.5	0
4623	2010-08-08T14:00:00	8	18.42	26.82	603.31	ND	ND	1	24	30	48.3	817.6	0
4624	2010-08-08T15:00:00	7	16.46	22.02	535.82	ND	ND	1	350.2	30	48.4	393	0
4625	2010-08-08T16:00:00	8	19.80	14.19	535.82	ND	ND	3.8	281.9	28.2	53.3	273.7	0
4626	2010-08-08T17:00:00	6	22.17	13.61	486.32	ND	ND	4.8	275.7	27.7	54.1	356.7	0
4627	2010-08-08T18:00:00	5	8.86	4.69	323.68	ND	ND	4.1	269.6	27.3	54.1	146.5	0
4628	2010-08-08T19:00:00	3	6.39	0.11	242.43	ND	ND	2.7	271	26.4	57.2	1.2	0
4629	2010-08-08T20:00:00	3	5.71	1.14	218.69	ND	ND	2.1	278	25.7	60.5	0	0
4630	2010-08-08T21:00:00	3	6.38	13.50	344.49	ND	ND	1.7	294.1	25.3	62.1	0	0
4631	2010-08-08T22:00:00	3	5.93	10.05	332.56	ND	ND	1.2	204.9	25.3	63.5	0	0
4632	2010-08-08T23:00:00	3	5.69	10.50	172.01	ND	ND	2.1	194.6	24.5	74	0	0
4633	2010-08-09T00:00:00	5	6.51	22.06	594.72	ND	ND	1.5	208.6	24.3	71.6	0	0
4634	2010-08-09T01:00:00	10	6.40	27.58	594.32	ND	ND	1.3	220.3	24	72.2	0	0
4635	2010-08-09T02:00:00	6	6.48	17.12	388.20	ND	ND	1.4	178.9	23.5	74.5	0	0
4636	2010-08-09T03:00:00	23	6.05	9.71	250.76	ND	ND	0.6	127.7	22.8	78.4	0	0
4637	2010-08-09T04:00:00	20	8.27	12.25	307.03	ND	ND	0.5	66.1	22.5	80.2	0	0
4638	2010-08-09T05:00:00	25	8.91	9.13	306.72	ND	ND	0.7	142	22.1	82	0	0
4639	2010-08-09T06:00:00	15	8.38	11.51	204.20	ND	ND	0.6	145.2	21.8	82.9	0.2	0
4640	2010-08-09T07:00:00	27	7.67	10.64	158.66	ND	ND	0.7	143.7	21.9	80.6	30.7	0
4641	2010-08-09T08:00:00	20	7.34	14.09	419.47	ND	ND	0.6	153.1	22.8	76.6	146.7	0
4642	2010-08-09T09:00:00	50	9.13	23.22	1444.18	ND	ND	1	128.3	24	71.9	357.7	0
4643	2010-08-09T10:00:00	35	13.32	42.84	1838.24	ND	ND	0.9	104.9	25.9	64.2	557.1	0
4644	2010-08-09T11:00:00	36	15.61	63.06	1700.62	ND	ND	0.8	97.5	27.4	57.9	732.3	0
4645	2010-08-09T12:00:00	37	31.17	68.67	1085.54	ND	ND	1.1	106.7	28.8	51.2	859.7	0
4646	2010-08-09T13:00:00	43	32.30	50.74	800.55	ND	ND	1.4	138.7	30.4	44.8	882.6	0
4647	2010-08-09T14:00:00	25	26.36	53.88	723.15	ND	ND	1.7	135.1	31.7	38.9	846.5	0
4648	2010-08-09T15:00:00	50	19.96	64.59	1065.94	ND	ND	1.1	95.6	32.3	36.2	740	0
4649	2010-08-09T16:00:00	27	15.46	55.82	962.41	ND	ND	1	131.7	33.2	31.2	634.2	0
4650	2010-08-09T17:00:00	14	13.33	49.29	871.08	ND	ND	3	282.6	31.5	43.3	435.3	0
4651	2010-08-09T18:00:00	23	11.38	46.63	807.71	ND	ND	3.9	270.5	29.6	48.5	126.4	0
4652	2010-08-09T19:00:00	27	9.58	36.43	919.00	ND	ND	3.7	271.7	27.8	53.4	2.5	0
4653	2010-08-09T20:00:00	14	9.87	39.32	890.41	ND	ND	4.2	266.8	26.6	57.9	0.4	0
4654	2010-08-09T21:00:00	22	9.25	47.68	1082.65	ND	ND	3.9	267.9	26.1	59	0.4	0
4655	2010-08-09T22:00:00	12	7.63	30.98	609.41	ND	ND	2.3	276.7	25.8	59.3	0.3	0
4656	2010-08-09T23:00:00	16	6.54	21.17	356.09	ND	ND	1	282.4	25	64.8	0.2	0
4657	2010-08-10T00:00:00	37	6.00	16.56	366.59	ND	ND	0.8	94.5	24.5	69	0.1	0
4658	2010-08-10T01:00:00	57	6.64	24.16	651.90	ND	ND	0.3	157.9	24.1	69.7	0.1	0
4659	2010-08-10T02:00:00	35	17.08	43.81	959.40	ND	ND	1.6	142.7	22.9	76	0	0
4660	2010-08-10T03:00:00	41	9.47	33.14	693.90	ND	ND	0.6	150.6	22.3	73.8	0	0
4661	2010-08-10T04:00:00	32	7.58	19.84	465.44	ND	ND	0.2	144	22.4	72.9	0	0
4662	2010-08-10T05:00:00	23	8.91	8.51	295.26	ND	ND	0.6	241.5	22.3	73.9	0	0
4663	2010-08-10T06:00:00	23	10.65	15.30	351.92	ND	ND	0.7	167.4	21.6	76.8	0.2	0
4664	2010-08-10T07:00:00	50	10.44	11.97	373.74	ND	ND	0.4	147.7	21.6	77.4	48.8	0
4665	2010-08-10T08:00:00	51	8.60	17.37	600.24	ND	ND	0.5	139.4	23.3	69.1	237.5	0
4666	2010-08-10T09:00:00	71	11.36	31.39	1731.39	ND	ND	1	152.6	25	62.1	377.6	0
4667	2010-08-10T10:00:00	47	15.59	72.47	2566.16	ND	ND	1.2	139.5	26.6	56.3	605.4	0
4668	2010-08-10T11:00:00	54	17.15	104.11	2038.61	ND	ND	1.1	136	27.9	52.7	748.3	0
4669	2010-08-10T12:00:00	35	20.69	81.13	1364.97	ND	ND	0.9	116.9	29.3	48.2	839.4	0
4670	2010-08-10T13:00:00	46	18.42	50.54	976.20	ND	ND	1.2	83.3	30.6	44.3	875.9	0
4671	2010-08-10T14:00:00	29	15.59	56.61	945.38	ND	ND	1	70.7	32	40.7	740.4	0
4672	2010-08-10T15:00:00	54	16.06	56.58	1102.17	ND	ND	0.9	337.2	30.7	45	234.3	0
4673	2010-08-10T16:00:00	38	19.87	53.28	980.72	ND	ND	3.2	281.4	30.4	46.8	408.4	0
4674	2010-08-10T17:00:00	30	33.85	56.82	898.10	ND	ND	3.4	275.7	30.2	47.8	320.7	0
4675	2010-08-10T18:00:00	17	15.49	33.69	769.29	ND	ND	4.1	268.9	28.3	52.9	69	0
4676	2010-08-10T19:00:00	30	14.17	41.09	810.81	ND	ND	3.7	269.2	27.3	56	1.5	0
4677	2010-08-10T20:00:00	16	11.14	36.42	912.01	ND	ND	4.4	272.1	26.5	58.6	0.1	0
4678	2010-08-10T21:00:00	27	10.03	45.13	1128.35	ND	ND	4.3	270.6	26.2	59.8	0.1	0
4679	2010-08-10T22:00:00	16	7.76	22.18	368.07	ND	ND	0.8	310.3	25.9	61.9	0.1	0
4680	2010-08-10T23:00:00	38	6.47	8.05	206.83	ND	ND	0.6	116.7	24.9	68.1	0.4	0
4681	2010-08-11T00:00:00	27	7.96	30.26	916.18	ND	ND	1.1	165	24.4	70.7	0.4	0
4682	2010-08-11T01:00:00	36	13.31	42.31	1406.26	ND	ND	0.9	171.4	23.3	74.9	0.4	0
4683	2010-08-11T02:00:00	20	9.54	38.73	979.60	ND	ND	1.5	191.1	23	77.4	0.3	0
4684	2010-08-11T03:00:00	38	7.39	23.52	523.44	ND	ND	1.7	185.9	23	75.3	0.2	0
4685	2010-08-11T04:00:00	48	6.56	16.00	318.62	ND	ND	1	165	22.5	74.3	0.2	0
4686	2010-08-11T05:00:00	56	9.85	11.69	431.68	ND	ND	0.4	179.9	22	76.8	0.1	0
4687	2010-08-11T06:00:00	31	17.38	13.00	419.61	ND	ND	0.9	257.5	21.9	75.1	0.2	0
4688	2010-08-11T07:00:00	39	11.15	17.43	498.82	ND	ND	1	269.8	21.9	72.2	36.9	0
4689	2010-08-11T08:00:00	39	9.44	14.85	430.80	ND	ND	1.3	46.9	22.7	74.3	198.1	0
4690	2010-08-11T09:00:00	80	10.04	22.73	898.04	ND	ND	1.5	60.4	24.2	68.5	367.4	0
4691	2010-08-11T10:00:00	57	30.42	61.65	2467.87	ND	ND	0.8	112.5	25.4	61	421.3	0
4692	2010-08-11T11:00:00	56	42.92	69.27	1663.36	ND	ND	1.2	108.2	26.6	57	512	0
4693	2010-08-11T12:00:00	45	22.81	55.44	1174.79	ND	ND	1	109	27.5	56.1	565.8	0
4694	2010-08-11T13:00:00	63	ND	ND	ND	ND	ND	1.2	101.5	28.9	52.7	859.1	0
4695	2010-08-11T14:00:00	52	ND	ND	ND	ND	ND	1.2	112.4	30.1	49.4	702	0
4696	2010-08-11T15:00:00	54	60.58	59.77	734.08	ND	ND	1.2	157	30.6	48.2	484.2	0
4697	2010-08-11T16:00:00	56	54.16	51.50	630.25	ND	ND	0.5	318.3	30.2	49.3	181.3	0
4698	2010-08-11T17:00:00	51	55.13	59.92	815.92	ND	ND	2.6	261.3	29.3	50.2	114.1	0
4699	2010-08-11T18:00:00	38	60.34	61.64	732.15	ND	ND	2.6	272.5	28.3	53.8	47.2	0
4700	2010-08-11T19:00:00	38	46.23	39.84	949.80	ND	ND	2.9	268.5	27.1	57.3	2.2	0
4701	2010-08-11T20:00:00	20	44.49	44.00	876.80	ND	ND	3.4	273.6	26.6	58.7	0	0
4702	2010-08-11T21:00:00	15	43.99	51.13	1266.93	ND	ND	3.6	270.5	25.7	62	0.3	0
4703	2010-08-11T22:00:00	9	41.86	30.53	574.15	ND	ND	2.9	273	25.4	62.4	0.4	0
4704	2010-08-11T23:00:00	11	40.62	19.76	344.14	ND	ND	0.4	350.1	25	65.8	0.4	0
4705	2010-08-12T00:00:00	10	39.83	18.23	378.05	ND	ND	0.2	153.9	24.3	69.6	0.5	0
4706	2010-08-12T01:00:00	30	ND	37.19	960.05	ND	ND	1.2	203.4	23.6	73.2	0.5	0
4707	2010-08-12T02:00:00	23	ND	39.72	1071.81	ND	ND	0.4	161.3	23.4	70.2	0.4	0
4708	2010-08-12T03:00:00	32	ND	38.53	638.10	ND	ND	0.5	165.2	22.7	74.9	0.3	0
4709	2010-08-12T04:00:00	21	ND	35.75	602.49	ND	ND	0.8	121.4	22.3	76.6	0.2	0
4710	2010-08-12T05:00:00	32	ND	28.74	385.98	ND	ND	0.3	155.2	22.3	75.4	0.3	0
4711	2010-08-12T06:00:00	24	ND	18.05	249.75	ND	ND	0.6	202.3	22.6	70.5	0.8	0
4712	2010-08-12T07:00:00	43	ND	20.96	397.73	ND	ND	1.1	50.2	22.1	74.2	27.5	0
4713	2010-08-12T08:00:00	74	ND	25.29	555.88	ND	ND	0.5	46.2	22.8	71.7	183.7	0
4714	2010-08-12T09:00:00	68	ND	36.53	1762.58	ND	ND	0.8	20.8	24.6	64.8	273.5	0
4715	2010-08-12T10:00:00	70	ND	59.02	2311.02	ND	ND	1.5	114.3	25.9	59.5	488.1	0
4716	2010-08-12T11:00:00	71	ND	98.86	1918.94	ND	ND	0.9	129.9	26.8	56.9	446.5	0
4717	2010-08-12T12:00:00	59	ND	75.05	783.72	ND	ND	1.2	115.3	27.1	57.1	309.6	0
4718	2010-08-12T13:00:00	81	ND	53.05	669.13	ND	ND	1.5	100.6	27	57.5	227.2	0
4719	2010-08-12T14:00:00	82	ND	88.11	1349.36	ND	ND	1	225.9	26.9	57.3	187.2	0
4720	2010-08-12T15:00:00	42	ND	92.18	1475.73	ND	ND	2	262.6	26.8	56.8	304.7	0
4721	2010-08-12T16:00:00	32	ND	62.79	1429.13	ND	ND	3	340.9	22.9	80.1	37.9	17.02
4722	2010-08-12T17:00:00	32	ND	23.60	762.15	ND	ND	1.6	298.3	23.1	76.1	115.3	0.25
4723	2010-08-12T18:00:00	23	ND	49.57	1252.13	ND	ND	1.6	290	24	69.2	61.4	0
4724	2010-08-12T19:00:00	40	ND	41.63	1278.77	ND	ND	1.6	310.3	23.5	69.2	1.8	0
4725	2010-08-12T20:00:00	37	ND	31.00	1139.84	ND	ND	0.7	33.7	23.1	78.2	0.4	0
4726	2010-08-12T21:00:00	53	ND	32.43	1229.37	ND	ND	0.3	104.2	23	73.5	0.4	0
4727	2010-08-12T22:00:00	48	ND	46.64	1832.05	ND	ND	0.4	102.3	22.5	78	0.4	0
4728	2010-08-12T23:00:00	50	ND	36.87	1215.52	ND	ND	1.1	79.5	21.5	82.7	0.4	0
4729	2010-08-13T00:00:00	30	ND	33.26	1585.01	ND	ND	0.7	74.3	21.1	85.2	0.4	0
4730	2010-08-13T01:00:00	35	ND	25.04	825.35	ND	ND	0.6	71.6	21.1	84.4	0.3	0
4731	2010-08-13T02:00:00	19	ND	22.60	565.31	ND	ND	0.6	71.3	21	84.9	0.5	0
4732	2010-08-13T03:00:00	24	ND	21.39	361.67	ND	ND	0.2	168.5	21.2	84.4	0.5	0
4733	2010-08-13T04:00:00	14	ND	21.76	350.61	ND	ND	0.9	180.3	21.3	83.4	0.4	0
4734	2010-08-13T05:00:00	8	ND	21.32	192.34	ND	ND	0.6	177.8	21.3	82.9	0.4	0
4735	2010-08-13T06:00:00	5	ND	12.26	214.96	ND	ND	0.9	151.7	21	84.8	0.6	0
4736	2010-08-13T07:00:00	23	ND	16.69	237.35	ND	ND	0.7	81	21	85.9	16.8	0
4737	2010-08-13T08:00:00	44	ND	20.63	700.74	ND	ND	0.4	57.5	21.1	86.8	98.4	0
4738	2010-08-13T09:00:00	45	ND	28.14	2046.41	ND	ND	0.2	231	22.1	81.3	134.7	0
4739	2010-08-13T10:00:00	51	ND	35.94	1996.65	ND	ND	0.5	156.3	23.9	71.9	481.1	0
4740	2010-08-13T11:00:00	42	ND	45.86	1438.14	ND	ND	0.8	107.8	25.2	66	488.7	0
4741	2010-08-13T12:00:00	48	ND	61.12	1421.51	ND	ND	0.7	82.8	26.2	61.8	483.2	0
4742	2010-08-13T13:00:00	56	ND	79.63	1230.74	ND	ND	0.3	158.1	27.8	56.5	697.8	0
4743	2010-08-13T14:00:00	48	ND	66.48	1052.30	ND	ND	1.4	103.1	28	55.7	334.9	0
4744	2010-08-13T15:00:00	57	ND	58.10	1249.71	ND	ND	1.2	83.6	28.2	56.1	434.7	0
4745	2010-08-13T16:00:00	53	ND	77.94	1273.70	ND	ND	1.5	70.3	27.8	56.6	159.4	0
4746	2010-08-13T17:00:00	64	ND	83.73	1433.90	ND	ND	2.8	266.1	27.7	55.1	191.4	0
4747	2010-08-13T18:00:00	33	ND	110.19	1676.18	ND	ND	3.4	274.4	26.6	58.1	85.3	0
4748	2010-08-13T19:00:00	32	ND	45.12	967.48	ND	ND	2.9	264.1	25.6	60.8	2.5	0
4749	2010-08-13T20:00:00	23	ND	36.65	964.25	ND	ND	2.6	269	25.2	62.1	0	0
4750	2010-08-13T21:00:00	29	ND	37.32	1111.98	ND	ND	0.6	345.8	24.9	64.7	0	0
4751	2010-08-13T22:00:00	31	ND	35.74	858.92	ND	ND	0.2	214.4	24.2	67.2	0.1	0
4752	2010-08-13T23:00:00	33	ND	63.49	1451.02	ND	ND	0.5	258.7	24	67.3	0.2	0
4753	2010-08-14T00:00:00	17	ND	57.50	1735.48	ND	ND	0.4	194.2	23.6	69.7	0.2	0
4754	2010-08-14T01:00:00	30	ND	43.21	957.79	ND	ND	1.3	190	22.3	80	0.3	0
4755	2010-08-14T02:00:00	35	ND	34.01	851.42	ND	ND	1.5	178	22.4	81.1	0.4	0
4756	2010-08-14T03:00:00	59	ND	36.03	647.30	ND	ND	1.4	180.4	21.9	83.2	0.4	0
4757	2010-08-14T04:00:00	50	ND	45.12	827.59	ND	ND	0.3	188.2	21.9	81.5	0.4	0
4758	2010-08-14T05:00:00	48	ND	25.53	510.16	ND	ND	0.5	114.4	21.6	83.5	0.4	0
4759	2010-08-14T06:00:00	56	ND	29.79	486.99	ND	ND	0.9	2.4	21.4	84.8	0.5	0
4760	2010-08-14T07:00:00	63	ND	26.07	452.71	ND	ND	0.5	67.7	21.2	85.8	17.2	0
4761	2010-08-14T08:00:00	72	ND	30.01	610.74	ND	ND	0.3	101.7	21.7	83	58.2	0
4762	2010-08-14T09:00:00	93	ND	33.36	1427.48	ND	ND	1.1	120.2	22.2	78	106.5	0
4763	2010-08-14T10:00:00	67	ND	45.64	1872.49	ND	ND	0.5	87.5	22.9	74.3	198.9	0
4764	2010-08-14T11:00:00	78	ND	54.57	2093.06	ND	ND	0.4	138.4	24.5	67.2	556.7	0
4765	2010-08-14T12:00:00	55	ND	68.37	1463.92	ND	ND	1	125.4	25.6	62.9	375.5	0
4766	2010-08-14T13:00:00	51	ND	59.88	1033.12	ND	ND	0.7	127.1	26.2	60.7	360.7	0
4767	2010-08-14T14:00:00	42	ND	61.06	1104.21	ND	ND	1	117.3	26.7	59.8	279.7	0
4768	2010-08-14T15:00:00	75	ND	78.51	1417.14	ND	ND	0.9	118.3	26.9	58.3	287.8	0
4769	2010-08-14T16:00:00	53	ND	94.54	1902.30	ND	ND	0.7	143.3	27.6	56.8	309.7	0
4770	2010-08-14T17:00:00	75	ND	78.24	1456.06	ND	ND	0.9	97.4	27.5	58.1	158.9	0
4771	2010-08-14T18:00:00	81	ND	62.79	1259.19	ND	ND	1	99	27.2	60.3	85.4	0
4772	2010-08-14T19:00:00	89	ND	103.63	1904.21	ND	ND	0.7	32.1	26.6	60.7	5.2	0
4773	2010-08-14T20:00:00	108	ND	109.79	2107.72	ND	ND	0.8	310.1	25.9	65	0	0
4774	2010-08-14T21:00:00	95	ND	113.33	1976.40	ND	ND	1.3	262.5	24.9	68.9	0	0
4775	2010-08-14T22:00:00	79	ND	143.32	2324.80	ND	ND	0.9	271.1	24.6	68.8	0	0
4776	2010-08-14T23:00:00	79	ND	113.25	2139.41	ND	ND	0.6	249.5	24.1	69.5	0	0
4777	2010-08-15T00:00:00	72	ND	65.29	1302.05	ND	ND	0.9	212.9	23.3	75.6	0	0
4778	2010-08-15T01:00:00	46	ND	50.54	1150.46	ND	ND	1.3	246.2	23.1	70.4	0	0
4779	2010-08-15T02:00:00	36	ND	69.22	1400.11	ND	ND	1.8	266.5	23.1	69.2	0	0
4780	2010-08-15T03:00:00	33	ND	45.31	1183.84	ND	ND	1.4	251.9	22.9	69	0	0
4781	2010-08-15T04:00:00	31	ND	27.62	648.39	ND	ND	0.6	20.8	22.1	81.8	0.1	0
4782	2010-08-15T05:00:00	87	ND	19.06	510.51	ND	ND	0.1	168	21.5	82.7	0.2	0
4783	2010-08-15T06:00:00	53	ND	58.24	1641.62	ND	ND	0.5	324.8	21.2	84	0.7	0
4784	2010-08-15T07:00:00	85	ND	58.85	1255.41	ND	ND	0.4	30.3	21.6	84.9	45.4	0
4785	2010-08-15T08:00:00	100	ND	39.34	1041.93	ND	ND	1.6	28.6	21.6	84.8	163.9	0
4786	2010-08-15T09:00:00	125	ND	59.86	1812.06	ND	ND	1.1	63.6	23.7	74.5	388.5	0
4787	2010-08-15T10:00:00	87	ND	57.70	1300.30	ND	ND	1.3	61.8	26.3	63.7	594	0
4788	2010-08-15T11:00:00	95	ND	87.55	1116.09	ND	ND	0.9	147.3	27.7	58.7	682.3	0
4789	2010-08-15T12:00:00	84	ND	48.65	716.71	ND	ND	0.8	91.8	29.1	52.8	684.7	0
4790	2010-08-15T13:00:00	74	ND	30.68	673.59	ND	ND	0.6	122.6	30.4	48.1	713.4	0
4791	2010-08-15T14:00:00	49	ND	37.60	723.15	ND	ND	3.8	281.8	30.1	47	704.9	0
4792	2010-08-15T15:00:00	27	ND	31.59	722.43	ND	ND	5.1	285.9	29.6	47	750.4	0
4793	2010-08-15T16:00:00	15	ND	9.96	221.03	ND	ND	5.9	279.8	28.4	48.7	600.7	0
4794	2010-08-15T17:00:00	17	ND	4.38	34.76	ND	ND	4.6	283.8	26.9	50.9	93.7	0
4795	2010-08-15T18:00:00	9	ND	1.18	80.70	ND	ND	3.7	275.5	26.2	50.5	18.7	0
4796	2010-08-15T19:00:00	6	ND	4.48	264.55	ND	ND	1.2	287.5	26.1	50.5	0.4	0
4797	2010-08-15T20:00:00	5	ND	7.01	356.45	ND	ND	0.7	315.8	25.4	55.4	0	0
4798	2010-08-15T21:00:00	4	ND	13.84	401.50	ND	ND	0.1	55.9	24.3	60.4	0	0
4799	2010-08-15T22:00:00	3	ND	37.99	720.04	ND	ND	1.5	62	22.6	68.2	0	0
4800	2010-08-15T23:00:00	23	ND	39.89	818.19	ND	ND	1	64.5	21.8	72.3	0.1	0
4801	2010-08-16T00:00:00	12	ND	35.46	623.32	ND	ND	0.7	241.5	21.9	71.3	0.1	0
4802	2010-08-16T01:00:00	12	ND	40.09	725.56	ND	ND	0.3	96.5	21.3	76.4	0.3	0
4803	2010-08-16T02:00:00	13	ND	38.04	690.14	ND	ND	1	149.2	20.7	80.9	0.4	0
4804	2010-08-16T03:00:00	12	ND	36.48	632.28	ND	ND	0.5	171.5	20.5	81.9	0.4	0
4805	2010-08-16T04:00:00	7	ND	25.39	361.06	ND	ND	0.9	195	20.4	80.6	0.4	0
4806	2010-08-16T05:00:00	11	ND	19.30	372.21	ND	ND	1.3	250.5	20	79.4	0.5	0
4807	2010-08-16T06:00:00	7	ND	14.17	191.49	ND	ND	0.8	225.6	20.1	77.2	0.6	0
4808	2010-08-16T07:00:00	7	ND	11.63	270.42	ND	ND	0.9	139.9	19.7	82.8	42.4	0
4809	2010-08-16T08:00:00	21	ND	12.73	337.57	ND	ND	1	171.3	20.3	81.6	174	0
4810	2010-08-16T09:00:00	12	ND	22.88	789.28	ND	ND	0.5	134.9	22.4	72.2	432.6	0
4811	2010-08-16T10:00:00	19	ND	18.84	545.09	ND	ND	0.8	136.3	24.4	64.7	637.8	0
4812	2010-08-16T11:00:00	15	ND	25.54	651.68	ND	ND	0.8	175.6	25.7	61	798.3	0
4813	2010-08-16T12:00:00	8	ND	23.26	585.63	ND	ND	0.9	38.5	27.3	54.6	713.4	0
4814	2010-08-16T13:00:00	45	ND	18.24	600.31	ND	ND	1.7	74.7	28	53	668.2	0
4815	2010-08-16T14:00:00	32	ND	28.50	740.57	ND	ND	1.5	43.7	29	50.2	720.1	0
4816	2010-08-16T15:00:00	33	ND	39.83	673.37	ND	ND	1.6	53.8	30	48	670.8	0
4817	2010-08-16T16:00:00	21	ND	29.20	524.17	ND	ND	1.7	68.1	30	47.5	270.3	0
4818	2010-08-16T17:00:00	33	ND	22.67	419.34	ND	ND	1	332.9	29.4	48.6	175.3	0
4819	2010-08-16T18:00:00	17	ND	30.60	569.64	ND	ND	3.2	271.6	28.1	52	66.1	0
4820	2010-08-16T19:00:00	34	ND	25.50	555.61	ND	ND	3.8	270.3	26.8	55.5	1.3	0
4821	2010-08-16T20:00:00	18	ND	10.00	518.64	ND	ND	4.6	266.9	26.3	57.2	0	0
4822	2010-08-16T21:00:00	19	ND	8.08	414.22	ND	ND	2.8	277.4	26.2	58	0	0
4823	2010-08-16T22:00:00	10	ND	6.62	402.58	ND	ND	1.6	279.5	26	59	0	0
4824	2010-08-16T23:00:00	9	ND	5.97	390.81	ND	ND	2	274.6	25.3	62.5	0	0
4825	2010-08-17T00:00:00	6	ND	10.77	435.77	ND	ND	0.5	8	24.7	66.8	0	0
4826	2010-08-17T01:00:00	10	ND	8.32	400.56	ND	ND	0.8	197.3	24.3	68.9	0	0
4827	2010-08-17T02:00:00	13	ND	22.47	548.60	ND	ND	2.3	183.2	23.2	75.6	0	0
4828	2010-08-17T03:00:00	36	ND	21.06	432.70	ND	ND	1.6	190.4	23	75.4	0	0
4829	2010-08-17T04:00:00	45	ND	15.28	273.10	ND	ND	1.1	190.4	22.9	75.5	0	0
4830	2010-08-17T05:00:00	42	ND	12.04	273.01	ND	ND	1	164.6	22.4	77.1	0	0
4831	2010-08-17T06:00:00	21	ND	14.71	363.40	ND	ND	0.2	286.7	22.4	76.7	0.3	0
4832	2010-08-17T07:00:00	42	ND	24.10	386.11	ND	ND	0.4	74.5	22.3	79.3	29.3	0
4833	2010-08-17T08:00:00	74	ND	20.98	601.67	ND	ND	0.5	90.2	22.8	77	99.6	0
4834	2010-08-17T09:00:00	98	ND	41.17	1626.12	ND	ND	1.2	120.7	24.1	70.8	369.2	0
4835	2010-08-17T10:00:00	69	ND	67.22	2809.68	ND	ND	0.8	105.1	25.7	63.5	449.7	0
4836	2010-08-17T11:00:00	69	ND	82.20	2239.18	ND	ND	0.9	134.7	26.5	60.1	565.4	0
4837	2010-08-17T12:00:00	54	ND	67.94	1439.22	ND	ND	0.9	120.1	28.1	54.1	808.4	0
4838	2010-08-17T13:00:00	60	ND	71.44	1504.78	ND	ND	1.3	73.2	29.4	50.4	674.7	0
4839	2010-08-17T14:00:00	35	ND	58.37	1313.65	ND	ND	1.1	18.5	30.4	47.6	757.6	0
4840	2010-08-17T15:00:00	36	ND	68.69	1352.99	ND	ND	2.6	273.5	30.6	44.4	636.8	0
4841	2010-08-17T16:00:00	35	ND	43.38	887.02	ND	ND	4.6	279.2	30	45.6	591.5	0
4842	2010-08-17T17:00:00	26	ND	22.88	978.46	ND	ND	4.4	279.2	28.8	49.1	391.7	0
4843	2010-08-17T18:00:00	14	ND	18.33	800.55	ND	ND	4.6	276.5	27.4	53.3	137.2	0
4844	2010-08-17T19:00:00	14	ND	20.58	762.19	ND	ND	4.9	271.2	26	56.5	2.8	0
4845	2010-08-17T20:00:00	13	ND	24.81	908.07	ND	ND	2.7	289.2	26.2	54.3	0	0
4846	2010-08-17T21:00:00	20	ND	23.05	770.65	ND	ND	3.7	276.2	26.1	53.2	0	0
4847	2010-08-17T22:00:00	10	ND	32.85	758.89	ND	ND	3	274.4	25.9	53.8	0	0
4848	2010-08-17T23:00:00	7	ND	13.09	321.74	ND	ND	2.1	224	25	61.6	0	0
4849	2010-08-18T00:00:00	5	ND	10.55	320.77	ND	ND	1.9	202	24.5	63.2	0	0
4850	2010-08-18T01:00:00	14	ND	26.23	640.46	ND	ND	0.9	193.8	24.2	67.9	0	0
4851	2010-08-18T02:00:00	28	ND	20.25	491.29	ND	ND	0.7	356.1	23	71.5	0	0
4852	2010-08-18T03:00:00	41	ND	24.73	534.82	ND	ND	1	359.1	22.6	74.1	0	0
4853	2010-08-18T04:00:00	31	ND	34.47	704.56	ND	ND	0.7	4.6	22.8	69.9	0	0
4854	2010-08-18T05:00:00	33	ND	30.55	352.52	ND	ND	0.3	46.5	22.9	69.3	0	0
4855	2010-08-18T06:00:00	37	ND	35.42	386.76	ND	ND	1	54.5	22.5	72.1	0.1	0
4856	2010-08-18T07:00:00	40	ND	37.88	454.40	ND	ND	1.1	37.4	21.4	79	32.3	0
4857	2010-08-18T08:00:00	35	ND	38.78	928.05	ND	ND	0.3	67.5	22.7	73.2	222.7	0
4858	2010-08-18T09:00:00	37	ND	33.23	1239.07	ND	ND	1	78.3	24.5	62.9	347	0
4859	2010-08-18T10:00:00	29	ND	35.09	1132.25	ND	ND	1	78.4	26	58.3	596.8	0
4860	2010-08-18T11:00:00	37	ND	58.19	1390.84	ND	ND	1.3	92.4	27.8	51	792.5	0
4861	2010-08-18T12:00:00	20	ND	47.17	948.22	ND	ND	1.9	60.1	28.6	49.9	832.4	0
4862	2010-08-18T13:00:00	27	ND	47.12	892.77	ND	ND	1.1	20.6	29.9	47	847.1	0
4863	2010-08-18T14:00:00	14	ND	46.79	850.04	ND	ND	2.4	55.7	29.8	47.2	565.2	0
4864	2010-08-18T15:00:00	11	ND	30.83	593.67	ND	ND	3.1	19.8	29.9	47	520.2	0
4865	2010-08-18T16:00:00	7	ND	38.15	640.44	ND	ND	2.9	20.3	29.3	50.1	310.8	0
4866	2010-08-18T17:00:00	45	ND	39.17	685.66	ND	ND	2.6	33.3	28.6	53.4	206.6	0
4867	2010-08-18T18:00:00	25	ND	49.03	985.53	ND	ND	0.9	352.3	28.5	51.1	158.5	0
4868	2010-08-18T19:00:00	26	ND	66.79	1019.97	ND	ND	2	289.5	27.3	53	5.6	0
4869	2010-08-18T20:00:00	37	ND	44.45	808.11	ND	ND	2.6	265.4	26.5	55.7	0	0
4870	2010-08-18T21:00:00	20	ND	44.12	1082.29	ND	ND	0.6	252.9	26.2	57.2	0	0
4871	2010-08-18T22:00:00	18	ND	38.80	713.14	ND	ND	1.5	185.2	25.1	66.7	0	0
4872	2010-08-18T23:00:00	24	ND	48.87	916.79	ND	ND	1.6	202.5	25.1	66.2	0	0
4873	2010-08-19T00:00:00	13	ND	39.40	962.63	ND	ND	0.5	204.6	24.6	68.2	0	0
4874	2010-08-19T01:00:00	43	ND	35.66	652.12	ND	ND	1.2	151.2	23.5	75	0	0
4875	2010-08-19T02:00:00	30	ND	33.54	524.33	ND	ND	0.9	138.2	22.6	77.7	0	0
4876	2010-08-19T03:00:00	39	ND	33.24	613.65	ND	ND	0.9	139.8	22.5	77	0	0
4877	2010-08-19T04:00:00	21	ND	23.27	454.40	ND	ND	0.7	160.5	22.1	80.3	0	0
4878	2010-08-19T05:00:00	44	ND	19.32	351.68	ND	ND	0.5	140.1	22	80.5	0	0
4879	2010-08-19T06:00:00	31	ND	20.79	272.18	ND	ND	0.3	60.9	21.7	79.7	0.4	0
4880	2010-08-19T07:00:00	53	ND	25.50	453.17	ND	ND	0.6	167.1	22	78.7	51.2	0
4881	2010-08-19T08:00:00	53	ND	30.52	816.53	ND	ND	1.4	136	22.6	77.1	223.5	0
4882	2010-08-19T09:00:00	59	ND	35.80	1465.93	ND	ND	1.2	123.3	24.1	70.5	365.7	0
4883	2010-08-19T10:00:00	32	ND	45.54	1713.22	ND	ND	0.4	36.9	25.9	62.9	512.3	0
4884	2010-08-19T11:00:00	49	ND	51.91	1298.45	ND	ND	1.5	260.6	27	55.5	724.8	0
4885	2010-08-19T12:00:00	30	ND	46.15	749.64	ND	ND	1.4	55.4	29.2	48.6	892.4	0
4886	2010-08-19T13:00:00	35	ND	34.11	755.14	ND	ND	1.5	36.6	28.8	50.5	190.8	1.02
4887	2010-08-19T14:00:00	28	ND	48.87	928.17	ND	ND	2.4	282.6	27	60.2	524.2	4.06
4888	2010-08-19T15:00:00	18	ND	59.73	1014.90	ND	ND	3.8	277.8	28.3	49.8	367.6	0
4889	2010-08-19T16:00:00	10	ND	35.36	949.80	ND	ND	1.3	217.3	25.8	63.8	148.6	0.76
4890	2010-08-19T17:00:00	25	ND	18.11	585.83	ND	ND	1.4	176.6	22.8	75.6	59.3	0
4891	2010-08-19T18:00:00	36	ND	43.54	989.32	ND	ND	1.4	158.2	22.2	78.9	10.3	0
4892	2010-08-19T19:00:00	59	ND	79.24	1645.52	ND	ND	1.5	179.4	22.3	76.4	0.4	0
4893	2010-08-19T20:00:00	37	ND	89.53	2179.64	ND	ND	1.2	193.9	22.5	73.8	0	0
4894	2010-08-19T21:00:00	46	ND	84.44	2476.47	ND	ND	0.8	254.8	23	74.7	0	0
4895	2010-08-19T22:00:00	25	ND	80.44	1877.57	ND	ND	0.9	36.7	22.7	77	0	0
4896	2010-08-19T23:00:00	38	ND	56.50	1818.82	ND	ND	1.4	28.9	21.5	82.5	0	0
4897	2010-08-20T00:00:00	35	ND	62.11	1890.69	ND	ND	0.7	82.4	21.1	84.7	0	0
4898	2010-08-20T01:00:00	31	ND	52.40	1085.39	ND	ND	0.1	58.5	21.3	84.1	0	0
4899	2010-08-20T02:00:00	16	ND	47.73	825.91	ND	ND	0.5	249.6	21.6	82.2	0	0
4900	2010-08-20T03:00:00	27	ND	44.59	577.59	ND	ND	0.3	56.9	21.9	80.2	0	0
4901	2010-08-20T04:00:00	23	ND	42.50	725.56	ND	ND	0.9	127.4	21.5	84.3	0	0
4902	2010-08-20T05:00:00	42	ND	51.06	792.51	ND	ND	0.7	184.5	21.4	84.2	0	0
4903	2010-08-20T06:00:00	35	ND	41.98	667.74	ND	ND	0.3	192.8	21.4	84.3	0.2	0
4904	2010-08-20T07:00:00	38	ND	34.07	554.57	ND	ND	0.6	133.4	21.6	83.9	27.1	0
4905	2010-08-20T08:00:00	61	ND	40.44	566.27	ND	ND	1.2	153.6	21.8	82.2	88.6	0
4906	2010-08-20T09:00:00	65	ND	46.11	1801.96	ND	ND	0.6	174	23	76.7	357.5	0
4907	2010-08-20T10:00:00	58	ND	57.47	2617.21	ND	ND	0.5	161.4	24.8	68.8	548.7	0
4908	2010-08-20T11:00:00	48	ND	56.67	1534.08	ND	ND	1	144.6	26.1	61.9	453	0
4909	2010-08-20T12:00:00	41	ND	91.74	1609.77	ND	ND	0.7	118.1	28	54.2	826.6	0
4910	2010-08-20T13:00:00	60	ND	67.67	1203.43	ND	ND	1.3	72.4	28.8	50.3	683.2	0
4911	2010-08-20T14:00:00	31	ND	ND	ND	ND	ND	1.2	89.5	30.4	45.4	777.4	0
4912	2010-08-20T15:00:00	44	ND	ND	734.81	ND	ND	0.5	31.6	30.4	44.8	574.4	0
4913	2010-08-20T16:00:00	25	12.99	56.68	968.08	ND	ND	2.3	283.8	31.1	44.4	574.1	0
4914	2010-08-20T17:00:00	50	12.57	37.73	794.96	ND	ND	4.2	275	29.7	48	386.1	0
4915	2010-08-20T18:00:00	29	11.84	36.81	802.94	ND	ND	4.4	270.4	27.8	51.3	83.3	0
4916	2010-08-20T19:00:00	40	9.71	35.11	948.22	ND	ND	3.8	266.9	26.9	54.3	1.3	0
4917	2010-08-20T20:00:00	34	9.04	35.86	864.68	ND	ND	3	263.8	26.5	55.5	0	0
4918	2010-08-20T21:00:00	27	9.03	41.15	1013.21	ND	ND	0.1	86.3	25.9	60.1	0	0
4919	2010-08-20T22:00:00	21	8.04	42.37	965.22	ND	ND	2.1	232.7	25.6	61.6	0	0
4920	2010-08-20T23:00:00	11	14.07	59.98	1744.83	ND	ND	2.3	236	25	63.5	0	0
4921	2010-08-21T00:00:00	11	9.98	31.89	1042.50	ND	ND	0.6	308.1	24.6	65.9	0	0
4922	2010-08-21T01:00:00	34	7.04	18.17	732.20	ND	ND	1.1	180.9	23.4	70.6	0	0
4923	2010-08-21T02:00:00	20	11.99	38.95	1139.46	ND	ND	0.5	128.9	23.3	70.5	0	0
4924	2010-08-21T03:00:00	43	13.96	31.76	729.01	ND	ND	0.5	100.5	22.3	77.2	0	0
4925	2010-08-21T04:00:00	29	9.45	38.67	817.36	ND	ND	0.6	144.7	22	77.6	0	0
4926	2010-08-21T05:00:00	44	9.75	28.79	782.51	ND	ND	0.9	162	21.3	80.2	0	0
4927	2010-08-21T06:00:00	31	8.07	25.89	1052.19	ND	ND	0.6	145.4	20.9	80.6	0.4	0
4928	2010-08-21T07:00:00	55	7.18	21.73	937.77	ND	ND	0.4	114.5	20.9	81.1	38.5	0
4929	2010-08-21T08:00:00	50	7.42	25.36	1220.23	ND	ND	0.7	48	22.6	73.9	189.6	0
4930	2010-08-21T09:00:00	64	9.17	30.53	2022.76	ND	ND	0.7	123.1	24.5	64.8	392.4	0
4931	2010-08-21T10:00:00	47	20.12	67.77	2321.68	ND	ND	1.1	161.1	26.1	59.3	596.2	0
4932	2010-08-21T11:00:00	53	32.06	82.14	1828.24	ND	ND	1	163.6	27.4	55.4	763.4	0
4933	2010-08-21T12:00:00	44	21.92	48.11	1131.74	ND	ND	0.8	101.9	28.9	50.3	847.4	0
4934	2010-08-21T13:00:00	41	18.48	43.81	1125.78	ND	ND	1.2	122.3	30.5	45.8	884	0
4935	2010-08-21T14:00:00	33	15.64	48.07	1155.08	ND	ND	1.6	59.7	31.5	43.4	680.2	0
4936	2010-08-21T15:00:00	47	14.30	46.38	1135.48	ND	ND	0.2	54.7	31.6	42.8	480.5	0
4937	2010-08-21T16:00:00	29	14.94	57.47	1241.24	ND	ND	2.2	297	30.9	46.5	301.1	0
4938	2010-08-21T17:00:00	51	12.77	46.54	1098.19	ND	ND	2.8	268.3	29.2	51.7	124.8	0
4939	2010-08-21T18:00:00	32	10.92	25.36	778.37	ND	ND	4	267.2	27.6	55.2	25.8	0
4940	2010-08-21T19:00:00	39	11.26	34.82	1016.93	ND	ND	4.2	264.8	27	56.7	1.2	0
4941	2010-08-21T20:00:00	21	8.65	33.81	911.10	ND	ND	2.6	278.2	26.5	59.2	0	0
4942	2010-08-21T21:00:00	18	8.11	36.89	875.04	ND	ND	2.1	284.1	26.3	59.6	0	0
4943	2010-08-21T22:00:00	11	6.68	41.22	816.93	ND	ND	1	291	25.7	62.1	0	0
4944	2010-08-21T23:00:00	10	7.35	34.68	746.39	ND	ND	1.3	283.8	25.5	61.2	0	0
4945	2010-08-22T00:00:00	6	7.82	40.43	1032.78	ND	ND	1.9	214	25	63.5	0	0
4946	2010-08-22T01:00:00	8	6.37	19.93	572.80	ND	ND	0.7	177.6	23.9	71.5	0	0
4947	2010-08-22T02:00:00	16	6.11	27.58	582.10	ND	ND	0.3	349.8	23.5	73.5	0	0
4948	2010-08-22T03:00:00	51	8.24	43.08	1139.84	ND	ND	0.3	255.4	22.9	74.2	0	0
4949	2010-08-22T04:00:00	27	11.37	48.49	1626.67	ND	ND	0.6	231.1	22.5	73.5	0	0
4950	2010-08-22T05:00:00	29	11.30	40.28	1158.72	ND	ND	1.2	249.5	22	70.3	0	0
4951	2010-08-22T06:00:00	29	13.49	29.16	793.85	ND	ND	0.4	41.1	21.5	77.7	0.4	0
4952	2010-08-22T07:00:00	42	9.84	13.14	554.75	ND	ND	0.3	275.6	21.3	78.8	37.3	0
4953	2010-08-22T08:00:00	22	9.03	27.84	939.05	ND	ND	1	258.3	23.4	62.6	216.1	0
4954	2010-08-22T09:00:00	21	11.81	30.52	1036.91	ND	ND	1	59.6	25.4	59.5	430.7	0
4955	2010-08-22T10:00:00	14	14.72	22.63	837.42	ND	ND	0.8	127.5	26.8	56	700.2	0
4956	2010-08-22T11:00:00	48	34.19	48.62	1048.80	ND	ND	1.2	171.4	28.4	46.9	794.1	0
4957	2010-08-22T12:00:00	25	69.09	60.52	1135.50	ND	ND	1.5	145	29.7	44.4	853	0
4958	2010-08-22T13:00:00	27	26.54	35.09	1128.77	ND	ND	1.4	165.1	30.9	39.1	667	0
4959	2010-08-22T14:00:00	19	12.99	27.37	1016.41	ND	ND	1.6	121.2	30.9	36.2	396.6	0
4960	2010-08-22T15:00:00	21	9.65	23.68	1004.73	ND	ND	2.1	67.4	30.4	39	313.6	0
4961	2010-08-22T16:00:00	21	8.64	34.90	1131.38	ND	ND	1.6	60	29.9	41.1	169.9	0
4962	2010-08-22T17:00:00	47	10.73	44.99	1048.00	ND	ND	1.6	292.2	29.1	47	75.1	0
4963	2010-08-22T18:00:00	25	11.79	53.19	1126.53	ND	ND	3.7	268.7	27.8	53.2	23.2	0
4964	2010-08-22T19:00:00	27	9.63	25.57	832.59	ND	ND	3.7	269.3	27.1	56	0.3	0
4965	2010-08-22T20:00:00	15	6.78	9.64	634.52	ND	ND	4	265.9	26.3	59.3	0	0
4966	2010-08-22T21:00:00	15	6.32	9.02	621.33	ND	ND	3.2	267.7	25.5	62.5	0	0
4967	2010-08-22T22:00:00	10	6.01	9.07	585.24	ND	ND	0.8	308.6	25	65.2	0	0
4968	2010-08-22T23:00:00	25	5.63	11.77	595.72	ND	ND	0.6	219	24.3	68.9	0	0
4969	2010-08-23T00:00:00	14	6.27	28.35	731.47	ND	ND	1.4	250.5	24.6	64.8	0	0
4970	2010-08-23T01:00:00	8	9.34	36.77	1006.78	ND	ND	1.5	214.9	24.1	65.8	0	0
4971	2010-08-23T02:00:00	20	6.40	7.10	434.02	ND	ND	0.7	6.9	22.9	75.6	0	0
4972	2010-08-23T03:00:00	48	6.37	19.47	682.52	ND	ND	0.6	39.5	22.5	77.8	0	0
4973	2010-08-23T04:00:00	39	12.11	37.39	931.52	ND	ND	0.7	9.7	22	80.4	0	0
4974	2010-08-23T05:00:00	67	19.97	35.82	793.85	ND	ND	0.3	65.4	21.7	80.7	0	0
4975	2010-08-23T06:00:00	62	17.00	36.58	725.07	ND	ND	0.9	42.9	21.5	81.2	0.4	0
4976	2010-08-23T07:00:00	76	17.04	36.13	792.51	ND	ND	0.4	243.1	21.8	76.1	35.8	0
4977	2010-08-23T08:00:00	62	22.16	37.92	1019.97	ND	ND	0.7	121.2	23	69.9	171.7	0
4978	2010-08-23T09:00:00	120	38.47	44.34	1228.95	ND	ND	1.1	78.7	23.5	72.2	248.7	0
4979	2010-08-23T10:00:00	102	25.81	71.92	2735.62	ND	ND	0.9	115	24.9	66	389	0
4980	2010-08-23T11:00:00	97	37.35	98.62	2278.99	ND	ND	0.6	65.9	27	57.6	650.3	0
4981	2010-08-23T12:00:00	80	59.75	114.81	1603.08	ND	ND	1.7	57.6	27.7	54.9	459.1	0
4982	2010-08-23T13:00:00	84	52.22	90.65	1167.55	ND	ND	1.8	61.3	27.6	55.9	328.9	0
4983	2010-08-23T14:00:00	57	42.00	72.18	1005.37	ND	ND	1.6	69.5	28.1	55.3	338	0
4984	2010-08-23T15:00:00	65	32.78	69.50	1365.88	ND	ND	0.9	24.5	28.9	51.9	349.3	0
4985	2010-08-23T16:00:00	34	29.01	70.43	1334.69	ND	ND	2.3	282.9	28.9	48.8	241.9	0
4986	2010-08-23T17:00:00	31	24.32	58.92	1323.08	ND	ND	3	274.9	28	51.7	172.9	0
4987	2010-08-23T18:00:00	17	12.36	33.12	1168.71	ND	ND	3.3	274.3	27.2	54.6	83.1	0
4988	2010-08-23T19:00:00	20	9.87	33.05	1119.44	ND	ND	3.8	270.1	25.9	58.4	2	0
4989	2010-08-23T20:00:00	12	9.20	35.67	1172.05	ND	ND	3.7	275	25.2	61.1	0	0
4990	2010-08-23T21:00:00	12	9.10	35.47	1157.84	ND	ND	2.9	279.5	25.3	60.1	0	0
4991	2010-08-23T22:00:00	7	8.39	29.26	791.26	ND	ND	1.3	335.3	24.7	63.5	0	0
4992	2010-08-23T23:00:00	26	6.62	20.13	572.23	ND	ND	0.8	39.4	24.1	68.3	0	0
4993	2010-08-24T00:00:00	41	8.39	33.16	1096.46	ND	ND	0.3	117.9	23.4	72.2	0	0
4994	2010-08-24T01:00:00	38	11.94	44.88	1287.59	ND	ND	1.3	134.2	23.3	74.6	0	0
4995	2010-08-24T02:00:00	37	16.00	41.07	979.60	ND	ND	0.8	137.7	22.4	79.2	0	0
4996	2010-08-24T03:00:00	35	10.88	32.39	840.35	ND	ND	0.9	161.5	22.6	77.7	0	0
4997	2010-08-24T04:00:00	39	8.94	19.95	625.01	ND	ND	1.3	149.5	22.5	77.8	0	0
4998	2010-08-24T05:00:00	43	9.15	22.22	636.16	ND	ND	1	147.4	22.1	79.1	0	0
4999	2010-08-24T06:00:00	28	10.85	17.59	635.30	ND	ND	0.7	142.5	21.9	80.1	0	0
5000	2010-08-24T07:00:00	48	10.99	19.68	680.21	ND	ND	0.6	169.7	22.1	78	14.7	0
5001	2010-08-24T08:00:00	45	10.09	28.26	918.91	ND	ND	1.3	128.4	22.3	76.7	56	0
5002	2010-08-24T09:00:00	81	12.28	38.00	1498.50	ND	ND	0.7	107.5	22.6	77.1	180.5	0
5003	2010-08-24T10:00:00	67	16.95	51.38	2409.13	ND	ND	0.8	137.2	24.8	67.8	519.5	0
5004	2010-08-24T11:00:00	80	18.57	64.01	2117.95	ND	ND	1.4	114.6	27.2	57	769.4	0
5005	2010-08-24T12:00:00	42	19.37	84.77	1904.21	ND	ND	0.6	71	28.4	51.5	842.7	0
5006	2010-08-24T13:00:00	56	18.47	65.93	1483.11	ND	ND	0.7	36.9	29.5	48.3	434	0
5007	2010-08-24T14:00:00	47	15.37	35.98	767.52	ND	ND	0.6	347.6	29.4	49	268	0
5008	2010-08-24T15:00:00	69	17.34	56.88	1139.27	ND	ND	0.8	283.3	28.9	49.9	185.9	0
5009	2010-08-24T16:00:00	37	20.09	53.03	1009.72	ND	ND	0.8	253.7	28.9	50.3	242	0
5010	2010-08-24T17:00:00	45	23.23	51.98	1357.90	ND	ND	1.8	211	28.9	51.1	251.8	0
5011	2010-08-24T18:00:00	29	13.17	36.16	742.78	ND	ND	2.3	259.2	28	52.6	41.3	0
5012	2010-08-24T19:00:00	39	13.47	43.24	891.00	ND	ND	2.6	262.3	26.9	55.6	1.4	0
5013	2010-08-24T20:00:00	21	10.31	40.03	899.27	ND	ND	2.6	270.4	26.5	56.7	0	0
5014	2010-08-24T21:00:00	19	9.64	47.00	1370.13	ND	ND	2.5	256.6	26.2	58.3	0	0
5015	2010-08-24T22:00:00	12	8.34	44.95	862.67	ND	ND	2.3	232.7	25.8	60.9	0	0
5016	2010-08-24T23:00:00	12	6.67	26.78	735.16	ND	ND	1.2	201.4	25.3	64	0	0
5017	2010-08-25T00:00:00	22	7.19	23.53	756.86	ND	ND	0.7	212.9	24.8	68.3	0	0
5018	2010-08-25T01:00:00	42	7.75	36.34	664.01	ND	ND	0.5	47.5	24.4	71.5	0	0
5019	2010-08-25T02:00:00	35	9.75	48.08	948.94	ND	ND	1.1	171.4	24.3	68.3	0	0
5020	2010-08-25T03:00:00	45	11.71	47.73	914.33	ND	ND	1.1	114.6	23.5	75.3	0	0
5021	2010-08-25T04:00:00	39	11.08	24.90	695.30	ND	ND	0.7	152.1	22.8	79.7	0	0
5022	2010-08-25T05:00:00	36	9.39	24.85	591.32	ND	ND	0.9	195.5	22.9	78.6	0	0
5023	2010-08-25T06:00:00	29	9.05	20.31	534.64	ND	ND	0.8	159.4	22.6	81.9	0	0
5024	2010-08-25T07:00:00	61	8.73	19.17	534.10	ND	ND	0.5	171.2	22.7	80.7	6.9	0
5025	2010-08-25T08:00:00	69	8.22	28.35	795.74	ND	ND	0.8	154.9	23.1	78	54.6	0
5026	2010-08-25T09:00:00	84	10.57	41.08	1479.79	ND	ND	0.7	134.4	23.7	73.8	160.5	0
5027	2010-08-25T10:00:00	68	14.06	54.10	2509.34	ND	ND	0.7	52.1	25.1	71.9	494.1	0
5028	2010-08-25T11:00:00	82	15.70	59.22	1971.11	ND	ND	1.6	68	26.4	63.7	384.2	0
5029	2010-08-25T12:00:00	71	19.09	91.13	1818.56	ND	ND	1.6	42.7	26.2	62.2	220.4	0
5030	2010-08-25T13:00:00	61	20.89	79.97	1460.78	ND	ND	0.9	52	27	57.8	449.4	0
5031	2010-08-25T14:00:00	39	32.21	75.03	1234.03	ND	ND	0.9	87.4	28.5	54.3	562.6	0
5032	2010-08-25T15:00:00	49	28.02	61.40	1390.87	ND	ND	0.9	58.7	29.5	52.5	465.8	0
5033	2010-08-25T16:00:00	ND	54.90	73.44	1314.08	ND	ND	2.2	302.2	29.4	48.8	309.9	0
5034	2010-08-25T17:00:00	ND	58.28	78.42	1546.15	ND	ND	0.5	57.9	29.5	49.4	221.1	0
5035	2010-08-25T18:00:00	ND	ND	ND	ND	ND	ND	1.6	270	28.6	51.2	116.3	0
5036	2010-08-25T19:00:00	2	ND	ND	ND	ND	ND	2.7	280.3	27.1	55	1.2	0
5037	2010-08-25T20:00:00	2	15.07	ND	1372.88	ND	ND	1.9	275.6	26.3	58	0	0
5038	2010-08-25T21:00:00	5	8.61	ND	1231.15	ND	ND	3.2	278.8	25.5	61.5	0	0
5039	2010-08-25T22:00:00	3	7.35	29.56	1032.78	ND	ND	0.3	46.2	24.7	67.5	0	0
5040	2010-08-25T23:00:00	35	4.95	10.67	640.89	ND	ND	0.6	231.7	24.8	65.3	0	0
5041	2010-08-26T00:00:00	18	9.19	32.99	1602.77	ND	ND	0.9	55.3	23.6	73.7	0	0
5042	2010-08-26T01:00:00	20	14.29	26.26	1345.47	ND	ND	0.6	118.3	23.4	75.1	0	0
5043	2010-08-26T02:00:00	18	8.44	25.35	820.41	ND	ND	0.4	122.4	23.3	75.2	0	0
5044	2010-08-26T03:00:00	45	11.23	27.64	820.13	ND	ND	1.3	141.1	23.1	78.3	0	0
5045	2010-08-26T04:00:00	30	11.66	24.01	694.36	ND	ND	1.1	149.6	22.6	80.9	0	0
5046	2010-08-26T05:00:00	22	11.75	16.74	761.38	ND	ND	0.8	157	22.3	82.9	0	0
5047	2010-08-26T06:00:00	27	8.54	13.59	681.14	ND	ND	0.6	78.2	21.9	84.5	0	0
5048	2010-08-26T07:00:00	27	6.35	14.05	668.88	ND	ND	0.8	180	22.1	83.9	22.1	0
5049	2010-08-26T08:00:00	24	6.64	25.81	1066.39	ND	ND	1.6	206.7	22.8	81.2	137.6	0
5050	2010-08-26T09:00:00	23	7.59	28.87	1284.98	ND	ND	1	187.3	23.1	80.5	174.7	0
5051	2010-08-26T10:00:00	18	9.55	32.23	1673.31	ND	ND	1	179.1	24.9	73	426.5	0
5052	2010-08-26T11:00:00	23	14.88	43.23	1626.22	ND	ND	1.9	151.3	26.7	63	575.7	0
5053	2010-08-26T12:00:00	14	14.18	56.71	1543.87	ND	ND	1.3	148.4	27.7	57.6	544.6	0
5054	2010-08-26T13:00:00	24	12.35	56.86	1491.22	ND	ND	1.8	318.2	27.3	55.2	241.2	0
5055	2010-08-26T14:00:00	14	9.82	33.01	1096.73	ND	ND	2.5	330.1	26.9	57.8	388.4	0
5056	2010-08-26T15:00:00	9	7.96	30.65	1072.21	ND	ND	2.1	7.7	27	60.2	213.9	0
5057	2010-08-26T16:00:00	8	6.28	19.36	991.83	ND	ND	0.8	118.3	25.3	69.1	49	0
5058	2010-08-26T17:00:00	36	25.39	61.95	1571.06	ND	ND	0.5	243.7	24.6	72.5	62	0
5059	2010-08-26T18:00:00	26	24.05	83.21	2299.58	ND	ND	0.3	30.8	25.3	66.9	37.5	0
5060	2010-08-26T19:00:00	41	12.75	61.48	1983.90	ND	ND	0.9	268.3	25	61.9	1.1	0
5061	2010-08-26T20:00:00	22	18.55	87.15	2726.55	ND	ND	1	243.6	24.6	65	0	0
5062	2010-08-26T21:00:00	35	11.64	43.07	1521.61	ND	ND	1.5	208.5	23.5	75.8	0	0
5063	2010-08-26T22:00:00	27	10.90	46.40	1572.98	ND	ND	1.2	219.4	23.9	71.4	0	0
5064	2010-08-26T23:00:00	29	8.17	48.75	1734.90	ND	ND	1	187.5	23.3	75.8	0	0
5065	2010-08-27T00:00:00	35	8.65	45.17	1708.61	ND	ND	0.6	225.4	22.7	79.5	0	0
5066	2010-08-27T01:00:00	39	8.09	37.83	1671.05	ND	ND	1.1	202.5	22.7	79	0	0
5067	2010-08-27T02:00:00	25	5.30	30.59	1057.19	ND	ND	0.7	50.1	21.9	82.8	0	0
5068	2010-08-27T03:00:00	14	5.26	23.86	748.24	ND	ND	0.4	63.1	21.9	83.3	0	0
5069	2010-08-27T04:00:00	10	7.52	27.88	895.62	ND	ND	0.9	50	21.7	84.7	0	0
5070	2010-08-27T05:00:00	12	13.16	29.39	1008.30	ND	ND	0.4	48.9	21.5	83.1	0	0
5071	2010-08-27T06:00:00	20	19.19	27.16	803.83	ND	ND	0.9	173.9	21.6	84.8	0.1	0
5072	2010-08-27T07:00:00	25	22.04	26.27	781.45	ND	ND	0.5	94.7	21.6	87	28.8	0
5073	2010-08-27T08:00:00	29	17.77	26.37	1155.19	ND	ND	0.7	69.5	22	83.2	95.5	0
5074	2010-08-27T09:00:00	49	12.29	27.52	1735.13	ND	ND	0.7	180.7	23.2	78.3	302.3	0
5075	2010-08-27T10:00:00	25	15.81	41.84	2186.28	ND	ND	0.9	141.1	25.2	68.4	557	0
5076	2010-08-27T11:00:00	41	15.39	50.83	1604.93	ND	ND	1.2	107.1	26.7	59.2	549.8	0
5077	2010-08-27T12:00:00	25	18.71	71.43	1624.52	ND	ND	1.4	60.2	27.7	56.6	557	0
5078	2010-08-27T13:00:00	46	17.82	53.40	1236.91	ND	ND	0.8	64.5	28.9	52.9	730.1	0
5079	2010-08-27T14:00:00	42	17.57	54.80	1172.21	ND	ND	0.9	61.7	29.9	50	554.5	0
5080	2010-08-27T15:00:00	55	17.50	52.03	1467.20	ND	ND	1.1	13	30.2	48.6	233.9	0
5081	2010-08-27T16:00:00	53	20.71	50.46	1223.88	ND	ND	3.3	280.1	29.1	49.6	253.4	0
5082	2010-08-27T17:00:00	41	29.33	44.20	1219.44	ND	ND	3.9	273.5	29.2	48.3	344.3	0
5083	2010-08-27T18:00:00	22	10.92	29.20	1115.28	ND	ND	3.5	275.5	27.8	53.1	59.9	0
5084	2010-08-27T19:00:00	44	8.94	24.83	1052.30	ND	ND	3.7	275.9	26.6	56.9	1	0
5085	2010-08-27T20:00:00	42	8.03	32.93	1140.24	ND	ND	0.9	338.3	25.6	65.2	0	0
5086	2010-08-27T21:00:00	42	6.64	28.23	941.29	ND	ND	0.9	78.9	24.7	69.2	0	0
5087	2010-08-27T22:00:00	43	9.32	51.50	1499.23	ND	ND	0.7	140.6	23.9	75	0	0
5088	2010-08-27T23:00:00	52	13.00	52.11	1677.83	ND	ND	2.3	182	23.5	77.9	0	0
5089	2010-08-28T00:00:00	27	16.42	42.48	1481.79	ND	ND	1.5	149.9	23	79.4	0	0
5090	2010-08-28T01:00:00	26	10.67	31.39	967.23	ND	ND	0.4	166.1	22.8	79.8	0	0
5091	2010-08-28T02:00:00	16	7.65	19.03	750.52	ND	ND	0.9	36.5	22.9	79.3	0	0
5092	2010-08-28T03:00:00	24	7.00	21.71	830.40	ND	ND	1.1	41.4	22.6	81.8	0	0
5093	2010-08-28T04:00:00	20	7.07	25.30	772.74	ND	ND	1.2	20.3	22.4	83.3	0	0
5094	2010-08-28T05:00:00	33	13.77	27.26	749.50	ND	ND	1.3	24.7	21.8	85.5	0	0
5095	2010-08-28T06:00:00	17	34.94	29.89	849.98	ND	ND	1.2	44.4	21.5	88	0.1	0
5096	2010-08-28T07:00:00	33	24.81	17.31	577.40	ND	ND	0.9	52	21.4	88.3	33.5	0
5097	2010-08-28T08:00:00	35	21.85	21.70	713.01	ND	ND	0.9	70.9	21.9	84.8	170.1	0
5098	2010-08-28T09:00:00	24	21.68	26.93	1201.71	ND	ND	1	134.9	23.2	78.5	244.1	0
5099	2010-08-28T10:00:00	23	36.41	38.32	1366.43	ND	ND	1.4	142.1	24.6	72.2	474.6	0
5100	2010-08-28T11:00:00	32	48.85	61.05	1750.43	ND	ND	1.9	146.3	25.2	69.1	393.8	0
5101	2010-08-28T12:00:00	18	42.71	53.68	1398.58	ND	ND	0.7	131.8	26.6	61.8	550.9	0
5102	2010-08-28T13:00:00	28	42.94	45.73	1174.79	ND	ND	1.2	111.3	27.5	58.8	433.8	0
5103	2010-08-28T14:00:00	17	20.37	40.70	912.62	ND	ND	1.4	139.8	28	56.8	409.4	0
5104	2010-08-28T15:00:00	12	13.47	48.51	1064.57	ND	ND	0.6	107.1	29.3	51.6	542	0
5105	2010-08-28T16:00:00	7	11.03	40.75	952.95	ND	ND	0.5	183.4	29.4	51.7	219.7	0
5106	2010-08-28T17:00:00	ND	9.73	40.14	837.02	ND	ND	ND	ND	ND	ND	ND	ND
5107	2010-08-28T18:00:00	104	ND	ND	ND	ND	ND	0.2	356.6	28.6	54.6	122.2	0
5108	2010-08-28T19:00:00	54	ND	ND	ND	ND	ND	2.1	263.3	27.3	56.1	1.4	0
5109	2010-08-28T20:00:00	43	12.73	56.81	992.83	ND	ND	3.1	268.1	26.3	58.7	0	0
5110	2010-08-28T21:00:00	41	9.97	42.62	1127.59	ND	ND	2.4	270.1	25.8	60.4	0.1	0
5111	2010-08-28T22:00:00	21	9.01	42.30	1033.81	ND	ND	1.4	290.5	25.4	62	0.2	0
5112	2010-08-28T23:00:00	32	7.77	27.40	722.70	ND	ND	0.3	80.2	24.4	69.5	0.4	0
5113	2010-08-29T00:00:00	27	7.74	34.28	868.91	ND	ND	0.6	259.3	24.3	67.2	0.3	0
5114	2010-08-29T01:00:00	20	10.64	43.76	1645.80	ND	ND	1	182.3	24.1	70	0.3	0
5115	2010-08-29T02:00:00	11	10.29	32.82	1210.68	ND	ND	1.4	161.5	23.4	76.8	0.3	0
5116	2010-08-29T03:00:00	27	8.91	36.51	1173.64	ND	ND	1.5	152.9	23	78.7	0.2	0
5117	2010-08-29T04:00:00	14	8.07	34.74	1046.89	ND	ND	0.7	126.9	22.2	85.6	0.2	0
5118	2010-08-29T05:00:00	38	8.12	24.89	885.18	ND	ND	0.7	137.7	22.1	84.1	0.2	0
5119	2010-08-29T06:00:00	34	7.32	25.09	998.32	ND	ND	0.5	152.1	22	85.8	0.5	0
5120	2010-08-29T07:00:00	51	6.95	24.29	986.64	ND	ND	0.4	251	22.2	79.8	19.8	0
5121	2010-08-29T08:00:00	46	7.19	21.49	1044.06	ND	ND	0.9	4.4	22.7	80.4	106.6	0
5122	2010-08-29T09:00:00	41	6.99	19.89	852.57	ND	ND	0.8	87.6	23.7	76.5	267.5	0
5123	2010-08-29T10:00:00	36	8.58	38.78	1311.70	ND	ND	0.3	80.5	25.7	67.4	391.1	0
5124	2010-08-29T11:00:00	46	14.21	50.18	1332.03	ND	ND	1.5	38.5	27.2	60.5	556.2	0
5125	2010-08-29T12:00:00	24	17.47	53.68	1269.47	ND	ND	1.3	66.9	28.1	57.4	524.6	0
5126	2010-08-29T13:00:00	21	19.72	32.41	937.60	ND	ND	1	356	29.5	51.9	748.4	0
5127	2010-08-29T14:00:00	11	17.61	27.21	907.07	ND	ND	0.6	161.8	30	50.4	530.8	0
5128	2010-08-29T15:00:00	26	23.55	11.59	617.36	ND	ND	0.8	8.3	28.6	55.6	111.7	0
5129	2010-08-29T16:00:00	29	19.39	15.82	776.83	ND	ND	3.8	266.2	25.7	61.9	201.9	0
5130	2010-08-29T17:00:00	30	18.46	26.24	803.81	ND	ND	3.6	263.3	27.4	56.9	294.5	0
5131	2010-08-29T18:00:00	16	17.64	14.16	508.13	ND	ND	2.9	266.5	27.8	55	132.2	0
5132	2010-08-29T19:00:00	11	9.81	10.46	393.17	ND	ND	2.8	270.4	26.4	57.6	1.6	0
5133	2010-08-29T20:00:00	10	7.95	11.94	379.83	ND	ND	3.2	264.7	25.5	61.7	0	0
5134	2010-08-29T21:00:00	19	7.32	18.64	665.57	ND	ND	3	264.7	25.1	62.7	0	0
5135	2010-08-29T22:00:00	10	6.79	15.71	721.97	ND	ND	0.4	36.2	24.3	68.2	0	0
5136	2010-08-29T23:00:00	23	6.54	15.84	651.46	ND	ND	1.3	241.2	24.4	65.8	0	0
5137	2010-08-30T00:00:00	12	8.03	28.50	926.07	ND	ND	1.4	254.1	24.3	65.3	0	0
5138	2010-08-30T01:00:00	7	9.52	25.50	1051.48	ND	ND	0.5	266.4	23.9	68.7	0.1	0
5139	2010-08-30T02:00:00	5	6.45	3.34	353.83	ND	ND	0.6	186.2	23.2	73.8	0	0
5140	2010-08-30T03:00:00	4	7.16	15.63	660.44	ND	ND	0.4	117	22.3	79.9	0	0
5141	2010-08-30T04:00:00	3	6.57	22.28	510.85	ND	ND	0.7	252	22.1	77.1	0.1	0
5142	2010-08-30T05:00:00	12	6.02	19.47	397.06	ND	ND	0.4	237.6	21.9	74.7	0	0
5143	2010-08-30T06:00:00	6	6.95	16.91	340.11	ND	ND	0.8	231.2	21.8	74.2	0.5	0
5144	2010-08-30T07:00:00	4	6.69	9.88	147.33	ND	ND	0.8	214	21.8	73	29.6	0
5145	2010-08-30T08:00:00	19	6.77	16.12	181.33	ND	ND	0.7	241.3	22.6	71.3	95.8	0
5146	2010-08-30T09:00:00	31	8.01	24.25	863.65	ND	ND	0.5	97.9	25	65	411.6	0
5147	2010-08-30T10:00:00	28	11.48	43.17	1890.25	ND	ND	1	128.6	26.7	60	632.6	0
5148	2010-08-30T11:00:00	36	20.79	72.64	1601.48	ND	ND	0.6	91.6	28.2	55.6	719.3	0
5149	2010-08-30T12:00:00	21	28.31	75.19	1493.70	ND	ND	1.6	83.2	29.7	50.7	834.9	0
5150	2010-08-30T13:00:00	33	27.23	45.05	1198.59	ND	ND	0.7	56.2	30.8	47.5	929.4	0
5151	2010-08-30T14:00:00	25	21.88	54.90	1273.02	ND	ND	1.2	128.8	30.8	47.2	256.3	0
5152	2010-08-30T15:00:00	40	22.01	37.79	1086.15	ND	ND	2.7	281.7	30.7	47.1	418.4	0
5153	2010-08-30T16:00:00	22	25.26	52.02	1155.84	ND	ND	2.8	280.2	31	45.5	451.6	0
5154	2010-08-30T17:00:00	15	15.08	29.30	841.44	ND	ND	3.4	273.1	30.6	45.8	295.7	0
5155	2010-08-30T18:00:00	8	10.41	21.22	852.01	ND	ND	4.3	269.9	29.1	50.9	114.3	0
5156	2010-08-30T19:00:00	28	10.20	31.49	1080.07	ND	ND	4.3	273.6	27.2	56.5	1.1	0
5157	2010-08-30T20:00:00	15	9.40	26.56	1130.98	ND	ND	5.5	265.6	26.1	61.6	0	0
5158	2010-08-30T21:00:00	9	7.94	24.08	1046.35	ND	ND	3.2	283.2	26.2	60.3	0	0
5159	2010-08-30T22:00:00	5	6.92	12.18	770.65	ND	ND	1.4	288.3	26.3	59.1	0	0
5160	2010-08-30T23:00:00	5	6.11	11.03	632.83	ND	ND	2.3	244.6	26.1	60.9	0	0
5161	2010-08-31T00:00:00	4	7.76	21.78	873.88	ND	ND	2.2	186.4	24.9	71.7	0	0.25
5162	2010-08-31T01:00:00	29	5.84	13.22	389.38	ND	ND	3.2	239.6	21.5	85	0	12.7
5163	2010-08-31T02:00:00	16	7.28	23.17	520.79	ND	ND	0.6	307.2	22.8	82.5	0	0
5164	2010-08-31T03:00:00	9	5.46	1.89	250.17	ND	ND	1.3	358.3	20.8	95.2	0	39.88
5165	2010-08-31T04:00:00	7	4.91	3.29	327.54	ND	ND	1.2	309.3	19.5	98.2	0	48.51
5166	2010-08-31T05:00:00	4	4.91	11.06	438.54	ND	ND	1	332	18.8	99.4	0	64.01
5167	2010-08-31T06:00:00	3	5.03	4.67	403.84	ND	ND	0.6	173.4	19.1	100	0	3.3
5168	2010-08-31T07:00:00	3	4.78	7.98	471.63	ND	ND	0.5	238.5	20.3	96.2	21.6	0.25
5169	2010-08-31T08:00:00	3	5.36	47.42	958.41	ND	ND	1.4	190.7	21.5	86	100.8	0
5170	2010-08-31T09:00:00	13	6.16	51.99	1551.05	ND	ND	0.8	178	22	85.2	185.4	0.25
5171	2010-08-31T10:00:00	25	8.22	51.20	2358.87	ND	ND	1.2	124.8	22.5	80.9	274.5	0
5172	2010-08-31T11:00:00	39	9.04	43.52	1806.23	ND	ND	1.1	145.3	23	78.5	231.5	0
5173	2010-08-31T12:00:00	23	11.63	63.20	1832.05	ND	ND	0.9	134	23.1	76.5	262.7	0
5174	2010-08-31T13:00:00	44	10.41	47.96	1343.20	ND	ND	0.2	186	25.2	66.4	627	0
5175	2010-08-31T14:00:00	23	10.41	55.71	1421.51	ND	ND	0.9	326.9	26.6	58.7	593.3	0
5176	2010-08-31T15:00:00	32	15.73	57.60	1416.66	ND	ND	2.4	82.5	23.3	82.6	150.4	0.76
5177	2010-08-31T16:00:00	23	11.85	24.81	751.79	ND	ND	1.5	61.8	22.6	86.7	198.9	1.27
5178	2010-08-31T17:00:00	45	15.75	61.52	1477.30	ND	ND	1.3	13.3	23.1	82.4	75	0.25
5179	2010-08-31T18:00:00	24	10.57	65.57	1707.45	ND	ND	0.6	81.6	23.1	81.8	25.6	0
5180	2010-08-31T19:00:00	66	11.72	69.06	1684.69	ND	ND	0.4	118	23	80.2	0	0
5181	2010-08-31T20:00:00	39	12.13	70.77	2207.56	ND	ND	1.5	226.1	21.4	86.3	0	1.02
5182	2010-08-31T21:00:00	42	11.13	66.58	2637.02	ND	ND	1.2	251	21.3	84.6	0	2.54
5183	2010-08-31T22:00:00	22	7.79	48.40	1459.48	ND	ND	0.9	205.4	21.6	86	0	0
5184	2010-08-31T23:00:00	22	6.01	38.52	1211.81	ND	ND	0.3	174.7	21.8	85.2	0	0
5185	2010-09-01T00:00:00	12	5.39	43.38	1597.96	ND	ND	1	181.4	20.8	92.8	0	1.02
5186	2010-09-01T01:00:00	15	5.92	37.36	1253.70	ND	ND	1	208.7	20.2	95.3	0	1.27
5187	2010-09-01T02:00:00	10	4.33	34.15	890.45	ND	ND	0.9	169.8	20.2	95.6	0	2.03
5188	2010-09-01T03:00:00	6	3.82	26.50	473.40	ND	ND	1.1	157	19.7	96.1	0	8.89
5189	2010-09-01T04:00:00	4	4.30	23.85	753.91	ND	ND	0.7	189.7	19.2	98.8	0	39.62
5190	2010-09-01T05:00:00	4	4.21	14.39	584.12	ND	ND	0.8	171.5	19.1	99.3	0	14.48
5191	2010-09-01T06:00:00	3	3.98	17.26	516.55	ND	ND	0.7	179.9	19.1	98.6	0	7.37
5192	2010-09-01T07:00:00	2	3.83	18.83	572.69	ND	ND	0.4	182.5	19.1	97.3	3.8	6.86
5193	2010-09-01T08:00:00	3	3.96	28.06	673.76	ND	ND	0.2	180.9	19.4	95.5	47.1	4.06
5194	2010-09-01T09:00:00	4	5.09	35.46	1247.73	ND	ND	0.2	153.1	20	93.3	85.6	1.02
5195	2010-09-01T10:00:00	4	4.84	48.07	1858.54	ND	ND	0.2	90.5	21.2	88.9	258.9	0.25
5196	2010-09-01T11:00:00	20	6.42	74.14	2793.57	ND	ND	0.6	80.7	22.2	83.2	267.8	0
5197	2010-09-01T12:00:00	19	7.06	117.24	3030.03	ND	ND	0.6	105.8	23.5	75.6	387.5	0
5198	2010-09-01T13:00:00	34	6.13	101.27	2256.88	ND	ND	0.7	153.9	24.9	69.5	519.8	0
5199	2010-09-01T14:00:00	20	5.58	82.41	1786.55	ND	ND	1.2	162.3	26.3	62.1	743.5	0
5200	2010-09-01T15:00:00	25	6.05	59.21	1415.24	ND	ND	0.7	261.2	26.3	58.8	179.3	0
5201	2010-09-01T16:00:00	14	5.89	31.53	724.88	ND	ND	0.7	36.2	24.9	68.6	117.3	2.54
5202	2010-09-01T17:00:00	35	6.99	31.91	675.68	ND	ND	1.7	48.2	20.8	90.6	18.6	4.57
5203	2010-09-01T18:00:00	32	12.76	66.64	1355.35	ND	ND	1.3	8.6	21	88.7	2.3	2.03
5204	2010-09-01T19:00:00	41	12.56	61.80	1684.04	ND	ND	1	46.1	20.9	88.5	0	0.25
5205	2010-09-01T20:00:00	54	15.48	67.99	2824.61	ND	ND	0.7	173.9	20.9	88	0	0
5206	2010-09-01T21:00:00	37	21.50	68.36	3344.34	ND	ND	1.5	181.1	20.8	87.6	0	0
5207	2010-09-01T22:00:00	21	25.39	47.59	2134.68	ND	ND	0.4	164.4	21.1	85.9	0	0
5208	2010-09-01T23:00:00	21	18.39	43.79	1673.31	ND	ND	0.8	187.3	21.1	88	0	0
5209	2010-09-02T00:00:00	16	14.79	47.96	2509.96	ND	ND	0.3	54.1	21	89.6	0	0.25
5210	2010-09-02T01:00:00	22	11.17	39.73	1797.07	ND	ND	0.7	5.2	20.5	92.8	0	0.51
5211	2010-09-02T02:00:00	29	10.86	35.13	1432.95	ND	ND	0.5	132.6	20.1	95.7	0	7.62
5212	2010-09-02T03:00:00	16	10.88	32.88	1295.79	ND	ND	0.7	99.2	19.6	98.2	0	7.62
5213	2010-09-02T04:00:00	9	9.98	22.51	742.40	ND	ND	0.8	133.5	19.5	97.5	0	4.06
5214	2010-09-02T05:00:00	6	7.30	10.65	528.50	ND	ND	1	137.1	19.4	96.9	0	4.32
5215	2010-09-02T06:00:00	4	5.96	7.00	236.06	ND	ND	0.7	145.6	19.4	96.7	0	3.05
5216	2010-09-02T07:00:00	16	4.91	8.80	348.46	ND	ND	0.6	59.5	19.5	96.8	1.6	2.79
5217	2010-09-02T08:00:00	10	5.27	25.68	764.64	ND	ND	0.7	70.7	19.6	96.2	18.7	1.27
5218	2010-09-02T09:00:00	24	6.90	34.10	1552.29	ND	ND	1	75.3	19.9	95	110.5	0.51
5219	2010-09-02T10:00:00	14	8.45	40.52	2420.90	ND	ND	0.9	70.6	21	88.6	305.6	0
5220	2010-09-02T11:00:00	19	9.51	47.87	2192.65	ND	ND	0.8	111.8	22.6	79.7	445.2	0
5221	2010-09-02T12:00:00	16	8.84	54.67	1625.02	ND	ND	0.9	103.1	23.7	73.1	379.8	0
5222	2010-09-02T13:00:00	27	12.55	50.07	1129.20	ND	ND	1.3	71.7	24.6	69.6	553.6	0
5223	2010-09-02T14:00:00	15	10.10	64.01	1315.68	ND	ND	1.6	20.4	25.6	64.4	530.3	0
5224	2010-09-02T15:00:00	10	12.08	50.20	1170.87	ND	ND	1.5	14.3	26.2	61.6	379.9	0
5225	2010-09-02T16:00:00	7	22.23	35.80	644.12	ND	ND	1.3	36.5	26.5	59.9	488.9	0
5226	2010-09-02T17:00:00	5	35.45	47.13	736.88	ND	ND	0.9	5.1	26.3	60.8	192.8	0
5227	2010-09-02T18:00:00	14	49.37	56.77	747.89	ND	ND	1.7	281.8	25.9	56.3	120.2	0
5228	2010-09-02T19:00:00	11	37.08	55.31	976.71	ND	ND	2	276.4	24.2	61.8	0.8	0
5229	2010-09-02T20:00:00	14	15.21	32.93	971.15	ND	ND	2.1	279.4	23.6	64.6	0	0
5230	2010-09-02T21:00:00	13	12.31	42.29	1254.25	ND	ND	1.6	285.7	23.1	66.6	0	0
5231	2010-09-02T22:00:00	13	9.45	39.09	933.41	ND	ND	1.1	296.3	22.3	71.7	0	0
5232	2010-09-02T23:00:00	23	8.02	35.82	794.66	ND	ND	0.3	341.5	21.3	79.5	0	0
5233	2010-09-03T00:00:00	57	8.44	31.25	1176.64	ND	ND	0.4	220.5	20.6	83.5	0	0
5234	2010-09-03T01:00:00	46	10.74	33.40	1896.20	ND	ND	1.6	248.3	20.7	77.1	0	0
5235	2010-09-03T02:00:00	26	13.09	30.22	1772.65	ND	ND	1.1	229.5	20.5	76	0	0
5236	2010-09-03T03:00:00	14	11.56	19.42	801.10	ND	ND	0.8	235.2	20	79.9	0	0
5237	2010-09-03T04:00:00	8	8.81	7.81	484.35	ND	ND	0.4	332.2	19.9	81	0	0
5238	2010-09-03T05:00:00	6	7.52	14.77	731.90	ND	ND	0.2	289.4	20	81.2	0	0
5239	2010-09-03T06:00:00	32	7.32	13.98	619.51	ND	ND	0.3	208.5	20.2	78.1	0	0
5240	2010-09-03T07:00:00	20	10.16	22.18	879.18	ND	ND	0.3	32.3	20.2	83.7	20.4	0
5241	2010-09-03T08:00:00	74	14.21	17.51	665.02	ND	ND	0.1	129.1	21.1	81.4	176.1	0
5242	2010-09-03T09:00:00	115	20.04	34.16	2283.84	ND	ND	0.6	135.6	22.9	72.8	245	0
5243	2010-09-03T10:00:00	115	57.99	71.23	3480.85	ND	ND	1	173	23.8	68.6	464.7	0
5244	2010-09-03T11:00:00	86	36.04	152.00	3308.88	ND	ND	0.8	129.1	25	63.3	455.7	0
5245	2010-09-03T12:00:00	79	23.40	67.14	1443.47	ND	ND	1.1	80.3	26.3	58	634.2	0
5246	2010-09-03T13:00:00	74	ND	ND	ND	ND	ND	1.4	74.4	26.6	58	448.5	0
5247	2010-09-03T14:00:00	51	ND	ND	1451.22	ND	ND	1.2	87.1	27	56.6	497.2	0
5248	2010-09-03T15:00:00	52	20.97	78.50	1591.55	ND	ND	1.1	67.6	27.5	54.7	433.6	0
5249	2010-09-03T16:00:00	40	17.86	68.62	1212.98	ND	ND	1.1	102.6	27.6	54.6	243.7	0
5250	2010-09-03T17:00:00	55	17.44	72.38	1305.83	ND	ND	0.5	78.6	27.4	55.3	128	0
5251	2010-09-03T18:00:00	47	17.78	95.56	1674.51	ND	ND	1.2	283.2	26.7	55.8	47.9	0
5252	2010-09-03T19:00:00	60	17.76	84.94	1555.39	ND	ND	3.3	270.7	25.5	58.3	0.6	0
5253	2010-09-03T20:00:00	32	15.20	69.69	1411.46	ND	ND	2.5	275.1	25.3	59.2	0	0
5254	2010-09-03T21:00:00	18	9.91	41.87	1066.49	ND	ND	1	274.4	25.2	59.5	0	0
5255	2010-09-03T22:00:00	10	8.68	37.60	940.03	ND	ND	0.5	2.4	24	68.5	0	0
5256	2010-09-03T23:00:00	49	9.01	53.50	1461.46	ND	ND	0.5	221.5	23.4	73.2	0	0
5257	2010-09-04T00:00:00	34	10.42	44.17	1675.00	ND	ND	1.8	246.4	24	66.3	0	0
5258	2010-09-04T01:00:00	22	20.40	47.85	1587.05	ND	ND	0.1	225.4	23.3	73.1	0	0
5259	2010-09-04T02:00:00	30	13.60	24.72	626.49	ND	ND	0.7	89.1	22.1	80.6	0	0
5260	2010-09-04T03:00:00	38	14.32	39.50	1418.07	ND	ND	0.6	170.6	21.9	80.4	0	0
5261	2010-09-04T04:00:00	22	11.69	34.13	997.65	ND	ND	0.8	19.7	21.7	82.7	0	0
5262	2010-09-04T05:00:00	43	11.27	28.65	713.74	ND	ND	0.9	242.7	21.5	84.4	0	0
5263	2010-09-04T06:00:00	23	10.33	30.88	747.22	ND	ND	0.6	264.1	21.4	84.9	0	0
5264	2010-09-04T07:00:00	23	9.63	31.54	690.38	ND	ND	0.3	147.6	21.4	80.5	19.3	0
5265	2010-09-04T08:00:00	33	8.08	27.11	622.47	ND	ND	0.9	65.8	21.6	82.2	68.9	0
5266	2010-09-04T09:00:00	65	9.90	57.68	1483.62	ND	ND	0.7	166	22.8	77	364.8	0
5267	2010-09-04T10:00:00	47	11.91	65.60	2012.76	ND	ND	0.6	175.5	24.6	67.9	567.7	0
5268	2010-09-04T11:00:00	32	11.64	72.47	1738.99	ND	ND	1.1	142	25.3	64.6	411.2	0
5269	2010-09-04T12:00:00	23	11.38	64.69	1284.37	ND	ND	1.2	137.2	27.4	57.4	756.4	0
5270	2010-09-04T13:00:00	33	15.03	58.36	900.77	ND	ND	1.2	118.1	27.5	56.9	461.6	0
5271	2010-09-04T14:00:00	25	16.83	61.95	912.62	ND	ND	1.2	50.6	28.1	55	442.5	0
5272	2010-09-04T15:00:00	40	14.51	66.85	1192.25	ND	ND	0.9	295	27.8	53.3	169.6	0
5273	2010-09-04T16:00:00	20	13.91	57.00	1110.12	ND	ND	3.2	269.2	25.1	66.4	118.5	2.03
5274	2010-09-04T17:00:00	11	13.73	41.56	1031.39	ND	ND	3	265.6	25.7	61.3	164.7	0
5275	2010-09-04T18:00:00	6	9.06	35.17	1021.99	ND	ND	2.8	251	24.7	65.1	24.4	0
5276	2010-09-04T19:00:00	13	8.22	36.84	938.45	ND	ND	2.5	194.3	21.4	85.1	0	13.72
5277	2010-09-04T20:00:00	7	8.13	36.58	826.19	ND	ND	1.3	239	21.3	85.8	0	1.52
5278	2010-09-04T21:00:00	10	7.61	56.75	1108.76	ND	ND	0.4	274.9	21.6	85.5	0	0
5279	2010-09-04T22:00:00	11	7.43	68.43	1483.62	ND	ND	0.7	206	21.2	85.7	0	0
5280	2010-09-04T23:00:00	7	8.17	66.64	1673.88	ND	ND	0.4	177.1	20.9	89.6	0	0.25
5281	2010-09-05T00:00:00	5	8.01	54.18	1378.41	ND	ND	0.9	211.8	20.7	86.8	0	0
5282	2010-09-05T01:00:00	28	9.01	68.53	2235.57	ND	ND	0.3	232.8	20.7	83.1	0	0
5283	2010-09-05T02:00:00	17	8.03	50.23	1287.15	ND	ND	0.5	266.4	20.9	81.6	0	0
5284	2010-09-05T03:00:00	20	7.70	36.54	700.50	ND	ND	0.2	197.7	21	81.4	0	0
5285	2010-09-05T04:00:00	10	7.03	29.47	497.30	ND	ND	0.8	61	20.2	89.2	0	0
5286	2010-09-05T05:00:00	17	8.28	25.61	349.42	ND	ND	0.3	62.2	20	91.4	0	0
5287	2010-09-05T06:00:00	34	7.99	34.65	675.83	ND	ND	0.5	2.2	20.3	91	0	0
5288	2010-09-05T07:00:00	46	7.76	36.18	608.87	ND	ND	0.2	285.2	20.5	87.5	5.4	0
5289	2010-09-05T08:00:00	34	18.27	45.21	1004.19	ND	ND	0.1	81.8	21	84.7	84.4	0
5290	2010-09-05T09:00:00	50	53.15	38.46	1062.42	ND	ND	0.4	91.8	22	82.1	191.5	0
5291	2010-09-05T10:00:00	50	40.52	44.13	1190.78	ND	ND	0.5	55.5	23.2	75.1	468.1	0
5292	2010-09-05T11:00:00	48	63.83	62.90	1138.69	ND	ND	0.3	75.3	25.5	64.6	737.1	0
5293	2010-09-05T12:00:00	36	91.81	59.86	1032.78	ND	ND	0.7	127.9	27.1	58.3	822	0
5294	2010-09-05T13:00:00	40	74.68	47.82	992.17	ND	ND	1	82.3	28	54.7	760.4	0
5295	2010-09-05T14:00:00	31	49.02	44.61	821.57	ND	ND	1.1	76.4	28.8	51.3	785.8	0
5296	2010-09-05T15:00:00	31	28.90	48.39	904.97	ND	ND	1.1	60.4	29.4	48.9	510.1	0
5297	2010-09-05T16:00:00	23	20.71	33.94	813.77	ND	ND	0.9	25.9	29.4	49.3	345.1	0
5298	2010-09-05T17:00:00	38	18.91	37.67	860.27	ND	ND	2.5	294.2	28.9	51.4	317.6	0
5299	2010-09-05T18:00:00	19	19.30	31.54	789.21	ND	ND	3	276	27.1	55.5	68.6	0
5300	2010-09-05T19:00:00	18	12.64	12.31	380.71	ND	ND	4	266.8	26	57.8	0.1	0
5301	2010-09-05T20:00:00	11	10.41	11.45	413.80	ND	ND	3.6	264.3	25.5	59.9	0	0
5302	2010-09-05T21:00:00	16	9.68	13.62	493.44	ND	ND	2.2	271.1	25.1	61.5	0	0
5303	2010-09-05T22:00:00	20	8.49	21.37	630.30	ND	ND	0.5	171.7	24.6	65.5	0	0
5304	2010-09-05T23:00:00	25	8.58	26.92	675.00	ND	ND	1.4	255.7	24.4	65.7	0	0
5305	2010-09-06T00:00:00	14	12.84	49.77	1543.46	ND	ND	0.4	36.4	23.4	74.5	0	0
5306	2010-09-06T01:00:00	51	9.54	24.75	660.88	ND	ND	0.3	65.4	22.8	77.4	0	0
5307	2010-09-06T02:00:00	58	11.86	49.30	1557.90	ND	ND	0.7	148.5	22.2	81.2	0	0
5308	2010-09-06T03:00:00	53	14.85	42.63	1123.49	ND	ND	1.1	162.7	22.3	79.7	0	0
5309	2010-09-06T04:00:00	41	11.32	33.31	817.36	ND	ND	0.6	153.7	22.2	79	0	0
5310	2010-09-06T05:00:00	37	9.71	24.85	646.86	ND	ND	0.3	175.7	22.1	79.5	0	0
5311	2010-09-06T06:00:00	38	9.29	17.16	533.20	ND	ND	0.5	128.9	22.1	80.7	0	0
5312	2010-09-06T07:00:00	49	8.64	20.40	578.57	ND	ND	0.2	135.2	21.9	85.2	29.1	0.25
5313	2010-09-06T08:00:00	46	9.05	35.47	1020.32	ND	ND	1.3	147.5	22.2	84.2	106.3	0
5314	2010-09-06T09:00:00	64	10.07	46.10	1951.93	ND	ND	1.4	165.2	23.3	77	370.8	0
5315	2010-09-06T10:00:00	38	13.39	57.75	3098.28	ND	ND	1.4	139	25.2	67.8	548.3	0
5316	2010-09-06T11:00:00	49	14.50	52.49	1536.14	ND	ND	1.3	110	26.3	63	524.9	0
5317	2010-09-06T12:00:00	31	18.08	54.93	1185.12	ND	ND	0.8	218.2	26.1	62.3	227.2	1.78
5318	2010-09-06T13:00:00	36	26.56	59.11	1149.84	ND	ND	3.3	296	21.3	84.7	31.9	24.38
5319	2010-09-06T14:00:00	18	21.01	45.92	1052.19	ND	ND	3.4	262.6	22.9	77.2	428.2	7.11
5320	2010-09-06T15:00:00	10	10.46	32.65	819.02	ND	ND	3	288.1	26.9	55.5	703.1	0
5321	2010-09-06T16:00:00	5	9.10	41.34	979.97	ND	ND	2.1	246.3	25.8	60.4	42.3	0
5322	2010-09-06T17:00:00	12	8.64	28.10	735.16	ND	ND	1.1	84.5	22.4	84.7	38.1	1.02
5323	2010-09-06T18:00:00	10	9.71	49.23	1226.46	ND	ND	1	134.7	22	86.7	9	0.25
5324	2010-09-06T19:00:00	32	10.69	66.49	1927.93	ND	ND	1.4	160.2	21.6	85.7	0	0
5325	2010-09-06T20:00:00	18	11.29	71.87	2480.26	ND	ND	0.9	161.9	21.1	87.1	0	0
5326	2010-09-06T21:00:00	29	9.59	65.43	1548.94	ND	ND	1	166.8	20.7	86.9	0	0
5327	2010-09-06T22:00:00	16	9.35	67.88	1580.71	ND	ND	0.4	203.8	20.8	87.1	0	0
5328	2010-09-06T23:00:00	14	8.63	68.93	1784.55	ND	ND	0.3	110	20.7	88.3	0	0
5329	2010-09-07T00:00:00	23	9.06	65.56	1546.84	ND	ND	0.9	154.1	20.1	91.2	0	0
5330	2010-09-07T01:00:00	22	10.62	63.50	2016.92	ND	ND	0.4	124.3	19.6	93.4	0	0
5331	2010-09-07T02:00:00	12	7.80	39.02	787.39	ND	ND	0.5	61.2	19.8	92.6	0	0
5332	2010-09-07T03:00:00	25	6.08	23.00	180.10	ND	ND	1.1	32.8	19.6	93.3	0	0
5333	2010-09-07T04:00:00	28	6.02	29.26	281.21	ND	ND	0.7	11.7	19.6	93.1	0	0
5334	2010-09-07T05:00:00	68	18.63	31.94	404.95	ND	ND	0	298.5	19.6	92.4	0	0
5335	2010-09-07T06:00:00	66	118.73	39.17	416.19	ND	ND	0.2	235.1	19.6	89.9	0	0
5336	2010-09-07T07:00:00	63	115.31	39.91	528.68	ND	ND	0.1	75.8	19.7	88.4	20.7	0
5337	2010-09-07T08:00:00	81	58.40	27.31	641.38	ND	ND	0.7	122.3	20.1	90.5	122	0
5338	2010-09-07T09:00:00	114	33.74	32.55	1712.69	ND	ND	1	93.6	21.4	83.9	365.1	0
5339	2010-09-07T10:00:00	119	42.87	64.45	3067.09	ND	ND	1.4	109.8	23.2	75.5	575.8	0
5340	2010-09-07T11:00:00	111	56.93	97.35	2516.50	ND	ND	1.4	105.6	24.1	71	506.1	0
5341	2010-09-07T12:00:00	92	51.31	91.62	1793.17	ND	ND	1	52.4	24.9	67.2	448	0
5342	2010-09-07T13:00:00	61	47.57	75.95	1408.62	ND	ND	1.4	54.5	25.8	63.4	304.5	0
5343	2010-09-07T14:00:00	38	56.72	59.13	976.38	ND	ND	2.5	47.2	25.9	61.2	219.7	0
5344	2010-09-07T15:00:00	33	32.93	67.59	1229.50	ND	ND	3.5	38.7	25.4	60.4	226.7	0
5345	2010-09-07T16:00:00	18	20.05	55.52	1124.20	ND	ND	2.6	29.8	24.5	66.4	199.6	0
5346	2010-09-07T17:00:00	35	18.02	62.14	1246.62	ND	ND	1.8	12.3	24.4	68.7	136.8	0
5347	2010-09-07T18:00:00	46	23.27	73.32	1303.36	ND	ND	1.9	42.6	24.4	64.1	33.3	0
5348	2010-09-07T19:00:00	64	69.69	96.03	1429.13	ND	ND	1	72.4	23.4	69.2	0	0
5349	2010-09-07T20:00:00	50	102.34	103.84	1891.50	ND	ND	0.3	163	22.8	75.4	0	0
5350	2010-09-07T21:00:00	55	37.04	100.39	2786.02	ND	ND	0.7	244.4	22.7	76	0	0
5351	2010-09-07T22:00:00	46	22.31	94.87	2409.94	ND	ND	0.9	262.6	22.3	77	0	0
5352	2010-09-07T23:00:00	41	21.42	85.85	2247.75	ND	ND	0.3	195.5	22.1	78.7	0	0
5353	2010-09-08T00:00:00	28	18.03	58.96	1633.62	ND	ND	0.6	187.9	21.7	84.2	0	0
5354	2010-09-08T01:00:00	35	14.48	50.33	1461.47	ND	ND	0.6	223.6	21.6	82	0	0
5355	2010-09-08T02:00:00	19	11.40	54.61	1347.72	ND	ND	1.1	162.9	20.8	89.9	0	0
5356	2010-09-08T03:00:00	30	10.20	34.48	779.33	ND	ND	0.3	147.7	20.6	91.1	0	0
5357	2010-09-08T04:00:00	22	8.08	22.04	586.92	ND	ND	0.1	160.9	20.7	90.8	0	0
5358	2010-09-08T05:00:00	20	7.31	21.61	598.41	ND	ND	0.4	79	20.6	90	0	0
5359	2010-09-08T06:00:00	26	7.02	27.48	564.35	ND	ND	0.1	356.2	20.4	90.9	0	0
5360	2010-09-08T07:00:00	39	6.48	30.11	755.71	ND	ND	0.4	235.9	20.6	85.9	12.3	0
5361	2010-09-08T08:00:00	28	7.74	36.96	1038.40	ND	ND	0.4	241.4	21.2	78.3	63.5	0
5362	2010-09-08T09:00:00	61	10.30	35.01	1334.58	ND	ND	0.8	106.3	22	81.7	227	0
5363	2010-09-08T10:00:00	70	16.60	48.03	2528.99	ND	ND	1.2	135.9	23.6	75.1	585.9	0
5364	2010-09-08T11:00:00	76	17.13	85.18	2964.59	ND	ND	1	149.5	25.7	62.5	830.8	0
5365	2010-09-08T12:00:00	40	20.35	99.91	2043.97	ND	ND	1.1	138.2	27.3	55.9	723.2	0
5366	2010-09-08T13:00:00	22	16.93	56.12	1050.55	ND	ND	1.3	122	27.9	53	626.1	0
5367	2010-09-08T14:00:00	12	13.84	59.16	1075.78	ND	ND	1.2	91.9	28.6	50.1	773.8	0
5368	2010-09-08T15:00:00	17	13.29	61.23	1055.10	ND	ND	1.4	92.1	28.8	50.6	442.1	0
5369	2010-09-08T16:00:00	18	11.04	42.31	777.34	ND	ND	1.5	131.6	28.1	53.2	209.5	0
5370	2010-09-08T17:00:00	38	12.55	56.69	1076.50	ND	ND	1.4	55.5	27.1	55.9	85.2	0
5371	2010-09-08T18:00:00	40	13.59	78.18	1234.44	ND	ND	1.4	24.6	25.6	59.5	28.8	0
5372	2010-09-08T19:00:00	37	16.02	70.68	1182.35	ND	ND	2.1	12.3	23.1	68.9	0	0
5373	2010-09-08T20:00:00	52	23.87	64.32	1252.13	ND	ND	1.6	36.4	22.8	71.6	0	0
5374	2010-09-08T21:00:00	78	23.46	73.77	1705.72	ND	ND	2.1	40.6	22.7	72.2	0	0
5375	2010-09-08T22:00:00	67	61.26	72.59	2080.28	ND	ND	1.5	32.1	22	75.1	0	0
5376	2010-09-08T23:00:00	72	40.15	51.05	1326.87	ND	ND	0.1	49.2	21.9	77.3	0	0
5377	2010-09-09T00:00:00	50	30.73	49.39	1349.09	ND	ND	0.8	154.2	21.8	78	0	0
5378	2010-09-09T01:00:00	47	32.01	52.65	1121.97	ND	ND	1.7	218.9	21.1	80.4	0	0
5379	2010-09-09T02:00:00	25	26.82	47.73	870.57	ND	ND	1.6	210.7	20.5	81.9	0	0
5380	2010-09-09T03:00:00	43	16.70	25.02	519.02	ND	ND	1.1	169.3	20.3	82.6	0	0
5381	2010-09-09T04:00:00	23	11.55	15.91	552.49	ND	ND	0.9	162.8	20.2	83.6	0	0
5382	2010-09-09T05:00:00	24	10.34	19.92	349.42	ND	ND	0.2	80.4	20.2	84.3	0	0
5383	2010-09-09T06:00:00	34	10.93	17.98	338.15	ND	ND	0.3	319.3	20.5	82.7	0	0
5384	2010-09-09T07:00:00	39	12.03	23.67	451.32	ND	ND	1	35.3	20.3	85.4	13.9	0
5385	2010-09-09T08:00:00	58	31.51	28.81	744.18	ND	ND	1	68	20.3	85	95	0
5386	2010-09-09T09:00:00	58	37.78	44.79	1443.25	ND	ND	0.5	102.4	21.5	79.2	269	0
5387	2010-09-09T10:00:00	43	35.06	51.56	1811.44	ND	ND	0.8	31	23.4	69.7	503.2	0
5388	2010-09-09T11:00:00	44	42.72	64.39	1469.90	ND	ND	2	7.5	25.3	56.9	764.6	0
5389	2010-09-09T12:00:00	24	64.50	81.35	1146.76	ND	ND	2.5	36.3	26.7	51.7	919.7	0
5390	2010-09-09T13:00:00	34	ND	ND	ND	ND	ND	2.1	32.4	28	48.1	907.5	0
5391	2010-09-09T14:00:00	21	37.08	ND	694.28	ND	ND	2.4	34.8	28.5	46.2	674.3	0
5392	2010-09-09T15:00:00	28	28.79	52.80	660.67	ND	ND	1.9	14.2	28.3	47.2	397.5	0
5393	2010-09-09T16:00:00	17	20.93	46.37	590.73	ND	ND	1.5	33.4	27.8	49.6	263	0
5394	2010-09-09T17:00:00	27	26.00	58.52	740.08	ND	ND	1.7	19.6	27.9	51.1	233.3	0
5395	2010-09-09T18:00:00	14	24.24	72.57	925.40	ND	ND	1.4	282.3	27.7	53.4	135.4	0
5396	2010-09-09T19:00:00	34	45.95	79.57	947.91	ND	ND	3.7	266.3	25.8	59.1	2.2	0
5397	2010-09-09T20:00:00	18	25.33	52.08	941.92	ND	ND	2.7	270.8	25.1	60.6	0	0
5398	2010-09-09T21:00:00	12	11.38	39.08	790.73	ND	ND	1.6	293.6	25	60.4	0	0
5399	2010-09-09T22:00:00	7	9.09	44.52	710.28	ND	ND	0.7	104.9	24.4	65.7	0	0
5400	2010-09-09T23:00:00	21	8.37	39.45	628.82	ND	ND	1.1	205.5	23.6	71	0	0
5401	2010-09-10T00:00:00	18	11.50	51.18	1653.33	ND	ND	1.6	208.2	22.9	77.2	0	0
5402	2010-09-10T01:00:00	32	11.63	49.30	1399.17	ND	ND	1.5	186.1	21.9	80.9	0	0
5403	2010-09-10T02:00:00	25	8.14	44.73	850.27	ND	ND	0.9	187.2	21.8	77.9	0	0
5404	2010-09-10T03:00:00	17	7.10	31.30	611.98	ND	ND	1	196.2	21.3	82.9	0	0
5405	2010-09-10T04:00:00	25	6.96	24.94	520.44	ND	ND	0.7	224.1	21.2	79.7	0	0
5406	2010-09-10T05:00:00	15	6.54	22.85	497.64	ND	ND	0.5	235.1	21.1	74.1	0	0
5407	2010-09-10T06:00:00	9	6.36	20.60	486.16	ND	ND	0.8	30	20.8	80	0	0
5408	2010-09-10T07:00:00	44	6.85	17.23	474.37	ND	ND	0.8	52.3	19.9	87.7	23.1	0
5409	2010-09-10T08:00:00	61	12.52	34.56	923.32	ND	ND	0.3	98.9	21.9	78.2	201.4	0
5410	2010-09-10T09:00:00	70	57.82	44.27	1825.24	ND	ND	1.3	135.2	23.8	69.7	401.1	0
5411	2010-09-10T10:00:00	60	83.80	82.03	2407.50	ND	ND	1.5	142.9	25.4	63.4	632.8	0
5412	2010-09-10T11:00:00	58	53.76	115.59	2500.78	ND	ND	1.2	140.6	27.2	57.8	811.4	0
5413	2010-09-10T12:00:00	44	31.73	66.48	1281.01	ND	ND	1.5	133	28.4	54.2	780.3	0
5414	2010-09-10T13:00:00	43	24.01	50.77	1135.50	ND	ND	1.1	195.4	29.3	50	869.6	0
5415	2010-09-10T14:00:00	33	19.94	57.51	1069.17	ND	ND	0.3	261	30.6	44.1	527.7	0
5416	2010-09-10T15:00:00	43	17.73	44.50	1015.41	ND	ND	0.9	323.9	31.4	42.4	637	0
5417	2010-09-10T16:00:00	49	15.82	53.20	1064.89	ND	ND	2.8	351.1	31.4	44.3	419.2	0
5418	2010-09-10T17:00:00	64	15.79	51.81	1146.81	ND	ND	3.7	287.3	28.9	51.8	205.7	0
5419	2010-09-10T18:00:00	42	32.44	81.49	1230.24	ND	ND	4.3	276	27.8	51.6	88.1	0
5420	2010-09-10T19:00:00	45	13.73	40.91	982.92	ND	ND	3.8	272.3	27	52.3	0.6	0
5421	2010-09-10T20:00:00	24	9.44	33.96	911.10	ND	ND	3.3	284.1	26.2	57.3	0	0
5422	2010-09-10T21:00:00	22	9.44	45.08	1069.71	ND	ND	3.5	282.2	25.6	60.6	0	0
5423	2010-09-10T22:00:00	13	8.51	39.44	792.06	ND	ND	2.5	273	25.4	61.6	0	0
5424	2010-09-10T23:00:00	22	8.08	20.27	573.57	ND	ND	0.7	15.2	24.4	67.3	0	0
5425	2010-09-11T00:00:00	13	7.43	24.66	640.25	ND	ND	1.5	233.5	24.4	67.3	0	0
5426	2010-09-11T01:00:00	24	15.45	50.49	1120.43	ND	ND	2.6	195.8	23.7	72.6	0	0
5427	2010-09-11T02:00:00	21	39.39	40.54	889.68	ND	ND	1.3	163.6	23.3	75.9	0	0
5428	2010-09-11T03:00:00	34	15.14	38.52	489.80	ND	ND	0.9	128.5	22.3	80.6	0	0
5429	2010-09-11T04:00:00	22	12.70	32.46	601.67	ND	ND	0.8	163.7	21.9	82.6	0	0
5430	2010-09-11T05:00:00	32	10.09	28.68	691.55	ND	ND	0.4	141.4	22	82.4	0	0
5431	2010-09-11T06:00:00	34	8.74	27.93	691.79	ND	ND	1.3	166	22	81.1	0	0
5432	2010-09-11T07:00:00	41	9.52	34.40	907.26	ND	ND	2	174.3	21.2	77.9	7	0
5433	2010-09-11T08:00:00	23	10.86	34.38	916.11	ND	ND	1.4	148	20.6	79.9	94.4	0
5434	2010-09-11T09:00:00	33	11.10	42.96	665.93	ND	ND	1.3	263.3	21.9	71.1	250.4	0
5435	2010-09-11T10:00:00	21	10.55	60.72	1349.09	ND	ND	0.7	236.4	25.1	57.2	382.3	0
5436	2010-09-11T11:00:00	12	12.42	59.27	1340.81	ND	ND	1.1	114.7	27.2	51.1	576.9	0
5437	2010-09-11T12:00:00	13	9.34	45.21	1015.58	ND	ND	1.6	65.9	29	47.2	797.8	0
5438	2010-09-11T13:00:00	38	10.54	90.70	1776.31	ND	ND	1.1	48.7	29.9	46	715.3	0
5439	2010-09-11T14:00:00	20	11.72	80.85	1560.36	ND	ND	2.3	311.4	29.7	46.4	549.6	0
5440	2010-09-11T15:00:00	22	21.45	63.84	1291.68	ND	ND	3.1	297.1	30.6	41.5	765.4	0
5441	2010-09-11T16:00:00	11	25.68	34.65	945.38	ND	ND	3.7	285.4	30.1	36.7	344.2	0
5442	2010-09-11T17:00:00	5	11.17	21.76	710.78	ND	ND	2.9	275.3	29.2	39.1	172.6	0
5443	2010-09-11T18:00:00	5	7.36	24.14	766.76	ND	ND	3.6	265.9	28.2	42.4	61.7	0
5444	2010-09-11T19:00:00	3	8.21	40.05	1018.96	ND	ND	3.4	269.8	27.4	39.1	0.6	0
5445	2010-09-11T20:00:00	3	7.63	43.14	1027.80	ND	ND	4.3	272.6	26.4	45.6	0	0
5446	2010-09-11T21:00:00	7	6.82	49.18	978.34	ND	ND	2.5	287	25.4	56.4	0	0
5447	2010-09-11T22:00:00	5	5.56	33.08	757.12	ND	ND	3	283.1	25.4	58.3	0	0
5448	2010-09-11T23:00:00	4	5.90	25.59	734.17	ND	ND	0.7	275	24.8	60.9	0	0
5449	2010-09-12T00:00:00	4	5.89	18.22	629.66	ND	ND	1.2	213.7	24	65.4	0	0
5450	2010-09-12T01:00:00	23	9.45	38.63	1461.46	ND	ND	0.8	174.8	23	69.6	0	0
5451	2010-09-12T02:00:00	21	6.87	32.42	728.27	ND	ND	0.7	103.3	22.2	73.7	0	0
5452	2010-09-12T03:00:00	47	7.73	42.84	964.62	ND	ND	0.7	151	22.1	73.8	0	0
5453	2010-09-12T04:00:00	33	8.23	40.23	952.95	ND	ND	1.4	166.6	21.8	74.4	0	0
5454	2010-09-12T05:00:00	50	8.24	38.85	929.31	ND	ND	0.9	152.6	21.5	75.2	0	0
5455	2010-09-12T06:00:00	30	9.84	34.66	803.83	ND	ND	0.9	169.4	21.1	77.2	0	0
5456	2010-09-12T07:00:00	41	14.30	30.08	712.29	ND	ND	0.4	150.1	21.6	75.5	36.6	0
5457	2010-09-12T08:00:00	32	18.26	32.12	736.15	ND	ND	0.4	71.9	22.7	71	140.5	0
5458	2010-09-12T09:00:00	40	24.49	40.11	1341.38	ND	ND	0.8	59.2	23.8	67.6	249	0
5459	2010-09-12T10:00:00	36	27.71	52.41	1346.37	ND	ND	1.2	68.4	24.6	65.5	472	0
5460	2010-09-12T11:00:00	48	82.58	62.92	1258.48	ND	ND	1.9	70.3	26.6	57.9	765.3	0
5461	2010-09-12T12:00:00	30	106.35	60.59	1140.24	ND	ND	2.5	52.1	27.3	52.4	718.3	0
5462	2010-09-12T13:00:00	27	60.20	50.41	958.19	ND	ND	2	41.8	28.3	48.5	766.3	0
5463	2010-09-12T14:00:00	15	29.17	32.87	718.14	ND	ND	1.5	24.6	28.5	48.4	729.8	0
5464	2010-09-12T15:00:00	9	17.42	27.74	730.21	ND	ND	1	31.7	29.8	44.6	735.4	0
5465	2010-09-12T16:00:00	13	14.91	16.88	512.19	ND	ND	1.2	66.5	29.8	44	428	0
5466	2010-09-12T17:00:00	17	17.76	17.42	675.15	ND	ND	1.6	331.7	29.6	44.9	261.8	0
5467	2010-09-12T18:00:00	11	29.99	33.47	744.51	ND	ND	1	39.2	28.6	45.5	71.5	0
5468	2010-09-12T19:00:00	30	36.62	22.02	544.94	ND	ND	2.1	289.8	26.1	56.4	0.1	0
5469	2010-09-12T20:00:00	16	35.24	48.11	816.38	ND	ND	2.9	280.9	25.1	60.1	0	0
5470	2010-09-12T21:00:00	9	11.59	28.36	721.97	ND	ND	2.2	276.1	24.6	61.4	0	0
5471	2010-09-12T22:00:00	6	8.09	15.01	594.92	ND	ND	0.9	89.7	22.8	70.6	0	0
5472	2010-09-12T23:00:00	9	7.57	24.38	727.78	ND	ND	1.4	194	23.2	69.9	0	0
5473	2010-09-13T00:00:00	5	17.81	47.89	1286.72	ND	ND	1.3	168	22.5	73.9	0	0
5474	2010-09-13T01:00:00	18	13.74	52.50	1260.96	ND	ND	0.6	132.8	22.2	73.7	0	0
5475	2010-09-13T02:00:00	10	9.81	41.53	953.27	ND	ND	0.7	176.3	22	75.3	0	0
5476	2010-09-13T03:00:00	19	8.17	35.48	839.22	ND	ND	1.1	176.4	22.1	75.1	0	0
5477	2010-09-13T04:00:00	10	7.89	27.38	703.36	ND	ND	0.7	107.2	21.7	75.2	0	0
5478	2010-09-13T05:00:00	26	9.20	24.87	679.75	ND	ND	0.5	167.5	21.4	76.3	0	0
5479	2010-09-13T06:00:00	23	9.47	21.25	147.13	ND	ND	0.8	143	21.2	77.7	0	0
5480	2010-09-13T07:00:00	31	8.90	24.73	407.16	ND	ND	0.8	33.2	21.3	78.3	46.2	0
5481	2010-09-13T08:00:00	51	10.32	41.80	1063.50	ND	ND	0.6	116.5	22.2	75.2	224.7	0
5482	2010-09-13T09:00:00	64	16.14	51.53	1463.95	ND	ND	0.8	156.4	24.1	67.2	382.9	0
5483	2010-09-13T10:00:00	68	41.75	73.87	2375.67	ND	ND	1.1	92.5	25.6	60.9	483	0
5484	2010-09-13T11:00:00	70	34.60	128.77	2330.27	ND	ND	0.7	84.3	27.3	53.7	759	0
5485	2010-09-13T12:00:00	36	28.86	101.22	1708.58	ND	ND	1	79.3	28.5	50.4	663	0
5486	2010-09-13T13:00:00	46	29.82	63.42	1170.65	ND	ND	0.8	329.3	29.3	47.1	535.1	0
5487	2010-09-13T14:00:00	35	43.06	73.20	1208.62	ND	ND	1.4	96	29.6	46.5	334.7	0
5488	2010-09-13T15:00:00	43	45.07	58.94	1442.48	ND	ND	1.4	304.8	29.6	45	429.9	0
5489	2010-09-13T16:00:00	23	40.23	75.83	1233.09	ND	ND	4.1	280.2	29.6	45.5	488.3	0
5490	2010-09-13T17:00:00	23	21.31	45.15	825.94	ND	ND	4.1	280	28.3	49.5	239.5	0
5491	2010-09-13T18:00:00	17	10.70	29.21	787.64	ND	ND	3.7	280.9	27	53	60.6	0
5492	2010-09-13T19:00:00	23	9.50	30.89	957.24	ND	ND	3.8	271.4	26.2	55.1	0	0
5493	2010-09-13T20:00:00	22	10.21	38.96	1092.71	ND	ND	0.5	311.7	26.3	54	0	0
5494	2010-09-13T21:00:00	36	9.16	40.94	1139.10	ND	ND	0.3	181.5	25.8	56.7	0	0
5495	2010-09-13T22:00:00	34	14.34	76.86	1757.48	ND	ND	0.8	107	24.8	62.5	0	0
5496	2010-09-13T23:00:00	54	25.82	83.91	2266.78	ND	ND	1	196.8	23.5	69.6	0	0
5497	2010-09-14T00:00:00	28	17.28	63.45	2313.88	ND	ND	0.9	193.7	23.2	71.3	0	0
5498	2010-09-14T01:00:00	31	12.87	53.95	1218.40	ND	ND	1.4	144.9	22.7	73	0	0
5499	2010-09-14T02:00:00	26	10.48	50.05	954.88	ND	ND	0.6	89.1	22.2	75.2	0	0
5500	2010-09-14T03:00:00	28	9.94	42.13	692.25	ND	ND	0.5	148.7	21.9	76.5	0	0
5501	2010-09-14T04:00:00	23	10.99	30.81	589.52	ND	ND	1	148.3	21.7	78.7	0	0
5502	2010-09-14T05:00:00	32	16.32	26.75	589.12	ND	ND	0.2	106.8	21.8	78.1	0	0
5503	2010-09-14T06:00:00	18	12.57	25.38	589.32	ND	ND	0.4	93.4	21.6	78.4	0	0
5504	2010-09-14T07:00:00	38	13.68	28.38	770.12	ND	ND	0.9	182.4	21.9	78	27	0
5505	2010-09-14T08:00:00	38	27.15	40.93	838.93	ND	ND	0.5	179.3	22.5	76.2	120.7	0
5506	2010-09-14T09:00:00	59	23.93	45.76	1420.00	ND	ND	1	125.2	23.8	69.8	315.3	0
5507	2010-09-14T10:00:00	66	24.48	57.63	1814.18	ND	ND	1.2	131.1	25.8	62.2	635	0
5508	2010-09-14T11:00:00	64	33.97	85.36	2171.01	ND	ND	1.1	134	27.7	54.8	788.1	0
5509	2010-09-14T12:00:00	47	38.28	77.65	1606.82	ND	ND	1.4	61.8	28.5	51.7	633.8	0
5510	2010-09-14T13:00:00	48	35.34	61.85	1298.15	ND	ND	1.6	58.2	29.9	48.1	832.7	0
5511	2010-09-14T14:00:00	28	34.36	63.21	1292.53	ND	ND	1.9	77	30	48.1	605.1	0
5512	2010-09-14T15:00:00	44	31.81	54.85	1141.53	ND	ND	1.7	73.8	29.7	49.4	284.7	0
5513	2010-09-14T16:00:00	46	22.04	57.68	1175.31	ND	ND	1.1	25.6	29.7	49.7	239.5	0
5514	2010-09-14T17:00:00	57	22.78	76.18	1466.23	ND	ND	2.9	280.4	28.8	52.2	105.4	0
5515	2010-09-14T18:00:00	45	28.10	69.05	1276.24	ND	ND	2.5	274.3	28	53.3	92.3	0
5516	2010-09-14T19:00:00	36	17.41	44.25	1330.71	ND	ND	3.7	271.6	26.7	58	0.1	0
5517	2010-09-14T20:00:00	19	13.31	47.32	1059.97	ND	ND	4.8	269.6	26.1	59.8	0	0
5518	2010-09-14T21:00:00	30	10.36	42.38	908.37	ND	ND	2	288.5	26.1	59.2	0	0
5519	2010-09-14T22:00:00	16	8.34	22.70	724.40	ND	ND	0.8	126.3	25.4	64.9	0	0
5520	2010-09-14T23:00:00	56	7.87	24.86	1055.37	ND	ND	1.6	230.6	25.2	64.7	0	0
5521	2010-09-15T00:00:00	42	14.00	64.38	2304.22	ND	ND	1.9	264.7	25.2	63.7	0	0
5522	2010-09-15T01:00:00	23	11.46	41.43	825.39	ND	ND	0.2	171.7	24.3	70.5	0	0
5523	2010-09-15T02:00:00	36	7.53	9.49	445.74	ND	ND	0.7	131.4	22.9	79.3	0	0
5524	2010-09-15T03:00:00	53	10.88	33.94	932.78	ND	ND	0.9	168.9	22.6	79.8	0	0
5525	2010-09-15T04:00:00	36	10.63	32.56	840.92	ND	ND	0.9	161.7	22.4	80.5	0	0
5526	2010-09-15T05:00:00	50	8.57	29.85	806.28	ND	ND	0.9	194.8	22.5	79.6	0	0
5527	2010-09-15T06:00:00	33	9.12	27.38	749.76	ND	ND	0.7	184	22.3	78.5	0	0
5528	2010-09-15T07:00:00	54	8.36	25.51	806.01	ND	ND	0.2	129	22.4	79.4	41.8	0
5529	2010-09-15T08:00:00	36	9.84	27.76	965.27	ND	ND	0.7	159.9	23.1	76.2	155.9	0
5530	2010-09-15T09:00:00	79	11.56	44.18	1775.75	ND	ND	1.3	158	24.6	69.3	374.3	0
5531	2010-09-15T10:00:00	62	17.90	71.02	2471.19	ND	ND	1.8	153.5	25.6	67.3	489.4	0
5532	2010-09-15T11:00:00	69	20.77	78.62	1813.70	ND	ND	0.7	141.6	27.3	59.6	681.2	0
5533	2010-09-15T12:00:00	37	21.26	67.26	1466.15	ND	ND	0.9	61.6	28.9	52.5	744.5	0
5534	2010-09-15T13:00:00	36	18.93	47.95	1125.78	ND	ND	1.3	83.3	29.7	50	548.1	0
5535	2010-09-15T14:00:00	30	20.84	57.05	1175.31	ND	ND	1.2	143.8	29.5	50.6	194.6	0
5536	2010-09-15T15:00:00	67	22.64	66.09	1453.63	ND	ND	2.7	252.6	28	52.9	58.2	0
5537	2010-09-15T16:00:00	35	18.84	73.30	1573.71	ND	ND	3.9	269.4	27.2	55.4	198.7	0
5538	2010-09-15T17:00:00	43	14.33	44.21	842.47	ND	ND	3.8	263.6	27	54.9	218	0
5539	2010-09-15T18:00:00	23	13.06	37.83	588.18	ND	ND	4	269.8	26.3	56.2	39.8	0
5540	2010-09-15T19:00:00	18	12.18	39.67	678.86	ND	ND	3.3	288.3	25.4	60.1	0	0
5541	2010-09-15T20:00:00	11	9.58	33.55	791.53	ND	ND	0.6	9.4	24.3	67.1	0	0
5542	2010-09-15T21:00:00	17	8.70	31.53	845.76	ND	ND	0.3	70.2	23	76.1	0	0
5543	2010-09-15T22:00:00	10	13.35	51.73	1103.78	ND	ND	1.5	303.7	23.8	67.3	0	0
5544	2010-09-15T23:00:00	33	23.20	58.41	1700.08	ND	ND	2	276.4	23.8	66.7	0	0
5545	2010-09-16T00:00:00	18	16.36	38.17	832.93	ND	ND	0.5	218.1	23.8	66.2	0	0
5546	2010-09-16T01:00:00	12	15.14	27.67	844.34	ND	ND	1.5	165.6	21.9	79.1	0	0
5547	2010-09-16T02:00:00	22	13.59	30.81	453.48	ND	ND	0.9	144.7	21.6	80.2	0	0
5548	2010-09-16T03:00:00	55	9.17	37.82	554.94	ND	ND	0.8	149.5	21.7	79.6	0	0
5549	2010-09-16T04:00:00	48	8.84	31.70	611.78	ND	ND	0.4	137.7	21.5	80.2	0	0
5550	2010-09-16T05:00:00	50	10.38	25.07	532.11	ND	ND	0.7	159.9	21.5	79.2	0	0
5551	2010-09-16T06:00:00	39	11.08	26.51	271.72	ND	ND	0.4	235.3	21.6	76.9	0	0
5552	2010-09-16T07:00:00	40	13.83	30.93	702.17	ND	ND	0.3	359.2	21.6	78.1	29.7	0
5553	2010-09-16T08:00:00	45	13.21	28.02	645.55	ND	ND	0.6	26.9	21.9	79.2	149.8	0
5554	2010-09-16T09:00:00	82	13.25	39.40	1564.49	ND	ND	0.6	101.7	23.7	70.5	338.7	0
5555	2010-09-16T10:00:00	80	34.33	72.93	2475.12	ND	ND	1	117.8	25.4	62.7	658.1	0
5556	2010-09-16T11:00:00	72	41.72	110.56	2328.70	ND	ND	1.4	68.2	27.1	57.6	708.5	0
5557	2010-09-16T12:00:00	41	36.28	69.74	1407.49	ND	ND	0.8	78.9	28.4	52	885.3	0
5558	2010-09-16T13:00:00	63	ND	ND	ND	ND	ND	1.2	83.4	29.8	48.4	864.3	0
5559	2010-09-16T14:00:00	42	ND	ND	907.97	ND	ND	1.3	44.1	30.2	47	413.2	0
5560	2010-09-16T15:00:00	62	43.91	53.35	1037.38	ND	ND	3.1	283.7	29.7	46.2	381.4	0
5561	2010-09-16T16:00:00	32	46.10	60.53	1047.31	ND	ND	4.1	280.5	29.3	47	298.8	0
5562	2010-09-16T17:00:00	33	24.16	28.32	906.47	ND	ND	4.4	281.8	27.8	50.9	127.9	0
5563	2010-09-16T18:00:00	37	17.40	24.14	982.92	ND	ND	4.1	281.9	27	53.1	52.4	0
5564	2010-09-16T19:00:00	53	16.67	24.54	1014.90	ND	ND	4.3	276.3	26.1	55.5	0	0
5565	2010-09-16T20:00:00	37	16.86	34.90	1264.82	ND	ND	3.6	276.8	25.7	56.9	0	0
5566	2010-09-16T21:00:00	46	16.31	30.87	1171.26	ND	ND	0.9	277	25.7	56.4	0	0
5567	2010-09-16T22:00:00	24	13.79	25.49	872.71	ND	ND	3	245.7	24.9	62.8	0	0
5568	2010-09-16T23:00:00	14	14.30	22.65	446.64	ND	ND	1.8	254	24.7	62.6	0	0
5569	2010-09-17T00:00:00	8	13.95	18.80	618.01	ND	ND	1.2	263.7	24.4	64.7	0	0
5570	2010-09-17T01:00:00	5	13.73	15.90	617.38	ND	ND	1.7	183.4	23.3	72.8	0	0
5571	2010-09-17T02:00:00	19	17.43	20.52	626.49	ND	ND	0.6	175.7	22.9	74.7	0	0
5572	2010-09-17T03:00:00	20	15.01	18.35	716.65	ND	ND	0.9	51.9	22.1	80.4	0	0
5573	2010-09-17T04:00:00	11	15.10	17.10	726.05	ND	ND	0.8	136.7	21.8	82.1	0	0
5574	2010-09-17T05:00:00	19	17.78	19.21	725.32	ND	ND	0.5	132.9	21.3	87.1	0	0
5575	2010-09-17T06:00:00	10	18.58	15.83	622.26	ND	ND	0.5	59.4	20.7	91.1	0	1.27
5576	2010-09-17T07:00:00	9	15.37	16.61	496.79	ND	ND	0.7	85.4	20.9	91.3	5.1	0
5577	2010-09-17T08:00:00	30	15.27	28.01	655.31	ND	ND	0.4	78.9	21.1	87.8	45.3	0
5578	2010-09-17T09:00:00	35	19.11	35.73	2035.11	ND	ND	0.4	153	22.5	81.1	202.5	0
5579	2010-09-17T10:00:00	29	19.23	43.67	2283.35	ND	ND	0.5	103.4	24.4	71.2	437.2	0
5580	2010-09-17T11:00:00	42	22.07	64.83	2206.57	ND	ND	0.4	196.6	25.6	64.9	418.5	0
5581	2010-09-17T12:00:00	27	19.51	48.65	1469.33	ND	ND	0.4	57.3	27.3	55.6	672.5	0
5582	2010-09-17T13:00:00	25	21.65	46.82	1258.35	ND	ND	1.7	335.1	28	52.6	599.6	0
5583	2010-09-17T14:00:00	22	21.12	40.31	1226.57	ND	ND	0.6	15.7	29.3	46.9	522	0
5584	2010-09-17T15:00:00	20	20.76	39.26	1255.11	ND	ND	1.5	295.5	29.1	46.5	340.7	0
5585	2010-09-17T16:00:00	19	23.85	27.23	1022.00	ND	ND	3.9	280.5	28	49	248.4	0
5586	2010-09-17T17:00:00	11	21.01	30.65	856.28	ND	ND	2.6	281.8	27	52.4	102.8	0
5587	2010-09-17T18:00:00	8	16.62	89.78	1037.97	ND	ND	2	308	26.4	53.9	30.9	0
5588	2010-09-17T19:00:00	5	16.90	56.75	1300.62	ND	ND	4.4	277.2	25.1	59.5	0	0
5589	2010-09-17T20:00:00	4	16.72	49.31	1352.27	ND	ND	3.8	277.1	24.8	59.5	0	0
5590	2010-09-17T21:00:00	6	15.13	26.46	1076.15	ND	ND	2.7	279.6	25	57.3	0	0
5591	2010-09-17T22:00:00	4	13.81	20.83	801.93	ND	ND	0.7	293.1	24.5	62.1	0	0
5592	2010-09-17T23:00:00	34	13.50	20.70	812.02	ND	ND	1.2	146.3	23.4	70.4	0	0
5593	2010-09-18T00:00:00	48	14.15	25.25	1310.37	ND	ND	2.2	189.2	22.8	77.4	0	0
5594	2010-09-18T01:00:00	35	18.49	32.49	1944.53	ND	ND	2	175.8	22.4	78	0	0
5595	2010-09-18T02:00:00	19	15.01	26.57	1090.19	ND	ND	1.8	164.5	22.1	79.2	0	0
5596	2010-09-18T03:00:00	26	15.31	26.32	1066.39	ND	ND	1.5	157.6	21.4	84.5	0	4.32
5597	2010-09-18T04:00:00	14	15.32	19.78	837.51	ND	ND	1.3	176.4	21.4	84	0	0
5598	2010-09-18T05:00:00	16	14.78	ND	848.83	ND	ND	1.3	187	21.6	81.1	0	0
5599	2010-09-18T06:00:00	22	14.04	ND	385.06	ND	ND	0.2	159.1	21.6	80.8	0	0
5600	2010-09-18T07:00:00	34	17.46	ND	498.32	ND	ND	0.5	79.8	21.4	83.6	39.3	0
5601	2010-09-18T08:00:00	50	27.18	ND	1086.50	ND	ND	1	146.3	21.9	81.6	115.4	0
5602	2010-09-18T09:00:00	54	32.78	ND	1847.91	ND	ND	0.9	139.3	23.6	72.6	372.7	0
5603	2010-09-18T10:00:00	31	36.20	ND	2269.05	ND	ND	0.8	63.4	24.7	67.5	392.4	0
5604	2010-09-18T11:00:00	44	38.77	ND	1602.24	ND	ND	0.8	31.6	26.3	61.1	577.2	0
5605	2010-09-18T12:00:00	23	35.71	51.49	1472.77	ND	ND	1.2	153.9	28.2	52	849.7	0
5606	2010-09-18T13:00:00	41	31.75	58.90	1482.12	ND	ND	0.9	117.5	29.5	46.5	800.2	0
5607	2010-09-18T14:00:00	21	25.48	63.17	1395.49	ND	ND	1.1	121.8	30.1	44.2	653.6	0
5608	2010-09-18T15:00:00	41	23.59	69.08	1433.21	ND	ND	1.4	15.3	30.4	43	558	0
5609	2010-09-18T16:00:00	42	21.85	74.08	1457.96	ND	ND	3.3	285.1	30.1	45.4	570.4	0
5610	2010-09-18T17:00:00	22	24.09	66.45	1037.04	ND	ND	3.8	275.1	29.1	47.1	281.1	0
5611	2010-09-18T18:00:00	13	17.11	41.17	1022.00	ND	ND	4	276.8	27.1	53.3	41.1	0
5612	2010-09-18T19:00:00	27	15.46	38.86	1038.31	ND	ND	5	268.8	25.8	57.2	0	0
5613	2010-09-18T20:00:00	26	14.92	39.00	873.00	ND	ND	4.8	264.8	25.6	57.8	0	0
5614	2010-09-18T21:00:00	28	14.52	33.78	1010.16	ND	ND	1.9	290.3	25.4	59	0	0
5615	2010-09-18T22:00:00	15	13.41	30.82	883.30	ND	ND	1.5	275	25	61.7	0	0
5616	2010-09-18T23:00:00	9	13.91	48.14	1076.87	ND	ND	1.7	267.5	24.7	62.9	0	0
5617	2010-09-19T00:00:00	5	13.72	43.63	1052.90	ND	ND	1.3	282.3	23.9	67.3	0	0
5618	2010-09-19T01:00:00	14	13.31	37.81	935.93	ND	ND	2.8	260.2	24	65.7	0	0
5619	2010-09-19T02:00:00	8	16.82	42.22	1552.80	ND	ND	1.5	156.2	22.6	75.2	0	0
5620	2010-09-19T03:00:00	26	13.88	17.51	670.46	ND	ND	0.5	138.3	21.8	79.2	0	0
5621	2010-09-19T04:00:00	40	14.02	39.03	1087.97	ND	ND	1	158.7	22	77.2	0	0
5622	2010-09-19T05:00:00	42	15.15	39.88	1315.53	ND	ND	1.3	160.1	21.9	76.9	0	0
5623	2010-09-19T06:00:00	47	17.04	40.18	1167.70	ND	ND	1.2	140.3	21.3	80.6	0	0
5624	2010-09-19T07:00:00	54	17.67	38.78	984.30	ND	ND	0.1	123	21.3	81	28.5	0
5625	2010-09-19T08:00:00	52	17.98	37.05	1221.89	ND	ND	1.1	154	22.4	74.1	176.1	0
5626	2010-09-19T09:00:00	47	17.32	33.76	1169.68	ND	ND	1.7	136	23.6	69.3	342	0
5627	2010-09-19T10:00:00	25	22.64	41.99	1242.85	ND	ND	1.3	127.9	24.9	63.5	549.2	0
5628	2010-09-19T11:00:00	35	24.28	45.39	1087.96	ND	ND	0.6	69.7	26.9	55.9	770.6	0
5629	2010-09-19T12:00:00	20	39.92	36.20	1060.68	ND	ND	0.9	98.7	28.5	50	805.9	0
5630	2010-09-19T13:00:00	44	37.67	30.72	904.07	ND	ND	1.5	68	29	47.9	479.3	0
5631	2010-09-19T14:00:00	42	29.95	42.11	986.84	ND	ND	1.2	92.7	28	52.3	230.3	0
5632	2010-09-19T15:00:00	31	26.41	37.40	775.28	ND	ND	2.6	275.5	27.3	51.1	230.6	0
5633	2010-09-19T16:00:00	16	21.89	40.35	600.31	ND	ND	2.6	290.7	26.9	52.7	211.5	0
5634	2010-09-19T17:00:00	9	15.08	14.48	622.57	ND	ND	2.6	272.5	26.9	53.7	189.1	0
5635	2010-09-19T18:00:00	6	13.47	12.24	426.58	ND	ND	2.6	272.2	26	56.8	24.4	0
5636	2010-09-19T19:00:00	5	13.30	16.01	425.30	ND	ND	2.5	273.3	25.4	58.5	0	0
5637	2010-09-19T20:00:00	5	13.33	21.37	791.53	ND	ND	0.4	52.9	24.5	63.2	0	0
5638	2010-09-19T21:00:00	25	13.00	26.83	857.76	ND	ND	1.9	264.1	24.7	57.5	0	0
5639	2010-09-19T22:00:00	22	18.64	50.78	1304.68	ND	ND	2.3	197.6	23.7	65.6	0	0
5640	2010-09-19T23:00:00	13	18.57	31.00	992.33	ND	ND	1.8	178.4	22.4	73.5	0	0
5641	2010-09-20T00:00:00	8	13.19	31.05	874.42	ND	ND	1.6	141.3	21.5	79	0	0
5642	2010-09-20T01:00:00	15	12.90	29.78	928.36	ND	ND	1	155	21	81.9	0	0
5643	2010-09-20T02:00:00	12	11.76	31.79	858.97	ND	ND	0.9	137	20.4	86.7	0	2.79
5644	2010-09-20T03:00:00	17	11.25	16.67	721.87	ND	ND	0.7	159.6	20.1	90.9	0	0.25
5645	2010-09-20T04:00:00	10	10.54	13.97	709.87	ND	ND	1.1	120.5	20	91.7	0	0.25
5646	2010-09-20T05:00:00	6	11.08	13.80	709.62	ND	ND	0.3	90.8	19.9	89.1	0	0
5647	2010-09-20T06:00:00	5	11.00	16.85	664.34	ND	ND	0.2	258.4	20.3	87.5	0	0
5648	2010-09-20T07:00:00	11	10.81	17.52	653.97	ND	ND	0.9	56	20.1	92.2	10.7	0.25
5649	2010-09-20T08:00:00	13	11.37	26.92	788.74	ND	ND	1.8	29.4	20.2	89.6	51.5	0
5650	2010-09-20T09:00:00	33	13.77	54.57	1938.71	ND	ND	1.2	48	20.4	88.2	149.2	0.51
5651	2010-09-20T10:00:00	33	18.52	67.78	2143.05	ND	ND	0.8	80.8	21.4	82	262.5	0.25
5652	2010-09-20T11:00:00	30	31.11	73.12	1935.32	ND	ND	0.6	77.9	22.6	74.2	328.5	0
5653	2010-09-20T12:00:00	16	49.85	80.50	1784.12	ND	ND	0.8	43.2	24	69.5	502.1	0
5654	2010-09-20T13:00:00	29	50.17	69.62	1404.37	ND	ND	1.1	22	25.4	61.8	413	0
5655	2010-09-20T14:00:00	15	36.73	60.94	1227.45	ND	ND	1.3	278.4	25.5	56.3	317	0
5656	2010-09-20T15:00:00	15	32.47	60.22	1204.91	ND	ND	0.6	328.6	26.7	51.5	493.9	0
5657	2010-09-20T16:00:00	9	24.93	42.88	944.76	ND	ND	1.1	58.2	26.4	55.1	143.3	0.25
5658	2010-09-20T17:00:00	21	22.77	53.53	1127.97	ND	ND	0.2	314.1	22.4	79.8	21.1	18.03
5659	2010-09-20T18:00:00	21	32.26	80.08	1533.08	ND	ND	2.4	204	20.8	86.5	3	0.25
5660	2010-09-20T19:00:00	27	23.48	83.60	2078.21	ND	ND	1.7	195.2	20.4	88.3	0	0.25
5661	2010-09-20T20:00:00	21	17.88	84.67	1793.40	ND	ND	1.2	219.6	21.1	84.7	0	0
5662	2010-09-20T21:00:00	31	15.13	105.91	2261.23	ND	ND	1.3	228.7	21.3	79.1	0	0
5663	2010-09-20T22:00:00	17	15.06	88.80	2160.94	ND	ND	1.2	208.3	21	80.6	0	0
5664	2010-09-20T23:00:00	24	14.45	50.11	1265.86	ND	ND	1.1	232.2	20.4	86.9	0	0
5665	2010-09-21T00:00:00	13	14.32	48.75	1409.90	ND	ND	0.7	322.6	20.5	85.9	0	0
5666	2010-09-21T01:00:00	34	13.39	64.76	1669.90	ND	ND	0.9	6.7	20.4	87.6	0	0
5667	2010-09-21T02:00:00	42	18.42	56.21	1409.90	ND	ND	1.4	16.9	20.1	88.6	0	0
5668	2010-09-21T03:00:00	42	ND	68.02	1509.87	ND	ND	0.6	67.2	20.3	87.8	0	0
5669	2010-09-21T04:00:00	22	ND	59.37	1172.64	ND	ND	0.4	223.5	20.2	87.9	0	0
5670	2010-09-21T05:00:00	23	ND	47.90	969.35	ND	ND	0.8	32.4	20.4	85.8	0	0
5671	2010-09-21T06:00:00	13	ND	38.48	958.73	ND	ND	0.6	306.7	20.2	87.5	0	0
5672	2010-09-21T07:00:00	24	ND	33.19	822.82	ND	ND	0.3	74.2	20.2	84.4	13.8	0
5673	2010-09-21T08:00:00	34	ND	34.63	980.62	ND	ND	0.4	138.4	20.3	89.8	46.2	0
5674	2010-09-21T09:00:00	74	ND	38.32	1961.92	ND	ND	1.2	204.9	20.2	90.6	24.3	0
5675	2010-09-21T10:00:00	64	ND	59.26	2615.00	ND	ND	0.3	143.5	21.1	85	133.1	0
5676	2010-09-21T11:00:00	53	ND	50.78	2362.98	ND	ND	0.7	98.7	22.4	76.8	317.4	0
5677	2010-09-21T12:00:00	33	ND	54.95	1714.77	ND	ND	0.9	60	23.6	70.3	416.6	0
5678	2010-09-21T13:00:00	51	ND	56.82	1345.47	ND	ND	1.4	45.7	24.6	66.4	424.2	0
5679	2010-09-21T14:00:00	36	ND	68.60	1361.44	ND	ND	1.3	54.9	25.1	63.8	338.7	0
5680	2010-09-21T15:00:00	44	ND	79.39	1478.33	ND	ND	0.9	142.5	25	65.4	204	0
5681	2010-09-21T16:00:00	54	49.76	72.79	1397.64	ND	ND	1.2	175.3	25.7	63.5	458.4	0
5682	2010-09-21T17:00:00	36	32.67	76.01	1458.34	ND	ND	0.9	164.9	26.4	60.7	324.2	0
5683	2010-09-21T18:00:00	38	26.06	58.47	1289.11	ND	ND	1	214.7	25.9	62.8	70.3	0
5684	2010-09-21T19:00:00	62	24.60	71.65	1447.82	ND	ND	1.1	253.8	25.2	62.9	0	0
5685	2010-09-21T20:00:00	40	24.38	91.28	2315.68	ND	ND	2	268.3	24.6	62.1	0	0
5686	2010-09-21T21:00:00	23	22.61	86.54	1841.95	ND	ND	1	278.9	24.3	63.6	0	0
5687	2010-09-21T22:00:00	14	18.01	60.17	1337.21	ND	ND	0.8	304.6	23.8	64.6	0	0
5688	2010-09-21T23:00:00	12	16.94	65.80	1506.11	ND	ND	0.9	18.7	22.8	73.6	0	0
5689	2010-09-22T00:00:00	11	14.64	39.26	943.83	ND	ND	0.6	22.3	22.1	79.5	0	0
5690	2010-09-22T01:00:00	17	16.79	48.14	1191.18	ND	ND	0.6	176.3	22.3	78.4	0	0
5691	2010-09-22T02:00:00	17	15.40	43.11	930.89	ND	ND	0.5	114.7	21.8	81.4	0	0
5692	2010-09-22T03:00:00	26	17.32	51.41	1053.97	ND	ND	0.9	178.2	21.2	85.8	0	0.51
5693	2010-09-22T04:00:00	23	18.31	40.42	950.04	ND	ND	0.8	191.5	20.8	89.8	0	3.3
5694	2010-09-22T05:00:00	24	16.30	29.32	756.74	ND	ND	0.4	122.4	20.7	92	0	0.76
5695	2010-09-22T06:00:00	14	15.03	29.70	745.19	ND	ND	0.7	124.5	20.1	94.9	0	0.51
5696	2010-09-22T07:00:00	14	14.23	31.49	923.95	ND	ND	0.9	172.1	20.2	93.9	14	2.29
5697	2010-09-22T08:00:00	14	14.33	36.02	1048.25	ND	ND	0.5	140.3	20.5	93	59.4	0.51
5698	2010-09-22T09:00:00	37	15.48	45.06	1703.74	ND	ND	1	134.4	20.7	93	101.1	2.03
5699	2010-09-22T10:00:00	37	16.86	65.40	2845.27	ND	ND	1.3	148.6	20.7	91.2	125.4	1.02
5700	2010-09-22T11:00:00	35	18.39	68.57	2766.24	ND	ND	0.7	138	21.6	85.6	231.9	0
5701	2010-09-22T12:00:00	19	16.22	67.91	2004.59	ND	ND	0.8	96.4	22.7	79.8	294.4	0
5702	2010-09-22T13:00:00	25	15.44	63.58	1966.60	ND	ND	1.2	70.8	23.6	74.7	310.6	0
5703	2010-09-22T14:00:00	26	ND	ND	ND	ND	ND	1.5	95.6	23.2	78.6	164.1	0
5704	2010-09-22T15:00:00	50	17.03	78.55	1320.88	ND	ND	0.9	123.6	24	74.1	343.5	0
5705	2010-09-22T16:00:00	26	14.26	80.79	1415.79	ND	ND	0.6	184.8	24.8	69.8	185	0
5706	2010-09-22T17:00:00	33	12.46	72.26	1270.77	ND	ND	1.7	199	24.6	71.4	178.4	0
5707	2010-09-22T18:00:00	44	13.50	66.57	1029.66	ND	ND	1.6	218.7	23.9	73.6	49.9	0
5708	2010-09-22T19:00:00	42	10.55	71.79	1175.62	ND	ND	1.1	248.2	23.4	76.6	0	0
5709	2010-09-22T20:00:00	55	7.45	66.13	1629.42	ND	ND	1.2	254.7	22.9	77.4	0	0
5710	2010-09-22T21:00:00	81	6.66	113.13	2195.44	ND	ND	1.1	250.3	22.5	76.3	0	0
5711	2010-09-22T22:00:00	52	6.63	100.39	2112.95	ND	ND	1.6	263.9	22.6	72.7	0	0
5712	2010-09-22T23:00:00	40	4.52	73.87	1318.20	ND	ND	0.7	5.9	22.2	80.3	0	0
5713	2010-09-23T00:00:00	69	3.04	43.45	862.48	ND	ND	0.2	7.1	21.9	84.6	0	0
5714	2010-09-23T01:00:00	63	2.00	61.10	1292.41	ND	ND	0.3	227.9	21.7	79.9	0	0
5715	2010-09-23T02:00:00	40	3.63	79.59	1631.41	ND	ND	0.1	63.8	21.6	82.8	0	0
5716	2010-09-23T03:00:00	56	8.96	57.46	1166.51	ND	ND	0.4	210.2	21.3	82.1	0	0
5717	2010-09-23T04:00:00	41	7.04	64.04	1142.70	ND	ND	0.8	221.3	20.8	83.1	0	0
5718	2010-09-23T05:00:00	33	8.65	49.21	835.80	ND	ND	0.2	2.1	20.9	81.1	0	0
5719	2010-09-23T06:00:00	17	5.19	41.89	802.19	ND	ND	0.2	33	20.7	87.8	0	0
5720	2010-09-23T07:00:00	54	4.55	35.44	677.45	ND	ND	0.4	241.3	20.8	81.9	44.1	0
5721	2010-09-23T08:00:00	65	2.92	44.88	835.80	ND	ND	0.4	183.6	21.9	78.1	148.3	0
5722	2010-09-23T09:00:00	68	4.69	44.40	1326.42	ND	ND	0.5	113.6	23.2	74	230.8	0
5723	2010-09-23T10:00:00	60	11.62	85.74	2254.60	ND	ND	0.9	113.8	24.9	66.7	610.2	0
5724	2010-09-23T11:00:00	53	13.83	111.12	1603.31	ND	ND	1.2	126.1	26.5	61.4	702.3	0
5725	2010-09-23T12:00:00	48	9.77	76.34	909.59	ND	ND	1	153.4	26.8	59.2	508.9	0
5726	2010-09-23T13:00:00	49	9.75	66.36	1071.85	ND	ND	1.1	304	26.5	58.7	233.3	0
5727	2010-09-23T14:00:00	44	9.43	62.39	1116.83	ND	ND	3	256.7	23	72.1	115.5	0
5728	2010-09-23T15:00:00	43	8.07	56.89	807.92	ND	ND	1	198.6	21.6	82.7	27.2	6.35
5729	2010-09-23T16:00:00	41	2.67	27.99	305.78	ND	ND	1.2	237.5	21.5	81.5	57.1	3.05
5730	2010-09-23T17:00:00	30	4.66	79.42	1471.80	ND	ND	0.6	204.9	21.5	83.6	45.7	0
5731	2010-09-23T18:00:00	25	3.83	59.62	1086.87	ND	ND	1	194.5	21.1	85.9	7	0.25
5732	2010-09-23T19:00:00	30	4.94	94.17	1808.98	ND	ND	1.4	182.2	20.9	87.6	0	0
5733	2010-09-23T20:00:00	31	3.51	89.92	1649.57	ND	ND	0.9	179.2	20.6	89.7	0	0
5734	2010-09-23T21:00:00	44	3.02	81.63	1930.06	ND	ND	0.5	218.6	20.6	86.1	0	0
5735	2010-09-23T22:00:00	32	3.49	79.14	2336.39	ND	ND	0.4	304.4	20.4	86.6	0	0
5736	2010-09-23T23:00:00	58	3.22	64.70	2143.05	ND	ND	0.6	101.3	19.7	91.9	0	0
5737	2010-09-24T00:00:00	43	3.78	58.85	2284.22	ND	ND	0.8	68.4	19.5	93	0	0
5738	2010-09-24T01:00:00	36	2.39	46.51	1630.47	ND	ND	0.6	59.1	19.3	93.2	0	0
5739	2010-09-24T02:00:00	32	0.80	41.46	1022.56	ND	ND	0.4	316.5	19.6	91.2	0	0
5740	2010-09-24T03:00:00	49	2.16	34.08	596.17	ND	ND	0.6	248.9	19.6	88.5	0	0
5741	2010-09-24T04:00:00	35	13.58	41.50	596.17	ND	ND	0.2	251.6	19.7	86.8	0	0
5742	2010-09-24T05:00:00	34	28.10	32.91	472.60	ND	ND	0.5	231.4	19.7	86	0	0
5743	2010-09-24T06:00:00	18	24.45	30.04	427.59	ND	ND	0.7	159.7	19.2	92.7	0	0
5744	2010-09-24T07:00:00	44	20.84	24.01	359.46	ND	ND	0.8	149.4	18.9	95	42	0
5745	2010-09-24T08:00:00	42	11.16	25.75	942.61	ND	ND	0.6	114.3	20	89.6	171.3	0
5746	2010-09-24T09:00:00	71	7.11	37.02	1610.73	ND	ND	0.8	157.6	21.2	83	302.6	0
5747	2010-09-24T10:00:00	57	12.47	62.76	2239.38	ND	ND	1.1	116.1	22.6	75.1	471	0
5748	2010-09-24T11:00:00	62	21.44	83.59	1693.21	ND	ND	1	86.6	24.5	67.2	706.8	0
5749	2010-09-24T12:00:00	38	20.30	73.97	1212.31	ND	ND	1	74.5	25.5	62.5	526.4	0
5750	2010-09-24T13:00:00	51	16.93	70.28	1032.78	ND	ND	1.2	80.2	26.4	58.5	650.1	0
5751	2010-09-24T14:00:00	32	13.93	81.07	1070.42	ND	ND	1.1	85.1	27.7	53.8	708.6	0
5752	2010-09-24T15:00:00	55	12.03	75.83	855.43	ND	ND	1.3	91.8	28.2	52.1	521.3	0
5753	2010-09-24T16:00:00	36	14.62	63.87	903.17	ND	ND	0.6	68.7	27.9	53.2	131.9	0
5754	2010-09-24T17:00:00	57	15.40	73.10	1006.38	ND	ND	2.6	265.9	26.9	54.9	108.2	0
5755	2010-09-24T18:00:00	39	13.45	65.49	853.15	ND	ND	2.9	262.1	26	57.1	24.7	0
5756	2010-09-24T19:00:00	31	6.10	46.58	919.56	ND	ND	3.5	265.3	25.4	59.2	0	0
5757	2010-09-24T20:00:00	17	5.09	47.00	1089.79	ND	ND	1.6	280.3	25.1	61.1	0	0
5758	2010-09-24T21:00:00	15	3.83	41.39	939.71	ND	ND	1	267.6	24.6	63.8	0	0
5759	2010-09-24T22:00:00	22	2.59	45.35	858.05	ND	ND	1	252.5	24	66.5	0	0
5760	2010-09-24T23:00:00	14	1.62	43.87	662.22	ND	ND	0.3	50.2	23.3	74.4	0	0
5761	2010-09-25T00:00:00	27	1.67	45.32	729.01	ND	ND	1.1	205.9	23	72.8	0	0
5762	2010-09-25T01:00:00	41	5.52	46.83	1456.54	ND	ND	0.9	233.9	22.7	72.4	0	0
5763	2010-09-25T02:00:00	23	8.35	39.84	773.00	ND	ND	1.5	192.2	22	80.1	0	0
5764	2010-09-25T03:00:00	40	4.02	33.19	385.59	ND	ND	1	155.9	21.5	82.7	0	0
5765	2010-09-25T04:00:00	36	3.34	37.75	509.47	ND	ND	0.4	190.6	21.5	85	0	0
5766	2010-09-25T05:00:00	40	2.59	37.21	464.18	ND	ND	0.6	204.7	21.3	85.1	0	0.51
5767	2010-09-25T06:00:00	22	1.79	39.04	373.36	ND	ND	0.3	66.1	20.9	88.7	0	0.51
5768	2010-09-25T07:00:00	35	0.78	29.63	124.28	ND	ND	0.3	102.5	20.9	89.8	6.7	0
5769	2010-09-25T08:00:00	44	1.91	39.58	711.80	ND	ND	0.7	101.4	20.6	92.2	64.5	5.33
5770	2010-09-25T09:00:00	65	4.60	46.21	1670.46	ND	ND	0.4	123	21	91.2	160	0.25
5771	2010-09-25T10:00:00	63	4.58	47.74	2192.65	ND	ND	0.6	135.8	22.5	83.3	320.8	0
5772	2010-09-25T11:00:00	65	3.95	64.71	1749.43	ND	ND	0.6	152	24.7	69.9	745.5	0
5773	2010-09-25T12:00:00	35	3.11	110.79	1831.13	ND	ND	1.2	133.7	26.3	62.8	687.6	0
5774	2010-09-25T13:00:00	43	2.21	54.18	517.77	ND	ND	1.5	93.7	26.2	63.1	335.1	0
5775	2010-09-25T14:00:00	31	1.08	59.21	989.19	ND	ND	2.3	55.4	26.4	64.1	565.5	0
5776	2010-09-25T15:00:00	43	0.76	74.03	1266.09	ND	ND	1.5	50.3	28	56.9	675	0
5777	2010-09-25T16:00:00	24	10.16	66.26	972.00	ND	ND	1.7	65.9	28.9	50.2	489.9	0
5778	2010-09-25T17:00:00	25	22.94	61.69	1032.93	ND	ND	1.4	25.8	28.9	48.3	285.6	0
5779	2010-09-25T18:00:00	14	19.67	61.94	1044.54	ND	ND	2.1	280.3	27.8	50.9	59.7	0
5780	2010-09-25T19:00:00	19	16.29	44.05	670.70	ND	ND	1.8	275.5	26.3	53.8	0	0
5781	2010-09-25T20:00:00	11	5.08	29.06	552.29	ND	ND	2.7	269	25.4	57	0	0
5782	2010-09-25T21:00:00	17	2.20	41.55	619.46	ND	ND	2.8	269.9	25	58.7	0	0
5783	2010-09-25T22:00:00	10	1.23	32.02	607.17	ND	ND	1.9	236.9	24.5	61.7	0	0
5784	2010-09-25T23:00:00	7	ND	18.90	468.91	ND	ND	1.9	187.3	23.2	69.5	0	0
5785	2010-09-26T00:00:00	5	0.05	26.23	478.25	ND	ND	1.8	188.9	22.2	72.1	0	0
5786	2010-09-26T01:00:00	8	0.70	45.64	714.95	ND	ND	0.5	258	22	73.4	0	0
5787	2010-09-26T02:00:00	6	1.09	38.82	453.63	ND	ND	0.2	221.7	21.8	72.4	0	0
5788	2010-09-26T03:00:00	6	1.04	43.97	589.32	ND	ND	0.2	50.7	21.3	79.2	0	0
5789	2010-09-26T04:00:00	26	1.42	25.82	237.59	ND	ND	0.8	236.3	21.4	75.7	0	0
5790	2010-09-26T05:00:00	15	0.21	31.71	441.39	ND	ND	0.3	166.7	21.4	77.1	0	0
5791	2010-09-26T06:00:00	9	0.52	29.32	384.80	ND	ND	0.6	62.7	21	82	0	0
5792	2010-09-26T07:00:00	28	0.65	36.44	655.53	ND	ND	0.3	47.5	20.5	84.3	30.5	0
5793	2010-09-26T08:00:00	31	1.24	37.03	710.83	ND	ND	0.2	240.5	21.5	79.2	143.5	0
5794	2010-09-26T09:00:00	40	1.35	31.94	509.47	ND	ND	0.6	77.8	23.3	71.5	324.8	0
5795	2010-09-26T10:00:00	26	4.17	38.35	512.58	ND	ND	1.1	47.8	24.5	66.3	472.3	0
5796	2010-09-26T11:00:00	35	10.41	61.43	674.77	ND	ND	1.8	42.5	25.1	64.5	437.4	0
5797	2010-09-26T12:00:00	19	20.86	43.16	366.72	ND	ND	1.5	43.9	26.7	60	876.8	0
5798	2010-09-26T13:00:00	18	30.86	42.28	472.38	ND	ND	2.3	44	28.2	54.1	899.1	0
5799	2010-09-26T14:00:00	9	51.62	47.32	463.16	ND	ND	1.8	36.7	28.9	50.8	617.1	0
5800	2010-09-26T15:00:00	4	30.02	30.07	266.94	ND	ND	1.1	39.7	29.2	47.8	353.3	0
5801	2010-09-26T16:00:00	2	18.73	23.40	23.24	ND	ND	1.8	57.3	28.7	49.2	176.8	0
5802	2010-09-26T17:00:00	15	19.66	17.12	34.79	ND	ND	0.6	112.7	28.3	52.9	194.7	0
5803	2010-09-26T18:00:00	9	6.94	25.75	243.24	ND	ND	0.7	315.4	28.1	49.8	108.8	0
5804	2010-09-26T19:00:00	6	6.59	33.15	532.46	ND	ND	1.4	247.9	26.5	53.3	0	0
5805	2010-09-26T20:00:00	7	1.32	13.42	184.22	ND	ND	2.5	263.1	25.4	59	0	0
5806	2010-09-26T21:00:00	14	0.31	18.52	34.41	ND	ND	2.5	261.5	24.7	62.6	0	0
5807	2010-09-26T22:00:00	9	0.21	29.15	103.00	ND	ND	2.6	265.3	24.3	63.4	0	0
5808	2010-09-26T23:00:00	4	ND	18.09	217.15	ND	ND	1.9	270	23.9	65.2	0	0
5809	2010-09-27T00:00:00	3	ND	13.57	205.45	ND	ND	0.2	300.1	23.2	70.4	0	0
5810	2010-09-27T01:00:00	3	ND	13.85	398.54	ND	ND	0.8	162.2	22.3	78.3	0	0
5811	2010-09-27T02:00:00	5	7.30	34.58	431.39	ND	ND	0.6	164.1	22.1	79.2	0	0
5812	2010-09-27T03:00:00	27	3.40	32.66	283.61	ND	ND	0.6	159.7	22.2	76.2	0	0
5813	2010-09-27T04:00:00	28	1.38	33.17	397.20	ND	ND	0.5	145.7	21.5	80.7	0	0
5814	2010-09-27T05:00:00	39	1.19	20.23	294.36	ND	ND	0.8	122.4	21.4	80.8	0	0
5815	2010-09-27T06:00:00	35	0.08	20.62	237.67	ND	ND	0.4	130.7	20.9	81.7	0	0
5816	2010-09-27T07:00:00	30	0.05	26.66	372.85	ND	ND	1	155	21.2	79.3	20.5	0
5817	2010-09-27T08:00:00	45	ND	30.72	350.61	ND	ND	0.6	178.2	21.5	80.3	72.1	0
5818	2010-09-27T09:00:00	48	2.51	39.39	1086.87	ND	ND	0.6	72.3	22.2	75.6	89.4	0
5819	2010-09-27T10:00:00	62	6.23	40.51	1441.25	ND	ND	1.3	40.7	22.8	75.5	114.8	0
5820	2010-09-27T11:00:00	101	8.84	74.09	2024.13	ND	ND	2.4	21.9	21.7	84.6	203	0
5821	2010-09-27T12:00:00	60	17.80	96.22	1903.31	ND	ND	1.9	24.5	23.9	73	639.8	0
5822	2010-09-27T13:00:00	53	30.80	63.43	1198.45	ND	ND	1.5	36.7	26.4	61.1	629.4	0
5823	2010-09-27T14:00:00	26	39.38	62.31	540.97	ND	ND	2.5	8.6	26.1	65.2	313.3	0
5824	2010-09-27T15:00:00	26	24.59	45.18	379.45	ND	ND	1.8	319.6	23.3	75.3	111.2	7.37
5825	2010-09-27T16:00:00	13	16.28	47.53	341.72	ND	ND	1.7	313.8	26	60.3	483.3	0
5826	2010-09-27T17:00:00	15	11.54	49.32	701.17	ND	ND	1.9	291.2	26.6	53.5	235.7	0
5827	2010-09-27T18:00:00	14	6.48	45.63	691.05	ND	ND	1.4	294.3	25.7	55.9	25.3	0
5828	2010-09-27T19:00:00	12	3.07	30.36	252.63	ND	ND	0.2	299.5	24.7	61.1	0	0
5829	2010-09-27T20:00:00	28	2.98	51.01	560.78	ND	ND	0.5	111.6	23.8	67.8	0	0
5830	2010-09-27T21:00:00	44	7.31	65.35	889.98	ND	ND	2	178.7	22.6	74.5	0	0
5831	2010-09-27T22:00:00	34	23.42	66.68	1420.48	ND	ND	2	174.5	22.1	75.7	0	0
5832	2010-09-27T23:00:00	37	7.78	56.48	1009.67	ND	ND	2.9	185.4	21.2	80.9	0	0
5833	2010-09-28T00:00:00	20	5.07	49.22	938.73	ND	ND	1.4	175.7	20.8	84.1	0	0
5834	2010-09-28T01:00:00	16	1.37	19.72	169.42	ND	ND	0.1	186.7	20.9	82.5	0	0
5835	2010-09-28T02:00:00	9	ND	18.61	67.79	ND	ND	0.6	5.7	21.1	82.6	0	0
5836	2010-09-28T03:00:00	6	ND	18.63	113.06	ND	ND	0.8	60.4	20.4	87.2	0	0
5837	2010-09-28T04:00:00	5	0.21	27.50	248.14	ND	ND	0.6	62.1	20.1	89.5	0	0
5838	2010-09-28T05:00:00	15	1.62	17.08	157.75	ND	ND	0.3	283.7	20.2	88.9	0	0
5839	2010-09-28T06:00:00	16	1.83	15.75	191.62	ND	ND	0.5	271	20.7	83.5	0	0
5840	2010-09-28T07:00:00	20	10.74	23.31	191.94	ND	ND	0.7	151.4	20.6	85.6	45.2	0
5841	2010-09-28T08:00:00	44	9.16	20.00	316.03	ND	ND	0.9	148.2	21	85.7	115.6	0
5842	2010-09-28T09:00:00	62	7.65	40.60	1616.23	ND	ND	0.8	116.1	21.9	80.9	203.4	0
5843	2010-09-28T10:00:00	79	8.79	55.62	1881.93	ND	ND	0.6	154.9	23.8	71.4	545.4	0
5844	2010-09-28T11:00:00	55	8.79	99.46	2339.04	ND	ND	1.3	141.2	25.7	63.6	647	0
5845	2010-09-28T12:00:00	52	6.07	52.58	815.29	ND	ND	0.8	146.7	27	56.8	791.2	0
5846	2010-09-28T13:00:00	28	8.23	52.05	853.44	ND	ND	0.8	120	28.6	50	804.7	0
5847	2010-09-28T14:00:00	15	4.80	33.66	637.70	ND	ND	0.8	62.7	29.7	46.1	614.8	0
5848	2010-09-28T15:00:00	30	3.73	48.80	837.85	ND	ND	1.2	113.1	29.6	45.4	392.4	0
5849	2010-09-28T16:00:00	17	3.54	47.87	593.28	ND	ND	2.2	255.9	29.3	44.9	279.7	0
5850	2010-09-28T17:00:00	36	3.51	59.61	720.53	ND	ND	2.5	272.7	28.6	39.1	188.9	0
5851	2010-09-28T18:00:00	19	2.78	39.71	382.62	ND	ND	2	280.2	28.1	37.9	57.3	0
5852	2010-09-28T19:00:00	26	1.96	53.55	555.61	ND	ND	2.2	267.2	26.6	45.1	0	0
5853	2010-09-28T20:00:00	17	2.32	67.30	944.44	ND	ND	2.4	261.2	25.6	49.8	0	0
5854	2010-09-28T21:00:00	18	4.46	83.49	1584.12	ND	ND	2.2	239.3	25.1	54.3	0	0
5855	2010-09-28T22:00:00	9	2.57	65.72	859.49	ND	ND	1.6	253.2	24.9	55.8	0	0
5856	2010-09-28T23:00:00	6	2.12	34.68	366.47	ND	ND	1.5	217.3	24.5	59.8	0	0
5857	2010-09-29T00:00:00	5	0.50	34.67	446.04	ND	ND	0.7	159.3	23.4	65.7	0	0
5858	2010-09-29T01:00:00	26	ND	24.17	262.07	ND	ND	0.4	48.3	23.1	66.2	0	0
5859	2010-09-29T02:00:00	28	2.89	34.55	352.87	ND	ND	0.9	54.7	22.7	69.6	0	0
5860	2010-09-29T03:00:00	39	10.22	33.06	295.56	ND	ND	0.4	159.9	22.2	72.9	0	0
5861	2010-09-29T04:00:00	35	22.01	32.73	295.06	ND	ND	0.5	169.3	22.1	74	0	0
5862	2010-09-29T05:00:00	29	15.00	26.11	181.51	ND	ND	1.6	304.9	22.2	71.9	0	0
5863	2010-09-29T06:00:00	15	7.53	23.30	158.88	ND	ND	1.2	339.5	21.6	75.9	0.1	0
5864	2010-09-29T07:00:00	29	3.13	18.32	192.53	ND	ND	0.9	41.7	20.9	79.7	22.3	0
5865	2010-09-29T08:00:00	25	3.10	30.57	372.85	ND	ND	2.2	6.4	21	77.4	91.5	0
5866	2010-09-29T09:00:00	50	19.03	68.27	1491.90	ND	ND	2.8	357	21.2	76.6	365.5	0
5867	2010-09-29T10:00:00	37	27.06	85.81	1730.43	ND	ND	2	22.1	23.8	62.9	691	0
5868	2010-09-29T11:00:00	35	41.65	62.26	718.83	ND	ND	0.9	80.9	26.3	53	821.6	0
5869	2010-09-29T12:00:00	17	27.21	43.64	414.22	ND	ND	1.5	48	27.6	49.6	901.4	0
5870	2010-09-29T13:00:00	9	14.14	41.42	520.02	ND	ND	1.4	54.5	28.6	45.6	911.1	0
5871	2010-09-29T14:00:00	5	9.02	40.07	486.97	ND	ND	1.2	105.2	29.5	44	729.9	0
5872	2010-09-29T15:00:00	5	9.55	45.45	569.82	ND	ND	1.5	192	29.7	44.9	639	0
5873	2010-09-29T16:00:00	14	14.05	43.98	546.93	ND	ND	1	160.9	29.6	45.3	254.4	0
5874	2010-09-29T17:00:00	27	7.21	40.91	488.58	ND	ND	1.4	148.5	29.2	45.8	194.4	0
5875	2010-09-29T18:00:00	14	6.59	65.55	894.55	ND	ND	1.3	187.9	28.4	49.7	45.6	0
5876	2010-09-29T19:00:00	45	8.11	89.78	1065.98	ND	ND	2.3	248.9	27	57.7	0	0
5877	2010-09-29T20:00:00	35	8.78	94.56	1407.02	ND	ND	1.7	285.5	26.6	57.5	0	0
5878	2010-09-29T21:00:00	45	7.46	65.31	955.96	ND	ND	1.5	272.3	26.2	58.7	0	0
5879	2010-09-29T22:00:00	26	7.29	69.72	747.64	ND	ND	2.8	268.3	25.4	62.5	0	0
5880	2010-09-29T23:00:00	16	8.29	77.38	860.36	ND	ND	1.6	293.3	25.2	63.1	0	0
5881	2010-09-30T00:00:00	15	2.25	24.65	194.88	ND	ND	1.2	160.5	24.5	68.8	0	0
5882	2010-09-30T01:00:00	33	1.67	17.43	160.12	ND	ND	1.4	139.8	23.6	73.8	0	0
5883	2010-09-30T02:00:00	28	5.01	47.26	684.14	ND	ND	0.9	154.4	22.6	80	0	0
5884	2010-09-30T03:00:00	45	2.91	42.11	431.82	ND	ND	1.5	176.5	22.7	76	0	0
5885	2010-09-30T04:00:00	30	1.48	28.44	261.46	ND	ND	0.6	169.9	22.3	79.8	0	0
5886	2010-09-30T05:00:00	32	2.75	18.33	113.52	ND	ND	0.8	170.1	22.3	79.1	0	0
5887	2010-09-30T06:00:00	17	1.35	17.53	102.17	ND	ND	1	35.2	22.2	81.1	0	0
5888	2010-09-30T07:00:00	17	0.83	22.82	442.59	ND	ND	1.4	257.3	22.3	81.5	43.9	0
5889	2010-09-30T08:00:00	11	2.39	28.41	556.26	ND	ND	1.5	177.4	23.5	75.9	207.5	0
5890	2010-09-30T09:00:00	ND	ND	32.12	581.32	ND	ND	1.3	157.1	24.9	70.5	498.1	0
5891	2010-09-30T10:00:00	ND	ND	49.54	1442.98	ND	ND	2	133.5	26.1	64.8	508.6	0
5892	2010-09-30T11:00:00	16	ND	51.17	1034.85	ND	ND	1.9	177.3	26.2	63.9	414.6	0
5893	2010-09-30T12:00:00	37	ND	ND	ND	ND	ND	1	157.5	26.8	61.1	432.5	0
5894	2010-09-30T13:00:00	42	ND	ND	587.79	ND	ND	1.6	154.9	27.2	59.6	284.2	0
5895	2010-09-30T14:00:00	41	9.19	56.58	577.03	ND	ND	1	201.6	28.2	55.2	565.6	0
5896	2010-09-30T15:00:00	22	10.67	83.25	1018.96	ND	ND	1.5	334.5	30.2	44.6	709.4	0
5897	2010-09-30T16:00:00	12	10.37	44.53	769.29	ND	ND	3.7	284.7	29.9	44.1	452.1	0
5898	2010-09-30T17:00:00	8	5.97	32.35	663.73	ND	ND	3.6	284.6	27.7	46.9	57.3	0
5899	2010-09-30T18:00:00	26	4.94	26.23	254.32	ND	ND	4.3	292.2	26.1	52.2	3.4	0
5900	2010-09-30T19:00:00	15	5.50	41.40	689.90	ND	ND	1.2	309.1	25.7	53	0	0
5901	2010-09-30T20:00:00	35	4.52	37.04	413.39	ND	ND	1.1	179.6	23.8	69.8	0	0
5902	2010-09-30T21:00:00	34	5.06	66.48	764.47	ND	ND	1.6	185.7	23.2	72.9	0	0
5903	2010-09-30T22:00:00	30	7.47	65.82	1036.21	ND	ND	1.7	160.2	22.4	75.8	0	0
5904	2010-09-30T23:00:00	16	5.84	59.82	783.57	ND	ND	0.7	128.5	21.8	76	0	0
5905	2010-10-01T00:00:00	19	4.93	54.67	702.65	ND	ND	0.9	88.2	21.5	78.8	0	0
5906	2010-10-01T01:00:00	11	3.24	54.89	667.97	ND	ND	1	168.6	21.2	80.7	0	0
5907	2010-10-01T02:00:00	6	3.31	48.23	475.02	ND	ND	1.5	194.9	20.7	83	0	0
5908	2010-10-01T03:00:00	4	3.10	31.17	101.62	ND	ND	1.1	206.7	20.9	81.1	0	0
5909	2010-10-01T04:00:00	3	3.93	26.01	101.69	ND	ND	0.9	181	21	79.1	0	0
5910	2010-10-01T05:00:00	3	3.64	19.75	158.23	ND	ND	0.8	153	20.1	85.6	0	0
5911	2010-10-01T06:00:00	29	3.81	20.30	135.21	ND	ND	0.5	155.7	19.8	86.3	0.2	0
5912	2010-10-01T07:00:00	43	2.52	29.72	225.12	ND	ND	0.5	119.6	20.2	85.6	44	0
5913	2010-10-01T08:00:00	52	3.58	42.03	405.78	ND	ND	0.3	237.3	21.6	78.2	242.4	0
5914	2010-10-01T09:00:00	37	7.23	49.27	1562.90	ND	ND	1.1	173.3	23.6	68	420.9	0
5915	2010-10-01T10:00:00	52	12.36	69.15	1368.27	ND	ND	1.3	112.2	25.1	64.1	582.7	0
5916	2010-10-01T11:00:00	27	12.24	83.90	1294.97	ND	ND	1	57.5	26.5	58	675.4	0
5917	2010-10-01T12:00:00	32	12.46	82.78	1174.40	ND	ND	1.7	74.7	27.6	55.6	766.1	0
5918	2010-10-01T13:00:00	23	13.43	60.81	832.03	ND	ND	1.1	17.7	29.4	49.8	801.7	0
5919	2010-10-01T14:00:00	23	21.59	71.38	941.64	ND	ND	1.1	34	30	46.5	643.8	0
5920	2010-10-01T15:00:00	16	28.35	52.20	640.66	ND	ND	1.9	10.6	30.1	44.5	190	0
5921	2010-10-01T16:00:00	21	28.36	46.19	605.91	ND	ND	2.8	300.6	29.6	46.7	324.4	0
5922	2010-10-01T17:00:00	12	28.76	53.88	628.18	ND	ND	4.7	269.7	27.8	52.1	187.9	0
5923	2010-10-01T18:00:00	36	16.77	39.30	589.75	ND	ND	4	268.7	26.6	55.7	37.3	0
5924	2010-10-01T19:00:00	20	5.80	28.57	552.84	ND	ND	0.9	282.4	26.5	52.9	0	0
5925	2010-10-01T20:00:00	51	5.61	37.10	667.80	ND	ND	1.8	175.4	24.6	66.3	0	0
5926	2010-10-01T21:00:00	26	6.20	67.49	1475.85	ND	ND	2	187.8	24.3	67	0	0
5927	2010-10-01T22:00:00	42	9.10	78.69	1348.64	ND	ND	1.1	197.7	24.6	62.9	0	0
5928	2010-10-01T23:00:00	23	7.80	74.52	1041.10	ND	ND	0.9	350.4	23.5	68.9	0	0
5929	2010-10-02T00:00:00	46	8.13	78.71	1561.58	ND	ND	0.1	81.6	22.5	74.6	0	0
5930	2010-10-02T01:00:00	24	9.87	68.17	1204.16	ND	ND	1	257.8	22.6	66.9	0	0
5931	2010-10-02T02:00:00	27	17.54	70.41	1022.74	ND	ND	0.8	39.2	21.9	74.6	0	0
5932	2010-10-02T03:00:00	26	14.47	34.93	408.13	ND	ND	0.3	35.6	21	80.4	0	0
5933	2010-10-02T04:00:00	37	11.37	55.30	949.39	ND	ND	0.8	252.6	21.1	76.4	0	0
5934	2010-10-02T05:00:00	20	22.76	49.07	486.16	ND	ND	1	260.3	21	73.7	0	0
5935	2010-10-02T06:00:00	14	24.20	51.77	655.53	ND	ND	0.9	253.9	21	72.2	0	0
5936	2010-10-02T07:00:00	8	20.68	32.95	282.56	ND	ND	0.1	59.1	21.3	74.3	28.7	0
5937	2010-10-02T08:00:00	70	14.91	31.99	271.53	ND	ND	0.7	105.1	21.7	76.9	149.2	0
5938	2010-10-02T09:00:00	69	12.98	50.22	1064.95	ND	ND	1.2	125.8	23.3	70.8	298.5	0
5939	2010-10-02T10:00:00	62	23.60	83.00	2152.85	ND	ND	0.9	126.4	24.4	65.3	445.4	0
5940	2010-10-02T11:00:00	46	18.23	82.67	1714.95	ND	ND	1	125.5	25.3	62.1	507.3	0
5941	2010-10-02T12:00:00	63	16.31	69.79	1123.83	ND	ND	1.1	133.8	26.7	57.6	655.9	0
5942	2010-10-02T13:00:00	70	25.22	70.77	864.11	ND	ND	1.3	84.4	27.3	55.4	460.4	0
5943	2010-10-02T14:00:00	54	26.77	70.22	946.65	ND	ND	0.4	100.8	27.9	52.8	594.1	0
5944	2010-10-02T15:00:00	36	37.52	87.69	1087.35	ND	ND	1.4	147.8	28.1	53.9	338.6	0
5945	2010-10-02T16:00:00	63	33.28	52.87	601.91	ND	ND	1.7	166.4	27.8	55.8	219.6	0
5946	2010-10-02T17:00:00	59	26.63	71.37	878.84	ND	ND	1.5	165.8	27.8	55.3	217.4	0
5947	2010-10-02T18:00:00	60	22.90	66.60	994.48	ND	ND	2.4	279.1	27	55.5	52.8	0
5948	2010-10-02T19:00:00	31	21.23	67.88	888.04	ND	ND	2.2	287.7	25.7	56.5	0	0
5949	2010-10-02T20:00:00	18	11.27	41.23	631.56	ND	ND	3.5	262.1	25.3	57.3	0	0
5950	2010-10-02T21:00:00	10	5.14	42.01	550.45	ND	ND	3.5	267.5	25.2	55.9	0	0
5951	2010-10-02T22:00:00	7	3.67	36.21	435.62	ND	ND	2.3	277.4	24.7	59.4	0	0
5952	2010-10-02T23:00:00	4	1.99	26.70	286.11	ND	ND	1.9	258.5	24	63	0	0
5953	2010-10-03T00:00:00	2	2.43	25.19	262.61	ND	ND	2.3	236.3	23.5	66.2	0	0
5954	2010-10-03T01:00:00	2	2.03	27.92	319.16	ND	ND	2.1	196.5	22.9	73.2	0	0
5955	2010-10-03T02:00:00	34	1.72	18.20	182.01	ND	ND	2.2	176.3	22.1	79.8	0	0
5956	2010-10-03T03:00:00	18	2.96	33.01	340.34	ND	ND	1.1	176.3	21.7	81	0	0
5957	2010-10-03T04:00:00	14	4.30	30.70	294.56	ND	ND	0.7	29.5	21.8	80.9	0	0
5958	2010-10-03T05:00:00	27	3.58	25.62	192.66	ND	ND	0.7	117.5	21.6	83.3	0	0
5959	2010-10-03T06:00:00	16	3.16	41.32	373.74	ND	ND	0.9	184	21.5	83.6	0	0
5960	2010-10-03T07:00:00	18	4.04	43.39	430.22	ND	ND	1	146.6	21.4	85.8	34.7	0
5961	2010-10-03T08:00:00	11	3.47	28.51	271.62	ND	ND	0.8	138	22.5	80.4	248.9	0
5962	2010-10-03T09:00:00	7	3.66	38.31	590.72	ND	ND	1	95.9	23.9	71.5	386.4	0
5963	2010-10-03T10:00:00	15	4.46	36.05	639.17	ND	ND	1.2	115.6	25.4	64.4	567	0
5964	2010-10-03T11:00:00	9	4.20	32.04	435.92	ND	ND	0.9	137.8	26.2	61	517.5	0
5965	2010-10-03T12:00:00	7	5.18	33.15	345.07	ND	ND	0.2	95	27.2	56.3	667.7	0
5966	2010-10-03T13:00:00	5	5.17	26.37	276.98	ND	ND	1.3	256.4	27.9	52.3	284.9	0
5967	2010-10-03T14:00:00	2	7.86	26.57	300.76	ND	ND	3.2	281.1	29	46.9	798.5	0
5968	2010-10-03T15:00:00	2	6.35	22.06	255.42	ND	ND	3.6	283.7	28.7	46.5	599	0
5969	2010-10-03T16:00:00	2	1.99	10.64	92.79	ND	ND	3.6	287.3	29.4	44.1	543.5	0
5970	2010-10-03T17:00:00	2	2.02	9.04	174.38	ND	ND	3.9	278.9	27.5	50.4	136.3	0
5971	2010-10-03T18:00:00	2	1.37	6.82	80.87	ND	ND	4.3	274.4	26.2	54.8	15	0
5972	2010-10-03T19:00:00	2	1.87	8.09	115.02	ND	ND	4.1	259.1	25.1	60.8	0	0
5973	2010-10-03T20:00:00	6	1.02	7.18	91.68	ND	ND	2	225	23.8	71.8	0	0
5974	2010-10-03T21:00:00	5	1.33	11.86	171.15	ND	ND	3	272.2	21.3	85.8	0	8.89
5975	2010-10-03T22:00:00	9	2.95	37.57	520.44	ND	ND	1.8	271.6	21.3	85	0	6.35
5976	2010-10-03T23:00:00	6	0.96	18.38	90.51	ND	ND	1.5	242.1	21.4	84.7	0	3.05
5977	2010-10-04T00:00:00	8	0.36	25.45	362.17	ND	ND	1	161.4	21.4	89.8	0	0.25
5978	2010-10-04T01:00:00	5	0.23	20.49	226.35	ND	ND	0.7	165.4	20.9	91.7	0	13.97
5979	2010-10-04T02:00:00	2	0.34	40.09	553.62	ND	ND	0.4	193.6	19.8	96.9	0	31.5
5980	2010-10-04T03:00:00	2	ND	18.25	258.89	ND	ND	0.7	210	19.8	94.6	0	7.37
5981	2010-10-04T04:00:00	3	0.03	15.25	281.40	ND	ND	0.5	195.1	19.9	93.9	0	1.27
5982	2010-10-04T05:00:00	5	0.15	7.42	180.16	ND	ND	0.6	160.6	20	94	0	2.03
5983	2010-10-04T06:00:00	4	ND	6.78	157.69	ND	ND	1.3	155	19.8	95.3	0	1.27
5984	2010-10-04T07:00:00	3	ND	16.71	213.87	ND	ND	1.3	191.1	19.6	95.9	4.2	5.33
5985	2010-10-04T08:00:00	3	ND	32.33	359.95	ND	ND	1	230.3	19.7	95.7	40.5	3.3
5986	2010-10-04T09:00:00	3	ND	43.95	517.61	ND	ND	0.8	177.9	20.3	92.7	82.6	1.78
5987	2010-10-04T10:00:00	7	0.59	57.37	1240.29	ND	ND	1.1	167.5	20.7	92.2	162	0.76
5988	2010-10-04T11:00:00	3	2.35	74.62	1625.87	ND	ND	1.1	187.6	21.2	89.7	222.7	0.51
5989	2010-10-04T12:00:00	2	2.12	70.70	1481.61	ND	ND	1.4	157.9	22.5	81.1	375.9	0
5990	2010-10-04T13:00:00	2	1.09	63.20	988.32	ND	ND	1.4	143.2	23.8	73.8	515.5	0
5991	2010-10-04T14:00:00	3	1.46	64.81	947.03	ND	ND	1.3	151.7	24.2	70.8	355.4	0
5992	2010-10-04T15:00:00	2	ND	49.29	731.22	ND	ND	0.9	181.7	24.4	68.7	284.2	0
5993	2010-10-04T16:00:00	1	1.96	60.54	766.01	ND	ND	0.7	215	24.6	67	226	0
5994	2010-10-04T17:00:00	2	2.51	43.43	423.31	ND	ND	0.6	110.3	24.9	65.3	128.5	0
5995	2010-10-04T18:00:00	33	ND	48.31	606.97	ND	ND	1	84.2	24.3	70.2	29.7	0
5996	2010-10-04T19:00:00	65	2.98	104.57	1508.65	ND	ND	0.6	118.2	23.7	72.7	0	0
5997	2010-10-04T20:00:00	66	8.92	104.52	1973.25	ND	ND	0.4	198.6	23.5	74.1	0	0
5998	2010-10-04T21:00:00	53	9.83	108.16	2633.03	ND	ND	1	266.1	22.9	79.4	0	0
5999	2010-10-04T22:00:00	56	8.12	89.84	1387.79	ND	ND	0.6	271.2	22.5	80.3	0	0
6000	2010-10-04T23:00:00	41	5.82	74.01	1476.80	ND	ND	0.2	287.3	22.5	80.7	0	0
6001	2010-10-05T00:00:00	47	4.26	55.88	976.96	ND	ND	0.3	247.7	21.9	81.9	0	0
6002	2010-10-05T01:00:00	33	5.03	62.70	1394.44	ND	ND	0.9	205.2	21.3	81.7	0	0
6003	2010-10-05T02:00:00	22	3.57	39.69	871.17	ND	ND	0.8	250.8	21	82.4	0	0
6004	2010-10-05T03:00:00	16	2.74	27.84	350.37	ND	ND	1.2	242.9	20.8	81.1	0	0
6005	2010-10-05T04:00:00	16	1.58	22.25	101.65	ND	ND	0.5	270.7	21.2	76.6	0	0
6006	2010-10-05T05:00:00	24	1.01	17.65	135.72	ND	ND	0.7	5	20.7	88.9	0	0
6007	2010-10-05T06:00:00	52	1.11	9.21	67.74	ND	ND	0.5	39.3	20.5	91.3	0	0
6008	2010-10-05T07:00:00	51	2.55	29.09	428.76	ND	ND	0.4	121.2	20.7	90.8	15.3	0
6009	2010-10-05T08:00:00	53	7.80	38.55	745.19	ND	ND	0.8	176.6	21.4	87.7	202.9	0
6010	2010-10-05T09:00:00	50	9.89	45.16	1663.70	ND	ND	0.6	191.8	23.7	75.2	426.9	0
6011	2010-10-05T10:00:00	45	12.16	66.81	2326.84	ND	ND	1.1	142.5	25.2	67.9	582.3	0
6012	2010-10-05T11:00:00	45	13.03	93.99	1570.54	ND	ND	0.3	103.7	26.3	63.7	538.5	0
6013	2010-10-05T12:00:00	47	9.47	59.47	862.95	ND	ND	0.7	58.2	27.3	60.2	413.2	0
6014	2010-10-05T13:00:00	43	9.29	51.97	634.95	ND	ND	0.6	312.2	27.9	56.2	591.5	0
6015	2010-10-05T14:00:00	53	13.78	88.74	890.70	ND	ND	1.3	337.1	28.7	53.1	425.7	0
6016	2010-10-05T15:00:00	27	11.38	72.88	927.87	ND	ND	3.2	282	28.8	49.5	642.9	0
6017	2010-10-05T16:00:00	17	22.77	54.23	580.11	ND	ND	4.3	283.1	27.1	54.3	251.5	0
6018	2010-10-05T17:00:00	16	17.60	30.42	392.25	ND	ND	4.1	285.8	26.3	56.3	95	0
6019	2010-10-05T18:00:00	24	6.11	26.39	506.27	ND	ND	3.9	282.9	24.8	64.7	3.5	0
6020	2010-10-05T19:00:00	13	6.28	33.26	744.15	ND	ND	2.7	245.8	23.9	70.8	0	0
6021	2010-10-05T20:00:00	7	5.53	33.44	696.24	ND	ND	2.4	264.5	23.3	72.5	0	0
6022	2010-10-05T21:00:00	6	4.85	52.17	956.82	ND	ND	1.3	231.7	23.4	72.7	0	0
6023	2010-10-05T22:00:00	4	3.52	38.12	592.52	ND	ND	1.6	249.9	23.2	72.7	0	0
6024	2010-10-05T23:00:00	4	2.73	42.38	614.89	ND	ND	1.1	218.3	22.5	79.5	0	0
6025	2010-10-06T00:00:00	15	2.39	32.63	454.40	ND	ND	1.3	205.8	21.9	86.9	0	0
6026	2010-10-06T01:00:00	9	1.76	48.68	532.83	ND	ND	1	219	21.2	87.7	0	1.27
6027	2010-10-06T02:00:00	6	0.96	46.34	361.92	ND	ND	0.8	186.7	20.7	90.6	0	0.51
6028	2010-10-06T03:00:00	5	0.57	16.93	124.20	ND	ND	0.9	196.3	20.7	92.5	0	3.3
6029	2010-10-06T04:00:00	4	0.31	16.89	79.04	ND	ND	0.5	124.2	20.2	95.4	0	5.08
6030	2010-10-06T05:00:00	3	0.05	12.34	56.36	ND	ND	0.7	136.2	20.1	96.1	0	4.32
6031	2010-10-06T06:00:00	2	ND	14.63	135.21	ND	ND	0.7	149.2	19.8	96.4	0	0.76
6032	2010-10-06T07:00:00	3	0.18	19.23	281.40	ND	ND	0.2	184	20.1	94.8	9	0
6033	2010-10-06T08:00:00	25	ND	34.55	529.58	ND	ND	0.7	223.6	21	89.9	77.2	0
6034	2010-10-06T09:00:00	16	1.40	50.39	1073.72	ND	ND	0.8	211.3	21.9	84.1	219.1	0
6035	2010-10-06T10:00:00	9	2.02	51.31	1643.85	ND	ND	1.1	129.2	24	72.4	567	0
6036	2010-10-06T11:00:00	14	2.48	65.27	1746.90	ND	ND	1.4	98.8	24.5	72.8	373.4	0
6037	2010-10-06T12:00:00	33	0.84	79.99	1097.94	ND	ND	0.8	89.2	25.9	66.5	590.8	0
6038	2010-10-06T13:00:00	22	1.08	101.03	1218.01	ND	ND	1	73.2	26	64.5	288.8	0
6039	2010-10-06T14:00:00	50	0.58	72.43	770.13	ND	ND	1.5	28.4	26.3	63.3	298.7	0
6040	2010-10-06T15:00:00	35	1.97	79.88	978.01	ND	ND	1.3	54.5	26.8	60.5	418	0
6041	2010-10-06T16:00:00	25	3.03	62.96	852.87	ND	ND	1.5	327.2	27.6	53.4	378	0
6042	2010-10-06T17:00:00	14	5.71	76.32	1063.15	ND	ND	1	323.7	27.7	53.8	233	0
6043	2010-10-06T18:00:00	24	14.81	41.77	647.35	ND	ND	1.7	356.9	26.3	57.9	42.3	0
6044	2010-10-06T19:00:00	36	45.84	55.20	678.86	ND	ND	1	288.8	25.4	62.3	0	0
6045	2010-10-06T20:00:00	36	34.53	90.45	1365.10	ND	ND	0.9	275	24.8	64.1	0	0
6046	2010-10-06T21:00:00	22	44.96	73.31	1820.29	ND	ND	0.2	266.1	24	69.8	0	0
6047	2010-10-06T22:00:00	75	13.68	63.71	1438.62	ND	ND	0.5	90.5	23.1	76.3	0	0
6048	2010-10-06T23:00:00	91	10.49	57.40	2026.18	ND	ND	1.1	202	23.2	74.5	0	0
6049	2010-10-07T00:00:00	77	13.44	53.73	2903.65	ND	ND	1.1	181.3	22.5	78	0	0
6050	2010-10-07T01:00:00	40	14.16	46.43	1556.32	ND	ND	1.2	174.3	22.1	81.3	0	0
6051	2010-10-07T02:00:00	27	7.76	44.45	907.57	ND	ND	1.1	167	22	81.8	0	0
6052	2010-10-07T03:00:00	14	5.24	37.27	430.95	ND	ND	1.3	202.9	21.8	81.6	0	0
6053	2010-10-07T04:00:00	21	4.35	32.01	215.33	ND	ND	0.9	214.7	21.9	78.4	0	0
6054	2010-10-07T05:00:00	12	4.02	20.52	34.01	ND	ND	0.4	30	21.9	78.3	0	0
6055	2010-10-07T06:00:00	32	4.62	19.12	102.03	ND	ND	0.8	354.9	21.2	86.4	0	0
6056	2010-10-07T07:00:00	29	4.29	19.26	214.89	ND	ND	0.5	249.4	21.5	81.6	25.2	0
6057	2010-10-07T08:00:00	63	8.57	33.99	588.72	ND	ND	0.2	228.1	22.2	78.7	103.2	0
6058	2010-10-07T09:00:00	52	18.97	36.06	1191.59	ND	ND	0.6	187.1	23.4	73.8	290.9	0
6059	2010-10-07T10:00:00	64	25.33	56.42	1709.18	ND	ND	0.6	151.9	24.5	71.4	404.3	0
6060	2010-10-07T11:00:00	50	28.64	78.76	1063.63	ND	ND	1.2	116	26.5	62.6	699	0
6061	2010-10-07T12:00:00	77	19.25	84.25	748.39	ND	ND	1	74.9	27.4	59.1	612.4	0
6062	2010-10-07T13:00:00	62	19.60	75.91	554.32	ND	ND	1.2	70.3	29.4	52.3	829.3	0
6063	2010-10-07T14:00:00	57	24.09	67.72	534.76	ND	ND	1.5	31.1	30	50.6	520.4	0
6064	2010-10-07T15:00:00	34	20.41	61.97	454.28	ND	ND	1.9	293.2	29.9	49.2	509.4	0
6065	2010-10-07T16:00:00	20	31.03	47.88	360.98	ND	ND	3.5	279.3	29.1	51.3	393.3	0
6066	2010-10-07T17:00:00	15	21.68	32.71	220.66	ND	ND	3.7	268.2	27.5	55.6	151.1	0
6067	2010-10-07T18:00:00	14	6.42	19.45	150.18	ND	ND	2.9	285.1	27.2	55.4	38.1	0
6068	2010-10-07T19:00:00	8	4.65	23.55	184.65	ND	ND	3	279.2	26.7	56.7	0	0
6069	2010-10-07T20:00:00	7	4.51	28.30	241.95	ND	ND	3.7	271.1	26.2	59.6	0	0
6070	2010-10-07T21:00:00	4	4.16	31.58	264.55	ND	ND	2.5	289.4	25.7	61.8	0	0
6071	2010-10-07T22:00:00	2	3.13	32.26	459.32	ND	ND	2.9	283.7	25.3	62.9	0	0
6072	2010-10-07T23:00:00	2	1.89	25.09	344.03	ND	ND	1.1	237.4	25.1	64.4	0	0
6073	2010-10-08T00:00:00	5	1.52	10.00	171.90	ND	ND	1.1	204.7	24.2	73.4	0	0
6074	2010-10-08T01:00:00	11	4.18	32.53	639.82	ND	ND	0.4	86.9	23.6	76.8	0	0
6075	2010-10-08T02:00:00	23	2.66	38.13	353.47	ND	ND	1	158.8	23.2	78.7	0	0
6076	2010-10-08T03:00:00	13	3.91	38.26	535.18	ND	ND	0.8	153	22.9	79.8	0	0
6077	2010-10-08T04:00:00	22	4.19	27.29	204.76	ND	ND	0.6	108.7	22.4	82.8	0	0
6078	2010-10-08T05:00:00	17	4.10	23.06	363.40	ND	ND	0.4	169.4	22.4	82.8	0	0
6079	2010-10-08T06:00:00	9	3.97	21.36	374.75	ND	ND	0.5	166.2	22.4	82.6	0.1	0
6080	2010-10-08T07:00:00	38	2.49	22.78	363.40	ND	ND	0.6	138.5	22.5	81.8	26.8	0
6081	2010-10-08T08:00:00	48	4.24	29.58	556.64	ND	ND	1.4	55.8	22.7	81	77.3	0
6082	2010-10-08T09:00:00	27	6.45	39.92	1500.53	ND	ND	1.6	33.8	23.3	77.7	258.1	0
6083	2010-10-08T10:00:00	31	9.17	50.88	1913.64	ND	ND	0.8	272.6	25.5	63.2	405.6	0
6084	2010-10-08T11:00:00	15	11.39	43.64	1193.43	ND	ND	1.4	238.7	26.3	55.3	397.2	0
6085	2010-10-08T12:00:00	18	15.42	44.06	770.91	ND	ND	1.1	49.3	28.2	49.8	644.1	0
6086	2010-10-08T13:00:00	14	ND	34.51	636.85	ND	ND	1.9	160	28.9	49.8	365.6	0
6087	2010-10-08T14:00:00	35	ND	ND	ND	ND	ND	2.1	169.4	27.4	59.6	197.6	0
6088	2010-10-08T15:00:00	26	11.67	71.98	1074.00	ND	ND	1.5	174.6	27.2	60.9	278.1	0
6089	2010-10-08T16:00:00	19	8.37	62.12	1107.90	ND	ND	1.3	199.7	27.9	53.1	331.6	0
6090	2010-10-08T17:00:00	10	8.47	43.07	936.97	ND	ND	1.3	235.6	28.5	50.4	280.9	0
6091	2010-10-08T18:00:00	5	5.94	39.79	753.39	ND	ND	2.3	254.8	27.4	53.4	72.4	0
6092	2010-10-08T19:00:00	10	4.65	33.40	554.32	ND	ND	2.8	252.2	26	58.7	0	0
6093	2010-10-08T20:00:00	14	4.57	41.48	850.59	ND	ND	2.1	260.4	25.4	61.4	0	0
6094	2010-10-08T21:00:00	8	3.78	43.51	1101.26	ND	ND	1.3	275.4	24.7	63.7	0	0
6095	2010-10-08T22:00:00	22	3.72	54.09	1121.56	ND	ND	1.2	265.8	24	65.9	0	0
6096	2010-10-08T23:00:00	13	3.76	52.20	1096.09	ND	ND	1.8	261.3	23.4	67.3	0	0
6097	2010-10-09T00:00:00	21	3.75	47.54	991.33	ND	ND	1.1	238.1	23.1	72	0	0
6098	2010-10-09T01:00:00	12	2.24	27.90	660.22	ND	ND	1.5	237	22.8	71	0	0
6099	2010-10-09T02:00:00	12	2.18	38.49	1034.81	ND	ND	0.8	295.3	22.3	75	0	0
6100	2010-10-09T03:00:00	15	2.44	30.50	681.14	ND	ND	0.7	36.8	21.8	81.4	0	0
6101	2010-10-09T04:00:00	30	3.03	24.35	611.98	ND	ND	0.4	114.9	21.7	83.5	0	0
6102	2010-10-09T05:00:00	17	9.46	31.89	634.44	ND	ND	1.1	177.8	21.3	86.1	0	0
6103	2010-10-09T06:00:00	21	11.26	28.12	577.01	ND	ND	1.3	182	21.2	85.5	0.1	0
6104	2010-10-09T07:00:00	13	7.40	24.86	633.36	ND	ND	1	158.6	21.3	84	44.6	0
6105	2010-10-09T08:00:00	29	6.08	24.35	633.57	ND	ND	1.5	168.7	22.7	76.6	254.9	0
6106	2010-10-09T09:00:00	17	6.24	30.50	1159.50	ND	ND	1.8	162	23.6	73.7	400.8	0
6107	2010-10-09T10:00:00	25	11.29	39.24	1334.06	ND	ND	1.6	175.3	25.4	66.1	639.9	0
6108	2010-10-09T11:00:00	24	12.49	46.70	1445.40	ND	ND	1.7	138.3	26.9	60.8	688.6	0
6109	2010-10-09T12:00:00	47	10.55	42.42	1072.21	ND	ND	0.7	123.3	28.5	54.2	672.4	0
6110	2010-10-09T13:00:00	36	11.90	59.97	1298.15	ND	ND	0.6	103.4	29.6	50.7	733.1	0
6111	2010-10-09T14:00:00	48	10.67	46.00	1163.29	ND	ND	1	126.1	30.9	47	810.6	0
6112	2010-10-09T15:00:00	40	10.69	45.12	1133.24	ND	ND	1.4	93.4	31.6	45.1	593.2	0
6113	2010-10-09T16:00:00	72	10.20	53.29	1159.27	ND	ND	1.1	107.8	31.4	44.5	295.5	0
6114	2010-10-09T17:00:00	48	11.43	73.32	1415.96	ND	ND	2.5	279.4	30.6	49.1	274.3	0
6115	2010-10-09T18:00:00	39	12.47	71.48	1272.18	ND	ND	3.5	270.7	28.8	53.3	51.1	0
6116	2010-10-09T19:00:00	21	6.21	32.46	893.37	ND	ND	4.1	271.6	27.1	58.3	0	0
6117	2010-10-09T20:00:00	26	4.96	35.58	807.58	ND	ND	3.8	268.5	26.6	58.6	0	0
6118	2010-10-09T21:00:00	15	4.82	37.81	783.20	ND	ND	2.3	290.2	26.4	58.8	0	0
6119	2010-10-09T22:00:00	20	3.19	32.49	736.63	ND	ND	1.8	288.6	26.2	59.1	0	0
6120	2010-10-09T23:00:00	16	2.50	29.78	460.09	ND	ND	1.5	262	25.7	62.1	0	0
6121	2010-10-10T00:00:00	26	1.94	20.37	447.84	ND	ND	0.6	352.5	24.5	70.2	0	0
6122	2010-10-10T01:00:00	53	2.17	33.90	754.83	ND	ND	0.8	151.2	23.8	76.2	0	0
6123	2010-10-10T02:00:00	50	9.81	37.37	992.66	ND	ND	0.8	136.7	23.6	78.8	0	0
6124	2010-10-10T03:00:00	45	11.58	45.81	1334.06	ND	ND	1.3	129.6	23	81.2	0	0
6125	2010-10-10T04:00:00	49	6.30	35.96	1012.75	ND	ND	0.9	162.7	22.7	82.7	0	0.25
6126	2010-10-10T05:00:00	26	4.42	29.04	909.41	ND	ND	0.9	257.2	22.5	84.5	0	0
6127	2010-10-10T06:00:00	40	4.55	26.26	806.56	ND	ND	0.2	180	22.7	82.5	0	0.25
6128	2010-10-10T07:00:00	43	2.78	20.22	682.06	ND	ND	0.5	134.7	22.4	83.7	56.1	0
6129	2010-10-10T08:00:00	49	2.96	27.89	919.85	ND	ND	0.5	149	23.9	76.8	251.4	0
6130	2010-10-10T09:00:00	26	3.34	27.36	1027.24	ND	ND	1.5	139.5	25	69.7	465.4	0
6131	2010-10-10T10:00:00	21	4.53	33.60	1111.24	ND	ND	0.9	162	26.7	62.6	664.1	0
6132	2010-10-10T11:00:00	21	5.96	29.81	933.24	ND	ND	1.1	96.6	28.4	55.9	761.8	0
6133	2010-10-10T12:00:00	23	7.16	21.30	834.25	ND	ND	0.8	76.7	29.8	51.2	760.6	0
6134	2010-10-10T13:00:00	21	7.48	32.71	1001.09	ND	ND	1	93.4	30.6	47.8	579.4	0
6135	2010-10-10T14:00:00	31	7.42	29.19	922.04	ND	ND	1.6	68.8	30.6	47.8	429.1	0
6136	2010-10-10T15:00:00	31	6.06	34.85	1027.08	ND	ND	0.6	55.3	30.1	49.8	165.6	0
6137	2010-10-10T16:00:00	32	8.16	38.93	1060.34	ND	ND	2.8	280.7	29.4	50.6	247.9	0
6138	2010-10-10T17:00:00	17	9.36	35.36	1011.39	ND	ND	3	280.8	29.5	49.9	230.8	0
6139	2010-10-10T18:00:00	19	7.34	7.76	651.23	ND	ND	4	273.4	27.2	56.4	34	0
6140	2010-10-10T19:00:00	11	11.01	6.24	600.11	ND	ND	3.6	270.6	26.4	58.6	0	0
6141	2010-10-10T20:00:00	7	5.98	4.31	552.47	ND	ND	3.4	267.9	26.1	59.4	0	0
6142	2010-10-10T21:00:00	6	4.73	10.62	643.91	ND	ND	1.4	311.2	25.8	61	0	0
6143	2010-10-10T22:00:00	16	4.05	15.45	654.75	ND	ND	0.5	193.6	24.9	66.2	0	0
6144	2010-10-10T23:00:00	9	4.58	26.87	984.89	ND	ND	1.9	237.2	24.9	65.6	0	0
6145	2010-10-11T00:00:00	16	11.60	45.73	1832.36	ND	ND	1	240.7	24.4	69.1	0	0
6146	2010-10-11T01:00:00	19	5.07	16.77	685.98	ND	ND	0.9	26.5	22.8	76.5	0	0
6147	2010-10-11T02:00:00	12	4.73	30.31	886.98	ND	ND	0.7	48.2	22.1	79.5	0	0
6148	2010-10-11T03:00:00	11	9.37	30.48	782.78	ND	ND	0.7	167.8	22.1	81.5	0	0
6149	2010-10-11T04:00:00	29	5.97	17.42	589.92	ND	ND	0.8	147.3	21.9	81.8	0	0
6150	2010-10-11T05:00:00	17	4.77	19.12	600.86	ND	ND	0.7	158.1	21.8	81.3	0	0
6151	2010-10-11T06:00:00	28	3.65	17.79	634.65	ND	ND	0.5	144.8	21.6	82.3	0.2	0
6152	2010-10-11T07:00:00	40	3.76	19.92	645.55	ND	ND	1.2	2.9	21.9	80.8	37.3	0
6153	2010-10-11T08:00:00	71	4.05	27.73	816.26	ND	ND	0.9	70.6	23.2	74.9	247.6	0
6154	2010-10-11T09:00:00	49	8.33	39.31	1366.43	ND	ND	1.3	54.3	25.1	62.6	451.1	0
6155	2010-10-11T10:00:00	44	35.15	68.17	2097.16	ND	ND	0.9	59.1	26.7	56.7	665	0
6156	2010-10-11T11:00:00	37	96.74	56.26	1048.45	ND	ND	0.9	50.4	28.6	51.2	796.2	0
6157	2010-10-11T12:00:00	35	32.86	45.54	846.40	ND	ND	1.3	151.9	30.1	46.6	745.4	0
6158	2010-10-11T13:00:00	43	18.58	41.65	699.13	ND	ND	1.2	168.4	30.4	44.5	787.9	0
6159	2010-10-11T14:00:00	37	17.53	52.85	769.80	ND	ND	0.7	143.7	31.7	37.9	745.4	0
6160	2010-10-11T15:00:00	21	12.11	38.77	714.53	ND	ND	1.3	186.8	32.5	34.3	667.2	0
6161	2010-10-11T16:00:00	32	9.91	40.72	739.90	ND	ND	1	153.3	32.9	33.2	503.6	0
6162	2010-10-11T17:00:00	18	10.79	35.63	764.39	ND	ND	4	273	30.6	44.1	283.5	0
6163	2010-10-11T18:00:00	31	13.43	58.85	945.38	ND	ND	3.7	272.9	28.3	49.9	26.8	0
6164	2010-10-11T19:00:00	16	7.21	31.78	741.31	ND	ND	3.8	270.4	27.3	52.5	0	0
6165	2010-10-11T20:00:00	33	6.28	42.04	935.10	ND	ND	4.5	268.5	26.6	55.2	0	0
6166	2010-10-11T21:00:00	18	5.80	49.57	1002.03	ND	ND	2.8	281.1	26.2	57.2	0	0
6167	2010-10-11T22:00:00	10	4.08	27.68	540.60	ND	ND	2.3	281.9	26.1	57.3	0	0
6168	2010-10-11T23:00:00	6	3.42	22.34	459.93	ND	ND	1.8	235.7	25.2	61.6	0	0
6169	2010-10-12T00:00:00	29	2.94	12.83	229.28	ND	ND	1.5	196	24.2	69.1	0	0
6170	2010-10-12T01:00:00	16	1.86	14.71	285.63	ND	ND	0.7	233.8	23.8	70	0	0
6171	2010-10-12T02:00:00	39	3.11	33.20	513.45	ND	ND	0.7	12.6	23	75.5	0	0
6172	2010-10-12T03:00:00	48	3.80	25.61	523.44	ND	ND	0.1	143.8	22.7	75.9	0	0
6173	2010-10-12T04:00:00	40	8.03	42.97	795.74	ND	ND	0.7	159.9	22.5	74.4	0	0
6174	2010-10-12T05:00:00	23	14.52	36.44	738.40	ND	ND	0.3	168.4	22.1	75	0	0
6175	2010-10-12T06:00:00	52	11.86	20.74	397.06	ND	ND	0.2	50.3	21.4	80.4	0.4	0
6176	2010-10-12T07:00:00	30	8.39	23.87	690.38	ND	ND	1	224.9	21.6	73.9	62.4	0
6177	2010-10-12T08:00:00	49	7.54	31.24	804.10	ND	ND	0.5	112.3	23.5	67.7	246.4	0
6178	2010-10-12T09:00:00	49	10.61	38.40	1014.46	ND	ND	0.9	80.4	25	62.9	466.8	0
6179	2010-10-12T10:00:00	62	10.82	84.57	1878.80	ND	ND	0.9	99.3	26.5	58	661	0
6180	2010-10-12T11:00:00	51	25.49	72.52	1324.08	ND	ND	1.4	133	28	52.3	796.1	0
6181	2010-10-12T12:00:00	62	34.43	57.15	1191.85	ND	ND	0.9	128.5	29.6	46.8	854.5	0
6182	2010-10-12T13:00:00	34	21.31	54.26	721.24	ND	ND	1.5	75.5	31.2	40.4	820	0
6183	2010-10-12T14:00:00	45	15.35	49.08	760.14	ND	ND	1.7	58.3	31.1	40.2	532.4	0
6184	2010-10-12T15:00:00	34	13.13	54.97	853.41	ND	ND	2.6	285.6	31.4	42.9	570.1	0
6185	2010-10-12T16:00:00	25	15.12	47.06	596.81	ND	ND	3.8	282.7	30	46.8	266.3	0
6186	2010-10-12T17:00:00	18	9.19	26.73	209.67	ND	ND	3.7	281.4	28.5	50.9	100.2	0
6187	2010-10-12T18:00:00	20	6.68	30.95	394.08	ND	ND	5.3	270.5	27.2	55.2	20	0
6188	2010-10-12T19:00:00	11	7.21	36.90	669.36	ND	ND	5	268.6	26.2	58.2	0	0
6189	2010-10-12T20:00:00	6	5.29	23.81	299.06	ND	ND	3.2	284.4	26.2	57.1	0	0
6190	2010-10-12T21:00:00	5	3.92	23.01	345.07	ND	ND	0.9	282.4	26.1	56.9	0	0
6191	2010-10-12T22:00:00	4	3.29	29.98	310.46	ND	ND	2	272.4	25.6	59.6	0	0
6192	2010-10-12T23:00:00	5	5.99	44.20	493.60	ND	ND	0.4	288.3	24.8	65.5	0	0
6193	2010-10-13T00:00:00	26	3.09	20.08	240.42	ND	ND	1.7	191.6	24.2	71.5	0	0
6194	2010-10-13T01:00:00	29	7.24	34.81	662.67	ND	ND	1	167.4	23.9	72.3	0	0
6195	2010-10-13T02:00:00	28	9.24	31.68	467.97	ND	ND	0.7	134.1	23.2	76.8	0	0
6196	2010-10-13T03:00:00	16	7.01	29.30	364.38	ND	ND	0.9	164.1	23	76.7	0	0
6197	2010-10-13T04:00:00	18	5.52	25.12	375.51	ND	ND	0.6	134.6	22.9	77.2	0	0
6198	2010-10-13T05:00:00	10	4.97	18.29	216.13	ND	ND	0.5	14.2	22.6	77.3	0	0
6199	2010-10-13T06:00:00	41	5.04	19.99	204.55	ND	ND	0.5	92.4	22.4	78.2	0.2	0
6200	2010-10-13T07:00:00	45	9.14	27.67	317.97	ND	ND	0.6	133.5	22.3	79.3	32.1	0
6201	2010-10-13T08:00:00	67	21.99	34.40	1067.11	ND	ND	0.9	132.2	23.4	74.4	234.8	0
6202	2010-10-13T09:00:00	69	19.73	41.91	1880.10	ND	ND	0.9	162.2	24.9	67.6	458	0
6203	2010-10-13T10:00:00	71	20.01	62.81	1626.22	ND	ND	1.2	121.2	27	59.3	657.3	0
6204	2010-10-13T11:00:00	51	22.98	58.53	1072.57	ND	ND	1.2	80.4	28.4	54.7	804.2	0
6205	2010-10-13T12:00:00	58	36.55	69.76	1112.33	ND	ND	1.4	35	29.7	51	688.3	0
6206	2010-10-13T13:00:00	38	29.54	54.14	791.30	ND	ND	1.6	60	30.2	49.5	675.9	0
6207	2010-10-13T14:00:00	38	22.66	51.74	641.08	ND	ND	0.7	109.8	31.1	47.1	736.6	0
6208	2010-10-13T15:00:00	27	20.75	56.76	794.96	ND	ND	0	209	31.8	44	422.6	0
6209	2010-10-13T16:00:00	37	22.27	34.27	527.29	ND	ND	1.9	285.7	31.2	45.9	384	0
6210	2010-10-13T17:00:00	22	24.58	44.07	736.75	ND	ND	3.6	276.8	30.5	47.3	254.1	0
6211	2010-10-13T18:00:00	29	15.05	37.87	653.38	ND	ND	4.9	265.7	28.1	52.5	38.9	0
6212	2010-10-13T19:00:00	23	8.87	33.78	671.36	ND	ND	3.6	274.8	27.1	55.5	0	0
6213	2010-10-13T20:00:00	19	5.86	29.27	553.77	ND	ND	4.1	267.8	26.4	59	0	0
6214	2010-10-13T21:00:00	11	4.26	40.38	679.08	ND	ND	1.9	302.4	26.5	58.7	0	0
6215	2010-10-13T22:00:00	7	3.84	31.37	483.58	ND	ND	1	280.3	26	60.9	0	0
6216	2010-10-13T23:00:00	5	6.39	34.20	436.79	ND	ND	2	251.2	25.5	63.5	0	0
6217	2010-10-14T00:00:00	12	16.48	31.39	527.86	ND	ND	1.9	264.4	25.3	64	0	0
6218	2010-10-14T01:00:00	7	4.33	16.38	321.09	ND	ND	0.6	265.4	24.5	69.4	0	0
6219	2010-10-14T02:00:00	36	3.14	15.32	285.92	ND	ND	1	158	23	80.4	0	0
6220	2010-10-14T03:00:00	33	8.41	18.37	341.38	ND	ND	0.9	167.7	23.2	78.5	0	0
6221	2010-10-14T04:00:00	36	6.69	24.32	375.77	ND	ND	1	146.1	22.8	78.8	0	0
6222	2010-10-14T05:00:00	36	7.59	24.34	398.00	ND	ND	0.5	153.1	22.5	79.6	0	0
6223	2010-10-14T06:00:00	43	8.99	22.97	284.00	ND	ND	0.6	208.6	22.6	78.5	1	0
6224	2010-10-14T07:00:00	40	9.82	27.41	477.28	ND	ND	0.9	166.7	22.8	77.8	61.5	0
6225	2010-10-14T08:00:00	57	11.86	29.00	614.06	ND	ND	1.3	138.7	22.9	75.9	142.6	0
6226	2010-10-14T09:00:00	42	13.32	36.58	1603.92	ND	ND	0.6	193.5	24.3	68.8	316.3	0
6227	2010-10-14T10:00:00	81	15.34	46.05	1588.65	ND	ND	0.8	76.7	26.7	60	596.9	0
6228	2010-10-14T11:00:00	69	16.92	48.30	1025.41	ND	ND	1.3	81	28	56.2	621.6	0
6229	2010-10-14T12:00:00	ND	ND	ND	ND	ND	ND	0.9	69.6	28.9	53.2	539.1	0
6230	2010-10-14T13:00:00	11	ND	ND	ND	ND	ND	1.5	73.3	29.2	52.7	331	0
6231	2010-10-14T14:00:00	51	42.70	ND	1405.72	ND	ND	1.4	57	29.4	52	300.8	0
6232	2010-10-14T15:00:00	26	45.79	97.26	1732.16	ND	ND	1.3	302.2	29.3	51.2	177.4	0
6233	2010-10-14T16:00:00	36	40.85	86.21	1534.02	ND	ND	3.1	272.5	28.2	53.1	129	0
6234	2010-10-14T17:00:00	19	28.92	51.36	1331.60	ND	ND	3.4	273.7	27.2	56.8	105.8	0
6235	2010-10-14T18:00:00	11	16.05	42.39	1454.12	ND	ND	3	277.9	26.7	56.5	33.2	0
6236	2010-10-14T19:00:00	6	15.49	41.14	1428.66	ND	ND	2.3	276.5	26.3	56.5	0	0
6237	2010-10-14T20:00:00	5	13.95	44.57	1357.71	ND	ND	2.5	276.2	25.8	58	0	0
6238	2010-10-14T21:00:00	13	12.74	51.01	1562.21	ND	ND	1.6	291.7	25.8	57.6	0	0
6239	2010-10-14T22:00:00	7	12.64	49.16	1424.37	ND	ND	0.6	289.4	25.1	62	0	0
6240	2010-10-14T23:00:00	14	10.64	35.29	1134.53	ND	ND	1.9	244.5	24.6	63	0	0
6241	2010-10-15T00:00:00	9	14.05	41.23	1807.63	ND	ND	1.1	197.2	23.8	70.3	0	0
6242	2010-10-15T01:00:00	41	12.87	29.00	1038.30	ND	ND	1.8	183.5	22.7	77.8	0	0
6243	2010-10-15T02:00:00	29	14.92	38.70	1250.44	ND	ND	1.1	200	22.7	77.7	0	0
6244	2010-10-15T03:00:00	28	12.06	30.89	977.62	ND	ND	0.7	164.4	22.6	77.7	0	0
6245	2010-10-15T04:00:00	40	13.10	28.62	897.74	ND	ND	0.3	203.7	22.5	77.7	0	0
6246	2010-10-15T05:00:00	21	16.21	30.41	999.68	ND	ND	0.7	183.1	22.4	78.2	0	0
6247	2010-10-15T06:00:00	35	19.53	30.53	987.98	ND	ND	0.2	106.3	22.2	80.5	0	0
6248	2010-10-15T07:00:00	39	18.82	30.65	964.62	ND	ND	0.4	290.3	22.6	77.7	30.9	0
6249	2010-10-15T08:00:00	41	16.89	35.16	1215.93	ND	ND	1.1	135.2	22.9	78.2	129.8	0
6250	2010-10-15T09:00:00	58	21.96	43.87	1581.17	ND	ND	1.5	193.9	23.9	73.5	329.9	0
6251	2010-10-15T10:00:00	60	27.78	65.23	2602.34	ND	ND	1.9	172.4	25.2	65	446.1	0
6252	2010-10-15T11:00:00	51	24.54	50.91	1616.39	ND	ND	1.2	180.5	26.7	57.7	660	0
6253	2010-10-15T12:00:00	42	35.79	64.89	1636.04	ND	ND	1.7	137.7	27.3	58.3	502.9	0
6254	2010-10-15T13:00:00	52	28.28	48.04	1292.98	ND	ND	0.3	139.5	27.5	57.1	442.8	0
6255	2010-10-15T14:00:00	31	24.78	70.04	1628.86	ND	ND	0.8	103.6	27.8	56.4	318.9	0
6256	2010-10-15T15:00:00	22	22.03	57.87	1503.28	ND	ND	1.5	286.8	27.8	53.6	131.3	0
6257	2010-10-15T16:00:00	47	23.41	74.52	1607.36	ND	ND	1.9	272	25.6	64	92	11.68
6258	2010-10-15T17:00:00	46	21.74	73.21	1607.08	ND	ND	3.4	268.4	24.8	65.5	44.9	0.25
6259	2010-10-15T18:00:00	26	15.66	58.61	1637.12	ND	ND	2.7	258.5	23.7	70.3	4.4	11.68
6260	2010-10-15T19:00:00	20	16.10	59.14	1585.45	ND	ND	2.5	266.6	23.2	73.6	0	1.02
6261	2010-10-15T20:00:00	15	12.32	56.31	1662.48	ND	ND	0.1	46.8	23.2	76.2	0	0
6262	2010-10-15T21:00:00	47	11.07	62.75	1696.64	ND	ND	0.1	157.1	22.8	79.4	0	0
6263	2010-10-15T22:00:00	64	17.76	87.76	3638.88	ND	ND	0.4	180.8	22.6	78.4	0	0
6264	2010-10-15T23:00:00	56	21.75	82.78	3431.87	ND	ND	1.1	219.4	22.3	82.3	0	0
6265	2010-10-16T00:00:00	51	23.58	69.88	2917.54	ND	ND	1	164.8	21.5	85.7	0	0
6266	2010-10-16T01:00:00	43	18.26	57.81	2683.20	ND	ND	0.9	153.3	21.5	86	0	0
6267	2010-10-16T02:00:00	33	13.96	49.98	1618.98	ND	ND	0.7	178.2	21.4	87.2	0	0
6268	2010-10-16T03:00:00	18	13.36	48.81	1312.85	ND	ND	1	183.7	21.4	87.2	0	0
6269	2010-10-16T04:00:00	26	12.84	43.95	1177.04	ND	ND	0.7	167.9	21.3	88.1	0	0
6270	2010-10-16T05:00:00	14	11.62	37.65	1074.81	ND	ND	0.2	155.8	21.2	88.3	0	0
6271	2010-10-16T06:00:00	31	11.54	40.76	1289.34	ND	ND	0.3	79.1	21.4	87.5	0	0
6272	2010-10-16T07:00:00	25	10.66	38.68	1233.63	ND	ND	0.6	83	21.2	87.5	14.1	0
6273	2010-10-16T08:00:00	74	12.18	45.82	1617.33	ND	ND	0.9	80.1	21.5	86.1	90.8	0
6274	2010-10-16T09:00:00	50	29.44	57.63	2309.59	ND	ND	0.6	128.9	22.4	81.8	214.6	0
6275	2010-10-16T10:00:00	70	40.60	58.12	2645.98	ND	ND	1.1	125.2	23.5	77.5	351	0
6276	2010-10-16T11:00:00	59	46.38	84.78	2336.67	ND	ND	0.9	140.6	25.5	68.2	527.2	0
6277	2010-10-16T12:00:00	56	63.99	117.53	2398.34	ND	ND	1.1	151.9	26.5	62.7	611.9	0
6278	2010-10-16T13:00:00	48	77.55	100.59	1899.77	ND	ND	0.5	17.1	28.1	55.1	817.2	0
6279	2010-10-16T14:00:00	57	53.06	88.09	1655.26	ND	ND	1.1	221.3	28.8	52	509.7	0
6280	2010-10-16T15:00:00	43	40.49	73.51	1647.51	ND	ND	0.2	345.1	29	50.7	288.6	0
6281	2010-10-16T16:00:00	54	32.90	74.42	1869.19	ND	ND	2.3	308.4	27.9	51.3	168.2	0
6282	2010-10-16T17:00:00	29	29.31	86.15	1943.35	ND	ND	3.3	284.8	27.2	52.9	183.4	0
6283	2010-10-16T18:00:00	15	18.45	42.79	1442.58	ND	ND	3.6	278.3	25.8	56.2	22.3	0
6284	2010-10-16T19:00:00	13	14.21	35.77	1229.09	ND	ND	2.8	283.2	25.2	58.6	0	0
6285	2010-10-16T20:00:00	13	12.98	40.52	1295.41	ND	ND	2.2	245.4	25	59.5	0	0
6286	2010-10-16T21:00:00	8	11.48	36.76	1179.98	ND	ND	1.6	220.3	24.5	62.7	0	0
6287	2010-10-16T22:00:00	15	11.09	51.54	1269.49	ND	ND	1.6	234.3	24.4	63.2	0	0
6288	2010-10-16T23:00:00	9	11.98	64.38	1520.59	ND	ND	1.2	162.2	22.7	78	0	0
6289	2010-10-17T00:00:00	10	9.96	46.12	1239.07	ND	ND	0.5	95.5	22.6	78.1	0	0
6290	2010-10-17T01:00:00	7	10.53	68.75	1556.84	ND	ND	0.7	59.5	22.5	77	0	0
6291	2010-10-17T02:00:00	26	11.09	66.84	1533.60	ND	ND	0.5	116.6	22.6	76.6	0	0
6292	2010-10-17T03:00:00	22	16.92	64.68	1443.20	ND	ND	0.7	80.1	21.9	82.5	0	0
6293	2010-10-17T04:00:00	34	22.07	56.33	1258.40	ND	ND	0.4	142	22.1	81.2	0	0
6294	2010-10-17T05:00:00	18	15.78	52.43	1202.53	ND	ND	0.8	136.2	21.8	82.9	0	0
6295	2010-10-17T06:00:00	25	15.29	53.08	1269.30	ND	ND	0.8	154.4	21.5	84.9	0.1	0
6296	2010-10-17T07:00:00	29	12.79	46.98	1200.08	ND	ND	1.2	188.4	21.6	84.1	24.3	0
6297	2010-10-17T08:00:00	38	11.58	40.98	1132.54	ND	ND	1.4	166.2	22	83	114	0
6298	2010-10-17T09:00:00	24	11.23	40.27	1224.80	ND	ND	1.7	148.2	21.5	88.3	110.3	0
6299	2010-10-17T10:00:00	37	12.84	44.41	1381.23	ND	ND	1.1	154.2	22.1	85.3	280	0
6300	2010-10-17T11:00:00	19	13.65	40.83	1293.28	ND	ND	0.6	147.3	24	73	461	0
6301	2010-10-17T12:00:00	10	14.57	41.92	1278.77	ND	ND	1	141.2	26.1	61.5	673.8	0
6302	2010-10-17T13:00:00	7	14.52	52.42	1230.32	ND	ND	0.9	167.4	27.3	55.2	653.4	0
6303	2010-10-17T14:00:00	5	14.65	51.53	1304.53	ND	ND	0.6	180.5	27.9	52.5	525.3	0
6304	2010-10-17T15:00:00	4	15.77	35.32	1249.30	ND	ND	1.2	130.8	27.9	53.9	344.7	0
6305	2010-10-17T16:00:00	9	15.50	44.67	1341.84	ND	ND	1	254.5	27.9	52.6	219.4	0
6306	2010-10-17T17:00:00	5	14.55	48.72	1260.86	ND	ND	3.4	283	27.7	50.8	248.8	0
6307	2010-10-17T18:00:00	4	12.48	21.48	924.79	ND	ND	3.1	277.1	25.8	57.3	17.1	0
6308	2010-10-17T19:00:00	4	9.17	10.52	815.56	ND	ND	3	280	24.6	60.8	0	0
6309	2010-10-17T20:00:00	2	8.27	13.75	903.82	ND	ND	1.8	276.9	24.9	58.3	0	0
6310	2010-10-17T21:00:00	1	7.94	16.87	858.92	ND	ND	0.2	112.9	24.7	61.5	0	0
6311	2010-10-17T22:00:00	1	8.11	19.81	915.56	ND	ND	2.3	200.2	23.8	68	0	0
6312	2010-10-17T23:00:00	2	9.76	44.46	1437.65	ND	ND	2.5	228	22.8	71.6	0	0.51
6313	2010-10-18T00:00:00	17	11.03	40.70	1319.09	ND	ND	0.5	206.7	21.6	80	0	1.27
6314	2010-10-18T01:00:00	10	8.26	21.56	917.35	ND	ND	0.7	201.1	20.2	82.7	0	0
6315	2010-10-18T02:00:00	6	7.42	27.35	991.90	ND	ND	0.2	131.1	20.2	82.6	0	0
6316	2010-10-18T03:00:00	5	7.35	26.98	856.64	ND	ND	1.3	30.3	20.1	86.8	0	0
6317	2010-10-18T04:00:00	4	7.29	35.72	957.75	ND	ND	1.1	21.1	19.8	88.4	0	1.27
6318	2010-10-18T05:00:00	3	8.24	47.80	1046.82	ND	ND	1.3	39.2	19.6	91.7	0	0.25
6319	2010-10-18T06:00:00	3	11.11	28.70	899.88	ND	ND	0.6	58.9	19.6	91.9	0	0
6320	2010-10-18T07:00:00	4	14.41	26.24	596.17	ND	ND	0.5	117.1	19.7	92.2	5.1	2.54
6321	2010-10-18T08:00:00	3	12.33	25.73	742.65	ND	ND	0.5	152.4	19.8	92.4	47.1	0.51
6322	2010-10-18T09:00:00	4	12.13	34.51	1283.20	ND	ND	2.1	247.5	20.9	86.2	235.5	0
6323	2010-10-18T10:00:00	3	10.85	40.05	1378.41	ND	ND	1.8	173.2	22.8	74.5	327.5	0
6324	2010-10-18T11:00:00	3	13.06	26.57	1137.15	ND	ND	1.6	100.7	23	76	179	0
6325	2010-10-18T12:00:00	10	14.08	31.67	1035.51	ND	ND	0.9	104.8	23	74.2	185.1	0
6326	2010-10-18T13:00:00	12	13.48	56.39	1445.16	ND	ND	0.3	138.2	24.1	69	436.6	0
6327	2010-10-18T14:00:00	10	13.06	48.95	1404.84	ND	ND	0.7	180.2	25.4	63.2	514.6	0
6328	2010-10-18T15:00:00	5	16.06	31.84	1032.43	ND	ND	1.6	269.6	26.2	58.7	454.4	0
6329	2010-10-18T16:00:00	2	18.44	31.86	1230.74	ND	ND	0.7	335.5	27.3	52.4	422	0
6330	2010-10-18T17:00:00	3	14.92	32.21	1304.53	ND	ND	1.5	22.4	27.3	54.1	129.2	0
6331	2010-10-18T18:00:00	5	21.18	24.48	1131.36	ND	ND	1.1	334.5	26.3	57.6	18.6	0
6332	2010-10-18T19:00:00	3	51.29	59.97	1311.69	ND	ND	2.9	270.7	25	60.5	0	0
6333	2010-10-18T20:00:00	3	83.74	67.63	1328.90	ND	ND	1.8	275.9	24.6	61.8	0	0
6334	2010-10-18T21:00:00	2	15.12	17.74	1121.19	ND	ND	1.4	286	24.4	62.3	0	0
6335	2010-10-18T22:00:00	3	11.77	36.62	1177.60	ND	ND	0.4	61.6	23.7	70.9	0	0
6336	2010-10-18T23:00:00	19	9.44	28.18	946.71	ND	ND	1.1	115.2	23.1	75.4	0	0
6337	2010-10-19T00:00:00	16	15.18	48.02	1969.26	ND	ND	0.3	115.1	22.4	77	0	0
6338	2010-10-19T01:00:00	14	16.78	46.13	2044.10	ND	ND	2	178.3	22.3	79.1	0	0
6339	2010-10-19T02:00:00	15	16.80	37.01	1078.47	ND	ND	2.4	189.3	22	81.4	0	0
6340	2010-10-19T03:00:00	9	17.25	36.64	952.62	ND	ND	1.4	194.4	22.1	80.2	0	0
6341	2010-10-19T04:00:00	5	11.75	26.99	760.09	ND	ND	0.8	174.5	21.9	82.5	0	0
6342	2010-10-19T05:00:00	4	11.20	19.85	566.84	ND	ND	0.3	35.9	21.6	84.8	0	0
6343	2010-10-19T06:00:00	14	12.54	26.01	894.70	ND	ND	0.6	67.3	21.3	87.1	0	0
6344	2010-10-19T07:00:00	21	12.19	33.50	1176.64	ND	ND	0.4	105.6	21.1	84.8	17.7	0
6345	2010-10-19T08:00:00	36	14.12	42.44	1684.62	ND	ND	1	156.8	21.7	82.5	68.2	0
6346	2010-10-19T09:00:00	37	23.14	42.82	2186.54	ND	ND	1.3	165.9	22.3	79.6	213.5	0
6347	2010-10-19T10:00:00	36	22.62	63.74	2974.30	ND	ND	1.2	199.1	23.9	72.4	446.8	0
6348	2010-10-19T11:00:00	34	22.11	72.88	2214.27	ND	ND	1.5	175.6	26.1	61.6	727.2	0
6349	2010-10-19T12:00:00	36	20.72	47.54	1517.78	ND	ND	1	236.3	25.6	66.7	551.4	0.76
6350	2010-10-19T13:00:00	20	21.84	45.67	1446.37	ND	ND	0.7	184.2	28.2	53.5	711.8	0
6351	2010-10-19T14:00:00	11	19.49	67.92	1632.65	ND	ND	1.6	328.7	28.2	51.9	589.8	0
6352	2010-10-19T15:00:00	6	17.96	48.28	1435.81	ND	ND	3	288.8	29.2	49	712.1	0
6353	2010-10-19T16:00:00	3	13.87	46.03	1440.57	ND	ND	3.3	277.3	29	48.2	474	0
6354	2010-10-19T17:00:00	3	11.44	22.73	1381.57	ND	ND	3.3	281.6	28.3	49.7	306.1	0
6355	2010-10-19T18:00:00	26	11.76	27.88	1436.28	ND	ND	2.8	284.7	26.6	54	38.7	0
6356	2010-10-19T19:00:00	15	11.99	32.08	1462.73	ND	ND	3.5	266.6	25.7	56.5	0	0
6357	2010-10-19T20:00:00	8	11.56	41.95	1561.69	ND	ND	2.9	252.9	25.1	60.6	0	0
6358	2010-10-19T21:00:00	6	11.38	45.48	1535.63	ND	ND	2.3	201.3	23.9	68.5	0	0
6359	2010-10-19T22:00:00	23	10.73	41.06	1152.79	ND	ND	1.5	231	24.4	64.9	0	0
6360	2010-10-19T23:00:00	14	20.66	49.94	994.67	ND	ND	1.2	271.4	23.9	67.6	0	2.03
6361	2010-10-20T00:00:00	9	16.00	45.47	1084.31	ND	ND	3.2	25.6	19.7	94	0	27.69
6362	2010-10-20T01:00:00	6	10.01	21.24	866.43	ND	ND	1.8	11.1	19.6	91.5	0	8.64
6363	2010-10-20T02:00:00	4	9.57	29.96	776.15	ND	ND	0.4	293	19.9	89	0	1.52
6364	2010-10-20T03:00:00	3	17.67	50.46	833.24	ND	ND	0.8	198.7	19.9	91.1	0	0.76
6365	2010-10-20T04:00:00	4	21.74	37.93	641.82	ND	ND	1.2	163.4	19.4	93.5	0	1.78
6366	2010-10-20T05:00:00	3	19.49	34.87	607.00	ND	ND	2.1	183.7	18.8	93.5	0	1.27
6367	2010-10-20T06:00:00	2	14.29	22.61	796.46	ND	ND	1.3	192.2	18.7	92.3	0	0.25
6368	2010-10-20T07:00:00	2	11.26	11.17	773.76	ND	ND	1.2	349.5	19.1	89.9	34.1	0
6369	2010-10-20T08:00:00	10	9.40	20.53	774.82	ND	ND	2.3	21.2	20	86.8	208.3	0
6370	2010-10-20T09:00:00	35	10.15	43.70	1351.66	ND	ND	1.4	69.4	21.2	80	321.7	0
6371	2010-10-20T10:00:00	26	52.67	77.44	2092.35	ND	ND	1.6	97.1	22.4	74.9	343.1	0
6372	2010-10-20T11:00:00	18	59.14	59.07	1612.57	ND	ND	1.1	170.5	23.3	69.5	348.1	0
6373	2010-10-20T12:00:00	34	31.37	70.15	1742.78	ND	ND	1.7	185.8	24.4	66.5	538.4	0
6374	2010-10-20T13:00:00	38	ND	ND	ND	ND	ND	1.1	123.7	24.9	64.2	318.5	0
6375	2010-10-20T14:00:00	33	ND	ND	1145.22	ND	ND	0.8	105	24.9	63.8	215.5	0
6376	2010-10-20T15:00:00	36	16.55	74.45	1683.48	ND	ND	0.5	138.7	25.2	62.9	183.2	0
6377	2010-10-20T16:00:00	42	13.82	66.38	1467.36	ND	ND	0.6	61.6	25.1	62.4	147.6	0
6378	2010-10-20T17:00:00	41	14.05	59.76	1443.95	ND	ND	1	125.9	25.2	64	116.6	0
6379	2010-10-20T18:00:00	82	12.59	99.30	1937.38	ND	ND	1.3	163.7	24.5	66.8	7.1	0
6380	2010-10-20T19:00:00	73	17.03	141.85	2641.91	ND	ND	0.9	237.5	24	68.8	0	0
6381	2010-10-20T20:00:00	93	23.19	134.46	2626.05	ND	ND	2.1	269.9	23	71.8	0	0
6382	2010-10-20T21:00:00	58	34.04	108.54	2548.94	ND	ND	3.1	267.1	22.8	67.6	0	0
6383	2010-10-20T22:00:00	45	11.08	92.49	1955.90	ND	ND	1.1	272.3	23	63.1	0	0
6384	2010-10-20T23:00:00	23	8.43	54.03	1376.88	ND	ND	0.8	135.8	21.4	79.3	0	0
6385	2010-10-21T00:00:00	35	7.04	35.74	1244.94	ND	ND	1.3	239.2	21.1	78.2	0	0
6386	2010-10-21T01:00:00	20	8.46	51.80	1582.86	ND	ND	2.4	261.4	20.8	69.8	0	0
6387	2010-10-21T02:00:00	13	7.57	50.99	1400.53	ND	ND	2.2	268.6	20.7	68.9	0	0
6388	2010-10-21T03:00:00	8	7.28	14.89	812.94	ND	ND	0.9	316.1	20.9	70.6	0	0
6389	2010-10-21T04:00:00	21	5.81	2.01	700.50	ND	ND	0.6	288.6	20.5	79	0	0
6390	2010-10-21T05:00:00	26	7.41	15.71	857.51	ND	ND	1.2	244.4	20.2	76.4	0	0
6391	2010-10-21T06:00:00	20	15.42	39.62	1262.41	ND	ND	0.4	220.8	20.2	76.5	0.8	0
6392	2010-10-21T07:00:00	11	10.08	16.25	743.92	ND	ND	0.4	227.2	20.4	74.8	57.7	0
6393	2010-10-21T08:00:00	20	8.46	31.41	1139.20	ND	ND	0.6	118.6	22.4	70.8	238.5	0
6394	2010-10-21T09:00:00	35	10.21	45.27	1771.55	ND	ND	1.4	132.4	23	70.5	443.8	0
6395	2010-10-21T10:00:00	55	18.48	79.56	2162.05	ND	ND	0.8	152.9	24.7	63.4	672.7	0
6396	2010-10-21T11:00:00	34	17.56	84.54	2094.35	ND	ND	1	113.1	26.7	55.2	809.8	0
6397	2010-10-21T12:00:00	40	20.00	52.05	1324.96	ND	ND	1.2	91.6	27.8	49.6	697.2	0
6398	2010-10-21T13:00:00	20	18.36	61.67	1561.10	ND	ND	1.3	42.7	28.1	48.2	385.7	0
6399	2010-10-21T14:00:00	19	16.36	56.33	1400.60	ND	ND	1.2	120.3	27.8	51.9	310.8	0
6400	2010-10-21T15:00:00	23	16.24	51.33	1248.88	ND	ND	1.4	323.1	27.2	53.1	208.2	0
6401	2010-10-21T16:00:00	28	21.86	74.22	1534.91	ND	ND	2.9	281.2	27.6	49.8	464.9	0
6402	2010-10-21T17:00:00	15	15.41	53.03	1328.94	ND	ND	2.5	268.1	27.5	49.7	277.6	0
6403	2010-10-21T18:00:00	9	8.88	29.13	1247.64	ND	ND	2.3	269.3	26.6	51.7	46	0
6404	2010-10-21T19:00:00	9	9.69	29.58	1255.42	ND	ND	2.6	268.6	25.6	55.4	0	0
6405	2010-10-21T20:00:00	21	8.69	39.07	1538.20	ND	ND	3	273.4	24.9	58.7	0	0
6406	2010-10-21T21:00:00	12	7.91	44.64	1500.24	ND	ND	1.8	277	24.7	60.1	0	0
6407	2010-10-21T22:00:00	7	5.73	30.37	1110.12	ND	ND	1.1	80.6	24.1	65.9	0	0
6408	2010-10-21T23:00:00	5	5.67	31.55	1016.51	ND	ND	0.8	84.7	22.2	80.3	0	5.33
6409	2010-10-22T00:00:00	9	14.38	48.99	2008.67	ND	ND	0.7	27.4	21.3	87.4	0	1.52
6410	2010-10-22T01:00:00	6	17.05	38.58	1278.46	ND	ND	0.4	66.8	21.3	87.4	0	0.25
6411	2010-10-22T02:00:00	4	14.26	44.72	1120.07	ND	ND	0.2	44.5	21.3	87.7	0	0
6412	2010-10-22T03:00:00	3	16.74	43.00	1221.89	ND	ND	0.9	177.6	20.9	89.6	0	0
6413	2010-10-22T04:00:00	7	17.55	33.92	1073.35	ND	ND	0.6	178.9	20.9	89.1	0	0.25
6414	2010-10-22T05:00:00	5	12.53	27.36	903.88	ND	ND	0.4	159.8	20.4	91.3	0	9.91
6415	2010-10-22T06:00:00	11	8.46	18.30	823.38	ND	ND	1.4	187.3	20.1	94.1	0	2.29
6416	2010-10-22T07:00:00	6	7.22	19.52	856.35	ND	ND	1.7	144.3	20	93.3	20	0
6417	2010-10-22T08:00:00	23	6.00	27.37	946.16	ND	ND	1.4	171.1	20.3	92.1	65.7	0
6418	2010-10-22T09:00:00	12	7.22	47.49	1882.99	ND	ND	1.5	178.4	21.6	84.5	342.8	0.25
6419	2010-10-22T10:00:00	27	7.62	48.45	1834.71	ND	ND	1.1	175.7	23.9	72	667.8	0
6420	2010-10-22T11:00:00	13	10.39	48.39	1769.14	ND	ND	1.1	122.5	25	65.7	678.5	0
6421	2010-10-22T12:00:00	12	10.69	36.84	1294.54	ND	ND	1.2	115.8	26.9	57.7	769.3	0
6422	2010-10-22T13:00:00	7	9.99	45.23	1383.49	ND	ND	0.6	151.3	27.1	56.2	349.9	0
6423	2010-10-22T14:00:00	15	10.05	51.53	1442.10	ND	ND	0.8	116.1	27.7	53.5	532.1	0
6424	2010-10-22T15:00:00	9	10.23	57.93	1572.14	ND	ND	1.6	37.7	28.2	52.3	544.9	0
6425	2010-10-22T16:00:00	14	11.86	56.27	1505.28	ND	ND	1.9	48.6	26.7	57.8	112.8	0
6426	2010-10-22T17:00:00	41	12.89	59.69	1566.91	ND	ND	0.7	278.4	26.5	56.6	90.8	0
6427	2010-10-22T18:00:00	40	35.95	102.08	1968.85	ND	ND	2.5	272.2	25.1	60.4	12.8	0
6428	2010-10-22T19:00:00	22	39.61	73.03	1776.29	ND	ND	2.8	262.9	24.7	60.7	0	0
6429	2010-10-22T20:00:00	25	11.67	38.82	1510.68	ND	ND	2.5	155.4	22.1	77.8	0	0
6430	2010-10-22T21:00:00	27	8.90	37.69	1452.11	ND	ND	1.9	190.3	20.9	86.5	0	5.08
6431	2010-10-22T22:00:00	38	10.18	64.10	1378.41	ND	ND	1.7	172.1	20.9	89.2	0	0
6432	2010-10-22T23:00:00	20	12.97	56.99	1344.52	ND	ND	1.1	156.1	20.2	89.5	0	0
6433	2010-10-23T00:00:00	11	12.27	74.88	1825.99	ND	ND	1	183.7	20	90.7	0	0
6434	2010-10-23T01:00:00	19	5.62	63.43	1419.25	ND	ND	0.3	55.8	20.3	90.6	0	0
6435	2010-10-23T02:00:00	11	4.62	51.96	1071.16	ND	ND	0.8	70.8	20.3	91	0	0.25
6436	2010-10-23T03:00:00	7	4.80	67.92	1420.70	ND	ND	0.9	123.5	19.8	94.1	0	4.32
6437	2010-10-23T04:00:00	4	7.29	58.42	1485.81	ND	ND	0.8	153.7	19.2	95.7	0	5.59
6438	2010-10-23T05:00:00	3	7.01	33.91	1190.71	ND	ND	0.5	178.1	19.4	96.2	0	2.79
6439	2010-10-23T06:00:00	3	6.04	21.44	955.47	ND	ND	0.2	180.1	19.7	95.7	0	0
6440	2010-10-23T07:00:00	3	4.81	32.61	1102.73	ND	ND	0.5	143.2	20.1	94.5	24.2	0
6441	2010-10-23T08:00:00	8	5.23	41.77	1363.39	ND	ND	0.5	148.6	20.6	92.1	95.3	0.25
6442	2010-10-23T09:00:00	27	6.87	60.83	2212.24	ND	ND	1	127.5	20.9	91.7	67.2	5.84
6443	2010-10-23T10:00:00	61	9.41	78.65	2790.72	ND	ND	0.9	151.6	21.6	89.7	339.3	0.51
6444	2010-10-23T11:00:00	52	11.86	99.99	3069.17	ND	ND	0.9	189.1	23.7	75.3	551.2	0
6445	2010-10-23T12:00:00	52	12.89	85.19	2326.84	ND	ND	1	99.8	25.5	64.5	708.6	0
6446	2010-10-23T13:00:00	27	15.98	65.99	1629.49	ND	ND	0.6	76	26.9	59	511.7	0
6447	2010-10-23T14:00:00	28	12.18	78.72	1740.90	ND	ND	0.4	104.6	27.4	56.8	392.8	0
6448	2010-10-23T15:00:00	34	11.49	66.74	1697.61	ND	ND	1.5	294.5	26.3	59.8	103.3	5.08
6449	2010-10-23T16:00:00	29	16.53	78.96	1829.46	ND	ND	3.3	271.9	24.4	65.7	128.5	0.25
6450	2010-10-23T17:00:00	15	11.43	45.19	1463.42	ND	ND	2.7	275.2	24.1	64	64.4	0
6451	2010-10-23T18:00:00	7	8.88	25.76	1359.16	ND	ND	2.5	308.2	23.1	66.3	9.6	0
6452	2010-10-23T19:00:00	5	7.24	28.56	1286.28	ND	ND	2	245.9	23.2	62.5	0	0
6453	2010-10-23T20:00:00	8	5.81	28.70	774.31	ND	ND	2.1	169.4	21.8	80.3	0	0
6454	2010-10-23T21:00:00	18	7.47	33.59	974.64	ND	ND	1.6	157.9	20.7	87.2	0	0
6455	2010-10-23T22:00:00	38	19.47	62.22	1885.56	ND	ND	1.7	201.2	20.6	86.1	0	0
6456	2010-10-23T23:00:00	21	6.48	44.52	1715.61	ND	ND	1.2	221.2	21.2	81.2	0	0
6457	2010-10-24T00:00:00	12	4.48	43.44	1357.20	ND	ND	0.9	218.2	21.3	81.4	0	0
6458	2010-10-24T01:00:00	8	4.06	42.28	1414.23	ND	ND	0.2	268.9	21	81.9	0	0
6459	2010-10-24T02:00:00	5	4.76	41.21	1311.07	ND	ND	0.8	1.2	20.6	84.5	0	0
6460	2010-10-24T03:00:00	9	4.72	36.18	1320.57	ND	ND	0.8	129.9	20.3	87.9	0	0
6461	2010-10-24T04:00:00	18	7.09	44.60	1533.45	ND	ND	0.3	120	20	90	0	0
6462	2010-10-24T05:00:00	10	9.40	36.39	1362.93	ND	ND	0.4	2.4	20.1	89.3	0	0
6463	2010-10-24T06:00:00	8	6.26	25.23	1194.38	ND	ND	0.2	36.3	20	88.6	0.2	0
6464	2010-10-24T07:00:00	11	6.75	32.56	1103.86	ND	ND	0.3	230.5	20.2	86.2	29	0
6465	2010-10-24T08:00:00	15	10.42	36.34	1544.20	ND	ND	0.5	63.3	20.7	85.9	111.8	0
6466	2010-10-24T09:00:00	20	12.55	29.77	1354.89	ND	ND	0.6	58.1	21.7	81.7	180.6	0
6467	2010-10-24T10:00:00	46	14.38	51.50	1461.47	ND	ND	0.4	55	22.9	74.5	407.9	0
6468	2010-10-24T11:00:00	25	27.81	59.47	1763.18	ND	ND	0.6	175.6	24.7	66.5	564.1	0
6469	2010-10-24T12:00:00	21	32.04	33.96	1316.12	ND	ND	0.8	115.2	26.4	59.7	559	0
6470	2010-10-24T13:00:00	12	27.59	34.21	1323.64	ND	ND	1.4	354.6	25.7	62.8	196.7	0
6471	2010-10-24T14:00:00	36	19.15	42.44	1573.17	ND	ND	1.5	26.4	25.1	69.4	260.7	1.02
6472	2010-10-24T15:00:00	19	13.37	33.27	1489.79	ND	ND	1.7	80.9	25.2	68	320.8	0
6473	2010-10-24T16:00:00	35	33.75	61.16	1490.29	ND	ND	1.4	62.8	26.2	60.5	373.3	0
6474	2010-10-24T17:00:00	18	49.70	73.67	1840.35	ND	ND	1	306.6	26.7	56.9	188.7	0
6475	2010-10-24T18:00:00	12	30.73	40.99	1209.75	ND	ND	1.2	317.8	24.8	63.1	17.2	0
6476	2010-10-24T19:00:00	27	24.01	23.24	1099.04	ND	ND	0.9	32	22.8	77.2	0	0
6477	2010-10-24T20:00:00	44	9.83	17.09	1103.04	ND	ND	0.8	114.3	22.9	75.9	0	0
6478	2010-10-24T21:00:00	38	14.60	44.73	1330.92	ND	ND	1.4	178.8	22	80.4	0	0
6479	2010-10-24T22:00:00	37	19.74	44.21	2460.94	ND	ND	2	213.6	21.4	83.8	0	0
6480	2010-10-24T23:00:00	27	12.87	32.88	1708.97	ND	ND	2	188.9	21.1	82.7	0	0
6481	2010-10-25T00:00:00	15	7.45	21.93	1051.47	ND	ND	1.2	182.3	21	83.6	0	0
6482	2010-10-25T01:00:00	9	6.51	18.62	1039.81	ND	ND	0.3	125.8	21	84.2	0	0
6483	2010-10-25T02:00:00	6	5.02	19.38	1039.81	ND	ND	0.3	47.6	20.6	87.3	0	0
6484	2010-10-25T03:00:00	5	5.01	25.00	1049.68	ND	ND	0.7	7.2	20.6	86.6	0	0
6485	2010-10-25T04:00:00	4	4.65	14.55	936.81	ND	ND	0.4	79.9	20.5	86.5	0	0
6486	2010-10-25T05:00:00	3	5.75	23.52	1049.33	ND	ND	0.3	147.4	20.4	87.5	0	0
6487	2010-10-25T06:00:00	2	6.09	19.16	1026.41	ND	ND	0.8	81.8	20.2	90.8	0.1	0
6488	2010-10-25T07:00:00	3	6.01	15.01	991.90	ND	ND	0.8	62.9	20	92.5	29.6	0
6489	2010-10-25T08:00:00	20	5.93	24.63	1362.93	ND	ND	0.5	88.7	20.9	87.2	150.5	0
6490	2010-10-25T09:00:00	20	9.41	33.64	1965.93	ND	ND	1	178.3	22.2	78.8	213.9	0
6491	2010-10-25T10:00:00	44	31.56	47.67	2417.22	ND	ND	1.7	170.1	22.2	78.6	119	0.76
6492	2010-10-25T11:00:00	35	74.86	66.48	2122.16	ND	ND	0.6	249.4	22.2	82	358.4	3.81
6493	2010-10-25T12:00:00	19	23.62	44.80	1702.26	ND	ND	0.7	194.5	24.7	67.6	498.6	0
6494	2010-10-25T13:00:00	9	20.65	47.19	1785.35	ND	ND	0.6	214	25.3	63.6	339	0
6495	2010-10-25T14:00:00	8	16.97	39.25	1444.92	ND	ND	0.5	103.2	25.8	61.3	296.6	0
6496	2010-10-25T15:00:00	13	15.00	42.64	1527.75	ND	ND	1.6	292.9	26.6	57	541.4	0
6497	2010-10-25T16:00:00	8	17.97	60.65	1865.85	ND	ND	2.3	294.7	27.3	50.7	379.3	0
6498	2010-10-25T17:00:00	5	11.62	32.83	1489.24	ND	ND	2.3	37.8	23.9	73.5	33	0.51
6499	2010-10-25T18:00:00	17	7.00	15.09	1278.34	ND	ND	1	78.3	22	85.8	1	0.25
6500	2010-10-25T19:00:00	49	24.80	46.07	1723.79	ND	ND	1	169.8	21.7	84.6	0	0
6501	2010-10-25T20:00:00	47	24.62	51.85	2934.27	ND	ND	1.2	193.4	21.7	82	0	0
6502	2010-10-25T21:00:00	25	21.38	58.11	3783.96	ND	ND	0.6	205.9	21.9	81.3	0	0
6503	2010-10-25T22:00:00	28	12.52	46.89	2074.65	ND	ND	0.8	176.3	22	81.9	0	0
6504	2010-10-25T23:00:00	28	10.69	45.29	2222.79	ND	ND	0.4	119.4	21.8	82.5	0	0
6505	2010-10-26T00:00:00	40	12.49	54.70	3059.92	ND	ND	0.9	46.8	21.2	87.4	0	0
6506	2010-10-26T01:00:00	28	11.07	58.61	2488.20	ND	ND	1.3	15.9	20.2	93.5	0	5.33
6507	2010-10-26T02:00:00	61	11.21	51.15	1983.79	ND	ND	0.5	70.7	19.6	96.6	0	2.54
6508	2010-10-26T03:00:00	32	11.37	35.19	1462.30	ND	ND	0.4	106.1	19.5	96	0	0.25
6509	2010-10-26T04:00:00	30	14.20	32.80	1270.64	ND	ND	0.2	175.9	19.6	95.6	0	0
6510	2010-10-26T05:00:00	17	13.79	31.90	1226.08	ND	ND	0	128.4	19.7	94.6	0	0
6511	2010-10-26T06:00:00	24	11.58	28.91	1249.01	ND	ND	0.5	71	19.7	95	0	0
6512	2010-10-26T07:00:00	13	10.17	30.49	1294.02	ND	ND	0.5	30	19.8	94.2	27	0
6513	2010-10-26T08:00:00	48	9.99	33.37	1632.14	ND	ND	0.8	35.1	20.7	89.4	88.3	0.25
6514	2010-10-26T09:00:00	76	19.03	46.15	2269.44	ND	ND	1.2	35.1	21.1	86.3	125	0
6515	2010-10-26T10:00:00	92	66.64	71.69	2860.45	ND	ND	0.2	31.7	23	75.7	462.9	0
6516	2010-10-26T11:00:00	81	150.54	85.70	2639.97	ND	ND	1.1	136.8	25.6	63.8	759.7	0
6517	2010-10-26T12:00:00	56	155.80	86.15	1813.70	ND	ND	1	110.6	26.5	60.6	474	0
6518	2010-10-26T13:00:00	52	65.10	79.12	1888.25	ND	ND	1	128.8	26.8	59.7	421	0
6519	2010-10-26T14:00:00	39	40.07	74.96	1936.25	ND	ND	1.1	109	27	58.4	325.4	0
6520	2010-10-26T15:00:00	39	28.49	78.27	2179.73	ND	ND	1.2	359.9	27.4	57.2	301.3	0
6521	2010-10-26T16:00:00	55	20.79	71.94	2263.47	ND	ND	1.9	267.3	27.4	56	320.8	0
6522	2010-10-26T17:00:00	29	28.29	64.25	1686.06	ND	ND	2.1	259.1	26.6	57.7	58	0
6523	2010-10-26T18:00:00	40	30.29	45.62	1854.33	ND	ND	0.5	124	25.2	67.3	8	0
6524	2010-10-26T19:00:00	43	18.49	43.27	2029.09	ND	ND	2	256.1	24.3	64.4	0	0
6525	2010-10-26T20:00:00	39	24.76	69.45	2640.14	ND	ND	1.9	278.9	23.8	66	0	0
6526	2010-10-26T21:00:00	34	16.99	42.68	2475.96	ND	ND	0.3	273	23.4	70.3	0	0
6527	2010-10-26T22:00:00	59	10.63	34.24	1902.89	ND	ND	0.8	157.8	22.5	78.9	0	0
6528	2010-10-26T23:00:00	61	14.00	42.62	3135.35	ND	ND	0.6	219.5	22.3	76.7	0	0
6529	2010-10-27T00:00:00	44	12.59	71.05	2894.83	ND	ND	0.5	229.4	22.5	73.3	0	0
6530	2010-10-27T01:00:00	23	11.02	54.48	2340.15	ND	ND	0.3	72.3	22.3	77.9	0	0
6531	2010-10-27T02:00:00	27	10.96	36.23	2009.35	ND	ND	0.1	217	21.8	82.6	0	0
6532	2010-10-27T03:00:00	15	8.22	36.46	1790.62	ND	ND	0.4	82.2	21.3	86	0	0.25
6533	2010-10-27T04:00:00	27	7.43	49.18	1731.02	ND	ND	0.5	168.9	21.1	86.6	0	0
6534	2010-10-27T05:00:00	21	6.57	38.24	1458.49	ND	ND	0.5	213.6	21.1	84.6	0	0
6535	2010-10-27T06:00:00	29	7.40	33.61	1435.88	ND	ND	0.2	93.5	21.1	84.8	0.1	0
6536	2010-10-27T07:00:00	24	7.68	25.78	1141.92	ND	ND	0.3	209.8	21.4	83.8	43.6	0
6537	2010-10-27T08:00:00	59	8.46	38.18	1607.11	ND	ND	0.3	238.3	22.5	77.6	158.8	0
6538	2010-10-27T09:00:00	30	10.21	47.89	2226.55	ND	ND	0.8	152.6	24.3	70.4	457.2	0
6539	2010-10-27T10:00:00	45	13.80	68.77	2571.56	ND	ND	2.2	142.9	25.5	66.2	667.7	0
6540	2010-10-27T11:00:00	23	14.91	100.54	2604.89	ND	ND	1.1	262.7	25	65.2	238.5	0
6541	2010-10-27T12:00:00	30	19.91	54.56	1764.24	ND	ND	2.3	232.4	26.3	60.2	842.7	0
6542	2010-10-27T13:00:00	17	14.71	43.60	1599.34	ND	ND	0.1	289.7	27	58.7	619.7	0
6543	2010-10-27T14:00:00	19	9.34	35.04	1522.35	ND	ND	2.7	357.8	22.7	81	43.2	0.76
6544	2010-10-27T15:00:00	20	20.15	47.56	1466.43	ND	ND	1.6	24.8	22.4	79.6	121.8	0.51
6545	2010-10-27T16:00:00	23	13.43	66.91	1896.47	ND	ND	1.1	346.3	23.5	70.8	113.6	0
6546	2010-10-27T17:00:00	14	23.28	79.29	2405.06	ND	ND	3.1	39.6	21.6	87.5	69.8	0.51
6547	2010-10-27T18:00:00	14	20.85	47.74	1778.08	ND	ND	0.6	80.9	21.7	84	15.3	0
6548	2010-10-27T19:00:00	11	15.31	43.40	1857.99	ND	ND	1	154.1	21.4	86.7	0	0.25
6549	2010-10-27T20:00:00	39	21.82	54.13	2557.80	ND	ND	1.3	164.3	21	90.5	0	0.51
6550	2010-10-27T21:00:00	21	15.85	55.82	3232.46	ND	ND	0.8	129.4	20.9	91.2	0	0.25
6551	2010-10-27T22:00:00	15	11.19	48.96	2316.18	ND	ND	0.8	159.4	20.8	92.8	0	0
6552	2010-10-27T23:00:00	12	9.56	44.08	2270.22	ND	ND	1.1	162.1	20.7	91.8	0	0
6553	2010-10-28T00:00:00	12	8.47	43.38	2077.50	ND	ND	1.2	164.7	20.5	92.6	0	0
6554	2010-10-28T01:00:00	7	7.35	40.20	1692.46	ND	ND	0.5	169.9	20.5	91.7	0	0.25
6555	2010-10-28T02:00:00	13	5.68	27.32	1128.31	ND	ND	0.5	123.7	20.2	94.5	0	1.02
6556	2010-10-28T03:00:00	9	5.65	26.65	1093.34	ND	ND	0.3	130.6	19.9	95.5	0	0.76
6557	2010-10-28T04:00:00	6	4.43	20.96	1058.44	ND	ND	0.4	45.9	20	94.7	0	1.02
6558	2010-10-28T05:00:00	11	4.43	13.37	844.79	ND	ND	0.8	3	20.1	94.3	0	0.25
6559	2010-10-28T06:00:00	8	4.36	16.32	957.75	ND	ND	0.6	3.3	20.2	92.5	0.1	0
6560	2010-10-28T07:00:00	13	5.72	27.87	1115.88	ND	ND	0.7	69.7	20.1	93.6	39.9	0
6561	2010-10-28T08:00:00	45	8.32	35.35	1588.75	ND	ND	0.8	358.3	20.7	89.7	114.1	0
6562	2010-10-28T09:00:00	38	15.86	46.09	2551.71	ND	ND	0.1	16.1	22.4	79.3	235.1	0
6563	2010-10-28T10:00:00	55	29.04	48.30	2328.00	ND	ND	0.9	56.2	24.4	68.5	653.5	0
6564	2010-10-28T11:00:00	43	38.65	74.53	2240.87	ND	ND	1.5	90.6	26	63	776.1	0
6565	2010-10-28T12:00:00	33	33.73	67.46	1747.17	ND	ND	1	91.8	26.8	59.5	512.5	0
6566	2010-10-28T13:00:00	19	ND	ND	ND	ND	ND	1.2	212.1	26	63.7	151.1	0
6567	2010-10-28T14:00:00	30	ND	ND	1597.74	ND	ND	3.1	1.2	21.6	84.7	39.5	3.05
6568	2010-10-28T15:00:00	30	16.89	58.71	1947.96	ND	ND	2.1	307	22.7	75	22.5	0.25
6569	2010-10-28T16:00:00	17	12.04	78.89	1955.24	ND	ND	2.1	284.1	23.3	69.7	59.8	0.76
6570	2010-10-28T17:00:00	18	14.41	65.28	2004.77	ND	ND	0.5	158.2	22.9	74.4	33.5	1.27
6571	2010-10-28T18:00:00	54	11.86	48.12	2127.19	ND	ND	1.6	170.4	22.1	83.2	7.3	0
6572	2010-10-28T19:00:00	34	21.95	82.51	3369.34	ND	ND	1.6	195.7	21.7	86.4	0	0
6573	2010-10-28T20:00:00	57	17.23	78.47	3885.92	ND	ND	1.2	221.2	21.8	84.8	0	0
6574	2010-10-28T21:00:00	38	14.08	67.88	3603.91	ND	ND	0.9	208.3	21.8	81.7	0	0
6575	2010-10-28T22:00:00	24	9.44	63.09	2606.60	ND	ND	0.6	262.6	21.8	79.8	0	0
6576	2010-10-28T23:00:00	14	9.25	52.13	2606.60	ND	ND	0.5	215.7	21.5	79.1	0	0
6577	2010-10-29T00:00:00	17	8.67	40.46	2581.31	ND	ND	0.4	196.5	20.7	89.2	0	0
6578	2010-10-29T01:00:00	9	6.74	27.14	1761.36	ND	ND	0.6	317.5	20.6	85.1	0	0
6579	2010-10-29T02:00:00	24	6.63	38.00	2223.52	ND	ND	0.7	16.9	20.4	90.7	0	0
6580	2010-10-29T03:00:00	55	6.53	28.02	1985.15	ND	ND	0.3	246.1	20.2	91.7	0	0
6581	2010-10-29T04:00:00	42	10.62	38.08	2603.73	ND	ND	0.3	243.7	20.1	86.3	0	0
6582	2010-10-29T05:00:00	26	17.78	32.12	1667.62	ND	ND	0.3	250.8	20.2	88	0	0
6583	2010-10-29T06:00:00	39	14.28	22.01	1273.68	ND	ND	1.1	229.9	20.1	82.3	0.1	0
6584	2010-10-29T07:00:00	25	16.96	27.44	1656.35	ND	ND	0.1	39.2	20.2	85.4	19.8	0
6585	2010-10-29T08:00:00	66	18.82	16.38	1262.41	ND	ND	0.6	353.7	21.1	85.1	147.4	0
6586	2010-10-29T09:00:00	74	14.27	37.25	2758.70	ND	ND	0.6	188.7	22.7	77.7	282.5	0
6587	2010-10-29T10:00:00	95	42.15	79.05	3637.65	ND	ND	0.6	115	24.7	66.3	576	0
6588	2010-10-29T11:00:00	78	91.30	135.79	3181.58	ND	ND	1.5	117.8	26.5	60	840	0
6589	2010-10-29T12:00:00	46	31.94	109.96	2509.99	ND	ND	0.6	32.8	27.3	56.9	453.9	0
6590	2010-10-29T13:00:00	33	20.12	74.00	2066.46	ND	ND	1.5	5.2	27.2	58.5	450.4	0
6591	2010-10-29T14:00:00	68	15.26	58.78	1650.31	ND	ND	0.5	0.2	27	58.5	197.3	0
6592	2010-10-29T15:00:00	44	17.41	85.02	2133.60	ND	ND	1.4	270.8	27.2	56	284.5	0
6593	2010-10-29T16:00:00	46	20.17	88.68	2296.59	ND	ND	3.9	281.9	25.5	59.6	116.3	0
6594	2010-10-29T17:00:00	25	12.97	50.20	1526.21	ND	ND	4	271.3	23.9	67	42.1	0
6595	2010-10-29T18:00:00	13	8.67	25.41	1278.34	ND	ND	3.5	265.3	22.4	72.9	3.1	0.51
6596	2010-10-29T19:00:00	13	8.52	28.21	1476.30	ND	ND	2.8	291.2	21.6	77.7	0	2.79
6597	2010-10-29T20:00:00	18	7.33	35.90	1562.90	ND	ND	1.5	52.8	21.1	84.3	0	0.25
6598	2010-10-29T21:00:00	18	6.72	37.53	1368.04	ND	ND	0.5	185.7	20.9	86.9	0	0
6599	2010-10-29T22:00:00	10	12.20	52.27	2045.02	ND	ND	1.2	197.4	20.9	87	0	0
6600	2010-10-29T23:00:00	11	20.39	47.07	2124.11	ND	ND	1.2	182	20.5	89.7	0	0
6601	2010-10-30T00:00:00	10	16.77	47.34	2392.01	ND	ND	0.8	183.6	20.4	89.3	0	0
6602	2010-10-30T01:00:00	24	11.14	39.61	2075.38	ND	ND	0.6	206.7	20.4	88	0	0
6603	2010-10-30T02:00:00	15	9.57	37.75	1962.59	ND	ND	0.2	233.3	20.4	88.1	0	0
6604	2010-10-30T03:00:00	8	7.69	31.06	1398.63	ND	ND	0.7	58.1	20	93	0	0
6605	2010-10-30T04:00:00	18	6.18	30.57	1396.72	ND	ND	0.8	5.1	19.9	92.1	0	0
6606	2010-10-30T05:00:00	12	8.16	24.51	1272.38	ND	ND	0.5	25.5	19.7	89.5	0	0
6607	2010-10-30T06:00:00	7	9.78	26.10	1023.96	ND	ND	0.4	10.5	19.8	89.9	0.4	0
6608	2010-10-30T07:00:00	4	9.91	27.43	990.54	ND	ND	0.7	7.3	20.1	88.8	32.2	0
6609	2010-10-30T08:00:00	12	17.68	38.49	1059.16	ND	ND	0	96.4	21.2	84.3	204.9	0
6610	2010-10-30T09:00:00	8	20.38	51.04	1198.86	ND	ND	0.9	130.6	22.5	77.5	283.3	0
6611	2010-10-30T10:00:00	27	26.68	59.99	1726.71	ND	ND	1.1	104.8	23	75.5	271.8	0
6612	2010-10-30T11:00:00	25	22.88	78.35	2218.94	ND	ND	0.8	105	23.2	75.1	133.8	0
6613	2010-10-30T12:00:00	50	16.98	69.30	2072.41	ND	ND	1.6	355.9	21.1	90.3	156.3	15.49
6614	2010-10-30T13:00:00	26	15.26	67.62	2396.90	ND	ND	0.9	18.4	23.1	79.9	533.8	0.25
6615	2010-10-30T14:00:00	28	36.03	69.50	2287.99	ND	ND	1.3	9.9	25.4	65.3	638.3	0
6616	2010-10-30T15:00:00	15	35.53	74.53	2145.16	ND	ND	0.8	348.7	26.5	62.2	403.9	0
6617	2010-10-30T16:00:00	25	45.61	66.82	1796.14	ND	ND	1.4	299.4	25.1	65.5	127.4	0
6618	2010-10-30T17:00:00	14	140.26	85.74	1913.81	ND	ND	0.5	61	22.3	80.7	29.6	0
6619	2010-10-30T18:00:00	26	49.13	37.91	1657.43	ND	ND	2.1	276.7	23.4	67.5	8.4	0
6620	2010-10-30T19:00:00	15	21.47	63.28	2484.02	ND	ND	1.8	262.9	23.1	67.9	0	0
6621	2010-10-30T20:00:00	10	17.70	40.01	2094.48	ND	ND	1.2	180.5	22.4	74.9	0	0
6622	2010-10-30T21:00:00	ND	11.71	42.46	2112.24	ND	ND	ND	ND	ND	ND	ND	ND
6623	2010-10-30T22:00:00	ND	ND	ND	ND	ND	ND	ND	ND	ND	ND	ND	ND
6624	2010-10-30T23:00:00	ND	ND	ND	ND	ND	ND	ND	ND	ND	ND	ND	ND
6625	2010-10-31T00:00:00	ND	ND	ND	ND	ND	ND	ND	ND	ND	ND	ND	ND
6626	2010-10-31T01:00:00	ND	ND	ND	ND	ND	ND	ND	ND	ND	ND	ND	ND
6627	2010-10-31T02:00:00	ND	ND	ND	ND	ND	ND	ND	ND	ND	ND	ND	ND
6628	2010-10-31T03:00:00	ND	ND	ND	ND	ND	ND	ND	ND	ND	ND	ND	ND
6629	2010-10-31T04:00:00	ND	ND	ND	ND	ND	ND	ND	ND	ND	ND	ND	ND
6630	2010-10-31T05:00:00	ND	ND	ND	ND	ND	ND	ND	ND	ND	ND	ND	ND
6631	2010-10-31T06:00:00	ND	ND	ND	ND	ND	ND	ND	ND	ND	ND	ND	ND
6632	2010-10-31T07:00:00	ND	ND	ND	ND	ND	ND	ND	ND	ND	ND	ND	ND
6633	2010-10-31T08:00:00	ND	ND	ND	ND	ND	ND	ND	ND	ND	ND	ND	ND
6634	2010-10-31T09:00:00	ND	ND	ND	ND	ND	ND	ND	ND	ND	ND	ND	ND
6635	2010-10-31T10:00:00	ND	ND	ND	ND	ND	ND	ND	ND	ND	ND	ND	ND
6636	2010-10-31T11:00:00	ND	ND	ND	ND	ND	ND	ND	ND	ND	ND	ND	ND
6637	2010-10-31T12:00:00	ND	ND	ND	ND	ND	ND	ND	ND	ND	ND	ND	ND
6638	2010-10-31T13:00:00	ND	ND	ND	ND	ND	ND	ND	ND	ND	ND	ND	ND
6639	2010-10-31T14:00:00	ND	ND	ND	ND	ND	ND	ND	ND	ND	ND	ND	ND
6640	2010-10-31T15:00:00	ND	ND	ND	ND	ND	ND	ND	ND	ND	ND	ND	ND
6641	2010-10-31T16:00:00	ND	ND	ND	ND	ND	ND	ND	ND	ND	ND	ND	ND
6642	2010-10-31T17:00:00	ND	ND	ND	ND	ND	ND	ND	ND	ND	ND	ND	ND
6643	2010-10-31T18:00:00	ND	ND	ND	ND	ND	ND	ND	ND	ND	ND	ND	ND
6644	2010-10-31T19:00:00	ND	ND	ND	ND	ND	ND	ND	ND	ND	ND	ND	ND
6645	2010-10-31T20:00:00	ND	ND	ND	ND	ND	ND	ND	ND	ND	ND	ND	ND
6646	2010-10-31T21:00:00	ND	ND	ND	ND	ND	ND	ND	ND	ND	ND	ND	ND
6647	2010-10-31T22:00:00	ND	ND	ND	ND	ND	ND	ND	ND	ND	ND	ND	ND
6648	2010-10-31T23:00:00	ND	ND	ND	ND	ND	ND	ND	ND	ND	ND	ND	ND
6649	2010-11-01T00:00:00	ND	ND	ND	ND	ND	ND	ND	ND	ND	ND	ND	ND
6650	2010-11-01T01:00:00	ND	ND	ND	ND	ND	ND	ND	ND	ND	ND	ND	ND
6651	2010-11-01T02:00:00	ND	ND	ND	ND	ND	ND	ND	ND	ND	ND	ND	ND
6652	2010-11-01T03:00:00	ND	ND	ND	ND	ND	ND	ND	ND	ND	ND	ND	ND
6653	2010-11-01T04:00:00	ND	ND	ND	ND	ND	ND	ND	ND	ND	ND	ND	ND
6654	2010-11-01T05:00:00	ND	ND	ND	ND	ND	ND	ND	ND	ND	ND	ND	ND
6655	2010-11-01T06:00:00	ND	ND	ND	ND	ND	ND	ND	ND	ND	ND	ND	ND
6656	2010-11-01T07:00:00	ND	ND	ND	ND	ND	ND	ND	ND	ND	ND	ND	ND
6657	2010-11-01T08:00:00	ND	ND	ND	ND	ND	ND	ND	ND	ND	ND	ND	ND
6658	2010-11-01T09:00:00	ND	ND	ND	ND	ND	ND	ND	ND	ND	ND	ND	ND
6659	2010-11-01T10:00:00	ND	ND	ND	ND	ND	ND	ND	ND	ND	ND	ND	ND
6660	2010-11-01T11:00:00	ND	ND	ND	ND	ND	ND	ND	ND	ND	ND	ND	ND
6661	2010-11-01T12:00:00	ND	ND	ND	ND	ND	ND	ND	ND	ND	ND	ND	ND
6662	2010-11-01T13:00:00	ND	ND	ND	ND	ND	ND	ND	ND	ND	ND	ND	ND
6663	2010-11-01T14:00:00	ND	ND	ND	ND	ND	ND	ND	ND	ND	ND	ND	ND
6664	2010-11-01T15:00:00	ND	ND	ND	ND	ND	ND	ND	ND	ND	ND	ND	ND
6665	2010-11-01T16:00:00	ND	ND	ND	ND	ND	ND	ND	ND	ND	ND	ND	ND
6666	2010-11-01T17:00:00	ND	ND	ND	ND	ND	ND	ND	ND	ND	ND	ND	ND
6667	2010-11-01T18:00:00	ND	ND	ND	ND	ND	ND	ND	ND	ND	ND	ND	ND
6668	2010-11-01T19:00:00	ND	ND	ND	ND	ND	ND	ND	ND	ND	ND	ND	ND
6669	2010-11-01T20:00:00	ND	ND	ND	ND	ND	ND	ND	ND	ND	ND	ND	ND
6670	2010-11-01T21:00:00	ND	ND	ND	ND	ND	ND	ND	ND	ND	ND	ND	ND
6671	2010-11-01T22:00:00	ND	ND	ND	ND	ND	ND	ND	ND	ND	ND	ND	ND
6672	2010-11-01T23:00:00	ND	ND	ND	ND	ND	ND	ND	ND	ND	ND	ND	ND
6673	2010-11-02T00:00:00	ND	ND	ND	ND	ND	ND	ND	ND	ND	ND	ND	ND
6674	2010-11-02T01:00:00	ND	ND	ND	ND	ND	ND	ND	ND	ND	ND	ND	ND
6675	2010-11-02T02:00:00	ND	ND	ND	ND	ND	ND	ND	ND	ND	ND	ND	ND
6676	2010-11-02T03:00:00	ND	ND	ND	ND	ND	ND	ND	ND	ND	ND	ND	ND
6677	2010-11-02T04:00:00	ND	ND	ND	ND	ND	ND	ND	ND	ND	ND	ND	ND
6678	2010-11-02T05:00:00	ND	ND	ND	ND	ND	ND	ND	ND	ND	ND	ND	ND
6679	2010-11-02T06:00:00	ND	ND	ND	ND	ND	ND	ND	ND	ND	ND	ND	ND
6680	2010-11-02T07:00:00	ND	ND	ND	ND	ND	ND	ND	ND	ND	ND	ND	ND
6681	2010-11-02T08:00:00	ND	ND	ND	ND	ND	ND	ND	ND	ND	ND	ND	ND
6682	2010-11-02T09:00:00	ND	ND	ND	ND	ND	ND	ND	ND	ND	ND	ND	ND
6683	2010-11-02T10:00:00	ND	ND	ND	ND	ND	ND	ND	ND	ND	ND	ND	ND
6684	2010-11-02T11:00:00	ND	ND	ND	ND	ND	ND	0.9	146.7	25.9	63.6	808.4	0
6685	2010-11-02T12:00:00	ND	ND	ND	ND	ND	ND	0.5	109.5	27	58.5	513.6	0
6686	2010-11-02T13:00:00	ND	15.59	60.03	1764.54	ND	ND	0.7	1.8	27.7	55.2	463.5	0
6687	2010-11-02T14:00:00	11	12.40	51.85	1699.30	ND	ND	1.1	52.1	28.3	53.6	424.7	0
6688	2010-11-02T15:00:00	40	14.81	51.74	1679.53	ND	ND	1.7	325.8	27.5	56.3	131.5	0
6689	2010-11-02T16:00:00	21	17.89	66.93	1986.98	ND	ND	3.1	278.6	26.9	57.6	219.7	0
6690	2010-11-02T17:00:00	30	18.09	56.65	1856.19	ND	ND	2.6	273.1	26.8	56.5	116.9	0
6691	2010-11-02T18:00:00	22	10.18	30.51	1740.32	ND	ND	3.5	279.7	25.7	59.7	11.1	0
6692	2010-11-02T19:00:00	28	8.51	31.79	1894.69	ND	ND	3.6	284.5	25.1	61.9	0	0
6693	2010-11-02T20:00:00	14	7.52	20.72	1661.69	ND	ND	3.2	275.7	24.8	62.7	0	0
6694	2010-11-02T21:00:00	16	6.78	23.19	1602.77	ND	ND	2.2	233.4	23	76.8	0	2.29
6695	2010-11-02T22:00:00	10	4.92	19.53	1365.50	ND	ND	1.5	284.2	22.4	80.1	0	0.25
6696	2010-11-02T23:00:00	10	4.03	30.34	1419.52	ND	ND	0.3	42.5	22.3	79.3	0	0
6697	2010-11-03T00:00:00	17	4.52	29.13	1328.22	ND	ND	0.6	49.2	22.3	80.2	0	0.25
6698	2010-11-03T01:00:00	12	5.76	35.98	1770.96	ND	ND	0.7	52.3	21.3	88	0	0.25
6699	2010-11-03T02:00:00	6	6.99	32.76	1617.88	ND	ND	0.8	84.7	20.8	90	0	0.25
6700	2010-11-03T03:00:00	8	13.74	31.57	1502.18	ND	ND	1.1	66.9	20.4	93.1	0	3.56
6701	2010-11-03T04:00:00	5	17.00	14.33	1139.20	ND	ND	1	36.1	19.9	95.9	0	15.49
6702	2010-11-03T05:00:00	5	11.74	7.09	934.58	ND	ND	1.4	165.2	19.3	97.4	0	15.75
6703	2010-11-03T06:00:00	5	9.66	11.03	898.96	ND	ND	1.9	185.7	18.6	97.6	0	19.81
6704	2010-11-03T07:00:00	4	7.51	8.83	896.80	ND	ND	0.7	237.6	18.6	95.6	2.6	5.33
6705	2010-11-03T08:00:00	3	6.31	19.85	1008.90	ND	ND	0.7	352.2	19.4	93.2	7.6	2.79
6706	2010-11-03T09:00:00	2	5.01	36.87	1371.38	ND	ND	0.7	15.4	19.3	94.9	21.4	6.86
6707	2010-11-03T10:00:00	17	7.66	72.42	3157.58	ND	ND	1	11.4	19.5	95.2	89.4	4.06
6708	2010-11-03T11:00:00	27	10.75	87.63	3856.91	ND	ND	0.5	323.6	20.9	85.6	185.9	0.25
6709	2010-11-03T12:00:00	14	11.01	85.78	3039.28	ND	ND	1	65	21.8	83.3	207	0
6710	2010-11-03T13:00:00	34	ND	ND	2425.27	ND	ND	0.8	81.1	21.9	80.6	237.2	0
6711	2010-11-03T14:00:00	20	20.54	118.80	3060.96	ND	ND	0.7	81.1	22.9	75.6	369.7	0
6712	2010-11-03T15:00:00	29	23.00	76.96	2434.32	ND	ND	1.2	68.2	23.4	72.6	272.8	0
6713	2010-11-03T16:00:00	23	19.65	75.21	2062.42	ND	ND	1.5	60	23.3	69.7	119.4	0
6714	2010-11-03T17:00:00	29	21.44	81.16	2198.41	ND	ND	1.3	21.7	23.3	68.7	53.5	0
6715	2010-11-03T18:00:00	26	29.73	78.58	2095.89	ND	ND	1.8	344.2	22.8	72.9	18	0
6716	2010-11-03T19:00:00	73	28.90	82.35	1910.41	ND	ND	1.2	338.5	22.4	75.4	0	0
6717	2010-11-03T20:00:00	48	23.69	92.98	2225.80	ND	ND	0.4	259.5	22.2	77.7	0	0
6718	2010-11-03T21:00:00	72	76.60	90.12	2576.09	ND	ND	0.5	193.5	21.7	80.9	0	0
6719	2010-11-03T22:00:00	74	129.82	83.67	3172.18	ND	ND	1.1	189.6	21.1	85	0	0
6720	2010-11-03T23:00:00	78	40.34	53.72	3459.68	ND	ND	1	218.6	21	84.1	0	0
6721	2010-11-04T00:00:00	41	25.23	71.84	3684.55	ND	ND	0.3	253.3	21.2	82.1	0	0
6722	2010-11-04T01:00:00	51	18.19	61.25	2533.44	ND	ND	0.4	7	20.8	87.6	0	0
6723	2010-11-04T02:00:00	65	14.78	41.43	1592.54	ND	ND	0.6	217.7	20.5	87.9	0	0
6724	2010-11-04T03:00:00	63	15.23	57.50	2888.47	ND	ND	0.5	167.2	20.1	91.7	0	0
6725	2010-11-04T04:00:00	55	13.50	37.36	1938.04	ND	ND	0.3	13.7	19.8	94.3	0	0
6726	2010-11-04T05:00:00	63	10.50	30.53	1981.09	ND	ND	0.1	27.8	19.9	93.4	0	0
6727	2010-11-04T06:00:00	36	8.24	32.28	2184.44	ND	ND	0.5	225.2	20	92.8	0.1	0
6728	2010-11-04T07:00:00	40	10.15	32.52	2275.30	ND	ND	0.3	258.9	20.1	88.8	30.8	0
6729	2010-11-04T08:00:00	44	10.51	28.95	2095.79	ND	ND	0.6	110.9	21.5	83.2	188.9	0
6730	2010-11-04T09:00:00	63	10.18	23.34	2241.66	ND	ND	0.7	120.1	22.9	76.9	390.9	0
6731	2010-11-04T10:00:00	56	17.90	77.59	3583.23	ND	ND	0.8	118.1	25	66.2	696.1	0
6732	2010-11-04T11:00:00	70	20.78	117.06	3070.23	ND	ND	0.8	137.1	26.3	60.7	602.7	0
6733	2010-11-04T12:00:00	48	24.47	86.71	2381.75	ND	ND	0.6	78.2	26.3	61.5	354.4	0
6734	2010-11-04T13:00:00	69	18.79	62.44	1875.49	ND	ND	1.2	17.6	26.7	61.1	344.1	0
6735	2010-11-04T14:00:00	49	17.47	84.01	2039.29	ND	ND	1.6	296.5	26.3	60.9	212.6	0
6736	2010-11-04T15:00:00	57	16.29	73.32	1702.90	ND	ND	2.7	290.3	26	57.2	124.5	0
6737	2010-11-04T16:00:00	37	12.93	45.39	1448.31	ND	ND	2.2	290.8	24.7	64.8	108.2	0
6738	2010-11-04T17:00:00	20	8.27	22.88	1396.23	ND	ND	1.2	308.2	25.6	60.4	117	0
6739	2010-11-04T18:00:00	13	9.77	30.42	1675.95	ND	ND	1.5	334.1	25.5	60.6	33.4	0
6740	2010-11-04T19:00:00	36	9.34	34.11	1663.92	ND	ND	1.5	297.8	24.8	62.4	0	0
6741	2010-11-04T20:00:00	22	7.59	22.47	1408.15	ND	ND	1.6	289.6	24.3	63.4	0	0
6742	2010-11-04T21:00:00	19	7.76	26.81	1908.67	ND	ND	1.2	264.5	23.8	65.8	0	0
6743	2010-11-04T22:00:00	11	6.94	28.81	1722.90	ND	ND	2	242.6	23.3	68	0	0
6744	2010-11-04T23:00:00	21	5.84	26.44	1628.87	ND	ND	2.5	263.2	23	68.6	0	0
6745	2010-11-05T00:00:00	12	6.56	30.18	1706.88	ND	ND	0.8	352.1	22.1	78.2	0	0
6746	2010-11-05T01:00:00	32	4.02	13.47	1145.80	ND	ND	0.5	63	20.8	84.4	0	0
6747	2010-11-05T02:00:00	17	7.96	24.40	2518.70	ND	ND	0.6	175	20.7	84.8	0	0
6748	2010-11-05T03:00:00	22	13.82	17.91	1467.80	ND	ND	0.9	203.5	20.4	82.1	0	0
6749	2010-11-05T04:00:00	13	15.09	15.80	1533.98	ND	ND	0.8	217.4	20.3	82.7	0	0
6750	2010-11-05T05:00:00	8	11.91	17.18	1431.97	ND	ND	0.9	235.5	20.1	78.6	0	0
6751	2010-11-05T06:00:00	6	7.86	15.00	1340.86	ND	ND	0.4	253.4	20.3	77.6	0	0
6752	2010-11-05T07:00:00	27	6.68	9.92	1093.71	ND	ND	0.4	352.7	20.5	81.9	19.8	0
6753	2010-11-05T08:00:00	52	6.06	12.78	1229.86	ND	ND	0.2	236.9	21.3	78.8	85.3	0
6754	2010-11-05T09:00:00	83	17.91	34.06	2590.87	ND	ND	0.5	114.7	23.1	72.6	380.6	0
6755	2010-11-05T10:00:00	77	33.48	51.24	2982.35	ND	ND	1	124.9	25.3	64.7	643.8	0
6756	2010-11-05T11:00:00	77	35.02	110.08	3015.98	ND	ND	1.2	91	26.2	60.6	541	0
6757	2010-11-05T12:00:00	40	95.42	128.87	2795.04	ND	ND	1.7	130.7	26.4	60.7	407.8	0
6758	2010-11-05T13:00:00	54	25.09	74.23	2209.90	ND	ND	0.8	154.3	27.5	57.1	689.2	0
6759	2010-11-05T14:00:00	34	19.47	62.66	1963.87	ND	ND	0.6	219.2	28.1	54.4	423	0
6760	2010-11-05T15:00:00	40	16.55	49.12	1805.74	ND	ND	1	325.8	29.1	50.4	342.3	0
6761	2010-11-05T16:00:00	21	14.37	39.73	1742.05	ND	ND	3.3	276.7	29.5	46.9	570	0
6762	2010-11-05T17:00:00	19	12.13	39.61	1697.84	ND	ND	3.7	281.3	28.2	49	268	0
6763	2010-11-05T18:00:00	10	7.49	20.18	1470.54	ND	ND	4.3	273.1	26.3	54.6	28.9	0
6764	2010-11-05T19:00:00	22	7.34	23.29	1760.43	ND	ND	4.4	272.3	25.1	59.2	0	0
6765	2010-11-05T20:00:00	18	7.16	23.25	1867.97	ND	ND	4.2	270.3	25	59.5	0	0
6766	2010-11-05T21:00:00	12	6.29	18.65	1649.67	ND	ND	2.6	295.1	24.7	60.2	0	0
6767	2010-11-05T22:00:00	8	5.89	19.27	1510.68	ND	ND	2.4	284.2	24.4	61.2	0	0
6768	2010-11-05T23:00:00	6	4.89	19.44	1634.92	ND	ND	0.5	294.1	23.9	65.9	0	0
6769	2010-11-06T00:00:00	4	3.86	12.31	1403.90	ND	ND	0.3	57.2	22.8	74.2	0	0
6770	2010-11-06T01:00:00	33	8.35	31.35	2228.81	ND	ND	1	184.3	22.6	74.6	0	0
6771	2010-11-06T02:00:00	18	26.56	31.35	2363.67	ND	ND	0.6	12.9	22.4	75.2	0	0
6772	2010-11-06T03:00:00	11	19.87	26.21	1873.76	ND	ND	0.5	71.3	21.8	79.5	0	0
6773	2010-11-06T04:00:00	22	12.44	25.90	1711.29	ND	ND	1.3	138.2	21.7	80.4	0	0
6774	2010-11-06T05:00:00	28	14.59	23.32	1574.76	ND	ND	0.7	200.8	21.5	81.5	0	0
6775	2010-11-06T06:00:00	16	12.95	18.95	1754.84	ND	ND	0.3	229.7	21.9	78.4	0	0
6776	2010-11-06T07:00:00	26	8.63	15.13	1439.79	ND	ND	1.7	25.5	21.6	81.5	21.5	0
6777	2010-11-06T08:00:00	42	8.68	18.73	1732.78	ND	ND	2.3	27.2	21.2	83.7	61.8	0
6778	2010-11-06T09:00:00	33	14.12	28.77	2284.62	ND	ND	0.8	23.7	21.9	81.3	191.7	0
6779	2010-11-06T10:00:00	35	18.75	27.98	1995.29	ND	ND	1.3	189	23.4	73.7	356.6	0
6780	2010-11-06T11:00:00	48	99.79	42.36	2370.07	ND	ND	1.4	141.8	24.3	70.4	371	0
6781	2010-11-06T12:00:00	26	109.11	77.81	2571.56	ND	ND	1.3	55.2	24.1	71.4	199.8	0
6782	2010-11-06T13:00:00	33	43.52	64.20	2329.98	ND	ND	1.6	158.4	24.3	71.1	211.9	0
6783	2010-11-06T14:00:00	18	23.47	42.22	1908.67	ND	ND	1.9	144.1	24.8	68.3	268.8	0
6784	2010-11-06T15:00:00	31	18.07	57.05	2324.02	ND	ND	0.6	125.5	25.9	62.8	374.7	0
6785	2010-11-06T16:00:00	17	15.06	53.78	2332.61	ND	ND	0.8	143	26	62.8	145.1	0
6786	2010-11-06T17:00:00	42	13.57	43.58	1839.12	ND	ND	0.7	176.5	25.5	64.3	40.3	0
6787	2010-11-06T18:00:00	59	12.99	68.22	2249.16	ND	ND	0.6	143.6	24.4	72.3	5.5	0
6788	2010-11-06T19:00:00	70	19.98	55.00	2046.51	ND	ND	0.7	208.7	24.1	72.7	0	0
6789	2010-11-06T20:00:00	38	13.79	89.81	2843.95	ND	ND	0.1	314.8	24.3	70	0	0
6790	2010-11-06T21:00:00	70	11.97	87.37	3188.74	ND	ND	1.8	274.6	23.5	72.3	0	0
6791	2010-11-06T22:00:00	36	12.90	66.94	3613.30	ND	ND	2.3	273.1	22.7	74.4	0	0
6792	2010-11-06T23:00:00	23	13.42	40.78	2193.96	ND	ND	0.1	49.6	23	72.1	0	0
6793	2010-11-07T00:00:00	14	7.50	18.97	1570.33	ND	ND	0.8	100.7	22.1	79.4	0	0
6794	2010-11-07T01:00:00	31	7.73	32.14	2223.54	ND	ND	0.4	150.1	22.1	79.2	0	0
6795	2010-11-07T02:00:00	16	9.99	31.18	2552.53	ND	ND	0.7	243.1	21.9	81.5	0	0
6796	2010-11-07T03:00:00	29	11.44	28.26	2324.06	ND	ND	0.6	241.3	21.9	78.7	0	0
6797	2010-11-07T04:00:00	21	9.80	28.35	1995.29	ND	ND	0.6	224.3	21.7	80.8	0	0
6798	2010-11-07T05:00:00	19	8.24	20.82	1688.05	ND	ND	1.1	26.4	21.4	83.3	0	0
6799	2010-11-07T06:00:00	10	7.43	22.46	1663.70	ND	ND	1.3	24.4	20.3	93	0	1.52
6800	2010-11-07T07:00:00	12	6.89	23.52	1646.21	ND	ND	0.8	57.4	20	95.5	2	3.3
6801	2010-11-07T08:00:00	8	9.76	21.80	1599.47	ND	ND	1.2	34.4	20.2	94.8	50.5	0.25
6802	2010-11-07T09:00:00	5	18.33	22.68	1668.19	ND	ND	0.3	36.8	21.2	87	138.2	0
6803	2010-11-07T10:00:00	3	23.41	21.44	1843.53	ND	ND	1.4	173	22.2	82.1	213.9	0
6804	2010-11-07T11:00:00	6	31.38	27.00	1770.36	ND	ND	1.7	170.7	23	79.3	360.6	0
6805	2010-11-07T12:00:00	5	50.52	39.62	2071.01	ND	ND	1.2	136.5	23.7	75.8	371	0
6806	2010-11-07T13:00:00	34	41.38	34.07	1893.41	ND	ND	1.2	93.6	24.3	71.5	264.7	0
6807	2010-11-07T14:00:00	18	21.85	36.60	1794.38	ND	ND	0.4	110.2	25	68.8	435.5	0
6808	2010-11-07T15:00:00	13	13.36	46.80	2073.55	ND	ND	0.2	173.4	25	70.2	145.2	2.54
6809	2010-11-07T16:00:00	20	11.97	36.80	1981.90	ND	ND	1.5	214.6	23.3	81	75.2	2.79
6810	2010-11-07T17:00:00	27	11.75	38.07	1811.12	ND	ND	0.9	200.5	22.5	85.7	99.2	0
6811	2010-11-07T18:00:00	16	8.52	38.44	1635.84	ND	ND	1	257.4	22.1	83.1	5.8	5.59
6812	2010-11-07T19:00:00	8	6.49	46.78	1610.93	ND	ND	1.3	265.3	21.2	85.5	0	3.56
6813	2010-11-07T20:00:00	6	6.03	35.76	1549.47	ND	ND	0.5	164.7	21	89.5	0	1.27
6814	2010-11-07T21:00:00	5	4.58	19.18	1435.39	ND	ND	0.3	188.6	20.9	93.1	0	0.25
6815	2010-11-07T22:00:00	15	5.38	34.57	2383.97	ND	ND	0.8	348.4	20.9	92.1	0	0.25
6816	2010-11-07T23:00:00	25	5.45	33.57	2429.17	ND	ND	0.6	10.3	20.8	90.7	0	0
6817	2010-11-08T00:00:00	19	5.86	32.94	2157.27	ND	ND	0.4	80.2	20.7	91.3	0	0
6818	2010-11-08T01:00:00	36	13.92	34.49	2077.50	ND	ND	0.8	78.9	20.3	92.2	0	0
6819	2010-11-08T02:00:00	20	25.07	32.50	1713.86	ND	ND	0.7	77.1	20	93.3	0	0
6820	2010-11-08T03:00:00	17	19.32	19.59	1464.30	ND	ND	1.1	57.6	19.8	93.8	0	0
6821	2010-11-08T04:00:00	9	13.28	9.90	1148.13	ND	ND	0.4	12.9	19.9	94.1	0	0.76
6822	2010-11-08T05:00:00	6	10.43	4.72	1024.66	ND	ND	0.4	129.9	19.9	94.9	0	0.76
6823	2010-11-08T06:00:00	5	9.94	14.74	1069.70	ND	ND	1.1	147	19.6	96	0	1.52
6824	2010-11-08T07:00:00	4	31.39	28.29	1349.82	ND	ND	0.6	164.6	19.6	95.9	9.4	3.56
6825	2010-11-08T08:00:00	3	21.35	29.20	1473.55	ND	ND	0.2	106.7	19.8	93.5	40.2	0.76
6826	2010-11-08T09:00:00	20	12.98	37.12	2059.88	ND	ND	0.6	62.9	20.4	90.7	57.5	0
6827	2010-11-08T10:00:00	11	12.82	50.85	2447.59	ND	ND	0.6	63.9	20.8	90	156.9	2.54
6828	2010-11-08T11:00:00	16	15.65	64.92	2947.89	ND	ND	0.8	79.4	21.2	88.9	231.1	1.27
6829	2010-11-08T12:00:00	10	14.74	55.65	2409.03	ND	ND	1.2	69.3	22	85.7	213.3	0
6830	2010-11-08T13:00:00	33	17.66	55.32	2506.30	ND	ND	1.2	221.4	21.9	85.8	165.5	0.51
6831	2010-11-08T14:00:00	18	21.21	56.29	2448.77	ND	ND	0.7	231.3	23.3	75.7	319.8	0
6832	2010-11-08T15:00:00	10	17.30	80.99	2688.21	ND	ND	0.6	207.2	24.4	69.9	314.5	0
6833	2010-11-08T16:00:00	13	18.02	48.29	1909.31	ND	ND	1	140.9	24.9	67.5	203.3	0
6834	2010-11-08T17:00:00	37	17.58	58.65	2301.90	ND	ND	0.9	174.3	24.9	68.2	113.6	0
6835	2010-11-08T18:00:00	46	15.87	108.52	2828.70	ND	ND	0.7	122.5	24.4	67.8	22.5	0
6836	2010-11-08T19:00:00	96	17.96	84.88	2378.07	ND	ND	0.8	23.3	23.3	73.3	0	0
6837	2010-11-08T20:00:00	89	27.36	124.98	4225.96	ND	ND	1.3	282.4	22.6	70.3	0	0
6838	2010-11-08T21:00:00	61	24.64	121.92	3602.33	ND	ND	2.8	260.7	22.1	69.7	0	0
6839	2010-11-08T22:00:00	33	17.93	62.74	1792.44	ND	ND	1.2	290.5	21.6	73.5	0	0
6840	2010-11-08T23:00:00	19	9.17	29.05	1438.32	ND	ND	0.2	77.5	20.9	80.7	0	0
6841	2010-11-09T00:00:00	47	7.91	29.63	1480.10	ND	ND	0.2	28.3	20.3	81.5	0	0
6842	2010-11-09T01:00:00	45	16.32	47.10	2987.98	ND	ND	0.7	228	20.2	84.5	0	0
6843	2010-11-09T02:00:00	24	13.77	36.95	1983.79	ND	ND	0.9	240.9	20.2	79.5	0	0
6844	2010-11-09T03:00:00	18	12.30	33.91	1713.28	ND	ND	0.5	167.5	20.1	82.1	0	0
6845	2010-11-09T04:00:00	11	8.66	14.71	1014.09	ND	ND	0.6	32.4	19.1	87.7	0	0
6846	2010-11-09T05:00:00	23	6.32	15.90	1459.80	ND	ND	0.8	233.7	19.5	87.8	0	0
6847	2010-11-09T06:00:00	13	6.30	19.97	1506.78	ND	ND	0.4	66.6	19.6	88.1	0	0
6848	2010-11-09T07:00:00	54	6.38	20.92	1518.54	ND	ND	0.6	168.1	19.5	89.1	60.5	0
6849	2010-11-09T08:00:00	49	8.54	28.73	1979.06	ND	ND	1.1	166.2	20.9	83	206.1	0
6850	2010-11-09T09:00:00	75	11.86	40.33	3005.39	ND	ND	1.2	151.2	21.9	75.7	355.6	0
6851	2010-11-09T10:00:00	59	15.14	48.96	2890.91	ND	ND	1	156.7	23.9	69	603.4	0
6852	2010-11-09T11:00:00	59	17.93	50.53	2317.00	ND	ND	0.9	128.1	26.2	59.1	773	0
6853	2010-11-09T12:00:00	32	16.78	53.42	1874.86	ND	ND	0.8	85.2	27.1	55.1	370.1	0
6854	2010-11-09T13:00:00	33	15.59	50.93	1938.18	ND	ND	1.5	339.3	26.9	55.6	308.5	0
6855	2010-11-09T14:00:00	17	14.13	57.56	2006.07	ND	ND	1.4	13.5	27.7	53.2	506.1	0
6856	2010-11-09T15:00:00	47	13.46	51.47	2011.42	ND	ND	1	314.3	27.3	56	279.5	0
6857	2010-11-09T16:00:00	31	33.85	59.69	1951.02	ND	ND	2	308.4	28.2	52.4	326.9	0
6858	2010-11-09T17:00:00	28	28.79	52.43	2003.18	ND	ND	3.9	267.8	26.2	58.8	109.4	0
6859	2010-11-09T18:00:00	25	ND	ND	ND	ND	ND	2.7	269.4	25.1	61	13.8	0
6860	2010-11-09T19:00:00	35	ND	ND	1294.97	ND	ND	2.4	273.5	24.8	61	0	0
6861	2010-11-09T20:00:00	30	14.30	44.19	1408.15	ND	ND	0.9	198.2	24.4	64.9	0	0
6862	2010-11-09T21:00:00	29	12.60	46.56	1360.53	ND	ND	1.4	182.1	23.1	69.7	0	0
6863	2010-11-09T22:00:00	26	11.95	54.35	1502.56	ND	ND	0.9	229.4	23	72.5	0	0
6864	2010-11-09T23:00:00	21	11.04	58.33	1456.54	ND	ND	0.8	217.1	22.7	75.3	0	0
6865	2010-11-10T00:00:00	13	10.30	54.40	1318.65	ND	ND	1.3	167.1	22	76.4	0	0
6866	2010-11-10T01:00:00	18	9.03	41.35	997.99	ND	ND	0.8	183.3	21.1	84.3	0	0
6867	2010-11-10T02:00:00	10	9.72	35.58	927.10	ND	ND	0.4	129.1	20.8	87.2	0	0
6868	2010-11-10T03:00:00	6	8.34	15.23	564.73	ND	ND	0.7	109.6	20.6	89.2	0	0
6869	2010-11-10T04:00:00	4	8.16	14.14	620.78	ND	ND	0.5	138.6	20.4	91.2	0	0
6870	2010-11-10T05:00:00	3	8.23	12.57	507.57	ND	ND	0.5	62	20.3	93.1	0	0.76
6871	2010-11-10T06:00:00	2	7.81	10.18	586.32	ND	ND	1.4	43.8	20	95	0	3.05
6872	2010-11-10T07:00:00	40	8.66	19.89	642.04	ND	ND	1	23	19.5	97.8	0	34.04
6873	2010-11-10T08:00:00	21	10.16	33.90	933.30	ND	ND	1.1	68.6	19.2	99.5	2.7	35.81
6874	2010-11-10T09:00:00	24	15.16	46.98	1640.03	ND	ND	1.3	65.2	19.2	100	63	11.43
6875	2010-11-10T10:00:00	14	15.57	52.45	2291.55	ND	ND	0.6	53.9	20	97.9	230.7	0.76
6876	2010-11-10T11:00:00	7	13.60	51.44	1576.94	ND	ND	0.8	173.7	22.7	82.1	585.6	0
6877	2010-11-10T12:00:00	3	21.37	55.69	1364.12	ND	ND	1.2	161.7	24.7	69.5	682.5	0
6878	2010-11-10T13:00:00	2	26.57	75.79	1625.12	ND	ND	2	151.7	25.9	64.5	732.6	0
6879	2010-11-10T14:00:00	2	17.11	59.94	1321.43	ND	ND	2.4	174.9	25	68.3	546	0
6880	2010-11-10T15:00:00	20	14.07	53.00	1088.33	ND	ND	1.2	206.5	25.1	65.4	374.3	0
6881	2010-11-10T16:00:00	12	16.91	45.90	1134.53	ND	ND	1	236.8	26.4	60.4	419.8	0
6882	2010-11-10T17:00:00	14	16.74	41.02	1404.21	ND	ND	0.8	191.9	26.3	60.7	111.2	0
6883	2010-11-10T18:00:00	59	15.11	42.68	1196.63	ND	ND	0.9	219.9	25.4	64.6	12	0
6884	2010-11-10T19:00:00	84	22.35	68.39	1583.06	ND	ND	1.8	276	24.6	65	0	0
6885	2010-11-10T20:00:00	43	33.83	102.06	2551.28	ND	ND	2.1	267.5	23.9	65	0	0
6886	2010-11-10T21:00:00	41	15.56	71.46	2282.76	ND	ND	0.8	272.1	23.6	66.6	0	0
6887	2010-11-10T22:00:00	21	11.58	40.06	1163.03	ND	ND	0.5	79.3	22.7	77.2	0	0
6888	2010-11-10T23:00:00	42	11.31	41.53	1455.06	ND	ND	1.4	210.2	22.6	77.6	0	0
6889	2010-11-11T00:00:00	35	13.93	44.54	2090.94	ND	ND	1.3	173.1	22.4	80.1	0	0
6890	2010-11-11T01:00:00	18	15.22	44.25	1487.65	ND	ND	1.7	18.7	21.3	86.2	0	3.3
6891	2010-11-11T02:00:00	13	12.42	41.40	1425.54	ND	ND	1.2	300.3	19.5	96	0	31.24
6892	2010-11-11T03:00:00	7	10.44	28.53	730.90	ND	ND	0.4	321.9	19.6	93	0	7.87
6893	2010-11-11T04:00:00	5	11.35	21.73	292.46	ND	ND	0.5	30.5	19.6	95.4	0	3.81
6894	2010-11-11T05:00:00	3	9.70	13.26	168.73	ND	ND	0.1	72.1	19.5	95.6	0	3.3
6895	2010-11-11T06:00:00	3	10.03	30.54	359.83	ND	ND	0.5	285.4	19.7	91	0	0.51
6896	2010-11-11T07:00:00	4	9.63	19.81	360.07	ND	ND	0	221.4	20.1	91.2	26.1	0
6897	2010-11-11T08:00:00	2	8.84	16.28	450.71	ND	ND	0.3	197.2	21	85.8	148.1	0
6898	2010-11-11T09:00:00	22	10.81	44.56	1130.23	ND	ND	0.5	190.6	22	83.2	207.1	0
6899	2010-11-11T10:00:00	21	13.75	57.30	2279.49	ND	ND	0.6	152.5	23	79.3	358.7	0
6900	2010-11-11T11:00:00	34	15.20	121.98	2947.21	ND	ND	0.8	93.9	24.3	72.8	376.5	0
6901	2010-11-11T12:00:00	27	12.18	75.52	1782.95	ND	ND	1.1	49.5	24.8	69.9	335.5	0
6902	2010-11-11T13:00:00	47	13.75	68.61	1488.29	ND	ND	0.5	64.2	25.3	66.3	358.9	0
6903	2010-11-11T14:00:00	24	17.42	67.95	1364.65	ND	ND	0.2	88.5	26.7	60.4	576.8	0
6904	2010-11-11T15:00:00	21	27.96	51.64	1209.75	ND	ND	1.2	54.7	26.7	61.3	203.6	0
6905	2010-11-11T16:00:00	22	32.41	54.78	1175.19	ND	ND	0.4	137.6	25.9	64.4	48.2	0
6906	2010-11-11T17:00:00	50	30.70	83.42	1574.22	ND	ND	1	273.1	24.6	67.9	20.1	0.25
6907	2010-11-11T18:00:00	34	27.58	89.81	1899.16	ND	ND	1	110.3	22.2	83.7	0.3	3.3
6908	2010-11-11T19:00:00	51	29.43	62.73	1452.60	ND	ND	0.7	195.8	21.5	89.6	0	0.25
6909	2010-11-11T20:00:00	44	21.96	60.44	2581.31	ND	ND	0.7	126.7	21.6	89.6	0	0
6910	2010-11-11T21:00:00	71	23.00	64.93	3533.51	ND	ND	1	202.8	21.4	90.9	0	0
6911	2010-11-11T22:00:00	37	19.88	71.65	4164.91	ND	ND	0.6	173.1	21.4	91.1	0	0
6912	2010-11-11T23:00:00	42	12.94	63.45	2139.04	ND	ND	0.4	187.6	21.4	90.1	0	0
6913	2010-11-12T00:00:00	37	13.43	67.19	2818.10	ND	ND	0.4	108.7	21.3	90.6	0	0
6914	2010-11-12T01:00:00	36	12.37	62.22	2613.50	ND	ND	0.6	172.9	20.7	92.2	0	0
6915	2010-11-12T02:00:00	30	13.40	61.37	2754.95	ND	ND	0	232.3	20.7	92.2	0	0
6916	2010-11-12T03:00:00	30	9.97	41.67	1208.11	ND	ND	0.8	145.5	20.6	93.4	0	0
6917	2010-11-12T04:00:00	17	7.95	32.27	948.10	ND	ND	0.6	159.2	20.1	95.7	0	0.25
6918	2010-11-12T05:00:00	24	7.86	29.90	1081.70	ND	ND	0.6	179.3	20.1	95.4	0	0
6919	2010-11-12T06:00:00	13	7.99	22.43	653.53	ND	ND	0.4	220.3	20.3	93.3	0	0
6920	2010-11-12T07:00:00	13	7.79	27.10	778.00	ND	ND	0.3	207	20.7	87.3	32.5	0
6921	2010-11-12T08:00:00	19	7.28	25.76	971.01	ND	ND	0.3	41.3	21.2	87.9	33.7	0
6922	2010-11-12T09:00:00	36	9.31	36.59	1888.77	ND	ND	0.7	164.9	21.7	87.2	155.1	0
6923	2010-11-12T10:00:00	54	11.95	60.76	3002.24	ND	ND	1.2	186.7	23.1	78.8	405.7	0
6924	2010-11-12T11:00:00	54	17.81	73.94	2834.37	ND	ND	1.1	138.5	25.4	66.4	627	0
6925	2010-11-12T12:00:00	31	18.39	61.82	1778.07	ND	ND	1.1	132.1	26.6	61.4	536	0
6926	2010-11-12T13:00:00	42	19.49	53.47	1405.15	ND	ND	0.6	23.6	26.7	61.5	369.1	0
6927	2010-11-12T14:00:00	25	22.35	52.51	1175.19	ND	ND	1.2	266.9	25.7	64.3	188.7	0.51
6928	2010-11-12T15:00:00	23	20.49	62.71	1217.20	ND	ND	2	285.4	26.6	58	424.9	0
6929	2010-11-12T16:00:00	14	16.41	47.04	1393.63	ND	ND	1.7	44.8	27.4	56.8	383.3	0
6930	2010-11-12T17:00:00	24	12.47	32.31	1293.41	ND	ND	1.8	282	25.9	59.4	156.2	0
6931	2010-11-12T18:00:00	14	22.26	62.34	1758.07	ND	ND	2.8	264.1	24.4	63.7	5.9	0
6932	2010-11-12T19:00:00	23	20.40	38.95	1543.46	ND	ND	2.4	158	22.2	80.5	0	0
6933	2010-11-12T20:00:00	49	12.12	36.74	1282.37	ND	ND	1.9	172.4	21.3	84.5	0	0
6934	2010-11-12T21:00:00	58	17.93	80.61	2647.44	ND	ND	1.7	171.7	20.6	88.6	0	0
6935	2010-11-12T22:00:00	40	11.69	67.08	1963.92	ND	ND	1.1	184.4	19.8	92.5	0	2.54
6936	2010-11-12T23:00:00	21	9.71	63.01	1744.71	ND	ND	1.1	160.3	19.5	94.8	0	1.52
6937	2010-11-13T00:00:00	12	8.23	45.64	1146.95	ND	ND	0.9	158.7	19.3	95.6	0	6.1
6938	2010-11-13T01:00:00	7	8.33	57.44	1606.88	ND	ND	0.9	181	19.3	95.6	0	3.3
6939	2010-11-13T02:00:00	4	7.43	44.74	1258.54	ND	ND	0.7	134.6	19.3	96	0	0.76
6940	2010-11-13T03:00:00	2	6.86	33.51	1067.51	ND	ND	0.9	88	19.1	96.4	0	1.27
6941	2010-11-13T04:00:00	2	6.99	34.63	1033.09	ND	ND	0.6	66.6	19.1	95.5	0	0.25
6942	2010-11-13T05:00:00	3	6.70	24.24	898.34	ND	ND	0.1	38.1	19.3	94.5	0	0
6943	2010-11-13T06:00:00	7	8.02	25.88	1045.04	ND	ND	0.5	198.3	19.4	94.3	0	0.25
6944	2010-11-13T07:00:00	12	12.73	34.84	1303.93	ND	ND	0.8	213.9	19.5	93.3	13.7	0.25
6945	2010-11-13T08:00:00	14	15.69	35.66	1057.00	ND	ND	1.1	165.2	19.8	91.9	60.2	0
6946	2010-11-13T09:00:00	15	12.31	32.76	1260.69	ND	ND	1.2	171.6	20.5	88.3	176.6	0
6947	2010-11-13T10:00:00	23	14.92	53.02	2707.94	ND	ND	0.7	161	21.8	80.7	345.1	0
6948	2010-11-13T11:00:00	41	15.73	56.34	2515.94	ND	ND	0.9	140	23.5	72.2	587.1	0
6949	2010-11-13T12:00:00	23	15.54	53.76	1800.95	ND	ND	1.4	136.9	25.1	63.5	636.4	0
6950	2010-11-13T13:00:00	24	14.68	49.57	1753.37	ND	ND	0.9	142.3	26.2	58.3	691.5	0
6951	2010-11-13T14:00:00	13	15.00	51.68	1702.33	ND	ND	1	156.2	26.7	56.9	492.4	0
6952	2010-11-13T15:00:00	7	12.57	46.63	1474.74	ND	ND	0.7	246.5	26.6	56.2	234.3	0
6953	2010-11-13T16:00:00	22	12.72	42.02	1324.52	ND	ND	2.8	266.1	25.5	61.3	211.2	0
6954	2010-11-13T17:00:00	16	12.62	34.69	1227.86	ND	ND	3.2	274.1	25.1	61.4	129.5	0
6955	2010-11-13T18:00:00	10	11.17	46.24	1592.93	ND	ND	2.5	279.8	24.4	62.8	26.5	0
6956	2010-11-13T19:00:00	7	10.30	26.20	1406.26	ND	ND	1.9	266.6	23.8	65.5	0	0
6957	2010-11-13T20:00:00	4	9.63	26.37	1437.65	ND	ND	2.9	271.6	23.5	65.8	0	0
6958	2010-11-13T21:00:00	14	10.61	38.83	1755.35	ND	ND	0.7	324.5	23.3	69.5	0	0
6959	2010-11-13T22:00:00	33	9.01	23.86	1059.34	ND	ND	0.3	280.8	23.1	68.1	0	0
6960	2010-11-13T23:00:00	26	11.74	31.91	1502.56	ND	ND	2.6	202.4	22	78.4	0	0
6961	2010-11-14T00:00:00	21	14.73	36.80	1599.04	ND	ND	2.1	181.9	20.8	85.1	0	0
6962	2010-11-14T01:00:00	14	9.84	31.88	1219.82	ND	ND	1.8	147.6	20	91.1	0	0
6963	2010-11-14T02:00:00	8	8.35	20.31	743.41	ND	ND	1.6	170.7	19.3	92.4	0	2.54
6964	2010-11-14T03:00:00	6	7.43	20.12	898.96	ND	ND	1.1	175.4	19.1	95.6	0	6.1
6965	2010-11-14T04:00:00	4	7.65	10.87	482.86	ND	ND	0.5	182.7	19.1	95.1	0	6.1
6966	2010-11-14T05:00:00	3	7.32	14.40	550.23	ND	ND	0.2	165.3	19	94.2	0	2.54
6967	2010-11-14T06:00:00	4	7.16	24.10	886.81	ND	ND	0.4	125	19.1	94.8	0	2.03
6968	2010-11-14T07:00:00	3	6.83	28.89	988.17	ND	ND	0.5	114.2	19.1	95.9	7.8	1.52
6969	2010-11-14T08:00:00	2	7.71	35.00	1268.91	ND	ND	0.4	61.3	19.1	95.8	43.3	1.02
6970	2010-11-14T09:00:00	15	8.68	40.43	1560.87	ND	ND	0.9	72.6	19.5	95.3	104.7	0.51
6971	2010-11-14T10:00:00	19	9.36	43.15	1383.09	ND	ND	1	80	20	92.4	177.2	0.25
6972	2010-11-14T11:00:00	16	14.38	47.98	1610.73	ND	ND	0.8	74.2	20.4	88.4	174.9	0.25
6973	2010-11-14T12:00:00	10	22.68	40.13	1443.74	ND	ND	0.4	90.8	21	86.7	283.4	0.51
6974	2010-11-14T13:00:00	11	20.63	41.90	1469.30	ND	ND	0.6	162	23.2	73.5	833.3	0.25
6975	2010-11-14T14:00:00	7	19.38	46.45	1457.52	ND	ND	0.7	115.8	25	63.7	695.5	0
6976	2010-11-14T15:00:00	5	22.61	31.15	1145.61	ND	ND	0.3	71.9	25.6	60.8	286.8	0
6977	2010-11-14T16:00:00	8	17.51	28.78	1205.31	ND	ND	0.8	104	25.6	60.2	160.4	0
6978	2010-11-14T17:00:00	24	15.25	33.06	1297.14	ND	ND	1.3	202.6	24.8	66	76.2	0
6979	2010-11-14T18:00:00	14	15.32	61.64	1534.08	ND	ND	1.8	286.9	24.2	61.1	7.5	0
6980	2010-11-14T19:00:00	8	12.99	33.90	1268.21	ND	ND	0.5	279.6	23.7	64.6	0	0
6981	2010-11-14T20:00:00	8	8.84	18.13	1015.14	ND	ND	0.4	74.3	22.5	77.8	0	0
6982	2010-11-14T21:00:00	11	9.41	28.31	1170.08	ND	ND	0.5	54.1	22.1	79.7	0	0
6983	2010-11-14T22:00:00	7	12.43	54.83	1973.96	ND	ND	0.6	40.6	21.5	84	0	0
6984	2010-11-14T23:00:00	24	15.02	40.17	1992.59	ND	ND	0.2	94.1	21.5	82.8	0	0
6985	2010-11-15T00:00:00	13	18.57	33.17	1913.34	ND	ND	0.2	144.2	21.1	83.5	0	0
6986	2010-11-15T01:00:00	72	23.35	30.48	1662.00	ND	ND	1.2	178.7	21	85.4	0	0
6987	2010-11-15T02:00:00	38	24.17	26.70	1288.46	ND	ND	1.3	177.3	20.6	88.2	0	0
6988	2010-11-15T03:00:00	23	17.06	26.33	1185.13	ND	ND	0.6	160	20.2	90.1	0	0
6989	2010-11-15T04:00:00	12	12.84	16.62	946.81	ND	ND	0.5	143.6	20.1	89.9	0	0
6990	2010-11-15T05:00:00	6	10.33	15.41	901.42	ND	ND	0.4	149.8	20.2	88.4	0	2.29
6991	2010-11-15T06:00:00	5	9.77	16.60	1003.17	ND	ND	0.2	203.2	19.3	94.5	0	13.46
6992	2010-11-15T07:00:00	13	9.05	13.80	696.69	ND	ND	0.3	130.6	19.4	95.2	4.7	0.25
6993	2010-11-15T08:00:00	9	8.46	11.59	753.13	ND	ND	0.4	68.2	19.6	94.7	41.8	2.54
6994	2010-11-15T09:00:00	7	9.54	21.06	1327.32	ND	ND	0.7	111.6	20.3	91	130.8	0
6995	2010-11-15T10:00:00	5	10.47	30.86	1454.53	ND	ND	0.9	120.7	21.1	87.3	226	0.25
6996	2010-11-15T11:00:00	4	17.58	35.69	1413.27	ND	ND	0.9	155	21.9	82.3	247.4	0
6997	2010-11-15T12:00:00	3	26.37	38.08	1337.75	ND	ND	1.1	164.9	22.6	79.2	291.6	0
6998	2010-11-15T13:00:00	17	29.11	37.87	1227.29	ND	ND	1.9	192.7	23.8	73.9	550	0
6999	2010-11-15T14:00:00	10	26.72	30.58	1072.53	ND	ND	2.3	179.7	24.6	70.4	473.5	0
7000	2010-11-15T15:00:00	25	19.76	23.79	858.05	ND	ND	1	122.4	23	77.6	51.8	6.1
7001	2010-11-15T16:00:00	35	19.03	27.63	967.23	ND	ND	1.4	61.9	20.6	92.2	27.4	2.79
7002	2010-11-15T17:00:00	28	25.76	45.72	1207.70	ND	ND	0.9	51.3	19.5	94.2	29.9	4.32
7003	2010-11-15T18:00:00	15	11.60	46.12	1191.93	ND	ND	1.2	358.1	19.9	93.8	10.2	0.25
7004	2010-11-15T19:00:00	19	12.80	43.98	1069.70	ND	ND	0.9	20.5	20.1	93.1	0	0
7005	2010-11-15T20:00:00	10	12.68	52.76	969.02	ND	ND	0.8	12.1	20	93.5	0	0.25
7006	2010-11-15T21:00:00	34	41.17	62.31	1700.84	ND	ND	0.1	172.2	20.1	92.9	0	0
7007	2010-11-15T22:00:00	24	72.99	60.15	2061.99	ND	ND	0.6	163.3	20.3	93.8	0	0
7008	2010-11-15T23:00:00	56	52.40	57.73	2142.32	ND	ND	0.9	187.3	20.2	93.2	0	0
7009	2010-11-16T00:00:00	28	47.75	59.91	2964.42	ND	ND	0.7	112.9	20	93.7	0	0
7010	2010-11-16T01:00:00	24	36.38	47.18	2286.56	ND	ND	1.1	182.6	19.8	95	0	0
7011	2010-11-16T02:00:00	13	20.00	32.64	1699.68	ND	ND	0.7	200.3	19.7	95	0	0.51
7012	2010-11-16T03:00:00	13	13.64	25.46	1181.49	ND	ND	0.5	156.5	19.6	95.4	0	0.51
7013	2010-11-16T04:00:00	6	11.32	17.14	989.87	ND	ND	1	131.4	19.3	96.1	0	6.6
7014	2010-11-16T05:00:00	3	10.56	19.67	1101.22	ND	ND	0.4	155.5	18.9	96.4	0	0.51
7015	2010-11-16T06:00:00	2	9.88	20.00	897.73	ND	ND	0.3	165.9	19	95.3	0	0
7016	2010-11-16T07:00:00	2	9.35	18.44	931.71	ND	ND	0.3	206.6	19.4	92.2	18	0.25
7017	2010-11-16T08:00:00	2	10.41	28.59	1382.62	ND	ND	0.7	194	20	89.1	79.4	0
7018	2010-11-16T09:00:00	4	11.52	39.85	1498.09	ND	ND	0.9	184.6	21.2	83.5	277	0
7019	2010-11-16T10:00:00	4	14.51	51.64	3370.38	ND	ND	1.1	148.7	22.6	77.9	388.6	0
7020	2010-11-16T11:00:00	37	17.36	61.02	2125.03	ND	ND	0.6	145.3	24.1	69.5	558.8	0
7021	2010-11-16T12:00:00	26	22.23	64.74	1816.01	ND	ND	0.7	76.4	25.1	64.1	398.7	0
7022	2010-11-16T13:00:00	25	23.75	39.75	1340.81	ND	ND	0.5	62	25.8	61.6	599.3	0
7023	2010-11-16T14:00:00	14	17.81	55.20	1401.39	ND	ND	1.2	67.5	26.6	59.1	321.2	0
7024	2010-11-16T15:00:00	34	23.71	52.43	1313.00	ND	ND	0.7	29.1	25.7	62.1	92.3	0
7025	2010-11-16T16:00:00	40	28.97	74.85	1630.58	ND	ND	2	207	24	73.5	149.9	0
7026	2010-11-16T17:00:00	47	32.77	90.44	1929.58	ND	ND	0.6	214	23.9	73.7	52.9	5.33
7027	2010-11-16T18:00:00	49	27.25	101.78	2602.34	ND	ND	1.1	171.7	20.3	91.8	0.1	17.27
7028	2010-11-16T19:00:00	45	25.89	104.96	2548.24	ND	ND	1.3	247.6	21.3	86.3	0	0.25
7029	2010-11-16T20:00:00	35	19.25	81.04	3247.07	ND	ND	0.7	243.8	21.9	83.5	0	0
7030	2010-11-16T21:00:00	42	16.05	64.41	3185.67	ND	ND	0.9	40.7	21.2	86.1	0	0
7031	2010-11-16T22:00:00	35	13.17	46.82	2194.14	ND	ND	0.1	72.7	21.1	87.4	0	0
7032	2010-11-16T23:00:00	34	18.05	48.35	2498.66	ND	ND	0.1	159.6	21	89.2	0	0.51
7033	2010-11-17T00:00:00	26	26.34	58.33	2441.30	ND	ND	0.8	141.1	20.6	93.2	0	0.76
7034	2010-11-17T01:00:00	51	24.94	56.50	2900.74	ND	ND	1.6	60.3	19.9	96.6	0	7.11
7035	2010-11-17T02:00:00	26	19.52	54.81	2781.22	ND	ND	1.8	48.1	19.5	96.9	0	3.3
7036	2010-11-17T03:00:00	15	13.86	27.55	854.59	ND	ND	1.9	35.1	19.4	96.5	0	0.76
7037	2010-11-17T04:00:00	8	13.99	17.52	505.84	ND	ND	0.6	57.9	19.2	96	0	2.54
7038	2010-11-17T05:00:00	6	15.16	11.06	483.02	ND	ND	1	132.3	19.1	96.4	0	1.52
7039	2010-11-17T06:00:00	3	15.08	15.19	527.78	ND	ND	0.7	144.1	18.9	96.7	0	1.52
7040	2010-11-17T07:00:00	3	14.22	13.08	684.52	ND	ND	0.4	161.4	19	96.2	16.4	0.51
7041	2010-11-17T08:00:00	3	12.30	26.02	1043.96	ND	ND	1	192.4	19.5	93.2	108.5	0.51
7042	2010-11-17T09:00:00	16	12.86	35.44	1495.54	ND	ND	0.7	153.9	20.3	89.2	156.3	0
7043	2010-11-17T10:00:00	9	14.55	40.67	1939.37	ND	ND	0.7	136.3	21.3	83.2	337.1	0
7044	2010-11-17T11:00:00	8	18.63	60.88	2522.98	ND	ND	0.8	102.3	22.8	74.5	433.8	0
7045	2010-11-17T12:00:00	6	16.80	46.70	1455.55	ND	ND	0.9	108.2	22.8	74	220.1	0
7046	2010-11-17T13:00:00	29	14.25	53.69	1421.44	ND	ND	1	153.3	23.5	71.6	494.1	0
7047	2010-11-17T14:00:00	16	15.90	80.92	2211.29	ND	ND	0.6	144.5	24	68.1	328.9	0
7048	2010-11-17T15:00:00	16	14.44	48.82	1370.12	ND	ND	0.8	122	24.5	65.4	277.4	0
7049	2010-11-17T16:00:00	ND	16.43	48.53	1395.30	ND	ND	0.9	98.3	23.9	68.1	108.3	0
7050	2010-11-17T17:00:00	ND	ND	ND	ND	ND	ND	0.8	83.8	23.4	70.5	55	0
7051	2010-11-17T18:00:00	30	12.30	96.98	2244.73	ND	ND	0.3	69.9	23.2	70.2	5.7	0
7052	2010-11-17T19:00:00	34	11.82	80.97	2243.21	ND	ND	0.6	264.4	22.7	73.3	0	0
7053	2010-11-17T20:00:00	53	12.97	79.30	2489.52	ND	ND	0.8	251.1	22.1	75.5	0	0
7054	2010-11-17T21:00:00	31	16.30	56.57	2302.95	ND	ND	0.9	272.3	22	73.9	0	0
7055	2010-11-17T22:00:00	47	11.18	37.51	2245.47	ND	ND	0.8	270.9	21.3	81.3	0	0
7056	2010-11-17T23:00:00	30	8.59	30.50	1323.72	ND	ND	0.6	239.6	21	82.6	0	0
7057	2010-11-18T00:00:00	37	7.68	33.13	1785.76	ND	ND	0.4	210.8	21	84.6	0	0
7058	2010-11-18T01:00:00	20	21.56	24.81	1231.95	ND	ND	0.4	228.8	20.8	86.3	0	0
7059	2010-11-18T02:00:00	18	8.83	29.25	1400.53	ND	ND	0.1	217.7	20.7	84.5	0	0
7060	2010-11-18T03:00:00	11	6.17	25.41	1298.44	ND	ND	0.4	114.4	20.4	90.5	0	0
7061	2010-11-18T04:00:00	23	5.70	20.88	913.62	ND	ND	0.3	52	20.2	91.3	0	0
7062	2010-11-18T05:00:00	20	4.77	18.31	450.86	ND	ND	0.5	2.7	20.2	90	0	0
7063	2010-11-18T06:00:00	22	4.95	18.55	1003.17	ND	ND	0.1	68.1	20.2	88.5	0	0
7064	2010-11-18T07:00:00	39	6.55	17.92	958.08	ND	ND	0.6	125.4	20.2	91.2	12.7	0
7065	2010-11-18T08:00:00	59	9.44	25.13	1115.88	ND	ND	0.3	141.3	20.4	89.7	40.5	0
7066	2010-11-18T09:00:00	33	10.63	32.17	2120.50	ND	ND	0.5	203.2	21.2	82.7	141.3	0
7067	2010-11-18T10:00:00	38	10.68	39.49	2759.64	ND	ND	0.2	103.9	23	72.9	451.7	0
7068	2010-11-18T11:00:00	41	12.00	52.63	2423.77	ND	ND	0.3	335.6	25.1	63.5	514.1	0
7069	2010-11-18T12:00:00	46	10.83	86.61	2074.25	ND	ND	0.8	31.1	25.7	59.8	403.2	0
7070	2010-11-18T13:00:00	35	15.34	85.84	1848.76	ND	ND	1	10.6	27.4	53.9	557.9	0
7071	2010-11-18T14:00:00	25	17.88	72.30	1789.99	ND	ND	1.4	338.6	27.8	51.6	584.3	0
7072	2010-11-18T15:00:00	15	18.17	56.24	1457.03	ND	ND	1.5	297	28.2	48.8	444.2	0
7073	2010-11-18T16:00:00	9	15.25	29.37	1169.49	ND	ND	3.9	281	27.9	49	525.1	0
7074	2010-11-18T17:00:00	6	14.76	23.13	1249.30	ND	ND	3.8	280.8	27	51.6	327.5	0
7075	2010-11-18T18:00:00	15	7.52	17.39	1234.03	ND	ND	3.4	265.6	25.4	56.6	21.9	0
7076	2010-11-18T19:00:00	9	7.01	19.99	1342.16	ND	ND	2.2	264.6	24.7	60	0	0
7077	2010-11-18T20:00:00	21	8.01	26.62	1476.35	ND	ND	0.8	120.3	22.9	76.5	0	0
7078	2010-11-18T21:00:00	16	7.94	34.30	1592.55	ND	ND	1.1	200.7	21.3	87.6	0	1.78
7079	2010-11-18T22:00:00	10	12.52	34.11	1697.08	ND	ND	1.1	173.6	20.8	90.6	0	0.25
7080	2010-11-18T23:00:00	7	9.33	39.35	1445.71	ND	ND	1	167	20.7	90.5	0	0
7081	2010-11-19T00:00:00	4	6.92	41.77	1614.58	ND	ND	1.2	182.7	20.6	88.1	0	0
7082	2010-11-19T01:00:00	4	6.71	35.18	1354.43	ND	ND	0.7	185.3	20.4	85.3	0	0.25
7083	2010-11-19T02:00:00	3	5.99	31.64	970.01	ND	ND	0.5	162.2	20.4	86.1	0	0
7084	2010-11-19T03:00:00	5	5.57	17.88	665.47	ND	ND	0.4	166.3	20.2	88.4	0	0
7085	2010-11-19T04:00:00	13	5.49	28.96	958.08	ND	ND	0.5	134.7	20.1	88.7	0	0
7086	2010-11-19T05:00:00	8	5.23	15.49	676.06	ND	ND	0.6	153.3	20	90.2	0	0
7087	2010-11-19T06:00:00	8	4.87	13.81	720.89	ND	ND	0.3	182.5	20.1	90.3	0	0
7088	2010-11-19T07:00:00	6	4.72	12.24	698.60	ND	ND	1.4	149.7	19.9	91.8	6.2	0
7089	2010-11-19T08:00:00	14	4.69	18.94	979.62	ND	ND	1	188.5	19.8	90.8	76.1	1.02
7090	2010-11-19T09:00:00	9	5.97	32.51	1755.96	ND	ND	1.5	185.2	21.3	81.1	259.1	0
7091	2010-11-19T10:00:00	6	6.62	51.11	1991.23	ND	ND	1.3	168.9	22.7	72.3	480.2	0
7092	2010-11-19T11:00:00	4	9.46	53.26	2228.06	ND	ND	1.1	163.9	25.1	61.1	744.8	0
7093	2010-11-19T12:00:00	2	9.02	33.29	1134.53	ND	ND	0.9	151.8	26.3	56.2	746.2	0
7094	2010-11-19T13:00:00	2	7.13	27.39	1024.04	ND	ND	0.8	174.7	26.6	53.3	451.2	0
7095	2010-11-19T14:00:00	3	7.09	33.33	1186.31	ND	ND	2.4	291.4	26.4	54.7	409.9	0
7096	2010-11-19T15:00:00	2	8.42	39.45	1369.68	ND	ND	3.4	291.6	26.2	54.6	464.6	0
7097	2010-11-19T16:00:00	2	6.08	28.44	1253.74	ND	ND	3.2	288.3	26.2	53.8	366.6	0
7098	2010-11-19T17:00:00	2	6.52	17.44	1081.21	ND	ND	3.7	281.3	24.7	54.6	79.6	0
7099	2010-11-19T18:00:00	10	7.04	20.23	846.90	ND	ND	2.7	206.7	22.8	68.8	1.2	0
7100	2010-11-19T19:00:00	37	7.26	23.82	1068.92	ND	ND	2	160.8	20.7	82.3	0	0
7101	2010-11-19T20:00:00	32	8.63	30.89	1343.60	ND	ND	1.8	189.1	20.2	83.5	0	0
7102	2010-11-19T21:00:00	17	10.93	47.33	2051.42	ND	ND	0.2	101.1	20.2	82.7	0	0
7103	2010-11-19T22:00:00	17	9.46	34.43	991.90	ND	ND	0.2	284.9	20.5	83.3	0	0
7104	2010-11-19T23:00:00	10	6.37	48.92	1500.65	ND	ND	0.9	166.9	20.2	88.6	0	0.76
7105	2010-11-20T00:00:00	7	8.97	52.02	1803.45	ND	ND	0.7	141.5	19.4	94.5	0	0.51
7106	2010-11-20T01:00:00	5	7.97	39.47	1899.69	ND	ND	0.7	102.2	19.1	94.5	0	0
7107	2010-11-20T02:00:00	27	6.63	24.65	1358.74	ND	ND	1.3	1.6	19	94	0	0
7108	2010-11-20T03:00:00	15	5.21	21.80	898.03	ND	ND	1.4	14.7	19	92.8	0	0.25
7109	2010-11-20T04:00:00	30	6.14	26.46	808.23	ND	ND	0.5	14.9	19.3	89.7	0	0
7110	2010-11-20T05:00:00	43	16.11	34.47	685.45	ND	ND	0.2	138.4	19.5	89.6	0	0
7111	2010-11-20T06:00:00	35	53.68	36.47	978.28	ND	ND	0.8	165.9	19.3	91.3	0	0
7112	2010-11-20T07:00:00	26	59.11	36.60	1078.75	ND	ND	0.9	183.7	19.4	92.1	16.2	0
7113	2010-11-20T08:00:00	48	39.13	32.40	1146.56	ND	ND	0.8	159	20.2	87.2	116.4	0
7114	2010-11-20T09:00:00	30	24.75	33.04	1420.21	ND	ND	1.2	155.7	22.1	75.7	449.7	0
7115	2010-11-20T10:00:00	22	37.62	50.45	2257.57	ND	ND	1.3	155.3	23.7	69.9	585.1	0
7116	2010-11-20T11:00:00	13	36.00	47.33	1699.51	ND	ND	1	131.1	25	61.7	616.7	0
7117	2010-11-20T12:00:00	25	19.94	39.57	1477.83	ND	ND	0.9	62.6	25.7	59.3	494.4	0
7118	2010-11-20T13:00:00	22	14.52	41.59	1366.48	ND	ND	0.2	54.5	26.7	55.7	622.7	0
7119	2010-11-20T14:00:00	32	14.65	51.37	1463.22	ND	ND	1.9	10.1	27.6	53.1	481.3	0
7120	2010-11-20T15:00:00	16	13.74	47.38	1467.62	ND	ND	2.2	11.9	27.8	51.9	489.8	0
7121	2010-11-20T16:00:00	26	20.87	50.48	1248.88	ND	ND	2.7	19.9	27.2	52.8	124	0
7122	2010-11-20T17:00:00	16	34.26	50.01	1154.06	ND	ND	2.1	49.9	26.5	58.1	113.6	0
7123	2010-11-20T18:00:00	39	22.81	45.47	1312.57	ND	ND	0.1	347.2	25.9	58.2	15.4	0
7124	2010-11-20T19:00:00	21	21.97	62.78	1666.15	ND	ND	2.7	264.7	24.7	59.4	0	0
7125	2010-11-20T20:00:00	12	22.83	45.03	1705.24	ND	ND	1.7	267.7	24.4	61.3	0	0
7126	2010-11-20T21:00:00	7	10.15	24.94	1520.59	ND	ND	0.9	266.1	24.2	62.9	0	0
7127	2010-11-20T22:00:00	7	9.54	30.34	1610.97	ND	ND	1.1	72.4	22.8	76	0	0
7128	2010-11-20T23:00:00	7	8.69	29.22	1523.78	ND	ND	0.4	358.5	21.8	82.9	0	0
7129	2010-11-21T00:00:00	20	10.94	33.80	1983.28	ND	ND	0.8	202.2	22	80.9	0	0
7130	2010-11-21T01:00:00	16	12.68	28.53	1428.93	ND	ND	0.8	187.8	21.8	81.6	0	0
7131	2010-11-21T02:00:00	21	17.68	31.25	1586.63	ND	ND	0.6	143	21.4	83.6	0	0
7132	2010-11-21T03:00:00	12	13.10	30.87	1392.07	ND	ND	0.6	155.8	21.2	84	0	0
7133	2010-11-21T04:00:00	23	10.92	28.15	1097.07	ND	ND	0.9	164.6	20.9	86.9	0	0
7134	2010-11-21T05:00:00	13	14.57	22.62	757.00	ND	ND	1.2	147.5	20.2	88.5	0	0
7135	2010-11-21T06:00:00	8	11.14	20.20	789.01	ND	ND	1.2	178.4	19.9	88.6	0	3.05
7136	2010-11-21T07:00:00	6	8.14	16.12	686.86	ND	ND	0.8	233.4	19.9	89.2	31.2	0
7137	2010-11-21T08:00:00	4	7.47	15.05	608.04	ND	ND	0.3	315.6	20.6	85.5	52.6	0.51
7138	2010-11-21T09:00:00	4	6.35	14.10	553.06	ND	ND	0.6	33.5	20.4	90.5	106.4	0.25
7139	2010-11-21T10:00:00	3	7.09	24.22	699.31	ND	ND	0.5	134	21.6	84.9	318.6	0
7140	2010-11-21T11:00:00	2	7.98	40.22	1143.86	ND	ND	0.6	126.2	24.2	70.9	642.6	0
7141	2010-11-21T12:00:00	1	10.17	51.84	1405.31	ND	ND	0.7	193.5	26	60.6	737.1	0
7142	2010-11-21T13:00:00	3	9.89	36.15	1114.97	ND	ND	1.2	162.9	27.2	56.5	642.2	0
7143	2010-11-21T14:00:00	4	9.21	19.75	900.17	ND	ND	1.5	314	26.4	55.5	182.4	0
7144	2010-11-21T15:00:00	2	9.00	28.61	955.32	ND	ND	0.8	166.5	27.8	51.2	594.5	0
7145	2010-11-21T16:00:00	1	7.41	12.70	786.33	ND	ND	2.2	251.7	27.1	54.4	166.6	0
7146	2010-11-21T17:00:00	10	6.81	18.91	1026.78	ND	ND	3.6	247.6	22	82.7	0.9	32.77
7147	2010-11-21T18:00:00	12	6.80	11.93	941.28	ND	ND	1.8	248.9	20.3	92.9	0	67.31
7148	2010-11-21T19:00:00	6	6.45	7.73	913.31	ND	ND	1.5	349.8	19.5	98.7	0	24.89
7149	2010-11-21T20:00:00	4	6.20	16.21	989.53	ND	ND	1.3	356.1	19.6	97.4	0	9.65
7150	2010-11-21T21:00:00	3	5.89	26.87	1136.10	ND	ND	1.6	25.4	19.7	96.5	0	8.64
7151	2010-11-21T22:00:00	3	6.59	36.78	1327.77	ND	ND	1.8	26.1	19.2	97	0	8.13
7152	2010-11-21T23:00:00	3	12.38	37.30	1370.44	ND	ND	1.1	37.9	19.1	96.1	0	0.25
7153	2010-11-22T00:00:00	2	21.21	34.67	1021.86	ND	ND	0.3	61.4	19.1	94.5	0	0
7154	2010-11-22T01:00:00	1	21.96	29.30	774.82	ND	ND	0.4	107	19.2	93.5	0	0.25
7155	2010-11-22T02:00:00	ND	16.16	26.85	718.92	ND	ND	0.1	158.8	19.3	93.3	0	0
7156	2010-11-22T03:00:00	2	15.34	30.52	943.90	ND	ND	0.5	179.9	19.4	94.6	0	0
7157	2010-11-22T04:00:00	2	17.30	27.98	854.30	ND	ND	0.5	145.8	19.4	94.7	0	0
7158	2010-11-22T05:00:00	3	13.21	26.17	719.41	ND	ND	0.7	170.2	19.3	95.6	0	0
7159	2010-11-22T06:00:00	5	11.41	20.12	943.90	ND	ND	0.8	165.7	19.2	95.6	0	0
7160	2010-11-22T07:00:00	ND	10.07	18.38	1022.21	ND	ND	0.3	204.4	19.4	94.3	17.7	0
7161	2010-11-22T08:00:00	30	9.69	19.66	1079.12	ND	ND	0.8	75.2	20.1	90.7	115.5	0
7162	2010-11-22T09:00:00	26	9.41	19.56	1521.14	ND	ND	1.6	53	20	90.8	41.6	0
7163	2010-11-22T10:00:00	46	13.76	37.39	2455.52	ND	ND	1.8	10.8	21.1	85	426.8	0
7164	2010-11-22T11:00:00	26	14.69	38.68	2136.86	ND	ND	1.5	35.1	23.8	71.4	646.8	0
7165	2010-11-22T12:00:00	27	52.51	44.08	1608.80	ND	ND	0.9	77	24.7	66.6	382.3	0
7166	2010-11-22T13:00:00	14	85.91	54.06	1613.68	ND	ND	0.6	119.5	25.9	62.2	512.8	0
7167	2010-11-22T14:00:00	23	53.54	58.20	1631.68	ND	ND	0.6	83.1	26	61.6	271.5	0
7168	2010-11-22T15:00:00	15	29.76	54.29	1425.32	ND	ND	0.3	41.7	25.8	62.6	134.9	0
7169	2010-11-22T16:00:00	14	23.01	50.44	1585.18	ND	ND	2.4	295.7	24.6	66.3	92.6	0
7170	2010-11-22T17:00:00	13	23.45	44.52	1555.93	ND	ND	2	255.3	23.1	72.1	12.2	10.92
7171	2010-11-22T18:00:00	26	16.64	48.81	1855.43	ND	ND	0.5	266.4	20.9	87.6	0.5	4.06
7172	2010-11-22T19:00:00	15	12.30	31.62	1762.56	ND	ND	0.7	215.3	21.5	85.5	0	0.76
7173	2010-11-22T20:00:00	51	13.62	41.02	2796.42	ND	ND	0.5	127.5	21	90.4	0	0
7174	2010-11-22T21:00:00	37	16.49	50.75	3887.99	ND	ND	0.9	202.1	21	89.7	0	0
7175	2010-11-22T22:00:00	37	16.18	46.92	4181.85	ND	ND	1.4	213.8	20.9	86.9	0	0.25
7176	2010-11-22T23:00:00	20	14.42	48.72	3129.67	ND	ND	0.5	187	21.2	83.5	0	0
7177	2010-11-23T00:00:00	13	10.55	59.02	2047.11	ND	ND	0.3	150.5	20.9	86.4	0	0
7178	2010-11-23T01:00:00	8	9.02	49.41	1615.68	ND	ND	0.2	303.8	20.7	88.5	0	0
7179	2010-11-23T02:00:00	30	8.99	57.77	1942.01	ND	ND	0.4	87.4	20.4	90.5	0	0
7180	2010-11-23T03:00:00	15	8.90	48.21	2030.26	ND	ND	0.1	229.4	20.2	91.7	0	0
7181	2010-11-23T04:00:00	17	8.61	38.47	1487.84	ND	ND	0.2	198.2	20.3	86.4	0	0
7182	2010-11-23T05:00:00	10	7.40	28.90	1364.32	ND	ND	0.5	230.4	20.2	88.5	0	0
7183	2010-11-23T06:00:00	18	8.10	18.86	924.27	ND	ND	0.6	203.3	20.1	89.7	0	0
7184	2010-11-23T07:00:00	18	7.71	19.49	1025.36	ND	ND	0.5	213.9	20	90.8	9.8	0
7185	2010-11-23T08:00:00	33	8.24	21.50	1374.19	ND	ND	0.3	194.2	20.6	86.5	85.1	0
7186	2010-11-23T09:00:00	23	8.18	35.13	1343.14	ND	ND	0.6	190.8	21.8	80.7	293.8	0
7187	2010-11-23T10:00:00	32	10.84	43.00	1767.96	ND	ND	1.3	150.4	23.3	74.5	488.3	0
7188	2010-11-23T11:00:00	16	14.90	65.34	2243.97	ND	ND	1	137.9	24.2	69.3	557.8	0
7189	2010-11-23T12:00:00	8	16.78	49.01	1496.72	ND	ND	0.4	91.7	26.1	60.6	731.7	0
7190	2010-11-23T13:00:00	5	16.62	41.85	1172.83	ND	ND	2	301.3	26	61.8	646.4	0
7191	2010-11-23T14:00:00	11	16.41	44.92	1321.87	ND	ND	1.3	260.4	27.8	50.5	818.4	0
7192	2010-11-23T15:00:00	6	17.61	48.97	1318.26	ND	ND	1.7	330.8	28.1	50.7	583.9	0
7193	2010-11-23T16:00:00	8	11.86	37.11	914.44	ND	ND	2.1	338.1	27.9	49.5	466.1	0
7194	2010-11-23T17:00:00	5	12.30	32.75	960.11	ND	ND	3	284.8	26.6	54.7	267.2	0
7195	2010-11-23T18:00:00	9	21.13	30.92	1048.10	ND	ND	2.7	276.3	24.9	60.3	28.7	0
7196	2010-11-23T19:00:00	5	10.74	23.76	1259.75	ND	ND	2.8	258.8	24.3	60.4	0	0
7197	2010-11-23T20:00:00	18	10.46	31.44	1314.35	ND	ND	2	229.4	23.8	65.2	0	0
7198	2010-11-23T21:00:00	10	9.45	31.05	1095.35	ND	ND	2	175.6	22.6	77	0	0
7199	2010-11-23T22:00:00	13	8.99	27.87	1261.38	ND	ND	2.2	183.1	21.6	83	0	0
7200	2010-11-23T23:00:00	8	9.30	67.51	1812.06	ND	ND	1.8	200.8	20.7	89.2	0	0
7201	2010-11-24T00:00:00	6	8.42	49.97	1648.45	ND	ND	0.8	160.1	20.5	89.4	0	1.27
7202	2010-11-24T01:00:00	4	6.99	31.85	1410.38	ND	ND	0.7	145.6	19.9	93.3	0	3.05
7203	2010-11-24T02:00:00	3	6.54	29.93	1114.74	ND	ND	1.5	136.3	19.6	95.1	0	2.29
7204	2010-11-24T03:00:00	3	6.02	18.25	1158.59	ND	ND	1.2	168.5	19.4	95.9	0	2.29
7205	2010-11-24T04:00:00	2	6.56	7.41	1090.36	ND	ND	0.5	144.5	19.1	95.6	0	2.54
7206	2010-11-24T05:00:00	1	6.22	5.17	875.88	ND	ND	0.1	247.6	19	94.9	0	0.76
7207	2010-11-24T06:00:00	ND	6.14	3.52	898.03	ND	ND	1.4	260.3	19.5	92	0	0
7208	2010-11-24T07:00:00	1	6.82	5.80	967.04	ND	ND	0.7	248.3	20	88	28.6	0.25
7209	2010-11-24T08:00:00	2	7.50	12.48	1036.27	ND	ND	0.7	178.8	21.1	83.2	238.2	0
7210	2010-11-24T09:00:00	12	8.43	34.07	1481.11	ND	ND	1.2	127.8	21.8	80.5	264.1	0
7211	2010-11-24T10:00:00	16	10.52	59.66	2402.61	ND	ND	1	139.8	22.1	78.7	328	0
7212	2010-11-24T11:00:00	8	11.57	60.49	2121.44	ND	ND	0.8	150.9	23.7	71.8	597	0
7213	2010-11-24T12:00:00	21	ND	ND	ND	ND	ND	0.9	129.6	25.7	63.6	737.6	0
7214	2010-11-24T13:00:00	12	ND	ND	ND	ND	ND	1	131.2	26.7	58	585.9	0
7215	2010-11-24T14:00:00	7	9.20	ND	1140.62	ND	ND	0.9	38.5	26.7	57.8	378.7	0
7216	2010-11-24T15:00:00	11	8.12	ND	1129.10	ND	ND	1.2	348	26.4	59.8	158.7	0
7217	2010-11-24T16:00:00	20	9.42	51.32	1127.97	ND	ND	2.7	266.2	25.5	58.5	91.7	0
7218	2010-11-24T17:00:00	35	23.83	55.07	1296.71	ND	ND	1.2	211.4	25.5	59.5	96.8	0
7219	2010-11-24T18:00:00	68	10.68	34.19	1136.05	ND	ND	1.3	77	23.3	76.9	11.2	0
7220	2010-11-24T19:00:00	50	16.39	58.22	1458.01	ND	ND	0.8	80.4	22.8	79.4	0	0
7221	2010-11-24T20:00:00	77	12.72	73.17	2012.76	ND	ND	1	63.1	22.6	79.8	0	0
7222	2010-11-24T21:00:00	47	19.21	82.26	3136.41	ND	ND	0.9	35.2	22.5	77.5	0	0
7223	2010-11-24T22:00:00	58	23.88	76.31	2555.99	ND	ND	1	171.6	22.3	78.4	0	0
7224	2010-11-24T23:00:00	30	29.34	52.26	1952.59	ND	ND	1.1	194.1	21.3	85.7	0	0
7225	2010-11-25T00:00:00	24	27.71	50.46	2726.63	ND	ND	1.1	195.8	21.1	87.9	0	0
7226	2010-11-25T01:00:00	14	12.96	32.60	1153.23	ND	ND	0.8	193.5	20.8	88.5	0	0
7227	2010-11-25T02:00:00	8	9.61	29.41	892.27	ND	ND	0.8	173.4	20.6	90.8	0	0
7228	2010-11-25T03:00:00	5	8.42	30.06	1060.97	ND	ND	0.5	224.9	20.4	89.9	0	0
7229	2010-11-25T04:00:00	3	5.60	20.32	620.36	ND	ND	0.2	274.9	20.2	86.4	0	0
7230	2010-11-25T05:00:00	6	6.01	17.27	687.56	ND	ND	0.4	263.6	19.8	86.9	0	0
7231	2010-11-25T06:00:00	20	5.28	17.52	619.09	ND	ND	0.9	249.9	19.4	82.7	0	0
7232	2010-11-25T07:00:00	18	8.33	16.71	382.19	ND	ND	0.6	261.1	19.5	82.5	20.9	0
7233	2010-11-25T08:00:00	46	8.77	11.35	326.09	ND	ND	0.2	323.4	20.9	78.7	133.6	0
7234	2010-11-25T09:00:00	68	10.31	20.34	1039.46	ND	ND	0.9	59.5	22.3	77.8	333.8	0
7235	2010-11-25T10:00:00	50	15.68	47.07	1952.59	ND	ND	1.2	96.8	24.4	69.1	672.9	0
7236	2010-11-25T11:00:00	27	36.27	93.08	1966.48	ND	ND	1	105	26	61.1	733.4	0
7237	2010-11-25T12:00:00	18	36.10	64.29	1310.37	ND	ND	1.6	81.3	27.3	56	699.6	0
7238	2010-11-25T13:00:00	11	20.17	44.36	935.10	ND	ND	0.9	16	27.2	54.9	272.3	0
7239	2010-11-25T14:00:00	7	16.73	53.35	1119.44	ND	ND	2.3	291.5	27.5	54	621.8	0
7240	2010-11-25T15:00:00	5	12.47	34.60	912.62	ND	ND	4.2	277.1	27.7	52.7	632	0
7241	2010-11-25T16:00:00	8	15.07	25.45	855.43	ND	ND	3.5	276.8	27	55	330	0
7242	2010-11-25T17:00:00	5	9.79	17.46	761.18	ND	ND	3.3	267.5	26.4	55.8	199.8	0
7243	2010-11-25T18:00:00	19	9.11	21.65	1012.87	ND	ND	1.4	262.6	25.7	59.8	48.8	0
7244	2010-11-25T19:00:00	32	8.46	27.81	1125.33	ND	ND	0.5	118	24.6	67.2	0	0
7245	2010-11-25T20:00:00	48	9.81	38.65	1716.10	ND	ND	0.4	141.7	24.4	65.9	0	0
7246	2010-11-25T21:00:00	33	16.58	46.88	2881.12	ND	ND	2.8	194.7	23.4	71.3	0	0
7247	2010-11-25T22:00:00	31	11.73	41.70	2119.39	ND	ND	1.9	209.1	23.1	74.8	0	0
7248	2010-11-25T23:00:00	17	9.22	34.55	1274.90	ND	ND	0.6	277.4	23.3	71	0	0
7249	2010-11-26T00:00:00	36	8.00	36.74	1321.32	ND	ND	0.2	119.4	22.6	78.9	0	0
7250	2010-11-26T01:00:00	19	8.29	32.36	1227.29	ND	ND	0.8	147.6	22	82.4	0	0
7251	2010-11-26T02:00:00	21	10.40	38.11	1644.41	ND	ND	0.8	167.5	21.6	85.5	0	0
7252	2010-11-26T03:00:00	11	7.62	28.64	1121.21	ND	ND	0.3	193.5	21.5	83.5	0	0
7253	2010-11-26T04:00:00	17	7.20	23.77	905.72	ND	ND	0.4	116.8	21.5	81.5	0	0
7254	2010-11-26T05:00:00	9	7.72	26.21	973.65	ND	ND	0.6	118.6	21.3	86.9	0	0
7255	2010-11-26T06:00:00	23	7.63	24.27	1006.93	ND	ND	0.7	180	21.2	88.5	0	0
7256	2010-11-26T07:00:00	17	7.45	22.95	1029.21	ND	ND	1.1	178.4	21.1	87.3	20.7	0
7257	2010-11-26T08:00:00	35	7.76	27.60	1288.90	ND	ND	1.2	156.9	21.3	87.5	62.9	0
7258	2010-11-26T09:00:00	18	8.82	31.04	1957.29	ND	ND	1.3	147.8	22	83.5	206.2	0
7259	2010-11-26T10:00:00	35	11.26	35.37	2597.03	ND	ND	1.1	141.6	23.9	73.3	486.2	0
7260	2010-11-26T11:00:00	36	12.64	38.92	1814.79	ND	ND	1	157.7	25.8	63.9	680.5	0
7261	2010-11-26T12:00:00	41	13.22	46.08	1470.31	ND	ND	1.2	113.2	27	57.9	441.3	0
7262	2010-11-26T13:00:00	21	13.32	47.40	1418.55	ND	ND	0.8	74.7	27.1	57.8	393.6	0
7263	2010-11-26T14:00:00	33	12.27	61.78	1049.85	ND	ND	0.1	168.4	28.1	54.2	596.3	0
7264	2010-11-26T15:00:00	33	14.22	63.24	1354.30	ND	ND	0.5	151.8	28.2	55.5	245.9	5.33
7265	2010-11-26T16:00:00	40	13.85	39.04	822.12	ND	ND	1.8	267.2	24.8	76	48.6	8.38
7266	2010-11-26T17:00:00	21	12.12	65.31	835.73	ND	ND	2.3	281.8	22.7	81.2	14.6	24.64
7267	2010-11-26T18:00:00	41	11.21	85.24	1364.12	ND	ND	1.2	249.2	23.5	76	1.6	0
7268	2010-11-26T19:00:00	38	10.48	51.48	1527.39	ND	ND	1.6	264.5	23.3	74.5	0	0
7269	2010-11-26T20:00:00	25	12.17	49.78	2745.16	ND	ND	0.9	294.7	23.5	72.1	0	0
7270	2010-11-26T21:00:00	35	11.94	38.04	2222.69	ND	ND	0.9	237.8	22.7	77.5	0	0
7271	2010-11-26T22:00:00	38	12.06	38.13	1864.30	ND	ND	0.4	244.9	22.5	80.3	0	0
7272	2010-11-26T23:00:00	42	11.77	44.73	2158.39	ND	ND	0.2	115	22.7	79.4	0	0
7273	2010-11-27T00:00:00	68	12.22	53.67	2750.97	ND	ND	0.5	95.4	22.1	83.7	0	0
7274	2010-11-27T01:00:00	47	11.11	47.54	2768.08	ND	ND	0.8	172.2	21.2	85.7	0	0
7275	2010-11-27T02:00:00	45	13.12	59.76	3268.59	ND	ND	0.3	111.8	21	86.1	0	0
7276	2010-11-27T03:00:00	24	9.93	46.55	1638.83	ND	ND	0	209.8	21.1	85	0	0
7277	2010-11-27T04:00:00	24	6.18	47.19	1379.35	ND	ND	0.3	221.7	21.1	84.6	0	0
7278	2010-11-27T05:00:00	26	7.16	39.61	893.19	ND	ND	0.7	57.1	20.7	87.7	0	0
7279	2010-11-27T06:00:00	50	10.69	43.94	1512.96	ND	ND	0.5	49.9	20.3	89.5	0	0
7280	2010-11-27T07:00:00	66	10.19	28.12	1398.15	ND	ND	0.4	3.7	20.7	87.1	25.5	0
7281	2010-11-27T08:00:00	61	13.82	28.10	1433.93	ND	ND	0.2	259.1	21.6	80.1	81.6	0
7282	2010-11-27T09:00:00	81	20.13	40.78	2061.22	ND	ND	0.8	70.3	22.2	79.3	143.4	0
7283	2010-11-27T10:00:00	90	27.98	43.73	1906.54	ND	ND	1.1	155	23.1	75.3	250.9	0
7284	2010-11-27T11:00:00	61	27.36	80.34	2868.52	ND	ND	1	156.4	24	71.3	358.4	0
7285	2010-11-27T12:00:00	77	23.50	57.57	1861.07	ND	ND	0.6	130.4	25.2	65.2	476.3	0
7286	2010-11-27T13:00:00	48	23.28	48.23	1501.75	ND	ND	1	182.9	26.7	60.1	703.5	0
7287	2010-11-27T14:00:00	63	19.95	58.51	1509.31	ND	ND	0.6	94.2	28.1	54.5	544.9	0
7288	2010-11-27T15:00:00	62	16.71	49.38	1389.03	ND	ND	1.2	54.4	27.6	56.8	212.1	0
7289	2010-11-27T16:00:00	59	16.31	63.78	1629.40	ND	ND	1.6	68.5	27	59.8	124.8	0
7290	2010-11-27T17:00:00	41	20.10	93.97	1879.87	ND	ND	0.9	30.3	26.3	63.1	85.6	0
7291	2010-11-27T18:00:00	48	27.84	81.95	1461.27	ND	ND	2.4	270.3	25.7	60.4	20.6	0
7292	2010-11-27T19:00:00	25	32.04	56.01	999.02	ND	ND	3	272.1	24.8	63.2	0	0
7293	2010-11-27T20:00:00	37	20.74	37.25	1018.91	ND	ND	0.3	301.3	24.5	66.6	0	0
7294	2010-11-27T21:00:00	31	10.25	30.50	823.45	ND	ND	0.4	141.3	23.8	72	0	0
7295	2010-11-27T22:00:00	49	12.16	41.40	1700.08	ND	ND	0.2	257.1	24.1	67.3	0	0
7296	2010-11-27T23:00:00	39	14.34	39.38	2067.29	ND	ND	2	183	22.8	80.8	0	0
7297	2010-11-28T00:00:00	42	12.95	35.60	1341.84	ND	ND	2.2	182	21.9	87.2	0	11.18
7298	2010-11-28T01:00:00	22	10.29	40.35	1564.49	ND	ND	0.8	206.5	21.3	90.5	0	1.27
7299	2010-11-28T02:00:00	12	8.13	31.71	724.09	ND	ND	0.4	150.9	21.2	89.5	0	0
7300	2010-11-28T03:00:00	8	7.14	30.46	735.15	ND	ND	1.1	125.3	20.3	93	0	3.81
7301	2010-11-28T04:00:00	5	7.04	30.22	575.04	ND	ND	0.8	49.8	19.9	96	0	11.68
7302	2010-11-28T05:00:00	3	6.26	21.59	326.54	ND	ND	0.7	39.2	19.3	98.2	0	33.27
7303	2010-11-28T06:00:00	3	6.50	24.90	662.98	ND	ND	0.5	37.8	19.2	99	0	9.14
7304	2010-11-28T07:00:00	3	5.91	19.58	438.09	ND	ND	1.3	50.7	19.3	98.4	22.8	3.56
7305	2010-11-28T08:00:00	2	5.96	27.62	797.82	ND	ND	1.1	75	19.5	96.3	49.1	0.51
7306	2010-11-28T09:00:00	1	6.97	29.26	1079.49	ND	ND	0.8	86.2	19.8	93.4	106.6	0.25
7307	2010-11-28T10:00:00	ND	9.01	32.31	1159.39	ND	ND	1.1	210.2	21	88.2	354.1	0
7308	2010-11-28T11:00:00	1	9.62	38.84	1265.86	ND	ND	1.6	206.1	22.1	80.6	478.9	0
7309	2010-11-28T12:00:00	2	10.33	27.72	1089.08	ND	ND	0.7	154.6	24.5	66.9	549.1	0
7310	2010-11-28T13:00:00	5	14.05	21.25	846.33	ND	ND	1.4	145.1	25.1	67.6	355.4	0
7311	2010-11-28T14:00:00	17	10.25	27.68	997.01	ND	ND	1	157.9	25.6	65.2	529.6	0
7312	2010-11-28T15:00:00	10	15.31	40.67	1274.18	ND	ND	0.5	136	26.8	59	485.8	0
7313	2010-11-28T16:00:00	7	12.52	34.54	1060.32	ND	ND	1	275.2	26.9	55.4	272.1	0
7314	2010-11-28T17:00:00	5	9.70	35.35	1072.21	ND	ND	2.7	288.4	25.9	56.2	120.8	0
7315	2010-11-28T18:00:00	12	9.33	27.20	930.74	ND	ND	0.6	69.2	23.3	76.2	11.9	1.27
7316	2010-11-28T19:00:00	8	7.43	10.71	546.75	ND	ND	0.7	210.9	22.3	84.8	0	0
7317	2010-11-28T20:00:00	6	8.36	50.32	1453.09	ND	ND	0.5	247.7	22.5	82.4	0	0
7318	2010-11-28T21:00:00	10	8.83	60.16	1556.32	ND	ND	0.9	242.3	22.5	78.5	0	0
7319	2010-11-28T22:00:00	24	8.63	62.70	1738.07	ND	ND	0.6	232.8	22.5	77.4	0	0
7320	2010-11-28T23:00:00	15	8.81	38.83	1385.92	ND	ND	0.5	115.7	21.9	87.1	0	0
7321	2010-11-29T00:00:00	21	9.23	29.58	1111.02	ND	ND	0.5	117.1	21.3	89.1	0	0
7322	2010-11-29T01:00:00	12	10.09	35.68	1844.15	ND	ND	0.3	200.4	21	88.9	0	0
7323	2010-11-29T02:00:00	8	7.50	30.59	904.18	ND	ND	0	68.9	21	85.7	0	0
7324	2010-11-29T03:00:00	5	7.13	26.87	621.63	ND	ND	0.1	233.8	20.9	88.4	0	0
7325	2010-11-29T04:00:00	19	7.80	25.26	960.37	ND	ND	0.2	166.9	20.8	88.8	0	0
7326	2010-11-29T05:00:00	11	7.23	30.43	440.49	ND	ND	0.5	63.4	20.7	90.6	0	0
7327	2010-11-29T06:00:00	23	7.77	19.81	293.56	ND	ND	0.3	10.9	20.5	91.7	0	0
7328	2010-11-29T07:00:00	15	6.81	24.11	586.72	ND	ND	0.3	57	20.8	84.8	49.7	0
7329	2010-11-29T08:00:00	55	9.40	25.98	745.44	ND	ND	0.6	78.7	21.2	88.3	79.4	0
7330	2010-11-29T09:00:00	48	12.18	24.97	1515.54	ND	ND	1.2	91.1	22.1	83.3	221.4	0
7331	2010-11-29T10:00:00	43	26.41	61.10	2881.53	ND	ND	0.9	94.3	23.2	77.2	383.9	0
7332	2010-11-29T11:00:00	30	38.47	56.74	2288.76	ND	ND	0.6	111.1	24.3	71	374.5	0
7333	2010-11-29T12:00:00	37	27.55	53.66	1428.65	ND	ND	0.7	134.1	26	63.3	528.8	0
7334	2010-11-29T13:00:00	19	20.80	53.42	1023.01	ND	ND	0.7	99.6	26.5	59.9	273.8	0
7335	2010-11-29T14:00:00	24	22.31	57.41	1036.24	ND	ND	0.8	241.7	27.4	56.3	602.7	0
7336	2010-11-29T15:00:00	13	21.79	61.51	1166.38	ND	ND	0.7	39.3	28.7	52.2	415.8	0
7337	2010-11-29T16:00:00	29	20.00	36.52	962.66	ND	ND	1.3	268.7	28.4	50.5	390.9	0
7338	2010-11-29T17:00:00	42	21.84	78.29	1135.50	ND	ND	0.7	169.5	27.5	55.5	186.7	0
7339	2010-11-29T18:00:00	55	20.13	57.22	762.44	ND	ND	1.1	92	25.1	68.1	26.1	0
7340	2010-11-29T19:00:00	51	18.27	65.55	1409.57	ND	ND	0.2	30.7	24.3	71.1	0	0
7341	2010-11-29T20:00:00	53	19.03	77.83	1702.95	ND	ND	0.8	290.6	24.4	66	0	0
7342	2010-11-29T21:00:00	67	25.60	80.96	1932.18	ND	ND	0.7	69.1	23.1	79.7	0	0
7343	2010-11-29T22:00:00	85	21.14	52.91	1479.79	ND	ND	1.2	156.1	22.6	82.1	0	0
7344	2010-11-29T23:00:00	44	18.71	80.35	2829.59	ND	ND	1.4	191.2	22.3	80.1	0	0
7345	2010-11-30T00:00:00	44	16.23	59.48	2474.80	ND	ND	0.8	170.2	22	80.5	0	0
7346	2010-11-30T01:00:00	23	12.97	53.08	1462.96	ND	ND	0.9	186.8	21.6	82.8	0	0
7347	2010-11-30T02:00:00	13	12.28	52.92	1166.51	ND	ND	0.5	187.6	21.4	80.2	0	0
7348	2010-11-30T03:00:00	7	9.89	36.08	611.15	ND	ND	0.5	177.2	21.2	83.2	0	0
7349	2010-11-30T04:00:00	23	10.06	30.64	689.91	ND	ND	0.6	136.1	21	84.1	0	0
7350	2010-11-30T05:00:00	18	8.76	28.30	372.98	ND	ND	0.5	124.8	21	83.5	0	0
7351	2010-11-30T06:00:00	50	8.97	26.29	587.72	ND	ND	0.1	34.9	21	84.9	0	0
7352	2010-11-30T07:00:00	50	10.06	22.32	474.70	ND	ND	0.2	224.9	21.1	84.3	18.4	0
7353	2010-11-30T08:00:00	58	12.72	33.14	1198.45	ND	ND	0.4	146.4	22.4	77.7	187.4	0
7354	2010-11-30T09:00:00	44	17.95	35.96	1703.42	ND	ND	1	157.6	24.4	69.7	406.7	0
7355	2010-11-30T10:00:00	62	19.38	68.79	2480.96	ND	ND	1.6	158.2	25.7	64.6	592.3	0
7356	2010-11-30T11:00:00	41	22.22	98.30	1837.28	ND	ND	1.2	119.1	26.7	60.4	688	0
7357	2010-11-30T12:00:00	58	25.38	72.57	1244.31	ND	ND	0.9	61.4	27.5	57.7	406.9	0
7358	2010-11-30T13:00:00	44	20.61	52.93	1051.25	ND	ND	0.8	28.2	27.7	56.9	419.6	0
7359	2010-11-30T14:00:00	62	17.87	67.47	1155.99	ND	ND	1.6	47.1	28.6	54	425.2	0
7360	2010-11-30T15:00:00	37	22.46	74.19	1449.31	ND	ND	1.4	321	29.2	50.1	484.7	0
7361	2010-11-30T16:00:00	36	34.60	79.23	1254.69	ND	ND	2.5	289.2	29.5	47.2	467	0
7362	2010-11-30T17:00:00	27	ND	ND	ND	ND	ND	3.9	277.5	28.3	50.4	289.2	0
7363	2010-11-30T18:00:00	33	ND	ND	ND	ND	ND	3.4	279.8	26.4	56.8	43.9	0
7364	2010-11-30T19:00:00	29	10.58	21.74	621.53	ND	ND	4.2	273.6	25.2	59.9	0	0
7365	2010-11-30T20:00:00	28	10.33	27.38	756.61	ND	ND	2.7	282.9	25.1	59.8	0	0
7366	2010-11-30T21:00:00	15	9.88	24.62	870.95	ND	ND	2.9	242.8	24.9	61.1	0	0
7367	2010-11-30T22:00:00	31	7.73	24.23	836.01	ND	ND	2.6	157.2	23.5	71.9	0	0
7368	2010-11-30T23:00:00	21	7.12	23.33	854.88	ND	ND	1.4	174.5	22.8	76.3	0	0
7369	2010-12-01T00:00:00	13	8.66	45.04	1330.47	ND	ND	1.4	195.7	23.2	74.9	0	0
7370	2010-12-01T01:00:00	7	8.70	49.59	945.11	ND	ND	1.3	150.6	22.1	80.6	0	0
7371	2010-12-01T02:00:00	4	7.58	36.57	487.82	ND	ND	0.5	112.8	20.3	94.2	0	19.05
7372	2010-12-01T03:00:00	4	7.30	16.96	146.58	ND	ND	1.3	13.9	20.4	94.9	0	3.3
7373	2010-12-01T04:00:00	12	6.71	16.23	394.77	ND	ND	1.5	9.5	20.2	94.9	0	4.06
7374	2010-12-01T05:00:00	7	8.79	28.65	642.48	ND	ND	0.6	47.9	20.2	94.4	0	0.25
7375	2010-12-01T06:00:00	13	11.32	22.61	574.85	ND	ND	0.8	47.8	20.4	93.8	0	0
7376	2010-12-01T07:00:00	8	18.11	24.74	812.10	ND	ND	1.2	53.5	20.1	95.4	1.9	4.32
7377	2010-12-01T08:00:00	19	16.57	28.68	969.02	ND	ND	1.7	28.3	20.2	94.8	58.9	3.81
7378	2010-12-01T09:00:00	11	16.40	33.89	1668.19	ND	ND	1.3	42.3	21.3	88.8	223.2	0
7379	2010-12-01T10:00:00	6	16.43	43.71	1991.23	ND	ND	0.6	62.3	23.4	77.4	558.9	0.25
7380	2010-12-01T11:00:00	4	22.10	44.72	1811.74	ND	ND	1	148.9	25.6	68	618.2	0
7381	2010-12-01T12:00:00	29	47.68	43.78	987.21	ND	ND	0.8	162.6	25.1	69.5	172.7	0
7382	2010-12-01T13:00:00	15	23.54	49.48	1180.37	ND	ND	0.8	278.2	25.2	68.5	433.2	0.51
7383	2010-12-01T14:00:00	9	18.75	56.86	1547.61	ND	ND	1.1	335.8	27.3	58.4	650.2	0
7384	2010-12-01T15:00:00	6	16.03	59.01	1558.51	ND	ND	1.9	329.8	28.1	53.5	550.9	0
7385	2010-12-01T16:00:00	21	11.60	28.64	833.42	ND	ND	2.9	293	28.1	51.3	512.5	0
7386	2010-12-01T17:00:00	24	13.13	29.15	960.75	ND	ND	1.6	92	24	78.8	73.5	1.02
7387	2010-12-01T18:00:00	50	10.00	19.90	513.79	ND	ND	0.7	98.2	23.4	79.3	13	0
7388	2010-12-01T19:00:00	60	13.68	48.82	1321.77	ND	ND	0.7	111.6	23.2	79.9	0	0
7389	2010-12-01T20:00:00	74	20.73	67.96	2288.76	ND	ND	1.4	138.2	23.2	79.8	0	0
7390	2010-12-01T21:00:00	56	17.79	69.19	2584.82	ND	ND	0.9	161.6	22.6	84.6	0	0
7391	2010-12-01T22:00:00	50	17.88	63.04	2772.77	ND	ND	1	187.4	22.7	80.3	0	0
7392	2010-12-01T23:00:00	26	15.76	48.98	2932.85	ND	ND	0.3	157.8	22.9	77.5	0	0
7393	2010-12-02T00:00:00	65	14.05	41.50	2218.19	ND	ND	0.8	49.7	22	87.9	0	0
7394	2010-12-02T01:00:00	34	12.81	40.18	1757.82	ND	ND	0.8	113.7	21.5	89.8	0	0
7395	2010-12-02T02:00:00	19	11.81	36.78	2173.73	ND	ND	0.9	129.3	21	91.3	0	0
7396	2010-12-02T03:00:00	10	9.64	27.11	1198.04	ND	ND	0.7	181.4	20.9	91.4	0	0
7397	2010-12-02T04:00:00	7	9.23	21.29	711.80	ND	ND	0.2	138.9	20.9	91.6	0	0
7398	2010-12-02T05:00:00	5	8.71	15.64	519.73	ND	ND	0.3	154.8	21	91	0	0
7399	2010-12-02T06:00:00	28	8.12	18.14	666.84	ND	ND	0.4	102.2	21.2	90.3	0	0
7400	2010-12-02T07:00:00	40	8.07	22.18	441.09	ND	ND	1.1	75.3	20.7	93	0.4	3.05
7401	2010-12-02T08:00:00	25	9.84	30.39	779.06	ND	ND	0.4	103.4	19.9	96.7	28.2	12.95
7402	2010-12-02T09:00:00	21	11.87	35.77	2026.80	ND	ND	1.9	19.9	20.2	94.3	91.9	2.54
7403	2010-12-02T10:00:00	13	13.53	43.88	2209.22	ND	ND	0.8	88.1	20.8	90	110.5	0
7404	2010-12-02T11:00:00	10	20.28	57.04	1536.07	ND	ND	1.7	176	20.1	94	113.7	0.51
7405	2010-12-02T12:00:00	11	24.66	47.79	1183.11	ND	ND	1.4	213	21	89.4	321	0.25
7406	2010-12-02T13:00:00	5	16.11	47.94	1604.93	ND	ND	1.1	170.7	23	77.8	526.5	0
7407	2010-12-02T14:00:00	3	13.61	44.90	1422.40	ND	ND	1.4	136.6	25.2	67.7	684.5	0
7408	2010-12-02T15:00:00	5	13.24	51.58	1639.32	ND	ND	0.9	104.9	24.4	69.5	75.2	0
7409	2010-12-02T16:00:00	29	11.77	46.95	1417.69	ND	ND	1.5	40.6	24.1	72.3	210.2	0
7410	2010-12-02T17:00:00	20	12.07	53.99	1530.48	ND	ND	1.9	6.7	23.5	76.6	140.6	0
7411	2010-12-02T18:00:00	39	15.28	57.66	1652.77	ND	ND	1.6	23.2	22.7	81.2	30	0
7412	2010-12-02T19:00:00	49	23.66	67.43	1614.21	ND	ND	0.3	106.7	22.5	79.6	0	0
7413	2010-12-02T20:00:00	61	33.54	83.20	2521.91	ND	ND	1.3	211.2	22.4	80.7	0	0
7414	2010-12-02T21:00:00	46	30.96	79.20	3463.62	ND	ND	0.9	204.2	22.2	81.4	0	0
7415	2010-12-02T22:00:00	57	22.69	71.59	2542.05	ND	ND	0.9	144.1	21.9	83.3	0	0
7416	2010-12-02T23:00:00	44	17.92	54.61	2403.42	ND	ND	0.7	145.3	21.2	88.4	0	0
7417	2010-12-03T00:00:00	23	16.17	48.85	2827.50	ND	ND	0.4	149.9	20.8	92	0	0
7418	2010-12-03T01:00:00	13	11.83	38.53	1705.49	ND	ND	0.2	107.5	20.7	92.2	0	0
7419	2010-12-03T02:00:00	24	10.05	34.69	1196.82	ND	ND	0.4	52.2	20.8	92.5	0	0
7420	2010-12-03T03:00:00	13	9.51	34.24	1265.00	ND	ND	1.1	61.9	20.2	94.6	0	0.25
7421	2010-12-03T04:00:00	25	8.82	32.56	1048.25	ND	ND	0.9	70.6	20	94.6	0	0
7422	2010-12-03T05:00:00	14	8.91	18.78	394.24	ND	ND	0.9	110.9	20	93.5	0	0
7423	2010-12-03T06:00:00	8	9.17	12.87	281.60	ND	ND	0.8	149.2	19.8	94.4	0	0
7424	2010-12-03T07:00:00	6	9.22	18.01	529.04	ND	ND	0.3	34.7	19.7	95.8	4.5	5.33
7425	2010-12-03T08:00:00	4	8.96	25.47	742.65	ND	ND	0.5	69.4	19.9	95.6	43.2	0.76
7426	2010-12-03T09:00:00	7	10.82	41.49	1677.74	ND	ND	0.7	82.3	20.3	94	118.7	0.25
7427	2010-12-03T10:00:00	29	15.63	53.68	2773.75	ND	ND	0.9	67.2	21	90.2	201.7	0
7428	2010-12-03T11:00:00	26	22.28	73.62	2746.46	ND	ND	1	62.5	21.5	87.1	145	0
7429	2010-12-03T12:00:00	41	21.73	65.05	1686.91	ND	ND	0.6	58.8	22.4	81.9	201	0
7430	2010-12-03T13:00:00	25	21.06	63.07	1680.71	ND	ND	0.5	60.3	23	78.7	233.1	0
7431	2010-12-03T14:00:00	34	24.70	68.58	1706.88	ND	ND	0.8	51.1	24.1	73.6	354.2	0
7432	2010-12-03T15:00:00	33	28.16	72.61	1541.90	ND	ND	1.9	1.3	24	75.2	233.9	0
7433	2010-12-03T16:00:00	58	29.30	77.88	1472.87	ND	ND	1.4	0.2	24	74.1	156.2	0
7434	2010-12-03T17:00:00	39	47.14	76.27	1278.77	ND	ND	0.8	8.7	24	73.6	56.8	0
7435	2010-12-03T18:00:00	48	98.66	90.63	1427.20	ND	ND	1.6	301.6	23.7	68	4.6	0
7436	2010-12-03T19:00:00	38	74.74	91.60	1676.70	ND	ND	0.8	236.5	22.2	76.9	0	0
7437	2010-12-03T20:00:00	64	34.91	51.94	1316.42	ND	ND	1.4	181.9	21.9	81.8	0	0
7438	2010-12-03T21:00:00	58	20.41	55.13	2460.11	ND	ND	1.1	144	21.3	87.9	0	0
7439	2010-12-03T22:00:00	47	20.70	68.56	2681.38	ND	ND	0.8	92.1	20.9	91.2	0	1.02
7440	2010-12-03T23:00:00	26	15.71	71.29	2768.12	ND	ND	0.8	132.2	20.1	92.7	0	1.27
7441	2010-12-04T00:00:00	18	13.99	60.83	2749.32	ND	ND	1.1	163.7	19.9	93.6	0	0.25
7442	2010-12-04T01:00:00	10	11.54	57.61	2049.32	ND	ND	0.8	154.1	19.7	93.7	0	0
7443	2010-12-04T02:00:00	6	9.21	43.38	1057.72	ND	ND	0.7	190.8	19.6	93.7	0	6.1
7444	2010-12-04T03:00:00	4	8.72	38.84	888.63	ND	ND	0.6	176.5	19.2	96.7	0	6.35
7445	2010-12-04T04:00:00	4	7.60	24.80	449.32	ND	ND	0.2	354.7	19.4	96.4	0	3.3
7446	2010-12-04T05:00:00	3	7.51	34.11	640.73	ND	ND	0.2	86	19.5	96.5	0	5.84
7447	2010-12-04T06:00:00	3	7.43	32.94	730.90	ND	ND	0.3	172.7	19.4	97	0	0
7448	2010-12-04T07:00:00	4	7.97	39.05	1000.43	ND	ND	0.5	234.4	19.2	95.3	10.5	2.03
7449	2010-12-04T08:00:00	3	7.81	33.81	921.11	ND	ND	0.2	112.7	19.3	94.4	47.2	0.25
7450	2010-12-04T09:00:00	13	7.35	21.87	854.01	ND	ND	0.7	64.6	19.7	93.8	81.2	0
7451	2010-12-04T10:00:00	8	9.01	33.41	1586.58	ND	ND	0.4	193.1	21.2	86.3	315.1	0
7452	2010-12-04T11:00:00	11	12.83	45.22	1481.61	ND	ND	0.6	166.2	23.1	76.2	467	0
7453	2010-12-04T12:00:00	19	21.43	62.99	1217.98	ND	ND	1.1	147.7	24.3	71	418.3	0
7454	2010-12-04T13:00:00	11	15.14	86.25	1622.94	ND	ND	0.9	242.3	23.2	76.8	213.3	0.51
7455	2010-12-04T14:00:00	25	12.63	73.29	1537.23	ND	ND	0.5	22.9	24	73.8	362.4	0
7456	2010-12-04T15:00:00	23	11.91	64.14	1347.28	ND	ND	1	74.1	24.8	69.6	279.8	0
7457	2010-12-04T16:00:00	41	12.83	91.51	1831.74	ND	ND	0.6	74.3	24.5	67.2	103.3	0
7458	2010-12-04T17:00:00	22	16.38	115.20	2012.89	ND	ND	0.7	278.6	24.7	64.6	139.1	0
7459	2010-12-04T18:00:00	16	17.77	82.73	1670.90	ND	ND	1.1	260.5	24	64.6	41	0
7460	2010-12-04T19:00:00	35	18.91	63.20	1278.77	ND	ND	1.2	65.4	22.5	79.5	0	0
7461	2010-12-04T20:00:00	39	13.59	46.95	1295.04	ND	ND	0.8	122.9	21.8	83.1	0	0
7462	2010-12-04T21:00:00	20	18.38	49.47	2073.95	ND	ND	1.2	177	21.4	85.3	0	0
7463	2010-12-04T22:00:00	27	17.89	50.41	2840.74	ND	ND	0.9	192.5	21.4	84.3	0	0
7464	2010-12-04T23:00:00	15	14.52	44.36	1980.59	ND	ND	0.4	271.7	21.4	82	0	0
7465	2010-12-05T00:00:00	16	13.62	43.30	1527.89	ND	ND	0.5	276.8	21.3	79.8	0	0
7466	2010-12-05T01:00:00	19	13.43	35.23	1425.54	ND	ND	0.9	47.6	21.1	86.4	0	0
7467	2010-12-05T02:00:00	38	12.67	30.21	1198.45	ND	ND	0.3	31	20.7	89.8	0	0
7468	2010-12-05T03:00:00	20	13.20	35.45	1614.58	ND	ND	0	245	20.6	89.7	0	0
7469	2010-12-05T04:00:00	23	14.74	33.27	1218.99	ND	ND	0.5	240.5	20.6	88	0	0
7470	2010-12-05T05:00:00	12	21.99	32.96	1094.83	ND	ND	0.9	234.9	20.2	90.2	0	0.25
7471	2010-12-05T06:00:00	11	26.09	23.92	867.91	ND	ND	0.6	225.1	20.2	92.6	0	0
7472	2010-12-05T07:00:00	7	18.18	18.77	631.21	ND	ND	0.1	106	20.3	90.7	32.7	0
7473	2010-12-05T08:00:00	36	13.26	19.50	1093.71	ND	ND	0.9	1.3	20.4	91.5	26.4	0
7474	2010-12-05T09:00:00	19	12.59	34.62	1252.00	ND	ND	1	6.3	20.4	92.3	42.4	0
7475	2010-12-05T10:00:00	19	13.98	31.13	1206.88	ND	ND	1.1	355.8	20.8	89.5	95.1	0.25
7476	2010-12-05T11:00:00	21	12.55	33.54	1039.10	ND	ND	0.4	330.7	21.9	82	176.8	0
7477	2010-12-05T12:00:00	27	15.77	37.20	1031.66	ND	ND	0.5	217.6	23.2	73.8	312.5	0
7478	2010-12-05T13:00:00	19	26.72	40.77	990.66	ND	ND	0.7	207.8	24.7	64.6	399.9	0
7479	2010-12-05T14:00:00	26	35.60	52.72	1144.45	ND	ND	0.8	152.9	26.7	56.2	649.6	0
7480	2010-12-05T15:00:00	14	26.51	50.56	1152.14	ND	ND	1	143.8	28.4	50.3	628.4	0
7481	2010-12-05T16:00:00	35	19.53	44.40	1031.22	ND	ND	1.9	127.9	27.1	57.2	174	0
7482	2010-12-05T17:00:00	18	15.83	41.84	1015.24	ND	ND	1.1	164.7	26.3	59.8	113.8	0
7483	2010-12-05T18:00:00	25	15.63	59.25	1438.26	ND	ND	1.2	201.1	25.6	64.9	25.9	0
7484	2010-12-05T19:00:00	25	16.17	49.22	1366.02	ND	ND	1.9	189.9	24.5	72.1	0	0
7485	2010-12-05T20:00:00	25	13.60	30.95	1006.44	ND	ND	1.3	248.1	23.9	68.8	0	0
7486	2010-12-05T21:00:00	16	13.05	68.72	1597.93	ND	ND	1.8	270.2	23.5	69.1	0	0
7487	2010-12-05T22:00:00	48	12.64	42.16	1459.00	ND	ND	0.9	11.1	23	76.4	0	0
7488	2010-12-05T23:00:00	57	10.85	27.95	989.99	ND	ND	0.4	348.2	22.5	82.9	0	0
7489	2010-12-06T00:00:00	53	11.41	54.18	2362.87	ND	ND	0.4	217.1	22.5	80.8	0	0
7490	2010-12-06T01:00:00	27	14.19	63.20	2056.15	ND	ND	0.6	253.3	22.2	77.7	0	0
7491	2010-12-06T02:00:00	17	16.87	53.85	1759.01	ND	ND	0.7	218.7	21.8	76.8	0	0
7492	2010-12-06T03:00:00	9	14.88	31.97	1235.30	ND	ND	0.5	210.9	21.6	83	0	0.51
7493	2010-12-06T04:00:00	22	12.10	16.91	407.71	ND	ND	0.3	143.3	21.1	89.9	0	0.25
7494	2010-12-06T05:00:00	12	8.20	27.96	893.19	ND	ND	0.4	144.7	21	90.4	0	0
7495	2010-12-06T06:00:00	25	9.51	26.37	768.56	ND	ND	0.3	194.4	21	89	0	0
7496	2010-12-06T07:00:00	15	9.13	25.31	632.93	ND	ND	0.5	166.7	21.1	90.1	11.1	0
7497	2010-12-06T08:00:00	61	9.41	26.54	780.12	ND	ND	0.8	135.9	21.2	89.4	88.3	0
7498	2010-12-06T09:00:00	47	11.28	32.58	1866.15	ND	ND	0.5	202.9	22.5	82.7	332.2	0
7499	2010-12-06T10:00:00	53	13.46	39.91	2624.15	ND	ND	0.7	100.1	25.4	66.8	611.2	0
7500	2010-12-06T11:00:00	44	21.67	65.99	2064.86	ND	ND	1.1	131.7	27	59.5	717	0
7501	2010-12-06T12:00:00	57	15.04	61.58	1407.02	ND	ND	1.1	117.1	28.3	54.5	599.3	0
7502	2010-12-06T13:00:00	52	14.44	62.06	1262.54	ND	ND	1.4	58.8	28.3	53.9	542.9	0
7503	2010-12-06T14:00:00	35	12.82	66.76	1135.13	ND	ND	1.3	47.3	29.3	51.2	666	0
7504	2010-12-06T15:00:00	23	14.35	57.38	987.82	ND	ND	1	22.9	29.6	50.4	365.6	0
7505	2010-12-06T16:00:00	40	19.88	51.37	884.10	ND	ND	1.6	294.7	29.5	48.3	433.5	0
7506	2010-12-06T17:00:00	21	39.29	62.52	1023.36	ND	ND	4	277.9	28.3	50	257.8	0
7507	2010-12-06T18:00:00	26	26.10	51.59	880.30	ND	ND	3.2	276	26.9	55	33	0
7508	2010-12-06T19:00:00	16	12.74	25.25	737.86	ND	ND	4.9	272.1	25.5	61.2	0	0
7509	2010-12-06T20:00:00	20	12.81	36.13	906.55	ND	ND	4.7	273	25.1	61.6	0	0
7510	2010-12-06T21:00:00	11	11.45	20.99	527.16	ND	ND	2.2	306.7	25.2	60	0	0
7511	2010-12-06T22:00:00	17	9.99	18.41	435.62	ND	ND	1.7	228.6	24.7	64.3	0	0
7512	2010-12-06T23:00:00	10	9.92	31.23	652.34	ND	ND	2.5	191.5	23	74.6	0	0
7513	2010-12-07T00:00:00	10	10.46	29.58	694.13	ND	ND	0.8	156.5	23	72.3	0	0
7514	2010-12-07T01:00:00	7	8.88	22.41	534.82	ND	ND	1.3	185	20.7	85.4	0	0
7515	2010-12-07T02:00:00	5	8.01	25.84	553.25	ND	ND	1.1	241.3	20.6	85.3	0	0
7516	2010-12-07T03:00:00	4	7.74	12.14	327.32	ND	ND	0.3	27.9	20.9	83.4	0	0
7517	2010-12-07T04:00:00	3	7.57	8.90	225.97	ND	ND	0.1	119.4	20.6	85.9	0	0
7518	2010-12-07T05:00:00	3	8.60	21.82	338.61	ND	ND	0.4	132	20.6	88	0	0
7519	2010-12-07T06:00:00	26	9.29	29.82	507.91	ND	ND	0.6	123.8	20.3	89.1	0	0
7520	2010-12-07T07:00:00	37	9.72	28.42	653.97	ND	ND	0.4	148.1	20.6	87.8	24.9	0
7521	2010-12-07T08:00:00	71	9.86	33.44	857.81	ND	ND	0.4	153.2	21.2	84.7	73.9	0
7522	2010-12-07T09:00:00	71	11.28	42.52	1538.16	ND	ND	0.6	79.4	23.1	75.7	275.4	0
7523	2010-12-07T10:00:00	109	14.81	79.25	3153.10	ND	ND	0.9	64.6	24.4	70.4	369	0
7524	2010-12-07T11:00:00	77	17.70	155.00	3772.89	ND	ND	1.7	25.2	26	63.3	553.7	0
7525	2010-12-07T12:00:00	64	33.76	140.43	2183.96	ND	ND	1.6	65.6	27.1	59.3	592.5	0
7526	2010-12-07T13:00:00	33	159.14	101.23	1430.56	ND	ND	1.3	56	27.8	55.6	542.6	0
7527	2010-12-07T14:00:00	59	52.53	68.69	1352.95	ND	ND	1.8	57.5	27.7	58	321.8	0
7528	2010-12-07T15:00:00	31	36.35	60.99	1248.47	ND	ND	1.2	12.9	28.4	53.8	396	0
7529	2010-12-07T16:00:00	25	36.73	72.58	1367.24	ND	ND	3.4	290.1	27.7	53.7	284.6	0
7530	2010-12-07T17:00:00	13	39.00	48.27	901.67	ND	ND	4.3	292.3	26.4	55	112.6	0
7531	2010-12-07T18:00:00	17	ND	ND	ND	ND	ND	3.9	289	25.3	59.4	7.8	0
7532	2010-12-07T19:00:00	10	ND	ND	ND	ND	ND	3.2	256.1	24.2	66.4	0	0
7533	2010-12-07T20:00:00	42	7.06	29.85	971.15	ND	ND	1.5	1.2	23	74.9	0	0
7534	2010-12-07T21:00:00	36	7.65	34.85	1376.88	ND	ND	0.4	74.4	21.7	82.5	0	0
7535	2010-12-07T22:00:00	45	7.54	43.58	1438.81	ND	ND	1.5	153.3	21.7	80.9	0	0
7536	2010-12-07T23:00:00	42	10.08	53.47	1665.39	ND	ND	1.1	158.6	21.3	83	0	0
7537	2010-12-08T00:00:00	45	13.20	57.16	2013.86	ND	ND	1.2	173.2	21.4	82.3	0	0
7538	2010-12-08T01:00:00	24	9.89	58.02	1867.42	ND	ND	1	177.1	21.2	82.5	0	0
7539	2010-12-08T02:00:00	19	8.38	61.19	1504.23	ND	ND	0.9	149.8	20.9	84	0	0
7540	2010-12-08T03:00:00	11	8.17	54.46	881.28	ND	ND	0.7	162.8	21	82.6	0	0
7541	2010-12-08T04:00:00	7	7.70	45.08	734.65	ND	ND	1.2	158.1	20.5	86.9	0	0
7542	2010-12-08T05:00:00	5	6.66	33.74	631.85	ND	ND	0.6	179	20.3	90.1	0	0
7543	2010-12-08T06:00:00	3	5.93	19.26	293.16	ND	ND	0.3	135.3	20.6	87.7	0	0
7544	2010-12-08T07:00:00	8	4.39	22.34	440.19	ND	ND	0.5	135	20.8	87.7	22.2	0
7545	2010-12-08T08:00:00	32	5.27	30.01	553.44	ND	ND	0.9	132.9	20.9	87.6	85.4	0
7546	2010-12-08T09:00:00	18	5.79	38.75	1299.32	ND	ND	1	160.3	21.6	84.9	164.5	0
7547	2010-12-08T10:00:00	13	5.93	34.30	1257.12	ND	ND	0.5	189.3	23.1	75.5	350.5	0
7548	2010-12-08T11:00:00	7	6.46	33.26	1274.90	ND	ND	0.7	177.6	25.1	65.6	566.3	0
7549	2010-12-08T12:00:00	5	7.60	30.92	848.03	ND	ND	1.1	113	26.6	59.9	496	0
7550	2010-12-08T13:00:00	2	7.67	28.88	817.75	ND	ND	1.3	143.8	27.5	57.4	726.4	0
7551	2010-12-08T14:00:00	1	7.08	33.35	866.41	ND	ND	1.5	170.5	27.5	57.8	498.7	0
7552	2010-12-08T15:00:00	2	7.48	32.00	901.07	ND	ND	1.2	140.6	27.3	57.7	306.9	0
7553	2010-12-08T16:00:00	2	8.82	27.24	854.29	ND	ND	1.3	301.9	26.3	56.8	122.2	0
7554	2010-12-08T17:00:00	3	8.92	32.01	862.95	ND	ND	1.6	317.6	26	59.9	152.3	0
7555	2010-12-08T18:00:00	2	6.63	17.50	597.71	ND	ND	2.7	281.5	25.4	59.3	35.1	0
7556	2010-12-08T19:00:00	2	8.34	27.95	699.76	ND	ND	1.4	298.7	24.7	61.3	0	0
7557	2010-12-08T20:00:00	2	5.55	16.44	572.23	ND	ND	2.5	275.6	24.4	63.5	0	0
7558	2010-12-08T21:00:00	3	5.10	28.44	766.01	ND	ND	2.9	282.9	24	64.2	0	0
7559	2010-12-08T22:00:00	2	4.49	24.78	650.80	ND	ND	2	279	24	63.7	0	0
7560	2010-12-08T23:00:00	5	3.86	18.79	502.38	ND	ND	1.5	195.6	23.3	71.1	0	0
7561	2010-12-09T00:00:00	29	3.62	23.50	535.36	ND	ND	1.5	163.5	22.2	82.7	0	0
7562	2010-12-09T01:00:00	16	5.22	38.14	1520.69	ND	ND	0.8	172.3	21.8	84.3	0	0
7563	2010-12-09T02:00:00	10	5.68	34.80	1518.63	ND	ND	0.8	223.8	22	78.1	0	0
7564	2010-12-09T03:00:00	10	5.37	28.49	895.92	ND	ND	0.3	358.1	22	79.1	0	0
7565	2010-12-09T04:00:00	25	5.01	19.97	510.33	ND	ND	0.8	22.9	21.7	82.4	0	0
7566	2010-12-09T05:00:00	14	6.12	26.78	713.74	ND	ND	0.6	356.9	21.5	81.3	0	0
7567	2010-12-09T06:00:00	14	10.49	33.02	996.29	ND	ND	0.4	109	21.4	84.5	0	0
7568	2010-12-09T07:00:00	20	12.53	33.60	543.25	ND	ND	0.8	127.8	21	87.5	12.4	0
7569	2010-12-09T08:00:00	43	12.69	37.81	779.86	ND	ND	0.6	200	21.5	83.6	108.6	0
7570	2010-12-09T09:00:00	41	11.19	33.41	1607.66	ND	ND	0.3	141.5	23.1	75.3	241.3	0
7571	2010-12-09T10:00:00	42	11.30	49.71	1673.31	ND	ND	1.2	127.3	25.1	68	468.7	0
7572	2010-12-09T11:00:00	37	14.76	72.14	1524.17	ND	ND	0.5	72.7	24.9	68	234.7	0
7573	2010-12-09T12:00:00	48	13.78	85.89	1500.24	ND	ND	0.5	97.8	26.4	62	473.3	0
7574	2010-12-09T13:00:00	35	15.27	57.85	1012.87	ND	ND	1	72.3	27.9	55	645.7	0
7575	2010-12-09T14:00:00	25	22.12	68.92	1006.38	ND	ND	1.1	12.7	29.2	50.2	663.7	0
7576	2010-12-09T15:00:00	13	21.34	59.86	1115.28	ND	ND	3.5	286.5	27.3	53.7	102.5	0
7577	2010-12-09T16:00:00	7	20.65	45.82	704.21	ND	ND	3.8	277.5	25.6	58.7	87.4	0
7578	2010-12-09T17:00:00	5	10.55	24.74	757.62	ND	ND	2.8	286	25.3	57.7	43.3	0
7579	2010-12-09T18:00:00	4	8.42	23.62	848.60	ND	ND	3.6	277.5	24.3	61.9	10.4	0
7580	2010-12-09T19:00:00	3	7.97	30.35	937.19	ND	ND	2.9	267.5	23.6	63.6	0	0
7581	2010-12-09T20:00:00	13	7.77	26.08	957.79	ND	ND	2	263	23.2	65.4	0	0
7582	2010-12-09T21:00:00	7	6.35	28.64	933.72	ND	ND	1.5	238.9	22.8	67.3	0	0
7583	2010-12-09T22:00:00	4	5.90	30.88	852.86	ND	ND	1.4	237.4	22.5	67.3	0	0
7584	2010-12-09T23:00:00	3	6.26	34.18	1101.92	ND	ND	0.9	304.1	22.2	72.6	0	0
7585	2010-12-10T00:00:00	38	5.40	26.05	658.21	ND	ND	0.7	342	22	76.5	0	0
7586	2010-12-10T01:00:00	45	7.78	34.70	907.26	ND	ND	0.8	5.6	21.4	79.9	0	0
7587	2010-12-10T02:00:00	51	74.91	43.35	1131.77	ND	ND	0.7	30.9	21.2	82.6	0	0
7588	2010-12-10T03:00:00	32	112.94	46.78	1017.90	ND	ND	0.7	17.1	21	84.3	0	0
7589	2010-12-10T04:00:00	42	105.57	49.09	1017.21	ND	ND	0.3	302.8	21.1	83.5	0	0
7590	2010-12-10T05:00:00	24	63.61	41.54	915.80	ND	ND	0.3	1.5	21.4	78.5	0	0
7591	2010-12-10T06:00:00	46	54.52	33.86	916.73	ND	ND	0.8	357.2	21	85.9	0	0
7592	2010-12-10T07:00:00	53	31.43	21.61	553.81	ND	ND	0.9	34.1	21.1	84.6	14.2	0
7593	2010-12-10T08:00:00	64	33.02	37.05	859.27	ND	ND	0.7	22.4	21.8	81.7	108.5	0
7594	2010-12-10T09:00:00	52	49.12	46.80	1994.62	ND	ND	0.9	87	23.1	74.8	310.7	0
7595	2010-12-10T10:00:00	51	62.59	58.91	2048.95	ND	ND	1.4	69.4	24.1	69.3	344.2	0
7596	2010-12-10T11:00:00	40	51.99	76.07	1873.12	ND	ND	0.7	42.3	25.2	64.4	439.2	0
7597	2010-12-10T12:00:00	39	40.56	58.78	1410.04	ND	ND	1	92.2	26.8	58.5	447.9	0
7598	2010-12-10T13:00:00	35	28.15	55.50	1164.05	ND	ND	1.2	101.7	27.1	57.6	295.8	0
7599	2010-12-10T14:00:00	58	20.74	66.48	1280.59	ND	ND	1.4	67.5	27	57.4	336.7	0
7600	2010-12-10T15:00:00	31	17.59	90.71	1718.41	ND	ND	1.3	294.6	27.4	54	191.9	0
7601	2010-12-10T16:00:00	16	16.64	71.24	1293.41	ND	ND	2.4	281	26.8	54	99.7	0
7602	2010-12-10T17:00:00	10	15.74	42.77	1129.48	ND	ND	1.2	224.4	25.9	59.4	51.2	0
7603	2010-12-10T18:00:00	21	9.83	31.79	1068.63	ND	ND	2.4	267.5	25.5	58.2	15.6	0
7604	2010-12-10T19:00:00	12	13.25	54.60	1801.62	ND	ND	3.3	271.2	24.7	61	0	0
7605	2010-12-10T20:00:00	10	12.25	39.78	1396.23	ND	ND	2.6	268.8	24.3	62.6	0	0
7606	2010-12-10T21:00:00	7	8.44	29.22	1017.20	ND	ND	1.8	247.9	23.6	65.4	0	0
7607	2010-12-10T22:00:00	6	7.41	35.13	923.58	ND	ND	1.6	270.4	23.2	67.1	0	0
7608	2010-12-10T23:00:00	34	7.03	44.78	1298.10	ND	ND	0.8	227.1	22.4	77.9	0	0
7609	2010-12-11T00:00:00	21	6.62	42.31	1203.75	ND	ND	1.1	248.3	22.4	70.3	0	0
7610	2010-12-11T01:00:00	11	10.83	57.58	2736.83	ND	ND	0.5	262.2	22.1	70.8	0	0
7611	2010-12-11T02:00:00	19	8.02	32.38	816.81	ND	ND	0.8	250.9	21.8	73.7	0	0
7612	2010-12-11T03:00:00	10	7.05	26.94	634.65	ND	ND	0.7	194	21.7	76	0	0
7613	2010-12-11T04:00:00	17	10.75	26.04	827.03	ND	ND	0.5	217.2	21.3	85.3	0	0
7614	2010-12-11T05:00:00	15	7.56	21.60	678.83	ND	ND	0.4	81.3	21.6	82.5	0	0
7615	2010-12-11T06:00:00	49	6.99	29.64	1098.56	ND	ND	0.4	133.6	21.2	86.3	0	0
7616	2010-12-11T07:00:00	58	7.71	33.26	1153.62	ND	ND	0.3	132.2	21.3	87.1	44.4	0
7617	2010-12-11T08:00:00	80	8.59	29.63	1527.37	ND	ND	1	59	22	83.2	104.9	0
7618	2010-12-11T09:00:00	66	8.53	34.66	1893.90	ND	ND	0.7	32.5	23.4	73.7	286.8	0
7619	2010-12-11T10:00:00	74	13.86	59.72	2449.83	ND	ND	1	139.6	25.3	64.2	520.5	0
7620	2010-12-11T11:00:00	50	23.61	63.10	1685.74	ND	ND	1.2	115	26.7	58.8	687.3	0
7621	2010-12-11T12:00:00	52	25.64	73.49	1613.00	ND	ND	1.2	119	27.7	55.6	525.1	0
7622	2010-12-11T13:00:00	27	18.43	58.52	1144.43	ND	ND	0.4	112.9	29.1	49.8	596.8	0
7623	2010-12-11T14:00:00	44	16.36	63.98	1289.12	ND	ND	0.7	89.1	28.9	50.4	350.8	0
7624	2010-12-11T15:00:00	23	11.39	37.78	870.45	ND	ND	1.6	345.2	28.8	50	153	0
7625	2010-12-11T16:00:00	19	13.53	76.26	1554.69	ND	ND	3.1	273.1	29.2	48	418.3	0
7626	2010-12-11T17:00:00	11	10.73	44.98	1022.34	ND	ND	3.5	294	28.5	48.4	233.6	0
7627	2010-12-11T18:00:00	5	7.58	24.62	776.57	ND	ND	2.7	278	27.2	53.1	36.4	0
7628	2010-12-11T19:00:00	4	6.73	21.88	761.68	ND	ND	3.4	265.6	26.1	57.2	0	0
7629	2010-12-11T20:00:00	12	6.65	34.42	1069.35	ND	ND	2	269.7	25.3	60	0	0
7630	2010-12-11T21:00:00	7	7.13	36.75	1055.02	ND	ND	2.2	178.5	23.6	70.7	0	0
7631	2010-12-11T22:00:00	37	6.78	42.89	1242.85	ND	ND	1.1	158.3	23.1	72.7	0	0
7632	2010-12-11T23:00:00	27	7.60	43.40	1525.33	ND	ND	1.2	224.1	23.1	72.3	0	0
7633	2010-12-12T00:00:00	25	8.59	49.82	1673.31	ND	ND	0.8	302	22.9	71.9	0	0
7634	2010-12-12T01:00:00	15	8.38	47.73	1262.66	ND	ND	0.5	71	22.7	74.5	0	0
7635	2010-12-12T02:00:00	34	7.15	39.28	1250.44	ND	ND	0.8	156.3	21.8	80.9	0	0
7636	2010-12-12T03:00:00	19	8.97	48.35	1654.63	ND	ND	0.2	154	21.4	82	0	0
7637	2010-12-12T04:00:00	19	7.87	41.29	1052.54	ND	ND	1.1	238.3	21.6	76.1	0	0
7638	2010-12-12T05:00:00	11	6.37	38.60	973.98	ND	ND	0.8	258.9	21.6	74.1	0	0
7639	2010-12-12T06:00:00	16	7.30	22.94	758.80	ND	ND	0.5	137.4	21.3	81.9	0	0
7640	2010-12-12T07:00:00	13	6.50	14.19	282.85	ND	ND	0.1	215.8	21.3	85.6	10	0
7641	2010-12-12T08:00:00	30	6.39	22.51	769.34	ND	ND	0.5	257.5	22	78.7	45.3	0
7642	2010-12-12T09:00:00	19	5.86	26.03	1088.71	ND	ND	0.2	29.4	22.8	73.3	80.6	0
7643	2010-12-12T10:00:00	52	8.06	34.04	1205.38	ND	ND	0.6	347.5	23.2	75.9	149.5	0
7644	2010-12-12T11:00:00	37	9.71	42.50	1127.30	ND	ND	0.2	108.5	24.5	70.4	409.1	0
7645	2010-12-12T12:00:00	48	18.65	78.60	1669.78	ND	ND	0.8	17.2	26.8	59.9	479.6	0
7646	2010-12-12T13:00:00	25	19.98	68.35	1394.56	ND	ND	1.9	289.8	25.8	62.3	231	0
7647	2010-12-12T14:00:00	14	13.66	52.12	1355.45	ND	ND	3.2	250	25	66.2	208	0
7648	2010-12-12T15:00:00	8	11.56	30.55	996.68	ND	ND	2.9	267.4	26.2	59.1	339.1	0
7649	2010-12-12T16:00:00	5	7.37	18.08	851.16	ND	ND	3.8	283.4	25.3	59.2	78.9	0
7650	2010-12-12T17:00:00	10	6.95	12.31	676.59	ND	ND	0.5	52.1	24.4	68.2	38.8	0
7651	2010-12-12T18:00:00	30	4.65	9.94	468.75	ND	ND	1.7	83.6	22.6	81.9	11.2	0
7652	2010-12-12T19:00:00	16	6.34	35.25	1238.66	ND	ND	0.4	262.6	22.5	77.3	0	0
7653	2010-12-12T20:00:00	9	8.50	36.70	1351.84	ND	ND	0.1	308.5	22.9	74.1	0	0
7654	2010-12-12T21:00:00	11	9.63	36.34	1023.78	ND	ND	2.1	187.8	22.4	78.3	0	0
7655	2010-12-12T22:00:00	22	11.58	49.14	1782.91	ND	ND	1.9	188.2	22.1	82.7	0	0
7656	2010-12-12T23:00:00	12	9.65	41.03	1361.35	ND	ND	1.1	189.9	22	83	0	0
7657	2010-12-13T00:00:00	8	7.73	39.49	1088.71	ND	ND	0.1	31.5	22.3	80.1	0	0
7658	2010-12-13T01:00:00	4	7.17	39.59	1078.47	ND	ND	0.7	302.9	21.3	86.1	0	3.05
7659	2010-12-13T02:00:00	4	7.19	31.25	701.46	ND	ND	0.4	337	20.8	88.5	0	0
7660	2010-12-13T03:00:00	3	6.56	21.35	609.91	ND	ND	0.4	285.6	20.2	89.4	0	3.3
7661	2010-12-13T04:00:00	4	5.77	21.51	563.58	ND	ND	0.4	13.5	20.2	91.2	0	0
7662	2010-12-13T05:00:00	3	5.10	5.23	507.22	ND	ND	0.3	48.1	20.2	90.8	0	1.02
7663	2010-12-13T06:00:00	9	5.21	19.55	608.66	ND	ND	1.2	52.7	20.1	94.1	0	0.25
7664	2010-12-13T07:00:00	6	4.85	27.27	574.65	ND	ND	1.8	32.4	20	93.7	7.6	0.51
7665	2010-12-13T08:00:00	8	6.62	30.56	889.84	ND	ND	2.5	2.5	19.9	93.3	39	0.76
7666	2010-12-13T09:00:00	10	10.51	32.78	1204.82	ND	ND	0.7	84	20.4	88.4	142.7	0
7667	2010-12-13T10:00:00	29	10.19	43.43	1545.26	ND	ND	1.1	123.3	21.2	84.1	172.2	0
7668	2010-12-13T11:00:00	39	12.91	57.92	1741.74	ND	ND	1.3	159.4	21.5	80.8	111.9	0
7669	2010-12-13T12:00:00	38	13.47	56.21	1664.26	ND	ND	1.4	207.7	22.9	74.2	552.7	0
7670	2010-12-13T13:00:00	20	ND	ND	ND	ND	ND	1	215.3	25.1	63.4	724.7	0
7671	2010-12-13T14:00:00	10	ND	ND	905.33	ND	ND	0.5	290.3	26	55.9	312.6	0
7672	2010-12-13T15:00:00	6	ND	30.50	770.13	ND	ND	1.4	347.6	26.4	54.5	242	0
7673	2010-12-13T16:00:00	17	ND	24.33	794.18	ND	ND	2.2	274	25.4	56.8	89.3	0
7674	2010-12-13T17:00:00	16	ND	37.96	1181.56	ND	ND	1.9	293.7	24.9	57.6	50.3	0
7675	2010-12-13T18:00:00	28	ND	36.30	1305.55	ND	ND	2.1	258.9	23.9	63.9	20.4	0
7676	2010-12-13T19:00:00	22	ND	38.81	1266.93	ND	ND	2.6	264.2	22.9	66.7	0	0
7677	2010-12-13T20:00:00	18	ND	52.35	1569.80	ND	ND	1.2	242.3	23	67.1	0	0
7678	2010-12-13T21:00:00	19	ND	58.63	1763.77	ND	ND	1.2	198.4	22.6	71.4	0	0
7679	2010-12-13T22:00:00	25	ND	49.88	1704.57	ND	ND	1.3	187.1	21.7	80	0	0
7680	2010-12-13T23:00:00	14	ND	50.29	2129.89	ND	ND	1.1	216.8	21.3	81.1	0	0
7681	2010-12-14T00:00:00	21	ND	53.50	1878.10	ND	ND	0.7	225.3	20.9	78.3	0	0
7682	2010-12-14T01:00:00	11	ND	43.69	1683.47	ND	ND	1.3	262.6	20.6	76.7	0	0
7683	2010-12-14T02:00:00	7	ND	27.07	993.25	ND	ND	0.9	322.3	20.3	79.1	0	0
7684	2010-12-14T03:00:00	4	ND	14.09	541.22	ND	ND	1.4	354	19.7	91.2	0	0
7685	2010-12-14T04:00:00	18	ND	17.43	360.07	ND	ND	0.3	52.8	19.9	88.4	0	0
7686	2010-12-14T05:00:00	21	ND	33.12	799.46	ND	ND	0.2	195.4	19.8	89.5	0	0
7687	2010-12-14T06:00:00	38	ND	32.38	866.73	ND	ND	0.4	210.4	19.9	85	0	0
7688	2010-12-14T07:00:00	30	ND	30.05	709.38	ND	ND	0.3	231.7	20.1	83.2	24.2	0
7689	2010-12-14T08:00:00	58	ND	28.18	946.49	ND	ND	0.5	226.1	20.8	80.6	116.9	0
7690	2010-12-14T09:00:00	38	ND	30.47	1434.42	ND	ND	0.8	148	22.6	75.5	338.9	0
7691	2010-12-14T10:00:00	40	ND	58.14	2102.30	ND	ND	1.2	145.4	24.5	65.6	605.9	0
7692	2010-12-14T11:00:00	27	ND	106.72	2401.74	ND	ND	1.7	128.6	25.8	60.3	644.1	0
7693	2010-12-14T12:00:00	48	ND	51.14	1102.74	ND	ND	1	111.1	26.7	56.4	485.4	0
7694	2010-12-14T13:00:00	44	ND	66.62	1532.35	ND	ND	0.7	6.7	27	54.9	339.7	0
7695	2010-12-14T14:00:00	39	ND	62.72	1395.49	ND	ND	0.6	60.9	27.2	54.7	319.1	0
7696	2010-12-14T15:00:00	28	ND	43.26	1096.36	ND	ND	0.6	86.2	28.2	51.6	466.1	0
7697	2010-12-14T16:00:00	51	ND	61.11	1343.17	ND	ND	0.2	2.2	27.2	56.9	156.6	0
7698	2010-12-14T17:00:00	33	ND	62.99	1384.88	ND	ND	1	212.5	26.3	58.3	99.2	0
7699	2010-12-14T18:00:00	41	ND	90.12	1633.86	ND	ND	3.7	283.9	25.7	57.2	35.5	0
7700	2010-12-14T19:00:00	22	ND	79.72	1688.00	ND	ND	4.5	277.2	24.4	62.4	0	0
7701	2010-12-14T20:00:00	12	ND	30.00	1120.43	ND	ND	4.2	281.3	24.3	60.2	0	0
7702	2010-12-14T21:00:00	7	ND	22.02	902.90	ND	ND	2.4	279.9	24.5	59.2	0	0
7703	2010-12-14T22:00:00	12	ND	18.43	686.21	ND	ND	3.1	243.9	22.8	73.7	0	2.29
7704	2010-12-14T23:00:00	7	ND	34.61	932.46	ND	ND	2.6	256.3	19.7	93.3	0	14.48
7705	2010-12-15T00:00:00	4	ND	28.30	787.66	ND	ND	1.9	265.3	20.2	86.5	0	0.76
7706	2010-12-15T01:00:00	3	ND	25.20	619.94	ND	ND	0.9	227.8	20.3	88.8	0	0.51
7707	2010-12-15T02:00:00	3	ND	15.65	462.29	ND	ND	0.9	290.7	20.4	88.2	0	0.51
7708	2010-12-15T03:00:00	2	ND	27.63	406.05	ND	ND	1.1	338.3	19.5	95	0	50.55
7709	2010-12-15T04:00:00	2	ND	21.59	382.32	ND	ND	0.6	340.6	18.9	99.4	0	52.32
7710	2010-12-15T05:00:00	2	ND	13.63	370.31	ND	ND	0.8	3.1	19.1	100	0	0.76
7711	2010-12-15T06:00:00	5	ND	20.82	415.48	ND	ND	1	351.7	19.3	99.7	0	0
7712	2010-12-15T07:00:00	4	ND	24.48	404.53	ND	ND	0.4	216.9	20	94.6	10.4	0.25
7713	2010-12-15T08:00:00	9	ND	34.63	856.05	ND	ND	0.3	207.5	20.5	89.3	29	0
7714	2010-12-15T09:00:00	6	ND	34.06	1207.29	ND	ND	0.9	244.2	20.5	89.7	98.8	0
7715	2010-12-15T10:00:00	16	ND	41.57	2155.07	ND	ND	0.6	108.4	21.2	87.2	155.7	0
7716	2010-12-15T11:00:00	23	ND	48.64	2058.42	ND	ND	1	27.8	21.9	85.3	257.6	0
7717	2010-12-15T12:00:00	31	ND	62.89	2017.97	ND	ND	1.9	17.4	23.4	77.3	532.8	0
7718	2010-12-15T13:00:00	16	ND	55.68	1675.00	ND	ND	1.3	10.3	24.7	70.2	468.6	0
7719	2010-12-15T14:00:00	18	ND	50.16	1201.68	ND	ND	0.8	51.2	25.4	66.8	448.3	0
7720	2010-12-15T15:00:00	11	ND	42.25	1078.32	ND	ND	3.1	274.8	25.8	57.6	372.7	0
7721	2010-12-15T16:00:00	20	ND	50.12	1148.68	ND	ND	1.5	152.7	22.9	78.4	29.5	7.37
7722	2010-12-15T17:00:00	10	ND	24.31	841.78	ND	ND	2.1	190.8	20.2	90.6	9	3.56
7723	2010-12-15T18:00:00	25	ND	65.32	1341.31	ND	ND	0.5	94.3	19.7	95.1	0	38.61
7724	2010-12-15T19:00:00	14	ND	67.89	1856.63	ND	ND	0.7	33.3	19.2	99.2	0	18.54
7725	2010-12-15T20:00:00	26	ND	56.75	2628.55	ND	ND	0.8	67.3	19.2	99.3	0	3.81
7726	2010-12-15T21:00:00	14	ND	59.87	2785.81	ND	ND	1	58.1	19.3	98.1	0	0.25
7727	2010-12-15T22:00:00	13	ND	53.17	2775.53	ND	ND	0.9	6.9	19.7	95.3	0	0
7728	2010-12-15T23:00:00	26	ND	50.21	2362.99	ND	ND	0.5	17.8	19.9	93.8	0	0.25
7729	2010-12-16T00:00:00	23	ND	46.06	1734.04	ND	ND	0	359.7	20	93.5	0	0.25
7730	2010-12-16T01:00:00	12	ND	46.54	1824.74	ND	ND	0.2	208.6	19.8	92.8	0	0.25
7731	2010-12-16T02:00:00	8	18.72	47.12	1530.84	ND	ND	1	246	19.7	92.5	0	0.25
7732	2010-12-16T03:00:00	5	ND	32.74	1046.47	ND	ND	0.6	219.7	19.8	90.2	0	0
7733	2010-12-16T04:00:00	5	ND	26.02	799.19	ND	ND	0.8	156.1	19.4	95.2	0	0
7734	2010-12-16T05:00:00	3	ND	23.88	505.84	ND	ND	1	161.8	19	96.8	0	0
7735	2010-12-16T06:00:00	8	ND	23.01	651.07	ND	ND	1.1	184.2	19	96.4	0	0
7736	2010-12-16T07:00:00	5	ND	19.80	381.66	ND	ND	0.6	192	19.2	93.3	13.1	0
7737	2010-12-16T08:00:00	20	ND	24.45	797.55	ND	ND	0.2	45.1	19.8	88.3	79.5	0.25
7738	2010-12-16T09:00:00	34	ND	25.93	1328.23	ND	ND	1.1	38.8	20.7	84.7	240.8	0
7739	2010-12-16T10:00:00	32	ND	47.82	2393.64	ND	ND	0.8	63	22.1	76.7	300.4	0
7740	2010-12-16T11:00:00	24	ND	78.78	2677.32	ND	ND	1	77.8	23.3	72.3	442.3	0
7741	2010-12-16T12:00:00	44	ND	79.16	1788.34	ND	ND	1.1	132.1	23.1	73.2	137.6	0
7742	2010-12-16T13:00:00	23	ND	56.24	1457.03	ND	ND	0.3	91.6	23.4	72.3	263.8	0
7743	2010-12-16T14:00:00	32	ND	81.66	2051.02	ND	ND	1.3	23.9	24.6	66.3	338.9	0
7744	2010-12-16T15:00:00	23	ND	54.55	1132.63	ND	ND	1.3	23	25	64.2	304.5	0
7745	2010-12-16T16:00:00	27	ND	60.12	1432.01	ND	ND	0.4	131.9	25.2	61.4	226.8	0
7746	2010-12-16T17:00:00	21	ND	59.82	1536.14	ND	ND	0.6	178.4	25.1	60.9	124.7	0
7747	2010-12-16T18:00:00	57	ND	56.90	1524.17	ND	ND	1.2	179.4	24.6	65.8	18.9	0
7748	2010-12-16T19:00:00	41	ND	63.88	2070.77	ND	ND	1.4	210.4	23.7	67.2	0	0
7749	2010-12-16T20:00:00	40	ND	108.58	2475.12	ND	ND	1.6	250.6	23.2	67.3	0	0
7750	2010-12-16T21:00:00	30	ND	76.08	2265.99	ND	ND	2.2	263.1	22.7	69.1	0	0
7751	2010-12-16T22:00:00	22	ND	46.40	1909.77	ND	ND	1.4	263.6	22.3	70.3	0	0
7752	2010-12-16T23:00:00	17	ND	40.03	1509.85	ND	ND	0.5	297	21.9	73.3	0	0
7753	2010-12-17T00:00:00	32	ND	36.85	1349.09	ND	ND	0.3	347.9	21.6	80.4	0	0
7754	2010-12-17T01:00:00	41	ND	41.19	1619.53	ND	ND	0.2	38.8	21.2	84.4	0	0
7755	2010-12-17T02:00:00	36	ND	40.18	1673.88	ND	ND	0.2	220.7	21.1	82.6	0	0
7756	2010-12-17T03:00:00	40	ND	36.73	1662.00	ND	ND	0.8	225.2	20.9	85.2	0	0
7757	2010-12-17T04:00:00	32	ND	37.84	1785.16	ND	ND	0.5	234	20.9	84	0	0
7758	2010-12-17T05:00:00	25	ND	35.81	1547.89	ND	ND	0.2	199.1	21	82.8	0	0
7759	2010-12-17T06:00:00	18	ND	29.38	1062.42	ND	ND	0.4	153.1	20.6	89.4	0	0
7760	2010-12-17T07:00:00	26	ND	22.32	654.64	ND	ND	0.6	139.6	20.5	91.2	20.4	0
7761	2010-12-17T08:00:00	81	ND	27.19	1399.10	ND	ND	0.5	107.9	20.8	89.2	36.1	0
7762	2010-12-17T09:00:00	102	ND	31.85	2507.40	ND	ND	0.6	124.6	21.6	85.5	175.6	0
7763	2010-12-17T10:00:00	76	ND	50.09	3556.17	ND	ND	1.1	110.2	23.3	75.2	377.8	0
7764	2010-12-17T11:00:00	64	ND	83.60	3553.90	ND	ND	1	153.6	25.1	66	594.2	0
7765	2010-12-17T12:00:00	50	ND	80.68	1925.27	ND	ND	0.9	171.7	25.1	66.1	257.8	0
7766	2010-12-17T13:00:00	33	ND	48.53	1294.97	ND	ND	0.5	125.8	25.7	62.9	338.2	0
7767	2010-12-17T14:00:00	44	ND	46.63	1469.82	ND	ND	1.3	79.4	27	58.7	523.6	0
7768	2010-12-17T15:00:00	32	ND	50.97	1326.29	ND	ND	1.6	75.6	26.8	60.1	177.2	0
7769	2010-12-17T16:00:00	52	ND	82.84	1498.29	ND	ND	0.4	88	26.9	58.8	127.8	0
7770	2010-12-17T17:00:00	28	ND	90.19	1671.72	ND	ND	1.7	246	26	58.5	31.1	0
7771	2010-12-17T18:00:00	45	ND	71.39	1597.74	ND	ND	2.5	209.6	22.4	74.5	4.3	0
7772	2010-12-17T19:00:00	31	ND	51.70	1578.50	ND	ND	2.1	261.1	23	70.8	0	0
7773	2010-12-17T20:00:00	29	ND	75.19	1706.88	ND	ND	2.3	278.8	23.8	64.3	0	0
7774	2010-12-17T21:00:00	53	ND	65.13	1939.69	ND	ND	0.8	63.3	23	71	0	0
7775	2010-12-17T22:00:00	69	ND	31.88	1194.81	ND	ND	0.8	205.5	22.2	77.8	0	0
7776	2010-12-17T23:00:00	51	ND	71.68	2984.64	ND	ND	1.3	194.5	21.8	80.6	0	0
7777	2010-12-18T00:00:00	53	ND	65.21	3025.93	ND	ND	0.8	210	21.9	78.9	0	0
7778	2010-12-18T01:00:00	27	ND	67.51	2845.56	ND	ND	1.4	189.1	21.7	81	0	0
7779	2010-12-18T02:00:00	39	ND	58.09	2481.10	ND	ND	1.6	188	21.3	83.9	0	0
7780	2010-12-18T03:00:00	19	ND	49.85	1708.39	ND	ND	1.2	199.6	20.7	86.5	0	0
7781	2010-12-18T04:00:00	10	ND	42.99	1140.37	ND	ND	0.1	256.4	20.4	89.2	0	0
7782	2010-12-18T05:00:00	6	ND	18.95	349.66	ND	ND	0.9	98.1	20.4	89.9	0	0
7783	2010-12-18T06:00:00	4	ND	27.78	800.83	ND	ND	1.4	77.4	19.2	96.3	0	20.57
7784	2010-12-18T07:00:00	3	ND	38.78	943.58	ND	ND	0.5	14.6	18.9	98	0	16.26
7785	2010-12-18T08:00:00	3	ND	25.39	751.85	ND	ND	0.5	84.4	18.8	98.5	6.4	14.99
7786	2010-12-18T09:00:00	3	ND	35.34	1099.34	ND	ND	0.4	167.9	19	97.9	52.7	2.79
7787	2010-12-18T10:00:00	4	ND	45.38	1717.49	ND	ND	1	176.9	19.9	93	114.5	0.25
7788	2010-12-18T11:00:00	4	ND	56.22	2150.66	ND	ND	1.5	123	20.4	90.6	220.2	0
7789	2010-12-18T12:00:00	28	ND	70.39	2379.92	ND	ND	1.6	143.2	21.7	82.8	436.6	0
7790	2010-12-18T13:00:00	15	ND	70.13	2685.02	ND	ND	1.4	165.4	22.7	76.9	454.2	0
7791	2010-12-18T14:00:00	16	ND	55.24	1580.10	ND	ND	1.6	167.2	24.2	69.1	743.8	0
7792	2010-12-18T15:00:00	13	ND	46.26	1051.13	ND	ND	1.4	164.3	25	63.8	518.5	0
7793	2010-12-18T16:00:00	23	ND	44.56	996.68	ND	ND	1	270.6	24.4	63.3	130.3	0
7794	2010-12-18T17:00:00	13	ND	40.39	1200.47	ND	ND	1.9	289.3	23	70.8	69.6	0
7795	2010-12-18T18:00:00	32	ND	42.17	1160.68	ND	ND	1.7	288.4	23	69.4	19.6	0
7796	2010-12-18T19:00:00	22	ND	49.56	1490.67	ND	ND	0.9	287	22.6	67.3	0	0
7797	2010-12-18T20:00:00	34	ND	58.27	1670.48	ND	ND	0.4	46.5	22	73.1	0	0
7798	2010-12-18T21:00:00	49	ND	56.72	1508.32	ND	ND	0.2	200.5	21.4	76.4	0	0
7799	2010-12-18T22:00:00	36	ND	54.26	2467.25	ND	ND	0.8	258.5	21.4	72.1	0	0
7800	2010-12-18T23:00:00	31	ND	50.35	2127.72	ND	ND	1.8	203.5	21	78.2	0	0
7801	2010-12-19T00:00:00	24	ND	42.18	1751.86	ND	ND	1.1	159.1	20.6	80.7	0	0
7802	2010-12-19T01:00:00	13	ND	40.92	1343.14	ND	ND	0.3	90.5	20.3	82.4	0	0
7803	2010-12-19T02:00:00	8	ND	44.60	2040.85	ND	ND	0.6	2.3	19.5	90	0	0.51
7804	2010-12-19T03:00:00	5	ND	40.67	1349.36	ND	ND	0.3	172.6	19.6	89.7	0	0
7805	2010-12-19T04:00:00	28	ND	41.61	1361.07	ND	ND	0.1	218.2	19.6	90.5	0	0
7806	2010-12-19T05:00:00	21	ND	40.91	1496.05	ND	ND	0.7	195.6	19.7	89.7	0	0
7807	2010-12-19T06:00:00	12	ND	39.70	1519.06	ND	ND	0.5	167.6	19.7	89.1	0	0
7808	2010-12-19T07:00:00	8	ND	39.74	1530.32	ND	ND	0.5	148.4	19.7	88.6	13.1	0
7809	2010-12-19T08:00:00	25	ND	34.63	1384.04	ND	ND	0.4	155.8	19.8	88.3	62.7	0.25
7810	2010-12-19T09:00:00	14	ND	36.42	1575.86	ND	ND	0.6	125.9	20.3	87.1	93	0
7811	2010-12-19T10:00:00	33	ND	42.54	1341.77	ND	ND	0.9	150.4	21.1	81.4	213.2	0
7812	2010-12-19T11:00:00	19	ND	55.39	1650.70	ND	ND	0.8	121.8	22.5	72.8	382.7	0
7813	2010-12-19T12:00:00	11	ND	58.01	1579.04	ND	ND	0.8	139.4	24.6	62.9	689.2	0
7814	2010-12-19T13:00:00	6	ND	42.26	1029.66	ND	ND	1.1	106.5	25.6	58.5	509.9	0
7815	2010-12-19T14:00:00	14	ND	30.95	1067.56	ND	ND	0.3	20.5	25.4	61.3	386.6	0.76
7816	2010-12-19T15:00:00	7	ND	40.17	1078.32	ND	ND	1.3	312.5	21.2	84.4	39.9	15.49
7817	2010-12-19T16:00:00	9	ND	35.98	995.28	ND	ND	0.9	256.4	22.2	77.3	58.3	0.25
7818	2010-12-19T17:00:00	20	ND	39.33	1112.15	ND	ND	0.5	77	22.3	78.3	26.2	0
7819	2010-12-19T18:00:00	18	ND	48.86	1419.03	ND	ND	1.1	28	21.7	81	6	0
7820	2010-12-19T19:00:00	26	ND	66.18	1982.61	ND	ND	1.1	17.4	21.3	84.9	0	0
7821	2010-12-19T20:00:00	20	ND	68.65	2047.80	ND	ND	0.2	339.3	21.6	81.1	0	0
7822	2010-12-19T21:00:00	13	ND	63.83	1936.64	ND	ND	1.1	205.2	21.4	78.7	0	0
7823	2010-12-19T22:00:00	7	ND	63.02	1969.28	ND	ND	1.6	212.5	21.3	76.1	0	0
7824	2010-12-19T23:00:00	5	ND	49.85	2002.55	ND	ND	0.2	230.5	20.9	81.5	0	0
7825	2010-12-20T00:00:00	7	ND	35.46	1468.80	ND	ND	0.5	15.6	20.6	89.3	0	0.51
7826	2010-12-20T01:00:00	5	ND	44.24	1478.59	ND	ND	0.7	316.6	19.9	90.9	0	0.25
7827	2010-12-20T02:00:00	4	ND	49.02	2083.10	ND	ND	0.5	162.3	19.8	88.8	0	0
7828	2010-12-20T03:00:00	4	ND	39.51	1226.92	ND	ND	0.3	157.5	19.7	91.8	0	0.25
7829	2010-12-20T04:00:00	2	ND	24.81	810.17	ND	ND	0.3	129.4	19.6	93	0	0
7830	2010-12-20T05:00:00	14	ND	14.41	596.17	ND	ND	0.6	160.7	19.6	93.4	0	0
7831	2010-12-20T06:00:00	25	ND	9.23	562.42	ND	ND	0.8	249	19.4	87	0	0
7832	2010-12-20T07:00:00	15	ND	15.28	618.24	ND	ND	0.7	277.2	19.4	85.3	11.3	0
7833	2010-12-20T08:00:00	31	ND	16.61	663.21	ND	ND	0.6	293.4	20.2	84.9	75.7	0
7834	2010-12-20T09:00:00	27	ND	20.74	1217.33	ND	ND	0.4	147.5	21.6	78	240.4	0
7835	2010-12-20T10:00:00	31	ND	37.24	1993.26	ND	ND	1.1	125.2	22.8	71.9	353.1	0
7836	2010-12-20T11:00:00	21	ND	83.25	1910.41	ND	ND	0.3	15.9	23.1	72	226	0
7837	2010-12-20T12:00:00	38	ND	63.70	1331.81	ND	ND	0.6	38.8	24.4	64.9	343.9	0
7838	2010-12-20T13:00:00	22	ND	65.26	1406.26	ND	ND	0.6	5.4	25.1	62.5	460.2	0
7839	2010-12-20T14:00:00	31	ND	67.02	1581.47	ND	ND	0.9	65.4	25.6	59.6	244.2	0
7840	2010-12-20T15:00:00	17	ND	82.06	1767.79	ND	ND	0.7	353	26	58.1	464.6	0
7841	2010-12-20T16:00:00	39	ND	74.17	1643.72	ND	ND	0.9	34.3	24.6	66.7	99	0.51
7842	2010-12-20T17:00:00	21	ND	49.98	1247.04	ND	ND	1.4	51.5	23.6	70.6	61.8	0.51
7843	2010-12-20T18:00:00	21	ND	59.46	1892.77	ND	ND	1.2	60.9	21.7	84.1	10.7	0.51
7844	2010-12-20T19:00:00	33	ND	51.65	2118.56	ND	ND	0.4	61.5	22	80.6	0	0
7845	2010-12-20T20:00:00	56	ND	65.42	3266.13	ND	ND	0.4	129	22	80.5	0	0
7846	2010-12-20T21:00:00	29	ND	58.94	4082.67	ND	ND	0.9	178.9	21.8	83.8	0	0
7847	2010-12-20T22:00:00	47	ND	53.23	4442.56	ND	ND	1.4	189.2	21.3	85.9	0	0
7848	2010-12-20T23:00:00	24	ND	52.01	3790.13	ND	ND	1	183.5	21.3	85.1	0	0.25
7849	2010-12-21T00:00:00	33	ND	43.95	2443.79	ND	ND	0.9	160.9	20.8	87.3	0	0
7850	2010-12-21T01:00:00	18	ND	41.93	2044.32	ND	ND	0.9	185.3	20.5	88.9	0	0
7851	2010-12-21T02:00:00	28	ND	28.68	1421.67	ND	ND	0.7	179.4	20.4	89.5	0	0
7852	2010-12-21T03:00:00	15	ND	20.95	958.73	ND	ND	0.5	204	20.1	92	0	0
7853	2010-12-21T04:00:00	13	ND	19.93	777.47	ND	ND	0.8	223.6	20	91.4	0	0
7854	2010-12-21T05:00:00	7	ND	20.63	934.90	ND	ND	0.8	249.7	19.7	92.8	0	0
7855	2010-12-21T06:00:00	5	ND	18.61	945.20	ND	ND	0.4	158	19.8	93.1	0	0
7856	2010-12-21T07:00:00	11	ND	13.38	832.96	ND	ND	0.3	79.8	20.1	91.6	10.6	0
7857	2010-12-21T08:00:00	36	ND	28.86	1735.23	ND	ND	0.4	99.6	20.4	90.3	44.1	0
7858	2010-12-21T09:00:00	23	ND	36.46	2876.20	ND	ND	0.1	358.4	20.7	87.6	48.8	2.29
7859	2010-12-21T10:00:00	36	ND	53.48	2754.95	ND	ND	0.2	306.9	21.1	86.3	172.1	0.51
7860	2010-12-21T11:00:00	19	ND	60.26	2600.41	ND	ND	0.1	64.4	23	75.9	308.9	0.25
7861	2010-12-21T12:00:00	39	ND	ND	ND	ND	ND	0.7	110.2	24.6	67	482.9	0
7862	2010-12-21T13:00:00	21	ND	ND	ND	ND	ND	0.7	98.3	25.8	63.1	508.5	0
7863	2010-12-21T14:00:00	29	12.22	77.71	2021.68	ND	ND	1.1	51.6	26.8	58.6	458.1	0
7864	2010-12-21T15:00:00	17	16.98	79.54	1728.79	ND	ND	1	64.3	27.8	53.4	654.2	0
7865	2010-12-21T16:00:00	23	17.24	58.61	1526.41	ND	ND	0.8	359.5	27.7	54.1	313.4	0
7866	2010-12-21T17:00:00	22	11.08	50.63	1444.98	ND	ND	1.5	280.5	27.3	54.5	196.1	0
7867	2010-12-21T18:00:00	48	27.01	59.81	1373.79	ND	ND	2.8	274.3	25.6	58.3	35	0
7868	2010-12-21T19:00:00	62	18.06	43.95	1297.14	ND	ND	3.4	271.5	24.4	61.4	0	0
7869	2010-12-21T20:00:00	57	9.15	42.42	1600.62	ND	ND	2.7	274.8	24	62.9	0	0
7870	2010-12-21T21:00:00	30	4.86	38.50	1472.87	ND	ND	2.7	276.8	23.9	63.6	0	0
7871	2010-12-21T22:00:00	25	3.60	36.76	1460.96	ND	ND	1	308	23.3	68.1	0	0
7872	2010-12-21T23:00:00	69	2.66	32.58	1150.46	ND	ND	0.9	90.3	21.9	77.7	0	0
7873	2010-12-22T00:00:00	68	2.62	31.20	1575.83	ND	ND	0.3	80.4	21.1	80.2	0	0
7874	2010-12-22T01:00:00	71	6.13	33.29	2984.82	ND	ND	0.3	130.1	21	80.9	0	0
7875	2010-12-22T02:00:00	44	5.43	28.23	1808.37	ND	ND	0.4	166.6	20.7	83	0	0
7876	2010-12-22T03:00:00	26	6.20	28.40	1964.59	ND	ND	0.5	177.7	21	85.2	0	0
7877	2010-12-22T04:00:00	41	4.32	26.05	1503.21	ND	ND	0.4	55.1	20.6	85.4	0	0
7878	2010-12-22T05:00:00	28	2.74	21.62	959.39	ND	ND	0.2	82.5	20.3	85.7	0	0
7879	2010-12-22T06:00:00	47	2.84	19.46	935.86	ND	ND	0.2	36.1	20.3	85.6	0	0
7880	2010-12-22T07:00:00	55	2.81	17.85	845.65	ND	ND	0.1	87.6	20.5	85.1	16.1	0
7881	2010-12-22T08:00:00	65	5.19	20.48	1071.89	ND	ND	0.3	82.4	21.4	81.3	116.7	0
7882	2010-12-22T09:00:00	ND	10.51	33.44	1844.78	ND	ND	0.6	173.2	22.5	76.8	176.1	0
7883	2010-12-22T10:00:00	ND	16.14	52.91	2749.11	ND	ND	1.3	183.8	24	69.9	471.1	0
7884	2010-12-22T11:00:00	ND	14.47	62.85	1861.07	ND	ND	1.4	169.3	25.5	62.1	697.2	0
7885	2010-12-22T12:00:00	ND	14.91	51.35	1399.99	ND	ND	0.9	146.7	27	56.9	503.2	0
7886	2010-12-22T13:00:00	ND	14.72	45.66	1568.48	ND	ND	ND	ND	ND	ND	ND	ND
7887	2010-12-22T14:00:00	ND	ND	ND	ND	ND	ND	ND	ND	ND	ND	ND	ND
7888	2010-12-22T15:00:00	ND	ND	ND	ND	ND	ND	ND	ND	ND	ND	ND	ND
7889	2010-12-22T16:00:00	ND	ND	ND	ND	ND	ND	ND	ND	ND	ND	ND	ND
7890	2010-12-22T17:00:00	ND	ND	ND	ND	ND	ND	ND	ND	ND	ND	ND	ND
7891	2010-12-22T18:00:00	ND	ND	ND	ND	ND	ND	ND	ND	ND	ND	ND	ND
7892	2010-12-22T19:00:00	ND	ND	ND	ND	ND	ND	0.5	339.7	25.8	59.4	97.7	0
7893	2010-12-22T20:00:00	ND	ND	ND	ND	ND	ND	0.7	166.7	22.9	71.2	ND	0
7894	2010-12-22T21:00:00	ND	5.23	52.87	830.40	ND	ND	2.2	173.3	20.7	80.2	ND	0
7895	2010-12-22T22:00:00	ND	4.26	66.45	2145.25	ND	ND	0.5	146.9	20.1	85.4	ND	0
7896	2010-12-22T23:00:00	ND	1.91	53.67	2118.33	ND	ND	0.3	169.3	20.5	84.2	ND	0
7897	2010-12-23T00:00:00	ND	0.85	52.51	1895.56	ND	ND	0.5	38.3	20.9	82.4	ND	0
7898	2010-12-23T01:00:00	ND	2.04	66.91	2734.23	ND	ND	0.8	72.8	20.3	87.8	ND	0
7899	2010-12-23T02:00:00	ND	2.53	71.16	3168.38	ND	ND	0.3	72	20.1	88.4	0	0
7900	2010-12-23T03:00:00	ND	3.40	45.42	2118.33	ND	ND	0.5	58.1	20.1	88	0	0
7901	2010-12-23T04:00:00	ND	11.21	44.53	1881.71	ND	ND	0.4	111.1	20.1	88.3	0	0
7902	2010-12-23T05:00:00	74	23.81	44.64	1453.53	ND	ND	1.2	175.1	19.9	88.7	0	0
7903	2010-12-23T06:00:00	58	24.36	39.75	1756.56	ND	ND	0.7	196.9	20	89.2	0	0
7904	2010-12-23T07:00:00	33	13.55	20.63	1576.94	ND	ND	1.1	152.9	20.1	89	15.1	0
7905	2010-12-23T08:00:00	40	7.94	28.55	1701.42	ND	ND	0.4	178.2	20.5	86.8	73.9	0
7906	2010-12-23T09:00:00	38	6.97	35.19	2685.37	ND	ND	0.6	113.6	21.8	80.8	232.7	0
7907	2010-12-23T10:00:00	57	7.00	48.85	2901.26	ND	ND	1.5	109.4	23.4	72.7	445.3	0
7908	2010-12-23T11:00:00	29	9.07	102.45	3862.76	ND	ND	0.4	152.3	24	69.1	411.5	0
7909	2010-12-23T12:00:00	14	6.89	72.57	2660.31	ND	ND	0.3	27.8	25.4	62.4	433.1	0
7910	2010-12-23T13:00:00	17	4.62	36.21	2030.45	ND	ND	1	116.1	26.8	57.4	477.8	0
7911	2010-12-23T14:00:00	27	4.32	65.50	2339.63	ND	ND	1.4	27.4	26.8	55.9	327	0
7912	2010-12-23T15:00:00	14	6.01	79.09	2477.93	ND	ND	1.8	18.2	26.3	59.5	147.3	0
7913	2010-12-23T16:00:00	29	10.87	51.87	1990.55	ND	ND	2.1	274.9	26.1	57.9	115.7	0
7914	2010-12-23T17:00:00	26	23.62	64.78	2368.66	ND	ND	2	242.5	24.9	60.4	35.5	0
7915	2010-12-23T18:00:00	42	17.29	43.08	2324.80	ND	ND	1.9	204.5	23.9	66.9	10.2	0
7916	2010-12-23T19:00:00	32	9.16	44.74	2750.72	ND	ND	1.3	186.1	23.7	67.8	0	0
7917	2010-12-23T20:00:00	52	8.87	50.41	3159.49	ND	ND	1.7	158.8	21.7	76.7	0	1.27
7918	2010-12-23T21:00:00	27	8.40	56.85	3761.30	ND	ND	0.9	196.2	20.6	85.4	0	0
7919	2010-12-23T22:00:00	25	5.32	63.41	3024.90	ND	ND	0.3	251.3	21.2	82.6	0	0
7920	2010-12-23T23:00:00	24	3.05	60.60	2635.23	ND	ND	1.1	45.6	20.7	87.3	0	0
7921	2010-12-24T00:00:00	37	3.59	61.70	2992.05	ND	ND	0.3	7.6	20.8	86.9	0	0
7922	2010-12-24T01:00:00	26	4.65	62.09	3456.15	ND	ND	0.6	9.3	20.7	88	0	0
7923	2010-12-24T02:00:00	47	5.99	61.59	3093.67	ND	ND	0.4	157.9	20.2	89.5	0	0
7924	2010-12-24T03:00:00	36	6.65	55.74	2953.15	ND	ND	0.5	186.7	19.9	90.8	0	0
7925	2010-12-24T04:00:00	30	10.04	49.70	2702.40	ND	ND	0.3	142.1	19.9	89.5	0	0
7926	2010-12-24T05:00:00	16	7.60	40.76	2848.78	ND	ND	0.6	157.6	19.8	86.9	0	0
7927	2010-12-24T06:00:00	18	6.64	34.18	2228.72	ND	ND	0.6	168.3	19.6	88.9	0	0
7928	2010-12-24T07:00:00	22	4.71	28.57	2238.45	ND	ND	0.3	96.9	19.7	87.2	22.6	0
7929	2010-12-24T08:00:00	60	4.63	32.32	2644.30	ND	ND	0.2	59.4	20.6	84.3	125.4	0
7930	2010-12-24T09:00:00	43	6.56	37.34	3465.09	ND	ND	0.6	113.5	22.7	74.4	293.9	0
7931	2010-12-24T10:00:00	67	7.38	63.47	3444.40	ND	ND	1	108.4	23.4	72.7	346.3	0
7932	2010-12-24T11:00:00	38	10.03	100.58	3144.90	ND	ND	0.9	71.8	24.2	70.1	346.3	0
7933	2010-12-24T12:00:00	44	8.99	89.64	3061.99	ND	ND	0.6	58.4	25.2	65.3	382	0
7934	2010-12-24T13:00:00	42	6.42	56.26	2430.32	ND	ND	1.7	42	25.8	64.2	387.1	0
7935	2010-12-24T14:00:00	58	6.83	57.30	2446.69	ND	ND	1.6	26	26.3	60.6	324	0
7936	2010-12-24T15:00:00	32	7.24	62.77	2531.33	ND	ND	1.5	22.3	27.8	54.6	549.6	0
7937	2010-12-24T16:00:00	38	10.92	66.27	2555.58	ND	ND	1	346.7	28	53.8	315.2	0
7938	2010-12-24T17:00:00	21	20.96	63.62	2418.42	ND	ND	2.3	277.1	27.2	52.1	166.7	0
7939	2010-12-24T18:00:00	18	28.82	42.10	1881.13	ND	ND	3.2	273.8	25.9	55.9	21.5	0
7940	2010-12-24T19:00:00	10	9.38	30.00	1758.07	ND	ND	2.6	272.5	25.1	58.1	0	0
7941	2010-12-24T20:00:00	6	5.24	23.38	1730.45	ND	ND	2.3	263.9	24.4	61.3	0	0
7942	2010-12-24T21:00:00	4	4.84	32.10	2046.51	ND	ND	1.7	268.2	23.7	64.4	0	0
7943	2010-12-24T22:00:00	23	5.17	37.65	2167.16	ND	ND	1.2	218.3	23.1	71.6	0	0
7944	2010-12-24T23:00:00	29	3.96	34.98	2231.07	ND	ND	0.6	220.4	22.3	76.9	0	0
7945	2010-12-25T00:00:00	54	5.40	35.52	2928.89	ND	ND	0.8	222.7	22.3	76.2	0	0
7946	2010-12-25T01:00:00	39	7.53	36.06	3791.66	ND	ND	0.7	263.6	22.3	72.8	0	0
7947	2010-12-25T02:00:00	60	6.34	38.48	2792.66	ND	ND	0.4	74.3	21.5	78.8	0	0
7948	2010-12-25T03:00:00	52	7.95	29.82	2151.09	ND	ND	0.2	83	20.7	83.4	0	0
7949	2010-12-25T04:00:00	68	7.95	28.01	3025.93	ND	ND	0.8	162.2	20.8	84	0	0
7950	2010-12-25T05:00:00	46	6.97	22.80	2699.41	ND	ND	0.9	175.8	20.6	84.2	0	0
7951	2010-12-25T06:00:00	35	7.02	23.34	2821.73	ND	ND	1.1	176.8	20.6	85.1	0	0
7952	2010-12-25T07:00:00	23	5.21	21.51	1997.79	ND	ND	0.4	155.2	20.6	85.6	12.5	0
7953	2010-12-25T08:00:00	27	4.72	19.97	1851.06	ND	ND	0.5	173.8	21.1	85.3	82	0
7954	2010-12-25T09:00:00	15	4.06	19.89	1876.82	ND	ND	0.6	194.4	22.4	78.5	265	0
7955	2010-12-25T10:00:00	9	4.60	19.36	1839.69	ND	ND	0.5	81.3	24.9	67	525.6	0
7956	2010-12-25T11:00:00	7	5.76	16.49	1798.00	ND	ND	0.8	18.7	26	61.5	469.1	0
7957	2010-12-25T12:00:00	17	6.34	23.89	1781.65	ND	ND	0.2	4.7	26.1	60.7	283.3	0
7958	2010-12-25T13:00:00	11	7.89	23.74	1724.75	ND	ND	1.1	217.8	27.7	54.3	692.7	0
7959	2010-12-25T14:00:00	32	7.51	31.70	1918.94	ND	ND	0.9	62.2	28.6	51.2	444	0
7960	2010-12-25T15:00:00	18	7.03	21.69	1866.71	ND	ND	1.4	322.6	28.3	51.3	222.7	0
7961	2010-12-25T16:00:00	10	8.64	26.03	1806.94	ND	ND	2.7	273.4	27.9	51.5	288.8	0
7962	2010-12-25T17:00:00	9	11.51	19.63	1526.92	ND	ND	3.4	274.7	27.3	52.5	138.5	0
7963	2010-12-25T18:00:00	7	4.07	11.22	1500.78	ND	ND	3.6	273	26.1	56	45.3	0
7964	2010-12-25T19:00:00	6	2.89	7.45	1437.30	ND	ND	3	270.5	25	59.4	0	0
7965	2010-12-25T20:00:00	4	2.70	7.74	1420.55	ND	ND	2.4	272.9	24.8	60.7	0	0
7966	2010-12-25T21:00:00	2	2.20	10.45	1213.53	ND	ND	1.1	280.2	24.6	61.4	0	0
7967	2010-12-25T22:00:00	1	2.51	20.35	1304.24	ND	ND	1.2	268.4	24.3	62.6	0	0
7968	2010-12-25T23:00:00	2	2.56	24.95	1405.79	ND	ND	1.5	187.9	23.4	72.9	0	0
7969	2010-12-26T00:00:00	16	2.14	21.84	1504.08	ND	ND	1.9	191.3	23.1	75.5	0	0
7970	2010-12-26T01:00:00	10	3.75	38.08	2640.86	ND	ND	1.4	192.7	22.8	79.4	0	0
7971	2010-12-26T02:00:00	18	2.94	29.00	1842.18	ND	ND	0.7	190.5	22.5	80.9	0	0
7972	2010-12-26T03:00:00	16	2.42	26.39	1658.55	ND	ND	1.3	222.9	22.2	79.4	0	0
7973	2010-12-26T04:00:00	13	3.04	24.61	1747.66	ND	ND	0.9	333.9	21.7	83.4	0	0
7974	2010-12-26T05:00:00	8	2.75	22.28	1620.08	ND	ND	0.5	22	21.3	88	0	0
7975	2010-12-26T06:00:00	12	3.60	21.26	1538.68	ND	ND	0.7	14.4	20.7	91.4	0	0
7976	2010-12-26T07:00:00	6	6.56	21.44	1671.03	ND	ND	0.6	211.7	21.1	88.5	5.2	0
7977	2010-12-26T08:00:00	9	13.08	28.81	1797.68	ND	ND	0	337.5	21.6	86.6	43.6	0
7978	2010-12-26T09:00:00	10	17.20	25.01	1778.08	ND	ND	0.3	177.7	22.3	82.9	135.3	0
7979	2010-12-26T10:00:00	29	12.85	35.07	2009.35	ND	ND	0.9	61.3	23.6	75.5	278.7	0
7980	2010-12-26T11:00:00	31	12.13	44.45	2052.41	ND	ND	2	21.7	24.3	73.3	382.9	0
7981	2010-12-26T12:00:00	18	5.18	39.93	1874.38	ND	ND	1.6	38.4	25.2	66.7	431.9	0
7982	2010-12-26T13:00:00	11	20.90	52.88	1902.98	ND	ND	1.6	30.3	25.6	64.9	450	0
7983	2010-12-26T14:00:00	6	12.84	27.03	1710.39	ND	ND	1	20.1	26.4	61.7	499.4	0
7984	2010-12-26T15:00:00	5	8.32	20.15	1668.93	ND	ND	0.9	55.8	26.5	60.6	307.9	0
7985	2010-12-26T16:00:00	8	10.17	18.65	1657.98	ND	ND	0.2	39.5	26.2	61.8	64.7	0
7986	2010-12-26T17:00:00	8	12.23	25.96	1725.33	ND	ND	1.4	289.6	25.6	60	83.2	0
7987	2010-12-26T18:00:00	6	12.02	35.44	1744.83	ND	ND	1.5	260.9	24.8	62.4	34.5	0
7988	2010-12-26T19:00:00	4	5.16	15.30	1511.19	ND	ND	2.6	272.3	24.2	63.8	0	0
7989	2010-12-26T20:00:00	10	5.46	27.03	1908.03	ND	ND	2.3	277.1	24	63.6	0	0
7990	2010-12-26T21:00:00	7	5.30	18.30	1552.80	ND	ND	1.1	313	24.1	62.1	0	0
7991	2010-12-26T22:00:00	4	3.79	13.93	1427.68	ND	ND	0.7	329	24	63.9	0	0
7992	2010-12-26T23:00:00	14	3.45	24.89	1666.97	ND	ND	0.5	137	22.8	74.4	0	0
7993	2010-12-27T00:00:00	36	4.24	31.03	2308.41	ND	ND	2.2	193.9	22.1	81.2	0	0
7994	2010-12-27T01:00:00	19	6.82	32.55	3210.52	ND	ND	1.8	188.8	21.9	80.4	0	0
7995	2010-12-27T02:00:00	23	4.54	32.99	2074.65	ND	ND	1.5	150.6	20.6	83.3	0	0
7996	2010-12-27T03:00:00	13	3.85	32.79	1749.47	ND	ND	1.1	166	20.3	83.8	0	0
7997	2010-12-27T04:00:00	7	3.95	21.76	1578.55	ND	ND	0.7	145.3	20.2	86	0	0
7998	2010-12-27T05:00:00	5	3.33	20.14	1499.12	ND	ND	0.7	130.3	20.3	85.7	0	0
7999	2010-12-27T06:00:00	4	2.76	14.35	1353.05	ND	ND	0.7	129.6	20.1	87.6	0	0
8000	2010-12-27T07:00:00	4	2.76	19.99	1487.34	ND	ND	0.2	89.2	20	89.1	14.6	0
8001	2010-12-27T08:00:00	26	2.63	25.83	1757.16	ND	ND	0.8	63	21.1	84.7	143.8	0
8002	2010-12-27T09:00:00	15	3.03	29.22	2080.33	ND	ND	0.8	127	23.3	75.2	364.1	0
8003	2010-12-27T10:00:00	35	5.84	46.67	2984.37	ND	ND	1	94.8	25.2	65.9	542	0
8004	2010-12-27T11:00:00	19	13.29	93.14	3209.85	ND	ND	1.1	96	26.3	60.1	533.6	0
8005	2010-12-27T12:00:00	40	11.53	81.85	2634.89	ND	ND	1.1	72.9	26.2	60.3	377.5	0
8006	2010-12-27T13:00:00	22	18.55	52.29	2162.41	ND	ND	1.2	55.4	27.8	55.5	727.6	0
8007	2010-12-27T14:00:00	12	12.40	45.86	2208.67	ND	ND	1.6	47.9	28.6	52.5	495.4	0
8008	2010-12-27T15:00:00	15	12.91	52.53	2191.35	ND	ND	1.3	24.6	28.4	51.7	144.6	0
8009	2010-12-27T16:00:00	37	17.76	51.83	2062.45	ND	ND	1.3	322.4	27.6	52.9	89.6	0
8010	2010-12-27T17:00:00	18	33.25	54.68	2010.75	ND	ND	2.5	269	27.6	51.8	180.5	0
8011	2010-12-27T18:00:00	10	16.33	47.88	2184.09	ND	ND	2.3	274.2	26.6	54.3	31.3	0
8012	2010-12-27T19:00:00	5	6.90	27.72	1934.95	ND	ND	3.2	265.9	25.2	59.9	0	0
8013	2010-12-27T20:00:00	4	6.37	32.53	2052.01	ND	ND	2.5	284.2	24.6	61.7	0	0
8014	2010-12-27T21:00:00	13	5.68	28.01	1944.92	ND	ND	0.6	45.9	23.7	69.2	0	0
8015	2010-12-27T22:00:00	23	4.10	26.68	1745.13	ND	ND	1.4	182	22.4	74.1	0	0
8016	2010-12-27T23:00:00	12	5.35	50.19	2259.87	ND	ND	1.2	183.8	21.9	78	0	0
8017	2010-12-28T00:00:00	11	4.38	48.72	1961.28	ND	ND	0.7	234.3	22	77.7	0	0
8018	2010-12-28T01:00:00	7	3.40	48.42	1689.77	ND	ND	0.3	303.9	21.9	77.1	0	0
8019	2010-12-28T02:00:00	25	3.73	52.43	1961.28	ND	ND	0.8	21.5	21.7	78.6	0	0
8020	2010-12-28T03:00:00	26	3.94	45.39	2231.85	ND	ND	0.6	59	21.1	82.7	0	0
8021	2010-12-28T04:00:00	30	6.98	50.32	2374.29	ND	ND	0.3	353.6	20.9	85.7	0	0
8022	2010-12-28T05:00:00	33	18.19	45.66	2078.92	ND	ND	0.5	50.4	20.9	84.7	0	0
8023	2010-12-28T06:00:00	34	13.75	34.92	1559.19	ND	ND	0.2	238.7	21.1	83.6	0	0
8024	2010-12-28T07:00:00	24	24.41	40.09	1933.35	ND	ND	0.4	164.7	21	85.5	11	0
8025	2010-12-28T08:00:00	52	25.75	37.01	2023.11	ND	ND	0.4	129.7	21.1	87.3	90	0
8026	2010-12-28T09:00:00	66	18.62	37.27	2555.19	ND	ND	0.8	40.8	22.6	78.4	208.4	0
8027	2010-12-28T10:00:00	84	13.85	48.50	2988.68	ND	ND	1.3	55	23.9	73.4	394.5	0
8028	2010-12-28T11:00:00	47	31.51	85.72	3127.38	ND	ND	0.6	53.7	25.4	65.4	496.5	0
8029	2010-12-28T12:00:00	42	117.78	75.27	2477.83	ND	ND	1.1	96.6	27.3	57.6	641.4	0
8030	2010-12-28T13:00:00	32	89.35	75.50	2239.63	ND	ND	1	47.2	27.8	54	489.5	0
8031	2010-12-28T14:00:00	40	42.03	71.63	2416.82	ND	ND	1.2	36	29.4	48.8	562.5	0
8032	2010-12-28T15:00:00	21	26.91	58.71	2139.04	ND	ND	1.2	9.4	29	50.4	377.4	0
8033	2010-12-28T16:00:00	22	22.07	51.42	2054.94	ND	ND	1.3	14.5	29.4	50.5	391.6	0
8034	2010-12-28T17:00:00	13	25.92	47.32	1918.16	ND	ND	1.1	338.4	29	50.1	159.6	0
8035	2010-12-28T18:00:00	10	42.59	61.35	2020.11	ND	ND	2.4	278.8	27.6	53.8	18	0
8036	2010-12-28T19:00:00	16	18.95	43.18	2056.97	ND	ND	2.5	273	26.2	57.5	0	0
8037	2010-12-28T20:00:00	19	9.39	32.94	1782.84	ND	ND	1.6	280.5	25.7	58.3	0	0
8038	2010-12-28T21:00:00	14	8.75	37.23	1745.41	ND	ND	1.6	258.7	25.4	59.4	0	0
8039	2010-12-28T22:00:00	22	8.63	42.66	1778.07	ND	ND	1.4	151.9	24	67.3	0	0
8040	2010-12-28T23:00:00	30	7.44	37.26	1484.29	ND	ND	0.3	149.9	23	71.4	0	0
8041	2010-12-29T00:00:00	52	7.05	55.28	2241.70	ND	ND	0.6	73.6	22.7	73.3	0	0
8042	2010-12-29T01:00:00	29	5.75	62.94	2103.02	ND	ND	0.4	353.3	22.4	75.2	0	0
8043	2010-12-29T02:00:00	40	6.60	66.54	2475.63	ND	ND	0.4	5.1	22.6	74.7	0	0
8044	2010-12-29T03:00:00	24	6.99	60.51	2125.03	ND	ND	0.5	23.3	22.4	75.4	0	0
8045	2010-12-29T04:00:00	42	13.90	49.94	1748.84	ND	ND	0.4	44.5	21.5	80.7	0	0
8046	2010-12-29T05:00:00	25	21.29	48.71	1969.94	ND	ND	0.4	250.6	21.5	76.5	0	0
8047	2010-12-29T06:00:00	33	26.33	44.56	2015.23	ND	ND	0.4	4.6	21.3	79.6	0	0
8048	2010-12-29T07:00:00	17	31.62	27.98	1651.82	ND	ND	0.4	73.7	21	84.5	15.8	0
8049	2010-12-29T08:00:00	69	24.56	36.53	2203.95	ND	ND	0.6	57.1	21.8	79.9	105	0
8050	2010-12-29T09:00:00	45	30.28	42.46	3003.26	ND	ND	0.4	97.2	22.9	74	150.2	0
8051	2010-12-29T10:00:00	65	41.73	68.11	3435.35	ND	ND	0.5	116.4	24.5	67	332.2	0
8052	2010-12-29T11:00:00	54	57.39	105.75	3408.18	ND	ND	1	148.5	26.5	59.6	649.7	0
8053	2010-12-29T12:00:00	43	ND	ND	ND	ND	ND	0.7	136.7	27.9	52	590.5	0
8054	2010-12-29T13:00:00	25	57.10	ND	1561.62	ND	ND	0.8	74.9	28.7	49.9	381.3	0
8055	2010-12-29T14:00:00	41	20.48	42.69	788.69	ND	ND	0.8	95.7	29.4	48.9	640.2	0
8056	2010-12-29T15:00:00	36	15.55	58.25	1057.90	ND	ND	1.1	339.8	29.3	49.3	201.3	0
8057	2010-12-29T16:00:00	31	19.14	59.86	1150.52	ND	ND	3.4	280.4	29.7	47.5	518.1	0
8058	2010-12-29T17:00:00	17	21.98	64.34	1070.58	ND	ND	4	276.7	28.1	51.5	229.7	0
8059	2010-12-29T18:00:00	15	13.29	19.79	625.06	ND	ND	3.6	279.9	26.6	55.7	15.4	0
8060	2010-12-29T19:00:00	9	10.93	18.08	794.71	ND	ND	3.6	280.6	25.2	60.6	0	0
8061	2010-12-29T20:00:00	13	11.06	20.30	859.78	ND	ND	2.7	281	24.9	60.4	0	0
8062	2010-12-29T21:00:00	8	10.53	22.56	755.85	ND	ND	3.3	253.2	24.7	61.8	0	0
8063	2010-12-29T22:00:00	16	10.68	23.93	743.90	ND	ND	1.7	211.1	24.2	67	0	0
8064	2010-12-29T23:00:00	13	8.88	19.52	685.52	ND	ND	1.3	167.3	23.6	71.3	0	0
8065	2010-12-30T00:00:00	14	9.15	24.95	912.18	ND	ND	1.1	149.1	22.8	76.6	0	0
8066	2010-12-30T01:00:00	8	9.83	30.12	909.72	ND	ND	0.5	61.2	22.8	74.9	0	0
8067	2010-12-30T02:00:00	14	9.49	41.32	1057.55	ND	ND	0.9	9.9	22.8	74.6	0	0
8068	2010-12-30T03:00:00	7	8.22	39.60	830.12	ND	ND	0.7	56.4	21.7	80.9	0	0
8069	2010-12-30T04:00:00	9	24.18	40.14	702.41	ND	ND	0.5	36.1	21.7	81.2	0	0
8070	2010-12-30T05:00:00	6	22.54	28.48	566.46	ND	ND	0.8	60.9	21.2	84.8	0	0
8071	2010-12-30T06:00:00	36	16.58	28.80	554.19	ND	ND	0.3	66.3	21.1	85.9	0	0
8072	2010-12-30T07:00:00	30	15.31	26.38	508.78	ND	ND	0.4	62.5	21.5	83.4	12.4	0
8073	2010-12-30T08:00:00	57	15.38	26.75	1052.90	ND	ND	0.8	67.3	22	81.3	105.4	0
8074	2010-12-30T09:00:00	45	17.25	33.60	1689.77	ND	ND	0.7	139.2	24.3	70.3	351.5	0
8075	2010-12-30T10:00:00	52	25.12	54.47	2114.40	ND	ND	1.1	138.2	25.8	63.2	551.5	0
8076	2010-12-30T11:00:00	27	29.16	76.18	1872.35	ND	ND	1.1	108.8	27.3	57.6	659.1	0
8077	2010-12-30T12:00:00	19	20.97	47.64	819.66	ND	ND	0.9	96.7	27.2	57.4	308.9	0
8078	2010-12-30T13:00:00	12	17.74	48.10	1084.82	ND	ND	1.4	112.4	27.8	55.7	289	0
8079	2010-12-30T14:00:00	34	16.77	53.38	1260.44	ND	ND	0.9	150.8	28.2	53.9	544.4	0
8080	2010-12-30T15:00:00	18	15.31	66.91	1644.23	ND	ND	0.6	312	29.4	49.9	572.5	0
8081	2010-12-30T16:00:00	23	15.18	46.02	1034.64	ND	ND	2.8	282.6	30	45.7	532.6	0
8082	2010-12-30T17:00:00	14	13.37	39.09	663.95	ND	ND	3.2	279.2	28.7	48.7	266.1	0
8083	2010-12-30T18:00:00	16	10.93	19.75	533.52	ND	ND	3.4	276.1	26.8	53.7	44.8	0
8084	2010-12-30T19:00:00	9	9.36	19.33	772.19	ND	ND	4.7	272.7	25.5	59.4	0.1	0
8085	2010-12-30T20:00:00	7	9.76	24.54	826.22	ND	ND	2	293.8	25.2	60.4	0	0
8086	2010-12-30T21:00:00	4	9.65	18.26	653.43	ND	ND	2.2	287.8	24.8	60.5	0	0
8087	2010-12-30T22:00:00	3	9.01	22.60	892.97	ND	ND	2	273	24.5	61.1	0	0
8088	2010-12-30T23:00:00	2	8.11	17.00	297.36	ND	ND	1.5	274.7	24.1	64.1	0	0
8089	2010-12-31T00:00:00	18	5.59	17.93	582.50	ND	ND	0.8	75.8	23	72.2	0	0
8090	2010-12-31T01:00:00	17	8.38	22.34	830.68	ND	ND	0.7	220.8	23.1	71.6	0	0
8091	2010-12-31T02:00:00	18	13.17	31.53	1855.43	ND	ND	1.1	200.3	22.7	74	0	0
8092	2010-12-31T03:00:00	10	11.99	30.41	1295.91	ND	ND	1	140.1	22.3	77.6	0	0
8093	2010-12-31T04:00:00	7	10.05	27.75	851.42	ND	ND	0.2	206	22	77.4	0	0
8094	2010-12-31T05:00:00	3	9.52	24.95	952.62	ND	ND	0.9	114.1	22	79	0	0
8095	2010-12-31T06:00:00	17	9.65	24.93	952.62	ND	ND	0.5	67.6	21.7	80.6	0	0
8096	2010-12-31T07:00:00	19	10.39	25.03	1121.59	ND	ND	0.6	150.7	21.4	82.1	7.9	0
8097	2010-12-31T08:00:00	38	10.92	22.22	1007.27	ND	ND	0.6	130.5	22.3	78.5	121.8	0
8098	2010-12-31T09:00:00	32	11.11	22.99	1123.88	ND	ND	1	69.8	23.4	73.1	265.1	0
8099	2010-12-31T10:00:00	33	12.98	34.11	1412.93	ND	ND	1.3	68.1	25.2	65.3	492.1	0
8100	2010-12-31T11:00:00	21	16.83	58.43	1627.85	ND	ND	1.1	128.2	26.6	59.1	660.9	0
8101	2010-12-31T12:00:00	28	23.16	51.79	1635.50	ND	ND	0.7	93	26.8	56.6	274	0
8102	2010-12-31T13:00:00	16	19.59	47.58	1394.56	ND	ND	1.4	274.7	27.2	54.5	230.8	0
8103	2010-12-31T14:00:00	19	21.83	45.00	1130.98	ND	ND	0.9	352.9	28.7	49.1	591.7	0
8104	2010-12-31T15:00:00	9	18.41	42.62	1032.25	ND	ND	2.1	300.2	29.9	43.8	660.3	0
8105	2010-12-31T16:00:00	5	16.83	32.43	873.33	ND	ND	2.7	303	29.8	43.4	490.5	0
8106	2010-12-31T17:00:00	2	10.09	8.94	430.70	ND	ND	3.3	274.5	28.9	45.7	271.8	0
8107	2010-12-31T18:00:00	1	8.60	9.35	464.24	ND	ND	3.7	277.6	27	52.2	77.6	0
8108	2010-12-31T19:00:00	2	8.97	15.04	818.84	ND	ND	3.8	273.4	25.5	58	0.1	0
8109	2010-12-31T20:00:00	2	8.69	16.38	642.62	ND	ND	3.5	271.7	24.9	60.2	0	0
8110	2010-12-31T21:00:00	1	8.96	17.60	790.20	ND	ND	2.4	285.6	24.7	60.4	0	0
8111	2010-12-31T22:00:00	2	9.19	15.18	537.89	ND	ND	1.2	292.4	24.6	61	0	0
8112	2010-12-31T23:00:00	3	8.77	20.58	800.85	ND	ND	1.6	265.5	24	64	0	0
8113	2011-01-01T00:00:00	25	9.32	21.00	833.49	ND	ND	1	303.2	22.5	75.1	0	0
8114	2011-01-01T01:00:00	37	12.13	26.50	1736.90	ND	ND	0.3	356.9	22.3	76.4	0	0
8115	2011-01-01T02:00:00	76	15.39	31.30	2348.33	ND	ND	0.6	34.6	22.1	76.6	0	0
8116	2011-01-01T03:00:00	64	13.58	23.96	1876.82	ND	ND	0.4	79.3	21.1	81	0	0
8117	2011-01-01T04:00:00	72	12.27	22.84	1617.88	ND	ND	0.5	237.6	21.3	77.3	0	0
8118	2011-01-01T05:00:00	37	11.80	19.82	1085.76	ND	ND	0.5	263.6	21.2	74.7	0	0
8119	2011-01-01T06:00:00	35	10.72	19.46	1276.29	ND	ND	0.2	9.1	20.8	82.3	0	0
8120	2011-01-01T07:00:00	29	9.77	21.44	1513.99	ND	ND	0.2	54	20.9	81.9	19.7	0
8121	2011-01-01T08:00:00	36	10.74	22.73	1020.67	ND	ND	0.5	271.6	22	72.1	147.4	0
8122	2011-01-01T09:00:00	20	13.88	45.15	1093.14	ND	ND	0.3	74.5	23.2	68.5	219.2	0
8123	2011-01-01T10:00:00	22	37.59	53.85	939.71	ND	ND	0.8	74.1	25.1	61.9	488.8	0
8124	2011-01-01T11:00:00	30	20.23	23.76	829.27	ND	ND	1.1	105.9	26.6	57.2	662.5	0
8125	2011-01-01T12:00:00	20	16.75	13.96	300.36	ND	ND	0.6	354.3	27.5	53.7	574	0
8126	2011-01-01T13:00:00	12	17.15	15.85	266.50	ND	ND	1.4	49.9	28.4	50.7	489.1	0
8127	2011-01-01T14:00:00	7	24.45	16.85	371.39	ND	ND	1.3	348.7	28.9	48.7	307.6	0
8128	2011-01-01T15:00:00	4	15.83	5.79	360.50	ND	ND	1.2	6.5	29.5	45.7	390.8	0
8129	2011-01-01T16:00:00	3	10.21	1.24	383.63	ND	ND	3.1	275.6	29.4	45.7	446.4	0
8130	2011-01-01T17:00:00	2	9.26	1.11	347.83	ND	ND	3.7	273.6	28.6	48.1	310.7	0
8131	2011-01-01T18:00:00	1	8.98	4.48	450.54	ND	ND	2.7	281.6	27.5	50.8	94.9	0
8132	2011-01-01T19:00:00	2	8.75	5.14	287.17	ND	ND	3.3	282.8	25.8	56.2	0.1	0
8133	2011-01-01T20:00:00	3	8.57	5.03	298.06	ND	ND	3.5	281.3	25.2	58.2	0	0
8134	2011-01-01T21:00:00	9	8.67	1.34	354.90	ND	ND	3.6	280.6	24.8	60	0	0
8135	2011-01-01T22:00:00	5	8.12	7.59	263.31	ND	ND	2.4	268.4	24.8	60.4	0	0
8136	2011-01-01T23:00:00	3	8.00	4.61	377.42	ND	ND	2.7	268.3	24.5	61.2	0	0
8137	2011-01-02T00:00:00	1	8.23	11.39	513.79	ND	ND	0.7	320.4	24	65	0	0
8138	2011-01-02T01:00:00	2	8.69	18.90	682.75	ND	ND	1.5	175.3	23	72.8	0	0
8139	2011-01-02T02:00:00	12	8.36	10.98	476.96	ND	ND	1.4	153.8	22.4	77	0	0
8140	2011-01-02T03:00:00	7	8.16	8.25	486.99	ND	ND	1.2	152.7	21.6	84	0	0
8141	2011-01-02T04:00:00	8	7.72	7.91	372.72	ND	ND	0.8	159.8	20.8	88.6	0	0
8142	2011-01-02T05:00:00	5	7.78	9.54	350.13	ND	ND	0.4	155.1	20.8	87.9	0	0
8143	2011-01-02T06:00:00	4	8.32	10.96	361.43	ND	ND	0.6	170	20.8	87.5	0	0
8144	2011-01-02T07:00:00	3	7.73	12.56	508.43	ND	ND	0.6	171.7	20.9	86.1	11.5	0
8145	2011-01-02T08:00:00	2	8.22	18.06	714.22	ND	ND	0.8	125.7	21.9	82.2	150.1	0
8146	2011-01-02T09:00:00	1	8.86	11.56	489.97	ND	ND	0.7	175.7	23.4	73.7	348.9	0
8147	2011-01-02T10:00:00	1	11.80	21.02	699.52	ND	ND	1.1	102.3	25.3	65	572.6	0
8148	2011-01-02T11:00:00	1	14.02	27.77	829.54	ND	ND	1.2	105.8	26.7	59.9	629.2	0
8149	2011-01-02T12:00:00	2	16.05	20.15	670.47	ND	ND	1.2	78.6	27.7	55.1	594	0
8150	2011-01-02T13:00:00	2	19.58	18.41	580.11	ND	ND	0.8	79.1	28.8	51.5	611.8	0
8151	2011-01-02T14:00:00	2	27.04	18.69	558.01	ND	ND	1.4	52.5	29.4	48.7	640.3	0
8152	2011-01-02T15:00:00	1	14.13	4.57	395.65	ND	ND	2.9	284.3	29.7	45.4	444.7	0
8153	2011-01-02T16:00:00	1	9.51	0.38	290.34	ND	ND	4.6	280.8	29.1	46.4	448.2	0
8154	2011-01-02T17:00:00	2	9.55	0.36	393.17	ND	ND	4.6	282.4	27.8	50.2	294.9	0
8155	2011-01-02T18:00:00	1	9.41	2.42	321.85	ND	ND	4.1	288.8	26	54.4	32.4	0
8156	2011-01-02T19:00:00	2	8.67	1.24	286.21	ND	ND	4.9	273.6	24.8	57.7	0.8	0
8157	2011-01-02T20:00:00	2	8.13	4.17	365.86	ND	ND	4.2	265.9	24.4	60.2	0	0
8158	2011-01-02T21:00:00	2	8.49	6.23	228.35	ND	ND	3.6	261.1	24	61.7	0	0
8159	2011-01-02T22:00:00	2	9.60	19.66	741.65	ND	ND	1.1	310.8	23.8	61.6	0	0
8160	2011-01-02T23:00:00	2	9.87	32.31	1058.98	ND	ND	0.8	52.7	23.2	63	0	0
8161	2011-01-03T00:00:00	12	10.16	34.54	1147.74	ND	ND	0.6	114.9	22.6	67.4	0	0
8162	2011-01-03T01:00:00	7	10.03	28.09	861.60	ND	ND	0.4	92	21.9	71.6	0	0
8163	2011-01-03T02:00:00	4	9.63	17.37	362.04	ND	ND	0.4	21.8	21.3	74.3	0	0
8164	2011-01-03T03:00:00	13	14.17	15.20	395.58	ND	ND	0.2	330.3	21	75.2	0	0
8165	2011-01-03T04:00:00	8	13.40	8.78	350.61	ND	ND	1	252.9	21.2	71.3	0	0
8166	2011-01-03T05:00:00	4	10.06	5.58	282.65	ND	ND	1	255.2	21.1	70.5	0	0
8167	2011-01-03T06:00:00	2	8.09	10.40	248.48	ND	ND	1	250.5	20.8	72.3	0	0
8168	2011-01-03T07:00:00	2	10.15	16.35	711.32	ND	ND	0.6	241.3	20.7	72.3	18.6	0
8169	2011-01-03T08:00:00	13	15.78	52.36	1812.67	ND	ND	0.6	47.2	21.7	74	169.1	0
8170	2011-01-03T09:00:00	8	19.25	64.11	1425.28	ND	ND	0.8	125.6	23.6	66.7	333.2	0
8171	2011-01-03T10:00:00	21	21.52	56.96	1123.07	ND	ND	1.1	95.2	25.1	61.4	559.2	0
8172	2011-01-03T11:00:00	16	19.09	30.22	758.64	ND	ND	1	59	26	56.6	595.4	0
8173	2011-01-03T12:00:00	9	17.14	29.10	658.04	ND	ND	0.9	40.8	27.3	52.2	603.9	0
8174	2011-01-03T13:00:00	7	17.35	41.99	1030.88	ND	ND	1	76.9	28.3	49.2	639.8	0
8175	2011-01-03T14:00:00	14	25.56	42.78	847.24	ND	ND	1.1	38.5	28.9	47.7	322	0
8176	2011-01-03T15:00:00	8	19.04	17.99	567.38	ND	ND	2.8	290.6	28.2	47.6	314.9	0
8177	2011-01-03T16:00:00	6	11.02	11.12	382.11	ND	ND	4.7	276.9	28.2	46.9	470.7	0
8178	2011-01-03T17:00:00	3	9.96	12.77	577.80	ND	ND	3.9	284.4	27.6	48.7	262.9	0
8179	2011-01-03T18:00:00	1	9.94	20.18	713.14	ND	ND	3.1	272.9	26.2	51.7	53	0
8180	2011-01-03T19:00:00	27	9.88	25.20	786.22	ND	ND	3.9	195.3	23.4	68.8	0	0
8181	2011-01-03T20:00:00	22	9.49	24.59	907.26	ND	ND	2.7	172.8	22	75.7	0	0
8182	2011-01-03T21:00:00	17	9.37	25.95	905.72	ND	ND	2	152.5	21.5	78.7	0	0
8183	2011-01-03T22:00:00	24	9.56	26.74	1185.93	ND	ND	1.7	105.5	20.8	85.2	0	0.25
8184	2011-01-03T23:00:00	14	8.19	22.73	709.14	ND	ND	1.7	49.3	19.8	91.7	0	1.52
8185	2011-01-04T00:00:00	9	8.48	24.07	494.43	ND	ND	1.5	47.2	19.3	92.5	0	0.25
8186	2011-01-04T01:00:00	5	9.62	20.29	314.74	ND	ND	1.4	345.8	19.4	91.1	0	0
8187	2011-01-04T02:00:00	3	10.36	11.68	157.37	ND	ND	0.8	0.7	19.4	89.7	0	0.51
8188	2011-01-04T03:00:00	2	11.81	14.65	202.54	ND	ND	0.1	103.4	19.7	88.2	0	0
8189	2011-01-04T04:00:00	1	11.66	6.66	0.00	ND	ND	0.6	243.1	19.7	88	0	0.25
8190	2011-01-04T05:00:00	2	10.80	16.13	112.41	ND	ND	0.3	38.3	19.4	89.7	0	3.56
8191	2011-01-04T06:00:00	3	9.81	20.28	179.73	ND	ND	0.8	311.2	19.2	92.2	0	1.78
8192	2011-01-04T07:00:00	1	10.03	32.45	674.45	ND	ND	0.6	42.2	19.4	91.2	9.2	0.25
8193	2011-01-04T08:00:00	1	14.35	46.85	1239.45	ND	ND	0.7	49.9	20.1	88.1	69.9	0
8194	2011-01-04T09:00:00	1	21.71	58.39	1404.35	ND	ND	0.8	67.1	21.6	80.6	321.5	0
8195	2011-01-04T10:00:00	9	19.82	59.50	1368.27	ND	ND	0.8	132.6	23.6	69.3	520.7	0
8196	2011-01-04T11:00:00	9	ND	ND	ND	ND	ND	1.2	131.5	25.1	62.8	682.5	0
8197	2011-01-04T12:00:00	22	7.93	45.52	940.97	ND	ND	0.4	293.6	25.5	60.7	275.1	0
8198	2011-01-04T13:00:00	33	7.33	31.60	654.53	ND	ND	2.6	310	25.7	59.9	530.4	0
8199	2011-01-04T14:00:00	18	5.66	13.67	506.60	ND	ND	1.5	307.3	26.5	55.4	462.4	0
8200	2011-01-04T15:00:00	10	7.74	25.76	646.49	ND	ND	0.8	325.3	27.3	52.1	551.6	0
8201	2011-01-04T16:00:00	6	8.17	29.63	668.69	ND	ND	1.5	291.8	26.9	53	209.4	0
8202	2011-01-04T17:00:00	5	6.15	22.20	688.98	ND	ND	2.9	278.9	25.7	56.3	115.6	0
8203	2011-01-04T18:00:00	12	7.60	53.45	1217.98	ND	ND	2.2	186.9	23.1	71.5	2.8	0
8204	2011-01-04T19:00:00	10	7.65	64.42	1576.90	ND	ND	1.7	196.1	22.1	77.1	0	0
8205	2011-01-04T20:00:00	10	8.20	65.98	2054.76	ND	ND	0.4	149.9	22.3	76.6	0	0
8206	2011-01-04T21:00:00	23	8.13	59.01	2208.45	ND	ND	1	138.4	21.6	80.2	0	0
8207	2011-01-04T22:00:00	35	5.01	44.06	790.89	ND	ND	1.7	193.6	20.9	84.5	0	0
8208	2011-01-04T23:00:00	18	4.92	43.13	622.26	ND	ND	0.6	173.1	21.3	82.2	0	0
8209	2011-01-05T00:00:00	10	5.54	43.82	871.76	ND	ND	0.6	97.9	21.5	82.1	0	0
8210	2011-01-05T01:00:00	6	3.36	27.43	429.20	ND	ND	0.5	134.3	20.8	86.7	0	0
8211	2011-01-05T02:00:00	4	4.08	23.82	587.32	ND	ND	0.6	82.5	20.8	86.3	0	0
8212	2011-01-05T03:00:00	4	4.70	31.98	790.35	ND	ND	0.7	66.7	20.7	87.7	0	0
8213	2011-01-05T04:00:00	11	7.64	31.45	472.11	ND	ND	0.8	91.5	19.4	97	0	93.98
8214	2011-01-05T05:00:00	14	8.86	34.25	482.69	ND	ND	0.2	249.9	19	99.9	0	7.11
8215	2011-01-05T06:00:00	8	8.32	31.68	786.05	ND	ND	0.3	137	19.1	99.9	0	2.79
8216	2011-01-05T07:00:00	4	7.12	32.35	696.69	ND	ND	0.7	239.4	19.3	99.3	4.3	2.79
8217	2011-01-05T08:00:00	7	7.35	35.87	1336.28	ND	ND	0.8	219.8	19.1	98	17.6	25.65
8218	2011-01-05T09:00:00	12	8.84	46.96	1944.66	ND	ND	0.7	232	19.4	96.8	120.2	4.06
8219	2011-01-05T10:00:00	7	12.65	59.42	1733.96	ND	ND	0.7	144.3	21.8	82.8	454.4	0.25
8220	2011-01-05T11:00:00	3	12.35	53.54	1221.28	ND	ND	0.5	182.4	23.9	69.3	577.6	0
8221	2011-01-05T12:00:00	2	11.30	60.26	1195.03	ND	ND	0.9	157.4	25.9	60.7	693.9	0
8222	2011-01-05T13:00:00	2	9.49	46.70	1049.15	ND	ND	1.1	162.9	26.9	57	878.7	0
8223	2011-01-05T14:00:00	14	8.96	56.27	889.81	ND	ND	1.3	161.2	27.6	54.5	576.1	0
8224	2011-01-05T15:00:00	8	8.71	46.87	853.72	ND	ND	1.3	281	27.1	55.5	201.6	0
8225	2011-01-05T16:00:00	21	7.89	34.50	1099.78	ND	ND	2.3	326.6	25	64.4	101	0.25
8226	2011-01-05T17:00:00	22	16.34	85.65	2109.38	ND	ND	1	6.4	22	84.7	41.9	1.52
8227	2011-01-05T18:00:00	36	20.86	88.42	3450.22	ND	ND	0.7	354.1	23.2	75	19.9	0
8228	2011-01-05T19:00:00	40	19.57	87.93	4517.54	ND	ND	0.5	59.2	23	76.7	0.1	0
8229	2011-01-05T20:00:00	55	17.05	50.02	2105.86	ND	ND	1.1	278.7	23.1	69.9	0	0
8230	2011-01-05T21:00:00	29	9.48	39.54	1090.56	ND	ND	1.9	228.1	22.5	74.8	0	0
8231	2011-01-05T22:00:00	22	8.25	46.85	1463.45	ND	ND	1.1	205.5	22.1	78.9	0	0
8232	2011-01-05T23:00:00	18	8.06	30.83	1110.26	ND	ND	0.8	260	21.7	75.4	0	0
8233	2011-01-06T00:00:00	13	7.40	22.29	836.94	ND	ND	0.3	289.7	21.2	76.5	0	0
8234	2011-01-06T01:00:00	7	7.28	38.21	1558.66	ND	ND	0.6	348.7	20.8	85.4	0	0
8235	2011-01-06T02:00:00	25	7.53	33.86	1183.11	ND	ND	0.7	358.4	20.1	87.5	0	0
8236	2011-01-06T03:00:00	13	8.71	27.83	1104.61	ND	ND	0.3	334.9	20.2	86.2	0	0
8237	2011-01-06T04:00:00	24	9.92	25.01	845.08	ND	ND	0.2	282.8	20.1	84.1	0	0
8238	2011-01-06T05:00:00	13	9.58	22.49	563.00	ND	ND	0.4	245.2	19.9	84.3	0	0
8239	2011-01-06T06:00:00	22	8.03	38.94	1249.01	ND	ND	0.5	145.4	19.7	87.2	0	0
8240	2011-01-06T07:00:00	13	8.01	34.54	1171.44	ND	ND	0.1	208.1	20	84.3	11.7	0
8241	2011-01-06T08:00:00	31	12.27	53.50	2180.60	ND	ND	0.1	154.1	20.9	81.1	107.4	0
8242	2011-01-06T09:00:00	16	16.30	82.87	2068.91	ND	ND	0.8	127.4	22.7	75.5	347.9	0
8243	2011-01-06T10:00:00	38	13.69	80.23	1553.84	ND	ND	0.9	122.5	24.2	69.2	497.6	0
8244	2011-01-06T11:00:00	27	13.96	44.52	550.81	ND	ND	0.8	149.4	25.5	62.2	664.1	0
8245	2011-01-06T12:00:00	20	12.76	49.55	991.50	ND	ND	0.8	107.5	26.9	55.9	611.4	0
8246	2011-01-06T13:00:00	21	11.15	60.76	1236.49	ND	ND	1.4	86	27.6	53.7	591.8	0
8247	2011-01-06T14:00:00	24	13.14	57.30	1089.16	ND	ND	1.7	64.3	28.4	50.7	524.8	0
8248	2011-01-06T15:00:00	14	28.48	42.16	1114.91	ND	ND	1.7	1	29.1	48.5	619.5	0
8249	2011-01-06T16:00:00	7	9.35	25.15	1057.20	ND	ND	3	281.1	29.2	47.2	529.3	0
8250	2011-01-06T17:00:00	9	7.90	20.97	1097.46	ND	ND	4	276.4	27.5	51.8	320.9	0
8251	2011-01-06T18:00:00	5	7.32	31.12	1231.97	ND	ND	3.3	280	26.5	52.9	69.5	0
8252	2011-01-06T19:00:00	4	6.92	28.82	1341.26	ND	ND	3.8	277	25.2	57.9	0.3	0
8253	2011-01-06T20:00:00	13	6.30	16.25	594.72	ND	ND	4.4	265.8	24.5	61.1	0	0
8254	2011-01-06T21:00:00	7	4.65	22.69	924.83	ND	ND	2.3	219.6	24	65.6	0	0
8255	2011-01-06T22:00:00	12	5.09	39.09	1197.24	ND	ND	0.8	226.2	23.6	66.2	0	0
8256	2011-01-06T23:00:00	7	5.50	40.28	1230.20	ND	ND	1.4	207.5	23.3	67.7	0	0
8257	2011-01-07T00:00:00	11	5.53	59.18	1407.68	ND	ND	1.2	215	22.3	74.5	0	0
8258	2011-01-07T01:00:00	13	5.68	29.44	929.94	ND	ND	0.7	239.5	22	72.7	0	0
8259	2011-01-07T02:00:00	17	19.95	43.66	1145.80	ND	ND	0.9	357.3	22.1	75.2	0	0
8260	2011-01-07T03:00:00	21	29.89	45.09	1029.56	ND	ND	1.2	4.1	21.3	82.5	0	0
8261	2011-01-07T04:00:00	31	19.36	33.02	812.38	ND	ND	0.8	36.4	20.5	87.4	0	0
8262	2011-01-07T05:00:00	30	36.25	30.34	678.83	ND	ND	0.9	269.2	21.3	80.1	0	0
8263	2011-01-07T06:00:00	16	28.96	20.70	735.40	ND	ND	0.4	232.4	21.3	76.1	0	0
8264	2011-01-07T07:00:00	12	20.51	26.35	1357.20	ND	ND	0.8	255.3	21.2	78.4	8.5	0
8265	2011-01-07T08:00:00	34	28.24	50.85	2129.89	ND	ND	1.3	11.8	21.7	79.2	100.9	0
8266	2011-01-07T09:00:00	38	77.56	56.37	1692.63	ND	ND	1.5	34.2	22.5	77.9	149.1	0
8267	2011-01-07T10:00:00	40	37.31	42.13	1103.41	ND	ND	1.4	14.3	22.9	73.9	285	0
8268	2011-01-07T11:00:00	20	30.73	51.60	1274.61	ND	ND	0.7	97.9	25.7	61.4	615	0
8269	2011-01-07T12:00:00	31	20.55	79.42	1888.88	ND	ND	1.3	117.4	26.6	59.1	467	0
8270	2011-01-07T13:00:00	19	15.17	54.74	1386.26	ND	ND	0.8	134.2	27.5	55.6	535.3	0
8271	2011-01-07T14:00:00	30	15.55	56.60	611.86	ND	ND	1.4	16	27.3	55.9	137.1	0
8272	2011-01-07T15:00:00	22	30.23	67.53	910.19	ND	ND	2.1	359.1	26.7	58.5	150.3	0
8273	2011-01-07T16:00:00	31	13.49	54.08	1195.83	ND	ND	0.7	320.1	26.1	58.6	114.6	0
8274	2011-01-07T17:00:00	16	11.44	54.66	1548.13	ND	ND	1.9	253.9	25.3	60.3	29.5	0
8275	2011-01-07T18:00:00	20	10.51	52.67	1817.85	ND	ND	1.2	223.3	24.4	64.6	9	0
8276	2011-01-07T19:00:00	28	12.38	75.72	2820.15	ND	ND	0.4	242.2	24	67.5	0	0
8277	2011-01-07T20:00:00	35	10.49	61.64	2527.03	ND	ND	1.1	185.4	23.1	72.9	0	0
8278	2011-01-07T21:00:00	20	10.32	59.37	2228.06	ND	ND	0.2	214.3	22.7	75.6	0	0
8279	2011-01-07T22:00:00	45	10.63	73.83	2890.91	ND	ND	0.8	53.5	21.9	80.2	0	0
8280	2011-01-07T23:00:00	77	11.90	64.64	2647.44	ND	ND	0.7	55.9	21.3	84	0	0
8281	2011-01-08T00:00:00	68	10.91	57.62	1841.65	ND	ND	0.8	359.1	20.9	85.9	0	0
8282	2011-01-08T01:00:00	36	12.53	31.51	948.75	ND	ND	0.3	236.9	20.8	79	0	0
8283	2011-01-08T02:00:00	28	9.64	36.91	822.82	ND	ND	0.7	176.7	20.2	83.8	0	0
8284	2011-01-08T03:00:00	27	8.51	30.09	879.18	ND	ND	0.5	247.2	20.2	82.6	0	0
8285	2011-01-08T04:00:00	15	8.66	34.14	1160.57	ND	ND	0.4	36.5	20.1	83.7	0	0
8286	2011-01-08T05:00:00	15	9.89	37.49	1148.13	ND	ND	0.1	117.2	19.8	87.5	0	0
8287	2011-01-08T06:00:00	36	10.24	26.88	823.10	ND	ND	0.3	226	20.3	79.5	0	0
8288	2011-01-08T07:00:00	19	10.53	28.45	1309.28	ND	ND	0.2	197.5	20.6	78.6	10.2	0
8289	2011-01-08T08:00:00	26	11.62	43.77	2247.63	ND	ND	0.7	172.6	20.8	81.1	44.8	0
8290	2011-01-08T09:00:00	42	12.17	93.36	2910.62	ND	ND	0.3	116.4	21.6	78.8	169.8	0
8291	2011-01-08T10:00:00	57	13.17	120.03	2422.17	ND	ND	1	134.6	24.2	65.7	493.1	0
8292	2011-01-08T11:00:00	49	17.27	56.64	1344.86	ND	ND	0.8	88.3	26	58.3	652.1	0
8293	2011-01-08T12:00:00	33	19.53	52.73	1315.20	ND	ND	0.7	48.2	27.1	55.4	581.4	0
8294	2011-01-08T13:00:00	33	29.95	74.65	1633.74	ND	ND	1.4	62.8	28.4	52.2	621.5	0
8295	2011-01-08T14:00:00	49	34.22	48.92	1204.23	ND	ND	2.1	14.4	28.2	52.1	290	0
8296	2011-01-08T15:00:00	41	25.08	51.52	1213.38	ND	ND	2.4	7.1	27.6	55	205.8	0
8297	2011-01-08T16:00:00	38	11.24	20.85	1004.04	ND	ND	1.6	305	27.2	54.3	202.5	0
8298	2011-01-08T17:00:00	19	7.29	26.48	1189.08	ND	ND	0.8	334	27.3	52.9	123.2	0
8299	2011-01-08T18:00:00	10	10.05	26.48	1196.63	ND	ND	1.9	279.1	26.3	57.6	33.8	0
8300	2011-01-08T19:00:00	7	9.09	28.96	1305.55	ND	ND	2.2	270	24.9	61.9	0.2	0
8301	2011-01-08T20:00:00	3	8.18	28.04	1269.06	ND	ND	2.1	266.4	24.4	62.4	0	0
8302	2011-01-08T21:00:00	3	7.24	25.02	1109.00	ND	ND	1.7	281.6	24.4	62.1	0	0
8303	2011-01-08T22:00:00	4	8.41	31.04	1860.45	ND	ND	0.9	359.9	23.9	68.4	0	0
8304	2011-01-08T23:00:00	5	11.88	30.92	2266.75	ND	ND	0.7	152	23.3	73.4	0	0
8305	2011-01-09T00:00:00	33	8.98	32.17	1513.94	ND	ND	1.3	184.3	23.1	76.4	0	0
8306	2011-01-09T01:00:00	25	7.78	27.52	1387.32	ND	ND	0.8	138.4	22.8	77.8	0	0.25
8307	2011-01-09T02:00:00	26	7.09	21.52	994.94	ND	ND	0.6	24.3	21.1	88.2	0	1.27
8308	2011-01-09T03:00:00	14	7.22	25.90	1266.72	ND	ND	0.2	91.7	21.2	88.8	0	0
8309	2011-01-09T04:00:00	8	7.30	22.71	1233.21	ND	ND	0.6	158.8	21.3	89	0	0
8310	2011-01-09T05:00:00	5	6.46	17.14	1141.92	ND	ND	0.6	58.1	21.1	89.6	0	0
8311	2011-01-09T06:00:00	10	4.19	16.61	1186.34	ND	ND	0.2	131.4	20.9	90.9	0	0
8312	2011-01-09T07:00:00	6	6.67	17.10	1300.21	ND	ND	0.2	252.7	21.1	88.9	8	0
8313	2011-01-09T08:00:00	15	6.37	27.94	1540.77	ND	ND	0.2	174.9	21.7	84.2	130.4	0
8314	2011-01-09T09:00:00	20	5.62	65.21	1819.44	ND	ND	1	132.7	22.8	80.5	176.6	0
8315	2011-01-09T10:00:00	30	6.71	53.12	1256.36	ND	ND	0.8	137.2	24.1	73.3	440.3	0
8316	2011-01-09T11:00:00	15	8.09	40.93	1159.78	ND	ND	0.9	129.7	25.7	65	544.5	0
8317	2011-01-09T12:00:00	12	8.36	38.60	1233.20	ND	ND	1.3	147.5	26.8	61.1	521.3	0
8318	2011-01-09T13:00:00	7	8.16	39.45	1270.74	ND	ND	1.1	95.8	27.5	58.2	550.9	0
8319	2011-01-09T14:00:00	5	7.87	35.80	1316.95	ND	ND	1.3	72.5	27.5	58.2	299.2	0
8320	2011-01-09T15:00:00	3	8.84	27.35	1134.37	ND	ND	0.9	38.7	28.1	55.6	234.1	0
8321	2011-01-09T16:00:00	15	13.66	21.99	899.27	ND	ND	2.2	295	26.9	56.6	49.1	0
8322	2011-01-09T17:00:00	13	13.73	10.17	710.28	ND	ND	3.1	265.6	25	65	24.1	3.05
8323	2011-01-09T18:00:00	12	9.19	12.95	896.53	ND	ND	3.9	245.9	22.2	80.5	8.2	3.05
8324	2011-01-09T19:00:00	8	8.05	22.15	1010.01	ND	ND	3	252.3	22.2	78.4	0.5	0.25
8325	2011-01-09T20:00:00	5	8.09	28.99	1409.59	ND	ND	1.3	310.5	22.7	75.5	0	0
8326	2011-01-09T21:00:00	4	8.27	43.27	1772.75	ND	ND	0.3	62.3	22.6	79.9	0	0
8327	2011-01-09T22:00:00	28	9.45	37.93	1906.54	ND	ND	1.2	200.4	22.2	81.8	0	0
8328	2011-01-09T23:00:00	20	7.87	51.67	1800.12	ND	ND	0.8	167.8	21.5	88	0	0
8329	2011-01-10T00:00:00	12	6.21	50.82	1267.15	ND	ND	0.8	215.1	21.3	89	0	0
8330	2011-01-10T01:00:00	7	6.70	50.24	1527.37	ND	ND	0.1	106.9	21.3	88.7	0	0
8331	2011-01-10T02:00:00	5	6.26	28.88	916.73	ND	ND	0.3	257.4	21.4	84.8	0	0
8332	2011-01-10T03:00:00	4	5.05	14.95	554.38	ND	ND	0.3	243.8	21.3	82.6	0	0
8333	2011-01-10T04:00:00	3	5.84	10.70	779.59	ND	ND	0.4	245.4	20.9	83.1	0	0
8334	2011-01-10T05:00:00	3	6.40	20.23	993.59	ND	ND	0.2	162.3	20.7	86.5	0	0
8335	2011-01-10T06:00:00	12	6.79	29.54	1118.17	ND	ND	0.5	40.4	20.8	90.7	0	0
8336	2011-01-10T07:00:00	7	7.99	30.37	1367.11	ND	ND	0.1	35.7	20.9	91.5	13.5	0
8337	2011-01-10T08:00:00	28	9.34	26.78	1154.01	ND	ND	0.5	233.7	21.3	84.4	68.8	0
8338	2011-01-10T09:00:00	15	7.01	35.16	1180.64	ND	ND	0.3	52.8	22.3	77.9	169	0
8339	2011-01-10T10:00:00	32	11.73	62.80	1626.12	ND	ND	0.9	103.9	22.8	81.2	172.9	0
8340	2011-01-10T11:00:00	24	10.85	45.70	1505.10	ND	ND	0.4	148.7	23.6	76.4	307.5	0
8341	2011-01-10T12:00:00	26	8.16	55.88	1475.35	ND	ND	1	109.2	24.5	72	306.8	0
8342	2011-01-10T13:00:00	17	6.19	32.22	1239.33	ND	ND	0.7	77.9	25.5	66.9	352	0
8343	2011-01-10T14:00:00	26	7.69	26.66	1150.99	ND	ND	0.2	185.3	26.4	61.6	438.5	0
8344	2011-01-10T15:00:00	13	11.80	37.59	1142.14	ND	ND	0.7	134.4	27.1	58.5	359.6	0
8345	2011-01-10T16:00:00	18	12.57	38.41	1304.96	ND	ND	0.7	91.5	27.4	57.3	232.2	0
8346	2011-01-10T17:00:00	22	13.31	47.48	1129.48	ND	ND	1	56.6	26.8	59.6	91.4	0
8347	2011-01-10T18:00:00	30	19.59	42.19	1128.35	ND	ND	1	275.2	26.5	59.6	30.8	0
8348	2011-01-10T19:00:00	15	10.49	22.15	974.42	ND	ND	2.3	265.8	25.2	61.7	0.2	0
8349	2011-01-10T20:00:00	8	8.13	23.78	1166.17	ND	ND	2.6	263.8	24.4	65	0	0
8350	2011-01-10T21:00:00	5	7.24	20.51	982.25	ND	ND	2.7	263.5	24.1	66.4	0	0
8351	2011-01-10T22:00:00	3	7.25	16.70	878.57	ND	ND	1.7	289.8	23.8	67	0	0
8352	2011-01-10T23:00:00	3	6.46	19.72	979.60	ND	ND	1.2	254	23.3	68.6	0	0
8353	2011-01-11T00:00:00	9	6.19	34.27	1103.78	ND	ND	1.1	244.4	23	71.2	0	0
8354	2011-01-11T01:00:00	5	6.69	29.72	1171.66	ND	ND	1	229.2	22.9	71.6	0	0
8355	2011-01-11T02:00:00	4	7.13	19.65	1012.06	ND	ND	0.4	301.1	22.8	73.9	0	0
8356	2011-01-11T03:00:00	11	7.79	31.96	1225.63	ND	ND	0.5	135.3	22.2	81.6	0	0
8357	2011-01-11T04:00:00	17	7.64	23.11	951.65	ND	ND	0.8	99.7	21.7	83.8	0	0
8358	2011-01-11T05:00:00	14	7.38	21.35	1018.94	ND	ND	0.7	164.8	21.5	86	0	0
8359	2011-01-11T06:00:00	22	6.73	25.04	984.30	ND	ND	0.5	191.1	21.3	88.1	0	0
8360	2011-01-11T07:00:00	12	6.94	30.04	1403.87	ND	ND	0.7	198.4	21.5	86.9	13.7	0
8361	2011-01-11T08:00:00	24	8.44	50.97	2349.13	ND	ND	1	191.3	22.2	84.1	131	0
8362	2011-01-11T09:00:00	21	8.04	62.97	1779.35	ND	ND	0.7	168.2	23.7	75	258.4	0
8363	2011-01-11T10:00:00	29	9.20	59.42	1829.28	ND	ND	1.5	148.5	24.4	72.5	282.6	0
8364	2011-01-11T11:00:00	19	9.57	49.29	1229.50	ND	ND	0.9	179.1	25.9	64.5	530.6	0
8365	2011-01-11T12:00:00	21	11.76	67.04	1440.66	ND	ND	0.9	139.4	26.8	60.4	461.2	0
8366	2011-01-11T13:00:00	12	12.77	78.19	1679.53	ND	ND	1.4	86.4	28.3	55.8	639.4	0
8367	2011-01-11T14:00:00	27	18.89	61.82	1508.28	ND	ND	1	82.1	28.8	54.2	469.7	0
8368	2011-01-11T15:00:00	18	24.49	70.84	1498.17	ND	ND	1.1	52.1	29.1	53.2	245.6	0
8369	2011-01-11T16:00:00	29	29.67	49.09	1332.04	ND	ND	1.5	291.1	28.3	54.6	143.5	0
8370	2011-01-11T17:00:00	16	14.92	40.11	1411.24	ND	ND	2.9	262.4	27.9	54.2	99.3	0
8371	2011-01-11T18:00:00	12	11.30	30.67	1131.36	ND	ND	3.1	265.6	27.3	54.9	49.2	0
8372	2011-01-11T19:00:00	9	10.83	32.56	1367.85	ND	ND	3.2	265.7	26	58.8	0.4	0
8373	2011-01-11T20:00:00	10	9.68	35.32	1283.94	ND	ND	2.3	262.5	25.2	62.2	0	0
8374	2011-01-11T21:00:00	7	8.56	31.06	927.32	ND	ND	1.8	285.3	24.8	63.7	0	0
8375	2011-01-11T22:00:00	5	8.58	23.29	1028.97	ND	ND	1.2	314.2	24.4	66.3	0	0
8376	2011-01-11T23:00:00	23	10.07	30.53	1547.57	ND	ND	0.5	37.4	23	76.3	0	0
8377	2011-01-12T00:00:00	13	12.64	25.19	1139.07	ND	ND	0.7	249.8	23.3	71.9	0	0
8378	2011-01-12T01:00:00	8	10.48	32.70	864.23	ND	ND	1.3	197.7	22.8	75	0	0
8379	2011-01-12T02:00:00	19	8.51	30.79	725.56	ND	ND	1.3	174.8	21.9	84	0	0
8380	2011-01-12T03:00:00	20	9.96	23.48	782.25	ND	ND	0.7	130.1	21.9	80.8	0	0
8381	2011-01-12T04:00:00	26	11.72	24.98	907.26	ND	ND	0.4	171.4	22	80.7	0	0
8382	2011-01-12T05:00:00	23	11.96	25.81	918.91	ND	ND	0.2	218.5	22.1	79.9	0	0
8383	2011-01-12T06:00:00	47	10.82	30.78	1346.35	ND	ND	0.7	161	21.3	85.8	0	0
8384	2011-01-12T07:00:00	38	10.37	30.91	1741.15	ND	ND	0	184	21.1	87.7	15.9	0
8385	2011-01-12T08:00:00	61	13.04	48.52	2441.57	ND	ND	0.5	150.8	22.4	80	114.1	0
8386	2011-01-12T09:00:00	67	13.38	63.53	2349.66	ND	ND	1	119.3	23.7	75.1	305.7	0
8387	2011-01-12T10:00:00	70	ND	ND	ND	ND	ND	ND	ND	ND	ND	ND	ND
8388	2011-01-12T11:00:00	55	ND	ND	ND	ND	ND	1.3	117.4	26.9	59.9	656.6	0
8389	2011-01-12T12:00:00	56	14.69	57.76	1087.71	ND	ND	1.2	123.1	28	55.5	497.5	0
8390	2011-01-12T13:00:00	30	13.50	44.37	777.09	ND	ND	0.4	288.6	28.7	52.4	474.6	0
8391	2011-01-12T14:00:00	37	12.12	35.96	778.37	ND	ND	0.5	339.3	29.2	49.9	437.8	0
8392	2011-01-12T15:00:00	20	9.97	39.37	769.55	ND	ND	1.5	328.6	30.3	46.3	424.1	0
8393	2011-01-12T16:00:00	11	9.07	15.47	478.05	ND	ND	2.4	287	30.3	45.2	498.8	0
8394	2011-01-12T17:00:00	6	9.41	22.49	570.95	ND	ND	3.4	272	30.1	46.1	366.7	0
8395	2011-01-12T18:00:00	3	9.27	23.58	555.61	ND	ND	3.6	275	28.1	51.2	35.1	0
8396	2011-01-12T19:00:00	3	9.27	23.03	610.43	ND	ND	4.3	267.2	26.6	56.6	0.7	0
8397	2011-01-12T20:00:00	11	8.91	26.29	551.74	ND	ND	3.6	277.1	26	59	0	0
8398	2011-01-12T21:00:00	8	7.86	15.79	310.25	ND	ND	3.3	274.3	25.9	59.9	0	0
8399	2011-01-12T22:00:00	13	10.27	26.28	1328.46	ND	ND	0.7	54	24.9	67.4	0	0
8400	2011-01-12T23:00:00	31	11.42	27.83	1576.16	ND	ND	0.7	99	24.1	71.6	0	0
8401	2011-01-13T00:00:00	22	9.59	26.74	696.71	ND	ND	1.7	193	24.1	71.1	0	0
8402	2011-01-13T01:00:00	13	9.04	24.53	478.41	ND	ND	1.9	188.1	23.3	77.2	0	0
8403	2011-01-13T02:00:00	27	9.53	22.64	409.79	ND	ND	0.9	172	23.1	78	0	0
8404	2011-01-13T03:00:00	23	9.80	19.14	352.40	ND	ND	1.4	186.7	22.7	80.3	0	0
8405	2011-01-13T04:00:00	31	10.66	17.62	227.35	ND	ND	0.8	199.9	22.7	79.1	0	0
8406	2011-01-13T05:00:00	20	12.74	17.95	193.18	ND	ND	0.9	172.7	22.6	78.7	0	0
8407	2011-01-13T06:00:00	28	13.69	22.56	702.65	ND	ND	0.8	151.9	21.8	84.3	0	0
8408	2011-01-13T07:00:00	31	12.96	22.63	918.29	ND	ND	1	188.9	21.9	82.2	8.4	0
8409	2011-01-13T08:00:00	41	15.24	32.76	1773.35	ND	ND	0.9	201.4	22.7	77.7	93.4	0
8410	2011-01-13T09:00:00	49	20.93	47.84	1960.53	ND	ND	0.7	145.6	23.5	74.2	74	0
8411	2011-01-13T10:00:00	56	24.83	58.81	1632.72	ND	ND	0.3	171.8	24	71.5	190.7	0
8412	2011-01-13T11:00:00	37	30.15	105.29	1720.72	ND	ND	0.6	50.9	25.4	65.7	340.6	0
8413	2011-01-13T12:00:00	62	34.07	111.48	1735.67	ND	ND	1.5	28.7	26	66.1	366.1	0
8414	2011-01-13T13:00:00	50	127.65	101.60	1371.05	ND	ND	1.6	16.5	26.7	62.4	364.9	0
8415	2011-01-13T14:00:00	58	130.51	101.57	1153.68	ND	ND	1.5	19.4	27.1	61.8	270.9	0
8416	2011-01-13T15:00:00	31	47.12	36.80	806.50	ND	ND	2.1	305.7	26.7	57.3	151.6	0
8417	2011-01-13T16:00:00	17	19.98	22.84	656.06	ND	ND	2.1	301.2	26.4	56.8	130.6	0
8418	2011-01-13T17:00:00	8	15.87	16.27	517.95	ND	ND	3.4	277.7	26.4	57.1	200.9	0
8419	2011-01-13T18:00:00	4	13.90	24.68	748.39	ND	ND	2	277.8	26.5	56.8	63.4	0
8420	2011-01-13T19:00:00	3	13.02	27.51	1009.83	ND	ND	2.1	279.5	25.5	61.1	1.2	0
8421	2011-01-13T20:00:00	4	12.37	30.54	744.89	ND	ND	2.4	270.2	25.1	62.8	0	0
8422	2011-01-13T21:00:00	4	11.75	27.08	1155.12	ND	ND	0.9	300.9	24.5	66.7	0	0
8423	2011-01-13T22:00:00	19	14.22	29.73	1451.02	ND	ND	0.6	207	24.2	68.7	0	0
8424	2011-01-13T23:00:00	11	11.86	29.11	707.89	ND	ND	1.3	221.1	24	71.2	0	0
8425	2011-01-14T00:00:00	21	11.34	24.56	581.51	ND	ND	1.2	174.1	23.6	73	0	0
8426	2011-01-14T01:00:00	12	10.92	22.34	522.74	ND	ND	0.6	106.7	22.6	78.5	0	0
8427	2011-01-14T02:00:00	23	10.04	18.22	567.04	ND	ND	0.6	134	22	80.6	0	0
8428	2011-01-14T03:00:00	12	10.47	17.03	543.99	ND	ND	0.7	204.4	21.8	81.7	0	0
8429	2011-01-14T04:00:00	22	9.88	17.55	464.66	ND	ND	0.4	205.7	21.8	79.8	0	0
8430	2011-01-14T05:00:00	12	8.91	21.17	305.78	ND	ND	0	126.7	21.6	82.5	0	0
8431	2011-01-14T06:00:00	27	9.79	20.45	475.83	ND	ND	0.3	213.8	21.7	80.7	0	0
8432	2011-01-14T07:00:00	14	10.46	25.20	1222.72	ND	ND	0.3	256	21.5	82.2	13.2	0
8433	2011-01-14T08:00:00	46	15.61	60.37	2766.20	ND	ND	0.4	58.3	21.9	82	84.4	0
8434	2011-01-14T09:00:00	63	19.89	102.54	2598.84	ND	ND	0.9	135.7	23.5	73.8	283.8	0
8435	2011-01-14T10:00:00	62	22.81	54.79	1180.77	ND	ND	1.3	144.8	25.2	66.8	513.5	0
8436	2011-01-14T11:00:00	32	23.22	49.51	726.09	ND	ND	1.2	158.6	26.8	60.9	630.7	0
8437	2011-01-14T12:00:00	54	20.29	53.74	810.54	ND	ND	0.8	131.6	28.2	54.7	589.7	0
8438	2011-01-14T13:00:00	50	19.86	64.46	1114.55	ND	ND	0.7	48.4	29	52.2	516.1	0
8439	2011-01-14T14:00:00	50	23.48	48.76	778.12	ND	ND	1.9	10.8	29.1	49	364.8	0
8440	2011-01-14T15:00:00	26	15.01	39.36	725.05	ND	ND	0.3	54.2	31.2	42.2	642.4	0
8441	2011-01-14T16:00:00	28	15.49	38.09	478.84	ND	ND	2	287.1	30.8	43.5	383	0
8442	2011-01-14T17:00:00	16	12.00	31.31	651.44	ND	ND	3.4	275.4	29.6	47.2	295	0
8443	2011-01-14T18:00:00	12	11.32	27.58	670.47	ND	ND	3.9	274.4	27.7	53.3	80.6	0
8444	2011-01-14T19:00:00	7	10.36	28.30	678.40	ND	ND	4	268	26.1	57.6	0.5	0
8445	2011-01-14T20:00:00	21	9.70	27.17	413.66	ND	ND	3.7	275.3	25.9	57.7	0	0
8446	2011-01-14T21:00:00	12	8.93	15.44	459.17	ND	ND	3.1	288.8	25.6	59.9	0	0
8447	2011-01-14T22:00:00	8	8.13	13.58	160.60	ND	ND	2.5	274.8	25.4	60.7	0	0
8448	2011-01-14T23:00:00	4	8.50	19.86	308.90	ND	ND	1.7	226.4	24.6	65.4	0	0
8449	2011-01-15T00:00:00	20	9.33	36.67	809.29	ND	ND	1.2	184.1	23.5	72.4	0	0
8450	2011-01-15T01:00:00	11	10.84	31.90	546.94	ND	ND	1.8	200.2	23.4	72.4	0	0
8451	2011-01-15T02:00:00	35	13.36	23.19	466.86	ND	ND	1.8	181.4	23.2	73.1	0	0
8452	2011-01-15T03:00:00	30	13.70	19.89	409.24	ND	ND	1.1	167.2	22.7	75.7	0	0
8453	2011-01-15T04:00:00	37	12.87	20.94	136.09	ND	ND	0.6	159	22	80.4	0	0
8454	2011-01-15T05:00:00	36	13.02	23.35	476.15	ND	ND	0.4	147.4	21.9	79.3	0	0
8455	2011-01-15T06:00:00	28	12.29	22.20	612.19	ND	ND	0.3	217	21.9	78.7	0	0
8456	2011-01-15T07:00:00	15	12.85	21.18	0.00	ND	ND	0.8	237	21.7	75.2	16.6	0
8457	2011-01-15T08:00:00	17	14.62	42.98	602.69	ND	ND	0.3	202.8	22.8	71.7	129.3	0
8458	2011-01-15T09:00:00	21	21.16	66.16	1038.30	ND	ND	0.7	142	23.8	69.9	221.5	0
8459	2011-01-15T10:00:00	41	24.18	58.73	572.80	ND	ND	0.9	150.2	25	64.8	398	0
8460	2011-01-15T11:00:00	22	21.16	58.82	773.74	ND	ND	1.6	133.9	27.4	57	702	0
8461	2011-01-15T12:00:00	33	22.54	57.41	856.00	ND	ND	1.2	115.8	27.9	54.7	518.3	0
8462	2011-01-15T13:00:00	38	20.65	64.81	1209.82	ND	ND	1	109.8	29.6	49.5	721.1	0
8463	2011-01-15T14:00:00	53	18.14	69.80	1352.99	ND	ND	0.7	93.8	30.4	47.6	554.9	0
8464	2011-01-15T15:00:00	27	11.99	20.36	617.56	ND	ND	3	291.2	30.1	44.3	401.3	0
8465	2011-01-15T16:00:00	23	10.53	14.81	594.45	ND	ND	3.9	273.4	30.2	44.5	503.2	0
8466	2011-01-15T17:00:00	12	10.44	15.00	441.17	ND	ND	4	279.4	29	48.4	302.8	0
8467	2011-01-15T18:00:00	12	10.00	16.20	773.22	ND	ND	4.3	276.8	27.2	54.2	77.6	0
8468	2011-01-15T19:00:00	7	9.86	13.11	379.32	ND	ND	5.1	268.6	26	57.9	0.4	0
8469	2011-01-15T20:00:00	4	9.62	14.06	218.32	ND	ND	4.5	272.1	25.9	57.1	0	0
8470	2011-01-15T21:00:00	4	8.51	10.65	80.41	ND	ND	2.7	286.5	25.8	58.1	0	0
8471	2011-01-15T22:00:00	3	8.73	15.50	309.63	ND	ND	2.2	254.5	25.3	61.9	0	0
8472	2011-01-15T23:00:00	2	8.59	21.81	572.42	ND	ND	1.7	253.1	24.8	64.1	0	0
8473	2011-01-16T00:00:00	1	7.43	11.38	354.78	ND	ND	2.2	271.2	24.7	64.1	0	0
8474	2011-01-16T01:00:00	1	8.30	24.78	787.82	ND	ND	1.1	184.2	24	68.4	0	0
8475	2011-01-16T02:00:00	3	8.76	20.74	545.65	ND	ND	1.3	161.6	22.7	76.6	0	0
8476	2011-01-16T03:00:00	3	9.27	22.12	510.85	ND	ND	0.2	343.9	22.3	78.3	0	0
8477	2011-01-16T04:00:00	28	9.75	23.49	613.85	ND	ND	0.8	202	22.7	75.3	0	0
8478	2011-01-16T05:00:00	22	11.39	22.68	862.19	ND	ND	0.6	69.9	22.1	79.8	0	0
8479	2011-01-16T06:00:00	47	12.35	23.14	793.85	ND	ND	0.7	141	22	80.1	0	0
8480	2011-01-16T07:00:00	26	13.23	21.78	589.72	ND	ND	1.2	181	22	79.2	18.2	0
8481	2011-01-16T08:00:00	39	16.39	29.54	784.63	ND	ND	0.7	158.1	22.8	75.7	76.8	0
8482	2011-01-16T09:00:00	41	18.94	41.16	1047.95	ND	ND	0.9	157	23.3	73.9	134.6	0
8483	2011-01-16T10:00:00	39	27.10	35.74	755.59	ND	ND	1	178.3	24.8	66.8	361.5	0
8484	2011-01-16T11:00:00	22	28.67	35.37	780.58	ND	ND	1.4	178.8	25.6	64	356	0
8485	2011-01-16T12:00:00	38	23.52	33.99	840.78	ND	ND	1.2	140.9	26.6	60.1	496.5	0
8486	2011-01-16T13:00:00	20	17.53	17.20	543.31	ND	ND	0.2	166.6	27.7	54.8	505.8	0
8487	2011-01-16T14:00:00	21	12.61	13.48	428.43	ND	ND	1.3	297.8	28.2	51.3	425.9	0
8488	2011-01-16T15:00:00	10	9.72	2.94	290.15	ND	ND	3.2	278.8	28.9	47.9	425	0
8489	2011-01-16T16:00:00	5	7.54	1.65	196.52	ND	ND	4.3	272	27.7	51.8	270.4	0
8490	2011-01-16T17:00:00	4	9.96	3.03	195.86	ND	ND	3.6	277.6	26.7	54.7	188.6	0
8491	2011-01-16T18:00:00	4	10.53	8.36	322.17	ND	ND	2.6	286.5	26.3	54.4	55.7	0
8492	2011-01-16T19:00:00	2	9.82	15.62	309.83	ND	ND	2.2	289.8	25.5	56.2	0.7	0
8493	2011-01-16T20:00:00	1	9.10	15.59	435.62	ND	ND	1.9	283.3	25.2	56.3	0	0
8494	2011-01-16T21:00:00	1	8.24	22.21	354.66	ND	ND	1.9	262.2	24.6	58.9	0	0
8495	2011-01-16T22:00:00	2	7.88	8.97	0.00	ND	ND	3	263	23.9	62.3	0	0
8496	2011-01-16T23:00:00	1	7.87	4.27	34.20	ND	ND	2.9	265.9	23.5	64.3	0	0
8497	2011-01-17T00:00:00	1	9.33	24.74	569.54	ND	ND	0.4	329.7	23.3	66.7	0	0
8498	2011-01-17T01:00:00	2	12.89	30.74	477.12	ND	ND	0.9	81	22.5	72.1	0	0
8499	2011-01-17T02:00:00	22	10.64	17.46	203.79	ND	ND	0.3	138.9	21.5	76.5	0	0
8500	2011-01-17T03:00:00	14	11.21	17.70	555.88	ND	ND	0.8	240.6	22.1	73.8	0	0
8501	2011-01-17T04:00:00	9	10.25	20.16	555.88	ND	ND	0.9	214.5	22.1	74.6	0	0
8502	2011-01-17T05:00:00	5	9.91	14.77	272.18	ND	ND	0.5	232.9	22	74.9	0	0
8503	2011-01-17T06:00:00	4	10.48	24.24	578.38	ND	ND	0.4	145.8	22	75.7	0	0
8504	2011-01-17T07:00:00	3	11.99	34.24	1281.94	ND	ND	0.5	55.9	22.1	78.2	5.9	0
8505	2011-01-17T08:00:00	49	16.35	51.91	2223.54	ND	ND	0.8	67.9	22.1	79.5	83.9	0
8506	2011-01-17T09:00:00	42	22.45	90.12	2006.12	ND	ND	0.5	37.5	23.5	73.1	227.6	0
8507	2011-01-17T10:00:00	72	25.44	115.42	1811.88	ND	ND	0.7	97.8	25.3	64.7	464.5	0
8508	2011-01-17T11:00:00	56	22.22	79.11	1338.27	ND	ND	1	107.3	27.1	56.5	594.7	0
8509	2011-01-17T12:00:00	46	21.46	61.34	1090.24	ND	ND	0.9	46.7	28.7	52	676.3	0
8510	2011-01-17T13:00:00	37	20.28	65.73	1162.14	ND	ND	0.2	340.9	29.3	49.7	533.8	0
8511	2011-01-17T14:00:00	37	23.14	52.13	605.51	ND	ND	0.9	6.5	29.9	47.6	353.7	0
8512	2011-01-17T15:00:00	21	19.34	31.85	396.04	ND	ND	2.4	285.8	30	46	580	0
8513	2011-01-17T16:00:00	12	12.91	20.65	606.51	ND	ND	4.2	274.7	30.4	43.4	630.6	0
8514	2011-01-17T17:00:00	16	12.67	23.32	720.29	ND	ND	4	273	29.2	46.9	258.7	0
8515	2011-01-17T18:00:00	16	12.46	26.53	808.11	ND	ND	3.8	277.6	27.3	52	41.8	0
8516	2011-01-17T19:00:00	9	11.05	31.17	678.86	ND	ND	3.9	267.6	26.3	54.2	0.4	0
8517	2011-01-17T20:00:00	6	10.94	29.69	632.20	ND	ND	3.3	281.1	26	55.6	0	0
8518	2011-01-17T21:00:00	4	9.21	20.47	34.40	ND	ND	3.4	260.6	25.3	59.7	0	0
8519	2011-01-17T22:00:00	4	8.96	11.76	275.04	ND	ND	2.6	248.1	25.1	61.2	0	0
8520	2011-01-17T23:00:00	3	8.53	4.80	228.81	ND	ND	2.8	252.8	24.6	62.8	0	0
8521	2011-01-18T00:00:00	2	9.49	18.74	468.75	ND	ND	1	287.9	24.4	64.2	0	0
8522	2011-01-18T01:00:00	11	15.26	31.84	661.55	ND	ND	0.1	19.7	23.7	68.6	0	0
8523	2011-01-18T02:00:00	24	11.08	24.55	534.46	ND	ND	0.5	111.9	22.8	74.9	0	0
8524	2011-01-18T03:00:00	14	10.94	20.92	397.60	ND	ND	0.6	87.4	22.5	76.4	0	0
8525	2011-01-18T04:00:00	15	11.18	20.61	443.19	ND	ND	0.4	112.6	22.6	76.3	0	0
8526	2011-01-18T05:00:00	10	11.95	23.81	556.64	ND	ND	0.7	6	22.5	76.8	0	0
8527	2011-01-18T06:00:00	26	14.34	27.70	772.48	ND	ND	0.5	32.1	22.5	76.8	0	0
8528	2011-01-18T07:00:00	15	18.95	36.26	1033.06	ND	ND	0.5	30.9	22.3	77.6	3.6	0
8529	2011-01-18T08:00:00	49	27.76	49.73	1660.80	ND	ND	0.6	15.1	22.9	74.9	57	0
8530	2011-01-18T09:00:00	49	33.75	96.71	2077.31	ND	ND	0.5	162	23.9	70.7	217.3	0
8531	2011-01-18T10:00:00	77	ND	ND	ND	ND	ND	1.4	165.3	26	63.6	531.7	0
8532	2011-01-18T11:00:00	62	ND	ND	ND	ND	ND	2.1	144.5	27.3	58.4	672.5	0
8533	2011-01-18T12:00:00	32	18.91	ND	900.47	ND	ND	0.4	99.2	27.3	57.4	248.1	0
8534	2011-01-18T13:00:00	35	12.45	72.16	1130.23	ND	ND	0.8	39.3	27	58.7	239.9	0
8535	2011-01-18T14:00:00	27	7.97	23.69	594.06	ND	ND	1	355	30	46.8	786.2	0
8536	2011-01-18T15:00:00	15	8.91	36.46	735.05	ND	ND	0.9	358.7	30.5	44.6	582	0
8537	2011-01-18T16:00:00	12	4.40	17.94	536.17	ND	ND	3.8	288.9	30.2	43.7	511.5	0
8538	2011-01-18T17:00:00	7	5.10	19.62	546.20	ND	ND	3.7	285.3	29.3	46.5	308.3	0
8539	2011-01-18T18:00:00	20	4.83	22.09	681.13	ND	ND	4.2	276.8	27.3	53	75.5	0
8540	2011-01-18T19:00:00	12	4.47	18.28	585.83	ND	ND	4.4	277.6	25.8	57.6	0.9	0
8541	2011-01-18T20:00:00	18	3.83	17.00	355.38	ND	ND	3.7	254.4	25.2	60.4	0	0
8542	2011-01-18T21:00:00	10	3.18	25.30	695.77	ND	ND	2.6	165	23.7	71.5	0	0
8543	2011-01-18T22:00:00	13	3.25	30.99	727.53	ND	ND	1.6	176.5	22.7	77.4	0	0
8544	2011-01-18T23:00:00	8	3.10	35.86	648.18	ND	ND	0.5	177.8	22.8	75.4	0	0
8545	2011-01-19T00:00:00	5	3.39	37.33	637.67	ND	ND	0.5	5.6	23.2	74	0	0
8546	2011-01-19T01:00:00	3	4.81	37.17	682.75	ND	ND	0.9	53.4	23	76.1	0	0
8547	2011-01-19T02:00:00	10	5.00	17.45	306.10	ND	ND	0.7	152	21.9	81.3	0	0
8548	2011-01-19T03:00:00	6	4.23	15.65	226.66	ND	ND	0.3	284.1	21.8	80.8	0	0
8549	2011-01-19T04:00:00	4	6.10	17.98	158.82	ND	ND	0.4	288.2	22.1	74.5	0	0
8550	2011-01-19T05:00:00	3	8.19	26.49	510.16	ND	ND	0.2	320.1	21.9	78.6	0	0
8551	2011-01-19T06:00:00	14	10.47	18.68	441.69	ND	ND	0.3	262.1	21.6	75.9	0	0
8552	2011-01-19T07:00:00	35	14.60	27.75	1200.08	ND	ND	0.3	245.6	21.5	78.4	16.4	0
8553	2011-01-19T08:00:00	51	23.41	55.10	2734.97	ND	ND	0.3	80.8	22.2	77.3	61.3	0
8554	2011-01-19T09:00:00	39	32.99	85.04	2606.71	ND	ND	0.4	24.9	23.1	74	122.4	0
8555	2011-01-19T10:00:00	83	41.08	114.36	2160.84	ND	ND	0.8	60.3	24.4	69.8	323.6	0
8556	2011-01-19T11:00:00	78	42.02	106.64	1670.05	ND	ND	0.8	91.7	26.6	60.4	601.5	0
8557	2011-01-19T12:00:00	72	22.66	70.18	1076.50	ND	ND	1.1	73.3	28.1	53.9	564.4	0
8558	2011-01-19T13:00:00	63	18.39	40.06	648.86	ND	ND	1.2	358	28.4	51.7	493	0
8559	2011-01-19T14:00:00	33	18.39	42.44	663.08	ND	ND	1	33	29.6	46.7	475.2	0
8560	2011-01-19T15:00:00	17	17.99	23.77	536.00	ND	ND	1.7	343.3	30.1	45.1	599.5	0
8561	2011-01-19T16:00:00	12	6.67	19.26	546.20	ND	ND	3.3	284.6	29.3	46.9	311.6	0
8562	2011-01-19T17:00:00	8	6.62	25.18	613.49	ND	ND	3.6	278.3	28.1	49.5	196.3	0
8563	2011-01-19T18:00:00	10	6.60	26.67	680.67	ND	ND	3	284.5	27.1	52.3	60.5	0
8564	2011-01-19T19:00:00	6	5.26	20.37	597.71	ND	ND	4.2	272	26	55.9	1.2	0
8565	2011-01-19T20:00:00	4	4.58	23.46	549.71	ND	ND	2.4	235.7	24.9	60.4	0	0
8566	2011-01-19T21:00:00	3	5.01	43.88	878.27	ND	ND	1.1	165.8	23.7	66.3	0	0
8567	2011-01-19T22:00:00	30	5.32	43.95	885.78	ND	ND	0.6	165.4	22.4	73.6	0	0
8568	2011-01-19T23:00:00	24	8.03	54.83	1181.84	ND	ND	0.5	45.8	22.6	72.8	0	0
8569	2011-01-20T00:00:00	53	23.41	55.19	932.46	ND	ND	0.6	17.1	22.8	71.6	0	0
8570	2011-01-20T01:00:00	35	29.70	47.44	794.66	ND	ND	0.6	58.8	22.3	74.8	0	0
8571	2011-01-20T02:00:00	61	35.69	36.36	476.31	ND	ND	0.6	94.9	22	76.5	0	0
8572	2011-01-20T03:00:00	37	21.66	27.56	486.99	ND	ND	0.4	123.9	21.6	78.8	0	0
8573	2011-01-20T04:00:00	36	12.30	21.55	452.71	ND	ND	0.9	147.6	21.4	80.2	0	0
8574	2011-01-20T05:00:00	22	8.48	14.88	271.26	ND	ND	0.8	168.7	21	83.5	0	0
8575	2011-01-20T06:00:00	24	7.11	18.95	632.71	ND	ND	1	169.3	20.9	84.8	0	0
8576	2011-01-20T07:00:00	25	7.58	31.26	1379.82	ND	ND	0.5	152.6	21.2	81.3	9.1	0
8577	2011-01-20T08:00:00	30	10.66	52.24	1939.27	ND	ND	1.1	12.7	22	78.3	103.6	0
8578	2011-01-20T09:00:00	69	26.60	89.42	2298.60	ND	ND	1.1	89	23	73.9	241.1	0
8579	2011-01-20T10:00:00	68	18.80	69.92	1442.50	ND	ND	1.2	152.6	24.8	65.7	482.1	0
8580	2011-01-20T11:00:00	36	14.25	54.03	1046.35	ND	ND	1.9	150.3	26.1	60.2	635.3	0
8581	2011-01-20T12:00:00	37	13.47	45.51	783.72	ND	ND	1.2	112.2	26.8	56.3	329.1	0
8582	2011-01-20T13:00:00	24	11.53	58.74	994.15	ND	ND	1.2	151	27.7	53.9	575.3	0
8583	2011-01-20T14:00:00	17	9.00	36.55	696.59	ND	ND	0.5	162	29	48.6	454.9	0
8584	2011-01-20T15:00:00	10	6.31	29.77	371.02	ND	ND	1.4	323.7	28.6	47.8	272.8	0
8585	2011-01-20T16:00:00	6	5.74	18.35	464.70	ND	ND	4	276.6	29.2	44.7	478.6	0
8586	2011-01-20T17:00:00	5	5.58	19.04	578.57	ND	ND	3.8	282.9	28	48.1	280.4	0
8587	2011-01-20T18:00:00	14	5.24	26.35	495.42	ND	ND	3.4	277.7	26.7	52.3	90.3	0
8588	2011-01-20T19:00:00	8	5.09	25.57	653.65	ND	ND	4.1	269.5	25.3	57.4	1.1	0
8589	2011-01-20T20:00:00	5	4.24	19.54	446.64	ND	ND	4.4	273.2	24.9	58.9	0	0
8590	2011-01-20T21:00:00	3	2.93	11.27	148.83	ND	ND	3.5	287.7	24.8	58.6	0	0
8591	2011-01-20T22:00:00	3	2.59	17.07	251.53	ND	ND	1.9	247.1	24.4	61.5	0	0
8592	2011-01-20T23:00:00	3	4.28	26.57	262.34	ND	ND	2.1	208.8	23.7	66.4	0	0
8593	2011-01-21T00:00:00	16	8.04	35.89	524.68	ND	ND	0.3	306.8	23.7	65.6	0	0
8594	2011-01-21T01:00:00	17	8.62	20.66	387.28	ND	ND	1.6	205.2	23.3	68.1	0	0
8595	2011-01-21T02:00:00	14	6.66	20.21	363.89	ND	ND	1.2	184.2	22.8	72.6	0	0
8596	2011-01-21T03:00:00	13	11.87	20.36	420.03	ND	ND	0.7	47.4	22.3	76.4	0	0
8597	2011-01-21T04:00:00	29	9.71	18.64	373.74	ND	ND	0.7	77.5	21.6	79.2	0	0
8598	2011-01-21T05:00:00	22	8.88	21.12	464.02	ND	ND	0.5	131.7	21.4	80	0	0
8599	2011-01-21T06:00:00	41	8.72	26.66	860.14	ND	ND	0.5	136.5	21.4	80.1	0	0
8600	2011-01-21T07:00:00	40	9.91	32.97	1809.60	ND	ND	0.6	158.9	21.2	81	9.9	0
8601	2011-01-21T08:00:00	67	12.18	33.93	1711.29	ND	ND	1.2	232.8	21.8	73.6	93.6	0
8602	2011-01-21T09:00:00	52	16.82	53.62	1252.56	ND	ND	1.1	182.5	23.2	69.9	228.7	0
8603	2011-01-21T10:00:00	60	44.20	53.08	1076.87	ND	ND	1.2	162.7	25	63	532.3	0
8604	2011-01-21T11:00:00	42	25.14	48.62	793.39	ND	ND	1.4	159.5	26.1	59.9	473.1	0
8605	2011-01-21T12:00:00	33	17.24	57.38	842.75	ND	ND	0.8	84.4	27.3	55.2	459.8	0
8606	2011-01-21T13:00:00	36	19.25	69.59	904.07	ND	ND	1	71.1	28.5	50.7	628.3	0
8607	2011-01-21T14:00:00	48	34.58	57.72	767.52	ND	ND	1.1	22.6	29.5	46.8	632.2	0
8608	2011-01-21T15:00:00	24	17.06	29.24	850.89	ND	ND	1.8	297.3	30.2	41.9	443.7	0
8609	2011-01-21T16:00:00	12	8.59	22.90	629.84	ND	ND	3.3	281.1	30.4	41.3	534.9	0
8610	2011-01-21T17:00:00	13	6.93	20.40	615.12	ND	ND	4.1	278.9	28.9	46.2	313.5	0
8611	2011-01-21T18:00:00	25	5.52	30.95	727.06	ND	ND	3.7	278.7	27.2	49.6	105.1	0
8612	2011-01-21T19:00:00	14	6.22	32.92	711.94	ND	ND	3.9	283.7	25.7	54.6	1.8	0
8613	2011-01-21T20:00:00	12	5.32	22.18	573.19	ND	ND	4.2	275.8	25.2	57.3	0	0
8614	2011-01-21T21:00:00	7	5.19	20.42	515.52	ND	ND	2.6	286.4	25	57.2	0	0
8615	2011-01-21T22:00:00	4	4.34	14.37	297.06	ND	ND	3.1	256.3	24.2	61.8	0	0
8616	2011-01-21T23:00:00	4	3.97	15.40	353.71	ND	ND	2.6	249.3	23.8	63.5	0	0
8617	2011-01-22T00:00:00	4	5.04	24.71	376.65	ND	ND	1.1	280.3	23.9	63.1	0	0
8618	2011-01-22T01:00:00	3	9.10	38.49	1057.55	ND	ND	0.7	54.4	22.8	70.3	0	0
8619	2011-01-22T02:00:00	20	6.87	26.07	567.04	ND	ND	0.8	111.3	22	74.7	0	0
8620	2011-01-22T03:00:00	11	6.61	20.22	430.80	ND	ND	1	136.9	21.9	75.3	0	0
8621	2011-01-22T04:00:00	18	6.11	17.43	317.11	ND	ND	1.2	155.6	21.6	78.4	0	0
8622	2011-01-22T05:00:00	10	5.13	18.46	407.57	ND	ND	0.7	147.2	21.5	79.7	0	0
8623	2011-01-22T06:00:00	15	6.24	23.23	384.93	ND	ND	0.5	187.5	21.5	77.9	0	0
8624	2011-01-22T07:00:00	8	6.73	25.95	747.22	ND	ND	0.7	222.2	21.5	76.1	16.1	0
8625	2011-01-22T08:00:00	13	9.16	41.00	1012.06	ND	ND	0.2	200.7	22.8	70.6	155.1	0
8626	2011-01-22T09:00:00	8	12.88	76.34	1256.79	ND	ND	0.8	118.5	24.2	66.2	304.4	0
8627	2011-01-22T10:00:00	37	18.01	70.66	1102.00	ND	ND	1	61.2	25.6	61.4	467.6	0
8628	2011-01-22T11:00:00	40	18.37	57.50	723.91	ND	ND	0.9	45.9	25.9	59.5	312.6	0
8629	2011-01-22T12:00:00	53	20.05	71.79	925.10	ND	ND	0.9	91	27.8	52.5	573.8	0
8630	2011-01-22T13:00:00	31	22.05	43.43	683.62	ND	ND	0.4	39.7	28.4	49.4	456.2	0
8631	2011-01-22T14:00:00	43	23.23	55.11	464.24	ND	ND	0.9	53.8	28.9	47.8	360.2	0
8632	2011-01-22T15:00:00	23	19.62	26.96	302.16	ND	ND	1.1	307.8	29.3	46.4	370.4	0
8633	2011-01-22T16:00:00	12	7.37	13.09	128.05	ND	ND	3.7	277.6	29.8	44.1	474	0
8634	2011-01-22T17:00:00	7	6.09	14.64	115.79	ND	ND	4	277.5	28.2	47.5	251.3	0
8635	2011-01-22T18:00:00	5	5.12	14.65	288.61	ND	ND	4.3	278.5	27.3	49.3	105.1	0
8636	2011-01-22T19:00:00	4	4.15	19.92	367.82	ND	ND	3.7	274.3	26	54.4	0.5	0
8637	2011-01-22T20:00:00	14	4.59	25.74	573.57	ND	ND	3.1	281.4	25.4	56.4	0	0
8638	2011-01-22T21:00:00	9	5.24	22.46	446.94	ND	ND	2.7	263.3	25.1	58.3	0	0
8639	2011-01-22T22:00:00	7	4.18	10.33	205.66	ND	ND	3.6	263	24.2	62.1	0	0
8640	2011-01-22T23:00:00	4	3.63	11.72	228.43	ND	ND	2.4	271.4	24.1	62.7	0	0
8641	2011-01-23T00:00:00	2	4.15	13.26	330.78	ND	ND	1.3	290.4	23.7	66.8	0	4.57
8642	2011-01-23T01:00:00	2	5.00	29.47	633.79	ND	ND	1.1	328.2	21.4	85.1	0	4.32
8643	2011-01-23T02:00:00	3	4.24	21.99	418.33	ND	ND	0.6	325.1	21.1	86.8	0	1.27
8644	2011-01-23T03:00:00	3	4.61	18.02	520.44	ND	ND	0.2	155.4	21.3	84.8	0	0
8645	2011-01-23T04:00:00	3	4.53	17.92	203.79	ND	ND	0.4	245.4	21.5	82.5	0	0.25
8646	2011-01-23T05:00:00	2	3.80	11.27	181.02	ND	ND	0.9	258.1	21.3	81	0	0
8647	2011-01-23T06:00:00	3	3.62	6.66	158.07	ND	ND	0.7	228.9	20.7	81.6	0	0
8648	2011-01-23T07:00:00	2	3.72	11.72	395.45	ND	ND	1	259.1	20.9	80	12.4	0
8649	2011-01-23T08:00:00	8	4.27	18.76	645.33	ND	ND	0.7	248.7	21.5	78.8	101.8	0
8650	2011-01-23T09:00:00	11	6.14	25.41	659.99	ND	ND	0.9	189.6	23	73.6	302.2	0
8651	2011-01-23T10:00:00	7	11.03	23.70	595.92	ND	ND	1.3	137.7	25.1	65.5	575.2	0
8652	2011-01-23T11:00:00	5	15.74	28.41	517.77	ND	ND	1.6	140.9	26.3	61	679.7	0
8653	2011-01-23T12:00:00	6	11.84	27.61	254.15	ND	ND	1.2	115.2	27.5	54.8	557.6	0
8654	2011-01-23T13:00:00	3	10.35	25.34	46.42	ND	ND	0.6	47.7	28.9	48.7	722.3	0
8655	2011-01-23T14:00:00	8	11.39	30.48	407.29	ND	ND	0.9	37.3	29.7	46	482.2	0
8656	2011-01-23T15:00:00	5	9.30	5.00	104.83	ND	ND	3.3	293.7	30	45.3	621.7	0
8657	2011-01-23T16:00:00	5	7.04	2.28	174.78	ND	ND	3.5	279.3	30.1	43.9	533.5	0
8658	2011-01-23T17:00:00	3	6.75	3.36	116.18	ND	ND	4.1	276.3	29.2	46.5	321.8	0
8659	2011-01-23T18:00:00	1	5.33	3.85	23.07	ND	ND	4.4	276.3	27	52.7	71.7	0
8660	2011-01-23T19:00:00	1	4.68	10.75	126.40	ND	ND	4.1	265.2	25.9	56.6	0.1	0
8661	2011-01-23T20:00:00	12	4.15	11.48	45.93	ND	ND	3.7	272.4	25.7	56.7	0	0
8662	2011-01-23T21:00:00	7	3.94	9.67	91.77	ND	ND	3.3	270.1	25.4	58.7	0	0
8663	2011-01-23T22:00:00	4	2.83	11.07	171.55	ND	ND	2.4	239.4	24.5	63.4	0	0
8664	2011-01-23T23:00:00	2	2.82	9.88	239.93	ND	ND	1.5	253.2	24.2	64.2	0	0
8665	2011-01-24T00:00:00	1	3.76	21.39	353.47	ND	ND	0.9	171.3	23.6	66.7	0	0
8666	2011-01-24T01:00:00	2	4.05	20.29	386.37	ND	ND	0.6	130.7	22.6	72.4	0	0
8667	2011-01-24T02:00:00	14	4.54	18.05	260.84	ND	ND	0.7	46.7	22	75.8	0	0
8668	2011-01-24T03:00:00	9	5.65	20.23	294.56	ND	ND	0.6	18.8	21.7	77.2	0	0
8669	2011-01-24T04:00:00	14	7.26	22.21	238.16	ND	ND	0.4	334.9	22	75.5	0	0
8670	2011-01-24T05:00:00	9	8.40	26.95	181.39	ND	ND	0.3	256.5	21.9	74.9	0	0
8671	2011-01-24T06:00:00	8	6.48	14.45	158.61	ND	ND	0.8	230.4	21.7	72.5	0	0
8672	2011-01-24T07:00:00	5	5.72	35.01	1267.15	ND	ND	1.2	151.7	21.3	77.5	11.9	0
8673	2011-01-24T08:00:00	28	7.88	49.88	1959.95	ND	ND	0.6	158	21.7	77.6	119.8	0
8674	2011-01-24T09:00:00	34	8.17	68.44	1620.76	ND	ND	0.7	131.8	23.9	67.6	319.6	0
8675	2011-01-24T10:00:00	30	8.07	42.32	733.43	ND	ND	1	152.1	25.1	62.9	472.4	0
8676	2011-01-24T11:00:00	17	ND	ND	ND	ND	ND	1.3	129.4	26.6	56.2	615.9	0
8677	2011-01-24T12:00:00	30	10.33	55.34	752.89	ND	ND	1.3	100.5	28.3	50.1	622.7	0
8678	2011-01-24T13:00:00	21	10.81	39.07	580.49	ND	ND	0.9	44.9	29	47	639.6	0
8679	2011-01-24T14:00:00	32	10.83	48.50	639.60	ND	ND	0.7	358.4	29.5	45.6	399.8	0
8680	2011-01-24T15:00:00	17	10.70	34.98	630.25	ND	ND	1.2	5.2	30.6	42.3	520.5	0
8681	2011-01-24T16:00:00	13	6.95	19.67	453.83	ND	ND	3.2	280.5	29.7	44.6	367.7	0
8682	2011-01-24T17:00:00	8	6.89	26.38	359.19	ND	ND	4.2	278.3	28.4	47.8	258.1	0
8683	2011-01-24T18:00:00	7	5.90	25.04	357.16	ND	ND	4.8	272.7	26.7	52.6	49.2	0
8684	2011-01-24T19:00:00	5	4.97	27.95	562.85	ND	ND	4.4	271.8	25.8	55.9	0.5	0
8685	2011-01-24T20:00:00	6	4.62	29.29	413.25	ND	ND	3	277.8	25.6	56.7	0	0
8686	2011-01-24T21:00:00	5	4.83	21.75	332.67	ND	ND	2	275.3	25.4	56.6	0	0
8687	2011-01-24T22:00:00	3	3.85	11.14	240.42	ND	ND	3.1	259.9	24.8	59.5	0	0
8688	2011-01-24T23:00:00	2	3.71	16.40	263.05	ND	ND	1.7	238.5	24.5	61.8	0	0
8689	2011-01-25T00:00:00	4	8.20	40.78	605.34	ND	ND	0.7	1.4	24.1	64.4	0	0
8690	2011-01-25T01:00:00	3	7.37	30.19	261.81	ND	ND	0.7	121.5	23.1	70.2	0	0
8691	2011-01-25T02:00:00	19	7.24	22.40	125.21	ND	ND	0.8	188.8	23.1	70.2	0	0
8692	2011-01-25T03:00:00	14	8.12	18.25	34.13	ND	ND	0.7	205.1	22.9	71.6	0	0
8693	2011-01-25T04:00:00	28	8.73	20.17	113.60	ND	ND	0.2	13.3	22.5	73.3	0	0
8694	2011-01-25T05:00:00	23	9.10	27.20	385.59	ND	ND	0.4	85.1	22	76.8	0	0
8695	2011-01-25T06:00:00	36	8.66	27.86	600.86	ND	ND	0.6	159.4	21.9	76.5	0	0
8696	2011-01-25T07:00:00	25	10.28	31.77	942.24	ND	ND	0.4	242.9	22.3	74	13.3	0
8697	2011-01-25T08:00:00	63	15.36	59.54	2454.58	ND	ND	0.7	155.2	22.6	73.3	74.5	0
8698	2011-01-25T09:00:00	53	16.48	72.91	2100.84	ND	ND	0.8	174.1	24	67.3	212.6	0
8699	2011-01-25T10:00:00	47	11.66	50.38	1408.62	ND	ND	1.5	162.8	24.9	62.1	295.2	0
8700	2011-01-25T11:00:00	24	14.12	37.30	942.55	ND	ND	0.7	150.3	26	57.5	475.1	0
8701	2011-01-25T12:00:00	29	12.24	30.52	855.43	ND	ND	0.8	198	27.7	50.8	579.2	0
8702	2011-01-25T13:00:00	17	10.35	41.42	904.67	ND	ND	0.8	249.1	28.7	47.6	698.3	0
8703	2011-01-25T14:00:00	32	8.14	29.79	732.63	ND	ND	0.6	347.9	29.5	45.5	353.9	0
8704	2011-01-25T15:00:00	20	7.00	20.34	569.82	ND	ND	2.4	279.6	29.5	44.8	454.4	0
8705	2011-01-25T16:00:00	12	7.39	17.72	558.20	ND	ND	3.8	274	29.5	44.7	454.1	0
8706	2011-01-25T17:00:00	7	7.80	27.68	707.26	ND	ND	3.1	272.7	28.6	47.7	194.6	0
8707	2011-01-25T18:00:00	7	6.73	34.48	830.65	ND	ND	3.7	267.6	27.1	52.9	50.8	0
8708	2011-01-25T19:00:00	4	6.07	27.74	700.70	ND	ND	4.6	263.5	25.8	56.7	0.6	0
8709	2011-01-25T20:00:00	2	5.80	22.54	482.29	ND	ND	3.9	272.9	25.7	56.8	0	0
8710	2011-01-25T21:00:00	2	4.96	17.74	424.73	ND	ND	3.7	271.4	25.6	56.8	0	0
8711	2011-01-25T22:00:00	2	4.64	21.49	458.55	ND	ND	2.1	229.5	25.2	61.1	0	0
8712	2011-01-25T23:00:00	5	5.97	18.28	503.73	ND	ND	2.2	232.8	24.8	63.1	0	0
8713	2011-01-26T00:00:00	7	4.60	1.28	182.93	ND	ND	2.1	257.6	24.4	64.8	0	0
8714	2011-01-26T01:00:00	4	2.51	2.51	159.79	ND	ND	1.3	210.2	23.9	67.6	0	0
8715	2011-01-26T02:00:00	3	4.33	10.38	262.16	ND	ND	0.6	189.6	23.5	69.9	0	0
8716	2011-01-26T03:00:00	3	6.74	14.68	295.76	ND	ND	0.6	346.5	22.9	73.8	0	0
8717	2011-01-26T04:00:00	29	14.50	19.95	318.08	ND	ND	0.4	246.6	22.5	75.3	0	0
8718	2011-01-26T05:00:00	14	10.86	14.13	295.26	ND	ND	0.4	149.5	22.4	73.6	0	0
8719	2011-01-26T06:00:00	7	7.60	19.71	419.75	ND	ND	0.4	223	22.1	75.5	0	0
8720	2011-01-26T07:00:00	5	8.15	25.63	952.95	ND	ND	0.4	257.6	22.1	74.1	6.7	0
8721	2011-01-26T08:00:00	26	11.47	44.78	2416.40	ND	ND	0.9	149.7	22.1	74.5	67.2	0
8722	2011-01-26T09:00:00	26	10.32	62.06	1959.87	ND	ND	0.7	161.8	23.4	69.1	192.4	0
8723	2011-01-26T10:00:00	36	8.56	39.26	984.56	ND	ND	0.8	128	24.8	60.8	292.3	0
8724	2011-01-26T11:00:00	18	9.03	28.61	702.10	ND	ND	0.5	102.2	26.4	54.9	673.3	0
8725	2011-01-26T12:00:00	14	11.43	47.64	821.02	ND	ND	0.7	70.2	27.8	51.8	490.2	0
8726	2011-01-26T13:00:00	15	13.43	60.69	995.80	ND	ND	0.9	43.4	28.2	51	379.5	0
8727	2011-01-26T14:00:00	25	7.13	17.66	509.82	ND	ND	2.8	283.8	28.4	47.8	478.1	0
8728	2011-01-26T15:00:00	13	6.52	10.18	221.17	ND	ND	3.2	286.7	29.8	43.2	728.9	0
8729	2011-01-26T16:00:00	6	7.28	15.84	476.48	ND	ND	4.4	281.7	29.3	45.3	556.2	0
8730	2011-01-26T17:00:00	4	6.42	19.18	854.86	ND	ND	3.9	282.2	27.5	50.7	219.9	0
8731	2011-01-26T18:00:00	14	6.42	23.31	736.39	ND	ND	4	277.6	26.3	54.9	65.1	0
8732	2011-01-26T19:00:00	12	6.34	21.83	709.80	ND	ND	3.8	247.2	24.8	61.2	0.4	0
8733	2011-01-26T20:00:00	28	7.23	47.85	981.92	ND	ND	1.3	162.8	24	63.9	0	0
8734	2011-01-26T21:00:00	18	6.10	47.82	499.50	ND	ND	1.7	130.8	22.3	66.3	0	0
8735	2011-01-26T22:00:00	33	5.33	45.94	996.29	ND	ND	1	138.8	21.5	70.6	0	0
8736	2011-01-26T23:00:00	18	5.13	52.52	974.31	ND	ND	0.1	355.3	21.7	70.1	0	0
8737	2011-01-27T00:00:00	23	7.78	60.28	941.28	ND	ND	0.4	41.9	22	70.3	0	0
8738	2011-01-27T01:00:00	29	15.39	38.55	554.00	ND	ND	1.1	90	21.1	76.6	0	0
8739	2011-01-27T02:00:00	31	11.02	19.30	90.23	ND	ND	0.6	160.4	20.4	80.6	0	0
8740	2011-01-27T03:00:00	16	8.24	16.66	214.45	ND	ND	0.6	217.1	20.6	79.6	0	0
8741	2011-01-27T04:00:00	21	8.32	23.64	271.07	ND	ND	0.8	140.3	20.8	78.8	0	0
8742	2011-01-27T05:00:00	12	16.42	29.54	451.48	ND	ND	0.8	15.2	20.6	80.4	0	0
8743	2011-01-27T06:00:00	49	30.39	35.60	676.75	ND	ND	0.9	41.9	20.4	81.4	0	0
8744	2011-01-27T07:00:00	46	53.56	48.38	1579.09	ND	ND	0.5	55.3	20.4	81.5	2.1	0
8745	2011-01-27T08:00:00	88	69.34	56.97	2889.45	ND	ND	0.7	87.2	20.6	81	46.4	0
8746	2011-01-27T09:00:00	93	72.94	85.25	2358.08	ND	ND	0.6	38.4	21.9	75.3	202.2	0
8747	2011-01-27T10:00:00	98	67.19	88.49	1473.87	ND	ND	0.6	117.7	24.2	62.9	437	0
8748	2011-01-27T11:00:00	67	35.30	64.00	1068.63	ND	ND	1	104	25.9	56.5	558.5	0
8749	2011-01-27T12:00:00	63	21.66	54.45	946.02	ND	ND	1.2	115.7	27.1	52.1	598.1	0
8750	2011-01-27T13:00:00	39	17.20	66.58	1193.44	ND	ND	0.8	116	28.4	48.3	471.1	0
8751	2011-01-27T14:00:00	51	20.27	66.97	951.06	ND	ND	0.9	61.5	28.7	47.6	414.5	0
8752	2011-01-27T15:00:00	26	14.25	39.51	708.90	ND	ND	0.7	354	29.3	44.8	392.2	0
8753	2011-01-27T16:00:00	13	9.33	17.56	522.96	ND	ND	4.1	279.5	29.3	44.8	504.9	0
8754	2011-01-27T17:00:00	7	8.50	23.52	625.06	ND	ND	4	281	28.1	47.9	257.2	0
8755	2011-01-27T18:00:00	17	8.59	28.90	691.52	ND	ND	3.3	277.2	26.8	52	65.9	0
8756	2011-01-27T19:00:00	9	9.30	32.57	723.43	ND	ND	3	270.8	25.7	55.4	1.1	0
8757	2011-01-27T20:00:00	13	8.66	28.09	493.11	ND	ND	2.7	245.6	25.3	58	0	0
8758	2011-01-27T21:00:00	8	8.61	25.94	435.04	ND	ND	2	257.5	24.8	60.8	0	0
8759	2011-01-27T22:00:00	8	9.99	18.92	365.73	ND	ND	1.8	288.3	24.3	61.9	0	0
8760	2011-01-27T23:00:00	5	8.55	47.72	637.88	ND	ND	0.8	219.5	23.3	68.5	0	0
8761	2011-01-28T00:00:00	10	7.93	46.56	590.92	ND	ND	0.8	177	22.6	73.4	0	0
8762	2011-01-28T01:00:00	16	8.31	34.91	398.54	ND	ND	0.3	17	23.2	68.2	0	0
8763	2011-01-28T02:00:00	22	8.83	35.54	442.74	ND	ND	1	54.9	22.3	76.3	0	0
8764	2011-01-28T03:00:00	31	10.59	31.21	363.15	ND	ND	0.6	14.6	22.2	77.4	0	0
8765	2011-01-28T04:00:00	45	10.99	24.45	294.66	ND	ND	1	152.8	21.8	79.1	0	0
8766	2011-01-28T05:00:00	24	9.07	16.34	419.32	ND	ND	1.8	182.2	21.8	79.1	0	0
8767	2011-01-28T06:00:00	22	7.88	21.29	645.77	ND	ND	1.9	176.7	21.7	79.7	0	0
8768	2011-01-28T07:00:00	11	8.07	37.18	1435.88	ND	ND	1.4	169.8	21.1	83.5	8.6	0
8769	2011-01-28T08:00:00	18	9.04	47.05	2090.21	ND	ND	1.8	149.2	20.9	83.1	81.3	0
8770	2011-01-28T09:00:00	10	9.21	49.52	1439.79	ND	ND	1.7	152.3	21.9	77.4	228.1	0
8771	2011-01-28T10:00:00	6	9.50	35.03	787.55	ND	ND	1.3	174.8	23.9	66	504.5	0
8772	2011-01-28T11:00:00	4	9.12	40.33	745.14	ND	ND	0.9	154.4	25.2	61.3	468.6	0
8773	2011-01-28T12:00:00	5	8.09	36.66	552.84	ND	ND	0.4	116.5	26.6	56	478	0
8774	2011-01-28T13:00:00	4	9.53	58.50	981.28	ND	ND	0.8	105.7	27.3	53.1	438.3	0
8775	2011-01-28T14:00:00	16	17.54	31.74	637.06	ND	ND	2.1	305.3	28.3	48.7	611.2	0
8776	2011-01-28T15:00:00	9	9.50	20.71	545.12	ND	ND	1.6	341.5	28.7	46.1	421.1	0
8777	2011-01-28T16:00:00	6	8.17	23.34	612.67	ND	ND	3.6	285.9	27.7	49.5	280.3	0
8778	2011-01-28T17:00:00	4	8.41	34.62	807.31	ND	ND	2.9	290.5	27	50.8	197	0
8779	2011-01-28T18:00:00	4	6.86	27.05	597.51	ND	ND	3.8	276.5	25.9	53.2	58.7	0
8780	2011-01-28T19:00:00	3	7.18	31.07	687.60	ND	ND	3.3	274.6	25.1	55.3	1.1	0
8781	2011-01-28T20:00:00	3	5.94	35.40	537.71	ND	ND	3.2	256	24.6	57.9	0	0
8782	2011-01-28T21:00:00	2	6.42	55.99	946.71	ND	ND	1.8	188.8	23.7	67.6	0	0
8783	2011-01-28T22:00:00	16	6.47	39.76	638.53	ND	ND	1.3	221	23.6	64.4	0	0
8784	2011-01-28T23:00:00	9	6.10	39.45	661.55	ND	ND	1.1	238.2	23.7	63	0	0
8785	2011-01-29T00:00:00	14	10.66	40.65	729.25	ND	ND	0.8	351.4	23.4	64.8	0	0
8786	2011-01-29T01:00:00	15	18.81	54.09	737.40	ND	ND	1.5	349.4	22.1	75.5	0	0
8787	2011-01-29T02:00:00	39	15.86	45.48	521.32	ND	ND	0.4	35.5	21.8	75.6	0	0
8788	2011-01-29T03:00:00	21	17.94	26.17	283.42	ND	ND	0.6	39.1	21.9	73.3	0	0
8789	2011-01-29T04:00:00	21	12.36	18.55	67.70	ND	ND	1.2	77.5	20.5	85.5	0	0
8790	2011-01-29T05:00:00	12	8.94	18.43	56.34	ND	ND	0.4	93	20.1	86.8	0	0
8791	2011-01-29T06:00:00	9	8.58	21.82	135.54	ND	ND	0.3	201.5	20.8	83.3	0	0
8792	2011-01-29T07:00:00	5	8.92	31.91	441.09	ND	ND	0.8	198.2	21.2	81	4.1	0
8793	2011-01-29T08:00:00	28	10.37	46.01	1525.81	ND	ND	1	163.6	21	84.4	52.1	0
8794	2011-01-29T09:00:00	15	12.05	49.81	1347.72	ND	ND	1.2	199.1	21.6	81.6	131.5	0
8795	2011-01-29T10:00:00	35	13.08	64.36	1287.15	ND	ND	0.8	172.1	23.3	72.9	340.8	0
8796	2011-01-29T11:00:00	21	12.77	53.99	1057.14	ND	ND	1.3	115.8	25.9	61.1	709.3	0
8797	2011-01-29T12:00:00	27	12.31	49.68	783.46	ND	ND	0.7	79.1	26.7	57.6	393	0
8798	2011-01-29T13:00:00	14	12.02	41.41	531.22	ND	ND	0.4	2.1	27.4	53.4	491.8	0
8799	2011-01-29T14:00:00	17	12.55	54.41	488.10	ND	ND	0.4	350.4	29.3	47	725	0
8800	2011-01-29T15:00:00	11	12.70	37.82	487.78	ND	ND	1	337.4	29.1	46.7	450.1	0
8801	2011-01-29T16:00:00	12	13.87	34.10	579.72	ND	ND	2.2	288.4	28.6	47.1	314.2	0
8802	2011-01-29T17:00:00	8	7.16	17.27	265.79	ND	ND	3.9	279.8	27.6	49.7	190.3	0
8803	2011-01-29T18:00:00	4	7.25	26.37	495.42	ND	ND	2.2	296.2	26.7	52.2	78.2	0
8804	2011-01-29T19:00:00	4	6.57	26.34	493.93	ND	ND	3.2	271.5	25.8	55.8	2.2	0
8805	2011-01-29T20:00:00	3	6.26	23.23	297.96	ND	ND	3.5	272.3	25.1	57.6	0	0
8806	2011-01-29T21:00:00	14	12.20	46.15	904.12	ND	ND	0.7	256.8	24.7	59.9	0	0
8807	2011-01-29T22:00:00	16	7.89	33.29	628.18	ND	ND	2.1	196	24.1	64.6	0	0
8808	2011-01-29T23:00:00	9	8.67	49.91	967.88	ND	ND	1.2	146.1	23.2	69.6	0	0
8809	2011-01-30T00:00:00	27	7.95	48.80	1227.29	ND	ND	0.8	80.9	22.6	72.7	0	0
8810	2011-01-30T01:00:00	21	7.19	38.76	816.53	ND	ND	0.7	97.6	22	75.1	0	0
8811	2011-01-30T02:00:00	18	7.24	33.25	476.47	ND	ND	0.4	13.8	22.1	74.9	0	0
8812	2011-01-30T03:00:00	10	8.37	39.71	543.80	ND	ND	0.7	37.7	21.7	76.4	0	0
8813	2011-01-30T04:00:00	13	8.80	31.44	520.26	ND	ND	0.6	37.3	21.2	79	0	0
8814	2011-01-30T05:00:00	15	9.61	27.49	383.89	ND	ND	1	56.7	20.7	81.6	0	0
8815	2011-01-30T06:00:00	20	10.17	30.23	451.48	ND	ND	0.5	62.5	20.6	82.7	0	0
8816	2011-01-30T07:00:00	30	12.56	33.06	576.22	ND	ND	0.3	2.6	20.9	81.8	8.1	0
8817	2011-01-30T08:00:00	33	14.48	41.62	928.36	ND	ND	0.3	170	21.5	78.3	42.4	0
8818	2011-01-30T09:00:00	29	16.09	51.31	1013.09	ND	ND	0.6	182.4	23.1	72	253.9	0
8819	2011-01-30T10:00:00	28	24.41	32.30	583.48	ND	ND	1.3	151.4	24.6	64.7	490.5	0
8820	2011-01-30T11:00:00	14	21.95	21.83	402.71	ND	ND	1.2	120.2	26.3	57.4	722.7	0
8821	2011-01-30T12:00:00	7	14.19	20.89	393.43	ND	ND	1.4	117.5	28	50.1	614.9	0
8822	2011-01-30T13:00:00	5	12.31	28.55	475.53	ND	ND	1.2	100.5	28.7	48.1	571.6	0
8823	2011-01-30T14:00:00	12	13.01	24.64	441.90	ND	ND	0.6	101.3	29.5	46	473.1	0
8824	2011-01-30T15:00:00	7	9.48	7.77	267.73	ND	ND	2.7	280.1	29.8	44.5	641.6	0
8825	2011-01-30T16:00:00	5	7.81	0.13	104.56	ND	ND	4.8	278.8	29.2	46.5	549.3	0
8826	2011-01-30T17:00:00	2	7.21	0.70	139.04	ND	ND	4.6	274.3	28.4	48.3	342.8	0
8827	2011-01-30T18:00:00	1	7.48	2.35	126.74	ND	ND	4.5	278	26.7	52.8	33.5	0
8828	2011-01-30T19:00:00	2	7.29	4.82	184.04	ND	ND	4.4	268.8	26.2	54.1	0.4	0
8829	2011-01-30T20:00:00	9	6.36	10.16	264.11	ND	ND	4	267.4	25.7	57.4	0	0
8830	2011-01-30T21:00:00	6	6.79	15.17	366.84	ND	ND	2.9	256.7	25.2	60	0	0
8831	2011-01-30T22:00:00	3	5.78	7.73	286.02	ND	ND	2.6	247.4	24.6	62	0	0
8832	2011-01-30T23:00:00	3	5.44	3.01	205.66	ND	ND	2.8	255.7	24.2	63.4	0	0
8833	2011-01-31T00:00:00	3	5.74	4.00	57.07	ND	ND	1.5	234.2	23.9	65	0	0
8834	2011-01-31T01:00:00	2	6.03	21.06	227.35	ND	ND	0.6	110.5	22.7	73.7	0	0
8835	2011-01-31T02:00:00	8	7.09	13.85	192.99	ND	ND	0.6	56.7	22.3	74.8	0	0
8836	2011-01-31T03:00:00	5	7.22	13.61	193.05	ND	ND	0.7	80.1	22.4	73.6	0	0
8837	2011-01-31T04:00:00	4	7.29	13.45	646.86	ND	ND	0.8	133.8	22.2	74.8	0	0
8838	2011-01-31T05:00:00	3	7.19	17.73	249.50	ND	ND	0.7	174	22	78.7	0	0
8839	2011-01-31T06:00:00	7	8.27	20.51	612.40	ND	ND	0.3	17.8	22	78.4	0	0
8840	2011-01-31T07:00:00	28	11.40	36.72	1630.85	ND	ND	0.4	63	21.6	81.3	4.8	0
8841	2011-01-31T08:00:00	43	14.16	43.60	2652.83	ND	ND	1.1	142.3	21.9	80.6	57.1	0
8842	2011-01-31T09:00:00	22	17.11	45.30	1773.95	ND	ND	1.3	140.4	22.8	74.2	147.9	0
8843	2011-01-31T10:00:00	43	17.41	46.64	1154.35	ND	ND	0.8	134.1	24.3	64.3	302.6	0
8844	2011-01-31T11:00:00	23	15.58	41.35	862.95	ND	ND	1.2	163.3	26.3	57.4	577.4	0
8845	2011-01-31T12:00:00	13	12.55	44.54	831.48	ND	ND	0.9	106.5	27.4	53.3	440.8	0
8846	2011-01-31T13:00:00	7	13.11	44.37	926.33	ND	ND	0.4	310.9	28.2	50.5	525.3	0
8847	2011-01-31T14:00:00	20	14.10	46.68	953.90	ND	ND	0.6	68.5	29.6	46.1	441.5	0
8848	2011-01-31T15:00:00	16	16.76	54.12	1060.34	ND	ND	0.7	28.9	30.1	43.8	378	0
8849	2011-01-31T16:00:00	26	9.79	19.08	674.49	ND	ND	3.2	278.2	29.5	44.9	327.3	0
8850	2011-01-31T17:00:00	13	9.69	18.73	544.04	ND	ND	4.7	274.1	28.1	48.7	237.2	0
8851	2011-01-31T18:00:00	13	8.31	21.01	322.92	ND	ND	4.1	280.4	27	51.4	86.4	0
8852	2011-01-31T19:00:00	8	9.05	28.71	574.92	ND	ND	4	274.3	26.1	54.8	1.7	0
8853	2011-01-31T20:00:00	6	7.56	31.19	688.98	ND	ND	3.5	272.4	25.7	55.8	0	0
8854	2011-01-31T21:00:00	4	6.04	22.71	562.29	ND	ND	2.1	272.5	25.5	56.4	0	0
8855	2011-01-31T22:00:00	3	6.15	9.41	412.00	ND	ND	2.9	252.5	24.7	60.3	0	0
8856	2011-01-31T23:00:00	21	5.36	11.32	423.16	ND	ND	2.1	245.4	24.5	60.4	0	0
8857	2011-02-01T00:00:00	42	8.15	36.52	810.92	ND	ND	1.1	197.9	24.1	66.5	0	0
8858	2011-02-01T01:00:00	23	ND	ND	ND	ND	ND	1.1	211.3	23.6	68.7	0	0
8859	2011-02-01T02:00:00	35	ND	ND	ND	ND	ND	0.2	118.8	22.8	72.8	0	0
8860	2011-02-01T03:00:00	19	7.23	28.60	454.86	ND	ND	0.6	348.7	22.5	72.8	0	0
8861	2011-02-01T04:00:00	20	8.70	18.83	465.76	ND	ND	0.9	354.6	22.6	71.7	0	0
8862	2011-02-01T05:00:00	22	11.57	25.95	500.01	ND	ND	0.6	38.3	22.1	74	0	0
8863	2011-02-01T06:00:00	38	13.91	28.46	465.13	ND	ND	0.4	162.6	21.8	76.1	0	0
8864	2011-02-01T07:00:00	36	26.02	31.23	611.98	ND	ND	0.5	195.8	21.4	78.9	6.2	0
8865	2011-02-01T08:00:00	43	23.89	30.22	916.73	ND	ND	0.7	14.8	22.2	73.1	86.6	0
8866	2011-02-01T09:00:00	54	19.10	31.12	1418.55	ND	ND	0.8	45.8	23.1	72.6	127.4	0
8867	2011-02-01T10:00:00	64	25.33	54.70	2071.71	ND	ND	1.1	53.5	24.8	65.7	458.3	0
8868	2011-02-01T11:00:00	41	29.64	79.99	2117.95	ND	ND	1.3	83.4	26.5	58.1	585.5	0
8869	2011-02-01T12:00:00	29	35.21	71.40	1588.90	ND	ND	1	99.1	27.7	54	602.9	0
8870	2011-02-01T13:00:00	16	29.64	55.61	1190.67	ND	ND	0.8	96.3	28.4	50.9	498.7	0
8871	2011-02-01T14:00:00	41	24.57	59.21	1251.37	ND	ND	1.1	132.2	29	49.6	486.4	0
8872	2011-02-01T15:00:00	25	20.63	57.34	1207.42	ND	ND	0.8	136.9	30.3	45.9	475.7	0
8873	2011-02-01T16:00:00	60	18.08	56.24	932.79	ND	ND	1.6	72	29.4	48.1	168.1	0
8874	2011-02-01T17:00:00	52	17.60	58.87	1023.02	ND	ND	1.3	295.5	29.1	49.8	215.5	0
8875	2011-02-01T18:00:00	52	18.46	82.60	1544.62	ND	ND	3.2	264.5	27.9	52.6	91.4	0
8876	2011-02-01T19:00:00	35	16.43	45.53	913.84	ND	ND	3.1	272.5	27	54.6	0.6	0
8877	2011-02-01T20:00:00	43	12.56	37.22	403.65	ND	ND	3.5	268.1	26.2	56.9	0	0
8878	2011-02-01T21:00:00	22	11.71	49.36	782.15	ND	ND	2.1	276.9	25.8	58.1	0	0
8879	2011-02-01T22:00:00	15	9.25	28.06	482.45	ND	ND	2.2	274.6	25.1	61	0	0
8880	2011-02-01T23:00:00	8	9.20	39.75	767.81	ND	ND	2.6	263.2	24.6	63.2	0	0
8881	2011-02-02T00:00:00	9	8.77	24.55	583.48	ND	ND	0.7	324.8	24.1	66.7	0	0
8882	2011-02-02T01:00:00	14	8.28	9.09	376.91	ND	ND	0.9	55.8	23.7	69.2	0	0
8883	2011-02-02T02:00:00	19	11.69	31.67	672.96	ND	ND	0.5	101.6	23.1	72.6	0	0
8884	2011-02-02T03:00:00	15	13.98	32.69	580.53	ND	ND	0.6	120.5	23	73.4	0	0
8885	2011-02-02T04:00:00	16	11.95	21.48	421.03	ND	ND	1.2	175.7	22.8	75	0	0
8886	2011-02-02T05:00:00	19	10.66	18.53	398.00	ND	ND	0.9	169.4	22.5	78	0	0
8887	2011-02-02T06:00:00	38	9.82	15.59	431.68	ND	ND	0.5	139.3	22.6	76.4	0	0
8888	2011-02-02T07:00:00	53	9.41	20.61	590.92	ND	ND	0.3	110.2	22.9	74.9	3.6	0
8889	2011-02-02T08:00:00	66	10.28	31.46	671.15	ND	ND	0.8	148.7	23.2	74.3	68.8	0
8890	2011-02-02T09:00:00	53	14.56	42.35	1548.62	ND	ND	1.2	168.9	24.4	70.6	283	0
8891	2011-02-02T10:00:00	58	18.85	54.04	2641.02	ND	ND	1.2	142.7	25.9	63.6	488.4	0
8892	2011-02-02T11:00:00	ND	20.50	72.24	2171.74	ND	ND	0.9	135.9	27.8	56.3	699.9	0
8893	2011-02-02T12:00:00	9	27.98	67.07	1376.08	ND	ND	0.9	102.5	29.1	52	571	0
8894	2011-02-02T13:00:00	35	ND	ND	ND	ND	ND	1	118.2	30	49.9	623.1	0
8895	2011-02-02T14:00:00	39	17.08	71.87	1677.35	ND	ND	1.2	48.5	30.2	48.9	377.9	0
8896	2011-02-02T15:00:00	55	16.32	61.63	1620.18	ND	ND	1.9	272.3	30.7	46.9	592.6	0
8897	2011-02-02T16:00:00	34	14.45	53.76	1517.78	ND	ND	2.9	269.8	31.4	43.3	566.5	0
8898	2011-02-02T17:00:00	52	22.05	37.73	1462.76	ND	ND	4.2	275.3	30.3	46.2	353.3	0
8899	2011-02-02T18:00:00	35	15.01	31.92	1072.70	ND	ND	4.1	276.6	28.4	51.5	95.2	0
8900	2011-02-02T19:00:00	39	10.95	30.84	984.88	ND	ND	4.1	269.2	27	54.8	2.6	0
8901	2011-02-02T20:00:00	21	8.60	28.44	1257.09	ND	ND	4.3	271.8	26.6	55.8	0	0
8902	2011-02-02T21:00:00	36	7.48	29.56	1393.63	ND	ND	2.1	284.4	26.2	58.1	0	0
8903	2011-02-02T22:00:00	19	6.87	22.05	874.17	ND	ND	1.2	298.1	25.5	61.9	0	0
8904	2011-02-02T23:00:00	30	5.67	27.13	803.27	ND	ND	0.2	267.8	24.7	65.8	0	0
8905	2011-02-03T00:00:00	16	7.36	37.61	1247.45	ND	ND	1.2	229.1	24.7	66.3	0	0
8906	2011-02-03T01:00:00	10	9.19	46.29	1464.90	ND	ND	2.6	270.3	24.8	65	0	0
8907	2011-02-03T02:00:00	6	7.75	26.56	675.45	ND	ND	0.4	199.9	24	68.9	0	0
8908	2011-02-03T03:00:00	15	6.14	1.22	319.69	ND	ND	0.1	50.5	22.9	75.6	0	0
8909	2011-02-03T04:00:00	12	6.43	13.60	568.77	ND	ND	0.4	26.2	22.4	77.5	0	0
8910	2011-02-03T05:00:00	25	7.77	24.74	1010.69	ND	ND	0.2	147.4	22.5	77.4	0	0
8911	2011-02-03T06:00:00	32	8.42	28.72	897.44	ND	ND	0.9	170.6	22.6	77	0	0
8912	2011-02-03T07:00:00	34	9.98	29.97	1193.20	ND	ND	1	207.6	22.6	77.9	6.6	0
8913	2011-02-03T08:00:00	42	10.84	30.58	1386.38	ND	ND	1.1	181.6	23.3	73.8	105.6	0
8914	2011-02-03T09:00:00	56	10.89	31.57	1446.62	ND	ND	1.6	156.6	24.6	67.8	298.2	0
8915	2011-02-03T10:00:00	29	15.10	52.82	2951.70	ND	ND	1.5	207.3	25.6	64.1	429.9	0
8916	2011-02-03T11:00:00	27	21.53	49.75	2043.29	ND	ND	0.8	143.7	27.6	56.2	575.1	0
8917	2011-02-03T12:00:00	21	20.48	32.28	1467.62	ND	ND	1.8	109.2	28.9	52.2	612	0
8918	2011-02-03T13:00:00	32	15.48	47.74	1648.05	ND	ND	1.3	65.3	29.7	49.3	594.9	0
8919	2011-02-03T14:00:00	29	14.72	60.65	1745.51	ND	ND	1.6	352.9	30.2	47	507.9	0
8920	2011-02-03T15:00:00	35	13.76	54.42	1701.77	ND	ND	4.4	282.9	30.5	44.6	636.3	0
8921	2011-02-03T16:00:00	19	11.88	28.83	1353.43	ND	ND	4.6	281.9	29.5	47.1	371.9	0
8922	2011-02-03T17:00:00	25	8.01	13.69	1174.54	ND	ND	4.3	283.2	28.9	48.4	244.1	0
8923	2011-02-03T18:00:00	14	7.62	15.93	1462.36	ND	ND	4.7	273.2	27.7	52.4	78.5	0
8924	2011-02-03T19:00:00	17	7.96	19.99	1433.42	ND	ND	4.4	281.1	27	54.2	1.3	0
8925	2011-02-03T20:00:00	8	7.97	18.49	1372.42	ND	ND	4.2	269.5	26.5	56.7	0	0
8926	2011-02-03T21:00:00	4	7.58	17.87	1324.08	ND	ND	2.7	285.6	26.1	57.9	0	0
8927	2011-02-03T22:00:00	2	6.84	17.26	1023.35	ND	ND	2.5	261	25.4	61.2	0	0
8928	2011-02-03T23:00:00	1	5.88	14.60	286.79	ND	ND	2.4	256	25.2	61.7	0	0
8929	2011-02-04T00:00:00	19	6.42	16.57	848.32	ND	ND	0.7	1.2	24.4	67	0	0
8930	2011-02-04T01:00:00	19	5.41	5.15	754.58	ND	ND	0.5	135	24	69.1	0	0
8931	2011-02-04T02:00:00	11	9.56	36.30	1666.97	ND	ND	1	147.6	23.8	71.8	0	0
8932	2011-02-04T03:00:00	25	9.71	28.31	1289.32	ND	ND	0.8	63	23.1	73.6	0	0
8933	2011-02-04T04:00:00	14	8.77	23.41	1126.92	ND	ND	0.7	171.9	22.7	77.5	0	0
8934	2011-02-04T05:00:00	40	9.00	18.65	932.15	ND	ND	0.9	194.5	22.5	78.3	0	0
8935	2011-02-04T06:00:00	21	9.22	15.73	1033.76	ND	ND	0.6	172.9	22.6	78.3	0	0
8936	2011-02-04T07:00:00	34	8.24	20.51	704.56	ND	ND	0.7	175.3	22.8	76.9	2.6	0
8937	2011-02-04T08:00:00	54	8.84	25.41	1068.92	ND	ND	1.1	150	23	74.6	36.6	0
8938	2011-02-04T09:00:00	51	10.28	26.73	1581.71	ND	ND	0.8	161.6	23.6	71.7	133.6	0
8939	2011-02-04T10:00:00	41	13.95	38.90	1904.18	ND	ND	0.8	172.9	25.8	62.4	515	0
8940	2011-02-04T11:00:00	41	17.58	53.22	2102.09	ND	ND	1.1	159.3	27.6	56.6	666.1	0
8941	2011-02-04T12:00:00	21	25.37	53.31	1409.84	ND	ND	1.1	105.6	28.7	52.5	516	0
8942	2011-02-04T13:00:00	37	18.65	38.29	1391.80	ND	ND	0.1	103.7	29.6	48.7	542.3	0
8943	2011-02-04T14:00:00	20	15.06	45.08	802.67	ND	ND	3.3	284.5	29.6	47.1	450.7	0
8944	2011-02-04T15:00:00	11	13.60	40.43	1233.09	ND	ND	4.7	295.6	28.9	47	478	0
8945	2011-02-04T16:00:00	7	8.41	16.89	1056.15	ND	ND	4	308.4	29.9	42.5	504.2	0
8946	2011-02-04T17:00:00	4	6.74	14.43	1059.64	ND	ND	2.9	294.5	29.3	45.1	220.7	0
8947	2011-02-04T18:00:00	11	7.10	15.99	1034.30	ND	ND	3.9	288.6	27.5	49.7	95	0
8948	2011-02-04T19:00:00	15	7.29	25.54	797.10	ND	ND	3.7	258.4	26.4	55.4	1.9	0
8949	2011-02-04T20:00:00	8	6.71	20.51	1035.89	ND	ND	1.9	199.4	25.7	61	0	0
8950	2011-02-04T21:00:00	30	6.46	23.69	1182.75	ND	ND	0.9	176.7	25.2	64.4	0	0
8951	2011-02-04T22:00:00	50	7.50	40.41	1387.12	ND	ND	1.3	29.3	24.2	69.1	0	0
8952	2011-02-04T23:00:00	35	9.41	53.93	1576.69	ND	ND	0.9	164	24.3	66.6	0	0
8953	2011-02-05T00:00:00	25	14.87	70.52	1908.67	ND	ND	1.4	151.9	22.9	74.8	0	0
8954	2011-02-05T01:00:00	22	26.38	42.96	1501.55	ND	ND	0.7	138.7	22.9	73.4	0	0
8955	2011-02-05T02:00:00	13	12.28	29.98	1183.04	ND	ND	0.6	124	22.7	74.4	0	0
8956	2011-02-05T03:00:00	17	9.18	25.55	1091.29	ND	ND	0.5	97.4	22.5	76.2	0	0
8957	2011-02-05T04:00:00	14	8.68	24.17	1033.76	ND	ND	0.3	30.2	22.8	74.9	0	0
8958	2011-02-05T05:00:00	52	8.11	22.64	1114.41	ND	ND	0.7	62.5	22.5	77.4	0	0
8959	2011-02-05T06:00:00	42	10.50	34.40	1158.72	ND	ND	0.8	80.3	21.8	81	0	0
8960	2011-02-05T07:00:00	52	13.63	32.12	1257.97	ND	ND	0.3	146	21.9	80.2	12.4	0
8961	2011-02-05T08:00:00	57	11.88	25.03	1485.13	ND	ND	0.5	232.5	22.9	75.6	131.7	0
8962	2011-02-05T09:00:00	41	11.21	26.67	1501.55	ND	ND	1.3	159.1	25	66.4	389.5	0
8963	2011-02-05T10:00:00	24	13.55	39.10	1615.31	ND	ND	1.5	189.7	26.1	61.7	528.6	0
8964	2011-02-05T11:00:00	37	14.83	45.44	1724.75	ND	ND	0.8	107.4	26.6	59	293.7	0
8965	2011-02-05T12:00:00	38	16.83	35.88	1405.15	ND	ND	0.8	133.6	26.8	59.4	363.2	0
8966	2011-02-05T13:00:00	25	17.21	48.26	1475.23	ND	ND	0.9	165.4	29.3	49.2	793.3	0
8967	2011-02-05T14:00:00	14	14.57	57.39	1708.34	ND	ND	0.8	218.8	30.2	45.7	544	0
8968	2011-02-05T15:00:00	22	13.25	43.46	1398.72	ND	ND	0.3	173	30.5	44.5	412.4	0
8969	2011-02-05T16:00:00	12	10.73	31.63	1283.43	ND	ND	3.8	279.1	30.3	44.3	462	0
8970	2011-02-05T17:00:00	7	10.48	45.35	1504.12	ND	ND	4	281.5	29.4	47.2	273.5	0
8971	2011-02-05T18:00:00	4	8.61	13.65	1057.90	ND	ND	3.9	277.5	28	51.4	100.6	0
8972	2011-02-05T19:00:00	3	7.65	14.27	1087.71	ND	ND	3.7	276.3	26.8	54.8	2.3	0
8973	2011-02-05T20:00:00	13	7.04	17.68	1117.95	ND	ND	2.8	281.5	26.1	57	0	0
8974	2011-02-05T21:00:00	9	7.07	20.09	1000.36	ND	ND	1.4	279	26	57.7	0	0
8975	2011-02-05T22:00:00	6	7.12	23.45	793.12	ND	ND	3.3	254.7	25.3	60.5	0	0
8976	2011-02-05T23:00:00	9	8.03	31.26	1249.97	ND	ND	1.8	187.2	24.7	67	0	0
8977	2011-02-06T00:00:00	17	6.70	10.82	846.90	ND	ND	1.6	191.6	24.4	69.4	0	0
8978	2011-02-06T01:00:00	20	6.88	27.71	1257.63	ND	ND	1.2	158.9	23.6	71.8	0	0
8979	2011-02-06T02:00:00	11	7.75	27.54	1254.25	ND	ND	0.9	156.3	23	75.9	0	0
8980	2011-02-06T03:00:00	16	8.07	24.25	1126.54	ND	ND	1.1	173.2	23	76.6	0	0
8981	2011-02-06T04:00:00	12	7.65	24.66	1137.92	ND	ND	2.1	183.3	22.3	81	0	0
8982	2011-02-06T05:00:00	19	7.22	23.53	1033.06	ND	ND	1.7	185.8	22.1	82.1	0	0
8983	2011-02-06T06:00:00	10	6.90	16.47	941.60	ND	ND	1	170	22.2	81.7	0	1.27
8984	2011-02-06T07:00:00	18	8.90	12.56	760.34	ND	ND	0.8	157.1	21.3	90.9	0.1	2.79
8985	2011-02-06T08:00:00	9	8.69	18.23	927.73	ND	ND	0.7	162.9	21.4	88.5	39.1	0.25
8986	2011-02-06T09:00:00	6	7.61	29.64	1324.17	ND	ND	0.7	157.4	22	86	122.5	0
8987	2011-02-06T10:00:00	8	5.42	29.16	1349.55	ND	ND	1.3	62.5	23.2	82.4	254.9	0
8988	2011-02-06T11:00:00	11	6.41	33.55	1457.52	ND	ND	1.6	4.9	23.5	78.4	214.5	0
8989	2011-02-06T12:00:00	9	6.36	45.20	1686.96	ND	ND	1.6	22.7	24.7	71.6	333.3	0
8990	2011-02-06T13:00:00	26	8.45	39.79	1430.57	ND	ND	1.4	50.6	26.2	63.8	449.9	0
8991	2011-02-06T14:00:00	14	68.48	61.14	1000.69	ND	ND	0.7	90.2	27.1	59.5	438.1	0
8992	2011-02-06T15:00:00	8	29.76	34.60	911.41	ND	ND	1.3	346.9	27.6	57.2	330.2	0
8993	2011-02-06T16:00:00	4	8.51	21.20	1040.04	ND	ND	3.5	283.4	27.3	55.7	351.2	0
8994	2011-02-06T17:00:00	2	6.76	15.26	888.93	ND	ND	3.1	278	26.5	57.8	159.2	0
8995	2011-02-06T18:00:00	2	5.95	2.39	828.99	ND	ND	3.5	268.7	25.8	59.7	43.9	0
8996	2011-02-06T19:00:00	2	5.62	3.63	735.16	ND	ND	2.8	250.6	24.8	63.8	1.4	0
8997	2011-02-06T20:00:00	6	8.59	7.32	789.94	ND	ND	2.2	197	23.3	76.6	0	0
8998	2011-02-06T21:00:00	19	9.22	9.48	979.60	ND	ND	1.5	192.3	23.5	75	0	0
8999	2011-02-06T22:00:00	16	8.29	31.05	1310.82	ND	ND	0.5	99.1	23.2	78.8	0	0
9000	2011-02-06T23:00:00	26	8.31	50.02	1730.81	ND	ND	0.7	54.1	22.4	83.7	0	0
9001	2011-02-07T00:00:00	20	8.13	53.10	1930.54	ND	ND	0.2	135.8	22.5	84.1	0	0.25
9002	2011-02-07T01:00:00	24	6.76	33.36	1295.04	ND	ND	0.5	180.7	21.7	90.5	0	5.84
9003	2011-02-07T02:00:00	14	6.43	39.04	1291.53	ND	ND	0.7	114.3	20.4	96.8	0	36.58
9004	2011-02-07T03:00:00	7	5.47	32.97	1195.60	ND	ND	0.8	91.8	19.4	99.1	0	21.34
9005	2011-02-07T04:00:00	5	4.50	13.40	888.02	ND	ND	0.2	338	19.5	99.3	0	23.11
9006	2011-02-07T05:00:00	3	4.68	5.71	764.64	ND	ND	0.7	242.1	19.6	98.6	0	16.51
9007	2011-02-07T06:00:00	2	4.73	5.66	877.38	ND	ND	0.9	195.5	19.5	94.7	0	5.33
9008	2011-02-07T07:00:00	1	4.71	0.33	663.43	ND	ND	0.7	196.2	19.6	94.3	1.9	6.35
9009	2011-02-07T08:00:00	1	4.17	7.23	764.90	ND	ND	0.5	249.5	20	92.5	33.3	2.03
9010	2011-02-07T09:00:00	1	4.66	33.72	1464.30	ND	ND	0.5	245	21	85.3	145.8	0.25
9011	2011-02-07T10:00:00	2	5.48	37.83	1966.60	ND	ND	0.5	216.1	21.5	82.5	138.8	0.76
9012	2011-02-07T11:00:00	5	4.87	38.27	1845.41	ND	ND	0.6	185.9	21.3	88	138.3	5.33
9013	2011-02-07T12:00:00	4	4.79	41.89	1538.68	ND	ND	0.7	140.8	21.6	86	244.4	1.02
9014	2011-02-07T13:00:00	3	7.02	76.27	2344.35	ND	ND	0.4	84.4	22.6	79.1	283.9	0.25
9015	2011-02-07T14:00:00	3	6.26	57.00	2136.40	ND	ND	1	43.4	22.8	79.7	317.6	0
9016	2011-02-07T15:00:00	13	4.84	61.90	1853.55	ND	ND	2	36.6	23.7	76.8	520.1	0
9017	2011-02-07T16:00:00	14	5.24	81.10	2121.53	ND	ND	2.1	41	23.6	78.6	184.9	0
9018	2011-02-07T17:00:00	40	5.95	86.08	1983.99	ND	ND	0.5	30.1	23.3	78.6	50.4	0
9019	2011-02-07T18:00:00	33	7.03	78.99	1981.99	ND	ND	1.1	192.8	22.3	80.2	35.1	0.51
9020	2011-02-07T19:00:00	34	7.69	67.86	1850.42	ND	ND	1.4	206.9	21.9	84.9	0.6	0
9021	2011-02-07T20:00:00	38	10.79	60.72	2482.78	ND	ND	0.8	169.6	21.7	82.1	0	0.51
9022	2011-02-07T21:00:00	28	9.98	75.38	3466.74	ND	ND	1.3	170.1	21.3	87.3	0	0
9023	2011-02-07T22:00:00	19	11.64	58.93	3722.25	ND	ND	1.9	177.3	20.6	91.8	0	0
9024	2011-02-07T23:00:00	14	9.09	60.27	3386.08	ND	ND	1.6	177.2	20.2	90.6	0	0
9025	2011-02-08T00:00:00	8	5.70	46.61	1848.53	ND	ND	1.8	192.7	20	90.4	0	0
9026	2011-02-08T01:00:00	6	3.58	36.89	1250.29	ND	ND	1.3	195.9	20.1	89.1	0	0
9027	2011-02-08T02:00:00	3	3.56	19.17	642.26	ND	ND	0.5	157.2	20	90.6	0	0
9028	2011-02-08T03:00:00	1	3.17	4.98	698.36	ND	ND	0.5	176.3	20.1	91	0	0
9029	2011-02-08T04:00:00	1	4.30	15.51	800.01	ND	ND	0.2	167.4	20.1	90.5	0	0
9030	2011-02-08T05:00:00	ND	3.79	14.58	969.02	ND	ND	0.3	130.4	19.9	92.6	0	0.51
9031	2011-02-08T06:00:00	1	3.97	19.31	900.80	ND	ND	0.4	65.2	19.9	92.4	0	0
9032	2011-02-08T07:00:00	21	4.74	27.82	1182.30	ND	ND	0.3	118	20	93.3	5.8	0
9033	2011-02-08T08:00:00	28	5.20	32.70	1430.51	ND	ND	0.7	138.4	20.3	91.2	50.3	0
9034	2011-02-08T09:00:00	43	7.40	40.11	2593.34	ND	ND	0.7	158.1	21.3	86.1	197.8	0.25
9035	2011-02-08T10:00:00	40	7.92	52.21	3428.09	ND	ND	1.2	135.7	23.1	77.3	469.3	0
9036	2011-02-08T11:00:00	40	9.19	63.37	2583.95	ND	ND	1.2	133.7	24.7	68.3	543	0
9037	2011-02-08T12:00:00	22	6.39	63.69	2094.35	ND	ND	0.1	12.3	25.4	63.7	391.7	0
9038	2011-02-08T13:00:00	26	6.35	43.64	1732.19	ND	ND	1.2	241.2	26.5	59.9	837.5	0
9039	2011-02-08T14:00:00	15	4.71	41.89	1427.70	ND	ND	0.5	158.1	27.5	56.3	425.3	0
9040	2011-02-08T15:00:00	25	4.94	42.54	1536.44	ND	ND	1.8	296.5	28.5	51.7	556.6	0
9041	2011-02-08T16:00:00	13	5.83	56.84	1819.73	ND	ND	3.2	276.4	28.3	49.5	458.3	0
9042	2011-02-08T17:00:00	7	6.01	27.59	1355.20	ND	ND	3.9	272.5	27	53.4	229.1	0
9043	2011-02-08T18:00:00	5	5.75	19.07	1360.89	ND	ND	3.2	276.8	26.1	55.1	69.9	0
9044	2011-02-08T19:00:00	13	6.81	17.98	1149.84	ND	ND	ND	ND	ND	ND	ND	ND
9045	2011-02-08T20:00:00	12	ND	ND	ND	ND	ND	1.8	233	23.8	69.5	0	0
9046	2011-02-08T21:00:00	24	ND	ND	ND	ND	ND	2.8	272.8	22.9	72	0	0
9047	2011-02-08T22:00:00	13	8.51	46.60	1603.92	ND	ND	2.1	270.1	22.9	69.8	0	0
9048	2011-02-08T23:00:00	7	7.91	27.77	1274.04	ND	ND	1.2	183.3	22.3	80.1	0	0
9049	2011-02-09T00:00:00	15	7.14	18.07	1237.40	ND	ND	1.4	202.2	21.8	81.8	0	0
9050	2011-02-09T01:00:00	21	6.38	39.41	1495.96	ND	ND	1	176.7	20.1	91.2	0	0.51
9051	2011-02-09T02:00:00	12	5.77	21.82	1059.16	ND	ND	0.8	118.8	19.5	91.9	0	1.27
9052	2011-02-09T03:00:00	7	2.67	8.54	1012.02	ND	ND	0.6	61.8	19.4	94	0	5.08
9053	2011-02-09T04:00:00	5	5.99	6.93	1011.67	ND	ND	1	98.1	19.4	94.6	0	0
9054	2011-02-09T05:00:00	ND	5.14	8.96	1045.39	ND	ND	0.5	93.8	19.3	92.5	0	0
9055	2011-02-09T06:00:00	ND	5.24	9.87	932.67	ND	ND	0.3	130.9	19.6	91.5	0	0.25
9056	2011-02-09T07:00:00	ND	5.09	12.13	933.62	ND	ND	0.9	158.3	19.5	93.7	6.4	0
9057	2011-02-09T08:00:00	ND	6.30	29.26	1360.60	ND	ND	0.9	124	19.9	92.5	59.1	0
9058	2011-02-09T09:00:00	ND	8.76	40.84	2398.38	ND	ND	0.9	140.3	20.4	91	103.5	0
9059	2011-02-09T10:00:00	ND	10.78	54.11	4150.76	ND	ND	1.1	153.5	21.6	84.7	256	0
9060	2011-02-09T11:00:00	ND	8.86	48.97	2774.71	ND	ND	1.2	188.3	23.2	75.8	440.7	0
9061	2011-02-09T12:00:00	ND	7.19	44.91	2061.02	ND	ND	0.9	166	24.6	66.4	486.6	0
9062	2011-02-09T13:00:00	ND	7.61	37.13	1555.93	ND	ND	1	124.5	25.4	63.5	471.5	0
9063	2011-02-09T14:00:00	ND	9.00	34.17	1468.35	ND	ND	0.8	146.7	26.2	60.5	458.4	0
9064	2011-02-09T15:00:00	ND	10.50	38.60	1449.28	ND	ND	0.3	110.2	28	52.7	673.1	0
9065	2011-02-09T16:00:00	ND	10.16	42.44	1388.57	ND	ND	0.1	15.8	28	50.7	350.4	0
9066	2011-02-09T17:00:00	ND	10.40	42.25	1446.43	ND	ND	2.4	280.7	27.3	54.4	207.6	0
9067	2011-02-09T18:00:00	ND	10.54	47.72	1535.42	ND	ND	2.8	271.9	25.9	58.1	34.3	0
9068	2011-02-09T19:00:00	ND	9.70	40.99	1539.75	ND	ND	2.7	266.4	25.1	60.3	0.5	0
9069	2011-02-09T20:00:00	ND	9.72	26.87	1489.79	ND	ND	2.2	268.2	24.7	62.2	0	0
9070	2011-02-09T21:00:00	ND	8.87	33.38	1602.24	ND	ND	1.6	283.9	24.2	64.8	0	0
9071	2011-02-09T22:00:00	ND	8.31	34.49	1553.84	ND	ND	1.2	265.8	23.3	69.5	0	0
9072	2011-02-09T23:00:00	ND	7.69	29.40	1412.45	ND	ND	1.3	258.4	23	67.5	0	0
9073	2011-02-10T00:00:00	ND	8.41	26.64	1570.33	ND	ND	0.8	316.4	22.6	74.2	0	0
9074	2011-02-10T01:00:00	ND	6.16	15.60	920.47	ND	ND	0.3	193.4	22.5	75.2	0	0
9075	2011-02-10T02:00:00	ND	7.66	28.16	1351.84	ND	ND	1	194.7	22.2	78.1	0	0
9076	2011-02-10T03:00:00	ND	8.33	33.32	1350.46	ND	ND	0.7	144.4	21.8	82.5	0	0
9077	2011-02-10T04:00:00	ND	6.53	35.98	1303.30	ND	ND	0.5	146.5	21.5	83.2	0	0
9078	2011-02-10T05:00:00	ND	5.00	25.80	1188.76	ND	ND	0.6	151.6	21.3	84.3	0	0
9079	2011-02-10T06:00:00	ND	6.52	19.60	1052.19	ND	ND	1.4	166.7	21.1	84.5	0	0
9080	2011-02-10T07:00:00	ND	6.57	19.80	1108.00	ND	ND	1.4	173.9	20.9	87.5	1.7	0
9081	2011-02-10T08:00:00	ND	7.83	22.36	768.30	ND	ND	1.3	168.4	20.6	93.3	36.9	1.27
9082	2011-02-10T09:00:00	ND	8.31	30.04	1444.73	ND	ND	1.2	142.5	20.8	90.7	128.1	0.76
9083	2011-02-10T10:00:00	ND	9.30	35.54	2902.72	ND	ND	0.9	143.3	22.1	83.5	231.4	0
9084	2011-02-10T11:00:00	ND	8.41	41.57	2563.88	ND	ND	1.1	90.4	23.3	77.7	499.2	0
9085	2011-02-10T12:00:00	ND	9.14	46.11	1856.69	ND	ND	0.9	91	25.2	67.8	591.5	0
9086	2011-02-10T13:00:00	ND	11.38	60.37	2006.16	ND	ND	1.2	87.8	26.2	64.8	416.1	0
9087	2011-02-10T14:00:00	ND	7.84	63.07	1518.29	ND	ND	0.9	181	26.2	64.2	242.7	0
9088	2011-02-10T15:00:00	ND	7.34	82.79	1828.85	ND	ND	0.6	116.7	26.6	62.3	180.8	0
9089	2011-02-10T16:00:00	ND	9.06	45.98	1382.11	ND	ND	1.5	36.8	26.6	62.8	119.2	0
9090	2011-02-10T17:00:00	ND	9.06	81.88	1969.51	ND	ND	1.6	285.3	25.9	60.9	48.7	0
9091	2011-02-10T18:00:00	ND	13.96	100.99	1677.64	ND	ND	1.7	286.5	25	63.1	47.3	0
9092	2011-02-10T19:00:00	ND	22.80	51.72	1466.38	ND	ND	0.9	296.6	25.1	59.3	1	0
9093	2011-02-10T20:00:00	ND	19.61	39.21	1753.37	ND	ND	1.5	273.4	24.7	60.3	0	0
9094	2011-02-10T21:00:00	ND	15.65	42.37	1911.24	ND	ND	1	281.5	24.4	61.5	0	0
9095	2011-02-10T22:00:00	ND	12.29	40.24	1680.65	ND	ND	0.6	191.4	23.7	67.1	0	0
9096	2011-02-10T23:00:00	ND	10.54	37.75	1585.45	ND	ND	1.2	194	22.7	74.8	0	0
9097	2011-02-11T00:00:00	ND	12.90	43.19	2910.12	ND	ND	0.6	218.3	22.2	76.7	0	0
9098	2011-02-11T01:00:00	ND	9.14	44.46	1736.31	ND	ND	0.7	306	21.9	72.3	0	0
9099	2011-02-11T02:00:00	ND	8.43	37.26	1575.83	ND	ND	0.6	258.7	21.5	73.6	0	0
9100	2011-02-11T03:00:00	ND	7.72	18.99	1132.15	ND	ND	0.2	97.9	21.5	75.2	0	0
9101	2011-02-11T04:00:00	ND	7.46	14.69	1030.26	ND	ND	0.1	86.6	21	84.9	0	0
9102	2011-02-11T05:00:00	ND	7.47	10.83	972.00	ND	ND	0.4	206.5	21.3	81.7	0	0
9103	2011-02-11T06:00:00	ND	9.11	23.44	1606.56	ND	ND	0.7	154	21.1	82.6	0	0
9104	2011-02-11T07:00:00	ND	10.34	22.88	1458.49	ND	ND	1	156.2	21	83.8	3	0
9105	2011-02-11T08:00:00	ND	10.78	26.65	2000.51	ND	ND	1.1	200.3	21	86.3	26.8	0
9106	2011-02-11T09:00:00	ND	11.17	26.91	2588.23	ND	ND	1.1	166.8	21.4	84.4	66.7	0
9107	2011-02-11T10:00:00	ND	10.87	28.08	2421.98	ND	ND	1	178.6	21.8	83.1	149.7	0
9108	2011-02-11T11:00:00	ND	11.41	36.16	2300.61	ND	ND	1.1	148.1	23	77.8	319.8	0
9109	2011-02-11T12:00:00	ND	12.47	44.23	1945.84	ND	ND	1.3	149.9	24.3	72.2	473.4	0
9110	2011-02-11T13:00:00	ND	14.77	53.33	1885.81	ND	ND	1	151.2	26.3	62.9	653.4	0
9111	2011-02-11T14:00:00	ND	12.47	50.53	1794.94	ND	ND	1.4	183.3	27.1	58.8	574.6	0
9112	2011-02-11T15:00:00	ND	11.45	45.65	1626.69	ND	ND	1.7	277.5	25.1	68.1	72.9	6.86
9113	2011-02-11T16:00:00	ND	11.09	37.02	1489.79	ND	ND	1.9	200.7	22.4	82.4	62.7	3.3
9114	2011-02-11T17:00:00	ND	10.68	37.75	1192.39	ND	ND	0.7	40.9	22.4	78.9	49.2	0.25
9115	2011-02-11T18:00:00	ND	11.53	71.66	1851.05	ND	ND	0.4	32.6	23.3	76	31.5	0
9116	2011-02-11T19:00:00	ND	11.88	113.13	3178.01	ND	ND	0.4	146.2	23.6	73.7	0.4	0
9117	2011-02-11T20:00:00	ND	13.25	153.23	4275.84	ND	ND	0.2	321.3	23.2	78.8	0	0
9118	2011-02-11T21:00:00	ND	31.93	114.66	5135.48	ND	ND	0.1	313.3	23.3	73	0	0
9119	2011-02-11T22:00:00	ND	17.72	111.05	5239.73	ND	ND	1.1	192.5	22.6	82	0	0
9120	2011-02-11T23:00:00	ND	15.02	61.80	3079.59	ND	ND	0.4	233.1	22.5	79.3	0	0
9121	2011-02-12T00:00:00	ND	13.28	69.92	3476.15	ND	ND	0.4	232.8	22.4	76.6	0	0
9122	2011-02-12T01:00:00	ND	10.05	50.88	2055.46	ND	ND	0.3	287.8	22.1	79.8	0	0
9123	2011-02-12T02:00:00	ND	9.99	31.22	1713.03	ND	ND	0.5	265.2	21.8	77.7	0	0
9124	2011-02-12T03:00:00	ND	9.23	33.46	1779.29	ND	ND	0.5	337.1	21.7	82.5	0	0
9125	2011-02-12T04:00:00	ND	6.19	18.46	1416.15	ND	ND	0.2	53.6	21.5	82.8	0	0
9126	2011-02-12T05:00:00	ND	9.87	29.71	1958.62	ND	ND	0.5	50.8	21.1	89.6	0	0
9127	2011-02-12T06:00:00	ND	10.78	33.18	1684.62	ND	ND	0	150.5	21.2	88.3	0	0
9128	2011-02-12T07:00:00	ND	10.79	30.48	1560.78	ND	ND	0.1	226.5	21.2	82.1	12.3	0
9129	2011-02-12T08:00:00	ND	11.20	32.54	1775.67	ND	ND	1.1	42	21.9	84.9	101.4	0
9130	2011-02-12T09:00:00	ND	11.51	24.34	1745.88	ND	ND	0.7	109.9	23.2	77.7	258	0
9131	2011-02-12T10:00:00	ND	14.43	52.17	3074.46	ND	ND	1.1	112.3	24.9	70.4	458.7	0
9132	2011-02-12T11:00:00	ND	18.47	62.66	2656.92	ND	ND	0.9	157.4	26.9	60.9	739.6	0
9133	2011-02-12T12:00:00	ND	14.98	56.33	1959.95	ND	ND	1.4	137.5	27.8	57.4	677.9	0
9134	2011-02-12T13:00:00	ND	9.81	41.92	1711.43	ND	ND	1.1	88.7	28.4	54.5	498.7	0
9135	2011-02-12T14:00:00	ND	8.40	40.44	1552.63	ND	ND	0.8	69.7	29.2	52.4	495.1	0
9136	2011-02-12T15:00:00	ND	7.81	51.28	1591.60	ND	ND	0.8	58.2	29.2	51.8	291.9	0
9137	2011-02-12T16:00:00	ND	9.96	57.36	1765.87	ND	ND	1.3	280.5	29.6	49.9	345.8	0
9138	2011-02-12T17:00:00	ND	10.59	57.47	1803.10	ND	ND	4	276.9	28.9	50.3	320.8	0
9139	2011-02-12T18:00:00	ND	12.16	27.93	1137.39	ND	ND	4.8	271.3	27	55.3	87.9	0
9140	2011-02-12T19:00:00	ND	9.89	15.13	1257.09	ND	ND	4.2	269.5	26	58.1	2.3	0
9141	2011-02-12T20:00:00	ND	10.17	12.42	839.10	ND	ND	4.2	265.6	25.4	61.8	0	0
9142	2011-02-12T21:00:00	ND	9.68	19.80	1135.67	ND	ND	2.8	281.4	25.5	61.1	0	0
9143	2011-02-12T22:00:00	ND	9.34	23.66	906.55	ND	ND	1.8	259.5	25	63.5	0	0
9144	2011-02-12T23:00:00	ND	9.09	21.55	1053.96	ND	ND	0.8	295.9	24.4	68.3	0	0
9145	2011-02-13T00:00:00	ND	10.70	24.36	1189.03	ND	ND	2.5	278.2	24.4	65.5	0	0
9146	2011-02-13T01:00:00	ND	9.20	27.29	1371.96	ND	ND	1	290	23.4	73.1	0	0.25
9147	2011-02-13T02:00:00	ND	8.89	10.79	854.59	ND	ND	0.8	215.3	22.2	82.6	0	0.51
9148	2011-02-13T03:00:00	ND	8.70	12.43	896.53	ND	ND	0.6	251.9	22.5	80.5	0	0
9149	2011-02-13T04:00:00	ND	7.25	14.47	931.52	ND	ND	1.1	29.8	21	89.8	0	11.94
9150	2011-02-13T05:00:00	ND	7.57	12.69	904.18	ND	ND	0.3	49.9	20.5	93.4	0	1.02
9151	2011-02-13T06:00:00	ND	7.48	22.00	1117.02	ND	ND	0.3	122.3	21	91.5	0	0
9152	2011-02-13T07:00:00	ND	6.51	20.70	926.79	ND	ND	0.4	178.1	21.1	92	0.2	0
9153	2011-02-13T08:00:00	ND	7.65	29.18	1074.08	ND	ND	0.7	175	20.7	94.3	20.7	2.29
9154	2011-02-13T09:00:00	ND	7.62	30.07	1332.31	ND	ND	0.6	177	21.4	91.3	95.3	0
9155	2011-02-13T10:00:00	ND	7.69	29.77	1539.20	ND	ND	1.4	172.6	21.4	89.1	66.1	2.03
9156	2011-02-13T11:00:00	ND	6.99	28.26	1754.24	ND	ND	0.7	197.8	20.9	93.1	139.8	1.02
9157	2011-02-13T12:00:00	ND	6.28	29.37	1638.28	ND	ND	0.4	152	22.7	83.9	365.7	0
9158	2011-02-13T13:00:00	ND	6.79	28.37	1568.74	ND	ND	1	105.5	25.5	70.3	792.5	0
9159	2011-02-13T14:00:00	ND	6.98	36.11	1388.51	ND	ND	1	91	26.6	63.3	590.5	0
9160	2011-02-13T15:00:00	ND	4.85	42.55	1462.73	ND	ND	1.8	357.7	26.4	62.6	213.6	0
9161	2011-02-13T16:00:00	ND	5.16	26.32	1185.52	ND	ND	2.8	192.7	22	81.1	35.4	0.76
9162	2011-02-13T17:00:00	ND	6.23	24.28	1134.07	ND	ND	0.9	179.1	21.1	83	55.1	1.02
9163	2011-02-13T18:00:00	ND	6.57	26.60	1153.23	ND	ND	0.7	58.1	21.2	83.4	16.9	0
9164	2011-02-13T19:00:00	ND	ND	36.11	1425.06	ND	ND	1.5	332.4	21.2	83.3	0	0.51
9165	2011-02-13T20:00:00	ND	6.34	42.12	1255.41	ND	ND	0.6	296.1	21	85.2	0	0.76
9166	2011-02-13T21:00:00	ND	ND	42.53	926.79	ND	ND	0.2	103.6	21.1	87	0	0
9167	2011-02-13T22:00:00	ND	ND	50.09	1164.53	ND	ND	0.2	213.5	20.8	91.2	0	0.25
9168	2011-02-13T23:00:00	ND	ND	50.79	2507.40	ND	ND	0.6	220.8	20.9	88.1	0	0
9169	2011-02-14T00:00:00	ND	ND	42.24	3107.08	ND	ND	0.9	138.1	20.5	89.4	0	0
9170	2011-02-14T01:00:00	ND	ND	31.18	2132.50	ND	ND	0.3	194.9	19.9	94.3	0	0
9171	2011-02-14T02:00:00	ND	ND	21.92	1204.82	ND	ND	0.8	228.1	20.2	92.3	0	0
9172	2011-02-14T03:00:00	ND	ND	18.27	913.00	ND	ND	0.7	227.3	20.6	87.2	0	0
9173	2011-02-14T04:00:00	ND	ND	14.86	880.38	ND	ND	0.3	62.9	20.4	91.4	0	0
9174	2011-02-14T05:00:00	ND	ND	19.36	1150.48	ND	ND	0.6	189	20	94.1	0	0
9175	2011-02-14T06:00:00	ND	ND	18.24	1013.75	ND	ND	0.7	229	19.9	89.2	0	0
9176	2011-02-14T07:00:00	ND	ND	17.23	1114.74	ND	ND	0.2	261.8	20	84.7	7	0
9177	2011-02-14T08:00:00	ND	ND	10.61	1002.48	ND	ND	1.3	15.7	20.4	90.8	28	0
9178	2011-02-14T09:00:00	ND	ND	16.76	1455.02	ND	ND	1.2	79.8	20.8	89.8	145.5	0
9179	2011-02-14T10:00:00	ND	ND	33.26	2767.18	ND	ND	1	122.8	22.5	78.9	455.9	0
9180	2011-02-14T11:00:00	ND	ND	44.15	2680.95	ND	ND	1.3	133.1	24.5	68.9	696.6	0
9181	2011-02-14T12:00:00	ND	ND	43.58	1795.59	ND	ND	1.2	199.4	25.9	62.9	770.8	0
9182	2011-02-14T13:00:00	ND	ND	42.13	1654.66	ND	ND	1.1	163.9	27.5	56	891.4	0
9183	2011-02-14T14:00:00	ND	ND	25.96	1409.37	ND	ND	1.2	148.2	28	53	498.3	0
9184	2011-02-14T15:00:00	ND	ND	46.38	1805.14	ND	ND	0.3	116.3	28.6	50.7	457.6	0
9185	2011-02-14T16:00:00	ND	ND	44.62	1588.44	ND	ND	1.3	292.2	28.4	50.7	270.1	0
9186	2011-02-14T17:00:00	ND	ND	46.02	1807.54	ND	ND	2.2	282.9	27.7	54.5	131.2	2.03
9187	2011-02-14T18:00:00	1	ND	28.32	1294.71	ND	ND	0.5	62	23.2	80	23.3	17.78
9188	2011-02-14T19:00:00	ND	ND	34.45	1252.56	ND	ND	2	277.6	24.8	65.5	1.2	0
9189	2011-02-14T20:00:00	ND	ND	74.82	2220.99	ND	ND	3.2	262.4	24.3	65.3	0	0
9190	2011-02-14T21:00:00	ND	ND	50.51	2171.54	ND	ND	1.9	271.5	24.1	65.6	0	0
9191	2011-02-14T22:00:00	ND	ND	30.40	1176.41	ND	ND	0.2	69	23.5	73.3	0	0
9192	2011-02-14T23:00:00	ND	ND	28.95	1310.82	ND	ND	0.3	175.3	23.3	75.8	0	0
9193	2011-02-15T00:00:00	ND	ND	33.61	2095.89	ND	ND	0.3	166.4	23.2	77	0	0
9194	2011-02-15T01:00:00	ND	ND	41.78	1708.03	ND	ND	0.8	249.8	22.7	76	0	0
9195	2011-02-15T02:00:00	ND	ND	52.83	1739.25	ND	ND	2.3	230.1	22.1	76	0	0
9196	2011-02-15T03:00:00	ND	ND	19.60	1055.05	ND	ND	1	238.4	21.5	81.1	0	0.76
9197	2011-02-15T04:00:00	ND	ND	0.60	849.11	ND	ND	1.5	239	19.6	91.3	0	18.29
9198	2011-02-15T05:00:00	ND	ND	3.29	44.99	ND	ND	1.4	217.3	19.9	93.5	0	0.51
9199	2011-02-15T06:00:00	ND	ND	ND	168.90	ND	ND	1.2	202	20	93.6	0	0.25
9200	2011-02-15T07:00:00	ND	ND	1.70	529.40	ND	ND	0.5	183.5	20.2	91.6	11.8	0
9201	2011-02-15T08:00:00	ND	ND	8.49	879.18	ND	ND	0.4	81.4	21	86.7	72.5	0
9202	2011-02-15T09:00:00	ND	ND	35.94	1491.90	ND	ND	0.8	142.2	22.4	81.3	259.8	0
9203	2011-02-15T10:00:00	ND	ND	61.67	2861.74	ND	ND	1	151.3	23.9	71.7	454.9	0
9204	2011-02-15T11:00:00	ND	ND	105.16	3138.79	ND	ND	0.9	112.6	24.9	67.2	550	0
9205	2011-02-15T12:00:00	ND	ND	52.45	1809.45	ND	ND	0.4	139.6	26.7	59.7	720.8	0
9206	2011-02-15T13:00:00	ND	ND	44.76	1613.00	ND	ND	0.5	247.8	27.6	55.5	634.6	0
9207	2011-02-15T14:00:00	ND	ND	30.99	1248.05	ND	ND	0.6	139.6	28.9	51.2	552.7	0
9208	2011-02-15T15:00:00	ND	ND	23.22	1253.45	ND	ND	1.3	99.5	27.9	56.2	148.2	0
9209	2011-02-15T16:00:00	ND	ND	44.16	1503.78	ND	ND	1.2	357.5	27.7	56.7	265.6	0
9210	2011-02-15T17:00:00	ND	ND	73.85	1988.30	ND	ND	2.5	283.8	27.6	51.9	137.6	0
9211	2011-02-15T18:00:00	ND	ND	56.31	1617.84	ND	ND	2.6	235.8	25.4	61.3	21.8	0
9212	2011-02-15T19:00:00	ND	ND	19.31	1193.03	ND	ND	2.8	268	25.5	57.9	0.5	0
9213	2011-02-15T20:00:00	ND	ND	44.66	1652.44	ND	ND	2.3	278.6	25	58.9	0	0
9214	2011-02-15T21:00:00	ND	ND	35.33	1546.57	ND	ND	0.7	107.2	23.7	73.8	0	0
9215	2011-02-15T22:00:00	ND	ND	27.27	1152.02	ND	ND	0.3	215.6	23.8	71.5	0	0
9216	2011-02-15T23:00:00	ND	ND	43.93	2236.35	ND	ND	2.3	256.1	23.4	70.1	0	6.35
9217	2011-02-16T00:00:00	ND	ND	42.30	2153.57	ND	ND	2.2	228.8	20.6	88	0	35.31
9218	2011-02-16T01:00:00	ND	ND	13.34	767.51	ND	ND	1.1	228.7	19.9	92	0	14.99
9219	2011-02-16T02:00:00	ND	ND	4.98	664.34	ND	ND	2	226.8	19.8	93.1	0	2.79
9220	2011-02-16T03:00:00	ND	ND	2.48	821.70	ND	ND	0.2	336	20.3	89.3	0	0.76
9221	2011-02-16T04:00:00	ND	ND	1.78	755.45	ND	ND	0.4	159.1	19.8	94.4	0	1.52
9222	2011-02-16T05:00:00	ND	ND	4.39	585.32	ND	ND	0.5	265.5	20	92.5	0	0.25
9223	2011-02-16T06:00:00	ND	ND	8.39	754.68	ND	ND	0.4	242.7	20.2	91.8	0	0
9224	2011-02-16T07:00:00	ND	ND	4.34	743.92	ND	ND	0.2	163.5	20.1	91.2	10.1	0
9225	2011-02-16T08:00:00	ND	ND	24.53	1070.43	ND	ND	0.6	144	20.5	91.3	66.2	0
9226	2011-02-16T09:00:00	ND	ND	32.52	2606.39	ND	ND	0.9	147.8	20.8	91	105.8	0
9227	2011-02-16T10:00:00	ND	ND	47.46	3309.32	ND	ND	1.2	183.7	21.4	85.6	156.3	0
9228	2011-02-16T11:00:00	ND	ND	47.69	2603.07	ND	ND	0.6	178.6	22.7	77.6	304.4	0
9229	2011-02-16T12:00:00	ND	ND	45.79	1966.60	ND	ND	1.5	145.4	24	72.4	512.8	0
9230	2011-02-16T13:00:00	ND	ND	62.25	1998.09	ND	ND	1.2	158.6	25.8	63.6	910.2	0
9231	2011-02-16T14:00:00	ND	ND	63.19	1837.89	ND	ND	1.1	138.5	26.9	58.7	615.4	0
9232	2011-02-16T15:00:00	ND	ND	29.23	1360.44	ND	ND	0.5	250.4	27.1	56.7	348.1	0
9233	2011-02-16T16:00:00	ND	ND	31.14	1315.20	ND	ND	3.5	298.9	26.3	56	222.2	0
9234	2011-02-16T17:00:00	ND	ND	29.59	1323.20	ND	ND	3.9	309.4	24.8	57.2	56.8	0
9235	2011-02-16T18:00:00	ND	ND	16.51	1144.84	ND	ND	2.2	274.9	24.4	61.6	51.8	0
9236	2011-02-16T19:00:00	ND	ND	18.72	1028.97	ND	ND	0.5	77.3	23.6	69.9	0.3	0
9237	2011-02-16T20:00:00	ND	ND	35.65	1539.30	ND	ND	2	220.4	22.9	76.6	0	0
9238	2011-02-16T21:00:00	ND	ND	45.54	2798.33	ND	ND	1.3	199.8	22.7	76.3	0	0
9239	2011-02-16T22:00:00	ND	ND	37.73	1875.66	ND	ND	0.7	75	22.4	79.3	0	0
9240	2011-02-16T23:00:00	ND	ND	29.80	1476.30	ND	ND	0.4	334.4	22	83.8	0	0
9241	2011-02-17T00:00:00	ND	ND	33.54	2086.70	ND	ND	0.6	218.2	22.2	80.7	0	0
9242	2011-02-17T01:00:00	ND	ND	28.28	1577.43	ND	ND	0.9	195.3	21.9	83.1	0	0
9243	2011-02-17T02:00:00	ND	ND	30.16	1405.78	ND	ND	1.1	175.8	21.5	85.5	0	0
9244	2011-02-17T03:00:00	ND	ND	26.78	1290.65	ND	ND	0.8	174.6	21.4	84.5	0	0
9245	2011-02-17T04:00:00	ND	ND	24.73	1210.99	ND	ND	0.8	123.8	21	88.2	0	0
9246	2011-02-17T05:00:00	ND	ND	17.47	1062.42	ND	ND	0.5	140	20.5	90.5	0	0
9247	2011-02-17T06:00:00	ND	ND	12.11	1015.48	ND	ND	0.7	172.9	20.3	92.1	0	0
9248	2011-02-17T07:00:00	ND	ND	11.64	1014.79	ND	ND	0.6	217.8	20.5	85.2	11.4	0
9249	2011-02-17T08:00:00	ND	ND	21.91	1218.57	ND	ND	0.6	112.4	20.9	87.3	76.3	0
9250	2011-02-17T09:00:00	ND	ND	18.89	1683.47	ND	ND	0.5	24.6	21.7	84.3	125.7	0
9251	2011-02-17T10:00:00	ND	ND	39.78	2979.58	ND	ND	0.9	53	23.2	76	327.6	0
9252	2011-02-17T11:00:00	ND	ND	64.10	2357.08	ND	ND	0.8	145.1	25.1	66.5	515.7	0
9253	2011-02-17T12:00:00	ND	ND	94.35	2395.12	ND	ND	1.5	141.1	26.9	59.6	678	0
9254	2011-02-17T13:00:00	ND	ND	85.24	1787.01	ND	ND	1	285	24.9	71	430.4	2.79
9255	2011-02-17T14:00:00	ND	ND	72.43	1660.57	ND	ND	1.4	327.1	27.2	60.2	658.7	0
9256	2011-02-17T15:00:00	ND	ND	56.69	1431.04	ND	ND	0.7	345.5	27.9	52.8	366.9	0
9257	2011-02-17T16:00:00	ND	ND	56.44	1457.51	ND	ND	1.9	0.7	27.2	55.8	181.1	0
9258	2011-02-17T17:00:00	ND	ND	35.94	1292.55	ND	ND	1.7	277.7	26.9	55.6	141	0
9259	2011-02-17T18:00:00	ND	ND	59.78	1591.02	ND	ND	1.2	276	26.2	57.7	50.7	0
9260	2011-02-17T19:00:00	ND	ND	45.44	1483.78	ND	ND	1.1	285	25.4	57.6	1	0
9261	2011-02-17T20:00:00	ND	ND	37.79	1674.83	ND	ND	1.1	276.9	24.9	60.3	0	0
9262	2011-02-17T21:00:00	ND	ND	37.30	1729.29	ND	ND	1.4	264.3	24.2	64.1	0	0
9263	2011-02-17T22:00:00	ND	ND	36.57	1610.97	ND	ND	1.6	206.5	23.2	74.2	0	0
9264	2011-02-17T23:00:00	ND	ND	33.72	1411.97	ND	ND	0.6	230.7	22.8	76	0	0
9265	2011-02-18T00:00:00	ND	ND	33.46	1171.26	ND	ND	0.5	185.1	22.4	78	0	0
9266	2011-02-18T01:00:00	ND	ND	38.57	1056.12	ND	ND	0.1	90.1	21.9	81	0	0
9267	2011-02-18T02:00:00	ND	ND	26.35	1077.01	ND	ND	0.5	4	21.7	82.7	0	0
9268	2011-02-18T03:00:00	ND	ND	27.83	1087.60	ND	ND	0.3	59.3	21.4	83.9	0	0
9269	2011-02-18T04:00:00	ND	ND	34.76	1392.07	ND	ND	0.3	68.9	21	87	0	0
9270	2011-02-18T05:00:00	ND	ND	32.89	1571.02	ND	ND	0.7	27.5	20.7	88.6	0	0
9271	2011-02-18T06:00:00	ND	ND	27.71	1174.24	ND	ND	0.6	153.2	20.9	87.2	0	0
9272	2011-02-18T07:00:00	ND	ND	26.14	1095.95	ND	ND	1.9	191.8	20.5	86.7	2.2	0
9273	2011-02-18T08:00:00	ND	ND	30.85	1308.84	ND	ND	1.7	196.7	21	82.6	110.1	0
9274	2011-02-18T09:00:00	ND	ND	32.26	1378.88	ND	ND	0.7	170	22.4	74	227.9	0
9275	2011-02-18T10:00:00	ND	ND	45.54	1998.68	ND	ND	1.6	151.1	23.8	69.3	381	0
9276	2011-02-18T11:00:00	ND	ND	45.19	1722.90	ND	ND	1.5	155.7	24.9	64.8	578.9	0
9277	2011-02-18T12:00:00	ND	ND	54.64	1763.64	ND	ND	1	139.5	25.9	60.2	654.8	0
9278	2011-02-18T13:00:00	15	ND	ND	ND	ND	ND	1.5	143.8	27.3	54.6	644.8	0
9279	2011-02-18T14:00:00	10	ND	ND	ND	ND	ND	1.3	147	28	50.1	520	0
9280	2011-02-18T15:00:00	6	10.75	51.38	1492.71	ND	ND	1	167.8	28.3	50.8	340.7	0
9281	2011-02-18T16:00:00	4	13.14	42.60	1320.45	ND	ND	1.1	307.4	28.7	47.3	439.2	0
9282	2011-02-18T17:00:00	3	14.01	36.53	1368.60	ND	ND	0.8	7.6	29	48.2	271.1	0
9283	2011-02-18T18:00:00	4	11.95	18.42	743.03	ND	ND	3.2	277.2	27	53.8	53.2	0
9284	2011-02-18T19:00:00	24	12.87	49.64	1268.63	ND	ND	3.1	272.4	25.7	58	1.2	0
9285	2011-02-18T20:00:00	16	12.55	22.60	941.60	ND	ND	3.4	274.7	24.6	62.2	0	0
9286	2011-02-18T21:00:00	18	12.09	28.36	1178.39	ND	ND	2.1	278.2	24.6	61.1	0	0
9287	2011-02-18T22:00:00	11	11.28	26.30	1144.07	ND	ND	1.6	285.2	24.6	60.4	0	0
9288	2011-02-18T23:00:00	7	10.89	25.43	1006.78	ND	ND	0.9	260.7	24.3	62.8	0	0
9289	2011-02-19T00:00:00	5	10.22	20.50	982.91	ND	ND	1.6	225.1	23.5	66.7	0	0
9290	2011-02-19T01:00:00	3	11.13	24.36	1413.40	ND	ND	2.1	182	22.6	78.6	0	0
9291	2011-02-19T02:00:00	4	10.14	13.41	909.10	ND	ND	1.7	184.4	21.9	83	0	0
9292	2011-02-19T03:00:00	6	10.37	26.09	1088.34	ND	ND	1	162	21.7	83.6	0	0
9293	2011-02-19T04:00:00	5	10.60	18.68	770.39	ND	ND	0.4	251.9	21.8	80	0	0
9294	2011-02-19T05:00:00	4	10.84	17.53	929.31	ND	ND	0.8	10.3	22	79.2	0	0
9295	2011-02-19T06:00:00	22	10.43	13.03	850.56	ND	ND	0.9	65.7	21.6	82	0	0
9296	2011-02-19T07:00:00	50	11.76	25.08	1234.46	ND	ND	0.6	109.2	21.5	82.3	2.4	0
9297	2011-02-19T08:00:00	27	18.20	30.25	1607.66	ND	ND	1	146.1	21.6	80.3	58.5	0
9298	2011-02-19T09:00:00	36	25.33	32.29	1981.94	ND	ND	0.4	208.9	22.1	78.7	132.9	0
9299	2011-02-19T10:00:00	23	24.34	29.86	1633.62	ND	ND	0.7	210.1	23.6	70.2	348.2	0
9300	2011-02-19T11:00:00	20	21.07	36.37	1710.34	ND	ND	1.3	153.4	25.2	62.8	447.1	0
9301	2011-02-19T12:00:00	12	26.14	48.08	1387.12	ND	ND	1	138	26.7	58.8	654.5	0
9302	2011-02-19T13:00:00	30	21.63	46.98	1520.83	ND	ND	0.9	30.2	27.7	52.7	500.8	0
9303	2011-02-19T14:00:00	30	19.35	49.24	1179.11	ND	ND	1	1.7	27.7	51.2	294.8	0
9304	2011-02-19T15:00:00	20	16.95	50.88	1098.19	ND	ND	0.6	260.9	29	46.1	333.2	0
9305	2011-02-19T16:00:00	18	15.99	52.43	1253.86	ND	ND	1	300.7	28.9	46.4	344.5	0
9306	2011-02-19T17:00:00	15	17.44	35.28	1172.21	ND	ND	1.7	298.5	29	46.5	223.1	0
9307	2011-02-19T18:00:00	8	18.19	25.02	998.45	ND	ND	2.4	299.7	27.1	51.6	47.1	0
9308	2011-02-19T19:00:00	6	13.88	16.56	1130.61	ND	ND	3.1	270.4	25.8	56.4	1.5	0
9309	2011-02-19T20:00:00	4	12.90	19.68	1343.96	ND	ND	2.5	278.2	25.5	56.8	0	0
9310	2011-02-19T21:00:00	3	12.41	18.60	986.88	ND	ND	2.6	291.2	25	59.5	0	0
9311	2011-02-19T22:00:00	2	11.87	18.44	824.84	ND	ND	1.2	302.5	24.6	62.4	0	0
9312	2011-02-19T23:00:00	8	10.99	13.39	720.76	ND	ND	1	174.8	23.6	68.4	0	0
9313	2011-02-20T00:00:00	6	11.16	19.12	934.98	ND	ND	1.2	248.3	23.8	65.9	0	0
9314	2011-02-20T01:00:00	21	14.88	35.19	2464.55	ND	ND	0.6	112.8	22.6	75.6	0	0
9315	2011-02-20T02:00:00	25	11.88	20.07	1045.47	ND	ND	0.9	123.9	21.9	79.8	0	0
9316	2011-02-20T03:00:00	31	13.61	32.06	1711.87	ND	ND	0.9	148.2	21.9	80.1	0	0
9317	2011-02-20T04:00:00	18	11.95	22.11	1020.32	ND	ND	0.7	137.5	21.9	80.1	0	0
9318	2011-02-20T05:00:00	16	11.98	21.73	940.96	ND	ND	0.6	147.8	21.5	80.2	0	0
9319	2011-02-20T06:00:00	10	12.43	22.21	1109.51	ND	ND	0.5	181.3	21.1	81.3	0	0
9320	2011-02-20T07:00:00	46	12.10	20.99	1288.90	ND	ND	0.2	168.9	20.9	82	13.4	0
9321	2011-02-20T08:00:00	24	11.68	22.48	1175.04	ND	ND	0.4	244.7	21.6	78.8	85.9	0
9322	2011-02-20T09:00:00	27	12.56	23.50	1370.37	ND	ND	0.4	151.8	23.4	71.3	286	0
9323	2011-02-20T10:00:00	15	13.45	25.23	1253.40	ND	ND	0.7	129.8	25.4	62.1	579.2	0
9324	2011-02-20T11:00:00	20	14.72	38.02	1284.80	ND	ND	1	38.6	27	55.2	765.6	0
9325	2011-02-20T12:00:00	20	15.04	26.53	1107.16	ND	ND	1	115	28.4	50.7	744.7	0
9326	2011-02-20T13:00:00	31	15.32	24.48	811.07	ND	ND	0.8	122.8	28.6	49.5	418.4	0
9327	2011-02-20T14:00:00	18	14.56	26.90	1113.07	ND	ND	0.8	211.9	29.3	47.4	538	0
9328	2011-02-20T15:00:00	24	15.18	30.51	1022.68	ND	ND	1.2	25.2	30.1	45.2	562.6	0
9329	2011-02-20T16:00:00	13	15.56	12.41	885.56	ND	ND	3.5	283.9	30.3	43.4	643.9	0
9330	2011-02-20T17:00:00	8	20.77	29.27	1002.74	ND	ND	4.7	282.6	28.9	46.4	366.8	0
9331	2011-02-20T18:00:00	5	12.56	0.73	615.12	ND	ND	4.5	278	27.2	50.4	106.2	0
9332	2011-02-20T19:00:00	10	11.17	0.17	600.11	ND	ND	4.5	274.1	25.9	54.5	2.7	0
9333	2011-02-20T20:00:00	7	10.85	0.42	482.61	ND	ND	3.4	276.7	25.4	56.2	0	0
9334	2011-02-20T21:00:00	5	10.94	1.87	435.92	ND	ND	3.6	274.4	25	57	0	0
9335	2011-02-20T22:00:00	3	10.53	7.72	641.54	ND	ND	2.6	251.9	24.5	59.8	0	0
9336	2011-02-20T23:00:00	2	10.25	5.62	629.03	ND	ND	2.1	198.1	23.7	66.4	0	0
9337	2011-02-21T00:00:00	22	9.70	6.38	707.18	ND	ND	1.6	190.8	22.9	72.4	0	0
9338	2011-02-21T01:00:00	13	9.52	17.07	568.77	ND	ND	0.4	261.3	23.1	67.4	0	0
9339	2011-02-21T02:00:00	6	10.41	22.18	557.77	ND	ND	1.1	9.1	22.5	72.7	0	0
9340	2011-02-21T03:00:00	16	10.83	20.11	783.84	ND	ND	1	9.1	21.8	76.3	0	0
9341	2011-02-21T04:00:00	12	12.13	23.57	827.31	ND	ND	0.5	27.7	22.2	74.4	0	0
9342	2011-02-21T05:00:00	18	18.53	26.34	839.78	ND	ND	0.7	80.9	21.9	77.9	0	0
9343	2011-02-21T06:00:00	15	32.08	24.71	702.89	ND	ND	0.2	176.2	21.4	79.3	0	0
9344	2011-02-21T07:00:00	27	24.05	16.21	701.70	ND	ND	0.9	213.6	21.3	79	10.1	0
9345	2011-02-21T08:00:00	15	15.84	18.94	758.03	ND	ND	1.1	203.8	21.7	76	71	0
9346	2011-02-21T09:00:00	28	14.28	24.74	1370.83	ND	ND	0.7	180.5	23	71.2	215.3	0
9347	2011-02-21T10:00:00	18	17.28	42.67	2412.39	ND	ND	1.1	150.1	24.8	66	447.5	0
9348	2011-02-21T11:00:00	30	17.49	54.06	1820.29	ND	ND	1.1	114.4	26.7	57.4	776.5	0
9349	2011-02-21T12:00:00	35	18.16	46.50	1371.05	ND	ND	1.3	110.4	28.3	50.4	852.9	0
9350	2011-02-21T13:00:00	20	15.87	43.63	1285.71	ND	ND	1.1	110.2	29.3	46.7	674.5	0
9351	2011-02-21T14:00:00	24	15.28	47.92	1092.41	ND	ND	0.5	12.8	29.3	46.2	297.5	0
9352	2011-02-21T15:00:00	36	15.58	53.36	1475.92	ND	ND	0.6	283.6	30.9	41.4	614.5	0
9353	2011-02-21T16:00:00	31	18.22	30.16	771.07	ND	ND	3.1	290.7	30.4	42.3	452	0
9354	2011-02-21T17:00:00	16	17.63	28.44	886.44	ND	ND	4.4	279.9	29.5	45.4	351.8	0
9355	2011-02-21T18:00:00	10	13.91	18.39	767.52	ND	ND	4.3	279.2	27.4	50.8	97.4	0
9356	2011-02-21T19:00:00	34	12.86	16.90	877.67	ND	ND	4.7	268.2	26	55	0.9	0
9357	2011-02-21T20:00:00	19	12.70	19.35	942.55	ND	ND	4.2	268.4	25.7	55.4	0	0
9358	2011-02-21T21:00:00	21	12.11	20.65	964.57	ND	ND	3.3	271.4	25.4	57.6	0	0
9359	2011-02-21T22:00:00	12	11.47	23.25	814.47	ND	ND	3.3	252.2	24.6	61.3	0	0
9360	2011-02-21T23:00:00	7	10.89	17.29	709.32	ND	ND	2.4	272.3	24.5	61.8	0	0
9361	2011-02-22T00:00:00	4	10.44	5.34	640.46	ND	ND	1.7	291.9	24.3	62.9	0	0
9362	2011-02-22T01:00:00	4	10.25	3.98	525.74	ND	ND	1.2	188.2	23.4	70	0	0
9363	2011-02-22T02:00:00	3	10.03	2.77	524.15	ND	ND	2.1	188.1	22.9	73.6	0	0
9364	2011-02-22T03:00:00	3	11.40	17.92	739.40	ND	ND	1.8	179.1	22.8	73.1	0	0
9365	2011-02-22T04:00:00	2	11.63	16.51	648.18	ND	ND	0.9	128.5	22.5	75.1	0	0
9366	2011-02-22T05:00:00	10	13.04	15.69	670.24	ND	ND	0.9	157.5	21.9	80.5	0	0
9367	2011-02-22T06:00:00	6	13.43	15.94	702.89	ND	ND	1.4	175.5	21.8	82.1	0	0
9368	2011-02-22T07:00:00	26	12.88	16.21	747.98	ND	ND	1.5	169.2	21.2	84.6	3.5	0
9369	2011-02-22T08:00:00	14	12.78	20.53	1006.59	ND	ND	0.9	172.7	20.8	88.8	22.9	1.27
9370	2011-02-22T09:00:00	25	13.48	27.18	1637.72	ND	ND	0.8	146.6	21.1	86.8	56.1	0
9371	2011-02-22T10:00:00	32	13.91	41.92	2442.13	ND	ND	0.9	109	21.3	84.8	94.2	0
9372	2011-02-22T11:00:00	41	14.31	42.56	2387.22	ND	ND	0.8	134.9	23.4	75.6	651	0
9373	2011-02-22T12:00:00	20	15.51	45.11	2005.44	ND	ND	0.9	114	25.7	64.6	683.7	0
9374	2011-02-22T13:00:00	27	17.99	46.16	1561.69	ND	ND	0.7	242	26.9	59.2	609.2	0
9375	2011-02-22T14:00:00	14	19.33	54.32	1498.79	ND	ND	2.1	282.2	27.7	54.2	454	0
9376	2011-02-22T15:00:00	25	17.27	51.48	1514.34	ND	ND	3.2	280	27.7	51.9	522.3	0
9377	2011-02-22T16:00:00	13	15.71	28.91	1005.71	ND	ND	3.2	280.1	28	50.2	455	0
9378	2011-02-22T17:00:00	8	14.21	16.23	833.14	ND	ND	3	279.8	27.4	52	214.7	0
9379	2011-02-22T18:00:00	5	13.81	14.73	750.64	ND	ND	3.7	283.1	26.2	54.5	47.3	0
9380	2011-02-22T19:00:00	18	13.42	19.06	724.64	ND	ND	4.3	276.2	25.1	59.3	0.4	0
9381	2011-02-22T20:00:00	10	13.39	20.71	790.73	ND	ND	3.4	260.1	23.7	69.5	0	0.25
9382	2011-02-22T21:00:00	10	12.97	19.88	923.89	ND	ND	2.1	203.4	22.8	79.3	0	0
9383	2011-02-22T22:00:00	6	11.89	18.28	830.12	ND	ND	1.8	203.4	22.6	79.6	0	0
9384	2011-02-22T23:00:00	12	11.07	34.84	1011.38	ND	ND	0.9	203.8	22.7	80	0	0
9385	2011-02-23T00:00:00	8	10.82	41.25	1114.03	ND	ND	1	174.1	21.3	87.4	0	3.81
9386	2011-02-23T01:00:00	10	10.87	46.46	1176.64	ND	ND	0.2	121.9	21.3	87.4	0	0
9387	2011-02-23T02:00:00	6	9.86	22.64	780.65	ND	ND	0.4	109.8	21.4	88.8	0	0
9388	2011-02-23T03:00:00	6	9.91	23.20	758.28	ND	ND	0.6	143.8	21.2	89.5	0	0
9389	2011-02-23T04:00:00	4	10.06	18.52	689.91	ND	ND	1.3	166.4	20.9	90	0	0.51
9390	2011-02-23T05:00:00	3	10.16	12.00	655.31	ND	ND	1.2	211.1	20.1	94.3	0	10.16
9391	2011-02-23T06:00:00	2	10.05	9.39	619.72	ND	ND	0.5	207.1	20.2	91.8	0	3.3
9392	2011-02-23T07:00:00	6	9.87	2.43	518.49	ND	ND	0.5	0.2	20.6	90.4	7.3	0.25
9393	2011-02-23T08:00:00	4	9.76	12.47	620.78	ND	ND	0.5	175.6	21.1	89	87.9	0
9394	2011-02-23T09:00:00	2	11.48	42.44	1684.62	ND	ND	1.3	190.7	21.7	84.6	230.8	0
9395	2011-02-23T10:00:00	3	11.38	60.05	2549.07	ND	ND	1.3	179.9	23.1	78.3	354.9	0
9396	2011-02-23T11:00:00	6	12.21	49.95	1935.12	ND	ND	1.1	173.6	24.9	69.3	692.8	0
9397	2011-02-23T12:00:00	3	10.84	43.42	1305.55	ND	ND	0.9	106.9	26.9	58.2	798.7	0
9398	2011-02-23T13:00:00	2	10.55	38.52	1118.32	ND	ND	2.4	276	27.3	53.7	625.7	0
9399	2011-02-23T14:00:00	3	10.19	36.21	1027.46	ND	ND	4	275.3	26.2	57	417.8	0
9400	2011-02-23T15:00:00	ND	10.23	19.99	1276.74	ND	ND	3.8	269.6	27.5	52.1	652.8	0
9401	2011-02-23T16:00:00	ND	10.83	13.05	646.92	ND	ND	3.6	281.3	27.7	50.6	417.9	0
9402	2011-02-23T17:00:00	ND	11.58	14.20	739.83	ND	ND	4.6	280.3	26	57.1	162.9	0
9403	2011-02-23T18:00:00	ND	ND	ND	ND	ND	ND	4.4	271.4	24.6	62.8	36.4	0
9404	2011-02-23T19:00:00	1	5.70	13.75	1750.43	ND	ND	1.3	265.4	23.9	64.5	0.1	0
9405	2011-02-23T20:00:00	1	5.25	19.44	1906.10	ND	ND	2	278.7	23.4	67.3	0	0.25
9406	2011-02-23T21:00:00	2	5.16	28.96	2130.78	ND	ND	1.6	279	22.7	76	0	0
9407	2011-02-23T22:00:00	18	3.64	27.85	1375.49	ND	ND	1.5	161.9	22	84.6	0	0.25
9408	2011-02-23T23:00:00	10	2.98	40.07	1406.25	ND	ND	1.4	161.8	20.9	92.4	0	0.51
9409	2011-02-24T00:00:00	7	3.57	44.39	1932.04	ND	ND	1.3	213.3	20.1	93.3	0	7.62
9410	2011-02-24T01:00:00	5	2.53	27.32	1701.42	ND	ND	1.3	219	19.9	95	0	9.65
9411	2011-02-24T02:00:00	4	1.55	20.25	1193.56	ND	ND	1	224.4	19.6	95.4	0	6.86
9412	2011-02-24T03:00:00	4	1.13	16.27	1012.36	ND	ND	0.7	179.1	19.9	93.3	0	0.51
9413	2011-02-24T04:00:00	4	1.03	7.44	923.32	ND	ND	0.7	144.1	19.8	94.8	0	0.76
9414	2011-02-24T05:00:00	3	1.34	8.88	1069.34	ND	ND	0.6	160.8	19.8	94.7	0	0.25
9415	2011-02-24T06:00:00	3	1.47	13.88	1181.90	ND	ND	0.8	165.7	19.8	94.2	0	0.25
9416	2011-02-24T07:00:00	6	1.18	14.40	1046.82	ND	ND	1.2	171.8	19.9	93.8	6.9	0.25
9417	2011-02-24T08:00:00	6	2.14	24.31	1407.50	ND	ND	1.5	182.2	19.9	93.2	46.3	0.51
9418	2011-02-24T09:00:00	4	2.86	31.58	2083.10	ND	ND	2.2	188.9	20.1	90	121.3	0
9419	2011-02-24T10:00:00	3	4.23	41.01	2681.71	ND	ND	2	185.6	20.8	85.7	258.7	0
9420	2011-02-24T11:00:00	3	2.58	38.73	1931.38	ND	ND	1.5	170.5	22.2	79.7	360.3	0
9421	2011-02-24T12:00:00	6	2.65	37.05	1770.36	ND	ND	1	164.4	24	70.6	611.2	0
9422	2011-02-24T13:00:00	3	2.25	42.24	1758.32	ND	ND	0.8	162.6	24.8	65.9	296.6	0
9423	2011-02-24T14:00:00	1	2.46	42.12	1637.12	ND	ND	1.1	237.2	22.9	75.8	94	15.49
9424	2011-02-24T15:00:00	3	1.93	33.40	1535.67	ND	ND	0.7	203.6	23.2	76	440.7	1.27
9425	2011-02-24T16:00:00	2	2.63	34.26	1514.45	ND	ND	0.9	71.2	24.6	68.6	387.7	0.25
9426	2011-02-24T17:00:00	5	3.19	48.45	1647.46	ND	ND	2.3	20	24.1	71.1	179.3	0
9427	2011-02-24T18:00:00	29	3.45	76.52	2227.19	ND	ND	3.5	3.5	21.4	83.8	29.4	0
9428	2011-02-24T19:00:00	19	4.22	70.74	2003.23	ND	ND	1.9	11.2	20.6	84.1	0.1	0
9429	2011-02-24T20:00:00	35	8.75	60.22	1896.20	ND	ND	0.1	343.3	20.4	87.2	0	0.25
9430	2011-02-24T21:00:00	19	12.02	68.04	2673.18	ND	ND	1.9	169.7	20	89.5	0	0
9431	2011-02-24T22:00:00	25	25.32	69.48	3007.45	ND	ND	1.1	189.1	19.8	90.2	0	0
9432	2011-02-24T23:00:00	14	16.84	42.45	2183.70	ND	ND	1.1	181.2	20	87.7	0	0
9433	2011-02-25T00:00:00	9	8.45	32.28	1498.09	ND	ND	0.8	163.5	19.9	87.5	0	0
9434	2011-02-25T01:00:00	4	6.90	32.06	1384.98	ND	ND	0.6	233.9	19.9	88.1	0	0
9435	2011-02-25T02:00:00	2	6.72	35.14	1328.68	ND	ND	1.1	253.1	19.9	86.5	0	0
9436	2011-02-25T03:00:00	6	5.02	29.43	1238.60	ND	ND	0.2	222	19.8	85.5	0	0
9437	2011-02-25T04:00:00	13	4.35	18.39	1091.85	ND	ND	0.6	32	19.4	92.4	0	0
9438	2011-02-25T05:00:00	9	3.91	11.48	1011.67	ND	ND	0.7	354	19.3	93.4	0	0
9439	2011-02-25T06:00:00	44	3.34	16.96	1292.25	ND	ND	0.2	227.9	19.3	90.5	0	0
9440	2011-02-25T07:00:00	23	4.45	22.76	1359.67	ND	ND	0.9	233.4	19.4	85.9	14.8	0
9441	2011-02-25T08:00:00	35	6.94	19.90	1067.88	ND	ND	0.5	201.1	20.3	82.2	95.3	0
9442	2011-02-25T09:00:00	64	7.43	16.05	1657.48	ND	ND	0.6	117.3	21	84.3	159.5	0
9443	2011-02-25T10:00:00	66	11.06	36.70	2531.72	ND	ND	0.9	136.6	22.7	74.5	385.2	0
9444	2011-02-25T11:00:00	34	10.95	86.53	3501.24	ND	ND	1	118.4	23.6	69.4	397.7	0
9445	2011-02-25T12:00:00	37	8.48	86.42	2314.66	ND	ND	0.8	90.5	24.2	65.1	319.2	0
9446	2011-02-25T13:00:00	39	5.67	50.79	1736.65	ND	ND	1	98.5	25	62.3	406	0
9447	2011-02-25T14:00:00	32	5.66	55.79	1718.41	ND	ND	0.5	136.8	26.5	57.2	658	0
9448	2011-02-25T15:00:00	18	6.19	68.58	1991.88	ND	ND	1	136.4	27.7	52.9	584	0
9449	2011-02-25T16:00:00	19	6.77	55.21	1699.30	ND	ND	0.5	37.5	28.2	51.4	422.2	0
9450	2011-02-25T17:00:00	36	6.59	56.06	1702.13	ND	ND	1.9	355.7	28.2	53.7	261.9	0
9451	2011-02-25T18:00:00	38	8.95	59.05	1794.76	ND	ND	1	355.9	27.8	54.4	142.2	0
9452	2011-02-25T19:00:00	32	22.64	82.13	2439.94	ND	ND	2.6	279.5	26.2	57.5	4.5	0
9453	2011-02-25T20:00:00	31	17.52	76.44	2265.93	ND	ND	3.1	266.8	25.2	60.8	0	0
9454	2011-02-25T21:00:00	29	8.26	38.73	1765.42	ND	ND	0.4	317	24.5	65.6	0	0
9455	2011-02-25T22:00:00	93	5.41	37.81	1784.15	ND	ND	0.5	248.3	23.8	68.1	0	0
9456	2011-02-25T23:00:00	48	8.77	47.91	2053.79	ND	ND	1	264.4	23.1	67.9	0	0
9457	2011-02-26T00:00:00	25	14.50	44.52	2162.78	ND	ND	1.3	254.6	22.6	68	0	0
9458	2011-02-26T01:00:00	26	7.98	30.23	1352.29	ND	ND	0.7	232.2	22.5	70.3	0	0
9459	2011-02-26T02:00:00	37	4.96	30.97	1192.80	ND	ND	0.3	281.7	21.8	75.2	0	0
9460	2011-02-26T03:00:00	30	3.94	33.37	1189.97	ND	ND	0.3	40.8	21.5	78.7	0	0
9461	2011-02-26T04:00:00	59	5.26	36.30	1732.19	ND	ND	0.5	200.3	21.2	77.8	0	0
9462	2011-02-26T05:00:00	31	5.92	38.66	1685.19	ND	ND	0.4	345.4	21.1	78.9	0	0
9463	2011-02-26T06:00:00	39	6.44	31.79	1356.74	ND	ND	1	11.6	20.5	85.2	0	0
9464	2011-02-26T07:00:00	50	5.99	33.26	1511.93	ND	ND	0.3	279	20.5	83.7	11.3	0
9465	2011-02-26T08:00:00	73	8.41	34.48	2042.24	ND	ND	0.4	146.8	21.3	80.4	85	0
9466	2011-02-26T09:00:00	82	14.75	36.94	2025.18	ND	ND	1.3	149.2	22.7	76.9	319.3	0
9467	2011-02-26T10:00:00	84	20.80	61.41	3228.41	ND	ND	1.4	111.7	25	65.7	576	0
9468	2011-02-26T11:00:00	60	20.83	97.62	3322.26	ND	ND	1.1	89.5	26.7	58.9	730.4	0
9469	2011-02-26T12:00:00	57	16.52	66.56	2085.38	ND	ND	1.3	62.8	27.3	56.8	494	0
9470	2011-02-26T13:00:00	29	19.09	63.58	1858.66	ND	ND	1	91.6	28.4	53.4	472.9	0
9471	2011-02-26T14:00:00	56	19.11	59.64	1784.36	ND	ND	1.7	55.2	28.7	51.6	333.1	0
9472	2011-02-26T15:00:00	42	17.08	65.59	2029.70	ND	ND	0.9	347.2	29.2	48.9	370.6	0
9473	2011-02-26T16:00:00	22	20.94	74.72	2160.86	ND	ND	4.3	277.4	28.4	48.4	345.4	0
9474	2011-02-26T17:00:00	12	30.72	56.50	1738.02	ND	ND	3.9	274.9	28.3	47.5	313.5	0
9475	2011-02-26T18:00:00	20	9.03	16.51	1355.20	ND	ND	3.8	273.8	27	51.5	108.9	0
9476	2011-02-26T19:00:00	12	6.23	18.07	703.51	ND	ND	3.7	268.9	25.8	55.9	0.9	0
9477	2011-02-26T20:00:00	9	4.73	18.24	884.49	ND	ND	0.4	234.1	25.7	57.6	0	0
9478	2011-02-26T21:00:00	8	4.94	23.01	964.57	ND	ND	0.3	265	24.6	63.3	0	0
9479	2011-02-26T22:00:00	6	6.10	43.37	1819.07	ND	ND	2.3	265	24.4	61.9	0	0
9480	2011-02-26T23:00:00	5	6.54	56.03	1783.55	ND	ND	2	244.7	24.2	62	0	0
9481	2011-02-27T00:00:00	3	4.52	26.65	1313.91	ND	ND	0.9	285	23.9	67.3	0	0
9482	2011-02-27T01:00:00	4	3.24	15.97	1244.10	ND	ND	2	182.9	22.8	75.6	0	0.25
9483	2011-02-27T02:00:00	22	4.89	41.56	1717.10	ND	ND	1.3	207.7	22.4	77.8	0	0
9484	2011-02-27T03:00:00	13	3.69	30.94	1408.16	ND	ND	0.9	224.1	22.3	77.7	0	0.25
9485	2011-02-27T04:00:00	20	4.05	28.84	1191.99	ND	ND	0.3	199.9	22.4	76.4	0	0
9486	2011-02-27T05:00:00	29	4.60	29.54	1181.04	ND	ND	0.3	281.7	22.2	79.4	0	0
9487	2011-02-27T06:00:00	36	5.81	34.31	1497.99	ND	ND	0.3	196.2	22.1	77.7	0	0
9488	2011-02-27T07:00:00	20	9.89	31.00	1554.21	ND	ND	0.6	66	21.8	80.4	0.2	0
9489	2011-02-27T08:00:00	62	9.90	27.61	1518.63	ND	ND	1.2	342.7	20.9	88	14.7	0.76
9490	2011-02-27T09:00:00	45	8.24	29.01	1819.05	ND	ND	0.2	214.5	21.5	82.9	59.7	0
9491	2011-02-27T10:00:00	47	7.41	25.93	1585.01	ND	ND	1.2	58.6	21.9	85.5	184.6	0
9492	2011-02-27T11:00:00	26	9.33	30.87	1587.17	ND	ND	1.2	46.4	23.3	78.7	411.9	0
9493	2011-02-27T12:00:00	37	13.68	37.42	1822.52	ND	ND	0.8	32.4	25.5	67.4	649.4	0
9494	2011-02-27T13:00:00	20	31.60	47.00	1732.77	ND	ND	1	32.3	26.4	60.8	380.6	0
9495	2011-02-27T14:00:00	22	51.78	55.56	1542.33	ND	ND	1.3	69.5	27.2	58.9	388.3	0
9496	2011-02-27T15:00:00	17	32.33	33.32	1477.20	ND	ND	1.6	4.4	23.6	76.3	133.2	27.94
9497	2011-02-27T16:00:00	33	21.62	34.70	1584.91	ND	ND	0.6	317.6	25.6	66.3	381.3	0
9498	2011-02-27T17:00:00	18	15.65	32.59	1561.16	ND	ND	1.4	189.2	27	58.2	263.6	0
9499	2011-02-27T18:00:00	10	12.79	63.58	2341.19	ND	ND	1	206.2	26.4	58.9	60	0
9500	2011-02-27T19:00:00	6	8.16	39.32	1576.86	ND	ND	0.9	309.2	25.3	61.4	0.9	0
9501	2011-02-27T20:00:00	5	7.37	39.46	1743.08	ND	ND	1.6	267.6	24.5	63.2	0	0
9502	2011-02-27T21:00:00	4	5.99	34.03	1006.44	ND	ND	1.3	271.3	24.1	63.8	0	0
9503	2011-02-27T22:00:00	15	5.33	29.97	1382.00	ND	ND	0.8	88.3	22.8	75.1	0	0
9504	2011-02-27T23:00:00	11	4.63	35.76	1387.32	ND	ND	1	222.1	22.7	73.6	0	0
9505	2011-02-28T00:00:00	22	6.03	40.82	2364.47	ND	ND	0.7	223.3	23.2	68.3	0	0
9506	2011-02-28T01:00:00	11	5.23	36.80	1947.16	ND	ND	0.5	337.3	22.5	74.6	0	0
9507	2011-02-28T02:00:00	10	4.00	15.50	1067.84	ND	ND	0.3	333.8	21.4	83	0	0
9508	2011-02-28T03:00:00	26	4.40	21.94	1380.76	ND	ND	0.3	191.9	21.6	81.3	0	0
9509	2011-02-28T04:00:00	28	4.35	27.87	1087.24	ND	ND	1.1	190.3	21.5	81	0	0
9510	2011-02-28T05:00:00	28	6.65	30.92	1041.58	ND	ND	0.2	120.5	21.2	81.8	0	0
9511	2011-02-28T06:00:00	42	6.10	26.07	1210.17	ND	ND	0.1	178	20.9	85.2	0	0
9512	2011-02-28T07:00:00	34	5.94	27.19	1231.53	ND	ND	0.8	247.4	20.6	81.2	11.4	0
9513	2011-02-28T08:00:00	53	5.81	33.27	1681.75	ND	ND	1	259.3	21.4	74.7	91.3	0
9514	2011-02-28T09:00:00	29	7.07	31.37	2014.55	ND	ND	0.5	149.3	23	72.8	163.1	0
9515	2011-02-28T10:00:00	69	14.26	36.91	2719.63	ND	ND	0.6	136.1	24.2	69.7	351.2	0
9516	2011-02-28T11:00:00	40	15.34	60.69	2319.34	ND	ND	0.9	97.5	26.2	61.2	598.7	0
9517	2011-02-28T12:00:00	56	13.05	68.91	2139.41	ND	ND	0.7	92	27.8	55.2	678.6	0
9518	2011-02-28T13:00:00	41	12.25	55.67	1803.94	ND	ND	1	17.6	28.9	50.5	615.5	0
9519	2011-02-28T14:00:00	36	12.42	54.30	1880.17	ND	ND	1.4	337.5	29.2	47.5	320.8	0
9520	2011-02-28T15:00:00	19	13.13	54.47	1719.40	ND	ND	2.7	279.9	29.3	45.7	416.3	0
9521	2011-02-28T16:00:00	11	18.13	39.22	1499.16	ND	ND	4.4	277.9	29.4	46	603.6	0
9522	2011-02-28T17:00:00	7	7.34	24.18	1383.40	ND	ND	5.1	280.4	27	52.3	163.9	0
9523	2011-02-28T18:00:00	25	5.83	21.60	1383.96	ND	ND	5	281.6	25.5	56.5	12.5	0
9524	2011-02-28T19:00:00	15	4.93	19.68	1365.56	ND	ND	2.6	228.8	23.7	69.8	0	0
9525	2011-02-28T20:00:00	20	4.96	21.02	1277.48	ND	ND	1.4	211.4	22.4	78.3	0	6.35
9526	2011-02-28T21:00:00	11	4.23	36.71	1589.86	ND	ND	1.4	188.2	21.4	86.8	0	0.25
9527	2011-02-28T22:00:00	9	4.14	43.30	1675.02	ND	ND	1.1	199	21.5	86.9	0	0
9528	2011-02-28T23:00:00	7	3.31	62.24	2230.34	ND	ND	0.7	145.1	21.6	85	0	0
9529	2011-03-01T00:00:00	17	1.89	57.79	1891.34	ND	ND	0.8	156.1	21.2	88.7	0	0
9530	2011-03-01T01:00:00	13	2.77	59.84	2069.73	ND	ND	1.1	174.4	21.2	87.3	0	0
9531	2011-03-01T02:00:00	15	1.84	42.08	1447.68	ND	ND	1.4	163	20.8	90.3	0	0
9532	2011-03-01T03:00:00	9	1.68	21.95	1084.28	ND	ND	1.4	170.8	20.5	89.6	0	0
9533	2011-03-01T04:00:00	6	1.65	15.47	925.21	ND	ND	1.9	172.8	19.6	93.4	0	7.62
9534	2011-03-01T05:00:00	4	1.23	9.17	899.88	ND	ND	1.4	187.8	19.2	95.6	0	0.51
9535	2011-03-01T06:00:00	3	1.13	9.22	864.95	ND	ND	0.8	166.8	19.3	94.9	0	0.76
9536	2011-03-01T07:00:00	3	0.95	10.01	921.43	ND	ND	0.6	196.6	19.5	93.9	3.1	0
9537	2011-03-01T08:00:00	13	1.13	26.42	1214.42	ND	ND	0.5	225.1	19.8	92.7	44.1	0.76
9538	2011-03-01T09:00:00	11	ND	39.99	1553.35	ND	ND	0.3	126.6	20.8	86.9	176.3	0.51
9539	2011-03-01T10:00:00	20	3.20	48.72	2225.04	ND	ND	0.6	109.9	22.2	78.2	310.6	0
9540	2011-03-01T11:00:00	11	3.69	73.25	2678.23	ND	ND	1.1	118.9	23.5	73.2	412.2	0
9541	2011-03-01T12:00:00	11	3.00	75.95	2234.09	ND	ND	0.4	110.8	24.6	68.4	374.5	0
9542	2011-03-01T13:00:00	8	3.09	66.47	2105.09	ND	ND	0.6	321.1	24.7	67	244.4	0
9543	2011-03-01T14:00:00	31	2.70	51.95	1693.79	ND	ND	1.5	353.9	25.1	67.6	337.2	0
9544	2011-03-01T15:00:00	16	4.30	54.47	2337.82	ND	ND	1.5	292.8	24.8	64.3	220.7	0
9545	2011-03-01T16:00:00	13	7.78	58.80	2358.37	ND	ND	1.4	293.6	24.7	64.3	225.3	0
9546	2011-03-01T17:00:00	8	8.06	35.54	1854.02	ND	ND	1.9	280.4	25.3	60.9	120.8	0
9547	2011-03-01T18:00:00	5	5.04	26.13	1662.80	ND	ND	3.5	277.8	22.9	69.7	29.1	0
9548	2011-03-01T19:00:00	3	5.41	34.28	1911.06	ND	ND	1	255.5	22.2	72.5	0.5	0
9549	2011-03-01T20:00:00	16	4.54	31.40	1724.96	ND	ND	1.4	199.2	22.3	72.7	0	0
9550	2011-03-01T21:00:00	9	4.52	43.97	2213.69	ND	ND	1.6	182.8	21.6	80.7	0	0
9551	2011-03-01T22:00:00	25	5.13	54.29	2808.69	ND	ND	1.3	178.3	21.1	85.5	0	0
9552	2011-03-01T23:00:00	14	3.18	58.11	2227.31	ND	ND	1.4	186.1	20.6	88.5	0	0
9553	2011-03-02T00:00:00	12	2.35	55.56	2054.22	ND	ND	0.8	189.3	20.4	89.1	0	0
9554	2011-03-02T01:00:00	7	1.68	40.04	1285.83	ND	ND	0.9	247.4	20.6	85.4	0	0
9555	2011-03-02T02:00:00	5	1.50	34.81	1196.41	ND	ND	1.1	175.7	20.6	85.2	0	0
9556	2011-03-02T03:00:00	3	1.65	22.82	1106.12	ND	ND	0.9	155.3	19.9	89.3	0	0
9557	2011-03-02T04:00:00	4	1.96	13.09	1002.14	ND	ND	0.8	137.1	19.5	93.4	0	0.76
9558	2011-03-02T05:00:00	4	1.67	6.34	910.82	ND	ND	0.7	122.3	19.3	94	0	0
9559	2011-03-02T06:00:00	4	1.57	9.61	988.85	ND	ND	1	192.4	19.4	93.7	0	0
9560	2011-03-02T07:00:00	4	1.80	17.52	1090.36	ND	ND	1.5	181.9	19.2	92.7	6.3	0
9561	2011-03-02T08:00:00	10	1.77	21.16	1089.61	ND	ND	1.4	197.7	19.2	92.9	58.2	0.51
9562	2011-03-02T09:00:00	7	2.88	46.39	1965.79	ND	ND	1.5	194	19.7	90.3	146.2	0.25
9563	2011-03-02T10:00:00	4	2.88	49.56	2205.46	ND	ND	2.4	192.4	20.6	85.6	306.2	0
9564	2011-03-02T11:00:00	3	2.84	49.08	1873.63	ND	ND	2.5	186.9	21.2	82.9	330.3	0
9565	2011-03-02T12:00:00	16	3.26	39.38	1572.09	ND	ND	2.1	191.7	21.7	76.2	289.2	0
9566	2011-03-02T13:00:00	10	3.76	33.08	1608.75	ND	ND	1.7	192.1	22.3	72.4	268.7	0
9567	2011-03-02T14:00:00	6	4.52	31.15	1487.15	ND	ND	2	239.6	21	84.5	225.6	3.05
9568	2011-03-02T15:00:00	4	3.93	41.47	1593.62	ND	ND	1.6	250.4	22.6	73.7	398.3	0.25
9569	2011-03-02T16:00:00	4	3.27	32.19	1409.11	ND	ND	1	140.1	24.5	63.5	295.4	0
9570	2011-03-02T17:00:00	3	4.08	36.57	1063.63	ND	ND	0.4	73.8	24.1	66.1	114.3	0
9571	2011-03-02T18:00:00	29	9.64	81.76	1873.12	ND	ND	2.1	266.9	23.3	64.6	27.8	0
9572	2011-03-02T19:00:00	17	5.63	97.42	2038.94	ND	ND	1.1	264.3	21.7	74.4	1.6	0.25
9573	2011-03-02T20:00:00	23	4.69	47.74	1642.74	ND	ND	0.4	308	21.9	73.7	0	0
9574	2011-03-02T21:00:00	16	3.73	41.45	1723.21	ND	ND	1.4	258.2	21.4	73	0	0
9575	2011-03-02T22:00:00	15	6.16	44.84	2772.83	ND	ND	1.4	243.2	21.3	70.3	0	0
9576	2011-03-02T23:00:00	8	2.95	26.32	1493.43	ND	ND	2.1	252.8	21.1	69.6	0	0
9577	2011-03-03T00:00:00	8	2.22	22.77	1356.74	ND	ND	0.8	242.7	21.1	69.8	0	0
9578	2011-03-03T01:00:00	6	1.68	14.59	1108.00	ND	ND	0.4	268.9	20.9	71.8	0	0
9579	2011-03-03T02:00:00	15	2.09	16.27	1175.04	ND	ND	0.9	257.8	20.5	75.2	0	0
9580	2011-03-03T03:00:00	10	2.30	17.14	1150.87	ND	ND	0.7	251.7	20.3	76.5	0	0
9581	2011-03-03T04:00:00	5	3.22	11.72	1003.51	ND	ND	0.3	310.4	20.3	80.7	0	0
9582	2011-03-03T05:00:00	5	1.91	5.64	890.76	ND	ND	0.2	264.7	19.9	80.7	0	0
9583	2011-03-03T06:00:00	22	3.73	17.27	1520.10	ND	ND	0.1	105.2	19.8	81.2	0	0
9584	2011-03-03T07:00:00	52	3.66	14.29	1215.67	ND	ND	0.7	348.6	19.5	86.6	15.6	0
9585	2011-03-03T08:00:00	88	5.12	22.05	1832.88	ND	ND	0.4	266.6	20.5	78.4	108.6	0
9586	2011-03-03T09:00:00	80	9.63	44.89	3351.07	ND	ND	0.6	46.5	22.6	70.2	283.9	0
9587	2011-03-03T10:00:00	61	24.15	55.41	3238.69	ND	ND	0.3	85.1	24.1	65.1	411.5	0
9588	2011-03-03T11:00:00	38	75.44	81.59	2478.46	ND	ND	1	108.5	24.7	62.9	379	0
9589	2011-03-03T12:00:00	57	55.26	76.26	1876.90	ND	ND	0.8	127.2	26.4	56.5	759.6	0
9590	2011-03-03T13:00:00	29	30.70	70.98	1979.70	ND	ND	0.8	110	27.2	51.3	501.8	0
9591	2011-03-03T14:00:00	29	19.96	43.58	1557.99	ND	ND	1	239.2	27.2	52.3	391.5	0
9592	2011-03-03T15:00:00	16	14.65	48.36	1684.93	ND	ND	1.5	236.9	28	49.1	480.8	0
9593	2011-03-03T16:00:00	18	12.92	40.39	1434.85	ND	ND	1.4	209.5	27.8	49.7	286.3	0
9594	2011-03-03T17:00:00	11	10.42	35.17	1468.59	ND	ND	1.3	156.6	27.6	44.7	140.7	0
9595	2011-03-03T18:00:00	31	6.90	35.45	1513.84	ND	ND	1.4	233.8	26.8	48.4	59.6	0
9596	2011-03-03T19:00:00	17	7.12	64.18	2166.75	ND	ND	2.7	269.5	25.2	57.8	2.6	0
9597	2011-03-03T20:00:00	27	5.48	52.85	1765.42	ND	ND	2.9	271.6	24.3	61.2	0	0
9598	2011-03-03T21:00:00	14	5.86	33.56	1657.23	ND	ND	3.1	263.8	23.9	61.7	0	0
9599	2011-03-03T22:00:00	28	4.41	25.71	1312.59	ND	ND	0.3	56.9	23	68.3	0	0
9600	2011-03-03T23:00:00	23	3.38	21.12	1217.57	ND	ND	1	260.1	22.7	68.2	0	0
9601	2011-03-04T00:00:00	50	4.65	26.99	1977.97	ND	ND	0.7	22	21.9	75.1	0	0
9602	2011-03-04T01:00:00	35	4.41	24.42	1609.84	ND	ND	0.5	226.1	21.2	76.4	0	0
9603	2011-03-04T02:00:00	23	6.29	26.79	1832.22	ND	ND	1.2	214.5	21.3	71.5	0	0
9604	2011-03-04T03:00:00	12	5.64	23.88	1436.86	ND	ND	0.7	202.6	20.7	75.8	0	0
9605	2011-03-04T04:00:00	15	4.85	21.38	835.52	ND	ND	0.5	210.9	20.5	76.6	0	0
9606	2011-03-04T05:00:00	8	4.21	24.21	710.83	ND	ND	0.6	211.9	20.2	74.2	0	0
9607	2011-03-04T06:00:00	13	3.33	18.27	743.92	ND	ND	1	264.3	20.1	72.1	0	0
9608	2011-03-04T07:00:00	8	2.45	11.28	822.54	ND	ND	0.5	324.4	20.1	76.1	9	0
9609	2011-03-04T08:00:00	60	2.27	14.15	856.35	ND	ND	0.4	250.6	20.6	74.1	71.7	0
9610	2011-03-04T09:00:00	53	4.96	29.89	1839.77	ND	ND	0.6	170.2	21.9	68	227.6	0
9611	2011-03-04T10:00:00	68	14.11	47.96	3049.63	ND	ND	0.4	330.7	24.4	60.4	542	0
9612	2011-03-04T11:00:00	51	25.39	91.09	3121.21	ND	ND	0.6	57.9	26.2	54.5	698.2	0
9613	2011-03-04T12:00:00	55	58.67	119.44	2288.94	ND	ND	0.9	134.9	28	49.5	726.5	0
9614	2011-03-04T13:00:00	29	27.02	70.94	1643.14	ND	ND	1.2	166.2	27.8	51.1	368.8	0
9615	2011-03-04T14:00:00	41	24.04	72.28	1665.17	ND	ND	1.4	174.8	27.5	53.1	266.3	0
9616	2011-03-04T15:00:00	28	17.44	67.06	1536.44	ND	ND	1.7	282.3	27.4	51.4	244.8	0
9617	2011-03-04T16:00:00	33	12.12	45.59	1235.67	ND	ND	1.5	299	27.8	49	254.6	0
9618	2011-03-04T17:00:00	16	9.02	44.37	1295.14	ND	ND	3.2	282.8	27.7	48.2	247	0
9619	2011-03-04T18:00:00	8	6.42	43.88	1537.46	ND	ND	3.4	272.8	26.2	53.4	58.9	0
9620	2011-03-04T19:00:00	5	4.97	21.31	1207.73	ND	ND	4.6	268.1	25.1	56.9	2.9	0
9621	2011-03-04T20:00:00	10	5.50	24.74	1443.95	ND	ND	3.1	276.6	24.9	57	0	0
9622	2011-03-04T21:00:00	6	4.37	16.32	1271.20	ND	ND	1.2	299.8	24.5	59.5	0	0
9623	2011-03-04T22:00:00	4	3.06	20.19	1029.32	ND	ND	2.3	247.3	24	62	0	0
9624	2011-03-04T23:00:00	4	3.94	27.05	1564.22	ND	ND	2.1	261.1	23.4	63.9	0	0
9625	2011-03-05T00:00:00	15	3.44	20.27	1298.98	ND	ND	0.6	46.2	22.1	72.6	0	0
9626	2011-03-05T01:00:00	24	2.39	13.54	1157.15	ND	ND	0.5	186.9	22	72.5	0	0
9627	2011-03-05T02:00:00	34	7.26	34.42	1735.13	ND	ND	0.3	160.6	21.4	77.1	0	0
9628	2011-03-05T03:00:00	24	8.44	32.75	1912.69	ND	ND	0.5	137.8	21.1	77.6	0	0
9629	2011-03-05T04:00:00	34	6.03	28.66	1786.37	ND	ND	0.3	139.7	20.8	77.7	0	0
9630	2011-03-05T05:00:00	18	4.86	27.11	1558.66	ND	ND	1	231.4	20.7	77.2	0	0
9631	2011-03-05T06:00:00	25	7.44	24.54	1264.57	ND	ND	1.2	230.9	20.6	75.8	0	0
9632	2011-03-05T07:00:00	25	8.91	23.07	1309.28	ND	ND	0.2	190.8	20.5	77.3	8.8	0
9633	2011-03-05T08:00:00	61	7.72	20.26	1297.55	ND	ND	0.8	16.6	21.1	74.9	94	0
9634	2011-03-05T09:00:00	37	8.71	35.87	2600.41	ND	ND	0.2	124	23.4	65.3	365.1	0
9635	2011-03-05T10:00:00	55	15.17	58.30	2962.59	ND	ND	1	112.1	24.7	60.4	395.9	0
9636	2011-03-05T11:00:00	47	25.78	66.42	2231.69	ND	ND	1	96	26.6	54.8	753	0
9637	2011-03-05T12:00:00	43	25.50	82.92	2234.41	ND	ND	1.3	105	27.9	50.1	751.4	0
9638	2011-03-05T13:00:00	29	21.11	62.02	1885.51	ND	ND	0.3	240.7	27.9	49.2	341.2	0
9639	2011-03-05T14:00:00	27	18.04	51.12	1700.43	ND	ND	0.8	218	29.1	46.4	522.3	0
9640	2011-03-05T15:00:00	32	15.88	45.02	1695.60	ND	ND	3.9	287	27.5	47.1	75.8	0
9641	2011-03-05T16:00:00	19	13.74	51.28	1767.48	ND	ND	3.9	293.2	26.7	48.5	174.8	0
9642	2011-03-05T17:00:00	11	5.80	20.42	1232.79	ND	ND	3.4	300	27.4	45	282.5	0
9643	2011-03-05T18:00:00	7	3.88	12.15	970.06	ND	ND	2.1	293	26.7	47.7	43.7	0
9644	2011-03-05T19:00:00	6	3.27	13.30	1152.14	ND	ND	1.1	289.6	25.5	52.8	0.9	0
9645	2011-03-05T20:00:00	4	3.57	22.11	1629.49	ND	ND	2.6	273.7	25.1	53.1	0	0
9646	2011-03-05T21:00:00	4	4.14	27.53	1478.33	ND	ND	3.1	258.9	24.7	54.2	0	0
9647	2011-03-05T22:00:00	3	3.17	29.13	1007.12	ND	ND	2.6	250.7	24.5	57.3	0	0
9648	2011-03-05T23:00:00	1	1.99	12.45	983.57	ND	ND	2.1	245.9	24	60.6	0	0
9649	2011-03-06T00:00:00	1	2.12	10.68	1073.26	ND	ND	1.5	219.3	23.7	62.1	0	0
9650	2011-03-06T01:00:00	ND	1.88	15.02	1049.36	ND	ND	1.6	185.9	22.8	66.9	0	0
9651	2011-03-06T02:00:00	ND	1.38	14.77	989.32	ND	ND	1.2	149.8	21.9	73.9	0	0
9652	2011-03-06T03:00:00	ND	2.02	18.38	1054.33	ND	ND	0.5	137	21.8	73.9	0	0
9653	2011-03-06T04:00:00	ND	2.28	17.12	1019.97	ND	ND	0.7	38.4	21.7	75.4	0	0
9654	2011-03-06T05:00:00	2	2.77	23.92	1359.51	ND	ND	0.7	59.7	20.6	82.9	0	0
9655	2011-03-06T06:00:00	2	2.53	24.70	1264.14	ND	ND	0.7	135.5	20.7	81.8	0	0
9656	2011-03-06T07:00:00	3	2.76	16.11	1027.46	ND	ND	0.8	97.3	20.2	84.4	12.9	0
9657	2011-03-06T08:00:00	12	3.25	17.40	845.37	ND	ND	0.9	67.6	20.5	85.1	93.9	0
9658	2011-03-06T09:00:00	7	3.05	16.92	1162.16	ND	ND	1.4	77.2	21	81.5	180.7	0
9659	2011-03-06T10:00:00	16	6.95	26.29	1220.65	ND	ND	1.4	52.5	21.7	79.6	154.3	0
9660	2011-03-06T11:00:00	23	15.13	23.90	1178.24	ND	ND	0.8	84.7	21.5	83.3	145.2	0
9661	2011-03-06T12:00:00	37	13.49	26.34	1290.65	ND	ND	0.6	95.3	22.5	76.5	200.8	0
9662	2011-03-06T13:00:00	19	15.30	37.26	1522.24	ND	ND	0.4	115.9	24.2	68.5	536.1	0
9663	2011-03-06T14:00:00	26	17.01	45.25	1645.25	ND	ND	0.8	182.9	26.3	56.8	694.1	0
9664	2011-03-06T15:00:00	15	8.84	29.13	1461.27	ND	ND	0.8	243.1	26.5	54.8	235.1	0
9665	2011-03-06T16:00:00	25	7.19	25.80	1324.08	ND	ND	1.2	9.7	25.4	59.2	71.9	0
9666	2011-03-06T17:00:00	14	5.88	16.48	1009.49	ND	ND	1.4	33.1	25.8	56.1	86.4	0
9667	2011-03-06T18:00:00	9	9.96	48.57	1585.18	ND	ND	1.6	42.7	25.6	54.1	58.1	0
9668	2011-03-06T19:00:00	5	15.07	58.24	1503.77	ND	ND	1.2	357.6	25.1	56.9	2.4	0
9669	2011-03-06T20:00:00	11	31.37	48.53	1363.73	ND	ND	1.5	279.1	24.1	60	0	0
9670	2011-03-06T21:00:00	7	18.83	42.42	1507.63	ND	ND	0.7	283.9	23.5	62.9	0	0
9671	2011-03-06T22:00:00	12	6.80	21.25	1572.98	ND	ND	0.4	164.5	23	69.8	0	0
9672	2011-03-06T23:00:00	7	5.05	29.32	1729.64	ND	ND	1.2	253.7	22.5	66.4	0	0
9673	2011-03-07T00:00:00	4	6.89	43.96	2419.67	ND	ND	1.4	252.7	22.2	64.8	0	0
9674	2011-03-07T01:00:00	4	4.88	26.89	1361.81	ND	ND	0.8	254.6	22.2	66.1	0	0
9675	2011-03-07T02:00:00	4	3.53	14.37	987.31	ND	ND	0.9	285	22.2	68.2	0	0
9676	2011-03-07T03:00:00	2	3.24	11.19	896.53	ND	ND	0.3	306	21.9	70.6	0	0
9677	2011-03-07T04:00:00	6	3.34	13.42	986.31	ND	ND	0.8	33.1	21.1	80.2	0	0
9678	2011-03-07T05:00:00	3	2.90	8.70	1006.25	ND	ND	0.4	319.4	21.2	78.3	0	0
9679	2011-03-07T06:00:00	11	4.09	21.81	1391.13	ND	ND	0.4	242.4	21.4	73.1	0	0
9680	2011-03-07T07:00:00	27	4.84	21.16	1165.72	ND	ND	0.1	86.4	21.3	77	9.6	0
9681	2011-03-07T08:00:00	84	5.20	15.75	1052.19	ND	ND	0.3	48.4	21.8	76.9	87.2	0
9682	2011-03-07T09:00:00	99	8.14	33.39	2425.27	ND	ND	0.6	95.9	23.4	68.6	353	0
9683	2011-03-07T10:00:00	72	19.31	61.86	3577.89	ND	ND	1.3	111.8	25.3	62.6	386.8	0
9684	2011-03-07T11:00:00	46	39.45	65.18	2431.13	ND	ND	1.5	129.8	26.1	60	541.8	0
9685	2011-03-07T12:00:00	42	25.83	66.39	1805.24	ND	ND	1.5	121.1	27.3	54.2	682.4	0
9686	2011-03-07T13:00:00	23	33.72	63.15	1754.76	ND	ND	1.1	63.8	29	47.8	866.2	0
9687	2011-03-07T14:00:00	28	18.27	54.80	1683.43	ND	ND	1	61.9	29.3	46.6	536.6	0
9688	2011-03-07T15:00:00	24	15.12	50.82	1615.37	ND	ND	1.8	312.2	29.3	46.3	504.8	0
9689	2011-03-07T16:00:00	25	14.51	42.57	1580.51	ND	ND	2.9	292.8	29.5	44.1	375.1	0
9690	2011-03-07T17:00:00	14	13.17	28.70	1453.63	ND	ND	3.3	284.4	28.4	45.6	184.9	0
9691	2011-03-07T18:00:00	9	7.00	22.27	1448.35	ND	ND	2.2	283.7	27.4	48.4	49	0
9692	2011-03-07T19:00:00	6	4.75	24.47	1478.19	ND	ND	2.8	270.1	26.3	52.2	1.3	0
9693	2011-03-07T20:00:00	16	5.21	34.22	1461.27	ND	ND	3.5	263.5	25.7	55.8	0	0
9694	2011-03-07T21:00:00	10	5.59	40.78	1596.13	ND	ND	1.8	288	25.6	56.2	0	0
9695	2011-03-07T22:00:00	12	4.96	36.59	1423.41	ND	ND	1	208.5	24.9	60.9	0	0
9696	2011-03-07T23:00:00	7	4.58	37.66	1225.39	ND	ND	2.4	247.4	24.8	59.4	0	0
9697	2011-03-08T00:00:00	5	7.41	36.85	1888.98	ND	ND	1.6	249.9	24.2	61.3	0	0
9698	2011-03-08T01:00:00	4	3.76	10.65	811.20	ND	ND	1.3	268.7	23.5	65.3	0	0
9699	2011-03-08T02:00:00	12	2.97	7.63	1060.05	ND	ND	0.3	224.4	22.9	70.2	0	0
9700	2011-03-08T03:00:00	14	2.65	10.14	978.28	ND	ND	0.3	219.3	22.5	70.2	0	0
9701	2011-03-08T04:00:00	11	4.05	35.04	1181.44	ND	ND	0.5	285.4	22.3	69.3	0	0
9702	2011-03-08T05:00:00	7	3.19	23.65	1044.41	ND	ND	0.7	8.6	22	72.6	0	0
9703	2011-03-08T06:00:00	33	4.20	23.01	1020.67	ND	ND	0.2	189.7	21.5	78.8	0	0
9704	2011-03-08T07:00:00	22	6.78	28.63	1301.98	ND	ND	0.5	238.4	21.4	72.1	11.7	0
9705	2011-03-08T08:00:00	43	13.46	31.58	1584.47	ND	ND	1.2	246.5	22.2	64.6	100.2	0
9706	2011-03-08T09:00:00	41	12.04	37.03	1679.57	ND	ND	0.6	76.4	23.5	65.8	151.8	0
9707	2011-03-08T10:00:00	77	13.82	50.03	2359.47	ND	ND	1.2	73.2	24.3	67.8	342.8	0
9708	2011-03-08T11:00:00	46	28.39	88.14	2651.57	ND	ND	1	117.6	26.8	57.5	779.7	0
9709	2011-03-08T12:00:00	65	30.63	96.10	2408.78	ND	ND	1	87.1	28.4	50.8	782.4	0
9710	2011-03-08T13:00:00	44	22.76	51.76	1691.67	ND	ND	1.3	319.8	28.3	50	348	0
9711	2011-03-08T14:00:00	59	16.32	61.58	1830.10	ND	ND	2.3	16.8	28.9	50.6	548.5	0
9712	2011-03-08T15:00:00	32	12.87	45.91	1497.17	ND	ND	3.7	286.7	28.4	50.1	418.2	0
9713	2011-03-08T16:00:00	36	31.99	57.66	1483.11	ND	ND	5.1	276.3	26.4	55.2	101.2	0
9714	2011-03-08T17:00:00	20	13.69	20.29	1231.56	ND	ND	2.1	272	26.1	56.5	31.2	0.25
9715	2011-03-08T18:00:00	24	8.42	21.68	1253.32	ND	ND	3.5	264.3	25	61.7	9.7	0
9716	2011-03-08T19:00:00	13	7.81	36.01	1546.57	ND	ND	3.1	255.8	24.8	61.2	0	0
9717	2011-03-08T20:00:00	33	6.70	31.39	1511.19	ND	ND	1.2	181.1	22.7	78.2	0	8.38
9718	2011-03-08T21:00:00	38	4.94	30.91	1409.59	ND	ND	0.3	243.6	23	77	0	0
9719	2011-03-08T22:00:00	23	6.56	72.77	3015.48	ND	ND	0.9	304.7	23.4	70.6	0	0
9720	2011-03-08T23:00:00	14	7.79	72.67	3612.08	ND	ND	0.2	104.2	23	73.5	0	0
9721	2011-03-09T00:00:00	29	3.85	29.48	1354.12	ND	ND	0.6	51.9	21.9	83.1	0	0
9722	2011-03-09T01:00:00	18	3.79	34.85	1575.83	ND	ND	0.4	126.1	22	80.5	0	0
9723	2011-03-09T02:00:00	43	3.42	42.64	1735.13	ND	ND	0.9	10.3	21.7	82.1	0	0
9724	2011-03-09T03:00:00	38	2.69	41.55	1144.25	ND	ND	0.4	42.3	21.4	84.5	0	0
9725	2011-03-09T04:00:00	33	4.69	35.33	1380.76	ND	ND	0.9	162.6	21.3	84.8	0	0
9726	2011-03-09T05:00:00	18	12.11	37.20	1210.58	ND	ND	1.2	143.2	21	86.9	0	0
9727	2011-03-09T06:00:00	30	9.46	18.67	858.97	ND	ND	1.5	176.5	20.9	87.7	0	0
9728	2011-03-09T07:00:00	17	5.87	18.67	903.88	ND	ND	1.8	163.2	20.6	83.5	4.3	0
9729	2011-03-09T08:00:00	36	4.60	22.75	1094.83	ND	ND	1.9	175.1	20.4	82.9	26.7	0
9730	2011-03-09T09:00:00	20	6.35	48.57	1815.96	ND	ND	2.7	179	20.3	81.4	91.4	0
9731	2011-03-09T10:00:00	20	6.78	64.19	2435.48	ND	ND	0.8	132.2	20.3	82.9	111.9	0.76
9732	2011-03-09T11:00:00	12	6.42	50.92	1713.86	ND	ND	0.9	157	20.7	82	253	0
9733	2011-03-09T12:00:00	7	5.78	58.62	1772.65	ND	ND	1.6	107.6	21.5	80.3	280.7	0
9734	2011-03-09T13:00:00	5	6.27	60.77	1902.02	ND	ND	1	102.6	21	85.2	292.6	0
9735	2011-03-09T14:00:00	4	6.41	77.60	2283.06	ND	ND	1	150.4	22.9	72.7	559.2	0.25
9736	2011-03-09T15:00:00	2	4.92	46.08	1876.93	ND	ND	1.4	147.3	24.5	64.5	529.4	0
9737	2011-03-09T16:00:00	8	3.95	37.64	1429.61	ND	ND	1.2	97.8	24	65.9	162	0
9738	2011-03-09T17:00:00	25	4.28	43.36	1712.64	ND	ND	1.7	353.3	22.3	76	85.7	0
9739	2011-03-09T18:00:00	95	6.05	57.50	1850.42	ND	ND	ND	ND	ND	ND	ND	ND
9740	2011-03-09T19:00:00	73	ND	ND	ND	ND	ND	0.8	48.5	22.4	74.9	0.7	0
9741	2011-03-09T20:00:00	62	ND	ND	ND	ND	ND	0.4	66.8	22.1	74.9	0	0
9742	2011-03-09T21:00:00	35	10.92	98.03	2972.28	ND	ND	1	241.1	21.9	76.4	0	0
9743	2011-03-09T22:00:00	38	18.54	85.81	2550.80	ND	ND	0.1	336.4	21.7	75.3	0	0
9744	2011-03-09T23:00:00	21	10.60	50.98	1552.10	ND	ND	0.3	94.7	21.1	80.2	0	0
9745	2011-03-10T00:00:00	39	5.17	48.59	1582.86	ND	ND	0.7	259.9	21.2	77.8	0	0
9746	2011-03-10T01:00:00	25	10.24	62.18	1492.92	ND	ND	0.6	279.4	21	79.2	0	0
9747	2011-03-10T02:00:00	38	17.27	53.05	1265.86	ND	ND	0.8	254.7	20.8	76.5	0	0
9748	2011-03-10T03:00:00	20	11.11	40.11	1423.12	ND	ND	0.9	209.4	20.8	75.3	0	0
9749	2011-03-10T04:00:00	20	7.78	25.59	993.93	ND	ND	1.4	181.5	20	86.6	0	0
9750	2011-03-10T05:00:00	12	4.74	12.22	765.94	ND	ND	1	180.9	19.9	88.7	0	0.76
9751	2011-03-10T06:00:00	15	1.55	24.75	968.36	ND	ND	1	158.5	19	93.8	0	1.27
9752	2011-03-10T07:00:00	8	0.31	20.01	830.68	ND	ND	0.5	174.9	19	94	1	2.29
9753	2011-03-10T08:00:00	20	ND	31.06	1010.29	ND	ND	0.1	6	19.3	93.5	11.9	1.78
9754	2011-03-10T09:00:00	14	0.67	35.78	1932.75	ND	ND	0.9	24.2	19.3	92.9	56.1	5.08
9755	2011-03-10T10:00:00	17	2.57	44.91	3303.66	ND	ND	0.1	204.8	20.3	87.6	206.4	0.25
9756	2011-03-10T11:00:00	14	2.35	59.21	2345.28	ND	ND	2.2	36.4	20.1	87.7	92.4	0.25
9757	2011-03-10T12:00:00	31	4.54	72.41	1994.38	ND	ND	1.2	340.8	19.4	91.6	107.6	7.62
9758	2011-03-10T13:00:00	17	4.58	54.37	1427.58	ND	ND	0.6	199	20.9	81	410.4	0.51
9759	2011-03-10T14:00:00	10	9.72	67.47	1480.10	ND	ND	0.9	148.2	22.5	72.9	321.4	0
9760	2011-03-10T15:00:00	17	14.94	64.00	1669.91	ND	ND	0.9	158	22.7	71.3	265.7	0
9761	2011-03-10T16:00:00	26	8.87	81.78	1705.15	ND	ND	0.7	121.2	23.7	64.9	291.8	0
9762	2011-03-10T17:00:00	34	9.86	78.74	1425.76	ND	ND	1.3	204.1	22.8	69.7	53.1	0
9763	2011-03-10T18:00:00	35	12.80	68.46	1455.55	ND	ND	1.7	209.1	20.5	82.9	32.1	0.25
9764	2011-03-10T19:00:00	20	11.20	72.07	1387.82	ND	ND	0.9	206.3	21.1	78.4	0.5	0
9765	2011-03-10T20:00:00	47	3.96	80.71	1865.51	ND	ND	0.6	213.9	20.9	81.7	0	0
9766	2011-03-10T21:00:00	25	4.39	88.47	2451.77	ND	ND	0.9	266.3	20.7	81.3	0	0
9767	2011-03-10T22:00:00	33	6.95	84.42	3658.21	ND	ND	1.1	258.1	20.4	79.7	0	0
9768	2011-03-10T23:00:00	18	2.01	51.03	2064.10	ND	ND	1.2	276.5	20.3	78.8	0	0
9769	2011-03-11T00:00:00	25	1.11	38.28	1680.03	ND	ND	0.6	213.8	19.8	79.8	0	0
9770	2011-03-11T01:00:00	23	ND	31.74	1170.64	ND	ND	0.8	220.8	18.9	86.5	0	0
9771	2011-03-11T02:00:00	15	ND	27.36	1234.37	ND	ND	0.7	251.1	19	77.8	0	0
9772	2011-03-11T03:00:00	9	ND	33.42	1212.34	ND	ND	0.4	326.5	18.9	86	0	0
9773	2011-03-11T04:00:00	29	ND	8.76	460.08	ND	ND	0.6	233.4	18.8	83.8	0	0
9774	2011-03-11T05:00:00	16	0.10	34.78	1592.92	ND	ND	0.2	345.3	19	80.8	0	0
9775	2011-03-11T06:00:00	38	ND	25.76	1010.29	ND	ND	0.3	102.1	18.6	88.9	0	0
9776	2011-03-11T07:00:00	41	ND	19.41	784.70	ND	ND	0.2	226.1	18.1	92.3	16.9	0
9777	2011-03-11T08:00:00	64	1.41	29.36	1846.48	ND	ND	0.1	220.2	19.8	77	143.6	0
9778	2011-03-11T09:00:00	87	1.62	30.03	2510.13	ND	ND	0.9	75.6	21.4	75.5	321.3	0
9779	2011-03-11T10:00:00	92	5.00	58.67	2886.01	ND	ND	0.8	150	23.4	66	560.1	0
9780	2011-03-11T11:00:00	56	10.14	145.22	3350.00	ND	ND	0.8	135	25.3	57.9	754.1	0
9781	2011-03-11T12:00:00	57	15.03	90.91	1811.88	ND	ND	0.7	142.4	27	49.1	881.4	0
9782	2011-03-11T13:00:00	29	6.75	63.86	1533.88	ND	ND	1	126.9	28.2	44.7	909.6	0
9783	2011-03-11T14:00:00	17	3.23	49.76	1238.96	ND	ND	1	96.3	28.8	41.9	648.2	0
9784	2011-03-11T15:00:00	9	2.71	40.71	812.15	ND	ND	0.9	203.3	28.4	42.5	209.9	0
9785	2011-03-11T16:00:00	17	1.40	51.07	1019.64	ND	ND	0.9	214.3	28.6	44.9	402.3	0
9786	2011-03-11T17:00:00	8	2.57	44.53	927.56	ND	ND	2.8	289.1	28.6	44.7	324.8	0
9787	2011-03-11T18:00:00	4	1.14	51.37	1066.69	ND	ND	3.7	277.6	27.2	48.3	167	0
9788	2011-03-11T19:00:00	4	0.29	22.09	934.79	ND	ND	3.1	277.8	25.4	53.9	1.9	0
9789	2011-03-11T20:00:00	11	ND	20.63	963.60	ND	ND	4	273.2	24.6	56.8	0	0
9790	2011-03-11T21:00:00	8	0.08	31.94	1235.60	ND	ND	4	276	24.2	57.8	0	0
9791	2011-03-11T22:00:00	5	ND	23.07	834.05	ND	ND	4	269.4	23.6	59.9	0	0
9792	2011-03-11T23:00:00	3	ND	11.45	513.10	ND	ND	2.9	268	22.9	63.4	0	0
9793	2011-03-12T00:00:00	18	ND	7.82	466.39	ND	ND	0.7	13.1	21.5	73.5	0	0
9794	2011-03-12T01:00:00	10	ND	13.40	758.54	ND	ND	0.9	237.4	21.5	71.5	0	0
9795	2011-03-12T02:00:00	10	1.29	36.97	1301.98	ND	ND	0.7	342.2	21.8	70.4	0	0
9796	2011-03-12T03:00:00	17	1.30	26.63	1053.97	ND	ND	0.7	77.2	20.9	77.6	0	0
9797	2011-03-12T04:00:00	32	1.81	24.46	1005.56	ND	ND	0.8	134.4	20.8	78.4	0	0
9798	2011-03-12T05:00:00	17	1.24	23.62	914.86	ND	ND	0.8	146.4	20.5	80.1	0	0
9799	2011-03-12T06:00:00	11	0.41	20.59	778.53	ND	ND	0.7	138.2	20.4	81.2	0	0
9800	2011-03-12T07:00:00	7	0.36	17.76	733.15	ND	ND	1.4	193.5	20.3	81.8	11.2	0
9801	2011-03-12T08:00:00	36	0.98	24.40	439.74	ND	ND	0.6	214.3	20.9	78.6	115.8	0
9802	2011-03-12T09:00:00	20	1.60	23.74	892.58	ND	ND	0.9	100.9	23	68.9	401.4	0
9803	2011-03-12T10:00:00	34	4.03	24.96	1331.36	ND	ND	1.4	85.3	24.8	60.6	614.1	0
9804	2011-03-12T11:00:00	27	11.63	53.42	1694.36	ND	ND	1.4	85.8	25.6	57.6	533.1	0
9805	2011-03-12T12:00:00	39	16.88	67.77	1618.56	ND	ND	1.1	62.5	27.1	49.8	745.6	0
9806	2011-03-12T13:00:00	21	13.88	63.35	1453.64	ND	ND	1.4	51.5	27.6	48.3	538.6	0
9807	2011-03-12T14:00:00	24	27.14	48.10	1074.71	ND	ND	1.2	33.2	28.3	46.9	475.7	0
9808	2011-03-12T15:00:00	13	19.53	44.31	1146.71	ND	ND	0.6	339.2	28.5	45.7	430.4	0
9809	2011-03-12T16:00:00	10	11.53	39.85	1274.97	ND	ND	1.7	286.3	28.3	46	236.8	0
9810	2011-03-12T17:00:00	5	14.76	32.30	938.22	ND	ND	3.2	277.3	27.4	49.4	193	0
9811	2011-03-12T18:00:00	3	8.27	14.71	762.19	ND	ND	2.7	282.2	26.5	51.1	74.7	0
9812	2011-03-12T19:00:00	2	2.21	17.94	932.61	ND	ND	4.2	272	25.3	55.3	3	0
9813	2011-03-12T20:00:00	15	1.60	23.23	1399.05	ND	ND	4.5	272.4	24.8	56.7	0	0
9814	2011-03-12T21:00:00	9	0.60	17.86	1316.56	ND	ND	4.2	270.5	24.5	57.4	0	0
9815	2011-03-12T22:00:00	5	0.16	16.73	1155.12	ND	ND	2.9	280.4	24.4	57.4	0	0
9816	2011-03-12T23:00:00	17	ND	11.86	1097.57	ND	ND	1.3	315.8	24.1	59.3	0	0
9817	2011-03-13T00:00:00	12	ND	16.94	868.03	ND	ND	1.8	252.9	23.4	62	0	0
9818	2011-03-13T01:00:00	6	1.69	33.53	1162.25	ND	ND	0.9	275.1	22.9	63.8	0	0
9819	2011-03-13T02:00:00	4	ND	13.22	682.52	ND	ND	0.5	5.6	21.8	72	0	0
9820	2011-03-13T03:00:00	23	ND	19.38	1076.64	ND	ND	0.6	143.5	21.2	78	0	0
9821	2011-03-13T04:00:00	37	5.74	37.04	1922.70	ND	ND	0.6	47	21	79.8	0	0
9822	2011-03-13T05:00:00	37	4.08	32.83	1480.60	ND	ND	0.2	28.9	20.7	81	0	0
9823	2011-03-13T06:00:00	36	2.89	27.10	1208.11	ND	ND	0.1	218.1	20.4	81.9	0	0
9824	2011-03-13T07:00:00	35	4.21	27.41	1184.32	ND	ND	0.4	351.5	20.4	80.3	10.4	0
9825	2011-03-13T08:00:00	46	3.74	24.55	1218.16	ND	ND	0.3	71.5	21.3	77.3	128.5	0
9826	2011-03-13T09:00:00	31	5.18	34.49	1640.51	ND	ND	0.5	102.9	23.7	68.1	380.1	0
9827	2011-03-13T10:00:00	48	8.40	50.84	1779.35	ND	ND	0.9	97.7	25	61.4	471.1	0
9828	2011-03-13T11:00:00	25	15.54	66.69	1363.27	ND	ND	0.2	90.1	26.1	54.8	643.9	0
9829	2011-03-13T12:00:00	27	9.89	41.12	965.86	ND	ND	0.2	172.8	26.4	54.5	259.9	0
9830	2011-03-13T13:00:00	15	14.93	33.93	1001.36	ND	ND	0.3	140.4	27	52.1	404.1	0
9831	2011-03-13T14:00:00	28	10.10	28.33	911.10	ND	ND	1.5	154.4	28.6	48.9	634.9	0
9832	2011-03-13T15:00:00	15	11.14	29.60	939.15	ND	ND	2.1	175.3	28.8	48.5	648.6	0
9833	2011-03-13T16:00:00	19	9.74	35.19	1183.42	ND	ND	0.5	26.1	29	46.6	272.3	0
9834	2011-03-13T17:00:00	10	5.95	24.89	928.79	ND	ND	3.5	283.3	28.5	45	380.8	0
9835	2011-03-13T18:00:00	7	8.01	20.94	857.71	ND	ND	4.2	282.3	27	47.2	162.8	0
9836	2011-03-13T19:00:00	3	4.01	7.77	680.44	ND	ND	4	268.8	25.6	50.4	10.7	0
9837	2011-03-13T20:00:00	2	0.42	1.98	551.00	ND	ND	3.9	269.8	25	51.6	0	0
9838	2011-03-13T21:00:00	3	0.29	5.65	607.17	ND	ND	1.8	295	24.7	51.6	0	0
9839	2011-03-13T22:00:00	6	ND	8.75	652.34	ND	ND	0.9	276.4	24.5	54.5	0	0
9840	2011-03-13T23:00:00	5	0.81	23.20	823.45	ND	ND	1.7	270.8	24.4	55.7	0	0
9841	2011-03-14T00:00:00	18	2.75	28.44	1051.84	ND	ND	0.5	323.5	23.3	62.8	0	0
9842	2011-03-14T01:00:00	11	ND	6.48	512.58	ND	ND	0.4	88.8	21.9	70.3	0	0
9843	2011-03-14T02:00:00	39	1.87	19.68	816.26	ND	ND	0.6	127.5	21.6	71.7	0	0
9844	2011-03-14T03:00:00	21	3.32	28.08	962.66	ND	ND	1	190.8	21.3	74.1	0	0
9845	2011-03-14T04:00:00	26	1.76	20.01	599.63	ND	ND	0.6	172.2	21	75.9	0	0
9846	2011-03-14T05:00:00	14	2.04	13.64	1254.56	ND	ND	0.4	65.4	20.8	73.3	0	0
9847	2011-03-14T06:00:00	9	2.69	14.41	1231.11	ND	ND	0.3	26.8	20.8	73.2	0	0
9848	2011-03-14T07:00:00	6	2.07	11.90	1287.59	ND	ND	1.1	251.1	20.7	70.7	27.9	0
9849	2011-03-14T08:00:00	18	3.33	27.77	1535.54	ND	ND	0.3	272	22.4	65.2	178.1	0
9850	2011-03-14T09:00:00	11	4.42	26.49	1340.02	ND	ND	1.1	146.6	24.3	59.4	382.1	0
9851	2011-03-14T10:00:00	31	7.48	53.59	2057.25	ND	ND	1.4	152.2	25.1	57.9	588.8	0
9852	2011-03-14T11:00:00	25	9.83	75.72	1971.11	ND	ND	1	92.3	26.5	52.5	776.3	0
9853	2011-03-14T12:00:00	33	12.48	43.56	955.64	ND	ND	1.2	98.5	28.1	47.6	854.5	0
9854	2011-03-14T13:00:00	26	10.91	43.18	949.17	ND	ND	1	88.7	29.6	43.5	880.9	0
9855	2011-03-14T14:00:00	46	9.23	49.40	1116.76	ND	ND	1.1	71.9	29.7	42.9	582	0
9856	2011-03-14T15:00:00	46	8.92	57.89	1117.13	ND	ND	0.8	275.3	30.1	40.8	410.2	0
9857	2011-03-14T16:00:00	29	9.89	39.90	1083.65	ND	ND	4.5	279.6	30.2	40.3	600.3	0
9858	2011-03-14T17:00:00	16	8.96	39.32	1118.97	ND	ND	4.5	280.4	28.9	45.5	346.2	0
9859	2011-03-14T18:00:00	9	1.99	13.01	858.84	ND	ND	4.9	279.9	27.4	49.4	129.3	0
9860	2011-03-14T19:00:00	5	2.11	14.24	588.97	ND	ND	5.4	276	25.8	54.4	2	0
9861	2011-03-14T20:00:00	9	1.97	15.60	666.24	ND	ND	4.7	274.6	25.2	56.1	0	0
9862	2011-03-14T21:00:00	6	1.70	15.59	825.39	ND	ND	2.7	287.4	25.1	57	0	0
9863	2011-03-14T22:00:00	7	1.02	18.33	756.35	ND	ND	2.9	271	24.6	59.3	0	0
9864	2011-03-14T23:00:00	4	1.02	18.53	697.88	ND	ND	3.5	281	24.2	59	0	0
9865	2011-03-15T00:00:00	2	0.44	13.04	594.12	ND	ND	2.5	291.5	24.1	58.2	0	0
9866	2011-03-15T01:00:00	3	ND	3.06	525.39	ND	ND	2.2	279.4	23.6	59.6	0	0
9867	2011-03-15T02:00:00	4	ND	3.22	433.29	ND	ND	2	270	23.6	56.7	0	0
9868	2011-03-15T03:00:00	4	ND	6.49	513.10	ND	ND	0.7	338.3	22.3	67.9	0	0
9869	2011-03-15T04:00:00	19	ND	ND	408.68	ND	ND	1.1	172.3	21.5	74.8	0	0
9870	2011-03-15T05:00:00	18	1.01	15.47	588.72	ND	ND	1.8	178.4	20.9	81.7	0	0
9871	2011-03-15T06:00:00	29	2.79	18.07	1231.53	ND	ND	2	187	20.4	85.5	0	0
9872	2011-03-15T07:00:00	25	2.89	17.51	1218.16	ND	ND	1.6	189.2	20.5	84.2	22.9	0
9873	2011-03-15T08:00:00	26	1.94	20.37	1004.19	ND	ND	1.8	184.8	21.4	78.3	164.7	0
9874	2011-03-15T09:00:00	28	2.72	25.34	1426.03	ND	ND	1.5	170.9	23.2	69.4	402.2	0
9875	2011-03-15T10:00:00	29	8.91	38.40	1673.87	ND	ND	0.9	153.1	25.2	59.6	608.5	0
9876	2011-03-15T11:00:00	25	11.80	48.89	1524.68	ND	ND	0.7	136.6	26.5	53.6	659.9	0
9877	2011-03-15T12:00:00	32	10.01	33.56	1070.78	ND	ND	1.5	111.8	28.1	48.5	799.2	0
9878	2011-03-15T13:00:00	20	8.29	32.41	1064.92	ND	ND	1.2	118.3	28.8	45.6	699.4	0
9879	2011-03-15T14:00:00	36	8.49	55.13	1403.86	ND	ND	0.7	71.9	28.4	45.4	319.5	0
9880	2011-03-15T15:00:00	36	6.12	44.08	1205.03	ND	ND	3.1	301.4	29	44	528	0
9881	2011-03-15T16:00:00	19	5.95	44.61	1230.64	ND	ND	4.2	278.3	29.2	43.6	542.5	0
9882	2011-03-15T17:00:00	11	3.16	23.42	906.17	ND	ND	4	280.7	28.4	45.8	326	0
9883	2011-03-15T18:00:00	21	2.12	14.53	648.86	ND	ND	3.9	275.3	27.1	49.8	111.5	0
9884	2011-03-15T19:00:00	28	2.24	20.01	830.65	ND	ND	4.9	268.3	25.7	54	0.5	0
9885	2011-03-15T20:00:00	37	2.00	25.39	895.67	ND	ND	4.4	266.7	25.4	55.4	0	0
9886	2011-03-15T21:00:00	20	1.26	22.12	894.77	ND	ND	3.2	254.9	25	57.7	0	0
9887	2011-03-15T22:00:00	16	1.05	20.57	721.73	ND	ND	2.2	230.7	24.7	59.3	0	0
9888	2011-03-15T23:00:00	9	0.26	15.47	755.34	ND	ND	0.8	272.7	24.4	59.6	0	0
9889	2011-03-16T00:00:00	15	ND	16.77	731.71	ND	ND	0.5	115.4	23.7	64	0	0
9890	2011-03-16T01:00:00	9	1.20	26.63	775.61	ND	ND	1.2	219.6	23.6	63.5	0	0
9891	2011-03-16T02:00:00	7	7.54	45.93	1163.03	ND	ND	1	177.3	22	73.3	0	0
9892	2011-03-16T03:00:00	5	4.18	11.65	544.36	ND	ND	1.3	198.5	21.8	74.4	0	0
9893	2011-03-16T04:00:00	16	2.26	22.17	543.99	ND	ND	1.2	200.4	21.8	76.6	0	0
9894	2011-03-16T05:00:00	15	3.08	12.91	509.99	ND	ND	0.8	231.3	21.9	74.6	0	0
9895	2011-03-16T06:00:00	32	2.96	9.56	498.82	ND	ND	0.7	138.2	21.9	75.5	0	0
9896	2011-03-16T07:00:00	44	2.90	12.60	430.80	ND	ND	0.7	153.6	21.8	76.5	25	0
9897	2011-03-16T08:00:00	70	2.98	28.54	963.31	ND	ND	0.8	119.2	22.2	74.8	55.1	0
9898	2011-03-16T09:00:00	56	4.96	36.33	1838.45	ND	ND	0.6	90.5	22.5	72.6	133.3	0
9899	2011-03-16T10:00:00	73	10.13	49.32	2760.47	ND	ND	1.3	28.1	24.4	65.3	384.6	0
9900	2011-03-16T11:00:00	63	12.45	53.65	1852.15	ND	ND	1.4	72.5	26.3	56.2	748.4	0
9901	2011-03-16T12:00:00	51	33.26	84.05	1679.88	ND	ND	0.8	57.7	27.4	51.8	440.4	0
9902	2011-03-16T13:00:00	28	67.22	59.86	1177.93	ND	ND	1.1	320	28.3	48	665.7	0
9903	2011-03-16T14:00:00	25	40.61	53.95	1111.96	ND	ND	0.8	280.8	29.1	45.3	434.2	0
9904	2011-03-16T15:00:00	14	40.24	42.18	894.25	ND	ND	0.9	4.5	29.5	44.2	434.3	0
9905	2011-03-16T16:00:00	32	25.67	34.80	930.33	ND	ND	1.9	290.8	29.4	44.6	263.1	0
9906	2011-03-16T17:00:00	18	20.10	46.56	1116.02	ND	ND	4.3	277.2	28.5	47.2	345.2	0
9907	2011-03-16T18:00:00	39	7.24	26.73	938.84	ND	ND	3.6	281.1	27.2	50.2	120.8	0
9908	2011-03-16T19:00:00	25	4.22	24.38	1027.12	ND	ND	4	272.5	26	52.8	1.5	0
9909	2011-03-16T20:00:00	31	3.00	30.08	1011.52	ND	ND	4.2	274.5	25.6	54.5	0	0
9910	2011-03-16T21:00:00	17	2.70	28.50	1033.12	ND	ND	3.1	282.2	25	57.7	0	0
9911	2011-03-16T22:00:00	14	1.86	29.53	767.56	ND	ND	2.2	258.3	24.7	59	0	0
9912	2011-03-16T23:00:00	8	1.54	21.49	743.90	ND	ND	2.1	267.7	24.2	61.1	0	0
9913	2011-03-17T00:00:00	17	0.89	20.74	776.92	ND	ND	0.7	30.4	22.7	69.8	0	0
9914	2011-03-17T01:00:00	14	0.65	15.25	613.85	ND	ND	0.8	179.5	22.7	69.8	0	0
9915	2011-03-17T02:00:00	20	6.45	43.75	954.88	ND	ND	1.5	181	23.3	67.2	0	0
9916	2011-03-17T03:00:00	23	7.09	39.42	888.48	ND	ND	1.4	150.2	21.8	77.4	0	0
9917	2011-03-17T04:00:00	34	4.43	15.39	543.99	ND	ND	0.5	155.2	21.3	78.6	0	0
9918	2011-03-17T05:00:00	24	4.63	17.43	543.06	ND	ND	0.5	154.8	21.5	78.1	0	0
9919	2011-03-17T06:00:00	38	4.27	17.68	577.40	ND	ND	0.4	197	21.8	76.8	0	0
9920	2011-03-17T07:00:00	38	4.61	21.86	702.65	ND	ND	0.3	102.2	22.2	75.6	6	0
9921	2011-03-17T08:00:00	86	5.50	27.41	817.09	ND	ND	0.3	136.6	22.6	74.1	83.2	0
9922	2011-03-17T09:00:00	67	8.99	40.41	2284.13	ND	ND	0.9	133.3	23.3	70.7	217.1	0
9923	2011-03-17T10:00:00	74	12.32	57.90	3223.57	ND	ND	0.7	107.5	25.5	62.4	522.7	0
9924	2011-03-17T11:00:00	43	17.87	71.95	2054.08	ND	ND	1.8	136.2	26.1	60.3	442.2	0
9925	2011-03-17T12:00:00	61	20.22	96.84	1793.74	ND	ND	0.6	116.5	26.5	58.4	412.4	0
9926	2011-03-17T13:00:00	47	17.85	83.74	1715.55	ND	ND	0.8	162	26.7	57.8	246.4	0
9927	2011-03-17T14:00:00	62	14.76	53.79	1221.27	ND	ND	0.7	48.9	27.2	55.4	305.9	0
9928	2011-03-17T15:00:00	33	12.91	64.17	1477.20	ND	ND	1.8	308	27.9	50.6	373.3	0
9929	2011-03-17T16:00:00	23	11.01	62.13	1376.54	ND	ND	2.8	301.8	28	48.1	408.5	0
9930	2011-03-17T17:00:00	13	7.36	36.62	1018.28	ND	ND	3.6	279.9	27.9	48.7	318.3	0
9931	2011-03-17T18:00:00	29	3.23	19.70	936.97	ND	ND	3.4	275.7	26.9	51.7	120.1	0
9932	2011-03-17T19:00:00	15	3.32	23.56	945.39	ND	ND	2	256.3	26	54.6	2.5	0
9933	2011-03-17T20:00:00	32	2.94	27.93	1034.51	ND	ND	1.9	177.8	24.3	68.3	0	0
9934	2011-03-17T21:00:00	24	3.08	44.12	1268.64	ND	ND	1.8	213.6	24.1	66.2	0	0
9935	2011-03-17T22:00:00	26	3.34	70.98	1633.27	ND	ND	1.9	223.5	24.2	63.7	0	0
9936	2011-03-17T23:00:00	14	4.47	54.91	1096.83	ND	ND	1.3	257.5	23.8	64.1	0	0
9937	2011-03-18T00:00:00	12	2.84	24.78	696.01	ND	ND	0.6	318.2	23.4	66.8	0	0
9938	2011-03-18T01:00:00	21	2.29	28.74	843.20	ND	ND	0.3	93.5	22.5	76.2	0	0
9939	2011-03-18T02:00:00	58	8.91	36.81	920.16	ND	ND	0.7	356	22.2	76.8	0	0
9940	2011-03-18T03:00:00	55	11.84	59.33	1497.99	ND	ND	0.7	45.5	22.1	76.5	0	0
9941	2011-03-18T04:00:00	68	16.81	54.44	1259.25	ND	ND	0.6	18	22.1	76.5	0	0
9942	2011-03-18T05:00:00	54	31.66	52.47	1168.49	ND	ND	0.5	68.3	22	77.8	0	0
9943	2011-03-18T06:00:00	47	40.26	48.89	1088.71	ND	ND	0.6	165.5	21.6	84.6	0	0
9944	2011-03-18T07:00:00	31	42.33	48.63	1087.24	ND	ND	0.4	359.3	22	82.4	6.6	0
9945	2011-03-18T08:00:00	72	20.39	30.26	1156.76	ND	ND	0.4	84.4	22.5	80.2	59.5	0
9946	2011-03-18T09:00:00	101	13.36	39.46	1703.99	ND	ND	1.2	58.1	22.9	78.5	156.1	0
9947	2011-03-18T10:00:00	119	19.88	61.49	2741.46	ND	ND	0.9	31.3	25	66.5	468.7	0
9948	2011-03-18T11:00:00	68	18.60	85.58	2715.09	ND	ND	1.3	61	26.7	58.5	556.3	0
9949	2011-03-18T12:00:00	74	36.47	85.33	1762.78	ND	ND	0.9	60.8	27.6	53.9	499.8	0
9950	2011-03-18T13:00:00	58	32.83	66.80	1467.62	ND	ND	1.7	355.8	28.4	50.7	428	0
9951	2011-03-18T14:00:00	53	36.84	59.47	1170.26	ND	ND	0.8	342.7	29.2	48	496.7	0
9952	2011-03-18T15:00:00	28	38.50	52.85	1184.99	ND	ND	1.4	266.6	29.2	46.7	337.9	0
9953	2011-03-18T16:00:00	42	30.61	37.97	975.87	ND	ND	2.3	299.4	28.2	50.3	89	0
9954	2011-03-18T17:00:00	22	12.08	24.31	1007.38	ND	ND	3.6	279	26.8	52.7	65.4	0
9955	2011-03-18T18:00:00	12	8.59	32.51	1083.38	ND	ND	2.4	276.7	26.5	51.9	37.3	0
9956	2011-03-18T19:00:00	12	7.40	32.07	875.04	ND	ND	2.8	273.7	25.9	55	0.8	0
9957	2011-03-18T20:00:00	20	5.89	38.37	988.20	ND	ND	2	286	25.5	57.1	0	0
9958	2011-03-18T21:00:00	24	4.75	36.98	1859.00	ND	ND	1.6	198.4	24.3	67.3	0	0
9959	2011-03-18T22:00:00	36	3.66	40.14	1885.81	ND	ND	1.4	186	23.1	74.7	0	0
9960	2011-03-18T23:00:00	28	3.02	53.07	2117.24	ND	ND	0.6	226.2	23	72.2	0	0
9961	2011-03-19T00:00:00	32	2.52	65.01	2139.29	ND	ND	0.9	16.9	22.9	72.2	0	0
9962	2011-03-19T01:00:00	39	2.84	71.33	2377.45	ND	ND	0.3	49.7	22.4	75.3	0	0
9963	2011-03-19T02:00:00	64	6.00	74.90	2861.74	ND	ND	0.9	48.8	21.6	83.2	0	0
9964	2011-03-19T03:00:00	39	13.81	64.13	1947.96	ND	ND	0.2	214.5	21.7	80.7	0	0
9965	2011-03-19T04:00:00	33	11.30	55.82	1778.69	ND	ND	0.9	237.3	22	71.3	0	0
9966	2011-03-19T05:00:00	18	9.08	47.84	1213.46	ND	ND	0.5	184.7	22.1	74.9	0	0
9967	2011-03-19T06:00:00	39	10.04	12.53	544.54	ND	ND	0.3	119.6	21.5	84.1	0	0
9968	2011-03-19T07:00:00	21	6.27	29.76	894.40	ND	ND	0.4	243.3	21.8	80.5	11.5	0
9969	2011-03-19T08:00:00	39	4.59	40.52	1133.31	ND	ND	0.4	230.4	22.3	75.4	55.7	0
9970	2011-03-19T09:00:00	37	4.70	43.17	1214.69	ND	ND	0.9	163.9	23.6	71.4	263.9	0
9971	2011-03-19T10:00:00	56	6.73	50.00	1527.90	ND	ND	1.5	152.7	25.4	64.5	585.4	0
9972	2011-03-19T11:00:00	40	7.95	85.96	2110.75	ND	ND	1.8	144.6	27.2	58.4	763.5	0
9973	2011-03-19T12:00:00	27	9.24	78.30	1731.10	ND	ND	1.7	105.6	28.3	54.2	698.2	0
9974	2011-03-19T13:00:00	16	10.60	49.30	1332.04	ND	ND	0.9	36	28.1	54.5	296.7	0
9975	2011-03-19T14:00:00	36	9.56	53.34	1435.33	ND	ND	1	32	28.4	53.1	240.7	0
9976	2011-03-19T15:00:00	24	8.43	43.39	1170.26	ND	ND	1.5	282.6	29	50.2	459.6	0
9977	2011-03-19T16:00:00	27	19.49	64.17	1358.35	ND	ND	4.6	277	28.8	48.6	424.4	0
9978	2011-03-19T17:00:00	16	16.08	43.70	1195.02	ND	ND	4.5	269	26.9	53.3	122.2	0
9979	2011-03-19T18:00:00	25	5.27	14.35	726.33	ND	ND	2.7	179.5	24.8	69.7	13.2	0
9980	2011-03-19T19:00:00	36	4.58	14.87	801.39	ND	ND	1.1	108.9	22.2	88.1	0	3.3
9981	2011-03-19T20:00:00	50	4.26	55.04	1520.69	ND	ND	1	43.6	21.2	89	0	2.54
9982	2011-03-19T21:00:00	28	3.00	83.12	1990.56	ND	ND	0.2	60.9	21.6	87.4	0	0.25
9983	2011-03-19T22:00:00	40	1.81	62.39	1562.90	ND	ND	0.9	212.2	21.9	87.5	0	0.25
9984	2011-03-19T23:00:00	33	1.17	64.38	1462.46	ND	ND	0.9	132.6	21.9	88.8	0	0
9985	2011-03-20T00:00:00	32	1.24	72.19	1541.82	ND	ND	1	169.9	21.2	91.2	0	1.02
9986	2011-03-20T01:00:00	17	2.56	67.44	2205.45	ND	ND	1	158.4	21	91.9	0	0
9987	2011-03-20T02:00:00	15	0.59	39.58	1141.53	ND	ND	0.5	180.1	21.1	89.8	0	0
9988	2011-03-20T03:00:00	9	0.62	38.29	1108.00	ND	ND	0.5	148.8	21.1	88.3	0	0
9989	2011-03-20T04:00:00	10	0.21	24.50	836.65	ND	ND	0.1	2.2	21.3	88	0	0
9990	2011-03-20T05:00:00	7	0.05	28.87	916.42	ND	ND	0.7	66.2	21.2	89	0	0
9991	2011-03-20T06:00:00	36	ND	22.11	769.08	ND	ND	0.3	97.9	21	92.2	0	0.25
9992	2011-03-20T07:00:00	22	0.10	35.04	972.00	ND	ND	0.3	60.8	21.1	91.9	9.6	0
9993	2011-03-20T08:00:00	55	ND	30.67	994.94	ND	ND	0.9	70.3	21.4	91	86.2	0
9994	2011-03-20T09:00:00	52	0.03	31.00	1290.22	ND	ND	0.8	135	22.2	86.4	151.3	0
9995	2011-03-20T10:00:00	55	0.62	36.06	1532.04	ND	ND	1.3	77.8	23.3	80.5	319.1	0
9996	2011-03-20T11:00:00	37	ND	40.99	1401.06	ND	ND	1.4	83.7	25	71.1	625.9	0
9997	2011-03-20T12:00:00	24	0.10	48.37	1443.47	ND	ND	1.1	77.7	27	60	630.9	0
9998	2011-03-20T13:00:00	13	ND	31.84	1072.57	ND	ND	3.8	17	23.9	77.2	132.1	9.65
9999	2011-03-20T14:00:00	14	0.23	26.35	764.72	ND	ND	3.8	21.1	25.7	65.2	699	0.25
10000	2011-03-20T15:00:00	9	ND	36.51	792.33	ND	ND	4.2	35.6	27.2	55.3	707.1	0
10001	2011-03-20T16:00:00	18	0.08	28.65	600.11	ND	ND	1.7	148.5	25.4	63.6	139.3	0
10002	2011-03-20T17:00:00	10	ND	18.07	470.33	ND	ND	2.3	206.6	22.7	76.1	30.3	4.06
10003	2011-03-20T18:00:00	17	ND	18.30	1159.50	ND	ND	1.8	197.6	22.4	75.6	7.5	0.25
10004	2011-03-20T19:00:00	11	0.03	14.49	1487.65	ND	ND	2	198.8	22.1	76.1	0	0
10005	2011-03-20T20:00:00	7	ND	18.39	1077.74	ND	ND	1.5	123.1	21.6	80.3	0	0
10006	2011-03-20T21:00:00	5	ND	30.95	849.40	ND	ND	1.1	143.6	20.3	89.5	0	0.51
10007	2011-03-20T22:00:00	15	0.34	47.10	1341.77	ND	ND	1	126.8	19.7	92.3	0	2.03
10008	2011-03-20T23:00:00	9	ND	31.21	1057.72	ND	ND	0.7	46.1	19.6	93	0	1.02
10009	2011-03-21T00:00:00	11	0.08	30.01	1136.10	ND	ND	1	63.1	19.4	92.8	0	0
10010	2011-03-21T01:00:00	7	0.03	31.60	1506.27	ND	ND	1.1	71.8	19.2	92.8	0	0
10011	2011-03-21T02:00:00	5	ND	30.51	1887.16	ND	ND	1.6	27.9	19.3	91.3	0	0
10012	2011-03-21T03:00:00	4	ND	20.28	1134.93	ND	ND	1.7	7	19.3	90.7	0	0
10013	2011-03-21T04:00:00	14	ND	17.27	573.08	ND	ND	0.5	359.2	19.4	89.8	0	0
10014	2011-03-21T05:00:00	8	ND	14.62	236.06	ND	ND	1.1	243.6	19.4	87.6	0	0
10015	2011-03-21T06:00:00	5	ND	25.63	146.13	ND	ND	1.3	231.6	19.3	85.5	0	0
10016	2011-03-21T07:00:00	13	ND	12.14	415.77	ND	ND	1.3	144.7	18.7	91.7	18.5	0
10017	2011-03-21T08:00:00	31	0.15	9.13	594.34	ND	ND	1.1	149.2	19.2	89	103.5	0
10018	2011-03-21T09:00:00	16	0.57	17.54	921.11	ND	ND	0.9	176.3	20.2	84	222.7	0
10019	2011-03-21T10:00:00	22	0.57	17.12	890.45	ND	ND	0.2	163.2	21.8	75	316.1	0
10020	2011-03-21T11:00:00	13	1.30	15.00	781.98	ND	ND	0.4	148	22.9	69.3	382.9	0
10021	2011-03-21T12:00:00	7	2.78	21.56	830.40	ND	ND	0.6	101.9	24.6	60.7	759.4	0
10022	2011-03-21T13:00:00	5	6.57	25.82	926.70	ND	ND	0.6	123.1	27	52	913.3	0
10023	2011-03-21T14:00:00	9	10.63	21.26	784.24	ND	ND	1.2	79.6	27.6	51.7	693.9	0
10024	2011-03-21T15:00:00	5	7.40	18.79	808.92	ND	ND	1.7	0.7	27.8	51.7	383.6	0
10025	2011-03-21T16:00:00	4	7.25	28.10	913.53	ND	ND	1.9	269	26.7	55.3	100	0
10026	2011-03-21T17:00:00	3	10.44	19.78	702.81	ND	ND	2.8	264.9	25.9	60.2	76	0
10027	2011-03-21T18:00:00	4	11.83	18.61	700.93	ND	ND	2.3	274.5	25.6	60.5	25.1	0
10028	2011-03-21T19:00:00	4	4.20	18.23	734.66	ND	ND	2.4	261.8	25.1	61	0	0
10029	2011-03-21T20:00:00	3	2.99	16.20	676.14	ND	ND	2	238.4	24.6	63.2	0	0
10030	2011-03-21T21:00:00	3	2.70	23.79	823.73	ND	ND	1.6	257.9	23.8	65.5	0	0
10031	2011-03-21T22:00:00	8	2.14	25.14	867.16	ND	ND	1.1	318.5	23.3	67.7	0	0
10032	2011-03-21T23:00:00	6	1.93	26.44	888.48	ND	ND	0.4	69.9	23.1	72.5	0	0
10033	2011-03-22T00:00:00	52	4.11	40.09	990.32	ND	ND	0.7	133.4	23.1	71.8	0	0
10034	2011-03-22T01:00:00	28	8.28	63.07	1331.81	ND	ND	1.3	150.5	22.1	79.1	0	0
10035	2011-03-22T02:00:00	17	8.17	50.62	998.32	ND	ND	2.6	189.4	21	84.1	0	0
10036	2011-03-22T03:00:00	10	5.07	27.93	734.65	ND	ND	1	155	21	83.9	0	0
10037	2011-03-22T04:00:00	8	3.26	13.38	599.02	ND	ND	1	174.1	19.9	91.9	0	15.24
10038	2011-03-22T05:00:00	5	2.78	8.89	551.74	ND	ND	0	169.5	19.5	93.4	0	5.33
10039	2011-03-22T06:00:00	15	1.80	8.45	1169.44	ND	ND	0.9	354.3	19.2	92.7	0	1.52
10040	2011-03-22T07:00:00	8	1.26	14.35	1426.60	ND	ND	0.8	25.5	19.7	90	0	1.52
10041	2011-03-22T08:00:00	18	1.49	37.20	1586.58	ND	ND	1.2	67.6	19.1	95.7	3.8	13.46
10042	2011-03-22T09:00:00	11	3.57	45.62	2526.58	ND	ND	1.1	73.6	18.9	96.8	47.7	2.29
10043	2011-03-22T10:00:00	7	6.70	51.27	3355.25	ND	ND	0.8	81.4	20	92	183.1	0
10044	2011-03-22T11:00:00	9	6.75	56.07	2534.37	ND	ND	0.8	62.9	21.3	85.3	360.8	0
10045	2011-03-22T12:00:00	20	11.75	57.14	1979.92	ND	ND	0.9	128.7	24	72.5	789.3	0
10046	2011-03-22T13:00:00	11	19.87	56.54	1735.48	ND	ND	1.1	74.7	25.3	66.6	671.6	0
10047	2011-03-22T14:00:00	9	18.73	80.77	1605.46	ND	ND	0.8	24.5	26.6	60.5	709.6	0
10048	2011-03-22T15:00:00	6	13.51	63.76	1313.00	ND	ND	0.3	297.5	27.6	55.7	424.1	0
10049	2011-03-22T16:00:00	23	10.55	49.23	1109.38	ND	ND	1.9	286	28.1	51.1	501.2	0
10050	2011-03-22T17:00:00	12	10.33	45.14	1099.65	ND	ND	3	277.5	27.3	52.5	268.7	0
10051	2011-03-22T18:00:00	24	7.79	37.03	1004.37	ND	ND	3.8	272	25.6	57.9	78.5	0
10052	2011-03-22T19:00:00	14	5.67	21.51	860.94	ND	ND	3.5	267.6	24.7	60.5	1.1	0
10053	2011-03-22T20:00:00	8	5.18	22.35	927.01	ND	ND	3.3	273.8	24.2	61.9	0	0
10054	2011-03-22T21:00:00	6	4.63	26.35	1016.85	ND	ND	2.4	268.3	24.1	60.8	0	0
10055	2011-03-22T22:00:00	4	3.63	20.84	639.60	ND	ND	1.4	259.8	23.9	62.5	0	0
10056	2011-03-22T23:00:00	3	2.51	20.43	604.93	ND	ND	0.4	183.7	22.5	77.5	0	0
10057	2011-03-23T00:00:00	24	1.82	24.00	761.12	ND	ND	1	179.4	21.9	85.4	0	0
10058	2011-03-23T01:00:00	14	3.06	33.70	1088.34	ND	ND	1.1	205.8	22.1	81.4	0	0
10059	2011-03-23T02:00:00	9	1.66	36.07	907.57	ND	ND	0.8	151.2	21.9	81.3	0	0
10060	2011-03-23T03:00:00	6	1.82	29.56	782.25	ND	ND	0.5	131.9	21.1	87.1	0	0
10061	2011-03-23T04:00:00	3	1.89	20.52	655.76	ND	ND	1.2	175	20.9	85.3	0	0
10062	2011-03-23T05:00:00	3	1.40	10.90	564.92	ND	ND	1.6	198.6	20.3	89	0	0
10063	2011-03-23T06:00:00	3	1.06	7.95	518.67	ND	ND	1.2	187.9	20.4	89.7	0	0
10064	2011-03-23T07:00:00	3	1.08	3.02	417.33	ND	ND	1	200.7	20.1	94.1	6.9	4.06
10065	2011-03-23T08:00:00	3	1.37	13.91	642.26	ND	ND	0.7	228.1	20.5	89.7	74.6	0.76
10066	2011-03-23T09:00:00	4	2.50	33.69	1534.50	ND	ND	0.9	197.8	21.8	83.1	235.5	0
10067	2011-03-23T10:00:00	3	1.89	37.95	1779.29	ND	ND	0.6	161.7	23.3	74	434.3	0
10068	2011-03-23T11:00:00	11	3.13	50.51	1845.30	ND	ND	0.8	152.8	24.5	67.8	477.7	0
10069	2011-03-23T12:00:00	15	3.79	46.44	1303.80	ND	ND	0.6	129.4	26.3	60.3	803	0
10070	2011-03-23T13:00:00	10	4.50	53.27	1208.14	ND	ND	0.9	126.3	27.9	52.5	726.8	0
10071	2011-03-23T14:00:00	7	4.05	42.33	1087.35	ND	ND	1.1	129.1	28.8	49.5	590	0
10072	2011-03-23T15:00:00	5	4.22	44.71	1102.20	ND	ND	1.3	92.7	28.5	50.7	378.5	0
10073	2011-03-23T16:00:00	14	3.92	40.38	1193.83	ND	ND	0.7	45.7	28.6	50.6	181.6	0
10074	2011-03-23T17:00:00	8	5.25	47.25	1205.82	ND	ND	2.2	273.1	27.5	53.6	47.4	0
10075	2011-03-23T18:00:00	20	6.45	53.14	1236.08	ND	ND	3	258.5	26.1	59.7	13.1	0
10076	2011-03-23T19:00:00	11	6.23	36.77	1172.83	ND	ND	2.2	282.8	25.8	59.7	0.6	0
10077	2011-03-23T20:00:00	14	5.91	30.52	1217.60	ND	ND	1.2	353.1	24.7	67.9	0	0
10078	2011-03-23T21:00:00	26	4.35	27.24	1201.68	ND	ND	0.4	37.1	23.8	74.1	0	0
10079	2011-03-23T22:00:00	45	4.28	36.35	1323.55	ND	ND	1.4	17.1	22.8	78.7	0	0
10080	2011-03-23T23:00:00	24	6.35	48.93	1546.52	ND	ND	1.7	27.3	21.6	86.7	0	0
10081	2011-03-24T00:00:00	25	6.35	46.06	1279.77	ND	ND	0.4	126.5	21.4	89.1	0	0
10082	2011-03-24T01:00:00	15	3.81	31.82	905.41	ND	ND	0.4	111.3	21.4	87.6	0	0
10083	2011-03-24T02:00:00	15	2.95	33.81	905.41	ND	ND	0.8	164.3	21.3	86.6	0	0
10084	2011-03-24T03:00:00	9	3.16	30.06	837.22	ND	ND	0.9	215.7	21.2	87.5	0	0.25
10085	2011-03-24T04:00:00	7	2.38	22.31	655.98	ND	ND	1.1	209.7	21.2	87.9	0	0
10086	2011-03-24T05:00:00	5	1.45	9.13	599.43	ND	ND	0.9	146.7	20.8	89.3	0	0
10087	2011-03-24T06:00:00	4	0.88	5.27	609.91	ND	ND	0.4	160.5	20.7	90.3	0	0
10088	2011-03-24T07:00:00	25	0.88	15.80	700.03	ND	ND	0.6	95.8	20.9	89.5	12.8	0
10089	2011-03-24T08:00:00	42	1.32	25.49	1005.56	ND	ND	0.3	168.4	21.2	88.3	44.2	0
10090	2011-03-24T09:00:00	35	3.16	38.95	2013.18	ND	ND	0.8	166.8	22.8	80	298	0
10091	2011-03-24T10:00:00	24	2.50	43.95	2194.70	ND	ND	0.4	179.9	24.9	69.9	352.4	0
10092	2011-03-24T11:00:00	14	2.10	51.66	1832.36	ND	ND	1	179.9	26.5	62.7	592.3	0
10093	2011-03-24T12:00:00	34	1.32	54.59	1312.57	ND	ND	1	111.3	28.1	55.5	646.1	0
10094	2011-03-24T13:00:00	19	1.67	39.34	1064.92	ND	ND	0.8	56.2	28.7	53.4	646	0
10095	2011-03-24T14:00:00	20	2.04	44.43	1148.23	ND	ND	1.5	12.6	29.8	50.5	530.8	0
10096	2011-03-24T15:00:00	12	1.06	42.41	1129.14	ND	ND	2.3	325.1	30.2	48.2	585.5	0
10097	2011-03-24T16:00:00	8	1.52	41.03	1107.32	ND	ND	4	288.8	29.5	48.7	372.9	0
10098	2011-03-24T17:00:00	10	5.48	33.63	930.33	ND	ND	3.4	279	27.4	54.6	76.4	0
10099	2011-03-24T18:00:00	27	3.12	15.76	912.32	ND	ND	1.3	161	24.9	69.1	1.9	0
10100	2011-03-24T19:00:00	20	2.59	22.50	1042.15	ND	ND	2	192.6	23.1	73.9	0	0
10101	2011-03-24T20:00:00	27	4.06	42.44	1513.94	ND	ND	1.4	179	22.8	78.7	0	0.51
10102	2011-03-24T21:00:00	15	4.66	52.91	1523.78	ND	ND	1.4	157.5	22.1	84.4	0	0
10103	2011-03-24T22:00:00	28	4.80	65.91	1656.31	ND	ND	0.8	119.9	21.9	84.5	0	0
10104	2011-03-24T23:00:00	27	4.20	63.07	1711.87	ND	ND	0.9	73.1	21.4	86.1	0	0
10105	2011-03-25T00:00:00	31	3.11	60.34	2048.50	ND	ND	0.4	10.4	21.4	86.6	0	0
10106	2011-03-25T01:00:00	31	2.28	47.06	1346.80	ND	ND	0.9	66	21.2	87.5	0	0
10107	2011-03-25T02:00:00	44	2.02	47.51	1074.45	ND	ND	0.1	27.2	21.2	87.6	0	0
10108	2011-03-25T03:00:00	46	2.95	48.03	1040.52	ND	ND	0.4	92.2	21.2	87.5	0	0
10109	2011-03-25T04:00:00	48	3.47	43.98	1255.41	ND	ND	0.6	163.5	21.1	87.8	0	0
10110	2011-03-25T05:00:00	28	7.45	34.54	1831.60	ND	ND	0.7	124.8	20.9	89.3	0	0
10111	2011-03-25T06:00:00	39	6.77	28.66	1615.68	ND	ND	0.5	78.9	20.7	90	0	0
10112	2011-03-25T07:00:00	48	4.47	27.96	1501.67	ND	ND	0.5	76.4	20.8	89.5	5.2	0
10113	2011-03-25T08:00:00	79	3.64	34.89	1649.01	ND	ND	0.7	42.3	21.4	86.8	46.5	0
10114	2011-03-25T09:00:00	87	4.01	44.81	2127.72	ND	ND	0.7	56.8	22.3	82.7	141.9	0
10115	2011-03-25T10:00:00	119	6.18	63.16	2701.84	ND	ND	0.6	63.9	24.1	73.1	380.7	0
10116	2011-03-25T11:00:00	63	11.70	81.85	2798.26	ND	ND	1.1	54.5	26.4	61.1	644.8	0
10117	2011-03-25T12:00:00	69	92.24	94.50	1991.21	ND	ND	1.2	76.6	27.5	55.2	785.4	0
10118	2011-03-25T13:00:00	48	69.20	67.71	1212.98	ND	ND	1	32.4	28.7	52.9	618.2	0
10119	2011-03-25T14:00:00	57	21.09	51.90	1183.03	ND	ND	1.5	320.2	28.3	53.3	219.3	0
10120	2011-03-25T15:00:00	34	11.26	49.61	1181.46	ND	ND	4.3	272.4	26.3	54.3	155.3	0
10121	2011-03-25T16:00:00	26	10.24	34.52	1047.05	ND	ND	3.3	260.5	26.8	49.1	116.4	0
10122	2011-03-25T17:00:00	29	7.51	27.42	1175.58	ND	ND	1.5	160.6	25.5	64.6	37.9	0
10123	2011-03-25T18:00:00	37	16.38	40.03	1250.81	ND	ND	1.1	179.4	23	74.8	32.1	0
10124	2011-03-25T19:00:00	20	18.74	73.54	2184.80	ND	ND	0.7	174.9	23.3	73.1	5	0
10125	2011-03-25T20:00:00	55	14.54	68.30	2027.55	ND	ND	0.7	216.5	22.8	75.3	0	0
10126	2011-03-25T21:00:00	29	12.80	88.02	2797.39	ND	ND	1.3	241.9	22.9	67.6	0	0
10127	2011-03-25T22:00:00	16	9.76	76.21	2684.58	ND	ND	0.8	252.7	22.4	72.1	0	0
10128	2011-03-25T23:00:00	47	7.71	40.51	1430.87	ND	ND	0.9	343.7	21.8	79.9	0	0
10129	2011-03-26T00:00:00	79	6.64	44.70	1813.29	ND	ND	0.4	38.8	21.1	84.6	0	0
10130	2011-03-26T01:00:00	51	8.66	64.02	2566.49	ND	ND	0.2	214.8	21.2	76	0	0
10131	2011-03-26T02:00:00	55	9.21	52.27	2216.76	ND	ND	0.9	32.8	20.7	85	0	0
10132	2011-03-26T03:00:00	66	11.26	36.79	1287.15	ND	ND	0.2	205.3	20.6	84.5	0	0
10133	2011-03-26T04:00:00	73	9.63	43.18	1433.44	ND	ND	0.3	297.3	20.6	84.3	0	0
10134	2011-03-26T05:00:00	49	14.07	40.51	1478.59	ND	ND	0.3	183.2	20.6	78.3	0	0
10135	2011-03-26T06:00:00	52	16.32	42.10	1501.16	ND	ND	1.1	181	20	88.2	0	0
10136	2011-03-26T07:00:00	37	19.63	24.61	889.84	ND	ND	1	205.8	20	86.9	29.4	0
10137	2011-03-26T08:00:00	36	12.70	32.28	1317.87	ND	ND	0.3	175.4	21.9	74.9	106.8	0
10138	2011-03-26T09:00:00	59	10.99	30.66	1326.42	ND	ND	0.9	123.3	22.8	74.9	217.9	0
10139	2011-03-26T10:00:00	55	15.53	47.52	2206.07	ND	ND	0.8	121.9	24.6	66.7	452.7	0
10140	2011-03-26T11:00:00	40	15.05	89.59	2974.58	ND	ND	1.5	155.6	25.6	63.3	503.4	0
10141	2011-03-26T12:00:00	20	12.73	63.28	1675.95	ND	ND	1.3	153.4	26.9	58.3	614.4	0
10142	2011-03-26T13:00:00	32	11.97	52.05	1464.20	ND	ND	1.8	145.8	28.9	51.5	852.7	0
10143	2011-03-26T14:00:00	18	10.25	57.17	1473.96	ND	ND	1.7	151.5	28.7	53	407.5	0
10144	2011-03-26T15:00:00	12	8.12	47.58	1333.81	ND	ND	1.2	128	28.5	54.2	235.9	0
10145	2011-03-26T16:00:00	25	6.76	50.57	1437.24	ND	ND	1.3	45.5	28.1	54.4	126	0
10146	2011-03-26T17:00:00	24	6.75	62.97	1805.74	ND	ND	1.7	316.3	27.3	56.3	108.6	0
10147	2011-03-26T18:00:00	25	8.29	67.83	1743.22	ND	ND	1.7	28	26.6	58.5	55.4	0
10148	2011-03-26T19:00:00	21	5.74	28.54	1013.55	ND	ND	0.8	304.8	26.1	59.7	1.5	0
10149	2011-03-26T20:00:00	36	11.76	56.16	1448.79	ND	ND	1.7	269.8	25.8	61.1	0	0
10150	2011-03-26T21:00:00	20	9.93	51.44	1401.39	ND	ND	1.8	178.1	24.8	65.6	0	0
10151	2011-03-26T22:00:00	44	5.81	32.60	858.63	ND	ND	1.2	149.7	23.8	71.5	0	0
10152	2011-03-26T23:00:00	24	5.32	47.14	1414.83	ND	ND	1.2	193.4	23.6	72.2	0	0
10153	2011-03-27T00:00:00	32	4.88	45.55	1607.72	ND	ND	1.3	225.8	23.6	72.3	0	0
10154	2011-03-27T01:00:00	18	4.28	41.07	1049.01	ND	ND	1.2	236.9	23.2	73	0	0
10155	2011-03-27T02:00:00	14	4.84	46.37	1115.91	ND	ND	0.7	222.5	22.9	74.6	0	0
10156	2011-03-27T03:00:00	11	3.98	32.63	1183.04	ND	ND	0.4	203.5	22.3	76.8	0	0
10157	2011-03-27T04:00:00	24	3.95	31.52	1180.64	ND	ND	0.4	37.2	21.7	81.8	0	0
10158	2011-03-27T05:00:00	26	3.55	24.60	1461.47	ND	ND	0.3	326.6	21.6	79.9	0	0
10159	2011-03-27T06:00:00	47	4.48	24.30	1902.66	ND	ND	1	55.6	20.7	87.8	0	0
10160	2011-03-27T07:00:00	29	19.14	25.50	1253.28	ND	ND	0.6	56.1	20.5	87.9	23.7	0
10161	2011-03-27T08:00:00	35	17.19	18.10	1162.16	ND	ND	0.8	29.6	21.9	83	129.1	0
10162	2011-03-27T09:00:00	24	12.26	13.46	1054.33	ND	ND	1	74.4	23.6	73.7	361.4	0
10163	2011-03-27T10:00:00	31	19.95	31.72	1299.86	ND	ND	1.1	79.1	25.4	66.1	597.8	0
10164	2011-03-27T11:00:00	17	30.99	31.95	1181.56	ND	ND	1.2	111.8	27	60.8	638.2	0
10165	2011-03-27T12:00:00	21	24.64	28.42	864.97	ND	ND	1	141.7	28.1	57.1	570.4	0
10166	2011-03-27T13:00:00	23	23.80	30.18	995.47	ND	ND	1	131.6	29.8	51.6	810.6	0
10167	2011-03-27T14:00:00	30	14.86	23.18	1036.01	ND	ND	1	132.2	30.3	49.6	487.8	0
10168	2011-03-27T15:00:00	29	12.85	32.70	1142.66	ND	ND	1.2	137.2	31.4	46.3	546.4	0
10169	2011-03-27T16:00:00	36	9.80	25.07	1123.40	ND	ND	1.6	288.9	29.8	50.1	76.4	0
10170	2011-03-27T17:00:00	19	8.04	27.33	1117.50	ND	ND	4.1	276.1	28.5	53.9	230.9	0
10171	2011-03-27T18:00:00	15	6.18	14.37	822.93	ND	ND	4.2	272.6	27.7	55.6	86.9	0
10172	2011-03-27T19:00:00	9	5.76	6.37	682.03	ND	ND	4	273.5	26.8	58.1	1.4	0
10173	2011-03-27T20:00:00	6	4.96	5.12	656.94	ND	ND	3.7	266.1	26.3	59.7	0	0
10174	2011-03-27T21:00:00	15	4.87	10.31	736.39	ND	ND	0.8	286.3	26.4	59.6	0	0
10175	2011-03-27T22:00:00	9	4.32	13.25	748.14	ND	ND	1.8	241.2	26.1	61.1	0	0
10176	2011-03-27T23:00:00	19	4.71	28.00	896.87	ND	ND	1.2	219.3	25.5	66.4	0	0
10177	2011-03-28T00:00:00	14	4.23	17.45	791.80	ND	ND	0.8	230.5	25	67.3	0	0
10178	2011-03-28T01:00:00	9	3.56	29.95	698.82	ND	ND	0.7	231.8	24.1	74.8	0	0
10179	2011-03-28T02:00:00	18	3.34	15.00	868.03	ND	ND	0.5	184.4	23.9	74.5	0	0
10180	2011-03-28T03:00:00	9	2.32	20.49	1038.65	ND	ND	0.6	194.9	23.7	76.2	0	0
10181	2011-03-28T04:00:00	22	3.08	18.40	615.93	ND	ND	0.4	142.6	23.6	77	0	0
10182	2011-03-28T05:00:00	12	3.18	13.57	661.33	ND	ND	1.1	159.9	23.3	77.6	0	0
10183	2011-03-28T06:00:00	16	3.26	18.71	729.01	ND	ND	0.5	161.8	22.6	80.7	0	0
10184	2011-03-28T07:00:00	27	2.78	19.36	715.92	ND	ND	0.3	116.5	23	79.6	20	0
10185	2011-03-28T08:00:00	67	3.10	21.53	830.68	ND	ND	0.4	209.9	24	74.7	105.1	0
10186	2011-03-28T09:00:00	36	4.91	33.88	1963.83	ND	ND	0.6	142.8	25.4	66.6	304.9	0
10187	2011-03-28T10:00:00	53	5.82	49.71	2787.56	ND	ND	1.3	147.7	26.3	63.8	354.9	0
10188	2011-03-28T11:00:00	39	4.18	56.71	1829.46	ND	ND	1	135.1	27.7	59.1	568.5	0
10189	2011-03-28T12:00:00	34	3.62	42.89	1375.62	ND	ND	0.8	101.9	29.3	53.8	701.8	0
10190	2011-03-28T13:00:00	22	4.55	44.94	1359.70	ND	ND	0.4	103.7	29.8	51.6	366.5	0
10191	2011-03-28T14:00:00	24	4.23	51.79	1338.67	ND	ND	2.8	301.8	30.2	46.6	596.4	0
10192	2011-03-28T15:00:00	14	4.91	62.74	1596.87	ND	ND	3.2	284.9	30.7	44.5	451.9	0
10193	2011-03-28T16:00:00	13	2.54	17.99	1039.09	ND	ND	2.4	298.4	29	52.3	144	0
10194	2011-03-28T17:00:00	8	4.25	21.66	1358.35	ND	ND	2.4	9.6	27.6	59.3	172.9	0
10195	2011-03-28T18:00:00	41	8.35	40.43	1744.96	ND	ND	0.9	296.7	27.1	58.5	39.3	0
10196	2011-03-28T19:00:00	28	8.05	43.97	1545.93	ND	ND	1.6	181.3	25.7	64.2	0.8	0
10197	2011-03-28T20:00:00	38	8.46	43.18	1768.38	ND	ND	1.7	185.3	23.7	71.6	0	0
10198	2011-03-28T21:00:00	26	7.02	44.33	1539.82	ND	ND	0.8	115.3	23.5	72.6	0	0
10199	2011-03-28T22:00:00	46	4.85	44.96	1345.01	ND	ND	1.1	66.6	23.2	74.2	0	0
10200	2011-03-28T23:00:00	49	4.84	60.36	1969.93	ND	ND	0.5	102	22.8	75.9	0	0
10201	2011-03-29T00:00:00	67	4.53	59.02	2024.13	ND	ND	0.2	135.4	22.9	74.8	0	0
10202	2011-03-29T01:00:00	57	4.74	57.84	1683.55	ND	ND	1	151.5	22.1	78.4	0	0
10203	2011-03-29T02:00:00	35	4.20	55.13	1395.38	ND	ND	0.6	105.3	21.8	80.9	0	0
10204	2011-03-29T03:00:00	38	3.73	26.81	827.31	ND	ND	0.6	174.9	21.8	81.4	0	0
10205	2011-03-29T04:00:00	35	3.01	19.43	804.65	ND	ND	0.6	170.6	21.8	81.8	0	0
10206	2011-03-29T05:00:00	20	3.84	19.25	759.31	ND	ND	0.9	134.3	21.8	81.5	0	0
10207	2011-03-29T06:00:00	30	4.46	20.36	804.65	ND	ND	0.6	120	21.6	82.8	0	0
10208	2011-03-29T07:00:00	44	5.08	25.04	894.70	ND	ND	0.8	80.4	21.4	84.4	39.3	0
10209	2011-03-29T08:00:00	65	6.11	37.92	1290.22	ND	ND	0.5	87.1	22.5	79.3	200.9	0
10210	2011-03-29T09:00:00	43	8.21	44.62	2215.19	ND	ND	0.7	92.6	24.1	72.3	293.9	0
10211	2011-03-29T10:00:00	70	11.65	43.34	1793.17	ND	ND	1	66.4	25.4	67.2	384.2	0
10212	2011-03-29T11:00:00	55	15.59	79.57	2099.28	ND	ND	0.9	94.4	27	61.9	500.5	0
10213	2011-03-29T12:00:00	63	13.56	88.64	1926.00	ND	ND	0.8	174.4	27.4	59.9	508.2	0
10214	2011-03-29T13:00:00	35	12.73	79.23	2044.06	ND	ND	0.6	60	29.5	52.1	693.9	0
10215	2011-03-29T14:00:00	54	10.24	47.62	1418.75	ND	ND	0.9	58.1	29.7	50.1	440.2	0
10216	2011-03-29T15:00:00	44	10.09	57.36	1431.32	ND	ND	1.2	358.9	30.4	47.6	373.6	0
10217	2011-03-29T16:00:00	63	14.11	49.97	1294.67	ND	ND	1.3	7.4	29.7	49.4	115.1	0
10218	2011-03-29T17:00:00	42	22.25	55.35	1280.04	ND	ND	3.9	275.4	28.4	52.2	153.1	0
10219	2011-03-29T18:00:00	44	30.74	56.25	1344.07	ND	ND	4.1	273.8	27.1	55.4	36.5	0
10220	2011-03-29T19:00:00	23	11.82	27.05	1257.51	ND	ND	4.6	268.7	26.3	57.6	0.5	0
10221	2011-03-29T20:00:00	20	6.79	29.76	1208.14	ND	ND	4.5	269.4	25.8	58.9	0	0
10222	2011-03-29T21:00:00	11	5.18	22.70	1091.25	ND	ND	2.5	285.1	25.9	57.2	0	0
10223	2011-03-29T22:00:00	7	3.86	17.93	896.27	ND	ND	1.7	286.3	25.8	58.3	0	0
10224	2011-03-29T23:00:00	4	2.86	19.60	838.54	ND	ND	2.4	255.8	25	60.8	0	0
10225	2011-03-30T00:00:00	2	2.57	21.79	985.22	ND	ND	2.4	255.3	24.8	61.6	0	0
10226	2011-03-30T01:00:00	3	1.44	7.64	767.04	ND	ND	0.7	303.5	24.4	65.6	0	0
10227	2011-03-30T02:00:00	24	1.05	6.73	720.28	ND	ND	0.8	51.9	23.1	76.2	0	0
10228	2011-03-30T03:00:00	14	1.67	16.37	762.66	ND	ND	0.7	145.6	22.7	76.9	0	0
10229	2011-03-30T04:00:00	20	2.68	22.88	295.56	ND	ND	1.1	190.6	22.5	76.9	0	0
10230	2011-03-30T05:00:00	23	2.60	14.79	363.52	ND	ND	0.8	192.8	22.4	77.9	0	0
10231	2011-03-30T06:00:00	17	2.08	11.28	329.33	ND	ND	0.4	215.3	22.5	76.4	0	0
10232	2011-03-30T07:00:00	33	2.26	11.37	477.12	ND	ND	0.7	30.1	22.4	78.4	24.3	0
10233	2011-03-30T08:00:00	61	2.55	17.92	738.15	ND	ND	0.6	145.6	23.1	76.4	74.8	0
10234	2011-03-30T09:00:00	65	5.68	42.16	1923.73	ND	ND	0.2	197.9	24.3	70.8	309.7	0
10235	2011-03-30T10:00:00	65	9.93	54.04	2571.56	ND	ND	0.5	69.8	26.3	62.6	339.9	0
10236	2011-03-30T11:00:00	74	9.84	76.54	2209.16	ND	ND	1.2	98.2	27.9	55.8	507.9	0
10237	2011-03-30T12:00:00	59	13.86	130.73	2313.51	ND	ND	0.4	212	27.9	54.7	235.6	0
10238	2011-03-30T13:00:00	74	30.77	80.48	1561.62	ND	ND	0.6	79.4	29.4	50.4	680.3	0
10239	2011-03-30T14:00:00	42	21.51	56.04	1348.53	ND	ND	1.1	356.8	31.2	43.3	879.1	0
10240	2011-03-30T15:00:00	ND	17.92	66.00	1917.89	ND	ND	0.6	301.6	30.6	44.8	286.1	0
10241	2011-03-30T16:00:00	ND	12.95	28.74	1050.42	ND	ND	4.6	280.2	30	45.1	526.7	0
10242	2011-03-30T17:00:00	ND	12.71	34.49	1153.18	ND	ND	5	277.5	28.4	50.5	272.9	0
10243	2011-03-30T18:00:00	ND	ND	ND	ND	ND	ND	3.9	256.5	26.6	57.7	83.3	0
10244	2011-03-30T19:00:00	8	5.27	18.05	921.41	ND	ND	1.8	238.6	25.5	62.4	0.3	0
10245	2011-03-30T20:00:00	16	3.54	24.30	1090.15	ND	ND	0.8	343.7	25.5	62.6	0	0
10246	2011-03-30T21:00:00	14	3.91	43.66	1354.08	ND	ND	1.1	14.9	24.7	66.7	0	0
10247	2011-03-30T22:00:00	47	5.26	67.98	1785.35	ND	ND	0.5	60.1	24.5	67.2	0	0
10248	2011-03-30T23:00:00	41	9.23	64.85	1887.08	ND	ND	0.9	63.6	24.6	66.4	0	0
10249	2011-03-31T00:00:00	44	12.87	70.08	2665.68	ND	ND	1	119.4	23.9	69.5	0	0
10250	2011-03-31T01:00:00	46	14.75	69.77	2351.24	ND	ND	1	161.9	22.7	78.1	0	0
10251	2011-03-31T02:00:00	43	10.24	44.11	1591.47	ND	ND	0.7	205.8	22.7	78.2	0	0
10252	2011-03-31T03:00:00	22	5.20	28.78	1148.13	ND	ND	0.6	246.8	22.8	73.2	0	0
10253	2011-03-31T04:00:00	13	3.41	23.87	1171.26	ND	ND	0.3	111.5	22.6	79.3	0	0
10254	2011-03-31T05:00:00	8	3.40	15.10	1488.66	ND	ND	0.1	344.5	22.4	79	0	0
10255	2011-03-31T06:00:00	38	2.55	20.01	1703.42	ND	ND	1	65.1	21.3	89.4	0	0
10256	2011-03-31T07:00:00	49	2.77	19.85	1697.08	ND	ND	1.3	34.3	21	90.3	4.8	0
10257	2011-03-31T08:00:00	68	3.72	31.70	2215.25	ND	ND	0.3	303.5	21.9	82.7	61.9	0
10258	2011-03-31T09:00:00	46	5.55	42.64	2788.88	ND	ND	0.1	174.8	23.6	73.7	212.3	0
10259	2011-03-31T10:00:00	84	10.07	45.16	2360.27	ND	ND	1.5	61.2	23.7	76.3	196.8	0
10260	2011-03-31T11:00:00	81	14.64	74.80	2178.56	ND	ND	0.8	66.4	24.7	71.7	339.6	0
10261	2011-03-31T12:00:00	65	27.17	108.90	2288.91	ND	ND	1.2	149.9	26.6	62.1	553.2	0
10262	2011-03-31T13:00:00	43	24.37	87.48	2476.28	ND	ND	0.6	181.5	28.6	52.7	768.4	0
10263	2011-03-31T14:00:00	41	16.10	76.10	2005.84	ND	ND	1.4	110.2	29.4	49.4	569.7	0
10264	2011-03-31T15:00:00	22	9.15	41.38	1290.40	ND	ND	1.2	92.2	30	47.2	456.6	0
10265	2011-03-31T16:00:00	54	9.91	59.21	1374.50	ND	ND	1.1	328.6	29.6	49.5	297.2	0
10266	2011-03-31T17:00:00	28	11.23	67.40	1279.62	ND	ND	3.8	270.2	29.3	49.7	313.4	0
10267	2011-03-31T18:00:00	29	11.24	50.34	1115.65	ND	ND	4.3	271	28	52.1	129.2	0
10268	2011-03-31T19:00:00	16	7.33	26.90	1064.57	ND	ND	3.1	277.3	27.1	54.1	2.2	0
10269	2011-03-31T20:00:00	13	6.23	28.55	934.48	ND	ND	3.6	274.7	26.5	56.5	0	0
10270	2011-03-31T21:00:00	8	5.64	38.65	1047.75	ND	ND	1.6	294.9	26.7	55.4	0	0
10271	2011-03-31T22:00:00	6	4.69	29.13	979.32	ND	ND	2.6	286	26.3	58	0	0
10272	2011-03-31T23:00:00	3	3.79	27.54	908.98	ND	ND	2.4	272.2	25.9	58.5	0	0
10273	2011-04-01T00:00:00	3	3.34	15.47	689.44	ND	ND	1.3	248.2	25.5	63	0	0
10274	2011-04-01T01:00:00	3	2.76	10.04	642.62	ND	ND	1.7	245.3	25.2	61.7	0	0
10275	2011-04-01T02:00:00	3	3.41	28.61	641.97	ND	ND	1	103.9	23.2	79.2	0	0
10276	2011-04-01T03:00:00	2	2.60	8.72	56.93	ND	ND	0.5	135.4	22.3	86.2	0	5.84
10277	2011-04-01T04:00:00	14	2.47	18.31	227.05	ND	ND	1	164.9	21.7	91.2	0	2.79
10278	2011-04-01T05:00:00	8	2.36	21.40	373.86	ND	ND	1.8	149.9	20.7	89	0	0
10279	2011-04-01T06:00:00	11	1.89	16.45	519.38	ND	ND	1.1	163.3	19.7	90.5	0	0
10280	2011-04-01T07:00:00	15	1.70	14.13	956.45	ND	ND	0.6	157.6	19.9	89.5	41.3	0.25
10281	2011-04-01T08:00:00	10	1.36	26.55	1204.82	ND	ND	1	345.8	21.5	84.3	210.5	0
10282	2011-04-01T09:00:00	45	2.33	43.37	1766.16	ND	ND	1.3	38.4	24	72.8	395.5	0
10283	2011-04-01T10:00:00	45	3.08	58.28	1838.24	ND	ND	1.5	71.1	25.9	62.8	601.9	0
10284	2011-04-01T11:00:00	29	12.85	94.87	1976.40	ND	ND	0.7	98.6	27.3	57.3	751.8	0
10285	2011-04-01T12:00:00	30	23.95	55.72	1327.62	ND	ND	1.1	112.5	28.7	52.1	847.8	0
10286	2011-04-01T13:00:00	16	7.69	48.05	1113.44	ND	ND	1.2	77.4	30.4	46.5	862.2	0
10287	2011-04-01T14:00:00	14	6.19	50.89	1248.01	ND	ND	1.5	85.7	31.5	43.8	800.8	0
10288	2011-04-01T15:00:00	8	8.51	49.46	1299.36	ND	ND	1.7	353.4	31.3	45.7	406.8	0
10289	2011-04-01T16:00:00	8	9.95	49.06	1298.51	ND	ND	4.2	289.8	30.5	47.3	414.2	0
10290	2011-04-01T17:00:00	9	15.77	47.26	1283.43	ND	ND	3.7	279	29.5	49.4	166.7	0
10291	2011-04-01T18:00:00	14	6.92	20.38	1000.10	ND	ND	3	272.3	28.6	52.7	71.9	0
10292	2011-04-01T19:00:00	8	6.44	28.40	1182.64	ND	ND	3.9	269.2	27.5	56.1	1.2	0
10293	2011-04-01T20:00:00	6	5.89	34.66	1328.50	ND	ND	3.1	254.3	26.9	58.2	0	0
10294	2011-04-01T21:00:00	4	4.69	28.20	1106.80	ND	ND	2.8	271	26.3	60.7	0	0
10295	2011-04-01T22:00:00	17	3.37	21.24	908.98	ND	ND	0.8	2	25.7	63.2	0	0
10296	2011-04-01T23:00:00	20	2.73	18.80	838.26	ND	ND	0.5	159.3	23.8	71.2	0	0
10297	2011-04-02T00:00:00	44	4.93	60.97	1528.93	ND	ND	0.7	17.6	24	69.9	0	0
10298	2011-04-02T01:00:00	60	5.59	71.41	1689.81	ND	ND	0.8	95	23.3	73.5	0	0
10299	2011-04-02T02:00:00	51	6.51	76.11	1833.91	ND	ND	0.1	113.2	22.4	73	0	0
10300	2011-04-02T03:00:00	31	8.86	59.80	1680.71	ND	ND	0.6	30.9	22.6	75.5	0	0
10301	2011-04-02T04:00:00	44	6.29	29.65	863.65	ND	ND	0.6	161	22.4	75.1	0	0
10302	2011-04-02T05:00:00	32	8.78	56.91	1271.89	ND	ND	0.5	75.5	22.2	77.4	0	1.27
10303	2011-04-02T06:00:00	40	12.28	43.55	1134.84	ND	ND	1.2	33.6	21.3	84.5	0	6.6
10304	2011-04-02T07:00:00	33	8.59	38.82	1165.32	ND	ND	0.8	211.8	20.6	91.7	5.2	3.81
10305	2011-04-02T08:00:00	53	8.26	43.11	1241.56	ND	ND	0.3	139.1	21.4	89.6	49.6	0.76
10306	2011-04-02T09:00:00	54	5.23	43.80	1120.45	ND	ND	2.1	172.8	21.8	89.3	130.5	0
10307	2011-04-02T10:00:00	52	8.17	69.91	2923.93	ND	ND	1.6	165.3	22.6	84	312.5	0
10308	2011-04-02T11:00:00	27	11.18	72.30	3090.96	ND	ND	2.1	187.4	24.8	69.4	732.5	0
10309	2011-04-02T12:00:00	21	11.36	44.55	1717.26	ND	ND	1.5	156.9	27	58.8	861.2	0
10310	2011-04-02T13:00:00	12	10.37	36.58	1222.49	ND	ND	1.3	142.4	27.8	56.9	689.2	0
10311	2011-04-02T14:00:00	6	8.04	41.71	1260.44	ND	ND	1.2	102.1	29.3	51.2	655	0
10312	2011-04-02T15:00:00	4	2.26	40.93	1289.97	ND	ND	1.2	55.4	29.3	49.3	426.1	0
10313	2011-04-02T16:00:00	19	2.55	57.57	1545.64	ND	ND	2.2	317.4	28.7	51.4	234.2	0
10314	2011-04-02T17:00:00	10	2.49	54.21	1391.80	ND	ND	3.3	280.6	28.6	50.5	357.7	0
10315	2011-04-02T18:00:00	10	6.97	40.33	1089.88	ND	ND	3.6	283.2	27.1	54.7	99.8	0
10316	2011-04-02T19:00:00	7	6.20	19.71	957.55	ND	ND	3.5	277.9	25.8	58.7	1.9	0
10317	2011-04-02T20:00:00	4	7.65	21.87	1010.84	ND	ND	3	262.5	25.6	58.8	0	0
10318	2011-04-02T21:00:00	4	6.54	27.52	1067.56	ND	ND	2.3	255	25.3	58.9	0	0
10319	2011-04-02T22:00:00	20	4.77	33.86	1112.36	ND	ND	1.8	240.7	24.6	61.4	0	0
10320	2011-04-02T23:00:00	19	3.66	28.70	1041.10	ND	ND	0.4	208.7	24.1	68.8	0	0
10321	2011-04-03T00:00:00	19	2.72	27.96	1130.73	ND	ND	1.1	275.2	23.6	64.2	0	0
10322	2011-04-03T01:00:00	10	3.89	60.59	1926.98	ND	ND	0.5	30	23	70	0	0
10323	2011-04-03T02:00:00	19	3.25	37.72	1103.78	ND	ND	0.3	269	22.5	72.1	0	0
10324	2011-04-03T03:00:00	11	4.00	42.00	1385.92	ND	ND	0.8	235.4	22.9	67.2	0	0
10325	2011-04-03T04:00:00	11	6.06	38.34	1023.78	ND	ND	0.8	157.5	22.3	77.9	0	0
10326	2011-04-03T05:00:00	25	5.48	18.03	828.72	ND	ND	1	179.2	21.7	81.4	0	0
10327	2011-04-03T06:00:00	38	4.85	36.82	1370.83	ND	ND	0.8	181.6	21.9	80.4	0	0
10328	2011-04-03T07:00:00	43	4.15	30.44	1213.05	ND	ND	0.8	148.4	21.9	80.7	12.7	0
10329	2011-04-03T08:00:00	43	4.15	28.87	1179.04	ND	ND	0.5	113	22.1	79.6	51.2	0
10330	2011-04-03T09:00:00	23	5.19	35.79	1679.00	ND	ND	0.5	181.3	22.7	76.9	110.3	0
10331	2011-04-03T10:00:00	58	6.11	42.65	1830.19	ND	ND	0.3	145.5	24	70.4	241.3	0
10332	2011-04-03T11:00:00	36	7.91	46.27	1701.23	ND	ND	0.3	292.5	25.6	61.8	453.9	0
10333	2011-04-03T12:00:00	25	22.45	55.81	1434.89	ND	ND	1	25	27.4	56.2	513.9	0
10334	2011-04-03T13:00:00	18	47.12	54.28	1224.12	ND	ND	1.3	82.4	27.8	55.5	454.9	0
10335	2011-04-03T14:00:00	41	37.42	49.41	1237.32	ND	ND	1.5	48.2	28.4	53.7	502.7	0
10336	2011-04-03T15:00:00	30	24.88	48.69	1355.65	ND	ND	1.1	348.7	29.9	48	745.9	0
10337	2011-04-03T16:00:00	27	21.97	48.86	1304.18	ND	ND	3.7	277.7	30.1	44.7	602.7	0
10338	2011-04-03T17:00:00	14	35.58	27.05	908.87	ND	ND	3.9	279.9	29.2	46.9	266.9	0
10339	2011-04-03T18:00:00	14	10.79	2.96	766.76	ND	ND	4.5	278.5	27.1	53.6	27.7	0
10340	2011-04-03T19:00:00	9	5.46	3.07	738.36	ND	ND	4.7	273.7	26	56.5	0.4	0
10341	2011-04-03T20:00:00	6	4.52	3.10	724.15	ND	ND	2.6	249.5	25.5	62.1	0	0
10342	2011-04-03T21:00:00	5	3.73	4.00	722.94	ND	ND	3	285.7	25.3	60.3	0	0
10343	2011-04-03T22:00:00	4	3.49	20.10	917.41	ND	ND	0.9	51.4	24.5	67.2	0	0
10344	2011-04-03T23:00:00	4	3.56	10.30	731.96	ND	ND	0.7	104.8	23.9	70.1	0	0
10345	2011-04-04T00:00:00	27	3.37	43.78	1175.62	ND	ND	1.2	115.5	23.3	75.8	0	0
10346	2011-04-04T01:00:00	15	3.07	57.06	1332.71	ND	ND	0.9	143.6	22.1	83.4	0	0
10347	2011-04-04T02:00:00	10	3.01	35.68	1055.05	ND	ND	1.6	130	21.3	87.2	0	0
10348	2011-04-04T03:00:00	6	1.73	9.47	690.14	ND	ND	1.4	169.5	20.3	91.9	0	0.76
10349	2011-04-04T04:00:00	5	1.16	4.15	642.70	ND	ND	1.2	155.6	20	93.4	0	1.02
10350	2011-04-04T05:00:00	6	0.95	0.80	608.25	ND	ND	1.4	163.3	19.8	93.7	0	0
10351	2011-04-04T06:00:00	4	0.98	4.31	675.37	ND	ND	0.8	196.3	20.1	90.4	0	0
10352	2011-04-04T07:00:00	3	0.95	10.26	754.94	ND	ND	0.2	79	20.5	88.3	13.2	0
10353	2011-04-04T08:00:00	13	0.67	12.58	823.66	ND	ND	1	89.7	21	86.4	103.1	0
10354	2011-04-04T09:00:00	14	2.43	50.93	1842.28	ND	ND	1	118.7	21.6	83.9	189.5	0
10355	2011-04-04T10:00:00	28	3.78	75.11	2899.29	ND	ND	0.5	93	22.4	79.8	267.6	0
10356	2011-04-04T11:00:00	18	2.70	56.27	1851.05	ND	ND	0.5	112.4	24.8	68.3	505.1	0
10357	2011-04-04T12:00:00	32	2.17	44.78	1282.22	ND	ND	0.6	118.7	26.7	59.6	817.7	0
10358	2011-04-04T13:00:00	17	2.64	51.75	1359.53	ND	ND	1.1	76.3	28.4	52.7	727.8	0
10359	2011-04-04T14:00:00	9	2.39	54.90	1390.41	ND	ND	1.6	54.2	28.7	51.7	385.7	0
10360	2011-04-04T15:00:00	6	3.37	56.37	1380.20	ND	ND	0.9	55.7	28.3	52.8	170.1	0
10361	2011-04-04T16:00:00	23	6.70	54.12	1355.20	ND	ND	0.9	303.8	29	51	369.5	0
10362	2011-04-04T17:00:00	13	8.47	51.34	1323.52	ND	ND	2.1	357	28.1	56	234.8	0
10363	2011-04-04T18:00:00	27	11.09	27.50	1030.20	ND	ND	1.2	310.4	26.2	65.1	18.4	0
10364	2011-04-04T19:00:00	38	14.57	59.62	1529.79	ND	ND	2.9	205.6	23.5	78.8	0	0
10365	2011-04-04T20:00:00	38	11.24	81.65	1960.53	ND	ND	1.4	241.5	23.3	74.7	0	0
10366	2011-04-04T21:00:00	34	7.14	67.42	1663.05	ND	ND	0.8	88	23.4	76.8	0	0
10367	2011-04-04T22:00:00	40	3.02	46.91	1173.64	ND	ND	1.1	191.9	21.9	86.6	0	0
10368	2011-04-04T23:00:00	22	4.82	81.04	2267.38	ND	ND	0.8	157.2	22.2	85.8	0	0
10369	2011-04-05T00:00:00	29	2.80	48.77	1339.12	ND	ND	1.1	112.1	21.6	88.7	0	2.03
10370	2011-04-05T01:00:00	16	2.88	67.09	1868.69	ND	ND	0.6	223.9	21.4	88.8	0	0.25
10371	2011-04-05T02:00:00	10	2.20	47.63	1346.80	ND	ND	0.4	148.3	21.6	89.2	0	0.51
10372	2011-04-05T03:00:00	6	1.11	28.79	940.01	ND	ND	0.2	209.1	21.5	88.6	0	0
10373	2011-04-05T04:00:00	5	1.61	44.39	1132.15	ND	ND	0.7	74.4	21.1	91.4	0	0.25
10374	2011-04-05T05:00:00	3	1.27	37.68	1062.78	ND	ND	1	191.5	20.9	93.1	0	0
10375	2011-04-05T06:00:00	14	1.50	27.62	1028.16	ND	ND	0.4	169.5	20.8	93.9	0	0
10376	2011-04-05T07:00:00	19	1.19	24.77	1005.22	ND	ND	0.6	30.2	21	93.4	6.6	0.76
10377	2011-04-05T08:00:00	31	0.96	20.16	1164.14	ND	ND	1	68.7	21	93.5	51	0.51
10378	2011-04-05T09:00:00	29	3.18	36.27	1989.20	ND	ND	1.5	52.5	21.1	91.3	34	0
10379	2011-04-05T10:00:00	29	4.55	50.74	3063.97	ND	ND	1.1	71.8	20.4	95.5	31.1	28.19
10380	2011-04-05T11:00:00	15	3.97	49.72	2222.01	ND	ND	0.6	125.9	20	98.1	52.4	21.34
10381	2011-04-05T12:00:00	37	4.89	47.22	2083.81	ND	ND	0.4	186.1	21.4	91.7	255.3	1.52
10382	2011-04-05T13:00:00	27	5.38	61.57	2308.81	ND	ND	1.2	127	23	80.6	293.1	0
10383	2011-04-05T14:00:00	28	5.62	87.76	2628.59	ND	ND	1.3	70.9	22.4	83	333.9	0
10384	2011-04-05T15:00:00	16	3.97	97.40	2441.57	ND	ND	0.2	268.1	22.7	75.9	146.6	0
10385	2011-04-05T16:00:00	8	3.33	61.39	1659.68	ND	ND	1.6	244.2	23.9	69	266.6	0
10386	2011-04-05T17:00:00	6	2.66	51.53	2568.10	ND	ND	1.8	197.4	25	60.9	265.8	0
10387	2011-04-05T18:00:00	18	3.14	52.55	2508.88	ND	ND	1.1	175.3	25	58.9	73.1	0
10388	2011-04-05T19:00:00	25	6.66	66.22	2554.70	ND	ND	1	144.7	24.1	64.7	1.3	0
10389	2011-04-05T20:00:00	62	4.86	90.09	3255.12	ND	ND	0.7	176.8	23.2	71	0	0
10390	2011-04-05T21:00:00	32	10.57	103.77	4657.23	ND	ND	1.1	269.3	22.3	72	0	0
10391	2011-04-05T22:00:00	33	9.76	90.48	4154.93	ND	ND	0.2	41.7	22.1	76.2	0	0
10392	2011-04-05T23:00:00	46	5.99	47.93	1883.20	ND	ND	0.6	261.7	21.7	76.5	0	0
10393	2011-04-06T00:00:00	27	6.69	81.73	2537.74	ND	ND	0.7	249.3	21.4	75.5	0	0
10394	2011-04-06T01:00:00	15	5.93	56.64	1675.02	ND	ND	0.3	55.6	21.4	77.3	0	0
10395	2011-04-06T02:00:00	36	4.35	33.32	1041.23	ND	ND	0.1	194.6	21.2	80.6	0	0
10396	2011-04-06T03:00:00	19	4.55	37.54	1289.34	ND	ND	0.2	87.8	21	84.1	0	0
10397	2011-04-06T04:00:00	46	4.76	40.94	1458.00	ND	ND	0.5	176.5	20.8	88.2	0	0
10398	2011-04-06T05:00:00	25	4.06	35.63	1502.18	ND	ND	0.2	192.1	20.7	85.1	0	0
10399	2011-04-06T06:00:00	31	3.05	38.03	1422.64	ND	ND	0.5	150.9	20.8	84.9	0	0
10400	2011-04-06T07:00:00	28	2.58	30.29	1344.06	ND	ND	0.3	200.6	20.7	84.7	17.1	0
10401	2011-04-06T08:00:00	64	5.55	38.93	1829.10	ND	ND	0.4	46.6	21.3	82.5	74.8	0
10402	2011-04-06T09:00:00	67	5.02	43.97	2183.57	ND	ND	0.7	100.9	23.1	77.1	353.2	0
10403	2011-04-06T10:00:00	88	7.03	67.71	3164.48	ND	ND	0.9	111.1	25.2	67.9	573.9	0
10404	2011-04-06T11:00:00	87	10.12	144.59	3530.84	ND	ND	1.6	91.7	25.8	64	361	0
10405	2011-04-06T12:00:00	82	12.30	130.46	2308.85	ND	ND	1.3	43.9	25.8	65.1	267.6	0
10406	2011-04-06T13:00:00	52	17.76	94.88	1895.33	ND	ND	0.6	300	26.4	61.4	348.9	0
10407	2011-04-06T14:00:00	52	17.45	85.10	1657.42	ND	ND	0.9	91.9	27.8	56.5	598.1	0
10408	2011-04-06T15:00:00	41	17.27	53.92	1329.83	ND	ND	0.5	142.1	29.2	50.6	512	0
10409	2011-04-06T16:00:00	64	18.71	73.53	1638.07	ND	ND	1.2	17.1	28.1	53.5	51.4	0
10410	2011-04-06T17:00:00	47	16.52	60.35	1539.51	ND	ND	1.2	265.9	26	62.9	7	0
10411	2011-04-06T18:00:00	37	19.14	87.65	1781.65	ND	ND	3.8	226.9	22	78.6	2.3	0
10412	2011-04-06T19:00:00	20	18.78	74.97	1871.22	ND	ND	2.3	202.3	21.1	87.6	0	4.57
10413	2011-04-06T20:00:00	11	7.29	56.67	1447.19	ND	ND	1	219.8	22.4	77.7	0	1.02
10414	2011-04-06T21:00:00	7	4.62	82.37	2271.22	ND	ND	0.5	5.1	21.6	84.2	0	4.06
10415	2011-04-06T22:00:00	36	4.71	64.44	1981.94	ND	ND	1.1	6.3	20.6	90.9	0	2.29
10416	2011-04-06T23:00:00	34	3.79	57.86	1839.77	ND	ND	0.5	252.1	20.8	90.4	0	0.25
10417	2011-04-07T00:00:00	19	1.47	65.18	1479.59	ND	ND	0.7	230.9	21	89.8	0	0
10418	2011-04-07T01:00:00	10	1.14	60.65	1401.49	ND	ND	0.9	228.3	21.1	83.7	0	0
10419	2011-04-07T02:00:00	7	1.40	56.17	1503.72	ND	ND	0.3	204.8	21.1	85.4	0	0
10420	2011-04-07T03:00:00	3	0.39	17.44	825.35	ND	ND	0.3	221.7	21	86.5	0	0
10421	2011-04-07T04:00:00	2	0.31	23.25	904.18	ND	ND	0.3	133	20.8	92.4	0	0
10422	2011-04-07T05:00:00	11	0.65	22.97	914.86	ND	ND	0.4	217.3	20.5	92.9	0	0
10423	2011-04-07T06:00:00	18	1.32	46.71	1500.65	ND	ND	0.5	224.7	20.6	85.5	0	0
10424	2011-04-07T07:00:00	9	0.67	29.34	1049.68	ND	ND	0.4	247.8	20.9	84.9	18.9	0
10425	2011-04-07T08:00:00	12	1.09	19.80	971.67	ND	ND	0.8	38.1	21.4	87.8	72.4	0.25
10426	2011-04-07T09:00:00	47	2.25	26.72	1641.06	ND	ND	1	86.6	21.7	89.4	161.8	0
10427	2011-04-07T10:00:00	76	5.31	66.85	3194.84	ND	ND	0.5	125.8	22.9	80.1	230	0
10428	2011-04-07T11:00:00	70	4.68	82.75	3082.72	ND	ND	1.2	123.6	23.2	78.5	203.7	0
10429	2011-04-07T12:00:00	89	3.36	91.02	2197.67	ND	ND	1	98.5	23.7	77.1	381.5	0
10430	2011-04-07T13:00:00	49	3.70	114.29	2497.94	ND	ND	0.8	139.2	25.5	66.4	582.9	0
10431	2011-04-07T14:00:00	45	3.70	80.29	2042.60	ND	ND	0.9	143.1	27.3	57.9	831.3	0
10432	2011-04-07T15:00:00	24	2.93	59.22	1500.78	ND	ND	0.4	155.7	27.8	54.4	432.3	0
10433	2011-04-07T16:00:00	79	2.43	44.64	1329.83	ND	ND	0.1	246.5	27.8	55.1	201.9	0
10434	2011-04-07T17:00:00	50	1.72	50.86	1457.03	ND	ND	2.6	265.5	24	76.2	28.7	10.16
10435	2011-04-07T18:00:00	59	2.35	51.79	1518.54	ND	ND	3.1	265.6	23.9	73.4	43.4	0
10436	2011-04-07T19:00:00	31	3.73	76.24	1894.69	ND	ND	1.6	283.3	24.4	63.7	0	0
10437	2011-04-07T20:00:00	46	3.82	44.49	1703.52	ND	ND	0.8	272.1	24.2	63.3	0	0
10438	2011-04-07T21:00:00	26	4.68	51.30	2033.71	ND	ND	1.3	271.3	23.9	64.1	0	0
10439	2011-04-07T22:00:00	43	8.85	55.32	2145.79	ND	ND	1.2	218.4	23.3	70.8	0	0
10440	2011-04-07T23:00:00	27	7.14	42.55	1435.23	ND	ND	1	206.4	22.5	79	0	0
10441	2011-04-08T00:00:00	30	5.87	44.79	1908.47	ND	ND	1	261	22.3	75	0	0
10442	2011-04-08T01:00:00	17	4.67	39.75	1612.02	ND	ND	0.3	283	22.4	74.7	0	0
10443	2011-04-08T02:00:00	13	3.71	30.04	1124.26	ND	ND	0.3	88.3	22.2	77.7	0	0
10444	2011-04-08T03:00:00	17	2.96	26.06	1010.01	ND	ND	0.8	9	22.1	79.8	0	0
10445	2011-04-08T04:00:00	25	3.27	30.36	1123.11	ND	ND	0.3	211.3	21.8	81.3	0	0
10446	2011-04-08T05:00:00	14	3.06	25.62	940.64	ND	ND	0.8	142.1	21.2	86	0	0
10447	2011-04-08T06:00:00	35	3.73	25.44	1017.90	ND	ND	0.7	229.2	21	86.6	0	0
10448	2011-04-08T07:00:00	20	3.46	25.38	1141.53	ND	ND	0.3	124.1	21.1	86.4	16	0
10449	2011-04-08T08:00:00	57	3.47	28.14	1198.45	ND	ND	0.9	84.6	21	89.5	46.3	0.25
10450	2011-04-08T09:00:00	35	4.68	31.64	2057.02	ND	ND	0.4	180	22	82.2	222.4	0
10451	2011-04-08T10:00:00	48	5.91	52.73	3402.22	ND	ND	1.1	175	23.7	73.4	382.2	0
10452	2011-04-08T11:00:00	27	3.29	61.02	2087.32	ND	ND	0.9	140.4	25.7	63.6	644.7	0
10453	2011-04-08T12:00:00	26	2.36	49.76	1584.65	ND	ND	0.9	173.7	27.1	58.2	770.9	0
10454	2011-04-08T13:00:00	14	2.03	47.11	1661.30	ND	ND	1.9	131.2	27.3	58.6	473	0
10455	2011-04-08T14:00:00	39	6.92	39.44	1385.34	ND	ND	0.6	105.3	27.7	57.3	401.5	0
10456	2011-04-08T15:00:00	33	6.03	57.13	1687.74	ND	ND	1.3	348.7	27.4	57	204.5	0
10457	2011-04-08T16:00:00	41	5.34	43.91	1512.83	ND	ND	1.5	27.4	28.4	51.4	414.1	0
10458	2011-04-08T17:00:00	22	6.02	47.59	1459.93	ND	ND	2.7	297.8	27.9	51.9	215.5	0
10459	2011-04-08T18:00:00	31	8.81	52.64	1619.46	ND	ND	2.5	276.2	26.4	58	31.5	0
10460	2011-04-08T19:00:00	17	7.45	33.57	1381.19	ND	ND	3	264.5	25.5	60.8	0	0
10461	2011-04-08T20:00:00	16	5.56	34.37	1468.84	ND	ND	2.5	197.9	24.3	68.6	0	0
10462	2011-04-08T21:00:00	18	4.73	38.65	1600.08	ND	ND	2.1	183.7	22.9	77	0	1.27
10463	2011-04-08T22:00:00	17	3.82	52.40	1524.30	ND	ND	0.6	171.8	21.6	84.2	0	0.76
10464	2011-04-08T23:00:00	9	3.50	56.53	1517.60	ND	ND	0.4	191	21.7	85	0	0
10465	2011-04-09T00:00:00	21	3.06	62.99	1880.65	ND	ND	1	46.9	21.2	89.9	0	0.25
10466	2011-04-09T01:00:00	28	2.59	69.02	1888.77	ND	ND	0.4	47.9	21	91.1	0	0
10467	2011-04-09T02:00:00	42	2.43	51.64	1717.95	ND	ND	0.9	59.8	20.7	92.1	0	0
10468	2011-04-09T03:00:00	24	1.91	48.56	1558.13	ND	ND	0.9	75	20.3	92.9	0	0
10469	2011-04-09T04:00:00	33	2.19	38.37	1285.39	ND	ND	1	27.9	20.5	91.3	0	0
10470	2011-04-09T05:00:00	18	1.86	30.24	1139.59	ND	ND	1.1	60.8	20.4	89.6	0	0
10471	2011-04-09T06:00:00	19	1.21	38.66	1094.09	ND	ND	1.1	60.5	20.3	91.6	0	2.29
10472	2011-04-09T07:00:00	11	1.01	30.77	1150.09	ND	ND	0.7	17	19.7	94.3	13	10.67
10473	2011-04-09T08:00:00	23	1.39	39.87	1372.78	ND	ND	1.1	155.3	20.3	91.4	98.2	0.76
10474	2011-04-09T09:00:00	13	1.50	49.35	1499.63	ND	ND	1.6	161.2	21.1	86.8	212.2	0
10475	2011-04-09T10:00:00	15	3.93	71.10	2770.01	ND	ND	1.5	179	22.6	79.3	282	0
10476	2011-04-09T11:00:00	9	2.39	54.07	2170.49	ND	ND	1.4	139.4	23.5	74.9	337.9	0
10477	2011-04-09T12:00:00	11	1.38	41.96	1664.17	ND	ND	0.7	126.6	25.4	67.2	545.8	0
10478	2011-04-09T13:00:00	14	1.50	58.62	1904.26	ND	ND	0.4	57.4	26.7	59.8	395.7	0
10479	2011-04-09T14:00:00	18	1.08	48.72	1566.91	ND	ND	0.7	283.1	26.7	60.3	318.1	0
10480	2011-04-09T15:00:00	16	1.13	42.11	1428.66	ND	ND	1	342.5	24.9	69.7	164.6	10.16
10481	2011-04-09T16:00:00	34	1.94	41.44	1557.50	ND	ND	0.8	41.6	22.4	86	42.8	13.46
10482	2011-04-09T17:00:00	27	1.82	53.17	1703.42	ND	ND	0.7	301.9	23.6	74	41.2	0
10483	2011-04-09T18:00:00	18	5.27	117.39	3352.26	ND	ND	1.6	242.9	23.4	73.1	6	0.25
10484	2011-04-09T19:00:00	10	5.19	70.55	2404.25	ND	ND	1.8	283.1	23.6	68.5	0	0
10485	2011-04-09T20:00:00	6	4.69	51.36	2200.63	ND	ND	0.8	216.2	23.2	72.1	0	0
10486	2011-04-09T21:00:00	20	3.05	40.64	1673.87	ND	ND	2.1	188.7	21.4	85	0	0
10487	2011-04-09T22:00:00	17	4.71	47.54	2161.68	ND	ND	1.7	205.4	20.8	89.8	0	0.25
10488	2011-04-09T23:00:00	11	4.42	42.45	1615.13	ND	ND	2.1	204.6	20.2	91.3	0	2.79
10489	2011-04-10T00:00:00	7	3.40	33.08	1262.41	ND	ND	0.8	223.5	19.6	95	0	10.67
10490	2011-04-10T01:00:00	5	2.88	37.67	1349.82	ND	ND	0.6	221.6	19.5	96.1	0	15.75
10491	2011-04-10T02:00:00	4	1.80	32.85	1135.71	ND	ND	0.4	114.4	19	96.2	0	11.68
10492	2011-04-10T03:00:00	4	1.46	28.90	1077.64	ND	ND	0.8	73.6	18.7	96.8	0	4.57
10493	2011-04-10T04:00:00	2	1.05	18.77	908.32	ND	ND	0.5	190.6	18.6	96.9	0	6.6
10494	2011-04-10T05:00:00	1	0.72	17.14	908.01	ND	ND	1.3	203.1	18.7	96	0	1.52
10495	2011-04-10T06:00:00	ND	0.90	21.52	975.61	ND	ND	1.1	227.6	19	95	0	1.02
10496	2011-04-10T07:00:00	2	0.62	12.35	864.36	ND	ND	0.7	213.1	19.3	91.7	9.1	0.25
10497	2011-04-10T08:00:00	2	0.77	12.86	854.01	ND	ND	0.6	163.1	19.8	89.6	67.3	0
10498	2011-04-10T09:00:00	3	1.78	23.21	1316.97	ND	ND	1	148.7	20.2	88.6	164.9	0.25
10499	2011-04-10T10:00:00	3	3.04	55.95	2119.05	ND	ND	0.9	116	21	84.3	230.6	0
10500	2011-04-10T11:00:00	5	2.20	44.69	1582.32	ND	ND	0.9	106.9	21.4	81.8	226	0
10501	2011-04-10T12:00:00	4	2.23	35.50	1369.44	ND	ND	1.1	25.9	21.9	80.2	194.5	0
10502	2011-04-10T13:00:00	3	2.96	35.88	1394.44	ND	ND	1	32.9	22.1	80.3	212.7	0
10503	2011-04-10T14:00:00	13	4.70	35.31	1259.25	ND	ND	0.9	64.6	22.8	77.8	290.7	0
10504	2011-04-10T15:00:00	15	5.80	44.42	1478.29	ND	ND	0.4	40.3	24	70.3	358.3	0
10505	2011-04-10T16:00:00	17	20.68	53.52	1415.79	ND	ND	0.5	63.9	24.3	69.5	263.5	0
10506	2011-04-10T17:00:00	9	95.00	55.02	1188.63	ND	ND	0.3	61.4	24.7	67.6	129.1	0
10507	2011-04-10T18:00:00	7	52.33	37.14	1190.23	ND	ND	0.9	72	23.9	71.3	36.1	0
10508	2011-04-10T19:00:00	5	25.77	31.28	1164.21	ND	ND	0.3	86.7	23.3	74.5	0.1	0
10509	2011-04-10T20:00:00	15	12.87	59.63	1617.48	ND	ND	0.1	231.1	22.8	79.1	0	0
10510	2011-04-10T21:00:00	22	8.58	59.19	1751.21	ND	ND	0.6	245.1	22.2	82	0	0
10511	2011-04-10T22:00:00	13	6.72	70.79	2088.11	ND	ND	0.7	241.7	21.9	79.4	0	0
10512	2011-04-10T23:00:00	8	5.73	45.70	1881.93	ND	ND	0.8	244.3	21.7	80	0	0
10513	2011-04-11T00:00:00	9	4.82	26.11	1688.05	ND	ND	0.5	226.6	21.5	79.6	0	0
10514	2011-04-11T01:00:00	6	5.49	25.78	1324.62	ND	ND	0.1	226.8	21.6	81.1	0	0
10515	2011-04-11T02:00:00	16	4.92	21.52	1177.84	ND	ND	0.1	173.9	21.4	86.2	0	0
10516	2011-04-11T03:00:00	9	4.09	27.13	1290.22	ND	ND	0.5	236.9	21.2	82.7	0	0
10517	2011-04-11T04:00:00	17	3.57	30.62	1323.27	ND	ND	0.4	210.8	21.1	83.6	0	0
10518	2011-04-11T05:00:00	10	3.70	14.57	1006.25	ND	ND	0.3	148.7	20.9	86.2	0	0
10519	2011-04-11T06:00:00	6	3.33	16.90	1028.16	ND	ND	0.7	20.3	20.9	86.6	0	0
10520	2011-04-11T07:00:00	9	2.89	24.02	971.67	ND	ND	1.8	22.4	20.6	90.8	29	0
10521	2011-04-11T08:00:00	44	3.67	37.09	1422.15	ND	ND	1.5	29.7	21	87.4	96.4	0
10522	2011-04-11T09:00:00	32	4.86	44.86	2113.53	ND	ND	0.9	36.8	22.3	79.3	247.8	0
10523	2011-04-11T10:00:00	33	5.48	49.53	2111.52	ND	ND	0.8	147.5	23.5	74.5	291.1	0
10524	2011-04-11T11:00:00	28	9.44	40.38	1459.00	ND	ND	1	199.8	24	72.5	327.5	0
10525	2011-04-11T12:00:00	27	19.90	62.02	1758.32	ND	ND	0.8	219.1	26.2	59.5	770.9	0
10526	2011-04-11T13:00:00	15	16.26	67.02	1702.33	ND	ND	0.9	176.5	27	55.8	510.9	0
10527	2011-04-11T14:00:00	13	19.26	39.08	1245.56	ND	ND	0.6	148.6	28.4	51.2	720.1	0
10528	2011-04-11T15:00:00	13	12.06	46.31	1425.17	ND	ND	1.5	23.7	28.4	53.1	364.4	0
10529	2011-04-11T16:00:00	34	10.20	46.67	1459.93	ND	ND	1.9	310.5	28.4	51.6	351.3	0
10530	2011-04-11T17:00:00	19	21.49	74.39	1749.60	ND	ND	3.4	274.5	26.7	56.8	95.9	0
10531	2011-04-11T18:00:00	21	12.73	45.46	1440.18	ND	ND	3.1	272.1	25.7	59.8	27.4	0
10532	2011-04-11T19:00:00	12	7.77	24.62	1423.89	ND	ND	2.1	270.8	24.9	63.1	0	0
10533	2011-04-11T20:00:00	7	6.89	28.07	1523.15	ND	ND	2.3	285.9	24.8	62	0	0
10534	2011-04-11T21:00:00	5	6.10	30.91	1579.88	ND	ND	2.7	211.3	23.1	74	0	0
10535	2011-04-11T22:00:00	4	4.87	26.87	1172.45	ND	ND	2.1	198.5	22.1	80.8	0	0
10536	2011-04-11T23:00:00	3	3.97	28.39	1191.18	ND	ND	1.4	192.1	21.7	84.5	0	0
10537	2011-04-12T00:00:00	4	3.29	37.05	1370.83	ND	ND	0.9	224.1	21	87.9	0	0.25
10538	2011-04-12T01:00:00	3	3.85	39.04	1638.83	ND	ND	0.6	333.4	21.5	84.9	0	0
10539	2011-04-12T02:00:00	7	3.16	29.04	1245.37	ND	ND	1.2	9.1	21.1	88.9	0	0
10540	2011-04-12T03:00:00	7	2.48	25.28	1040.17	ND	ND	0.7	357.7	20.9	89	0	0
10541	2011-04-12T04:00:00	15	7.44	34.77	1220.23	ND	ND	0.4	128.9	20.7	88.7	0	0
10542	2011-04-12T05:00:00	9	14.46	34.77	1038.75	ND	ND	1.2	144.6	20.4	91.3	0	0
10543	2011-04-12T06:00:00	14	13.62	27.85	1071.53	ND	ND	1.5	194.2	20	93	0	11.68
10544	2011-04-12T07:00:00	8	7.75	17.24	923.64	ND	ND	0.8	181.4	19.2	96.9	8.2	20.07
10545	2011-04-12T08:00:00	9	5.34	14.48	921.11	ND	ND	0.9	204.7	19.5	95.9	45.2	2.54
10546	2011-04-12T09:00:00	6	4.63	38.03	1967.81	ND	ND	0.3	247	20.2	92.7	131.4	2.54
10547	2011-04-12T10:00:00	4	3.82	38.34	2051.42	ND	ND	0.3	213.5	21.5	84.9	209.3	0
10548	2011-04-12T11:00:00	4	3.81	41.77	1902.02	ND	ND	0.3	297.5	22.7	77.2	285.3	0
10549	2011-04-12T12:00:00	4	3.38	45.90	1773.35	ND	ND	0.5	223.5	23.6	71.2	420.7	0
10550	2011-04-12T13:00:00	2	3.10	77.36	1938.38	ND	ND	0.1	73	25.4	63.3	567.5	0
10551	2011-04-12T14:00:00	1	3.04	57.62	1628.95	ND	ND	0.9	85.9	26.6	58.7	484.4	0
10552	2011-04-12T15:00:00	2	2.98	68.32	1647.01	ND	ND	1.2	2.1	27	57	424.4	0
10553	2011-04-12T16:00:00	8	4.67	87.77	1926.00	ND	ND	0.7	193.5	26	61.6	141.4	0
10554	2011-04-12T17:00:00	15	49.37	63.57	1379.34	ND	ND	0.6	107.9	21.7	85.4	76.1	2.54
10555	2011-04-12T18:00:00	13	46.64	68.77	1654.06	ND	ND	0.2	142.7	21.7	86.2	21.9	2.79
10556	2011-04-12T19:00:00	7	12.75	56.70	2265.84	ND	ND	1.9	17	21.1	88.8	0	0
10557	2011-04-12T20:00:00	8	10.55	51.73	2600.41	ND	ND	0.5	159.1	21.2	88.9	0	0
10558	2011-04-12T21:00:00	8	8.90	61.92	3212.04	ND	ND	0.8	171	21	88.3	0	0.25
10559	2011-04-12T22:00:00	21	8.53	52.42	2904.69	ND	ND	1.7	171.7	20.2	94.3	0	2.79
10560	2011-04-12T23:00:00	12	6.73	48.90	2615.00	ND	ND	1.2	181.4	19.7	96.5	0	9.4
10561	2011-04-13T00:00:00	7	4.61	43.51	1890.39	ND	ND	1.1	156.6	19.5	97.3	0	4.06
10562	2011-04-13T01:00:00	5	3.01	37.73	1529.27	ND	ND	1.3	176	19.3	97.5	0	10.16
10563	2011-04-13T02:00:00	3	2.31	29.67	1134.93	ND	ND	1	181.7	19.1	98.5	0	8.13
10564	2011-04-13T03:00:00	3	1.67	13.33	976.95	ND	ND	0.8	192.5	19.2	98.2	0	1.27
10565	2011-04-13T04:00:00	1	1.39	5.12	741.38	ND	ND	0.1	165.9	19.2	96.8	0	0
10566	2011-04-13T05:00:00	2	1.36	3.62	752.62	ND	ND	0.4	53.5	19.3	95.5	0	0.25
10567	2011-04-13T06:00:00	2	1.03	13.63	764.11	ND	ND	0.7	79.7	19.2	95.9	0	0
10568	2011-04-13T07:00:00	19	1.85	28.72	921.11	ND	ND	0.8	95.1	19.2	95.6	55.5	0
10569	2011-04-13T08:00:00	22	2.90	33.41	1314.27	ND	ND	0.6	86	20.5	87.8	189.9	0
10570	2011-04-13T09:00:00	13	4.44	40.66	2324.31	ND	ND	0.8	74	21.2	83.4	232.1	0
10571	2011-04-13T10:00:00	15	3.93	48.49	2329.86	ND	ND	0.7	30.3	22.3	77.7	312	0
10572	2011-04-13T11:00:00	10	3.79	56.03	2066.11	ND	ND	0.6	40	23.6	69.7	443.1	0
10573	2011-04-13T12:00:00	6	3.00	50.63	1470.89	ND	ND	0.8	145.3	24.3	66.5	419.3	0
10574	2011-04-13T13:00:00	6	3.03	43.63	1337.21	ND	ND	1.2	126.2	26.3	59.3	902.2	0
10575	2011-04-13T14:00:00	15	3.58	60.44	1461.27	ND	ND	1.4	116.8	28.1	53.1	887.3	0
10576	2011-04-13T15:00:00	8	5.27	52.30	1389.03	ND	ND	1	64.7	28.2	51.9	349.7	0
10577	2011-04-13T16:00:00	26	14.43	64.15	1435.81	ND	ND	0.9	192.8	25.1	72	159.4	4.32
10578	2011-04-13T17:00:00	44	23.69	58.07	1352.27	ND	ND	0.7	184.4	25.7	69.1	68.6	0
10579	2011-04-13T18:00:00	84	11.37	97.66	2147.32	ND	ND	0.6	279.2	26.6	62.2	99.3	0
10580	2011-04-13T19:00:00	43	12.07	184.53	3305.55	ND	ND	2.3	272.1	25.7	60.1	1.6	0
10581	2011-04-13T20:00:00	32	12.63	151.14	3054.47	ND	ND	2.5	263.6	24.9	63.9	0	0
10582	2011-04-13T21:00:00	17	10.35	33.85	1568.96	ND	ND	1.9	274.3	24.4	65.7	0	0
10583	2011-04-13T22:00:00	9	9.47	33.80	1406.26	ND	ND	1.9	260.1	24.1	66.3	0	0
10584	2011-04-13T23:00:00	6	6.77	29.27	1199.25	ND	ND	1.2	249.6	23.4	68.2	0	0
10585	2011-04-14T00:00:00	4	5.26	16.34	968.54	ND	ND	1	246.2	22.5	75	0	0
10586	2011-04-14T01:00:00	3	4.65	16.44	715.68	ND	ND	1.6	265.2	21.8	75	0	0
10587	2011-04-14T02:00:00	4	5.65	45.24	1382.63	ND	ND	0.8	300.9	21.7	75.5	0	0
10588	2011-04-14T03:00:00	11	4.56	15.94	838.36	ND	ND	0.4	48.5	21	84.5	0	0
10589	2011-04-14T04:00:00	24	4.08	7.92	779.86	ND	ND	0.2	296.7	20.8	87.3	0	0
10590	2011-04-14T05:00:00	27	5.17	32.57	1457.00	ND	ND	0.6	320.6	21.2	81.5	0	0
10591	2011-04-14T06:00:00	42	5.69	25.03	1673.88	ND	ND	0.1	194.1	20.8	84.5	0	0
10592	2011-04-14T07:00:00	32	6.10	23.40	1897.49	ND	ND	1.1	236.6	20.7	77.8	55.6	0
10593	2011-04-14T08:00:00	45	9.89	39.63	3071.09	ND	ND	0.8	176.6	21.9	72.2	110	0
10594	2011-04-14T09:00:00	39	11.59	26.65	2641.50	ND	ND	0.6	162	22.8	73.9	210.7	0
10595	2011-04-14T10:00:00	52	13.03	44.81	3343.22	ND	ND	0.6	128.5	25.3	66.1	598.5	0
10596	2011-04-14T11:00:00	31	14.27	93.78	3382.94	ND	ND	1.5	130.2	26.6	60.6	605.7	0
10597	2011-04-14T12:00:00	48	21.50	85.53	2038.61	ND	ND	0.6	109.1	27.7	55.5	686.5	0
10598	2011-04-14T13:00:00	25	23.40	65.68	1803.34	ND	ND	1	80.1	28.5	52.6	455.7	0
10599	2011-04-14T14:00:00	43	20.02	53.51	1472.01	ND	ND	1.2	309.8	28.2	53	272.7	0
10600	2011-04-14T15:00:00	23	14.96	63.28	1516.86	ND	ND	2.2	236.8	27.3	55	163.6	0
10601	2011-04-14T16:00:00	13	12.70	30.65	1212.17	ND	ND	2.8	270.2	28	51.1	314.6	0
10602	2011-04-14T17:00:00	7	9.58	30.65	1596.85	ND	ND	3.3	264.1	27.8	52.2	166	0
10603	2011-04-14T18:00:00	18	12.59	25.65	1642.05	ND	ND	3.3	265.7	26.3	57.4	37	0
10604	2011-04-14T19:00:00	10	11.11	17.97	1357.71	ND	ND	2.3	261	25.6	60.5	0.5	0
10605	2011-04-14T20:00:00	9	8.32	23.16	1664.48	ND	ND	1.3	277.8	25.2	63.7	0	0
10606	2011-04-14T21:00:00	31	8.10	26.10	1742.49	ND	ND	0.5	82.6	24	74.1	0	0.25
10607	2011-04-14T22:00:00	75	6.84	27.22	1541.38	ND	ND	0.5	131.9	23.6	74.6	0	0.25
10608	2011-04-14T23:00:00	58	9.86	52.47	2519.90	ND	ND	1.6	184	23.2	75.6	0	0
10609	2011-04-15T00:00:00	54	12.06	53.99	2915.04	ND	ND	1.6	194.4	23.3	74.6	0	0
10610	2011-04-15T01:00:00	29	8.49	43.82	1754.17	ND	ND	0.3	202.2	22.7	79.5	0	0
10611	2011-04-15T02:00:00	22	6.60	31.40	1193.60	ND	ND	1.1	178.7	21.9	83.9	0	0.76
10612	2011-04-15T03:00:00	12	5.91	36.16	1473.80	ND	ND	0.6	172.8	20.6	92.7	0	4.57
10613	2011-04-15T04:00:00	17	4.80	19.65	993.25	ND	ND	0.4	156	20.6	94.6	0	2.03
10614	2011-04-15T05:00:00	9	3.49	7.00	891.67	ND	ND	0.6	154.3	20.6	95.3	0	0
10615	2011-04-15T06:00:00	4	3.05	13.23	1094.83	ND	ND	1	170.8	20.6	94.6	0	0.25
10616	2011-04-15T07:00:00	17	3.10	21.06	1196.41	ND	ND	1.1	174.3	20.6	94.3	15.4	1.02
10617	2011-04-15T08:00:00	12	3.51	31.45	1399.58	ND	ND	1.2	145.9	20.8	92.7	64.3	0
10618	2011-04-15T09:00:00	7	4.75	41.76	2258.92	ND	ND	1.3	148.2	21	91.2	72.3	0
10619	2011-04-15T10:00:00	26	6.18	58.79	3334.18	ND	ND	1.2	87.8	21.1	88.9	152.1	0
10620	2011-04-15T11:00:00	25	5.25	48.16	2374.29	ND	ND	1.6	33.1	21.9	85.1	299.9	0
10621	2011-04-15T12:00:00	16	5.21	47.81	2006.63	ND	ND	1.3	17.8	23.5	77.5	464.4	0
10622	2011-04-15T13:00:00	8	6.75	52.23	1857.94	ND	ND	1.1	66.6	24.9	70	537.6	0
10623	2011-04-15T14:00:00	14	8.07	43.74	1385.72	ND	ND	0.6	109	26.1	63.2	615.7	0
10624	2011-04-15T15:00:00	8	7.76	67.24	1701.76	ND	ND	1.8	138.6	25.9	65.6	103.5	0
10625	2011-04-15T16:00:00	23	5.05	47.34	1355.90	ND	ND	2.9	185.6	24.3	73.4	92.8	0
10626	2011-04-15T17:00:00	21	4.81	66.42	1885.81	ND	ND	2.2	184.9	23.8	70.6	33.3	0
10627	2011-04-15T18:00:00	40	6.65	51.53	1973.92	ND	ND	1.8	102.9	22.4	82.3	11	0
10628	2011-04-15T19:00:00	34	5.71	50.82	1828.34	ND	ND	1.1	352.4	21.2	84.6	0	0.25
10629	2011-04-15T20:00:00	19	5.02	51.58	2589.99	ND	ND	0.9	282.5	21.7	83.4	0	0.25
10630	2011-04-15T21:00:00	36	4.72	53.92	2379.13	ND	ND	1	70.4	21	89.2	0	0
10631	2011-04-15T22:00:00	105	4.47	41.31	1819.67	ND	ND	0.7	63.4	20.4	93	0	4.83
10632	2011-04-15T23:00:00	53	5.19	41.04	2312.24	ND	ND	0.7	42.4	20.1	93.4	0	0.51
10633	2011-04-16T00:00:00	28	5.08	36.51	2208.47	ND	ND	0.7	257.4	20	90.8	0	1.52
10634	2011-04-16T01:00:00	15	5.49	38.59	1768.43	ND	ND	0.3	231.2	20.1	89.4	0	0
10635	2011-04-16T02:00:00	8	4.74	30.03	1205.64	ND	ND	0.8	234	20.1	89.9	0	0
10636	2011-04-16T03:00:00	5	3.84	22.86	1138.04	ND	ND	0.4	194.8	20.1	92.5	0	0
10637	2011-04-16T04:00:00	11	3.53	20.84	1228.18	ND	ND	0.4	129.6	20	93.3	0	0.25
10638	2011-04-16T05:00:00	11	4.15	28.00	1554.41	ND	ND	0.9	92.3	19.8	94.3	0	0
10639	2011-04-16T06:00:00	16	4.22	26.02	1452.05	ND	ND	0.3	48.6	19.4	94.9	0	7.11
10640	2011-04-16T07:00:00	20	3.81	22.21	1236.49	ND	ND	0.1	173.2	19.8	94	3.3	0
10641	2011-04-16T08:00:00	18	3.73	28.63	1316.97	ND	ND	0.5	174.5	20.3	92.1	76.2	0.25
10642	2011-04-16T09:00:00	11	3.97	30.03	1691.31	ND	ND	0.7	160.7	21.3	87.2	164.7	0
10643	2011-04-16T10:00:00	16	4.79	44.29	2409.85	ND	ND	1	175	22.3	80.2	278.7	0
10644	2011-04-16T11:00:00	19	4.91	65.25	2576.97	ND	ND	1.6	160.4	23	78	367.4	0
10645	2011-04-16T12:00:00	22	4.81	69.69	2298.60	ND	ND	1.1	174.3	24.1	69.9	463.7	0
10646	2011-04-16T13:00:00	13	4.39	54.45	1930.23	ND	ND	0.7	136.9	25.3	62.9	630.2	0
10647	2011-04-16T14:00:00	16	3.07	46.08	1513.72	ND	ND	0.6	155.7	26.5	56.5	613.6	0
10648	2011-04-16T15:00:00	10	2.79	44.71	1278.02	ND	ND	0.9	186.2	27.9	51.9	676.7	0
10649	2011-04-16T16:00:00	11	3.02	35.18	1364.97	ND	ND	0.5	93.9	27.8	52.4	188.4	0
10650	2011-04-16T17:00:00	21	3.31	41.06	1329.83	ND	ND	1.3	5.1	26.6	58.8	27.6	0
10651	2011-04-16T18:00:00	52	3.64	48.46	1520.32	ND	ND	3	261.1	24.9	65.8	9.5	0
10652	2011-04-16T19:00:00	27	5.81	108.39	2107.21	ND	ND	1.8	271	24.5	65.8	0	0
10653	2011-04-16T20:00:00	39	6.12	57.80	1669.78	ND	ND	0.8	64.3	24	71.2	0	0
10654	2011-04-16T21:00:00	30	9.35	33.75	1495.71	ND	ND	1.1	48.9	23.2	75.1	0	0
10655	2011-04-16T22:00:00	28	19.79	48.73	2345.70	ND	ND	0.7	236.7	22.5	80.8	0	0
10656	2011-04-16T23:00:00	19	19.56	43.76	2271.99	ND	ND	2.2	193	21.7	85.6	0	0
10657	2011-04-17T00:00:00	24	12.49	37.61	1665.39	ND	ND	1.9	189.9	21.2	86.2	0	0
10658	2011-04-17T01:00:00	12	7.22	34.73	1413.75	ND	ND	1.5	189.5	21	87.9	0	0
10659	2011-04-17T02:00:00	6	5.76	34.95	1198.04	ND	ND	1	207.5	20.9	88.3	0	0
10660	2011-04-17T03:00:00	5	5.43	22.66	960.37	ND	ND	0.9	206.6	21	86.9	0	0
10661	2011-04-17T04:00:00	12	5.20	15.78	858.97	ND	ND	1	254.4	21	84.9	0	0
10662	2011-04-17T05:00:00	8	4.63	15.27	994.60	ND	ND	0.7	254.7	21	83.2	0	0
10663	2011-04-17T06:00:00	15	4.94	17.86	1435.39	ND	ND	0.5	217	20.9	81.8	0	0
10664	2011-04-17T07:00:00	9	5.48	13.04	1254.13	ND	ND	0.9	185.5	20.8	86.2	7.8	0
10665	2011-04-17T08:00:00	21	6.74	10.40	1377.94	ND	ND	1.2	194.7	20.9	87.4	19.9	0
10666	2011-04-17T09:00:00	24	5.84	22.48	1785.16	ND	ND	0.9	155.8	21.2	86.4	42.3	0
10667	2011-04-17T10:00:00	37	6.31	27.24	1549.47	ND	ND	0.6	142.9	21.6	84.9	63.7	0
10668	2011-04-17T11:00:00	21	8.34	34.45	1710.13	ND	ND	1	111.5	20.6	91.6	117.4	4.83
10669	2011-04-17T12:00:00	36	8.08	32.97	1659.18	ND	ND	0.5	56.3	21.3	89.8	123.2	1.02
10670	2011-04-17T13:00:00	20	7.63	46.04	1855.47	ND	ND	0.9	16	21.9	87	313.2	0.25
10671	2011-04-17T14:00:00	11	6.95	43.48	1575.83	ND	ND	0.8	270.8	24.3	71.4	714.9	0
10672	2011-04-17T15:00:00	7	8.21	46.51	1577.22	ND	ND	1.3	196.3	26.5	59.4	722.4	0
10673	2011-04-17T16:00:00	8	11.01	34.49	1289.54	ND	ND	2.2	156.3	26	66.6	314.8	0
10674	2011-04-17T17:00:00	5	4.68	24.09	1160.95	ND	ND	1.6	173.4	25.8	64.3	190.3	0
10675	2011-04-17T18:00:00	10	3.91	29.08	1183.14	ND	ND	1.3	185.9	25.1	67.5	62.2	0
10676	2011-04-17T19:00:00	10	4.12	26.11	1191.83	ND	ND	1.3	162.6	24.3	70.6	0.6	0
10677	2011-04-17T20:00:00	32	5.12	27.79	1177.20	ND	ND	0.9	198.3	23.6	75.7	0	0
10678	2011-04-17T21:00:00	25	8.66	69.90	1847.17	ND	ND	0.5	260.2	22.9	78.1	0	0
10679	2011-04-17T22:00:00	29	10.41	68.17	1820.05	ND	ND	0.2	10	22.7	78.8	0	0
10680	2011-04-17T23:00:00	49	8.87	45.81	1921.13	ND	ND	0.6	5.8	21.9	85.3	0	0
10681	2011-04-18T00:00:00	66	7.83	53.18	2301.39	ND	ND	0.2	329.2	21.9	82.9	0	0
10682	2011-04-18T01:00:00	40	7.31	57.01	2358.08	ND	ND	0.2	179.4	21.8	81.8	0	0
10683	2011-04-18T02:00:00	43	7.23	53.01	1960.62	ND	ND	0.4	220.2	21.5	82.8	0	0
10684	2011-04-18T03:00:00	25	7.10	33.47	1709.55	ND	ND	0.7	223.5	21.3	81	0	0
10685	2011-04-18T04:00:00	14	6.73	27.77	1470.80	ND	ND	0.6	208.5	21.1	80.2	0	0
10686	2011-04-18T05:00:00	8	6.85	16.34	1209.76	ND	ND	0.3	14.9	21	82.7	0	0
10687	2011-04-18T06:00:00	16	6.46	13.51	1028.51	ND	ND	0	235.9	21	84.7	0	0
10688	2011-04-18T07:00:00	16	5.64	13.14	1164.14	ND	ND	0.7	57.5	20.9	84.6	9.5	0
10689	2011-04-18T08:00:00	73	6.54	21.01	1446.20	ND	ND	0.9	20.3	21	88.5	46.3	0
10690	2011-04-18T09:00:00	91	8.61	26.31	2294.37	ND	ND	0.4	59.5	22	84	137.3	0
10691	2011-04-18T10:00:00	106	14.79	41.54	2937.25	ND	ND	0.5	121.7	24.4	71	484.4	0
10692	2011-04-18T11:00:00	60	52.40	79.98	3418.47	ND	ND	1.2	117.3	26.6	60.7	694.6	0
10693	2011-04-18T12:00:00	47	65.23	96.99	2464.76	ND	ND	0.3	185.9	27.6	54.7	591.7	0
10694	2011-04-18T13:00:00	24	21.14	63.42	1837.41	ND	ND	2.5	297.7	26.4	55.7	255.6	0
10695	2011-04-18T14:00:00	14	17.95	52.45	1519.31	ND	ND	2.7	305.9	28.1	49.7	835.3	0
10696	2011-04-18T15:00:00	9	13.26	33.44	1319.58	ND	ND	3.8	289.7	28.6	47.9	656.8	0
10697	2011-04-18T16:00:00	5	9.39	13.00	1043.50	ND	ND	3.8	270.4	26.8	53.8	303	0
10698	2011-04-18T17:00:00	3	8.01	12.83	1094.90	ND	ND	2.9	168.8	21.6	85	3	5.84
10699	2011-04-18T18:00:00	22	7.49	17.67	1189.16	ND	ND	0.8	123.4	20.5	91.8	0	12.7
10700	2011-04-18T19:00:00	24	10.68	36.84	1794.01	ND	ND	1.7	59.7	19.7	94.3	0	8.64
10701	2011-04-18T20:00:00	13	9.32	42.96	2284.22	ND	ND	1.9	33.6	19.4	95.2	0	3.81
10702	2011-04-18T21:00:00	8	7.58	50.73	2293.12	ND	ND	1.3	21.8	19.5	92.3	0	0.25
10703	2011-04-18T22:00:00	5	6.87	49.86	1877.85	ND	ND	0.3	323.7	19.7	89.6	0	0.51
10704	2011-04-18T23:00:00	5	6.18	47.17	1631.59	ND	ND	1	246.3	19.9	88.2	0	0.51
10705	2011-04-19T00:00:00	3	7.52	45.56	1362.46	ND	ND	0.9	270.2	20	88.6	0	0.25
10706	2011-04-19T01:00:00	2	7.75	32.04	1115.12	ND	ND	0.3	14.6	20	90.1	0	0
10707	2011-04-19T02:00:00	1	6.23	28.02	1058.80	ND	ND	0.2	13.6	19.8	93.2	0	0
10708	2011-04-19T03:00:00	2	6.23	31.26	1181.90	ND	ND	0.6	204.6	20	87.6	0	0
10709	2011-04-19T04:00:00	2	6.90	33.41	1216.50	ND	ND	1.3	133.8	19.6	93.5	0	0.25
10710	2011-04-19T05:00:00	17	7.82	10.32	899.88	ND	ND	0.8	134.1	19.3	95.1	0	0.25
10711	2011-04-19T06:00:00	9	6.35	22.80	1202.35	ND	ND	0.6	135.4	19.3	93.5	0	0.25
10712	2011-04-19T07:00:00	6	5.73	22.82	1146.17	ND	ND	0.5	142.1	19.5	91.4	15.3	0
10713	2011-04-19T08:00:00	4	7.15	31.93	1518.03	ND	ND	0.4	108.8	20	88.4	90.2	0
10714	2011-04-19T09:00:00	7	9.17	40.35	2151.40	ND	ND	0.3	129.7	21.1	82.9	249.9	0
10715	2011-04-19T10:00:00	23	11.35	50.22	2464.74	ND	ND	0.3	150.9	23.2	72.7	459.6	0
10716	2011-04-19T11:00:00	13	14.38	59.18	2072.41	ND	ND	1.3	104.3	24.5	66.5	423	0
10717	2011-04-19T12:00:00	23	12.58	55.92	1761.28	ND	ND	1.1	46.7	24.7	67.6	383.5	0
10718	2011-04-19T13:00:00	11	15.10	84.52	2071.46	ND	ND	0.8	95.4	26.4	59.5	711.3	0
10719	2011-04-19T14:00:00	6	13.69	50.11	1484.78	ND	ND	1	54.1	27.4	56.1	479.8	0
10720	2011-04-19T15:00:00	5	14.05	47.05	1431.99	ND	ND	0.7	46.4	27.6	56.1	254.4	0
10721	2011-04-19T16:00:00	25	16.04	50.46	1386.72	ND	ND	0.6	53.8	27.2	57.9	118.9	0
10722	2011-04-19T17:00:00	36	17.79	62.25	1511.82	ND	ND	1.2	337	26.9	58.2	150.5	0
10723	2011-04-19T18:00:00	37	26.58	78.32	1902.30	ND	ND	2.7	271.5	25.6	60.6	58.2	0
10724	2011-04-19T19:00:00	19	42.87	84.81	2031.81	ND	ND	2.7	266.7	24.5	62.5	0.4	0
10725	2011-04-19T20:00:00	20	13.55	31.38	1578.29	ND	ND	2.2	249.3	24	63.8	0	0
10726	2011-04-19T21:00:00	11	10.03	37.58	1701.23	ND	ND	2.3	202.2	21.9	74	0	0
10727	2011-04-19T22:00:00	7	6.51	28.78	1269.73	ND	ND	2.5	199.1	20.5	86.9	0	0
10728	2011-04-19T23:00:00	4	5.65	44.06	1320.12	ND	ND	1.4	170.7	19.9	93.8	0	4.06
10729	2011-04-20T00:00:00	3	3.73	27.25	1114.74	ND	ND	1.1	148.8	19.4	96.1	0	7.11
10730	2011-04-20T01:00:00	1	3.29	34.00	1202.76	ND	ND	0.4	150.5	19.3	96.6	0	7.11
10731	2011-04-20T02:00:00	1	2.83	23.06	1033.80	ND	ND	0.3	36.9	19.4	96.5	0	8.89
10732	2011-04-20T03:00:00	2	2.93	16.47	899.26	ND	ND	0.7	43.9	19.4	96.2	0	4.32
10733	2011-04-20T04:00:00	2	2.88	23.05	1079.12	ND	ND	0.7	19.6	19.4	96.5	0	3.05
10734	2011-04-20T05:00:00	3	2.73	19.40	899.26	ND	ND	0.5	56.1	19.3	96.2	0	0.51
10735	2011-04-20T06:00:00	2	2.70	22.35	977.61	ND	ND	0.3	94.1	19.3	96.3	0	0
10736	2011-04-20T07:00:00	2	3.26	25.03	1000.09	ND	ND	0.7	146.1	19.5	96	6	0.25
10737	2011-04-20T08:00:00	19	5.25	32.44	1518.03	ND	ND	1.1	146.7	19.7	95.1	66	0.25
10738	2011-04-20T09:00:00	11	7.21	38.85	2430.50	ND	ND	0.6	145.9	20.6	88.9	187.6	0
10739	2011-04-20T10:00:00	18	6.43	39.95	2471.84	ND	ND	1	65.2	21.9	82.9	297.2	0
10740	2011-04-20T11:00:00	10	5.19	39.87	1893.26	ND	ND	1	73.8	22.5	78.8	208.7	0
10741	2011-04-20T12:00:00	11	4.57	52.50	1828.95	ND	ND	1.2	63.8	23.2	75.3	343.1	0
10742	2011-04-20T13:00:00	7	3.49	60.30	1935.77	ND	ND	1.4	73.2	24.7	69.4	496.4	0
10743	2011-04-20T14:00:00	9	3.72	58.50	1831.13	ND	ND	0.7	35.9	26	63.3	470.7	0
10744	2011-04-20T15:00:00	7	4.68	59.74	1701.19	ND	ND	0.7	223.5	26.3	62.3	313.2	0
10745	2011-04-20T16:00:00	12	10.58	41.96	1242.65	ND	ND	2.7	281.2	25.9	58.4	249.6	0
10746	2011-04-20T17:00:00	7	17.66	46.49	1367.39	ND	ND	3.9	260.6	23.7	66.5	54.4	0
10747	2011-04-20T18:00:00	6	17.56	24.72	1300.30	ND	ND	2.7	242	22.3	75.1	25.7	0.25
10748	2011-04-20T19:00:00	9	11.53	24.43	1419.03	ND	ND	1.4	161.7	21.8	81	0.2	0
10749	2011-04-20T20:00:00	16	8.76	29.16	1620.63	ND	ND	0.5	195.6	21.5	83.5	0	1.27
10750	2011-04-20T21:00:00	10	9.30	64.35	2932.27	ND	ND	0.1	74.5	21.1	85.7	0	0.25
10751	2011-04-20T22:00:00	22	7.63	65.15	2464.74	ND	ND	1.1	262.3	21	84.7	0	0
10752	2011-04-20T23:00:00	15	7.63	61.71	2599.53	ND	ND	0.9	226	20.9	80.9	0	0
10753	2011-04-21T00:00:00	26	7.83	40.61	2135.41	ND	ND	1.3	0.9	20.9	85.7	0	0
10754	2011-04-21T01:00:00	42	6.20	15.90	1310.62	ND	ND	0.4	105	20.7	90.2	0	0
10755	2011-04-21T02:00:00	28	7.80	33.75	2167.83	ND	ND	0.2	86.1	20.5	88.2	0	0
10756	2011-04-21T03:00:00	16	7.87	39.60	2188.92	ND	ND	0.6	218	20.5	86.9	0	0
10757	2011-04-21T04:00:00	9	5.81	22.11	1184.72	ND	ND	0.5	149.4	20.4	89.6	0	0
10758	2011-04-21T05:00:00	7	7.07	18.25	1263.27	ND	ND	0.1	112.9	20.3	90.8	0	0
10759	2011-04-21T06:00:00	5	5.93	18.67	1093.71	ND	ND	0.6	202.3	20.3	91.2	0	0
10760	2011-04-21T07:00:00	3	5.18	16.91	947.13	ND	ND	0.5	206.7	20.2	90.7	16.2	0
10761	2011-04-21T08:00:00	6	4.51	17.12	1070.80	ND	ND	0.3	133.3	21.1	86.6	135.4	0
10762	2011-04-21T09:00:00	5	4.58	21.17	1288.90	ND	ND	1	136.3	22	81.9	213.3	0
10763	2011-04-21T10:00:00	16	5.42	34.08	1837.20	ND	ND	0.9	118.4	23.6	74.8	572.7	0
10764	2011-04-21T11:00:00	9	6.18	42.76	1630.52	ND	ND	0.8	175.6	25.1	66	405.2	0
10765	2011-04-21T12:00:00	16	5.79	32.99	1455.41	ND	ND	1.2	230	25.2	65.8	514.8	0
10766	2011-04-21T13:00:00	9	4.90	26.65	1283.94	ND	ND	0.5	218.3	26.9	57	748.9	0
10767	2011-04-21T14:00:00	5	7.62	20.05	1233.62	ND	ND	1	164.8	28.8	47.8	817.4	0
10768	2011-04-21T15:00:00	3	7.59	15.66	1090.60	ND	ND	0.3	89.3	29.3	48	554.7	0
10769	2011-04-21T16:00:00	1	6.46	16.51	1080.79	ND	ND	2.7	289.1	27.9	53.8	212.8	0
10770	2011-04-21T17:00:00	1	5.95	18.94	1168.32	ND	ND	3.3	282.7	26.3	56.3	58.8	0
10771	2011-04-21T18:00:00	2	5.58	8.85	978.01	ND	ND	3.5	284.4	25.2	61.3	26.7	0
10772	2011-04-21T19:00:00	4	4.82	3.17	940.03	ND	ND	4.4	270	24.3	65	0.4	0
10773	2011-04-21T20:00:00	4	4.73	4.45	937.19	ND	ND	4.1	268.7	24.4	62.2	0	0
10774	2011-04-21T21:00:00	3	4.03	0.66	868.91	ND	ND	3.5	255.2	23.9	64.1	0	0
10775	2011-04-21T22:00:00	2	3.47	1.48	776.14	ND	ND	2.5	246.9	23.3	69.2	0	0
10776	2011-04-21T23:00:00	1	3.26	4.10	854.30	ND	ND	1.6	218.1	22.2	77.2	0	8.89
10777	2011-04-22T00:00:00	ND	2.91	6.16	907.87	ND	ND	2	192.3	20.7	91.1	0	2.29
10778	2011-04-22T01:00:00	2	2.69	10.78	993.59	ND	ND	1.8	208.5	20.5	91.9	0	0.25
10779	2011-04-22T02:00:00	1	2.25	16.44	981.63	ND	ND	2.3	192.8	20.3	91.3	0	0
10780	2011-04-22T03:00:00	2	2.11	6.62	924.58	ND	ND	2	192.1	19.9	93.5	0	2.03
10781	2011-04-22T04:00:00	2	2.14	3.50	889.54	ND	ND	1.4	217	19.3	96.3	0	25.4
10782	2011-04-22T05:00:00	2	2.31	0.13	797.82	ND	ND	0.5	265.2	18.8	98.6	0	35.05
10783	2011-04-22T06:00:00	3	2.28	1.36	807.68	ND	ND	1.1	214.7	18.4	99.4	0	64.26
10784	2011-04-22T07:00:00	1	2.51	1.97	806.57	ND	ND	1.2	228.3	18.5	99.8	16.8	5.59
10785	2011-04-22T08:00:00	1	2.10	1.22	739.61	ND	ND	1.3	209.9	19.1	99.4	89.1	0.51
10786	2011-04-22T09:00:00	2	2.39	6.70	920.80	ND	ND	1	230.3	20.7	84.4	258.3	0
10787	2011-04-22T10:00:00	1	2.38	18.27	1095.20	ND	ND	0.6	131.5	23.4	72.4	756.1	0.25
10788	2011-04-22T11:00:00	1	2.32	5.98	911.57	ND	ND	1.3	119.8	24.7	66.6	686.3	0
10789	2011-04-22T12:00:00	1	2.83	13.26	1052.90	ND	ND	1.2	122.1	25.7	64	686.3	0
10790	2011-04-22T13:00:00	1	3.05	11.23	1021.99	ND	ND	1.6	167.4	26.8	59.4	807.7	0
10791	2011-04-22T14:00:00	ND	4.01	11.80	1060.32	ND	ND	0.9	181.9	27.4	58.4	667.9	0
10792	2011-04-22T15:00:00	ND	3.83	4.96	946.96	ND	ND	2.2	279	27.7	55	672.1	0
10793	2011-04-22T16:00:00	ND	3.73	5.85	936.35	ND	ND	0.8	278.9	28.9	48.3	581.6	0
10794	2011-04-22T17:00:00	2	3.56	4.12	1032.93	ND	ND	0.4	14.1	28.7	52.1	388	0
10795	2011-04-22T18:00:00	3	3.08	1.49	846.68	ND	ND	0.3	314.8	27.3	55.9	153	0
10796	2011-04-22T19:00:00	3	4.78	7.10	1027.46	ND	ND	2.8	269.5	25.5	59.6	1.7	0
10797	2011-04-22T20:00:00	2	5.01	11.30	1090.15	ND	ND	2	277.7	24.9	60.8	0	0
10798	2011-04-22T21:00:00	2	3.64	6.97	950.54	ND	ND	0.4	163.2	24.1	66.5	0	0
10799	2011-04-22T22:00:00	2	3.61	11.06	1027.93	ND	ND	1.4	245.5	23.1	68	0	0
10800	2011-04-22T23:00:00	3	4.92	27.53	1593.62	ND	ND	1.6	239	22.6	68.7	0	0
10801	2011-04-23T00:00:00	3	ND	13.02	1113.65	ND	ND	1.3	231.6	22.2	71	0	0
10802	2011-04-23T01:00:00	2	ND	12.24	975.97	ND	ND	1	237.8	22	72	0	0
10803	2011-04-23T02:00:00	6	ND	9.43	929.94	ND	ND	0.4	186.8	22.1	79.5	0	0
10804	2011-04-23T03:00:00	4	ND	8.43	930.26	ND	ND	0.2	171.2	21.9	79.3	0	0
10805	2011-04-23T04:00:00	11	ND	20.54	1247.06	ND	ND	0.8	34.5	21.3	83.4	0	0
10806	2011-04-23T05:00:00	14	ND	18.97	1165.32	ND	ND	0.5	12.6	21.3	83.3	0	0
10807	2011-04-23T06:00:00	27	ND	16.28	1142.70	ND	ND	0.8	2.1	21.1	84.3	0	0
10808	2011-04-23T07:00:00	25	ND	16.43	1221.06	ND	ND	0.1	209.2	21.1	82.5	21.6	0
10809	2011-04-23T08:00:00	45	ND	21.41	1447.19	ND	ND	0.8	189.6	21.8	82.3	159.2	0
10810	2011-04-23T09:00:00	43	ND	27.89	1688.63	ND	ND	0.8	144.4	23.6	73.1	368.1	0
10811	2011-04-23T10:00:00	58	ND	38.65	1938.38	ND	ND	1.1	120	25.1	65.3	581	0
10812	2011-04-23T11:00:00	30	ND	55.92	1810.67	ND	ND	0.9	147.7	26.5	60	630.8	0
10813	2011-04-23T12:00:00	23	ND	56.09	1646.46	ND	ND	0.9	119.3	27.7	55.2	823.7	0
10814	2011-04-23T13:00:00	12	ND	35.41	1329.39	ND	ND	1.4	61.8	28.9	49.9	694.5	0
10815	2011-04-23T14:00:00	26	ND	32.59	1404.33	ND	ND	1.2	75.6	29.1	49.3	384.9	0
10816	2011-04-23T15:00:00	15	ND	32.48	1347.19	ND	ND	1.5	259.9	29.6	47.3	463.3	0
10817	2011-04-23T16:00:00	9	ND	37.26	1384.32	ND	ND	3.8	281.7	29.6	46.4	508.5	0
10818	2011-04-23T17:00:00	6	ND	16.72	1163.29	ND	ND	3.8	276.5	27.8	51.6	155.1	0
10819	2011-04-23T18:00:00	9	ND	3.76	959.79	ND	ND	3	229.9	25.5	60.7	20.7	0
10820	2011-04-23T19:00:00	21	ND	7.17	1032.78	ND	ND	0.9	221.8	20.4	87.8	0	33.02
10821	2011-04-23T20:00:00	11	ND	15.63	1127.92	ND	ND	1.2	349.2	21	84.8	0	1.02
10822	2011-04-23T21:00:00	7	ND	32.55	1265.86	ND	ND	0.4	189.6	21.4	85	0	0.51
10823	2011-04-23T22:00:00	5	ND	56.29	1697.65	ND	ND	0.7	181.2	21.2	88.5	0	1.78
10824	2011-04-23T23:00:00	4	ND	61.25	1990.56	ND	ND	1.6	178.6	20.3	92.5	0	1.78
10825	2011-04-24T00:00:00	4	ND	52.42	1770.24	ND	ND	1.5	193.9	20.2	90.3	0	0
10826	2011-04-24T01:00:00	4	ND	41.62	1341.31	ND	ND	0.8	148.9	20.1	91	0	0
10827	2011-04-24T02:00:00	3	ND	25.75	1047.90	ND	ND	0.4	101.4	19.8	91.8	0	0.25
10828	2011-04-24T03:00:00	3	ND	35.68	1271.95	ND	ND	0.5	40.2	19.9	91.7	0	0
10829	2011-04-24T04:00:00	2	ND	21.47	1103.48	ND	ND	0.6	53.4	19.8	92.2	0	0
10830	2011-04-24T05:00:00	3	ND	20.17	1046.82	ND	ND	0.8	70	19.5	94.4	0	0
10831	2011-04-24T06:00:00	8	ND	24.07	1068.24	ND	ND	0.7	42.3	19.6	94.2	0	0
10832	2011-04-24T07:00:00	16	ND	16.22	978.62	ND	ND	0.4	0.8	20.2	92.5	31.5	0
10833	2011-04-24T08:00:00	14	ND	20.59	1059.53	ND	ND	0.4	187.8	21	84.7	136.1	0
10834	2011-04-24T09:00:00	21	ND	30.01	1265.86	ND	ND	0.6	72.9	22.6	79.9	392.5	0
10835	2011-04-24T10:00:00	19	ND	31.44	1215.93	ND	ND	0.8	82.2	24.3	72.3	537.1	0
10836	2011-04-24T11:00:00	11	ND	46.60	1325.78	ND	ND	1	88.8	26.3	63.6	847.3	0
10837	2011-04-24T12:00:00	6	ND	30.78	1162.11	ND	ND	0.8	62.9	27.2	58.1	681.2	0
10838	2011-04-24T13:00:00	5	ND	21.90	1038.66	ND	ND	0.7	109.7	28	55	573.1	0
10839	2011-04-24T14:00:00	4	ND	13.70	983.57	ND	ND	0.6	67.8	28.9	51.7	558.7	0
10840	2011-04-24T15:00:00	2	ND	13.99	998.12	ND	ND	1	120	28.6	52.6	158	0
10841	2011-04-24T16:00:00	1	ND	20.09	1113.07	ND	ND	1.6	290.8	27.3	56.3	155.4	0
10842	2011-04-24T17:00:00	2	ND	35.53	1281.44	ND	ND	2.6	272.2	27.6	54	315.7	0
10843	2011-04-24T18:00:00	2	ND	16.26	1016.93	ND	ND	2.1	290.6	27.5	53.2	118.8	0
10844	2011-04-24T19:00:00	2	ND	3.97	854.86	ND	ND	1.7	276.2	26	57.8	0.3	0
10845	2011-04-24T20:00:00	3	ND	8.98	954.04	ND	ND	1.6	276.4	25.5	60.1	0	0
10846	2011-04-24T21:00:00	11	ND	17.41	1067.20	ND	ND	0.6	48.5	24.7	67.6	0	0
10847	2011-04-24T22:00:00	19	ND	19.51	1030.01	ND	ND	0.5	148.5	24	72.8	0	0
10848	2011-04-24T23:00:00	12	ND	32.83	1769.73	ND	ND	1.2	228.1	24.2	67.5	0	0
10849	2011-04-25T00:00:00	9	ND	34.90	2227.94	ND	ND	0.3	198.8	23.4	75.5	0	0
10850	2011-04-25T01:00:00	6	ND	17.82	1139.46	ND	ND	0.4	3.8	22.6	79.7	0	0
10851	2011-04-25T02:00:00	13	ND	30.56	1590.93	ND	ND	0.6	247.1	22.5	77.1	0	0
10852	2011-04-25T03:00:00	7	ND	25.29	1295.04	ND	ND	0.2	247.4	22.4	75.2	0	0
10853	2011-04-25T04:00:00	3	ND	17.16	1078.83	ND	ND	0.1	87.7	22.4	80.3	0	0
10854	2011-04-25T05:00:00	3	ND	8.07	908.49	ND	ND	0.9	229.2	22	82.7	0	1.02
10855	2011-04-25T06:00:00	13	ND	11.07	1009.33	ND	ND	0.3	253.7	21.3	87.5	0	2.29
10856	2011-04-25T07:00:00	9	ND	11.57	950.36	ND	ND	0.9	213.5	21.4	86.2	21.1	0
10857	2011-04-25T08:00:00	5	ND	18.81	1131.77	ND	ND	0.1	268.9	22.7	79.1	147.4	0
10858	2011-04-25T09:00:00	13	ND	24.78	1773.35	ND	ND	1.5	139.3	23.7	77.9	319.4	0
10859	2011-04-25T10:00:00	18	ND	42.00	2418.09	ND	ND	1.3	170.7	24.9	72.7	573.3	0
10860	2011-04-25T11:00:00	10	ND	60.33	2679.82	ND	ND	1	149.9	26.3	64.3	573.9	0
10861	2011-04-25T12:00:00	15	ND	34.54	1518.80	ND	ND	0.7	110.6	27.2	60.3	548.9	0
10862	2011-04-25T13:00:00	8	ND	38.21	1477.20	ND	ND	1.8	4.3	28	55.4	500.4	0
10863	2011-04-25T14:00:00	6	ND	43.43	1504.28	ND	ND	1.7	351.5	28.9	49	449.6	0
10864	2011-04-25T15:00:00	21	ND	38.70	1404.33	ND	ND	2.6	29.4	28.5	53.6	337.3	0
10865	2011-04-25T16:00:00	15	ND	32.55	1205.42	ND	ND	0.6	277.4	28.6	49.5	257.7	0
10866	2011-04-25T17:00:00	8	ND	59.28	1646.41	ND	ND	1.5	267.1	29.2	43.3	328.1	0
10867	2011-04-25T18:00:00	10	ND	41.41	1603.22	ND	ND	1.6	202.8	28.2	52.1	77.6	0
10868	2011-04-25T19:00:00	29	ND	20.56	1296.86	ND	ND	1.8	170.7	26.3	62.2	0.1	0
10869	2011-04-25T20:00:00	50	ND	39.84	1599.34	ND	ND	1	145.2	25.1	68.8	0	0
10870	2011-04-25T21:00:00	35	ND	79.07	2440.96	ND	ND	0.9	107	23.7	73.6	0	0
10871	2011-04-25T22:00:00	39	ND	71.37	2509.34	ND	ND	0.1	242.2	23.6	73	0	0
10872	2011-04-25T23:00:00	26	ND	47.13	1812.96	ND	ND	0.6	176.4	23.4	74.4	0	0
10873	2011-04-26T00:00:00	36	ND	31.10	1276.19	ND	ND	0.7	152.4	22.8	77.2	0	0
10874	2011-04-26T01:00:00	22	ND	43.34	1512.41	ND	ND	0.9	150.3	22.4	80	0	0
10875	2011-04-26T02:00:00	20	ND	31.74	1305.95	ND	ND	0.6	86.1	22	82.3	0	0
10876	2011-04-26T03:00:00	21	ND	17.54	1100.05	ND	ND	0.3	352.6	21.9	84.5	0	0
10877	2011-04-26T04:00:00	23	ND	17.93	1065.67	ND	ND	0.8	199.2	21.8	84.7	0	0
10878	2011-04-26T05:00:00	13	ND	21.56	1121.97	ND	ND	0.3	230.1	21.6	82.8	0	0
10879	2011-04-26T06:00:00	8	ND	20.63	1098.56	ND	ND	0.2	286.2	21.7	82.9	0	0
10880	2011-04-26T07:00:00	7	ND	13.75	1064.95	ND	ND	0.2	269.5	21.8	81.7	46.5	0
10881	2011-04-26T08:00:00	38	ND	17.74	1189.97	ND	ND	1.2	64.1	22.4	83.8	141.7	0
10882	2011-04-26T09:00:00	32	ND	25.17	1680.71	ND	ND	1.2	50.3	23.8	76.8	332.9	0
10883	2011-04-26T10:00:00	43	ND	55.23	3286.06	ND	ND	0.9	135.3	25.7	64.9	634.4	0
10884	2011-04-26T11:00:00	30	ND	63.55	2124.35	ND	ND	1.2	143.9	27.2	59.3	651.1	0
10885	2011-04-26T12:00:00	20	ND	36.71	1557.99	ND	ND	0.8	123.7	28.7	52.7	824.3	0
10886	2011-04-26T13:00:00	18	ND	42.22	1554.17	ND	ND	1	100.8	30.1	48.7	825.6	0
10887	2011-04-26T14:00:00	29	ND	ND	ND	ND	ND	0.8	79.1	30.5	46.8	474.9	0
10888	2011-04-26T15:00:00	16	ND	ND	ND	ND	ND	1	338.1	30.9	45.8	475.2	0
10889	2011-04-26T16:00:00	13	7.48	44.85	1086.51	ND	ND	4.1	285.7	29.5	49	316.3	0
10890	2011-04-26T17:00:00	8	6.54	35.20	1069.87	ND	ND	3.4	277.4	28.3	51	147.1	0
10891	2011-04-26T18:00:00	8	6.68	19.02	787.64	ND	ND	1.1	289.4	27.2	55.4	32.9	0
10892	2011-04-26T19:00:00	4	5.97	20.95	957.87	ND	ND	2.9	258.1	25	66.6	0	0.51
10893	2011-04-26T20:00:00	18	6.68	33.92	1179.98	ND	ND	1.5	39.8	23	83.4	0	3.3
10894	2011-04-26T21:00:00	11	7.24	30.55	989.99	ND	ND	1.4	177.3	22	87.4	0	1.27
10895	2011-04-26T22:00:00	16	4.62	36.67	1315.53	ND	ND	2.9	189	21.2	88.7	0	0.25
10896	2011-04-26T23:00:00	9	4.22	43.05	1436.37	ND	ND	1	185.9	20.7	91.9	0	7.62
10897	2011-04-27T00:00:00	7	2.30	27.73	835.52	ND	ND	1.6	150.1	20.3	94.4	0	2.79
10898	2011-04-27T01:00:00	5	2.11	26.69	778.00	ND	ND	0.6	194.3	20.3	93.7	0	1.52
10899	2011-04-27T02:00:00	3	1.73	23.93	732.90	ND	ND	0.4	61	20.7	92.8	0	1.27
10900	2011-04-27T03:00:00	2	1.01	10.80	462.92	ND	ND	0.5	147.5	20.5	94.7	0	1.52
10901	2011-04-27T04:00:00	1	0.95	15.62	530.30	ND	ND	1.2	151	20.2	95.3	0	0
10902	2011-04-27T05:00:00	ND	1.08	13.23	541.03	ND	ND	1.3	182.2	20.2	94	0	0.25
10903	2011-04-27T06:00:00	ND	0.98	9.51	495.95	ND	ND	0.4	164.6	20.5	92	0	0
10904	2011-04-27T07:00:00	1	0.67	9.52	575.44	ND	ND	0.5	140.2	20.7	91.6	9.7	0
10905	2011-04-27T08:00:00	15	0.93	17.97	700.03	ND	ND	1	157.1	21	90.3	88.8	0
10906	2011-04-27T09:00:00	9	3.90	28.24	1785.76	ND	ND	1.4	150.4	22.2	82.9	341.6	0
10907	2011-04-27T10:00:00	11	4.59	37.41	2439.91	ND	ND	1.3	134.7	24	75.2	601.3	0
10908	2011-04-27T11:00:00	7	2.72	32.89	1472.87	ND	ND	1.3	129.7	25.8	65.3	781.5	0
10909	2011-04-27T12:00:00	5	2.47	38.56	1275.04	ND	ND	1	108	27.2	60.1	733.3	0
10910	2011-04-27T13:00:00	3	3.04	32.84	1038.66	ND	ND	1.6	51	28.1	56.3	697.4	0
10911	2011-04-27T14:00:00	19	5.00	41.52	1088.07	ND	ND	2.4	30.8	29.2	53.9	663.9	0
10912	2011-04-27T15:00:00	11	4.54	48.48	1277.93	ND	ND	2.2	295.9	28.9	53.1	578.5	0
10913	2011-04-27T16:00:00	13	3.50	52.74	1102.57	ND	ND	3.6	289.6	28.1	53.5	322.8	0
10914	2011-04-27T17:00:00	9	6.33	32.66	902.87	ND	ND	3.2	289.1	26.6	56.4	110.3	0
10915	2011-04-27T18:00:00	15	5.80	20.22	898.37	ND	ND	3.2	275.6	25.7	60.5	42.6	0
10916	2011-04-27T19:00:00	10	6.28	23.13	953.09	ND	ND	2.6	197.4	23.7	67.4	0	0
10917	2011-04-27T20:00:00	29	6.10	23.37	935.30	ND	ND	2.4	145	22.4	72.5	0	0
10918	2011-04-27T21:00:00	16	5.64	37.96	1328.67	ND	ND	1.3	152.6	20.8	86.3	0	0.51
10919	2011-04-27T22:00:00	9	4.99	47.91	1321.47	ND	ND	0.1	193.5	20.3	89.6	0	4.32
10920	2011-04-27T23:00:00	6	3.66	36.61	992.23	ND	ND	0.5	164.2	20.5	90.3	0	0.25
10921	2011-04-28T00:00:00	4	2.79	29.55	801.10	ND	ND	0.4	172.9	20.4	90.4	0	0
10922	2011-04-28T01:00:00	3	2.86	46.56	1184.32	ND	ND	1.4	148.7	20.2	91.4	0	0
10923	2011-04-28T02:00:00	2	2.99	48.50	1048.25	ND	ND	0.7	180.5	20.1	90.8	0	0
10924	2011-04-28T03:00:00	2	2.60	32.10	732.40	ND	ND	0.8	145.9	19.8	92.2	0	0
10925	2011-04-28T04:00:00	2	2.55	18.47	562.81	ND	ND	0.7	226.3	19.9	91.5	0	0
10926	2011-04-28T05:00:00	2	2.47	19.62	596.78	ND	ND	0.4	114.7	20.2	88.5	0	0
10927	2011-04-28T06:00:00	9	2.37	12.90	529.76	ND	ND	0.7	70.5	20	91	0	0
10928	2011-04-28T07:00:00	17	2.89	18.57	698.36	ND	ND	0.9	67.1	20.1	91.7	5.9	0
10929	2011-04-28T08:00:00	39	3.74	28.45	969.02	ND	ND	0.5	93	20.4	90.6	35.3	0
10930	2011-04-28T09:00:00	41	5.57	31.19	1827.24	ND	ND	0.7	141.1	21.4	83.2	226.5	0
10931	2011-04-28T10:00:00	52	8.23	40.82	2501.21	ND	ND	1.3	146.6	23	76.6	471.9	0
10932	2011-04-28T11:00:00	28	7.26	50.27	2002.74	ND	ND	1.3	156.6	24.3	69.4	472.3	0
10933	2011-04-28T12:00:00	42	6.14	61.33	1577.22	ND	ND	1	87.7	25.6	62.9	600.4	0
10934	2011-04-28T13:00:00	23	5.25	49.26	1228.27	ND	ND	0.8	54.4	26.6	59.5	611.4	0
10935	2011-04-28T14:00:00	32	4.64	49.91	1255.42	ND	ND	1.6	55	27.5	57	627	0
10936	2011-04-28T15:00:00	22	5.39	50.46	1085.91	ND	ND	1.2	5.9	28.4	53.9	606.5	0
10937	2011-04-28T16:00:00	24	8.27	55.66	1042.81	ND	ND	1.6	2.3	28.2	53.9	329.6	0
10938	2011-04-28T17:00:00	36	9.98	44.28	1007.38	ND	ND	1.9	352.3	26.8	59.7	18.8	0
10939	2011-04-28T18:00:00	46	9.86	35.43	922.02	ND	ND	1.5	276.2	26	61.7	6.5	0
10940	2011-04-28T19:00:00	28	17.01	71.58	2436.84	ND	ND	1.2	293.9	25.6	61.4	0	0
10941	2011-04-28T20:00:00	19	23.39	52.82	2307.31	ND	ND	1.8	272.8	25.1	62.1	0	0
10942	2011-04-28T21:00:00	11	21.23	47.93	2395.12	ND	ND	1.4	278.7	24.6	63.8	0	0
10943	2011-04-28T22:00:00	6	14.63	30.88	1624.58	ND	ND	0.6	303.9	24.4	64.5	0	0
10944	2011-04-28T23:00:00	19	10.70	32.20	1131.87	ND	ND	1.7	195.5	23.6	72.4	0	0
10945	2011-04-29T00:00:00	32	9.08	32.37	1334.06	ND	ND	1.2	199.8	22.8	80.3	0	0
10946	2011-04-29T01:00:00	20	7.20	39.04	1046.18	ND	ND	1.1	200.6	22.4	79	0	0
10947	2011-04-29T02:00:00	16	6.03	30.02	760.86	ND	ND	0.9	250.9	22	75.9	0	0
10948	2011-04-29T03:00:00	9	4.72	19.95	623.74	ND	ND	0.6	325.4	21.9	74.7	0	0
10949	2011-04-29T04:00:00	17	5.24	13.81	510.16	ND	ND	0.8	3.5	22.1	76.7	0	0
10950	2011-04-29T05:00:00	26	4.88	15.26	476.47	ND	ND	0.4	75.8	21.6	82.2	0	0
10951	2011-04-29T06:00:00	30	5.26	26.89	645.55	ND	ND	0.6	248.7	21.3	77.9	0	0
10952	2011-04-29T07:00:00	24	7.04	29.18	701.46	ND	ND	0.5	236.7	21.4	74.9	48.2	0
10953	2011-04-29T08:00:00	55	8.75	23.02	667.74	ND	ND	0.3	84	22.7	74.9	127.1	0
10954	2011-04-29T09:00:00	64	9.31	26.46	1318.65	ND	ND	0.6	103.4	23.7	72.5	242.3	0
10955	2011-04-29T10:00:00	67	20.82	61.17	2566.37	ND	ND	0.6	44.7	24.9	68.6	332.2	0
10956	2011-04-29T11:00:00	71	26.82	96.44	2393.52	ND	ND	1.3	67.7	26.5	61.9	715.4	0
10957	2011-04-29T12:00:00	66	23.96	99.40	1899.77	ND	ND	1.8	76.4	28	55.7	692	0
10958	2011-04-29T13:00:00	50	19.19	73.24	1446.43	ND	ND	1.1	79.8	28	54.7	361.3	0
10959	2011-04-29T14:00:00	38	15.91	51.35	1168.71	ND	ND	0.6	241.4	28.1	54.7	283.6	0
10960	2011-04-29T15:00:00	32	11.07	46.87	1099.65	ND	ND	1.2	328.5	29.6	50.7	630.2	0
10961	2011-04-29T16:00:00	43	12.66	38.75	1012.06	ND	ND	3.4	269.8	28.2	53.6	131.7	0
10962	2011-04-29T17:00:00	25	13.59	32.74	926.33	ND	ND	4.1	268.7	26	62.1	35.7	0
10963	2011-04-29T18:00:00	45	11.17	30.44	1068.99	ND	ND	1.8	276.5	26.6	58.2	49.3	0
10964	2011-04-29T19:00:00	24	11.78	31.64	1151.76	ND	ND	2.7	275.6	26.2	59.5	1.4	0
10965	2011-04-29T20:00:00	12	9.44	42.06	1495.29	ND	ND	2.2	278.6	25.5	62	0	0
10966	2011-04-29T21:00:00	17	7.53	36.15	1331.13	ND	ND	1.8	263.7	25	63.9	0	0
10967	2011-04-29T22:00:00	11	6.34	35.77	1168.52	ND	ND	1.8	274.6	24.7	65	0	0
10968	2011-04-29T23:00:00	8	5.99	40.04	1236.01	ND	ND	0.6	257.9	24.4	68.6	0	0
10969	2011-04-30T00:00:00	28	4.63	33.66	937.51	ND	ND	0.5	194.4	23.9	73	0	0
10970	2011-04-30T01:00:00	16	6.47	36.22	1586.52	ND	ND	0.7	195.2	23.5	73.5	0	0
10971	2011-04-30T02:00:00	33	9.18	46.66	1835.14	ND	ND	0.7	316.7	23	78.2	0	0
10972	2011-04-30T03:00:00	30	7.31	42.00	1570.33	ND	ND	0.6	188.8	22.8	79.3	0	0
10973	2011-04-30T04:00:00	43	5.07	33.88	1046.18	ND	ND	0.9	136.7	22.2	81.2	0	0
10974	2011-04-30T05:00:00	28	6.28	31.62	1271.02	ND	ND	0.8	243.3	21.8	83.5	0	0
10975	2011-04-30T06:00:00	15	5.16	25.79	1110.64	ND	ND	0.6	257.5	22.3	78	0	0
10976	2011-04-30T07:00:00	28	4.13	19.09	794.66	ND	ND	0.5	69.6	22.5	81.6	26.6	0
10977	2011-04-30T08:00:00	66	3.72	24.91	920.16	ND	ND	0.6	158.2	22.7	82.8	105.5	0
10978	2011-04-30T09:00:00	58	9.26	33.77	2239.43	ND	ND	0.6	219.1	24.5	71.7	374.8	0
10979	2011-04-30T10:00:00	69	11.56	47.23	2230.19	ND	ND	0.2	336.2	25.8	65.3	286.6	0
10980	2011-04-30T11:00:00	54	16.55	69.82	1906.81	ND	ND	1	61.9	27.6	59.7	573.8	0
10981	2011-04-30T12:00:00	67	19.66	71.23	1421.39	ND	ND	1.2	122	28.2	56.8	351.7	0
10982	2011-04-30T13:00:00	55	20.55	78.55	1563.18	ND	ND	0.8	84.8	29.6	51.6	510.7	0
10983	2011-04-30T14:00:00	53	15.19	84.49	1698.41	ND	ND	0.6	32.2	29.7	50.6	397.3	0
10984	2011-04-30T15:00:00	28	14.64	51.48	1291.68	ND	ND	1.1	335.6	30.9	47.4	542.8	0
10985	2011-04-30T16:00:00	22	34.52	57.93	1179.97	ND	ND	4.3	283.7	30.3	48.3	499.5	0
10986	2011-04-30T17:00:00	12	24.13	24.04	722.91	ND	ND	4.9	278.6	27.8	54.3	77.8	0
10987	2011-04-30T18:00:00	25	10.24	12.81	716.95	ND	ND	5	278.5	27.4	55	80.9	0
10988	2011-04-30T19:00:00	13	7.98	11.37	669.80	ND	ND	5	276.3	26.5	58.9	1.5	0
10989	2011-04-30T20:00:00	9	6.11	12.68	679.31	ND	ND	2.2	297	26.1	61.2	0	0
10990	2011-04-30T21:00:00	6	5.29	12.40	689.90	ND	ND	3.3	263.2	25.8	61.9	0	0
10991	2011-04-30T22:00:00	5	5.52	22.76	792.59	ND	ND	1.8	241.9	25.4	64.5	0	0
10992	2011-04-30T23:00:00	4	4.67	17.01	607.99	ND	ND	2.4	261.9	23.9	64.8	0	0
10993	2011-05-01T00:00:00	5	5.22	22.97	844.62	ND	ND	1.6	221.5	22.7	80	0	0
10994	2011-05-01T01:00:00	4	3.80	15.27	488.81	ND	ND	1.2	248.8	23.4	72.3	0	0
10995	2011-05-01T02:00:00	3	3.96	51.91	1082.48	ND	ND	0.7	31.6	23.7	71	0	0
10996	2011-05-01T03:00:00	3	3.50	22.65	638.74	ND	ND	0.8	74.8	22.7	80.9	0	0
10997	2011-05-01T04:00:00	10	3.87	27.06	818.47	ND	ND	0.3	86.3	22.6	82.7	0	0
10998	2011-05-01T05:00:00	6	6.68	33.33	988.65	ND	ND	1.5	194.9	22	88	0	0.25
10999	2011-05-01T06:00:00	13	5.81	31.32	952.62	ND	ND	1.5	186.9	21.3	88.6	0	1.27
11000	2011-05-01T07:00:00	8	4.37	27.10	825.91	ND	ND	1.4	187.8	20.6	87.8	12.3	0.25
11001	2011-05-01T08:00:00	6	3.74	19.82	654.64	ND	ND	1.1	197.8	21.2	86.5	213.5	0
11002	2011-05-01T09:00:00	3	3.29	19.71	712.53	ND	ND	0.7	226.8	22.8	79.6	251.4	0
11003	2011-05-01T10:00:00	1	2.21	17.26	670.92	ND	ND	0.9	150.3	25	68.7	590.6	0
11004	2011-05-01T11:00:00	3	2.25	18.16	687.36	ND	ND	1.2	99.3	26.8	61.4	682.9	0
11005	2011-05-01T12:00:00	3	1.98	21.66	737.62	ND	ND	1.4	114.8	28	56	744.8	0
11006	2011-05-01T13:00:00	3	1.96	31.18	937.28	ND	ND	1	146.3	29	52.8	775	0
11007	2011-05-01T14:00:00	3	1.65	19.43	731.42	ND	ND	1.4	87.2	29.9	50	633.1	0
11008	2011-05-01T15:00:00	3	1.97	20.16	710.31	ND	ND	1.1	356.9	30.3	48.8	429.5	0
11009	2011-05-01T16:00:00	2	2.75	31.19	979.43	ND	ND	4.1	278.7	30.8	46	618.4	0
11010	2011-05-01T17:00:00	1	2.59	14.57	665.71	ND	ND	4.6	287.5	29.2	51.5	346.6	0
11011	2011-05-01T18:00:00	1	2.55	3.23	418.23	ND	ND	3.8	275.2	27.9	55.3	52.8	0
11012	2011-05-01T19:00:00	2	3.20	2.19	428.00	ND	ND	2.5	275.6	26.5	60.9	0	0
11013	2011-05-01T20:00:00	2	4.45	4.45	449.04	ND	ND	2.1	170.8	24.8	70.5	0	0
11014	2011-05-01T21:00:00	2	4.29	11.26	538.07	ND	ND	1.4	250.6	24.4	69.7	0	0
11015	2011-05-01T22:00:00	2	4.65	31.69	994.67	ND	ND	2.2	271.3	24.9	66.4	0	0
11016	2011-05-01T23:00:00	2	3.88	32.59	836.01	ND	ND	0.1	127.7	23.3	76.6	0	0
11017	2011-05-02T00:00:00	14	3.41	11.93	546.75	ND	ND	1	320.1	23.4	76.6	0	0
11018	2011-05-02T01:00:00	8	3.13	36.40	991.33	ND	ND	0.8	233.2	23.6	69.1	0	0
11019	2011-05-02T02:00:00	12	4.17	31.85	775.35	ND	ND	0.1	170.6	23.6	72.7	0	0
11020	2011-05-02T03:00:00	7	5.84	14.27	513.10	ND	ND	0.9	139.5	22.9	79.5	0	0
11021	2011-05-02T04:00:00	17	5.07	19.34	580.14	ND	ND	0.5	148.8	22.2	82.7	0	0
11022	2011-05-02T05:00:00	16	4.67	23.96	692.25	ND	ND	0.9	227.7	22.2	79.8	0	0
11023	2011-05-02T06:00:00	19	4.39	16.08	522.03	ND	ND	0.5	154.3	22.1	79.5	0.1	0
11024	2011-05-02T07:00:00	15	3.92	12.38	499.16	ND	ND	0.2	255.4	22.1	82.9	21.3	0
11025	2011-05-02T08:00:00	25	5.79	22.61	1055.05	ND	ND	0.3	62.2	22.8	79	64.5	0
11026	2011-05-02T09:00:00	24	6.06	28.75	1353.21	ND	ND	0.7	146.9	24	73.9	226.1	0
11027	2011-05-02T10:00:00	55	7.60	39.98	1895.33	ND	ND	1	158.8	25.8	66.4	571.8	0
11028	2011-05-02T11:00:00	36	8.80	74.20	2320.34	ND	ND	1.6	151.9	27.7	59.3	742.2	0
11029	2011-05-02T12:00:00	27	6.13	73.93	1676.18	ND	ND	0.9	130	28.7	54.2	716.1	0
11030	2011-05-02T13:00:00	14	5.92	46.43	1206.22	ND	ND	0.9	93.2	29.3	52.1	564.8	0
11031	2011-05-02T14:00:00	25	5.40	32.52	871.60	ND	ND	1	129	30.3	49.5	391.8	0
11032	2011-05-02T15:00:00	14	6.80	36.98	1026.06	ND	ND	0.5	5.7	31.4	45.8	527.1	0
11033	2011-05-02T16:00:00	24	8.59	42.86	1053.19	ND	ND	1.5	21.7	30.8	47.3	163.7	0
11034	2011-05-02T17:00:00	15	8.95	36.75	1004.40	ND	ND	1	314.5	30.6	49.6	195.5	0
11035	2011-05-02T18:00:00	34	13.91	55.34	1213.82	ND	ND	3.4	266.8	29	53.4	69.9	0
11036	2011-05-02T19:00:00	18	30.30	62.49	1253.86	ND	ND	3.9	264.4	27.6	56.7	0.2	0
11037	2011-05-02T20:00:00	15	9.89	34.81	1097.82	ND	ND	3.4	259.8	26.9	59.9	0	0
11038	2011-05-02T21:00:00	9	7.67	39.82	1222.09	ND	ND	2.3	267.8	26.3	62.7	0	0
11039	2011-05-02T22:00:00	8	5.34	34.83	897.47	ND	ND	0.8	300.8	25.8	65.5	0	0
11040	2011-05-02T23:00:00	8	5.36	32.52	861.51	ND	ND	1	287.9	26.2	62.2	0	0
11041	2011-05-03T00:00:00	33	9.52	39.69	954.68	ND	ND	0.6	109.4	25.4	69.6	0	0
11042	2011-05-03T01:00:00	24	6.74	18.94	550.63	ND	ND	1.6	161.8	24.7	73.6	0	0
11043	2011-05-03T02:00:00	36	6.96	37.07	1247.45	ND	ND	1.6	168.2	24.1	77.8	0	0
11044	2011-05-03T03:00:00	20	4.55	25.01	651.02	ND	ND	1.2	192.2	23.4	83	0	0
11045	2011-05-03T04:00:00	26	3.65	15.06	592.52	ND	ND	0.7	182.9	23.4	80.9	0	0
11046	2011-05-03T05:00:00	14	2.68	14.33	535.54	ND	ND	0.5	161.4	23.4	80	0	0
11047	2011-05-03T06:00:00	26	2.87	16.00	558.33	ND	ND	0.4	163.4	23.3	80.9	0	0
11048	2011-05-03T07:00:00	35	2.89	16.27	592.32	ND	ND	0.9	231	23.3	79.4	26.5	0
11049	2011-05-03T08:00:00	46	4.30	28.52	1104.90	ND	ND	0.3	143.2	24.5	73	126.5	0
11050	2011-05-03T09:00:00	67	4.55	25.06	1383.86	ND	ND	1.1	115.3	25.2	71	168.2	0
11051	2011-05-03T10:00:00	80	4.64	40.56	1559.07	ND	ND	1.2	58.7	25.6	70	246.6	0
11052	2011-05-03T11:00:00	66	5.67	71.09	2341.74	ND	ND	1.7	35.9	26.1	68.9	287	0
11053	2011-05-03T12:00:00	74	4.21	57.17	1529.28	ND	ND	2.6	49.1	26.3	70.6	344	0
11054	2011-05-03T13:00:00	41	29.37	76.48	1541.81	ND	ND	3.3	24.4	25.6	74.4	374.2	0
11055	2011-05-03T14:00:00	39	23.37	54.65	1469.33	ND	ND	3.4	35.9	24.5	78.8	97.5	0
11056	2011-05-03T15:00:00	20	14.41	35.99	1292.36	ND	ND	2.5	24	23.4	86.3	115.1	1.27
11057	2011-05-03T16:00:00	18	9.54	29.17	1207.82	ND	ND	1.6	30	23.4	86.4	165.7	0.51
11058	2011-05-03T17:00:00	27	7.82	35.31	1333.16	ND	ND	1.3	44.5	23.5	84.8	52.9	0
11059	2011-05-03T18:00:00	28	10.25	45.39	1550.18	ND	ND	0.8	58.3	23	87.7	8.1	0
11060	2011-05-03T19:00:00	20	39.56	53.54	1900.32	ND	ND	0.8	76.9	23.2	88	0	0
11061	2011-05-03T20:00:00	47	23.75	43.49	1947.16	ND	ND	0.2	120.9	22.9	86.2	0	0
11062	2011-05-03T21:00:00	29	15.25	40.84	3037.22	ND	ND	1.4	186.8	22.9	86.8	0	0
11063	2011-05-03T22:00:00	25	10.72	37.89	1535.67	ND	ND	0.8	155.7	22.9	86.7	0	0
11064	2011-05-03T23:00:00	20	10.43	32.95	1365.04	ND	ND	0.5	128.7	22.6	88.4	0	0
11065	2011-05-04T00:00:00	20	10.24	31.09	1715.94	ND	ND	0.5	156.3	22.4	89.6	0	0
11066	2011-05-04T01:00:00	11	8.57	29.89	1442.23	ND	ND	0.5	213.7	22.6	84.3	0	0
11067	2011-05-04T02:00:00	7	8.68	24.92	1204.56	ND	ND	0.6	64	22.4	87.7	0	0
11068	2011-05-04T03:00:00	5	7.48	19.70	874.42	ND	ND	0.4	139.1	21.9	91.4	0	0
11069	2011-05-04T04:00:00	14	7.23	20.02	895.62	ND	ND	0.5	233.1	22	87.6	0	0
11070	2011-05-04T05:00:00	8	6.10	16.02	805.19	ND	ND	0.2	142.7	22.1	84.6	0	0
11071	2011-05-04T06:00:00	17	5.09	14.62	635.30	ND	ND	0.6	143.4	21.6	92.5	0	0
11072	2011-05-04T07:00:00	19	8.19	21.49	781.45	ND	ND	0.3	153	21.7	91.3	50.7	0
11073	2011-05-04T08:00:00	36	7.62	18.31	1132.92	ND	ND	0.3	8.7	23.1	83.9	127.5	0
11074	2011-05-04T09:00:00	32	4.45	17.87	1411.50	ND	ND	0.3	97.2	24.4	77.3	248.4	0
11075	2011-05-04T10:00:00	52	6.80	36.95	2057.94	ND	ND	0.7	100.3	25.8	68.9	388.1	0
11076	2011-05-04T11:00:00	54	7.67	83.34	2469.67	ND	ND	1	77.7	27.2	64.6	459.2	0
11077	2011-05-04T12:00:00	56	8.00	86.31	1708.02	ND	ND	2.1	33.1	28.7	56.3	802.8	0
11078	2011-05-04T13:00:00	30	8.60	77.80	1658.56	ND	ND	2.6	43	29.2	52	599.9	0
11079	2011-05-04T14:00:00	34	13.37	66.30	1150.14	ND	ND	2	55.6	29.2	53.5	407	0
11080	2011-05-04T15:00:00	18	10.55	47.56	1150.14	ND	ND	2.1	33.1	29.8	53.8	628.2	0
11081	2011-05-04T16:00:00	32	8.60	60.05	1257.18	ND	ND	0.9	318.2	30.5	45.8	439.4	0
11082	2011-05-04T17:00:00	17	7.29	57.01	1143.42	ND	ND	0.5	290.4	30.1	47.2	166.2	0
11083	2011-05-04T18:00:00	32	7.46	44.81	1130.26	ND	ND	2.5	271	28.1	53.4	24.9	0
11084	2011-05-04T19:00:00	20	7.41	43.43	1273.28	ND	ND	2.2	272.3	27.5	55.9	0	0
11085	2011-05-04T20:00:00	22	12.21	32.12	1397.81	ND	ND	2.4	269.1	26.9	57.8	0	0
11086	2011-05-04T21:00:00	13	11.58	37.07	1475.73	ND	ND	1.8	278.4	26.8	56.9	0	0
11087	2011-05-04T22:00:00	13	10.12	32.08	1025.75	ND	ND	0.6	247.8	26	62	0	0
11088	2011-05-04T23:00:00	7	8.65	26.51	862.09	ND	ND	0.7	278.7	25.4	65.3	0	0
11089	2011-05-05T00:00:00	16	10.00	28.40	1147.15	ND	ND	0.5	33.2	24.3	73.1	0	0
11090	2011-05-05T01:00:00	9	10.51	24.31	937.19	ND	ND	0.9	72.4	23.7	76.7	0	0
11091	2011-05-05T02:00:00	15	18.31	28.60	1140.61	ND	ND	0.1	5.1	23.5	75.8	0	0
11092	2011-05-05T03:00:00	9	13.58	23.95	968.86	ND	ND	0.4	223.9	23.2	72.5	0	0
11093	2011-05-05T04:00:00	6	10.11	20.61	649.05	ND	ND	0.8	238.2	22.9	73.3	0	0
11094	2011-05-05T05:00:00	5	12.75	15.07	591.52	ND	ND	1.1	257.2	22.4	75.9	0	0
11095	2011-05-05T06:00:00	12	10.05	13.63	567.81	ND	ND	0.1	20.3	22.3	75.8	0	0
11096	2011-05-05T07:00:00	17	8.46	14.50	613.02	ND	ND	0.3	52.9	22.2	82.7	42.4	0
11097	2011-05-05T08:00:00	27	8.44	15.47	851.13	ND	ND	0.7	226.7	23.4	72.8	184.1	0
11098	2011-05-05T09:00:00	15	9.38	26.98	1709.18	ND	ND	0.2	266.2	25.2	67.6	354.3	0
11099	2011-05-05T10:00:00	34	11.88	43.78	2052.01	ND	ND	0.5	92.9	27	61	482.4	0
11100	2011-05-05T11:00:00	42	14.43	86.90	2052.87	ND	ND	1.5	56.2	27.9	60	579.5	0
11101	2011-05-05T12:00:00	61	16.38	65.17	1434.38	ND	ND	1.7	43.9	28.9	56.3	516.3	0
11102	2011-05-05T13:00:00	55	14.36	67.07	1485.57	ND	ND	1.7	54.6	30.1	51.1	821.1	0
11103	2011-05-05T14:00:00	45	15.35	78.93	1596.34	ND	ND	1.2	26.6	30.7	49.5	423.9	0
11104	2011-05-05T15:00:00	26	19.68	50.08	1109.14	ND	ND	1.9	22.4	30.2	51.7	277.4	0
11105	2011-05-05T16:00:00	32	22.90	43.69	1002.41	ND	ND	1.3	339.1	30.2	49.5	274.1	0
11106	2011-05-05T17:00:00	17	18.82	50.02	1153.94	ND	ND	2.4	292.8	29.6	51	182.9	0
11107	2011-05-05T18:00:00	33	12.29	35.30	1058.60	ND	ND	3.1	273.3	27.7	56.6	31.7	0
11108	2011-05-05T19:00:00	31	23.06	28.17	1028.83	ND	ND	3.8	266.9	27	57.9	0.1	0
11109	2011-05-05T20:00:00	18	12.32	29.62	1199.43	ND	ND	2.6	287.3	26.8	58.1	0	0
11110	2011-05-05T21:00:00	9	9.54	26.98	1071.85	ND	ND	2.4	282.9	26.6	58.6	0	0
11111	2011-05-05T22:00:00	6	7.64	24.71	840.78	ND	ND	0.6	81.7	25.4	68	0	0
11112	2011-05-05T23:00:00	19	6.35	24.06	780.06	ND	ND	0.8	218.4	25	70.5	0	0
11113	2011-05-06T00:00:00	38	11.27	30.19	1970.44	ND	ND	1.4	214.2	25.3	67	0	0
11114	2011-05-06T01:00:00	19	10.86	30.75	1410.52	ND	ND	1.2	189.3	24.5	74.5	0	0
11115	2011-05-06T02:00:00	21	7.98	22.24	686.21	ND	ND	0.9	162.9	23.8	78.1	0	0
11116	2011-05-06T03:00:00	13	6.71	21.50	810.11	ND	ND	1	178.2	23.4	78.8	0	0
11117	2011-05-06T04:00:00	23	5.26	19.13	752.04	ND	ND	1	132	23.2	78.6	0	0
11118	2011-05-06T05:00:00	28	3.93	12.64	569.34	ND	ND	0.3	168.5	23	80.4	0	0
11119	2011-05-06T06:00:00	25	3.18	13.28	716.89	ND	ND	0.5	148.9	22.9	82	0.1	0
11120	2011-05-06T07:00:00	45	2.42	15.56	705.27	ND	ND	0.3	184.9	23	81.8	25.3	0
11121	2011-05-06T08:00:00	36	4.79	22.92	1433.78	ND	ND	0.3	45.9	23.8	77.5	73.9	0
11122	2011-05-06T09:00:00	56	6.08	27.54	2065.20	ND	ND	0.7	98.4	24.4	77.3	193.8	0
11123	2011-05-06T10:00:00	86	5.18	35.69	2000.78	ND	ND	0.9	182.1	26.6	64.8	501.4	0
11124	2011-05-06T11:00:00	46	8.19	75.40	2649.04	ND	ND	1	181	28	58.1	583.4	0
11125	2011-05-06T12:00:00	38	7.54	80.03	1828.28	ND	ND	1.2	96.8	29.1	54.7	595.4	0
11126	2011-05-06T13:00:00	37	5.10	32.00	975.55	ND	ND	0.9	81.7	30.2	51.1	753	0
11127	2011-05-06T14:00:00	59	4.59	52.58	1398.72	ND	ND	1.2	35.9	31.6	47.4	513.9	0
11128	2011-05-06T15:00:00	37	3.86	53.63	1381.76	ND	ND	3.1	278.6	29.8	51	127.7	0
11129	2011-05-06T16:00:00	38	4.47	59.90	1408.51	ND	ND	3.3	273.7	30	50	374.3	0
11130	2011-05-06T17:00:00	20	7.14	32.29	1129.88	ND	ND	3.4	283.7	29.5	51	99	0
11131	2011-05-06T18:00:00	13	4.71	31.24	1116.39	ND	ND	3.3	283.2	28.2	54.6	26.1	0
11132	2011-05-06T19:00:00	8	3.87	32.10	1181.07	ND	ND	3.8	268.1	27.3	58	0.9	0
11133	2011-05-06T20:00:00	5	3.99	30.39	1085.18	ND	ND	2.9	279.4	26.9	58.3	0	0
11134	2011-05-06T21:00:00	4	3.72	33.09	1210.56	ND	ND	1.7	283.2	26.8	59	0	0
11135	2011-05-06T22:00:00	4	3.14	29.54	968.12	ND	ND	2.4	270.2	26.3	61.1	0	0
11136	2011-05-06T23:00:00	3	4.37	32.84	978.01	ND	ND	0.4	312.4	25	69.9	0	0
11137	2011-05-07T00:00:00	25	7.34	23.84	779.01	ND	ND	1.3	200.1	24.5	73.7	0	0
11138	2011-05-07T01:00:00	24	8.89	24.61	1143.69	ND	ND	1.4	175.8	24.3	76.2	0	0
11139	2011-05-07T02:00:00	28	12.91	28.45	1188.63	ND	ND	1	158.6	23.6	79.9	0	0
11140	2011-05-07T03:00:00	15	7.72	23.47	969.19	ND	ND	1.2	173.3	23.6	79.1	0	0
11141	2011-05-07T04:00:00	28	5.27	20.10	877.97	ND	ND	1.5	176.8	23.6	77.9	0	0
11142	2011-05-07T05:00:00	19	3.78	19.42	775.35	ND	ND	0.8	171.5	23.1	79.4	0	0
11143	2011-05-07T06:00:00	30	3.31	18.81	751.28	ND	ND	0.6	135.3	23.1	79.3	0	0
11144	2011-05-07T07:00:00	30	3.02	17.20	671.60	ND	ND	0.5	75.8	23.3	78.9	15.4	0
11145	2011-05-07T08:00:00	53	4.51	22.70	1150.46	ND	ND	1.1	159.7	23.7	78.3	126.6	0
11146	2011-05-07T09:00:00	35	5.90	25.90	1585.45	ND	ND	0.7	173.9	24.9	73.1	303.3	0
11147	2011-05-07T10:00:00	39	7.60	32.63	2015.59	ND	ND	1	156.4	27	63.9	549.3	0
11148	2011-05-07T11:00:00	33	5.91	46.53	1533.88	ND	ND	1.4	149.9	27.8	59.9	452.8	0
11149	2011-05-07T12:00:00	41	5.47	64.66	1630.48	ND	ND	0.7	98.5	28.2	58.4	376.1	0
11150	2011-05-07T13:00:00	43	4.77	43.67	1389.49	ND	ND	1.1	77.2	28.9	57	502.9	0
11151	2011-05-07T14:00:00	29	2.71	50.34	1415.93	ND	ND	1.1	63.9	29.8	54.6	414.8	0
11152	2011-05-07T15:00:00	52	3.27	60.25	1664.61	ND	ND	0.6	128.5	28.8	58.1	80.1	0
11153	2011-05-07T16:00:00	44	2.60	62.72	1612.70	ND	ND	2	302.7	25.5	67.1	27.6	0
11154	2011-05-07T17:00:00	24	3.25	68.62	1732.77	ND	ND	1.2	263.6	25.9	61.6	78.2	0
11155	2011-05-07T18:00:00	25	3.47	40.45	1252.48	ND	ND	0.9	294.3	26	62.7	42.5	0
11156	2011-05-07T19:00:00	38	3.58	41.63	1494.29	ND	ND	0.8	264.6	25.6	66.1	0.2	0
11157	2011-05-07T20:00:00	37	3.94	52.79	1859.62	ND	ND	2.3	261.7	24.9	66.8	0	0
11158	2011-05-07T21:00:00	20	4.92	65.86	2107.21	ND	ND	1.9	255	24.9	65.8	0	0
11159	2011-05-07T22:00:00	34	2.93	41.05	1351.36	ND	ND	0.9	210.8	24.3	72.9	0	0
11160	2011-05-07T23:00:00	18	3.03	32.00	891.47	ND	ND	1.2	255.4	23.8	73.5	0	0
11161	2011-05-08T00:00:00	26	4.62	39.24	2019.56	ND	ND	1.7	252.7	23.7	70.8	0	0
11162	2011-05-08T01:00:00	15	3.73	36.85	1642.48	ND	ND	1.5	273.8	23.6	72	0	0
11163	2011-05-08T02:00:00	8	2.89	26.71	843.77	ND	ND	1	276	23.2	73.3	0	0
11164	2011-05-08T03:00:00	31	4.27	23.66	876.79	ND	ND	0.7	294.2	22.8	79.6	0	0
11165	2011-05-08T04:00:00	19	6.03	26.30	932.46	ND	ND	0.2	235	22.8	76.1	0	0
11166	2011-05-08T05:00:00	21	7.33	40.05	1444.18	ND	ND	0.6	54.1	22.5	82	0	0
11167	2011-05-08T06:00:00	38	7.12	24.78	806.56	ND	ND	0.3	185.6	22	86.7	0	0
11168	2011-05-08T07:00:00	44	9.60	35.76	1292.84	ND	ND	1.2	171	21.8	87.1	24.6	0
11169	2011-05-08T08:00:00	43	8.17	28.43	1382.63	ND	ND	1.9	195.4	22.7	82.6	149.9	0
11170	2011-05-08T09:00:00	34	7.12	23.81	1330.02	ND	ND	1.4	177.4	24.4	74.8	340.1	0
11171	2011-05-08T10:00:00	48	5.33	27.95	1154.73	ND	ND	0.8	164.5	26.6	65.1	483.2	0
11172	2011-05-08T11:00:00	28	4.85	36.51	1128.72	ND	ND	0.8	76.4	27.7	61	400.5	0
11173	2011-05-08T12:00:00	46	4.84	37.29	1086.63	ND	ND	1.6	68.8	27.7	62.6	376.6	0
11174	2011-05-08T13:00:00	35	4.47	39.68	1213.79	ND	ND	1.1	53.5	28.9	57.8	516.3	0
11175	2011-05-08T14:00:00	56	5.55	36.02	1207.02	ND	ND	1.5	71.2	29.5	56	452.4	0
11176	2011-05-08T15:00:00	44	7.10	35.92	1197.79	ND	ND	1.3	71.2	29.7	55.7	235.7	0
11177	2011-05-08T16:00:00	44	11.50	48.06	1303.32	ND	ND	0.6	279.4	29.2	54	52	0
11178	2011-05-08T17:00:00	33	15.97	38.24	1150.14	ND	ND	2.4	273.3	27.5	59.3	8.2	0
11179	2011-05-08T18:00:00	32	10.83	15.80	774.00	ND	ND	3.4	317.8	22.9	79.9	0.1	38.1
11180	2011-05-08T19:00:00	17	4.74	34.09	932.78	ND	ND	2	304.2	21.1	97.7	0	31.75
11181	2011-05-08T20:00:00	17	2.25	24.68	983.63	ND	ND	1.1	8	22.6	87.5	0	0.51
11182	2011-05-08T21:00:00	10	2.21	22.62	1000.02	ND	ND	0.5	46.4	22.4	86.4	0	0
11183	2011-05-08T22:00:00	23	5.14	41.00	2362.07	ND	ND	0.2	31.2	22.6	85.2	0	0
11184	2011-05-08T23:00:00	15	5.02	44.02	2147.76	ND	ND	0.3	198.2	22.9	84.1	0	0
11185	2011-05-09T00:00:00	36	4.08	49.56	2104.44	ND	ND	0.9	167.1	22.4	87	0	0.25
11186	2011-05-09T01:00:00	19	5.14	42.51	2384.79	ND	ND	1.2	167.6	22.4	85.6	0	0
11187	2011-05-09T02:00:00	14	4.18	40.25	2157.66	ND	ND	0.7	221.4	21.9	88.6	0	5.33
11188	2011-05-09T03:00:00	9	2.57	27.44	1054.33	ND	ND	0.9	247.7	22	87.4	0	0
11189	2011-05-09T04:00:00	9	1.95	18.57	839.22	ND	ND	0.1	12.3	22.1	88.5	0	0.25
11190	2011-05-09T05:00:00	6	1.35	5.30	578.57	ND	ND	0.9	7.3	21.9	90.7	0	0
11191	2011-05-09T06:00:00	19	1.40	13.33	725.56	ND	ND	0.8	345.6	21.8	91.2	0	0
11192	2011-05-09T07:00:00	34	3.24	24.00	1461.96	ND	ND	0.6	71.1	21.7	92.2	19.8	0
11193	2011-05-09T08:00:00	56	5.67	25.96	1597.42	ND	ND	0.4	177.6	22.3	90.1	81.5	0
11194	2011-05-09T09:00:00	56	8.93	27.85	2508.85	ND	ND	1.2	123	23	85.7	201.7	0
11195	2011-05-09T10:00:00	55	8.48	35.02	2617.21	ND	ND	1.2	153.1	24.4	78.9	385.3	0
11196	2011-05-09T11:00:00	42	8.81	49.85	2652.46	ND	ND	1.2	138.8	25.8	70.9	497.1	0
11197	2011-05-09T12:00:00	48	5.81	43.25	1516.26	ND	ND	0.9	121	27.4	64.7	648.1	0
11198	2011-05-09T13:00:00	25	7.40	41.45	1466.64	ND	ND	1.2	72.7	28.6	58.2	619	0
11199	2011-05-09T14:00:00	48	8.46	41.78	1391.34	ND	ND	1	69	29.7	54.9	640.5	0
11200	2011-05-09T15:00:00	39	10.27	50.07	1384.77	ND	ND	1.4	39.1	29.8	54.6	449.5	0
11201	2011-05-09T16:00:00	40	9.58	39.56	1292.11	ND	ND	1.2	28.6	29.7	55.5	252.5	0
11202	2011-05-09T17:00:00	23	8.70	52.71	1466.23	ND	ND	1.8	275.7	29.1	54	129.1	0
11203	2011-05-09T18:00:00	30	8.34	56.88	1474.94	ND	ND	2.4	273.4	28.2	56.4	96.3	0
11204	2011-05-09T19:00:00	16	7.87	37.81	1435.81	ND	ND	2.8	268.5	26.9	60.2	0	0
11205	2011-05-09T20:00:00	11	10.81	38.23	1498.79	ND	ND	2.7	262.9	26.1	62.8	0	0
11206	2011-05-09T21:00:00	7	10.15	32.33	1598.27	ND	ND	2.1	275.4	25.3	65.5	0	0
11207	2011-05-09T22:00:00	7	9.18	34.31	1307.31	ND	ND	0.8	310.1	24.7	70	0	0
11208	2011-05-09T23:00:00	9	7.77	24.95	1052.90	ND	ND	1	267.7	23.9	73.3	0	0
11209	2011-05-10T00:00:00	6	7.75	30.32	1540.86	ND	ND	1.4	264.2	23.8	71.4	0	0
11210	2011-05-10T01:00:00	4	7.88	25.19	1300.73	ND	ND	0.7	248.1	23.8	71.1	0	0
11211	2011-05-10T02:00:00	3	8.09	17.76	798.70	ND	ND	1	238.7	23.3	73	0	0
11212	2011-05-10T03:00:00	2	10.32	12.53	740.40	ND	ND	0.2	334.2	23.2	77.2	0	0
11213	2011-05-10T04:00:00	25	9.40	7.38	637.67	ND	ND	0.3	52.6	22.7	84.2	0	0
11214	2011-05-10T05:00:00	14	8.87	19.89	1000.35	ND	ND	0.4	46	22.3	84.8	0	0
11215	2011-05-10T06:00:00	49	8.39	22.49	1157.93	ND	ND	0.5	51.2	22.2	86.7	0.3	0
11216	2011-05-10T07:00:00	68	7.73	23.69	1021.36	ND	ND	1.2	5.2	22.5	83.9	38	0
11217	2011-05-10T08:00:00	104	10.81	24.19	1715.35	ND	ND	0.6	76	23.2	82	74.7	0
11218	2011-05-10T09:00:00	107	11.33	32.57	2197.67	ND	ND	0.7	115.6	24.1	78.1	148.4	0
11219	2011-05-10T10:00:00	125	14.79	49.18	3198.01	ND	ND	0.8	127.9	25.2	73.5	289.9	0
11220	2011-05-10T11:00:00	118	21.89	90.20	3725.72	ND	ND	1	143.4	27.1	63.3	536.4	0
11221	2011-05-10T12:00:00	85	15.23	101.02	2699.61	ND	ND	0.9	161.5	29	55.3	808.4	0
11222	2011-05-10T13:00:00	54	8.95	93.45	2159.43	ND	ND	0.9	85.2	30.4	50.6	631.5	0
11223	2011-05-10T14:00:00	55	6.43	52.64	1726.22	ND	ND	1.3	58.4	31	49.5	694.8	0
11224	2011-05-10T15:00:00	37	5.03	52.13	1519.28	ND	ND	0.5	69.7	31.2	49.5	548.7	0
11225	2011-05-10T16:00:00	65	4.33	50.05	1543.66	ND	ND	0.7	54.6	31.4	49.7	314.2	0
11226	2011-05-10T17:00:00	74	4.01	41.17	1380.85	ND	ND	1.5	273.6	31.2	50.8	239.4	0
11227	2011-05-10T18:00:00	40	5.99	61.66	1567.05	ND	ND	4.1	268.3	29.2	54.4	77.3	0
11228	2011-05-10T19:00:00	26	6.80	45.46	1487.04	ND	ND	3.2	267.4	28.3	57.5	0.3	0
11229	2011-05-10T20:00:00	31	6.12	35.32	1239.37	ND	ND	3.1	263.2	27.6	59.5	0	0
11230	2011-05-10T21:00:00	21	5.21	44.17	1525.40	ND	ND	1.4	290.8	27.1	62.5	0	0
11231	2011-05-10T22:00:00	36	4.62	42.60	1395.95	ND	ND	0.5	69.8	26.3	68.8	0	0
11232	2011-05-10T23:00:00	42	3.76	37.08	1162.11	ND	ND	0.2	104.1	26.2	68.7	0	0
11233	2011-05-11T00:00:00	47	5.89	42.85	2334.95	ND	ND	0.5	55.3	25.5	71.8	0	0
11234	2011-05-11T01:00:00	26	6.64	38.32	2398.34	ND	ND	1.4	167.2	24.5	77.9	0	0
11235	2011-05-11T02:00:00	41	4.97	31.49	1406.73	ND	ND	1.4	171.1	24.3	78.4	0	0
11236	2011-05-11T03:00:00	24	3.42	23.17	948.62	ND	ND	0.6	138.8	23.9	79.7	0	0
11237	2011-05-11T04:00:00	36	2.95	16.74	821.79	ND	ND	0.6	145.8	23.5	82.2	0	12.7
11238	2011-05-11T05:00:00	33	2.87	13.51	797.89	ND	ND	0.3	146.5	22.1	95.2	0	10.16
11239	2011-05-11T06:00:00	38	2.41	14.49	862.19	ND	ND	0.4	80.9	23.1	89.6	0	0
11240	2011-05-11T07:00:00	45	3.33	23.26	1058.62	ND	ND	1.4	358.4	23.2	88.8	23	0
11241	2011-05-11T08:00:00	70	5.50	25.72	1571.39	ND	ND	1.5	28.7	23.3	87.6	86.6	0
11242	2011-05-11T09:00:00	60	6.83	28.63	2164.24	ND	ND	1.7	15.7	23.8	83.7	184.3	0
11243	2011-05-11T10:00:00	49	8.43	36.75	3080.68	ND	ND	0.6	78	25	76.7	348.8	0
11244	2011-05-11T11:00:00	35	6.63	45.15	2199.57	ND	ND	1.1	60.8	27.1	68.1	554.4	0
11245	2011-05-11T12:00:00	35	5.70	44.48	1626.69	ND	ND	1.1	36.3	28.5	59.4	559.1	0
11246	2011-05-11T13:00:00	19	8.59	55.74	1599.51	ND	ND	1	303.1	29.1	53.6	423.6	0
11247	2011-05-11T14:00:00	11	9.59	50.62	1416.87	ND	ND	3.5	290.5	29.7	50	642.2	0
11248	2011-05-11T15:00:00	6	9.85	33.71	1140.40	ND	ND	3.7	297.3	29.8	49.4	603.2	0
11249	2011-05-11T16:00:00	3	9.21	20.50	954.53	ND	ND	3.2	275.9	29.3	50.7	261.7	0
11250	2011-05-11T17:00:00	2	6.62	24.65	929.71	ND	ND	2.2	300.2	28.5	52.9	117.3	0
11251	2011-05-11T18:00:00	16	6.47	27.86	1263.38	ND	ND	1.3	288	27.8	53.3	34.5	0
11252	2011-05-11T19:00:00	9	6.29	27.26	1295.14	ND	ND	1	8	27	56.4	0	0
11253	2011-05-11T20:00:00	38	7.07	33.75	1464.69	ND	ND	1.5	44.1	25.7	68.3	0	0
11254	2011-05-11T21:00:00	32	13.81	47.44	2181.77	ND	ND	0.9	216.8	25.5	66.3	0	0
11255	2011-05-11T22:00:00	47	19.66	42.67	2008.18	ND	ND	2.3	180	24.5	74	0	0
11256	2011-05-11T23:00:00	24	15.56	41.93	1669.78	ND	ND	1.2	164.1	24	77.4	0	0
11257	2011-05-12T00:00:00	20	10.37	30.09	1347.28	ND	ND	0.3	77	23.4	80.3	0	0
11258	2011-05-12T01:00:00	23	6.12	34.06	1344.56	ND	ND	1	0.9	23.1	80.3	0	0
11259	2011-05-12T02:00:00	53	4.95	30.43	1149.69	ND	ND	0.3	5.7	23.2	76.9	0	0
11260	2011-05-12T03:00:00	27	4.56	29.41	1207.01	ND	ND	0.3	215.3	23.2	74.2	0	0
11261	2011-05-12T04:00:00	15	4.11	27.84	1047.59	ND	ND	0.6	171.3	22.8	79.9	0	0
11262	2011-05-12T05:00:00	8	3.12	12.08	886.98	ND	ND	0.8	158.4	22.1	86.9	0	0
11263	2011-05-12T06:00:00	24	3.06	13.73	1656.31	ND	ND	0.7	267.7	22.1	85	0	0
11264	2011-05-12T07:00:00	17	4.07	17.05	1554.21	ND	ND	0.2	54.4	22.6	82.9	21.2	0
11265	2011-05-12T08:00:00	35	3.61	17.34	1306.84	ND	ND	0.2	165.9	23.9	78.2	189.8	0
11266	2011-05-12T09:00:00	45	4.36	25.76	2134.38	ND	ND	0.8	133.6	24.3	77.7	161.9	0
11267	2011-05-12T10:00:00	103	4.50	49.04	2217.26	ND	ND	0.7	108.2	25.6	70.5	293	0
11268	2011-05-12T11:00:00	66	5.83	86.59	2628.72	ND	ND	1.2	123.1	26.9	64.3	534.9	0
11269	2011-05-12T12:00:00	66	4.46	67.00	1890.77	ND	ND	1	97.7	28.2	58.9	597.6	0
11270	2011-05-12T13:00:00	44	3.44	54.81	1528.44	ND	ND	0.5	262.2	28.1	58	129.6	0
11271	2011-05-12T14:00:00	48	3.55	53.59	1458.48	ND	ND	2.5	260.6	25.2	72.1	76.3	2.29
11272	2011-05-12T15:00:00	25	3.09	45.87	1352.72	ND	ND	1.9	6.9	23.5	80.2	98.9	2.29
11273	2011-05-12T16:00:00	38	3.62	36.62	1322.22	ND	ND	1.1	355.6	24	77.9	153.5	0
11274	2011-05-12T17:00:00	37	4.28	50.83	1918.16	ND	ND	0.8	342.4	25.8	67.7	137.5	0
11275	2011-05-12T18:00:00	35	5.60	68.29	2366.29	ND	ND	0.8	306.7	25.9	60.5	44.4	0
11276	2011-05-12T19:00:00	21	6.62	72.05	2378.57	ND	ND	2.5	267.8	25.2	62.4	0.4	0
11277	2011-05-12T20:00:00	26	4.85	40.37	1593.46	ND	ND	1.4	231.4	24.7	67.5	0	0
11278	2011-05-12T21:00:00	14	3.93	26.60	1339.01	ND	ND	2.1	258.4	24.5	66	0.1	0
11279	2011-05-12T22:00:00	8	4.24	32.53	1521.10	ND	ND	1.9	217	23.8	71.4	0	0
11280	2011-05-12T23:00:00	4	3.21	25.64	1129.58	ND	ND	1.7	207.5	23.5	75.1	0	0
11281	2011-05-13T00:00:00	2	2.32	20.26	957.47	ND	ND	0.9	143.3	22.8	82.1	0	0
11282	2011-05-13T01:00:00	2	2.70	22.02	1080.29	ND	ND	1.2	169.4	22.1	85.6	0	0
11283	2011-05-13T02:00:00	1	2.57	23.84	1066.39	ND	ND	1.1	82.4	21.2	88.7	0	1.27
11284	2011-05-13T03:00:00	3	1.97	13.20	769.08	ND	ND	1	74	20.6	91.6	0	0.25
11285	2011-05-13T04:00:00	3	1.81	12.10	711.08	ND	ND	0.9	7	20.6	90.1	0	0.25
11286	2011-05-13T05:00:00	3	1.78	12.90	677.22	ND	ND	0.5	153.5	20.6	86.6	0	0
11287	2011-05-13T06:00:00	3	1.50	10.67	744.94	ND	ND	1	158.1	20.6	90.2	0	0.25
11288	2011-05-13T07:00:00	13	1.96	25.94	981.96	ND	ND	0.8	175.6	20.7	87.7	11.1	0
11289	2011-05-13T08:00:00	21	2.81	24.60	1298.44	ND	ND	0.8	194.7	21.4	83	92	0
11290	2011-05-13T09:00:00	11	3.34	27.28	1799.51	ND	ND	0.4	186.7	22.7	76.1	197.1	0
11291	2011-05-13T10:00:00	16	3.54	31.72	1966.60	ND	ND	1	87.9	23.6	72.3	301.9	0
11292	2011-05-13T11:00:00	10	3.44	44.84	1858.57	ND	ND	1.3	87.6	24.2	71.9	408.3	0
11293	2011-05-13T12:00:00	16	3.16	61.03	1908.03	ND	ND	0.6	53.1	25.2	67	397.9	0
11294	2011-05-13T13:00:00	9	3.54	42.58	1570.54	ND	ND	0.6	134.1	26.6	61.6	612	0
11295	2011-05-13T14:00:00	12	3.29	40.05	1278.45	ND	ND	1.3	152.7	28	55.9	508	0
11296	2011-05-13T15:00:00	13	3.39	36.55	1226.57	ND	ND	2.3	260	26.1	63.7	106.9	0
11297	2011-05-13T16:00:00	28	3.97	47.73	1391.30	ND	ND	1.2	291	24.2	73.2	86.2	0.25
11298	2011-05-13T17:00:00	15	4.68	34.15	1291.06	ND	ND	0.4	322.3	23.8	76.6	39.5	4.06
11299	2011-05-13T18:00:00	29	6.13	55.13	1859.82	ND	ND	0.1	10.2	22.2	83.3	7.8	8.38
11300	2011-05-13T19:00:00	20	7.55	81.46	2973.29	ND	ND	0.4	310.3	21.8	85.7	0	1.27
11301	2011-05-13T20:00:00	33	6.82	39.97	2277.94	ND	ND	0.7	246	22.1	85.9	0	0.25
11302	2011-05-13T21:00:00	18	6.98	58.15	3006.32	ND	ND	0.6	205.5	21.9	86.4	0	0
11303	2011-05-13T22:00:00	29	7.16	46.19	2664.17	ND	ND	1	222	21.5	87.2	0	0.51
11304	2011-05-13T23:00:00	16	6.21	28.46	2230.34	ND	ND	1	148.8	20.5	91.1	0	2.03
11305	2011-05-14T00:00:00	9	3.90	32.67	1726.31	ND	ND	0.6	118.9	20.4	92.7	0	1.78
11306	2011-05-14T01:00:00	6	2.37	37.88	1477.58	ND	ND	0.8	157.8	20.2	95.1	0	2.79
11307	2011-05-14T02:00:00	4	2.55	37.15	1408.94	ND	ND	0.4	172.6	19.9	95.9	0	8.38
11308	2011-05-14T03:00:00	3	1.62	27.38	1035.92	ND	ND	0.6	74.2	19.7	95.6	0	4.32
11309	2011-05-14T04:00:00	1	1.42	22.24	911.44	ND	ND	0.2	282.2	19.4	96.9	0	32
11310	2011-05-14T05:00:00	1	1.23	22.23	854.30	ND	ND	1.5	1.1	19.5	96.9	0	0.76
11311	2011-05-14T06:00:00	ND	1.08	15.79	764.64	ND	ND	0.6	42	19.8	95.5	0	0.25
11312	2011-05-14T07:00:00	2	1.18	23.06	934.26	ND	ND	0.5	100.6	19.9	94.7	6.5	0
11313	2011-05-14T08:00:00	7	2.11	30.06	1227.34	ND	ND	0.3	206	20.2	93.7	47	0
11314	2011-05-14T09:00:00	7	4.15	35.71	2040.15	ND	ND	0.6	224.8	21.4	87.5	212.2	0
11315	2011-05-14T10:00:00	11	3.11	35.26	1799.51	ND	ND	0.7	107.4	23	77.7	226.4	0
11316	2011-05-14T11:00:00	25	3.88	48.02	1991.36	ND	ND	0.8	97.5	22.9	79.5	187	0.25
11317	2011-05-14T12:00:00	34	4.45	68.95	2161.32	ND	ND	0.9	113.7	22.8	81.4	108.2	0
11318	2011-05-14T13:00:00	18	3.54	83.79	2342.53	ND	ND	0.5	37.4	23.4	78.2	213.8	0
11319	2011-05-14T14:00:00	29	3.31	72.48	2278.91	ND	ND	0.9	4.2	23.9	76.6	210.3	0
11320	2011-05-14T15:00:00	16	1.78	43.85	1552.27	ND	ND	1.3	359.2	24	76.3	73.7	1.27
11321	2011-05-14T16:00:00	42	2.14	45.54	1427.20	ND	ND	1.2	307.2	22.9	81.9	51.5	0.76
11322	2011-05-14T17:00:00	23	3.07	55.26	1569.80	ND	ND	0.5	4.5	23	79.5	47.4	0
11323	2011-05-14T18:00:00	40	8.28	71.17	1684.12	ND	ND	0.4	260.3	22.8	81.1	12.8	1.02
11324	2011-05-14T19:00:00	21	17.27	86.43	2478.99	ND	ND	1.3	216.5	21.4	87.8	0	2.54
11325	2011-05-14T20:00:00	20	15.74	77.85	2399.35	ND	ND	1	219.6	21.2	88.6	0	0
11326	2011-05-14T21:00:00	12	10.11	43.57	2623.92	ND	ND	0.8	231.6	21.1	86.3	0	0
11327	2011-05-14T22:00:00	25	7.55	39.09	2543.88	ND	ND	0.5	187.9	20.9	86.2	0	0
11328	2011-05-14T23:00:00	13	5.38	27.70	1965.93	ND	ND	0.6	236.3	20.8	86.8	0	0.25
11329	2011-05-15T00:00:00	8	6.54	26.11	2755.89	ND	ND	0.8	228.8	20.6	85.5	0	0
11330	2011-05-15T01:00:00	5	4.34	23.29	2234.81	ND	ND	0.4	245.7	20.5	85.2	0	0
11331	2011-05-15T02:00:00	5	2.81	16.31	1534.50	ND	ND	0.5	328.9	20.6	86.5	0	0
11332	2011-05-15T03:00:00	9	2.38	12.90	1286.71	ND	ND	1.1	3.5	20	91.2	0	0
11333	2011-05-15T04:00:00	21	3.19	15.87	1700.84	ND	ND	1.2	1.5	19.7	94.9	0	0
11334	2011-05-15T05:00:00	38	3.96	23.25	2002.91	ND	ND	0.4	337.4	19.3	95.9	0	0
11335	2011-05-15T06:00:00	33	2.52	21.39	1528.22	ND	ND	0.8	202.2	19.3	90.8	0	0
11336	2011-05-15T07:00:00	22	2.67	24.29	1382.14	ND	ND	0.6	234	19.7	90.4	33.9	0
11337	2011-05-15T08:00:00	53	2.14	9.77	956.45	ND	ND	0.3	197	20.4	90	102.5	0
11338	2011-05-15T09:00:00	38	3.61	14.54	1624.21	ND	ND	0.4	142.2	21.7	83.4	232.8	0
11339	2011-05-15T10:00:00	62	3.65	36.69	1790.02	ND	ND	0.8	95.2	22.6	81.2	295.2	0
11340	2011-05-15T11:00:00	40	4.26	60.44	1886.39	ND	ND	0.7	59	23.6	75.9	324.1	0
11341	2011-05-15T12:00:00	33	5.69	67.11	1801.56	ND	ND	0.5	142	25.6	67.7	596.9	0
11342	2011-05-15T13:00:00	17	4.59	40.25	1262.71	ND	ND	0.8	161.2	27.2	58.4	625.5	0
11343	2011-05-15T14:00:00	31	3.27	36.79	1269.47	ND	ND	0.6	107.2	27.5	57.9	414.5	0
11344	2011-05-15T15:00:00	16	2.77	34.15	1305.40	ND	ND	0.5	75.9	27.8	56.9	281.6	0
11345	2011-05-15T16:00:00	34	2.12	37.83	1295.14	ND	ND	2.1	355.5	27.6	58.4	215	0
11346	2011-05-15T17:00:00	18	1.67	34.10	1271.16	ND	ND	1.8	279.2	25.7	66	65.5	0
11347	2011-05-15T18:00:00	23	2.47	39.61	1044.95	ND	ND	0.8	276.2	25.1	67.7	19.2	0.51
11348	2011-05-15T19:00:00	14	4.56	25.38	893.87	ND	ND	1	252.1	23.7	72.5	0	0.25
11349	2011-05-15T20:00:00	8	3.55	16.93	866.86	ND	ND	2.1	269	23	73.3	0	0
11350	2011-05-15T21:00:00	4	2.39	19.04	967.23	ND	ND	1.9	259.9	22.4	72.5	0	0
11351	2011-05-15T22:00:00	5	1.97	21.15	1022.05	ND	ND	2.4	257.2	22.1	71.7	0	0
11352	2011-05-15T23:00:00	3	2.23	16.36	941.60	ND	ND	2.2	249.1	22	71.3	0	0
11353	2011-05-16T00:00:00	1	2.54	15.33	975.30	ND	ND	1.1	243	21.9	72.9	0	0
11354	2011-05-16T01:00:00	3	3.50	12.86	816.26	ND	ND	0.9	253.6	21.4	77.1	0	0
11355	2011-05-16T02:00:00	3	6.73	13.60	792.24	ND	ND	0.4	277.3	21.3	79	0	0
11356	2011-05-16T03:00:00	3	9.29	15.83	905.11	ND	ND	0.4	301	21.5	77	0	0
11357	2011-05-16T04:00:00	2	10.41	15.88	1018.94	ND	ND	0.1	344.9	21.4	80.1	0	0
11358	2011-05-16T05:00:00	3	10.51	9.30	667.74	ND	ND	0.2	242.9	21.3	81.7	0	0
11359	2011-05-16T06:00:00	15	12.78	12.82	1063.50	ND	ND	0.2	253.1	21	80.2	0	0
11360	2011-05-16T07:00:00	25	12.90	17.65	1311.07	ND	ND	0.4	252.2	21.1	80.8	29.8	0
11361	2011-05-16T08:00:00	55	9.65	15.11	927.10	ND	ND	1.1	192.5	21.7	81.6	90.7	0
11362	2011-05-16T09:00:00	55	12.26	21.92	1744.70	ND	ND	1.4	204	22.2	82	171.3	0
11363	2011-05-16T10:00:00	29	14.33	46.55	3007.33	ND	ND	0.9	206.9	23.5	75.8	376.3	0
11364	2011-05-16T11:00:00	19	11.18	43.70	2211.29	ND	ND	0.6	176.5	25.8	65.6	618.1	0
11365	2011-05-16T12:00:00	30	9.09	41.98	1447.34	ND	ND	1	164.9	27.2	61.3	737.9	0
11366	2011-05-16T13:00:00	42	8.71	42.61	1304.09	ND	ND	1.2	120.1	28.6	55.8	758.3	0
11367	2011-05-16T14:00:00	42	12.30	48.26	1298.58	ND	ND	1.4	59.9	28.4	55.9	275.2	0
11368	2011-05-16T15:00:00	25	15.79	57.85	1483.11	ND	ND	2.3	333.2	24.5	71.3	60.2	2.54
11369	2011-05-16T16:00:00	30	15.85	62.58	1509.66	ND	ND	1.3	334	25.2	70.2	218.1	1.02
11370	2011-05-16T17:00:00	16	11.69	53.00	1834.20	ND	ND	2.3	292.4	27	56.2	219.4	0
11371	2011-05-16T18:00:00	9	14.46	70.61	2756.38	ND	ND	4.6	282.5	25.8	59.3	54.6	0
11372	2011-05-16T19:00:00	6	9.30	19.32	1114.22	ND	ND	3.6	276.2	25.1	61.5	0.1	0
11373	2011-05-16T20:00:00	4	8.07	16.20	1180.37	ND	ND	1.7	204.5	23.9	70	0	0
11374	2011-05-16T21:00:00	3	6.68	19.80	1118.55	ND	ND	1.6	219.3	23.9	67.2	0	0
11375	2011-05-16T22:00:00	8	6.47	42.01	1529.45	ND	ND	1.6	265	23.9	66.9	0	0
11376	2011-05-16T23:00:00	4	5.04	29.29	1118.55	ND	ND	1.5	259.3	23.6	68.2	0	0
11377	2011-05-17T00:00:00	7	3.55	19.44	889.38	ND	ND	0.7	199.1	22.8	73.9	0	0
11378	2011-05-17T01:00:00	14	2.44	14.34	784.63	ND	ND	0.7	156.1	21.8	81	0	0
11379	2011-05-17T02:00:00	20	3.27	21.73	929.31	ND	ND	1.7	193.9	21.3	83.6	0	0
11380	2011-05-17T03:00:00	10	3.91	22.84	972.99	ND	ND	0.9	225.6	21.2	83.2	0	0
11381	2011-05-17T04:00:00	5	3.54	5.97	588.12	ND	ND	0.6	158.1	21.4	82.9	0	0
11382	2011-05-17T05:00:00	4	3.13	4.69	599.84	ND	ND	0.3	123.7	20.9	86.7	0	0
11383	2011-05-17T06:00:00	3	3.10	10.51	723.10	ND	ND	0.6	216	20.7	87.4	0	0
11384	2011-05-17T07:00:00	3	2.84	13.14	801.64	ND	ND	0.9	224.9	21	83.1	34.6	0
11385	2011-05-17T08:00:00	28	2.71	14.92	779.86	ND	ND	0.6	142.5	22.5	78.6	208.6	0
11386	2011-05-17T09:00:00	20	4.88	14.87	1454.08	ND	ND	1.2	100.8	23.5	73.7	406.4	0
11387	2011-05-17T10:00:00	30	7.82	48.87	2906.59	ND	ND	1.2	58.3	24.8	65.7	486.3	0
11388	2011-05-17T11:00:00	16	6.21	31.64	1648.57	ND	ND	0.9	51.7	26.4	59.8	731.3	0
11389	2011-05-17T12:00:00	32	7.74	29.31	1093.44	ND	ND	1	64.1	27.7	54.9	759.4	0
11390	2011-05-17T13:00:00	21	10.68	37.14	1236.91	ND	ND	1.2	67.9	29	48.9	860.1	0
11391	2011-05-17T14:00:00	24	11.98	46.46	1323.52	ND	ND	2.7	359.9	28	47.9	304.3	0
11392	2011-05-17T15:00:00	13	12.02	45.87	1272.85	ND	ND	2.6	278.2	26.1	57.7	100.6	0
11393	2011-05-17T16:00:00	14	23.04	48.02	1310.81	ND	ND	3	289.2	26.6	56.7	105.1	0
11394	2011-05-17T17:00:00	14	11.35	45.03	1382.11	ND	ND	3.7	289.4	27.4	50.9	174.9	0
11395	2011-05-17T18:00:00	8	6.97	24.78	1235.67	ND	ND	5	284.4	26.9	51.6	76.9	0
11396	2011-05-17T19:00:00	6	5.06	18.80	1060.68	ND	ND	4.2	278	25.6	57.1	1.7	0
11397	2011-05-17T20:00:00	4	4.04	13.44	929.81	ND	ND	4.1	276.4	24.7	60.8	0	0
11398	2011-05-17T21:00:00	2	4.16	17.61	1052.90	ND	ND	3.1	271.2	24.3	62.1	0	0
11399	2011-05-17T22:00:00	1	3.27	ND	937.19	ND	ND	2.7	279.7	23.8	63.7	0	0
11400	2011-05-17T23:00:00	1	2.51	ND	810.11	ND	ND	2.9	268.9	23.6	64	0	0
11401	2011-05-18T00:00:00	ND	2.24	ND	752.55	ND	ND	1.7	240.3	22.9	65.1	0	0
11402	2011-05-18T01:00:00	3	1.46	ND	693.90	ND	ND	1.1	208.5	21.7	72.3	0	0
11403	2011-05-18T02:00:00	7	1.58	ND	1019.63	ND	ND	0.5	305.8	21.5	70.8	0	0
11404	2011-05-18T03:00:00	15	2.18	ND	1358.58	ND	ND	0.2	6.9	20.9	79.7	0	0
11405	2011-05-18T04:00:00	39	2.27	ND	1254.13	ND	ND	0.6	273.1	21	71.7	0	0
11406	2011-05-18T05:00:00	21	5.09	ND	1186.74	ND	ND	0.3	275.5	20.9	76.3	0	0
11407	2011-05-18T06:00:00	21	6.59	ND	1118.55	ND	ND	0.1	45.6	20.4	78.8	0	0
11408	2011-05-18T07:00:00	21	7.51	ND	1285.83	ND	ND	0	91.1	20.5	81.6	29.9	0
11409	2011-05-18T08:00:00	61	6.99	ND	1658.61	ND	ND	0.1	225.3	21.9	72.8	166.8	0
11410	2011-05-18T09:00:00	67	7.47	ND	2618.82	ND	ND	0.9	116.6	23.5	69.2	279.2	0
11411	2011-05-18T10:00:00	79	13.77	ND	2769.81	ND	ND	1	138.9	24.9	61.8	479.4	0
11412	2011-05-18T11:00:00	61	16.34	ND	3378.41	ND	ND	1.3	112.2	26.6	55.8	750.9	0
11413	2011-05-18T12:00:00	49	13.33	ND	1750.67	ND	ND	1.8	96.4	27.8	54.1	908.9	0
11414	2011-05-18T13:00:00	61	11.45	ND	1526.41	ND	ND	1.9	75.9	28.4	53	894.8	0
11415	2011-05-18T14:00:00	43	15.26	ND	1587.39	ND	ND	1.6	289.9	28.9	50.5	586.3	0
11416	2011-05-18T15:00:00	23	13.96	ND	1485.57	ND	ND	3	287.2	28.9	49.2	517.2	0
11417	2011-05-18T16:00:00	29	11.02	ND	1207.02	ND	ND	2.7	306.9	28.3	48.2	194	0
11418	2011-05-18T17:00:00	15	5.03	ND	949.80	ND	ND	3.3	288.7	28.7	46.6	325.6	0
11419	2011-05-18T18:00:00	9	5.01	ND	1043.85	ND	ND	4.2	279.3	27.1	51.7	79.1	0
11420	2011-05-18T19:00:00	12	4.33	ND	980.63	ND	ND	4.6	272.5	25.8	55.1	0.3	0
11421	2011-05-18T20:00:00	14	4.15	ND	1068.28	ND	ND	4.2	275.4	25.4	56.5	0	0
11422	2011-05-18T21:00:00	7	4.09	ND	1032.43	ND	ND	3.8	277.5	24.9	58	0	0
11423	2011-05-18T22:00:00	3	2.83	ND	824.56	ND	ND	2.8	264.6	24.4	60.4	0	0
11424	2011-05-18T23:00:00	2	2.41	ND	720.28	ND	ND	1.9	276.3	24.3	61.3	0	0
11425	2011-05-19T00:00:00	3	2.25	ND	788.61	ND	ND	0.5	68.3	23.4	68.4	0	0
11426	2011-05-19T01:00:00	2	1.59	ND	695.07	ND	ND	0.8	251.8	23.9	63.7	0	0
11427	2011-05-19T02:00:00	2	9.76	ND	1483.79	ND	ND	1.6	184.4	22.5	72.5	0	0
11428	2011-05-19T03:00:00	7	5.95	ND	647.52	ND	ND	1.2	147.9	21.8	78.4	0	0
11429	2011-05-19T04:00:00	14	3.86	ND	759.31	ND	ND	0.8	169.9	21.9	76.6	0	0
11430	2011-05-19T05:00:00	9	3.37	ND	793.58	ND	ND	0.6	197.6	21.6	78.8	0	0
11431	2011-05-19T06:00:00	12	4.38	ND	815.43	ND	ND	0.8	304.9	21.6	79.1	0	0
11432	2011-05-19T07:00:00	46	4.51	ND	792.78	ND	ND	0.6	42.4	21.9	79	28	0
11433	2011-05-19T08:00:00	67	4.95	ND	997.65	ND	ND	0.8	147.2	22.1	79.3	127.1	0
11434	2011-05-19T09:00:00	63	10.74	ND	2382.36	ND	ND	0.9	137.6	23.4	71.9	300.2	0
11435	2011-05-19T10:00:00	59	12.77	ND	3019.56	ND	ND	1.9	168.5	24.6	63.5	377.7	0
11436	2011-05-19T11:00:00	30	11.51	ND	2391.11	ND	ND	1.3	166.2	25.3	61.6	496.6	0
11437	2011-05-19T12:00:00	31	8.50	37.50	1387.58	ND	ND	1.1	135.7	26.3	56	385.5	0
11438	2011-05-19T13:00:00	19	14.71	33.67	1369.22	ND	ND	1.1	151.5	27.1	53.7	368.2	0
11439	2011-05-19T14:00:00	32	10.42	39.96	1338.27	ND	ND	1.7	252.2	25.8	59.9	116.3	0
11440	2011-05-19T15:00:00	24	6.99	35.43	1252.06	ND	ND	2.4	255.1	23.7	69.9	177.8	0.76
11441	2011-05-19T16:00:00	33	5.58	32.85	1345.92	ND	ND	0.9	262.1	25.3	61.9	139.2	0
11442	2011-05-19T17:00:00	48	6.43	53.09	1697.21	ND	ND	0.8	14.9	26	59.3	118.7	0
11443	2011-05-19T18:00:00	40	6.36	65.69	1931.08	ND	ND	1.1	290.8	25.9	57.9	46.1	0
11444	2011-05-19T19:00:00	23	19.21	98.84	2229.19	ND	ND	1.6	302	25.2	58.6	0.1	0
11445	2011-05-19T20:00:00	28	10.33	57.80	1662.25	ND	ND	0.2	291.4	25.1	59.6	0	0
11446	2011-05-19T21:00:00	20	5.92	29.01	1501.25	ND	ND	2.2	20.7	22.8	77.2	0	0.25
11447	2011-05-19T22:00:00	22	7.67	36.57	2058.24	ND	ND	0.6	47.4	21.7	85.3	0	0
11448	2011-05-19T23:00:00	28	5.75	34.05	1506.79	ND	ND	0.9	66.7	21.1	86.9	0	0.25
11449	2011-05-20T00:00:00	39	8.43	46.82	2102.94	ND	ND	0.5	104.3	20.6	87.7	0	0
11450	2011-05-20T01:00:00	20	12.80	36.57	1580.17	ND	ND	1	209.2	20.7	88	0	0
11451	2011-05-20T02:00:00	11	8.63	27.94	1129.08	ND	ND	0.7	210	20.7	87.9	0	0
11452	2011-05-20T03:00:00	7	5.81	23.59	925.84	ND	ND	0.2	340.6	20.5	86.9	0	0
11453	2011-05-20T04:00:00	5	4.46	20.02	913.93	ND	ND	0.7	257.9	20.5	82.9	0	0
11454	2011-05-20T05:00:00	2	5.06	21.80	1150.87	ND	ND	0.8	238.3	20.2	79.6	0	0
11455	2011-05-20T06:00:00	1	4.67	15.12	913.00	ND	ND	1.1	247.5	20	78.8	0	0
11456	2011-05-20T07:00:00	6	4.10	8.54	732.15	ND	ND	0.6	256.8	20.3	76.1	58.1	0
11457	2011-05-20T08:00:00	42	3.51	10.25	845.65	ND	ND	1	319.9	21.3	80.7	209	0
11458	2011-05-20T09:00:00	60	5.05	18.71	1414.23	ND	ND	0.8	108.2	22.6	76.7	289.9	0
11459	2011-05-20T10:00:00	71	11.72	65.50	2875.04	ND	ND	1	136.6	24.3	68.2	475.8	0
11460	2011-05-20T11:00:00	43	17.83	86.98	2422.98	ND	ND	1.1	129.6	26	60.3	646.7	0
11461	2011-05-20T12:00:00	63	17.25	41.99	1356.35	ND	ND	1.4	101.9	27.4	54.7	736	0
11462	2011-05-20T13:00:00	48	14.71	52.59	1501.28	ND	ND	1.2	76	28.3	51	518.8	0
11463	2011-05-20T14:00:00	46	12.21	50.46	1471.03	ND	ND	0.6	43.4	29.5	47.9	735.1	0
11464	2011-05-20T15:00:00	24	11.62	47.97	1488.52	ND	ND	2.1	10.3	29.6	48.9	339.6	0
11465	2011-05-20T16:00:00	41	10.88	44.26	1454.11	ND	ND	1.4	214.4	27.3	56.8	213.9	0
11466	2011-05-20T17:00:00	22	19.80	40.71	1443.06	ND	ND	1.8	278.7	27.8	53.9	266.6	4.83
11467	2011-05-20T18:00:00	32	23.51	62.17	1757.68	ND	ND	1.2	271.7	24.9	70.2	36.2	0.76
11468	2011-05-20T19:00:00	26	8.15	35.55	1385.72	ND	ND	2.7	261	24.7	65.7	0	0
11469	2011-05-20T20:00:00	14	7.09	54.96	1945.57	ND	ND	2.2	275.7	24.8	62.8	0	0
11470	2011-05-20T21:00:00	8	6.34	39.06	1774.50	ND	ND	1.3	186.7	23.8	69.4	0	0
11471	2011-05-20T22:00:00	20	4.41	27.24	1186.63	ND	ND	0.1	16.6	23.1	74.9	0	0
11472	2011-05-20T23:00:00	34	3.59	42.69	1513.94	ND	ND	1.4	6.3	22.7	82.1	0	3.05
11473	2011-05-21T00:00:00	52	4.26	65.79	2125.75	ND	ND	1.5	29.5	21.8	86.3	0	0.25
11474	2011-05-21T01:00:00	27	9.75	61.49	1926.62	ND	ND	0.3	337.2	21.5	85.6	0	0.25
11475	2011-05-21T02:00:00	38	8.00	48.62	1573.69	ND	ND	0.8	224.7	21.7	86	0	0
11476	2011-05-21T03:00:00	25	20.24	34.16	1268.87	ND	ND	0.4	169.4	21.3	87.3	0	0
11477	2011-05-21T04:00:00	29	16.04	29.61	1199.27	ND	ND	1	18.1	20.9	89.2	0	0
11478	2011-05-21T05:00:00	16	7.96	29.40	1299.32	ND	ND	0.6	58.6	20.6	91.7	0	0
11479	2011-05-21T06:00:00	17	4.85	26.57	1264.14	ND	ND	0.1	329.6	20.7	91.5	0	0
11480	2011-05-21T07:00:00	13	3.77	22.68	1162.95	ND	ND	0.5	262.9	21	88.4	6.1	0
11481	2011-05-21T08:00:00	51	3.67	24.64	1118.93	ND	ND	1.2	153.7	21.1	88.5	31	0
11482	2011-05-21T09:00:00	52	3.93	24.81	1401.96	ND	ND	1.1	183.8	21.7	84.7	158.4	0
11483	2011-05-21T10:00:00	48	5.05	32.19	2492.43	ND	ND	0.8	182.3	22.5	79.4	206.1	0
11484	2011-05-21T11:00:00	25	3.92	40.77	2181.11	ND	ND	0.6	109.2	23.6	73.1	229.9	0
11485	2011-05-21T12:00:00	51	2.32	39.67	1630.52	ND	ND	1.1	27.3	24.6	70.4	343.5	0
11486	2011-05-21T13:00:00	51	2.17	48.79	1750.43	ND	ND	0.9	19.2	26.9	60.9	772.8	0
11487	2011-05-21T14:00:00	58	3.09	75.08	2006.07	ND	ND	1.4	56.6	28.4	53.2	697.9	0
11488	2011-05-21T15:00:00	40	3.26	70.14	1772.78	ND	ND	1	6.5	29.1	50.3	473.6	0
11489	2011-05-21T16:00:00	30	5.68	68.24	1776.89	ND	ND	3.1	295	27.9	52.6	338.2	0
11490	2011-05-21T17:00:00	16	19.18	51.20	1434.38	ND	ND	1.4	323	28.1	50	248.5	0
11491	2011-05-21T18:00:00	10	17.16	16.29	1099.65	ND	ND	1.9	282	27	52.5	32	0
11492	2011-05-21T19:00:00	14	12.77	21.35	1107.16	ND	ND	2.5	240.4	23.8	72.2	0	7.37
11493	2011-05-21T20:00:00	22	12.37	30.54	1266.50	ND	ND	1.3	195	21.7	81	0	2.79
11494	2011-05-21T21:00:00	12	5.99	27.66	1257.54	ND	ND	0.7	27.3	21.6	85.4	0	0.25
11495	2011-05-21T22:00:00	35	6.89	55.52	2367.00	ND	ND	0.2	301.5	21.3	85.6	0	0
11496	2011-05-21T23:00:00	19	7.53	65.29	3009.48	ND	ND	1.1	212.6	21.7	80	0	0.25
11497	2011-05-22T00:00:00	19	7.28	47.63	2163.88	ND	ND	0.5	171.7	21.1	87.3	0	0
11498	2011-05-22T01:00:00	11	7.99	30.22	1571.55	ND	ND	0.2	60.8	21.2	83.7	0	0
11499	2011-05-22T02:00:00	15	7.81	45.59	2465.58	ND	ND	0.3	119	20.7	88.7	0	0
11500	2011-05-22T03:00:00	9	6.87	32.91	1783.94	ND	ND	0.4	253.6	20.9	86	0	0
11501	2011-05-22T04:00:00	8	4.91	37.71	1502.69	ND	ND	0.8	250	20.7	84.2	0	0.25
11502	2011-05-22T05:00:00	21	4.42	34.86	1321.02	ND	ND	0.8	218.3	20.6	80.2	0	0
11503	2011-05-22T06:00:00	14	4.34	19.67	1207.70	ND	ND	1	202.1	20.6	85.8	0	0
11504	2011-05-22T07:00:00	10	3.77	13.27	925.53	ND	ND	0.8	162.1	20.7	84.8	22.6	0
11505	2011-05-22T08:00:00	34	3.12	22.68	1343.60	ND	ND	0.5	124.8	21.3	82.8	118.5	0
11506	2011-05-22T09:00:00	18	3.21	29.59	1493.43	ND	ND	1	136.8	22	81.4	150.3	0
11507	2011-05-22T10:00:00	27	3.66	33.26	1553.68	ND	ND	0.8	120.4	22.7	80.1	289.5	0
11508	2011-05-22T11:00:00	27	5.02	37.30	1546.00	ND	ND	1	116	24.5	71.7	563.2	0
11509	2011-05-22T12:00:00	33	5.70	34.43	1463.92	ND	ND	0.9	133	25.4	66.9	374.4	0
11510	2011-05-22T13:00:00	30	6.19	34.66	1330.69	ND	ND	0.3	11.9	25.5	65.9	258.1	0
11511	2011-05-22T14:00:00	27	6.59	29.73	1273.76	ND	ND	0.3	15.3	26.9	61	439.2	0
11512	2011-05-22T15:00:00	15	7.33	25.47	1164.44	ND	ND	1.2	1.5	28.1	53.9	537.8	0
11513	2011-05-22T16:00:00	8	6.88	31.80	1319.58	ND	ND	3	291.9	28.4	47.8	531.7	0
11514	2011-05-22T17:00:00	5	5.86	22.92	1147.09	ND	ND	3.1	278.8	27.6	48.4	300.5	0
11515	2011-05-22T18:00:00	3	3.38	4.29	843.59	ND	ND	2.3	279.8	26.6	50.6	101.3	0
11516	2011-05-22T19:00:00	3	2.77	5.60	852.30	ND	ND	1.8	271.1	25.7	52.5	1.1	0
11517	2011-05-22T20:00:00	4	2.42	8.87	872.71	ND	ND	2.9	262.8	24.5	58.1	0	0
11518	2011-05-22T21:00:00	3	3.03	20.19	1017.88	ND	ND	1.8	195.6	23.3	68.3	0	0
11519	2011-05-22T22:00:00	10	1.90	10.54	831.52	ND	ND	2.3	174.3	21.5	81.9	0	0
11520	2011-05-22T23:00:00	7	1.94	20.14	1064.22	ND	ND	1.5	146.9	20.3	88.9	0	5.08
11521	2011-05-23T00:00:00	10	1.57	24.19	1161.37	ND	ND	1.2	170.6	19.5	95	0	9.91
11522	2011-05-23T01:00:00	6	1.59	20.96	1023.26	ND	ND	1.1	163.6	19.5	95.2	0	0.51
11523	2011-05-23T02:00:00	5	1.05	17.56	944.55	ND	ND	0.5	135.5	19.4	94.4	0	0
11524	2011-05-23T03:00:00	4	0.93	14.67	865.54	ND	ND	1	25.3	19.7	93.1	0	0
11525	2011-05-23T04:00:00	3	1.31	7.44	787.66	ND	ND	1.1	12.4	19.5	93.1	0	0.25
11526	2011-05-23T05:00:00	3	1.41	14.09	854.59	ND	ND	0.7	25.8	19.5	92.3	0	0
11527	2011-05-23T06:00:00	35	2.42	19.45	787.12	ND	ND	0.3	58.6	19.5	92.4	0	0
11528	2011-05-23T07:00:00	34	7.15	25.53	854.59	ND	ND	0.2	327.3	19.8	89.9	32.9	0
11529	2011-05-23T08:00:00	37	14.26	30.70	1249.43	ND	ND	0.6	229.4	21	83	227.3	0
11530	2011-05-23T09:00:00	40	15.90	25.98	1311.07	ND	ND	0.8	98.7	22.6	76.6	382.7	0
11531	2011-05-23T10:00:00	35	19.83	36.45	1943.21	ND	ND	1	121.3	24	70.1	394.2	0
11532	2011-05-23T11:00:00	27	54.27	76.38	2157.93	ND	ND	1.4	138.3	24.7	68.3	567.9	0
11533	2011-05-23T12:00:00	24	56.65	57.80	1590.79	ND	ND	1.1	122.3	26.4	61.7	704	0
11534	2011-05-23T13:00:00	34	26.93	60.76	1726.48	ND	ND	0.7	133.2	27.5	56.9	693.2	0
11535	2011-05-23T14:00:00	29	19.66	53.90	1524.89	ND	ND	1.2	96.8	28.6	53	568.9	0
11536	2011-05-23T15:00:00	33	16.71	50.40	1507.28	ND	ND	1.2	93.7	28.6	52.2	482.4	0
11537	2011-05-23T16:00:00	28	15.57	55.47	1553.66	ND	ND	0.3	180.6	28.9	51.5	283.4	0
11538	2011-05-23T17:00:00	26	12.90	53.43	1485.57	ND	ND	1.6	189.4	28.3	53.9	180.5	0
11539	2011-05-23T18:00:00	31	14.60	41.84	1366.79	ND	ND	3.4	262.8	26.7	58.7	67	0
11540	2011-05-23T19:00:00	18	10.33	52.62	1578.44	ND	ND	3.4	259.2	25.5	61.9	0.3	0
11541	2011-05-23T20:00:00	12	6.61	30.20	1457.36	ND	ND	2.8	265.1	25.3	61.7	0	0
11542	2011-05-23T21:00:00	7	6.64	31.16	1525.19	ND	ND	1.5	274	24.8	63.9	0	0
11543	2011-05-23T22:00:00	14	4.95	31.13	1385.25	ND	ND	0.4	73.6	23.7	72.5	0	0
11544	2011-05-23T23:00:00	9	4.28	34.11	1300.30	ND	ND	0.6	263.2	23.6	69.5	0	0
11545	2011-05-24T00:00:00	31	6.55	34.29	1869.97	ND	ND	0.6	220.6	23.6	71.6	0	0
11546	2011-05-24T01:00:00	18	6.26	28.77	1436.68	ND	ND	1	197.1	23.6	72.5	0	0
11547	2011-05-24T02:00:00	14	6.44	29.81	1630.52	ND	ND	1	166.3	22.7	80.9	0	0
11548	2011-05-24T03:00:00	13	4.16	28.30	1079.93	ND	ND	0.4	173.2	22.2	82.3	0	0
11549	2011-05-24T04:00:00	17	3.50	23.51	998.66	ND	ND	0.5	148.2	22	82.1	0	0
11550	2011-05-24T05:00:00	16	3.35	15.70	873.24	ND	ND	0.4	100.4	22	82.5	0	0
11551	2011-05-24T06:00:00	26	3.40	12.90	782.51	ND	ND	0.4	96.6	21.8	84	0	0
11552	2011-05-24T07:00:00	43	4.02	13.92	827.31	ND	ND	0.4	35.7	21.7	86.2	13.3	0
11553	2011-05-24T08:00:00	57	5.52	24.08	1506.79	ND	ND	0.3	244.3	22.6	76.5	102.8	0
11554	2011-05-24T09:00:00	40	6.89	27.61	2386.40	ND	ND	0.7	142.6	24.1	71.4	280.6	0
11555	2011-05-24T10:00:00	83	5.90	34.79	2352.82	ND	ND	1.4	109.5	25.5	67.4	543.8	0
11556	2011-05-24T11:00:00	51	6.67	69.41	2432.76	ND	ND	1.5	65.6	27.1	60.1	676.9	0
11557	2011-05-24T12:00:00	55	8.13	84.59	2145.85	ND	ND	0.9	50.5	28.1	55.3	493	0
11558	2011-05-24T13:00:00	28	12.87	53.93	1504.78	ND	ND	0.8	273.6	28.2	54.8	477.7	0
11559	2011-05-24T14:00:00	21	15.57	41.02	1238.96	ND	ND	0.8	51.6	29.9	48.1	588.8	0
11560	2011-05-24T15:00:00	12	12.94	34.11	1199.38	ND	ND	1.3	304	29.4	48.9	188.2	0
11561	2011-05-24T16:00:00	12	16.80	31.94	1150.90	ND	ND	4	277.4	28.9	49	331.3	0
11562	2011-05-24T17:00:00	7	13.96	30.53	1125.78	ND	ND	4.5	272.1	28	51.9	308.5	0
11563	2011-05-24T18:00:00	11	6.72	20.28	1076.14	ND	ND	4.5	275.3	25.9	56.9	64.8	1.02
11564	2011-05-24T19:00:00	7	4.94	18.53	1045.65	ND	ND	2.7	273.5	25.7	51	1.2	0
11565	2011-05-24T20:00:00	4	5.15	19.12	999.02	ND	ND	2	231.7	25.4	55	0	0
11566	2011-05-24T21:00:00	4	4.70	28.25	1227.45	ND	ND	1.7	173.3	24	67.9	0	0
11567	2011-05-24T22:00:00	8	3.55	32.25	1210.27	ND	ND	0.9	228.8	23.8	68.4	0	0
11568	2011-05-24T23:00:00	5	4.15	33.67	1506.11	ND	ND	0.4	315.4	23.8	66.3	0	0
11569	2011-05-25T00:00:00	31	3.37	34.42	1277.91	ND	ND	0.8	23.7	22.9	74.6	0	0
11570	2011-05-25T01:00:00	17	3.23	33.66	1194.41	ND	ND	0.4	66.1	22.3	78	0	0
11571	2011-05-25T02:00:00	20	8.57	34.53	1339.57	ND	ND	0.5	134.4	22.4	76.2	0	0
11572	2011-05-25T03:00:00	12	8.05	23.26	897.13	ND	ND	0.7	171.8	21.9	77.9	0	0
11573	2011-05-25T04:00:00	7	6.82	20.50	827.59	ND	ND	0.4	176.5	21.6	81.2	0	0
11574	2011-05-25T05:00:00	5	5.23	11.41	668.20	ND	ND	0.9	230.9	21.3	79.2	0	0
11575	2011-05-25T06:00:00	10	4.01	12.46	758.03	ND	ND	0.4	316.1	21.4	76.1	0	0
11576	2011-05-25T07:00:00	27	3.52	13.92	792.24	ND	ND	0.9	10.9	21.6	80.3	1.7	0
11577	2011-05-25T08:00:00	28	4.22	14.58	1053.26	ND	ND	1.2	241.6	22	75.2	48.6	0
11578	2011-05-25T09:00:00	22	7.31	29.81	1689.77	ND	ND	1.4	147	23.3	71.5	255.9	0
11579	2011-05-25T10:00:00	42	16.70	26.78	2027.55	ND	ND	1.2	129.6	23.6	71.3	271.1	0
11580	2011-05-25T11:00:00	22	26.86	52.02	2440.08	ND	ND	1.6	181.7	24.1	70.7	552.3	0
11581	2011-05-25T12:00:00	38	16.12	51.28	1747.49	ND	ND	0.9	158.7	26.2	62.2	740.5	0
11582	2011-05-25T13:00:00	30	11.02	40.58	1472.28	ND	ND	1.1	149.5	27.1	58.3	457	0
11583	2011-05-25T14:00:00	35	9.58	47.68	1407.49	ND	ND	1	53.5	28.2	53.9	480.4	0
11584	2011-05-25T15:00:00	19	10.17	44.32	1435.81	ND	ND	2	14.3	28.8	52.3	389.6	0
11585	2011-05-25T16:00:00	30	18.28	45.95	1311.04	ND	ND	2.3	52.3	28.7	51.1	237.8	0
11586	2011-05-25T17:00:00	23	30.03	46.72	1275.81	ND	ND	2.1	40.1	28.9	49.6	258.1	0
11587	2011-05-25T18:00:00	28	33.95	48.41	1671.26	ND	ND	1.2	31.2	28.3	51.6	113.9	0
11588	2011-05-25T19:00:00	37	33.06	42.54	1691.11	ND	ND	0.8	274.5	26.8	55.6	0.8	0
11589	2011-05-25T20:00:00	27	30.87	42.86	1820.99	ND	ND	1.9	273.5	25.9	56.7	0	0
11590	2011-05-25T21:00:00	15	12.40	37.18	1827.02	ND	ND	2.2	276.6	25.3	59.3	0	0
11591	2011-05-25T22:00:00	8	8.00	32.64	1444.92	ND	ND	1.2	290.1	24.6	63.9	0	0
11592	2011-05-25T23:00:00	12	5.42	29.34	1144.07	ND	ND	1	224.4	24.1	69	0	0
11593	2011-05-26T00:00:00	36	5.80	26.12	1473.37	ND	ND	0.4	103.9	23.2	73.6	0	0
11594	2011-05-26T01:00:00	49	5.52	31.54	1309.49	ND	ND	1	138.4	22.5	78.4	0	0
11595	2011-05-26T02:00:00	44	8.99	30.98	1874.39	ND	ND	1.3	186.5	22.4	79.3	0	0
11596	2011-05-26T03:00:00	24	6.00	27.71	1328.67	ND	ND	0.9	216.1	22.3	78.3	0	0
11597	2011-05-26T04:00:00	26	4.41	21.46	930.89	ND	ND	0.4	107	21.9	80	0	0
11598	2011-05-26T05:00:00	14	4.36	15.38	827.59	ND	ND	0.2	64.8	21.7	81.2	0	0
11599	2011-05-26T06:00:00	28	4.51	20.04	951.65	ND	ND	0.5	170.9	21.6	81.7	0	0
11600	2011-05-26T07:00:00	41	5.83	21.15	1019.28	ND	ND	0.4	140	21.7	83.5	22.9	0
11601	2011-05-26T08:00:00	63	7.59	26.00	1359.51	ND	ND	0.6	19.2	22.4	80.9	91.6	0
11602	2011-05-26T09:00:00	85	8.29	32.67	2225.80	ND	ND	1.1	13.3	23.5	74.8	216.6	0
11603	2011-05-26T10:00:00	112	10.56	56.99	2758.41	ND	ND	1.2	155.9	25.2	67.3	462.8	0
11604	2011-05-26T11:00:00	77	67.07	81.87	2120.80	ND	ND	2.3	168	26.5	62.4	548.4	0
11605	2011-05-26T12:00:00	76	ND	105.87	2095.50	ND	ND	1.4	164.1	27.8	57.2	800.9	0
11606	2011-05-26T13:00:00	39	42.03	54.90	1618.92	ND	ND	1	129.7	28.7	53	474.9	0
11607	2011-05-26T14:00:00	54	22.92	38.82	1310.61	ND	ND	1.2	42.8	30.3	48.5	648.4	0
11608	2011-05-26T15:00:00	65	16.75	39.85	1457.48	ND	ND	1.9	7.6	30	50.6	307.8	0
11609	2011-05-26T16:00:00	56	19.37	45.88	1432.74	ND	ND	3.5	278.5	29.8	49	538.7	0
11610	2011-05-26T17:00:00	41	37.86	56.72	1641.32	ND	ND	0.8	351.5	29.5	48.4	121.7	0
11611	2011-05-26T18:00:00	39	16.73	25.83	1267.57	ND	ND	1.6	278.2	27.6	56.3	58.5	0
11612	2011-05-26T19:00:00	31	15.52	36.91	1421.39	ND	ND	2.5	257.2	26.8	57.6	5	0
11613	2011-05-26T20:00:00	25	10.65	26.89	1325.41	ND	ND	1.7	253.5	26.1	59.6	0	0
11614	2011-05-26T21:00:00	13	8.26	29.94	1345.31	ND	ND	2.2	265.8	25.5	60.1	0	0
11615	2011-05-26T22:00:00	25	7.30	32.13	1250.81	ND	ND	0.7	171	24.4	71.7	0	0
11616	2011-05-26T23:00:00	33	4.94	23.93	1109.00	ND	ND	0.3	181.5	24.3	70.8	0	0
11617	2011-05-27T00:00:00	57	5.44	49.36	1874.38	ND	ND	0.6	113.1	23.9	74.7	0	0
11618	2011-05-27T01:00:00	35	8.48	42.63	1540.86	ND	ND	0.3	215.4	23.8	72.6	0	0
11619	2011-05-27T02:00:00	31	6.76	37.52	1380.60	ND	ND	0.7	117.3	23.2	76.7	0	0
11620	2011-05-27T03:00:00	18	6.54	27.97	1115.91	ND	ND	0.7	157.5	22.8	79.2	0	0
11621	2011-05-27T04:00:00	17	5.72	23.11	1012.06	ND	ND	0.6	156.5	22.5	81	0	0
11622	2011-05-27T05:00:00	9	5.69	18.86	931.52	ND	ND	0.9	171.3	22.4	81.2	0	0
11623	2011-05-27T06:00:00	29	5.82	20.80	965.27	ND	ND	0.6	102.1	22	82.1	0	0
11624	2011-05-27T07:00:00	28	5.19	19.17	1054.69	ND	ND	0.2	107.7	22.3	81.1	22.6	0
11625	2011-05-27T08:00:00	58	6.91	20.70	1271.46	ND	ND	0.4	180.9	23	77.9	119.8	0
11626	2011-05-27T09:00:00	67	8.88	26.79	1934.46	ND	ND	0.9	141.7	24.4	72.5	279.5	0
11627	2011-05-27T10:00:00	74	11.04	48.34	2183.70	ND	ND	1	112.9	25.9	66.7	485.5	0
11628	2011-05-27T11:00:00	47	12.48	87.71	2642.85	ND	ND	1.1	125.4	27.2	61.1	616.8	0
11629	2011-05-27T12:00:00	47	13.09	69.01	1915.75	ND	ND	0.9	250.6	27.3	61.1	381.2	0
11630	2011-05-27T13:00:00	42	10.25	41.32	1419.97	ND	ND	1.4	17.8	29.6	51.4	746.4	0
11631	2011-05-27T14:00:00	53	10.16	45.80	1558.81	ND	ND	0.7	354.4	30.1	49.3	407.3	0
11632	2011-05-27T15:00:00	41	10.87	40.06	1374.95	ND	ND	1.9	293.6	28.5	52.8	39.6	0
11633	2011-05-27T16:00:00	53	12.80	43.10	1529.96	ND	ND	4.7	259.3	24.7	66.2	19.6	0
11634	2011-05-27T17:00:00	29	14.84	37.95	1430.57	ND	ND	4.3	264.4	24.2	63.8	112.7	0
11635	2011-05-27T18:00:00	41	8.31	25.75	1233.93	ND	ND	3.6	277.9	25.3	62	40.3	0
11636	2011-05-27T19:00:00	22	8.84	29.49	1433.45	ND	ND	1.6	293.4	25.2	61.2	0.5	0
11637	2011-05-27T20:00:00	17	6.19	21.30	1283.94	ND	ND	1.7	269.8	24.6	64.3	0	0
11638	2011-05-27T21:00:00	9	5.55	28.03	1578.82	ND	ND	2.7	263.1	24.1	66	0	0
11639	2011-05-27T22:00:00	6	5.49	28.56	1621.85	ND	ND	2	276.8	23.9	66.6	0	0
11640	2011-05-27T23:00:00	3	3.73	24.11	1164.21	ND	ND	1.8	252.9	23.9	66.4	0	0
11641	2011-05-28T00:00:00	2	3.00	20.77	1027.24	ND	ND	1.4	196.7	23.1	76.9	0	0
11642	2011-05-28T01:00:00	11	2.73	16.69	910.64	ND	ND	0.5	169.4	22.2	81.7	0	0
11643	2011-05-28T02:00:00	23	2.91	24.83	1271.02	ND	ND	0.5	3.7	22.3	82	0	0
11644	2011-05-28T03:00:00	33	3.27	24.24	1191.99	ND	ND	0.2	113.8	22.2	81.9	0	0
11645	2011-05-28T04:00:00	32	4.46	25.37	1361.81	ND	ND	0.5	223.4	22.1	79.3	0	0
11646	2011-05-28T05:00:00	18	7.06	25.29	1542.86	ND	ND	0.5	237.4	22.1	77.5	0	0
11647	2011-05-28T06:00:00	20	7.65	17.72	1134.46	ND	ND	0.3	2	21.8	80.5	0	0
11648	2011-05-28T07:00:00	24	6.22	17.42	1008.64	ND	ND	0.1	210.6	21.4	86.3	18.1	0
11649	2011-05-28T08:00:00	72	5.75	18.09	1312.85	ND	ND	0.1	157.7	22.3	79.9	81.4	0
11650	2011-05-28T09:00:00	99	6.28	21.00	1827.72	ND	ND	0.8	70.3	22.8	81	93.8	0
11651	2011-05-28T10:00:00	112	9.39	36.06	2080.98	ND	ND	0.9	67.9	23.1	80.9	171.2	0
11652	2011-05-28T11:00:00	101	17.31	76.90	3346.61	ND	ND	1	58.5	23.3	81.7	224.9	0
11653	2011-05-28T12:00:00	95	20.92	91.78	3189.40	ND	ND	0.5	108	24.8	72.1	426.5	0
11654	2011-05-28T13:00:00	69	22.34	90.23	2621.68	ND	ND	1	69.7	26.9	61.2	552.8	0
11655	2011-05-28T14:00:00	73	18.33	81.18	2063.71	ND	ND	1.3	80.8	27.4	59.8	413.8	0
11656	2011-05-28T15:00:00	62	10.86	77.79	2055.60	ND	ND	1.4	75.4	28.2	56.1	487.1	0
11657	2011-05-28T16:00:00	59	17.27	86.86	2130.55	ND	ND	1.2	71.3	28.3	56.6	287.9	0
11658	2011-05-28T17:00:00	52	20.72	66.82	1656.36	ND	ND	0.4	29.8	27.6	59.1	60.3	0
11659	2011-05-28T18:00:00	36	33.62	66.91	1698.74	ND	ND	3.3	271.2	25.4	62.9	3.9	0
11660	2011-05-28T19:00:00	23	33.72	58.31	1801.02	ND	ND	3	260.6	25.1	62.1	0	0
11661	2011-05-28T20:00:00	12	22.73	20.71	1340.81	ND	ND	2.8	275	24.9	61.5	0	0
11662	2011-05-28T21:00:00	8	11.92	24.51	1362.82	ND	ND	2.4	266.8	24.6	61.9	0	0
11663	2011-05-28T22:00:00	5	8.58	22.31	1224.15	ND	ND	0.2	120.7	24.1	67	0	0
11664	2011-05-28T23:00:00	4	6.58	19.60	1096.46	ND	ND	1.1	240.1	23.7	69.9	0	0
11665	2011-05-29T00:00:00	26	8.01	25.35	1916.22	ND	ND	2.9	256.6	23.5	67	0	0
11666	2011-05-29T01:00:00	15	7.27	27.34	1504.59	ND	ND	1.5	271.1	22.4	75.6	0	7.11
11667	2011-05-29T02:00:00	9	5.71	10.57	840.35	ND	ND	1.5	240.5	21	86.8	0	1.27
11668	2011-05-29T03:00:00	6	4.19	10.22	881.58	ND	ND	0.6	225.2	21.2	87.6	0	0
11669	2011-05-29T04:00:00	5	3.65	16.44	983.97	ND	ND	0.5	19.4	21.3	87.2	0	0
11670	2011-05-29T05:00:00	4	3.23	17.82	1018.25	ND	ND	0.3	89	20.8	92.1	0	0
11671	2011-05-29T06:00:00	10	5.24	22.10	1411.83	ND	ND	0.4	184.9	20.8	92.3	0	0
11672	2011-05-29T07:00:00	5	4.86	19.31	1310.18	ND	ND	0.7	249.4	20.7	86.3	27.3	0
11673	2011-05-29T08:00:00	2	3.90	16.98	1264.57	ND	ND	0.3	98.6	22.2	79	194.1	0
11674	2011-05-29T09:00:00	12	3.35	12.46	1225.63	ND	ND	0.5	72	23.5	76.6	282.7	0
11675	2011-05-29T10:00:00	21	3.18	25.41	1504.59	ND	ND	1	125.7	24.9	69.2	472.9	0
11676	2011-05-29T11:00:00	12	32.61	57.69	1649.12	ND	ND	1.2	127.8	26.1	64.2	649.6	0
11677	2011-05-29T12:00:00	19	37.29	51.19	1506.29	ND	ND	1.6	177.8	27.1	60.5	366.1	0
11678	2011-05-29T13:00:00	14	19.13	34.27	1303.66	ND	ND	1.7	175.8	27.9	57.5	537.5	0
11679	2011-05-29T14:00:00	22	11.75	20.65	1168.32	ND	ND	2.3	177.4	26.3	67.1	309.1	0
11680	2011-05-29T15:00:00	14	9.61	20.01	1150.60	ND	ND	0.8	158.8	26.9	63.8	377.5	0
11681	2011-05-29T16:00:00	18	10.02	21.93	1141.38	ND	ND	0.8	122.1	27.2	61.4	255.3	0
11682	2011-05-29T17:00:00	10	7.44	20.66	1119.44	ND	ND	0.9	69.8	27.1	63	203.4	0
11683	2011-05-29T18:00:00	22	5.20	24.64	1188.29	ND	ND	1.4	284.4	26.8	62	38.6	0
11684	2011-05-29T19:00:00	13	5.46	27.70	1279.31	ND	ND	2	265.6	26	60.9	0.4	0
11685	2011-05-29T20:00:00	7	5.18	23.75	1137.96	ND	ND	0.8	289	26.1	58.3	0	0
11686	2011-05-29T21:00:00	6	6.02	18.11	1057.85	ND	ND	0.2	254.8	26	57.4	0	0
11687	2011-05-29T22:00:00	9	11.12	28.74	1160.95	ND	ND	0.9	212.1	25.3	60.5	0	0
11688	2011-05-29T23:00:00	6	7.76	33.24	1295.84	ND	ND	0.8	224.1	24.7	66.6	0	0
11689	2011-05-30T00:00:00	3	7.80	32.74	1487.79	ND	ND	0.4	203.1	24.3	64.6	0	0
11690	2011-05-30T01:00:00	3	5.07	32.09	1291.50	ND	ND	0.5	289.2	23.9	67.7	0	0
11691	2011-05-30T02:00:00	16	5.33	24.75	1141.38	ND	ND	0.4	33.5	23.3	80.9	0	0
11692	2011-05-30T03:00:00	30	4.46	22.81	1196.03	ND	ND	0.9	17.8	22.7	82.5	0	0
11693	2011-05-30T04:00:00	29	4.65	30.09	1420.96	ND	ND	0.6	355.9	22.1	83	0	0
11694	2011-05-30T05:00:00	15	4.46	26.86	1225.22	ND	ND	0.7	253.1	21.9	76.7	0	0
11695	2011-05-30T06:00:00	14	4.30	21.43	1054.33	ND	ND	0.9	279.8	21.7	78.1	0	0
11696	2011-05-30T07:00:00	11	3.63	9.50	838.36	ND	ND	1	233.3	22	73.6	48.5	0
11697	2011-05-30T08:00:00	59	6.59	14.71	1020.67	ND	ND	0.3	118.4	22.8	79.5	141.9	0
11698	2011-05-30T09:00:00	49	7.96	17.44	1614.75	ND	ND	0.6	97.1	24.5	70.9	291.2	0
11699	2011-05-30T10:00:00	ND	8.71	39.64	2687.66	ND	ND	0.6	72.2	26.4	64.7	563.7	0
11700	2011-05-30T11:00:00	ND	18.85	64.87	2278.96	ND	ND	0.7	118.8	27.4	60.1	400.2	0
11701	2011-05-30T12:00:00	ND	21.24	77.61	1986.31	ND	ND	0.7	112.6	28.9	55.1	665.2	0
11702	2011-05-30T13:00:00	ND	ND	ND	ND	ND	ND	1.6	127.1	28.7	54.3	384.6	0
11703	2011-05-30T14:00:00	ND	ND	ND	ND	ND	ND	1.6	112.4	28.9	55.3	383.9	0
11704	2011-05-30T15:00:00	ND	26.76	ND	ND	ND	ND	1.5	142.8	28.9	56.5	391.5	0
11705	2011-05-30T16:00:00	ND	11.31	16.91	1311.48	ND	ND	1.9	137.3	28.5	58	175.2	0
11706	2011-05-30T17:00:00	ND	5.04	6.40	1228.61	ND	ND	1.7	140.4	26.4	64.3	87.2	0
11707	2011-05-30T18:00:00	ND	5.34	37.51	1761.01	ND	ND	1.9	177.1	26.4	61.4	40.4	0
11708	2011-05-30T19:00:00	ND	5.58	30.03	1876.11	ND	ND	1.5	208.5	25.9	66.8	0.3	0
11709	2011-05-30T20:00:00	ND	8.52	19.55	1838.51	ND	ND	0.5	225.8	25.9	66.4	0	0
11710	2011-05-30T21:00:00	ND	10.57	17.21	1689.13	ND	ND	1.3	43	25	71.7	0	0
11711	2011-05-30T22:00:00	ND	10.14	21.87	1603.85	ND	ND	0.6	27.3	23.9	78	0	0
11712	2011-05-30T23:00:00	ND	9.87	34.51	2419.72	ND	ND	0.5	25.7	24	75.4	0	0
11713	2011-05-31T00:00:00	ND	10.65	7.11	1758.32	ND	ND	0.7	193.8	23.8	75.8	0	0
11714	2011-05-31T01:00:00	ND	12.45	15.38	1791.36	ND	ND	0.9	145.7	22.5	83.4	0	0
11715	2011-05-31T02:00:00	ND	12.32	3.79	1431.36	ND	ND	0.4	171.9	22.2	84.2	0	0
11716	2011-05-31T03:00:00	ND	8.38	ND	703.60	ND	ND	0.4	67.2	22.2	83.3	0	0
11717	2011-05-31T04:00:00	ND	5.81	ND	544.72	ND	ND	0.2	31.9	22.3	83	0	0
11718	2011-05-31T05:00:00	ND	5.32	ND	578.97	ND	ND	0.2	345.3	22.6	82	0	0
11719	2011-05-31T06:00:00	ND	6.91	ND	738.65	ND	ND	0.5	116.8	22.3	84	0.6	0
11720	2011-05-31T07:00:00	ND	9.22	ND	930.89	ND	ND	0.9	64.6	21.8	87.9	47.6	0
11721	2011-05-31T08:00:00	ND	10.42	0.06	1552.63	ND	ND	0.5	70.8	23	81.2	225	0
11722	2011-05-31T09:00:00	ND	9.79	0.36	1991.36	ND	ND	0.3	202.1	25	71.9	326	0
11723	2011-05-31T10:00:00	ND	30.13	11.23	2233.93	ND	ND	0.7	82.4	27.2	63.2	503.1	0
11724	2011-05-31T11:00:00	ND	111.26	76.20	2377.37	ND	ND	1.3	71.9	27.7	61.8	483	0
11725	2011-05-31T12:00:00	ND	55.29	70.00	1999.86	ND	ND	1	120	28.6	56.2	349.2	0
11726	2011-05-31T13:00:00	ND	23.79	31.72	1600.04	ND	ND	0.5	29	28.4	55.5	134.7	0
11727	2011-05-31T14:00:00	ND	11.77	12.53	1344.07	ND	ND	2.6	283.1	26.9	58.1	210.6	0
11728	2011-05-31T15:00:00	ND	7.54	20.34	1510.31	ND	ND	3.2	281.1	27.6	57.2	264.6	0
11729	2011-05-31T16:00:00	ND	16.02	0.66	1201.83	ND	ND	2.9	278.9	27.8	55.1	291.9	0
11730	2011-05-31T17:00:00	ND	13.30	ND	890.41	ND	ND	2.5	276.1	27.9	54.1	196.6	0
11731	2011-05-31T18:00:00	ND	9.71	ND	994.81	ND	ND	3.2	276	27	56	50.7	0
11732	2011-05-31T19:00:00	ND	8.73	0.02	1095.63	ND	ND	2.7	279.2	26.5	57	0.2	0
11733	2011-05-31T20:00:00	ND	7.24	ND	1047.75	ND	ND	2.7	265.5	25.9	59.6	0	0
11734	2011-05-31T21:00:00	ND	6.41	0.11	1172.05	ND	ND	1.7	208.1	24.5	72.5	0	0
11735	2011-05-31T22:00:00	ND	4.45	ND	812.02	ND	ND	0.9	278.3	24.5	68.9	0	0
11736	2011-05-31T23:00:00	ND	3.53	ND	937.82	ND	ND	1.2	199.4	23.7	77.9	0	0
11737	2011-06-01T00:00:00	ND	4.67	0.04	1003.74	ND	ND	0.3	217.8	23.7	75.9	0	0
11738	2011-06-01T01:00:00	ND	3.70	ND	1060.77	ND	ND	0.3	92.8	23.7	77.7	0	0
11739	2011-06-01T02:00:00	ND	3.68	ND	764.21	ND	ND	0.5	146.5	22.7	85	0	0
11740	2011-06-01T03:00:00	ND	4.08	ND	875.31	ND	ND	0.3	211.2	22.9	83.7	0	0
11741	2011-06-01T04:00:00	ND	3.38	ND	671.15	ND	ND	0.5	85.4	22.7	85.2	0	0
11742	2011-06-01T05:00:00	ND	2.86	ND	704.79	ND	ND	0.7	62.8	22.3	87.5	0	0
11743	2011-06-01T06:00:00	ND	2.78	ND	692.49	ND	ND	0.8	26.2	22.1	89.4	0	0
11744	2011-06-01T07:00:00	ND	3.11	ND	816.81	ND	ND	1	25.6	22.2	86.7	8.8	0
11745	2011-06-01T08:00:00	ND	4.26	ND	1078.10	ND	ND	0.5	77.7	22.6	83.4	60	0
11746	2011-06-01T09:00:00	ND	9.85	0.62	1784.12	ND	ND	0.5	145	23.6	80	164.5	0
11747	2011-06-01T10:00:00	ND	37.87	5.38	2360.27	ND	ND	1.3	39.6	24.1	79.1	185.9	0
11748	2011-06-01T11:00:00	ND	28.55	20.88	2227.19	ND	ND	1.3	1.5	24.8	74.6	266.8	0
11749	2011-06-01T12:00:00	ND	16.29	17.09	1774.50	ND	ND	1.3	71.6	25.4	72.1	240.6	0
11750	2011-06-01T13:00:00	ND	11.60	9.83	1537.17	ND	ND	0.6	29.4	25.9	68.5	222.4	0
11751	2011-06-01T14:00:00	ND	8.80	17.30	1608.69	ND	ND	1.2	36.9	26.9	62.8	324	0
11752	2011-06-01T15:00:00	ND	6.70	16.15	1498.79	ND	ND	1.4	260.6	26.5	62.5	137.1	0
11753	2011-06-01T16:00:00	ND	7.82	11.62	1139.86	ND	ND	1.1	221.8	26	62.6	185.6	0
11754	2011-06-01T17:00:00	ND	5.99	1.19	1068.99	ND	ND	1.6	107.1	25.7	69	107.6	0.25
11755	2011-06-01T18:00:00	ND	4.65	5.64	1573.17	ND	ND	1.1	274.5	25	68.7	36.1	0
11756	2011-06-01T19:00:00	ND	3.85	20.13	2222.48	ND	ND	2	271.2	24.8	65.4	0.1	0
11757	2011-06-01T20:00:00	ND	5.53	11.44	1820.29	ND	ND	1.8	278.9	24.5	65.3	0	0
11758	2011-06-01T21:00:00	ND	3.03	0.06	1360.99	ND	ND	1.5	256	24.2	66.1	0	0
11759	2011-06-01T22:00:00	ND	3.66	ND	1039.70	ND	ND	1.1	176.2	23.3	77.4	0	0
11760	2011-06-01T23:00:00	ND	12.92	ND	922.65	ND	ND	0.5	175.6	23	80.6	0	0
11761	2011-06-02T00:00:00	ND	7.44	0.24	1433.78	ND	ND	0.4	111.6	22.9	81.2	0	0
11762	2011-06-02T01:00:00	ND	6.50	0.45	1399.17	ND	ND	1.1	193.3	22.4	84.2	0	0
11763	2011-06-02T02:00:00	ND	6.21	ND	1169.68	ND	ND	1.4	201.5	21.6	84.8	ND	0
11764	2011-06-02T03:00:00	ND	4.48	ND	962.66	ND	ND	0.6	237.1	21.4	88.2	ND	0
11765	2011-06-02T04:00:00	ND	3.70	ND	509.30	ND	ND	1	149.6	21.5	88.6	0	0
11766	2011-06-02T05:00:00	ND	3.73	ND	452.86	ND	ND	0.8	189	20.9	91.7	0	0.76
11767	2011-06-02T06:00:00	ND	3.62	ND	598.82	ND	ND	0.3	160.8	20.4	94.3	0	4.83
11768	2011-06-02T07:00:00	ND	2.71	ND	563.96	ND	ND	1	183.6	20.5	94.7	2.4	2.54
11769	2011-06-02T08:00:00	ND	2.09	ND	789.82	ND	ND	1.3	206.7	20.4	94.6	14.3	2.29
11770	2011-06-02T09:00:00	ND	3.41	0.24	1567.81	ND	ND	1.1	184.7	20.7	92.6	55.2	0.76
11771	2011-06-02T10:00:00	ND	2.76	0.13	1738.78	ND	ND	1.7	184.5	21.3	88.2	109.9	0.25
11772	2011-06-02T11:00:00	ND	3.39	2.23	2206.20	ND	ND	1.9	182.9	22.7	80.3	323	0
11773	2011-06-02T12:00:00	ND	2.57	0.04	1909.77	ND	ND	1.6	169.5	23.7	75	327.6	0
11774	2011-06-02T13:00:00	ND	1.38	0.09	1357.33	ND	ND	1.4	168.6	25	69.9	468.5	0
11775	2011-06-02T14:00:00	ND	1.44	5.33	1328.90	ND	ND	1.4	136.9	24.8	70.3	165.2	0
11776	2011-06-02T15:00:00	ND	0.76	5.03	1270.77	ND	ND	0.4	137.3	23	82.4	44.5	8.89
11777	2011-06-02T16:00:00	ND	0.62	12.81	1627.22	ND	ND	2.3	43	22.5	84.7	99.2	0.25
11778	2011-06-02T17:00:00	ND	1.17	10.03	1817.59	ND	ND	2	35.7	23.1	79.8	193	0
11779	2011-06-02T18:00:00	ND	2.94	15.33	2083.09	ND	ND	1.2	57.7	23.1	77.4	42.4	0
11780	2011-06-02T19:00:00	ND	2.73	1.16	1570.86	ND	ND	1	75.9	22.5	79.1	0.3	0
11781	2011-06-02T20:00:00	ND	7.77	7.45	2135.67	ND	ND	0.5	172.3	22.2	81.2	0	0
11782	2011-06-02T21:00:00	ND	7.66	1.29	2439.91	ND	ND	0.8	185.8	21.9	85.3	0	0
11783	2011-06-02T22:00:00	ND	5.68	1.32	2222.03	ND	ND	0.6	178.9	21.9	84.6	0	0
11784	2011-06-02T23:00:00	ND	4.93	0.04	1553.16	ND	ND	0.8	164.4	21.6	86.8	0	0
11785	2011-06-03T00:00:00	ND	5.00	0.43	1913.99	ND	ND	0.4	208.8	21.5	86.2	0	0
11786	2011-06-03T01:00:00	ND	4.82	0.04	1788.80	ND	ND	0.2	305.4	21.6	84.2	0	0
11787	2011-06-03T02:00:00	ND	2.93	ND	1132.54	ND	ND	0.5	34.3	21.5	86.3	0	0
11788	2011-06-03T03:00:00	ND	2.28	ND	1064.22	ND	ND	0.3	55.3	21.2	89.5	0	0
11789	2011-06-03T04:00:00	ND	2.92	ND	1368.51	ND	ND	0.5	64	20.7	93.2	0	0
11790	2011-06-03T05:00:00	ND	3.15	ND	1196.82	ND	ND	0.1	223.1	20.7	90.8	0	0
11791	2011-06-03T06:00:00	ND	3.23	ND	1129.08	ND	ND	0.2	92.2	20.8	91.5	0	0
11792	2011-06-03T07:00:00	ND	3.64	ND	835.80	ND	ND	0.3	78.5	20.8	91.6	4.8	0
11793	2011-06-03T08:00:00	ND	3.95	ND	1219.82	ND	ND	0.3	116.8	21.2	88.8	17.3	0
11794	2011-06-03T09:00:00	ND	4.89	1.19	1888.77	ND	ND	0.5	154.8	21.3	88.2	41.1	0.25
11795	2011-06-03T10:00:00	ND	6.18	2.60	2500.36	ND	ND	0.6	165.6	22.5	81	303.1	0
11796	2011-06-03T11:00:00	ND	5.59	7.79	2601.43	ND	ND	1	166.3	24.3	70.8	478.6	0
11797	2011-06-03T12:00:00	ND	2.80	2.74	1531.51	ND	ND	1.3	152.9	25.3	65.1	583.3	0
11798	2011-06-03T13:00:00	ND	2.10	2.26	1181.16	ND	ND	1.4	167.1	26	61.4	379.1	0
11799	2011-06-03T14:00:00	ND	2.02	2.65	1195.43	ND	ND	1.2	176.1	26	60.9	399.9	0
11800	2011-06-03T15:00:00	ND	1.18	1.83	1011.52	ND	ND	1	190.6	27.2	55.4	487.1	0
11801	2011-06-03T16:00:00	ND	2.40	3.23	1038.66	ND	ND	1.7	156.9	26.9	57.9	234.4	0
11802	2011-06-03T17:00:00	ND	3.16	0.47	991.50	ND	ND	1.9	180	26	61.1	59.9	0
11803	2011-06-03T18:00:00	ND	11.94	13.47	1482.79	ND	ND	1.5	243	25.2	66.8	28.4	0
11804	2011-06-03T19:00:00	ND	15.00	20.71	1719.56	ND	ND	1.7	261.1	24.5	72.3	0	0
11805	2011-06-03T20:00:00	ND	11.38	16.28	1566.85	ND	ND	1.8	293.8	23	78.4	0	6.35
11806	2011-06-03T21:00:00	ND	8.74	31.64	1945.84	ND	ND	0.4	342.7	22.2	85.8	0	3.56
11807	2011-06-03T22:00:00	ND	6.18	10.28	1225.63	ND	ND	1.3	296.5	22.2	82.8	0	0
11808	2011-06-03T23:00:00	ND	8.18	12.00	2678.23	ND	ND	1.8	323.7	21.2	87.4	0	6.35
11809	2011-06-04T00:00:00	ND	5.15	ND	1119.69	ND	ND	0.6	301.4	21.3	86.6	0	1.78
11810	2011-06-04T01:00:00	ND	4.94	ND	939.05	ND	ND	0.1	74.4	21	89.1	0	1.02
11811	2011-06-04T02:00:00	ND	4.86	ND	972.00	ND	ND	1	357.7	20.6	92.4	0	0.25
11812	2011-06-04T03:00:00	ND	4.41	0.06	981.96	ND	ND	0.2	313	20.7	90.7	0	0
11813	2011-06-04T04:00:00	ND	4.08	ND	982.30	ND	ND	0.4	190	20.7	90.4	0	0.25
11814	2011-06-04T05:00:00	ND	3.67	0.02	632.28	ND	ND	0.2	174.5	20.5	93	0	0
11815	2011-06-04T06:00:00	ND	4.13	0.02	789.82	ND	ND	0.3	224.4	20.5	91.5	0	0
11816	2011-06-04T07:00:00	ND	3.82	ND	1038.04	ND	ND	0.3	55.6	20.6	91.2	7.1	0
11817	2011-06-04T08:00:00	ND	3.36	ND	767.51	ND	ND	0.8	35.2	20.7	91.6	23.9	0
11818	2011-06-04T09:00:00	ND	4.13	1.23	1817.81	ND	ND	1.2	191.9	21.1	89.5	90.7	0
11819	2011-06-04T10:00:00	ND	4.19	1.95	2023.80	ND	ND	1.3	156.9	21.9	86.2	241.9	0
11820	2011-06-04T11:00:00	ND	9.93	1.71	1949.95	ND	ND	1	156.1	23	78.9	263.7	0
11821	2011-06-04T12:00:00	ND	10.98	1.12	1445.16	ND	ND	1	201.9	23	79.2	226.5	0
11822	2011-06-04T13:00:00	ND	6.61	6.81	1422.40	ND	ND	1	70.7	24.6	71.2	340.7	0
11823	2011-06-04T14:00:00	ND	3.45	8.20	1636.02	ND	ND	1.4	96.9	24.9	70.3	305.8	0
11824	2011-06-04T15:00:00	ND	2.31	49.78	1981.24	ND	ND	0.4	26.1	25.3	68.2	291.9	0
11825	2011-06-04T16:00:00	ND	2.49	38.29	2121.51	ND	ND	0.7	337.6	25.5	67.1	276.9	0
11826	2011-06-04T17:00:00	ND	1.86	8.87	1342.61	ND	ND	0.4	62.1	26.4	62.2	212.7	0
11827	2011-06-04T18:00:00	ND	1.92	2.20	1070.42	ND	ND	1	73.3	25.4	68.5	29.6	0
11828	2011-06-04T19:00:00	ND	3.36	23.39	1433.93	ND	ND	0.6	97.8	24.5	72.1	0.3	0
11829	2011-06-04T20:00:00	ND	11.46	55.99	2207.31	ND	ND	0.5	238.9	24	75.8	0	0
11830	2011-06-04T21:00:00	ND	11.93	46.35	2329.20	ND	ND	0.8	261.8	23.3	79.3	0	0
11831	2011-06-04T22:00:00	ND	9.48	52.02	2562.91	ND	ND	0.3	285.2	23.3	78.9	0	0
11832	2011-06-04T23:00:00	ND	8.36	34.21	2357.88	ND	ND	0.1	14.5	23.2	80.2	0	0
11833	2011-06-05T00:00:00	ND	8.46	24.06	2265.99	ND	ND	0.7	178.1	22.5	83.6	0	0
11834	2011-06-05T01:00:00	ND	10.26	31.96	2317.43	ND	ND	0.8	201.5	21.9	87.2	0	0
11835	2011-06-05T02:00:00	ND	11.18	4.92	2210.70	ND	ND	0.6	243.8	22	84.6	0	0
11836	2011-06-05T03:00:00	ND	7.03	4.03	1531.00	ND	ND	0.9	257.8	21.8	83.5	0	0
11837	2011-06-05T04:00:00	ND	5.21	ND	1303.30	ND	ND	0.5	24.5	21.6	88	0	0
11838	2011-06-05T05:00:00	ND	4.04	ND	1143.86	ND	ND	0.5	68.6	20.9	91.2	0	0
11839	2011-06-05T06:00:00	ND	5.12	0.84	1638.28	ND	ND	0.1	343.9	20.9	90.7	0	0
11840	2011-06-05T07:00:00	ND	4.99	ND	1321.92	ND	ND	0.1	13.5	21.4	87.2	18.9	0
11841	2011-06-05T08:00:00	ND	3.93	ND	995.96	ND	ND	1.3	43	21.5	87.5	75	0
11842	2011-06-05T09:00:00	ND	4.38	ND	1143.47	ND	ND	1.1	47	21.8	85.2	105.2	0
11843	2011-06-05T10:00:00	ND	4.43	1.36	1552.63	ND	ND	0.9	57.7	22.8	80.2	314.5	0
11844	2011-06-05T11:00:00	ND	4.84	0.50	1159.89	ND	ND	1.3	75.3	25.4	68.2	598.3	0
11845	2011-06-05T12:00:00	ND	6.80	0.09	1032.43	ND	ND	1.2	80.3	27.3	60.4	612.4	0
11846	2011-06-05T13:00:00	ND	19.46	3.97	969.74	ND	ND	0.7	142.5	28	56.9	485.9	0
11847	2011-06-05T14:00:00	ND	15.14	0.19	810.00	ND	ND	0.7	68.8	28.5	54.6	453.7	0
11848	2011-06-05T15:00:00	ND	6.49	ND	869.30	ND	ND	0.2	60.5	29.3	50.3	299.8	0
11849	2011-06-05T16:00:00	ND	9.57	0.19	801.88	ND	ND	2.9	291	29.3	50.8	405.7	0
11850	2011-06-05T17:00:00	ND	17.20	ND	778.63	ND	ND	3.4	288.3	28.3	51.7	228.2	0
11851	2011-06-05T18:00:00	ND	10.15	ND	521.23	ND	ND	3.4	287.4	27.3	55.2	58.5	0
11852	2011-06-05T19:00:00	ND	7.02	ND	404.06	ND	ND	4.3	269.5	26.4	58.4	ND	0
11853	2011-06-05T20:00:00	ND	5.45	ND	448.89	ND	ND	4.5	257.3	23.8	70.2	ND	0
11854	2011-06-05T21:00:00	ND	4.75	ND	422.17	ND	ND	2.2	261.8	23.9	64.7	0	0
11855	2011-06-05T22:00:00	ND	4.02	ND	399.48	ND	ND	2	212	23.1	72	0	0
11856	2011-06-05T23:00:00	ND	4.06	ND	660.22	ND	ND	1.6	254.2	23	68.2	0	0
11857	2011-06-06T00:00:00	ND	3.07	ND	842.06	ND	ND	1.3	239.9	23.1	68.3	0	0
11858	2011-06-06T01:00:00	ND	2.92	ND	557.77	ND	ND	0	233.5	23	70.9	0	0
11859	2011-06-06T02:00:00	ND	2.45	ND	557.58	ND	ND	0.3	73.3	22.5	76.6	0	0
11860	2011-06-06T03:00:00	ND	2.60	ND	817.92	ND	ND	0.9	156.9	22.2	78.2	0	0
11861	2011-06-06T04:00:00	ND	2.67	ND	839.78	ND	ND	1.1	208.7	21.1	88	0	17.78
11862	2011-06-06T05:00:00	ND	2.04	ND	791.43	ND	ND	1.2	202.8	20.7	90.4	0	0.51
11863	2011-06-06T06:00:00	ND	1.50	ND	666.16	ND	ND	1	234	20.8	88.3	0	0
11864	2011-06-06T07:00:00	ND	1.58	ND	711.56	ND	ND	0.6	242.3	21.4	76.6	27.4	0
11865	2011-06-06T08:00:00	ND	1.68	ND	577.20	ND	ND	0.4	270.4	21.8	79.9	110.1	0
11866	2011-06-06T09:00:00	ND	2.10	ND	487.32	ND	ND	0.6	218.6	22.9	75.5	256.7	0
11867	2011-06-06T10:00:00	ND	2.63	ND	807.65	ND	ND	0.4	97.3	25.1	66.1	402.1	0
11868	2011-06-06T11:00:00	ND	6.47	ND	767.81	ND	ND	0.5	68.4	26	62.4	515.4	0
11869	2011-06-06T12:00:00	ND	21.69	ND	804.62	ND	ND	1	164.9	26.8	60.5	507.5	0
11870	2011-06-06T13:00:00	ND	34.56	1.84	829.82	ND	ND	0.9	237.9	27.6	56.4	558.8	0
11871	2011-06-06T14:00:00	ND	26.88	1.14	843.59	ND	ND	0.8	192.7	29.1	52.1	652.1	0
11872	2011-06-06T15:00:00	ND	14.95	0.06	696.82	ND	ND	0.8	86.4	30	48.3	469.6	0
11873	2011-06-06T16:00:00	ND	12.18	0.19	745.49	ND	ND	0.7	126.2	29.3	49.5	170.9	0
11874	2011-06-06T17:00:00	ND	13.40	0.38	848.36	ND	ND	3.2	277.3	28.4	51.8	151	0
11875	2011-06-06T18:00:00	ND	14.23	2.44	822.66	ND	ND	4.6	270.6	26.1	57.9	44.2	0
11876	2011-06-06T19:00:00	ND	7.99	ND	482.93	ND	ND	4.7	262.7	25.3	60.3	0	0
11877	2011-06-06T20:00:00	ND	3.78	ND	401.37	ND	ND	3.8	272.5	25.1	60.9	ND	0
11878	2011-06-06T21:00:00	ND	2.70	ND	389.64	ND	ND	1.5	305.2	25	61.1	0	0
11879	2011-06-06T22:00:00	ND	2.17	ND	435.33	ND	ND	2.4	293.8	24.4	62.6	ND	0
11880	2011-06-06T23:00:00	ND	2.12	ND	491.62	ND	ND	1.5	278.5	24.4	60.8	ND	0
11881	2011-06-07T00:00:00	ND	1.62	ND	331.56	ND	ND	2	212.6	23.6	69.9	0	0
11882	2011-06-07T01:00:00	ND	1.43	ND	319.26	ND	ND	0.4	313.3	23.2	73.6	0	0
11883	2011-06-07T02:00:00	ND	1.02	ND	409.93	ND	ND	0.9	54.3	22.5	76.5	0	0
11884	2011-06-07T03:00:00	ND	1.64	ND	511.20	ND	ND	0.7	69.1	21.9	78.6	0	0
11885	2011-06-07T04:00:00	ND	2.77	ND	906.95	ND	ND	1.3	30.5	21	85.6	0	9.14
11886	2011-06-07T05:00:00	ND	4.39	ND	463.39	ND	ND	0.4	7.1	20.6	90.2	0	0.76
11887	2011-06-07T06:00:00	ND	20.39	ND	553.06	ND	ND	0.4	209.5	20.8	89.4	0	0
11888	2011-06-07T07:00:00	ND	15.34	0.07	564.73	ND	ND	0.6	244.5	21.1	87.6	31.5	0
11889	2011-06-07T08:00:00	ND	11.61	0.06	700.98	ND	ND	0.7	205.6	22	79.2	98.5	0
11890	2011-06-07T09:00:00	ND	10.48	0.09	1462.96	ND	ND	1	137.9	23	78.6	212.6	0
11891	2011-06-07T10:00:00	ND	13.38	3.89	2321.35	ND	ND	0.8	105.8	23.5	75.4	169	0
11892	2011-06-07T11:00:00	ND	11.99	19.64	2154.30	ND	ND	1.2	78.3	23.6	75.6	205.5	0
11893	2011-06-07T12:00:00	ND	12.13	13.29	1664.73	ND	ND	0.6	92.1	24.8	67	385.6	0
11894	2011-06-07T13:00:00	ND	18.80	12.50	1648.57	ND	ND	0.3	92.9	26.4	61	585.7	0
11895	2011-06-07T14:00:00	ND	22.69	6.55	1093.44	ND	ND	1.1	43.9	28.6	54.9	782.2	0
11896	2011-06-07T15:00:00	ND	19.52	12.14	1252.20	ND	ND	1.6	40.3	29	55	520.7	0
11897	2011-06-07T16:00:00	ND	23.37	15.25	1126.16	ND	ND	1.3	15.6	28.8	54.7	273.8	0
11898	2011-06-07T17:00:00	ND	51.64	26.34	1160.22	ND	ND	2.3	221.1	28.5	54.7	322.1	0
11899	2011-06-07T18:00:00	ND	32.45	6.21	1205.42	ND	ND	2.7	246.7	27.7	55.5	53	0
11900	2011-06-07T19:00:00	ND	13.62	0.06	1121.31	ND	ND	2.4	258.4	26.2	60.2	0.1	0
11901	2011-06-07T20:00:00	ND	8.02	ND	1161.72	ND	ND	1.7	271	25.4	62.3	0	0
11902	2011-06-07T21:00:00	ND	6.74	ND	1342.16	ND	ND	1.6	270.5	24.5	65.1	0	0
11903	2011-06-07T22:00:00	ND	5.75	ND	1406.73	ND	ND	1.7	250.6	23.9	66.3	0	0
11904	2011-06-07T23:00:00	ND	4.54	1.52	1084.31	ND	ND	1.1	255	23.5	67.9	0	0
11905	2011-06-08T00:00:00	ND	3.91	ND	889.08	ND	ND	0.8	270	23.1	72.2	0	0
11906	2011-06-08T01:00:00	ND	3.07	ND	739.90	ND	ND	0.4	318.4	23.1	74.5	0	0
11907	2011-06-08T02:00:00	ND	2.86	ND	671.60	ND	ND	0.2	49.1	22.7	77.4	0	0
11908	2011-06-08T03:00:00	ND	5.12	ND	1057.19	ND	ND	0.5	77.5	22.1	80.6	0	0
11909	2011-06-08T04:00:00	ND	10.07	ND	1315.97	ND	ND	0.6	210.2	22.1	79.5	0	0
11910	2011-06-08T05:00:00	ND	15.72	ND	1202.53	ND	ND	1	137	21.5	82.2	0	0
11911	2011-06-08T06:00:00	ND	19.32	ND	815.15	ND	ND	0.5	241.3	21.3	82.9	0	0
11912	2011-06-08T07:00:00	ND	11.46	ND	724.09	ND	ND	0.6	250.9	21.5	77.6	16.8	0
11913	2011-06-08T08:00:00	ND	7.54	ND	656.65	ND	ND	1.2	55	21.8	81.3	110.5	0
11914	2011-06-08T09:00:00	ND	8.32	ND	1133.31	ND	ND	0.3	144.4	23.3	74	273.4	0
11915	2011-06-08T10:00:00	ND	26.57	1.16	1868.08	ND	ND	0.5	115.6	25.3	66.6	565	0
11916	2011-06-08T11:00:00	ND	57.36	6.99	1330.24	ND	ND	1	184	27.2	60.9	600.5	0
11917	2011-06-08T12:00:00	ND	28.09	10.42	1154.06	ND	ND	1.5	140	28.2	57.5	722.5	0
11918	2011-06-08T13:00:00	ND	19.47	4.11	995.80	ND	ND	1.1	141.4	28.8	54.2	565.7	0
11919	2011-06-08T14:00:00	ND	14.75	13.79	1160.22	ND	ND	0.7	163.4	29.5	51.9	386.5	0
11920	2011-06-08T15:00:00	ND	14.36	7.51	1058.25	ND	ND	1.2	337.1	30.1	50	422.6	0
11921	2011-06-08T16:00:00	ND	11.30	3.52	978.78	ND	ND	2.4	289.3	30.5	47.2	418.9	0
11922	2011-06-08T17:00:00	ND	9.26	0.98	1015.07	ND	ND	3.3	277.4	28.5	52.5	120.5	0
11923	2011-06-08T18:00:00	ND	5.73	0.21	799.75	ND	ND	2.9	268.8	27.9	53.8	51.7	0
11924	2011-06-08T19:00:00	ND	5.79	0.06	994.81	ND	ND	3.5	274.9	26.8	57.5	2.4	0
11925	2011-06-08T20:00:00	ND	5.03	ND	1048.80	ND	ND	3.6	276.1	26.1	60.7	0	0
11926	2011-06-08T21:00:00	ND	4.23	ND	954.36	ND	ND	2.6	283.4	25.9	61.2	0	0
11927	2011-06-08T22:00:00	ND	3.57	ND	666.46	ND	ND	0.5	293.6	25.4	65	0	0
11928	2011-06-08T23:00:00	ND	2.89	ND	596.52	ND	ND	0.5	331.7	24.6	70.1	0	0
11929	2011-06-09T00:00:00	ND	4.71	0.11	1304.24	ND	ND	0.7	186.7	24	74.2	0	0
11930	2011-06-09T01:00:00	ND	4.91	ND	1176.02	ND	ND	0.8	175	23.5	77.8	0	0
11931	2011-06-09T02:00:00	ND	5.03	ND	980.26	ND	ND	1	170.1	23	79.8	0	0
11932	2011-06-09T03:00:00	ND	3.96	ND	807.92	ND	ND	0.9	192.2	22.6	81.2	0	0
11933	2011-06-09T04:00:00	ND	3.33	ND	590.92	ND	ND	0.2	244.6	22.7	80.1	0	0
11934	2011-06-09T05:00:00	ND	3.20	ND	545.65	ND	ND	0.3	68.6	22.6	80.5	0	0
11935	2011-06-09T06:00:00	ND	3.27	ND	647.74	ND	ND	0.3	281.4	22.4	80.3	0	0
11936	2011-06-09T07:00:00	ND	4.10	ND	794.93	ND	ND	0.5	245.8	22.5	76.1	14.3	0
11937	2011-06-09T08:00:00	ND	5.48	ND	1022.40	ND	ND	0.6	156.4	23.2	74.2	91.4	0
11938	2011-06-09T09:00:00	ND	8.07	0.52	1696.64	ND	ND	1.1	157.5	23.5	76.1	133.5	0
11939	2011-06-09T10:00:00	ND	11.99	17.92	2724.22	ND	ND	1	132	24	74.2	201.2	0
11940	2011-06-09T11:00:00	ND	12.40	11.94	2363.45	ND	ND	0.5	181.5	25.8	66.6	565.9	0
11941	2011-06-09T12:00:00	ND	15.45	4.85	1608.16	ND	ND	0.8	159	28.4	55.6	694.6	0
11942	2011-06-09T13:00:00	ND	19.13	16.15	1552.63	ND	ND	1.2	72.7	29.8	51.3	733.1	0
11943	2011-06-09T14:00:00	ND	16.11	3.37	1117.50	ND	ND	1.4	66.2	30.1	51.3	480.6	0
11944	2011-06-09T15:00:00	ND	13.09	23.26	1456.52	ND	ND	1.5	63.2	29.6	53.2	164.3	0
11945	2011-06-09T16:00:00	ND	13.38	15.68	1267.99	ND	ND	1	101.5	29.9	53.1	197.7	0
11946	2011-06-09T17:00:00	ND	17.92	25.08	1467.20	ND	ND	0.6	327.9	30.3	50.5	183.1	0
11947	2011-06-09T18:00:00	ND	21.44	29.23	1597.40	ND	ND	3	276	29.3	51.7	96.8	0
11948	2011-06-09T19:00:00	ND	19.59	8.69	1231.87	ND	ND	3.9	268.4	27.5	57.1	0.5	0
11949	2011-06-09T20:00:00	ND	8.19	0.08	1028.14	ND	ND	3.4	267.9	26.9	59.5	0	0
11950	2011-06-09T21:00:00	ND	5.56	ND	956.92	ND	ND	1.6	282.8	26.3	62.2	0	0
11951	2011-06-09T22:00:00	ND	4.50	0.28	862.95	ND	ND	0.9	217.7	25.7	66	0	0
11952	2011-06-09T23:00:00	ND	4.15	3.36	861.22	ND	ND	1.3	208.8	25.3	70	0	0
11953	2011-06-10T00:00:00	ND	6.19	13.42	1662.80	ND	ND	1	208.2	24.4	73.9	0	0
11954	2011-06-10T01:00:00	ND	3.48	15.70	1017.54	ND	ND	1.1	244.5	24.3	71.8	0	0
11955	2011-06-10T02:00:00	ND	3.87	5.64	994.34	ND	ND	0.8	106.3	23.5	77	0	0
11956	2011-06-10T03:00:00	ND	3.68	7.27	729.50	ND	ND	1.1	148.1	22.8	81.9	0	0
11957	2011-06-10T04:00:00	ND	3.62	0.60	773.26	ND	ND	0.5	146.3	22.5	83.5	0	0
11958	2011-06-10T05:00:00	ND	3.56	ND	749.76	ND	ND	0.5	72	22.5	83.7	0	0
11959	2011-06-10T06:00:00	ND	3.14	ND	499.84	ND	ND	0.6	180.8	22.5	82.9	0	0
11960	2011-06-10T07:00:00	ND	3.82	0.62	874.72	ND	ND	0.6	179	22.5	82.6	25.4	0
11961	2011-06-10T08:00:00	ND	3.64	ND	863.36	ND	ND	0.5	146	23.3	79.5	101.1	0
11962	2011-06-10T09:00:00	ND	5.58	6.65	1583.31	ND	ND	0.7	191.4	24.6	71.7	197.6	0
11963	2011-06-10T10:00:00	ND	7.59	38.82	2448.31	ND	ND	1.1	123.1	25.7	66.8	273.3	0
11964	2011-06-10T11:00:00	ND	7.56	50.95	1733.93	ND	ND	1.2	142.4	26.2	66.2	337.1	0
11965	2011-06-10T12:00:00	ND	10.65	84.81	1978.38	ND	ND	0.6	176.8	28.1	59.1	656.1	0
11966	2011-06-10T13:00:00	ND	14.03	37.41	1527.93	ND	ND	1.1	115.2	30	52.6	744.4	0
11967	2011-06-10T14:00:00	ND	11.40	20.70	1234.72	ND	ND	1.8	158.1	31.3	49.2	767.2	0
11968	2011-06-10T15:00:00	ND	10.27	35.87	1392.09	ND	ND	1.6	146.1	30.8	51	255.9	0
11969	2011-06-10T16:00:00	ND	8.90	27.99	1343.09	ND	ND	1.4	244.5	30.1	51.3	125.6	0
11970	2011-06-10T17:00:00	20	8.50	29.96	1433.21	ND	ND	3.1	269.8	28.8	54.5	80.3	0
11971	2011-06-10T18:00:00	33	ND	ND	ND	ND	ND	4.1	268.1	27.7	57.1	45.4	0
11972	2011-06-10T19:00:00	18	18.51	19.71	1028.83	ND	ND	4.3	267.8	26.8	59.3	0.9	0
11973	2011-06-10T20:00:00	13	4.27	1.12	991.17	ND	ND	3.6	261	26.3	61.3	0	0
11974	2011-06-10T21:00:00	7	4.05	ND	897.47	ND	ND	1.2	298.4	26	63.1	0	0
11975	2011-06-10T22:00:00	14	3.05	ND	862.09	ND	ND	0.6	296.8	25.4	68.4	0	0
11976	2011-06-10T23:00:00	8	3.73	3.19	1009.49	ND	ND	1	276.8	25.4	64.9	0	0
11977	2011-06-11T00:00:00	40	10.08	5.53	2007.50	ND	ND	0.5	121.3	23.9	75.5	0	0
11978	2011-06-11T01:00:00	34	3.63	1.09	970.17	ND	ND	1.5	154.4	23.1	76	0	0
11979	2011-06-11T02:00:00	27	6.72	1.18	1525.33	ND	ND	0.6	167.4	22.8	77	0	0
11980	2011-06-11T03:00:00	14	4.21	1.29	955.21	ND	ND	0.4	158.3	22.8	76.2	0	0
11981	2011-06-11T04:00:00	40	3.23	0.04	943.83	ND	ND	0.2	126.2	22.2	80.8	0	0
11982	2011-06-11T05:00:00	23	3.32	ND	794.39	ND	ND	1.3	11.7	21.9	82	0	0
11983	2011-06-11T06:00:00	78	3.06	ND	1065.67	ND	ND	0.9	44.3	21.6	83.1	0	0
11984	2011-06-11T07:00:00	51	13.81	ND	940.01	ND	ND	0.9	179.4	21	83.8	21.2	0
11985	2011-06-11T08:00:00	45	25.51	0.15	1311.07	ND	ND	0.6	247.8	22.7	76.4	168.3	0
11986	2011-06-11T09:00:00	44	14.92	ND	1159.50	ND	ND	0.8	126.2	24.9	67.8	253.6	0
11987	2011-06-11T10:00:00	62	23.78	1.32	1454.43	ND	ND	1.2	128.6	25.9	64.3	439.5	0
11988	2011-06-11T11:00:00	56	28.46	55.97	2045.34	ND	ND	1.2	116.2	27.6	58.2	656.9	0
11989	2011-06-11T12:00:00	55	14.88	61.90	1999.19	ND	ND	1.2	58.8	28.2	56.6	670.9	0
11990	2011-06-11T13:00:00	40	11.92	19.65	1482.12	ND	ND	0.5	61.6	29.6	51.5	751.4	0
11991	2011-06-11T14:00:00	45	10.75	13.58	1326.15	ND	ND	1.6	62.7	30.7	48.7	589.2	0
11992	2011-06-11T15:00:00	31	8.68	13.09	1330.97	ND	ND	1.2	41.9	30.9	48	475.5	0
11993	2011-06-11T16:00:00	32	9.43	36.01	1729.07	ND	ND	2.1	296.3	31.5	46.4	501.7	0
11994	2011-06-11T17:00:00	17	14.48	23.36	1393.01	ND	ND	3.3	275.1	30.8	46.4	324.8	0
11995	2011-06-11T18:00:00	8	16.83	2.38	1062.79	ND	ND	3.5	277.7	28.7	52.4	31.6	0
11996	2011-06-11T19:00:00	8	4.51	0.17	997.45	ND	ND	4.1	263	27.6	56.4	0	0
11997	2011-06-11T20:00:00	4	4.49	0.02	970.71	ND	ND	3.8	267.6	27.1	57.7	0	0
11998	2011-06-11T21:00:00	5	5.91	0.32	946.02	ND	ND	1.9	287.4	26.8	59.4	0	0
11999	2011-06-11T22:00:00	28	4.01	0.34	956.60	ND	ND	0.6	229.4	26.1	64.1	0	0
12000	2011-06-11T23:00:00	15	3.94	0.49	873.88	ND	ND	0.8	241.3	25.7	65.7	0	0
12001	2011-06-12T00:00:00	26	5.49	7.70	1561.69	ND	ND	1.4	193.1	24.8	71.9	0	0
12002	2011-06-12T01:00:00	14	4.82	7.34	1259.32	ND	ND	0.9	202.1	24.6	71.2	0	0
12003	2011-06-12T02:00:00	20	6.10	11.30	1441.53	ND	ND	0.7	192.8	24	75.2	0	0
12004	2011-06-12T03:00:00	11	5.51	7.68	1244.52	ND	ND	0.2	265.7	23.8	72.8	0	0
12005	2011-06-12T04:00:00	28	6.68	10.56	1551.75	ND	ND	0.8	134.9	22.5	81.9	0	0
12006	2011-06-12T05:00:00	15	6.52	5.27	1045.12	ND	ND	0.7	160.4	22	84.2	0	0
12007	2011-06-12T06:00:00	29	5.99	0.30	1100.05	ND	ND	0.5	210.6	21.9	84.5	0	0
12008	2011-06-12T07:00:00	23	8.01	ND	872.94	ND	ND	0.9	237.4	22.1	78.4	46.1	0
12009	2011-06-12T08:00:00	29	8.85	ND	850.84	ND	ND	0.5	177.5	23.8	72.1	197.3	0
12010	2011-06-12T09:00:00	16	6.18	ND	878.57	ND	ND	0.8	115	25.4	65.3	386.5	0
12011	2011-06-12T10:00:00	31	7.19	1.64	986.54	ND	ND	0.7	128.9	27.2	56.2	580.5	0
12012	2011-06-12T11:00:00	24	12.78	0.74	980.96	ND	ND	1.1	116.8	28.5	52.8	601	0
12013	2011-06-12T12:00:00	38	14.95	0.02	822.93	ND	ND	1	108	29.1	52.6	589.6	0
12014	2011-06-12T13:00:00	20	12.43	0.61	894.25	ND	ND	0.4	174.7	30.4	49.1	614	0
12015	2011-06-12T14:00:00	33	10.48	0.54	933.09	ND	ND	1.2	71.2	31.2	48.2	421.6	0
12016	2011-06-12T15:00:00	30	8.59	0.13	888.78	ND	ND	1.3	290.6	30.6	48.1	226.2	0
12017	2011-06-12T16:00:00	26	9.69	5.16	1073.76	ND	ND	3.2	281.5	30	49.4	330	0
12018	2011-06-12T17:00:00	15	9.30	1.40	803.73	ND	ND	3.7	274.2	29.6	50	218.9	0
12019	2011-06-12T18:00:00	15	3.70	ND	639.81	ND	ND	3.8	276.3	28.2	52.6	20.9	0
12020	2011-06-12T19:00:00	14	4.21	ND	636.85	ND	ND	2.8	281.5	27.4	55.4	0.4	0
12021	2011-06-12T20:00:00	8	3.83	ND	646.71	ND	ND	3.9	262.7	26.8	58.2	0	0
12022	2011-06-12T21:00:00	5	2.98	ND	714.57	ND	ND	2.6	278	26.8	58.1	0	0
12023	2011-06-12T22:00:00	3	2.50	ND	726.09	ND	ND	0.7	285.3	25.9	62.9	0	0
12024	2011-06-12T23:00:00	3	1.87	ND	689.44	ND	ND	1.4	241.6	25.3	65.3	0	0
12025	2011-06-13T00:00:00	2	2.33	0.36	905.94	ND	ND	2.2	244.7	25.6	63.5	ND	0
12026	2011-06-13T01:00:00	1	3.36	0.17	975.73	ND	ND	0.7	26	24.8	69.7	0	0
12027	2011-06-13T02:00:00	1	1.13	ND	503.73	ND	ND	0.9	96.3	24.4	73.3	0	0
12028	2011-06-13T03:00:00	1	3.97	0.04	1086.14	ND	ND	1.1	157	23.4	76.7	0	0
12029	2011-06-13T04:00:00	20	4.20	0.06	797.62	ND	ND	0.3	147.1	23	78.8	0	0
12030	2011-06-13T05:00:00	11	6.95	ND	659.99	ND	ND	0.3	172.9	22.9	78.8	0	0
12031	2011-06-13T06:00:00	7	6.14	ND	625.64	ND	ND	0.9	230.3	22.6	79.4	0	0
12032	2011-06-13T07:00:00	6	5.72	0.02	681.83	ND	ND	0.5	214.5	22.8	76.7	34	0
12033	2011-06-13T08:00:00	6	3.72	ND	739.15	ND	ND	0.5	224.6	24.2	71.2	189.4	0
12034	2011-06-13T09:00:00	10	4.76	1.60	1439.59	ND	ND	1.3	150.4	25.9	64.9	411.5	0
12035	2011-06-13T10:00:00	7	7.25	21.84	1815.53	ND	ND	1.6	143.7	27	63.2	594.9	0
12036	2011-06-13T11:00:00	10	10.68	37.26	1718.41	ND	ND	1.1	128	28.8	55.6	661	0
12037	2011-06-13T12:00:00	6	10.48	17.95	1438.67	ND	ND	1.3	119.2	28.8	55.2	313.4	0
12038	2011-06-13T13:00:00	5	8.25	13.94	1276.24	ND	ND	0.7	92.5	28.8	55.3	224.3	0
12039	2011-06-13T14:00:00	7	7.96	23.29	1369.05	ND	ND	0.9	20.8	30.5	50.8	636.1	0
12040	2011-06-13T15:00:00	6	8.11	24.73	1493.44	ND	ND	1.1	19.9	31.1	48.9	357.2	0
12041	2011-06-13T16:00:00	4	8.58	12.05	1204.13	ND	ND	2.8	270.9	30.3	48.8	222.6	0
12042	2011-06-13T17:00:00	3	6.53	37.55	1445.82	ND	ND	3.2	266.7	29.4	50.5	125	0
12043	2011-06-13T18:00:00	2	5.58	5.81	1150.90	ND	ND	3.1	260.9	28.2	54.1	12.7	0
12044	2011-06-13T19:00:00	2	3.55	1.22	1238.96	ND	ND	3.6	266.7	27.6	56.1	0.1	0
12045	2011-06-13T20:00:00	2	6.98	7.90	1409.84	ND	ND	3.2	264.7	26.8	57.1	0	0
12046	2011-06-13T21:00:00	2	5.03	4.66	1198.63	ND	ND	3.2	265.1	26.1	60.9	0	0
12047	2011-06-13T22:00:00	2	4.16	5.80	1023.35	ND	ND	0.7	313.2	26	61.9	0	0
12048	2011-06-13T23:00:00	3	3.37	2.53	816.11	ND	ND	2.3	259.2	26	59.8	0	0
12049	2011-06-14T00:00:00	3	4.05	1.78	942.55	ND	ND	2.1	251.1	25.4	62.7	0	0
12050	2011-06-14T01:00:00	4	2.86	ND	550.63	ND	ND	1.4	228.5	24.8	66.5	0	0
12051	2011-06-14T02:00:00	3	2.38	ND	469.38	ND	ND	1	207.5	24.5	69.6	0	0
12052	2011-06-14T03:00:00	4	2.62	ND	606.15	ND	ND	0.7	119.1	24.1	72.8	0	0
12053	2011-06-14T04:00:00	4	3.03	ND	730.97	ND	ND	1	19.9	23	80	0	0
12054	2011-06-14T05:00:00	4	0.91	ND	694.13	ND	ND	0.6	127.8	23.2	78.1	0	0
12055	2011-06-14T06:00:00	3	11.49	0.19	888.18	ND	ND	0.2	133.7	23.1	78.3	0	0
12056	2011-06-14T07:00:00	4	9.92	ND	830.96	ND	ND	0.5	136	23.1	78.4	14.1	0
12057	2011-06-14T08:00:00	3	5.62	0.26	1161.07	ND	ND	0.9	183.5	23.4	77.3	90.1	0
12058	2011-06-14T09:00:00	7	6.59	1.54	2164.97	ND	ND	0.5	154.4	24.9	70.7	188.3	0
12059	2011-06-14T10:00:00	5	7.57	17.15	2828.70	ND	ND	1.4	139	25.5	66.9	228.9	0
12060	2011-06-14T11:00:00	9	9.71	74.24	2903.25	ND	ND	1.4	115.8	26.7	61.2	514.3	0
12061	2011-06-14T12:00:00	8	8.54	58.70	2027.77	ND	ND	1.1	50.7	28.2	55.9	596.5	0
12062	2011-06-14T13:00:00	9	9.90	39.65	1609.49	ND	ND	0.9	50.8	29	51.6	525.7	0
12063	2011-06-14T14:00:00	6	8.55	11.68	1172.59	ND	ND	0.5	15.2	29.7	49.7	441.2	0
12064	2011-06-14T15:00:00	6	8.49	5.76	989.12	ND	ND	1.5	52.2	30	48.3	310.5	0
12065	2011-06-14T16:00:00	3	9.48	5.63	1176.48	ND	ND	0.5	26.4	29.5	50.6	116.8	0
12066	2011-06-14T17:00:00	3	12.29	37.45	1465.26	ND	ND	2.6	265.5	29.1	51.3	177.3	0
12067	2011-06-14T18:00:00	3	22.53	51.57	1486.55	ND	ND	2.3	277.7	28.4	52.1	62.7	0
12068	2011-06-14T19:00:00	2	7.37	1.54	1228.20	ND	ND	3.7	268.1	26.9	57.9	0.8	0
12069	2011-06-14T20:00:00	1	4.75	3.92	1175.97	ND	ND	3.8	265.4	26.2	60.3	0	0
12070	2011-06-14T21:00:00	2	3.74	1.46	1104.21	ND	ND	3	276.4	26.2	59.6	0	0
12071	2011-06-14T22:00:00	2	3.10	0.81	954.68	ND	ND	1.5	284.7	25.7	61.7	0	0
12072	2011-06-14T23:00:00	3	2.36	ND	631.56	ND	ND	1.5	275.8	25.3	63.3	0	0
12073	2011-06-15T00:00:00	3	2.05	3.05	722.46	ND	ND	2.1	265	25.1	63.8	0	0
12074	2011-06-15T01:00:00	4	1.63	ND	618.84	ND	ND	0.5	49.1	23.7	73	0	0
12075	2011-06-15T02:00:00	3	1.02	ND	410.62	ND	ND	1	180.4	23.2	78.4	0	0
12076	2011-06-15T03:00:00	3	6.80	0.06	671.83	ND	ND	0.9	171.7	23.2	76.3	0	0
12077	2011-06-15T04:00:00	ND	3.96	ND	637.67	ND	ND	0.9	134.7	22.8	79.4	0	0
12078	2011-06-15T05:00:00	ND	3.85	ND	614.06	ND	ND	1.2	146.5	22	84	0	0.25
12079	2011-06-15T06:00:00	ND	5.19	ND	703.13	ND	ND	0.3	161.9	21.4	89	0	0.25
12080	2011-06-15T07:00:00	ND	3.70	ND	713.01	ND	ND	0.2	187.2	21.9	86.4	24.1	0
12081	2011-06-15T08:00:00	ND	3.29	0.75	929.63	ND	ND	0.8	52	22.5	83.5	136	0
12082	2011-06-15T09:00:00	ND	5.25	5.21	1794.87	ND	ND	0.9	90.6	24.1	75.7	277.1	0
12083	2011-06-15T10:00:00	ND	6.09	34.36	3152.33	ND	ND	0.7	96.3	26	66.2	441.8	0
12084	2011-06-15T11:00:00	ND	4.44	96.83	2793.17	ND	ND	0.9	97.5	27.6	58.5	589.6	0
12085	2011-06-15T12:00:00	ND	2.22	67.14	1825.85	ND	ND	0.6	53.9	28.8	53.3	624	0
12086	2011-06-15T13:00:00	ND	1.06	28.82	1496.68	ND	ND	0.5	63.5	28.9	52.5	229.9	0
12087	2011-06-15T14:00:00	ND	0.16	16.31	1207.02	ND	ND	2	174.3	28.8	51.3	234.4	0
12088	2011-06-15T15:00:00	ND	0.34	46.73	1508.28	ND	ND	1.1	355.1	25.6	66.4	46.4	1.78
12089	2011-06-15T16:00:00	ND	1.68	44.48	1423.41	ND	ND	0.8	348	23.7	75.4	88.4	0.25
12090	2011-06-15T17:00:00	ND	1.57	60.59	1585.45	ND	ND	0.6	317.6	25.8	60.5	97.6	0
12091	2011-06-15T18:00:00	ND	4.39	98.05	2596.02	ND	ND	1.6	283.5	25.8	60.9	20.1	0
12092	2011-06-15T19:00:00	ND	3.84	51.48	1929.79	ND	ND	2.6	290.8	25	64.4	0.3	0
12093	2011-06-15T20:00:00	ND	5.00	21.85	1477.83	ND	ND	2.5	282.7	24.9	61.9	0	0
12094	2011-06-15T21:00:00	ND	8.25	2.43	1110.87	ND	ND	1.4	272	24.8	62	0	0
12095	2011-06-15T22:00:00	ND	4.22	ND	961.66	ND	ND	1.8	214.6	24.3	66.5	0	0
12096	2011-06-15T23:00:00	ND	3.08	3.38	982.91	ND	ND	0.7	209.8	23.8	73.2	0	0
12097	2011-06-16T00:00:00	ND	2.66	19.32	1198.04	ND	ND	0.5	26.2	22.8	81.9	0	0
12098	2011-06-16T01:00:00	ND	4.19	39.41	1637.50	ND	ND	0.2	69.4	22.6	81.3	0	0
12099	2011-06-16T02:00:00	ND	7.72	14.74	1750.03	ND	ND	0.9	151.9	22.4	82.4	0	0
12100	2011-06-16T03:00:00	ND	6.62	12.81	1181.04	ND	ND	0.4	194.6	22.4	81.5	0	0
12101	2011-06-16T04:00:00	ND	5.04	7.17	1078.83	ND	ND	0.3	167.5	21.9	84.4	0	0
12102	2011-06-16T05:00:00	ND	4.56	2.85	940.96	ND	ND	0.3	63.9	21.6	85.5	0	0
12103	2011-06-16T06:00:00	ND	3.76	0.30	872.05	ND	ND	0.8	45.9	21.6	86.7	0	0
12104	2011-06-16T07:00:00	ND	3.55	0.06	951.33	ND	ND	0.3	57.2	21.7	83.5	8.3	0
12105	2011-06-16T08:00:00	ND	4.15	3.33	1370.83	ND	ND	0.5	150.7	21.9	85.2	60.3	0
12106	2011-06-16T09:00:00	ND	6.79	21.53	2097.33	ND	ND	0.6	161	23.1	79.7	168.8	0
12107	2011-06-16T10:00:00	ND	8.02	33.93	2766.08	ND	ND	0.4	200.9	24.5	69.6	259	0
12108	2011-06-16T11:00:00	ND	8.58	101.23	3065.08	ND	ND	0.5	85.3	25.9	64.2	365.4	0
12109	2011-06-16T12:00:00	ND	8.70	90.68	1953.41	ND	ND	1.5	53.2	26.4	63	425.2	0
12110	2011-06-16T13:00:00	ND	5.11	99.70	1945.17	ND	ND	0.9	69.7	26.9	60.4	333.9	0
12111	2011-06-16T14:00:00	ND	4.51	54.53	1533.37	ND	ND	0.8	70.7	27.6	58.1	389.3	0
12112	2011-06-16T15:00:00	ND	6.11	48.88	1479.17	ND	ND	1.8	53.5	27.6	58.2	300.8	0
12113	2011-06-16T16:00:00	ND	20.25	94.04	1756.52	ND	ND	1.8	42.1	27.6	58.9	191.8	0
12114	2011-06-16T17:00:00	ND	44.62	82.23	1640.96	ND	ND	0.7	308.2	27.5	55.8	121.3	0
12115	2011-06-16T18:00:00	ND	43.76	81.67	1628.86	ND	ND	2	273	26.8	55.3	35.1	0
12116	2011-06-16T19:00:00	ND	22.91	29.24	1417.61	ND	ND	2.6	268.9	25.9	57.9	0.6	0
12117	2011-06-16T20:00:00	ND	11.33	3.85	1309.94	ND	ND	2.3	287.7	25.4	60.7	0	0
12118	2011-06-16T21:00:00	ND	8.21	3.21	1296.27	ND	ND	2.4	278.2	25	62.3	0	0
12119	2011-06-16T22:00:00	ND	5.97	ND	962.31	ND	ND	1.1	292.1	24.4	65.6	0	0
12120	2011-06-16T23:00:00	ND	4.58	0.08	800.31	ND	ND	0.4	286.6	24	68.1	0	0
12121	2011-06-17T00:00:00	ND	5.90	4.82	1255.94	ND	ND	0.5	146.6	22.8	76.3	0	0
12122	2011-06-17T01:00:00	ND	5.67	4.84	1262.24	ND	ND	0.4	133.6	22.6	77.4	0	0
12123	2011-06-17T02:00:00	ND	5.09	8.39	1272.75	ND	ND	0.8	163.2	22.4	81.3	0	0
12124	2011-06-17T03:00:00	ND	5.19	1.47	1215.10	ND	ND	0.7	163.8	22.3	80.8	0	0
12125	2011-06-17T04:00:00	ND	3.58	ND	942.24	ND	ND	0.5	164.7	22.4	79.8	0	0
12126	2011-06-17T05:00:00	ND	3.48	ND	783.57	ND	ND	0.7	61.5	21.9	82.4	0	0
12127	2011-06-17T06:00:00	ND	3.58	0.19	793.58	ND	ND	1	128.6	21.7	83.4	0	0
12128	2011-06-17T07:00:00	ND	4.56	0.35	996.97	ND	ND	0.3	159.4	21.4	84.3	20.7	0
12129	2011-06-17T08:00:00	ND	6.11	4.07	1459.98	ND	ND	0.4	37.4	22.6	79.8	104.6	0
12130	2011-06-17T09:00:00	ND	5.12	0.78	1284.11	ND	ND	0.5	30.5	24	72.8	210.3	0
12131	2011-06-17T10:00:00	ND	8.77	37.35	2454.79	ND	ND	0.7	56.5	25.4	67.8	344	0
12132	2011-06-17T11:00:00	ND	105.03	93.34	1973.09	ND	ND	1.3	152.8	25	68.2	122.3	0
12133	2011-06-17T12:00:00	ND	155.35	143.76	1970.44	ND	ND	1	136.8	25.4	66.8	204.8	0
12134	2011-06-17T13:00:00	ND	51.32	78.36	1766.60	ND	ND	0.4	67.8	25.8	65.4	191.7	0
12135	2011-06-17T14:00:00	ND	26.19	49.40	1539.23	ND	ND	0.5	86.5	26.9	61.7	342.9	0
12136	2011-06-17T15:00:00	ND	18.25	44.54	1533.37	ND	ND	0.3	263.6	28.3	55.3	444.9	0
12137	2011-06-17T16:00:00	ND	15.39	42.31	1482.62	ND	ND	0.9	61.8	28.2	54.8	214.7	0
12138	2011-06-17T17:00:00	ND	13.27	53.91	1609.49	ND	ND	1.9	277	27.5	53.3	21.7	0
12139	2011-06-17T18:00:00	ND	13.37	86.76	1813.69	ND	ND	2.1	268.1	26.5	57.2	14.8	0
12140	2011-06-17T19:00:00	31	9.80	14.39	1289.54	ND	ND	2.7	272.7	25.7	59	1.2	0
12141	2011-06-17T20:00:00	33	7.35	12.21	1504.27	ND	ND	2.5	271.3	25.3	59.7	0	0
12142	2011-06-17T21:00:00	18	6.14	4.15	1238.50	ND	ND	1.9	290.9	25.2	59.1	0	0
12143	2011-06-17T22:00:00	13	4.61	3.64	1192.23	ND	ND	1.6	281.9	25	59.4	0	0
12144	2011-06-17T23:00:00	8	3.77	0.64	973.77	ND	ND	0.5	326.8	24	68.3	0	0
12145	2011-06-18T00:00:00	5	2.53	ND	764.98	ND	ND	1.7	209	23.6	71.5	0	0
12146	2011-06-18T01:00:00	18	3.52	0.56	1208.64	ND	ND	1.6	193.3	22.9	80.4	0	0
12147	2011-06-18T02:00:00	24	4.34	3.95	1103.41	ND	ND	0.4	191.4	22.5	84	0	0
12148	2011-06-18T03:00:00	40	3.46	18.98	1329.12	ND	ND	0.1	100.8	21.8	84.3	0	0
12149	2011-06-18T04:00:00	22	3.21	23.05	1359.97	ND	ND	0.4	110.6	21.8	83.7	0	0
12150	2011-06-18T05:00:00	15	7.28	0.60	1065.31	ND	ND	0.6	148.2	21.9	86.1	0	0
12151	2011-06-18T06:00:00	28	6.17	1.27	895.62	ND	ND	0.1	358.4	22	84.7	0	0
12152	2011-06-18T07:00:00	34	4.49	5.20	1020.67	ND	ND	0.8	44.7	21.7	86.4	5.3	0
12153	2011-06-18T08:00:00	53	4.09	5.16	1132.92	ND	ND	0	24.4	22.1	84.8	69.1	0
12154	2011-06-18T09:00:00	59	4.46	17.87	1656.31	ND	ND	0.7	165.3	22.7	84.5	122.6	0
12155	2011-06-18T10:00:00	70	5.41	34.43	2080.28	ND	ND	0.6	125.7	23.3	81.3	125.4	0
12156	2011-06-18T11:00:00	67	10.71	81.93	2927.42	ND	ND	1	137.1	24	75.4	181.9	0
12157	2011-06-18T12:00:00	63	7.78	123.16	2728.81	ND	ND	0.6	108	24.7	71.7	264.6	0
12158	2011-06-18T13:00:00	45	4.35	96.15	2048.57	ND	ND	1	51.9	26.3	64.7	451.7	0
12159	2011-06-18T14:00:00	65	2.53	69.97	1806.45	ND	ND	1.2	65	27.1	61	311.5	0
12160	2011-06-18T15:00:00	34	1.98	58.84	1638.23	ND	ND	0.5	40.4	27.7	57.7	323.2	0
12161	2011-06-18T16:00:00	34	2.33	91.26	1849.58	ND	ND	0.5	181.8	28.1	56.3	218.6	0
12162	2011-06-18T17:00:00	35	2.97	28.30	1203.83	ND	ND	0.9	92.6	27.9	56.6	83	0
12163	2011-06-18T18:00:00	53	6.11	50.62	1492.22	ND	ND	0.8	83.3	27.3	58.8	25.2	0
12164	2011-06-18T19:00:00	43	7.76	105.79	2170.36	ND	ND	0.6	65.5	26.7	61.6	0	0
12165	2011-06-18T20:00:00	36	7.96	106.93	2442.54	ND	ND	1.3	255.1	26	60.6	0	0
12166	2011-06-18T21:00:00	20	11.25	82.22	1988.55	ND	ND	2.4	269.8	25.5	61.4	0	0
12167	2011-06-18T22:00:00	14	18.92	21.64	1468.84	ND	ND	0.5	287	25.3	64.6	0	0
12168	2011-06-18T23:00:00	9	9.91	2.24	951.81	ND	ND	1.3	277.5	24.7	67.5	0	0
12169	2011-06-19T00:00:00	7	7.96	11.27	1590.79	ND	ND	1.5	278.5	23.9	70.2	0	0
12170	2011-06-19T01:00:00	5	8.35	4.30	1266.93	ND	ND	1	225.1	23.8	71.9	0	0
12171	2011-06-19T02:00:00	5	5.25	ND	821.52	ND	ND	1.9	192.8	23.3	79	0	0
12172	2011-06-19T03:00:00	4	4.46	0.19	877.09	ND	ND	1.3	178	22.8	79	0	0
12173	2011-06-19T04:00:00	14	3.23	1.48	909.72	ND	ND	0.6	80.4	22.4	78.7	0	0
12174	2011-06-19T05:00:00	9	4.83	0.26	885.78	ND	ND	0.3	77.6	22.1	81	0	0
12175	2011-06-19T06:00:00	15	6.36	0.30	907.57	ND	ND	0.7	52.5	22	82.2	0	0
12176	2011-06-19T07:00:00	10	5.14	0.60	839.22	ND	ND	0.1	68.3	21.5	81.9	14.3	0
12177	2011-06-19T08:00:00	17	5.85	1.56	1041.58	ND	ND	0.2	55.8	22.6	76.4	140.2	0
12178	2011-06-19T09:00:00	18	5.77	2.95	1056.83	ND	ND	0.6	37.4	23.8	71.6	263.2	0
12179	2011-06-19T10:00:00	31	6.50	9.87	1072.53	ND	ND	0.8	59.4	25.6	64.9	565.3	0
12180	2011-06-19T11:00:00	26	8.43	27.82	1262.71	ND	ND	1.3	68.9	27.3	58.3	625.9	0
12181	2011-06-19T12:00:00	15	26.67	22.62	1085.18	ND	ND	1.7	82.3	28.1	56.6	413.9	0
12182	2011-06-19T13:00:00	12	31.90	9.97	937.60	ND	ND	0.6	187.8	27.2	60.3	109.6	2.03
12183	2011-06-19T14:00:00	16	16.15	18.76	1096.36	ND	ND	2.1	314.8	24.1	73.7	103.7	3.05
12184	2011-06-19T15:00:00	11	11.99	14.83	1130.73	ND	ND	1.2	276.7	23.5	76.1	46.1	7.62
12185	2011-06-19T16:00:00	12	5.89	1.16	866.28	ND	ND	1.5	40.5	23.9	78	99.6	0
12186	2011-06-19T17:00:00	7	4.99	6.87	993.00	ND	ND	1.9	34.1	24	77.4	248	0.25
12187	2011-06-19T18:00:00	5	5.22	30.75	1609.89	ND	ND	0.3	351.4	24.2	74.5	63.8	0
12188	2011-06-19T19:00:00	12	4.73	1.54	1016.85	ND	ND	0.4	309	24	73.8	1.5	0
12189	2011-06-19T20:00:00	23	4.44	5.09	890.58	ND	ND	0.8	56.6	23	79.1	0	0
12190	2011-06-19T21:00:00	13	4.24	16.18	1331.36	ND	ND	0.2	167.4	22.8	79.6	0	0
12191	2011-06-19T22:00:00	32	4.66	22.45	1978.64	ND	ND	0.7	178.5	22.8	79.9	0	0
12192	2011-06-19T23:00:00	23	6.40	23.84	2569.96	ND	ND	0.8	173	22.6	81.1	0	0
12193	2011-06-20T00:00:00	26	6.81	27.69	2750.04	ND	ND	0.5	136	22	82.6	0	0
12194	2011-06-20T01:00:00	14	5.50	19.28	2143.40	ND	ND	0.3	87.8	21.6	84.2	0	0
12195	2011-06-20T02:00:00	10	4.53	6.11	1642.18	ND	ND	0.1	117.8	21.2	85.7	0	0
12196	2011-06-20T03:00:00	6	3.44	2.90	1425.06	ND	ND	0.5	71	20.6	88.1	0	0
12197	2011-06-20T04:00:00	9	3.69	1.09	1218.99	ND	ND	0.1	221.8	20.8	87.8	0	0
12198	2011-06-20T05:00:00	5	2.27	ND	813.21	ND	ND	0.2	15.8	20.8	87.9	0	0
12199	2011-06-20T06:00:00	11	3.25	0.04	813.21	ND	ND	0.6	256.9	21	85.1	0	0
12200	2011-06-20T07:00:00	7	4.21	0.06	1130.23	ND	ND	0.4	115.2	21.3	83.3	32.5	0
12201	2011-06-20T08:00:00	50	3.62	0.04	1052.19	ND	ND	0.6	104.4	21.3	87.6	108.7	0
12202	2011-06-20T09:00:00	38	5.05	12.05	1979.92	ND	ND	0.7	143.8	22.4	82.2	181.2	0
12203	2011-06-20T10:00:00	51	6.65	43.09	2498.35	ND	ND	0.7	138.5	24.4	71.2	456	0
12204	2011-06-20T11:00:00	26	7.82	57.16	2012.21	ND	ND	0.7	135.9	25.9	62.7	675.2	0
12205	2011-06-20T12:00:00	34	6.62	17.47	1206.52	ND	ND	0.3	357.9	27.7	55.5	555.4	0
12206	2011-06-20T13:00:00	19	4.65	19.61	1248.47	ND	ND	0.6	17.8	28.6	51.8	601.3	0
12207	2011-06-20T14:00:00	36	10.53	20.13	1136.26	ND	ND	0.5	105.8	29.6	48.2	424.2	0
12208	2011-06-20T15:00:00	32	13.14	32.65	1291.25	ND	ND	0.9	65.5	30	46.5	295.5	0
12209	2011-06-20T16:00:00	40	11.54	51.71	1397.79	ND	ND	1.6	294	29.8	47.1	279.9	0
12210	2011-06-20T17:00:00	20	11.16	50.06	1385.23	ND	ND	3.1	280	29.7	47.8	297.1	0
12211	2011-06-20T18:00:00	12	10.17	31.28	1361.50	ND	ND	3.4	273.7	27.8	53.8	93	0
12212	2011-06-20T19:00:00	8	6.37	1.31	1121.68	ND	ND	3.5	272.4	26.6	56.3	2.6	0
12213	2011-06-20T20:00:00	15	6.14	5.21	1186.31	ND	ND	3.6	269.6	26	58.2	0	0
12214	2011-06-20T21:00:00	8	4.97	9.41	1183.94	ND	ND	1.1	302.6	25.8	59.5	0	0
12215	2011-06-20T22:00:00	24	4.49	8.08	999.35	ND	ND	1	73.9	24.1	67.9	0	0
12216	2011-06-20T23:00:00	14	4.75	7.34	879.45	ND	ND	0.6	246.7	23.6	69.2	0	0
12217	2011-06-21T00:00:00	23	7.67	27.58	2006.80	ND	ND	1.4	209.3	23.5	72	0	0
12218	2011-06-21T01:00:00	18	6.83	11.97	1117.04	ND	ND	1.1	193.2	23.1	74.2	0	0
12219	2011-06-21T02:00:00	21	4.43	21.54	1047.24	ND	ND	0.5	83.9	22.3	77.7	0	0
12220	2011-06-21T03:00:00	11	3.92	1.68	806.01	ND	ND	0.2	321.2	22	79.4	0	0
12221	2011-06-21T04:00:00	15	3.63	0.15	816.53	ND	ND	0.3	145.6	22.1	78.7	0	0
12222	2011-06-21T05:00:00	9	6.23	ND	873.53	ND	ND	0.1	125.2	22	80.4	0	0
12223	2011-06-21T06:00:00	12	8.53	3.21	1020.67	ND	ND	0.7	157.6	21.8	80.4	0	0
12224	2011-06-21T07:00:00	25	6.79	0.67	917.98	ND	ND	0.5	147.3	21.7	81	25.9	0
12225	2011-06-21T08:00:00	46	7.18	3.73	1200.90	ND	ND	0.2	80.9	22.7	76.3	77.9	0
12226	2011-06-21T09:00:00	41	9.85	21.77	2057.55	ND	ND	0.2	46.1	24.1	70.1	251.8	0
12227	2011-06-21T10:00:00	62	13.19	59.64	2638.36	ND	ND	1	83.5	26	64.1	519.7	0
12228	2011-06-21T11:00:00	62	ND	ND	ND	ND	ND	1.1	44.1	27.9	56.5	682.4	0
12229	2011-06-21T12:00:00	17	ND	ND	ND	ND	ND	1	31.4	28	55.4	470.2	0
12230	2011-06-21T13:00:00	39	ND	ND	ND	ND	ND	0.9	64.8	28.7	53.5	343.6	0
12231	2011-06-21T14:00:00	55	ND	ND	ND	ND	ND	1.2	66.4	29.1	52.4	346.4	0
12232	2011-06-21T15:00:00	29	16.84	39.81	1010.39	ND	ND	0.6	346.3	29.4	52	247.8	0
12233	2011-06-21T16:00:00	29	18.77	46.44	813.77	ND	ND	2.8	273.2	29.5	50.4	355.9	0
12234	2011-06-21T17:00:00	16	18.57	37.82	686.12	ND	ND	3.4	275.1	29.5	49.6	307	0
12235	2011-06-21T18:00:00	14	15.29	18.85	744.26	ND	ND	3.5	279.8	28.4	51.5	105.3	0
12236	2011-06-21T19:00:00	8	11.26	8.84	590.93	ND	ND	3.6	272.7	26.8	56.5	2.7	0
12237	2011-06-21T20:00:00	22	9.99	12.15	553.21	ND	ND	3.6	268.2	26.1	59.3	0	0
12238	2011-06-21T21:00:00	12	9.47	14.90	701.40	ND	ND	2	274.8	25.9	59.9	0	0
12239	2011-06-21T22:00:00	22	9.12	14.96	586.02	ND	ND	0.8	246.4	25.5	62	0	0
12240	2011-06-21T23:00:00	13	8.35	16.90	550.81	ND	ND	2.7	263.6	25.2	63	0	0
12241	2011-06-22T00:00:00	7	9.18	17.47	733.68	ND	ND	2.5	266.6	25	63.3	0	0
12242	2011-06-22T01:00:00	6	6.87	ND	137.47	ND	ND	0.4	111.2	23.9	72.3	0	0
12243	2011-06-22T02:00:00	5	5.93	ND	45.66	ND	ND	1.2	197	22.8	77.4	0	0
12244	2011-06-22T03:00:00	3	6.53	3.31	181.94	ND	ND	0.9	185	22.7	78.3	0	0
12245	2011-06-22T04:00:00	8	6.68	0.49	125.04	ND	ND	0.6	177.4	22.7	78.1	0	0
12246	2011-06-22T05:00:00	14	7.25	1.35	181.88	ND	ND	0.5	240.7	22.8	76.9	0	0
12247	2011-06-22T06:00:00	18	8.11	1.81	204.69	ND	ND	0.1	54.9	22.4	77.5	0	0
12248	2011-06-22T07:00:00	34	8.78	0.26	204.41	ND	ND	0.4	39.1	22	82.3	33.1	0
12249	2011-06-22T08:00:00	68	9.13	4.47	408.27	ND	ND	0.8	120.6	23	77.1	137.4	0
12250	2011-06-22T09:00:00	63	11.35	14.69	1388.26	ND	ND	1.1	149.4	24.1	70.7	273	0
12251	2011-06-22T10:00:00	35	15.26	34.06	2124.39	ND	ND	0.8	174.9	26.1	62.1	513.9	0
12252	2011-06-22T11:00:00	19	14.10	42.82	1448.79	ND	ND	0.6	193	27.3	57.2	605.2	0
12253	2011-06-22T12:00:00	24	13.78	33.61	681.13	ND	ND	0.6	111.1	28.8	52.4	638.4	0
12254	2011-06-22T13:00:00	22	13.88	23.88	440.88	ND	ND	0.5	152.4	29.5	50.7	550.3	0
12255	2011-06-22T14:00:00	63	13.43	31.91	627.97	ND	ND	1.3	7.9	30.3	48.2	381.2	0
12256	2011-06-22T15:00:00	44	12.93	19.67	513.03	ND	ND	1.4	300.3	30.9	45.6	431.1	0
12257	2011-06-22T16:00:00	38	13.47	24.93	619.19	ND	ND	3.2	277.6	30.9	45	499.6	0
12258	2011-06-22T17:00:00	20	13.90	16.92	443.95	ND	ND	4.6	272.7	29.2	49.3	249.9	0
12259	2011-06-22T18:00:00	31	9.65	12.51	487.94	ND	ND	4.2	277	27.6	54.1	77.2	0
12260	2011-06-22T19:00:00	23	9.33	7.64	369.79	ND	ND	4.8	275.2	26.6	56.8	0.7	0
12261	2011-06-22T20:00:00	13	9.62	10.34	437.67	ND	ND	4.5	277	26.1	58.2	0	0
12262	2011-06-22T21:00:00	7	8.49	5.58	344.95	ND	ND	3.2	266.8	25.8	59.4	0	0
12263	2011-06-22T22:00:00	5	7.36	0.60	137.84	ND	ND	2.7	243.8	25.1	61.8	0	0
12264	2011-06-22T23:00:00	4	6.61	2.79	137.52	ND	ND	1.3	211.1	24.7	66.1	0	0
12265	2011-06-23T00:00:00	26	6.23	0.09	57.22	ND	ND	1.8	176.1	23.9	72.3	0	0
12266	2011-06-23T01:00:00	17	6.00	8.37	171.21	ND	ND	1.5	217.5	23.7	70.5	0	0
12267	2011-06-23T02:00:00	10	7.15	24.21	319.37	ND	ND	1.1	257.8	23.8	67.4	0	0
12268	2011-06-23T03:00:00	6	7.72	3.06	45.64	ND	ND	1	36.9	23	75.5	0	0
12269	2011-06-23T04:00:00	12	6.69	ND	ND	ND	ND	0.6	109.5	22.4	79.2	0	0
12270	2011-06-23T05:00:00	15	8.34	8.79	170.34	ND	ND	1	146.2	22.3	80.1	0	0
12271	2011-06-23T06:00:00	28	10.15	10.96	170.28	ND	ND	0.3	102	21.8	85.3	0	3.56
12272	2011-06-23T07:00:00	15	10.45	9.91	192.66	ND	ND	0.4	31.9	21.8	86.5	4.2	0.76
12273	2011-06-23T08:00:00	36	9.02	20.22	419.32	ND	ND	0.1	111.9	22	84.5	65.6	0
12274	2011-06-23T09:00:00	19	11.05	32.20	1428.93	ND	ND	0.9	149.5	23	81	153.1	0.25
12275	2011-06-23T10:00:00	32	12.49	32.40	1479.29	ND	ND	0.4	168	24.1	76.4	319	0
12276	2011-06-23T11:00:00	18	15.33	62.47	1953.07	ND	ND	0.9	185.3	25.2	68.2	274	0
12277	2011-06-23T12:00:00	24	12.85	67.23	1215.16	ND	ND	0.7	193.6	25.9	65.9	320.7	0
12278	2011-06-23T13:00:00	12	11.51	37.74	769.88	ND	ND	1.2	151.6	26.7	60.8	366.1	0
12279	2011-06-23T14:00:00	25	11.33	36.01	725.85	ND	ND	0.5	14.8	27	59.7	310	0
12280	2011-06-23T15:00:00	15	10.31	52.45	899.57	ND	ND	0.6	313.2	28	54.4	454.4	0
12281	2011-06-23T16:00:00	12	12.99	52.30	786.86	ND	ND	1.8	5.2	27.9	53.6	193.5	0
12282	2011-06-23T17:00:00	19	15.93	36.25	624.65	ND	ND	1	358.7	27.8	54.2	218.1	0
12283	2011-06-23T18:00:00	14	18.91	43.23	751.64	ND	ND	1.8	283.5	26.7	54.7	58.7	0
12284	2011-06-23T19:00:00	8	29.75	54.57	887.15	ND	ND	2.4	271.4	25.5	57.7	1.2	0
12285	2011-06-23T20:00:00	12	14.70	19.19	608.19	ND	ND	3.4	269	25.1	59.8	0	0
12286	2011-06-23T21:00:00	7	12.06	15.85	561.54	ND	ND	2.2	298.8	24.8	61.2	0	0
12287	2011-06-23T22:00:00	4	10.68	6.98	251.86	ND	ND	2.6	272.5	24.4	63.5	0	0
12288	2011-06-23T23:00:00	2	8.34	1.48	80.03	ND	ND	1.7	245.2	24.2	65.5	0	0
12289	2011-06-24T00:00:00	2	7.84	0.23	79.98	ND	ND	1.9	189	23.5	72	0	0
12290	2011-06-24T01:00:00	3	7.48	1.03	68.39	ND	ND	1.7	182.1	22.9	72.4	0	0
12291	2011-06-24T02:00:00	3	8.27	12.75	284.38	ND	ND	1.7	174.8	22.5	74.7	0	0
12292	2011-06-24T03:00:00	2	7.92	3.88	56.80	ND	ND	0.4	132.3	22.1	77.9	0	0
12293	2011-06-24T04:00:00	19	7.89	1.38	56.72	ND	ND	0.5	112.1	21.8	79.9	0	0
12294	2011-06-24T05:00:00	22	7.54	0.82	34.00	ND	ND	0.7	44.5	21.3	82.5	0	0
12295	2011-06-24T06:00:00	20	6.99	2.34	79.20	ND	ND	0.6	28.3	21.5	81.4	0	0
12296	2011-06-24T07:00:00	26	7.72	4.52	192.47	ND	ND	0.3	318.4	21.8	78.9	5.6	0
12297	2011-06-24T08:00:00	53	12.11	11.92	589.32	ND	ND	0.7	46.5	22.3	78.6	50.7	0
12298	2011-06-24T09:00:00	79	22.54	15.81	658.43	ND	ND	0.8	59.3	22.7	78	124.6	0
12299	2011-06-24T10:00:00	54	74.00	43.53	2159.85	ND	ND	0.8	103.1	24.1	68.5	365.1	0
12300	2011-06-24T11:00:00	27	92.32	82.40	2535.57	ND	ND	0.9	92.8	26.5	59.4	686.8	0
12301	2011-06-24T12:00:00	28	63.97	56.94	978.67	ND	ND	1.1	114.8	27.5	55.4	502.9	0
12302	2011-06-24T13:00:00	26	40.66	71.28	924.17	ND	ND	1.3	82	27.8	55.2	314.4	0
12303	2011-06-24T14:00:00	45	30.42	55.09	740.08	ND	ND	1.5	45.3	28.4	54.2	366	0
12304	2011-06-24T15:00:00	34	23.90	69.02	984.88	ND	ND	1.4	1.1	28.3	53.2	242.3	0
12305	2011-06-24T16:00:00	24	22.07	50.01	671.81	ND	ND	2	289.3	28	51.8	143.7	0
12306	2011-06-24T17:00:00	14	38.01	42.40	532.28	ND	ND	2.8	279	27.3	53.9	123.2	0
12307	2011-06-24T18:00:00	21	21.26	18.58	461.78	ND	ND	2.4	265.9	26.6	55.4	39.9	0
12308	2011-06-24T19:00:00	25	14.41	17.99	575.88	ND	ND	3.3	207.8	20.2	86.5	0.1	41.4
12309	2011-06-24T20:00:00	31	13.92	15.31	552.31	ND	ND	1.7	320.8	20.3	88.2	0	8.13
12310	2011-06-24T21:00:00	19	11.99	20.37	541.22	ND	ND	0.8	107.2	20.3	91.6	0	5.08
12311	2011-06-24T22:00:00	22	11.24	37.87	1262.84	ND	ND	0.6	41.5	19.8	91.6	0	0.25
12312	2011-06-24T23:00:00	13	13.21	43.27	2138.67	ND	ND	0.7	258.6	20.4	90	0	0.25
12313	2011-06-25T00:00:00	24	13.00	33.30	1026.41	ND	ND	0.9	234.3	20.8	89	0	0
12314	2011-06-25T01:00:00	13	17.39	34.13	892.27	ND	ND	0.8	205.2	20.8	89.1	0	0
12315	2011-06-25T02:00:00	8	15.40	29.64	1118.17	ND	ND	0.9	150.8	20.4	91	0	0
12316	2011-06-25T03:00:00	4	13.41	20.03	947.46	ND	ND	0.4	156.4	20.1	92.1	0	0
12317	2011-06-25T04:00:00	2	11.85	9.56	709.87	ND	ND	0.4	66.8	20.2	90.6	0	0
12318	2011-06-25T05:00:00	8	10.70	6.26	349.42	ND	ND	0.3	88.6	20.3	89.4	0	0
12319	2011-06-25T06:00:00	13	10.37	8.82	372.09	ND	ND	0	129.3	20.2	91	0	1.52
12320	2011-06-25T07:00:00	9	10.18	12.77	439.59	ND	ND	0.2	160.4	20.3	92.8	6.9	3.81
12321	2011-06-25T08:00:00	28	10.91	13.24	642.70	ND	ND	0.1	97.6	20.6	92.5	49.2	1.02
12322	2011-06-25T09:00:00	35	12.60	16.42	1377.00	ND	ND	0.7	69.2	21.1	90.3	67.5	0
12323	2011-06-25T10:00:00	32	13.60	35.69	1854.21	ND	ND	1	60.8	21.3	90.1	156.7	0
12324	2011-06-25T11:00:00	18	16.48	58.03	2308.02	ND	ND	1	60	22.4	81.4	251.4	0
12325	2011-06-25T12:00:00	61	17.82	50.22	1442.23	ND	ND	1.3	49.8	23.9	74.8	462.3	0
12326	2011-06-25T13:00:00	41	20.44	65.15	1289.76	ND	ND	1.2	48.9	25.8	66.2	626.8	0
12327	2011-06-25T14:00:00	51	24.96	76.05	1424.37	ND	ND	0.9	3.6	26.9	60.3	673.6	0
12328	2011-06-25T15:00:00	27	32.96	67.21	945.39	ND	ND	1.6	304.7	27.5	56.4	414.5	0
12329	2011-06-25T16:00:00	16	33.82	42.88	531.40	ND	ND	3.3	274.8	26.5	55.3	399.8	0
12330	2011-06-25T17:00:00	9	24.60	26.84	414.49	ND	ND	3.6	280.6	26.5	54	345.4	0
12331	2011-06-25T18:00:00	6	21.83	5.21	449.04	ND	ND	3.3	281.9	25.3	56.8	113.3	0
12332	2011-06-25T19:00:00	5	20.07	3.60	355.50	ND	ND	3.8	273.8	24.3	58.7	1.9	0
12333	2011-06-25T20:00:00	4	14.64	8.08	354.30	ND	ND	4.4	270.6	24.2	57.4	0	0
12334	2011-06-25T21:00:00	3	13.25	9.11	342.76	ND	ND	1.7	313.6	24.5	55.2	0	0
12335	2011-06-25T22:00:00	11	11.46	1.77	114.37	ND	ND	1.8	199.9	23.5	64.9	0	0
12336	2011-06-25T23:00:00	7	10.32	4.14	113.98	ND	ND	1.3	185.8	22.9	71.3	0	0
12337	2011-06-26T00:00:00	11	11.42	16.76	534.64	ND	ND	0.7	159.2	22.6	74.3	0	0
12338	2011-06-26T01:00:00	17	11.59	19.15	659.10	ND	ND	1	154.3	21.7	80.6	0	0
12339	2011-06-26T02:00:00	22	12.59	24.55	895.01	ND	ND	1.3	168.7	20.9	82.3	0	0
12340	2011-06-26T03:00:00	11	11.58	17.72	531.03	ND	ND	0.4	168.2	20.8	79.8	0	0
12341	2011-06-26T04:00:00	24	11.13	6.18	192.01	ND	ND	0.6	215.7	20.9	80.5	0	0
12342	2011-06-26T05:00:00	14	12.40	7.76	214.67	ND	ND	0.2	305.2	20.8	81.1	0	0
12343	2011-06-26T06:00:00	17	11.93	6.09	135.54	ND	ND	0.9	29.4	20.3	83.7	0	0
12344	2011-06-26T07:00:00	19	11.66	3.58	202.96	ND	ND	0.5	53	20.4	83	33.6	0
12345	2011-06-26T08:00:00	19	12.72	11.42	428.61	ND	ND	0.5	108.1	21.1	80	81.9	0
12346	2011-06-26T09:00:00	21	18.10	20.32	667.06	ND	ND	0.5	136.2	22.1	76.1	334.1	0
12347	2011-06-26T10:00:00	32	26.52	34.11	816.81	ND	ND	0.7	126.8	24.4	63.5	571.2	0
12348	2011-06-26T11:00:00	18	24.74	38.25	857.48	ND	ND	1.1	75.4	25.7	58.5	688.6	0
12349	2011-06-26T12:00:00	17	20.41	16.82	321.52	ND	ND	1	128.7	26.8	55.6	691.3	0
12350	2011-06-26T13:00:00	11	22.85	24.23	311.18	ND	ND	0.8	77.7	27.8	52.9	558.2	0
12351	2011-06-26T14:00:00	17	25.18	26.65	416.29	ND	ND	1.4	26.8	28	52.7	522	0
12352	2011-06-26T15:00:00	9	27.39	32.61	358.71	ND	ND	1.4	56.5	28.1	51.4	395.6	0
12353	2011-06-26T16:00:00	16	30.00	18.19	231.50	ND	ND	0.8	64.2	28.3	50.6	275.1	0
12354	2011-06-26T17:00:00	9	23.08	19.82	243.24	ND	ND	0.9	97.9	28.9	49.7	268.5	0
12355	2011-06-26T18:00:00	9	18.48	8.85	185.70	ND	ND	0.7	111.2	28.1	52	53.9	0
12356	2011-06-26T19:00:00	6	19.96	13.70	254.66	ND	ND	1.6	216.4	26.8	57.1	0.1	0
12357	2011-06-26T20:00:00	15	18.80	29.26	345.76	ND	ND	2.8	264.2	25.5	61.9	0	0
12358	2011-06-26T21:00:00	9	14.49	16.85	275.41	ND	ND	1.4	234.7	25	64.9	0	0
12359	2011-06-26T22:00:00	25	12.00	4.73	206.21	ND	ND	1.2	162.5	24	74.3	0	0
12360	2011-06-26T23:00:00	17	11.10	12.91	388.20	ND	ND	0.2	22.3	23.7	76	0	0
12361	2011-06-27T00:00:00	34	11.30	44.33	752.80	ND	ND	0.5	55.5	23.6	76.9	0	0
12362	2011-06-27T01:00:00	24	11.50	44.18	706.94	ND	ND	0.5	99	23.4	78.2	0	0.51
12363	2011-06-27T02:00:00	39	12.85	46.74	809.01	ND	ND	0.8	180.7	21.9	85.7	0	3.05
12364	2011-06-27T03:00:00	22	16.65	44.96	634.87	ND	ND	0.5	148.1	21.7	87.1	0	0
12365	2011-06-27T04:00:00	13	14.02	9.48	215.26	ND	ND	0.3	223.5	21.7	88	0	0.25
12366	2011-06-27T05:00:00	8	11.38	10.32	237.91	ND	ND	0.8	50.9	21.2	91.6	0	0
12367	2011-06-27T06:00:00	29	10.17	10.47	214.89	ND	ND	0.6	75.8	20.9	93.6	0	0
12368	2011-06-27T07:00:00	16	10.05	8.10	282.46	ND	ND	0.7	343.5	21.2	91.8	26	0.25
12369	2011-06-27T08:00:00	34	10.32	12.85	395.85	ND	ND	0.4	342.5	22	86.3	108.7	0
12370	2011-06-27T09:00:00	33	10.14	15.62	340.22	ND	ND	0.2	317.9	23.6	77.6	348.5	0
12371	2011-06-27T10:00:00	63	16.61	27.43	342.07	ND	ND	1.2	70	25.4	66.9	522.4	0
12372	2011-06-27T11:00:00	41	39.70	37.42	401.50	ND	ND	1.4	55.5	26.1	65.2	390.3	0
12373	2011-06-27T12:00:00	32	37.82	42.72	390.94	ND	ND	1.7	26.1	26.7	60.6	416.9	0
12374	2011-06-27T13:00:00	17	25.43	29.51	391.73	ND	ND	1.5	5.1	28	53	647.7	0
12375	2011-06-27T14:00:00	10	15.03	19.39	289.29	ND	ND	1.3	99.5	28.4	51.6	486.9	0
12376	2011-06-27T15:00:00	6	11.34	3.79	162.21	ND	ND	0.2	22	28.9	50.3	328.5	0
12377	2011-06-27T16:00:00	6	10.99	19.04	290.15	ND	ND	1.3	79	28.8	51.9	275.6	0
12378	2011-06-27T17:00:00	3	18.73	6.16	232.04	ND	ND	1.1	43.4	28.6	52	201.6	0
12379	2011-06-27T18:00:00	9	21.56	28.67	405.81	ND	ND	1.3	359.8	28.4	53.1	106.6	0
12380	2011-06-27T19:00:00	13	19.61	24.06	359.19	ND	ND	1.1	310.2	26.8	59.6	0.9	0
12381	2011-06-27T20:00:00	23	53.49	55.76	414.91	ND	ND	1.8	267.6	25.4	66.2	0	0
12382	2011-06-27T21:00:00	14	44.63	65.08	585.04	ND	ND	2.3	259.7	24.8	65.1	0	0
12383	2011-06-27T22:00:00	9	23.88	47.69	812.84	ND	ND	2.5	271.3	24.3	65.3	0	0
12384	2011-06-27T23:00:00	5	17.51	19.17	411.45	ND	ND	1.1	291.7	23.8	68.8	0	0
12385	2011-06-28T00:00:00	30	14.46	10.75	273.84	ND	ND	1.1	261.5	23.2	70.1	0	0
12386	2011-06-28T01:00:00	15	13.15	18.87	364.38	ND	ND	1.4	248.9	22.8	67.6	0	0
12387	2011-06-28T02:00:00	8	13.89	33.32	534.46	ND	ND	1.7	253	22.5	68.1	0	0
12388	2011-06-28T03:00:00	5	12.39	3.23	90.88	ND	ND	1.1	264.2	22.2	68.6	0	0
12389	2011-06-28T04:00:00	9	11.50	ND	11.35	ND	ND	1	40.9	21.2	82.1	0	0
12390	2011-06-28T05:00:00	15	10.22	0.91	22.62	ND	ND	0.9	15.8	20.2	87.5	0	0
12391	2011-06-28T06:00:00	51	12.22	31.78	484.68	ND	ND	0.4	57.1	20.1	87.5	0	0
12392	2011-06-28T07:00:00	55	13.50	23.27	495.78	ND	ND	0.4	1.2	20.5	85.5	33.2	0
12393	2011-06-28T08:00:00	112	16.31	29.59	1015.48	ND	ND	1.3	35	21.9	78	162	0
12394	2011-06-28T09:00:00	87	24.76	45.14	1575.83	ND	ND	1.6	39.5	23.3	70.4	355.6	0
12395	2011-06-28T10:00:00	64	88.11	89.12	1890.86	ND	ND	0.9	67.4	24.9	65.3	519.3	0
12396	2011-06-28T11:00:00	56	129.11	76.35	1145.22	ND	ND	0.8	62.4	27	58.3	651.7	0
12397	2011-06-28T12:00:00	59	49.20	55.78	864.97	ND	ND	1	80.1	28.5	53.1	716.1	0
12398	2011-06-28T13:00:00	37	36.77	65.09	707.03	ND	ND	1.2	82.3	29.8	49.1	681.3	0
12399	2011-06-28T14:00:00	48	31.26	48.90	651.87	ND	ND	0.9	5.9	30.6	47.1	494.4	0
12400	2011-06-28T15:00:00	25	27.44	57.87	828.67	ND	ND	0.9	320.5	31.4	43.7	578.8	0
12401	2011-06-28T16:00:00	27	30.67	40.21	620.21	ND	ND	4	281.1	30.8	44.1	500.4	0
12402	2011-06-28T17:00:00	14	29.04	22.43	408.77	ND	ND	4.3	279.9	29.3	48.2	265.9	0
12403	2011-06-28T18:00:00	17	16.19	10.83	441.61	ND	ND	3.6	274.6	28.1	51.9	128.6	0
12404	2011-06-28T19:00:00	9	15.04	9.42	439.86	ND	ND	3.4	272.4	27	54.5	2.9	0
12405	2011-06-28T20:00:00	15	14.69	13.94	472.85	ND	ND	2.9	274.6	26.5	55.8	0	0
12406	2011-06-28T21:00:00	7	16.06	21.48	610.23	ND	ND	0.2	238.1	26	58.7	0	0
12407	2011-06-28T22:00:00	39	14.49	22.47	402.31	ND	ND	0.3	145.6	25.2	63.9	0	0
12408	2011-06-28T23:00:00	20	16.13	32.12	1215.16	ND	ND	1.1	241.6	25	63.9	0	0
12409	2011-06-29T00:00:00	10	20.60	33.17	1615.31	ND	ND	1.5	211.9	24.4	67.1	0	0
12410	2011-06-29T01:00:00	7	13.86	8.12	205.79	ND	ND	0.6	219	23.6	71.3	0	0
12411	2011-06-29T02:00:00	32	12.34	7.55	45.61	ND	ND	0.6	17.8	22.6	76.9	0	0
12412	2011-06-29T03:00:00	26	12.01	15.58	250.00	ND	ND	0.4	62.6	22	80.6	0	0
12413	2011-06-29T04:00:00	33	14.42	16.87	657.76	ND	ND	0.1	151.2	22	80.8	0	0
12414	2011-06-29T05:00:00	34	16.91	12.25	464.97	ND	ND	0.2	73.6	21.8	80.1	0	0
12415	2011-06-29T06:00:00	20	18.40	13.99	475.99	ND	ND	0.4	218.2	21.7	77.6	0	0
12416	2011-06-29T07:00:00	12	17.28	14.43	464.50	ND	ND	1	241.5	22	72.4	21.3	0
12417	2011-06-29T08:00:00	13	16.29	11.93	430.95	ND	ND	0.8	164.4	23.4	69.3	172.3	0
12418	2011-06-29T09:00:00	56	16.34	14.03	569.73	ND	ND	1.2	158.4	24.3	68	308.1	0
12419	2011-06-29T10:00:00	53	21.20	49.81	1622.94	ND	ND	1.5	163.7	26	62.5	510.7	0
12420	2011-06-29T11:00:00	35	26.79	73.85	1379.34	ND	ND	1.6	163.7	27.5	57.1	635.6	0
12421	2011-06-29T12:00:00	49	29.28	61.38	935.73	ND	ND	0.9	188.6	28.4	53.3	603.4	0
12422	2011-06-29T13:00:00	25	30.69	39.17	706.79	ND	ND	0.9	196.1	29.4	50.7	579.7	0
12423	2011-06-29T14:00:00	17	25.90	22.99	488.26	ND	ND	0.7	172.2	30.5	46.5	556.7	0
12424	2011-06-29T15:00:00	27	20.95	37.79	606.71	ND	ND	0.6	32.3	30.3	47.8	311.1	0
12425	2011-06-29T16:00:00	31	17.95	40.95	606.31	ND	ND	3.6	281.9	29.4	49.6	314.1	0
12426	2011-06-29T17:00:00	17	21.17	71.17	1057.90	ND	ND	3	286.9	28.8	50.4	197.2	0
12427	2011-06-29T18:00:00	18	14.65	15.98	452.48	ND	ND	2.8	280.4	27.8	52.8	53.6	0
12428	2011-06-29T19:00:00	10	13.33	18.44	462.55	ND	ND	3.2	282	26.7	56	2.4	0
12429	2011-06-29T20:00:00	7	13.81	27.58	702.81	ND	ND	3.3	278.8	26	58.1	0	0
12430	2011-06-29T21:00:00	4	12.49	17.57	482.77	ND	ND	1	301.3	25.6	59.5	0	0
12431	2011-06-29T22:00:00	2	10.90	9.34	321.42	ND	ND	2.2	277.5	24.9	62.3	0	0
12432	2011-06-29T23:00:00	2	10.19	9.53	263.40	ND	ND	0.1	318.1	24.1	68.8	0	0
12433	2011-06-30T00:00:00	13	10.06	7.83	171.32	ND	ND	0.7	126.4	23.6	69.4	0	0
12434	2011-06-30T01:00:00	9	16.95	28.27	798.16	ND	ND	0.4	148.7	22.6	76.9	0	0
12435	2011-06-30T02:00:00	6	14.63	9.66	204.55	ND	ND	0.6	164.8	22.8	75.2	0	0
12436	2011-06-30T03:00:00	5	11.47	9.33	204.69	ND	ND	0.7	155.6	22.5	78	0	0
12437	2011-06-30T04:00:00	28	11.67	12.06	170.40	ND	ND	0.8	139.2	22.2	79.7	0	0
12438	2011-06-30T05:00:00	16	11.29	6.36	192.92	ND	ND	0.4	300.3	22.2	79	0	0
12439	2011-06-30T06:00:00	19	11.39	8.30	215.62	ND	ND	0.3	189.2	22.4	74.5	0	0
12440	2011-06-30T07:00:00	44	12.10	11.05	272.55	ND	ND	0.7	82.4	21.9	81.4	22.1	0
12441	2011-06-30T08:00:00	72	13.85	11.03	487.49	ND	ND	0.5	91.7	21.8	81.6	106.2	0
12442	2011-06-30T09:00:00	63	15.40	26.68	1745.29	ND	ND	0.1	197.9	23.3	74.3	209.7	0
12443	2011-06-30T10:00:00	66	21.70	40.28	1731.39	ND	ND	1	190.3	24.8	66.3	344.1	0
12444	2011-06-30T11:00:00	34	26.42	104.01	2095.05	ND	ND	0.4	119.3	25.8	61.3	423.2	0
12445	2011-06-30T12:00:00	35	24.20	82.30	1252.06	ND	ND	1	54.2	27.2	56.2	494.5	6.6
12446	2011-06-30T13:00:00	31	ND	ND	ND	ND	ND	1.3	65.9	28.1	54.9	524.2	0
12447	2011-06-30T14:00:00	41	ND	ND	ND	ND	ND	1.3	351.2	29	51.8	524.6	0
12448	2011-06-30T15:00:00	21	17.84	16.72	1544.11	ND	ND	2.9	290.6	28.5	49.5	330.2	0
12449	2011-06-30T16:00:00	12	30.35	4.06	1124.29	ND	ND	3.4	285.5	28.7	47.8	409	0
12450	2011-06-30T17:00:00	7	14.03	ND	1043.85	ND	ND	3.4	292.1	27.5	51	214.6	0
12451	2011-06-30T18:00:00	4	8.98	0.09	993.49	ND	ND	3	257.3	26.5	56.1	59.1	0
12452	2011-06-30T19:00:00	11	7.40	ND	1024.72	ND	ND	3.6	185.8	23.2	70.8	0.7	0
12453	2011-06-30T20:00:00	17	7.16	ND	1013.43	ND	ND	2.6	176.2	22	75.4	0	5.59
12454	2011-06-30T21:00:00	20	7.47	0.04	1179.44	ND	ND	1.1	313.4	19.8	90.2	0	22.35
12455	2011-06-30T22:00:00	22	5.97	2.02	1350.74	ND	ND	1.5	28.1	19.7	86.7	0	4.83
12456	2011-06-30T23:00:00	13	4.76	1.37	978.95	ND	ND	0.7	95.7	19.4	88.5	0	1.78
12457	2011-07-01T00:00:00	18	6.14	11.44	1551.23	ND	ND	0.2	149	18.9	92.6	0	5.59
12458	2011-07-01T01:00:00	12	13.14	11.79	1458.80	ND	ND	0.6	151.5	19.1	93.9	0	2.03
12459	2011-07-01T02:00:00	7	10.74	1.77	1066.78	ND	ND	0.6	159.4	19.3	94	0	0.25
12460	2011-07-01T03:00:00	4	8.17	0.37	1134.93	ND	ND	0.6	156.8	19.2	93.2	0	0
12461	2011-07-01T04:00:00	5	6.65	ND	1055.91	ND	ND	0.1	138.1	19.3	92.4	0	0.25
12462	2011-07-01T05:00:00	4	6.19	ND	809.06	ND	ND	0.6	58.8	19.3	92.5	0	0
12463	2011-07-01T06:00:00	18	5.42	0.06	786.59	ND	ND	1	59.1	19.1	94.4	0	0
12464	2011-07-01T07:00:00	25	5.62	0.02	965.72	ND	ND	1.9	13.2	18.9	94.3	12.7	0
12465	2011-07-01T08:00:00	66	7.31	0.22	1380.25	ND	ND	1.2	12.5	19.4	93.3	88.4	0
12466	2011-07-01T09:00:00	67	9.62	2.31	1708.60	ND	ND	1.5	43.7	21	84.4	250.7	0
12467	2011-07-01T10:00:00	52	39.86	24.53	2260.46	ND	ND	0.5	140.3	22.9	72.7	520.5	0
12468	2011-07-01T11:00:00	30	97.80	33.23	2013.44	ND	ND	0.9	79.9	24.7	62.7	649	0
12469	2011-07-01T12:00:00	45	39.66	4.37	1247.45	ND	ND	1	103.3	25.5	61.4	561.5	0
12470	2011-07-01T13:00:00	33	25.04	8.41	1354.08	ND	ND	0.7	21.7	26.7	58	512.4	0
12471	2011-07-01T14:00:00	31	21.58	8.50	1359.53	ND	ND	1.3	57.9	28	54.6	730.3	0
12472	2011-07-01T15:00:00	20	19.74	2.34	1157.14	ND	ND	1.3	13.7	29	51	603.4	0
12473	2011-07-01T16:00:00	11	20.29	7.29	1207.42	ND	ND	1	20	29.6	49	421.2	0
12474	2011-07-01T17:00:00	7	19.08	0.38	930.63	ND	ND	1.9	292.2	29.3	49	270.7	0
12475	2011-07-01T18:00:00	4	20.23	3.53	1266.73	ND	ND	3.4	273.9	26.9	56.3	51.1	0
12476	2011-07-01T19:00:00	4	15.85	2.33	1175.97	ND	ND	3.8	266.8	26	58.6	1.9	0
12477	2011-07-01T20:00:00	7	10.91	0.08	1321.87	ND	ND	3.8	275.2	25.6	60.8	0	0
12478	2011-07-01T21:00:00	5	10.61	ND	1228.27	ND	ND	4.2	269.8	24.9	63.8	0	0
12479	2011-07-01T22:00:00	2	8.67	ND	950.54	ND	ND	1.3	325.2	24.2	67.7	0	0
12480	2011-07-01T23:00:00	24	7.81	ND	742.65	ND	ND	0.4	80.7	23.2	75.3	0	0
12481	2011-07-02T00:00:00	50	7.97	0.54	1446.13	ND	ND	0.5	139.8	23	77.1	0	0
12482	2011-07-02T01:00:00	26	11.30	0.19	2423.77	ND	ND	1.3	206	23.1	71.3	0	0
12483	2011-07-02T02:00:00	33	12.24	1.80	2652.25	ND	ND	1.2	192.4	22.2	81.5	0	0
12484	2011-07-02T03:00:00	18	9.16	0.02	1157.54	ND	ND	1.3	195.7	22.1	82.6	0	0
12485	2011-07-02T04:00:00	30	7.24	ND	1225.22	ND	ND	1.1	37.5	21.5	84.4	0	0
12486	2011-07-02T05:00:00	21	6.78	ND	984.97	ND	ND	0.6	33.7	21.3	86	0	0
12487	2011-07-02T06:00:00	33	7.66	0.04	1187.95	ND	ND	0.3	237.8	21.3	86	0	0
12488	2011-07-02T07:00:00	22	8.41	ND	1018.25	ND	ND	0.6	219.3	21.7	84.2	31.9	0
12489	2011-07-02T08:00:00	47	8.91	ND	1132.92	ND	ND	0.6	163.9	22.8	76.8	119.2	0
12490	2011-07-02T09:00:00	25	10.07	0.02	1546.52	ND	ND	1.4	158.5	23.4	76.8	255.8	0
12491	2011-07-02T10:00:00	57	13.63	7.42	2096.60	ND	ND	1.7	167.7	24.9	70.1	450	0
12492	2011-07-02T11:00:00	34	16.53	5.67	2153.02	ND	ND	1.3	147.6	25.6	65.7	401.8	0
12493	2011-07-02T12:00:00	48	20.77	2.83	1767.79	ND	ND	0.9	134.5	25.9	64.3	252.7	0
12494	2011-07-02T13:00:00	46	24.07	5.95	1723.60	ND	ND	0.7	186.1	26.6	62.3	400.2	0
12495	2011-07-02T14:00:00	67	20.18	7.38	1716.12	ND	ND	0.8	30.1	26.4	62.3	165.2	0
12496	2011-07-02T15:00:00	34	18.61	6.87	1588.37	ND	ND	2.3	292.7	25.4	62.2	222.5	0
12497	2011-07-02T16:00:00	19	16.21	20.97	1904.26	ND	ND	3.1	271.2	26.2	58.5	225.7	0
12498	2011-07-02T17:00:00	10	11.42	0.83	1460.78	ND	ND	2.8	284.9	25.6	57.8	112.3	0
12499	2011-07-02T18:00:00	6	9.61	ND	1170.87	ND	ND	1.2	278.9	25.4	57.7	27.2	0
12500	2011-07-02T19:00:00	4	7.85	ND	1112.73	ND	ND	2.1	218.4	24.2	66.5	0.9	0
12501	2011-07-02T20:00:00	19	7.50	ND	1233.93	ND	ND	2.4	262.4	24	62.7	0	0
12502	2011-07-02T21:00:00	23	7.57	3.68	1484.29	ND	ND	1	168.2	22.6	76.9	0	0
12503	2011-07-02T22:00:00	20	6.65	ND	1170.47	ND	ND	0.4	184.4	22	81.1	0	0
12504	2011-07-02T23:00:00	17	6.61	9.97	1848.54	ND	ND	0.7	333	22	80	0	0
12505	2011-07-03T00:00:00	40	6.41	13.28	1825.86	ND	ND	0.3	15.6	21.8	80.4	0	0
12506	2011-07-03T01:00:00	22	7.26	16.19	2005.95	ND	ND	1.2	258.8	21.4	75.9	0	0
12507	2011-07-03T02:00:00	16	9.06	20.62	2512.52	ND	ND	0.9	271.3	21.5	74.2	0	0
12508	2011-07-03T03:00:00	9	7.77	2.96	1245.37	ND	ND	0.4	197.1	21.4	76	0	0
12509	2011-07-03T04:00:00	14	8.23	ND	826.19	ND	ND	0.4	157.5	20.1	90.9	0	0
12510	2011-07-03T05:00:00	8	7.91	ND	969.02	ND	ND	0.2	36.8	19.9	90.9	0	0
12511	2011-07-03T06:00:00	25	6.28	ND	1193.56	ND	ND	0.2	309.1	20.1	89.3	0	0
12512	2011-07-03T07:00:00	19	6.65	0.02	1329.59	ND	ND	0.8	252.2	20.6	76.7	9.1	0
12513	2011-07-03T08:00:00	34	6.48	ND	1399.58	ND	ND	0.2	260	21.6	75.4	131.8	0
12514	2011-07-03T09:00:00	19	8.96	ND	973.98	ND	ND	0.6	106.5	23.2	72.6	241.8	0
12515	2011-07-03T10:00:00	46	11.38	ND	1218.40	ND	ND	0.7	142.4	23.4	72.8	188.9	0
12516	2011-07-03T11:00:00	24	15.45	13.84	1606.63	ND	ND	0.6	9.7	25.4	64.1	582.9	0
12517	2011-07-03T12:00:00	37	13.98	2.79	1273.33	ND	ND	1	39.1	27.1	56.5	572	0
12518	2011-07-03T13:00:00	20	20.11	ND	1188.29	ND	ND	1.2	55.5	28.4	50.9	741.7	0
12519	2011-07-03T14:00:00	16	19.69	0.51	1054.40	ND	ND	1.5	357.9	29.4	48	631.5	0
12520	2011-07-03T15:00:00	9	17.34	0.59	1092.77	ND	ND	1.4	31	30.1	46.8	543.7	0
12521	2011-07-03T16:00:00	5	34.35	ND	897.21	ND	ND	3.2	282.5	29.9	46.4	544.1	0
12522	2011-07-03T17:00:00	4	34.57	ND	919.91	ND	ND	4.1	282.7	28.3	49.6	348.5	0
12523	2011-07-03T18:00:00	2	13.94	ND	660.23	ND	ND	3.9	275.6	27.1	52.6	103	0
12524	2011-07-03T19:00:00	2	7.84	ND	611.45	ND	ND	4.5	265.5	25.7	57.1	0	0
12525	2011-07-03T20:00:00	5	7.30	ND	643.05	ND	ND	4.6	276.1	25.4	58.2	ND	0
12526	2011-07-03T21:00:00	4	7.29	ND	734.17	ND	ND	0.7	307.8	25.4	57.9	0	0
12527	2011-07-03T22:00:00	35	6.80	ND	653.87	ND	ND	0.9	126	24.2	65.3	0	0
12528	2011-07-03T23:00:00	19	7.11	0.53	1176.81	ND	ND	2.1	240.1	24.1	64.3	0	0
12529	2011-07-04T00:00:00	20	11.36	2.37	2352.82	ND	ND	0.4	336.3	23.3	70.6	0	0
12530	2011-07-04T01:00:00	21	8.31	ND	911.26	ND	ND	0.3	174	22.9	72.5	0	0
12531	2011-07-04T02:00:00	14	8.12	0.07	1444.67	ND	ND	0.9	166.4	22.4	77.2	0	0
12532	2011-07-04T03:00:00	11	8.49	0.13	1453.58	ND	ND	0.8	154.8	21.5	81.3	0	0
12533	2011-07-04T04:00:00	7	7.82	ND	1120.83	ND	ND	0.4	139.9	21.5	80.8	0	0
12534	2011-07-04T05:00:00	4	7.43	ND	973.65	ND	ND	0.6	152.8	21.6	79.8	0	0
12535	2011-07-04T06:00:00	17	7.82	ND	996.63	ND	ND	0.5	181.3	21.7	79	0	0
12536	2011-07-04T07:00:00	9	8.08	ND	917.67	ND	ND	0.6	241.2	22.1	76.4	13.6	0
12537	2011-07-04T08:00:00	11	8.59	ND	884.88	ND	ND	1.1	203.3	22.8	72.7	100.2	0
12538	2011-07-04T09:00:00	6	9.52	ND	932.46	ND	ND	0.7	197.7	24.2	67	252.9	0
12539	2011-07-04T10:00:00	22	12.67	0.04	1096.83	ND	ND	1.1	138.7	25.2	64.4	414.9	0
12540	2011-07-04T11:00:00	12	18.04	0.13	985.88	ND	ND	1.2	107.8	25.8	64.8	473.1	0
12541	2011-07-04T12:00:00	35	20.20	0.17	1125.71	ND	ND	1.5	100.1	27	59.2	550.5	0
12542	2011-07-04T13:00:00	18	19.99	1.12	1234.03	ND	ND	1.1	85.9	28.2	54.9	626.9	0
12543	2011-07-04T14:00:00	22	19.31	1.56	1296.86	ND	ND	1.3	71.3	28.6	53	457.1	0
12544	2011-07-04T15:00:00	26	15.88	0.06	1089.88	ND	ND	1.3	79	28.7	54.1	307	0
12545	2011-07-04T16:00:00	34	14.48	0.46	1032.25	ND	ND	0.9	7.4	29.2	52.7	289	0
12546	2011-07-04T17:00:00	19	18.87	2.23	1150.14	ND	ND	2.8	280.8	29.2	47.9	251.7	0
12547	2011-07-04T18:00:00	10	22.48	ND	964.26	ND	ND	3.6	270.8	27.5	53.7	78	0
12548	2011-07-04T19:00:00	6	10.52	ND	566.06	ND	ND	3.4	267.8	25.8	58.8	0.6	0
12549	2011-07-04T20:00:00	4	8.20	ND	712.18	ND	ND	4.3	265.3	25.4	59.4	0	0
12550	2011-07-04T21:00:00	3	7.98	ND	825.94	ND	ND	1.4	301	25	63.1	0	0
12551	2011-07-04T22:00:00	56	6.87	ND	801.93	ND	ND	0.3	251.7	24.4	67.7	0	0
12552	2011-07-04T23:00:00	33	7.50	ND	1143.30	ND	ND	0.7	62	23.7	70.4	0	0
12553	2011-07-05T00:00:00	27	16.07	ND	1665.29	ND	ND	0.5	236.6	23.2	72.8	0	0
12554	2011-07-05T01:00:00	14	13.41	0.17	1263.94	ND	ND	0.4	91.8	22.8	73.9	0	0
12555	2011-07-05T02:00:00	20	11.99	0.09	1148.52	ND	ND	0.4	100.3	21.9	78.6	0	0
12556	2011-07-05T03:00:00	11	10.50	ND	1077.01	ND	ND	1.1	172.2	21.5	81.1	0	0
12557	2011-07-05T04:00:00	14	10.90	ND	928.36	ND	ND	0.9	155.2	21.3	81.7	0	0
12558	2011-07-05T05:00:00	14	9.16	ND	916.42	ND	ND	0.6	179.8	21.4	81.3	0	0
12559	2011-07-05T06:00:00	22	9.34	ND	792.24	ND	ND	0.5	124.6	21.4	80.9	0	0
12560	2011-07-05T07:00:00	28	8.39	ND	962.00	ND	ND	0.5	60.8	21.6	80.5	39.9	0
12561	2011-07-05T08:00:00	56	9.48	0.37	1291.09	ND	ND	0.8	127.4	22.8	74.8	145.8	0
12562	2011-07-05T09:00:00	44	13.78	0.37	1842.18	ND	ND	1	149.6	23.9	69.9	297.6	0
12563	2011-07-05T10:00:00	45	22.87	13.44	2522.45	ND	ND	0.6	147.2	25.3	64.6	482.1	0
12564	2011-07-05T11:00:00	31	17.36	5.86	1777.48	ND	ND	1.1	118.1	27	57.9	599.7	0
12565	2011-07-05T12:00:00	51	16.14	1.80	1395.49	ND	ND	0.5	133.9	28.3	53.5	602.3	0
12566	2011-07-05T13:00:00	54	17.54	9.24	1494.20	ND	ND	0.9	49.3	28.9	50.9	406.2	0
12567	2011-07-05T14:00:00	49	16.43	6.53	1369.51	ND	ND	1.1	33.5	29.5	49.8	345.9	0
12568	2011-07-05T15:00:00	25	17.40	15.33	1500.15	ND	ND	1.8	304.2	29.1	50.6	222.1	0
12569	2011-07-05T16:00:00	25	18.51	2.37	1289.12	ND	ND	2.7	270.4	28.9	49.6	251.1	0
12570	2011-07-05T17:00:00	13	20.65	1.32	1218.63	ND	ND	3.6	271.6	28.6	50.8	281.8	0
12571	2011-07-05T18:00:00	20	12.09	ND	927.56	ND	ND	4.2	268.5	26.9	55.2	41.7	0
12572	2011-07-05T19:00:00	12	10.92	0.30	1049.15	ND	ND	4.6	268.1	25.8	58.7	1.5	0
12573	2011-07-05T20:00:00	8	9.48	0.08	1079.76	ND	ND	4.3	263.2	25.5	59.5	0	0
12574	2011-07-05T21:00:00	6	8.43	0.17	1136.05	ND	ND	2.4	238.8	24.8	64.5	0	0
12575	2011-07-05T22:00:00	5	7.57	ND	1030.35	ND	ND	1.5	252.9	24	70.1	0	0
12576	2011-07-05T23:00:00	3	6.74	ND	1004.75	ND	ND	0.8	262.8	24	67	0	0
12577	2011-07-06T00:00:00	6	6.95	ND	1004.75	ND	ND	0.4	118	22.8	77.6	0	0
12578	2011-07-06T01:00:00	4	6.42	ND	898.35	ND	ND	0.8	155.9	22.1	81.3	0	0
12579	2011-07-06T02:00:00	3	6.25	ND	1281.94	ND	ND	0.5	121.9	21.8	82.7	0	0
12580	2011-07-06T03:00:00	3	5.60	ND	940.64	ND	ND	0.2	102.5	22.1	81.9	0	0
12581	2011-07-06T04:00:00	7	5.53	ND	884.88	ND	ND	0.8	33.8	22	81.7	0	0
12582	2011-07-06T05:00:00	5	5.11	ND	907.26	ND	ND	0.6	95.6	21.2	87.1	0	0
12583	2011-07-06T06:00:00	16	6.29	ND	1029.21	ND	ND	0	140	21.3	86.8	0	0
12584	2011-07-06T07:00:00	9	7.30	0.02	1018.25	ND	ND	0.3	250.1	21.7	82.9	10.7	0
12585	2011-07-06T08:00:00	38	7.57	ND	1121.59	ND	ND	0.4	149.4	22.3	77.4	66.4	0
12586	2011-07-06T09:00:00	49	9.84	ND	1419.03	ND	ND	0.6	103.4	22.8	80.8	228.9	0
12587	2011-07-06T10:00:00	77	23.46	4.21	1933.15	ND	ND	1.6	48.3	24.5	72.5	363.2	0
12588	2011-07-06T11:00:00	48	22.34	13.59	2333.12	ND	ND	1.4	71.7	25.3	66.9	301.5	0
12589	2011-07-06T12:00:00	48	39.92	45.53	2167.38	ND	ND	1.2	60.2	26.9	59.7	627.6	0
12590	2011-07-06T13:00:00	31	73.57	23.77	1775.48	ND	ND	1.3	89.6	28.2	55.6	602	0
12591	2011-07-06T14:00:00	38	30.32	8.59	1574.76	ND	ND	0.8	73.4	28.1	54.5	138.5	0
12592	2011-07-06T15:00:00	23	24.36	13.38	1585.81	ND	ND	2.8	261.2	27	57.9	211.6	0
12593	2011-07-06T16:00:00	38	20.87	8.30	1395.49	ND	ND	2.2	276.2	25	65.5	52.5	0
12594	2011-07-06T17:00:00	19	16.72	ND	1420.55	ND	ND	3.4	344	19.7	92	0.2	70.1
12595	2011-07-06T18:00:00	25	12.46	2.16	1395.29	ND	ND	1.1	258.3	19.5	99	0	9.4
12596	2011-07-06T19:00:00	15	9.64	10.22	1596.74	ND	ND	1.2	23.9	20.9	90.8	0	0
12597	2011-07-06T20:00:00	41	8.04	19.36	2011.13	ND	ND	2	13	20.2	90.2	0	0
12598	2011-07-06T21:00:00	39	11.60	36.91	3494.18	ND	ND	0.3	13.2	20.2	90.9	0	0
12599	2011-07-06T22:00:00	49	12.09	19.29	2254.31	ND	ND	0.9	207.4	20.6	89.3	0	0
12600	2011-07-06T23:00:00	43	19.90	11.84	1805.91	ND	ND	0.5	180	20.8	88.2	0	0
12601	2011-07-07T00:00:00	34	23.95	9.54	1886.20	ND	ND	0.9	168.8	20.7	88.8	0	0
12602	2011-07-07T01:00:00	21	21.85	12.03	2359.77	ND	ND	0.4	127	20.4	91	0	0.25
12603	2011-07-07T02:00:00	25	15.56	1.97	1725.72	ND	ND	0.2	86.1	20.4	90.8	0	0
12604	2011-07-07T03:00:00	14	11.33	ND	1184.32	ND	ND	0.2	50.3	20.3	92	0	0
12605	2011-07-07T04:00:00	8	9.77	0.06	992.23	ND	ND	0.2	97.4	20.4	91.2	0	0
12606	2011-07-07T05:00:00	13	8.93	ND	958.73	ND	ND	0.4	69	20.3	92.5	0	0
12607	2011-07-07T06:00:00	34	8.41	ND	1003.51	ND	ND	0.6	71.1	19.9	94	0	0
12608	2011-07-07T07:00:00	43	8.55	0.09	1114.74	ND	ND	0.9	72.4	19.9	93.3	5.8	0
12609	2011-07-07T08:00:00	60	9.19	0.20	1441.28	ND	ND	1	66.2	20.3	91.3	102.4	0
12610	2011-07-07T09:00:00	59	11.04	2.47	2187.43	ND	ND	0.9	63.2	21.2	86.5	138.1	0
12611	2011-07-07T10:00:00	72	11.64	4.72	2375.10	ND	ND	1.3	56.6	22.5	80.7	301.7	0
12612	2011-07-07T11:00:00	48	16.58	10.22	2101.59	ND	ND	1.3	32.6	23.9	73.7	469.6	0
12613	2011-07-07T12:00:00	53	20.78	12.05	1917.52	ND	ND	0.9	40.1	25.9	64.3	586.4	0
12614	2011-07-07T13:00:00	44	19.32	6.27	1585.71	ND	ND	0.7	86.5	26.7	59.1	506.3	0
12615	2011-07-07T14:00:00	55	16.34	15.57	1682.13	ND	ND	1.1	151.4	27.7	55	542.9	0
12616	2011-07-07T15:00:00	29	12.45	11.06	1410.30	ND	ND	1	50.1	28.1	54.5	400.6	0
12617	2011-07-07T16:00:00	41	14.01	10.66	1458.48	ND	ND	0.9	75.8	28.2	53.9	412.1	0
12618	2011-07-07T17:00:00	39	17.61	14.05	1574.76	ND	ND	1.1	63	28.5	52.8	278	0
12619	2011-07-07T18:00:00	59	15.88	18.96	1564.73	ND	ND	0.9	81.1	27.9	54.7	79.6	0
12620	2011-07-07T19:00:00	59	15.77	38.53	1885.51	ND	ND	0.7	258.8	26.6	59.8	0.1	0
12621	2011-07-07T20:00:00	63	15.86	77.43	2499.32	ND	ND	1.9	259.1	25.7	62.3	0	0
12622	2011-07-07T21:00:00	33	16.18	52.50	2319.56	ND	ND	2.8	264.4	24.9	64.3	0	0
12623	2011-07-07T22:00:00	32	12.36	27.17	1912.52	ND	ND	0.9	319.3	24.3	68.3	0	0
12624	2011-07-07T23:00:00	44	9.62	ND	1211.49	ND	ND	0.8	183.9	23	76.1	0	0
12625	2011-07-08T00:00:00	62	8.72	3.59	1467.92	ND	ND	1.1	210.3	22.8	74.5	0	0
12626	2011-07-08T01:00:00	33	9.78	12.66	2058.24	ND	ND	1.1	242.2	22.7	69	0	0
12627	2011-07-08T02:00:00	18	8.63	16.41	1477.80	ND	ND	1.2	236.2	22.5	67.6	ND	0
12628	2011-07-08T03:00:00	10	8.50	0.78	1022.40	ND	ND	0.4	323.4	22.1	74.6	0	0
12629	2011-07-08T04:00:00	49	7.84	ND	703.36	ND	ND	0.1	93.6	21.5	81.2	0	0
12630	2011-07-08T05:00:00	60	7.41	ND	1041.58	ND	ND	0.5	48	21.2	85	0	0
12631	2011-07-08T06:00:00	78	8.85	4.44	1549.47	ND	ND	0.3	114.1	20.6	86.9	0	0
12632	2011-07-08T07:00:00	56	8.62	2.52	1523.73	ND	ND	0	153.2	20.9	83.5	26.5	0
12633	2011-07-08T08:00:00	107	9.17	0.37	1321.92	ND	ND	0.6	63	22.4	78.7	124.1	0
12634	2011-07-08T09:00:00	107	10.21	6.83	1555.79	ND	ND	1.4	67.5	22.8	76.4	324.2	0
12635	2011-07-08T10:00:00	87	26.84	61.86	3377.34	ND	ND	1	50.4	25	65.4	586.9	0
12636	2011-07-08T11:00:00	47	38.52	26.14	2188.11	ND	ND	1.2	65.7	26.4	59.9	535.1	0
12637	2011-07-08T12:00:00	53	28.83	5.00	1323.64	ND	ND	1.2	18	28.3	53.7	711	0
12638	2011-07-08T13:00:00	34	23.55	14.07	1447.87	ND	ND	0.9	20.4	29.1	50.5	671.4	0
12639	2011-07-08T14:00:00	53	19.98	2.37	1196.21	ND	ND	1.3	73.5	30.2	47	729.8	0
12640	2011-07-08T15:00:00	48	19.46	5.37	1247.19	ND	ND	1.1	39.4	30.6	47.4	447.7	0
12641	2011-07-08T16:00:00	55	19.62	9.67	1423.91	ND	ND	2.1	355.4	30	49.8	225.2	0
12642	2011-07-08T17:00:00	28	30.11	10.53	1269.66	ND	ND	1.1	330.3	29.6	51.3	214.5	0
12643	2011-07-08T18:00:00	35	30.31	8.91	1279.62	ND	ND	2.6	276.8	28.3	52.2	54.2	0
12644	2011-07-08T19:00:00	18	24.51	6.74	1401.54	ND	ND	2.9	276.8	27.2	54.7	1.1	0
12645	2011-07-08T20:00:00	20	13.91	0.34	1419.50	ND	ND	3.6	267.6	26.5	57.4	0	0
12646	2011-07-08T21:00:00	11	12.19	1.31	1450.73	ND	ND	3.5	263.4	26	60	0	0
12647	2011-07-08T22:00:00	7	9.49	0.15	1068.99	ND	ND	1.1	305.4	25.3	64.2	0	0
12648	2011-07-08T23:00:00	11	8.24	ND	1066.49	ND	ND	0.3	58	24.6	68.9	0	0
12649	2011-07-09T00:00:00	32	9.18	1.17	1510.17	ND	ND	0.7	216.3	24.8	65.8	0	0
12650	2011-07-09T01:00:00	26	12.83	5.55	2518.64	ND	ND	0.6	75.2	23.4	75.4	0	0
12651	2011-07-09T02:00:00	34	11.10	2.51	1572.45	ND	ND	0.7	177.9	22.9	77.3	0	0
12652	2011-07-09T03:00:00	36	9.00	0.34	1353.67	ND	ND	0.9	185.7	22.7	78.5	0	0
12653	2011-07-09T04:00:00	38	8.94	0.22	1193.60	ND	ND	1	218.5	22.5	76.2	0	0
12654	2011-07-09T05:00:00	25	8.44	0.07	1249.60	ND	ND	0	68.2	22.5	71.7	0	0
12655	2011-07-09T06:00:00	34	8.96	ND	1136.00	ND	ND	1	0.9	21.5	84.2	0	0
12656	2011-07-09T07:00:00	55	8.49	ND	1030.26	ND	ND	0.3	5.7	21.6	83.2	23.9	0
12657	2011-07-09T08:00:00	69	8.11	0.06	1404.35	ND	ND	0.5	318.8	22.6	74.8	93.1	0
12658	2011-07-09T09:00:00	105	11.62	2.75	1943.21	ND	ND	1.4	73.9	23.1	77.3	126.8	0
12659	2011-07-09T10:00:00	96	25.70	8.16	1764.37	ND	ND	1.2	68.2	24	72.1	246.3	0
12660	2011-07-09T11:00:00	54	47.29	35.48	2888.66	ND	ND	1.3	68.4	25.6	65.8	473.8	0
12661	2011-07-09T12:00:00	60	49.18	26.93	2261.39	ND	ND	1.1	71.9	26.5	64.6	368.5	0
12662	2011-07-09T13:00:00	43	34.58	13.88	1750.09	ND	ND	0.9	67.7	27.6	61	432.7	0
12663	2011-07-09T14:00:00	40	27.51	16.91	1710.29	ND	ND	0.7	108.8	28.1	58.2	355.3	0
12664	2011-07-09T15:00:00	41	24.75	18.73	1724.71	ND	ND	0.8	156.3	28.2	57.3	152	0
12665	2011-07-09T16:00:00	51	18.99	20.48	1736.86	ND	ND	0.2	281.1	28.9	53.3	264.1	0
12666	2011-07-09T17:00:00	27	14.73	21.54	1752.51	ND	ND	2.1	273.6	29	52.1	145	0
12667	2011-07-09T18:00:00	20	12.88	16.99	1578.94	ND	ND	3.4	267	27.2	55.4	19.9	0
12668	2011-07-09T19:00:00	11	13.22	0.13	1269.47	ND	ND	2.8	273.1	26.4	57.5	2.6	0
12669	2011-07-09T20:00:00	11	10.03	ND	1162.50	ND	ND	3.5	272.2	26	57.7	0	0
12670	2011-07-09T21:00:00	8	9.25	ND	1321.87	ND	ND	2.6	277.3	25.5	60.8	0	0
12671	2011-07-09T22:00:00	5	7.90	ND	1055.73	ND	ND	1.9	287.5	25	63	0	0
12672	2011-07-09T23:00:00	5	7.39	ND	1053.96	ND	ND	1.8	277	24.8	63.3	0	0
12673	2011-07-10T00:00:00	2	6.81	ND	1018.91	ND	ND	0.7	299.2	24.1	68.3	0	0
12674	2011-07-10T01:00:00	2	5.96	ND	947.98	ND	ND	0.3	58.3	23.4	74.9	0	0
12675	2011-07-10T02:00:00	32	7.92	0.39	1310.37	ND	ND	1.2	207.8	23.5	73.2	0	0
12676	2011-07-10T03:00:00	24	12.02	0.54	1800.95	ND	ND	0.8	176.2	23	75.5	0	0
12677	2011-07-10T04:00:00	56	10.78	1.46	1467.92	ND	ND	1.1	159.9	21.8	83.1	0	0
12678	2011-07-10T05:00:00	66	9.02	9.33	1586.63	ND	ND	0.6	57.3	21.5	85.3	0	0
12679	2011-07-10T06:00:00	64	7.48	ND	1358.58	ND	ND	1.2	15.8	21.6	84	0	0
12680	2011-07-10T07:00:00	40	6.94	ND	1574.23	ND	ND	0.7	349.2	21.5	83.4	9.7	0
12681	2011-07-10T08:00:00	61	8.44	ND	1279.33	ND	ND	0.6	125	22	81.2	87.1	0
12682	2011-07-10T09:00:00	67	12.17	0.02	1485.64	ND	ND	0.4	65.4	23.1	76.5	172.9	0
12683	2011-07-10T10:00:00	60	33.95	5.09	1707.45	ND	ND	0.8	68.1	24.3	71.3	314.7	0
12684	2011-07-10T11:00:00	47	30.77	20.61	1885.81	ND	ND	0.7	55.3	26.1	63.9	509.7	0
12685	2011-07-10T12:00:00	53	39.53	24.75	1655.76	ND	ND	0.8	42.7	27.4	57.8	454.3	0
12686	2011-07-10T13:00:00	36	37.06	17.30	1501.28	ND	ND	1.3	55	28.1	56	383.7	0
12687	2011-07-10T14:00:00	24	26.24	0.72	1215.40	ND	ND	0.8	14.7	28	56.4	331.5	0
12688	2011-07-10T15:00:00	14	19.00	0.48	1122.43	ND	ND	1.8	281.4	29.3	49.6	552.8	0
12689	2011-07-10T16:00:00	9	18.45	ND	987.82	ND	ND	1.5	325.9	29.6	50.5	375	0
12690	2011-07-10T17:00:00	6	13.41	ND	791.04	ND	ND	3.4	279.9	29.1	48.2	283.5	0
12691	2011-07-10T18:00:00	3	20.29	ND	917.48	ND	ND	2.6	276.9	27.9	52.7	116.8	0
12692	2011-07-10T19:00:00	3	10.00	ND	786.59	ND	ND	3	271.4	26.2	57.6	2.2	0
12693	2011-07-10T20:00:00	10	8.34	ND	816.66	ND	ND	3.4	264	25.5	60.5	0	0
12694	2011-07-10T21:00:00	6	8.53	ND	952.45	ND	ND	2.6	270.3	25.1	62	0	0
12695	2011-07-10T22:00:00	15	7.84	ND	962.63	ND	ND	0.6	1.8	24.4	67	0	0
12696	2011-07-10T23:00:00	29	7.22	ND	994.67	ND	ND	0.8	60.7	23.1	75	0	0
12697	2011-07-11T00:00:00	30	9.06	1.29	1787.14	ND	ND	0.5	147.6	23	74.3	0	0
12698	2011-07-11T01:00:00	24	11.71	1.09	1797.91	ND	ND	0.9	144.9	23	75.9	0	0
12699	2011-07-11T02:00:00	25	15.64	0.60	1627.22	ND	ND	1	165.1	22.7	77.9	0	0
12700	2011-07-11T03:00:00	17	11.75	0.04	1489.16	ND	ND	0.8	141.7	22.4	79.7	0	0
12701	2011-07-11T04:00:00	21	8.52	ND	1090.19	ND	ND	0.8	185.2	22.5	78.7	0	0
12702	2011-07-11T05:00:00	18	8.18	ND	999.68	ND	ND	0.8	216.2	22.5	79.6	0	0
12703	2011-07-11T06:00:00	13	8.78	ND	908.80	ND	ND	0.1	199.5	22.6	78.6	0	0
12704	2011-07-11T07:00:00	11	8.92	ND	965.92	ND	ND	0.4	266.6	22.6	75.7	27.5	0
12705	2011-07-11T08:00:00	74	9.15	0.06	1204.56	ND	ND	1	75.2	22.6	79.3	127.2	0
12706	2011-07-11T09:00:00	75	10.24	0.41	1477.30	ND	ND	0.8	169.1	24.1	72.2	309	0
12707	2011-07-11T10:00:00	64	17.06	18.59	2946.74	ND	ND	0.7	154.1	26.1	63.7	436.1	0
12708	2011-07-11T11:00:00	44	20.12	19.04	1966.22	ND	ND	0.7	142	27.3	58.3	546.9	0
12709	2011-07-11T12:00:00	51	19.83	20.38	1685.50	ND	ND	0.7	158	28.6	52.1	585.2	0
12710	2011-07-11T13:00:00	48	22.20	8.01	1553.66	ND	ND	1	92.5	29.7	49.2	709.8	0
12711	2011-07-11T14:00:00	62	17.41	4.30	1314.95	ND	ND	1.7	60.9	30.9	45.7	664.5	0
12712	2011-07-11T15:00:00	55	15.82	20.17	1647.29	ND	ND	1.3	52	30	49	183.7	0
12713	2011-07-11T16:00:00	60	14.20	12.12	1421.09	ND	ND	3.3	284.1	28.3	50.4	238.9	0
12714	2011-07-11T17:00:00	45	18.62	22.32	1714.27	ND	ND	4.2	276.4	28	50.5	220.9	0
12715	2011-07-11T18:00:00	46	13.79	ND	1388.57	ND	ND	3.3	286.5	26.9	53.1	50.6	0
12716	2011-07-11T19:00:00	24	9.65	0.02	1302.79	ND	ND	2.2	281.4	26.1	53.9	2.1	0
12717	2011-07-11T20:00:00	19	9.73	ND	1391.30	ND	ND	3.5	271.5	25.5	55.3	0	0
12718	2011-07-11T21:00:00	13	9.34	0.91	1537.69	ND	ND	2.7	289.6	25.4	55.4	0	0
12719	2011-07-11T22:00:00	17	8.00	1.74	1296.27	ND	ND	2.6	249.7	24.6	61.2	0	0
12720	2011-07-11T23:00:00	10	6.99	0.36	961.02	ND	ND	0.8	236.2	24.1	64.1	0	0
12721	2011-07-12T00:00:00	45	8.07	ND	1062.20	ND	ND	0.6	28.4	23.5	68.8	0	0
12722	2011-07-12T01:00:00	32	7.77	0.07	1196.83	ND	ND	0.8	100.1	22.6	74.6	0	0
12723	2011-07-12T02:00:00	31	12.09	0.67	1579.57	ND	ND	0.8	102.6	22.4	76.6	0	0
12724	2011-07-12T03:00:00	17	9.53	0.06	1146.97	ND	ND	0.8	141.1	22.1	76.4	0	0
12725	2011-07-12T04:00:00	32	8.15	ND	952.95	ND	ND	0.4	138.1	22.2	76.1	0	0
12726	2011-07-12T05:00:00	17	7.73	ND	873.83	ND	ND	0.4	132.8	22.3	76.1	0	0
12727	2011-07-12T06:00:00	20	9.14	ND	919.53	ND	ND	0.8	135	22.1	77.7	0	0
12728	2011-07-12T07:00:00	37	10.33	ND	1032.36	ND	ND	1	158.4	22	78.6	16.2	0
12729	2011-07-12T08:00:00	43	11.83	0.26	1372.23	ND	ND	0.9	138.2	22.5	76.9	103.9	0
12730	2011-07-12T09:00:00	69	13.64	1.57	1976.63	ND	ND	1.4	143	22.9	75.4	170.2	0
12731	2011-07-12T10:00:00	57	18.00	8.49	2457.07	ND	ND	1.2	123.8	24.9	67.7	612	0
12732	2011-07-12T11:00:00	30	21.19	7.17	2049.95	ND	ND	0.8	81.2	26.4	60.2	566.4	0
12733	2011-07-12T12:00:00	44	19.38	7.44	1795.54	ND	ND	1	358.5	27.8	54.1	735.2	0
12734	2011-07-12T13:00:00	50	16.82	ND	ND	ND	ND	1.3	17.7	29	49.8	545.7	0
12735	2011-07-12T14:00:00	51	25.39	29.89	592.10	ND	ND	1.6	298.3	28.2	50.8	202.6	0
12736	2011-07-12T15:00:00	26	11.36	34.70	764.22	ND	ND	4.2	275.8	27	52.4	192.5	0
12737	2011-07-12T16:00:00	21	14.75	7.98	495.92	ND	ND	3.2	279.3	26.7	52.2	267	0
12738	2011-07-12T17:00:00	12	9.80	2.31	529.99	ND	ND	3.1	286.8	27	51	255.9	0
12739	2011-07-12T18:00:00	8	9.02	4.10	634.31	ND	ND	2.7	284.7	26.2	53.3	107.1	0
12740	2011-07-12T19:00:00	5	7.92	1.70	494.59	ND	ND	2.7	280.4	25.2	55.7	1.8	0
12741	2011-07-12T20:00:00	18	8.18	5.56	791.00	ND	ND	3.1	286.4	24.5	58.6	0	0
12742	2011-07-12T21:00:00	10	7.46	9.42	709.08	ND	ND	3	245	23.8	61.7	0	0
12743	2011-07-12T22:00:00	7	6.52	3.88	444.99	ND	ND	1.8	232.1	23.4	62.7	0	0
12744	2011-07-12T23:00:00	4	5.76	ND	284.86	ND	ND	0.4	219.3	22.9	65.7	0	0
12745	2011-07-13T00:00:00	16	5.05	ND	227.51	ND	ND	1.2	136.1	21.8	74.5	0	0
12746	2011-07-13T01:00:00	9	5.24	8.48	305.99	ND	ND	1.9	13.3	20.7	84.5	0	5.08
12747	2011-07-13T02:00:00	16	5.53	6.87	451.63	ND	ND	1.5	4.1	19.5	93	0	5.59
12748	2011-07-13T03:00:00	10	4.68	1.66	258.63	ND	ND	1.1	35	19.5	92.2	0	0.25
12749	2011-07-13T04:00:00	6	4.71	ND	157.42	ND	ND	0.3	122.9	19.5	91.6	0	0
12750	2011-07-13T05:00:00	5	6.71	0.18	168.67	ND	ND	0.5	154.8	19.5	92	0	0.51
12751	2011-07-13T06:00:00	3	7.43	0.76	146.18	ND	ND	0.8	162	19.6	91.3	0	0
12752	2011-07-13T07:00:00	3	8.08	0.09	213.72	ND	ND	1.2	182.3	19.6	89.6	4.7	0
12753	2011-07-13T08:00:00	3	8.39	2.03	393.70	ND	ND	0.7	161.8	20.2	86.9	75.8	0
12754	2011-07-13T09:00:00	4	9.00	8.64	732.65	ND	ND	0.8	132.9	21.1	83	202.3	0
12755	2011-07-13T10:00:00	13	11.09	22.01	1639.39	ND	ND	1	131.6	22.3	77.1	308.1	0
12756	2011-07-13T11:00:00	9	12.85	38.19	1850.42	ND	ND	0.7	87.4	22.8	74.3	187.1	0
12757	2011-07-13T12:00:00	13	11.42	25.87	989.32	ND	ND	0.4	127.3	24.5	65.6	542.9	0
12758	2011-07-13T13:00:00	8	10.86	25.55	880.64	ND	ND	0.9	120	25.7	61.1	306.7	0
12759	2011-07-13T14:00:00	16	11.35	11.52	574.15	ND	ND	0.8	88.8	26.1	59.8	448.6	0
12760	2011-07-13T15:00:00	10	11.89	54.35	1161.33	ND	ND	1.5	302.4	26.2	57	222.2	0
12761	2011-07-13T16:00:00	6	11.89	39.64	943.18	ND	ND	1.7	299.9	26.2	53.9	108.1	0
12762	2011-07-13T17:00:00	3	11.84	23.92	724.64	ND	ND	2.8	303.6	26	52.8	241.6	0
12763	2011-07-13T18:00:00	1	9.70	2.57	597.71	ND	ND	3.7	280.3	25.3	54.2	118.3	0
12764	2011-07-13T19:00:00	3	8.47	3.19	527.51	ND	ND	3.9	286.9	24.4	57.6	4	0
12765	2011-07-13T20:00:00	3	8.03	0.53	491.62	ND	ND	3.9	284.2	23.9	59.6	0	0
12766	2011-07-13T21:00:00	2	7.44	0.34	559.28	ND	ND	0.5	37.4	23.2	65.5	0	0
12767	2011-07-13T22:00:00	25	6.85	0.56	341.61	ND	ND	1.4	216	22.5	72.4	0	0
12768	2011-07-13T23:00:00	15	8.57	9.47	817.92	ND	ND	2.5	202.4	21.9	78.6	0	0
12769	2011-07-14T00:00:00	20	8.01	10.96	668.88	ND	ND	2.2	186.9	21.3	81.8	0	0
12770	2011-07-14T01:00:00	12	6.75	8.17	452.55	ND	ND	1.6	174.5	21.2	80.8	0	0
12771	2011-07-14T02:00:00	7	6.29	0.24	248.82	ND	ND	1	142.1	21	83.4	0	0
12772	2011-07-14T03:00:00	5	6.39	ND	214.74	ND	ND	0.6	150.1	20.6	86.9	0	0
12773	2011-07-14T04:00:00	3	6.40	ND	248.31	ND	ND	0.5	153.8	20.7	86.1	0	0
12774	2011-07-14T05:00:00	4	5.78	ND	237.11	ND	ND	0.4	275.7	21	79.8	0	0
12775	2011-07-14T06:00:00	3	5.64	ND	248.65	ND	ND	0.6	87.9	20.7	85.2	0	0
12776	2011-07-14T07:00:00	3	6.64	ND	169.36	ND	ND	0.7	73	20.5	87.2	2.8	0
12777	2011-07-14T08:00:00	51	7.82	13.06	778.53	ND	ND	0.7	108.9	20.7	86.1	67.5	0
12778	2011-07-14T09:00:00	28	9.06	20.85	1298.44	ND	ND	0.7	140.8	21.8	78.7	176.5	0
12779	2011-07-14T10:00:00	38	10.19	22.15	1892.62	ND	ND	0.9	110.2	23.6	69.8	521.2	0
12780	2011-07-14T11:00:00	20	12.18	16.38	1117.42	ND	ND	0.6	102.6	25	63.2	376.3	0
12781	2011-07-14T12:00:00	27	15.62	36.46	985.22	ND	ND	0.9	65.6	26.1	58.6	660.5	0
12782	2011-07-14T13:00:00	31	13.81	33.35	804.89	ND	ND	1.4	64.8	27.3	53.6	465.8	0
12783	2011-07-14T14:00:00	44	14.10	42.80	958.19	ND	ND	1.6	52.1	27.5	53.3	456.9	0
12784	2011-07-14T15:00:00	23	19.76	51.74	1016.59	ND	ND	1.8	305.8	28.3	49.3	452.6	0
12785	2011-07-14T16:00:00	41	27.29	41.91	857.14	ND	ND	3.9	281.2	26.4	54.2	135.9	0
12786	2011-07-14T17:00:00	22	28.72	13.83	540.97	ND	ND	4.4	287.8	24.1	62.9	129.2	1.02
12787	2011-07-14T18:00:00	12	13.06	0.90	582.50	ND	ND	5.1	288.1	24	58.9	117.9	0
12788	2011-07-14T19:00:00	7	11.20	2.59	696.48	ND	ND	3.9	268.2	23.7	58.8	9.4	0
12789	2011-07-14T20:00:00	13	9.52	0.21	433.43	ND	ND	2.3	218.4	20.9	84.2	0	24.64
12790	2011-07-14T21:00:00	8	8.30	2.17	497.13	ND	ND	1.3	246.6	18.3	95.6	0	24.64
12791	2011-07-14T22:00:00	5	7.40	7.29	582.32	ND	ND	1.3	197	18.8	91.3	0	4.57
12792	2011-07-14T23:00:00	4	6.31	8.35	482.36	ND	ND	0.3	233	19.3	88.8	0	1.02
12793	2011-07-15T00:00:00	2	5.65	13.15	573.08	ND	ND	0.4	6.8	19.8	87.1	0	0.25
12794	2011-07-15T01:00:00	2	6.28	16.30	720.39	ND	ND	0.8	247.2	19.9	85.2	0	0
12795	2011-07-15T02:00:00	1	6.34	16.99	619.30	ND	ND	0.8	185.2	19.7	87.5	0	0
12796	2011-07-15T03:00:00	1	5.95	0.98	213.79	ND	ND	0.4	139.2	19.5	88.6	0	0
12797	2011-07-15T04:00:00	ND	5.74	4.40	427.30	ND	ND	0.7	125.4	19.4	90.7	0	0
12798	2011-07-15T05:00:00	2	5.58	0.85	303.50	ND	ND	0.7	150.8	19.2	92.2	0	0
12799	2011-07-15T06:00:00	3	5.27	ND	292.06	ND	ND	0.6	77.8	19.3	91.4	0	0.25
12800	2011-07-15T07:00:00	5	5.55	ND	258.45	ND	ND	0.9	60.2	19.2	92.1	6.2	0
12801	2011-07-15T08:00:00	24	6.42	6.00	640.29	ND	ND	1.1	62.6	18.9	94.2	23.1	27.18
12802	2011-07-15T09:00:00	14	7.67	15.28	1357.81	ND	ND	1.2	28.7	19.2	94.3	88	0.51
12803	2011-07-15T10:00:00	13	9.33	25.02	1988.26	ND	ND	0.3	329.3	20.8	85.1	333.4	0
12804	2011-07-15T11:00:00	6	11.31	26.72	1423.12	ND	ND	0.6	165.2	22.5	75.4	379.4	0
12805	2011-07-15T12:00:00	10	17.85	26.50	976.96	ND	ND	1.3	155.4	23.7	70	496	0
12806	2011-07-15T13:00:00	6	21.73	63.74	1300.30	ND	ND	1.1	163.6	24.8	63.9	435.4	0
12807	2011-07-15T14:00:00	9	16.73	44.46	1156.29	ND	ND	0.8	158.8	25.8	59.5	415.8	0
12808	2011-07-15T15:00:00	17	12.82	40.26	1022.33	ND	ND	0.1	49.1	26.4	56.3	343.2	0
12809	2011-07-15T16:00:00	24	11.27	30.14	874.75	ND	ND	1.5	351.3	27.1	52.4	310.6	0
12810	2011-07-15T17:00:00	14	10.85	48.14	1096.00	ND	ND	2.4	26.5	26.6	56.2	242.1	0
12811	2011-07-15T18:00:00	35	12.59	43.61	1025.06	ND	ND	0.4	154.3	22.8	77.9	34.1	0
12812	2011-07-15T19:00:00	33	18.52	41.28	1046.18	ND	ND	0.3	177.4	22.5	77.4	0.2	0
12813	2011-07-15T20:00:00	33	14.16	47.55	1613.12	ND	ND	1.5	215.9	22.9	71	0	0
12814	2011-07-15T21:00:00	24	14.28	67.25	2058.94	ND	ND	1.9	157.6	21.5	82.5	0	0
12815	2011-07-15T22:00:00	36	11.60	42.44	1437.83	ND	ND	1.3	181	21	82.9	0	0
12816	2011-07-15T23:00:00	20	8.66	47.51	1582.32	ND	ND	1.3	144.5	20.4	86.8	0	0
12817	2011-07-16T00:00:00	16	7.69	24.68	1003.85	ND	ND	0.9	148	19.8	90.9	0	2.79
12818	2011-07-16T01:00:00	10	7.88	18.28	1125.62	ND	ND	0.3	160.7	19.8	92.1	0	0.25
12819	2011-07-16T02:00:00	8	6.75	5.55	731.65	ND	ND	0.5	4.4	20	91	0	0.25
12820	2011-07-16T03:00:00	15	6.18	6.24	608.25	ND	ND	0.3	153.7	19.8	92	0	0
12821	2011-07-16T04:00:00	8	6.38	10.49	652.86	ND	ND	1.3	191.3	19.6	92.2	0	0
12822	2011-07-16T05:00:00	4	6.43	2.74	438.69	ND	ND	1	187.3	19.6	92.3	0	0
12823	2011-07-16T06:00:00	6	6.43	ND	314.96	ND	ND	0.4	95	19.5	90.7	0	0
12824	2011-07-16T07:00:00	11	6.22	1.05	506.01	ND	ND	0.9	50.8	19.4	91.9	11.2	0
12825	2011-07-16T08:00:00	28	8.12	14.19	1214.01	ND	ND	0.6	42.6	20.1	89.2	142.9	0
12826	2011-07-16T09:00:00	32	8.07	13.52	1205.64	ND	ND	1.2	52.5	21.8	79.5	324.3	0
12827	2011-07-16T10:00:00	30	9.77	19.30	1201.30	ND	ND	1.1	5.7	22.4	75.9	296.6	0
12828	2011-07-16T11:00:00	22	24.21	35.16	1476.30	ND	ND	0.8	66.3	24.5	66	719.6	0
12829	2011-07-16T12:00:00	39	24.35	30.46	1017.88	ND	ND	0.5	130.4	25.8	60.2	630.5	0
12830	2011-07-16T13:00:00	38	21.33	46.00	1160.17	ND	ND	1.4	46.7	27.1	56.2	763.9	0
12831	2011-07-16T14:00:00	41	18.02	44.99	1176.75	ND	ND	1.9	45.5	28	54	759.8	0
12832	2011-07-16T15:00:00	22	18.47	45.51	1180.28	ND	ND	1.9	43	29	50.9	669.9	0
12833	2011-07-16T16:00:00	12	18.83	49.42	1172.59	ND	ND	1.8	3.7	29.4	47.8	423.4	0
12834	2011-07-16T17:00:00	7	24.73	36.18	860.27	ND	ND	3.5	282.9	28.2	53.7	352	0
12835	2011-07-16T18:00:00	4	23.84	14.83	602.11	ND	ND	3.3	278.8	26.8	57.2	96.9	0
12836	2011-07-16T19:00:00	4	12.71	0.08	564.74	ND	ND	3.9	271.8	25.3	61.8	1.6	0
12837	2011-07-16T20:00:00	3	9.44	5.62	688.06	ND	ND	2.1	286.3	25.3	60.7	0	0
12838	2011-07-16T21:00:00	3	9.68	5.69	665.12	ND	ND	0.6	283.9	25.3	60.1	0	0
12839	2011-07-16T22:00:00	5	8.42	8.63	665.12	ND	ND	3.2	245.9	24.9	62.1	0	0
12840	2011-07-16T23:00:00	4	9.56	31.01	1397.17	ND	ND	1.6	270.9	24.4	65.2	0	0
12841	2011-07-17T00:00:00	46	7.40	1.45	537.35	ND	ND	0.5	21.6	23.4	74.2	0	0
12842	2011-07-17T01:00:00	25	8.68	12.89	1048.30	ND	ND	1.1	160.1	22.6	78.9	0	0
12843	2011-07-17T02:00:00	22	12.45	28.66	2045.49	ND	ND	0.9	153.4	22	81.3	0	0
12844	2011-07-17T03:00:00	12	9.00	15.51	1032.01	ND	ND	0.7	170.4	22.1	80.2	0	0
12845	2011-07-17T04:00:00	25	7.78	4.76	726.05	ND	ND	0.2	93.6	21.8	82.1	0	0
12846	2011-07-17T05:00:00	14	8.01	6.95	759.31	ND	ND	0.5	358.4	21.7	82.9	0	0
12847	2011-07-17T06:00:00	20	8.45	6.82	804.37	ND	ND	0.5	231	21.7	79.4	0	0
12848	2011-07-17T07:00:00	11	8.86	7.19	793.04	ND	ND	0.3	91.9	21.9	78.7	16.2	0
12849	2011-07-17T08:00:00	20	9.18	2.80	589.52	ND	ND	0.6	119.8	22	79	82.5	0
12850	2011-07-17T09:00:00	16	9.47	8.33	975.30	ND	ND	0.8	109.3	22.9	76.5	181	0
12851	2011-07-17T10:00:00	38	9.76	15.62	1092.03	ND	ND	0.7	52.1	24.2	70	437	0
12852	2011-07-17T11:00:00	31	11.86	32.78	1199.66	ND	ND	0.8	99.7	26.3	61.3	603.7	0
12853	2011-07-17T12:00:00	36	68.03	43.36	885.97	ND	ND	0.5	146.5	27.2	57.4	496	0
12854	2011-07-17T13:00:00	24	66.20	35.88	842.47	ND	ND	1.1	105.2	27.6	57.1	385.4	0
12855	2011-07-17T14:00:00	43	41.15	25.57	843.59	ND	ND	1.2	91.9	27.4	58	223.6	0
12856	2011-07-17T15:00:00	22	25.75	30.09	981.61	ND	ND	2.2	268.4	26.9	56.5	241.8	0
12857	2011-07-17T16:00:00	12	19.72	26.52	979.97	ND	ND	3.5	270	27.1	53.6	416.8	0
12858	2011-07-17T17:00:00	6	14.78	5.14	542.23	ND	ND	3	274.4	27.5	50.8	293	0
12859	2011-07-17T18:00:00	3	10.04	ND	311.91	ND	ND	3.5	272.7	25.9	56.1	40.5	0
12860	2011-07-17T19:00:00	2	9.30	ND	321.74	ND	ND	4.3	271	24.7	61.4	0.4	0
12861	2011-07-17T20:00:00	1	8.38	ND	343.34	ND	ND	3.1	279.8	24.4	61.5	0	0
12862	2011-07-17T21:00:00	2	8.37	ND	377.29	ND	ND	2.1	285.5	24.3	61.9	0	0
12863	2011-07-17T22:00:00	3	7.55	ND	342.87	ND	ND	0.3	105.7	23.2	72	0	0
12864	2011-07-17T23:00:00	3	7.16	1.29	455.48	ND	ND	1.7	192.7	22.7	77	0	0
12865	2011-07-18T00:00:00	18	9.78	18.30	1295.91	ND	ND	1.2	167.5	21.9	80.6	0	0
12866	2011-07-18T01:00:00	14	8.66	15.45	940.96	ND	ND	1	183.2	22.1	81.2	0	0
12867	2011-07-18T02:00:00	17	8.25	7.96	782.78	ND	ND	0.7	134.5	21.7	81.5	0	0
12868	2011-07-18T03:00:00	9	7.83	10.78	668.42	ND	ND	0.5	175.5	21.8	80.9	0	0
12869	2011-07-18T04:00:00	27	7.39	2.72	589.32	ND	ND	0.8	67.5	21	83.4	0	0
12870	2011-07-18T05:00:00	26	7.63	0.71	542.51	ND	ND	0.7	138.3	20.8	83.7	0	0
12871	2011-07-18T06:00:00	33	8.78	0.45	485.67	ND	ND	0.3	163.9	20.8	85.3	0	0
12872	2011-07-18T07:00:00	27	9.38	0.35	474.37	ND	ND	0.5	219.1	21.4	81.9	11.4	0
12873	2011-07-18T08:00:00	45	9.06	3.24	633.79	ND	ND	0.7	174	21.9	78.7	63.3	0
12874	2011-07-18T09:00:00	48	11.23	7.72	1065.67	ND	ND	0.9	152.1	22.5	74.9	102.7	0
12875	2011-07-18T10:00:00	65	14.19	26.09	1726.71	ND	ND	0.8	170	22.7	74.4	165	0
12876	2011-07-18T11:00:00	35	21.74	40.26	1898.40	ND	ND	1	163	23.6	71.4	301.4	0
12877	2011-07-18T12:00:00	66	25.09	32.06	1242.85	ND	ND	0.5	145.2	25	65.7	494.4	0
12878	2011-07-18T13:00:00	38	30.24	47.18	1328.90	ND	ND	0.8	131.1	26.9	57.4	525.1	0
12879	2011-07-18T14:00:00	51	28.45	61.15	1418.08	ND	ND	0.9	94.7	27.5	55.8	338.9	0
12880	2011-07-18T15:00:00	44	27.11	40.51	1236.08	ND	ND	0.6	173.1	27.8	55.6	336.9	0
12881	2011-07-18T16:00:00	44	17.17	50.25	1248.88	ND	ND	0.4	34.6	28.2	53.3	200.8	0
12882	2011-07-18T17:00:00	23	18.80	40.17	1123.17	ND	ND	2	276.1	27.6	52	134.6	0
12883	2011-07-18T18:00:00	36	16.94	52.11	1444.50	ND	ND	2.9	270.5	26.8	54.5	53	0
12884	2011-07-18T19:00:00	20	13.00	18.61	945.07	ND	ND	3.3	272.3	25.6	58.8	2.4	0
12885	2011-07-18T20:00:00	28	11.11	15.98	929.81	ND	ND	3.1	268.6	25.2	60.1	0	0
12886	2011-07-18T21:00:00	15	10.96	6.11	894.17	ND	ND	2.8	263.5	24.9	61.5	0	0
12887	2011-07-18T22:00:00	9	9.38	11.86	778.75	ND	ND	2.1	276.2	24.4	63.4	0	0
12888	2011-07-18T23:00:00	6	8.89	13.95	754.58	ND	ND	1.9	261.6	24	64.8	0	0
12889	2011-07-19T00:00:00	4	8.43	3.68	582.30	ND	ND	1.3	235	23.8	68.3	0	0
12890	2011-07-19T01:00:00	16	7.15	0.92	433.58	ND	ND	0.1	89.1	22.6	81.7	0.3	8.89
12891	2011-07-19T02:00:00	25	7.72	21.17	715.92	ND	ND	2.1	311.3	19.4	98.1	0.2	49.53
12892	2011-07-19T03:00:00	13	7.66	21.53	730.65	ND	ND	0.2	302.4	20.7	90.1	0	0
12893	2011-07-19T04:00:00	7	6.84	2.95	417.76	ND	ND	0.6	10.8	20.5	88.7	0	0
12894	2011-07-19T05:00:00	6	6.81	0.48	394.91	ND	ND	0.6	164.2	20.6	88.5	0	0
12895	2011-07-19T06:00:00	13	7.67	12.28	564.35	ND	ND	0.4	17.9	20.5	87.7	0	0
12896	2011-07-19T07:00:00	8	9.03	16.90	665.70	ND	ND	0.2	317	20.9	85.3	25.8	0
12897	2011-07-19T08:00:00	24	10.08	26.62	813.49	ND	ND	0.4	227.8	21.8	80.7	122.1	0.25
12898	2011-07-19T09:00:00	13	11.33	36.44	1393.97	ND	ND	0.7	195.1	23.3	72.1	326.5	0
12899	2011-07-19T10:00:00	13	17.01	44.10	1811.12	ND	ND	0.9	177.5	24.8	65.9	545.8	0
12900	2011-07-19T11:00:00	17	25.56	61.25	1671.46	ND	ND	1.4	157.4	26.2	61.3	685.8	0
12901	2011-07-19T12:00:00	17	17.97	ND	1276.74	ND	ND	0.8	140.4	27.8	55.7	710.7	0
12902	2011-07-19T13:00:00	29	17.96	ND	1006.04	ND	ND	0.7	143.8	28.8	52.1	653	0
12903	2011-07-19T14:00:00	38	13.64	31.63	986.18	ND	ND	1.6	107.9	29.8	50	792.7	0
12904	2011-07-19T15:00:00	21	13.21	19.73	942.89	ND	ND	0.8	142.8	30.4	47.8	661.1	0
12905	2011-07-19T16:00:00	32	13.31	34.71	1073.06	ND	ND	0.6	85.1	30.4	48.4	308.4	0
12906	2011-07-19T17:00:00	43	13.55	25.50	909.77	ND	ND	1	120	30	48.9	244.3	0
12907	2011-07-19T18:00:00	57	15.13	57.83	1432.74	ND	ND	1.6	273.6	29.1	51.6	92.7	0
12908	2011-07-19T19:00:00	30	13.65	65.95	1416.87	ND	ND	2.3	282.6	27	57.4	2	0
12909	2011-07-19T20:00:00	29	12.48	42.23	1222.49	ND	ND	3.3	268.2	26.3	58.5	0	0
12910	2011-07-19T21:00:00	15	11.79	30.12	1127.59	ND	ND	3.6	264.4	25.8	61	0	0
12911	2011-07-19T22:00:00	9	10.82	26.74	1056.79	ND	ND	1.6	287.3	25.8	60.1	0	0
12912	2011-07-19T23:00:00	12	9.35	3.93	643.26	ND	ND	1.5	230.9	25.2	64.5	0	0
12913	2011-07-20T00:00:00	29	8.52	2.68	607.58	ND	ND	1.1	162.1	24.4	71.3	0	0
12914	2011-07-20T01:00:00	25	8.47	29.17	857.48	ND	ND	1.2	212.2	24.2	72.4	0	0
12915	2011-07-20T02:00:00	44	9.12	44.12	1188.23	ND	ND	1.7	247.8	24.2	69.9	0	0
12916	2011-07-20T03:00:00	23	9.43	30.99	879.75	ND	ND	1	271.9	23.4	75	0	0
12917	2011-07-20T04:00:00	53	9.72	10.04	683.67	ND	ND	0.5	314.5	22.8	80.7	0	0
12918	2011-07-20T05:00:00	45	9.57	7.14	602.69	ND	ND	0.7	19	22.6	81.3	0	0
12919	2011-07-20T06:00:00	51	10.84	15.51	784.10	ND	ND	0.2	17.3	21.9	83.2	0	0
12920	2011-07-20T07:00:00	27	12.01	19.91	986.31	ND	ND	0.7	250.3	21.7	75.7	29	0
12921	2011-07-20T08:00:00	34	12.96	19.24	1155.58	ND	ND	0.2	180.3	23.3	72.2	177.1	0
12922	2011-07-20T09:00:00	34	14.22	1.52	751.79	ND	ND	1.2	73.1	24.5	71.2	363.9	0
12923	2011-07-20T10:00:00	75	19.93	31.80	1212.31	ND	ND	0.6	88.2	25.6	64.9	483.7	0
12924	2011-07-20T11:00:00	40	41.12	75.43	1480.81	ND	ND	0.4	153.6	27.7	50.6	668.4	0
12925	2011-07-20T12:00:00	37	69.01	63.25	1063.51	ND	ND	0.7	107.2	29.3	46.2	771.7	0
12926	2011-07-20T13:00:00	37	38.22	19.35	813.50	ND	ND	1.2	75.1	30.5	42.9	798.1	0
12927	2011-07-20T14:00:00	50	29.70	21.58	898.40	ND	ND	1.4	70.6	30.5	44.9	398.5	0
12928	2011-07-20T15:00:00	33	32.77	32.99	921.73	ND	ND	1.7	336.7	30.5	45.9	323.6	0
12929	2011-07-20T16:00:00	19	32.48	22.58	816.73	ND	ND	3.3	270.3	30	46.4	286.1	0
12930	2011-07-20T17:00:00	11	35.01	5.67	629.01	ND	ND	3.4	272	29.2	48.9	146.2	0
12931	2011-07-20T18:00:00	15	16.77	ND	476.32	ND	ND	4.3	271.2	27.7	53.4	26.7	0
12932	2011-07-20T19:00:00	9	13.64	ND	508.63	ND	ND	4.4	269.9	26.9	55.3	3.1	0
12933	2011-07-20T20:00:00	7	12.37	ND	484.22	ND	ND	3.9	265.1	26.4	56.8	0	0
12934	2011-07-20T21:00:00	5	10.32	ND	483.42	ND	ND	2.1	279.7	26.1	57.7	0	0
12935	2011-07-20T22:00:00	5	9.60	0.51	609.41	ND	ND	0.2	67.2	25.6	61.7	0	0
12936	2011-07-20T23:00:00	3	9.16	0.36	608.39	ND	ND	0.8	234.4	24.9	63.2	0	0
12937	2011-07-21T00:00:00	7	11.26	23.65	1065.06	ND	ND	1.3	239.7	24.6	65.3	0	0
12938	2011-07-21T01:00:00	4	12.43	17.34	972.46	ND	ND	1.4	205.4	24	71.3	0	0
12939	2011-07-21T02:00:00	24	10.13	7.43	639.39	ND	ND	1.2	183.1	22.7	77.3	0	0
12940	2011-07-21T03:00:00	14	9.54	2.26	636.59	ND	ND	0.9	223.5	22.6	75.3	0	0
12941	2011-07-21T04:00:00	14	9.62	2.32	545.46	ND	ND	0.9	255.6	22.3	71.1	0	0
12942	2011-07-21T05:00:00	7	10.10	0.45	488.15	ND	ND	0.6	291.9	21.9	74.3	0	0
12943	2011-07-21T06:00:00	17	10.11	ND	385.45	ND	ND	0.3	256.7	21.7	75.7	0	0
12944	2011-07-21T07:00:00	10	9.33	1.79	521.14	ND	ND	1.2	232.3	21.8	69.5	17.3	0
12945	2011-07-21T08:00:00	29	13.69	10.68	770.65	ND	ND	0.6	252.3	22.8	69.7	166.7	0
12946	2011-07-21T09:00:00	41	14.30	9.91	943.83	ND	ND	0.9	120.3	24.7	64.1	290.7	0
12947	2011-07-21T10:00:00	56	18.09	53.38	1968.46	ND	ND	0.9	148.4	25.2	61.2	331.6	0
12948	2011-07-21T11:00:00	30	22.55	94.01	1994.69	ND	ND	0.6	147.9	27.2	55.8	650.6	0
12949	2011-07-21T12:00:00	38	19.40	52.08	1304.09	ND	ND	1	146.6	28.8	51.5	766.3	0
12950	2011-07-21T13:00:00	24	20.33	61.63	1334.25	ND	ND	0.9	154.9	30.1	46.6	762.3	0
12951	2011-07-21T14:00:00	32	18.31	35.86	1025.39	ND	ND	1	158.6	31.4	40.2	702.2	0
12952	2011-07-21T15:00:00	38	16.46	32.98	1146.81	ND	ND	1	98	32.3	38.3	520.5	0
12953	2011-07-21T16:00:00	50	14.76	29.00	1044.57	ND	ND	0.3	322.7	31.6	40.4	296.7	0
12954	2011-07-21T17:00:00	43	16.58	56.50	1229.53	ND	ND	3	287.8	30.9	45.9	273.7	0
12955	2011-07-21T18:00:00	46	16.38	58.16	1285.12	ND	ND	4	269.5	27.9	53.3	45.1	0
12956	2011-07-21T19:00:00	30	13.23	31.82	1087.35	ND	ND	3.3	285.2	27.1	54.9	1.8	0
12957	2011-07-21T20:00:00	27	11.58	25.15	1015.24	ND	ND	3.1	280.6	26.4	57.4	0	0
12958	2011-07-21T21:00:00	15	10.79	30.62	1024.38	ND	ND	3.1	267.5	25.8	60	0	0
12959	2011-07-21T22:00:00	19	10.77	28.65	930.43	ND	ND	1.4	231.1	25.5	61.5	0	0
12960	2011-07-21T23:00:00	11	9.66	6.02	654.09	ND	ND	1.4	259.5	25.2	62.6	0	0
12961	2011-07-22T00:00:00	27	10.02	20.02	1008.81	ND	ND	0.5	348.1	24.3	70.2	0	0
12962	2011-07-22T01:00:00	31	9.15	4.47	605.75	ND	ND	0.8	193.8	24.1	69.9	0	0
12963	2011-07-22T02:00:00	39	12.77	49.69	1541.90	ND	ND	0.2	134.8	23.4	74.3	0	0
12964	2011-07-22T03:00:00	63	12.04	31.25	1014.12	ND	ND	1	5.3	22.2	80.4	0	0
12965	2011-07-22T04:00:00	90	10.69	21.77	828.44	ND	ND	0.5	271.4	22	79.6	0	0
12966	2011-07-22T05:00:00	47	11.85	17.90	975.30	ND	ND	0.6	210.8	21.8	76.4	0	0
12967	2011-07-22T06:00:00	76	11.90	13.27	951.98	ND	ND	0.3	187.5	21.4	82.4	0	0
12968	2011-07-22T07:00:00	47	12.19	4.37	701.70	ND	ND	0.6	236.3	21.5	77.6	30.3	0
12969	2011-07-22T08:00:00	56	10.88	12.94	1279.33	ND	ND	0.6	230.5	22.9	69	177.6	0
12970	2011-07-22T09:00:00	83	12.93	21.97	1478.79	ND	ND	0.9	101.2	24.8	65.2	335	0
12971	2011-07-22T10:00:00	103	15.92	50.72	1785.95	ND	ND	1.4	83	25.8	63.3	508.8	0
12972	2011-07-22T11:00:00	81	17.13	128.02	2308.85	ND	ND	1.1	79.4	27.4	57.1	661.4	0
12973	2011-07-22T12:00:00	78	25.25	103.51	1801.54	ND	ND	1.3	104	28.7	52.9	698.8	0
12974	2011-07-22T13:00:00	50	27.11	74.10	1391.80	ND	ND	1.2	75.8	29.8	50.1	533.1	0
12975	2011-07-22T14:00:00	72	29.05	55.12	1257.18	ND	ND	1	38.5	30.2	49.7	380.2	0
12976	2011-07-22T15:00:00	60	29.38	57.11	1293.81	ND	ND	1.4	266.4	30.1	48.1	417.4	0
12977	2011-07-22T16:00:00	50	32.99	51.49	1141.91	ND	ND	3.4	278.6	30.1	46.7	247.2	0
12978	2011-07-22T17:00:00	28	ND	ND	ND	ND	ND	3.8	279	28.8	49.9	166.2	0
12979	2011-07-22T18:00:00	33	ND	ND	ND	ND	ND	2.8	283	27.5	53.1	16.1	0
12980	2011-07-22T19:00:00	25	13.82	4.88	958.83	ND	ND	3.4	269.2	26.8	55.8	0.9	0
12981	2011-07-22T20:00:00	28	9.17	13.72	1083.38	ND	ND	3.8	270	26.4	58.2	0	0
12982	2011-07-22T21:00:00	15	8.16	11.47	1047.40	ND	ND	2.1	276.1	26.2	58.6	0	0
12983	2011-07-22T22:00:00	8	7.79	4.99	839.66	ND	ND	2.4	279.8	26	59.3	0	0
12984	2011-07-22T23:00:00	5	6.57	2.99	816.11	ND	ND	2.9	261.5	25.7	60.4	0	0
12985	2011-07-23T00:00:00	4	5.52	1.91	631.56	ND	ND	1.4	302.6	25.2	64	0	0
12986	2011-07-23T01:00:00	18	5.06	ND	596.12	ND	ND	0.4	227.4	24.5	68.6	0	0
12987	2011-07-23T02:00:00	16	4.55	2.03	640.46	ND	ND	1.4	204.4	24.5	68.2	0	0
12988	2011-07-23T03:00:00	13	6.07	4.79	937.82	ND	ND	1.2	167.8	23.6	74.6	0	0
12989	2011-07-23T04:00:00	27	5.55	ND	581.51	ND	ND	0.5	170.6	22.9	79.9	0	0
12990	2011-07-23T05:00:00	15	4.92	ND	659.77	ND	ND	0.6	192.3	22.9	78.5	0	0
12991	2011-07-23T06:00:00	18	4.89	0.09	773.52	ND	ND	0.3	234.7	22.9	77.5	0	0
12992	2011-07-23T07:00:00	16	5.10	0.07	716.65	ND	ND	0.2	255.6	22.6	77.6	11.5	0
12993	2011-07-23T08:00:00	61	6.08	ND	727.28	ND	ND	0.5	85.4	23	80	107	0
12994	2011-07-23T09:00:00	77	6.64	3.65	1172.06	ND	ND	0.7	102.8	24.8	71.5	326.5	0
12995	2011-07-23T10:00:00	71	9.56	36.66	2564.44	ND	ND	1	87.7	26.5	62.4	500.1	0
12996	2011-07-23T11:00:00	54	13.72	72.40	2337.29	ND	ND	1.4	121.3	27.4	58.7	494.5	0
12997	2011-07-23T12:00:00	65	15.29	42.72	1582.12	ND	ND	1	103.2	28.9	53.5	708.5	0
12998	2011-07-23T13:00:00	41	16.06	33.79	1450.75	ND	ND	1.1	59.5	29.9	50.3	780.9	0
12999	2011-07-23T14:00:00	52	14.46	23.82	1350.76	ND	ND	1	21	31.6	44	673.8	0
13000	2011-07-23T15:00:00	32	15.13	15.32	1276.37	ND	ND	1.1	89	31.5	43.4	513.8	0
13001	2011-07-23T16:00:00	57	13.65	12.09	1217.42	ND	ND	1.6	11.9	31.8	43.1	459.9	0
13002	2011-07-23T17:00:00	32	12.11	32.52	1511.56	ND	ND	2.5	290.5	30.8	47.1	199.8	0
13003	2011-07-23T18:00:00	55	14.10	11.02	1097.83	ND	ND	3.3	276.1	28.9	51	92.3	0
13004	2011-07-23T19:00:00	29	24.21	7.16	986.51	ND	ND	2.5	284.5	27.9	52.9	1.4	0
13005	2011-07-23T20:00:00	38	9.34	3.29	994.81	ND	ND	3.5	279.2	27	56	0	0
13006	2011-07-23T21:00:00	21	7.10	14.77	1164.83	ND	ND	3	270.4	26.7	57	0	0
13007	2011-07-23T22:00:00	11	6.72	4.62	933.24	ND	ND	2.3	261.3	26.4	59.2	0	0
13008	2011-07-23T23:00:00	7	5.58	ND	828.71	ND	ND	1.6	262.9	26.1	60	0	0
13009	2011-07-24T00:00:00	21	4.94	ND	816.38	ND	ND	0.4	4.8	25.3	66	0	0
13010	2011-07-24T01:00:00	22	4.17	1.23	871.54	ND	ND	1	183.3	24.7	67.6	0	0
13011	2011-07-24T02:00:00	36	6.33	13.19	1339.01	ND	ND	0.7	207.4	24.8	66.3	0	0
13012	2011-07-24T03:00:00	20	6.70	8.23	1110.49	ND	ND	0.5	50.6	23.8	73.2	0	0
13013	2011-07-24T04:00:00	20	6.16	15.01	1061.12	ND	ND	1.8	235.9	22.8	71.4	0	0
13014	2011-07-24T05:00:00	12	5.96	2.73	1012.06	ND	ND	1.4	255.9	23.2	70.2	0	0
13015	2011-07-24T06:00:00	17	5.65	ND	603.50	ND	ND	0.3	35.5	22.7	75	0	0
13016	2011-07-24T07:00:00	11	4.91	ND	636.59	ND	ND	1	200	21.7	79.9	20.1	0
13017	2011-07-24T08:00:00	15	6.50	5.48	1042.29	ND	ND	1.5	254.6	22.8	70.2	89.1	0
13018	2011-07-24T09:00:00	9	5.36	0.30	818.75	ND	ND	0.4	272.3	24.8	63.4	315.4	0
13019	2011-07-24T10:00:00	14	10.11	0.04	824.28	ND	ND	0.9	121.4	27	55.7	531.3	0
13020	2011-07-24T11:00:00	32	32.52	0.80	830.37	ND	ND	1.2	122.9	28.1	53.8	624.7	0
13021	2011-07-24T12:00:00	34	26.42	7.42	960.75	ND	ND	1	139.4	28.9	50.3	682.4	0
13022	2011-07-24T13:00:00	20	16.99	14.79	1195.42	ND	ND	1	136.8	30.2	47.2	675.3	0
13023	2011-07-24T14:00:00	22	14.21	4.54	1049.04	ND	ND	1.5	142.8	31.2	42.5	788.1	0
13024	2011-07-24T15:00:00	11	12.20	0.48	947.25	ND	ND	1.5	172.7	31.9	38.3	604	0
13025	2011-07-24T16:00:00	10	9.12	0.21	937.71	ND	ND	1.9	153	31.8	41.5	490.7	0
13026	2011-07-24T17:00:00	18	6.19	ND	773.35	ND	ND	1.5	153.5	31.3	40.5	239.4	0
13027	2011-07-24T18:00:00	11	7.17	0.06	830.58	ND	ND	1	300.5	31.1	42.6	139.7	0
13028	2011-07-24T19:00:00	7	6.50	0.52	771.58	ND	ND	0.9	337.4	29.1	49.4	1.3	0
13029	2011-07-24T20:00:00	17	6.08	1.26	812.96	ND	ND	3.1	271.8	27.5	56.3	0	0
13030	2011-07-24T21:00:00	10	7.32	14.68	1062.80	ND	ND	3.2	264	27.1	57.6	0	0
13031	2011-07-24T22:00:00	7	7.05	0.08	784.50	ND	ND	0.6	300.5	26.8	60	0	0
13032	2011-07-24T23:00:00	13	5.64	ND	783.72	ND	ND	1.5	228.7	26.1	62.4	0	0
13033	2011-07-25T00:00:00	15	5.13	8.15	919.87	ND	ND	1.3	277.8	25.7	60.8	0	0
13034	2011-07-25T01:00:00	19	5.94	8.97	976.05	ND	ND	0.7	10.8	25.2	63.6	0	0
13035	2011-07-25T02:00:00	28	4.88	ND	641.97	ND	ND	0.4	23.4	24.2	67.1	0	0
13036	2011-07-25T03:00:00	15	5.20	7.01	971.15	ND	ND	0.1	257.2	24.1	65.5	0	0
13037	2011-07-25T04:00:00	9	6.27	6.31	856.61	ND	ND	1.1	236.4	23.5	64.7	0	0
13038	2011-07-25T05:00:00	5	7.38	1.33	797.89	ND	ND	1.1	254.1	23.3	68.1	0	0
13039	2011-07-25T06:00:00	11	6.70	ND	535.36	ND	ND	0.1	155.9	23.1	68.5	0	0
13040	2011-07-25T07:00:00	12	6.35	ND	614.68	ND	ND	0.3	134.9	21.8	74.5	19.9	0
13041	2011-07-25T08:00:00	45	7.62	6.22	940.64	ND	ND	0.5	287.4	23.9	62.8	169.9	0
13042	2011-07-25T09:00:00	56	8.38	10.92	1597.93	ND	ND	1.6	51.4	26.1	55	407.7	0
13043	2011-07-25T10:00:00	60	11.31	21.76	1851.24	ND	ND	1.4	85.3	27.1	53.1	550.6	0
13044	2011-07-25T11:00:00	42	20.32	70.29	2180.46	ND	ND	1.1	147.1	28.6	49.5	686.2	0
13045	2011-07-25T12:00:00	52	18.51	28.75	1275.39	ND	ND	1.3	128.3	30.2	44.1	781.8	0
13046	2011-07-25T13:00:00	30	20.53	28.21	1398.72	ND	ND	1.3	159.3	31.4	40.4	805.6	0
13047	2011-07-25T14:00:00	28	17.29	23.57	1217.02	ND	ND	1.9	174.3	32.1	37.4	785.7	0
13048	2011-07-25T15:00:00	18	12.93	10.32	1149.44	ND	ND	1.4	191.8	32.6	33.9	669.6	0
13049	2011-07-25T16:00:00	33	10.69	12.32	1045.59	ND	ND	0.9	335.8	32	37	149.5	0
13050	2011-07-25T17:00:00	26	9.20	6.73	1078.72	ND	ND	3.8	283.7	30.1	47.2	237.4	0
13051	2011-07-25T18:00:00	38	10.66	18.83	1176.87	ND	ND	4.3	275.8	28.3	51.5	78.7	0
13052	2011-07-25T19:00:00	22	7.39	7.50	1181.46	ND	ND	3.8	277.5	27.1	54.4	1.9	0
13053	2011-07-25T20:00:00	17	6.49	9.48	1084.46	ND	ND	3.5	280.3	26.8	54.8	0	0
13054	2011-07-25T21:00:00	22	5.90	8.11	1060.32	ND	ND	2.9	283	26.2	57.1	0	0
13055	2011-07-25T22:00:00	14	5.68	7.39	908.67	ND	ND	3.3	266	25.7	59.8	0	0
13056	2011-07-25T23:00:00	8	4.73	0.06	677.50	ND	ND	2	258.6	25.3	60.6	0	0
13057	2011-07-26T00:00:00	5	3.91	ND	642.19	ND	ND	2.6	253.2	24.5	66.3	0	2.79
13058	2011-07-26T01:00:00	3	3.85	ND	560.41	ND	ND	1.8	231.7	23.3	74.4	0	1.52
13059	2011-07-26T02:00:00	8	3.36	ND	523.97	ND	ND	0.3	242	23.3	75.3	0	0
13060	2011-07-26T03:00:00	6	3.18	ND	535.36	ND	ND	0.6	218	22.8	80.1	0	0
13061	2011-07-26T04:00:00	21	3.23	0.09	705.03	ND	ND	0.8	210.6	22.7	77.1	0	0
13062	2011-07-26T05:00:00	14	4.58	1.61	932.15	ND	ND	0.4	208.3	22.4	79.5	0	0
13063	2011-07-26T06:00:00	27	4.57	ND	635.94	ND	ND	0.3	149	22.4	79.6	0	0
13064	2011-07-26T07:00:00	23	3.79	0.21	738.15	ND	ND	0.2	165.2	22.3	80.2	42.3	0
13065	2011-07-26T08:00:00	27	5.06	4.22	1101.17	ND	ND	0.5	237.2	22.9	76.6	124.6	0
13066	2011-07-26T09:00:00	38	6.27	7.97	1603.92	ND	ND	0.6	162.6	24.1	71.8	249.1	0
13067	2011-07-26T10:00:00	83	10.11	26.66	2170.08	ND	ND	1.1	175.5	25.1	69.6	262.2	0
13068	2011-07-26T11:00:00	79	13.50	86.87	2578.48	ND	ND	1.3	146	26	64.8	351.2	0
13069	2011-07-26T12:00:00	92	17.61	125.90	2758.68	ND	ND	1.1	110.1	26.7	62.1	396	0
13070	2011-07-26T13:00:00	61	18.26	68.82	2004.73	ND	ND	0.8	151.3	28.1	55.6	647.6	0
13071	2011-07-26T14:00:00	58	18.37	68.97	1944.64	ND	ND	2	174.3	29	52.2	508.9	0
13072	2011-07-26T15:00:00	51	16.54	24.22	1451.23	ND	ND	1.1	140.5	28.6	51.8	346.2	0
13073	2011-07-26T16:00:00	62	14.56	21.27	1344.96	ND	ND	0.9	105.5	29.5	50	346.5	0
13074	2011-07-26T17:00:00	36	13.30	30.13	1383.86	ND	ND	0.5	214.1	29.4	50.1	174.7	0
13075	2011-07-26T18:00:00	53	15.18	38.59	1511.28	ND	ND	2.4	280.7	28	52	93.8	0
13076	2011-07-26T19:00:00	27	13.05	27.00	1458.00	ND	ND	3	266.9	27.1	54.8	2.8	0
13077	2011-07-26T20:00:00	17	9.63	17.11	1245.97	ND	ND	3.4	262.5	26.2	57.1	0	0
13078	2011-07-26T21:00:00	9	7.84	18.82	1345.76	ND	ND	2.3	267.3	25.7	59.3	0	0
13079	2011-07-26T22:00:00	13	6.22	3.49	1010.50	ND	ND	1.3	267.4	25.2	62	0	0
13080	2011-07-26T23:00:00	7	5.82	10.06	1066.13	ND	ND	2.9	266.5	24.9	62.3	0	0
13081	2011-07-27T00:00:00	3	5.71	6.72	1087.96	ND	ND	0.6	356.7	24.2	68.1	0	0
13082	2011-07-27T01:00:00	3	4.81	ND	651.24	ND	ND	0.2	245.9	24.2	67.4	0	0
13083	2011-07-27T02:00:00	2	5.44	7.08	1016.85	ND	ND	0.7	212.7	24	69.7	0	0
13084	2011-07-27T03:00:00	3	8.83	4.05	844.90	ND	ND	0.8	130.5	23	76.1	0	0
13085	2011-07-27T04:00:00	23	6.06	1.33	728.27	ND	ND	1	157.5	22.6	77.7	0	0
13086	2011-07-27T05:00:00	19	5.46	0.45	852.29	ND	ND	0.4	139.5	22.5	78.5	0	0
13087	2011-07-27T06:00:00	34	5.92	ND	795.20	ND	ND	0.7	189.6	22.7	77.9	0	0
13088	2011-07-27T07:00:00	18	5.49	0.22	818.47	ND	ND	0.6	205.4	22.8	77.7	15	0
13089	2011-07-27T08:00:00	46	5.28	1.85	932.46	ND	ND	0.9	128.4	23.2	74.5	80.3	0
13090	2011-07-27T09:00:00	37	6.54	10.80	1332.26	ND	ND	0.9	115.4	24.2	71.1	280.4	0
13091	2011-07-27T10:00:00	58	11.55	32.29	2616.40	ND	ND	0.7	155.2	26.2	61.1	444.8	0
13092	2011-07-27T11:00:00	47	13.42	36.74	2081.90	ND	ND	0.5	149.8	27.8	55.1	483.7	0
13093	2011-07-27T12:00:00	44	13.62	23.86	1387.65	ND	ND	1.3	135.3	29	50.3	525.5	0
13094	2011-07-27T13:00:00	44	14.53	30.77	1544.11	ND	ND	1.4	146.3	29.4	48.1	614.5	0
13095	2011-07-27T14:00:00	39	13.69	41.53	1604.28	ND	ND	1	128.3	30.5	44.7	509.2	0
13096	2011-07-27T15:00:00	32	13.34	35.06	1610.12	ND	ND	1.3	148.9	31	43.2	482.7	0
13097	2011-07-27T16:00:00	51	10.88	26.13	1320.60	ND	ND	2	286.1	29.5	48.4	102.9	0
13098	2011-07-27T17:00:00	39	10.64	36.08	1430.38	ND	ND	4.2	268.4	27.8	52.9	69.6	0
13099	2011-07-27T18:00:00	30	12.03	17.95	1283.57	ND	ND	4	271.8	27.2	52.3	44	0
13100	2011-07-27T19:00:00	21	8.42	10.59	1223.31	ND	ND	3.8	267.8	26.6	53.8	1.3	0
13101	2011-07-27T20:00:00	12	7.64	8.31	1197.83	ND	ND	4.4	275.5	26.2	54.9	0	0
13102	2011-07-27T21:00:00	8	6.29	14.67	1288.25	ND	ND	3.4	278.4	26	57	0	0
13103	2011-07-27T22:00:00	6	5.31	0.36	850.59	ND	ND	1.3	284.2	25.9	57.3	0	0
13104	2011-07-27T23:00:00	4	4.23	ND	712.42	ND	ND	2.6	266.8	25.2	61.1	0	0
13105	2011-07-28T00:00:00	3	4.25	0.25	836.85	ND	ND	1.7	224.2	24.9	62.3	0	0
13106	2011-07-28T01:00:00	3	3.85	0.06	721.49	ND	ND	2	208.5	24.3	66.9	0	0
13107	2011-07-28T02:00:00	8	3.89	ND	605.75	ND	ND	0.7	178.1	23.7	71.9	0	0
13108	2011-07-28T03:00:00	5	3.57	ND	661.55	ND	ND	1	157.9	23.5	72.6	0	0
13109	2011-07-28T04:00:00	29	4.59	0.04	797.89	ND	ND	1.1	143.9	23.1	75.3	0	0
13110	2011-07-28T05:00:00	26	5.57	ND	808.20	ND	ND	1.1	151.8	22.4	77.6	0	0
13111	2011-07-28T06:00:00	29	5.95	0.35	851.71	ND	ND	0.9	118.1	21.9	81.1	0	0
13112	2011-07-28T07:00:00	30	6.61	0.69	850.27	ND	ND	0.5	151.2	21.8	83.2	13.1	0
13113	2011-07-28T08:00:00	39	6.82	9.67	1133.31	ND	ND	0.3	101.2	22.5	81.4	89.6	0
13114	2011-07-28T09:00:00	46	7.07	15.09	1601.76	ND	ND	0.4	106	23.7	74.8	228.7	0
13115	2011-07-28T10:00:00	44	9.08	36.81	2475.12	ND	ND	0.6	112	25.2	65.8	351.1	0
13116	2011-07-28T11:00:00	31	11.43	65.36	2246.90	ND	ND	1.2	64.8	26.1	62.7	405.5	0
13117	2011-07-28T12:00:00	46	12.15	43.72	1632.77	ND	ND	1	69.5	27.1	59.1	445.9	0
13118	2011-07-28T13:00:00	25	18.05	48.52	1545.93	ND	ND	2.2	292.1	26.9	55.3	165.1	0
13119	2011-07-28T14:00:00	14	24.10	50.63	1533.37	ND	ND	3	278.9	27.9	50	597.3	0
13120	2011-07-28T15:00:00	8	18.78	8.75	1087.35	ND	ND	3.7	302.6	28.2	47.8	559.9	0
13121	2011-07-28T16:00:00	15	9.38	4.15	1273.70	ND	ND	4.4	296.2	27.4	48.8	408.5	0
13122	2011-07-28T17:00:00	9	7.32	ND	889.22	ND	ND	4.9	285.8	26.4	52.1	226	0
13123	2011-07-28T18:00:00	15	6.32	ND	897.77	ND	ND	1.7	222.6	24.6	61.8	31.3	0
13124	2011-07-28T19:00:00	14	5.76	ND	880.93	ND	ND	1.6	142.3	23.2	66.9	1.3	0
13125	2011-07-28T20:00:00	29	7.16	25.05	1423.36	ND	ND	1.9	160.9	21.6	75.9	0	0
13126	2011-07-28T21:00:00	16	6.71	15.70	1630.85	ND	ND	0.8	156.8	21.4	75.9	0	0
13127	2011-07-28T22:00:00	15	6.37	19.03	1335.49	ND	ND	0.9	24.1	21.7	74.2	0	0
13128	2011-07-28T23:00:00	15	6.40	20.49	1302.86	ND	ND	0.7	82.5	21.7	76.6	0	0
13129	2011-07-29T00:00:00	25	6.14	29.56	1302.86	ND	ND	0.8	85.7	21.2	80.2	0	0
13130	2011-07-29T01:00:00	14	10.99	33.80	1391.13	ND	ND	0.8	140.3	20.8	83.2	0	0
13131	2011-07-29T02:00:00	8	9.87	15.67	982.63	ND	ND	0.9	146.2	20.1	89.3	0	0.25
13132	2011-07-29T03:00:00	8	7.76	0.48	743.67	ND	ND	1.1	148.3	19.7	92.6	0	2.79
13133	2011-07-29T04:00:00	4	4.94	0.15	708.90	ND	ND	0.3	101.9	19.3	94.7	0	12.19
13134	2011-07-29T05:00:00	4	3.96	ND	640.51	ND	ND	0.4	78.5	18.7	95.9	0	15.24
13135	2011-07-29T06:00:00	4	3.08	ND	650.41	ND	ND	0.3	6.5	18.9	95.1	0	2.03
13136	2011-07-29T07:00:00	3	2.80	0.33	718.18	ND	ND	0.2	37.6	18.9	94.6	2.8	14.22
13137	2011-07-29T08:00:00	7	2.85	6.68	807.95	ND	ND	1.1	74.7	18.8	95.5	16.5	8.13
13138	2011-07-29T09:00:00	5	3.90	20.27	1233.95	ND	ND	0.2	9.1	18.8	94.2	65.1	4.57
13139	2011-07-29T10:00:00	4	5.31	31.17	2187.46	ND	ND	1.5	247.9	19.8	89.2	175	0.51
13140	2011-07-29T11:00:00	2	5.51	33.75	1632.14	ND	ND	1.6	238.1	22.2	75.7	494.2	0
13141	2011-07-29T12:00:00	1	7.79	40.34	1543.39	ND	ND	1.4	178.4	24.3	63.7	590.2	0
13142	2011-07-29T13:00:00	1	9.62	8.31	902.90	ND	ND	0.7	177.9	25.2	59.4	464.4	0
13143	2011-07-29T14:00:00	ND	9.52	14.14	1111.98	ND	ND	2.2	279	23.8	68.5	150.5	0
13144	2011-07-29T15:00:00	2	6.84	15.23	1083.94	ND	ND	1.7	293.6	22	78.4	91.3	0.51
13145	2011-07-29T16:00:00	21	7.03	24.24	1145.42	ND	ND	1.5	3.7	20.4	88.9	75.4	4.57
13146	2011-07-29T17:00:00	12	6.32	35.79	1376.07	ND	ND	1.4	11	21.4	85	137.8	0.25
13147	2011-07-29T18:00:00	25	6.94	78.91	1867.42	ND	ND	0.7	1.1	21.5	83.3	26.8	0
13148	2011-07-29T19:00:00	24	14.60	82.27	1788.80	ND	ND	0.5	93.9	21.3	83.9	0.5	0
13149	2011-07-29T20:00:00	48	15.03	53.68	1504.74	ND	ND	0.5	208.1	21.4	83.5	0	0
13150	2011-07-29T21:00:00	43	12.87	54.09	2535.16	ND	ND	0.6	183.1	21.1	83.6	0	0
13151	2011-07-29T22:00:00	58	11.04	68.92	2702.17	ND	ND	0.7	218.6	21	83.9	0	0
13152	2011-07-29T23:00:00	31	10.24	53.72	2441.30	ND	ND	0.7	257.8	20.7	83.7	0	0
13153	2011-07-30T00:00:00	25	8.81	42.08	2167.83	ND	ND	0.3	283.5	20.9	80.5	0	0
13154	2011-07-30T01:00:00	14	7.78	23.09	1570.49	ND	ND	0.2	353.8	21	82.3	0	0
13155	2011-07-30T02:00:00	26	6.64	7.97	1096.32	ND	ND	0.7	9	20.6	87.5	0	0
13156	2011-07-30T03:00:00	21	6.22	19.09	1388.29	ND	ND	0.2	9.4	20.3	85	0	0
13157	2011-07-30T04:00:00	29	6.78	27.68	1578.55	ND	ND	1	63.6	20.1	89.1	0	0
13158	2011-07-30T05:00:00	21	8.56	22.12	1194.38	ND	ND	1.1	26.1	19.7	90.6	0	0
13159	2011-07-30T06:00:00	16	8.90	15.11	1068.97	ND	ND	0.3	309.3	19.7	88.2	0	0
13160	2011-07-30T07:00:00	9	8.88	13.10	888.93	ND	ND	0.5	246.6	20	86	10.2	0
13161	2011-07-30T08:00:00	24	9.92	11.96	889.84	ND	ND	0.9	65.8	20.3	85.3	61.1	0
13162	2011-07-30T09:00:00	25	11.19	9.99	1150.09	ND	ND	1	67.8	20.4	85.5	154	0
13163	2011-07-30T10:00:00	31	14.24	27.43	1962.59	ND	ND	1.1	83.1	21.2	81	198.8	0
13164	2011-07-30T11:00:00	16	18.47	22.52	1617.33	ND	ND	0.7	88.8	22.8	72.7	383.8	0
13165	2011-07-30T12:00:00	29	21.59	30.23	1682.98	ND	ND	0.8	59.3	23.7	66.3	305.5	0
13166	2011-07-30T13:00:00	19	20.87	36.42	1585.45	ND	ND	1.4	47.1	23.8	64.9	272.7	0
13167	2011-07-30T14:00:00	19	20.30	27.27	1300.73	ND	ND	1.3	24.2	23.8	66.1	320.2	0
13168	2011-07-30T15:00:00	11	19.31	33.47	1437.65	ND	ND	1	77.2	23.8	67.5	261.4	0
13169	2011-07-30T16:00:00	14	28.76	26.11	1152.40	ND	ND	0.6	116.7	24.3	65.1	220.5	0
13170	2011-07-30T17:00:00	38	36.60	40.44	1417.22	ND	ND	0.8	189.6	24.8	62.8	208.3	0
13171	2011-07-30T18:00:00	39	36.69	56.50	1511.19	ND	ND	1.3	157	24.7	65.8	106.8	0
13172	2011-07-30T19:00:00	45	29.55	51.05	1476.35	ND	ND	1.5	185.6	23.4	71	5	0
13173	2011-07-30T20:00:00	47	17.83	68.00	1697.79	ND	ND	0.7	180.2	23.1	72.4	0	0
13174	2011-07-30T21:00:00	53	11.59	71.98	1730.22	ND	ND	0.7	239.7	22.7	75.2	0	0
13175	2011-07-30T22:00:00	51	9.54	59.00	1887.03	ND	ND	0.9	231.5	21.7	77.6	0	0
13176	2011-07-30T23:00:00	27	8.71	77.48	2186.54	ND	ND	0.6	244.8	21.4	80.9	0	0.51
13177	2011-07-31T00:00:00	29	7.12	34.72	1493.93	ND	ND	0.5	260.7	21	82	0	0
13178	2011-07-31T01:00:00	20	6.62	37.35	1729.25	ND	ND	0.1	259.4	20.9	83.4	0	0
13179	2011-07-31T02:00:00	30	5.76	18.95	1423.61	ND	ND	0.5	287.6	20.8	84.9	0	0
13180	2011-07-31T03:00:00	16	5.55	19.68	1479.59	ND	ND	0.5	254.3	20.4	83.2	0	0
13181	2011-07-31T04:00:00	36	5.57	22.62	1466.30	ND	ND	0.4	8.2	20.4	85.8	0	0.25
13182	2011-07-31T05:00:00	39	4.95	7.62	1082.81	ND	ND	0.5	27.6	20.3	89.7	0	0
13183	2011-07-31T06:00:00	39	5.42	15.96	1398.15	ND	ND	0.3	63.8	20	91.5	0	0
13184	2011-07-31T07:00:00	21	5.38	23.11	1565.68	ND	ND	0.9	244.9	20	84.3	12.2	0
13185	2011-07-31T08:00:00	22	5.80	14.02	1137.65	ND	ND	0.6	200.2	20.5	78.9	84.8	0
13186	2011-07-31T09:00:00	27	7.15	4.16	981.63	ND	ND	1.2	122.2	20.9	85.3	118.7	0
13187	2011-07-31T10:00:00	27	7.86	5.78	1039.46	ND	ND	1	120.8	21.8	79.8	233	0
13188	2011-07-31T11:00:00	21	9.59	31.36	1699.96	ND	ND	0.7	31.1	23.4	72.3	291.6	0
13189	2011-07-31T12:00:00	20	11.23	19.28	1242.01	ND	ND	0.8	335.3	24.3	67.4	490.4	0
13190	2011-07-31T13:00:00	11	12.55	9.24	1051.48	ND	ND	0.8	78.4	25.7	59.7	422.4	0
13191	2011-07-31T14:00:00	17	14.00	12.42	999.02	ND	ND	0.9	193.2	26.7	57.1	541	0
13192	2011-07-31T15:00:00	31	13.57	12.71	1036.93	ND	ND	1.3	161.7	26.9	57.5	254.3	0
13193	2011-07-31T16:00:00	31	11.55	10.29	1072.21	ND	ND	0.9	206.5	27.3	56.2	325.9	0
13194	2011-07-31T17:00:00	42	9.93	19.72	1200.63	ND	ND	0.8	303.6	26.2	59.4	57.5	0
13195	2011-07-31T18:00:00	33	9.37	6.05	1081.21	ND	ND	2.2	306.2	25.1	59.7	25	0
13196	2011-07-31T19:00:00	18	8.65	6.88	1054.31	ND	ND	1.8	303.7	24.9	57.1	0	0
13197	2011-07-31T20:00:00	11	6.05	ND	664.23	ND	ND	1.7	270.8	24.4	60.2	0	0
13198	2011-07-31T21:00:00	8	5.20	0.28	731.71	ND	ND	1.1	37.7	23.2	69.6	0	0
13199	2011-07-31T22:00:00	10	4.66	6.78	854.02	ND	ND	0.8	57.8	22	76.4	0	0
13200	2011-07-31T23:00:00	34	5.76	20.90	1224.80	ND	ND	1	239.8	21.8	79.9	0	0
13201	2011-08-01T00:00:00	18	7.39	36.22	1325.97	ND	ND	0.6	238.1	21.9	79.9	0	0
13202	2011-08-01T01:00:00	21	8.43	27.68	1247.06	ND	ND	0.9	17.9	21.6	81.1	0	0
13203	2011-08-01T02:00:00	34	7.36	13.39	1053.26	ND	ND	0.7	68.3	20.7	86.4	0	0
13204	2011-08-01T03:00:00	19	11.39	25.34	1151.66	ND	ND	0.5	67.6	20.4	88.3	0	0
13205	2011-08-01T04:00:00	24	14.65	17.62	891.06	ND	ND	0.4	322.4	20.6	86.7	0	0
13206	2011-08-01T05:00:00	20	9.76	0.56	677.22	ND	ND	1.2	246.7	20.9	81.4	0	0
13207	2011-08-01T06:00:00	38	9.66	6.95	734.40	ND	ND	0.6	6.6	21	80.9	0	0
13208	2011-08-01T07:00:00	57	13.80	4.55	768.56	ND	ND	0.6	59.3	20.3	89	5	0
13209	2011-08-01T08:00:00	69	12.74	12.79	1240.29	ND	ND	1.3	151.1	20.3	89.5	13.1	0
13210	2011-08-01T09:00:00	62	12.69	32.76	2198.70	ND	ND	0.8	159.2	20.8	86.8	97.9	0
13211	2011-08-01T10:00:00	55	14.60	23.56	2733.30	ND	ND	0.4	134	22.5	78.1	328.3	0
13212	2011-08-01T11:00:00	35	12.97	23.42	1828.95	ND	ND	0.6	34.2	24.9	66.1	642.4	0
13213	2011-08-01T12:00:00	68	15.43	36.02	1465.89	ND	ND	1.3	127.3	26.7	57.7	716.1	0
13214	2011-08-01T13:00:00	41	14.47	56.47	1509.31	ND	ND	1	136.4	27.5	53.9	347	0
13215	2011-08-01T14:00:00	48	14.32	62.58	1582.65	ND	ND	0.1	172.2	27	54.7	101.4	0
13216	2011-08-01T15:00:00	25	11.87	62.72	1741.48	ND	ND	0.7	248.5	28	51.4	459.1	0
13217	2011-08-01T16:00:00	31	9.90	48.24	1423.28	ND	ND	1.7	130.1	28.7	49.8	323.7	0
13218	2011-08-01T17:00:00	27	9.60	39.68	1461.39	ND	ND	1	146.4	28.2	52.2	187.9	0
13219	2011-08-01T18:00:00	52	9.48	70.74	1655.81	ND	ND	0.4	47.1	28.1	52.2	77.2	0
13220	2011-08-01T19:00:00	68	12.02	65.67	1701.56	ND	ND	2.1	268	26.4	60.6	1	0
13221	2011-08-01T20:00:00	37	10.85	61.73	1542.33	ND	ND	2.3	268.3	25.4	63.1	0	0
13222	2011-08-01T21:00:00	33	10.60	105.10	2236.93	ND	ND	1.2	290.6	24.9	64.8	0	0
13223	2011-08-01T22:00:00	72	8.22	29.80	1362.82	ND	ND	0.6	11.2	24.1	71.7	0	0
13224	2011-08-01T23:00:00	90	7.21	36.88	1404.84	ND	ND	0.5	44.9	23.6	73.5	0	0
13225	2011-08-02T00:00:00	62	8.79	61.04	1847.17	ND	ND	0.2	249.1	23.4	70	0	0
13226	2011-08-02T01:00:00	32	10.42	56.27	2005.44	ND	ND	0.5	166	22.9	74.2	0	0
13227	2011-08-02T02:00:00	44	8.90	22.11	1092.03	ND	ND	1.4	157.3	21.8	77.6	0	0
13228	2011-08-02T03:00:00	34	8.68	39.57	1552.63	ND	ND	0.3	161.3	21	82.2	0	0
13229	2011-08-02T04:00:00	42	6.13	25.31	1073.72	ND	ND	0.7	237.6	21.2	81	0	0
13230	2011-08-02T05:00:00	23	5.35	5.67	938.73	ND	ND	1	248	21.8	75.9	0	0
13231	2011-08-02T06:00:00	25	5.13	9.99	951.98	ND	ND	0.8	52.9	21	81.4	0	0
13232	2011-08-02T07:00:00	47	6.02	ND	836.37	ND	ND	0.3	81.9	20.7	84.8	24.8	0
13233	2011-08-02T08:00:00	95	6.84	12.27	1219.40	ND	ND	1	123.4	22	79.3	162.6	0
13234	2011-08-02T09:00:00	75	9.86	38.86	2506.30	ND	ND	1.4	187.4	23.2	72.5	360.7	0
13235	2011-08-02T10:00:00	74	17.94	76.12	3438.84	ND	ND	1.9	186.2	25.3	63	518.5	0
13236	2011-08-02T11:00:00	48	15.42	61.50	2018.30	ND	ND	1.4	167.8	27.4	57.1	674.6	0
13237	2011-08-02T12:00:00	45	16.93	28.25	1385.80	ND	ND	1	145.4	28.7	52.1	623.2	0
13238	2011-08-02T13:00:00	40	17.67	40.08	1577.37	ND	ND	1.1	64.8	29.2	50.7	514.2	0
13239	2011-08-02T14:00:00	37	15.41	31.17	1428.96	ND	ND	1.1	28.6	30.3	47.9	590.1	0
13240	2011-08-02T15:00:00	20	14.61	35.41	1445.82	ND	ND	1.9	335.9	31.3	43.1	602.8	0
13241	2011-08-02T16:00:00	24	13.65	27.89	1427.19	ND	ND	3.8	276.8	30.6	44	472.9	0
13242	2011-08-02T17:00:00	14	18.95	23.93	1260.51	ND	ND	3.8	278.3	29.3	47.6	267.9	0
13243	2011-08-02T18:00:00	29	8.61	5.35	1266.73	ND	ND	4.7	269.9	27.6	52.9	96.7	0
13244	2011-08-02T19:00:00	16	7.72	7.35	1375.17	ND	ND	3.8	264.5	26.7	54.7	4.3	0
13245	2011-08-02T20:00:00	22	7.46	3.13	1129.10	ND	ND	1.7	301.6	26.5	54.9	0	0
13246	2011-08-02T21:00:00	21	7.35	10.32	1301.05	ND	ND	0.6	307.6	25.9	58.1	0	0
13247	2011-08-02T22:00:00	12	6.81	17.89	1160.56	ND	ND	1.7	238.9	25.1	62.8	0	0
13248	2011-08-02T23:00:00	8	7.21	22.53	1329.35	ND	ND	1.5	230.8	24.6	64.7	0	0
13249	2011-08-03T00:00:00	5	7.01	6.45	1166.95	ND	ND	0.8	263.9	24.3	65.9	0	0
13250	2011-08-03T01:00:00	4	5.78	5.58	1062.91	ND	ND	0.5	42	23.4	71.8	0	0
13251	2011-08-03T02:00:00	13	5.50	7.04	1048.30	ND	ND	0.4	55.3	22.5	77.3	0	0
13252	2011-08-03T03:00:00	9	6.96	10.23	1351.84	ND	ND	0.5	125.5	22.3	78.6	0	0
13253	2011-08-03T04:00:00	27	6.88	9.16	1203.34	ND	ND	0.4	164.3	22.2	79.4	0	0
13254	2011-08-03T05:00:00	28	5.66	2.05	1044.06	ND	ND	0.4	40.6	22.4	78.4	0	0
13255	2011-08-03T06:00:00	49	5.69	0.26	987.98	ND	ND	0.6	70.4	22.1	80.1	0	0
13256	2011-08-03T07:00:00	44	6.62	6.58	1111.77	ND	ND	0.5	46.4	21.7	82.1	8.7	0
13257	2011-08-03T08:00:00	53	10.36	14.83	1461.47	ND	ND	0.7	213.3	22.5	78.6	73.3	0
13258	2011-08-03T09:00:00	53	13.41	15.43	1726.71	ND	ND	0.9	162.2	23.4	75.8	172.2	0
13259	2011-08-03T10:00:00	82	22.41	34.92	2153.57	ND	ND	1.3	152	24.4	71	340	0
13260	2011-08-03T11:00:00	43	22.65	56.05	2538.13	ND	ND	0.8	144.4	26.3	61.8	647.7	0
13261	2011-08-03T12:00:00	35	23.84	44.42	1771.93	ND	ND	1.2	128.5	28.2	53.9	769.4	0
13262	2011-08-03T13:00:00	26	21.08	44.39	1528.44	ND	ND	1	21	29.5	50	749.2	0
13263	2011-08-03T14:00:00	35	20.32	32.06	1465.26	ND	ND	1.1	328.2	29.6	50.4	296.8	0
13264	2011-08-03T15:00:00	20	17.59	39.53	1547.18	ND	ND	2.4	290.6	29.5	49.6	303.3	0
13265	2011-08-03T16:00:00	15	15.37	33.78	1500.15	ND	ND	3.8	285.3	29	49.1	364.6	0
13266	2011-08-03T17:00:00	18	10.99	17.58	1288.69	ND	ND	3	281.5	28.3	50.9	158.9	0
13267	2011-08-03T18:00:00	23	8.29	5.47	1065.63	ND	ND	3	286.2	27.7	49.3	69.5	0
13268	2011-08-03T19:00:00	14	8.20	15.15	1063.51	ND	ND	2.6	278.7	26.6	53.5	1.1	0
13269	2011-08-03T20:00:00	30	7.40	13.80	1082.65	ND	ND	0.9	359.8	26.1	56.3	0	0
13270	2011-08-03T21:00:00	25	6.89	22.87	1333.81	ND	ND	1	53.6	25.1	62.2	0	0
13271	2011-08-03T22:00:00	32	10.80	42.90	1592.93	ND	ND	0.7	19.4	24.2	68.6	0	0
13272	2011-08-03T23:00:00	16	14.22	47.52	1748.07	ND	ND	1	205.7	24.2	68.7	0	0
13273	2011-08-04T00:00:00	26	13.54	37.85	1451.02	ND	ND	1.4	189.8	22.9	74.3	0	0
13274	2011-08-04T01:00:00	14	11.11	20.85	1069.28	ND	ND	0.8	152.5	21.9	78.5	0	0
13275	2011-08-04T02:00:00	9	7.96	12.04	940.96	ND	ND	0.5	187.2	21.5	79	0	0
13276	2011-08-04T03:00:00	4	6.47	11.02	860.44	ND	ND	0.5	260.4	21.3	76.5	0	0
13277	2011-08-04T04:00:00	2	5.95	2.68	814.60	ND	ND	0.7	242	20.9	77	0	0
13278	2011-08-04T05:00:00	3	5.63	ND	768.30	ND	ND	0.5	39.6	20.5	83.6	0	0
13279	2011-08-04T06:00:00	10	5.01	ND	699.55	ND	ND	0.7	249.5	20.3	82.6	0	0
13280	2011-08-04T07:00:00	18	4.75	3.43	800.55	ND	ND	0.3	153.5	20.5	82.3	31.5	0
13281	2011-08-04T08:00:00	58	5.88	4.92	936.50	ND	ND	0.9	160.6	21.2	83.5	166	0
13282	2011-08-04T09:00:00	34	7.19	18.15	1673.88	ND	ND	1.1	167.3	22.5	77.5	285.4	0
13283	2011-08-04T10:00:00	56	10.32	35.78	2090.23	ND	ND	1.6	155.2	24	71.6	532.9	0
13284	2011-08-04T11:00:00	43	12.53	38.52	1872.49	ND	ND	1	110.1	25.6	64.5	631.4	0
13285	2011-08-04T12:00:00	56	12.55	41.37	1584.12	ND	ND	0.8	126.4	27.2	57.2	723.2	0
13286	2011-08-04T13:00:00	33	10.14	32.01	1407.96	ND	ND	0.9	58.5	28.7	51.6	676.7	0
13287	2011-08-04T14:00:00	58	9.10	21.03	1275.81	ND	ND	1.7	49.8	29.9	49.4	741.3	0
13288	2011-08-04T15:00:00	35	10.01	56.57	1630.22	ND	ND	1.6	46.6	31	46.4	639	0
13289	2011-08-04T16:00:00	51	15.29	61.00	1542.65	ND	ND	2.1	311.9	30.8	46.7	422.1	0
13290	2011-08-04T17:00:00	27	29.36	50.77	1296.37	ND	ND	3.9	283.2	29.9	48.1	342.5	0
13291	2011-08-04T18:00:00	40	21.89	21.31	1245.96	ND	ND	4	277.2	28.3	52.1	87.6	0
13292	2011-08-04T19:00:00	27	8.16	13.81	1285.71	ND	ND	4.9	271.7	27.2	55.1	2.8	0
13293	2011-08-04T20:00:00	15	7.02	16.45	1315.63	ND	ND	4.3	272.1	26.8	56.2	0	0
13294	2011-08-04T21:00:00	9	7.54	12.43	1256.25	ND	ND	2.7	260.4	26.8	56.5	0	0
13295	2011-08-04T22:00:00	15	5.93	1.97	1037.27	ND	ND	1.5	190.8	26.1	60.6	0	0
13296	2011-08-04T23:00:00	8	4.89	7.22	1057.85	ND	ND	2	223.7	25.6	63.5	0	0
13297	2011-08-05T00:00:00	33	4.88	21.23	1320.10	ND	ND	1.8	183.6	24.9	63.3	0	0
13298	2011-08-05T01:00:00	17	5.21	28.32	1259.75	ND	ND	1.3	163.8	24.8	63.6	0	0
13299	2011-08-05T02:00:00	19	5.11	22.44	1087.60	ND	ND	1.2	171.9	24.2	64.8	0	0
13300	2011-08-05T03:00:00	14	5.41	15.42	1073.98	ND	ND	0.7	140.4	23	69.7	0	0
13301	2011-08-05T04:00:00	21	5.34	0.22	967.23	ND	ND	0.1	129.9	22.7	72	0	0
13302	2011-08-05T05:00:00	16	4.71	0.06	954.88	ND	ND	0.5	44.9	22.7	73.1	0	0
13303	2011-08-05T06:00:00	42	4.34	6.63	966.25	ND	ND	0.8	26.9	22.2	76.6	0	0
13304	2011-08-05T07:00:00	55	5.06	27.80	1191.59	ND	ND	0.1	66.1	22.4	76.5	23.3	0
13305	2011-08-05T08:00:00	72	8.13	43.65	1828.34	ND	ND	0.9	110.3	23.5	71.2	179.7	0
13306	2011-08-05T09:00:00	67	16.24	68.16	2815.41	ND	ND	1.1	94	25.1	64.1	367.8	0
13307	2011-08-05T10:00:00	51	25.40	58.33	2509.72	ND	ND	0.8	114.8	26.7	58	543.9	0
13308	2011-08-05T11:00:00	36	18.89	55.99	1843.43	ND	ND	1.2	141.6	28.4	51.1	691.3	0
13309	2011-08-05T12:00:00	50	18.84	55.95	1772.78	ND	ND	0.9	145.3	29.7	46	790.5	0
13310	2011-08-05T13:00:00	28	16.02	49.32	1582.60	ND	ND	1	140.8	31.6	37.6	813.2	0
13311	2011-08-05T14:00:00	37	12.96	32.71	1452.02	ND	ND	0.7	119.9	33.1	31.3	789.1	0
13312	2011-08-05T15:00:00	20	10.95	42.43	1635.68	ND	ND	1.2	88.3	33.8	28.7	588.5	0
13313	2011-08-05T16:00:00	18	8.20	40.49	1379.94	ND	ND	1.5	307	32.6	35.2	364.5	0
13314	2011-08-05T17:00:00	19	7.50	39.69	1468.53	ND	ND	3.2	275.6	31.6	42.8	317.2	0
13315	2011-08-05T18:00:00	23	9.03	54.98	1651.08	ND	ND	3.5	269.7	30.1	46.1	119	0
13316	2011-08-05T19:00:00	23	7.33	36.11	1538.08	ND	ND	3.6	266.5	28.2	50.7	1.6	0
13317	2011-08-05T20:00:00	21	6.97	33.92	1458.97	ND	ND	3.9	267.4	27.2	54.5	0	0
13318	2011-08-05T21:00:00	20	7.21	47.38	1696.48	ND	ND	1.8	294	26.9	54.5	0	0
13319	2011-08-05T22:00:00	12	6.99	36.01	1429.61	ND	ND	2.9	267	26.1	58.4	0	0
13320	2011-08-05T23:00:00	8	6.84	23.63	1264.82	ND	ND	1.4	251.9	25.8	57.8	0	0
13321	2011-08-06T00:00:00	6	5.96	5.63	1114.22	ND	ND	1	239.9	25.1	60.6	0	0
13322	2011-08-06T01:00:00	16	5.48	15.39	1249.13	ND	ND	0.8	175.1	23.8	67.8	0	0
13323	2011-08-06T02:00:00	26	6.13	49.20	1608.80	ND	ND	0.7	211.2	23.5	66.7	0	0
13324	2011-08-06T03:00:00	23	6.93	49.21	1607.18	ND	ND	0.5	356.9	22.9	73.4	0	0
13325	2011-08-06T04:00:00	48	6.97	42.58	1421.92	ND	ND	0.1	353	22.4	74.2	0	0
13326	2011-08-06T05:00:00	25	7.71	48.28	1816.98	ND	ND	0.8	262.4	22	73.4	0	0
13327	2011-08-06T06:00:00	29	8.61	31.94	1587.70	ND	ND	0.9	183.1	21.4	76.3	0	0
13328	2011-08-06T07:00:00	16	11.42	21.75	1369.44	ND	ND	0.9	218.4	21.5	74.8	41.9	0
13329	2011-08-06T08:00:00	38	9.17	24.96	1471.80	ND	ND	0.4	162.9	23.3	66.8	190	0
13330	2011-08-06T09:00:00	32	9.14	38.67	1628.87	ND	ND	0.9	133.5	24.7	62.3	336.3	0
13331	2011-08-06T10:00:00	74	12.41	81.73	2311.80	ND	ND	0.6	177.1	26.3	59.1	521.8	0
13332	2011-08-06T11:00:00	61	13.97	108.66	2381.75	ND	ND	0.8	122.1	28.1	51.7	706.1	0
13333	2011-08-06T12:00:00	69	20.09	64.59	1840.46	ND	ND	1.3	112.4	29.9	45.7	788.1	0
13334	2011-08-06T13:00:00	36	18.40	59.96	1828.18	ND	ND	0.6	145.5	31.6	39.8	829	0
13335	2011-08-06T14:00:00	38	15.43	69.23	1885.28	ND	ND	1.1	112.3	32.9	34.1	745.4	0
13336	2011-08-06T15:00:00	24	12.91	37.62	1611.09	ND	ND	1.6	132.9	33.5	32.5	575.5	0
13337	2011-08-06T16:00:00	39	11.18	63.75	1838.12	ND	ND	1.4	210.4	32.8	37	431.5	0
13338	2011-08-06T17:00:00	21	9.65	57.23	1822.17	ND	ND	3	271.5	31.7	43.9	241.8	0
13339	2011-08-06T18:00:00	46	8.60	31.31	1604.77	ND	ND	3.7	270.9	29.2	49.9	33.7	0
13340	2011-08-06T19:00:00	27	6.78	24.18	1521.90	ND	ND	3.8	267.6	27.8	53.4	1.5	0
13341	2011-08-06T20:00:00	24	6.77	24.75	1491.72	ND	ND	3.9	266.6	27	56.6	0	0
13342	2011-08-06T21:00:00	13	6.62	26.20	1453.15	ND	ND	3.4	263.9	26.6	58	0	0
13343	2011-08-06T22:00:00	13	6.64	29.27	1508.80	ND	ND	2.1	253.5	26.3	58.4	0	0
13344	2011-08-06T23:00:00	7	5.66	16.40	1357.71	ND	ND	1.4	282.8	25.7	60	0	0
13345	2011-08-07T00:00:00	40	5.49	10.08	1320.54	ND	ND	0.9	41.2	24.3	68.8	0	0
13346	2011-08-07T01:00:00	29	5.96	31.89	1542.94	ND	ND	0.4	154.8	23.9	70.7	0	0
13347	2011-08-07T02:00:00	31	6.55	39.33	1769.14	ND	ND	1	231.2	23.9	63.7	0	0
13348	2011-08-07T03:00:00	18	7.91	33.40	1791.96	ND	ND	1.4	163	22.8	70.5	0	0
13349	2011-08-07T04:00:00	22	7.13	16.15	1250.86	ND	ND	0.8	224	22.3	70.6	0	0
13350	2011-08-07T05:00:00	13	6.60	30.10	1521.21	ND	ND	0.9	255.4	22.2	63	0	0
13351	2011-08-07T06:00:00	8	6.05	18.83	1282.37	ND	ND	1	250.5	22.1	63.6	0.1	0
13352	2011-08-07T07:00:00	14	5.94	6.25	1077.74	ND	ND	0.7	258.3	22	64.3	47.2	0
13353	2011-08-07T08:00:00	28	4.77	11.43	1111.39	ND	ND	0.5	34.9	23	64.4	151.2	0
13354	2011-08-07T09:00:00	48	5.26	18.56	1137.92	ND	ND	1.5	59.8	23.5	64.5	311.6	0
13355	2011-08-07T10:00:00	47	8.39	60.53	1812.35	ND	ND	1.2	75.9	25.4	55.3	488.9	0
13356	2011-08-07T11:00:00	24	15.64	71.38	1869.85	ND	ND	1.1	77.2	27	49.7	679.5	0
13357	2011-08-07T12:00:00	30	18.62	39.51	1499.28	ND	ND	1.4	60.2	28.4	46.1	702.3	0
13358	2011-08-07T13:00:00	27	17.52	22.42	1355.65	ND	ND	1	106.8	30.1	39.2	764.6	0
13359	2011-08-07T14:00:00	21	23.72	21.80	1374.95	ND	ND	0.6	88.4	31.6	32.3	749	0
13360	2011-08-07T15:00:00	13	19.50	15.90	1334.92	ND	ND	0.5	138.3	32.5	28.6	624.6	0
13361	2011-08-07T16:00:00	8	11.55	6.45	1291.88	ND	ND	0.8	180	32.5	30.8	338.8	0
13362	2011-08-07T17:00:00	6	8.19	2.34	1197.93	ND	ND	3.4	276.7	30.7	43.6	265.7	0
13363	2011-08-07T18:00:00	18	6.94	15.18	1272.60	ND	ND	3.8	276.7	28.4	49.7	65.9	0
13364	2011-08-07T19:00:00	13	6.55	ND	1158.68	ND	ND	3.2	279.3	27.5	50.8	2.6	0
13365	2011-08-07T20:00:00	21	6.18	ND	1120.56	ND	ND	4.3	268	26.7	53.5	0	0
13366	2011-08-07T21:00:00	12	5.82	4.62	1221.27	ND	ND	3	265.8	26.6	54	0	0
13367	2011-08-07T22:00:00	8	4.90	2.01	1163.28	ND	ND	2.8	241.6	26.2	56	0	0
13368	2011-08-07T23:00:00	6	4.26	3.12	1196.23	ND	ND	0.6	297.2	25.9	58	0	0
13369	2011-08-08T00:00:00	13	3.99	0.25	1114.60	ND	ND	0.6	264.1	25.5	58.7	0	0
13370	2011-08-08T01:00:00	10	6.01	38.30	1480.31	ND	ND	0.4	84	24.3	67.9	0	0
13371	2011-08-08T02:00:00	41	7.89	11.78	1177.20	ND	ND	1.2	181.2	23.7	68.8	0	0
13372	2011-08-08T03:00:00	29	6.00	38.46	1562.64	ND	ND	1	201.8	23.1	69.5	0	0
13373	2011-08-08T04:00:00	27	5.39	19.99	1274.90	ND	ND	1	193.3	23.1	65	0	0
13374	2011-08-08T05:00:00	15	5.42	3.57	1104.15	ND	ND	0.5	182.4	22.2	69.7	0	0
13375	2011-08-08T06:00:00	17	5.04	1.08	1066.75	ND	ND	0.4	278.2	22.1	68.6	0	0
13376	2011-08-08T07:00:00	35	4.59	7.20	1055.05	ND	ND	0.2	20.9	21.9	70.6	23.3	0
13377	2011-08-08T08:00:00	83	4.62	8.95	1077.01	ND	ND	0.6	106.1	23.1	67.7	157.5	0
13378	2011-08-08T09:00:00	102	9.89	68.68	2640.86	ND	ND	1.1	62.9	24.3	64.9	373.4	0
13379	2011-08-08T10:00:00	106	16.16	135.44	3668.76	ND	ND	1.1	123.4	26.4	56.1	548.7	0
13380	2011-08-08T11:00:00	73	24.69	198.84	3222.77	ND	ND	1.1	142.6	27.9	50.6	660.2	0
13381	2011-08-08T12:00:00	78	28.36	153.32	2417.62	ND	ND	0.8	39.1	29.6	45.5	787.1	0
13382	2011-08-08T13:00:00	49	25.44	83.86	1896.16	ND	ND	1.2	102.4	30.1	44.1	502.5	0
13383	2011-08-08T14:00:00	56	24.31	58.37	1701.21	ND	ND	0.6	56.3	31.9	35	786.6	0
13384	2011-08-08T15:00:00	31	20.29	66.81	1945.74	ND	ND	0.4	93	32.8	30.6	437.1	0
13385	2011-08-08T16:00:00	42	14.36	31.50	1551.78	ND	ND	0.9	74.9	32.4	29.9	340	0
13386	2011-08-08T17:00:00	50	12.57	76.07	1772.82	ND	ND	0.4	325.4	31.6	40.1	238.7	0
13387	2011-08-08T18:00:00	61	12.64	87.48	1885.28	ND	ND	1.6	247.9	29.9	46.1	92.5	0
13388	2011-08-08T19:00:00	50	10.63	72.17	1909.69	ND	ND	4.1	270	27.5	53.4	1.7	0
13389	2011-08-08T20:00:00	46	11.18	75.93	1986.98	ND	ND	3.4	269.7	26.7	54.6	0	0
13390	2011-08-08T21:00:00	43	7.96	43.38	1659.09	ND	ND	3.4	267.7	26.2	56.7	0	0
13391	2011-08-08T22:00:00	23	6.29	43.32	1437.78	ND	ND	2.2	277	25.7	58.1	0	0
13392	2011-08-08T23:00:00	13	5.25	22.18	1286.09	ND	ND	1.8	256.2	25.2	59.1	0	0
13393	2011-08-09T00:00:00	8	4.98	15.66	1283.94	ND	ND	1.7	238	24.8	59.1	0	0
13394	2011-08-09T01:00:00	5	4.35	7.68	1167.74	ND	ND	1.8	276.4	24.6	61.1	0	0
13395	2011-08-09T02:00:00	6	4.13	6.28	1109.75	ND	ND	0.9	331.2	24.2	63.6	0	0
13396	2011-08-09T03:00:00	4	3.48	6.26	1062.55	ND	ND	0.4	252.1	23.5	64.4	0	0
13397	2011-08-09T04:00:00	15	4.90	21.34	1265.22	ND	ND	0.8	137.6	22.8	67.3	0	0
13398	2011-08-09T05:00:00	8	6.71	20.47	1296.35	ND	ND	0.5	103.5	22.1	67.9	0	0
13399	2011-08-09T06:00:00	33	7.42	11.77	1281.94	ND	ND	0.6	234.8	22.3	69.8	0	0
13400	2011-08-09T07:00:00	24	6.98	18.50	1350.92	ND	ND	1.3	253.6	22.5	67.1	27.4	0
13401	2011-08-09T08:00:00	52	9.67	34.29	1454.08	ND	ND	0.5	57.6	22.9	66.5	75.6	0
13402	2011-08-09T09:00:00	113	10.46	43.35	1763.18	ND	ND	1.1	81.3	23.3	67.6	188.1	0
13403	2011-08-09T10:00:00	120	16.86	91.27	3007.15	ND	ND	0.6	95.4	24.6	62.3	286.7	0
13404	2011-08-09T11:00:00	109	26.74	160.72	3443.65	ND	ND	0.7	86.3	25.8	58.2	297.2	0
13405	2011-08-09T12:00:00	119	38.46	114.80	2274.39	ND	ND	0.6	118.8	26.3	55.9	244.6	0
13406	2011-08-09T13:00:00	96	88.27	140.72	2243.68	ND	ND	1.2	135.6	27.5	52.6	445.6	0
13407	2011-08-09T14:00:00	75	54.11	105.98	2125.60	ND	ND	1.1	135.5	28.5	49.7	707.2	0
13408	2011-08-09T15:00:00	66	31.10	121.36	2445.62	ND	ND	0.9	200.7	29.6	47.1	486.1	0
13409	2011-08-09T16:00:00	74	23.15	59.46	1779.84	ND	ND	1.3	116.7	29.6	47.2	268.1	0
13410	2011-08-09T17:00:00	58	20.38	53.34	1861.27	ND	ND	1.4	249.6	28.8	50.1	109.1	0
13411	2011-08-09T18:00:00	55	17.94	122.65	2656.89	ND	ND	3.3	266.7	27.5	52.5	34.8	0
13412	2011-08-09T19:00:00	29	15.01	54.01	1790.59	ND	ND	3.8	267.6	26.5	54.4	1.6	0
13413	2011-08-09T20:00:00	15	9.48	54.18	1784.63	ND	ND	3.3	262.5	25.9	56.9	0	0
13414	2011-08-09T21:00:00	14	7.33	35.78	1597.20	ND	ND	3.2	260.7	25.3	58.3	0	0
13415	2011-08-09T22:00:00	25	7.24	54.47	1639.87	ND	ND	0.2	9.4	24.7	62.8	0	0
13416	2011-08-09T23:00:00	32	5.81	30.37	1339.01	ND	ND	0.8	68	24	66.4	0	0
13417	2011-08-10T00:00:00	28	7.52	60.56	1941.00	ND	ND	0.4	241	24	65.5	0	0
13418	2011-08-10T01:00:00	15	9.38	63.41	2180.77	ND	ND	0.7	202.5	24.3	64.1	0	0
13419	2011-08-10T02:00:00	21	8.42	45.15	1508.65	ND	ND	0.8	146.7	23.3	70.8	0	0
13420	2011-08-10T03:00:00	17	6.67	43.84	1446.62	ND	ND	1	160.5	22.4	75.4	0	0
13421	2011-08-10T04:00:00	35	6.31	32.93	1408.16	ND	ND	0.8	177.7	22.3	75.5	0	0
13422	2011-08-10T05:00:00	35	5.97	18.05	1294.16	ND	ND	0.5	138.6	22.2	74.8	0	0
13423	2011-08-10T06:00:00	48	6.70	21.79	1327.77	ND	ND	0.8	45.4	21.7	78	0	0
13424	2011-08-10T07:00:00	37	7.15	33.38	1427.48	ND	ND	0.1	37	21.4	80.2	20	0
13425	2011-08-10T08:00:00	75	8.15	42.40	1844.78	ND	ND	0.6	207.5	22.5	74.4	162.2	0
13426	2011-08-10T09:00:00	72	9.20	50.30	2283.35	ND	ND	1.2	150.7	24.1	67.2	354.3	0
13427	2011-08-10T10:00:00	69	16.17	106.22	3277.96	ND	ND	1.2	152.3	25.8	60.5	554.6	0
13428	2011-08-10T11:00:00	37	13.82	118.07	2596.02	ND	ND	1.5	154.3	27.2	56.2	674.7	0
13429	2011-08-10T12:00:00	54	15.44	72.06	1823.42	ND	ND	0.8	181.7	28.8	50.2	805	0
13430	2011-08-10T13:00:00	49	14.41	53.87	1624.30	ND	ND	1.2	99.4	30.1	44.5	824.4	0
13431	2011-08-10T14:00:00	39	16.20	47.37	1631.30	ND	ND	1.6	160.4	32	37.9	796	0
13432	2011-08-10T15:00:00	20	15.04	44.36	1606.35	ND	ND	1.9	170.9	32.7	34.2	538.3	0
13433	2011-08-10T16:00:00	40	12.74	39.63	1586.53	ND	ND	1.2	190.9	32.2	36.5	417.1	0
13434	2011-08-10T17:00:00	33	11.38	57.12	1748.20	ND	ND	3.4	268.5	31.1	43.5	341.9	0
13435	2011-08-10T18:00:00	34	11.50	58.14	1788.66	ND	ND	4.4	272.6	28.9	49.4	105.5	0
13436	2011-08-10T19:00:00	28	8.07	43.29	1868.57	ND	ND	5.5	267.5	26.9	55.3	0.9	0
13437	2011-08-10T20:00:00	33	6.86	35.08	1625.61	ND	ND	4.8	266.9	26.3	56.7	0	0
13438	2011-08-10T21:00:00	19	7.03	24.42	1507.29	ND	ND	3.5	269.7	25.8	57.7	0	0
13439	2011-08-10T22:00:00	17	6.52	16.60	1355.45	ND	ND	2.5	285.2	25.2	59.5	0	0
13440	2011-08-10T23:00:00	23	5.53	15.27	1283.94	ND	ND	0.8	282.9	24.8	61.6	0	0
13441	2011-08-11T00:00:00	14	5.00	11.78	1282.22	ND	ND	1.7	286.9	24.9	60.7	0	0
13442	2011-08-11T01:00:00	8	6.29	41.48	1649.12	ND	ND	0.9	270.3	24.2	63.1	0	0
13443	2011-08-11T02:00:00	6	4.81	11.35	1153.96	ND	ND	1.6	252.9	23.4	63.2	0	0
13444	2011-08-11T03:00:00	4	5.08	12.21	1150.85	ND	ND	0.7	284.7	22.9	65.8	0	0
13445	2011-08-11T04:00:00	8	4.68	8.86	1103.41	ND	ND	0.3	328.8	22.8	68.9	0	0
13446	2011-08-11T05:00:00	7	3.90	7.24	1114.41	ND	ND	0.4	220.4	22.1	70.3	0	0
13447	2011-08-11T06:00:00	36	5.06	35.51	1338.66	ND	ND	0.7	225.4	21.9	64.8	0	0
13448	2011-08-11T07:00:00	34	6.20	28.98	1394.44	ND	ND	0.9	272.9	21.6	68	31.4	0
13449	2011-08-11T08:00:00	69	7.43	39.47	1574.23	ND	ND	1.1	14.7	22.1	70.7	119.8	0
13450	2011-08-11T09:00:00	89	7.27	50.66	1883.20	ND	ND	0.6	61	23.2	66.8	226.6	0
13451	2011-08-11T10:00:00	105	22.89	115.60	2983.36	ND	ND	1	131.4	25.5	56.9	522.9	0
13452	2011-08-11T11:00:00	92	40.55	180.98	2972.10	ND	ND	1	149.1	26.8	52.7	655.7	0
13453	2011-08-11T12:00:00	63	29.71	187.40	2604.71	ND	ND	0.5	166.3	29	44.2	800.6	0
13454	2011-08-11T13:00:00	39	25.62	122.16	2124.60	ND	ND	1	129.5	30.2	39	666.9	0
13455	2011-08-11T14:00:00	27	18.53	79.26	1818.33	ND	ND	1.1	154.6	31.6	34.4	722.1	0
13456	2011-08-11T15:00:00	26	12.21	71.50	1744.76	ND	ND	1.7	118.2	30.9	34.7	272.2	0
13457	2011-08-11T16:00:00	58	10.42	34.84	1647.29	ND	ND	1.8	92.3	30.1	41.3	181.5	0
13458	2011-08-11T17:00:00	71	10.63	102.64	2004.17	ND	ND	1.2	262.2	29.2	46.5	137.3	0
13459	2011-08-11T18:00:00	64	12.65	148.41	2451.30	ND	ND	3.1	265.4	28.3	49.2	89.8	0
13460	2011-08-11T19:00:00	35	12.37	81.87	1992.27	ND	ND	4.7	266.6	26.4	54.8	1.8	0
13461	2011-08-11T20:00:00	30	8.48	50.56	1726.48	ND	ND	4.9	269.7	25.9	55.9	0	0
13462	2011-08-11T21:00:00	17	7.25	31.68	1562.73	ND	ND	4.5	268.6	25.6	56.8	0	0
13463	2011-08-11T22:00:00	10	6.22	14.46	1274.18	ND	ND	2.4	279.4	25	59.6	0	0
13464	2011-08-11T23:00:00	5	5.03	5.31	1157.06	ND	ND	2.2	274.8	24.5	61	0	0
13465	2011-08-12T00:00:00	3	4.42	17.34	1200.87	ND	ND	1.5	278.7	24.2	62.3	0	0
13466	2011-08-12T01:00:00	4	3.87	6.65	1199.66	ND	ND	1.2	178.9	23	69.2	0	0
13467	2011-08-12T02:00:00	27	3.93	5.26	1069.64	ND	ND	0.8	214.6	22.6	67.4	0	0
13468	2011-08-12T03:00:00	15	4.05	33.72	1409.11	ND	ND	0.7	191.7	22.5	66.7	0	0
13469	2011-08-12T04:00:00	38	4.62	27.19	1329.12	ND	ND	0.9	148.3	22	65.6	0	0
13470	2011-08-12T05:00:00	31	5.16	26.79	1281.50	ND	ND	0.5	163.1	21.5	66.2	0	0
13471	2011-08-12T06:00:00	62	6.03	27.81	1392.55	ND	ND	0.9	14.6	21.3	74	0	0
13472	2011-08-12T07:00:00	69	6.24	31.08	1414.23	ND	ND	0.2	195.1	21.3	74.1	46	0
13473	2011-08-12T08:00:00	104	9.39	58.55	1968.61	ND	ND	0.9	139.3	22.5	67.4	174.7	0
13474	2011-08-12T09:00:00	95	29.33	67.05	2442.39	ND	ND	0.5	100.4	23.9	58.3	255	0
13475	2011-08-12T10:00:00	85	32.74	141.64	3663.83	ND	ND	0.9	84	24.8	56.3	284.2	0
13476	2011-08-12T11:00:00	67	23.70	106.83	2198.09	ND	ND	1.2	115.1	25.8	52	383.8	0
13477	2011-08-12T12:00:00	59	25.88	152.17	2251.42	ND	ND	0.2	129.7	26.9	48.1	548.4	0
13478	2011-08-12T13:00:00	30	19.65	118.67	2075.24	ND	ND	0.6	120.9	28.9	42.3	721.5	0
13479	2011-08-12T14:00:00	39	15.40	60.56	1613.23	ND	ND	0.9	155.2	30.4	37.4	727.1	0
13480	2011-08-12T15:00:00	31	13.79	70.95	1726.22	ND	ND	1.6	155.3	31.7	32.3	716.3	0
13481	2011-08-12T16:00:00	22	10.42	55.04	1663.34	ND	ND	1.8	254.9	30.3	38	275.8	0
13482	2011-08-12T17:00:00	33	8.75	51.95	1574.08	ND	ND	4	276.6	28.9	45.6	229	0
13483	2011-08-12T18:00:00	50	8.63	67.01	1729.29	ND	ND	4.2	281.3	26.6	53	16.7	0
13484	2011-08-12T19:00:00	27	7.43	57.85	1623.98	ND	ND	4.7	270.4	25.8	55.4	0.2	0
13485	2011-08-12T20:00:00	28	6.99	47.85	1596.67	ND	ND	4.9	268.4	25.5	57.6	0	0
13486	2011-08-12T21:00:00	16	6.54	24.64	1342.61	ND	ND	2	297.3	25.6	56.2	0	0
13487	2011-08-12T22:00:00	9	5.51	15.68	1239.75	ND	ND	1.9	290.3	25	58.7	0	0
13488	2011-08-12T23:00:00	6	5.50	31.28	1214.34	ND	ND	1.1	262.5	24.4	61.9	0	0
13489	2011-08-13T00:00:00	13	4.94	22.18	1154.73	ND	ND	1.1	218.7	23.9	64.4	0	0
13490	2011-08-13T01:00:00	19	5.35	43.72	1415.31	ND	ND	0.9	158.7	23.1	70.1	0	0
13491	2011-08-13T02:00:00	48	5.02	49.71	1525.33	ND	ND	0.9	166.3	22.6	71.1	0	0
13492	2011-08-13T03:00:00	30	5.74	56.10	1670.48	ND	ND	1.1	146.9	22.4	71.4	0	0
13493	2011-08-13T04:00:00	35	5.77	30.51	1203.75	ND	ND	0.9	141.8	22	74.5	0	0
13494	2011-08-13T05:00:00	33	6.38	27.18	1270.16	ND	ND	0.7	127.8	22.1	74.2	0	0
13495	2011-08-13T06:00:00	36	6.07	24.97	1157.15	ND	ND	0.7	160.3	22	73.9	0	0
13496	2011-08-13T07:00:00	25	5.86	26.29	1304.19	ND	ND	0.6	214.6	21.6	74.4	11.2	0
13497	2011-08-13T08:00:00	38	7.56	46.23	1574.23	ND	ND	0.6	200.6	22.4	70.4	94.5	0
13498	2011-08-13T09:00:00	45	7.48	36.82	1430.87	ND	ND	1	123.8	23.6	66.2	264	0
13499	2011-08-13T10:00:00	57	10.43	62.89	1812.96	ND	ND	0.6	160.2	25.4	59.8	546.2	0
13500	2011-08-13T11:00:00	58	13.93	97.82	2191.05	ND	ND	1	115.8	27.3	53.9	680.7	0
13501	2011-08-13T12:00:00	70	17.96	86.15	1800.94	ND	ND	0.9	96.4	28.5	49.6	637	0
13502	2011-08-13T13:00:00	37	17.74	81.92	1924.04	ND	ND	1.4	71.8	29.3	47.5	549.4	0
13503	2011-08-13T14:00:00	66	15.74	74.21	1801.31	ND	ND	1.5	29.7	29.5	47.3	378.3	0
13504	2011-08-13T15:00:00	56	13.62	78.20	1907.17	ND	ND	1.5	22.1	29.6	46.7	334.4	0
13505	2011-08-13T16:00:00	47	20.73	97.58	2000.86	ND	ND	3.2	275.6	29.4	46.5	280.1	0
13506	2011-08-13T17:00:00	24	30.15	88.30	1848.41	ND	ND	2.7	281.5	28.5	49.1	111.3	0
13507	2011-08-13T18:00:00	20	11.03	28.09	1483.60	ND	ND	3	280.6	27.3	52.9	50.1	0
13508	2011-08-13T19:00:00	26	7.29	35.15	1604.68	ND	ND	3.3	270.2	26.5	55.4	0	0
13509	2011-08-13T20:00:00	14	6.29	38.56	1634.95	ND	ND	3.9	264.9	26	57.3	0	0
13510	2011-08-13T21:00:00	8	6.15	46.81	1701.19	ND	ND	3.4	269.9	25.6	58.6	0	0
13511	2011-08-13T22:00:00	4	5.30	32.57	1480.81	ND	ND	2.1	286.9	25.4	59.2	0	0
13512	2011-08-13T23:00:00	2	4.80	20.52	1353.63	ND	ND	2.3	241	25.2	59.9	0	0
13513	2011-08-14T00:00:00	2	3.93	5.41	1283.94	ND	ND	0.1	339.9	24.5	64.7	0	0
13514	2011-08-14T01:00:00	2	4.11	14.82	1418.17	ND	ND	0.7	69.9	22.8	73.6	0	0
13515	2011-08-14T02:00:00	18	5.72	46.66	1842.18	ND	ND	1	149.4	23.1	72.4	0	0
13516	2011-08-14T03:00:00	33	6.25	53.60	1684.69	ND	ND	1.9	166.2	23	73.3	0	0
13517	2011-08-14T04:00:00	47	6.17	52.89	1672.74	ND	ND	1.8	182.6	22.2	78.5	0	0
13518	2011-08-14T05:00:00	26	5.97	34.16	1509.34	ND	ND	0.6	159.9	22.2	77.1	0	0
13519	2011-08-14T06:00:00	33	5.61	19.98	1395.86	ND	ND	0.8	120.7	21.8	74.7	0	0
13520	2011-08-14T07:00:00	22	5.39	41.46	1541.30	ND	ND	0.7	158	21.4	78.1	16.3	0
13521	2011-08-14T08:00:00	33	6.01	64.81	1742.92	ND	ND	0.7	118.1	22.1	77.3	174.4	0
13522	2011-08-14T09:00:00	17	5.55	69.05	1905.89	ND	ND	0.9	127.9	23.4	71.1	219	0
13523	2011-08-14T10:00:00	44	5.58	54.89	1788.95	ND	ND	0.1	145.9	24.6	64.8	275.2	0
13524	2011-08-14T11:00:00	24	7.07	68.63	1899.16	ND	ND	0.4	155.1	26.7	54.2	451.9	0
13525	2011-08-14T12:00:00	35	7.40	56.11	1728.21	ND	ND	1.3	90.7	27.3	53.3	466.3	0
13526	2011-08-14T13:00:00	20	7.82	39.27	1604.68	ND	ND	0.7	358.2	28.3	49.7	518.8	0
13527	2011-08-14T14:00:00	16	8.50	57.24	1725.86	ND	ND	2.8	305.6	28.4	48.5	471.3	0
13528	2011-08-14T15:00:00	10	8.51	13.81	1425.17	ND	ND	3.5	286.9	29	43.7	538.1	0
13529	2011-08-14T16:00:00	6	7.28	12.16	1277.08	ND	ND	3	283.2	28.3	45.5	278.9	0
13530	2011-08-14T17:00:00	4	4.53	ND	1146.71	ND	ND	3.3	279.8	27.9	46.2	310.2	0
13531	2011-08-14T18:00:00	3	4.47	ND	1133.62	ND	ND	3.8	282.5	26.8	48.8	113	0
13532	2011-08-14T19:00:00	3	4.11	0.49	1129.48	ND	ND	3.6	277.1	25.7	53.3	1.2	0
13533	2011-08-14T20:00:00	3	3.52	ND	1113.85	ND	ND	3.6	278.8	25.3	55.8	0	0
13534	2011-08-14T21:00:00	4	3.57	1.23	1135.29	ND	ND	2.4	289.5	25.2	55.9	0	0
13535	2011-08-14T22:00:00	2	2.91	0.17	1089.06	ND	ND	3.4	273.8	24.7	57.5	0	0
13536	2011-08-14T23:00:00	1	3.01	1.71	1110.12	ND	ND	2	258.8	24.5	59.2	0	0
13537	2011-08-15T00:00:00	ND	2.51	0.08	1075.06	ND	ND	0.3	344.1	24	61.8	0	0
13538	2011-08-15T01:00:00	10	2.43	0.81	1130.35	ND	ND	0.9	134.6	23	68.3	0	0
13539	2011-08-15T02:00:00	16	2.89	26.38	1274.47	ND	ND	1.7	188.1	23	68.4	0	0
13540	2011-08-15T03:00:00	9	3.98	43.51	1513.43	ND	ND	0.6	143.1	22	76.3	0	1.78
13541	2011-08-15T04:00:00	6	4.20	27.37	1281.50	ND	ND	0.5	66.4	21	85.3	0	0
13542	2011-08-15T05:00:00	4	4.45	16.54	1198.04	ND	ND	0.6	239.7	21.1	85.2	0	0.76
13543	2011-08-15T06:00:00	2	3.88	37.14	1345.43	ND	ND	1.2	254.7	21.1	80.3	0	0
13544	2011-08-15T07:00:00	3	4.29	35.06	1277.59	ND	ND	0.8	258.9	20.9	79.7	16.6	0
13545	2011-08-15T08:00:00	15	4.70	4.25	1129.85	ND	ND	0.4	319.5	21.5	78.1	76.8	0
13546	2011-08-15T09:00:00	9	4.38	18.67	1256.69	ND	ND	0.1	159.6	22.2	76	112.8	0
13547	2011-08-15T10:00:00	35	6.80	65.58	1702.26	ND	ND	0.2	59.2	23.7	69.6	299.2	0
13548	2011-08-15T11:00:00	19	9.76	68.90	1722.32	ND	ND	1.1	55.8	25.4	62.9	537.8	0
13549	2011-08-15T12:00:00	27	14.85	92.92	1858.38	ND	ND	1.3	63.4	26.4	56.7	512.5	0
13550	2011-08-15T13:00:00	14	21.53	95.79	1737.99	ND	ND	1.4	92.4	26.9	55	514.7	0
13551	2011-08-15T14:00:00	14	19.22	41.60	1441.14	ND	ND	1.4	81.5	27.9	52.7	399.2	0
13552	2011-08-15T15:00:00	8	17.70	45.26	1445.94	ND	ND	0.9	60	28.4	51.7	463.7	0
13553	2011-08-15T16:00:00	27	22.00	48.96	1390.41	ND	ND	0.7	67.2	28.8	51.2	249	0
13554	2011-08-15T17:00:00	14	24.20	35.63	1369.05	ND	ND	0.2	217.9	28.5	51.1	89	0
13555	2011-08-15T18:00:00	8	29.11	50.90	1437.24	ND	ND	3.1	268.8	27.3	52.1	46.6	0
13556	2011-08-15T19:00:00	6	26.27	40.58	1385.34	ND	ND	3.2	271.9	25.9	59.5	0.2	4.83
13557	2011-08-15T20:00:00	4	9.46	1.15	1149.07	ND	ND	3.5	264.4	24.3	68.1	0	0
13558	2011-08-15T21:00:00	3	6.51	0.98	1165.77	ND	ND	1.7	260.9	24.4	64.5	0	0
13559	2011-08-15T22:00:00	3	5.54	7.71	1223.33	ND	ND	2.7	252.8	22.8	72.3	0	0
13560	2011-08-15T23:00:00	3	5.05	11.70	1194.01	ND	ND	1.2	291.3	22.9	69.8	0	0
13561	2011-08-16T00:00:00	2	4.06	7.56	1148.91	ND	ND	0.3	319.3	23.1	68.8	0	0
13562	2011-08-16T01:00:00	2	4.40	32.82	1240.75	ND	ND	0.8	229.4	22.5	73.9	0	0
13563	2011-08-16T02:00:00	2	5.92	39.59	1226.88	ND	ND	0.7	62.5	21.3	81.4	0	0
13564	2011-08-16T03:00:00	2	10.53	44.60	1199.27	ND	ND	0.4	358.2	21.3	80.5	0	0
13565	2011-08-16T04:00:00	1	7.50	16.07	1074.81	ND	ND	0.6	111.9	21.2	82.1	0	0
13566	2011-08-16T05:00:00	1	6.31	13.65	1063.14	ND	ND	0.7	80.1	20.4	86.8	0	0
13567	2011-08-16T06:00:00	1	5.34	23.14	1150.48	ND	ND	0.3	162.2	20.7	85.4	0	0
13568	2011-08-16T07:00:00	10	4.96	15.96	1106.50	ND	ND	0.9	189	21.1	84.3	20.1	0
13569	2011-08-16T08:00:00	27	5.59	30.87	1277.59	ND	ND	1.5	196	21.4	82.8	65.7	0
13570	2011-08-16T09:00:00	23	6.58	43.99	1697.65	ND	ND	0.7	220.6	22.3	77.9	126.9	0
13571	2011-08-16T10:00:00	30	8.91	64.24	2270.46	ND	ND	1	109.4	23.1	75.4	205	0
13572	2011-08-16T11:00:00	26	9.42	58.39	1946.50	ND	ND	0.7	168.8	24.2	70.4	435.2	0
13573	2011-08-16T12:00:00	48	11.76	102.22	2239.36	ND	ND	0.3	23.8	26.4	60.3	632	0
13574	2011-08-16T13:00:00	38	12.37	97.62	1933.66	ND	ND	0.9	66.4	27.6	55.7	560.7	0
13575	2011-08-16T14:00:00	41	10.92	89.16	1814.30	ND	ND	1.2	50.1	28	52.4	352.7	0
13576	2011-08-16T15:00:00	22	11.12	106.15	1967.14	ND	ND	1.4	30.1	28.4	51.3	355.8	0
13577	2011-08-16T16:00:00	36	19.85	90.90	1703.26	ND	ND	2	305	27.9	51.9	291.6	0
13578	2011-08-16T17:00:00	20	27.60	98.64	1584.76	ND	ND	3.4	286	28	49.1	286.8	0
13579	2011-08-16T18:00:00	18	36.66	85.44	1492.71	ND	ND	3.1	280.6	26.6	54.3	119.2	0
13580	2011-08-16T19:00:00	10	9.83	46.26	1808.26	ND	ND	3.7	270.7	25.4	57.5	3.6	0
13581	2011-08-16T20:00:00	6	7.45	55.49	1709.25	ND	ND	2.1	292.2	25.2	57.9	0	0
13582	2011-08-16T21:00:00	4	6.66	51.02	1513.22	ND	ND	1.1	304.8	24.7	59.8	0	0
13583	2011-08-16T22:00:00	4	5.73	40.53	1281.79	ND	ND	2.3	283.4	24.6	60	0	0
13584	2011-08-16T23:00:00	3	7.25	61.22	1533.05	ND	ND	1	262.1	24	63.7	0	0
13585	2011-08-17T00:00:00	4	5.88	20.52	1233.10	ND	ND	0.9	76.4	22.4	72.2	0	0
13586	2011-08-17T01:00:00	4	4.75	33.66	1340.02	ND	ND	0.7	164	22.3	73.5	0	0
13587	2011-08-17T02:00:00	9	6.57	57.86	1453.09	ND	ND	0.7	162	22	76.9	0	0
13588	2011-08-17T03:00:00	34	5.65	40.12	1224.80	ND	ND	1.1	131.4	21.5	78.6	0	0
13589	2011-08-17T04:00:00	43	5.18	45.32	1324.62	ND	ND	1	143	20.7	82.3	0	0
13590	2011-08-17T05:00:00	24	5.63	33.67	1377.47	ND	ND	0.6	117.4	20.8	81.7	0	0
13591	2011-08-17T06:00:00	31	6.59	22.45	1231.11	ND	ND	0.5	190.9	20.8	81.4	0	0
13592	2011-08-17T07:00:00	36	5.79	32.44	1411.83	ND	ND	0.8	247.1	21.3	77.9	24.6	0
13593	2011-08-17T08:00:00	51	6.52	41.70	1538.68	ND	ND	0.6	277.7	22.5	71.5	169.8	0
13594	2011-08-17T09:00:00	48	8.50	42.77	1863.03	ND	ND	0.9	137.7	24	68.8	346.4	0
13595	2011-08-17T10:00:00	62	14.99	76.94	2215.02	ND	ND	1.2	197.7	25.2	62.7	549.2	0
13596	2011-08-17T11:00:00	38	20.45	183.48	2671.06	ND	ND	0.9	148.6	27.9	52.5	724.1	0
13597	2011-08-17T12:00:00	44	21.67	76.83	1700.43	ND	ND	1.8	126	28.3	50.8	478.6	0
13598	2011-08-17T13:00:00	38	17.01	93.01	1934.35	ND	ND	0.9	78.3	29.4	48.4	661	0
13599	2011-08-17T14:00:00	48	14.36	116.57	1953.04	ND	ND	1.1	73.5	29.7	48.2	351.1	0
13600	2011-08-17T15:00:00	45	13.41	90.49	1873.52	ND	ND	1.1	77.4	29.4	49.1	223.4	0
13601	2011-08-17T16:00:00	55	19.01	96.00	1743.78	ND	ND	0.6	195.2	29.3	49.4	168.1	0
13602	2011-08-17T17:00:00	45	23.63	128.45	1975.63	ND	ND	3.4	284.1	28.2	50.7	177	0
13603	2011-08-17T18:00:00	24	16.08	88.29	1690.55	ND	ND	3.3	277.1	28	50.6	156.9	0
13604	2011-08-17T19:00:00	24	9.92	50.49	1573.71	ND	ND	3.6	270.1	26.7	53.3	1.7	0
13605	2011-08-17T20:00:00	15	8.06	60.27	1566.91	ND	ND	3.6	268	26.3	54.4	0	0
13606	2011-08-17T21:00:00	9	7.21	71.54	1691.39	ND	ND	2.1	274.6	25.9	57.1	0	0
13607	2011-08-17T22:00:00	29	5.99	58.22	1424.84	ND	ND	1.3	246.8	25.1	62.7	0	0.76
13608	2011-08-17T23:00:00	16	4.95	50.53	1340.81	ND	ND	4.6	271.5	22.8	71.4	0	0
13609	2011-08-18T00:00:00	9	5.57	44.94	1478.29	ND	ND	4	265.6	21.8	69.2	0	0
13610	2011-08-18T01:00:00	6	4.20	14.50	1144.64	ND	ND	1.7	271	22.4	65.9	0	0
13611	2011-08-18T02:00:00	5	3.82	ND	1033.41	ND	ND	1.6	266.2	21.7	72.8	0	0
13612	2011-08-18T03:00:00	5	3.68	4.10	1019.63	ND	ND	0.7	265.7	21.9	72.4	0	0
13613	2011-08-18T04:00:00	18	3.53	0.39	1020.32	ND	ND	1.2	242.9	21.8	73.5	0	0
13614	2011-08-18T05:00:00	11	3.53	6.02	1065.31	ND	ND	0.5	338.9	21.9	73.4	0	0
13615	2011-08-18T06:00:00	18	3.94	4.42	1088.34	ND	ND	0.5	105.8	21.3	80.6	0	0
13616	2011-08-18T07:00:00	30	3.99	30.84	1233.21	ND	ND	0.7	223.7	21.4	81.3	9.9	0
13617	2011-08-18T08:00:00	52	5.85	65.35	1697.65	ND	ND	1.1	247.8	22.1	76.4	123.6	0
13618	2011-08-18T09:00:00	45	7.21	82.55	2200.85	ND	ND	1	152.4	23.6	70.7	246.4	0
13619	2011-08-18T10:00:00	39	11.21	102.09	2953.18	ND	ND	1.1	179.4	24.8	65.3	506.7	0
13620	2011-08-18T11:00:00	35	13.75	152.64	2438.51	ND	ND	1.7	176.3	26.1	60.9	529.5	0
13621	2011-08-18T12:00:00	39	15.57	98.19	1782.25	ND	ND	1.2	165.4	27.5	55.9	707.4	0
13622	2011-08-18T13:00:00	23	17.12	89.47	1790.59	ND	ND	0.9	123.4	28.8	51	556.5	0
13623	2011-08-18T14:00:00	39	13.59	76.30	1705.52	ND	ND	1.2	123	29.9	48.3	501.3	0
13624	2011-08-18T15:00:00	30	10.76	83.30	1769.96	ND	ND	1	89.1	30.2	47.3	298	0
13625	2011-08-18T16:00:00	53	9.33	101.85	1829.99	ND	ND	1.9	297	28.2	52.3	90.4	0
13626	2011-08-18T17:00:00	29	10.73	115.97	2014.76	ND	ND	3.3	273.7	28.3	50.9	382.4	0
13627	2011-08-18T18:00:00	25	10.70	100.28	1818.52	ND	ND	3.6	262.6	27.3	54.1	77.7	0
13628	2011-08-18T19:00:00	17	7.47	54.38	1604.68	ND	ND	3.5	264	26	56.7	0.9	0
13629	2011-08-18T20:00:00	16	6.60	62.04	1655.21	ND	ND	2	274.4	25.8	56.2	0	0
13630	2011-08-18T21:00:00	9	6.70	82.53	1757.48	ND	ND	3.1	259.7	24.8	62.5	0	0
13631	2011-08-18T22:00:00	5	6.18	89.84	1717.26	ND	ND	3	255.8	24.4	64.5	0	0
13632	2011-08-18T23:00:00	4	4.29	46.33	1314.80	ND	ND	0.7	345.2	23.6	68.8	0	0
13633	2011-08-19T00:00:00	26	3.73	22.78	1242.85	ND	ND	0.4	66.7	23.4	69.5	0	0
13634	2011-08-19T01:00:00	40	6.07	78.32	1697.79	ND	ND	0.8	160.8	23.3	70.9	0	0
13635	2011-08-19T02:00:00	22	9.22	95.21	1720.00	ND	ND	1.3	195.6	22.5	76	0	0
13636	2011-08-19T03:00:00	20	9.87	87.89	1624.48	ND	ND	0.7	147.9	22.2	76.1	0	0
13637	2011-08-19T04:00:00	24	6.54	38.81	1282.37	ND	ND	0.4	228.8	22	75.4	0	0
13638	2011-08-19T05:00:00	21	6.17	23.88	1247.48	ND	ND	0.4	52.2	21.8	76.5	0	0
13639	2011-08-19T06:00:00	43	5.78	16.06	1189.97	ND	ND	1	14.8	21.2	80.3	0	0
13640	2011-08-19T07:00:00	56	5.25	45.46	1334.58	ND	ND	0.6	105.8	21.3	79.9	0	0
13641	2011-08-19T08:00:00	66	7.25	67.82	1753.64	ND	ND	0.5	269.9	21.8	78.7	59.2	0
13642	2011-08-19T09:00:00	54	14.36	101.94	2708.60	ND	ND	0.5	75.3	24.5	66.5	366.7	0
13643	2011-08-19T10:00:00	70	15.64	101.63	2767.72	ND	ND	0.9	122.7	26.3	59.8	539.8	0
13644	2011-08-19T11:00:00	50	50.03	160.17	2577.36	ND	ND	2	150.5	26.5	60.9	301.2	0
13645	2011-08-19T12:00:00	70	54.33	ND	2130.04	ND	ND	1.6	140.1	27.5	56.4	702.4	0
13646	2011-08-19T13:00:00	49	36.59	ND	2090.94	ND	ND	0.4	157.9	28.7	49.7	653.4	0
13647	2011-08-19T14:00:00	29	22.65	ND	1844.13	ND	ND	1.5	30.2	30.4	41.4	528.3	0
13648	2011-08-19T15:00:00	16	15.45	ND	1761.21	ND	ND	2.3	15.6	29.5	43.9	201.1	0.76
13649	2011-08-19T16:00:00	34	11.62	ND	1535.04	ND	ND	1.2	283.3	26.8	57.9	71.6	0
13650	2011-08-19T17:00:00	18	17.08	ND	1740.32	ND	ND	4.2	264.2	24.8	65.8	27.6	2.03
13651	2011-08-19T18:00:00	13	15.66	ND	2083.61	ND	ND	3.5	262.7	24	66.5	13.3	1.27
13652	2011-08-19T19:00:00	8	9.45	ND	1781.15	ND	ND	2	258.4	24	63.4	0.1	0.25
13653	2011-08-19T20:00:00	8	8.04	ND	1678.39	ND	ND	1.6	221.2	23.6	68.8	0	0
13654	2011-08-19T21:00:00	8	7.77	ND	2166.43	ND	ND	1.2	225.2	23.4	64.8	0	0
13655	2011-08-19T22:00:00	31	7.38	ND	2335.89	ND	ND	2.4	176.6	21.2	78.1	0	0
13656	2011-08-19T23:00:00	16	7.14	ND	2024.49	ND	ND	1.4	201.9	20.6	80.6	0	0
13657	2011-08-20T00:00:00	12	4.72	ND	1715.61	ND	ND	0.6	195.1	21.3	78.7	0	0
13658	2011-08-20T01:00:00	14	3.86	ND	1482.11	ND	ND	0.8	198.5	20.5	84.1	0	0
13659	2011-08-20T02:00:00	28	4.36	ND	1794.01	ND	ND	0.7	61	20.7	81.6	0	0
13660	2011-08-20T03:00:00	15	3.85	ND	1603.29	ND	ND	0.8	148.7	19.5	88.8	0	0
13661	2011-08-20T04:00:00	19	4.06	ND	1574.25	ND	ND	0.1	232.4	19.6	87.8	0	0
13662	2011-08-20T05:00:00	28	3.32	ND	1237.33	ND	ND	0.1	295.5	19.9	86.1	0	0
13663	2011-08-20T06:00:00	39	3.45	ND	1227.34	ND	ND	0.4	2.3	20	85.9	0	0
13664	2011-08-20T07:00:00	56	6.75	ND	1520.62	ND	ND	1.3	13.9	20.2	84.3	11.3	0
13665	2011-08-20T08:00:00	91	8.20	ND	1611.83	ND	ND	0.2	271.1	20.8	81.1	90.2	0
13666	2011-08-20T09:00:00	76	35.70	ND	2258.92	ND	ND	0.5	216.2	22.5	73.2	260.3	0
13667	2011-08-20T10:00:00	82	101.25	ND	2374.23	ND	ND	0.6	130.4	24.8	62.1	474.1	0
13668	2011-08-20T11:00:00	48	104.45	ND	2884.99	ND	ND	0.7	87	26.8	54.7	610.1	0
13669	2011-08-20T12:00:00	50	81.45	ND	2581.66	ND	ND	0.9	73.7	27.7	51.2	392.2	0
13670	2011-08-20T13:00:00	27	66.87	ND	2080.78	ND	ND	0.8	52.6	28.2	50.5	401.2	0
13671	2011-08-20T14:00:00	38	37.29	ND	1875.81	ND	ND	1.6	34	28.6	49.7	339.1	0
13672	2011-08-20T15:00:00	20	23.28	ND	1727.58	ND	ND	2.8	270.6	26.1	58.6	87.3	0
13673	2011-08-20T16:00:00	26	18.67	ND	1920.23	ND	ND	3.1	267.8	26.1	59.1	366.8	0
13674	2011-08-20T17:00:00	15	16.78	ND	1644.27	ND	ND	3.4	286.7	27	53.9	249.4	0
13675	2011-08-20T18:00:00	13	11.53	ND	1649.21	ND	ND	2.9	267	25.3	60.6	40	0
13676	2011-08-20T19:00:00	8	7.92	ND	1410.52	ND	ND	2.4	264.8	24.7	60	0.1	0
13677	2011-08-20T20:00:00	5	7.38	ND	1533.57	ND	ND	2.6	198.9	23	73.7	0	0
13678	2011-08-20T21:00:00	5	7.65	ND	1627.22	ND	ND	1.3	179.5	22.8	75.5	0	0
13679	2011-08-20T22:00:00	4	8.50	ND	1592.01	ND	ND	1.1	251.3	22.8	73.2	0	0
13680	2011-08-20T23:00:00	3	8.71	ND	2171.96	ND	ND	0.7	267.1	22.8	71.3	0	0
13681	2011-08-21T00:00:00	3	8.37	ND	1899.04	ND	ND	1.4	52.3	21.6	80.8	0	0
13682	2011-08-21T01:00:00	2	7.67	ND	1664.83	ND	ND	1.2	31.2	20.9	83.3	0	0
13683	2011-08-21T02:00:00	34	7.13	ND	1965.93	ND	ND	0.6	21.1	20.8	83	0	0
13684	2011-08-21T03:00:00	31	5.84	ND	1592.54	ND	ND	0.3	330.2	20.8	83.1	0	0
13685	2011-08-21T04:00:00	26	7.57	ND	1547.36	ND	ND	0.5	234.6	20.7	79.9	0	0
13686	2011-08-21T05:00:00	13	14.87	ND	1671.03	ND	ND	0.8	254.9	20.4	77.9	0	0
13687	2011-08-21T06:00:00	6	20.33	ND	1477.58	ND	ND	0.6	141.1	20.1	83	0	0
13688	2011-08-21T07:00:00	5	15.08	ND	1273.25	ND	ND	0.3	130.4	19.7	89.1	6.2	0
13689	2011-08-21T08:00:00	31	11.63	ND	1687.85	ND	ND	0.4	261.6	20.4	84	65.5	0
13690	2011-08-21T09:00:00	22	9.08	ND	1872.35	ND	ND	0.6	85.8	23.1	73.1	390.8	0
13691	2011-08-21T10:00:00	50	9.79	ND	1764.37	ND	ND	0.8	49.9	24.6	67.6	418.6	0
13692	2011-08-21T11:00:00	27	37.24	ND	1727.55	ND	ND	1.1	86.3	26	61.2	491.2	0
13693	2011-08-21T12:00:00	23	85.39	ND	1574.75	ND	ND	1.2	80.9	27.3	55.9	595.6	0
13694	2011-08-21T13:00:00	17	36.70	ND	1558.51	ND	ND	1.1	67.5	28.3	51.5	425	0
13695	2011-08-21T14:00:00	9	20.29	ND	1494.20	ND	ND	1.4	78.7	29	48.5	365.6	0
13696	2011-08-21T15:00:00	6	20.23	ND	1451.23	ND	ND	1.1	326.1	30.2	44.5	638.3	0
13697	2011-08-21T16:00:00	5	16.74	ND	1666.80	ND	ND	2.9	276.7	29.7	45.7	316.2	0
13698	2011-08-21T17:00:00	4	20.63	ND	1268.41	ND	ND	3.9	278.7	28.8	47.6	292.2	0
13699	2011-08-21T18:00:00	2	8.36	ND	1137.01	ND	ND	4.3	268.9	27.5	51.5	112	0
13700	2011-08-21T19:00:00	16	5.39	ND	1085.91	ND	ND	3.4	265.8	26.4	54.8	1.5	0
13701	2011-08-21T20:00:00	10	5.24	ND	1070.42	ND	ND	1.8	270.8	25.9	57.2	0	0
13702	2011-08-21T21:00:00	6	5.52	ND	1183.54	ND	ND	0.8	223.6	25.2	63.6	0	0
13703	2011-08-21T22:00:00	13	5.64	ND	1398.58	ND	ND	2.4	196.1	24.1	70.6	0	0
13704	2011-08-21T23:00:00	15	6.92	ND	1747.49	ND	ND	1.5	187.2	24.2	69.7	0	0
13705	2011-08-22T00:00:00	20	6.06	ND	1428.16	ND	ND	1.2	189.7	24	70.5	0	0
13706	2011-08-22T01:00:00	12	5.90	ND	1609.89	ND	ND	1	147.7	23.5	73	0	0
13707	2011-08-22T02:00:00	7	5.66	ND	1550.18	ND	ND	0.7	179.5	22.7	76.2	0	0
13708	2011-08-22T03:00:00	5	5.12	ND	1364.12	ND	ND	0.6	155	22.9	75.8	0	0
13709	2011-08-22T04:00:00	9	4.45	ND	1183.04	ND	ND	1.2	177.1	22.8	75.4	0	0
13710	2011-08-22T05:00:00	6	4.50	ND	1148.52	ND	ND	1.1	143.5	22.2	79.2	0	0
13711	2011-08-22T06:00:00	13	5.14	ND	1202.93	ND	ND	0.3	22.5	21.9	79.6	0	0
13712	2011-08-22T07:00:00	16	5.39	ND	1247.06	ND	ND	0.8	62.1	21.8	81.4	32.7	0
13713	2011-08-22T08:00:00	61	2.49	ND	1575.29	ND	ND	0.7	65.8	22.7	78	151.8	0
13714	2011-08-22T09:00:00	42	8.68	ND	2523.62	ND	ND	1.3	71.3	23	76.1	199.4	0
13715	2011-08-22T10:00:00	63	16.55	ND	3038.24	ND	ND	0.7	150.3	24.8	67.7	498.5	0
13716	2011-08-22T11:00:00	42	20.74	ND	2278.23	ND	ND	0.9	138.2	27	57.3	727.8	0
13717	2011-08-22T12:00:00	29	20.23	ND	1776.08	ND	ND	1.2	124.8	28.5	51.5	747.8	0
13718	2011-08-22T13:00:00	15	16.28	ND	1634.28	ND	ND	1.3	107.4	29.7	46.8	648.3	0
13719	2011-08-22T14:00:00	21	12.99	ND	1629.15	ND	ND	0.5	119.6	30.4	44	589.3	0
13720	2011-08-22T15:00:00	46	12.14	ND	1866.19	ND	ND	0.9	62.4	30.9	42.6	373	0
13721	2011-08-22T16:00:00	55	10.26	ND	1612.24	ND	ND	2.7	50.7	30.2	46.3	140	0
13722	2011-08-22T17:00:00	50	12.05	ND	1899.92	ND	ND	2.6	276.6	29.4	47.1	193.2	0
13723	2011-08-22T18:00:00	37	23.93	ND	2220.42	ND	ND	3.4	279.1	27.6	53.6	24.4	0
13724	2011-08-22T19:00:00	19	12.48	ND	1848.96	ND	ND	4.4	268.8	25.9	59.8	0.2	0
13725	2011-08-22T20:00:00	27	7.65	ND	1746.58	ND	ND	4.4	275.8	25.8	54	0	0
13726	2011-08-22T21:00:00	15	6.20	ND	1596.67	ND	ND	2.6	183.5	23.9	63.1	0	0
13727	2011-08-22T22:00:00	31	5.01	ND	1209.86	ND	ND	1.1	116.4	22.2	70.8	0	0
13728	2011-08-22T23:00:00	17	4.78	ND	1395.86	ND	ND	1	186.4	21.6	75.7	0	0
13729	2011-08-23T00:00:00	10	4.79	ND	1800.73	ND	ND	0.2	239.2	22.3	71.2	0	0
13730	2011-08-23T01:00:00	7	3.92	ND	1396.33	ND	ND	1.1	264	22.8	67.8	0	0
13731	2011-08-23T02:00:00	5	3.75	ND	1307.72	ND	ND	0.7	203.5	21.9	72.7	0	0
13732	2011-08-23T03:00:00	5	3.99	ND	1326.42	ND	ND	0.4	165.7	20.5	83.7	0	0
13733	2011-08-23T04:00:00	16	3.48	ND	1252.42	ND	ND	0.6	225	21	81.1	0	0
13734	2011-08-23T05:00:00	10	2.69	ND	1209.35	ND	ND	1.1	278.3	21.5	76.6	0	0
13735	2011-08-23T06:00:00	23	3.03	ND	1256.69	ND	ND	0.7	279	21.7	74.4	0	0
13736	2011-08-23T07:00:00	38	3.86	ND	1302.86	ND	ND	0.8	54.3	21.4	78.8	32.8	0
13737	2011-08-23T08:00:00	68	7.97	ND	1426.03	ND	ND	0.4	77.6	22.4	76.5	185.1	0
13738	2011-08-23T09:00:00	50	12.91	ND	2441.57	ND	ND	0.6	130.9	24.4	66.8	378.3	0
13739	2011-08-23T10:00:00	73	20.21	ND	2698.19	ND	ND	1.1	143.6	26	59	575.9	0
13740	2011-08-23T11:00:00	39	22.22	ND	2643.74	ND	ND	0.8	139.2	27.9	51.6	664.1	0
13741	2011-08-23T12:00:00	47	ND	ND	ND	ND	ND	1	86.3	28.6	49.8	524.8	0
13742	2011-08-23T13:00:00	31	ND	ND	ND	ND	ND	1.3	114.8	29.4	48.2	513.7	0
13743	2011-08-23T14:00:00	40	ND	ND	ND	ND	ND	2.3	304.6	29.5	46.4	313.2	0
13744	2011-08-23T15:00:00	21	0.77	ND	290.73	ND	ND	2.9	291.3	29.3	45	358.9	0
13745	2011-08-23T16:00:00	13	ND	ND	ND	ND	ND	3.6	286.7	27.7	51.5	93.9	0
13746	2011-08-23T17:00:00	8	ND	ND	ND	ND	ND	2.9	275.4	26.4	53.8	68.2	0
13747	2011-08-23T18:00:00	19	ND	ND	11.51	ND	ND	2	255.4	26.1	52.9	21.6	0
13748	2011-08-23T19:00:00	23	ND	ND	ND	ND	ND	2	211.2	24.5	64.6	0	0
13749	2011-08-23T20:00:00	30	ND	ND	ND	ND	ND	2.2	153.2	22.1	78.2	0	0
13750	2011-08-23T21:00:00	17	ND	ND	238.24	ND	ND	1.9	158	20.8	84.9	0	7.62
13751	2011-08-23T22:00:00	13	ND	ND	146.83	ND	ND	2.8	190.5	19.5	92.2	0	8.89
13752	2011-08-23T23:00:00	8	ND	ND	11.24	ND	ND	1.7	182.3	19.6	91.7	0	0.25
13753	2011-08-24T00:00:00	6	ND	ND	ND	ND	ND	1.6	191.2	19.5	91	0	5.33
13754	2011-08-24T01:00:00	3	ND	ND	ND	ND	ND	1	220.2	19.6	89.5	0	0.25
13755	2011-08-24T02:00:00	1	ND	ND	ND	ND	ND	0.7	159.6	20	88.7	0	0
13756	2011-08-24T03:00:00	2	ND	ND	ND	ND	ND	1.2	102.1	19.2	92	0	0
13757	2011-08-24T04:00:00	3	ND	ND	ND	ND	ND	1.1	17.4	19.2	91.6	0	0.25
13758	2011-08-24T05:00:00	2	ND	ND	ND	ND	ND	1.1	0.6	19.5	89.7	0	0
13759	2011-08-24T06:00:00	4	ND	ND	ND	ND	ND	0.7	269.2	19.8	87.9	0	0
13760	2011-08-24T07:00:00	4	ND	ND	ND	ND	ND	0.8	220.5	20.6	81.6	13.7	0
13761	2011-08-24T08:00:00	23	ND	ND	ND	ND	ND	1.1	151.9	19.8	88.3	59.7	0
13762	2011-08-24T09:00:00	37	ND	ND	292.66	ND	ND	0.2	259	20.3	84.6	118.5	0
13763	2011-08-24T10:00:00	55	ND	ND	676.52	ND	ND	0.2	50	21.7	78.1	242.5	0
13764	2011-08-24T11:00:00	35	ND	ND	226.58	ND	ND	1.3	41.6	23.5	68.5	491.7	0
13765	2011-08-24T12:00:00	24	2.01	ND	501.53	ND	ND	1.7	30.2	25.2	62.6	609.4	0
13766	2011-08-24T13:00:00	14	5.32	ND	171.96	ND	ND	1.7	29.1	26.2	58.2	450.8	0
13767	2011-08-24T14:00:00	9	6.21	ND	ND	ND	ND	1.7	32.1	26.9	55.5	521.9	0
13768	2011-08-24T15:00:00	5	6.67	ND	46.12	ND	ND	1.5	35.7	27	55.3	376.1	0
13769	2011-08-24T16:00:00	24	1.42	ND	ND	ND	ND	1	38.5	27.1	55.4	281.3	0
13770	2011-08-24T17:00:00	13	3.19	ND	ND	ND	ND	1.1	19.3	27.7	54.9	277.8	0
13771	2011-08-24T18:00:00	32	1.37	ND	ND	ND	ND	0.6	347.6	27	56.4	76.2	0
13772	2011-08-24T19:00:00	17	1.32	ND	ND	ND	ND	3.2	273.8	25.4	58.7	0.6	0
13773	2011-08-24T20:00:00	9	5.51	ND	ND	ND	ND	3.8	272.5	24.3	63.4	0	0
13774	2011-08-24T21:00:00	7	ND	ND	ND	ND	ND	2.5	275.9	24.4	61.4	0	0
13775	2011-08-24T22:00:00	20	ND	ND	ND	ND	ND	0.6	66.7	23.9	66.1	0	0
13776	2011-08-24T23:00:00	12	ND	ND	ND	ND	ND	0.4	125	23	71.1	0	0
13777	2011-08-25T00:00:00	28	ND	ND	ND	ND	ND	1.4	223.7	22.7	73.2	0	0
13778	2011-08-25T01:00:00	15	ND	ND	ND	ND	ND	0.8	229.6	22.3	71.6	0	0
13779	2011-08-25T02:00:00	9	ND	ND	ND	ND	ND	0.2	61.5	21.6	76.5	0	0
13780	2011-08-25T03:00:00	7	ND	ND	ND	ND	ND	0.3	79.7	21.1	80.5	0	0
13781	2011-08-25T04:00:00	20	ND	ND	ND	ND	ND	0	207.1	21.1	81	0	0
13782	2011-08-25T05:00:00	11	ND	ND	ND	ND	ND	0	211.3	21.4	80.1	0	0
13783	2011-08-25T06:00:00	25	ND	ND	ND	ND	ND	0.5	70.6	21	81.8	0	0
13784	2011-08-25T07:00:00	43	ND	ND	ND	ND	ND	0.7	50.3	20.4	83.8	17	0
13785	2011-08-25T08:00:00	60	ND	ND	ND	ND	ND	0.1	15.1	21.6	78.6	149.8	0
13786	2011-08-25T09:00:00	71	ND	ND	ND	ND	ND	0.9	166.8	22.8	74.3	202.5	0
13787	2011-08-25T10:00:00	87	1.22	ND	ND	ND	ND	0.5	178.7	24.5	67.6	481.7	0
13788	2011-08-25T11:00:00	55	2.49	ND	ND	ND	ND	1	121.1	26.7	58.1	584.7	0
13789	2011-08-25T12:00:00	67	0.95	ND	ND	ND	ND	1.1	85.4	27.9	53.2	613.9	0
13790	2011-08-25T13:00:00	40	ND	ND	ND	ND	ND	0.8	38.4	28.4	51.6	544.4	0
13791	2011-08-25T14:00:00	56	0.77	ND	ND	ND	ND	0.9	43.9	29.9	47.9	759.7	0
13792	2011-08-25T15:00:00	42	0.69	ND	ND	ND	ND	0.5	118.8	30.9	44.8	523.2	0
13793	2011-08-25T16:00:00	62	2.06	ND	ND	ND	ND	1.4	312.8	30.2	46.9	121	0
13794	2011-08-25T17:00:00	33	5.09	ND	ND	ND	ND	3.4	282.6	29.1	49.7	215.2	0
13795	2011-08-25T18:00:00	20	7.09	ND	ND	ND	ND	3.5	274.7	27.7	53.5	50.4	0
13796	2011-08-25T19:00:00	17	ND	ND	ND	ND	ND	3.8	267.5	26.5	56.5	0.1	0
13797	2011-08-25T20:00:00	19	ND	ND	ND	ND	ND	3.7	271.8	26	58	0	0
13798	2011-08-25T21:00:00	12	ND	ND	ND	ND	ND	3.5	271.8	25.5	60.5	0	0
13799	2011-08-25T22:00:00	7	ND	ND	ND	ND	ND	0.9	289.7	25.6	59.8	0	0
13800	2011-08-25T23:00:00	4	ND	ND	ND	ND	ND	0.9	267.8	25.1	62	0	0
13801	2011-08-26T00:00:00	17	ND	ND	ND	ND	ND	0.3	354.2	23.9	69.1	0	0
13802	2011-08-26T01:00:00	10	ND	ND	ND	ND	ND	0.4	129.3	23.1	72.4	0	0
13803	2011-08-26T02:00:00	25	ND	ND	ND	ND	ND	0.9	186.9	22.8	76.2	0	0
13804	2011-08-26T03:00:00	24	ND	ND	ND	ND	ND	0.7	191.5	22.8	76.1	0	0
13805	2011-08-26T04:00:00	29	ND	ND	ND	ND	ND	0.5	198.1	22.6	74.8	0	0
13806	2011-08-26T05:00:00	16	ND	ND	ND	ND	ND	0.2	181.3	22.1	78.7	0	0
13807	2011-08-26T06:00:00	41	ND	ND	ND	ND	ND	0	82.4	21.9	78.9	0	0
13808	2011-08-26T07:00:00	54	ND	ND	ND	ND	ND	0.4	234.5	21.6	78	27.1	0
13809	2011-08-26T08:00:00	74	ND	ND	ND	ND	ND	0.5	74.5	23.2	72.8	181	0
13810	2011-08-26T09:00:00	92	ND	ND	ND	ND	ND	1.1	13.9	24.5	68	360.6	0
13811	2011-08-26T10:00:00	90	ND	ND	ND	ND	ND	1.2	125.7	26.4	60.7	537.1	0
13812	2011-08-26T11:00:00	46	106.96	ND	ND	ND	ND	1.1	156.3	27.4	56.2	705.1	0
13813	2011-08-26T12:00:00	62	136.77	ND	ND	ND	ND	1.2	115.2	29.4	50.1	804.6	0
13814	2011-08-26T13:00:00	47	24.97	ND	ND	ND	ND	1.3	98.6	30.5	46.1	823.6	0
13815	2011-08-26T14:00:00	59	11.48	ND	ND	ND	ND	0.8	32.6	31.6	42.5	605.5	0
13816	2011-08-26T15:00:00	34	7.23	ND	ND	ND	ND	1.2	45.6	31.9	39.8	407.4	0
13817	2011-08-26T16:00:00	44	14.37	ND	ND	ND	ND	2.4	268.8	31.2	43.2	351.4	0
13818	2011-08-26T17:00:00	36	13.59	ND	ND	ND	ND	2.8	269.7	30.6	45.5	173.3	0
13819	2011-08-26T18:00:00	32	0.80	ND	ND	ND	ND	3.5	273.6	28.8	51.3	33.6	0
13820	2011-08-26T19:00:00	17	ND	ND	ND	ND	ND	4	270.5	27.5	54.5	0	0
13821	2011-08-26T20:00:00	28	ND	ND	ND	ND	ND	4.8	270.2	26.6	57.7	0	0
13822	2011-08-26T21:00:00	15	ND	ND	ND	ND	ND	4.6	273.9	25.9	57.6	0	0
13823	2011-08-26T22:00:00	15	ND	ND	ND	ND	ND	1.2	281.9	26.4	51.9	0	0
13824	2011-08-26T23:00:00	9	ND	ND	ND	ND	ND	2.1	261.5	25.8	52	0	0
13825	2011-08-27T00:00:00	6	ND	ND	ND	ND	ND	1.4	259.9	24.9	58.2	0	0
13826	2011-08-27T01:00:00	5	ND	ND	ND	ND	ND	0.2	69.5	23.8	65.7	0	0
13827	2011-08-27T02:00:00	8	ND	ND	ND	ND	ND	1.7	182.4	23.3	70	0	0
13828	2011-08-27T03:00:00	17	ND	ND	ND	ND	ND	0.8	164.1	22.2	74.8	0	0
13829	2011-08-27T04:00:00	33	ND	ND	ND	ND	ND	0.4	181.5	21.8	74	0	0
13830	2011-08-27T05:00:00	18	ND	ND	ND	ND	ND	0.5	253.6	21.9	70.5	0	0
13831	2011-08-27T06:00:00	34	ND	ND	ND	ND	ND	0.8	47.7	21.1	77.3	0	0
13832	2011-08-27T07:00:00	43	ND	ND	ND	ND	ND	0.3	7	21	80	35.9	0
13833	2011-08-27T08:00:00	78	ND	ND	ND	ND	ND	0.5	330.2	22.4	73.5	107.2	0
13834	2011-08-27T09:00:00	75	ND	ND	ND	ND	ND	1.3	62.7	24	66.9	233.9	0
13835	2011-08-27T10:00:00	81	5.54	ND	ND	ND	ND	0.9	61.6	25	62.8	389.9	0
13836	2011-08-27T11:00:00	41	62.96	ND	ND	ND	ND	1.3	105.7	27.1	54.9	650.2	0
13837	2011-08-27T12:00:00	44	89.24	ND	ND	ND	ND	0.8	98.8	28.9	48.5	831	0
13838	2011-08-27T13:00:00	25	38.65	ND	ND	ND	ND	1.3	64.2	30.5	43.2	837.2	0
13839	2011-08-27T14:00:00	38	15.05	ND	ND	ND	ND	1.2	82	31.6	40	801	0
13840	2011-08-27T15:00:00	26	6.86	ND	ND	ND	ND	0.4	87	31.8	39.2	452	0
13841	2011-08-27T16:00:00	30	1.58	ND	ND	ND	ND	4	281.5	30.1	44.1	176.3	0
13842	2011-08-27T17:00:00	16	2.45	ND	ND	ND	ND	4.7	279.7	29.1	47	219.5	0
13843	2011-08-27T18:00:00	20	ND	ND	ND	ND	ND	5.1	271.8	27.4	52	45.3	0
13844	2011-08-27T19:00:00	11	ND	ND	ND	ND	ND	5.5	270.2	26.5	55	0.3	0
13845	2011-08-27T20:00:00	10	ND	ND	ND	ND	ND	5.5	272.7	25.9	57.3	0	0
13846	2011-08-27T21:00:00	7	ND	ND	ND	ND	ND	4.6	279.8	25.6	58.2	0	0
13847	2011-08-27T22:00:00	5	ND	ND	ND	ND	ND	3.5	281.6	25.5	58	0	0
13848	2011-08-27T23:00:00	3	ND	ND	ND	ND	ND	2.4	276.6	25.3	58	0	0
13849	2011-08-28T00:00:00	3	ND	ND	ND	ND	ND	1.6	232.9	24.8	61.3	0	0
13850	2011-08-28T01:00:00	7	ND	ND	ND	ND	ND	1	289	24	67.1	0	0
13851	2011-08-28T02:00:00	6	ND	ND	ND	ND	ND	0.6	172	23.2	74.5	0	0
13852	2011-08-28T03:00:00	6	ND	ND	ND	ND	ND	0.7	5.9	23.2	73.3	0	0
13853	2011-08-28T04:00:00	37	ND	ND	ND	ND	ND	1.1	25	22.5	77.6	0	0
13854	2011-08-28T05:00:00	51	ND	ND	ND	ND	ND	0.8	5	22.3	80.2	0	0
13855	2011-08-28T06:00:00	28	ND	ND	ND	ND	ND	0.3	332.5	22.6	75.9	0	0
13856	2011-08-28T07:00:00	19	ND	ND	ND	ND	ND	1	76.5	22.1	79.7	6.4	0
13857	2011-08-28T08:00:00	33	ND	ND	ND	ND	ND	0.6	120.6	22.1	78.6	77.1	0
13858	2011-08-28T09:00:00	18	ND	ND	ND	ND	ND	0.4	89.3	24.3	69.5	434.2	0
13859	2011-08-28T10:00:00	28	ND	ND	ND	ND	ND	1.3	52.5	25.2	63.2	325.3	0
13860	2011-08-28T11:00:00	31	0.31	ND	ND	ND	ND	0	92.1	25.6	60.7	392.5	0
13861	2011-08-28T12:00:00	27	32.56	ND	ND	ND	ND	0.7	39.2	27.4	54.5	659.1	0
13862	2011-08-28T13:00:00	17	24.59	ND	ND	ND	ND	1.2	83.2	29.1	48.8	813.8	0
13863	2011-08-28T14:00:00	26	9.08	ND	ND	ND	ND	1.1	90.8	29.8	45.3	590.7	0
13864	2011-08-28T15:00:00	14	1.84	ND	ND	ND	ND	1	44.4	30.8	40.8	503.6	0
13865	2011-08-28T16:00:00	8	ND	ND	ND	ND	ND	2.6	296	29.4	47.6	131.5	0
13866	2011-08-28T17:00:00	6	ND	ND	ND	ND	ND	3.7	271.3	27.7	52.9	105.6	0
13867	2011-08-28T18:00:00	5	ND	ND	ND	ND	ND	4.3	271.1	26.8	54.8	34.4	0
13868	2011-08-28T19:00:00	3	ND	ND	ND	ND	ND	3.9	264.9	26	58.3	0	0
13869	2011-08-28T20:00:00	2	ND	ND	ND	ND	ND	2.7	279.1	25.8	58.7	0	0
13870	2011-08-28T21:00:00	2	ND	ND	ND	ND	ND	2.4	276	25.9	58.5	0	0
13871	2011-08-28T22:00:00	8	ND	ND	ND	ND	ND	2	231.9	25.2	65.5	0	0
13872	2011-08-28T23:00:00	5	ND	ND	ND	ND	ND	1.3	247.2	25	63.3	0	0
13873	2011-08-29T00:00:00	10	ND	ND	ND	ND	ND	1.1	341.2	25	61.2	0	0
13874	2011-08-29T01:00:00	6	ND	ND	ND	ND	ND	1.6	110.2	23.2	73.8	0	0
13875	2011-08-29T02:00:00	3	ND	ND	ND	ND	ND	1.1	204.4	21	89.4	0	7.37
13876	2011-08-29T03:00:00	3	ND	ND	ND	ND	ND	1.2	161	20.8	91.3	0	0.25
13877	2011-08-29T04:00:00	3	ND	ND	ND	ND	ND	1	159.4	20.7	86.6	0	0.25
13878	2011-08-29T05:00:00	2	ND	ND	ND	ND	ND	0.4	117.4	20.4	88.9	0	0
13879	2011-08-29T06:00:00	2	ND	ND	ND	ND	ND	0.2	288	20.8	85.5	0	0
13880	2011-08-29T07:00:00	15	ND	ND	ND	ND	ND	0.4	278.1	21	83.9	34.7	0
13881	2011-08-29T08:00:00	24	ND	ND	ND	ND	ND	0.5	215.4	22.1	74.1	140.4	0
13882	2011-08-29T09:00:00	27	ND	ND	ND	ND	ND	0.9	119	23.1	73.8	252.6	0
13883	2011-08-29T10:00:00	27	ND	ND	ND	ND	ND	1.1	143.2	24.7	68	527.7	0
13884	2011-08-29T11:00:00	16	ND	ND	ND	ND	ND	1.2	169.1	26	63.3	691.2	0
13885	2011-08-29T12:00:00	12	ND	ND	ND	ND	ND	1.1	146.2	27.9	53.9	852.4	0
13886	2011-08-29T13:00:00	8	ND	ND	ND	ND	ND	1.2	108.1	29.1	49.9	661.5	0
13887	2011-08-29T14:00:00	13	ND	ND	ND	ND	ND	1.1	119.7	29.5	50	557.7	0
13888	2011-08-29T15:00:00	16	ND	ND	ND	ND	ND	0.8	100.4	30.1	47.9	506.4	0
13889	2011-08-29T16:00:00	17	ND	ND	ND	ND	ND	1	156.5	30.8	45.8	423.9	0
13890	2011-08-29T17:00:00	13	ND	ND	ND	ND	ND	1.2	144.7	30.4	46.9	162.6	0
13891	2011-08-29T18:00:00	32	ND	ND	ND	ND	ND	0.9	211.8	29.6	49	82.8	0
13892	2011-08-29T19:00:00	23	ND	ND	ND	ND	ND	2.5	262.6	27.6	57.6	0.4	0
13893	2011-08-29T20:00:00	31	ND	ND	ND	ND	ND	2.5	274.5	26.8	57.9	0	0
13894	2011-08-29T21:00:00	17	ND	ND	ND	ND	ND	3.8	262.3	25.9	62.4	0	0
13895	2011-08-29T22:00:00	10	ND	ND	ND	ND	ND	1.1	284.2	25.3	64.8	0	0
13896	2011-08-29T23:00:00	9	ND	ND	ND	ND	ND	1.2	276.5	25.1	63.6	0	0
13897	2011-08-30T00:00:00	12	ND	ND	ND	ND	ND	1.3	258.2	24.7	63.5	0	0
13898	2011-08-30T01:00:00	8	ND	ND	ND	ND	ND	0.7	272.6	24.2	66.3	0	0
13899	2011-08-30T02:00:00	11	ND	ND	ND	ND	ND	0.5	234	23.9	68.2	0	0
13900	2011-08-30T03:00:00	14	ND	ND	ND	ND	ND	0.7	104.5	22.9	75.4	0	0
13901	2011-08-30T04:00:00	31	ND	ND	ND	ND	ND	0.4	121.5	22.1	81.2	0	0
13902	2011-08-30T05:00:00	16	ND	ND	ND	ND	ND	0.2	242.6	22.1	79.5	0	0
13903	2011-08-30T06:00:00	24	ND	ND	ND	ND	ND	0.4	157.8	21.8	78.9	0	0
13904	2011-08-30T07:00:00	53	ND	ND	ND	ND	ND	0.2	40.7	21.4	83.5	34.3	0
13905	2011-08-30T08:00:00	80	ND	ND	ND	ND	ND	0.6	74.8	23.3	75.2	187.3	0
13906	2011-08-30T09:00:00	80	ND	ND	877.09	ND	ND	1.4	85.7	24.4	69.6	377.7	0
13907	2011-08-30T10:00:00	96	ND	ND	1863.58	ND	ND	0.9	100.6	26.4	58.8	585.1	0
13908	2011-08-30T11:00:00	61	6.24	ND	782.67	ND	ND	0.9	136.9	28.1	51.4	740.2	0
13909	2011-08-30T12:00:00	56	1.59	ND	46.30	ND	ND	1.4	72	29.5	48	818.4	0
13910	2011-08-30T13:00:00	30	0.08	ND	11.63	ND	ND	1	100.8	30.6	44.2	816.8	0
13911	2011-08-30T14:00:00	24	ND	ND	23.34	ND	ND	1	95.5	32	38.4	800	0
13912	2011-08-30T15:00:00	39	ND	ND	23.45	ND	ND	1.1	107.4	33.2	34.3	694.3	0
13913	2011-08-30T16:00:00	49	ND	ND	82.40	ND	ND	1.3	150.6	32.8	34.4	265.1	0
13914	2011-08-30T17:00:00	32	1.02	ND	23.51	ND	ND	3.6	268.4	31.4	43.9	296.9	0
13915	2011-08-30T18:00:00	48	1.12	ND	11.70	ND	ND	3.8	269	29.1	50	96.7	0
13916	2011-08-30T19:00:00	39	ND	ND	ND	ND	ND	3.4	283.7	27.7	53.3	0.5	0
13917	2011-08-30T20:00:00	30	ND	ND	ND	ND	ND	3.8	273.9	26.9	56.1	0	0
13918	2011-08-30T21:00:00	16	ND	ND	ND	ND	ND	2.9	268.8	26.7	55.2	0	0
13919	2011-08-30T22:00:00	12	ND	ND	ND	ND	ND	2.9	252.8	26	58.2	0	0
13920	2011-08-30T23:00:00	7	ND	ND	ND	ND	ND	2.9	255.1	25.5	59.8	0	0
13921	2011-08-31T00:00:00	5	ND	ND	ND	ND	ND	0.5	326.5	25	62.9	0	0
13922	2011-08-31T01:00:00	25	ND	ND	ND	ND	ND	1.1	17.8	23.6	71.9	0	0
13923	2011-08-31T02:00:00	37	ND	ND	11.40	ND	ND	0.8	180.1	23.9	68.8	0	0
13924	2011-08-31T03:00:00	36	ND	ND	22.83	ND	ND	1.8	185.3	23.7	68.2	0	0
13925	2011-08-31T04:00:00	37	ND	ND	ND	ND	ND	0.6	89.6	23.2	71.7	0	0
13926	2011-08-31T05:00:00	32	ND	ND	ND	ND	ND	1	208.9	23	74	0	0
13927	2011-08-31T06:00:00	40	ND	ND	ND	ND	ND	0.8	174.2	22.8	72.3	0	0
13928	2011-08-31T07:00:00	38	ND	ND	ND	ND	ND	0.4	186.7	23	72.8	21.6	0
13929	2011-08-31T08:00:00	56	ND	ND	22.76	ND	ND	0.5	223.1	24.3	64.3	181.3	0
13930	2011-08-31T09:00:00	56	ND	ND	560.03	ND	ND	1.2	143.7	25.6	56.7	343.2	0
13931	2011-08-31T10:00:00	62	ND	ND	551.00	ND	ND	1	125.3	27.5	50.9	584.9	0
13932	2011-08-31T11:00:00	50	ND	ND	311.91	ND	ND	1.6	91.3	29	47.7	717	0
13933	2011-08-31T12:00:00	52	ND	ND	116.10	ND	ND	2.2	80.1	29.2	49.3	522	0
13934	2011-08-31T13:00:00	54	ND	ND	58.09	ND	ND	1.7	84.3	28.9	51	371	0
13935	2011-08-31T14:00:00	41	ND	ND	34.82	ND	ND	0.5	156.2	30.8	42.1	731.9	0
13936	2011-08-31T15:00:00	22	ND	ND	233.58	ND	ND	0.9	199.8	32.9	29.1	559.9	0
13937	2011-08-31T16:00:00	28	ND	ND	70.56	ND	ND	1.8	147.8	33	28.8	417	0
13938	2011-08-31T17:00:00	26	ND	ND	ND	ND	ND	2.2	95.4	32	33.9	219.4	0
13939	2011-08-31T18:00:00	62	ND	ND	70.35	ND	ND	0.7	118.4	30.6	40.8	55.4	0
13940	2011-08-31T19:00:00	37	ND	ND	396.83	ND	ND	2.7	267.1	28.5	49.4	0.7	0
13941	2011-08-31T20:00:00	36	0.08	ND	649.07	ND	ND	3.3	263.9	27.3	54.1	0	0
13942	2011-08-31T21:00:00	28	ND	ND	161.62	ND	ND	3.1	266.8	26.8	55.8	0	0
13943	2011-08-31T22:00:00	18	ND	ND	ND	ND	ND	2.5	281.2	26.5	56.9	0	0
13944	2011-08-31T23:00:00	10	ND	ND	ND	ND	ND	1.8	269.9	26.2	57	0	0
13945	2011-09-01T00:00:00	13	ND	ND	ND	ND	ND	0.9	211	24.7	61.5	0	0
13946	2011-09-01T01:00:00	9	ND	ND	ND	ND	ND	1.7	264.5	24.5	60.5	0	0
13947	2011-09-01T02:00:00	8	ND	ND	ND	ND	ND	1.5	243.8	23.7	58.2	0	0
13948	2011-09-01T03:00:00	12	ND	ND	ND	ND	ND	0.4	147.3	22.9	66.8	0	0
13949	2011-09-01T04:00:00	18	ND	ND	ND	ND	ND	0.3	142.2	22.2	74.1	0	0
13950	2011-09-01T05:00:00	11	ND	ND	ND	ND	ND	1	169.5	21.8	76.7	0	0
13951	2011-09-01T06:00:00	42	ND	ND	ND	ND	ND	1.1	216.9	21.8	65.6	0	0
13952	2011-09-01T07:00:00	22	ND	ND	ND	ND	ND	1.1	206.3	22.3	62.4	57.4	0
13953	2011-09-01T08:00:00	50	ND	ND	ND	ND	ND	0.3	242.2	23.9	58.7	161.1	0
13954	2011-09-01T09:00:00	37	ND	ND	79.90	ND	ND	2	143.9	24.8	54.3	364.6	0
13955	2011-09-01T10:00:00	44	ND	ND	1637.12	ND	ND	1.1	137.4	26.8	51	643.2	0
13956	2011-09-01T11:00:00	33	0.03	ND	518.64	ND	ND	0.9	156.9	28.5	46.1	762.6	0
13957	2011-09-01T12:00:00	35	0.05	ND	34.77	ND	ND	0.9	146.9	30.1	40.4	796.6	0
13958	2011-09-01T13:00:00	18	ND	ND	ND	ND	ND	1	114.4	32	30.7	795.3	0
13959	2011-09-01T14:00:00	11	ND	ND	ND	ND	ND	1.7	159.8	33	23.5	649.4	0
13960	2011-09-01T15:00:00	7	ND	ND	70.58	ND	ND	1.2	128.2	32.6	23.1	286.7	0
13961	2011-09-01T16:00:00	24	ND	ND	0.00	ND	ND	1.2	234.9	31.3	31.7	140.2	0
13962	2011-09-01T17:00:00	22	ND	ND	11.70	ND	ND	3	270.2	29.4	43.5	139.7	0
13963	2011-09-01T18:00:00	26	ND	ND	34.88	ND	ND	3.3	267.1	28.2	48.1	44.3	0
13964	2011-09-01T19:00:00	30	ND	ND	243.16	ND	ND	4.3	267.7	26.9	52.5	0.1	0
13965	2011-09-01T20:00:00	16	ND	ND	ND	ND	ND	3.5	270.3	26.2	54.5	0	0
13966	2011-09-01T21:00:00	9	ND	ND	ND	ND	ND	3.5	272	25.7	57	0	0
13967	2011-09-01T22:00:00	6	ND	ND	ND	ND	ND	1.9	289.9	25.7	55	0	0
13968	2011-09-01T23:00:00	5	ND	ND	ND	ND	ND	0.7	84.5	24.1	66.1	0	0
13969	2011-09-02T00:00:00	51	ND	ND	ND	ND	ND	0.2	107.1	23.3	68.9	0	0
13970	2011-09-02T01:00:00	27	ND	ND	205.03	ND	ND	2	230.4	23.5	62.3	0	0
13971	2011-09-02T02:00:00	15	ND	ND	ND	ND	ND	1.8	248.8	23.3	62.5	0	0
13972	2011-09-02T03:00:00	9	ND	ND	ND	ND	ND	1	191.5	22.5	63.4	0	0
13973	2011-09-02T04:00:00	5	ND	ND	ND	ND	ND	0.6	182.8	21.7	61.8	0	0
13974	2011-09-02T05:00:00	7	ND	ND	ND	ND	ND	0.7	38.8	21	66.2	0	0
13975	2011-09-02T06:00:00	49	ND	ND	ND	ND	ND	0.2	50.9	20.2	73	0.1	0
13976	2011-09-02T07:00:00	26	ND	ND	ND	ND	ND	0.2	257.8	20.8	71.1	42.7	0
13977	2011-09-02T08:00:00	95	ND	ND	ND	ND	ND	0.7	126.5	21.7	62.5	184.4	0
13978	2011-09-02T09:00:00	100	14.07	ND	181.27	ND	ND	1	60.8	23.5	56.4	336.3	0
13979	2011-09-02T10:00:00	72	12.51	ND	2120.10	ND	ND	1.4	45.9	25.4	49.1	567.3	0
13980	2011-09-02T11:00:00	61	9.24	ND	1284.80	ND	ND	1.3	81.5	27.4	43.4	744.1	0
13981	2011-09-02T12:00:00	53	6.23	ND	ND	ND	ND	0.8	134.4	29.2	38.6	799.6	0
13982	2011-09-02T13:00:00	31	7.84	ND	11.62	ND	ND	0.9	151.4	30.6	34.1	872.5	0
13983	2011-09-02T14:00:00	45	9.42	ND	58.36	ND	ND	0.6	118.3	31.6	30.4	661.3	0
13984	2011-09-02T15:00:00	37	2.49	ND	175.65	ND	ND	1.6	303.6	31.5	35.3	565.7	0
13985	2011-09-02T16:00:00	56	ND	ND	35.12	ND	ND	4.8	281.9	29.5	43.6	400.3	0
13986	2011-09-02T17:00:00	30	0.24	ND	11.63	ND	ND	4.9	286.8	28.1	46	216.4	0
13987	2011-09-02T18:00:00	46	ND	ND	ND	ND	ND	ND	ND	ND	ND	ND	ND
13988	2011-09-02T19:00:00	30	ND	ND	ND	ND	ND	ND	ND	ND	ND	ND	ND
13989	2011-09-02T20:00:00	23	ND	ND	ND	ND	ND	ND	ND	ND	ND	ND	ND
13990	2011-09-02T21:00:00	13	ND	ND	ND	ND	ND	ND	ND	ND	ND	ND	ND
13991	2011-09-02T22:00:00	17	ND	ND	ND	ND	ND	ND	ND	ND	ND	ND	ND
13992	2011-09-02T23:00:00	10	ND	ND	ND	ND	ND	ND	ND	ND	ND	ND	ND
13993	2011-09-03T00:00:00	25	ND	ND	ND	ND	ND	ND	ND	ND	ND	ND	ND
13994	2011-09-03T01:00:00	24	ND	ND	ND	ND	ND	ND	ND	ND	ND	ND	ND
13995	2011-09-03T02:00:00	20	ND	ND	ND	ND	ND	ND	ND	ND	ND	ND	ND
13996	2011-09-03T03:00:00	15	ND	ND	ND	ND	ND	ND	ND	ND	ND	ND	ND
13997	2011-09-03T04:00:00	27	ND	ND	ND	ND	ND	ND	ND	ND	ND	ND	ND
13998	2011-09-03T05:00:00	15	ND	ND	ND	ND	ND	ND	ND	ND	ND	ND	ND
13999	2011-09-03T06:00:00	35	ND	ND	ND	ND	ND	ND	ND	ND	ND	ND	ND
14000	2011-09-03T07:00:00	51	ND	ND	ND	ND	ND	ND	ND	ND	ND	ND	ND
14001	2011-09-03T08:00:00	49	ND	ND	ND	ND	ND	ND	ND	ND	ND	ND	ND
14002	2011-09-03T09:00:00	53	ND	ND	ND	ND	ND	ND	ND	ND	ND	ND	ND
14003	2011-09-03T10:00:00	49	ND	ND	ND	ND	ND	ND	ND	ND	ND	ND	ND
14004	2011-09-03T11:00:00	42	ND	ND	ND	ND	ND	ND	ND	ND	ND	ND	ND
14005	2011-09-03T12:00:00	43	ND	ND	ND	ND	ND	ND	ND	ND	ND	ND	ND
14006	2011-09-03T13:00:00	39	ND	ND	ND	ND	ND	ND	ND	ND	ND	ND	ND
14007	2011-09-03T14:00:00	45	ND	ND	ND	ND	ND	ND	ND	ND	ND	ND	ND
14008	2011-09-03T15:00:00	23	ND	ND	ND	ND	ND	ND	ND	ND	ND	ND	ND
14009	2011-09-03T16:00:00	29	ND	ND	ND	ND	ND	ND	ND	ND	ND	ND	ND
14010	2011-09-03T17:00:00	16	ND	ND	ND	ND	ND	ND	ND	ND	ND	ND	ND
14011	2011-09-03T18:00:00	13	ND	ND	ND	ND	ND	ND	ND	ND	ND	ND	ND
14012	2011-09-03T19:00:00	8	ND	ND	ND	ND	ND	ND	ND	ND	ND	ND	ND
14013	2011-09-03T20:00:00	19	ND	ND	ND	ND	ND	ND	ND	ND	ND	ND	ND
14014	2011-09-03T21:00:00	10	ND	ND	ND	ND	ND	ND	ND	ND	ND	ND	ND
14015	2011-09-03T22:00:00	10	ND	ND	ND	ND	ND	ND	ND	ND	ND	ND	ND
14016	2011-09-03T23:00:00	7	ND	ND	ND	ND	ND	ND	ND	ND	ND	ND	ND
14017	2011-09-04T00:00:00	5	ND	ND	ND	ND	ND	ND	ND	ND	ND	ND	ND
14018	2011-09-04T01:00:00	9	ND	ND	ND	ND	ND	ND	ND	ND	ND	ND	ND
14019	2011-09-04T02:00:00	15	ND	ND	ND	ND	ND	ND	ND	ND	ND	ND	ND
14020	2011-09-04T03:00:00	11	ND	ND	ND	ND	ND	ND	ND	ND	ND	ND	ND
14021	2011-09-04T04:00:00	32	ND	ND	ND	ND	ND	ND	ND	ND	ND	ND	ND
14022	2011-09-04T05:00:00	25	ND	ND	ND	ND	ND	ND	ND	ND	ND	ND	ND
14023	2011-09-04T06:00:00	28	ND	ND	ND	ND	ND	ND	ND	ND	ND	ND	ND
14024	2011-09-04T07:00:00	15	ND	ND	ND	ND	ND	ND	ND	ND	ND	ND	ND
14025	2011-09-04T08:00:00	27	ND	ND	ND	ND	ND	ND	ND	ND	ND	ND	ND
14026	2011-09-04T09:00:00	15	ND	ND	ND	ND	ND	ND	ND	ND	ND	ND	ND
14027	2011-09-04T10:00:00	34	ND	ND	ND	ND	ND	ND	ND	ND	ND	ND	ND
14028	2011-09-04T11:00:00	19	ND	ND	ND	ND	ND	ND	ND	ND	ND	ND	ND
14029	2011-09-04T12:00:00	23	ND	ND	ND	ND	ND	ND	ND	ND	ND	ND	ND
14030	2011-09-04T13:00:00	20	ND	ND	ND	ND	ND	ND	ND	ND	ND	ND	ND
14031	2011-09-04T14:00:00	42	ND	ND	ND	ND	ND	ND	ND	ND	ND	ND	ND
14032	2011-09-04T15:00:00	24	ND	ND	ND	ND	ND	ND	ND	ND	ND	ND	ND
14033	2011-09-04T16:00:00	37	ND	ND	ND	ND	ND	ND	ND	ND	ND	ND	ND
14034	2011-09-04T17:00:00	19	ND	ND	ND	ND	ND	ND	ND	ND	ND	ND	ND
14035	2011-09-04T18:00:00	17	ND	ND	ND	ND	ND	ND	ND	ND	ND	ND	ND
14036	2011-09-04T19:00:00	10	ND	ND	ND	ND	ND	ND	ND	ND	ND	ND	ND
14037	2011-09-04T20:00:00	9	ND	ND	ND	ND	ND	ND	ND	ND	ND	ND	ND
14038	2011-09-04T21:00:00	6	ND	ND	ND	ND	ND	ND	ND	ND	ND	ND	ND
14039	2011-09-04T22:00:00	8	ND	ND	ND	ND	ND	ND	ND	ND	ND	ND	ND
14040	2011-09-04T23:00:00	5	ND	ND	ND	ND	ND	ND	ND	ND	ND	ND	ND
14041	2011-09-05T00:00:00	17	ND	ND	ND	ND	ND	ND	ND	ND	ND	ND	ND
14042	2011-09-05T01:00:00	23	ND	ND	ND	ND	ND	ND	ND	ND	ND	ND	ND
14043	2011-09-05T02:00:00	29	ND	ND	ND	ND	ND	ND	ND	ND	ND	ND	ND
14044	2011-09-05T03:00:00	16	ND	ND	ND	ND	ND	ND	ND	ND	ND	ND	ND
14045	2011-09-05T04:00:00	22	ND	ND	ND	ND	ND	ND	ND	ND	ND	ND	ND
14046	2011-09-05T05:00:00	13	ND	ND	ND	ND	ND	ND	ND	ND	ND	ND	ND
14047	2011-09-05T06:00:00	37	ND	ND	ND	ND	ND	ND	ND	ND	ND	ND	ND
14048	2011-09-05T07:00:00	33	ND	ND	ND	ND	ND	ND	ND	ND	ND	ND	ND
14049	2011-09-05T08:00:00	62	ND	ND	ND	ND	ND	ND	ND	ND	ND	ND	ND
14050	2011-09-05T09:00:00	48	ND	ND	ND	ND	ND	ND	ND	ND	ND	ND	ND
14051	2011-09-05T10:00:00	34	ND	ND	ND	ND	ND	ND	ND	ND	ND	ND	ND
14052	2011-09-05T11:00:00	38	ND	ND	ND	ND	ND	ND	ND	ND	ND	ND	ND
14053	2011-09-05T12:00:00	27	ND	ND	ND	ND	ND	ND	ND	ND	ND	ND	ND
14054	2011-09-05T13:00:00	14	ND	ND	ND	ND	ND	ND	ND	ND	ND	ND	ND
14055	2011-09-05T14:00:00	35	ND	ND	ND	ND	ND	ND	ND	ND	ND	ND	ND
14056	2011-09-05T15:00:00	19	ND	ND	ND	ND	ND	ND	ND	ND	ND	ND	ND
14057	2011-09-05T16:00:00	30	ND	ND	ND	ND	ND	ND	ND	ND	ND	ND	ND
14058	2011-09-05T17:00:00	3	ND	ND	ND	ND	ND	ND	ND	ND	ND	ND	ND
14059	2011-09-05T18:00:00	31	ND	ND	ND	ND	ND	4.7	284.2	27.8	49.9	89.8	0
14060	2011-09-05T19:00:00	28	7.46	ND	728.51	ND	ND	4.4	277.4	26.7	52.5	0	0
14061	2011-09-05T20:00:00	26	3.82	ND	760.41	ND	ND	4.3	276.8	26.3	53.7	ND	0
14062	2011-09-05T21:00:00	15	6.00	ND	839.94	ND	ND	3.3	266.7	25.8	56.1	ND	0
14063	2011-09-05T22:00:00	8	4.94	ND	516.91	ND	ND	1.8	255.1	25.3	58.8	ND	0
14064	2011-09-05T23:00:00	4	3.80	ND	470.17	ND	ND	1.8	267.2	25.1	60.4	ND	0
14065	2011-09-06T00:00:00	10	3.83	ND	527.16	ND	ND	0.9	54.1	23.6	68	0	0
14066	2011-09-06T01:00:00	6	3.49	ND	364.87	ND	ND	1.2	125.5	23.5	68.5	0	0
14067	2011-09-06T02:00:00	4	6.36	ND	752.29	ND	ND	0.5	85.4	23.2	70.4	ND	0
14068	2011-09-06T03:00:00	13	5.86	ND	535.18	ND	ND	1.1	151	22.9	71.2	ND	0
14069	2011-09-06T04:00:00	49	5.39	ND	432.26	ND	ND	1	166.2	22.5	73.1	ND	0
14070	2011-09-06T05:00:00	28	5.46	ND	443.04	ND	ND	0.7	138.7	22.2	74.3	0	0
14071	2011-09-06T06:00:00	37	8.02	ND	522.03	ND	ND	0.2	204.3	22.2	73.4	0	0
14072	2011-09-06T07:00:00	39	6.90	ND	703.60	ND	ND	0.3	147.2	22.1	73.2	20.6	0
14073	2011-09-06T08:00:00	72	7.06	ND	646.64	ND	ND	0.3	239.4	23.5	67.2	192.9	0
14074	2011-09-06T09:00:00	85	9.05	ND	1880.74	ND	ND	1.1	87.6	25.3	62.3	370.5	0
14075	2011-09-06T10:00:00	66	14.06	ND	2190.31	ND	ND	1.1	56.6	26.6	56.3	416	0
14076	2011-09-06T11:00:00	34	14.96	ND	2234.41	ND	ND	1.4	104.6	27.4	53.2	557.8	0
14077	2011-09-06T12:00:00	47	23.85	ND	923.87	ND	ND	1.1	125.7	28.4	50.3	504.7	0
14078	2011-09-06T13:00:00	34	19.72	ND	1089.16	ND	ND	1.1	123.4	29.4	48.8	495	0
14079	2011-09-06T14:00:00	52	24.73	ND	1046.27	ND	ND	1.3	82.1	29.7	48.7	442.9	0
14080	2011-09-06T15:00:00	43	24.46	ND	1954.98	ND	ND	1	75	29.7	48.7	197.2	0
14081	2011-09-06T16:00:00	41	28.13	ND	1082.22	ND	ND	2	270.3	28.5	50.8	98.9	0
14082	2011-09-06T17:00:00	35	26.17	ND	1159.06	ND	ND	3.2	276.8	27.6	52	80.3	0
14083	2011-09-06T18:00:00	28	13.03	ND	1097.82	ND	ND	2.7	274	27	53.3	3.4	0
14084	2011-09-06T19:00:00	16	8.81	ND	922.64	ND	ND	3	265.8	26.6	54.7	0	0
14085	2011-09-06T20:00:00	15	7.56	ND	1186.31	ND	ND	1.8	277.7	26.5	54.7	0	0
14086	2011-09-06T21:00:00	9	6.90	ND	1105.32	ND	ND	2.3	275.6	25.7	57.5	ND	0
14087	2011-09-06T22:00:00	5	6.75	ND	953.09	ND	ND	3.4	266.5	25.3	57.8	ND	0
14088	2011-09-06T23:00:00	3	6.09	ND	653.65	ND	ND	1.8	278.2	25.1	58.4	ND	0
14089	2011-09-07T00:00:00	1	4.27	ND	458.40	ND	ND	1.5	247.3	24.4	61.5	ND	0
14090	2011-09-07T01:00:00	2	3.58	ND	400.16	ND	ND	1.2	216.1	23.5	67.9	ND	0
14091	2011-09-07T02:00:00	17	3.78	ND	398.94	ND	ND	0.3	78.5	23	71.5	0	0
14092	2011-09-07T03:00:00	9	3.90	ND	455.17	ND	ND	0.4	61.4	22.5	74.4	0	0
14093	2011-09-07T04:00:00	18	4.34	ND	579.36	ND	ND	0.8	152	22.1	76.8	ND	0
14094	2011-09-07T05:00:00	18	5.45	ND	567.23	ND	ND	1	56.9	21.5	79.3	0	0
14095	2011-09-07T06:00:00	30	5.75	ND	532.11	ND	ND	0.1	111.2	21.5	79.5	0	0
14096	2011-09-07T07:00:00	23	5.65	ND	588.72	ND	ND	0.8	244.5	21.8	73.4	25.4	0
14097	2011-09-07T08:00:00	42	6.87	ND	668.65	ND	ND	0.2	108.6	23.1	67.7	120.1	0
14098	2011-09-07T09:00:00	69	9.45	ND	967.56	ND	ND	0.9	94.8	23.9	68.2	210.3	0
14099	2011-09-07T10:00:00	71	16.81	ND	1837.62	ND	ND	0.7	97.3	25.9	61.1	526.9	0
14100	2011-09-07T11:00:00	53	16.14	ND	2125.77	ND	ND	0.9	143.4	28.1	51.7	586.9	0
14101	2011-09-07T12:00:00	56	16.36	ND	1678.41	ND	ND	0.7	339.9	28.7	50	437.3	0
14102	2011-09-07T13:00:00	48	21.12	ND	1380.20	ND	ND	0.9	31.8	30	45.3	756.2	0
14103	2011-09-07T14:00:00	31	19.05	ND	1083.29	ND	ND	1.7	313.2	30.4	43	357.4	0
14104	2011-09-07T15:00:00	25	22.41	ND	1108.05	ND	ND	3.7	281.8	30.1	43.4	431.2	0
14105	2011-09-07T16:00:00	21	21.88	ND	804.00	ND	ND	4.5	277.7	29.3	46.7	463.6	0
14106	2011-09-07T17:00:00	15	8.69	ND	790.25	ND	ND	4.3	278.1	28.1	49.7	260.3	0
14107	2011-09-07T18:00:00	28	6.75	ND	775.54	ND	ND	5	254.1	26.4	55.6	46.5	0
14108	2011-09-07T19:00:00	29	6.05	ND	771.16	ND	ND	3.5	262.5	25.1	59.5	0	0
14109	2011-09-07T20:00:00	30	5.48	ND	767.81	ND	ND	0.6	213.7	24.5	62.7	0	0
14110	2011-09-07T21:00:00	26	5.02	ND	823.45	ND	ND	0.3	2.6	23.5	66.5	ND	0
14111	2011-09-07T22:00:00	38	5.97	ND	1139.84	ND	ND	1.2	142.1	22.1	75.9	0	0
14112	2011-09-07T23:00:00	33	5.09	ND	975.63	ND	ND	1.1	181.1	21.6	78.1	ND	0
14113	2011-09-08T00:00:00	38	5.03	ND	1075.91	ND	ND	1	144.9	21.7	78.7	0	0
14114	2011-09-08T01:00:00	20	3.86	ND	781.72	ND	ND	1.3	143.1	21.1	82.9	0	0
14115	2011-09-08T02:00:00	20	3.21	ND	757.51	ND	ND	0.8	148	21	84.5	ND	0
14116	2011-09-08T03:00:00	11	3.10	ND	632.93	ND	ND	1.3	145.4	20.5	89.7	ND	3.81
14117	2011-09-08T04:00:00	12	2.92	ND	564.15	ND	ND	0.9	157.7	19.9	92.2	ND	2.54
14118	2011-09-08T05:00:00	8	2.78	ND	529.22	ND	ND	0.6	169.4	20.2	90.6	ND	0
14119	2011-09-08T06:00:00	7	2.32	ND	507.22	ND	ND	0.9	125.1	20.3	90.6	0	0
14120	2011-09-08T07:00:00	12	1.70	ND	552.49	ND	ND	0.9	123.5	20.2	91.5	12.5	0
14121	2011-09-08T08:00:00	17	2.81	ND	1025.71	ND	ND	0.8	158.6	20.8	88.6	83.8	0
14122	2011-09-08T09:00:00	9	4.39	ND	1897.49	ND	ND	1.4	149.7	21.7	83.2	129.4	0
14123	2011-09-08T10:00:00	30	4.28	ND	2265.84	ND	ND	1.2	140.1	22.4	79.5	240.9	0
14124	2011-09-08T11:00:00	15	4.94	ND	1680.71	ND	ND	0.7	260.2	23.5	72.6	393.7	0
14125	2011-09-08T12:00:00	7	5.74	ND	1481.79	ND	ND	0.6	122.2	24.3	69.8	369.9	2.54
14126	2011-09-08T13:00:00	5	6.59	ND	1040.05	ND	ND	0.7	32.3	26.3	61.4	832.5	0
14127	2011-09-08T14:00:00	4	6.61	ND	1369.22	ND	ND	3.1	281.2	26.9	52.8	440.3	0
14128	2011-09-08T15:00:00	2	6.20	ND	1291.26	ND	ND	1.9	297	24.3	67.6	114.2	9.4
14129	2011-09-08T16:00:00	23	5.54	ND	708.61	ND	ND	1.3	54.6	22.8	80.2	106.5	0
14130	2011-09-08T17:00:00	19	4.92	ND	1023.43	ND	ND	1.5	37.3	24.5	65.5	163.7	0
14131	2011-09-08T18:00:00	31	6.17	ND	1944.26	ND	ND	1.2	64.9	23	76.7	22.9	0
14132	2011-09-08T19:00:00	23	12.08	ND	1888.95	ND	ND	1.9	199	22.4	80.7	0	0
14133	2011-09-08T20:00:00	27	10.55	ND	1964.61	ND	ND	2	189.4	21.6	82.8	0	0
14134	2011-09-08T21:00:00	19	10.52	ND	1812.06	ND	ND	1	170.4	21.6	81.6	0	0.25
14135	2011-09-08T22:00:00	25	6.40	ND	1313.74	ND	ND	1.3	160.5	20.5	89.7	0	4.57
14136	2011-09-08T23:00:00	14	5.94	ND	1455.52	ND	ND	0.4	96.8	19.7	93.5	0	3.81
14137	2011-09-09T00:00:00	8	4.92	ND	1519.06	ND	ND	0.8	145.9	19.7	93.3	0	0.25
14138	2011-09-09T01:00:00	4	2.99	ND	1035.21	ND	ND	0.4	274.4	19.9	89.5	ND	0.25
14139	2011-09-09T02:00:00	2	3.04	ND	765.68	ND	ND	0.5	125.6	19.9	86.5	0	0
14140	2011-09-09T03:00:00	2	2.86	ND	495.44	ND	ND	0.7	109	19.4	93.5	0	0
14141	2011-09-09T04:00:00	2	3.19	ND	607.00	ND	ND	0.8	203.6	19.3	92.8	ND	0
14142	2011-09-09T05:00:00	2	2.65	ND	438.24	ND	ND	0.5	ND	19.6	85.4	ND	0
14143	2011-09-09T06:00:00	3	2.57	ND	461.19	ND	ND	0.4	157.1	19.6	84.1	0	0
14144	2011-09-09T07:00:00	5	2.60	ND	416.19	ND	ND	1.1	158.9	19.1	92	18.8	0
14145	2011-09-09T08:00:00	25	3.49	ND	797.28	ND	ND	0.9	155.9	19.4	90.3	70.7	0
14146	2011-09-09T09:00:00	47	4.81	ND	1742.32	ND	ND	0.7	127.1	20.2	86	137.5	0
14147	2011-09-09T10:00:00	45	4.77	ND	1916.16	ND	ND	0.9	126.3	21.1	81.1	231	0
14148	2011-09-09T11:00:00	40	6.80	ND	2091.64	ND	ND	0.8	115.9	22.1	76.1	261.2	0
14149	2011-09-09T12:00:00	46	7.86	ND	1905.89	ND	ND	0.5	28.9	23.7	68.5	518.7	0
14150	2011-09-09T13:00:00	52	8.84	ND	1494.20	ND	ND	1.6	101.7	25.1	63.3	492.5	0
14151	2011-09-09T14:00:00	61	10.07	ND	1191.83	ND	ND	1.4	99.5	25.4	61.5	423.8	0
14152	2011-09-09T15:00:00	36	13.56	ND	1869.85	ND	ND	1.6	136.8	25.6	60.6	360.1	0
14153	2011-09-09T16:00:00	56	27.36	ND	1675.95	ND	ND	1.2	175.6	26	59.5	335.1	0
14154	2011-09-09T17:00:00	55	20.90	ND	1735.67	ND	ND	1.3	207.3	25.8	61.3	188.8	0
14155	2011-09-09T18:00:00	78	20.55	ND	1263.55	ND	ND	0.5	182.9	25.6	62.8	30	0
14156	2011-09-09T19:00:00	82	15.62	ND	1251.23	ND	ND	1	164	24.4	68.7	ND	0
14157	2011-09-09T20:00:00	77	12.97	ND	1760.68	ND	ND	0.4	111.6	24.2	70.1	ND	0
14158	2011-09-09T21:00:00	72	14.27	ND	2342.19	ND	ND	0.9	13.8	23.9	69.1	ND	0
14159	2011-09-09T22:00:00	81	9.71	ND	2419.72	ND	ND	0.4	337.9	23.3	72	ND	0
14160	2011-09-09T23:00:00	58	14.64	ND	2665.43	ND	ND	1.5	242.9	22.6	74.5	0	0
14161	2011-09-10T00:00:00	39	15.80	ND	2068.21	ND	ND	1.6	251.8	22.2	72.9	0	0
14162	2011-09-10T01:00:00	25	11.52	ND	1452.60	ND	ND	0.8	358.3	21.3	81.4	0	0
14163	2011-09-10T02:00:00	42	8.75	ND	769.34	ND	ND	0.4	319.5	21.3	81.7	0	0
14164	2011-09-10T03:00:00	39	7.19	ND	1131.38	ND	ND	1	143.6	21.2	83.2	0	0
14165	2011-09-10T04:00:00	34	6.86	ND	1051.83	ND	ND	0.2	155.5	21.1	82.4	0	0
14166	2011-09-10T05:00:00	22	6.59	ND	983.63	ND	ND	0.8	13.8	21.3	81.3	0	0
14167	2011-09-10T06:00:00	35	6.42	ND	769.34	ND	ND	0.2	301.6	21.1	80.4	0	0
14168	2011-09-10T07:00:00	53	6.65	ND	904.49	ND	ND	0.7	69.8	20.7	85.3	57.6	0
14169	2011-09-10T08:00:00	47	6.71	ND	903.26	ND	ND	0.9	54.2	22	79.7	213.8	0
14170	2011-09-10T09:00:00	37	9.23	ND	1973.29	ND	ND	1.1	68.6	23.3	72.8	371.1	0
14171	2011-09-10T10:00:00	20	23.76	ND	1822.52	ND	ND	0.8	103.2	24.7	67.4	472.8	0
14172	2011-09-10T11:00:00	22	26.54	ND	1522.12	ND	ND	0.7	144.7	26.3	60.5	589.9	0
14173	2011-09-10T12:00:00	36	27.58	ND	1277.17	ND	ND	1.5	105	28.2	53.6	819.8	0
14174	2011-09-10T13:00:00	18	24.52	ND	1320.02	ND	ND	1.5	110.2	29.2	50.6	814.8	0
14175	2011-09-10T14:00:00	9	20.35	ND	1626.45	ND	ND	0.8	114.6	30.2	47.8	604	0
14176	2011-09-10T15:00:00	7	15.60	ND	1363.75	ND	ND	1.1	114.9	30.4	47.5	297.4	0
14177	2011-09-10T16:00:00	6	13.42	ND	1236.35	ND	ND	2.4	239.3	28	51.5	114.2	0
14178	2011-09-10T17:00:00	4	12.47	ND	1411.71	ND	ND	3.6	264.5	26.4	56.4	82.6	0
14179	2011-09-10T18:00:00	3	9.24	ND	851.73	ND	ND	4.1	264.6	26.6	53.9	44.2	0
14180	2011-09-10T19:00:00	4	7.59	ND	886.85	ND	ND	2.2	261.7	25.5	59.9	0	0
14181	2011-09-10T20:00:00	13	6.40	ND	734.42	ND	ND	3.4	253.6	23.8	69.1	0	0
14182	2011-09-10T21:00:00	9	5.58	ND	798.70	ND	ND	2.5	216	23.2	71.7	0	0
14183	2011-09-10T22:00:00	5	5.03	ND	751.53	ND	ND	1.3	170	21.8	84.7	ND	8.38
14184	2011-09-10T23:00:00	4	4.67	ND	804.65	ND	ND	0.2	201.5	20.8	88.9	0	3.56
14185	2011-09-11T00:00:00	4	4.93	ND	1626.42	ND	ND	0.9	65.9	20.7	90.6	ND	1.78
14186	2011-09-11T01:00:00	4	3.36	ND	1230.69	ND	ND	0.6	167.4	20.4	92.4	0	0
14187	2011-09-11T02:00:00	3	3.87	ND	1567.81	ND	ND	1.1	202	20.6	91.4	0	0.25
14188	2011-09-11T03:00:00	2	3.18	ND	1185.13	ND	ND	0.5	161.6	20.6	87.5	0	0
14189	2011-09-11T04:00:00	3	2.94	ND	1151.27	ND	ND	0.9	153.3	20.4	89.1	0	0
14190	2011-09-11T05:00:00	3	3.10	ND	936.18	ND	ND	0.8	169.8	20.4	89.3	ND	0
14191	2011-09-11T06:00:00	3	2.76	ND	733.15	ND	ND	0.7	100.4	20.2	90.8	0	0
14192	2011-09-11T07:00:00	3	2.29	ND	642.48	ND	ND	0.5	62.6	20.1	91.3	12.1	0
14193	2011-09-11T08:00:00	3	2.53	ND	811.27	ND	ND	0.2	139.3	20.7	88.9	57.7	0
14194	2011-09-11T09:00:00	4	2.71	ND	869.39	ND	ND	0.4	230.4	21.6	83.8	180.4	0
14195	2011-09-11T10:00:00	7	3.21	ND	1053.26	ND	ND	0.5	81.6	22.7	79.2	215.7	0
14196	2011-09-11T11:00:00	5	3.72	ND	943.52	ND	ND	0.7	133.7	23.6	73.9	340.8	0
14197	2011-09-11T12:00:00	2	4.22	ND	1083.21	ND	ND	0.7	146.2	25	66.2	559.2	0
14198	2011-09-11T13:00:00	4	5.21	ND	1042.50	ND	ND	1.1	92	26.3	61.7	674.8	0
14199	2011-09-11T14:00:00	3	4.37	ND	805.42	ND	ND	1.2	72	27.3	55.9	553.5	0
14200	2011-09-11T15:00:00	2	4.94	ND	900.47	ND	ND	1.3	108.9	27.5	54.3	332.9	0
14201	2011-09-11T16:00:00	1	6.92	ND	762.44	ND	ND	1.3	66.3	27.2	56.2	212.4	0
14202	2011-09-11T17:00:00	1	6.57	ND	830.93	ND	ND	1.3	36.2	27.5	55.3	233.7	0
14203	2011-09-11T18:00:00	ND	5.58	ND	820.20	ND	ND	0.9	38	27.1	56.7	85	0
14204	2011-09-11T19:00:00	8	6.49	ND	726.82	ND	ND	1.1	282.7	26.2	60.1	0	0
14205	2011-09-11T20:00:00	17	26.97	ND	839.66	ND	ND	1.4	259.3	25.1	65.9	0	0
14206	2011-09-11T21:00:00	11	32.84	ND	974.09	ND	ND	1.6	273.5	24.4	68	0	0
14207	2011-09-11T22:00:00	7	15.09	ND	1314.80	ND	ND	1.4	265.4	24	68.5	0	0
14208	2011-09-11T23:00:00	6	8.64	ND	993.33	ND	ND	1.2	270.6	23.6	69.2	0	0
14209	2011-09-12T00:00:00	4	6.29	ND	820.96	ND	ND	0.5	333	23.4	72.1	ND	0
14210	2011-09-12T01:00:00	4	5.21	ND	786.22	ND	ND	0.1	ND	22.6	79.9	ND	0
14211	2011-09-12T02:00:00	3	6.00	ND	1181.84	ND	ND	0.6	199.3	22.5	78.1	0	0
14212	2011-09-12T03:00:00	6	6.57	ND	1567.68	ND	ND	1	206.4	22.2	79.7	0	0
14213	2011-09-12T04:00:00	16	5.61	ND	1168.89	ND	ND	1	188.2	22.1	78.1	ND	0
14214	2011-09-12T05:00:00	10	4.62	ND	850.84	ND	ND	0.2	194.9	21.7	81.6	ND	0
14215	2011-09-12T06:00:00	7	4.12	ND	634.44	ND	ND	0.4	239.7	21.6	78.4	0	0
14216	2011-09-12T07:00:00	6	3.70	ND	690.85	ND	ND	0.1	ND	21.7	80	10.4	0
14217	2011-09-12T08:00:00	20	4.51	ND	804.37	ND	ND	0.4	50.4	22.5	79.3	188.7	0
14218	2011-09-12T09:00:00	12	6.08	ND	1976.63	ND	ND	1.1	69.7	24.7	69.9	333.6	0
14219	2011-09-12T10:00:00	7	9.89	ND	3250.25	ND	ND	1.1	91.1	25.5	65.6	464.1	0
14220	2011-09-12T11:00:00	5	22.15	ND	2191.78	ND	ND	0.9	78.6	27.1	58.6	644.8	0
14221	2011-09-12T12:00:00	3	22.96	ND	1419.03	ND	ND	0.8	72.1	29	52.2	836.3	0
14222	2011-09-12T13:00:00	3	19.97	ND	1265.47	ND	ND	1.8	140.6	30.1	47.5	822.9	0
14223	2011-09-12T14:00:00	3	16.12	ND	955.47	ND	ND	1.7	147.1	30.5	45.6	778.5	0
14224	2011-09-12T15:00:00	3	12.78	ND	1225.09	ND	ND	1.3	138.2	31.8	37.7	755	0
14225	2011-09-12T16:00:00	3	11.82	ND	984.27	ND	ND	1.6	160.4	32.4	34.5	529.7	0
14226	2011-09-12T17:00:00	10	9.99	ND	927.50	ND	ND	1.5	164.6	31.5	36.9	201.3	0
14227	2011-09-12T18:00:00	5	9.32	ND	913.06	ND	ND	1.2	62.7	30.4	43.4	115.1	0
14228	2011-09-12T19:00:00	4	9.82	ND	1143.04	ND	ND	3	264	27.7	52.6	0.4	0
14229	2011-09-12T20:00:00	5	12.19	ND	1537.46	ND	ND	3.6	265.1	26.7	55.8	0	0
14230	2011-09-12T21:00:00	3	8.30	ND	1371.05	ND	ND	4.2	263.1	26.2	55.7	0	0
14231	2011-09-12T22:00:00	4	6.63	ND	1058.20	ND	ND	3.6	269.2	26	55.9	ND	0
14232	2011-09-12T23:00:00	3	5.02	ND	678.18	ND	ND	1.6	287.9	25.7	57.8	ND	0
14233	2011-09-13T00:00:00	7	3.94	ND	539.70	ND	ND	1.3	206.1	24.8	64.1	ND	0
14234	2011-09-13T01:00:00	5	3.46	ND	618.21	ND	ND	2	234.3	25	61.1	ND	0
14235	2011-09-13T02:00:00	5	5.16	ND	1053.96	ND	ND	1.2	219.8	24.9	61.2	ND	0
14236	2011-09-13T03:00:00	4	4.16	ND	503.90	ND	ND	1	145	23.4	66.8	0	0
14237	2011-09-13T04:00:00	9	3.54	ND	512.76	ND	ND	0.4	93.6	22.5	69.8	0	0
14238	2011-09-13T05:00:00	6	4.42	ND	658.88	ND	ND	0.4	79.2	22.2	72.2	0	0
14239	2011-09-13T06:00:00	4	5.01	ND	692.25	ND	ND	0.4	205	22.3	71	0	0
14240	2011-09-13T07:00:00	4	6.13	ND	806.01	ND	ND	0.6	222.8	22.5	69.3	18.2	0
14241	2011-09-13T08:00:00	15	6.60	ND	976.96	ND	ND	1.1	164.2	22.6	69.6	102.4	0
14242	2011-09-13T09:00:00	10	7.80	ND	1386.38	ND	ND	0.6	146.9	23.9	64	215.8	0
14243	2011-09-13T10:00:00	6	11.85	ND	2910.52	ND	ND	1.7	132.5	25.5	59.6	513.8	0
14244	2011-09-13T11:00:00	5	13.20	ND	2432.76	ND	ND	1.7	139.5	26.2	58.8	563.5	0
14245	2011-09-13T12:00:00	4	13.52	ND	1828.85	ND	ND	1.8	127.9	27.6	53.7	672.9	0
14246	2011-09-13T13:00:00	3	16.52	ND	1294.27	ND	ND	1.6	123.3	29.1	48.4	829.9	0
14247	2011-09-13T14:00:00	2	17.98	ND	1138.14	ND	ND	1.5	128.2	30.7	44.7	888.2	0
14248	2011-09-13T15:00:00	1	16.26	ND	1225.90	ND	ND	1	154.4	31.9	36.6	689.4	0
14249	2011-09-13T16:00:00	ND	13.57	ND	1066.64	ND	ND	0	64.8	32.8	35	520.8	0
14250	2011-09-13T17:00:00	2	10.19	ND	940.47	ND	ND	3	279	31.4	42.1	310.3	0
14251	2011-09-13T18:00:00	11	8.91	ND	1029.79	ND	ND	4.8	269.5	28.5	50.1	96.1	0
14252	2011-09-13T19:00:00	45	8.24	ND	927.25	ND	ND	3.8	281.6	27.1	53.1	0.1	0
14253	2011-09-13T20:00:00	24	6.46	ND	969.09	ND	ND	5.1	269.8	26.3	56.3	0	0
14254	2011-09-13T21:00:00	14	5.58	ND	1024.04	ND	ND	3.6	275.9	26	57.1	0	0
14255	2011-09-13T22:00:00	9	4.86	ND	712.66	ND	ND	0.4	271.5	25.5	60.6	ND	0
14256	2011-09-13T23:00:00	5	3.99	ND	585.24	ND	ND	1.6	254.2	25.1	61.9	ND	0
14257	2011-09-14T00:00:00	5	6.81	ND	1329.35	ND	ND	0.7	142.5	23.6	70.2	0	0
14258	2011-09-14T01:00:00	5	4.04	ND	535.91	ND	ND	1.3	161.2	23	72.9	0	0
14259	2011-09-14T02:00:00	2	4.09	ND	910.33	ND	ND	0.6	145.5	22.5	75.3	0	0
14260	2011-09-14T03:00:00	4	3.92	ND	783.84	ND	ND	0.9	168.8	22.1	77.3	0	0
14261	2011-09-14T04:00:00	3	4.02	ND	680.68	ND	ND	0.6	187.2	22	76.6	0	0
14262	2011-09-14T05:00:00	3	4.31	ND	669.10	ND	ND	0.3	224.7	21.9	72.3	0	0
14263	2011-09-14T06:00:00	2	4.51	ND	646.20	ND	ND	0.6	175.4	21.6	75.7	0	0
14264	2011-09-14T07:00:00	3	5.15	ND	645.55	ND	ND	0.7	178.8	21.4	77.7	42.5	0
14265	2011-09-14T08:00:00	2	5.46	ND	1109.13	ND	ND	1.1	155.4	23.2	68.1	214.4	0
14266	2011-09-14T09:00:00	1	7.24	ND	1981.32	ND	ND	1.6	161.7	24.6	64.1	423.3	0
14267	2011-09-14T10:00:00	1	11.59	ND	2288.14	ND	ND	1.4	146.1	26.7	57.9	615.4	0
14268	2011-09-14T11:00:00	1	15.34	ND	1348.01	ND	ND	1.5	137.9	28.2	53	762	0
14269	2011-09-14T12:00:00	3	16.26	ND	1262.12	ND	ND	1.2	151.4	30.1	46.2	810.3	0
14270	2011-09-14T13:00:00	2	16.07	ND	1235.13	ND	ND	1.2	99.5	31	41.8	860.3	0
14271	2011-09-14T14:00:00	1	12.75	ND	1063.49	ND	ND	1	111.3	32.9	35	821	0
14272	2011-09-14T15:00:00	1	10.71	ND	1105.42	ND	ND	1.6	116.5	33.6	30.4	693.1	0
14273	2011-09-14T16:00:00	2	9.00	ND	1013.65	ND	ND	1.7	276.5	32.5	37.1	368.8	0
14274	2011-09-14T17:00:00	3	10.15	ND	1057.00	ND	ND	6.1	274.6	28.9	51.6	215.8	0
14275	2011-09-14T18:00:00	2	9.03	ND	1067.75	ND	ND	6.3	279.9	26.7	54.7	13.2	0
14276	2011-09-14T19:00:00	3	6.43	ND	841.06	ND	ND	5.8	283.9	26.3	54.8	0	0
14277	2011-09-14T20:00:00	2	6.21	ND	816.93	ND	ND	5.9	272.7	25.9	50.9	0	0
14278	2011-09-14T21:00:00	2	5.10	ND	827.33	ND	ND	3.7	284.3	26.1	46.7	0	0
14279	2011-09-14T22:00:00	2	4.42	ND	597.91	ND	ND	1.7	197.4	25.3	55.3	0	0
14280	2011-09-14T23:00:00	1	3.07	ND	527.51	ND	ND	1.8	206.4	24.6	65	0	0
14281	2011-09-15T00:00:00	1	3.58	ND	846.61	ND	ND	0.4	131	24.5	63.2	0	0
14282	2011-09-15T01:00:00	2	3.82	ND	697.65	ND	ND	0.5	53.9	23.8	67.1	0	0
14283	2011-09-15T02:00:00	3	5.40	ND	787.29	ND	ND	0.9	110	23.2	70	0	0
14284	2011-09-15T03:00:00	1	8.67	ND	751.53	ND	ND	0.3	103	22.6	70.5	0	0
14285	2011-09-15T04:00:00	1	8.84	ND	784.10	ND	ND	1	164.7	22.7	71	0	0
14286	2011-09-15T05:00:00	3	9.13	ND	682.06	ND	ND	0.6	145.5	22.3	73.9	0	0
14287	2011-09-15T06:00:00	3	8.13	ND	635.73	ND	ND	0.7	168.6	22.1	74.7	0	0
14288	2011-09-15T07:00:00	2	6.85	ND	748.74	ND	ND	1	235.3	21.9	71.3	33.6	0
14289	2011-09-15T08:00:00	1	6.38	ND	1111.02	ND	ND	1.1	163.4	23.1	70.5	232.6	0
14290	2011-09-15T09:00:00	2	8.83	ND	1434.26	ND	ND	1.4	115.5	24.5	65.7	381	0
14291	2011-09-15T10:00:00	3	13.05	ND	1795.59	ND	ND	1.1	148.2	25.7	61.4	560.3	0
14292	2011-09-15T11:00:00	1	13.26	ND	1481.30	ND	ND	0.7	58.8	27.6	53	759	0
14293	2011-09-15T12:00:00	1	12.74	ND	1132.49	ND	ND	1.3	99.3	29.1	48	803	0
14294	2011-09-15T13:00:00	2	12.88	ND	998.78	ND	ND	1	117.1	30.4	43.6	780.8	0
14295	2011-09-15T14:00:00	3	11.12	ND	1073.06	ND	ND	1.5	121.6	31.8	38	758.4	0
14296	2011-09-15T15:00:00	3	10.24	ND	1206.90	ND	ND	1.1	100.1	31.8	39.3	409.9	0
14297	2011-09-15T16:00:00	2	8.55	ND	1124.88	ND	ND	1.6	281.3	30.2	44.8	166.3	0
14298	2011-09-15T17:00:00	3	10.24	ND	1142.29	ND	ND	4.1	279.4	28.8	48.6	169.9	0
14299	2011-09-15T18:00:00	3	9.90	ND	1160.22	ND	ND	4.2	278.3	27.1	54.3	39.1	0
14300	2011-09-15T19:00:00	4	7.02	ND	992.17	ND	ND	4.5	271.7	26	56.3	0	0
14301	2011-09-15T20:00:00	3	6.94	ND	1126.46	ND	ND	5.5	271.3	25.4	57.1	0	0
14302	2011-09-15T21:00:00	ND	5.64	ND	1078.32	ND	ND	5.3	269.1	25.6	53.5	0	0
14303	2011-09-15T22:00:00	ND	5.30	ND	757.62	ND	ND	2.8	242.9	25.2	58.4	0	0
14304	2011-09-15T23:00:00	ND	4.69	ND	653.43	ND	ND	1.3	197.4	24.8	59.6	0	0
14305	2011-09-16T00:00:00	ND	3.72	ND	721.25	ND	ND	2	202.3	23.6	68.2	0	0
14306	2011-09-16T01:00:00	ND	5.03	ND	1049.01	ND	ND	1.1	223.7	23.5	64.5	0	0
14307	2011-09-16T02:00:00	ND	4.28	ND	820.69	ND	ND	0.6	243	23.6	64.5	0	0
14308	2011-09-16T03:00:00	ND	4.56	ND	741.15	ND	ND	1.2	26.2	22.9	71.2	0	0
14309	2011-09-16T04:00:00	ND	4.37	ND	728.02	ND	ND	0.8	32.8	22.6	71.7	0	0
14310	2011-09-16T05:00:00	ND	6.32	ND	852.29	ND	ND	0.8	29.6	22.3	72.7	0	0
14311	2011-09-16T06:00:00	ND	6.70	ND	806.01	ND	ND	1.6	35	21.7	79.2	ND	0
14312	2011-09-16T07:00:00	13	12.52	ND	759.06	ND	ND	1.4	324.2	19.9	89.3	4.4	6.86
14313	2011-09-16T08:00:00	ND	13.75	ND	1002.14	ND	ND	1	261.6	21.2	83.9	60	0.76
14314	2011-09-16T09:00:00	ND	8.12	ND	1142.31	ND	ND	0.3	ND	22.5	77.2	144.6	0
14315	2011-09-16T10:00:00	ND	8.05	ND	1999.35	ND	ND	0.3	257.7	25	64	614.4	0
14316	2011-09-16T11:00:00	2	12.63	ND	2886.93	ND	ND	0.6	130.8	27.1	55.4	829.2	0
14317	2011-09-16T12:00:00	1	12.16	ND	1384.42	ND	ND	1.2	101.7	28.1	52	635.5	0
14318	2011-09-16T13:00:00	1	9.37	ND	1238.55	ND	ND	0.9	100.4	28.8	49.6	484	0
14319	2011-09-16T14:00:00	2	9.98	ND	1612.70	ND	ND	0.7	117.9	29.1	49	331.1	0
14320	2011-09-16T15:00:00	2	9.54	ND	1347.19	ND	ND	0.7	90.6	29.3	49.4	245.7	0
14321	2011-09-16T16:00:00	ND	9.38	ND	1487.54	ND	ND	1.8	306.4	26.9	56.5	50.4	0
14322	2011-09-16T17:00:00	ND	12.74	ND	1360.44	ND	ND	2.5	282.8	26.4	58.1	90.6	0
14323	2011-09-16T18:00:00	ND	12.35	ND	1358.17	ND	ND	4	270.8	25.7	59.5	30.9	0
14324	2011-09-16T19:00:00	ND	8.72	ND	1538.72	ND	ND	4.6	269	25.1	60.6	0.1	0
14325	2011-09-16T20:00:00	ND	7.16	ND	1249.13	ND	ND	3.4	280.8	25	60.3	0	0
14326	2011-09-16T21:00:00	ND	5.55	ND	996.68	ND	ND	3.6	283.4	24.6	61	0	0
14327	2011-09-16T22:00:00	3	4.53	ND	903.82	ND	ND	0.8	25.5	23.7	64.5	ND	0
14328	2011-09-16T23:00:00	ND	4.10	ND	695.77	ND	ND	0.9	286.6	23.7	63.5	ND	0
14329	2011-09-17T00:00:00	ND	5.69	ND	1368.73	ND	ND	0.4	14.1	23.2	66.6	ND	0
14330	2011-09-17T01:00:00	2	8.00	ND	1275.33	ND	ND	1.3	170.5	22.6	70.4	ND	0
14331	2011-09-17T02:00:00	1	8.53	ND	1181.84	ND	ND	1.3	164.8	22	75.5	ND	0
14332	2011-09-17T03:00:00	1	9.91	ND	1304.19	ND	ND	0.9	152.2	22	74.9	0	0
14333	2011-09-17T04:00:00	2	6.38	ND	918.60	ND	ND	0.5	146.2	21.8	76.7	0	0
14334	2011-09-17T05:00:00	ND	6.12	ND	815.98	ND	ND	1	41.2	20.7	87.4	ND	0.51
14335	2011-09-17T06:00:00	ND	6.15	ND	779.06	ND	ND	0.4	98.5	20.5	90.2	ND	0.51
14336	2011-09-17T07:00:00	ND	5.96	ND	1026.76	ND	ND	0.3	197.1	20.8	88.5	26.4	0
14337	2011-09-17T08:00:00	ND	5.40	ND	1344.06	ND	ND	0.7	181.4	21.5	85.4	91.7	0
14338	2011-09-17T09:00:00	3	5.67	ND	1381.23	ND	ND	0.7	189.8	22.4	79.6	181.4	0
14339	2011-09-17T10:00:00	2	8.31	ND	1816.98	ND	ND	1	130.9	23.6	72.9	312.6	0
14340	2011-09-17T11:00:00	3	12.39	ND	1926.98	ND	ND	0.9	168.3	24.5	69.4	383.2	0
14341	2011-09-17T12:00:00	1	14.10	ND	1909.95	ND	ND	0.1	114.1	26.3	61.3	767.3	0
14342	2011-09-17T13:00:00	2	12.47	ND	1403.74	ND	ND	0.8	110.2	28.7	50.4	706.4	0
14343	2011-09-17T14:00:00	2	9.47	ND	1484.58	ND	ND	0.9	77.6	29.4	47.3	481.4	0
14344	2011-09-17T15:00:00	3	8.75	ND	1720.53	ND	ND	3.1	284.2	28.8	47.2	465.5	0
14345	2011-09-17T16:00:00	2	7.91	ND	1496.68	ND	ND	3.3	281.4	28.8	47.4	287.9	0
14346	2011-09-17T17:00:00	3	6.21	ND	997.79	ND	ND	4.2	277.4	27	52.8	105.6	0
14347	2011-09-17T18:00:00	ND	5.38	ND	1003.37	ND	ND	4.8	274.3	26	55.3	16.9	0
14348	2011-09-17T19:00:00	2	5.07	ND	965.54	ND	ND	4.3	251.6	23.4	70.3	0	5.84
14349	2011-09-17T20:00:00	ND	4.40	ND	865.99	ND	ND	1.4	325.4	23.1	74.1	ND	0
14350	2011-09-17T21:00:00	3	4.17	ND	899.26	ND	ND	0.3	271.8	23.4	69.7	ND	0
14351	2011-09-17T22:00:00	3	4.35	ND	1230.61	ND	ND	1	249.3	23.3	68.4	ND	0
14352	2011-09-17T23:00:00	3	5.34	ND	1298.54	ND	ND	2.3	215.8	22	81.4	ND	0
14353	2011-09-18T00:00:00	3	6.43	ND	1315.53	ND	ND	2	225.1	21.3	84.7	0	0
14354	2011-09-18T01:00:00	3	4.55	ND	1380.29	ND	ND	2.2	264.2	21.5	80	0	0
14355	2011-09-18T02:00:00	3	2.90	ND	917.04	ND	ND	1.1	259.2	21.7	77.5	0	0
14356	2011-09-18T03:00:00	2	2.90	ND	634.44	ND	ND	1.1	246	21.6	79.1	0	0
14357	2011-09-18T04:00:00	2	3.11	ND	668.20	ND	ND	0.8	221.5	21.4	79.7	0	0
14358	2011-09-18T05:00:00	2	3.11	ND	758.28	ND	ND	0.5	ND	21.3	84.1	ND	0
14359	2011-09-18T06:00:00	ND	3.11	ND	724.09	ND	ND	0.6	51.8	21.2	85.1	ND	0
14360	2011-09-18T07:00:00	ND	2.82	ND	1006.59	ND	ND	0.7	66.4	20.8	90.7	4.7	0
14361	2011-09-18T08:00:00	15	3.31	ND	982.63	ND	ND	1.4	64.3	20.7	88.7	88.5	0
14362	2011-09-18T09:00:00	ND	3.87	ND	1151.66	ND	ND	1.9	56	21.9	78.9	214.7	0
14363	2011-09-18T10:00:00	4	4.17	ND	1054.33	ND	ND	0.9	73.1	22.8	72.5	307.6	0
14364	2011-09-18T11:00:00	3	7.49	ND	852.86	ND	ND	0.9	101.2	25	63.2	665.1	0
14365	2011-09-18T12:00:00	4	9.20	ND	813.38	ND	ND	1	147.3	26.1	57.6	492.2	0
14366	2011-09-18T13:00:00	4	9.52	ND	965.86	ND	ND	0.8	161.3	27.6	51.9	723.5	0
14367	2011-09-18T14:00:00	2	7.45	ND	1040.04	ND	ND	1	87	28.2	48.6	360.6	0
14368	2011-09-18T15:00:00	3	6.25	ND	856.85	ND	ND	1.5	92.6	26.8	56.1	62.2	0
14369	2011-09-18T16:00:00	3	7.06	ND	1002.70	ND	ND	1.3	249.4	26.1	59.5	109.6	0
14370	2011-09-18T17:00:00	2	8.94	ND	1126.84	ND	ND	0.9	259.6	26.6	53.9	159.4	0
14371	2011-09-18T18:00:00	2	8.22	ND	909.89	ND	ND	0.6	299	26.7	53.8	65	0
14372	2011-09-18T19:00:00	3	7.46	ND	714.33	ND	ND	0.8	74.7	25.5	61.8	ND	0
14373	2011-09-18T20:00:00	3	5.77	ND	745.89	ND	ND	0.2	348.1	24.8	62.2	ND	0
14374	2011-09-18T21:00:00	ND	7.20	ND	1316.56	ND	ND	0.2	217.5	24.4	60.8	ND	0
14375	2011-09-18T22:00:00	ND	7.14	ND	1189.03	ND	ND	0.2	70	23.9	66	ND	0
14376	2011-09-18T23:00:00	ND	5.95	ND	1187.03	ND	ND	0.2	35.8	23.3	67.1	ND	0.25
14377	2011-09-19T00:00:00	4	7.24	ND	1355.50	ND	ND	0.8	32.5	21.6	85.3	ND	0.51
14378	2011-09-19T01:00:00	3	5.93	ND	883.38	ND	ND	0.9	14.2	21.3	85.4	ND	0.25
14379	2011-09-19T02:00:00	ND	8.20	ND	893.79	ND	ND	0.4	294.9	21.1	85.9	ND	0.51
14380	2011-09-19T03:00:00	ND	28.65	ND	859.27	ND	ND	0.6	46.1	20.8	86.2	0	0
14381	2011-09-19T04:00:00	2	15.50	ND	858.39	ND	ND	0.4	41.9	20.4	89.9	0	0
14382	2011-09-19T05:00:00	2	11.27	ND	755.71	ND	ND	0.5	242.9	20.5	85.5	0	0
14383	2011-09-19T06:00:00	2	8.80	ND	665.70	ND	ND	0.6	74.7	20.2	89.5	ND	0
14384	2011-09-19T07:00:00	3	7.42	ND	619.94	ND	ND	0.7	57.5	19.9	91.6	26.8	0.25
14385	2011-09-19T08:00:00	15	6.93	ND	990.88	ND	ND	0.3	124.8	20.9	87.8	108.9	0
14386	2011-09-19T09:00:00	15	7.08	ND	1615.68	ND	ND	0.7	108.2	22	81.9	129.6	0
14387	2011-09-19T10:00:00	40	9.73	ND	2733.12	ND	ND	0.3	18.2	22.9	76.1	178.7	0
14388	2011-09-19T11:00:00	43	13.01	ND	2513.95	ND	ND	0.2	40.9	24	70.7	443.3	0
14389	2011-09-19T12:00:00	28	15.36	ND	1735.48	ND	ND	1.2	41.8	26.4	61.3	668.3	0
14390	2011-09-19T13:00:00	15	20.22	ND	1484.78	ND	ND	1.5	61.6	28	54.9	640.1	0
14391	2011-09-19T14:00:00	33	28.58	ND	1353.85	ND	ND	1.3	60.9	28.5	53.2	513	0
14392	2011-09-19T15:00:00	27	24.97	ND	1472.01	ND	ND	0.8	352	28.5	53.4	329	0
14393	2011-09-19T16:00:00	31	18.85	ND	1193.83	ND	ND	1	327.6	28.7	51.8	205.1	0
14394	2011-09-19T17:00:00	20	21.73	ND	985.86	ND	ND	2.5	287.2	28	51	142.5	0
14395	2011-09-19T18:00:00	23	17.60	ND	914.14	ND	ND	3.1	256.7	26.2	56.6	4.5	0
14396	2011-09-19T19:00:00	35	9.71	ND	1288.25	ND	ND	2	219.5	23.7	73.2	ND	7.11
14397	2011-09-19T20:00:00	19	8.09	ND	1254.67	ND	ND	2.7	276.1	23.4	72.6	ND	3.81
14398	2011-09-19T21:00:00	11	9.49	ND	1800.34	ND	ND	3.2	274.2	23.8	65.6	0	0
14399	2011-09-19T22:00:00	7	6.11	ND	1243.68	ND	ND	0.7	272.4	23.9	66.1	ND	0
14400	2011-09-19T23:00:00	15	5.20	ND	833.21	ND	ND	1.5	206.1	22.6	81.3	ND	0
14401	2011-09-20T00:00:00	9	6.03	ND	1261.38	ND	ND	1.1	211.2	22.6	79.8	ND	0
14402	2011-09-20T01:00:00	5	5.04	ND	1568.21	ND	ND	0.9	201.6	22.8	76.7	ND	0
14403	2011-09-20T02:00:00	3	3.90	ND	1137.15	ND	ND	0.3	345.8	22.8	76.6	0	0
14404	2011-09-20T03:00:00	10	3.95	ND	898.35	ND	ND	0.9	60	21.7	88	ND	0
14405	2011-09-20T04:00:00	23	4.02	ND	906.34	ND	ND	0.7	9.9	21.2	89.9	0	1.02
14406	2011-09-20T05:00:00	13	3.91	ND	938.73	ND	ND	0.7	7.6	20.6	92.9	ND	11.68
14407	2011-09-20T06:00:00	16	3.51	ND	823.95	ND	ND	0.2	ND	20.7	90.3	ND	0
14408	2011-09-20T07:00:00	10	3.59	ND	959.72	ND	ND	0.8	200.8	20.9	88.3	25.7	0
14409	2011-09-20T08:00:00	7	4.32	ND	1141.14	ND	ND	0.3	223.3	21.6	83.1	120.4	0
14410	2011-09-20T09:00:00	4	4.20	ND	1596.88	ND	ND	0.3	ND	22.6	79.3	180.4	0
14411	2011-09-20T10:00:00	16	5.48	ND	2193.22	ND	ND	1.2	155.1	23.9	73.4	457.8	0
14412	2011-09-20T11:00:00	9	6.27	ND	2819.21	ND	ND	1.1	179.7	25.1	67.1	644.7	0
14413	2011-09-20T12:00:00	19	7.31	ND	1592.93	ND	ND	1.1	104.4	26.8	59.8	689.4	0
14414	2011-09-20T13:00:00	11	9.28	ND	1290.83	ND	ND	0.7	126.9	28.8	51	804.2	0
14415	2011-09-20T14:00:00	39	6.58	ND	1345.85	ND	ND	1.5	116.7	28.7	51.1	578.2	0
14416	2011-09-20T15:00:00	22	5.23	ND	1217.82	ND	ND	1.2	124.8	29.9	48.2	652.1	0
14417	2011-09-20T16:00:00	41	5.86	ND	1478.84	ND	ND	0.9	96.2	29.6	48.5	287.5	0
14418	2011-09-20T17:00:00	30	7.61	ND	1244.72	ND	ND	2.1	5.2	29	50.8	99	0
14419	2011-09-20T18:00:00	32	7.81	ND	1428.01	ND	ND	2.3	294.8	27.8	53.9	58.6	0
14420	2011-09-20T19:00:00	18	13.22	ND	1526.41	ND	ND	2.8	276.2	26.2	58	0	0
14421	2011-09-20T20:00:00	20	12.23	ND	1242.24	ND	ND	3.5	268.3	25.7	59.1	0	0
14422	2011-09-20T21:00:00	11	6.78	ND	1251.65	ND	ND	2.4	275	25.6	58.6	0	0
14423	2011-09-20T22:00:00	18	5.38	ND	906.85	ND	ND	0.7	122.1	24.1	68.2	0	0
14424	2011-09-20T23:00:00	23	4.83	ND	868.03	ND	ND	1.6	206	24	68.9	0	0
14425	2011-09-21T00:00:00	35	6.61	ND	2066.59	ND	ND	1.2	203.3	23.3	74.6	0	0
14426	2011-09-21T01:00:00	19	5.26	ND	1526.36	ND	ND	0.8	201.5	22.9	77	0	0
14427	2011-09-21T02:00:00	37	3.93	ND	1217.16	ND	ND	1.1	187.5	22.3	78.8	0	0
14428	2011-09-21T03:00:00	20	4.02	ND	1112.52	ND	ND	0.2	192.6	22.1	80	0	0
14429	2011-09-21T04:00:00	11	4.26	ND	850.84	ND	ND	0.1	251.7	21.8	77.7	0	0
14430	2011-09-21T05:00:00	7	4.38	ND	895.31	ND	ND	0.4	120.8	21.3	82	0	0
14431	2011-09-21T06:00:00	29	4.09	ND	712.77	ND	ND	0.2	243.5	21.4	81.3	0	0
14432	2011-09-21T07:00:00	35	4.12	ND	860.14	ND	ND	0.5	95	21.7	80	33.9	0
14433	2011-09-21T08:00:00	69	5.00	ND	1076.28	ND	ND	0.3	167.3	22.4	77.8	166.2	0
14434	2011-09-21T09:00:00	53	7.53	ND	2316.65	ND	ND	0.9	106.7	24.9	67.2	414.6	0
14435	2011-09-21T10:00:00	75	9.19	ND	2198.83	ND	ND	0.9	64.2	26.6	60.8	619.5	0
14436	2011-09-21T11:00:00	45	13.67	ND	2441.73	ND	ND	1.1	107.4	28	55.5	746.4	0
14437	2011-09-21T12:00:00	56	20.43	ND	1620.00	ND	ND	0.6	171.1	28.5	53.3	508.5	0
14438	2011-09-21T13:00:00	30	20.41	ND	1402.47	ND	ND	1	34	29.1	51.4	392	0
14439	2011-09-21T14:00:00	39	16.52	ND	1068.46	ND	ND	1.9	338.7	29.7	47.2	610.1	0
14440	2011-09-21T15:00:00	21	16.24	ND	1163.68	ND	ND	1.5	314.3	30.3	43.2	443.7	0
14441	2011-09-21T16:00:00	11	10.56	ND	944.45	ND	ND	3.4	283.9	29	44.1	256.2	0
14442	2011-09-21T17:00:00	6	7.36	ND	859.13	ND	ND	2.6	282.1	28.8	45.4	174.3	0
14443	2011-09-21T18:00:00	5	7.85	ND	951.38	ND	ND	2.3	280	28	48.6	59.6	0
14444	2011-09-21T19:00:00	7	6.48	ND	1110.85	ND	ND	0.9	270.7	26.9	55.1	0	0
14445	2011-09-21T20:00:00	28	5.77	ND	1141.38	ND	ND	1.3	270.7	26.1	57.6	0	0
14446	2011-09-21T21:00:00	15	10.91	ND	1793.74	ND	ND	1.7	215.2	24.9	66.3	0	0
14447	2011-09-21T22:00:00	32	7.44	ND	1225.39	ND	ND	1.4	192.1	24.6	67.8	0	0
14448	2011-09-21T23:00:00	28	5.78	ND	1212.71	ND	ND	0.8	147.3	23.6	71.6	0	0
14449	2011-09-22T00:00:00	34	5.16	ND	1311.26	ND	ND	0.5	232.3	23.5	70	0	0
14450	2011-09-22T01:00:00	18	5.27	ND	1219.63	ND	ND	0.7	253.3	23.4	68.4	0	0
14451	2011-09-22T02:00:00	19	5.00	ND	900.17	ND	ND	0.6	193.5	23.1	71.9	0	0
14452	2011-09-22T03:00:00	11	4.63	ND	671.60	ND	ND	0.3	210	22.7	74.5	0	0
14453	2011-09-22T04:00:00	16	4.71	ND	863.94	ND	ND	0.7	117.5	22.1	78.7	0	0
14454	2011-09-22T05:00:00	10	5.32	ND	805.47	ND	ND	0.9	40.3	21.6	80.1	0	0
14455	2011-09-22T06:00:00	21	5.26	ND	928.68	ND	ND	0.3	26.3	21.5	80.2	0	0
14456	2011-09-22T07:00:00	43	5.49	ND	837.79	ND	ND	0.2	24.8	21.6	80.9	39.8	0
14457	2011-09-22T08:00:00	61	6.50	ND	1109.89	ND	ND	0.8	98.8	22.9	75	143.5	0
14458	2011-09-22T09:00:00	31	11.29	ND	1922.43	ND	ND	0.9	114.2	24.8	66.4	433	0
14459	2011-09-22T10:00:00	51	21.31	ND	3056.72	ND	ND	1	124	25.9	62.4	531.8	0
14460	2011-09-22T11:00:00	27	24.36	ND	1850.00	ND	ND	1.3	122.4	27.5	57.5	677.7	0
14461	2011-09-22T12:00:00	63	24.15	ND	1409.37	ND	ND	1.1	79.3	29.4	50.7	858.5	0
14462	2011-09-22T13:00:00	33	19.76	ND	1488.03	ND	ND	1.5	72.2	30.5	46.5	762	0
14463	2011-09-22T14:00:00	54	14.84	ND	1201.75	ND	ND	1.3	58.1	31.5	44.9	580.2	0
14464	2011-09-22T15:00:00	35	14.24	ND	1357.89	ND	ND	2.7	296.8	30.1	48.1	176.2	0
14465	2011-09-22T16:00:00	28	20.63	ND	1328.34	ND	ND	4.3	281.9	29.4	49.3	317.8	0
14466	2011-09-22T17:00:00	16	21.94	ND	1185.77	ND	ND	3.9	288.7	28	50.9	55.1	0
14467	2011-09-22T18:00:00	9	ND	ND	1596.85	ND	ND	5.5	275.3	26.7	55.8	4.7	0
14468	2011-09-22T19:00:00	5	7.06	ND	1186.71	ND	ND	5.7	278	25.7	53.3	ND	0
14469	2011-09-22T20:00:00	4	7.38	ND	1067.92	ND	ND	4.3	276.3	26.2	46.9	ND	0
14470	2011-09-22T21:00:00	3	5.87	ND	862.67	ND	ND	1.7	195.1	26	53.5	ND	0
14471	2011-09-22T22:00:00	4	4.63	ND	724.15	ND	ND	1.7	196.9	24.7	62.3	ND	0
14472	2011-09-22T23:00:00	4	4.14	ND	949.90	ND	ND	1.5	201.5	24.4	62.6	ND	0
14473	2011-09-23T00:00:00	4	4.52	ND	960.37	ND	ND	1.2	257.7	24	62.4	ND	0
14474	2011-09-23T01:00:00	3	4.62	ND	879.16	ND	ND	0.5	216.4	23.3	67.6	ND	0
14475	2011-09-23T02:00:00	12	4.12	ND	706.22	ND	ND	0.7	250.8	22.8	66.2	0	0
14476	2011-09-23T03:00:00	19	3.80	ND	773.26	ND	ND	1.3	351.7	22.2	73	ND	0
14477	2011-09-23T04:00:00	21	3.89	ND	601.47	ND	ND	0.8	36.7	21.3	79.5	ND	0
14478	2011-09-23T05:00:00	13	4.81	ND	961.68	ND	ND	0.5	ND	21.3	76.7	ND	0
14479	2011-09-23T06:00:00	7	7.17	ND	961.68	ND	ND	0.5	245.5	21.6	70.9	ND	0
14480	2011-09-23T07:00:00	22	7.77	ND	770.12	ND	ND	0.8	58.5	22.1	73.4	75.7	0
14481	2011-09-23T08:00:00	62	8.28	ND	782.78	ND	ND	1	76.4	22.9	74.8	280.2	0
14482	2011-09-23T09:00:00	44	14.57	ND	2286.44	ND	ND	0.8	130.9	25.3	62.5	502.4	0
14483	2011-09-23T10:00:00	44	27.36	ND	2259.12	ND	ND	1.2	149.3	27.3	54.6	636.2	0
14484	2011-09-23T11:00:00	23	25.48	ND	1639.32	ND	ND	1.4	80.3	28.4	51.3	677.4	0
14485	2011-09-23T12:00:00	38	17.70	ND	1413.59	ND	ND	1.2	156.1	29.4	49.1	655.3	0
14486	2011-09-23T13:00:00	20	13.93	ND	1232.27	ND	ND	0.6	280.7	30.6	44.6	776.2	0
14487	2011-09-23T14:00:00	27	12.57	ND	1237.16	ND	ND	1	296.8	31.3	41.6	569.4	0
14488	2011-09-23T15:00:00	14	9.85	ND	1076.24	ND	ND	3.4	283.2	31.4	40.2	514.3	0
14489	2011-09-23T16:00:00	13	7.76	ND	1146.81	ND	ND	4.4	291.8	30.5	43.4	383.8	0
14490	2011-09-23T17:00:00	7	6.30	ND	1015.07	ND	ND	4	279.6	29.3	46.3	195.2	0
14491	2011-09-23T18:00:00	10	5.29	ND	987.82	ND	ND	3.1	257.2	28	50.9	32.7	0
14492	2011-09-23T19:00:00	29	6.14	ND	1296.00	ND	ND	2.1	151.8	25.7	59.2	ND	0
14493	2011-09-23T20:00:00	38	6.01	ND	1205.71	ND	ND	0.8	187.5	24.8	65.1	ND	0
14494	2011-09-23T21:00:00	31	7.70	ND	2095.05	ND	ND	0.8	235.6	24.9	66.7	ND	0
14495	2011-09-23T22:00:00	59	9.59	ND	1626.22	ND	ND	1.4	169.5	24.6	68.4	ND	0
14496	2011-09-23T23:00:00	38	6.41	ND	1613.14	ND	ND	0.7	58.4	23.4	77.3	ND	0
14497	2011-09-24T00:00:00	41	6.65	ND	1902.89	ND	ND	0.6	174.6	23.4	76.3	ND	0
14498	2011-09-24T01:00:00	22	5.34	ND	1561.06	ND	ND	0.6	296	23.6	73.9	ND	0
14499	2011-09-24T02:00:00	46	5.06	ND	1231.44	ND	ND	0.9	106.8	23.1	79.2	ND	0
14500	2011-09-24T03:00:00	25	5.02	ND	1183.84	ND	ND	0.9	173.6	22	83.9	ND	0
14501	2011-09-24T04:00:00	29	6.98	ND	1531.00	ND	ND	0.3	ND	22.3	80.8	ND	0
14502	2011-09-24T05:00:00	17	5.58	ND	964.94	ND	ND	0.4	328.4	22.5	78.4	ND	0
14503	2011-09-24T06:00:00	33	5.12	ND	1067.84	ND	ND	0.9	84.3	21.7	85.9	ND	0
14504	2011-09-24T07:00:00	69	5.65	ND	1098.93	ND	ND	0.7	72.1	21.8	85.8	22.7	0
14505	2011-09-24T08:00:00	86	6.51	ND	1518.63	ND	ND	1.2	23.1	22.5	82.5	81.2	0
14506	2011-09-24T09:00:00	74	10.34	ND	2022.07	ND	ND	1.6	40.4	23.9	74	217.7	0
14507	2011-09-24T10:00:00	58	24.57	ND	2396.90	ND	ND	1.6	52.5	25	69.5	309.1	0
14508	2011-09-24T11:00:00	29	80.99	ND	2176.65	ND	ND	1.3	64.5	25.2	68.4	386.7	0
14509	2011-09-24T12:00:00	37	79.97	ND	1627.85	ND	ND	0.8	121.1	26.8	60.4	504.5	0
14510	2011-09-24T13:00:00	30	40.54	ND	1625.06	ND	ND	0.6	131.9	28.7	53.6	600.6	0
14511	2011-09-24T14:00:00	21	23.82	ND	1438.19	ND	ND	1.5	349.6	29.8	49.3	551.6	0
14512	2011-09-24T15:00:00	11	19.94	ND	1583.12	ND	ND	0.8	7.9	29.6	48.3	339.8	0
14513	2011-09-24T16:00:00	19	23.20	ND	1128.39	ND	ND	1.7	38.6	30	48.4	446.6	0
14514	2011-09-24T17:00:00	26	27.28	ND	1153.18	ND	ND	0.4	19.3	29.2	51.3	266.2	0
14515	2011-09-24T18:00:00	13	21.15	ND	1208.22	ND	ND	1.9	270.7	27.4	54.3	30.3	0
14516	2011-09-24T19:00:00	8	15.64	ND	1293.41	ND	ND	2.9	276.7	26.4	57	ND	0
14517	2011-09-24T20:00:00	5	11.66	ND	1139.48	ND	ND	2.2	276.7	26	58.7	ND	0
14518	2011-09-24T21:00:00	4	9.62	ND	1229.91	ND	ND	2.8	274.9	25.7	59.9	ND	0
14519	2011-09-24T22:00:00	3	8.46	ND	1205.71	ND	ND	1.5	202.4	25.2	64.6	ND	0
14520	2011-09-24T23:00:00	4	6.90	ND	928.56	ND	ND	1.7	177.1	24.1	72.1	ND	0
14521	2011-09-25T00:00:00	20	6.27	ND	1199.25	ND	ND	1	185.1	23.6	74.2	ND	0
14522	2011-09-25T01:00:00	12	6.49	ND	1425.28	ND	ND	0.5	234	23.6	73.1	ND	0
14523	2011-09-25T02:00:00	16	7.20	ND	1493.70	ND	ND	0.6	182.5	23.3	73.4	ND	0
14524	2011-09-25T03:00:00	17	6.51	ND	1344.10	ND	ND	0.9	192.5	22.9	75.8	ND	0
14525	2011-09-25T04:00:00	16	6.48	ND	1308.16	ND	ND	0.4	222.1	22.9	73.6	ND	0
14526	2011-09-25T05:00:00	11	6.06	ND	1001.03	ND	ND	0.6	66.3	22.5	77.1	ND	0
14527	2011-09-25T06:00:00	23	6.34	ND	1056.48	ND	ND	0.4	86.4	22	79.9	ND	0
14528	2011-09-25T07:00:00	12	7.06	ND	1202.12	ND	ND	0.3	229.7	22.5	76.3	33.7	0
14529	2011-09-25T08:00:00	23	7.85	ND	1170.08	ND	ND	0.2	ND	23.3	73.3	90.1	0
14530	2011-09-25T09:00:00	13	9.43	ND	1241.59	ND	ND	0.9	191	24	70.9	154	0
14531	2011-09-25T10:00:00	35	11.31	ND	1370.12	ND	ND	1.3	161.6	25.5	65.6	400.7	0
14532	2011-09-25T11:00:00	18	11.10	ND	1273.76	ND	ND	1.2	137.2	26.7	60.3	403	0
14533	2011-09-25T12:00:00	28	15.89	ND	1290.40	ND	ND	0.9	113.7	27.3	56.4	354.3	0
14534	2011-09-25T13:00:00	16	17.48	ND	1269.89	ND	ND	1	132.1	27.6	54.5	250.6	0
14535	2011-09-25T14:00:00	27	14.46	ND	1190.27	ND	ND	0.7	140.9	26.9	59.7	243.9	0
14536	2011-09-25T15:00:00	15	12.74	ND	1395.02	ND	ND	0.4	314.3	28.3	53.4	527.2	0
14537	2011-09-25T16:00:00	9	9.70	ND	1308.87	ND	ND	0.8	342.1	29.2	50.5	337.8	0
14538	2011-09-25T17:00:00	6	7.41	ND	1068.81	ND	ND	1.9	281.7	27.7	52.1	50	0
14539	2011-09-25T18:00:00	13	6.72	ND	1005.71	ND	ND	3.5	271.3	26.7	56	21.4	0
14540	2011-09-25T19:00:00	7	6.90	ND	864.11	ND	ND	3.7	270.8	25.9	59	ND	0
14541	2011-09-25T20:00:00	5	4.91	ND	735.40	ND	ND	1.6	326	24.4	71	ND	0
14542	2011-09-25T21:00:00	19	4.13	ND	731.71	ND	ND	0.6	52.8	23.4	79.6	ND	0
14543	2011-09-25T22:00:00	12	4.17	ND	1036.91	ND	ND	0.1	285.2	24.1	74.5	ND	0
14544	2011-09-25T23:00:00	19	5.59	ND	2055.87	ND	ND	0.6	ND	23.2	80.2	ND	0
14545	2011-09-26T00:00:00	23	5.63	ND	1935.77	ND	ND	0.6	88.9	22.9	79.6	ND	0
14546	2011-09-26T01:00:00	13	6.84	ND	1865.56	ND	ND	0.5	ND	22.7	79.7	ND	0
14547	2011-09-26T02:00:00	9	8.68	ND	1216.34	ND	ND	0.7	105.7	22.5	81.4	ND	0
14548	2011-09-26T03:00:00	6	7.98	ND	931.52	ND	ND	1	168.2	22.3	82.2	ND	0
14549	2011-09-26T04:00:00	4	6.34	ND	919.53	ND	ND	1	170	21.9	85.3	ND	4.57
14550	2011-09-26T05:00:00	3	4.90	ND	872.94	ND	ND	0.8	252.3	20.7	93.5	0	18.54
14551	2011-09-26T06:00:00	2	4.44	ND	903.26	ND	ND	0.7	11.5	21.1	91.1	ND	0
14552	2011-09-26T07:00:00	2	3.28	ND	881.88	ND	ND	0.3	27	21.5	88	33.2	0
14553	2011-09-26T08:00:00	24	3.96	ND	1279.33	ND	ND	0.4	102.4	22.1	85.8	97.2	0
14554	2011-09-26T09:00:00	34	5.11	ND	1917.24	ND	ND	0.9	84.1	23.1	82.3	261.9	0
14555	2011-09-26T10:00:00	49	6.40	ND	2948.21	ND	ND	0.9	148.2	24.7	73.4	394	0
14556	2011-09-26T11:00:00	26	6.75	ND	2803.91	ND	ND	0.7	141.3	26.1	66.8	457.4	0
14557	2011-09-26T12:00:00	36	6.36	ND	2196.19	ND	ND	0.9	146.8	27.3	60.3	493	0
14558	2011-09-26T13:00:00	ND	5.47	ND	1558.51	ND	ND	ND	ND	ND	ND	ND	ND
14559	2011-09-26T14:00:00	ND	ND	ND	ND	ND	ND	ND	ND	ND	ND	ND	ND
14560	2011-09-26T15:00:00	ND	ND	ND	ND	ND	ND	ND	ND	ND	ND	ND	ND
14561	2011-09-26T16:00:00	ND	ND	ND	ND	ND	ND	ND	ND	ND	ND	ND	ND
14562	2011-09-26T17:00:00	ND	ND	ND	ND	ND	ND	ND	ND	ND	ND	ND	ND
14563	2011-09-26T18:00:00	ND	ND	ND	ND	ND	ND	ND	ND	ND	ND	ND	ND
14564	2011-09-26T19:00:00	ND	ND	ND	ND	ND	ND	ND	ND	ND	ND	ND	ND
14565	2011-09-26T20:00:00	ND	ND	ND	ND	ND	ND	ND	ND	ND	ND	ND	ND
14566	2011-09-26T21:00:00	ND	ND	ND	ND	ND	ND	ND	ND	ND	ND	ND	ND
14567	2011-09-26T22:00:00	ND	ND	ND	ND	ND	ND	ND	ND	ND	ND	ND	ND
14568	2011-09-26T23:00:00	ND	ND	ND	ND	ND	ND	ND	ND	ND	ND	ND	ND
14569	2011-09-27T00:00:00	ND	ND	ND	ND	ND	ND	ND	ND	ND	ND	ND	ND
14570	2011-09-27T01:00:00	ND	ND	ND	ND	ND	ND	ND	ND	ND	ND	ND	ND
14571	2011-09-27T02:00:00	ND	ND	ND	ND	ND	ND	ND	ND	ND	ND	ND	ND
14572	2011-09-27T03:00:00	ND	ND	ND	ND	ND	ND	ND	ND	ND	ND	ND	ND
14573	2011-09-27T04:00:00	ND	ND	ND	ND	ND	ND	ND	ND	ND	ND	ND	ND
14574	2011-09-27T05:00:00	ND	ND	ND	ND	ND	ND	ND	ND	ND	ND	ND	ND
14575	2011-09-27T06:00:00	ND	ND	ND	ND	ND	ND	ND	ND	ND	ND	ND	ND
14576	2011-09-27T07:00:00	ND	ND	ND	ND	ND	ND	ND	ND	ND	ND	ND	ND
14577	2011-09-27T08:00:00	ND	ND	ND	ND	ND	ND	ND	ND	ND	ND	ND	ND
14578	2011-09-27T09:00:00	ND	ND	ND	ND	ND	ND	ND	ND	ND	ND	ND	ND
14579	2011-09-27T10:00:00	ND	ND	ND	ND	ND	ND	ND	ND	ND	ND	ND	ND
14580	2011-09-27T11:00:00	ND	ND	ND	ND	ND	ND	ND	ND	ND	ND	ND	ND
14581	2011-09-27T12:00:00	ND	ND	ND	ND	ND	ND	ND	ND	ND	ND	ND	ND
14582	2011-09-27T13:00:00	ND	ND	ND	ND	ND	ND	ND	ND	ND	ND	ND	ND
14583	2011-09-27T14:00:00	ND	ND	ND	ND	ND	ND	ND	ND	ND	ND	ND	ND
14584	2011-09-27T15:00:00	ND	ND	ND	ND	ND	ND	ND	ND	ND	ND	ND	ND
14585	2011-09-27T16:00:00	ND	ND	ND	ND	ND	ND	ND	ND	ND	ND	ND	ND
14586	2011-09-27T17:00:00	ND	ND	ND	ND	ND	ND	ND	ND	ND	ND	ND	ND
14587	2011-09-27T18:00:00	ND	ND	ND	ND	ND	ND	ND	ND	ND	ND	ND	ND
14588	2011-09-27T19:00:00	ND	ND	ND	ND	ND	ND	ND	ND	ND	ND	ND	ND
14589	2011-09-27T20:00:00	ND	ND	ND	ND	ND	ND	ND	ND	ND	ND	ND	ND
14590	2011-09-27T21:00:00	ND	ND	ND	ND	ND	ND	ND	ND	ND	ND	ND	ND
14591	2011-09-27T22:00:00	ND	ND	ND	ND	ND	ND	ND	ND	ND	ND	ND	ND
14592	2011-09-27T23:00:00	ND	ND	ND	ND	ND	ND	ND	ND	ND	ND	ND	ND
14593	2011-09-28T00:00:00	ND	ND	ND	ND	ND	ND	ND	ND	ND	ND	ND	ND
14594	2011-09-28T01:00:00	ND	ND	ND	ND	ND	ND	ND	ND	ND	ND	ND	ND
14595	2011-09-28T02:00:00	ND	ND	ND	ND	ND	ND	ND	ND	ND	ND	ND	ND
14596	2011-09-28T03:00:00	ND	ND	ND	ND	ND	ND	ND	ND	ND	ND	ND	ND
14597	2011-09-28T04:00:00	ND	ND	ND	ND	ND	ND	ND	ND	ND	ND	ND	ND
14598	2011-09-28T05:00:00	ND	ND	ND	ND	ND	ND	ND	ND	ND	ND	ND	ND
14599	2011-09-28T06:00:00	ND	ND	ND	ND	ND	ND	ND	ND	ND	ND	ND	ND
14600	2011-09-28T07:00:00	ND	ND	ND	ND	ND	ND	ND	ND	ND	ND	ND	ND
14601	2011-09-28T08:00:00	ND	ND	ND	ND	ND	ND	ND	ND	ND	ND	ND	ND
14602	2011-09-28T09:00:00	ND	ND	ND	ND	ND	ND	ND	ND	ND	ND	ND	ND
14603	2011-09-28T10:00:00	ND	ND	ND	ND	ND	ND	ND	ND	ND	ND	ND	ND
14604	2011-09-28T11:00:00	ND	ND	ND	ND	ND	ND	ND	ND	ND	ND	ND	ND
14605	2011-09-28T12:00:00	ND	ND	ND	ND	ND	ND	ND	ND	ND	ND	ND	ND
14606	2011-09-28T13:00:00	ND	ND	ND	ND	ND	ND	ND	ND	ND	ND	ND	ND
14607	2011-09-28T14:00:00	ND	ND	ND	ND	ND	ND	ND	ND	ND	ND	ND	ND
14608	2011-09-28T15:00:00	52	ND	ND	ND	ND	ND	0.5	82.3	29.2	52	490.3	0
14609	2011-09-28T16:00:00	58	ND	ND	ND	ND	ND	0.7	59.9	31.3	43	171.4	0
14610	2011-09-28T17:00:00	51	5.91	ND	1602.66	ND	ND	3.1	277.5	29.6	50.9	99.5	0
14611	2011-09-28T18:00:00	46	10.51	ND	1838.00	ND	ND	3.2	273.7	28.3	53.9	16.5	0
14612	2011-09-28T19:00:00	25	9.70	ND	1517.36	ND	ND	3.4	265.9	27	58.5	ND	0
14613	2011-09-28T20:00:00	22	8.10	ND	1510.82	ND	ND	2.5	263	26.8	58.3	ND	0
14614	2011-09-28T21:00:00	19	7.30	ND	1475.23	ND	ND	0.4	339.8	25.9	64.4	ND	0
14615	2011-09-28T22:00:00	38	6.86	ND	1459.32	ND	ND	1	265.4	25.7	63.5	ND	0
14616	2011-09-28T23:00:00	20	8.69	ND	1929.14	ND	ND	3.1	268.6	25.3	64.8	ND	0
14617	2011-09-29T00:00:00	11	10.83	ND	1467.85	ND	ND	1.3	295.4	24.5	68.3	ND	0
14618	2011-09-29T01:00:00	23	7.04	ND	880.64	ND	ND	1.2	180.1	23.2	76.4	ND	0
14619	2011-09-29T02:00:00	16	5.73	ND	865.40	ND	ND	1.3	212.5	22.9	76	ND	0
14620	2011-09-29T03:00:00	9	5.20	ND	1114.78	ND	ND	0.9	236	22.8	71.3	ND	0
14621	2011-09-29T04:00:00	15	5.31	ND	977.95	ND	ND	0.8	267	22.5	68.1	0	0
14622	2011-09-29T05:00:00	41	5.20	ND	920.16	ND	ND	0.5	354.1	21.9	77.3	ND	0
14623	2011-09-29T06:00:00	35	5.24	ND	782.25	ND	ND	0.2	ND	21.7	76.4	ND	0
14624	2011-09-29T07:00:00	42	5.34	ND	1212.23	ND	ND	0.6	ND	21.5	76.9	60	0
14625	2011-09-29T08:00:00	60	5.65	ND	1177.44	ND	ND	0.5	141.2	22.4	73.2	176.5	0
14626	2011-09-29T09:00:00	45	9.01	ND	2509.70	ND	ND	1.1	111.2	24.3	65.7	371	0
14627	2011-09-29T10:00:00	45	10.59	ND	3005.87	ND	ND	0.8	149.5	26.3	56.2	588.8	0
14628	2011-09-29T11:00:00	25	11.08	ND	2439.28	ND	ND	0.7	155.7	27.5	50.6	521.7	0
14629	2011-09-29T12:00:00	26	9.06	ND	1351.61	ND	ND	0.8	115.6	28.9	45.6	591.9	0
14630	2011-09-29T13:00:00	17	9.08	ND	1276.66	ND	ND	1.1	56.7	29.6	44.5	510.9	0
14631	2011-09-29T14:00:00	33	10.91	ND	1558.81	ND	ND	1.6	39	29.4	48	282.1	0
14632	2011-09-29T15:00:00	18	10.13	ND	1557.78	ND	ND	2.5	299.5	28.6	49.8	247.3	0
14633	2011-09-29T16:00:00	11	19.46	ND	1530.47	ND	ND	2.4	270	29	48.9	320.8	0
14634	2011-09-29T17:00:00	7	10.62	ND	1149.37	ND	ND	3.4	278.3	27.8	52.4	134.3	0
14635	2011-09-29T18:00:00	11	8.09	ND	1272.01	ND	ND	3.3	279.7	26.6	53.1	29.8	0
14636	2011-09-29T19:00:00	7	6.74	ND	1266.93	ND	ND	3.3	280.3	25.7	56.1	ND	0
14637	2011-09-29T20:00:00	4	6.04	ND	1343.51	ND	ND	2.7	286	25.5	57.4	ND	0
14638	2011-09-29T21:00:00	27	5.33	ND	1204.91	ND	ND	0.9	53.3	25.2	59.4	ND	0
14639	2011-09-29T22:00:00	26	4.90	ND	1008.81	ND	ND	0.8	67.1	24	66.2	ND	0
14640	2011-09-29T23:00:00	16	12.20	ND	1644.14	ND	ND	0.7	149.5	23.5	68.7	ND	0
14641	2011-09-30T00:00:00	20	14.21	ND	1869.34	ND	ND	0.3	345.8	22.8	72.7	ND	0
14642	2011-09-30T01:00:00	11	16.70	ND	1717.10	ND	ND	1	216.7	22.5	74	ND	0
14643	2011-09-30T02:00:00	24	11.46	ND	1147.36	ND	ND	0.7	71.1	21.5	80	ND	0
14644	2011-09-30T03:00:00	15	7.77	ND	894.40	ND	ND	0.5	ND	21.2	79.8	ND	0
14645	2011-09-30T04:00:00	8	6.60	ND	1029.21	ND	ND	0.6	161.1	21.4	76.7	ND	0
14646	2011-09-30T05:00:00	12	8.02	ND	1007.27	ND	ND	0.5	101.7	20.5	85.5	ND	0
14647	2011-09-30T06:00:00	8	8.67	ND	1004.19	ND	ND	0.6	59.1	20.1	87.6	ND	0
14648	2011-09-30T07:00:00	26	6.96	ND	1081.70	ND	ND	0.5	130.3	20.6	85.7	17.8	0
14649	2011-09-30T08:00:00	47	7.51	ND	1298.00	ND	ND	0.9	175.7	21.4	81.7	98.6	0
14650	2011-09-30T09:00:00	31	10.98	ND	2139.04	ND	ND	0.7	201.5	23.1	72.8	345.8	0
14651	2011-09-30T10:00:00	20	13.15	ND	2675.01	ND	ND	1.2	142.1	25.8	61.6	598.9	0
14652	2011-09-30T11:00:00	23	15.19	ND	1895.33	ND	ND	1.3	115.8	27.3	57.5	616.2	0
14653	2011-09-30T12:00:00	13	14.55	ND	1766.31	ND	ND	0.9	43.9	28.1	53.9	620.2	0
14654	2011-09-30T13:00:00	8	15.54	ND	1689.99	ND	ND	1.4	22.8	29.4	49.5	655.6	0
14655	2011-09-30T14:00:00	20	12.23	ND	1441.53	ND	ND	1.5	46.3	30.7	46.5	687.6	0
14656	2011-09-30T15:00:00	11	12.68	ND	1529.45	ND	ND	2.3	291.1	31.5	41.8	649.3	0
14657	2011-09-30T16:00:00	7	26.24	ND	1322.77	ND	ND	3.9	279.2	30.5	42.7	426.4	0
14658	2011-09-30T17:00:00	6	17.35	ND	1073.41	ND	ND	3.7	279.3	28.3	49.1	52.5	0
14659	2011-09-30T18:00:00	8	9.01	ND	1100.38	ND	ND	3.9	274.3	27	52.9	9	0
14660	2011-09-30T19:00:00	6	8.10	ND	1314.76	ND	ND	4.7	268.9	26.4	56	ND	0
14661	2011-09-30T20:00:00	9	7.77	ND	1277.60	ND	ND	2.8	289.2	26.2	56.9	ND	0
14662	2011-09-30T21:00:00	7	6.47	ND	1104.21	ND	ND	1.7	281.8	26.2	56.8	ND	0
14663	2011-09-30T22:00:00	6	6.29	ND	1127.22	ND	ND	2.6	269	25.8	57.4	ND	0
14664	2011-09-30T23:00:00	3	4.86	ND	1056.79	ND	ND	1.6	263.3	25.6	57.8	ND	0
14665	2011-10-01T00:00:00	4	4.46	ND	929.81	ND	ND	1	239.5	25.1	61.7	ND	0
14666	2011-10-01T01:00:00	18	4.40	ND	939.71	ND	ND	0.5	282.8	24.5	66.7	ND	0
14667	2011-10-01T02:00:00	14	6.30	ND	1143.69	ND	ND	1.1	161.7	24	70.1	ND	0
14668	2011-10-01T03:00:00	9	5.93	ND	1096.09	ND	ND	0.7	144.2	23.2	75.8	ND	0
14669	2011-10-01T04:00:00	12	6.88	ND	1218.40	ND	ND	0.5	93.1	22.9	77.9	ND	0
14670	2011-10-01T05:00:00	7	5.93	ND	955.53	ND	ND	0.6	96.6	22.3	81.8	ND	0
14671	2011-10-01T06:00:00	5	5.27	ND	1101.17	ND	ND	0.6	137.7	22.1	80.2	ND	0
14672	2011-10-01T07:00:00	15	4.98	ND	1089.08	ND	ND	0.9	146.9	22	83	22.8	0
14673	2011-10-01T08:00:00	22	4.46	ND	1100.05	ND	ND	0.5	159.5	23	78.6	106.1	0
14674	2011-10-01T09:00:00	13	5.08	ND	1763.77	ND	ND	1.4	156.1	24.1	71.9	181	0
14675	2011-10-01T10:00:00	11	7.08	ND	2364.25	ND	ND	1.5	179.4	24.6	68.8	368.6	0
14676	2011-10-01T11:00:00	6	8.98	ND	2528.39	ND	ND	1.1	183.1	26.1	61.7	451.4	0
14677	2011-10-01T12:00:00	4	7.73	ND	1494.79	ND	ND	0.6	198.5	27	56.6	307.9	0
14678	2011-10-01T13:00:00	9	7.54	ND	1464.69	ND	ND	0.4	75.1	28.5	50.9	703.2	0
14679	2011-10-01T14:00:00	6	7.71	ND	1495.19	ND	ND	1.1	67.1	29.1	48.9	264.8	0
14680	2011-10-01T15:00:00	5	6.56	ND	1486.55	ND	ND	2.2	287	29.3	46.7	380.4	0
14681	2011-10-01T16:00:00	5	8.32	ND	1882.66	ND	ND	2.5	262.3	29.3	46	323	0
14682	2011-10-01T17:00:00	5	8.08	ND	1243.49	ND	ND	2.5	185	25.2	67	129.3	0
14683	2011-10-01T18:00:00	10	5.19	ND	1111.98	ND	ND	2.1	168.9	24.8	68.6	44.1	0
14684	2011-10-01T19:00:00	18	8.46	ND	1877.54	ND	ND	1.3	138.7	25.1	69	ND	0
14685	2011-10-01T20:00:00	24	8.86	ND	2360.74	ND	ND	1.1	71.2	24.6	67.4	ND	0
14686	2011-10-01T21:00:00	24	7.77	ND	3443.65	ND	ND	0.9	151.8	24.4	69.2	ND	0
14687	2011-10-01T22:00:00	21	6.38	ND	2332.33	ND	ND	0.5	101.7	24.1	70.7	ND	0
14688	2011-10-01T23:00:00	15	10.29	ND	2478.46	ND	ND	0.5	148.6	23.3	74.4	ND	0
14689	2011-10-02T00:00:00	19	8.81	ND	2369.27	ND	ND	0.6	110.5	22.8	77.4	ND	0
14690	2011-10-02T01:00:00	19	7.98	ND	2115.10	ND	ND	1.2	177.7	22.5	79.1	ND	0
14691	2011-10-02T02:00:00	9	7.69	ND	2249.27	ND	ND	1	164.2	22.4	79.1	ND	0
14692	2011-10-02T03:00:00	5	6.44	ND	1680.71	ND	ND	0.8	146.9	22.1	81.8	ND	0
14693	2011-10-02T04:00:00	5	5.60	ND	1361.35	ND	ND	0.9	169	21.7	83.3	ND	0
14694	2011-10-02T05:00:00	4	5.18	ND	1427.48	ND	ND	0.8	163.5	21.7	82.8	ND	0
14695	2011-10-02T06:00:00	4	5.05	ND	1314.19	ND	ND	0.7	217.1	21.8	82.8	ND	0
14696	2011-10-02T07:00:00	7	4.98	ND	1155.97	ND	ND	1	148.3	21.8	84.1	14.1	0
14697	2011-10-02T08:00:00	22	4.56	ND	1087.97	ND	ND	0.9	143.9	21.6	87.9	136.9	1.27
14698	2011-10-02T09:00:00	13	4.92	ND	1404.35	ND	ND	0.6	123.2	22.9	81.7	249.3	0
14699	2011-10-02T10:00:00	9	4.55	ND	1501.55	ND	ND	1	99.1	24	75	273.2	0
14700	2011-10-02T11:00:00	6	6.06	ND	1290.19	ND	ND	0.8	151.7	25	70.3	341.9	0
14701	2011-10-02T12:00:00	5	6.03	ND	1454.92	ND	ND	0.3	76.1	26.2	63.9	453.7	0
14702	2011-10-02T13:00:00	5	5.24	ND	1357.26	ND	ND	0.6	132.7	27.7	57.5	552.2	0
14703	2011-10-02T14:00:00	4	4.39	ND	1271.59	ND	ND	0.2	317.9	29.2	50.6	467	0
14704	2011-10-02T15:00:00	5	4.01	ND	1370.87	ND	ND	3.1	301.4	29.2	45.5	474.6	0
14705	2011-10-02T16:00:00	3	3.83	ND	1231.46	ND	ND	3.9	283.7	29	45.7	478.5	0
14706	2011-10-02T17:00:00	16	3.13	ND	801.08	ND	ND	1.6	142.4	27.7	54.7	211.6	0
14707	2011-10-02T18:00:00	8	4.73	ND	843.87	ND	ND	1.3	179.2	26.5	56.6	59.1	0
14708	2011-10-02T19:00:00	9	5.87	ND	1243.48	ND	ND	2.9	198.8	24.8	64.9	ND	0
14709	2011-10-02T20:00:00	14	7.72	ND	1305.12	ND	ND	2.6	171.6	21.9	81.2	ND	0.25
14710	2011-10-02T21:00:00	9	4.85	ND	1088.34	ND	ND	1.6	201.1	21	88.6	ND	0
14711	2011-10-02T22:00:00	5	3.80	ND	1220.65	ND	ND	1.7	146	20.6	90.6	ND	0.25
14712	2011-10-02T23:00:00	3	2.61	ND	1106.12	ND	ND	0.5	205.4	20.8	89.3	ND	0
14713	2011-10-03T00:00:00	2	3.07	ND	1558.66	ND	ND	0.7	142	21	87.3	ND	0
14714	2011-10-03T01:00:00	3	2.64	ND	1152.83	ND	ND	0.9	118.9	20.6	87.7	ND	0
14715	2011-10-03T02:00:00	4	2.53	ND	1591.46	ND	ND	0.7	85.2	20.4	89.2	ND	0
14716	2011-10-03T03:00:00	4	2.45	ND	1364.79	ND	ND	0.8	19.7	20.3	90.2	ND	0
14717	2011-10-03T04:00:00	5	2.42	ND	969.68	ND	ND	0.8	71.4	20.3	88.7	ND	0
14718	2011-10-03T05:00:00	3	2.73	ND	1014.79	ND	ND	0.2	ND	20.3	88	ND	0
14719	2011-10-03T06:00:00	3	3.48	ND	1048.61	ND	ND	0.2	ND	20.7	87.2	ND	0
14720	2011-10-03T07:00:00	24	4.91	ND	1072.62	ND	ND	0.7	107.8	21	86.1	28.6	0
14721	2011-10-03T08:00:00	14	8.09	ND	1537.11	ND	ND	0.8	165.5	21	85	72.6	0
14722	2011-10-03T09:00:00	8	12.12	ND	2701.25	ND	ND	0.7	129.5	22	82.6	291.3	0
14723	2011-10-03T10:00:00	5	15.41	ND	2619.71	ND	ND	1.2	91.8	24.8	69.4	594.6	0
14724	2011-10-03T11:00:00	3	18.51	ND	2358.37	ND	ND	1.2	67.3	26.4	60.7	703.3	0
14725	2011-10-03T12:00:00	2	19.24	ND	1864.60	ND	ND	1	87	28.4	52	810.5	0
14726	2011-10-03T13:00:00	5	18.23	ND	1367.24	ND	ND	0.5	84.5	29.3	48.4	456	0
14727	2011-10-03T14:00:00	9	15.58	ND	1382.94	ND	ND	2.2	336.8	27.4	56.4	49.9	0
14728	2011-10-03T15:00:00	7	11.25	ND	1443.54	ND	ND	2.2	289.7	25	65.6	121.2	0
14729	2011-10-03T16:00:00	6	11.84	ND	1386.18	ND	ND	1.9	319.5	26.3	58.7	230.7	0
14730	2011-10-03T17:00:00	5	9.24	ND	1530.30	ND	ND	3.9	280.3	26.4	54.3	155.5	0
14731	2011-10-03T18:00:00	4	9.32	ND	1507.80	ND	ND	3.8	271.9	25.1	58.6	31	0
14732	2011-10-03T19:00:00	3	6.61	ND	1386.65	ND	ND	2.5	245.1	24.4	62.4	ND	0
14733	2011-10-03T20:00:00	4	5.83	ND	1337.66	ND	ND	2	231.3	23.8	68.4	ND	0
14734	2011-10-03T21:00:00	5	6.42	ND	1483.29	ND	ND	1.5	237.2	23.8	68	ND	0
14735	2011-10-03T22:00:00	4	5.06	ND	1255.09	ND	ND	1.1	341.8	23.9	67	ND	0
14736	2011-10-03T23:00:00	4	4.86	ND	1198.45	ND	ND	1.1	40.9	22.7	77.5	ND	0
14737	2011-10-04T00:00:00	4	5.98	ND	1546.00	ND	ND	0.5	124.4	22.5	77.5	ND	0
14738	2011-10-04T01:00:00	2	5.92	ND	1374.56	ND	ND	0.8	145.6	22.1	82.7	ND	0
14739	2011-10-04T02:00:00	1	5.55	ND	1179.84	ND	ND	0.6	95.1	22	83.2	ND	0
14740	2011-10-04T03:00:00	ND	5.50	ND	1054.69	ND	ND	1.7	147.3	21.4	86.4	ND	0
14741	2011-10-04T04:00:00	ND	4.92	ND	973.32	ND	ND	2.2	177.2	20.3	90.3	ND	17.02
14742	2011-10-04T05:00:00	2	4.13	ND	902.03	ND	ND	1.6	214.4	19	97.6	ND	89.15
14743	2011-10-04T06:00:00	2	3.54	ND	830.68	ND	ND	0.7	247.7	18.5	99.2	ND	32.77
14744	2011-10-04T07:00:00	4	2.20	ND	840.46	ND	ND	0.6	191.6	18.9	99.5	2.5	3.81
14745	2011-10-04T08:00:00	3	2.46	ND	886.50	ND	ND	1.1	44.2	18.9	99.2	12.3	10.92
14746	2011-10-04T09:00:00	4	2.85	ND	1593.46	ND	ND	1.3	11.4	19.1	98.7	69.8	1.52
14747	2011-10-04T10:00:00	4	3.80	ND	2279.54	ND	ND	1.3	16.2	20.1	95.5	206.7	0.51
14748	2011-10-04T11:00:00	3	4.72	ND	2174.67	ND	ND	1.2	26.1	21.7	83.9	386.4	0
14749	2011-10-04T12:00:00	4	7.23	ND	2163.88	ND	ND	1.4	23.2	23	76.5	469.6	0
14750	2011-10-04T13:00:00	4	13.53	ND	1706.88	ND	ND	0.9	22.4	24.9	65.4	588.9	0
14751	2011-10-04T14:00:00	4	25.96	ND	1614.76	ND	ND	1.1	34.9	25.8	59.7	545.2	0
14752	2011-10-04T15:00:00	3	26.40	ND	1619.64	ND	ND	1.9	25.2	27.1	58.4	654.1	0
14753	2011-10-04T16:00:00	4	21.19	ND	1349.81	ND	ND	2.1	10.6	26.9	58.3	284.7	0
14754	2011-10-04T17:00:00	4	19.14	ND	1325.85	ND	ND	0.7	292.6	25	68.3	28	0
14755	2011-10-04T18:00:00	14	13.55	ND	1443.47	ND	ND	1.8	218.2	23.4	72.5	1.1	0
14756	2011-10-04T19:00:00	9	31.87	ND	1914.29	ND	ND	2.2	252.9	23.5	69.1	ND	0
14757	2011-10-04T20:00:00	6	16.61	ND	2120.10	ND	ND	1.7	271.8	23.2	72.5	ND	0
14758	2011-10-04T21:00:00	5	11.02	ND	1833.29	ND	ND	1.3	272.7	22.6	72.4	ND	0
14759	2011-10-04T22:00:00	3	9.20	ND	1511.39	ND	ND	1.1	287.8	22.2	71.6	ND	0
14760	2011-10-04T23:00:00	3	7.89	ND	1271.02	ND	ND	0.6	277.8	21.8	72.8	ND	0
14761	2011-10-05T00:00:00	3	6.43	ND	1223.97	ND	ND	1.5	251.1	21.1	72.3	ND	0
14762	2011-10-05T01:00:00	5	5.71	ND	1085.39	ND	ND	1.8	256.5	21.2	71	ND	0
14763	2011-10-05T02:00:00	5	3.26	ND	803.01	ND	ND	1.4	264.6	20.9	74.1	ND	0
14764	2011-10-05T03:00:00	4	3.95	ND	542.33	ND	ND	0.7	35	20.4	83	ND	0
14765	2011-10-05T04:00:00	8	4.39	ND	417.33	ND	ND	0.4	63.4	20.1	86.6	ND	0
14766	2011-10-05T05:00:00	6	4.95	ND	935.22	ND	ND	0.1	ND	20.3	84.8	ND	0
14767	2011-10-05T06:00:00	5	6.71	ND	1014.79	ND	ND	0.4	ND	20.4	83.9	ND	0
14768	2011-10-05T07:00:00	ND	6.81	ND	812.10	ND	ND	0.6	228	20.6	80.9	73.1	0
14769	2011-10-05T08:00:00	11	6.71	ND	1139.98	ND	ND	0.9	83.2	22.2	74.5	196.3	0
14770	2011-10-05T09:00:00	ND	8.85	ND	1395.86	ND	ND	0.8	108	23.6	70.9	389	0
14771	2011-10-05T10:00:00	ND	17.16	ND	2155.03	ND	ND	1.1	124.8	25.5	63.2	627.8	0
14772	2011-10-05T11:00:00	2	26.33	ND	1996.70	ND	ND	1.2	109.2	27	56.6	801.7	0
14773	2011-10-05T12:00:00	1	23.61	ND	1107.16	ND	ND	1.4	136.5	28.4	51	796.7	0
14774	2011-10-05T13:00:00	2	16.59	ND	892.18	ND	ND	1.2	128.6	29.7	47.3	770.5	0
14775	2011-10-05T14:00:00	2	13.23	ND	733.12	ND	ND	1.1	243	27.8	55.9	108.3	1.78
14776	2011-10-05T15:00:00	2	12.33	ND	728.51	ND	ND	2	2.4	25.1	71.2	145	0.25
14777	2011-10-05T16:00:00	ND	9.72	ND	481.32	ND	ND	0.9	6.6	26.4	63.2	177.4	0
14778	2011-10-05T17:00:00	ND	9.48	ND	1139.48	ND	ND	2.1	268.1	27.4	53.3	170.1	0
14779	2011-10-05T18:00:00	ND	18.20	ND	1074.00	ND	ND	2.4	274.1	26.5	55.6	56.1	0
14780	2011-10-05T19:00:00	3	10.06	ND	333.90	ND	ND	0.5	294.2	25.8	59.4	ND	0
14781	2011-10-05T20:00:00	ND	ND	ND	551.37	ND	ND	2.3	271.5	25.1	58.1	ND	0
14782	2011-10-05T21:00:00	19	ND	ND	1363.73	ND	ND	1	284.8	24.4	61.8	ND	0
14783	2011-10-05T22:00:00	11	ND	ND	457.32	ND	ND	2	269.2	23.9	63.6	ND	0
14784	2011-10-05T23:00:00	12	ND	ND	1129.96	ND	ND	1.8	254.1	23.7	64.1	ND	0
14785	2011-10-06T00:00:00	11	ND	ND	570.30	ND	ND	1	232.1	23.7	67.6	ND	0
14786	2011-10-06T01:00:00	6	ND	ND	239.53	ND	ND	0.8	211	23.5	69.1	ND	0
14787	2011-10-06T02:00:00	5	ND	ND	661.11	ND	ND	1	192.8	21.7	84.5	ND	1.78
14788	2011-10-06T03:00:00	6	ND	ND	555.13	ND	ND	1	12.3	21.2	88.4	ND	1.02
14789	2011-10-06T04:00:00	17	ND	ND	316.68	ND	ND	0.6	293.8	21.1	87	ND	0.25
14790	2011-10-06T05:00:00	11	ND	ND	452.25	ND	ND	1.5	198.8	21	84.4	ND	0
14791	2011-10-06T06:00:00	7	ND	ND	440.79	ND	ND	0.6	112.9	20.4	88.6	ND	0
14792	2011-10-06T07:00:00	6	ND	ND	383.49	ND	ND	0.7	248.4	20.7	87.7	22.3	0
14793	2011-10-06T08:00:00	13	ND	ND	722.61	ND	ND	0.9	226.2	21.1	82.1	89.7	0
14794	2011-10-06T09:00:00	8	ND	ND	1390.66	ND	ND	0.3	244.2	22.6	76.6	314.1	0
14795	2011-10-06T10:00:00	5	ND	ND	1920.48	ND	ND	1.5	206	24.3	69.5	482.6	0
14796	2011-10-06T11:00:00	5	ND	ND	1245.78	ND	ND	0.8	149.3	27.2	54.8	792.6	0
14797	2011-10-06T12:00:00	3	ND	ND	992.50	ND	ND	2	127.8	28	52.6	709.1	0
14798	2011-10-06T13:00:00	2	ND	ND	821.57	ND	ND	2	133.9	28	54.4	394.9	0
14799	2011-10-06T14:00:00	3	ND	ND	960.43	ND	ND	0.9	226.6	27.7	55.1	207.5	0
14800	2011-10-06T15:00:00	3	ND	ND	936.35	ND	ND	1.6	257	27.8	56.6	547.8	0
14801	2011-10-06T16:00:00	2	ND	ND	821.02	ND	ND	0.8	302.2	29.6	50.1	493.8	0
14802	2011-10-06T17:00:00	4	ND	ND	570.01	ND	ND	1.8	289.6	29.5	49.7	289.3	0
14803	2011-10-06T18:00:00	4	ND	ND	1011.73	ND	ND	2.9	269.1	27.4	55	25.4	0
14804	2011-10-06T19:00:00	2	ND	ND	669.80	ND	ND	3.8	262.5	25.9	59.5	ND	0
14805	2011-10-06T20:00:00	1	ND	ND	1034.16	ND	ND	2.8	264.7	25.4	61.2	ND	0
14806	2011-10-06T21:00:00	1	ND	ND	757.12	ND	ND	1.5	267.5	25.1	63	ND	0
14807	2011-10-06T22:00:00	7	ND	ND	676.14	ND	ND	0.3	ND	24.1	71	ND	0
14808	2011-10-06T23:00:00	6	ND	ND	422.59	ND	ND	1.4	290.5	24.6	64	ND	0
14809	2011-10-07T00:00:00	4	ND	ND	777.97	ND	ND	0.6	44.8	23.1	76	ND	0
14810	2011-10-07T01:00:00	4	ND	ND	193.51	ND	ND	1.2	183.1	23	74.1	ND	0
14811	2011-10-07T02:00:00	4	ND	ND	751.03	ND	ND	1.1	174.6	22.1	80.7	ND	0
14812	2011-10-07T03:00:00	3	ND	ND	317.65	ND	ND	1.2	219.2	22.4	77.5	ND	0
14813	2011-10-07T04:00:00	2	ND	ND	158.99	ND	ND	1.3	168.3	22.4	77.8	ND	0
14814	2011-10-07T05:00:00	3	ND	ND	113.56	ND	ND	1.1	194.9	22	80.7	ND	0
14815	2011-10-07T06:00:00	4	ND	ND	113.41	ND	ND	0.6	256.8	22.3	76.9	ND	0
14816	2011-10-07T07:00:00	5	ND	ND	124.88	ND	ND	0.3	223.6	22.7	74.6	15.7	0
14817	2011-10-07T08:00:00	7	ND	ND	79.57	ND	ND	0	319.4	22.8	79	55	0
14818	2011-10-07T09:00:00	5	ND	ND	886.98	ND	ND	0.3	158.6	23.5	74.7	142.8	0
14819	2011-10-07T10:00:00	4	ND	ND	1789.55	ND	ND	0.3	3.6	24.8	68.4	306.5	0
14820	2011-10-07T11:00:00	5	ND	ND	1556.98	ND	ND	1	60.8	26.9	60.7	683	0
14821	2011-10-07T12:00:00	4	ND	ND	1302.79	ND	ND	1.2	48.5	28.5	53.6	683.3	0
14822	2011-10-07T13:00:00	3	ND	ND	1101.11	ND	ND	1.8	313.1	29.1	50.7	588.1	0
14823	2011-10-07T14:00:00	4	ND	ND	661.98	ND	ND	2.7	265.5	29.9	47	679.8	0
14824	2011-10-07T15:00:00	2	ND	ND	267.82	ND	ND	1.3	315.8	30.8	45.3	681	0
14825	2011-10-07T16:00:00	3	ND	ND	432.12	ND	ND	0.8	300.4	29.6	49.1	97.7	0
14826	2011-10-07T17:00:00	2	ND	ND	407.15	ND	ND	3.9	271.3	28.3	51.8	113	0
14827	2011-10-07T18:00:00	2	ND	ND	741.31	ND	ND	4.1	273.1	27.4	53.2	38	0
14828	2011-10-07T19:00:00	4	ND	ND	531.22	ND	ND	4.2	274.8	26.2	58.3	ND	0
14829	2011-10-07T20:00:00	2	ND	ND	460.09	ND	ND	4.6	270	25.4	61.7	ND	0
14830	2011-10-07T21:00:00	2	ND	ND	263.84	ND	ND	2.2	290.9	25.5	60.2	ND	0
14831	2011-10-07T22:00:00	4	ND	ND	11.48	ND	ND	1	310.3	25.6	60.9	ND	0
14832	2011-10-07T23:00:00	3	ND	ND	80.35	ND	ND	0.7	93.5	24.6	67.9	ND	0
14833	2011-10-08T00:00:00	ND	ND	ND	583.48	ND	ND	1	197.1	24.2	69.7	ND	0
14834	2011-10-08T01:00:00	5	ND	ND	1188.23	ND	ND	1.9	190	24	71.7	ND	0
14835	2011-10-08T02:00:00	3	ND	ND	502.38	ND	ND	2.2	233.6	23.3	75.5	ND	3.81
14836	2011-10-08T03:00:00	15	ND	ND	387.28	ND	ND	1.9	166.1	22.3	85.6	ND	0
14837	2011-10-08T04:00:00	ND	ND	ND	22.70	ND	ND	1.4	167	20.8	93.9	ND	35.56
14838	2011-10-08T05:00:00	ND	ND	ND	180.71	ND	ND	0.2	ND	20.3	97.8	ND	9.14
14839	2011-10-08T06:00:00	ND	ND	ND	146.58	ND	ND	0.7	74.1	20.4	96.5	ND	0.25
14840	2011-10-08T07:00:00	5	ND	ND	124.07	ND	ND	1.3	12.9	20.9	92.6	21.1	0
14841	2011-10-08T08:00:00	3	ND	ND	485.83	ND	ND	0.8	41.9	21.5	89.6	115.9	0
14842	2011-10-08T09:00:00	3	ND	ND	883.08	ND	ND	2	129.6	22.8	83.3	338.1	0
14843	2011-10-08T10:00:00	3	ND	ND	1364.58	ND	ND	1.2	130	23.6	77.5	416.4	0
14844	2011-10-08T11:00:00	4	ND	ND	1334.06	ND	ND	1.3	66.2	25.1	69.7	429.2	0
14845	2011-10-08T12:00:00	3	ND	ND	1065.77	ND	ND	3.1	39.5	25.5	67.7	552	0
14846	2011-10-08T13:00:00	3	ND	ND	872.12	ND	ND	2.2	18.6	26.4	60.2	571.8	0
14847	2011-10-08T14:00:00	21	ND	ND	874.75	ND	ND	1.6	35.9	27.8	56.4	716.3	0
14848	2011-10-08T15:00:00	12	ND	ND	624.44	ND	ND	2.2	34.7	28.5	53.4	443.6	0
14849	2011-10-08T16:00:00	7	ND	ND	718.62	ND	ND	1.7	38.9	27.6	54.3	210.4	0
14850	2011-10-08T17:00:00	4	ND	ND	612.47	ND	ND	1.7	271.2	27.7	53.5	236.2	0
14851	2011-10-08T18:00:00	3	ND	ND	751.39	ND	ND	1.9	282.4	26.2	58.1	33.2	0
14852	2011-10-08T19:00:00	3	ND	ND	517.60	ND	ND	2.2	271.8	25.2	60	ND	0
14853	2011-10-08T20:00:00	4	ND	ND	573.19	ND	ND	2	279	24.7	61.8	ND	0
14854	2011-10-08T21:00:00	4	ND	ND	618.01	ND	ND	2.3	267.3	24.8	60.1	ND	0
14855	2011-10-08T22:00:00	4	ND	ND	503.73	ND	ND	0.8	6.1	23.8	70.2	ND	0
14856	2011-10-08T23:00:00	4	ND	ND	467.81	ND	ND	0.6	177	23.6	71.9	ND	0
14857	2011-10-09T00:00:00	4	ND	ND	1163.03	ND	ND	0.6	133.2	23.6	71.8	ND	0
14858	2011-10-09T01:00:00	3	ND	ND	1516.50	ND	ND	0.6	93.8	23	75.6	ND	0
14859	2011-10-09T02:00:00	2	ND	ND	1206.19	ND	ND	0.4	76.3	22.6	75	ND	0
14860	2011-10-09T03:00:00	2	ND	ND	1147.74	ND	ND	0.6	148.2	22.4	75.1	ND	0
14861	2011-10-09T04:00:00	2	ND	ND	726.79	ND	ND	0.4	331.9	22.3	73.7	ND	0
14862	2011-10-09T05:00:00	2	ND	ND	749.25	ND	ND	0.2	115.8	21.7	78.8	ND	0
14863	2011-10-09T06:00:00	2	ND	ND	509.81	ND	ND	1	248.3	21.4	76.6	0	0
14864	2011-10-09T07:00:00	3	ND	ND	611.15	ND	ND	0.6	266	21.7	75.2	60.1	0
14865	2011-10-09T08:00:00	2	ND	ND	283.23	ND	ND	0.5	156.9	22.5	77	143.1	0
14866	2011-10-09T09:00:00	2	ND	ND	386.24	ND	ND	1	155.3	23.6	75.2	327.8	0
14867	2011-10-09T10:00:00	2	ND	ND	672.73	ND	ND	0.9	114.4	25.5	63.5	577.8	0
14868	2011-10-09T11:00:00	2	ND	ND	481.96	ND	ND	0.6	135.4	27.4	55.9	588.7	0
14869	2011-10-09T12:00:00	1	ND	ND	404.19	ND	ND	0.5	94.1	27.9	53	470.8	0
14870	2011-10-09T13:00:00	8	ND	ND	404.86	ND	ND	0.8	33.9	29.4	47.7	786.9	0
14871	2011-10-09T14:00:00	6	ND	ND	348.76	ND	ND	1.2	7.1	30	46.5	526.5	0
14872	2011-10-09T15:00:00	4	ND	ND	163.08	ND	ND	3.3	288.1	27.8	52.7	126.4	0
14873	2011-10-09T16:00:00	4	ND	ND	196.58	ND	ND	4.1	278.7	26.4	54.1	221.1	0
14874	2011-10-09T17:00:00	4	ND	ND	34.53	ND	ND	3.8	285	27.2	49.8	329.3	0
14875	2011-10-09T18:00:00	2	ND	ND	ND	ND	ND	3.6	297.9	25.9	52.6	40.3	0
14876	2011-10-09T19:00:00	2	ND	ND	ND	ND	ND	3.6	287.5	25.4	54.1	ND	0
14877	2011-10-09T20:00:00	1	ND	ND	ND	ND	ND	3.5	264.3	24.8	56.7	ND	0
14878	2011-10-09T21:00:00	8	ND	ND	ND	ND	ND	2.9	228	24.1	64.1	ND	0
14879	2011-10-09T22:00:00	7	ND	ND	ND	ND	ND	1.8	199.2	23.3	70.1	ND	0
14880	2011-10-09T23:00:00	5	ND	ND	45.56	ND	ND	2.3	175.8	21.9	79.7	ND	0
14881	2011-10-10T00:00:00	3	ND	ND	45.35	ND	ND	2.2	178.4	21.2	83.5	ND	0
14882	2011-10-10T01:00:00	3	ND	ND	113.10	ND	ND	1	170.4	20.4	91.8	ND	2.03
14883	2011-10-10T02:00:00	2	ND	ND	ND	ND	ND	0.8	181	20.4	91.9	ND	0
14884	2011-10-10T03:00:00	9	ND	ND	ND	ND	ND	0.6	140.9	20.5	92.1	ND	0.25
14885	2011-10-10T04:00:00	13	ND	ND	ND	ND	ND	0.9	112.4	20.4	92.2	ND	0.25
14886	2011-10-10T05:00:00	9	ND	ND	ND	ND	ND	0.9	53.1	20	93	ND	0
14887	2011-10-10T06:00:00	15	ND	ND	ND	ND	ND	1	64.9	20	91.9	ND	0
14888	2011-10-10T07:00:00	8	ND	ND	ND	ND	ND	1.1	43.7	19.9	91.2	7.7	0
14889	2011-10-10T08:00:00	23	ND	ND	225.20	ND	ND	0.9	358.3	20.5	87.9	94.6	0
14890	2011-10-10T09:00:00	34	ND	ND	631.85	ND	ND	0.9	10.8	22	82	269.6	0
14891	2011-10-10T10:00:00	40	ND	ND	952.62	ND	ND	1.1	20.1	24.1	72	471.8	0
14892	2011-10-10T11:00:00	21	ND	ND	890.88	ND	ND	1	38.9	24.9	67.4	352.6	0
14893	2011-10-10T12:00:00	11	ND	ND	881.82	ND	ND	0.7	90.4	25.7	62.3	409.6	0
14894	2011-10-10T13:00:00	18	ND	ND	574.15	ND	ND	0.9	196.5	26.7	60.2	483.8	0
14895	2011-10-10T14:00:00	14	ND	ND	437.81	ND	ND	1	126.4	28	56.6	598.7	0
14896	2011-10-10T15:00:00	15	ND	ND	381.86	ND	ND	1.6	127.9	27.9	56.7	271	0
14897	2011-10-10T16:00:00	33	ND	ND	647.78	ND	ND	2.6	284.8	23.2	75.2	10.8	6.1
14898	2011-10-10T17:00:00	30	ND	ND	614.89	ND	ND	1.4	24.6	20.3	91	4.8	19.05
14899	2011-10-10T18:00:00	17	ND	ND	778.00	ND	ND	0.5	2.2	21.4	85.8	1.8	0.25
14900	2011-10-10T19:00:00	22	ND	ND	1493.93	ND	ND	0.4	21.6	22.9	77.1	ND	0
14901	2011-10-10T20:00:00	55	ND	ND	2855.21	ND	ND	0.5	122.7	22.3	81.5	ND	0
14902	2011-10-10T21:00:00	49	ND	ND	5051.76	ND	ND	1.3	189.8	22	83.5	ND	0.25
14903	2011-10-10T22:00:00	31	ND	ND	2449.60	ND	ND	0.8	194.2	21.9	82.8	ND	0
14904	2011-10-10T23:00:00	29	ND	ND	1405.78	ND	ND	0.6	157.4	22	82.7	ND	0
14905	2011-10-11T00:00:00	46	ND	ND	873.24	ND	ND	0.2	172.4	21.5	87.2	ND	6.35
14906	2011-10-11T01:00:00	25	ND	ND	1222.72	ND	ND	1.2	212.1	20.9	90.9	ND	1.02
14907	2011-10-11T02:00:00	14	ND	ND	553.62	ND	ND	1.4	199.1	20.8	88.8	ND	0.25
14908	2011-10-11T03:00:00	9	ND	ND	282.37	ND	ND	1.2	180.8	20.4	88.5	ND	1.78
14909	2011-10-11T04:00:00	6	ND	ND	ND	ND	ND	0.5	145.9	19.9	91.6	ND	1.78
14910	2011-10-11T05:00:00	4	ND	ND	ND	ND	ND	0.2	102	20	92	ND	0
14911	2011-10-11T06:00:00	7	ND	ND	ND	ND	ND	0.7	23.5	20.3	91.5	ND	0.25
14912	2011-10-11T07:00:00	10	ND	ND	ND	ND	ND	0.8	19.5	20.5	91.5	25.7	0
14913	2011-10-11T08:00:00	16	ND	ND	361.06	ND	ND	0.8	104.8	20.7	90.5	127.2	0
14914	2011-10-11T09:00:00	10	ND	ND	1287.15	ND	ND	0.9	138.3	22.2	81.8	316.1	0
14915	2011-10-11T10:00:00	13	ND	ND	2394.52	ND	ND	1	89	24.3	71.4	603.3	0
14916	2011-10-11T11:00:00	7	ND	ND	1211.49	ND	ND	1.3	93.6	26.1	63.1	746.5	0
14917	2011-10-11T12:00:00	14	ND	ND	574.92	ND	ND	1.3	126.6	27.5	57.1	819.6	0
14918	2011-10-11T13:00:00	8	ND	ND	646.92	ND	ND	0.6	84	28.7	52.2	562.4	0
14919	2011-10-11T14:00:00	6	ND	ND	463.93	ND	ND	0.6	218.9	29.5	48.7	711	0
14920	2011-10-11T15:00:00	4	ND	ND	372.13	ND	ND	3.1	289.9	28.9	50.2	267.8	0
14921	2011-10-11T16:00:00	12	ND	ND	220.51	ND	ND	4.1	294	26.4	56.9	89.7	0
14922	2011-10-11T17:00:00	30	ND	ND	276.24	ND	ND	1.4	322.5	24.8	63.3	32.9	0
14923	2011-10-11T18:00:00	16	ND	ND	11.45	ND	ND	0.5	306.8	24.8	64.4	16.3	0
14924	2011-10-11T19:00:00	18	ND	ND	309.11	ND	ND	1.5	179	23	76.9	ND	0
14925	2011-10-11T20:00:00	20	ND	ND	694.13	ND	ND	2.8	183.9	21.9	82.3	ND	0
14926	2011-10-11T21:00:00	12	ND	ND	1031.66	ND	ND	2	190	21.7	83.3	ND	0
14927	2011-10-11T22:00:00	9	ND	ND	294.56	ND	ND	1	177.8	21.8	79.5	ND	0
14928	2011-10-11T23:00:00	18	ND	ND	147.33	ND	ND	0.8	117.7	22	79.8	ND	0
14929	2011-10-12T00:00:00	10	ND	ND	408.27	ND	ND	0.8	85.5	21.3	84.4	ND	0
14930	2011-10-12T01:00:00	7	ND	ND	690.14	ND	ND	0.8	119.1	20.9	88.8	ND	0
14931	2011-10-12T02:00:00	4	ND	ND	79.09	ND	ND	0.7	129	20.8	89.4	ND	3.05
14932	2011-10-12T03:00:00	13	ND	ND	ND	ND	ND	0.7	96.1	20.1	94.3	ND	7.11
14933	2011-10-12T04:00:00	8	ND	ND	ND	ND	ND	1.1	81.8	19.8	95.3	ND	4.57
14934	2011-10-12T05:00:00	5	ND	ND	ND	ND	ND	1	155.1	19.5	95.1	ND	3.81
14935	2011-10-12T06:00:00	3	ND	ND	ND	ND	ND	1.6	129.4	18.9	94.6	ND	0.51
14936	2011-10-12T07:00:00	2	ND	ND	ND	ND	ND	0.8	150.8	18	92.5	5.4	0.76
14937	2011-10-12T08:00:00	2	ND	ND	ND	ND	ND	0.2	51.1	18.4	89.6	93	0.51
14938	2011-10-12T09:00:00	3	ND	ND	291.26	ND	ND	1.2	310.9	20.9	78.1	379.4	0
14939	2011-10-12T10:00:00	3	ND	ND	903.88	ND	ND	1	327.5	23.8	62.8	553.8	0
14940	2011-10-12T11:00:00	4	ND	ND	764.47	ND	ND	1.5	89.4	24.7	61.1	483.3	0
14941	2011-10-12T12:00:00	10	ND	ND	194.56	ND	ND	1.2	121.4	25.7	60.4	828.3	0
14942	2011-10-12T13:00:00	7	ND	ND	723.43	ND	ND	1.5	145	26.9	59	892.7	0
14943	2011-10-12T14:00:00	5	ND	ND	553.40	ND	ND	1.5	138	27.6	56.7	609.5	0
14944	2011-10-12T15:00:00	6	ND	ND	681.81	ND	ND	1.5	105.8	27.2	57.3	368.2	0
14945	2011-10-12T16:00:00	18	ND	ND	634.74	ND	ND	1.1	147.8	27	58	159.4	0
14946	2011-10-12T17:00:00	14	ND	ND	622.78	ND	ND	3	277.2	26.9	53.5	225.7	0
14947	2011-10-12T18:00:00	15	ND	ND	818.57	ND	ND	2.9	275.6	25.6	55.8	43.3	0
14948	2011-10-12T19:00:00	9	ND	ND	367.33	ND	ND	2.8	278.2	25.1	55.5	ND	0
14949	2011-10-12T20:00:00	6	ND	ND	332.34	ND	ND	2.9	278.6	24.5	58.9	ND	0
14950	2011-10-12T21:00:00	5	ND	ND	308.80	ND	ND	1.6	300.2	24.4	58.7	ND	0
14951	2011-10-12T22:00:00	20	ND	ND	45.73	ND	ND	0.8	84	23.6	68.5	ND	0
14952	2011-10-12T23:00:00	53	ND	ND	ND	ND	ND	0.4	138.9	23.7	66.4	ND	0
14953	2011-10-13T00:00:00	28	ND	ND	1380.14	ND	ND	0.2	84.6	23.2	69.6	ND	0
14954	2011-10-13T01:00:00	16	ND	ND	762.92	ND	ND	1	163.3	23	71.1	ND	0
14955	2011-10-13T02:00:00	24	ND	ND	216.20	ND	ND	1.5	172.1	21.9	78.3	ND	0
14956	2011-10-13T03:00:00	14	ND	ND	170.05	ND	ND	0.7	139.2	21.7	79.6	ND	0
14957	2011-10-13T04:00:00	9	ND	ND	ND	ND	ND	0.9	199.2	21.5	82.1	ND	0
14958	2011-10-13T05:00:00	7	ND	ND	ND	ND	ND	1.1	211.3	21.2	83.8	ND	0
14959	2011-10-13T06:00:00	5	ND	ND	ND	ND	ND	0.6	233.2	21	83.5	ND	0
14960	2011-10-13T07:00:00	11	ND	ND	ND	ND	ND	0.3	ND	21.2	84.1	77.2	0
14961	2011-10-13T08:00:00	28	ND	ND	ND	ND	ND	0.5	148.4	22.4	80.2	160.8	0
14962	2011-10-13T09:00:00	26	ND	ND	79.49	ND	ND	0.1	193.5	23.4	74.3	253.5	0
14963	2011-10-13T10:00:00	32	ND	ND	1310.37	ND	ND	0.8	89.7	25.2	62.9	483.3	0
14964	2011-10-13T11:00:00	23	ND	ND	1043.20	ND	ND	0.9	83.1	27.3	53.4	650.2	0
14965	2011-10-13T12:00:00	19	ND	ND	565.68	ND	ND	1.2	23.8	27.9	51.4	613.7	0
14966	2011-10-13T13:00:00	12	ND	ND	277.62	ND	ND	1.1	19.2	28	51	289.6	0
14967	2011-10-13T14:00:00	16	ND	ND	69.43	ND	ND	0.4	212	28.8	49	545.5	0
14968	2011-10-13T15:00:00	17	ND	ND	266.85	ND	ND	0.6	98.2	28.6	51.1	168	0
14969	2011-10-13T16:00:00	11	ND	ND	208.70	ND	ND	3.4	280.7	29.2	46.7	578.6	0
14970	2011-10-13T17:00:00	7	ND	ND	580.88	ND	ND	4.6	274.8	27.2	51.8	229	0
14971	2011-10-13T18:00:00	8	ND	ND	369.30	ND	ND	5.3	274.8	25.3	58.2	21	0
14972	2011-10-13T19:00:00	6	ND	ND	ND	ND	ND	4.1	283	24.1	62.7	ND	0
14973	2011-10-13T20:00:00	7	ND	ND	11.42	ND	ND	5	271.4	23.9	61.4	ND	0
14974	2011-10-13T21:00:00	14	ND	ND	ND	ND	ND	1.9	312	23.9	62.8	ND	0
14975	2011-10-13T22:00:00	16	ND	ND	ND	ND	ND	0.9	91.4	23.2	69.4	ND	0
14976	2011-10-13T23:00:00	10	ND	ND	ND	ND	ND	0.9	173.2	23.1	69.7	ND	0
14977	2011-10-14T00:00:00	15	ND	ND	967.56	ND	ND	1.2	199	22.2	76.3	ND	0
14978	2011-10-14T01:00:00	9	ND	ND	442.59	ND	ND	0.3	204.3	22.3	74.8	ND	0
14979	2011-10-14T02:00:00	13	ND	ND	ND	ND	ND	0.8	54.6	21.6	79.7	ND	0
14980	2011-10-14T03:00:00	8	ND	ND	ND	ND	ND	0.4	ND	21	82.7	ND	0
14981	2011-10-14T04:00:00	5	ND	ND	22.60	ND	ND	0.7	250.4	20.8	77.5	ND	0
14982	2011-10-14T05:00:00	5	ND	ND	ND	ND	ND	0.6	317.7	20.9	77.7	ND	0
14983	2011-10-14T06:00:00	10	ND	ND	ND	ND	ND	0.1	ND	20.9	78.6	ND	0
14984	2011-10-14T07:00:00	21	ND	ND	ND	ND	ND	1.3	259.8	21.4	71.6	63.8	0
14985	2011-10-14T08:00:00	18	ND	ND	ND	ND	ND	0.3	224	22.1	71.7	139.9	0
14986	2011-10-14T09:00:00	15	ND	ND	442.44	ND	ND	1.7	32.3	23	72	322.7	0
14987	2011-10-14T10:00:00	17	ND	ND	842.06	ND	ND	2	27.7	24	66.2	462	0
14988	2011-10-14T11:00:00	9	ND	ND	867.74	ND	ND	1	68.2	24.7	65	376.4	0
14989	2011-10-14T12:00:00	9	ND	ND	434.89	ND	ND	1	342.1	24.2	70.8	227.4	0.76
14990	2011-10-14T13:00:00	5	ND	ND	445.59	ND	ND	0.5	46.6	23.2	79.3	255.4	1.52
14991	2011-10-14T14:00:00	22	ND	ND	398.54	ND	ND	0.7	147	23.4	77.2	98.3	1.02
14992	2011-10-14T15:00:00	42	ND	ND	695.07	ND	ND	0.7	140.4	21.7	86.9	66.2	3.3
14993	2011-10-14T16:00:00	33	ND	ND	1008.30	ND	ND	1.3	111.8	22.1	86.1	75.1	0.25
14994	2011-10-14T17:00:00	39	ND	ND	1758.41	ND	ND	0.9	179.5	21.2	91.2	10.9	5.33
14995	2011-10-14T18:00:00	44	ND	ND	1945.32	ND	ND	0.6	136.6	21	91.7	0.6	4.57
14996	2011-10-14T19:00:00	46	ND	ND	1311.07	ND	ND	0.7	73.3	20.5	91.8	ND	1.02
14997	2011-10-14T20:00:00	26	ND	ND	2188.92	ND	ND	0.6	49.3	20.6	89.6	ND	0
14998	2011-10-14T21:00:00	26	ND	ND	2099.37	ND	ND	0.3	ND	20.7	89.4	ND	0
14999	2011-10-14T22:00:00	16	ND	ND	1750.07	ND	ND	1	218.1	20.5	90.3	ND	0
15000	2011-10-14T23:00:00	9	ND	ND	2109.94	ND	ND	0.3	213.9	20.5	87.9	ND	0.25
15001	2011-10-15T00:00:00	14	ND	ND	1365.25	ND	ND	0.7	188.4	20.3	88.5	ND	0
15002	2011-10-15T01:00:00	8	ND	ND	1195.19	ND	ND	0.7	211	20	90.5	ND	0
15003	2011-10-15T02:00:00	4	ND	ND	439.29	ND	ND	0.2	ND	20.1	89.6	ND	0
15004	2011-10-15T03:00:00	5	ND	ND	135.21	ND	ND	0.3	256	20	88.2	ND	0
15005	2011-10-15T04:00:00	5	ND	ND	ND	ND	ND	0.6	56.7	19.7	91.4	ND	2.03
15006	2011-10-15T05:00:00	8	ND	ND	ND	ND	ND	0.1	ND	19.5	93.6	ND	0.25
15007	2011-10-15T06:00:00	24	ND	ND	11.24	ND	ND	0.7	144.1	19.5	93.6	ND	0
15008	2011-10-15T07:00:00	24	ND	ND	ND	ND	ND	0.5	165.4	19.5	93.8	1.1	11.43
15009	2011-10-15T08:00:00	13	ND	ND	359.83	ND	ND	0.4	140.3	19.4	95.1	95.4	1.52
15010	2011-10-15T09:00:00	8	ND	ND	798.10	ND	ND	0.8	165.6	21.1	86.5	299	0.25
15011	2011-10-15T10:00:00	6	ND	ND	1582.86	ND	ND	0.7	123.9	23	73.8	550.4	0
15012	2011-10-15T11:00:00	5	ND	ND	1263.09	ND	ND	0.6	107.2	24.6	66.7	527.3	0
15013	2011-10-15T12:00:00	16	ND	ND	469.07	ND	ND	0.7	58.4	25	64	236	0
15014	2011-10-15T13:00:00	44	ND	ND	492.61	ND	ND	0.8	334.7	25.5	61.8	390.9	0
15015	2011-10-15T14:00:00	24	ND	ND	654.09	ND	ND	1.8	336.2	26.1	59.8	293.2	0
15016	2011-10-15T15:00:00	28	ND	ND	287.46	ND	ND	0.9	326.2	23.5	74.2	222.1	3.05
15017	2011-10-15T16:00:00	15	ND	ND	216.57	ND	ND	0.9	310.1	25.5	62	229.7	0
15018	2011-10-15T17:00:00	10	ND	ND	596.72	ND	ND	2	280.9	24.8	60.4	106.4	0
15019	2011-10-15T18:00:00	5	ND	ND	286.21	ND	ND	2	274.4	24.1	62.4	11.6	0
15020	2011-10-15T19:00:00	4	ND	ND	125.64	ND	ND	2	292.3	23.3	65.2	ND	0
15021	2011-10-15T20:00:00	20	ND	ND	205.03	ND	ND	1	345	22.2	72.7	ND	0.25
15022	2011-10-15T21:00:00	20	ND	ND	181.57	ND	ND	0.5	12.5	20.4	84.8	ND	2.03
15023	2011-10-15T22:00:00	12	ND	ND	575.24	ND	ND	0.8	47	20.2	87	ND	0.25
15024	2011-10-15T23:00:00	8	ND	ND	484.68	ND	ND	1	355.4	19.8	90.1	ND	0
15025	2011-10-16T00:00:00	15	ND	ND	697.88	ND	ND	1.2	56.4	19.4	93.7	ND	3.3
15026	2011-10-16T01:00:00	9	ND	ND	325.98	ND	ND	1.5	47.1	19.2	94.7	ND	3.3
15027	2011-10-16T02:00:00	5	ND	ND	134.80	ND	ND	1.5	44	18.9	96	ND	5.59
15028	2011-10-16T03:00:00	3	ND	ND	ND	ND	ND	1	49.2	18.9	96.4	ND	4.57
15029	2011-10-16T04:00:00	2	ND	ND	ND	ND	ND	1.8	44.4	18.8	96.5	ND	3.05
15030	2011-10-16T05:00:00	3	ND	ND	ND	ND	ND	1.9	31.8	18.5	96.8	ND	9.65
15031	2011-10-16T06:00:00	3	ND	ND	ND	ND	ND	1.3	45.6	18.4	96.8	ND	0.76
15032	2011-10-16T07:00:00	4	ND	ND	ND	ND	ND	0.7	73.7	18.5	96.3	10.6	0.25
15033	2011-10-16T08:00:00	3	ND	ND	ND	ND	ND	0.6	114.4	18.8	95.1	59.5	1.02
15034	2011-10-16T09:00:00	4	ND	ND	145.83	ND	ND	0.7	149.5	19.6	92.1	176.3	0
15035	2011-10-16T10:00:00	3	ND	ND	281.21	ND	ND	0.7	183.7	21.1	83.3	278	0.25
15036	2011-10-16T11:00:00	3	ND	ND	214.82	ND	ND	1.7	193.4	22.1	78.6	395.7	0
15037	2011-10-16T12:00:00	3	ND	ND	45.38	ND	ND	2.2	163.5	23.6	69.8	494.2	0
15038	2011-10-16T13:00:00	8	ND	ND	ND	ND	ND	0.8	191.3	22.7	75.4	179.2	6.6
15039	2011-10-16T14:00:00	7	ND	ND	102.31	ND	ND	0.1	ND	22	79.9	195.5	1.02
15040	2011-10-16T15:00:00	5	ND	ND	ND	ND	ND	0.6	337.3	22.3	78.6	92.8	0.25
15041	2011-10-16T16:00:00	4	ND	ND	22.70	ND	ND	0.9	45.2	22.3	81.6	114	0.51
15042	2011-10-16T17:00:00	4	ND	ND	215.69	ND	ND	1.6	47.9	21.9	85.3	104.1	0
15043	2011-10-16T18:00:00	6	ND	ND	770.91	ND	ND	1.2	63	21.4	86.8	7	0
15044	2011-10-16T19:00:00	11	ND	ND	328.21	ND	ND	1	72.8	20.6	87.1	ND	0
15045	2011-10-16T20:00:00	7	ND	ND	383.76	ND	ND	0.3	ND	20.3	86.7	ND	0
15046	2011-10-16T21:00:00	5	ND	ND	462.29	ND	ND	0.5	208.5	20.6	86.4	ND	0
15047	2011-10-16T22:00:00	3	ND	ND	338.61	ND	ND	0.9	250.5	20.6	83.2	ND	0
15048	2011-10-16T23:00:00	9	ND	ND	575.63	ND	ND	0.5	183.3	20.5	86.4	ND	0
15049	2011-10-17T00:00:00	26	ND	ND	485.17	ND	ND	0.5	120.4	20.2	88.5	ND	0
15050	2011-10-17T01:00:00	14	ND	ND	1115.88	ND	ND	0.3	13.4	20	89	ND	0
15051	2011-10-17T02:00:00	10	ND	ND	675.83	ND	ND	0	ND	19.9	90.7	ND	0
15052	2011-10-17T03:00:00	6	ND	ND	360.32	ND	ND	0.2	ND	20	88.6	ND	0
15053	2011-10-17T04:00:00	5	ND	ND	281.60	ND	ND	0.8	48.8	19.8	89.3	ND	0
15054	2011-10-17T05:00:00	3	ND	ND	247.64	ND	ND	0.5	1.7	19	92.2	ND	1.27
15055	2011-10-17T06:00:00	3	ND	ND	213.28	ND	ND	0.6	19.5	19	90.2	ND	0
15056	2011-10-17T07:00:00	8	ND	ND	56.13	ND	ND	1.2	37.6	18.7	92.7	18.7	0.25
15057	2011-10-17T08:00:00	24	ND	ND	22.43	ND	ND	1.4	34.6	19.1	91.1	133.6	0
15058	2011-10-17T09:00:00	13	ND	ND	89.83	ND	ND	1	41.3	20.2	84.3	206.2	0
15059	2011-10-17T10:00:00	9	ND	ND	ND	ND	ND	0.4	161.9	20.7	81.9	114.6	0
15060	2011-10-17T11:00:00	12	ND	ND	ND	ND	ND	2.2	209	19.3	90.3	111.5	0
15061	2011-10-17T12:00:00	7	ND	ND	ND	ND	ND	1.6	209.9	20.1	85.2	308.5	0
15062	2011-10-17T13:00:00	6	ND	ND	135.21	ND	ND	1	149.9	21.1	79.7	322.3	0
15063	2011-10-17T14:00:00	4	ND	ND	ND	ND	ND	1.5	201.5	22.7	70.7	437.1	0
15064	2011-10-17T15:00:00	4	ND	ND	136.41	ND	ND	1.6	171.2	23.4	67.2	275.4	0
15065	2011-10-17T16:00:00	6	ND	ND	11.39	ND	ND	1.1	90.3	22.5	72.6	48.3	0
15066	2011-10-17T17:00:00	9	ND	ND	56.80	ND	ND	1.2	136.2	21.7	78.2	17	0
15067	2011-10-17T18:00:00	6	ND	ND	362.53	ND	ND	1.5	120.4	20.2	86.2	0.3	0
15068	2011-10-17T19:00:00	4	ND	ND	574.85	ND	ND	0.5	141.1	19.7	88.5	ND	0
15069	2011-10-17T20:00:00	3	ND	ND	495.10	ND	ND	1.3	176.7	19.1	91.7	ND	2.03
15070	2011-10-17T21:00:00	3	ND	ND	370.57	ND	ND	1.7	183	18.2	93.1	ND	3.56
15071	2011-10-17T22:00:00	3	ND	ND	257.48	ND	ND	0.4	ND	17.4	89.4	ND	1.27
15072	2011-10-17T23:00:00	9	ND	ND	189.79	ND	ND	0.1	ND	17.4	88.1	ND	1.52
15073	2011-10-18T00:00:00	5	ND	ND	ND	ND	ND	0.8	31.5	17.5	91.1	ND	0
15074	2011-10-18T01:00:00	5	ND	ND	ND	ND	ND	1.3	3.6	17.4	92.5	ND	0.51
15075	2011-10-18T02:00:00	5	ND	ND	223.28	ND	ND	1.2	356.8	17.2	92.8	ND	1.02
15076	2011-10-18T03:00:00	5	ND	ND	ND	ND	ND	1.2	4.6	17	92.7	ND	0.76
15077	2011-10-18T04:00:00	4	ND	ND	ND	ND	ND	0.9	26.9	16.7	91.3	ND	0.25
15078	2011-10-18T05:00:00	5	ND	ND	ND	ND	ND	1	30.3	16.3	90	ND	0
15079	2011-10-18T06:00:00	5	ND	ND	ND	ND	ND	0.9	32.3	16.1	88.5	ND	0
15080	2011-10-18T07:00:00	4	ND	ND	ND	ND	ND	0.6	48.1	16.4	84.2	14.7	0.25
15081	2011-10-18T08:00:00	4	ND	ND	211.38	ND	ND	0.5	74.9	16.9	79	83.6	0
15082	2011-10-18T09:00:00	3	ND	ND	913.86	ND	ND	0.5	208.2	18.2	77.5	284.1	0
15083	2011-10-18T10:00:00	3	ND	ND	1320.97	ND	ND	0.9	77.6	20.1	69.4	502.1	0
15084	2011-10-18T11:00:00	2	ND	ND	1723.96	ND	ND	1.3	42.3	20.7	66.7	474.6	0
15085	2011-10-18T12:00:00	2	ND	ND	1298.44	ND	ND	0.6	79.1	22.7	61.2	867.2	0
15086	2011-10-18T13:00:00	12	ND	ND	613.85	ND	ND	0.7	69.2	24.1	55	534	0
15087	2011-10-18T14:00:00	7	ND	ND	513.97	ND	ND	1.1	85.9	25.3	52	722.7	0
15088	2011-10-18T15:00:00	8	ND	ND	447.24	ND	ND	1	73.9	24.9	55.1	261.5	0
15089	2011-10-18T16:00:00	13	ND	ND	480.99	ND	ND	0.2	112.4	24.5	57.6	107.9	0
15090	2011-10-18T17:00:00	8	ND	ND	308.80	ND	ND	1	206.8	24	61.1	94.8	0
15091	2011-10-18T18:00:00	14	ND	ND	616.55	ND	ND	1.1	146.6	23.8	62.5	18.1	0
15092	2011-10-18T19:00:00	9	ND	ND	559.09	ND	ND	1.1	183.7	23	63.9	ND	0
15093	2011-10-18T20:00:00	18	ND	ND	1479.29	ND	ND	1.4	250.5	22.3	65.5	ND	0
15094	2011-10-18T21:00:00	12	ND	ND	2168.28	ND	ND	1.7	261.4	21.9	67.1	ND	0
15095	2011-10-18T22:00:00	7	ND	ND	691.55	ND	ND	0.7	309.3	21.7	71.2	ND	0
15096	2011-10-18T23:00:00	5	ND	ND	215.26	ND	ND	1	350.3	21.1	78.5	ND	0
15097	2011-10-19T00:00:00	6	ND	ND	599.23	ND	ND	0.5	284.8	20.9	79.5	ND	0
15098	2011-10-19T01:00:00	4	ND	ND	463.24	ND	ND	1.5	250.5	20.4	73.6	ND	0
15099	2011-10-19T02:00:00	2	ND	ND	530.12	ND	ND	1.3	247.4	20.2	72.5	ND	0
15100	2011-10-19T03:00:00	3	ND	ND	ND	ND	ND	0.4	206	20.3	74.9	ND	0
15101	2011-10-19T04:00:00	2	ND	ND	ND	ND	ND	0.9	172.3	19.8	83.3	ND	0
15102	2011-10-19T05:00:00	7	ND	ND	ND	ND	ND	0.7	175.1	19.6	84	ND	0
15103	2011-10-19T06:00:00	5	ND	ND	ND	ND	ND	0.6	248.3	19.3	77.6	ND	0
15104	2011-10-19T07:00:00	2	ND	ND	ND	ND	ND	1.2	267.3	19.6	70	77.1	0
15105	2011-10-19T08:00:00	7	ND	ND	ND	ND	ND	0.8	229	20.4	73.3	129.6	0
15106	2011-10-19T09:00:00	5	ND	ND	293.26	ND	ND	0.7	190.2	21.3	74.7	305.3	0
15107	2011-10-19T10:00:00	6	ND	ND	1244.52	ND	ND	0.6	145.3	22.6	69.4	362.2	0
15108	2011-10-19T11:00:00	6	ND	ND	965.92	ND	ND	0.9	89	24.1	62.5	507.6	0
15109	2011-10-19T12:00:00	4	ND	ND	491.12	ND	ND	1.1	120.9	25.5	57.4	763.1	0
15110	2011-10-19T13:00:00	29	ND	ND	493.44	ND	ND	0.5	118.1	27.2	51.7	849.7	0
15111	2011-10-19T14:00:00	35	ND	ND	357.76	ND	ND	0.9	24.4	27.8	49	498.7	0
15112	2011-10-19T15:00:00	18	ND	ND	543.49	ND	ND	3.7	285.3	28.8	38.9	719.7	0
15113	2011-10-19T16:00:00	11	ND	ND	255.25	ND	ND	4.9	278.8	27.6	42.8	451.8	0
15114	2011-10-19T17:00:00	8	ND	ND	ND	ND	ND	3.8	275.9	26.5	44.9	171.9	0
15115	2011-10-19T18:00:00	22	ND	ND	ND	ND	ND	3.7	278.9	25.3	48.7	30.3	0
15116	2011-10-19T19:00:00	12	ND	ND	126.14	ND	ND	4	276	24.2	52.6	ND	0
15117	2011-10-19T20:00:00	12	ND	ND	91.40	ND	ND	2.5	274.9	24	51.3	ND	0
15118	2011-10-19T21:00:00	8	ND	ND	ND	ND	ND	0.9	292.6	23.8	52.1	ND	0
15119	2011-10-19T22:00:00	30	ND	ND	ND	ND	ND	0.6	97.4	22.8	60.2	ND	0
15120	2011-10-19T23:00:00	22	ND	ND	ND	ND	ND	0.3	210.4	22.1	63.3	ND	0
15121	2011-10-20T00:00:00	16	ND	ND	1168.49	ND	ND	0.2	ND	21.8	66.2	ND	0
15122	2011-10-20T01:00:00	16	ND	ND	532.65	ND	ND	0.3	ND	21.2	72	ND	0
15123	2011-10-20T02:00:00	34	ND	ND	248.82	ND	ND	0.2	118.7	20.6	73.8	ND	0
15124	2011-10-20T03:00:00	19	ND	ND	327.32	ND	ND	0.8	158.2	20.1	77.2	ND	0
15125	2011-10-20T04:00:00	32	ND	ND	225.35	ND	ND	1.1	195.2	19.7	79	ND	0
15126	2011-10-20T05:00:00	18	ND	ND	ND	ND	ND	0.9	227.3	19.4	78.1	ND	0
15127	2011-10-20T06:00:00	11	ND	ND	ND	ND	ND	1.5	249.7	19.3	69.1	ND	0
15128	2011-10-20T07:00:00	7	ND	ND	ND	ND	ND	1.6	242	19.5	64.8	63.2	0
15129	2011-10-20T08:00:00	25	ND	ND	ND	ND	ND	1.1	174.1	21.4	65.3	290.6	0
15130	2011-10-20T09:00:00	43	ND	ND	316.89	ND	ND	1.3	156.2	22.1	66.4	302	0
15131	2011-10-20T10:00:00	29	ND	ND	1486.14	ND	ND	1	148.5	23.9	57.6	611.1	0
15132	2011-10-20T11:00:00	15	ND	ND	753.31	ND	ND	1	99.8	25.4	52.7	595.7	0
15133	2011-10-20T12:00:00	33	ND	ND	412.97	ND	ND	0.9	75.2	27	47.6	859.7	0
15134	2011-10-20T13:00:00	24	ND	ND	369.05	ND	ND	1.2	37.2	28.5	42.4	708	0
15135	2011-10-20T14:00:00	45	ND	ND	567.94	ND	ND	2.4	347.5	28.1	42.6	349.5	0
15136	2011-10-20T15:00:00	24	ND	ND	312.53	ND	ND	3.5	289.9	27.2	41.2	306.9	0
15137	2011-10-20T16:00:00	24	ND	ND	69.24	ND	ND	3.1	288.2	26.9	42.9	244.3	0
15138	2011-10-20T17:00:00	15	ND	ND	ND	ND	ND	2.9	284	26.3	45.2	148.1	0
15139	2011-10-20T18:00:00	30	ND	ND	ND	ND	ND	3.1	266.2	24.8	48.8	10.2	0
15140	2011-10-20T19:00:00	16	ND	ND	125.93	ND	ND	2.6	278.6	24.1	48	ND	0
15141	2011-10-20T20:00:00	8	ND	ND	365.49	ND	ND	2.3	279.2	23.8	46.8	ND	0
15142	2011-10-20T21:00:00	6	ND	ND	239.61	ND	ND	1.4	283.7	23.6	45.7	ND	0
15143	2011-10-20T22:00:00	4	ND	ND	ND	ND	ND	1	221.6	23.2	48.3	ND	0
15144	2011-10-20T23:00:00	4	ND	ND	ND	ND	ND	0.4	ND	21.9	63.2	ND	0
15145	2011-10-21T00:00:00	7	ND	ND	ND	ND	ND	0.5	241.3	21.7	57.7	ND	0
15146	2011-10-21T01:00:00	7	ND	ND	487.16	ND	ND	0.4	70.2	21.7	60.2	ND	0
15147	2011-10-21T02:00:00	28	ND	ND	56.65	ND	ND	0.1	108.5	20.9	68.5	ND	0
15148	2011-10-21T03:00:00	15	ND	ND	293.76	ND	ND	0.5	222.2	20.8	60.2	ND	0
15149	2011-10-21T04:00:00	29	ND	ND	90.36	ND	ND	0.6	228	20.4	64.7	ND	0
15150	2011-10-21T05:00:00	15	ND	ND	ND	ND	ND	0.7	254.1	20.2	66.8	ND	0
15151	2011-10-21T06:00:00	13	ND	ND	ND	ND	ND	0.9	260.7	19.9	62.1	ND	0
15152	2011-10-21T07:00:00	31	ND	ND	ND	ND	ND	0.3	29.7	20	74.5	70.2	0
15153	2011-10-21T08:00:00	35	ND	ND	ND	ND	ND	1	243	21.5	56.7	266.8	0
15154	2011-10-21T09:00:00	18	ND	ND	1845.41	ND	ND	0.6	147.2	23.9	51.1	407	0
15155	2011-10-21T10:00:00	47	ND	ND	935.93	ND	ND	1.4	107	24.4	56.6	383.6	0
15156	2011-10-21T11:00:00	47	ND	ND	571.65	ND	ND	1.1	105.8	25	54.3	461.1	0
15157	2011-10-21T12:00:00	60	ND	ND	847.75	ND	ND	1.4	132.6	25.7	52.5	548.9	0
15158	2011-10-21T13:00:00	36	ND	ND	688.98	ND	ND	1.7	127.3	27	47.8	844.5	0
15159	2011-10-21T14:00:00	61	ND	ND	680.44	ND	ND	1.3	131.8	27.5	45.1	508.8	0
15160	2011-10-21T15:00:00	49	ND	ND	519.85	ND	ND	0.8	171.5	26.8	48.3	252.1	0
15161	2011-10-21T16:00:00	38	ND	ND	276.61	ND	ND	2.1	238.2	27	45.3	281.7	0
15162	2011-10-21T17:00:00	24	ND	ND	657.38	ND	ND	4	280.9	25.3	47.5	96.8	0
15163	2011-10-21T18:00:00	39	ND	ND	298.16	ND	ND	4.8	272.3	24	52.7	24	0
15164	2011-10-21T19:00:00	25	5.82	ND	114.18	ND	ND	4.4	273	23.3	55.7	ND	0
15165	2011-10-21T20:00:00	17	5.42	ND	0.00	ND	ND	2.9	284.3	23.4	52.8	ND	0
15166	2011-10-21T21:00:00	11	4.64	ND	ND	ND	ND	2.7	271.2	23	56.2	ND	0
15167	2011-10-21T22:00:00	8	4.19	ND	ND	ND	ND	1.8	265.1	22.9	56.8	ND	0
15168	2011-10-21T23:00:00	13	3.51	ND	ND	ND	ND	0.9	56.8	21.8	67.4	ND	0
15169	2011-10-22T00:00:00	20	3.60	ND	ND	ND	ND	0.7	148.1	21.4	68.1	ND	0
15170	2011-10-22T01:00:00	26	7.95	ND	803.56	ND	ND	1.5	197.7	21	70	ND	0
15171	2011-10-22T02:00:00	20	7.24	ND	316.46	ND	ND	0.3	159	21	66.2	ND	0
15172	2011-10-22T03:00:00	14	6.26	ND	ND	ND	ND	0.8	42.3	20.4	73.4	ND	0
15173	2011-10-22T04:00:00	25	7.38	ND	ND	ND	ND	0.4	118.8	20.1	73.4	ND	0
15174	2011-10-22T05:00:00	14	7.32	ND	ND	ND	ND	0.5	248.4	20	69.1	ND	0
15175	2011-10-22T06:00:00	8	8.97	ND	ND	ND	ND	0.5	ND	19.8	69.2	ND	0
15176	2011-10-22T07:00:00	6	8.34	ND	ND	ND	ND	0.9	263.8	19.9	66.5	91.4	0
15177	2011-10-22T08:00:00	17	6.95	ND	ND	ND	ND	0.6	79.1	22.3	59.2	268.5	0
15178	2011-10-22T09:00:00	25	ND	ND	90.82	ND	ND	0.9	106.2	23.9	57.3	449.5	0
15179	2011-10-22T10:00:00	49	ND	ND	901.69	ND	ND	1.4	155.9	24.9	52.8	652.1	0
15180	2011-10-22T11:00:00	30	ND	ND	824.56	ND	ND	1.2	152.8	26.2	48.5	772.5	0
15181	2011-10-22T12:00:00	38	ND	ND	138.03	ND	ND	1.2	143.3	27.4	44.1	746.5	0
15182	2011-10-22T13:00:00	21	ND	ND	196.32	ND	ND	1.2	98.8	28.5	40.3	826.2	0
15183	2011-10-22T14:00:00	39	ND	ND	162.27	ND	ND	1.5	111.4	29.7	37.6	742.8	0
15184	2011-10-22T15:00:00	20	ND	ND	256.01	ND	ND	0.7	282.4	29.5	37.9	312.6	0
15185	2011-10-22T16:00:00	14	ND	ND	523.31	ND	ND	4.1	277.5	28.9	40.7	447.5	0
15186	2011-10-22T17:00:00	8	ND	ND	69.64	ND	ND	4	275.4	27.4	43.5	162.8	0
15187	2011-10-22T18:00:00	6	ND	ND	ND	ND	ND	3.6	273.2	25.9	47.7	13.7	0
15188	2011-10-22T19:00:00	4	ND	ND	ND	ND	ND	3.9	271.4	24.9	53.2	ND	0
15189	2011-10-22T20:00:00	3	ND	ND	ND	ND	ND	3.7	273.6	24.7	52.4	ND	0
15190	2011-10-22T21:00:00	2	ND	ND	ND	ND	ND	3	279.9	24.3	53.9	ND	0
15191	2011-10-22T22:00:00	3	ND	ND	ND	ND	ND	2.2	247.5	23.8	57.4	ND	0
15192	2011-10-22T23:00:00	3	ND	ND	ND	ND	ND	1.8	265.4	23.1	62	ND	0
15193	2011-10-23T00:00:00	26	ND	ND	ND	ND	ND	0.6	36	21.6	70.4	ND	0
15194	2011-10-23T01:00:00	15	ND	ND	ND	ND	ND	1.5	198.5	21.9	67	ND	0
15195	2011-10-23T02:00:00	35	ND	ND	555.51	ND	ND	2	208.5	21.2	70.8	ND	0
15196	2011-10-23T03:00:00	19	ND	ND	169.65	ND	ND	1.6	181.7	20.8	73.9	ND	0
15197	2011-10-23T04:00:00	44	ND	ND	11.29	ND	ND	0.7	174.8	20.4	76.8	ND	0
15198	2011-10-23T05:00:00	23	ND	ND	ND	ND	ND	0.4	163.7	20.2	77.4	ND	0
15199	2011-10-23T06:00:00	17	ND	ND	ND	ND	ND	0.6	197.8	20.3	73	ND	0
15200	2011-10-23T07:00:00	10	ND	ND	ND	ND	ND	0.5	170.9	20.3	75.5	25.5	0
15201	2011-10-23T08:00:00	30	ND	ND	ND	ND	ND	0.4	174	21.4	71.4	207.4	0
15202	2011-10-23T09:00:00	15	ND	ND	226.35	ND	ND	1.4	147	23.2	65.4	326.5	0
15203	2011-10-23T10:00:00	35	ND	ND	136.64	ND	ND	1.1	182.5	24	62.8	465.6	0
15204	2011-10-23T11:00:00	18	ND	ND	79.92	ND	ND	0.7	145.3	26	53.6	769.2	0
15205	2011-10-23T12:00:00	19	ND	ND	ND	ND	ND	0.7	84.9	27.5	47.5	730	0
15206	2011-10-23T13:00:00	13	ND	ND	ND	ND	ND	1.1	22	29	45.6	691.8	0
15207	2011-10-23T14:00:00	20	ND	ND	ND	ND	ND	2.3	308.5	28.9	45.8	486.6	0
15208	2011-10-23T15:00:00	12	ND	ND	ND	ND	ND	4	277.1	28.4	46	444.2	0
15209	2011-10-23T16:00:00	7	ND	ND	ND	ND	ND	4.1	270.5	27.2	48.6	289.1	0
15210	2011-10-23T17:00:00	4	ND	ND	ND	ND	ND	3.4	280.7	26.6	50.5	127.5	0
15211	2011-10-23T18:00:00	4	ND	ND	ND	ND	ND	3.7	278.4	25.9	52.5	30.9	0
15212	2011-10-23T19:00:00	4	ND	ND	ND	ND	ND	3.5	278.4	25.3	54.3	ND	0
15213	2011-10-23T20:00:00	3	ND	ND	ND	ND	ND	3.3	272.4	25	55.6	ND	0
15214	2011-10-23T21:00:00	3	ND	ND	ND	ND	ND	3.1	255.1	24.3	59.8	ND	0
15215	2011-10-23T22:00:00	3	ND	ND	ND	ND	ND	2.7	270.5	24.2	60.4	ND	0
15216	2011-10-23T23:00:00	6	ND	ND	ND	ND	ND	1.9	258.2	24.2	60.5	ND	0
15217	2011-10-24T00:00:00	5	ND	ND	ND	ND	ND	1	275.5	23.8	63.2	ND	0
15218	2011-10-24T01:00:00	4	ND	ND	ND	ND	ND	1	181.8	22.8	70.3	ND	0
15219	2011-10-24T02:00:00	17	ND	ND	ND	ND	ND	1.1	180.9	22.7	70.7	ND	0
15220	2011-10-24T03:00:00	11	ND	ND	ND	ND	ND	1.1	125.4	22.2	74.6	ND	0
15221	2011-10-24T04:00:00	13	ND	ND	ND	ND	ND	0.4	147.8	21	83	ND	4.06
15222	2011-10-24T05:00:00	7	ND	ND	ND	ND	ND	0.2	ND	20.9	85.8	ND	0
15223	2011-10-24T06:00:00	13	ND	ND	ND	ND	ND	0.3	55.2	21.4	82.1	ND	0
15224	2011-10-24T07:00:00	32	ND	ND	ND	ND	ND	0.5	ND	21.6	82.9	3	0
15225	2011-10-24T08:00:00	51	ND	ND	22.65	ND	ND	0.6	160.9	20.9	87.6	25.8	7.87
15226	2011-10-24T09:00:00	28	ND	ND	1355.81	ND	ND	0.8	8.4	20.5	91.4	82	1.27
15227	2011-10-24T10:00:00	40	ND	ND	1850.42	ND	ND	0.8	37.9	20.5	91.6	59.4	8.89
15228	2011-10-24T11:00:00	29	ND	ND	744.68	ND	ND	0.6	42.8	21	90.5	144.6	0.25
15229	2011-10-24T12:00:00	28	ND	ND	779.86	ND	ND	0.7	108.3	22.6	81.4	404.3	0
15230	2011-10-24T13:00:00	16	ND	ND	829.56	ND	ND	1.6	40.7	23.7	76.1	324.2	0
15231	2011-10-24T14:00:00	13	ND	ND	467.65	ND	ND	1.4	105.8	23.5	74.2	282.4	0
15232	2011-10-24T15:00:00	15	ND	ND	410.34	ND	ND	1.8	155	23.8	71	278.9	0
15233	2011-10-24T16:00:00	35	ND	ND	673.19	ND	ND	2.6	185.4	23.6	70.2	270.2	0
15234	2011-10-24T17:00:00	23	ND	ND	501.70	ND	ND	1.6	213.2	23.2	70	116.3	0
15235	2011-10-24T18:00:00	46	ND	ND	341.61	ND	ND	0.9	220	23.1	69.8	28.6	0
15236	2011-10-24T19:00:00	48	ND	ND	387.02	ND	ND	0.4	ND	22.5	72.2	ND	0
15237	2011-10-24T20:00:00	93	ND	ND	477.12	ND	ND	0.8	131.2	22	75.8	ND	0
15238	2011-10-24T21:00:00	79	ND	ND	1587.70	ND	ND	0.4	ND	20.7	84.6	ND	0
15239	2011-10-24T22:00:00	53	ND	ND	1953.30	ND	ND	0.4	246.8	21	82	ND	0
15240	2011-10-24T23:00:00	38	ND	ND	429.49	ND	ND	0.5	270	20.7	81.8	ND	0
15241	2011-10-25T00:00:00	42	ND	ND	508.08	ND	ND	0.5	258.3	20.4	80.9	ND	0
15242	2011-10-25T01:00:00	23	ND	ND	631.64	ND	ND	0.8	236.8	19.8	81.4	ND	0
15243	2011-10-25T02:00:00	13	ND	ND	303.92	ND	ND	0.3	ND	19.6	82.6	ND	0
15244	2011-10-25T03:00:00	12	ND	ND	22.50	ND	ND	0	ND	19.6	83	ND	0
15245	2011-10-25T04:00:00	37	ND	ND	101.24	ND	ND	0.5	140.8	19.3	87.9	ND	0
15246	2011-10-25T05:00:00	21	ND	ND	ND	ND	ND	0.3	ND	18.4	93.1	ND	0
15247	2011-10-25T06:00:00	24	ND	ND	ND	ND	ND	0.6	60.1	18.6	92.6	ND	0
15248	2011-10-25T07:00:00	47	ND	ND	ND	ND	ND	0.2	ND	19	91.7	40.7	0
15249	2011-10-25T08:00:00	86	ND	ND	314.31	ND	ND	0.2	ND	20.3	84.2	122.7	0
15250	2011-10-25T09:00:00	86	ND	ND	1003.51	ND	ND	1.1	93.6	22.1	77.3	332.1	0
15251	2011-10-25T10:00:00	96	ND	ND	2302.95	ND	ND	0.5	61.9	23.1	71.5	526.9	0
15252	2011-10-25T11:00:00	50	ND	ND	2094.48	ND	ND	0.9	78	25.6	59.4	810.5	0
15253	2011-10-25T12:00:00	53	ND	ND	619.87	ND	ND	0.7	97.1	27	54.2	757.5	0
15254	2011-10-25T13:00:00	37	ND	ND	149.93	ND	ND	1.4	333	27.2	54.6	360.7	0
15255	2011-10-25T14:00:00	53	ND	ND	46.16	ND	ND	1	334.2	27.1	54.1	195.4	0
15256	2011-10-25T15:00:00	43	ND	ND	103.83	ND	ND	1.9	268.3	27.6	50.2	358.4	0
15257	2011-10-25T16:00:00	23	ND	ND	ND	ND	ND	3	279.1	27.2	51.4	222	0
15258	2011-10-25T17:00:00	13	ND	ND	11.54	ND	ND	2.6	276.9	26.3	53.6	79.3	0
15259	2011-10-25T18:00:00	14	ND	ND	ND	ND	ND	3.6	275.6	25.3	56.2	24.4	0
15260	2011-10-25T19:00:00	9	ND	ND	275.22	ND	ND	3.4	264	24.4	59.7	ND	0
15261	2011-10-25T20:00:00	6	ND	ND	91.46	ND	ND	2.8	250.8	23.8	62	ND	0
15262	2011-10-25T21:00:00	4	ND	ND	22.82	ND	ND	2.1	159.9	21.8	81.2	ND	0
15263	2011-10-25T22:00:00	17	ND	ND	ND	ND	ND	1.4	168.7	20.5	89.1	ND	1.27
15264	2011-10-25T23:00:00	9	ND	ND	304.64	ND	ND	0.6	155.1	20.1	93.1	ND	0.76
15265	2011-10-26T00:00:00	5	ND	ND	135.21	ND	ND	0.1	23.6	20.5	92.6	ND	0
15266	2011-10-26T01:00:00	4	ND	ND	349.78	ND	ND	0.1	ND	21	89.1	ND	1.52
15267	2011-10-26T02:00:00	4	ND	ND	259.95	ND	ND	0.5	166.5	20.6	90	ND	0
15268	2011-10-26T03:00:00	3	ND	ND	90.30	ND	ND	0.7	147.3	20.1	92.7	ND	0.25
15269	2011-10-26T04:00:00	7	ND	ND	ND	ND	ND	0.4	111.3	20.2	92.3	ND	0
15270	2011-10-26T05:00:00	5	ND	ND	ND	ND	ND	0.5	155.6	20.1	92	ND	0
15271	2011-10-26T06:00:00	3	ND	ND	ND	ND	ND	0.5	171.2	19.9	93.2	ND	0
15272	2011-10-26T07:00:00	5	ND	ND	ND	ND	ND	0.5	129.4	20.2	92.9	42.6	0
15273	2011-10-26T08:00:00	35	ND	ND	ND	ND	ND	0.5	68.1	21.4	87.4	217.2	0
15274	2011-10-26T09:00:00	32	ND	ND	1335.49	ND	ND	0.9	109.5	23.7	74.3	481.2	0
15275	2011-10-26T10:00:00	52	ND	ND	2098.72	ND	ND	0.9	140.2	25.5	63.8	614	0
15276	2011-10-26T11:00:00	27	ND	ND	998.35	ND	ND	0.7	83.8	26.6	57.8	543.4	0
15277	2011-10-26T12:00:00	29	ND	ND	322.49	ND	ND	1.1	69.9	27	57.3	515.5	0
15278	2011-10-26T13:00:00	17	ND	ND	80.73	ND	ND	0.7	69.9	28.2	52.5	462.1	0
15279	2011-10-26T14:00:00	16	ND	ND	312.64	ND	ND	0.7	29.6	29	50.1	519.5	0
15280	2011-10-26T15:00:00	16	ND	ND	139.32	ND	ND	1	357.8	28.8	49.3	236.5	0
15281	2011-10-26T16:00:00	17	ND	ND	0.00	ND	ND	3.3	284.5	28.6	48	350.4	0
15282	2011-10-26T17:00:00	10	ND	ND	ND	ND	ND	3.5	275.9	28	50.2	253.3	0
15283	2011-10-26T18:00:00	11	ND	ND	ND	ND	ND	3.3	281.5	26.5	54.2	30.8	0
15284	2011-10-26T19:00:00	7	ND	ND	ND	ND	ND	4.6	275.1	25.3	59.1	ND	0
15285	2011-10-26T20:00:00	4	ND	ND	57.34	ND	ND	1.3	222.3	24.6	61.7	ND	0
15286	2011-10-26T21:00:00	7	ND	ND	ND	ND	ND	0.7	31.3	24	64.2	ND	0
15287	2011-10-26T22:00:00	39	ND	ND	171.26	ND	ND	1.2	67.5	22.6	69.2	ND	0
15288	2011-10-26T23:00:00	21	ND	ND	409.10	ND	ND	1	146.7	22.1	72.3	ND	0
15289	2011-10-27T00:00:00	11	ND	ND	465.13	ND	ND	0.2	ND	22	72.9	ND	0
15290	2011-10-27T01:00:00	6	ND	ND	170.11	ND	ND	0.3	292.2	22.6	70.1	ND	0
15291	2011-10-27T02:00:00	8	ND	ND	ND	ND	ND	0.5	232	22	73.4	ND	0
15292	2011-10-27T03:00:00	5	ND	ND	ND	ND	ND	1	137.7	20.6	83.9	ND	0
15293	2011-10-27T04:00:00	3	ND	ND	ND	ND	ND	0.2	ND	20.8	83.8	ND	0
15294	2011-10-27T05:00:00	3	ND	ND	ND	ND	ND	0.6	55.4	21.3	80.7	ND	0
15295	2011-10-27T06:00:00	28	ND	ND	ND	ND	ND	0.5	59.8	20.8	84.9	ND	0
15296	2011-10-27T07:00:00	54	ND	ND	ND	ND	ND	0.3	316.9	21.2	81.9	39	0
15297	2011-10-27T08:00:00	51	ND	ND	294.06	ND	ND	0.7	129.6	22.6	72.5	144.6	0
15298	2011-10-27T09:00:00	64	ND	ND	1011.38	ND	ND	0.9	162	24	69.5	383.6	0
15299	2011-10-27T10:00:00	63	ND	ND	1381.53	ND	ND	1.3	130.2	25.9	61.1	625.9	0
15300	2011-10-27T11:00:00	33	ND	ND	1459.32	ND	ND	1.4	142.3	27.3	54.7	734.3	0
15301	2011-10-27T12:00:00	27	ND	ND	577.22	ND	ND	1.1	121.5	28.8	49.2	798.8	0
15302	2011-10-27T13:00:00	26	ND	ND	92.82	ND	ND	0.9	82.8	29.3	48.1	471.4	0
15303	2011-10-27T14:00:00	22	ND	ND	ND	ND	ND	0.6	20.9	30.2	45.6	494.8	0
15304	2011-10-27T15:00:00	13	ND	ND	303.06	ND	ND	1.2	322.4	30.5	45	372.1	0
15305	2011-10-27T16:00:00	26	ND	ND	175.01	ND	ND	3.4	277.6	29.7	46.5	340.1	0
15306	2011-10-27T17:00:00	20	ND	ND	ND	ND	ND	3.8	276.6	28.6	49	263.8	0
15307	2011-10-27T18:00:00	32	ND	ND	ND	ND	ND	3.6	280.4	27.1	53.9	43	0
15308	2011-10-27T19:00:00	22	ND	ND	ND	ND	ND	4.4	272.6	25.8	58.1	ND	0
15309	2011-10-27T20:00:00	34	ND	ND	22.97	ND	ND	2.5	284.2	26	55.9	ND	0
15310	2011-10-27T21:00:00	18	ND	ND	ND	ND	ND	2.4	278.3	25.8	56.5	ND	0
15311	2011-10-27T22:00:00	10	ND	ND	ND	ND	ND	2.6	251.2	25.5	57.9	ND	0
15312	2011-10-27T23:00:00	7	ND	ND	ND	ND	ND	2.1	239.3	25.1	59.1	ND	0
15313	2011-10-28T00:00:00	4	ND	ND	ND	ND	ND	0.4	54.8	24.5	65.2	ND	0
15314	2011-10-28T01:00:00	ND	ND	ND	ND	ND	ND	1.6	205.7	24.1	68.7	ND	0
15315	2011-10-28T02:00:00	ND	ND	ND	ND	ND	ND	1.8	183.7	22.8	77.7	ND	1.78
15316	2011-10-28T03:00:00	ND	ND	ND	ND	ND	ND	1.2	133.1	22	83.6	ND	3.81
15317	2011-10-28T04:00:00	ND	ND	ND	ND	ND	ND	0.8	286.8	20.5	94	ND	17.78
15318	2011-10-28T05:00:00	ND	ND	ND	ND	ND	ND	0.6	264.4	21.3	87.6	ND	0.25
15319	2011-10-28T06:00:00	ND	ND	ND	ND	ND	ND	0.9	71.6	20.8	91.3	ND	0
15320	2011-10-28T07:00:00	ND	ND	ND	ND	ND	ND	0.6	159.1	21	91.8	23.6	0
15321	2011-10-28T08:00:00	ND	ND	ND	56.51	ND	ND	0.8	149.7	21.7	88.8	91	0
15322	2011-10-28T09:00:00	ND	ND	ND	589.12	ND	ND	0.7	168.1	22.9	82	255.4	0
15323	2011-10-28T10:00:00	ND	ND	ND	1205.79	ND	ND	0.5	89.1	24	74.8	317.8	0
15324	2011-10-28T11:00:00	ND	ND	ND	776.40	ND	ND	0.6	71.2	25.7	67.7	477.7	0
15325	2011-10-28T12:00:00	ND	ND	ND	413.39	ND	ND	1.2	82.7	26.3	64.6	250.3	0
15326	2011-10-28T13:00:00	ND	ND	ND	494.76	ND	ND	1.7	279.4	25.2	65.6	72.3	0
15327	2011-10-28T14:00:00	ND	ND	ND	733.68	ND	ND	3.1	217.4	21.9	81.4	45.6	11.43
15328	2011-10-28T15:00:00	ND	ND	ND	419.47	ND	ND	0.8	150	21	87.5	21.2	1.27
15329	2011-10-28T16:00:00	ND	ND	ND	214.74	ND	ND	1.1	36.8	20.7	90.4	7.5	8.89
15330	2011-10-28T17:00:00	ND	ND	ND	1682.32	ND	ND	1.4	25.4	20.5	88.9	10.6	7.37
15331	2011-10-28T18:00:00	ND	ND	ND	1500.65	ND	ND	1.5	53.3	20.3	90.5	7.8	0.25
15332	2011-10-28T19:00:00	ND	ND	ND	1330.50	ND	ND	0.8	220.1	20.5	87.5	ND	0.25
15333	2011-10-28T20:00:00	ND	ND	ND	1297.55	ND	ND	1.5	230.5	20.2	91.9	ND	0
15334	2011-10-28T21:00:00	ND	ND	ND	1916.16	ND	ND	1.1	203.3	20.4	89.8	ND	0
15335	2011-10-28T22:00:00	ND	ND	ND	1037.69	ND	ND	1.2	203.1	20.4	89.4	ND	0
15336	2011-10-28T23:00:00	ND	ND	ND	688.03	ND	ND	1.6	178.2	20.1	90.6	ND	0.25
15337	2011-10-29T00:00:00	ND	ND	ND	642.26	ND	ND	1.4	185.4	19.5	94.3	ND	14.22
15338	2011-10-29T01:00:00	ND	ND	ND	404.81	ND	ND	1	188.1	19.3	94.6	ND	0.51
15339	2011-10-29T02:00:00	ND	ND	ND	78.66	ND	ND	0.3	ND	19.3	94.1	ND	0
15340	2011-10-29T03:00:00	ND	ND	ND	ND	ND	ND	0.6	140.2	19.4	93.8	ND	0
15341	2011-10-29T04:00:00	ND	ND	ND	ND	ND	ND	0.7	148.4	19.3	94	ND	0
15342	2011-10-29T05:00:00	ND	ND	ND	ND	ND	ND	0.4	129.2	19.3	94	ND	0
15343	2011-10-29T06:00:00	ND	ND	ND	ND	ND	ND	0.5	121.2	19.3	94.5	ND	0
15344	2011-10-29T07:00:00	ND	ND	ND	ND	ND	ND	0.7	64.8	19.3	94.7	37.9	0
15345	2011-10-29T08:00:00	ND	ND	ND	224.74	ND	ND	0.8	104.4	20.4	89.7	242	0.25
15346	2011-10-29T09:00:00	ND	ND	ND	902.34	ND	ND	0.4	38.3	22.3	78.4	389.7	0
15347	2011-10-29T10:00:00	ND	ND	ND	930.89	ND	ND	0.8	18.8	22.7	76.2	352.6	0
15348	2011-10-29T11:00:00	ND	ND	ND	488.81	ND	ND	1.2	88.5	24.9	65	632.5	0
15349	2011-10-29T12:00:00	ND	ND	ND	503.90	ND	ND	1.6	117.3	25.6	61.6	530.2	0
15350	2011-10-29T13:00:00	ND	ND	ND	413.25	ND	ND	1.2	133.5	26.1	60.5	477.2	0
15351	2011-10-29T14:00:00	ND	ND	ND	333.45	ND	ND	1.2	133.5	26.6	57.9	453.3	0
15352	2011-10-29T15:00:00	ND	ND	ND	541.33	ND	ND	1.2	122.2	26.5	58.7	324.4	0
15353	2011-10-29T16:00:00	ND	ND	ND	402.98	ND	ND	1	74	26.2	59.6	160.6	0
15354	2011-10-29T17:00:00	ND	ND	ND	448.59	ND	ND	0.4	90.4	26.2	60.2	79.7	0
15355	2011-10-29T18:00:00	ND	ND	ND	609.62	ND	ND	1.8	269.4	25.5	59.5	5.5	0
15356	2011-10-29T19:00:00	ND	ND	ND	539.34	ND	ND	1.5	263.1	24.6	61.7	ND	0
15357	2011-10-29T20:00:00	ND	ND	ND	171.61	ND	ND	1.1	283.9	24.2	61.3	ND	0
15358	2011-10-29T21:00:00	ND	ND	ND	274.21	ND	ND	0.6	210.8	23.9	65.1	ND	0
15359	2011-10-29T22:00:00	ND	ND	ND	159.79	ND	ND	1.4	195.5	22.8	78.3	ND	0
15360	2011-10-29T23:00:00	ND	ND	ND	716.40	ND	ND	1.2	149.2	22.6	78.9	ND	0
15361	2011-10-30T00:00:00	ND	ND	ND	329.55	ND	ND	2.4	193.6	21.8	76.6	ND	0
15362	2011-10-30T01:00:00	ND	ND	ND	906.64	ND	ND	1.3	206.9	19.7	91.4	ND	18.54
15363	2011-10-30T02:00:00	ND	ND	ND	ND	ND	ND	0.1	114.8	19.9	90.5	ND	1.78
15364	2011-10-30T03:00:00	ND	ND	ND	ND	ND	ND	0.6	45.7	19.8	92.6	ND	0.76
15365	2011-10-30T04:00:00	ND	ND	ND	ND	ND	ND	0.4	54.7	19.5	93.9	ND	0.51
15366	2011-10-30T05:00:00	ND	ND	ND	ND	ND	ND	0.4	67.7	19.6	94.2	ND	0.25
15367	2011-10-30T06:00:00	ND	ND	ND	ND	ND	ND	0.2	ND	19.6	94.4	ND	0.25
15368	2011-10-30T07:00:00	ND	ND	ND	ND	ND	ND	0.6	54	19.7	94.4	13.3	0
15369	2011-10-30T08:00:00	ND	ND	ND	270.06	ND	ND	0.5	76.3	20.2	93.3	53.9	0
15370	2011-10-30T09:00:00	ND	ND	ND	338.15	ND	ND	0.5	69.7	20.6	89	81.3	0
15371	2011-10-30T10:00:00	ND	ND	ND	733.65	ND	ND	1	43.3	21.6	84.7	242.1	0
15372	2011-10-30T11:00:00	ND	ND	ND	486.99	ND	ND	1.5	26.1	23.2	77.8	535.4	0
15373	2011-10-30T12:00:00	ND	ND	ND	239.12	ND	ND	1.9	37.9	24.6	69.7	651.9	0
15374	2011-10-30T13:00:00	ND	ND	ND	102.97	ND	ND	2.7	43.8	25.5	66.4	596.5	0
15375	2011-10-30T14:00:00	ND	ND	ND	34.43	ND	ND	2.8	44.6	25.1	66.1	270.1	0
15376	2011-10-30T15:00:00	ND	ND	ND	45.84	ND	ND	2.4	279.6	24	64.4	82.5	1.52
15377	2011-10-30T16:00:00	ND	ND	ND	22.84	ND	ND	2.5	243.9	21.6	77.3	76.2	2.03
15378	2011-10-30T17:00:00	ND	ND	ND	ND	ND	ND	1.7	214.7	20.6	85.5	15.8	6.86
15379	2011-10-30T18:00:00	ND	ND	ND	ND	ND	ND	1.2	217.1	19.7	90.9	0	10.41
15380	2011-10-30T19:00:00	ND	ND	ND	461.35	ND	ND	0.8	249.2	19.9	90.3	ND	1.02
15381	2011-10-30T20:00:00	ND	ND	ND	304.02	ND	ND	0.9	202.8	20.2	87.6	ND	0
15382	2011-10-30T21:00:00	ND	ND	ND	293.06	ND	ND	0.8	219.1	19.9	90	ND	0
15383	2011-10-30T22:00:00	ND	ND	ND	619.30	ND	ND	0.7	234.8	19.9	86.2	ND	0
15384	2011-10-30T23:00:00	ND	ND	ND	923.32	ND	ND	0.6	260.4	19.7	84.9	ND	0
15385	2011-10-31T00:00:00	ND	ND	ND	270.06	ND	ND	0.3	ND	19.9	85.3	ND	0
15386	2011-10-31T01:00:00	ND	ND	ND	ND	ND	ND	1.3	1.2	19.6	90.4	ND	0.25
15387	2011-10-31T02:00:00	ND	ND	ND	ND	ND	ND	0.4	ND	19.3	94.8	ND	0
15388	2011-10-31T03:00:00	ND	ND	ND	325.87	ND	ND	0.7	68.8	19.2	94.3	ND	0
15389	2011-10-31T04:00:00	ND	ND	ND	213.43	ND	ND	0.5	245.5	19.3	90.9	ND	0
15390	2011-10-31T05:00:00	ND	ND	ND	22.47	ND	ND	0.8	243.7	19.4	87.4	ND	0
15391	2011-10-31T06:00:00	ND	ND	ND	ND	ND	ND	0.7	232.6	19.3	85	ND	0
15392	2011-10-31T07:00:00	ND	ND	ND	ND	ND	ND	0.1	ND	19.7	83.4	15.6	0
15393	2011-10-31T08:00:00	ND	ND	ND	ND	ND	ND	0.7	139.5	20.1	87.6	36.6	0
15394	2011-10-31T09:00:00	ND	ND	ND	507.05	ND	ND	1	153.1	19.9	91.1	73.5	0
15395	2011-10-31T10:00:00	ND	ND	ND	2060.58	ND	ND	0.3	171.5	20.8	84.6	152.2	0
15396	2011-10-31T11:00:00	ND	ND	ND	1434.42	ND	ND	0.1	227.3	22.5	75.2	382.7	0
15397	2011-10-31T12:00:00	ND	ND	ND	511.20	ND	ND	0.8	104.7	24.6	63.5	695.1	0
15398	2011-10-31T13:00:00	ND	ND	ND	480.51	ND	ND	0.3	326.2	26.1	55.8	697.5	0
15399	2011-10-31T14:00:00	ND	ND	ND	620.91	ND	ND	1.1	68.7	27	53.8	635.2	0
15400	2011-10-31T15:00:00	ND	ND	ND	172.99	ND	ND	1.5	23.4	28.2	49.1	683.2	0
15401	2011-10-31T16:00:00	ND	ND	ND	440.01	ND	ND	1.2	351.8	28.1	50.7	440.4	0
15402	2011-10-31T17:00:00	ND	ND	ND	196.78	ND	ND	1.4	296.4	27.4	52.9	173	0
15403	2011-10-31T18:00:00	ND	ND	ND	207.87	ND	ND	3.1	262.3	25.7	56.8	36.8	0
15404	2011-10-31T19:00:00	ND	ND	ND	378.94	ND	ND	2.2	272.9	24.7	59.3	ND	0
15405	2011-10-31T20:00:00	ND	ND	ND	194.56	ND	ND	2.3	267.7	24.1	61.8	ND	0
15406	2011-10-31T21:00:00	ND	ND	ND	685.29	ND	ND	1.4	287.4	23.6	63.7	ND	0
15407	2011-10-31T22:00:00	ND	ND	ND	421.88	ND	ND	1.3	250.7	23	66.1	ND	0
15408	2011-10-31T23:00:00	ND	ND	ND	238.96	ND	ND	1.5	269.6	22.2	69.8	ND	0
15409	2011-11-01T00:00:00	ND	ND	ND	329.10	ND	ND	1.3	255.4	21.8	69.6	ND	0
15410	2011-11-01T01:00:00	ND	ND	ND	634.65	ND	ND	1	229.5	21.3	73.4	ND	0
15411	2011-11-01T02:00:00	ND	ND	ND	ND	ND	ND	0.6	345.9	20.7	79.2	ND	0
15412	2011-11-01T03:00:00	ND	ND	ND	225.82	ND	ND	0.4	ND	20.1	80.6	ND	0
15413	2011-11-01T04:00:00	ND	ND	ND	642.26	ND	ND	0.6	229.9	20	77.7	ND	0
15414	2011-11-01T05:00:00	ND	ND	ND	270.33	ND	ND	0.9	336.1	20.2	79.4	ND	0
15415	2011-11-01T06:00:00	ND	ND	ND	ND	ND	ND	0.2	ND	20.1	83.9	0	0
15416	2011-11-01T07:00:00	ND	ND	ND	90.14	ND	ND	0.3	219.5	20.5	78.7	74.9	0
15417	2011-11-01T08:00:00	ND	ND	ND	654.42	ND	ND	0.3	141.7	22.2	70.8	224.5	0
15418	2011-11-01T09:00:00	ND	ND	ND	544.72	ND	ND	0.7	128.6	24.4	64.9	448.8	0
15419	2011-11-01T10:00:00	ND	ND	ND	1577.76	ND	ND	1.3	138.2	25.6	61	599.8	0
15420	2011-11-01T11:00:00	ND	ND	ND	1262.71	ND	ND	0.9	123.3	26.6	57.2	730.4	0
15421	2011-11-01T12:00:00	ND	ND	ND	460.70	ND	ND	0.9	141	28.3	51.9	695.8	0
15422	2011-11-01T13:00:00	ND	ND	ND	324.32	ND	ND	0.5	75	29.7	47.1	802.9	0
15423	2011-11-01T14:00:00	ND	ND	ND	244.37	ND	ND	1.4	82.5	30.3	47	581.3	0
15424	2011-11-01T15:00:00	ND	ND	ND	443.07	ND	ND	1.7	29.4	30.1	47.9	278.2	0
15425	2011-11-01T16:00:00	ND	ND	ND	547.65	ND	ND	3.3	281.4	28.4	52.4	187.4	0
15426	2011-11-01T17:00:00	ND	ND	ND	590.93	ND	ND	4	273.8	27.2	54.4	98.6	0
15427	2011-11-01T18:00:00	ND	ND	ND	830.93	ND	ND	3.8	269.1	26.4	56.9	14.4	0
15428	2011-11-01T19:00:00	ND	ND	ND	264.73	ND	ND	3.2	289	26	57.4	ND	0
15429	2011-11-01T20:00:00	ND	ND	ND	275.87	ND	ND	2.2	289.9	25.5	59.3	ND	0
15430	2011-11-01T21:00:00	ND	ND	ND	263.93	ND	ND	2.2	282	25	61.8	ND	0
15431	2011-11-01T22:00:00	ND	ND	ND	34.37	ND	ND	1.5	243.3	24.3	65.9	ND	0
15432	2011-11-01T23:00:00	ND	ND	ND	ND	ND	ND	0.5	18	22.9	74.7	ND	0
15433	2011-11-02T00:00:00	ND	ND	ND	ND	ND	ND	0.5	74.6	22.2	79.6	ND	0
15434	2011-11-02T01:00:00	ND	ND	ND	1100.80	ND	ND	0.5	52	21.6	80.3	ND	0
15435	2011-11-02T02:00:00	ND	ND	ND	849.40	ND	ND	0.5	154.7	21.6	81.8	ND	0
15436	2011-11-02T03:00:00	ND	ND	ND	215.18	ND	ND	0.6	90.7	21.2	84.3	ND	0
15437	2011-11-02T04:00:00	ND	ND	ND	124.41	ND	ND	0.3	78.7	20.7	84.5	ND	0
15438	2011-11-02T05:00:00	ND	ND	ND	191.94	ND	ND	0.4	193.2	20.9	84.1	ND	0
15439	2011-11-02T06:00:00	ND	ND	ND	ND	ND	ND	0.4	119.6	20.5	86.4	ND	0
15440	2011-11-02T07:00:00	ND	ND	ND	ND	ND	ND	0.5	243.1	20.6	86.7	46.7	0
15441	2011-11-02T08:00:00	ND	ND	ND	372.47	ND	ND	1	241.5	22.1	76.3	172.8	0
15442	2011-11-02T09:00:00	ND	ND	ND	760.09	ND	ND	1	137.7	24.4	68.7	412.5	0
15443	2011-11-02T10:00:00	ND	ND	ND	1669.22	ND	ND	0.8	112.8	26.1	61.9	507.8	0
15444	2011-11-02T11:00:00	ND	ND	ND	1080.85	ND	ND	1.1	86.2	27.6	56.9	732.9	0
15445	2011-11-02T12:00:00	ND	ND	ND	543.13	ND	ND	0.7	64.4	29.2	50.7	714.2	0
15446	2011-11-02T13:00:00	ND	ND	ND	406.61	ND	ND	0.9	25.4	30.4	46.3	636.2	0
15447	2011-11-02T14:00:00	ND	ND	ND	454.88	ND	ND	1.4	73.2	30.8	44.8	383.6	0
15448	2011-11-02T15:00:00	ND	ND	ND	303.66	ND	ND	1.4	11.9	30.9	44.9	402.5	0
15449	2011-11-02T16:00:00	ND	ND	ND	408.90	ND	ND	3.6	278.4	30.2	46.4	390.3	0
15450	2011-11-02T17:00:00	ND	ND	ND	279.74	ND	ND	3.9	279.4	28.9	49.1	228.1	0
15451	2011-11-02T18:00:00	ND	ND	ND	255.33	ND	ND	4.2	278.1	27.1	54.4	27.8	0
15452	2011-11-02T19:00:00	ND	ND	ND	126.90	ND	ND	4.2	277.5	26.3	56.2	ND	0
15453	2011-11-02T20:00:00	ND	ND	ND	126.57	ND	ND	4.2	277.6	25.9	58.4	ND	0
15454	2011-11-02T21:00:00	ND	ND	ND	206.83	ND	ND	3.6	279.3	25.6	59.7	ND	0
15455	2011-11-02T22:00:00	ND	ND	ND	ND	ND	ND	1.7	293.6	25.4	59.4	ND	0
15456	2011-11-02T23:00:00	ND	ND	ND	ND	ND	ND	0.9	255	24.5	65.1	ND	0
15457	2011-11-03T00:00:00	ND	ND	ND	ND	ND	ND	0.8	164	23.9	70.8	ND	0
15458	2011-11-03T01:00:00	ND	ND	ND	102.72	ND	ND	0.1	247.6	23.8	72	ND	0
15459	2011-11-03T02:00:00	ND	ND	ND	171.15	ND	ND	1	115.2	23.5	73.6	ND	0
15460	2011-11-03T03:00:00	ND	ND	ND	148.18	ND	ND	0.5	87.1	22.9	77.1	ND	0
15461	2011-11-03T04:00:00	ND	ND	ND	ND	ND	ND	0.5	127.4	22.5	79.5	ND	0
15462	2011-11-03T05:00:00	ND	ND	ND	ND	ND	ND	0.3	ND	22.2	81.3	ND	0
15463	2011-11-03T06:00:00	ND	ND	ND	ND	ND	ND	0.2	ND	21.9	81.4	ND	0
15464	2011-11-03T07:00:00	ND	ND	ND	45.35	ND	ND	0.6	246.3	22	77.4	50.4	0
15465	2011-11-03T08:00:00	ND	ND	ND	510.33	ND	ND	0.3	232.7	23.4	73.8	199.5	0
15466	2011-11-03T09:00:00	ND	ND	ND	786.22	ND	ND	0.7	92.4	25.2	66.9	335.2	0
15467	2011-11-03T10:00:00	ND	ND	ND	1089.06	ND	ND	1.1	73.3	26.8	61.5	521.4	0
15468	2011-11-03T11:00:00	ND	ND	ND	1037.27	ND	ND	1.2	70.1	27.9	56	601.5	0
15469	2011-11-03T12:00:00	ND	ND	ND	798.16	ND	ND	1	67.8	28.6	53.8	457.9	0
15470	2011-11-03T13:00:00	ND	ND	ND	556.53	ND	ND	1.4	330.7	29.2	51.7	501.8	0
15471	2011-11-03T14:00:00	ND	ND	ND	453.08	ND	ND	2.6	284.5	29.5	49.2	421.8	0
15472	2011-11-03T15:00:00	ND	ND	ND	46.52	ND	ND	4.1	279.6	28.9	50.9	450.8	0
15473	2011-11-03T16:00:00	ND	ND	ND	92.85	ND	ND	4	273.8	27.6	54.5	256.9	0
15474	2011-11-03T17:00:00	ND	ND	ND	34.67	ND	ND	3.9	274.3	26.3	57.4	92.5	0
15475	2011-11-03T18:00:00	ND	ND	ND	161.08	ND	ND	3.1	277.5	25.7	58.2	12.5	0
15476	2011-11-03T19:00:00	ND	ND	ND	195.21	ND	ND	0.9	325.7	25.8	57.1	ND	0
15477	2011-11-03T20:00:00	ND	9.04	ND	287.17	ND	ND	1.3	221	25.3	60.2	ND	0
15478	2011-11-03T21:00:00	ND	10.70	ND	1009.15	ND	ND	1.3	212.7	24.4	66.3	ND	0
15479	2011-11-03T22:00:00	ND	15.90	ND	766.01	ND	ND	0.6	303.2	24.1	64.9	ND	0
15480	2011-11-03T23:00:00	ND	9.64	ND	342.64	ND	ND	0.9	358.1	24.2	67.2	ND	0
15481	2011-11-04T00:00:00	ND	9.02	ND	536.99	ND	ND	0.4	259.7	24	67.2	ND	0
15482	2011-11-04T01:00:00	ND	10.68	ND	662.22	ND	ND	0.9	143.3	23	73.6	ND	0
15483	2011-11-04T02:00:00	ND	16.50	ND	34.14	ND	ND	0.9	189.5	22.7	76.1	ND	0
15484	2011-11-04T03:00:00	ND	11.28	ND	ND	ND	ND	1.2	155.7	22.5	77.9	ND	0
15485	2011-11-04T04:00:00	ND	8.76	ND	ND	ND	ND	1	192.5	22.2	78.2	ND	0
15486	2011-11-04T05:00:00	ND	8.49	ND	ND	ND	ND	0.5	140	22.2	79.6	ND	0
15487	2011-11-04T06:00:00	ND	7.22	ND	ND	ND	ND	0.7	125.8	21.6	85.9	ND	18.29
15488	2011-11-04T07:00:00	ND	6.92	ND	ND	ND	ND	0.5	325.5	20.7	93.8	13.3	2.54
15489	2011-11-04T08:00:00	ND	6.56	ND	395.18	ND	ND	0.3	347.3	21.9	85.4	78.6	0.25
15490	2011-11-04T09:00:00	ND	ND	ND	827.59	ND	ND	0.6	138	24.1	73.6	352.3	0
15491	2011-11-04T10:00:00	ND	ND	ND	1233.52	ND	ND	0.9	117.7	26.5	63.3	637.9	0
15492	2011-11-04T11:00:00	ND	ND	ND	840.50	ND	ND	1.2	140.2	27.7	58.8	484.8	0
15493	2011-11-04T12:00:00	ND	ND	ND	936.35	ND	ND	0.4	357.8	27.3	58.8	259.7	0
15494	2011-11-04T13:00:00	ND	ND	ND	888.93	ND	ND	0.7	23.9	29	51.8	657.6	0
15495	2011-11-04T14:00:00	ND	ND	ND	290.25	ND	ND	1.1	349.4	30.5	46.1	709.2	0
15496	2011-11-04T15:00:00	ND	ND	ND	233.35	ND	ND	2.9	60.1	29.1	53	227.9	0
15497	2011-11-04T16:00:00	ND	ND	ND	ND	ND	ND	2	53.6	26.6	62.9	75.1	0
15498	2011-11-04T17:00:00	ND	ND	ND	345.53	ND	ND	2	266.2	26.6	59.7	55	0
15499	2011-11-04T18:00:00	ND	ND	ND	633.47	ND	ND	1.2	286.6	26.5	55.6	15	0
15500	2011-11-04T19:00:00	ND	ND	ND	529.63	ND	ND	1.2	284.6	25.8	59.6	ND	0
15501	2011-11-04T20:00:00	ND	ND	ND	344.60	ND	ND	2	274.3	25.2	61.6	ND	0
15502	2011-11-04T21:00:00	ND	ND	ND	733.68	ND	ND	2	272.5	24.7	63.6	ND	0
15503	2011-11-04T22:00:00	ND	ND	ND	194.56	ND	ND	0.9	299.6	24.3	69.1	ND	0
15504	2011-11-04T23:00:00	ND	ND	ND	ND	ND	ND	0.9	47.9	22.7	79.5	ND	0
15505	2011-11-05T00:00:00	ND	ND	ND	716.16	ND	ND	0.5	102.4	23	76.6	ND	0
15506	2011-11-05T01:00:00	ND	ND	ND	1012.75	ND	ND	0.9	62.3	22.3	77.7	ND	0
15507	2011-11-05T02:00:00	ND	ND	ND	828.72	ND	ND	0.3	ND	21.9	80	ND	0
15508	2011-11-05T03:00:00	ND	ND	ND	476.15	ND	ND	1.2	210.1	21.8	80.5	ND	0
15509	2011-11-05T04:00:00	ND	ND	ND	90.66	ND	ND	0.4	9	21.6	78.5	ND	0
15510	2011-11-05T05:00:00	ND	ND	ND	67.95	ND	ND	0.9	178	21	84.3	ND	0
15511	2011-11-05T06:00:00	ND	ND	ND	11.30	ND	ND	0.7	187.1	21.2	84.4	ND	0
15512	2011-11-05T07:00:00	ND	ND	ND	ND	ND	ND	0.4	260.8	21.2	81.5	28.2	0
15513	2011-11-05T08:00:00	ND	ND	ND	33.93	ND	ND	1.3	41.9	21.4	81.4	108.6	0
15514	2011-11-05T09:00:00	ND	ND	ND	735.65	ND	ND	0.7	50.2	23.7	71.7	476.8	0
15515	2011-11-05T10:00:00	ND	ND	ND	1152.02	ND	ND	0.9	43	25.2	65.8	412.4	0
15516	2011-11-05T11:00:00	ND	ND	ND	836.85	ND	ND	1.1	80.5	26.9	59.7	627	0
15517	2011-11-05T12:00:00	ND	ND	ND	472.69	ND	ND	1.1	101.3	28.4	53.6	647.6	0
15518	2011-11-05T13:00:00	ND	ND	ND	498.23	ND	ND	1.1	48.5	29.1	51.1	574.6	0
15519	2011-11-05T14:00:00	ND	ND	ND	545.84	ND	ND	0.9	4	30.4	46.8	711.3	0
15520	2011-11-05T15:00:00	ND	ND	ND	361.57	ND	ND	0.4	312.3	31	45.2	395.4	0
15521	2011-11-05T16:00:00	ND	ND	ND	105.18	ND	ND	4.8	279.9	27.7	55.3	39.5	0
15522	2011-11-05T17:00:00	ND	ND	ND	127.16	ND	ND	5.3	279.3	26.1	58	34.5	0
15523	2011-11-05T18:00:00	ND	ND	ND	114.98	ND	ND	3.8	274.5	26	57.1	13.2	0
15524	2011-11-05T19:00:00	ND	ND	ND	ND	ND	ND	3.8	275	25.4	59.3	ND	0
15525	2011-11-05T20:00:00	ND	ND	ND	126.19	ND	ND	0.1	83.3	25.5	60.2	ND	0
15526	2011-11-05T21:00:00	ND	ND	ND	11.48	ND	ND	2.2	245.1	25.3	59.6	ND	0
15527	2011-11-05T22:00:00	ND	ND	ND	1020.62	ND	ND	1.5	275.6	25	60.4	ND	0
15528	2011-11-05T23:00:00	ND	ND	ND	126.02	ND	ND	0.9	301.8	23.7	67.7	ND	0
15529	2011-11-06T00:00:00	ND	ND	ND	ND	ND	ND	1.3	278.5	23.7	65.7	ND	0
15530	2011-11-06T01:00:00	ND	ND	ND	410.62	ND	ND	0.8	4.2	23.1	71.3	ND	0
15531	2011-11-06T02:00:00	ND	ND	ND	79.68	ND	ND	0.2	38.2	22.8	72.1	ND	0
15532	2011-11-06T03:00:00	ND	ND	ND	409.37	ND	ND	0.2	52.9	23.1	70.5	ND	0
15533	2011-11-06T04:00:00	ND	ND	ND	11.38	ND	ND	0.4	200.7	21.9	78.6	ND	0
15534	2011-11-06T05:00:00	ND	ND	ND	ND	ND	ND	0.8	166.6	21.7	81.8	ND	0
15535	2011-11-06T06:00:00	ND	ND	ND	ND	ND	ND	1.1	195.1	21.7	82.7	ND	0
15536	2011-11-06T07:00:00	ND	ND	ND	90.63	ND	ND	1	196.1	21.8	82	9.5	0
15537	2011-11-06T08:00:00	ND	ND	ND	34.00	ND	ND	0.5	190.1	22.3	79.5	107.8	0
15538	2011-11-06T09:00:00	ND	ND	ND	215.69	ND	ND	0.5	111	24.1	71.9	306	0
15539	2011-11-06T10:00:00	ND	ND	ND	171.32	ND	ND	0.8	107.4	25.7	65.6	498.4	0
15540	2011-11-06T11:00:00	ND	ND	ND	321.52	ND	ND	1.9	84.3	26.6	63.6	661.8	0
15541	2011-11-06T12:00:00	ND	ND	ND	403.12	ND	ND	2	288	24.9	67.5	145	0.51
15542	2011-11-06T13:00:00	ND	ND	ND	389.38	ND	ND	2	353.2	24.2	75.6	334.8	0
15543	2011-11-06T14:00:00	ND	ND	ND	68.55	ND	ND	1.2	24.3	26.5	62.6	620.7	0
15544	2011-11-06T15:00:00	ND	ND	ND	115.14	ND	ND	2.7	280.1	28.6	51.6	599.4	0
15545	2011-11-06T16:00:00	ND	ND	ND	57.97	ND	ND	3.1	270.6	27.4	54.5	242.4	0
15546	2011-11-06T17:00:00	ND	ND	ND	ND	ND	ND	1.3	308.7	27.6	51.1	119.7	0
15547	2011-11-06T18:00:00	ND	ND	ND	ND	ND	ND	1.3	15.5	26.4	55.3	13.8	0
15548	2011-11-06T19:00:00	ND	ND	ND	ND	ND	ND	1.5	221.2	25.5	63.8	ND	0
15549	2011-11-06T20:00:00	ND	ND	ND	114.75	ND	ND	1.6	241.5	25.1	61.1	ND	0
15550	2011-11-06T21:00:00	ND	ND	ND	160.44	ND	ND	0.7	223.2	24.6	67.9	ND	0
15551	2011-11-06T22:00:00	ND	ND	ND	ND	ND	ND	1.5	276.8	23.9	65.6	ND	0
15552	2011-11-06T23:00:00	ND	ND	ND	239.69	ND	ND	1	319.4	23.8	66.3	ND	0
15553	2011-11-07T00:00:00	ND	ND	ND	0.00	ND	ND	0.6	31.5	22.8	75.1	ND	0
15554	2011-11-07T01:00:00	ND	ND	ND	34.11	ND	ND	0.7	122.3	22.6	74.2	ND	0
15555	2011-11-07T02:00:00	ND	ND	ND	636.37	ND	ND	1.4	182	22.4	75.5	ND	0
15556	2011-11-07T03:00:00	ND	ND	ND	522.38	ND	ND	1.1	173.8	21.9	77.9	ND	0
15557	2011-11-07T04:00:00	ND	ND	ND	11.34	ND	ND	1	235.3	21.7	75.8	ND	0
15558	2011-11-07T05:00:00	ND	ND	ND	ND	ND	ND	1	247.6	21.6	72.3	ND	0
15559	2011-11-07T06:00:00	ND	ND	ND	ND	ND	ND	0.8	314.7	21.6	75.2	ND	0
15560	2011-11-07T07:00:00	ND	ND	ND	ND	ND	ND	0.9	39.3	21.4	81.8	53.2	0
15561	2011-11-07T08:00:00	ND	ND	ND	ND	ND	ND	1	156.6	23	75.9	255.4	0
15562	2011-11-07T09:00:00	ND	ND	ND	568.96	ND	ND	1.3	169	24.7	66.5	469.6	0
15563	2011-11-07T10:00:00	ND	ND	ND	137.33	ND	ND	1	167	26.4	61.5	525.7	0
15564	2011-11-07T11:00:00	ND	ND	ND	ND	ND	ND	1.2	149.6	27.5	56.4	652	0
15565	2011-11-07T12:00:00	ND	ND	ND	0.00	ND	ND	0.9	81.4	28.6	52.1	576.7	0
15566	2011-11-07T13:00:00	ND	ND	ND	46.38	ND	ND	1.2	97.6	29.1	50.7	656.3	0
15567	2011-11-07T14:00:00	ND	ND	ND	ND	ND	ND	0.5	0.5	29.7	48.6	268.2	0
15568	2011-11-07T15:00:00	ND	ND	ND	34.91	ND	ND	ND	ND	ND	ND	ND	ND
15569	2011-11-07T16:00:00	ND	ND	ND	ND	ND	ND	ND	ND	ND	ND	ND	ND
15570	2011-11-07T17:00:00	ND	ND	ND	ND	ND	ND	ND	ND	ND	ND	ND	ND
15571	2011-11-07T18:00:00	ND	ND	ND	ND	ND	ND	ND	ND	ND	ND	ND	ND
15572	2011-11-07T19:00:00	ND	ND	ND	ND	ND	ND	0.8	275.1	25	67.6	28	0
15573	2011-11-07T20:00:00	ND	ND	ND	ND	ND	ND	2.3	279	23.5	69.4	ND	0
15574	2011-11-07T21:00:00	ND	ND	ND	307.76	ND	ND	1.4	240.7	23.3	71.4	ND	0
15575	2011-11-07T22:00:00	ND	2.66	ND	535.36	ND	ND	1.6	217.3	22.7	78.7	ND	0.25
15576	2011-11-07T23:00:00	ND	0.49	ND	386.50	ND	ND	1.8	211.7	21.2	85.7	ND	4.32
15577	2011-11-08T00:00:00	ND	0.05	ND	622.05	ND	ND	1.7	216.9	20.8	89.2	ND	2.29
15578	2011-11-08T01:00:00	ND	ND	ND	158.12	ND	ND	0.9	212.7	20.7	91.8	ND	0.25
15579	2011-11-08T02:00:00	ND	ND	ND	180.65	ND	ND	0.9	160.2	20.9	91.4	ND	0.25
15580	2011-11-08T03:00:00	ND	ND	ND	124.28	ND	ND	1.1	158	20.4	93.3	ND	0.25
15581	2011-11-08T04:00:00	ND	ND	ND	124.07	ND	ND	1.3	213.2	20.1	94.1	ND	1.78
15582	2011-11-08T05:00:00	ND	ND	ND	90.14	ND	ND	0.9	212.7	19.9	94.8	ND	1.27
15583	2011-11-08T06:00:00	ND	ND	ND	56.30	ND	ND	0.8	149.7	19.6	97.1	ND	36.83
15584	2011-11-08T07:00:00	ND	ND	ND	67.49	ND	ND	0.6	227.3	19.3	99.2	0	19.81
15585	2011-11-08T08:00:00	ND	0.05	ND	438.24	ND	ND	1.6	191.9	19.1	99.6	5.2	29.21
15586	2011-11-08T09:00:00	ND	ND	ND	696.21	ND	ND	0.9	213.4	19.1	100	43.3	7.37
15587	2011-11-08T10:00:00	ND	ND	ND	1280.14	ND	ND	0.3	231.8	19.5	99.8	91.1	1.02
15588	2011-11-08T11:00:00	ND	1.49	ND	1574.25	ND	ND	0.3	231.1	20.6	95.8	237.4	0.25
15589	2011-11-08T12:00:00	ND	1.26	ND	1117.41	ND	ND	0.4	181.7	22.4	80.6	316.9	0
15590	2011-11-08T13:00:00	ND	0.96	ND	1203.75	ND	ND	0.5	193.3	24	72	481.6	0.25
15591	2011-11-08T14:00:00	ND	0.94	ND	1210.27	ND	ND	0.4	228	24.4	69.3	332.2	0
15592	2011-11-08T15:00:00	ND	0.21	ND	1177.60	ND	ND	0.6	66.2	25	65.5	249.2	0
15593	2011-11-08T16:00:00	ND	0.76	ND	836.29	ND	ND	1.1	25.2	24.9	64.9	105	0
15594	2011-11-08T17:00:00	ND	0.76	ND	1019.25	ND	ND	1.8	35.4	24.1	72.1	68.2	0
15595	2011-11-08T18:00:00	ND	1.85	ND	1267.78	ND	ND	1.5	33.8	23	77.1	13.2	0
15596	2011-11-08T19:00:00	ND	14.84	ND	1285.85	ND	ND	1.1	171.6	21.6	86.8	ND	0
15597	2011-11-08T20:00:00	ND	11.24	ND	1710.13	ND	ND	0.8	142.2	21.4	85.4	ND	0
15598	2011-11-08T21:00:00	ND	10.10	ND	2365.39	ND	ND	0.8	112.3	21.5	86.6	ND	0
15599	2011-11-08T22:00:00	ND	5.67	ND	2026.55	ND	ND	0.3	ND	21.1	90	ND	0
15600	2011-11-08T23:00:00	ND	4.14	ND	2238.62	ND	ND	0.1	ND	21.1	89.2	ND	0
15601	2011-11-09T00:00:00	ND	1.68	ND	1435.88	ND	ND	0.5	90.5	20.9	90.1	ND	0
15602	2011-11-09T01:00:00	ND	1.55	ND	1378.41	ND	ND	0.8	134.8	20.6	91.5	ND	0
15603	2011-11-09T02:00:00	ND	1.45	ND	1106.12	ND	ND	0.6	149.7	20.1	93.3	ND	0
15604	2011-11-09T03:00:00	ND	0.31	ND	394.37	ND	ND	0.6	140.4	20	93.4	ND	0
15605	2011-11-09T04:00:00	ND	0.10	ND	135.17	ND	ND	0.3	ND	20.3	91.9	ND	0
15606	2011-11-09T05:00:00	ND	0.18	ND	101.48	ND	ND	0.9	63.6	20.2	92.1	ND	0
15607	2011-11-09T06:00:00	ND	0.54	ND	146.53	ND	ND	0.3	97.9	20.1	93.8	ND	0
15608	2011-11-09T07:00:00	ND	0.44	ND	281.69	ND	ND	0.3	122.6	20.4	92.4	20.6	0
15609	2011-11-09T08:00:00	ND	1.47	ND	778.27	ND	ND	0.9	102.3	21	88	137.1	0
15610	2011-11-09T09:00:00	ND	2.27	ND	1096.32	ND	ND	0.5	57.7	23.3	76.3	417.8	0
15611	2011-11-09T10:00:00	ND	4.14	ND	2414.83	ND	ND	0.7	325.3	23.7	73.5	388.5	0
15612	2011-11-09T11:00:00	ND	11.74	ND	1129.20	ND	ND	0.4	106.8	25.6	63.7	587	0
15613	2011-11-09T12:00:00	ND	10.92	ND	1056.08	ND	ND	1.6	135.3	27	59.6	765.5	0
15614	2011-11-09T13:00:00	ND	5.70	ND	772.71	ND	ND	1.3	149.9	27.9	52.6	835	0
15615	2011-11-09T14:00:00	ND	5.08	ND	821.30	ND	ND	0.4	1.9	28.2	49.8	457.3	0
15616	2011-11-09T15:00:00	ND	5.27	ND	775.80	ND	ND	2.3	314.2	27.9	53.4	426.7	0
15617	2011-11-09T16:00:00	ND	7.99	ND	508.97	ND	ND	2.8	267.7	27.6	55.1	392.3	0
15618	2011-11-09T17:00:00	ND	6.40	ND	739.59	ND	ND	2.5	282.8	26.9	55.5	153.8	0
15619	2011-11-09T18:00:00	ND	5.43	ND	876.21	ND	ND	3.5	269.6	25.4	60.9	17.3	0
15620	2011-11-09T19:00:00	ND	5.59	ND	745.64	ND	ND	2.2	284.5	24.8	61.7	ND	0
15621	2011-11-09T20:00:00	ND	5.18	ND	824.28	ND	ND	1.7	254.8	24.8	62.7	ND	0
15622	2011-11-09T21:00:00	ND	4.43	ND	801.39	ND	ND	2.7	198.8	22.9	78.5	ND	0
15623	2011-11-09T22:00:00	ND	3.64	ND	625.64	ND	ND	2.2	208	22	82.9	ND	0
15624	2011-11-09T23:00:00	ND	2.23	ND	612.40	ND	ND	1.6	199.4	21.3	85.9	ND	0
15625	2011-11-10T00:00:00	ND	1.68	ND	463.87	ND	ND	1.4	173.8	21.1	86.1	ND	0
15626	2011-11-10T01:00:00	ND	1.09	ND	327.88	ND	ND	0.6	109.6	20.7	86.1	ND	0
15627	2011-11-10T02:00:00	ND	1.29	ND	383.89	ND	ND	0.7	68	20.6	85.7	ND	0
15628	2011-11-10T03:00:00	ND	1.16	ND	248.31	ND	ND	0.5	112.6	20.3	87.5	ND	0
15629	2011-11-10T04:00:00	ND	0.93	ND	202.96	ND	ND	1	58	20.1	88.4	ND	0
15630	2011-11-10T05:00:00	ND	0.70	ND	259.16	ND	ND	0.5	17.6	20.2	88.7	ND	0
15631	2011-11-10T06:00:00	ND	1.01	ND	259.25	ND	ND	0.5	86.8	20.6	87.9	ND	0
15632	2011-11-10T07:00:00	ND	2.30	ND	372.47	ND	ND	0.2	ND	20.8	86.8	50.2	0
15633	2011-11-10T08:00:00	ND	5.55	ND	903.57	ND	ND	0.7	137.5	21.8	82.7	163.5	0
15634	2011-11-10T09:00:00	ND	16.41	ND	1416.63	ND	ND	0.9	102.9	23.4	74.6	399.8	0
15635	2011-11-10T10:00:00	ND	36.85	ND	2119.39	ND	ND	1.2	75.8	25.6	64.2	646.3	0
15636	2011-11-10T11:00:00	ND	35.68	ND	1848.14	ND	ND	1	74.7	26.7	58.4	540.9	0
15637	2011-11-10T12:00:00	ND	23.64	ND	910.19	ND	ND	0.7	101.2	27.8	55.3	411.3	0
15638	2011-11-10T13:00:00	ND	11.35	ND	601.31	ND	ND	0.7	147	28.4	52.5	558.8	0
15639	2011-11-10T14:00:00	ND	8.77	ND	637.27	ND	ND	0.7	92.1	29.2	49.7	241.5	0
15640	2011-11-10T15:00:00	ND	9.43	ND	708.67	ND	ND	1.2	302.4	28.3	52.5	131	0
15641	2011-11-10T16:00:00	ND	10.39	ND	833.97	ND	ND	1.2	335.3	24.7	73.8	116.4	15.75
15642	2011-11-10T17:00:00	ND	11.67	ND	789.67	ND	ND	2.5	273	24.3	72.4	35.4	0
15643	2011-11-10T18:00:00	ND	9.62	ND	1120.06	ND	ND	0.9	125.1	23.6	79.1	0	1.52
15644	2011-11-10T19:00:00	ND	9.91	ND	1505.10	ND	ND	1.5	205.7	22.8	81.8	ND	1.02
15645	2011-11-10T20:00:00	ND	11.31	ND	2979.33	ND	ND	2.2	186.1	21.5	85.3	ND	0.25
15646	2011-11-10T21:00:00	ND	9.89	ND	2219.02	ND	ND	0.6	180.7	21.1	87.9	ND	2.03
15647	2011-11-10T22:00:00	ND	4.68	ND	1311.51	ND	ND	0	ND	21.4	85.8	ND	0.25
15648	2011-11-10T23:00:00	ND	3.03	ND	1256.26	ND	ND	0.9	165.2	21.2	89	ND	0.25
15649	2011-11-11T00:00:00	ND	2.12	ND	1097.07	ND	ND	1.1	43.6	20.5	93	ND	8.13
15650	2011-11-11T01:00:00	ND	2.71	ND	1500.65	ND	ND	1.9	15.3	19.6	94.9	ND	8.13
15651	2011-11-11T02:00:00	ND	1.57	ND	719.90	ND	ND	0.8	77	19.4	93.8	ND	1.52
15652	2011-11-11T03:00:00	ND	1.44	ND	202.33	ND	ND	0.5	138.5	18.9	93.4	ND	1.52
15653	2011-11-11T04:00:00	ND	2.08	ND	224.43	ND	ND	1.5	179.9	18.8	94.5	ND	2.03
15654	2011-11-11T05:00:00	ND	1.18	ND	89.74	ND	ND	2	178.7	18.7	94.6	ND	1.27
15655	2011-11-11T06:00:00	ND	0.87	ND	89.71	ND	ND	1.8	190.3	18.6	94.5	ND	0.51
15656	2011-11-11T07:00:00	ND	0.15	ND	246.62	ND	ND	1.2	221.7	19.1	92.5	108.5	0
15657	2011-11-11T08:00:00	ND	0.82	ND	381.79	ND	ND	0.5	211.8	21.3	78.5	266.9	0
15658	2011-11-11T09:00:00	ND	2.23	ND	758.03	ND	ND	0.8	157.6	23	71.2	439.9	0
15659	2011-11-11T10:00:00	ND	4.32	ND	978.61	ND	ND	1	121.3	24.7	63.2	544.2	0
15660	2011-11-11T11:00:00	ND	4.58	ND	1121.56	ND	ND	1	120.6	25.5	60.4	584.9	0
15661	2011-11-11T12:00:00	ND	3.57	ND	1044.25	ND	ND	0.8	122.3	27.1	54.8	616.1	0
15662	2011-11-11T13:00:00	ND	3.91	ND	911.41	ND	ND	1	46.3	28.3	51.3	836.9	0
15663	2011-11-11T14:00:00	ND	4.08	ND	648.64	ND	ND	1.5	43	27.8	54.3	270.9	0
15664	2011-11-11T15:00:00	ND	4.31	ND	786.33	ND	ND	3	292.9	25	62.3	35.3	0
15665	2011-11-11T16:00:00	ND	14.07	ND	962.31	ND	ND	2.2	243.7	22.8	74.9	24.8	3.05
15666	2011-11-11T17:00:00	ND	8.90	ND	659.55	ND	ND	2.5	249.8	22.7	75.2	29.3	0
15667	2011-11-11T18:00:00	ND	5.93	ND	1011.72	ND	ND	2.9	267.2	23.5	66.8	5.4	0
15668	2011-11-11T19:00:00	ND	6.49	ND	1299.42	ND	ND	1.1	302.8	23.5	66.3	ND	0
15669	2011-11-11T20:00:00	ND	5.27	ND	1060.05	ND	ND	1	191.4	22.1	81	ND	0
15670	2011-11-11T21:00:00	ND	5.01	ND	1327.32	ND	ND	0.3	108.4	21.7	84	ND	1.52
15671	2011-11-11T22:00:00	ND	5.75	ND	1552.10	ND	ND	0.2	184.8	20.7	88.4	ND	0.76
15672	2011-11-11T23:00:00	ND	3.85	ND	1704.91	ND	ND	0.8	58.8	20.6	91.1	ND	4.57
15673	2011-11-12T00:00:00	ND	2.30	ND	1027.11	ND	ND	0.7	63.3	20.1	93.7	ND	2.54
15674	2011-11-12T01:00:00	ND	3.56	ND	1780.30	ND	ND	1	65.5	19.9	93.2	ND	0.25
15675	2011-11-12T02:00:00	ND	2.37	ND	788.20	ND	ND	1.2	69.8	19.5	94.6	ND	0.51
15676	2011-11-12T03:00:00	ND	2.01	ND	438.54	ND	ND	1	68.6	19.3	95.1	ND	0.76
15677	2011-11-12T04:00:00	ND	1.67	ND	179.79	ND	ND	1.1	100.2	19.2	95.4	ND	1.52
15678	2011-11-12T05:00:00	ND	1.64	ND	213.43	ND	ND	1.4	164	18.7	96.9	ND	56.39
15679	2011-11-12T06:00:00	ND	1.62	ND	257.92	ND	ND	0.7	104.8	18.2	99.2	ND	17.78
15680	2011-11-12T07:00:00	ND	0.74	ND	190.31	ND	ND	0.8	52.9	18.2	99.4	5.6	3.05
15681	2011-11-12T08:00:00	ND	0.87	ND	414.20	ND	ND	0.5	353.7	18.7	99	92.8	0.25
15682	2011-11-12T09:00:00	ND	2.31	ND	751.33	ND	ND	0.3	230.3	20.6	90.2	281	0
15683	2011-11-12T10:00:00	ND	2.45	ND	880.38	ND	ND	0.7	98.2	22.4	76.4	398.2	0
15684	2011-11-12T11:00:00	ND	6.03	ND	908.49	ND	ND	1	143.7	23.2	73.8	339.8	0
15685	2011-11-12T12:00:00	ND	6.59	ND	1286.72	ND	ND	0.8	165.3	23.2	73.1	166.8	0
15686	2011-11-12T13:00:00	ND	5.42	ND	1070.37	ND	ND	0.9	183.6	22.8	76.4	104.1	0
15687	2011-11-12T14:00:00	ND	4.66	ND	830.12	ND	ND	2	263.9	20.8	89.6	80.9	19.56
15688	2011-11-12T15:00:00	ND	3.90	ND	1163.35	ND	ND	2.8	273.1	20.5	85.9	99.1	6.35
15689	2011-11-12T16:00:00	ND	3.48	ND	1196.01	ND	ND	2.3	260.6	21.1	81.5	131.7	0.51
15690	2011-11-12T17:00:00	ND	3.31	ND	983.63	ND	ND	0.8	4.7	22.1	78.1	73.5	0
15691	2011-11-12T18:00:00	ND	4.05	ND	941.60	ND	ND	1.3	14.1	21.1	84.6	4.7	2.29
15692	2011-11-12T19:00:00	ND	6.46	ND	2125.56	ND	ND	0.9	4.4	20.2	91.5	ND	0.51
15693	2011-11-12T20:00:00	ND	7.24	ND	1983.79	ND	ND	1	243.6	20.2	89.5	ND	0.25
15694	2011-11-12T21:00:00	ND	5.52	ND	2141.59	ND	ND	0.7	164.9	20.1	92.3	ND	0.25
15695	2011-11-12T22:00:00	ND	4.43	ND	1431.00	ND	ND	0.4	174.7	19.9	93.4	ND	0.51
15696	2011-11-12T23:00:00	ND	5.10	ND	2161.92	ND	ND	0.1	ND	19.8	93.4	ND	0.51
15697	2011-11-13T00:00:00	ND	4.84	ND	1857.27	ND	ND	0.3	ND	19.7	93.4	ND	0.51
15698	2011-11-13T01:00:00	ND	4.71	ND	1687.85	ND	ND	0.9	53.6	19.4	95.4	ND	0.51
15699	2011-11-13T02:00:00	ND	3.93	ND	1303.93	ND	ND	0.4	82.1	19.1	95.9	ND	0
15700	2011-11-13T03:00:00	ND	2.80	ND	808.51	ND	ND	0.6	114.4	19.3	95.4	ND	0
15701	2011-11-13T04:00:00	ND	2.47	ND	528.14	ND	ND	0.9	115.5	19.2	95.1	ND	0
15702	2011-11-13T05:00:00	ND	3.39	ND	685.22	ND	ND	0.4	ND	19.1	95.1	ND	0.51
15703	2011-11-13T06:00:00	ND	3.54	ND	595.15	ND	ND	0.8	5.5	19	95.2	ND	0.51
15704	2011-11-13T07:00:00	ND	2.80	ND	325.54	ND	ND	1.1	13.1	19	95.4	10.1	0
15705	2011-11-13T08:00:00	ND	2.62	ND	280.64	ND	ND	0.6	358.7	19.3	94.5	31.1	0
15706	2011-11-13T09:00:00	ND	3.24	ND	651.74	ND	ND	0.1	ND	19.6	93.3	57.4	1.02
15707	2011-11-13T10:00:00	ND	3.81	ND	697.41	ND	ND	0.2	ND	20.5	87.9	168.3	0
15708	2011-11-13T11:00:00	ND	5.01	ND	868.80	ND	ND	0.1	ND	21.8	78.7	277.1	0
15709	2011-11-13T12:00:00	ND	10.24	ND	702.65	ND	ND	0.1	48.1	23.5	70	451.3	0
15710	2011-11-13T13:00:00	ND	23.31	ND	695.30	ND	ND	0.9	216	24.3	66	447.9	0
15711	2011-11-13T14:00:00	ND	35.92	ND	640.03	ND	ND	0.9	204	24.8	63.7	338	0
15712	2011-11-13T15:00:00	ND	36.50	ND	652.56	ND	ND	0.7	226	25.1	61.5	239.5	0
15713	2011-11-13T16:00:00	ND	25.53	ND	756.35	ND	ND	0.9	231.4	25.4	60.2	266.8	0
15714	2011-11-13T17:00:00	ND	18.71	ND	573.57	ND	ND	1.4	261.5	25.4	60.4	145.9	0
15715	2011-11-13T18:00:00	ND	17.26	ND	550.63	ND	ND	1	279	24.4	65.2	12.8	0
15716	2011-11-13T19:00:00	ND	15.87	ND	503.05	ND	ND	1	257.5	23.3	70.8	ND	0
15717	2011-11-13T20:00:00	ND	9.12	ND	683.44	ND	ND	1.1	270.8	22.9	69.8	ND	0
15718	2011-11-13T21:00:00	ND	7.49	ND	1262.66	ND	ND	0.7	285.9	22.6	69.5	ND	0
15719	2011-11-13T22:00:00	ND	6.58	ND	727.28	ND	ND	0.4	ND	21.2	81.4	ND	0
15720	2011-11-13T23:00:00	ND	5.56	ND	542.88	ND	ND	0.7	247.3	20.7	80	ND	0
15721	2011-11-14T00:00:00	ND	6.56	ND	1625.87	ND	ND	0.5	234.9	20.4	79.7	ND	0
15722	2011-11-14T01:00:00	ND	5.70	ND	1376.07	ND	ND	0.4	216.3	20.4	81.7	ND	0
15723	2011-11-14T02:00:00	ND	5.80	ND	1364.79	ND	ND	0.2	ND	20.1	83.7	ND	0
15724	2011-11-14T03:00:00	ND	6.75	ND	1791.56	ND	ND	0.8	210.7	20	86.2	ND	0
15725	2011-11-14T04:00:00	ND	6.72	ND	1937.38	ND	ND	0.5	209.6	20	86.4	ND	0
15726	2011-11-14T05:00:00	ND	4.59	ND	1351.66	ND	ND	0.2	ND	20	86.9	ND	0
15727	2011-11-14T06:00:00	ND	4.28	ND	833.53	ND	ND	0.4	292.3	20	87.6	ND	0
15728	2011-11-14T07:00:00	ND	4.53	ND	788.47	ND	ND	0.6	66.1	20.2	88.1	40.7	0
15729	2011-11-14T08:00:00	ND	4.54	ND	665.02	ND	ND	0.3	ND	21.4	83.6	212	0
15730	2011-11-14T09:00:00	ND	6.50	ND	1369.44	ND	ND	0.2	53.5	23	75.1	285.3	0
15731	2011-11-14T10:00:00	ND	16.94	ND	1115.16	ND	ND	0.7	146.9	23.9	71.1	338.9	0
15732	2011-11-14T11:00:00	ND	115.96	ND	833.21	ND	ND	0.7	120.6	25.8	63.8	782.2	0
15733	2011-11-14T12:00:00	ND	69.86	ND	689.21	ND	ND	0.8	92.2	26.8	59.7	418.6	0
15734	2011-11-14T13:00:00	ND	39.38	ND	495.59	ND	ND	0.5	230.5	26.9	58.1	401.2	0
15735	2011-11-14T14:00:00	ND	26.24	ND	484.22	ND	ND	0.5	293.5	28.1	53.9	601.3	0
15736	2011-11-14T15:00:00	ND	24.65	ND	347.26	ND	ND	1.4	254.6	29.8	48.3	704.4	0
15737	2011-11-14T16:00:00	ND	24.79	ND	256.09	ND	ND	1.1	326.3	30.3	44.8	542.1	0
15738	2011-11-14T17:00:00	ND	14.99	ND	174.90	ND	ND	3.5	276.8	28.1	51	150.1	0
15739	2011-11-14T18:00:00	ND	10.01	ND	34.73	ND	ND	2.9	275.7	26.2	56.5	18.7	0
15740	2011-11-14T19:00:00	ND	7.37	ND	11.50	ND	ND	3.2	272	25.1	60.8	ND	0
15741	2011-11-14T20:00:00	ND	7.21	ND	103.14	ND	ND	4	271.3	24.8	61	ND	0
15742	2011-11-14T21:00:00	ND	6.91	ND	171.73	ND	ND	1.2	313.9	24.3	64.4	ND	0
15743	2011-11-14T22:00:00	ND	6.06	ND	11.43	ND	ND	1.8	267.3	23.6	67.6	ND	0
15744	2011-11-14T23:00:00	ND	5.79	ND	456.09	ND	ND	2	273.7	23.5	67.1	ND	0
15745	2011-11-15T00:00:00	ND	6.44	ND	410.34	ND	ND	0.7	72.4	22.1	76.7	ND	0
15746	2011-11-15T01:00:00	ND	5.89	ND	90.76	ND	ND	0.9	184.2	21.9	77.2	ND	0
15747	2011-11-15T02:00:00	ND	6.92	ND	408.13	ND	ND	0.5	190.5	21.5	77.6	ND	0
15748	2011-11-15T03:00:00	ND	5.72	ND	305.68	ND	ND	0.2	ND	21.3	80	ND	0
15749	2011-11-15T04:00:00	ND	5.07	ND	260.22	ND	ND	0.3	153.5	21.2	82.2	ND	0
15750	2011-11-15T05:00:00	ND	4.97	ND	237.51	ND	ND	1	195.1	21.1	83.1	ND	0
15751	2011-11-15T06:00:00	ND	4.40	ND	226.12	ND	ND	1	188.9	20.8	82.8	ND	0
15752	2011-11-15T07:00:00	ND	4.86	ND	225.89	ND	ND	0.9	186.4	20.9	85.8	44.8	0
15753	2011-11-15T08:00:00	ND	5.76	ND	508.43	ND	ND	0.4	227.4	21.9	79.9	121.9	0
15754	2011-11-15T09:00:00	ND	6.53	ND	1156.36	ND	ND	0.7	183.9	22.3	80.5	164.2	0
15755	2011-11-15T10:00:00	ND	10.07	ND	1509.85	ND	ND	0.9	192.9	23.1	76.8	240.5	0
15756	2011-11-15T11:00:00	ND	11.64	ND	1263.52	ND	ND	0.9	127.5	24.8	70	418.1	0
15757	2011-11-15T12:00:00	ND	13.30	ND	1362.36	ND	ND	1.9	170.7	26.5	63.6	749.3	0
15758	2011-11-15T13:00:00	ND	13.59	ND	1231.97	ND	ND	2.4	172.6	27.9	55.5	835.9	0
15759	2011-11-15T14:00:00	ND	12.14	ND	856.00	ND	ND	1.9	154.6	28.6	50.9	681.5	0
15760	2011-11-15T15:00:00	ND	9.10	ND	892.77	ND	ND	2	165.9	29.2	49	569.6	0
15761	2011-11-15T16:00:00	ND	8.21	ND	662.20	ND	ND	2	178.8	29.4	45.8	491.9	0
15762	2011-11-15T17:00:00	ND	8.61	ND	767.26	ND	ND	1.2	208.5	28.9	46.9	184.5	0
15763	2011-11-15T18:00:00	ND	8.71	ND	812.42	ND	ND	3	272	26.7	55.2	28.1	0
15764	2011-11-15T19:00:00	ND	8.59	ND	529.99	ND	ND	3.3	273.4	24.7	58.8	ND	0
15765	2011-11-15T20:00:00	ND	7.88	ND	595.12	ND	ND	3.4	276.3	24.6	57	ND	0
15766	2011-11-15T21:00:00	ND	7.07	ND	663.56	ND	ND	1.5	277.9	24.5	58	ND	0
15767	2011-11-15T22:00:00	ND	6.07	ND	400.29	ND	ND	1.1	35	22.2	77.3	ND	31.75
15768	2011-11-15T23:00:00	ND	6.15	ND	624.16	ND	ND	0.6	42.1	20.2	93.5	ND	8.89
15769	2011-11-16T00:00:00	ND	6.86	ND	969.35	ND	ND	1	213.1	21.2	87.1	ND	0.25
15770	2011-11-16T01:00:00	ND	5.61	ND	916.11	ND	ND	1.4	162	20.9	89.4	ND	0
15771	2011-11-16T02:00:00	ND	5.74	ND	757.00	ND	ND	0.9	191.8	20.7	86.5	ND	0
15772	2011-11-16T03:00:00	ND	5.89	ND	564.54	ND	ND	0.8	211.3	20.6	87.8	ND	0
15773	2011-11-16T04:00:00	ND	5.27	ND	112.87	ND	ND	0.6	193	20.5	87.2	ND	0
15774	2011-11-16T05:00:00	ND	4.98	ND	146.68	ND	ND	0.3	238.7	20.4	86.8	ND	0
15775	2011-11-16T06:00:00	ND	5.06	ND	169.19	ND	ND	0.3	202	20.3	85	ND	0
15776	2011-11-16T07:00:00	ND	4.54	ND	191.68	ND	ND	0.4	ND	20.2	88	27.7	0
15777	2011-11-16T08:00:00	ND	5.49	ND	473.40	ND	ND	0.4	44.9	20.4	88.9	48.6	0
15778	2011-11-16T09:00:00	ND	6.60	ND	1105.37	ND	ND	0.3	ND	21.5	82.6	212.1	0
15779	2011-11-16T10:00:00	ND	8.49	ND	1969.94	ND	ND	0.5	138.9	23.8	72.3	491.6	0
15780	2011-11-16T11:00:00	ND	11.67	ND	1414.83	ND	ND	0.4	125.9	25	67	474.6	0
15781	2011-11-16T12:00:00	ND	14.67	ND	1191.43	ND	ND	0.2	187.4	24.8	66.1	178.5	0
15782	2011-11-16T13:00:00	ND	13.09	ND	824.28	ND	ND	0.4	185.3	26	62.2	355.9	0
15783	2011-11-16T14:00:00	ND	13.99	ND	804.62	ND	ND	0.6	292.4	27.2	56.8	506.1	0
15784	2011-11-16T15:00:00	ND	13.36	ND	854.01	ND	ND	0.9	334.6	27.8	51.6	346	0
15785	2011-11-16T16:00:00	ND	16.27	ND	1086.99	ND	ND	2.9	290.3	26.5	53.2	146.1	0
15786	2011-11-16T17:00:00	ND	15.01	ND	529.63	ND	ND	2	281	25.3	58.8	95.3	0
15787	2011-11-16T18:00:00	ND	9.18	ND	642.19	ND	ND	1.7	286.4	25	59	13.1	0
15788	2011-11-16T19:00:00	ND	9.28	ND	882.12	ND	ND	1.4	321.2	24.7	59.2	ND	0
15789	2011-11-16T20:00:00	ND	9.69	ND	1064.34	ND	ND	1.7	298	24.5	59	ND	0
15790	2011-11-16T21:00:00	ND	8.34	ND	1075.06	ND	ND	1.3	207.2	23.7	65.6	ND	0
15791	2011-11-16T22:00:00	ND	7.15	ND	627.34	ND	ND	0.9	163.8	22.5	77	ND	0
15792	2011-11-16T23:00:00	ND	6.68	ND	829.28	ND	ND	0.9	90.6	21.7	84.2	ND	0
15793	2011-11-17T00:00:00	ND	7.10	ND	1472.80	ND	ND	0.6	68	21.3	87.3	ND	0
15794	2011-11-17T01:00:00	ND	6.29	ND	1142.70	ND	ND	0.2	ND	21.2	88	ND	0
15795	2011-11-17T02:00:00	ND	5.82	ND	735.15	ND	ND	0.5	159.2	21	86.8	ND	0
15796	2011-11-17T03:00:00	ND	6.05	ND	565.12	ND	ND	0.7	212.2	20.9	79.9	ND	0
15797	2011-11-17T04:00:00	ND	5.63	ND	463.24	ND	ND	1.2	160.1	20.3	87.8	ND	0
15798	2011-11-17T05:00:00	ND	5.98	ND	248.06	ND	ND	1	122	20	90.2	ND	0
15799	2011-11-17T06:00:00	ND	4.84	ND	180.22	ND	ND	0.4	ND	20	89.6	ND	0
15800	2011-11-17T07:00:00	ND	4.97	ND	247.80	ND	ND	0.9	267.6	20.2	79.9	44.4	0
15801	2011-11-17T08:00:00	ND	5.72	ND	281.79	ND	ND	0.5	251.6	21.5	72.4	176.3	0
15802	2011-11-17T09:00:00	ND	9.04	ND	1290.65	ND	ND	0.7	135.7	22.8	71.7	282.6	0
15803	2011-11-17T10:00:00	ND	12.38	ND	1046.18	ND	ND	0.9	116.2	24.6	66.2	624.8	0
15804	2011-11-17T11:00:00	ND	12.14	ND	652.12	ND	ND	0.6	91.3	26.1	59.9	542.1	0
15805	2011-11-17T12:00:00	ND	15.60	ND	620.91	ND	ND	1.3	58.6	27	56.6	475.9	0
15806	2011-11-17T13:00:00	ND	12.32	ND	438.25	ND	ND	1.7	201.1	25.8	62.4	194.1	0
15807	2011-11-17T14:00:00	ND	13.92	ND	447.99	ND	ND	1.6	201.9	26	61.9	299.6	0
15808	2011-11-17T15:00:00	ND	11.46	ND	402.31	ND	ND	2.5	282.4	26.9	53.6	236.8	0
15809	2011-11-17T16:00:00	ND	11.87	ND	530.34	ND	ND	4.3	272.9	26.2	53.1	237.3	0
15810	2011-11-17T17:00:00	ND	10.58	ND	230.04	ND	ND	4.2	285.3	24.9	58.6	47.8	0
15811	2011-11-17T18:00:00	ND	8.09	ND	80.17	ND	ND	4.2	271	23.4	66.9	3.9	0
15812	2011-11-17T19:00:00	ND	7.66	ND	148.13	ND	ND	3.6	272.3	22.6	70	ND	0.25
15813	2011-11-17T20:00:00	ND	7.59	ND	250.00	ND	ND	1.7	289.4	22.8	66.9	ND	0
15814	2011-11-17T21:00:00	ND	6.74	ND	329.77	ND	ND	0.3	227.7	22.6	72.4	ND	0
15815	2011-11-17T22:00:00	ND	7.62	ND	897.74	ND	ND	2.2	254	22.4	70.1	ND	0
15816	2011-11-17T23:00:00	ND	10.23	ND	1782.91	ND	ND	1.9	206.7	21.9	75	ND	0
15817	2011-11-18T00:00:00	ND	8.53	ND	476.15	ND	ND	2.5	184	20.7	85.5	ND	2.79
15818	2011-11-18T01:00:00	ND	6.69	ND	451.63	ND	ND	1.3	206.4	19.7	92.6	ND	3.05
15819	2011-11-18T02:00:00	ND	6.25	ND	303.81	ND	ND	0.8	206.2	19.9	90.3	ND	0.25
15820	2011-11-18T03:00:00	ND	5.72	ND	213.94	ND	ND	0.1	ND	20.1	89.6	ND	0
15821	2011-11-18T04:00:00	ND	5.85	ND	169.02	ND	ND	0.3	ND	20.2	90.6	ND	0
15822	2011-11-18T05:00:00	ND	6.24	ND	473.40	ND	ND	0.3	212.4	20.2	89.9	ND	0
15823	2011-11-18T06:00:00	ND	5.85	ND	450.86	ND	ND	0.7	2.5	20.3	88.9	ND	0.25
15824	2011-11-18T07:00:00	ND	5.11	ND	326.99	ND	ND	0.9	50.7	19.6	93.5	23.8	0.25
15825	2011-11-18T08:00:00	ND	6.20	ND	551.18	ND	ND	1.3	19.2	20.1	91.6	117.8	0
15826	2011-11-18T09:00:00	ND	9.59	ND	1656.35	ND	ND	1.3	36	21.3	85.6	230.6	0
15827	2011-11-18T10:00:00	ND	15.29	ND	1945.98	ND	ND	0.6	354.4	22.3	79.2	295	0
15828	2011-11-18T11:00:00	ND	30.09	ND	1566.61	ND	ND	0.6	155.3	25.1	64.9	653	0
15829	2011-11-18T12:00:00	ND	38.85	ND	951.17	ND	ND	0.9	108.6	26.3	58.4	735.5	0
15830	2011-11-18T13:00:00	ND	29.05	ND	966.51	ND	ND	0.9	51.9	27.2	55	443	0
15831	2011-11-18T14:00:00	ND	16.95	ND	1061.74	ND	ND	0.5	99.8	27	55.3	283.4	0
15832	2011-11-18T15:00:00	ND	18.44	ND	1049.50	ND	ND	0.8	348.9	27.8	53	270.5	0
15833	2011-11-18T16:00:00	ND	17.01	ND	821.02	ND	ND	1.8	309	27.4	51.6	201.8	0
15834	2011-11-18T17:00:00	ND	16.75	ND	1039.35	ND	ND	3.7	274.7	25.5	54.9	76.2	0
15835	2011-11-18T18:00:00	ND	16.61	ND	1055.73	ND	ND	4.1	292.3	24.8	57.4	7.6	0
15836	2011-11-18T19:00:00	ND	11.68	ND	686.90	ND	ND	4.7	284.1	24	59.9	ND	0
15837	2011-11-18T20:00:00	ND	10.39	ND	787.82	ND	ND	4.9	274.2	23.7	61.2	ND	0
15838	2011-11-18T21:00:00	ND	9.91	ND	524.68	ND	ND	3.3	253.2	23.4	63.6	ND	0
15839	2011-11-18T22:00:00	ND	8.91	ND	330.44	ND	ND	1.9	204.3	22.7	71.3	ND	0
15840	2011-11-18T23:00:00	ND	8.01	ND	352.40	ND	ND	1.6	217.9	22.7	67.9	ND	0
15841	2011-11-19T00:00:00	ND	8.37	ND	682.06	ND	ND	1.5	214	21.8	78.3	ND	0
15842	2011-11-19T01:00:00	ND	8.87	ND	634.65	ND	ND	1.3	212.5	21.6	78.2	ND	0
15843	2011-11-19T02:00:00	ND	8.86	ND	1257.12	ND	ND	1	193.5	21.2	76.8	ND	0
15844	2011-11-19T03:00:00	ND	8.33	ND	814.32	ND	ND	0.1	ND	21.1	76.6	ND	0
15845	2011-11-19T04:00:00	ND	8.51	ND	633.14	ND	ND	0.6	6	20.8	80.2	ND	0
15846	2011-11-19T05:00:00	ND	9.40	ND	914.86	ND	ND	0.4	192.9	20	83.9	ND	0
15847	2011-11-19T06:00:00	ND	9.87	ND	946.16	ND	ND	0.6	234.1	19.9	83.4	ND	0
15848	2011-11-19T07:00:00	ND	9.25	ND	709.38	ND	ND	0.7	262.6	20.4	74.6	21.1	0
15849	2011-11-19T08:00:00	ND	9.55	ND	958.73	ND	ND	0.5	249.9	21.5	69.1	125.3	0
15850	2011-11-19T09:00:00	ND	10.25	ND	871.76	ND	ND	1.2	165.1	22.9	66.7	362.3	0
15851	2011-11-19T10:00:00	ND	14.23	ND	1069.28	ND	ND	1.4	170.1	24.5	62.8	614	0
15852	2011-11-19T11:00:00	ND	22.23	ND	1235.18	ND	ND	1.3	142	26	55.5	676.6	0
15853	2011-11-19T12:00:00	ND	20.59	ND	1091.98	ND	ND	1.2	127.3	27.3	49.5	713.3	0
15854	2011-11-19T13:00:00	ND	14.95	ND	923.56	ND	ND	1.1	92.8	27.8	46.6	522.2	0
15855	2011-11-19T14:00:00	ND	13.41	ND	1063.86	ND	ND	1.1	36	28.5	45.9	584.8	0
15856	2011-11-19T15:00:00	ND	14.55	ND	1089.52	ND	ND	1.9	2.7	28.6	47.1	388.8	0
15857	2011-11-19T16:00:00	ND	20.98	ND	1066.69	ND	ND	3.2	277.7	28.8	44.8	509.4	0
15858	2011-11-19T17:00:00	ND	17.81	ND	858.56	ND	ND	3.8	280.6	27.3	48.2	194	0
15859	2011-11-19T18:00:00	ND	11.67	ND	623.40	ND	ND	3.6	279.9	25.8	53.1	19	0
15860	2011-11-19T19:00:00	ND	8.99	ND	620.29	ND	ND	3.5	270.8	25	55	ND	0
15861	2011-11-19T20:00:00	ND	9.12	ND	710.28	ND	ND	4.2	275.2	24.3	59.1	ND	0
15862	2011-11-19T21:00:00	ND	8.50	ND	708.61	ND	ND	3.5	279.4	24	60.8	ND	0
15863	2011-11-19T22:00:00	ND	7.81	ND	479.54	ND	ND	2.4	274.7	24	60.9	ND	0
15864	2011-11-19T23:00:00	ND	7.57	ND	342.53	ND	ND	1.5	254.2	23.7	63	ND	0
15865	2011-11-20T00:00:00	ND	7.36	ND	410.62	ND	ND	2	203.4	23	67.7	ND	0
15866	2011-11-20T01:00:00	ND	7.11	ND	466.55	ND	ND	1.6	159.7	21.5	78	ND	0
15867	2011-11-20T02:00:00	ND	7.35	ND	475.50	ND	ND	0.9	168	20.3	85.7	ND	0.25
15868	2011-11-20T03:00:00	ND	7.09	ND	496.12	ND	ND	0.7	185.6	20.1	85.2	ND	0
15869	2011-11-20T04:00:00	ND	6.62	ND	428.17	ND	ND	0.4	143.9	20	85.9	ND	0
15870	2011-11-20T05:00:00	ND	6.34	ND	259.07	ND	ND	0.8	135.7	20	87.5	ND	0
15871	2011-11-20T06:00:00	ND	6.70	ND	382.97	ND	ND	0.6	138.5	19.7	86.4	ND	0
15872	2011-11-20T07:00:00	ND	6.64	ND	528.86	ND	ND	0.5	238.3	19.9	84.4	61.7	0
15873	2011-11-20T08:00:00	ND	6.46	ND	495.44	ND	ND	1	235.5	21.3	79.4	245.8	0
15874	2011-11-20T09:00:00	ND	6.08	ND	282.85	ND	ND	0.7	194.5	22.9	70.6	255.5	0
15875	2011-11-20T10:00:00	ND	7.39	ND	375.39	ND	ND	1	128.6	24.2	66.4	377	0
15876	2011-11-20T11:00:00	ND	8.21	ND	388.46	ND	ND	1.2	139.9	25	63.7	508.4	0
15877	2011-11-20T12:00:00	ND	8.75	ND	572.80	ND	ND	1.1	118.1	26.2	58.8	615.9	0
15878	2011-11-20T13:00:00	ND	9.37	ND	655.63	ND	ND	1.1	59.6	27	54.7	425.4	0
15879	2011-11-20T14:00:00	ND	9.44	ND	599.71	ND	ND	0.5	26.2	27.6	52.3	529.6	0
15880	2011-11-20T15:00:00	ND	11.39	ND	612.47	ND	ND	2.5	330.4	27.1	55.7	363.5	0
15881	2011-11-20T16:00:00	ND	13.99	ND	519.16	ND	ND	2	308.2	27.3	52.3	343.6	0
15882	2011-11-20T17:00:00	ND	11.17	ND	427.15	ND	ND	2.6	286.2	27.1	49.9	182.5	0
15883	2011-11-20T18:00:00	ND	9.00	ND	276.88	ND	ND	3.9	273.7	25.4	56.1	20.8	0
15884	2011-11-20T19:00:00	ND	8.47	ND	183.54	ND	ND	4.1	276.9	24.4	60	ND	0
15885	2011-11-20T20:00:00	ND	8.13	ND	194.36	ND	ND	3.2	277.4	24.3	58.8	ND	0
15886	2011-11-20T21:00:00	ND	7.95	ND	251.44	ND	ND	1.5	231	23.9	63	ND	0
15887	2011-11-20T22:00:00	ND	7.34	ND	68.48	ND	ND	1.9	217.1	22.8	72.8	ND	0
15888	2011-11-20T23:00:00	ND	7.36	ND	284.29	ND	ND	1.2	167	22.6	73.6	ND	0
15889	2011-11-21T00:00:00	ND	7.62	ND	329.55	ND	ND	2	176.5	21.9	78	ND	0
15890	2011-11-21T01:00:00	ND	8.12	ND	498.82	ND	ND	1.5	187.1	21.2	82.4	ND	0
15891	2011-11-21T02:00:00	ND	8.02	ND	316.68	ND	ND	0.9	184.1	21	83	ND	0
15892	2011-11-21T03:00:00	ND	7.16	ND	113.02	ND	ND	0.6	142.5	20.8	83.3	ND	0
15893	2011-11-21T04:00:00	ND	7.44	ND	22.59	ND	ND	0	ND	20.8	83.2	ND	0
15894	2011-11-21T05:00:00	ND	7.62	ND	90.36	ND	ND	0.6	ND	20.7	82.3	ND	0
15895	2011-11-21T06:00:00	ND	7.75	ND	112.91	ND	ND	0.9	47.2	20.4	85.4	ND	0
15896	2011-11-21T07:00:00	ND	7.35	ND	135.35	ND	ND	0.7	47.8	20.5	86.6	23	0
15897	2011-11-21T08:00:00	ND	9.19	ND	496.46	ND	ND	1.1	228.5	21.1	82.1	148.1	0
15898	2011-11-21T09:00:00	ND	11.22	ND	836.65	ND	ND	1	153.9	24.1	68.6	556.5	0
15899	2011-11-21T10:00:00	ND	18.81	ND	1519.06	ND	ND	1.5	111.2	25.9	59.6	604.1	0
15900	2011-11-21T11:00:00	ND	22.02	ND	1229.50	ND	ND	1.5	52	25	63.7	239.7	0
15901	2011-11-21T12:00:00	ND	18.50	ND	756.10	ND	ND	1.7	34.5	26.3	58.4	448.6	0
15902	2011-11-21T13:00:00	ND	23.24	ND	851.45	ND	ND	1.5	43.3	27.1	54.7	472.2	0
15903	2011-11-21T14:00:00	ND	45.99	ND	772.97	ND	ND	1	43.2	27.6	53.3	417.7	0
15904	2011-11-21T15:00:00	ND	53.79	ND	843.59	ND	ND	0.8	91.9	28	51.1	332.8	0
15905	2011-11-21T16:00:00	ND	27.60	ND	624.86	ND	ND	0.6	308.1	29	49.2	432.1	0
15906	2011-11-21T17:00:00	ND	22.01	ND	719.81	ND	ND	2.2	259.5	27.9	51.7	182.2	0
15907	2011-11-21T18:00:00	ND	25.85	ND	1145.19	ND	ND	3.6	271.7	25.9	55.1	19.4	0
15908	2011-11-21T19:00:00	ND	18.45	ND	827.33	ND	ND	3.8	274.2	25.1	58.8	ND	0
15909	2011-11-21T20:00:00	ND	13.94	ND	928.25	ND	ND	1.8	257.7	24.3	64.1	ND	0
15910	2011-11-21T21:00:00	ND	12.29	ND	605.75	ND	ND	0.3	100.3	21.5	84.6	ND	15.24
15911	2011-11-21T22:00:00	ND	10.93	ND	418.90	ND	ND	0.9	153.3	20.8	89.1	ND	2.54
15912	2011-11-21T23:00:00	ND	10.07	ND	1016.52	ND	ND	0.2	126.7	20.7	89.5	ND	0
15913	2011-11-22T00:00:00	ND	9.97	ND	1095.20	ND	ND	1.1	151.6	20.7	89.7	ND	0.25
15914	2011-11-22T01:00:00	ND	10.15	ND	903.26	ND	ND	1.2	183.2	20.4	90.7	ND	0
15915	2011-11-22T02:00:00	ND	10.50	ND	789.55	ND	ND	1.1	190.7	20.5	89.3	ND	0
15916	2011-11-22T03:00:00	ND	9.45	ND	248.23	ND	ND	0.6	189.8	20.6	86.9	ND	0
15917	2011-11-22T04:00:00	ND	9.47	ND	112.87	ND	ND	1.3	171.9	20	90	ND	14.73
15918	2011-11-22T05:00:00	ND	9.12	ND	135.17	ND	ND	0.9	144.1	18.6	95.6	ND	29.72
15919	2011-11-22T06:00:00	ND	9.03	ND	168.15	ND	ND	1.1	152.5	17.8	97	ND	23.88
15920	2011-11-22T07:00:00	ND	8.34	ND	223.59	ND	ND	1.2	204.3	17.5	97.4	3.9	14.48
15921	2011-11-22T08:00:00	ND	8.35	ND	603.06	ND	ND	1.2	213.1	18	95.8	79.4	1.52
15922	2011-11-22T09:00:00	ND	9.01	ND	962.08	ND	ND	1.3	192.2	19.8	86.9	255.9	0
15923	2011-11-22T10:00:00	ND	9.01	ND	1688.43	ND	ND	1	213.3	21.1	80.7	298.8	0
15924	2011-11-22T11:00:00	ND	10.52	ND	1322.82	ND	ND	1.3	151.5	23.8	71.7	725.9	0
15925	2011-11-22T12:00:00	ND	11.12	ND	753.06	ND	ND	1.2	145	25.4	60.2	780.2	0
15926	2011-11-22T13:00:00	ND	11.81	ND	952.13	ND	ND	0.4	182.1	26.2	56	463.1	0
15927	2011-11-22T14:00:00	ND	12.13	ND	839.66	ND	ND	0.7	114.1	27	51.7	574.5	0
15928	2011-11-22T15:00:00	ND	11.08	ND	703.51	ND	ND	1.1	1.6	26.6	53.9	200.6	0
15929	2011-11-22T16:00:00	ND	11.35	ND	760.16	ND	ND	1.4	312	26.5	55.1	225.4	0
15930	2011-11-22T17:00:00	ND	17.59	ND	1070.78	ND	ND	1.3	267.4	26.2	57.7	78.3	0
15931	2011-11-22T18:00:00	ND	16.00	ND	931.68	ND	ND	1.3	285.7	25.5	59.4	11.4	0
15932	2011-11-22T19:00:00	ND	12.55	ND	1021.30	ND	ND	1.2	277.7	24.7	61.5	ND	0
15933	2011-11-22T20:00:00	ND	12.98	ND	1464.90	ND	ND	2.5	265.9	24	63.1	ND	0
15934	2011-11-22T21:00:00	ND	12.80	ND	1552.80	ND	ND	1.9	280.8	23.6	65.7	ND	0
15935	2011-11-22T22:00:00	ND	10.67	ND	798.16	ND	ND	1.1	248	23.2	67	ND	0
15936	2011-11-22T23:00:00	ND	9.40	ND	466.86	ND	ND	1.1	194.6	22.1	76.8	ND	0
15937	2011-11-23T00:00:00	ND	9.08	ND	487.82	ND	ND	1.4	217.6	22	74.2	ND	0
15938	2011-11-23T01:00:00	ND	9.68	ND	1156.76	ND	ND	0.7	297.8	22.1	72.9	ND	0
15939	2011-11-23T02:00:00	ND	8.69	ND	567.23	ND	ND	0.2	ND	22	74.3	ND	0
15940	2011-11-23T03:00:00	ND	9.21	ND	533.01	ND	ND	0.8	185.6	21.6	77.2	ND	0
15941	2011-11-23T04:00:00	ND	9.97	ND	679.52	ND	ND	0.7	201.1	21.2	79.3	ND	0
15942	2011-11-23T05:00:00	ND	9.03	ND	395.85	ND	ND	0.4	141.9	21.1	80.7	ND	0
15943	2011-11-23T06:00:00	ND	8.84	ND	248.74	ND	ND	0.7	121.9	20.5	85.5	ND	0
15944	2011-11-23T07:00:00	ND	8.67	ND	361.06	ND	ND	0.6	170.3	20.4	85.8	17.3	0
15945	2011-11-23T08:00:00	ND	9.26	ND	676.75	ND	ND	0.7	180.4	21.5	80.3	157	0
15946	2011-11-23T09:00:00	ND	10.00	ND	1075.54	ND	ND	0.9	145.3	24	67.8	410.6	0
15947	2011-11-23T10:00:00	ND	12.17	ND	2272.11	ND	ND	1.6	150.7	25.6	62.4	555.2	0
15948	2011-11-23T11:00:00	ND	13.13	ND	1193.83	ND	ND	1.5	143.3	25.5	63.2	381.2	0
15949	2011-11-23T12:00:00	ND	13.70	ND	803.27	ND	ND	0.8	119.5	26.5	60.5	428.9	0
15950	2011-11-23T13:00:00	ND	15.14	ND	852.02	ND	ND	0.8	141	27.3	57.5	507.9	0
15951	2011-11-23T14:00:00	ND	13.97	ND	1073.64	ND	ND	1.1	348.1	28.2	53.5	388.3	0
15952	2011-11-23T15:00:00	ND	15.44	ND	880.01	ND	ND	3.8	284.8	27.4	53.2	411.7	0
15953	2011-11-23T16:00:00	ND	15.48	ND	843.03	ND	ND	4.5	279.2	27.5	52.4	425.1	0
15954	2011-11-23T17:00:00	ND	11.97	ND	531.40	ND	ND	3.7	280.1	26.2	56	151.4	0
15955	2011-11-23T18:00:00	ND	10.97	ND	598.11	ND	ND	4.4	273.8	25.4	53.7	46.6	0
15956	2011-11-23T19:00:00	ND	10.89	ND	607.99	ND	ND	4.8	277.5	24.7	54.8	ND	0
15957	2011-11-23T20:00:00	ND	9.87	ND	503.56	ND	ND	2.7	271.7	24.4	55.6	ND	0
15958	2011-11-23T21:00:00	ND	9.41	ND	423.02	ND	ND	2.2	260.7	23.7	59.8	ND	0
15959	2011-11-23T22:00:00	ND	8.71	ND	513.27	ND	ND	1	276.1	23.4	61.4	ND	0
15960	2011-11-23T23:00:00	ND	8.03	ND	524.15	ND	ND	1.4	260.2	23.3	61.4	ND	0
15961	2011-11-24T00:00:00	ND	9.77	ND	740.40	ND	ND	1.6	274.9	22.9	63.5	ND	0
15962	2011-11-24T01:00:00	ND	12.80	ND	489.14	ND	ND	1.8	232.4	22.8	67.5	ND	0
15963	2011-11-24T02:00:00	ND	11.34	ND	409.37	ND	ND	1.2	181.3	21.9	76.2	ND	0
15964	2011-11-24T03:00:00	ND	9.44	ND	249.41	ND	ND	1	165.1	21	80.6	ND	0
15965	2011-11-24T04:00:00	ND	9.51	ND	293.86	ND	ND	0.7	124.2	20.7	83	ND	0
15966	2011-11-24T05:00:00	ND	9.12	ND	270.98	ND	ND	0.5	76.1	20.5	84.6	ND	0
15967	2011-11-24T06:00:00	ND	8.80	ND	338.49	ND	ND	0.1	282.4	20.5	82.9	ND	0
15968	2011-11-24T07:00:00	ND	8.98	ND	361.06	ND	ND	0.7	122.9	20.8	81.3	15.6	0
15969	2011-11-24T08:00:00	ND	10.28	ND	496.96	ND	ND	0.3	157.5	21.2	81.5	126.4	0
15970	2011-11-24T09:00:00	ND	11.95	ND	1210.17	ND	ND	0.4	135.7	22.6	74.7	218.3	0
15971	2011-11-24T10:00:00	ND	13.05	ND	1897.76	ND	ND	0.8	121.2	23.8	68.4	318.7	0
15972	2011-11-24T11:00:00	ND	20.77	ND	1700.08	ND	ND	0.9	78.2	24.7	64.6	386.9	0
15973	2011-11-24T12:00:00	ND	16.78	ND	1510.68	ND	ND	1.3	52	25.6	61.7	443.3	0
15974	2011-11-24T13:00:00	ND	13.50	ND	1113.48	ND	ND	1.7	66.4	26.2	60.2	574.1	0
15975	2011-11-24T14:00:00	ND	19.47	ND	1104.21	ND	ND	1.5	84.5	26.7	56.4	454.5	0
15976	2011-11-24T15:00:00	ND	21.58	ND	933.24	ND	ND	1.4	55.9	27.2	53.4	348.9	0
15977	2011-11-24T16:00:00	ND	21.88	ND	957.87	ND	ND	1.4	71	26.5	55.7	148.2	0
15978	2011-11-24T17:00:00	ND	22.46	ND	875.04	ND	ND	0.7	47.4	26.2	55.1	94.5	0
15979	2011-11-24T18:00:00	ND	20.49	ND	1426.27	ND	ND	1.1	21.4	25.8	57.1	8	0
15980	2011-11-24T19:00:00	ND	19.39	ND	1309.50	ND	ND	1.1	280.1	25	61.8	ND	0
15981	2011-11-24T20:00:00	ND	26.05	ND	1523.66	ND	ND	1	253.1	23.9	63.5	ND	0
15982	2011-11-24T21:00:00	ND	27.15	ND	1643.59	ND	ND	2	264.8	23	66.4	ND	0
15983	2011-11-24T22:00:00	ND	19.31	ND	1479.29	ND	ND	0.8	304.6	23	68.7	ND	0
15984	2011-11-24T23:00:00	ND	13.59	ND	773.78	ND	ND	0.8	286.8	23	65.8	ND	0
15985	2011-11-25T00:00:00	ND	14.05	ND	1206.19	ND	ND	0.4	183.8	22.3	71	ND	0
15986	2011-11-25T01:00:00	ND	16.67	ND	726.55	ND	ND	1.4	169.9	21.2	80.9	ND	0
15987	2011-11-25T02:00:00	ND	13.56	ND	916.11	ND	ND	1.2	157.5	20.7	83.6	ND	0
15988	2011-11-25T03:00:00	ND	10.51	ND	575.83	ND	ND	1	191.6	20.6	85.2	ND	0
15989	2011-11-25T04:00:00	ND	9.71	ND	474.05	ND	ND	0.8	246.4	20.8	75.3	ND	0
15990	2011-11-25T05:00:00	ND	9.43	ND	372.72	ND	ND	0.3	228.9	20.9	74.3	ND	0
15991	2011-11-25T06:00:00	ND	10.03	ND	225.97	ND	ND	0.2	289.5	20.4	79.6	ND	0
15992	2011-11-25T07:00:00	ND	9.93	ND	281.98	ND	ND	0.2	77.1	19.9	83.5	18.4	0
15993	2011-11-25T08:00:00	ND	9.89	ND	641.82	ND	ND	0.2	196.3	21.3	75.7	172.3	0
15994	2011-11-25T09:00:00	ND	11.44	ND	1583.94	ND	ND	0.8	125.7	23.1	72.3	370.7	0
15995	2011-11-25T10:00:00	ND	14.22	ND	2094.48	ND	ND	0.7	160.8	24.8	64.9	576.5	0
15996	2011-11-25T11:00:00	ND	15.92	ND	1660.02	ND	ND	0.8	94.1	26.5	56.5	596.8	0
15997	2011-11-25T12:00:00	ND	16.51	ND	921.10	ND	ND	1.2	35.7	27.4	50.9	376.2	0
15998	2011-11-25T13:00:00	ND	18.38	ND	877.67	ND	ND	1.4	334.3	27.4	51.4	500.2	0
15999	2011-11-25T14:00:00	ND	21.37	ND	912.32	ND	ND	1	346.3	29	47.4	581.9	0
16000	2011-11-25T15:00:00	ND	38.40	ND	626.93	ND	ND	2.4	337.2	28.8	47.5	363.2	0
16001	2011-11-25T16:00:00	ND	42.96	ND	661.32	ND	ND	1.1	337.2	29.7	44.4	488.3	0
16002	2011-11-25T17:00:00	ND	28.98	ND	581.84	ND	ND	2.1	268.1	28.8	47.5	201.9	0
16003	2011-11-25T18:00:00	ND	15.29	ND	475.69	ND	ND	3.2	267.1	26.7	54.5	16.2	0
16004	2011-11-25T19:00:00	ND	13.99	ND	748.89	ND	ND	3.1	269.9	25.9	56.1	ND	0
16005	2011-11-25T20:00:00	ND	15.32	ND	907.76	ND	ND	3.6	265.8	25.4	58.2	ND	0
16006	2011-11-25T21:00:00	ND	13.70	ND	848.89	ND	ND	1.9	290.7	25	59.2	ND	0
16007	2011-11-25T22:00:00	ND	11.56	ND	504.07	ND	ND	0.3	39.7	24.2	65.2	ND	0
16008	2011-11-25T23:00:00	ND	10.77	ND	457.01	ND	ND	0.2	272.6	23.7	67.1	ND	0
16009	2011-11-26T00:00:00	ND	12.00	ND	1300.30	ND	ND	0.6	340.4	23.3	69.8	ND	0
16010	2011-11-26T01:00:00	ND	12.61	ND	1332.71	ND	ND	0.3	72.1	22.5	75	ND	0
16011	2011-11-26T02:00:00	ND	12.03	ND	852.00	ND	ND	1.1	152.4	22.6	75.2	ND	0
16012	2011-11-26T03:00:00	ND	15.28	ND	954.56	ND	ND	1.1	143.8	21.8	80.4	ND	0
16013	2011-11-26T04:00:00	ND	17.37	ND	781.98	ND	ND	1.1	157.8	21.7	80.8	ND	0
16014	2011-11-26T05:00:00	ND	13.27	ND	464.50	ND	ND	0.5	149.5	21.7	80.9	ND	0
16015	2011-11-26T06:00:00	ND	12.23	ND	430.51	ND	ND	0	ND	21.6	81.3	ND	0
16016	2011-11-26T07:00:00	ND	12.12	ND	486.99	ND	ND	0.4	ND	21.8	80.6	22.6	0
16017	2011-11-26T08:00:00	ND	11.72	ND	713.98	ND	ND	0.7	167.4	22.6	75	138.8	0
16018	2011-11-26T09:00:00	ND	12.84	ND	1329.57	ND	ND	1	135.5	24.8	67.4	357	0
16019	2011-11-26T10:00:00	ND	15.63	ND	1568.43	ND	ND	0.9	128.2	25.7	63.2	516.2	0
16020	2011-11-26T11:00:00	ND	20.22	ND	1665.03	ND	ND	1.1	76.5	27.3	56.6	522.1	0
16021	2011-11-26T12:00:00	ND	20.97	ND	1108.27	ND	ND	1.3	72.2	28.2	53.5	593.1	0
16022	2011-11-26T13:00:00	ND	24.89	ND	1204.23	ND	ND	1.1	17	28.5	52.9	299.3	0
16023	2011-11-26T14:00:00	ND	25.82	ND	985.20	ND	ND	1.5	304.4	29.3	49.3	544.6	0
16024	2011-11-26T15:00:00	ND	35.56	ND	790.25	ND	ND	2.6	296.2	30	45.3	632.2	0
16025	2011-11-26T16:00:00	ND	31.09	ND	733.84	ND	ND	4.4	276.9	28.8	48.7	353.6	0
16026	2011-11-26T17:00:00	ND	16.93	ND	464.09	ND	ND	3.9	272.4	26.9	53.5	123.1	0
16027	2011-11-26T18:00:00	ND	13.42	ND	507.28	ND	ND	3	275.8	26.4	54.9	21.6	0
16028	2011-11-26T19:00:00	ND	13.27	ND	529.46	ND	ND	2.5	258.9	26	56.6	ND	0
16029	2011-11-26T20:00:00	ND	11.88	ND	643.69	ND	ND	2.7	235.6	25.1	60.5	ND	0
16030	2011-11-26T21:00:00	ND	11.59	ND	653.22	ND	ND	2	272.2	24.7	62.3	ND	0
16031	2011-11-26T22:00:00	ND	11.05	ND	446.34	ND	ND	1.2	268.5	24.8	62.1	ND	0
16032	2011-11-26T23:00:00	ND	10.08	ND	412.14	ND	ND	1.1	236.8	24.6	63.3	ND	0
16033	2011-11-27T00:00:00	ND	9.45	ND	354.66	ND	ND	1.4	161.6	23.3	75.7	ND	0
16034	2011-11-27T01:00:00	ND	9.80	ND	375.89	ND	ND	0.6	118.1	22.5	80.7	ND	0
16035	2011-11-27T02:00:00	ND	10.00	ND	931.52	ND	ND	1	158.6	22.5	78.2	ND	0
16036	2011-11-27T03:00:00	ND	10.06	ND	908.80	ND	ND	1	188.5	22.5	78.7	ND	0
16037	2011-11-27T04:00:00	ND	9.59	ND	522.56	ND	ND	0.6	115.5	22.7	77.3	ND	0
16038	2011-11-27T05:00:00	ND	9.39	ND	488.81	ND	ND	0.7	86.2	22.1	82.2	ND	0
16039	2011-11-27T06:00:00	ND	10.74	ND	1077.74	ND	ND	1.1	58.9	21.5	86.1	ND	0
16040	2011-11-27T07:00:00	ND	10.07	ND	667.97	ND	ND	0.6	51.3	21.2	88.3	9.5	0
16041	2011-11-27T08:00:00	ND	10.92	ND	599.43	ND	ND	0	168.8	21.9	83.5	69.9	0
16042	2011-11-27T09:00:00	ND	11.12	ND	725.56	ND	ND	0.7	123	23.4	77.8	254.6	0
16043	2011-11-27T10:00:00	ND	13.73	ND	729.25	ND	ND	1.2	147	24.2	73.5	325.4	0
16044	2011-11-27T11:00:00	ND	20.80	ND	1142.53	ND	ND	0.6	124.2	25.3	65.6	312.9	0
16045	2011-11-27T12:00:00	ND	22.16	ND	974.75	ND	ND	0.3	90.4	27.1	59.8	481.1	0
16046	2011-11-27T13:00:00	ND	20.79	ND	738.36	ND	ND	0.3	62.4	28.3	54.9	411.9	0
16047	2011-11-27T14:00:00	ND	16.66	ND	648.64	ND	ND	1.4	355.2	28.2	54.1	304.5	0
16048	2011-11-27T15:00:00	ND	16.61	ND	822.12	ND	ND	0.8	268.1	28.4	51.9	205.9	0
16049	2011-11-27T16:00:00	ND	16.48	ND	683.62	ND	ND	2.9	287.4	28.3	50.8	395	0
16050	2011-11-27T17:00:00	ND	20.64	ND	625.48	ND	ND	2.8	281.1	26.9	55.6	111.1	0
16051	2011-11-27T18:00:00	ND	14.56	ND	299.76	ND	ND	2.5	252.1	25.7	59.8	16.7	0
16052	2011-11-27T19:00:00	ND	12.00	ND	275.59	ND	ND	2.7	179.7	23.9	70.7	ND	0
16053	2011-11-27T20:00:00	ND	11.72	ND	342.41	ND	ND	2	186	23.4	72.5	ND	0
16054	2011-11-27T21:00:00	ND	11.52	ND	752.04	ND	ND	1.2	209.1	24.1	68.8	ND	0
16055	2011-11-27T22:00:00	ND	11.02	ND	753.82	ND	ND	1.2	1.4	23.6	72.5	ND	0
16056	2011-11-27T23:00:00	ND	11.34	ND	832.36	ND	ND	1.5	57.1	21.7	82.3	ND	0
16057	2011-11-28T00:00:00	ND	11.89	ND	1121.59	ND	ND	0.8	75.4	21.4	84	ND	0
16058	2011-11-28T01:00:00	ND	10.90	ND	701.70	ND	ND	0.8	44.3	21.5	83.4	ND	0
16059	2011-11-28T02:00:00	ND	9.71	ND	532.11	ND	ND	0.3	76.6	21.4	83	ND	0
16060	2011-11-28T03:00:00	ND	10.41	ND	543.25	ND	ND	0.6	162.9	21.5	83	ND	0
16061	2011-11-28T04:00:00	ND	11.73	ND	577.40	ND	ND	0.8	166.9	21.4	84.4	ND	0
16062	2011-11-28T05:00:00	ND	15.09	ND	531.93	ND	ND	0.1	ND	21.4	84.1	ND	0
16063	2011-11-28T06:00:00	ND	14.55	ND	520.61	ND	ND	0.6	55.2	21.2	86.3	ND	0
16064	2011-11-28T07:00:00	ND	13.14	ND	508.95	ND	ND	0.6	78.4	21.1	87.3	12.7	0
16065	2011-11-28T08:00:00	ND	13.11	ND	904.49	ND	ND	0.4	149.2	21.6	84.5	65.7	0
16066	2011-11-28T09:00:00	ND	13.81	ND	1574.23	ND	ND	0.5	58.9	22.8	78.3	166.8	0
16067	2011-11-28T10:00:00	ND	13.39	ND	1637.50	ND	ND	0.6	75.4	23.9	73	228	0
16068	2011-11-28T11:00:00	ND	16.32	ND	1392.48	ND	ND	1	109.2	25.4	65.8	429	0
16069	2011-11-28T12:00:00	ND	18.84	ND	1330.69	ND	ND	1.4	80.3	26.4	62.1	417.7	0
16070	2011-11-28T13:00:00	ND	19.27	ND	1185.52	ND	ND	2.5	257	25.6	63.2	274.1	0
16071	2011-11-28T14:00:00	ND	19.48	ND	1251.23	ND	ND	1.3	251.3	26.4	60.3	393.8	0
16072	2011-11-28T15:00:00	ND	18.88	ND	1208.54	ND	ND	2.1	267.9	28.4	50.1	752.3	0
16073	2011-11-28T16:00:00	ND	23.35	ND	938.53	ND	ND	3.1	275.5	28	50	301.1	0
16074	2011-11-28T17:00:00	ND	19.37	ND	682.71	ND	ND	3.6	275.9	26.7	54.4	170.1	0
16075	2011-11-28T18:00:00	ND	14.12	ND	760.41	ND	ND	4	268.5	25	59.9	15.7	0
16076	2011-11-28T19:00:00	ND	14.18	ND	813.38	ND	ND	2.4	284.1	23.5	68.4	ND	6.35
16077	2011-11-28T20:00:00	ND	12.49	ND	775.09	ND	ND	0.6	239.6	22.8	78	ND	0.25
16078	2011-11-28T21:00:00	ND	11.60	ND	955.21	ND	ND	1.6	188.1	22.5	79.2	ND	0
16079	2011-11-28T22:00:00	ND	13.02	ND	1942.55	ND	ND	1.7	205.7	21.7	83.9	ND	0.51
16080	2011-11-28T23:00:00	ND	12.02	ND	1325.52	ND	ND	0.4	260.9	21.4	85.2	ND	1.52
16081	2011-11-29T00:00:00	ND	9.78	ND	622.47	ND	ND	1.1	9.8	21.2	85.9	ND	0
16082	2011-11-29T01:00:00	ND	9.83	ND	588.12	ND	ND	1.1	11.9	21	88.6	ND	0
16083	2011-11-29T02:00:00	ND	10.31	ND	858.97	ND	ND	1.8	14.7	20.7	90.2	ND	0
16084	2011-11-29T03:00:00	ND	12.19	ND	756.48	ND	ND	1.7	9	20.4	89.1	ND	0
16085	2011-11-29T04:00:00	ND	13.26	ND	552.68	ND	ND	1.1	357.5	20.3	90	ND	0.25
16086	2011-11-29T05:00:00	ND	14.85	ND	417.19	ND	ND	0.5	25.9	20	92.1	ND	1.78
16087	2011-11-29T06:00:00	ND	18.65	ND	382.97	ND	ND	0.7	92.3	19.9	93.6	ND	0.25
16088	2011-11-29T07:00:00	ND	17.74	ND	394.10	ND	ND	1.2	112.9	19.9	94	5	0.76
16089	2011-11-29T08:00:00	ND	15.17	ND	743.16	ND	ND	1.2	135.2	19.9	93.3	14.2	4.57
16090	2011-11-29T09:00:00	ND	14.42	ND	1790.34	ND	ND	0.8	219.4	19.8	94	94.6	8.13
16091	2011-11-29T10:00:00	ND	13.08	ND	2206.21	ND	ND	0.5	179	20.4	90.7	85.6	0.25
16092	2011-11-29T11:00:00	ND	12.23	ND	1703.16	ND	ND	0.5	239.6	20.8	90.5	278.9	1.52
16093	2011-11-29T12:00:00	ND	12.37	ND	1513.48	ND	ND	1.7	257.6	22.7	77.9	380.4	0
16094	2011-11-29T13:00:00	ND	13.34	ND	1989.34	ND	ND	1.7	278.8	22.6	76.1	272.8	0
16095	2011-11-29T14:00:00	ND	11.88	ND	920.47	ND	ND	0.3	23.6	24.1	66.2	324.5	0
16096	2011-11-29T15:00:00	ND	11.89	ND	1062.20	ND	ND	1.3	71.6	25.2	64.4	435.6	0
16097	2011-11-29T16:00:00	ND	11.46	ND	940.03	ND	ND	1.5	70.1	25.6	63.1	287.8	0
16098	2011-11-29T17:00:00	ND	17.35	ND	1331.58	ND	ND	0.8	237.7	24.7	65.9	47.3	0
16099	2011-11-29T18:00:00	ND	23.11	ND	1258.90	ND	ND	0.7	229.1	23.3	75.1	5.8	0
16100	2011-11-29T19:00:00	ND	21.70	ND	1173.24	ND	ND	1.2	283.8	23.8	64.9	ND	0
16101	2011-11-29T20:00:00	ND	20.09	ND	2156.48	ND	ND	1.5	271.3	23.8	62.1	ND	0
16102	2011-11-29T21:00:00	ND	14.82	ND	1449.06	ND	ND	1.3	247	23.2	65.6	ND	0
16103	2011-11-29T22:00:00	ND	12.19	ND	876.79	ND	ND	1.2	208.4	22.5	75.7	ND	0
16104	2011-11-29T23:00:00	ND	11.43	ND	874.72	ND	ND	1	199.1	22	81.7	ND	0
16105	2011-11-30T00:00:00	ND	11.13	ND	1247.48	ND	ND	0.7	255.5	22.1	71.9	ND	0
16106	2011-11-30T01:00:00	ND	9.57	ND	1123.11	ND	ND	0.2	319.1	21.5	74.9	ND	0
16107	2011-11-30T02:00:00	ND	9.32	ND	520.79	ND	ND	0.3	ND	20.5	85.8	ND	0
16108	2011-11-30T03:00:00	ND	10.09	ND	643.14	ND	ND	1.2	188.3	20.5	86	ND	0
16109	2011-11-30T04:00:00	ND	10.09	ND	676.98	ND	ND	1.4	190.7	20.3	88.8	ND	0
16110	2011-11-30T05:00:00	ND	10.78	ND	507.39	ND	ND	1.8	210.6	19.7	92.3	ND	2.79
16111	2011-11-30T06:00:00	ND	9.55	ND	315.07	ND	ND	1.3	213.9	19.7	93.1	ND	1.78
16112	2011-11-30T07:00:00	ND	8.83	ND	281.31	ND	ND	0.3	ND	20.2	86.8	13.4	0.25
16113	2011-11-30T08:00:00	ND	8.58	ND	462.13	ND	ND	0.5	165.3	21	83.2	116.7	0
16114	2011-11-30T09:00:00	ND	9.25	ND	892.88	ND	ND	0.9	175.4	22.8	76.5	401.8	0
16115	2011-11-30T10:00:00	ND	12.12	ND	2024.13	ND	ND	0.6	129.1	23.8	70.8	349.4	0
16116	2011-11-30T11:00:00	ND	14.80	ND	1460.47	ND	ND	0.8	153.3	24.9	64.3	468.3	0
16117	2011-11-30T12:00:00	ND	14.25	ND	1019.25	ND	ND	1.1	107.7	25.7	61.4	475.9	0
16118	2011-11-30T13:00:00	ND	15.68	ND	861.22	ND	ND	1.4	117.2	26.5	58.5	617.9	0
16119	2011-11-30T14:00:00	ND	16.54	ND	1128.35	ND	ND	0.2	236	27.6	55.1	565	0
16120	2011-11-30T15:00:00	ND	15.73	ND	1213.38	ND	ND	1	314	27.7	52.6	425.1	0
16121	2011-11-30T16:00:00	ND	15.47	ND	820.75	ND	ND	3	276.7	28.1	49.3	341.7	0
16122	2011-11-30T17:00:00	ND	12.97	ND	694.51	ND	ND	4.2	271	26.1	56.2	105.3	0
16123	2011-11-30T18:00:00	ND	10.73	ND	666.90	ND	ND	4.4	272	24.9	57.9	16.4	0
16124	2011-11-30T19:00:00	ND	11.47	ND	801.66	ND	ND	3.7	271.9	24.5	59.1	ND	0
16125	2011-11-30T20:00:00	ND	11.04	ND	629.03	ND	ND	4.3	271.5	24	60.2	ND	0
16126	2011-11-30T21:00:00	ND	10.60	ND	787.82	ND	ND	2.8	270.5	23.7	60.6	ND	0
16127	2011-11-30T22:00:00	ND	9.39	ND	444.84	ND	ND	0.9	277.7	23.7	60.3	ND	0
16128	2011-11-30T23:00:00	ND	9.21	ND	433.43	ND	ND	0.5	134.5	23.5	62.2	ND	0
16129	2011-12-01T00:00:00	ND	9.20	ND	581.32	ND	ND	1.5	162.3	22.5	70.4	ND	0
16130	2011-12-01T01:00:00	ND	13.20	ND	1306.40	ND	ND	1.6	175.9	21.6	79.7	ND	0
16131	2011-12-01T02:00:00	ND	12.59	ND	1019.28	ND	ND	0.8	169.2	21.2	82	ND	0
16132	2011-12-01T03:00:00	ND	10.30	ND	463.71	ND	ND	0.9	180.3	20.9	82.9	ND	0
16133	2011-12-01T04:00:00	ND	9.04	ND	418.04	ND	ND	1.1	188.1	20.8	81.5	ND	0
16134	2011-12-01T05:00:00	ND	9.09	ND	316.25	ND	ND	0.6	145.9	20.6	83.2	ND	0
16135	2011-12-01T06:00:00	ND	9.09	ND	316.03	ND	ND	0.2	ND	20.6	82.8	ND	0
16136	2011-12-01T07:00:00	ND	10.30	ND	406.33	ND	ND	0.3	ND	21	81.5	17.3	0
16137	2011-12-01T08:00:00	ND	9.95	ND	531.21	ND	ND	0.5	64.2	21.5	80.9	87.6	0
16138	2011-12-01T09:00:00	ND	11.76	ND	1335.94	ND	ND	0.5	91.3	22.8	76.8	235.2	0
16139	2011-12-01T10:00:00	ND	17.63	ND	1751.21	ND	ND	1	74.7	24.3	67.7	528.3	0
16140	2011-12-01T11:00:00	ND	45.59	ND	1782.95	ND	ND	1.2	60.1	25.5	62.9	399.2	0
16141	2011-12-01T12:00:00	ND	58.48	ND	1181.96	ND	ND	1.4	71.3	25.8	61.5	370.9	0
16142	2011-12-01T13:00:00	ND	37.47	ND	1171.66	ND	ND	1.1	104.3	26.9	58.1	550.1	0
16143	2011-12-01T14:00:00	ND	29.98	ND	1175.97	ND	ND	1.1	65.3	26.5	58.2	242.2	0
16144	2011-12-01T15:00:00	ND	22.86	ND	1151.37	ND	ND	0.6	99.9	27.2	56.3	488.5	0
16145	2011-12-01T16:00:00	ND	22.04	ND	992.50	ND	ND	1.6	157	28	55.7	400.7	0
16146	2011-12-01T17:00:00	ND	22.26	ND	1006.71	ND	ND	0.7	1.9	27.7	56.3	86.9	0
16147	2011-12-01T18:00:00	ND	21.87	ND	1202.23	ND	ND	1.7	266.1	26.3	58.7	20.5	0
16148	2011-12-01T19:00:00	ND	30.61	ND	1518.80	ND	ND	2.2	266.5	25.2	61.8	ND	0
16149	2011-12-01T20:00:00	ND	22.16	ND	1387.12	ND	ND	2.2	268.1	24.4	63.9	ND	0
16150	2011-12-01T21:00:00	ND	16.58	ND	1440.56	ND	ND	1	292.1	24.1	64.6	ND	0
16151	2011-12-01T22:00:00	ND	14.13	ND	1130.73	ND	ND	0.9	278	24	65.8	ND	0
16152	2011-12-01T23:00:00	ND	12.98	ND	1176.02	ND	ND	1.8	220.8	23.5	69.1	ND	0
16153	2011-12-02T00:00:00	ND	14.78	ND	1413.40	ND	ND	0.7	200.7	23.1	72.1	ND	0
16154	2011-12-02T01:00:00	ND	12.24	ND	1013.09	ND	ND	0.5	208.7	22.2	78.5	ND	0
16155	2011-12-02T02:00:00	ND	12.33	ND	1078.10	ND	ND	0.7	354.6	21.9	78.2	ND	0
16156	2011-12-02T03:00:00	ND	10.79	ND	691.55	ND	ND	0.3	29.2	22	79.1	ND	0
16157	2011-12-02T04:00:00	ND	14.01	ND	884.58	ND	ND	0.3	270.6	21.7	78.8	ND	0
16158	2011-12-02T05:00:00	ND	20.50	ND	895.01	ND	ND	0.9	243	21.4	77.2	ND	0
16159	2011-12-02T06:00:00	ND	23.43	ND	531.93	ND	ND	0.6	168.7	21.3	84.2	ND	0
16160	2011-12-02T07:00:00	ND	18.35	ND	395.98	ND	ND	0.6	179.4	21.4	87.6	40.2	0
16161	2011-12-02T08:00:00	ND	15.22	ND	803.56	ND	ND	0.7	174	21.5	89.7	80.3	0.25
16162	2011-12-02T09:00:00	ND	13.54	ND	1381.23	ND	ND	1.5	161.9	21.7	88.6	92.3	0
16163	2011-12-02T10:00:00	ND	14.41	ND	2345.15	ND	ND	1.8	171.5	22.1	86.9	209.2	0.25
16164	2011-12-02T11:00:00	ND	14.43	ND	2291.61	ND	ND	2.2	159.1	22.9	83	353.6	0
16165	2011-12-02T12:00:00	ND	14.26	ND	1512.92	ND	ND	2	170.7	24.4	73.4	550.4	0
16166	2011-12-02T13:00:00	ND	14.85	ND	1577.76	ND	ND	0.9	177	24.2	73	210.5	0
16167	2011-12-02T14:00:00	ND	15.13	ND	1245.36	ND	ND	1.4	336.7	23.1	80.9	234.7	0.76
16168	2011-12-02T15:00:00	ND	11.17	ND	1013.09	ND	ND	1.5	12.9	24	75.4	308.6	0.25
16169	2011-12-02T16:00:00	ND	10.26	ND	1381.53	ND	ND	1.9	1.3	24.4	72.8	269.8	0
16170	2011-12-02T17:00:00	ND	11.51	ND	1371.96	ND	ND	1.6	341.9	24.9	68.3	135.5	0
16171	2011-12-02T18:00:00	ND	14.49	ND	1397.17	ND	ND	2.2	285.6	24.4	63.5	12.3	0
16172	2011-12-02T19:00:00	ND	32.95	ND	1234.76	ND	ND	2.3	264	23.9	65	ND	0
16173	2011-12-02T20:00:00	ND	19.45	ND	993.00	ND	ND	2.3	174.2	22.5	80	ND	0
16174	2011-12-02T21:00:00	ND	13.80	ND	1158.72	ND	ND	2.4	173.1	21.8	83.5	ND	0
16175	2011-12-02T22:00:00	ND	13.06	ND	1405.30	ND	ND	1.7	158.7	21.4	84.1	ND	0
16176	2011-12-02T23:00:00	ND	11.21	ND	1131.77	ND	ND	0.9	125.7	20.7	87.5	ND	0.76
16177	2011-12-03T00:00:00	ND	10.25	ND	1208.11	ND	ND	0.9	80	20	92.3	ND	10.41
16178	2011-12-03T01:00:00	ND	9.20	ND	1137.65	ND	ND	1.1	62.1	19.5	94.8	ND	0.76
16179	2011-12-03T02:00:00	ND	9.34	ND	967.04	ND	ND	0.7	5.7	19.5	94.5	ND	0.76
16180	2011-12-03T03:00:00	ND	8.67	ND	719.66	ND	ND	0.7	353.2	19.6	94.2	ND	0.51
16181	2011-12-03T04:00:00	ND	8.34	ND	584.92	ND	ND	0.5	88.7	19.7	93.7	ND	0
16182	2011-12-03T05:00:00	ND	8.67	ND	663.89	ND	ND	0.7	88.7	19.5	94.4	ND	0
16183	2011-12-03T06:00:00	ND	10.29	ND	697.17	ND	ND	0.5	132.9	19.5	94.2	ND	0
16184	2011-12-03T07:00:00	ND	10.36	ND	607.21	ND	ND	0.7	174.2	19.6	93.9	17.1	0
16185	2011-12-03T08:00:00	ND	11.73	ND	843.64	ND	ND	0.4	194.3	20.4	90.5	109.4	0
16186	2011-12-03T09:00:00	ND	12.59	ND	1082.81	ND	ND	0.7	9.6	21.8	83.6	365.5	0
16187	2011-12-03T10:00:00	ND	13.48	ND	1212.64	ND	ND	1.1	5.3	24.2	72.7	402	0
16188	2011-12-03T11:00:00	ND	17.17	ND	1645.25	ND	ND	0.8	49.7	24.7	67.5	444.7	0
16189	2011-12-03T12:00:00	ND	23.77	ND	1396.23	ND	ND	1.5	84.5	26	61.7	586.7	0
16190	2011-12-03T13:00:00	ND	41.07	ND	1160.95	ND	ND	1.3	70.2	26.9	58.8	493.1	0
16191	2011-12-03T14:00:00	ND	26.08	ND	1279.73	ND	ND	1.4	354.1	27.6	57	564.1	0
16192	2011-12-03T15:00:00	ND	26.48	ND	1109.38	ND	ND	2.8	4.9	27.1	61.2	362.7	0
16193	2011-12-03T16:00:00	ND	35.15	ND	796.04	ND	ND	0.8	68.1	26.8	60.4	139.5	0
16194	2011-12-03T17:00:00	ND	60.95	ND	1060.32	ND	ND	2.8	270.4	26	58.7	83.5	0
16195	2011-12-03T18:00:00	ND	71.01	ND	1505.78	ND	ND	2.3	248.4	24.9	62.9	5.5	0
16196	2011-12-03T19:00:00	ND	36.75	ND	916.18	ND	ND	2.3	188.5	22.6	77.3	ND	0
16197	2011-12-03T20:00:00	ND	24.56	ND	920.47	ND	ND	1.3	164	22.1	80.7	ND	0
16198	2011-12-03T21:00:00	ND	18.27	ND	1055.05	ND	ND	1.4	139.1	21.4	84	ND	0
16199	2011-12-03T22:00:00	ND	14.86	ND	1392.07	ND	ND	0.8	146.6	20.9	84.9	ND	0
16200	2011-12-03T23:00:00	ND	13.52	ND	1344.52	ND	ND	0.7	151.9	21.1	83.2	ND	0
16201	2011-12-04T00:00:00	ND	12.18	ND	915.80	ND	ND	0.6	182	21.1	82.8	ND	0
16202	2011-12-04T01:00:00	ND	11.74	ND	1164.53	ND	ND	0.3	ND	21.1	84.5	ND	0
16203	2011-12-04T02:00:00	ND	11.20	ND	1040.17	ND	ND	0.8	135	20.6	87.3	ND	0
16204	2011-12-04T03:00:00	ND	11.72	ND	1331.86	ND	ND	0.8	160.2	20.1	89.2	ND	0
16205	2011-12-04T04:00:00	ND	11.08	ND	1059.16	ND	ND	0.7	148.5	20	90.7	ND	0
16206	2011-12-04T05:00:00	ND	10.10	ND	506.87	ND	ND	0.3	ND	20.1	91.2	ND	0
16207	2011-12-04T06:00:00	ND	10.41	ND	732.40	ND	ND	0	ND	20.3	88.1	ND	0
16208	2011-12-04T07:00:00	ND	10.37	ND	823.10	ND	ND	0.2	ND	20.8	87.9	70.2	0
16209	2011-12-04T08:00:00	ND	10.59	ND	801.92	ND	ND	0.8	31.4	22	83.2	221.6	0
16210	2011-12-04T09:00:00	ND	11.26	ND	1270.16	ND	ND	0.8	93.7	23.2	76.9	263.8	0
16211	2011-12-04T10:00:00	ND	16.12	ND	1184.24	ND	ND	0.7	57.4	24.1	70.6	308.4	0
16212	2011-12-04T11:00:00	ND	28.74	ND	1096.46	ND	ND	0.6	50.5	26.3	60.4	603.5	0
16213	2011-12-04T12:00:00	ND	53.21	ND	851.45	ND	ND	0.9	319	26.6	58.1	350	0
16214	2011-12-04T13:00:00	ND	81.01	ND	691.05	ND	ND	0.7	14.6	28.2	52	617	0
16215	2011-12-04T14:00:00	ND	69.23	ND	509.48	ND	ND	1.1	9.7	28.6	50	478.1	0
16216	2011-12-04T15:00:00	ND	57.25	ND	405.81	ND	ND	3	284.2	29.3	46.2	636.9	0
16217	2011-12-04T16:00:00	ND	34.24	ND	441.61	ND	ND	4.2	287.4	28.5	48.8	519.2	0
16218	2011-12-04T17:00:00	ND	18.24	ND	336.13	ND	ND	4.4	285.4	26.6	54.7	154.9	0
16219	2011-12-04T18:00:00	ND	14.52	ND	230.35	ND	ND	4.3	279.1	24.9	59.5	7.8	0
16220	2011-12-04T19:00:00	ND	13.54	ND	206.14	ND	ND	2.5	254.8	24.2	61.9	ND	0
16221	2011-12-04T20:00:00	ND	13.22	ND	159.95	ND	ND	1.5	217.4	23.6	67.3	ND	0
16222	2011-12-04T21:00:00	ND	12.21	ND	307.86	ND	ND	0.6	80.7	23.3	70.8	ND	0
16223	2011-12-04T22:00:00	ND	11.28	ND	387.28	ND	ND	1.9	175.9	21.9	80.6	ND	0
16224	2011-12-04T23:00:00	ND	11.85	ND	816.26	ND	ND	1.1	192.6	21.2	81.3	ND	0
16225	2011-12-05T00:00:00	ND	11.20	ND	791.70	ND	ND	1.3	191.3	20.8	85.7	ND	0
16226	2011-12-05T01:00:00	ND	10.31	ND	451.78	ND	ND	0.5	187.5	20.5	88.2	ND	0
16227	2011-12-05T02:00:00	ND	9.73	ND	338.49	ND	ND	1.3	193.6	20.7	85.7	ND	0
16228	2011-12-05T03:00:00	ND	9.14	ND	293.56	ND	ND	1.1	189.7	20.6	86.5	ND	0
16229	2011-12-05T04:00:00	ND	9.24	ND	203.16	ND	ND	0.7	151.5	20.4	89	ND	6.6
16230	2011-12-05T05:00:00	ND	9.26	ND	203.03	ND	ND	1	148.3	20	94	ND	0.51
16231	2011-12-05T06:00:00	ND	9.94	ND	214.01	ND	ND	1	185.8	20.1	92.3	ND	0
16232	2011-12-05T07:00:00	ND	9.51	ND	236.62	ND	ND	0.7	165.5	20.4	88.7	20.3	0.25
16233	2011-12-05T08:00:00	ND	9.98	ND	293.26	ND	ND	1.3	146.6	21	86.3	99.2	0
16234	2011-12-05T09:00:00	ND	12.62	ND	1243.25	ND	ND	1.4	121.6	22.4	78.7	327.1	0
16235	2011-12-05T10:00:00	ND	15.45	ND	2396.14	ND	ND	0.3	151	23.3	73.1	444.2	0
16236	2011-12-05T11:00:00	ND	18.94	ND	1458.01	ND	ND	0.7	132.7	25.4	64.1	611.9	0
16237	2011-12-05T12:00:00	ND	19.26	ND	780.06	ND	ND	0.3	59.9	25.8	62.8	460.7	0
16238	2011-12-05T13:00:00	ND	18.21	ND	895.97	ND	ND	0.3	42.3	26.9	57.4	347.5	0
16239	2011-12-05T14:00:00	ND	17.35	ND	1072.21	ND	ND	2.1	19.2	25.6	63.5	92.6	0
16240	2011-12-05T15:00:00	ND	15.52	ND	849.46	ND	ND	1.7	242.6	24.7	68.1	98.9	0
16241	2011-12-05T16:00:00	ND	28.32	ND	1270.34	ND	ND	2.4	276.1	25.3	58.9	128.7	0
16242	2011-12-05T17:00:00	ND	21.69	ND	1536.66	ND	ND	2.2	287.9	25.7	55.3	95.8	0
16243	2011-12-05T18:00:00	ND	16.73	ND	872.71	ND	ND	2.4	290.1	24.4	60.9	18.1	0
16244	2011-12-05T19:00:00	ND	14.04	ND	937.51	ND	ND	2.1	238.9	23.8	66.7	ND	0
16245	2011-12-05T20:00:00	ND	12.76	ND	832.93	ND	ND	2	241.2	23.6	63.9	ND	0
16246	2011-12-05T21:00:00	ND	12.86	ND	1094.62	ND	ND	1.2	269.8	23.6	63.9	ND	0
16247	2011-12-05T22:00:00	ND	11.71	ND	672.73	ND	ND	0.8	125.2	22.8	72.7	ND	0
16248	2011-12-05T23:00:00	ND	11.05	ND	705.03	ND	ND	1.9	186.9	21.7	83.4	ND	0
16249	2011-12-06T00:00:00	ND	12.20	ND	1382.16	ND	ND	1.7	193.1	20.8	87.9	ND	0
16250	2011-12-06T01:00:00	ND	10.20	ND	598.61	ND	ND	2	195.6	20.5	90.3	ND	0
16251	2011-12-06T02:00:00	ND	9.60	ND	383.62	ND	ND	1.8	184.1	20.4	89	ND	0
16252	2011-12-06T03:00:00	ND	8.85	ND	372.21	ND	ND	1.2	189.6	20.3	87.1	ND	0
16253	2011-12-06T04:00:00	ND	8.05	ND	383.36	ND	ND	1	192.9	20.5	85.5	ND	0
16254	2011-12-06T05:00:00	ND	9.39	ND	361.06	ND	ND	0.8	162.5	20.5	85.8	ND	0
16255	2011-12-06T06:00:00	ND	9.50	ND	293.36	ND	ND	1.3	144.4	20	91.2	ND	0
16256	2011-12-06T07:00:00	ND	9.20	ND	382.97	ND	ND	1.1	174.4	19.8	92.2	0	1.52
16257	2011-12-06T08:00:00	ND	9.35	ND	652.86	ND	ND	1.1	54.1	19.1	93.9	12.1	15.49
16258	2011-12-06T09:00:00	ND	9.50	ND	1066.78	ND	ND	1	5.5	19.1	96	82.2	8.13
16259	2011-12-06T10:00:00	ND	10.50	ND	1706.85	ND	ND	1	32.7	20.5	92.1	241.5	0
16260	2011-12-06T11:00:00	ND	10.76	ND	1782.73	ND	ND	1.9	15.3	22.5	80.5	537.5	0
16261	2011-12-06T12:00:00	ND	14.39	ND	1863.03	ND	ND	1.5	59.3	25	65.7	654.5	0
16262	2011-12-06T13:00:00	ND	27.25	ND	1260.17	ND	ND	1	81.7	25.8	59.8	477.6	0
16263	2011-12-06T14:00:00	ND	30.48	ND	987.87	ND	ND	1.6	18.9	26	61.2	337.4	0
16264	2011-12-06T15:00:00	ND	18.75	ND	873.58	ND	ND	0.8	354.4	26.6	57.6	339.6	0
16265	2011-12-06T16:00:00	ND	24.63	ND	990.51	ND	ND	2.6	277.5	25.9	55.7	146.1	0
16266	2011-12-06T17:00:00	ND	37.03	ND	769.88	ND	ND	2.7	270.8	25.3	56.4	79.5	0
16267	2011-12-06T18:00:00	ND	19.57	ND	814.20	ND	ND	2.6	279.1	24.3	61	13.4	0
16268	2011-12-06T19:00:00	ND	17.20	ND	1085.77	ND	ND	1	308.8	24.1	61.8	ND	0
16269	2011-12-06T20:00:00	ND	14.89	ND	993.67	ND	ND	2.3	298.5	23.9	61.5	ND	0
16270	2011-12-06T21:00:00	ND	14.36	ND	1426.72	ND	ND	0.9	243.2	23.6	64.5	ND	0
16271	2011-12-06T22:00:00	ND	12.26	ND	638.53	ND	ND	1.3	223	22.2	77.9	ND	0
16272	2011-12-06T23:00:00	ND	11.32	ND	760.34	ND	ND	0.6	88.9	21.5	82.6	ND	0
16273	2011-12-07T00:00:00	ND	10.46	ND	724.58	ND	ND	1.1	53.7	21	82.8	ND	0
16274	2011-12-07T01:00:00	ND	11.43	ND	1051.11	ND	ND	0.6	130.9	20.8	84.8	ND	0
16275	2011-12-07T02:00:00	ND	14.36	ND	768.03	ND	ND	1.2	172.3	20.6	85.8	ND	0
16276	2011-12-07T03:00:00	ND	15.23	ND	406.33	ND	ND	0.5	198.1	20.4	87.4	ND	0
16277	2011-12-07T04:00:00	ND	13.11	ND	270.70	ND	ND	0.6	132.8	20.5	86.1	ND	0
16278	2011-12-07T05:00:00	ND	11.12	ND	236.94	ND	ND	0.7	144.2	20.3	86.9	ND	0
16279	2011-12-07T06:00:00	ND	10.81	ND	270.61	ND	ND	0.9	151.9	20.2	88.6	ND	0
16280	2011-12-07T07:00:00	ND	10.60	ND	315.60	ND	ND	0.5	190.6	20.3	89.3	13.6	0
16281	2011-12-07T08:00:00	ND	10.42	ND	529.94	ND	ND	0.9	172.2	21.1	83.3	84.3	0
16282	2011-12-07T09:00:00	ND	10.76	ND	915.80	ND	ND	1.4	152.1	22.7	76	301.9	0
16283	2011-12-07T10:00:00	ND	12.82	ND	1500.53	ND	ND	1.5	147.7	24	69	444.9	0
16284	2011-12-07T11:00:00	ND	19.87	ND	1815.40	ND	ND	1.1	165.8	25.5	61.1	619.4	0
16285	2011-12-07T12:00:00	ND	25.43	ND	1090.15	ND	ND	1.4	122	27.1	55.9	613.5	0
16286	2011-12-07T13:00:00	ND	26.57	ND	761.43	ND	ND	0.3	21.3	26.4	58.6	134.6	0
16287	2011-12-07T14:00:00	ND	19.56	ND	1035.89	ND	ND	2.2	329.8	21.9	83	63.9	44.2
16288	2011-12-07T15:00:00	ND	18.00	ND	974.97	ND	ND	2.3	289.9	22.4	74.8	58.4	1.27
16289	2011-12-07T16:00:00	ND	14.13	ND	1044.76	ND	ND	1.7	304.3	22.7	69.7	51.7	1.78
16290	2011-12-07T17:00:00	ND	13.10	ND	1045.82	ND	ND	1.1	210.3	22.8	74.3	48.7	0.25
16291	2011-12-07T18:00:00	ND	13.06	ND	1228.12	ND	ND	1.6	180.6	21.4	85.1	2.1	0
16292	2011-12-07T19:00:00	ND	15.43	ND	2059.82	ND	ND	1.6	169.8	21	87.8	ND	0
16293	2011-12-07T20:00:00	ND	14.37	ND	2000.51	ND	ND	1.2	180.2	20.5	90.1	ND	1.27
16294	2011-12-07T21:00:00	ND	19.82	ND	3418.77	ND	ND	0.5	176.5	20.3	91.7	ND	0.51
16295	2011-12-07T22:00:00	ND	11.35	ND	2007.02	ND	ND	0.5	170.3	20.6	90.5	ND	0.25
16296	2011-12-07T23:00:00	ND	11.82	ND	2268.67	ND	ND	1	169	20.4	91.7	ND	0.25
16297	2011-12-08T00:00:00	ND	11.61	ND	2075.38	ND	ND	1	177.6	20.3	91	ND	0.25
16298	2011-12-08T01:00:00	ND	11.45	ND	1725.13	ND	ND	0.5	170.3	20.2	90.9	ND	0
16299	2011-12-08T02:00:00	ND	10.05	ND	1048.25	ND	ND	0.6	147.6	20.3	91.2	ND	0
16300	2011-12-08T03:00:00	ND	10.63	ND	1037.34	ND	ND	0.9	174.8	19.8	93.2	ND	5.59
16301	2011-12-08T04:00:00	ND	10.45	ND	1193.15	ND	ND	0.7	198.9	19.3	94.6	ND	1.78
16302	2011-12-08T05:00:00	ND	9.79	ND	752.88	ND	ND	0.6	209.9	19.3	94.9	ND	2.54
16303	2011-12-08T06:00:00	ND	9.23	ND	539.37	ND	ND	0.7	178	19.2	95.1	ND	0.25
16304	2011-12-08T07:00:00	ND	8.94	ND	393.16	ND	ND	0.4	159.7	19.1	94.9	6.4	0.25
16305	2011-12-08T08:00:00	ND	8.68	ND	527.78	ND	ND	0.4	225.9	19.7	92.5	32.1	0
16306	2011-12-08T09:00:00	ND	9.55	ND	1046.47	ND	ND	0.5	297	20.8	82.7	177.1	0.25
16307	2011-12-08T10:00:00	ND	9.58	ND	982.63	ND	ND	0.1	157.2	22.5	73.4	343.9	0
16308	2011-12-08T11:00:00	ND	11.54	ND	590.72	ND	ND	0.4	92.8	24.1	67.2	453.9	0
16309	2011-12-08T12:00:00	ND	13.27	ND	479.70	ND	ND	1	59.7	25	65.1	502.8	0
16310	2011-12-08T13:00:00	ND	12.71	ND	779.01	ND	ND	1.7	32.1	25.4	64.5	442.8	0
16311	2011-12-08T14:00:00	ND	11.89	ND	711.23	ND	ND	1	36.8	26.9	59.3	611.6	0
16312	2011-12-08T15:00:00	ND	12.71	ND	703.28	ND	ND	1.1	10.6	26.6	59.7	188.2	0
16313	2011-12-08T16:00:00	ND	16.02	ND	587.40	ND	ND	1.8	291.5	25.7	60.7	125.2	0
16314	2011-12-08T17:00:00	ND	23.90	ND	620.08	ND	ND	0.2	279.6	23.2	77.7	49.3	15.24
16315	2011-12-08T18:00:00	ND	32.50	ND	466.86	ND	ND	1.8	240.6	22.6	77.8	17	0.51
16316	2011-12-08T19:00:00	ND	17.00	ND	738.65	ND	ND	1.2	148.2	22	85.6	ND	0
16317	2011-12-08T20:00:00	ND	13.75	ND	725.81	ND	ND	0.1	ND	21.8	85.9	ND	0.25
16318	2011-12-08T21:00:00	ND	11.95	ND	1405.30	ND	ND	0.6	ND	21.9	83.7	ND	0
16319	2011-12-08T22:00:00	ND	11.46	ND	1428.45	ND	ND	0.8	192.8	21.2	86.9	ND	0
16320	2011-12-08T23:00:00	ND	11.90	ND	1560.78	ND	ND	0.3	247.7	21.1	85.7	ND	0
16321	2011-12-09T00:00:00	ND	10.91	ND	1469.80	ND	ND	0.7	250.2	21.2	79.8	ND	0
16322	2011-12-09T01:00:00	ND	12.26	ND	2001.87	ND	ND	0.3	ND	21.1	80.8	ND	0
16323	2011-12-09T02:00:00	ND	10.16	ND	565.31	ND	ND	0.4	305.3	20.8	87.3	ND	0
16324	2011-12-09T03:00:00	ND	10.80	ND	869.69	ND	ND	0.3	241.4	20.3	83.7	ND	0
16325	2011-12-09T04:00:00	ND	11.66	ND	1420.70	ND	ND	0.3	ND	20.5	88.3	ND	0
16326	2011-12-09T05:00:00	ND	9.91	ND	327.21	ND	ND	0.5	221	20.1	87.7	ND	0
16327	2011-12-09T06:00:00	ND	10.18	ND	867.61	ND	ND	0.2	ND	20.2	90.4	ND	0
16328	2011-12-09T07:00:00	ND	10.57	ND	574.85	ND	ND	0.6	1	20.6	89.6	63.1	0
16329	2011-12-09T08:00:00	ND	10.48	ND	1072.26	ND	ND	0.5	61.7	21.6	85.5	154.6	0
16330	2011-12-09T09:00:00	ND	12.12	ND	1676.15	ND	ND	1	88.2	23	78	360.2	0
16331	2011-12-09T10:00:00	ND	23.42	ND	2264.46	ND	ND	1.1	126.6	24.7	69.2	534.5	0
16332	2011-12-09T11:00:00	ND	29.68	ND	1762.46	ND	ND	1	138.2	26.4	63.1	657.8	0
16333	2011-12-09T12:00:00	ND	24.43	ND	1243.07	ND	ND	1.1	116	27.4	57.8	563.3	0
16334	2011-12-09T13:00:00	ND	20.63	ND	1131.74	ND	ND	1.3	56	27.5	55.9	376.1	0
16335	2011-12-09T14:00:00	ND	18.50	ND	1143.67	ND	ND	1.5	20.8	28.6	52.7	636.5	0
16336	2011-12-09T15:00:00	ND	20.31	ND	1078.29	ND	ND	1.2	25.3	28.8	51.9	257.9	0
16337	2011-12-09T16:00:00	ND	24.25	ND	754.14	ND	ND	2.1	285	28	53.1	212.1	0
16338	2011-12-09T17:00:00	ND	40.81	ND	844.71	ND	ND	3.1	271.9	27.7	52.5	246.4	0
16339	2011-12-09T18:00:00	ND	30.62	ND	890.11	ND	ND	3.5	267.8	26.3	56.2	15.9	0
16340	2011-12-09T19:00:00	ND	17.05	ND	862.95	ND	ND	4	265.9	25.2	60.9	ND	0
16341	2011-12-09T20:00:00	ND	15.47	ND	859.78	ND	ND	3.2	267.5	24.5	63.6	ND	0
16342	2011-12-09T21:00:00	ND	14.60	ND	743.40	ND	ND	2.1	282.8	24.2	64.6	ND	0
16343	2011-12-09T22:00:00	ND	13.20	ND	685.52	ND	ND	0.6	46.7	23	75.3	ND	0
16344	2011-12-09T23:00:00	ND	11.61	ND	659.99	ND	ND	0.8	238.4	22.9	72.5	ND	0
16345	2011-12-10T00:00:00	ND	14.80	ND	2002.06	ND	ND	1.2	224.8	23	70.4	ND	0
16346	2011-12-10T01:00:00	ND	14.11	ND	1445.16	ND	ND	0.9	208	22.7	73.7	ND	0
16347	2011-12-10T02:00:00	ND	12.45	ND	670.69	ND	ND	1	195.4	21.8	83.3	ND	0
16348	2011-12-10T03:00:00	ND	11.30	ND	725.32	ND	ND	0.3	138.1	21.8	82.1	ND	0
16349	2011-12-10T04:00:00	ND	10.63	ND	895.31	ND	ND	0.2	ND	21.4	84.9	ND	0
16350	2011-12-10T05:00:00	ND	11.23	ND	894.10	ND	ND	0.8	150.9	21.2	87.3	ND	0
16351	2011-12-10T06:00:00	ND	11.12	ND	667.29	ND	ND	0.2	ND	21	89	ND	1.27
16352	2011-12-10T07:00:00	ND	11.43	ND	757.25	ND	ND	0.3	215.8	21.2	85.8	19.5	0.25
16353	2011-12-10T08:00:00	ND	10.55	ND	622.05	ND	ND	0.1	ND	21.4	83.9	16.9	0
16354	2011-12-10T09:00:00	ND	11.83	ND	1267.58	ND	ND	0.7	202.8	22	81.1	130.4	0
16355	2011-12-10T10:00:00	ND	13.18	ND	1973.29	ND	ND	0.8	187.5	24.3	71.7	506.3	0
16356	2011-12-10T11:00:00	ND	14.64	ND	2022.96	ND	ND	1.6	155.5	26.2	62.4	675.7	0
16357	2011-12-10T12:00:00	ND	17.65	ND	1449.28	ND	ND	1.2	142.4	27.6	56.2	705.7	0
16358	2011-12-10T13:00:00	ND	18.08	ND	878.26	ND	ND	1.1	22	28.6	52.9	536.9	0
16359	2011-12-10T14:00:00	ND	17.98	ND	823.21	ND	ND	1.2	0.5	28.8	50.8	442.8	0
16360	2011-12-10T15:00:00	ND	20.80	ND	974.58	ND	ND	2.2	285.6	30.2	44.5	666.3	0
16361	2011-12-10T16:00:00	ND	24.31	ND	792.61	ND	ND	4.3	286.5	28.6	49.1	372.2	0
16362	2011-12-10T17:00:00	ND	14.51	ND	498.56	ND	ND	3.6	280.1	27.6	51.8	234.2	0
16363	2011-12-10T18:00:00	ND	12.00	ND	508.47	ND	ND	2.6	287.3	26.3	54.9	32.2	0
16364	2011-12-10T19:00:00	ND	11.74	ND	575.30	ND	ND	2.9	252.9	24.8	62.1	ND	0
16365	2011-12-10T20:00:00	ND	12.10	ND	526.63	ND	ND	1.9	163.5	23.3	73.6	ND	0
16366	2011-12-10T21:00:00	ND	11.46	ND	592.32	ND	ND	1.7	166.7	22.8	75.4	ND	0
16367	2011-12-10T22:00:00	ND	11.99	ND	1353.21	ND	ND	1	158	22.8	75.1	ND	0
16368	2011-12-10T23:00:00	ND	11.31	ND	1353.21	ND	ND	0.6	169.5	23	73.2	ND	0
16369	2011-12-11T00:00:00	ND	12.54	ND	2048.25	ND	ND	0.3	ND	22.4	78.5	ND	0
16370	2011-12-11T01:00:00	ND	12.44	ND	1964.61	ND	ND	1.1	30.4	22	80.4	ND	0
16371	2011-12-11T02:00:00	ND	13.18	ND	1553.68	ND	ND	0.8	75.2	21.2	83.8	ND	0
16372	2011-12-11T03:00:00	ND	18.83	ND	961.35	ND	ND	0.1	ND	21.5	82.9	ND	0
16373	2011-12-11T04:00:00	ND	18.07	ND	713.26	ND	ND	0.6	150.1	20.9	84	ND	0
16374	2011-12-11T05:00:00	ND	18.66	ND	666.61	ND	ND	0.8	125.3	20.8	83.9	ND	0
16375	2011-12-11T06:00:00	ND	18.19	ND	677.68	ND	ND	0.4	156.4	20.8	84.2	ND	0
16376	2011-12-11T07:00:00	ND	15.71	ND	745.44	ND	ND	0.1	ND	21.1	85.4	21	0.25
16377	2011-12-11T08:00:00	ND	14.15	ND	576.61	ND	ND	0.3	158.8	21.5	85.3	48.7	0
16378	2011-12-11T09:00:00	ND	14.16	ND	939.69	ND	ND	0.3	73.7	22.7	78.5	247.4	0
16379	2011-12-11T10:00:00	ND	15.57	ND	1341.38	ND	ND	1.2	121.7	24.9	67.5	602.6	0
16380	2011-12-11T11:00:00	ND	22.26	ND	1168.13	ND	ND	1.3	145.1	26.3	61.6	702.5	0
16381	2011-12-11T12:00:00	ND	32.79	ND	805.42	ND	ND	0.4	11.5	27.2	57.4	470.7	0
16382	2011-12-11T13:00:00	ND	22.62	ND	657.82	ND	ND	1	84.2	28.2	52.9	592.6	0
16383	2011-12-11T14:00:00	ND	23.44	ND	683.17	ND	ND	0.9	22.9	28.7	51.3	515.8	0
16384	2011-12-11T15:00:00	ND	20.35	ND	672.70	ND	ND	2	341.7	28.9	50.2	245.4	0
16385	2011-12-11T16:00:00	ND	24.42	ND	545.48	ND	ND	3.3	280.1	28.4	50.2	433	0
16386	2011-12-11T17:00:00	ND	33.29	ND	451.88	ND	ND	3.6	274.6	27.8	51.2	291.9	0
16387	2011-12-11T18:00:00	ND	16.03	ND	300.66	ND	ND	2.5	279	26.3	55.5	25.7	0
16388	2011-12-11T19:00:00	ND	12.97	ND	299.16	ND	ND	2.3	286.8	25.4	58.2	ND	0
16389	2011-12-11T20:00:00	ND	12.36	ND	355.61	ND	ND	3.8	274.4	24.8	60.8	ND	0
16390	2011-12-11T21:00:00	ND	12.10	ND	412.14	ND	ND	2.8	257.8	23.8	67.2	ND	0
16391	2011-12-11T22:00:00	ND	11.46	ND	342.30	ND	ND	2.1	259.7	23.9	65	ND	0
16392	2011-12-11T23:00:00	ND	10.91	ND	388.07	ND	ND	2.2	266.3	23.8	65.1	ND	0
16393	2011-12-12T00:00:00	ND	10.33	ND	342.30	ND	ND	0.7	318.2	22.4	77.5	ND	2.79
16394	2011-12-12T01:00:00	ND	9.95	ND	261.19	ND	ND	0.8	14.6	21.9	84.6	ND	0.25
16395	2011-12-12T02:00:00	ND	9.36	ND	419.47	ND	ND	0.7	53.6	21.4	87.6	ND	0
16396	2011-12-12T03:00:00	ND	10.20	ND	803.56	ND	ND	0.4	102.6	21.5	86.1	ND	0
16397	2011-12-12T04:00:00	ND	9.43	ND	339.65	ND	ND	1.2	139.1	21.1	88.1	ND	0
16398	2011-12-12T05:00:00	ND	9.72	ND	440.94	ND	ND	1.4	168.5	20.6	90.4	ND	0
16399	2011-12-12T06:00:00	ND	9.76	ND	395.04	ND	ND	1.9	167.8	20.4	88.4	ND	0
16400	2011-12-12T07:00:00	ND	9.91	ND	281.98	ND	ND	1.5	169.8	19.7	90.6	3.8	0
16401	2011-12-12T08:00:00	ND	10.19	ND	483.85	ND	ND	0.8	166.6	20	89.8	59.8	0
16402	2011-12-12T09:00:00	ND	10.67	ND	968.69	ND	ND	0.5	122.9	21.1	85.3	156.1	0
16403	2011-12-12T10:00:00	ND	11.25	ND	1605.47	ND	ND	1.2	79.9	22	81	252.3	0
16404	2011-12-12T11:00:00	ND	13.62	ND	1803.18	ND	ND	1.1	85.3	22.9	77.8	408.9	0
16405	2011-12-12T12:00:00	ND	15.19	ND	1524.30	ND	ND	1.2	79.7	24.2	71	544.4	0
16406	2011-12-12T13:00:00	ND	17.09	ND	1268.21	ND	ND	1	121.3	26.6	57.9	793.6	0
16407	2011-12-12T14:00:00	ND	19.28	ND	1209.35	ND	ND	0.7	112.6	27.3	55.2	371.2	0
16408	2011-12-12T15:00:00	ND	15.05	ND	946.65	ND	ND	0.4	329.4	27.2	54.4	351.8	0
16409	2011-12-12T16:00:00	ND	15.31	ND	1084.82	ND	ND	1.9	298.3	27.5	50.9	255.5	0
16410	2011-12-12T17:00:00	ND	16.38	ND	1247.64	ND	ND	2.6	294	26	53.9	67.2	0
16411	2011-12-12T18:00:00	ND	15.25	ND	908.07	ND	ND	2.5	282.7	25.3	57	9.9	0
16412	2011-12-12T19:00:00	ND	12.46	ND	837.14	ND	ND	2.9	236	24	65.9	ND	0
16413	2011-12-12T20:00:00	ND	12.01	ND	1039.00	ND	ND	2.2	181.7	23.1	74.2	ND	0
16414	2011-12-12T21:00:00	ND	13.46	ND	1058.62	ND	ND	2.2	180.7	22.8	74.3	ND	0
16415	2011-12-12T22:00:00	ND	16.83	ND	1967.27	ND	ND	1.8	177.9	22.5	75.4	ND	0
16416	2011-12-12T23:00:00	ND	11.43	ND	1283.68	ND	ND	1.1	146.5	21.4	85.1	ND	0
16417	2011-12-13T00:00:00	ND	10.46	ND	984.64	ND	ND	0.4	137.1	21.3	85.9	ND	0
16418	2011-12-13T01:00:00	ND	9.99	ND	1006.93	ND	ND	0.4	121.7	21.4	85.5	ND	0
16419	2011-12-13T02:00:00	ND	8.28	ND	758.28	ND	ND	0.7	132.9	21.1	87.6	ND	0
16420	2011-12-13T03:00:00	ND	8.95	ND	712.29	ND	ND	0.8	116.9	20.8	88.9	ND	0
16421	2011-12-13T04:00:00	ND	9.02	ND	598.61	ND	ND	0.6	99.9	20.8	88.9	ND	0
16422	2011-12-13T05:00:00	ND	8.63	ND	463.08	ND	ND	0.9	125	20.5	90.7	ND	0
16423	2011-12-13T06:00:00	ND	8.80	ND	383.62	ND	ND	0.8	138.2	20.4	90.7	ND	0
16424	2011-12-13T07:00:00	ND	9.16	ND	417.33	ND	ND	0.7	163.7	20.5	90.4	16.1	0.51
16425	2011-12-13T08:00:00	ND	9.91	ND	631.85	ND	ND	1.1	141.6	20.8	88.7	77	0
16426	2011-12-13T09:00:00	ND	10.18	ND	1152.05	ND	ND	1.3	155.4	21.8	84.5	293.2	0
16427	2011-12-13T10:00:00	ND	11.87	ND	2164.61	ND	ND	2	153.8	23.2	75.7	383.1	0
16428	2011-12-13T11:00:00	ND	13.60	ND	1332.26	ND	ND	1.6	158.3	24	71.7	467.8	0
16429	2011-12-13T12:00:00	ND	15.43	ND	1073.26	ND	ND	1.5	150	25.3	63.9	379.6	0
16430	2011-12-13T13:00:00	ND	14.56	ND	986.21	ND	ND	1.4	155.2	25.9	61.3	398.2	0
16431	2011-12-13T14:00:00	ND	14.61	ND	884.78	ND	ND	0.2	95.7	25.8	61.6	142.8	0
16432	2011-12-13T15:00:00	ND	16.08	ND	804.08	ND	ND	1.9	273.1	24.8	63	73	0
16433	2011-12-13T16:00:00	ND	14.30	ND	1007.46	ND	ND	2	249.1	25.6	60.9	277.5	0
16434	2011-12-13T17:00:00	ND	14.94	ND	1056.08	ND	ND	1.4	75	23.8	78.1	120.4	8.89
16435	2011-12-13T18:00:00	ND	14.93	ND	1140.99	ND	ND	0.9	221	22.5	84.9	8	0.25
16436	2011-12-13T19:00:00	ND	13.93	ND	1397.28	ND	ND	0.2	ND	22.9	83.4	ND	0
16437	2011-12-13T20:00:00	ND	14.67	ND	1911.06	ND	ND	0.8	301.2	23.4	73.6	ND	0
16438	2011-12-13T21:00:00	ND	18.35	ND	2962.59	ND	ND	1.2	189.3	22.7	80.4	ND	0
16439	2011-12-13T22:00:00	ND	14.64	ND	2444.05	ND	ND	0.7	200.5	22.5	83.2	ND	0
16440	2011-12-13T23:00:00	ND	13.10	ND	1692.63	ND	ND	0.3	283.4	22.8	80	ND	0
16441	2011-12-14T00:00:00	ND	11.29	ND	1682.98	ND	ND	0.6	41.9	22.3	85.5	ND	0
16442	2011-12-14T01:00:00	ND	11.71	ND	1691.49	ND	ND	0.4	310	21.7	88.8	ND	1.02
16443	2011-12-14T02:00:00	ND	11.43	ND	1586.09	ND	ND	2.1	253.7	20.8	87.2	ND	1.52
16444	2011-12-14T03:00:00	ND	10.20	ND	903.57	ND	ND	0.4	295.2	21.2	85.5	ND	0
16445	2011-12-14T04:00:00	ND	9.75	ND	260.13	ND	ND	0.4	114.2	21.2	89.4	ND	0
16446	2011-12-14T05:00:00	ND	9.44	ND	407.16	ND	ND	0.6	170.7	20.9	90.1	ND	0
16447	2011-12-14T06:00:00	ND	9.25	ND	531.03	ND	ND	0.2	ND	20.8	90.4	ND	0
16448	2011-12-14T07:00:00	ND	9.40	ND	655.09	ND	ND	0.5	25.3	20.3	93.2	ND	7.87
16449	2011-12-14T08:00:00	ND	9.41	ND	710.35	ND	ND	1	197.7	19.7	94.5	3.6	8.64
16450	2011-12-14T09:00:00	ND	9.91	ND	1170.24	ND	ND	0.5	212.9	19.4	96.8	50	38.1
16451	2011-12-14T10:00:00	ND	9.38	ND	1427.58	ND	ND	0.7	195	20.6	95.3	402.4	0.51
16452	2011-12-14T11:00:00	ND	10.51	ND	2516.98	ND	ND	1.2	183.6	23.7	75.3	738.7	0
16453	2011-12-14T12:00:00	ND	10.07	ND	1665.29	ND	ND	1.5	127.7	24.8	69.2	501.9	0
16454	2011-12-14T13:00:00	ND	10.08	ND	938.77	ND	ND	0.8	103.5	24.9	66.4	236.5	0
16455	2011-12-14T14:00:00	ND	9.69	ND	893.27	ND	ND	1.8	61.1	24.2	72.3	128.3	0.76
16456	2011-12-14T15:00:00	ND	8.94	ND	1062.55	ND	ND	1.2	17.7	21.1	91.3	44	13.97
16457	2011-12-14T16:00:00	ND	9.62	ND	1232.37	ND	ND	1.1	329	20.9	89.2	54.1	2.29
16458	2011-12-14T17:00:00	ND	9.97	ND	1683.47	ND	ND	1.1	353.9	22.1	83.6	76.4	0.25
16459	2011-12-14T18:00:00	ND	11.42	ND	2110.09	ND	ND	1.3	9.2	22.3	84.2	36.1	0
16460	2011-12-14T19:00:00	ND	11.71	ND	2440.74	ND	ND	0.7	253.1	22.5	81.5	ND	0
16461	2011-12-14T20:00:00	ND	15.17	ND	2624.15	ND	ND	0.7	220.3	22.3	84.2	ND	0
16462	2011-12-14T21:00:00	ND	25.08	ND	2860.77	ND	ND	0.6	268.2	22.3	82.3	ND	0
16463	2011-12-14T22:00:00	ND	23.45	ND	3008.35	ND	ND	0.3	ND	22.1	81.6	ND	0
16464	2011-12-14T23:00:00	ND	17.44	ND	2325.64	ND	ND	0.6	254	21.8	82	ND	0
16465	2011-12-15T00:00:00	ND	14.88	ND	1903.95	ND	ND	0.6	240.8	21.6	80.2	ND	0
16466	2011-12-15T01:00:00	ND	11.94	ND	1166.51	ND	ND	0.1	ND	21.5	81.5	ND	0
16467	2011-12-15T02:00:00	ND	10.69	ND	826.47	ND	ND	0.2	ND	21.4	82.4	ND	0
16468	2011-12-15T03:00:00	ND	8.34	ND	780.92	ND	ND	0.2	ND	21.1	86.4	ND	0
16469	2011-12-15T04:00:00	ND	10.27	ND	700.98	ND	ND	0.5	241.3	20.9	86.4	ND	0
16470	2011-12-15T05:00:00	ND	9.97	ND	734.40	ND	ND	0.2	ND	20.8	88.6	ND	0
16471	2011-12-15T06:00:00	ND	10.28	ND	609.91	ND	ND	0.8	76.7	20.5	92.5	ND	0
16472	2011-12-15T07:00:00	ND	10.32	ND	778.53	ND	ND	1.3	158.3	20	94.1	0.5	3.81
16473	2011-12-15T08:00:00	ND	10.87	ND	901.11	ND	ND	1.5	175.6	19.1	97.1	24.3	42.93
16474	2011-12-15T09:00:00	ND	11.40	ND	1549.64	ND	ND	0.6	179.3	19	97.7	43.5	21.34
16475	2011-12-15T10:00:00	ND	10.83	ND	2099.15	ND	ND	0.4	ND	18.9	97.5	51	16.26
16476	2011-12-15T11:00:00	ND	12.01	ND	2064.77	ND	ND	0	ND	19.6	96.8	145.6	5.08
16477	2011-12-15T12:00:00	ND	10.45	ND	1282.33	ND	ND	0.8	34.2	21	90.8	237.7	1.02
16478	2011-12-15T13:00:00	ND	11.09	ND	1853.58	ND	ND	0.9	86	22.8	79.1	582.8	0
16479	2011-12-15T14:00:00	ND	11.99	ND	2228.81	ND	ND	1.5	116.6	24.8	67.8	760.8	0
16480	2011-12-15T15:00:00	ND	12.07	ND	1602.77	ND	ND	0.9	81.7	24.4	70.2	275.5	0
16481	2011-12-15T16:00:00	ND	11.56	ND	1463.42	ND	ND	1.6	345.3	24.7	69	304.5	0
16482	2011-12-15T17:00:00	ND	11.47	ND	1327.57	ND	ND	1.6	355	24.4	68.8	158.8	0
16483	2011-12-15T18:00:00	ND	11.72	ND	1051.84	ND	ND	0.9	12.1	24	70.2	22.5	0
16484	2011-12-15T19:00:00	ND	16.32	ND	1244.52	ND	ND	0.3	67.4	23.4	72.9	ND	0
16485	2011-12-15T20:00:00	ND	58.59	ND	1902.89	ND	ND	2.1	265.7	23	69.1	ND	0
16486	2011-12-15T21:00:00	ND	48.25	ND	2765.14	ND	ND	1.5	269.2	22.8	70.1	ND	0
16487	2011-12-15T22:00:00	ND	26.27	ND	1228.12	ND	ND	1.3	250	22.4	71.8	ND	0
16488	2011-12-15T23:00:00	ND	20.86	ND	1328.67	ND	ND	0.6	240.1	22.2	74.8	ND	0
16489	2011-12-16T00:00:00	ND	22.22	ND	1089.45	ND	ND	0.2	ND	22	80.2	ND	0
16490	2011-12-16T01:00:00	ND	23.47	ND	1077.37	ND	ND	1.3	248.5	20.5	91.1	ND	21.84
16491	2011-12-16T02:00:00	ND	19.95	ND	1308.84	ND	ND	0.9	284.2	19.6	94.4	ND	8.38
16492	2011-12-16T03:00:00	ND	13.61	ND	854.88	ND	ND	0.4	ND	19.9	93.4	ND	2.54
16493	2011-12-16T04:00:00	ND	12.44	ND	653.08	ND	ND	0.2	ND	19.8	93.4	ND	1.27
16494	2011-12-16T05:00:00	ND	11.74	ND	619.09	ND	ND	0.1	ND	19.6	94.4	ND	7.11
16495	2011-12-16T06:00:00	ND	11.17	ND	708.65	ND	ND	0.6	271.3	19.4	96.2	ND	27.69
16496	2011-12-16T07:00:00	ND	10.77	ND	753.13	ND	ND	0.8	343.5	18.9	97.9	0.1	27.94
16497	2011-12-16T08:00:00	ND	10.24	ND	662.07	ND	ND	0.4	192.3	18.9	98.6	19.3	9.91
16498	2011-12-16T09:00:00	ND	12.32	ND	2064.77	ND	ND	0.3	155.6	19.1	98.6	75.2	3.3
16499	2011-12-16T10:00:00	ND	14.23	ND	2739.94	ND	ND	0.7	122.2	19.6	97.8	145.4	0.51
16500	2011-12-16T11:00:00	ND	13.87	ND	2497.16	ND	ND	0.8	158.9	21	88.4	254.8	0
16501	2011-12-16T12:00:00	ND	13.88	ND	2373.48	ND	ND	0.3	137.3	22.4	78	252.7	0
16502	2011-12-16T13:00:00	ND	14.57	ND	1726.13	ND	ND	0.6	102.6	23.7	71.8	531.4	0
16503	2011-12-16T14:00:00	ND	13.98	ND	1288.89	ND	ND	0.7	58.8	24.2	70	239.8	0
16504	2011-12-16T15:00:00	ND	12.49	ND	1416.74	ND	ND	2	10.6	23.3	79	285	0
16505	2011-12-16T16:00:00	ND	12.30	ND	1309.93	ND	ND	1.6	19	24.2	72.2	263.4	0
16506	2011-12-16T17:00:00	ND	14.66	ND	1530.99	ND	ND	1.5	36.6	23.6	75	89	0
16507	2011-12-16T18:00:00	ND	21.05	ND	1311.26	ND	ND	1.3	278.6	23.6	66.9	17.1	0
16508	2011-12-16T19:00:00	ND	26.52	ND	1847.17	ND	ND	1.8	273.7	22.9	68.5	ND	0
16509	2011-12-16T20:00:00	ND	23.47	ND	1547.05	ND	ND	1.4	264.6	22.5	70.2	ND	0
16510	2011-12-16T21:00:00	ND	16.97	ND	1385.92	ND	ND	0.4	267.7	22.4	73.6	ND	0
16511	2011-12-16T22:00:00	ND	15.58	ND	1317.31	ND	ND	1.2	208.6	22.1	75.3	ND	0
16512	2011-12-16T23:00:00	ND	17.00	ND	2586.57	ND	ND	1.5	155.6	21.4	85.4	ND	0
16513	2011-12-17T00:00:00	ND	13.87	ND	1335.49	ND	ND	0.9	161	21	88.2	ND	0
16514	2011-12-17T01:00:00	ND	12.72	ND	1830.97	ND	ND	1	174.6	20.5	89.6	ND	0
16515	2011-12-17T02:00:00	ND	10.86	ND	1196.01	ND	ND	1.1	202.3	20.2	91.3	ND	0
16516	2011-12-17T03:00:00	ND	10.34	ND	890.45	ND	ND	0.3	ND	20	91.9	ND	0
16517	2011-12-17T04:00:00	ND	9.56	ND	653.30	ND	ND	0.4	111.8	19.9	93.4	ND	0.25
16518	2011-12-17T05:00:00	ND	10.33	ND	844.50	ND	ND	0.1	ND	19.7	94.4	ND	0.25
16519	2011-12-17T06:00:00	ND	10.76	ND	1215.25	ND	ND	0.6	146.8	19.7	94.8	ND	0
16520	2011-12-17T07:00:00	ND	10.35	ND	1012.71	ND	ND	0.2	ND	19.8	93.9	3.3	0
16521	2011-12-17T08:00:00	ND	10.58	ND	1170.64	ND	ND	0.7	125.7	20.1	91.6	27.7	0
16522	2011-12-17T09:00:00	ND	11.00	ND	1701.42	ND	ND	0.6	141.4	20.6	90.1	199	0.51
16523	2011-12-17T10:00:00	ND	12.31	ND	2652.43	ND	ND	0.7	165.2	22.1	82	328.1	0
16524	2011-12-17T11:00:00	ND	13.70	ND	2473.12	ND	ND	1	134.3	24.5	70.8	643.6	0
16525	2011-12-17T12:00:00	ND	15.07	ND	1749.84	ND	ND	0.8	130.2	25.5	64.5	471.1	0
16526	2011-12-17T13:00:00	ND	14.65	ND	1606.54	ND	ND	0.7	245.9	25	66.7	182.8	0
16527	2011-12-17T14:00:00	ND	14.31	ND	1294.54	ND	ND	0.5	99.6	27	59.6	529.6	0
16528	2011-12-17T15:00:00	ND	13.64	ND	1741.48	ND	ND	1.3	57.3	26.3	61.2	173.5	0
16529	2011-12-17T16:00:00	ND	17.18	ND	1691.39	ND	ND	1.4	44.8	26	65.2	130.9	0
16530	2011-12-17T17:00:00	ND	23.37	ND	1701.19	ND	ND	0.9	298.1	25.8	64	57.3	0
16531	2011-12-17T18:00:00	ND	23.78	ND	1435.85	ND	ND	1.7	266.9	24.9	62.3	25.3	0
16532	2011-12-17T19:00:00	ND	28.89	ND	1259.75	ND	ND	2.6	266.7	24	63.9	ND	0
16533	2011-12-17T20:00:00	ND	19.01	ND	1655.56	ND	ND	2.1	270.5	23.6	65.2	ND	0
16534	2011-12-17T21:00:00	ND	15.54	ND	1368.27	ND	ND	2.2	277.7	23.5	65.5	ND	0
16535	2011-12-17T22:00:00	ND	13.92	ND	1299.42	ND	ND	0.5	331.1	23	72.8	ND	0
16536	2011-12-17T23:00:00	ND	12.70	ND	1035.51	ND	ND	1.4	237.1	22.8	71.3	ND	0
16537	2011-12-18T00:00:00	ND	14.67	ND	2262.93	ND	ND	1.2	230.5	22.7	71.9	ND	0
16538	2011-12-18T01:00:00	ND	17.16	ND	1614.21	ND	ND	0.5	6.4	22.5	77.6	ND	0
16539	2011-12-18T02:00:00	ND	14.55	ND	1238.24	ND	ND	0.5	ND	21.9	82.6	ND	0
16540	2011-12-18T03:00:00	ND	15.87	ND	2494.12	ND	ND	0.6	124.8	21.3	84.7	ND	0
16541	2011-12-18T04:00:00	ND	15.29	ND	2500.36	ND	ND	0.3	ND	21.2	84.3	ND	0
16542	2011-12-18T05:00:00	ND	12.39	ND	1074.45	ND	ND	0.5	86.1	20.3	90.9	ND	1.27
16543	2011-12-18T06:00:00	ND	12.89	ND	834.38	ND	ND	0.1	ND	20.2	91	ND	0
16544	2011-12-18T07:00:00	ND	12.94	ND	980.62	ND	ND	0.1	ND	20.6	90	8.3	0
16545	2011-12-18T08:00:00	ND	11.80	ND	835.23	ND	ND	0.5	156.2	21.4	88.9	180.1	0
16546	2011-12-18T09:00:00	ND	11.67	ND	962.00	ND	ND	1.2	154.1	22.3	84.3	204.1	0
16547	2011-12-18T10:00:00	ND	13.79	ND	1702.84	ND	ND	1.2	160.2	23.4	76.4	476.1	0
16548	2011-12-18T11:00:00	ND	17.51	ND	1310.37	ND	ND	1	136.3	25.4	67.3	538.6	0
16549	2011-12-18T12:00:00	ND	17.66	ND	883.30	ND	ND	1	129.8	25.6	66.7	277.5	0
16550	2011-12-18T13:00:00	ND	17.80	ND	906.85	ND	ND	0.2	276.5	25.7	66.1	139	0
16551	2011-12-18T14:00:00	ND	15.81	ND	1182.75	ND	ND	1.4	42.3	24.4	74.7	273.9	1.27
16552	2011-12-18T15:00:00	ND	14.38	ND	1040.40	ND	ND	0.8	91.6	24.5	74.6	290.3	0.25
16553	2011-12-18T16:00:00	ND	15.43	ND	1315.24	ND	ND	1.3	342.4	26.4	60.3	229.5	0
16554	2011-12-18T17:00:00	ND	17.90	ND	1553.84	ND	ND	1.2	346.8	26.3	57.4	166	0
16555	2011-12-18T18:00:00	ND	18.61	ND	931.99	ND	ND	2.5	291.9	25.5	58.1	57.9	0
16556	2011-12-18T19:00:00	ND	18.42	ND	780.32	ND	ND	3.1	275.6	24.2	63.3	0	0
16557	2011-12-18T20:00:00	ND	14.45	ND	571.27	ND	ND	2.1	214.6	23.5	72	ND	0
16558	2011-12-18T21:00:00	ND	13.82	ND	638.31	ND	ND	2.5	213.7	22.2	81.5	ND	0
16559	2011-12-18T22:00:00	ND	12.54	ND	749.00	ND	ND	1.7	199.2	21.6	84.6	ND	0
16560	2011-12-18T23:00:00	ND	11.32	ND	770.12	ND	ND	1.5	198.7	20.8	90.5	ND	0
16561	2011-12-19T00:00:00	ND	11.11	ND	993.93	ND	ND	0.8	191.4	21	89.6	ND	0
16562	2011-12-19T01:00:00	ND	10.31	ND	926.79	ND	ND	0.5	181.3	21.1	89.6	ND	0
16563	2011-12-19T02:00:00	ND	10.65	ND	1040.17	ND	ND	0.8	144.4	20.8	90.9	ND	2.03
16564	2011-12-19T03:00:00	ND	10.75	ND	1050.40	ND	ND	0.9	148.2	20.2	95	ND	2.03
16565	2011-12-19T04:00:00	ND	10.00	ND	732.65	ND	ND	1.3	141	20	96.1	ND	1.02
16566	2011-12-19T05:00:00	ND	9.53	ND	428.03	ND	ND	0.6	175.3	19.7	97	ND	43.43
16567	2011-12-19T06:00:00	ND	9.60	ND	371.33	ND	ND	0.2	ND	19.3	98.5	ND	20.32
16568	2011-12-19T07:00:00	ND	9.41	ND	606.80	ND	ND	0.7	67.6	19.2	98.7	4.3	27.94
16569	2011-12-19T08:00:00	ND	10.17	ND	898.65	ND	ND	0.1	ND	19.2	99	59.5	19.3
16570	2011-12-19T09:00:00	ND	11.25	ND	1662.50	ND	ND	0.7	212.3	19.7	98.9	82.3	0.25
16571	2011-12-19T10:00:00	ND	11.56	ND	2081.68	ND	ND	0.6	220.6	20.1	97.7	190.6	12.45
16572	2011-12-19T11:00:00	ND	11.75	ND	2287.34	ND	ND	0.5	228.9	22.1	84.7	354.7	0.25
16573	2011-12-19T12:00:00	ND	11.49	ND	1644.97	ND	ND	0.5	162.1	25	70.1	735.3	0
16574	2011-12-19T13:00:00	ND	12.34	ND	1317.45	ND	ND	0.8	65.1	25.3	67.9	212.8	0
16575	2011-12-19T14:00:00	ND	11.17	ND	1444.92	ND	ND	1.3	93.7	24.9	70.4	142.2	0
16576	2011-12-19T15:00:00	ND	11.18	ND	2107.21	ND	ND	1.3	86.6	25	69	160.5	0
16577	2011-12-19T16:00:00	ND	14.31	ND	2199.57	ND	ND	2.5	12.2	22.5	81.7	47.6	13.72
16578	2011-12-19T17:00:00	ND	14.55	ND	1908.47	ND	ND	0.5	2.8	21.3	89.2	44.7	2.29
16579	2011-12-19T18:00:00	ND	13.87	ND	1617.88	ND	ND	1.8	187.9	22.2	84.5	10.8	0
16580	2011-12-19T19:00:00	ND	16.79	ND	3756.33	ND	ND	1.2	177	22	86.7	ND	0
16581	2011-12-19T20:00:00	ND	20.60	ND	3776.47	ND	ND	0.7	234.1	22	81.3	ND	0
16582	2011-12-19T21:00:00	ND	22.57	ND	4184.73	ND	ND	0.5	173.2	21.8	81	ND	0.25
16583	2011-12-19T22:00:00	ND	17.42	ND	2799.26	ND	ND	0.2	ND	21.1	88.4	ND	0
16584	2011-12-19T23:00:00	ND	14.92	ND	2261.23	ND	ND	0.5	14.7	21	90.9	ND	0
16585	2011-12-20T00:00:00	ND	12.64	ND	2373.48	ND	ND	0.2	ND	20.7	92.2	ND	0
16586	2011-12-20T01:00:00	ND	11.93	ND	1896.85	ND	ND	0.1	ND	20.6	92.6	ND	0
16587	2011-12-20T02:00:00	ND	11.41	ND	1568.88	ND	ND	0.2	ND	20.3	92.9	ND	0
16588	2011-12-20T03:00:00	ND	11.06	ND	1319.22	ND	ND	0.3	42.6	20.4	91.5	ND	0
16589	2011-12-20T04:00:00	ND	10.32	ND	834.66	ND	ND	0.4	179.6	20.3	94	ND	0
16590	2011-12-20T05:00:00	ND	11.48	ND	1082.44	ND	ND	0.4	224.8	20.1	92.3	ND	0
16591	2011-12-20T06:00:00	ND	10.13	ND	811.27	ND	ND	0	ND	20.2	89.5	ND	0
16592	2011-12-20T07:00:00	ND	11.11	ND	834.09	ND	ND	0.1	ND	20.4	89	9.4	0
16593	2011-12-20T08:00:00	ND	11.40	ND	1037.69	ND	ND	0.7	3	20.8	90.2	40.4	0
16594	2011-12-20T09:00:00	ND	12.32	ND	1536.07	ND	ND	0.1	55	21.4	88.2	162.6	0
16595	2011-12-20T10:00:00	ND	11.91	ND	2206.95	ND	ND	0.7	114.3	24.2	73.9	542.5	0
16596	2011-12-20T11:00:00	ND	13.07	ND	2422.17	ND	ND	0.7	135.8	25.5	66.6	510.5	0
16597	2011-12-20T12:00:00	ND	14.41	ND	2363.91	ND	ND	0.9	5.2	25.3	66.6	356.1	0
16598	2011-12-20T13:00:00	ND	13.22	ND	1788.95	ND	ND	0.5	125.1	27.6	57.5	722.3	0
16599	2011-12-20T14:00:00	ND	12.61	ND	1548.51	ND	ND	1.4	45.7	27.4	56.9	237.9	0
16600	2011-12-20T15:00:00	ND	11.89	ND	1281.87	ND	ND	0.4	107.4	28.7	51.9	508.4	0
16601	2011-12-20T16:00:00	ND	12.55	ND	1414.99	ND	ND	1.2	5	28.4	53.4	300.8	0
16602	2011-12-20T17:00:00	ND	12.54	ND	1112.33	ND	ND	1.9	283.6	28	55	214.3	0
16603	2011-12-20T18:00:00	ND	13.44	ND	1180.28	ND	ND	2.4	271	26.4	57.7	46	0
16604	2011-12-20T19:00:00	ND	13.45	ND	1174.01	ND	ND	2.6	269.9	25.3	61.2	ND	0
16605	2011-12-20T20:00:00	ND	14.16	ND	1479.32	ND	ND	3.1	270.8	24.6	63.9	ND	0
16606	2011-12-20T21:00:00	ND	14.08	ND	1647.46	ND	ND	1.9	282.5	24.5	64.4	ND	0
16607	2011-12-20T22:00:00	ND	12.56	ND	1097.94	ND	ND	0.2	345.7	23.6	72.4	ND	0
16608	2011-12-20T23:00:00	ND	12.67	ND	957.79	ND	ND	0.5	77.7	22.5	79.9	ND	0
16609	2011-12-21T00:00:00	ND	16.52	ND	2067.51	ND	ND	0.2	ND	22.1	82.1	ND	0
16610	2011-12-21T01:00:00	ND	18.22	ND	2586.57	ND	ND	0.4	154.3	21.8	84.3	ND	0
16611	2011-12-21T02:00:00	ND	18.48	ND	2277.94	ND	ND	0.4	ND	21.9	83.9	ND	0
16612	2011-12-21T03:00:00	ND	17.53	ND	1961.28	ND	ND	0.5	149.6	21.8	85.2	ND	0
16613	2011-12-21T04:00:00	ND	15.29	ND	985.98	ND	ND	0.1	ND	21.5	86.4	ND	0
16614	2011-12-21T05:00:00	ND	14.79	ND	781.19	ND	ND	0.1	ND	21.4	87	ND	0
16615	2011-12-21T06:00:00	ND	14.13	ND	577.20	ND	ND	0.1	ND	21.5	86.5	ND	0
16616	2011-12-21T07:00:00	ND	14.50	ND	815.15	ND	ND	0.2	ND	21.7	85.6	4.6	0
16617	2011-12-21T08:00:00	ND	14.59	ND	1087.60	ND	ND	0.1	ND	22.4	82.8	47.8	0
16618	2011-12-21T09:00:00	ND	15.32	ND	1657.99	ND	ND	0.8	145.7	22.9	79.7	160.2	0
16619	2011-12-21T10:00:00	ND	17.72	ND	2570.83	ND	ND	0.8	101	24.7	70.1	401.4	0
16620	2011-12-21T11:00:00	ND	20.50	ND	3399.03	ND	ND	1.5	126.6	26	66.1	552.1	0
16621	2011-12-21T12:00:00	ND	19.90	ND	2149.47	ND	ND	1.4	100.5	26.7	62.8	518.6	0
16622	2011-12-21T13:00:00	ND	18.66	ND	2142.99	ND	ND	1.5	118.5	28.1	57	807.5	0
16623	2011-12-21T14:00:00	ND	18.59	ND	2141.42	ND	ND	1.1	87.4	28.4	55	631	0
16624	2011-12-21T15:00:00	ND	18.66	ND	1992.93	ND	ND	1.8	89.6	28.4	56	342.5	0
16625	2011-12-21T16:00:00	ND	16.11	ND	1402.00	ND	ND	1.3	96.4	27.5	58.3	151.7	0
16626	2011-12-21T17:00:00	ND	17.23	ND	1859.90	ND	ND	0.7	73.3	27.3	58.4	81.8	0
16627	2011-12-21T18:00:00	ND	17.77	ND	2147.28	ND	ND	1.2	285.2	27.1	57.6	41.5	0
16628	2011-12-21T19:00:00	ND	18.55	ND	2018.94	ND	ND	1.7	284.5	26	60.7	ND	0
16629	2011-12-21T20:00:00	ND	17.77	ND	1793.14	ND	ND	2.5	263	25.1	63.3	ND	0
16630	2011-12-21T21:00:00	ND	16.07	ND	1822.13	ND	ND	2.1	270.5	24.5	65.6	ND	0
16631	2011-12-21T22:00:00	ND	14.73	ND	1178.00	ND	ND	0.4	ND	24	70.5	ND	0
16632	2011-12-21T23:00:00	ND	16.27	ND	1347.28	ND	ND	0.5	212.1	23.3	73.9	ND	0
16633	2011-12-22T00:00:00	ND	19.90	ND	2198.41	ND	ND	1.3	231.4	23.2	72	ND	0
16634	2011-12-22T01:00:00	ND	20.47	ND	2220.44	ND	ND	1	239.5	23	70.7	ND	0
16635	2011-12-22T02:00:00	ND	17.23	ND	1115.16	ND	ND	0.7	233.4	22.5	74	ND	0
16636	2011-12-22T03:00:00	ND	15.88	ND	852.00	ND	ND	0.3	178.3	22.2	76.2	ND	0
16637	2011-12-22T04:00:00	ND	13.91	ND	1134.84	ND	ND	0.2	ND	21.6	86.1	ND	0
16638	2011-12-22T05:00:00	ND	13.37	ND	770.12	ND	ND	0.4	ND	21.1	80.3	ND	0
16639	2011-12-22T06:00:00	ND	12.62	ND	972.33	ND	ND	0.6	241	20.9	79	ND	0
16640	2011-12-22T07:00:00	ND	12.69	ND	802.19	ND	ND	0.7	230	21.3	76.7	22.6	0
16641	2011-12-22T08:00:00	ND	12.96	ND	814.60	ND	ND	0.2	ND	22.9	71.1	143.3	0
16642	2011-12-22T09:00:00	ND	13.97	ND	1365.04	ND	ND	1	89.5	24.1	71.9	236.7	0
16643	2011-12-22T10:00:00	ND	16.20	ND	2067.29	ND	ND	1.2	91	24.9	71	438.5	0
16644	2011-12-22T11:00:00	ND	18.44	ND	2908.87	ND	ND	0.8	94.8	26.4	63.9	480.1	0
16645	2011-12-22T12:00:00	ND	19.24	ND	2083.29	ND	ND	1.1	98.6	28	57.6	611.7	0
16646	2011-12-22T13:00:00	ND	19.29	ND	1758.85	ND	ND	1.2	84.4	29	52.7	584.8	0
16647	2011-12-22T14:00:00	ND	26.55	ND	1799.53	ND	ND	1	83.7	30.1	50.2	533.7	0
16648	2011-12-22T15:00:00	ND	28.92	ND	1561.39	ND	ND	1	337.6	30	49.3	421.6	0
16649	2011-12-22T16:00:00	ND	28.56	ND	1479.33	ND	ND	2	320.2	29.4	49	159.3	0
16650	2011-12-22T17:00:00	ND	29.59	ND	976.52	ND	ND	2.9	277.6	29.5	48	245.8	0
16651	2011-12-22T18:00:00	ND	33.35	ND	1186.16	ND	ND	3.8	271.7	27.6	52.6	40.6	0
16652	2011-12-22T19:00:00	ND	18.95	ND	1363.61	ND	ND	3.7	271	26.3	56.9	ND	0
16653	2011-12-22T20:00:00	ND	17.90	ND	1219.64	ND	ND	3.5	269.4	25.6	59.9	ND	0
16654	2011-12-22T21:00:00	ND	16.25	ND	1320.10	ND	ND	2.5	276.9	25.1	62.1	ND	0
16655	2011-12-22T22:00:00	ND	15.18	ND	1180.37	ND	ND	1.1	283.4	24.6	65.9	ND	0
16656	2011-12-22T23:00:00	ND	14.92	ND	1121.19	ND	ND	2.7	267.5	24.5	65.2	ND	0
16657	2011-12-23T00:00:00	ND	14.54	ND	1692.65	ND	ND	0.8	31.4	23.4	73.9	ND	0
16658	2011-12-23T01:00:00	ND	12.82	ND	638.10	ND	ND	0.9	167.5	22.7	77.9	ND	0
16659	2011-12-23T02:00:00	ND	14.33	ND	1682.41	ND	ND	1.2	164.4	22.5	79.6	ND	0
16660	2011-12-23T03:00:00	ND	13.51	ND	1329.12	ND	ND	1.2	208.1	22.2	81.7	ND	0
16661	2011-12-23T04:00:00	ND	12.77	ND	862.48	ND	ND	0.5	240.5	21.9	79.6	ND	0
16662	2011-12-23T05:00:00	ND	12.91	ND	736.90	ND	ND	0.3	229.9	21.6	78.6	ND	0
16663	2011-12-23T06:00:00	ND	13.21	ND	747.47	ND	ND	1	239.3	21.5	79.3	ND	0
16664	2011-12-23T07:00:00	ND	13.18	ND	803.83	ND	ND	0.6	266.2	21.9	76.8	11	0
16665	2011-12-23T08:00:00	ND	12.86	ND	872.94	ND	ND	0.8	2.3	22.2	80.1	68.9	0
16666	2011-12-23T09:00:00	ND	13.50	ND	1202.93	ND	ND	0.6	114.7	23.9	71.2	275.1	0
16667	2011-12-23T10:00:00	ND	18.82	ND	2191.45	ND	ND	1.4	101.8	25.5	62.4	549.9	0
16668	2011-12-23T11:00:00	ND	35.49	ND	2329.48	ND	ND	1.3	110.9	26.8	57.8	664.4	0
16669	2011-12-23T12:00:00	ND	35.96	ND	1659.64	ND	ND	1.1	124.9	27.8	55.2	537.8	0
16670	2011-12-23T13:00:00	ND	36.74	ND	1653.61	ND	ND	1.2	89.1	28.5	52.1	427.5	0
16671	2011-12-23T14:00:00	ND	27.07	ND	1402.47	ND	ND	0.1	205.5	30	47	533.6	0
16672	2011-12-23T15:00:00	ND	24.46	ND	1595.82	ND	ND	1.3	327.9	29.5	47.9	169.1	0
16673	2011-12-23T16:00:00	ND	21.38	ND	1174.54	ND	ND	1	235.9	30.4	44.9	453.3	0
16674	2011-12-23T17:00:00	ND	19.21	ND	1143.04	ND	ND	3.2	269.2	30.2	46.1	315.9	0
16675	2011-12-23T18:00:00	ND	16.18	ND	932.48	ND	ND	3.6	272.1	27.7	53.1	47.7	0
16676	2011-12-23T19:00:00	ND	14.75	ND	1098.19	ND	ND	3.6	272	26.3	58.3	ND	0
16677	2011-12-23T20:00:00	ND	15.18	ND	1093.07	ND	ND	4.2	271.5	25.8	59.7	ND	0
16678	2011-12-23T21:00:00	ND	15.29	ND	1068.28	ND	ND	3.3	278.1	25.4	60.4	ND	0
16679	2011-12-23T22:00:00	ND	13.93	ND	757.12	ND	ND	1.9	282.2	25.2	61.2	ND	0
16680	2011-12-23T23:00:00	ND	13.48	ND	768.07	ND	ND	2.8	271.7	24.7	63.3	ND	0
16681	2011-12-24T00:00:00	ND	12.51	ND	755.34	ND	ND	2.2	263.2	24.6	63.6	ND	0
16682	2011-12-24T01:00:00	ND	11.96	ND	594.92	ND	ND	1.4	204.1	24.1	68.5	ND	0
16683	2011-12-24T02:00:00	ND	12.10	ND	445.44	ND	ND	1.3	186.8	23.4	76.2	ND	0
16684	2011-12-24T03:00:00	ND	11.78	ND	752.04	ND	ND	1.2	195.5	23.4	75.2	ND	0
16685	2011-12-24T04:00:00	ND	13.16	ND	695.07	ND	ND	0.3	120.5	23.1	77.3	ND	0
16686	2011-12-24T05:00:00	ND	14.42	ND	671.60	ND	ND	0.8	4.7	22.6	82.7	ND	0
16687	2011-12-24T06:00:00	ND	17.73	ND	738.65	ND	ND	0.3	ND	22.6	81.5	ND	0
16688	2011-12-24T07:00:00	ND	19.81	ND	1079.56	ND	ND	0.5	250.8	22.7	79.8	7.9	0
16689	2011-12-24T08:00:00	ND	32.03	ND	1114.03	ND	ND	0.9	143.1	22.9	79.3	33.2	0
16690	2011-12-24T09:00:00	ND	34.84	ND	1171.66	ND	ND	0.9	147.7	23.2	80.9	214.3	0
16691	2011-12-24T10:00:00	ND	27.66	ND	1924.38	ND	ND	0.6	145.6	24.8	72	356.5	0
16692	2011-12-24T11:00:00	ND	25.98	ND	2152.30	ND	ND	1.3	96.6	25.7	67.4	232	0
16693	2011-12-24T12:00:00	ND	25.32	ND	1871.73	ND	ND	0.6	112.4	25.3	69.1	238.1	0
16694	2011-12-24T13:00:00	ND	21.27	ND	1766.01	ND	ND	0.8	218	27.2	61.3	705.3	0
16695	2011-12-24T14:00:00	ND	20.14	ND	1984.99	ND	ND	1	50.3	28.4	56.6	401.1	0
16696	2011-12-24T15:00:00	ND	20.99	ND	1471.52	ND	ND	0.5	10.3	28.3	56.4	156.8	0
16697	2011-12-24T16:00:00	ND	26.55	ND	1459.45	ND	ND	2.7	279.2	28.1	52.4	210.8	0
16698	2011-12-24T17:00:00	ND	28.88	ND	1030.20	ND	ND	2.9	281.3	27.5	53.1	111.6	0
16699	2011-12-24T18:00:00	ND	24.20	ND	901.07	ND	ND	2.1	288.7	26.8	54.7	42	0
16700	2011-12-24T19:00:00	ND	15.61	ND	1002.70	ND	ND	2.1	281.1	25.8	57.6	ND	0
16701	2011-12-24T20:00:00	ND	17.21	ND	1056.79	ND	ND	0.2	4.4	25.7	58.9	ND	0
16702	2011-12-24T21:00:00	ND	18.67	ND	1125.33	ND	ND	1.9	274.2	25.4	59.2	ND	0
16703	2011-12-24T22:00:00	ND	18.52	ND	2133.69	ND	ND	2.9	195.3	23.8	75.3	ND	0
16704	2011-12-24T23:00:00	ND	15.61	ND	1015.48	ND	ND	2	173	22.8	78.9	ND	0
16705	2011-12-25T00:00:00	ND	13.76	ND	886.98	ND	ND	1.7	185.5	21.9	86	ND	0
16706	2011-12-25T01:00:00	ND	13.15	ND	1088.34	ND	ND	0.5	96	22.3	85	ND	0
16707	2011-12-25T02:00:00	ND	12.41	ND	1021.70	ND	ND	0.7	51.9	21.7	86.9	ND	0
16708	2011-12-25T03:00:00	ND	13.71	ND	1722.04	ND	ND	0.4	53.1	21.5	88.5	ND	0
16709	2011-12-25T04:00:00	ND	13.52	ND	1483.12	ND	ND	0.5	109.1	21.6	87.6	ND	0
16710	2011-12-25T05:00:00	ND	12.82	ND	1211.81	ND	ND	0.8	70.7	21.4	87.7	ND	0
16711	2011-12-25T06:00:00	ND	13.38	ND	1256.26	ND	ND	0.3	54.6	21.2	89.3	ND	0
16712	2011-12-25T07:00:00	ND	12.96	ND	1074.45	ND	ND	0.4	35.8	21.3	88.5	10	0
16713	2011-12-25T08:00:00	ND	12.01	ND	927.73	ND	ND	0.1	336.3	21.9	85	84.6	0
16714	2011-12-25T09:00:00	ND	11.62	ND	974.97	ND	ND	0.7	85.8	24.2	72.8	347.9	0
16715	2011-12-25T10:00:00	ND	16.20	ND	948.30	ND	ND	1	130.4	25.5	66.7	362.5	0
16716	2011-12-25T11:00:00	ND	44.49	ND	860.65	ND	ND	0.8	134.6	26.8	61.9	504.8	0
16717	2011-12-25T12:00:00	ND	ND	ND	898.97	ND	ND	0.6	104.7	27.6	58.5	537.1	0
16718	2011-12-25T13:00:00	ND	ND	ND	878.26	ND	ND	0.5	131.1	29.3	51.9	659.3	0
16719	2011-12-25T14:00:00	ND	ND	ND	894.85	ND	ND	0.7	75.1	29.8	50.5	355.4	0
16720	2011-12-25T15:00:00	ND	ND	ND	803.20	ND	ND	1.1	337.6	29.7	49.4	328.5	0
16721	2011-12-25T16:00:00	ND	ND	ND	791.30	ND	ND	2.5	285.9	28.7	51.7	239.4	0
16722	2011-12-25T17:00:00	ND	ND	ND	603.11	ND	ND	3.5	280.7	28.8	51	286.2	0
16723	2011-12-25T18:00:00	ND	ND	ND	498.89	ND	ND	3.2	275.7	27.2	56.2	63.3	0
16724	2011-12-25T19:00:00	ND	ND	ND	484.71	ND	ND	3.1	280.4	25.9	58.8	ND	0
16725	2011-12-25T20:00:00	ND	ND	ND	505.59	ND	ND	3.2	278.2	25.5	60.2	ND	0
16726	2011-12-25T21:00:00	ND	ND	ND	619.67	ND	ND	2.1	280.6	25.4	59.9	ND	0
16727	2011-12-25T22:00:00	ND	ND	ND	562.10	ND	ND	0.7	191.3	24.9	63.8	ND	0
16728	2011-12-25T23:00:00	ND	ND	ND	927.63	ND	ND	2	223.5	24.1	69	ND	0
16729	2011-12-26T00:00:00	ND	ND	ND	1713.22	ND	ND	1.2	192.3	23.1	77.4	ND	0
16730	2011-12-26T01:00:00	ND	ND	ND	1001.71	ND	ND	0.9	186.7	22.7	78.8	ND	0
16731	2011-12-26T02:00:00	ND	ND	ND	1318.65	ND	ND	1.1	180.2	22.5	78.1	ND	0
16732	2011-12-26T03:00:00	ND	ND	ND	1306.40	ND	ND	0.7	202.9	22.4	78.5	ND	0
16733	2011-12-26T04:00:00	ND	ND	ND	760.86	ND	ND	1.2	182.5	22	80.4	ND	0
16734	2011-12-26T05:00:00	ND	ND	ND	646.42	ND	ND	1.2	199.5	21.9	80.7	ND	0
16735	2011-12-26T06:00:00	ND	ND	ND	600.86	ND	ND	0.3	205.4	22	79.7	ND	0
16736	2011-12-26T07:00:00	ND	ND	ND	635.08	ND	ND	0.2	ND	22.2	79	23.7	0
16737	2011-12-26T08:00:00	ND	ND	ND	635.51	ND	ND	0.2	239.1	23.1	75.9	145.6	0
16738	2011-12-26T09:00:00	ND	ND	ND	1548.09	ND	ND	0.9	189.3	24.8	65.7	339.7	0
16739	2011-12-26T10:00:00	ND	ND	ND	1797.40	ND	ND	1.4	151.4	26.4	60.1	492.3	0
16740	2011-12-26T11:00:00	ND	ND	ND	1220.05	ND	ND	1.6	107.6	27.4	58.4	648.2	0
16741	2011-12-26T12:00:00	ND	ND	ND	1004.71	ND	ND	1.1	137.4	28.7	53.3	519.1	0
16742	2011-12-26T13:00:00	ND	ND	ND	1357.00	ND	ND	0.7	41.2	29.8	49.4	535.1	0
16743	2011-12-26T14:00:00	ND	ND	ND	1059.29	ND	ND	1	49.6	29.8	49.4	291.2	0
16744	2011-12-26T15:00:00	ND	ND	ND	1094.22	ND	ND	3.1	280.4	29.8	46.9	510.2	0
16745	2011-12-26T16:00:00	ND	ND	ND	1245.54	ND	ND	3.1	271.1	30.2	44.6	390.6	0
16746	2011-12-26T17:00:00	ND	ND	ND	699.36	ND	ND	2.9	280.9	29.1	47.6	174.9	0
16747	2011-12-26T18:00:00	ND	ND	ND	789.73	ND	ND	3.9	273.8	27.3	54	29.8	0
16748	2011-12-26T19:00:00	ND	ND	ND	750.39	ND	ND	4.8	274.6	25.9	58.9	ND	0
16749	2011-12-26T20:00:00	ND	ND	ND	723.91	ND	ND	4.6	273.3	25.7	60.1	ND	0
16750	2011-12-26T21:00:00	ND	ND	ND	631.56	ND	ND	1.5	303.7	25.7	60.8	ND	0
16751	2011-12-26T22:00:00	ND	ND	ND	516.73	ND	ND	1.9	277.8	25.3	62.1	ND	0
16752	2011-12-26T23:00:00	ND	ND	ND	710.99	ND	ND	0.9	310.7	24.4	67.6	ND	0
16753	2011-12-27T00:00:00	ND	ND	ND	628.82	ND	ND	1.6	219.8	24.3	67.3	ND	0
16754	2011-12-27T01:00:00	ND	ND	ND	914.33	ND	ND	1.7	184.6	23.8	71.3	ND	0
16755	2011-12-27T02:00:00	ND	ND	ND	798.70	ND	ND	1.4	178.5	22.6	78	ND	0
16756	2011-12-27T03:00:00	ND	ND	ND	761.38	ND	ND	0.6	175.6	22.6	77.5	ND	0
16757	2011-12-27T04:00:00	ND	ND	ND	636.37	ND	ND	0.2	144.1	22.7	77.2	ND	0
16758	2011-12-27T05:00:00	ND	ND	ND	670.69	ND	ND	0.4	168.4	22.8	77.4	ND	0
16759	2011-12-27T06:00:00	ND	ND	ND	727.78	ND	ND	0.5	98.4	22.3	81.5	ND	0
16760	2011-12-27T07:00:00	ND	ND	ND	862.77	ND	ND	0.6	134	22	82.9	17	0
16761	2011-12-27T08:00:00	ND	ND	ND	1145.42	ND	ND	0.3	127.8	22.7	77.9	71.3	0
16762	2011-12-27T09:00:00	ND	ND	ND	1841.56	ND	ND	0.8	218.7	23.8	72.5	207.5	0
16763	2011-12-27T10:00:00	ND	ND	ND	1859.82	ND	ND	0.9	182.2	25.6	64.9	465.5	0
16764	2011-12-27T11:00:00	ND	ND	ND	1894.06	ND	ND	0.3	325.6	27.2	57.7	474.9	0
16765	2011-12-27T12:00:00	ND	ND	ND	1257.93	ND	ND	1.3	76.4	28	56.4	496.5	0
16766	2011-12-27T13:00:00	ND	ND	ND	960.43	ND	ND	0.6	35.9	29.4	51.8	590	0
16767	2011-12-27T14:00:00	ND	ND	ND	1557.78	ND	ND	0.7	76.7	30	49.5	441.5	0
16768	2011-12-27T15:00:00	ND	26.94	ND	1141.53	ND	ND	1.3	324.9	29.6	49.1	213.7	0
16769	2011-12-27T16:00:00	ND	31.18	ND	1244.72	ND	ND	3.5	286.8	29.8	47.8	469.7	0
16770	2011-12-27T17:00:00	ND	44.38	ND	849.76	ND	ND	4.2	277.8	28.6	51.3	264.4	0
16771	2011-12-27T18:00:00	ND	23.87	ND	637.70	ND	ND	4.5	270	27	56.2	39.2	0
16772	2011-12-27T19:00:00	ND	17.09	ND	680.44	ND	ND	4.3	269.4	26.5	56.2	ND	0
16773	2011-12-27T20:00:00	ND	15.62	ND	644.77	ND	ND	4.7	271.1	26.2	58.1	ND	0
16774	2011-12-27T21:00:00	ND	14.86	ND	655.63	ND	ND	2.1	307.2	26.2	58.3	ND	0
16775	2011-12-27T22:00:00	ND	13.71	ND	563.61	ND	ND	2.4	258.4	25.5	62.3	ND	0
16776	2011-12-27T23:00:00	ND	12.68	ND	677.04	ND	ND	2.6	260.3	25.1	63.7	ND	0
16777	2011-12-28T00:00:00	ND	11.93	ND	721.97	ND	ND	1.1	228.1	24.9	65.8	ND	0
16778	2011-12-28T01:00:00	ND	11.89	ND	698.59	ND	ND	1.1	192.6	24.2	72	ND	0
16779	2011-12-28T02:00:00	ND	11.55	ND	776.92	ND	ND	1.3	197.6	24	71.8	ND	0
16780	2011-12-28T03:00:00	ND	11.57	ND	913.41	ND	ND	1	194.2	23.6	74.5	ND	0
16781	2011-12-28T04:00:00	ND	12.02	ND	718.34	ND	ND	0.9	136.3	23.2	77.7	ND	0
16782	2011-12-28T05:00:00	ND	12.27	ND	705.99	ND	ND	0.6	154.2	22.9	79.2	ND	0
16783	2011-12-28T06:00:00	ND	12.85	ND	875.90	ND	ND	0.2	ND	23	78.8	ND	0
16784	2011-12-28T07:00:00	ND	13.66	ND	864.82	ND	ND	0.6	57.5	23	80	14.9	0
16785	2011-12-28T08:00:00	ND	14.37	ND	989.99	ND	ND	0.6	119.9	23.1	79.4	99.6	0
16786	2011-12-28T09:00:00	ND	16.51	ND	1718.84	ND	ND	0.2	62.8	24.4	72	181.7	0
16787	2011-12-28T10:00:00	ND	19.19	ND	2229.44	ND	ND	0.8	198.3	26.1	63.8	333.3	0
16788	2011-12-28T11:00:00	ND	22.93	ND	1253.32	ND	ND	1.1	122.4	26.9	61.6	376.9	0
16789	2011-12-28T12:00:00	ND	25.95	ND	1141.38	ND	ND	1.1	95.6	28.5	55.6	508.3	0
16790	2011-12-28T13:00:00	ND	23.14	ND	1425.65	ND	ND	1.3	21	28.8	54	367.2	0
16791	2011-12-28T14:00:00	ND	20.06	ND	1369.05	ND	ND	1	21.4	29.5	50.9	508.3	0
16792	2011-12-28T15:00:00	ND	17.95	ND	1139.65	ND	ND	1.4	41.2	30	49.2	180.7	0
16793	2011-12-28T16:00:00	ND	23.90	ND	1164.83	ND	ND	1.7	296.1	30.1	47.5	281.6	0
16794	2011-12-28T17:00:00	ND	25.69	ND	1398.26	ND	ND	3.2	277.7	28.4	51.3	50.1	0
16795	2011-12-28T18:00:00	ND	22.84	ND	822.66	ND	ND	3.4	267.3	27.5	52.9	16.6	0
16796	2011-12-28T19:00:00	ND	17.39	ND	889.52	ND	ND	3.1	275.8	26.8	55.7	ND	0
16797	2011-12-28T20:00:00	ND	16.71	ND	887.45	ND	ND	3.9	267.8	25.5	63.6	ND	0
16798	2011-12-28T21:00:00	ND	15.72	ND	826.22	ND	ND	3	263	25.1	64.5	ND	0
16799	2011-12-28T22:00:00	ND	14.10	ND	756.35	ND	ND	1.6	209.7	24.9	66.1	ND	0
16800	2011-12-28T23:00:00	ND	13.67	ND	767.30	ND	ND	0.9	153.8	24.7	65.1	ND	0
16801	2011-12-29T00:00:00	ND	12.90	ND	846.90	ND	ND	0.7	150.9	24.3	67.5	ND	0
16802	2011-12-29T01:00:00	ND	13.12	ND	1108.63	ND	ND	1	164.7	23.4	73.7	ND	0
16803	2011-12-29T02:00:00	ND	12.77	ND	1105.27	ND	ND	0.5	157.7	23.5	73.8	ND	0
16804	2011-12-29T03:00:00	ND	12.72	ND	820.69	ND	ND	0.8	49.2	23.2	76.8	ND	0
16805	2011-12-29T04:00:00	ND	13.86	ND	1252.56	ND	ND	0.6	168.3	22.6	79.7	ND	0
16806	2011-12-29T05:00:00	ND	12.92	ND	920.47	ND	ND	0.7	156.3	22.6	78.4	ND	0
16807	2011-12-29T06:00:00	ND	13.85	ND	738.65	ND	ND	0.5	125.9	22.3	80.3	ND	0
16808	2011-12-29T07:00:00	ND	14.83	ND	760.60	ND	ND	1	33.9	22.6	79.8	4.1	0
16809	2011-12-29T08:00:00	ND	14.35	ND	1022.74	ND	ND	0.7	78.7	22.6	80.8	64.7	0
16810	2011-12-29T09:00:00	ND	16.40	ND	1840.94	ND	ND	0.6	66.3	24.6	68.4	338.3	0
16811	2011-12-29T10:00:00	ND	21.75	ND	2127.97	ND	ND	1.2	123	26.2	61.9	538	0
16812	2011-12-29T11:00:00	ND	27.41	ND	1276.74	ND	ND	1.8	149.3	27.8	55	674.2	0
16813	2011-12-29T12:00:00	ND	23.78	ND	1248.88	ND	ND	1	133.2	28.9	51	667.7	0
16814	2011-12-29T13:00:00	ND	18.74	ND	1172.21	ND	ND	0.9	115.5	29.8	48.7	546.4	0
16815	2011-12-29T14:00:00	ND	15.81	ND	1105.86	ND	ND	0.6	43.4	30.4	45.9	472.7	0
16816	2011-12-29T15:00:00	ND	15.50	ND	1306.33	ND	ND	3.1	287.7	30.5	46	515	0
16817	2011-12-29T16:00:00	ND	15.48	ND	1213.42	ND	ND	4.4	277.5	29.9	47.4	474.6	0
16818	2011-12-29T17:00:00	ND	13.74	ND	954.84	ND	ND	3.7	275	29.3	48.6	256.5	0
16819	2011-12-29T18:00:00	ND	13.85	ND	790.25	ND	ND	4.2	279.9	27.4	54.9	35.7	0
16820	2011-12-29T19:00:00	ND	12.92	ND	819.93	ND	ND	4.4	278.9	26.4	57.8	ND	0
16821	2011-12-29T20:00:00	ND	13.79	ND	805.69	ND	ND	4.8	279.3	26	58.2	ND	0
16822	2011-12-29T21:00:00	ND	13.15	ND	712.66	ND	ND	1.8	300.6	25.9	58.5	ND	0
16823	2011-12-29T22:00:00	ND	12.59	ND	574.53	ND	ND	2.2	243.4	25.4	62.1	ND	0
16824	2011-12-29T23:00:00	ND	11.91	ND	883.30	ND	ND	2.5	188.1	24.1	72.3	ND	0
16825	2011-12-30T00:00:00	ND	11.65	ND	651.02	ND	ND	1.1	156.6	23.5	77.4	ND	0
16826	2011-12-30T01:00:00	ND	11.97	ND	877.68	ND	ND	1.1	146.3	22.9	79.7	ND	0
16827	2011-12-30T02:00:00	ND	13.06	ND	1183.04	ND	ND	0.2	177.1	22.8	79.5	ND	0
16828	2011-12-30T03:00:00	ND	11.99	ND	977.95	ND	ND	0.3	351	23.4	75	ND	0
16829	2011-12-30T04:00:00	ND	11.42	ND	729.25	ND	ND	0.6	41.6	22.9	78.6	ND	0
16830	2011-12-30T05:00:00	ND	14.15	ND	887.28	ND	ND	0.2	200.2	22.9	78.9	ND	0
16831	2011-12-30T06:00:00	ND	25.08	ND	1046.53	ND	ND	0.7	82.4	23	79.4	ND	0
16832	2011-12-30T07:00:00	ND	21.65	ND	762.41	ND	ND	0.2	ND	22.7	81.5	20.8	0
16833	2011-12-30T08:00:00	ND	22.96	ND	1170.87	ND	ND	1.2	182.7	23.3	77.2	68.6	0
16834	2011-12-30T09:00:00	ND	19.72	ND	1275.76	ND	ND	1.5	163	23.9	74.7	216.7	0
16835	2011-12-30T10:00:00	ND	21.93	ND	1506.62	ND	ND	1.5	171.1	25.9	66.2	590.5	0
16836	2011-12-30T11:00:00	ND	24.89	ND	1562.73	ND	ND	0.7	143.4	27.2	59.8	538.6	0
16837	2011-12-30T12:00:00	ND	24.55	ND	1165.61	ND	ND	1.3	124.4	28.9	52.7	656.6	0
16838	2011-12-30T13:00:00	ND	21.63	ND	998.12	ND	ND	1.2	34.3	29.3	52.2	402	0
16839	2011-12-30T14:00:00	ND	18.82	ND	1150.52	ND	ND	2.1	303.3	29.6	49.3	591.2	0
16840	2011-12-30T15:00:00	ND	16.84	ND	1128.39	ND	ND	3.3	289	29.4	48.2	459.3	0
16841	2011-12-30T16:00:00	ND	15.47	ND	732.39	ND	ND	1.4	301.1	30.1	45.2	417.3	0
16842	2011-12-30T17:00:00	ND	14.07	ND	734.08	ND	ND	2.9	281	29.8	45.8	309	0
16843	2011-12-30T18:00:00	ND	14.88	ND	628.59	ND	ND	3.3	275.3	27.6	52.2	69.4	0
16844	2011-12-30T19:00:00	ND	14.67	ND	774.25	ND	ND	3.1	274	26.6	54.6	ND	0
16845	2011-12-30T20:00:00	ND	14.04	ND	771.68	ND	ND	1.7	296.3	26.5	54.2	ND	0
16846	2011-12-30T21:00:00	ND	14.14	ND	805.96	ND	ND	2.3	274.4	26.4	55	ND	0
16847	2011-12-30T22:00:00	ND	13.58	ND	690.59	ND	ND	1.5	273.1	25.7	60.4	ND	0
16848	2011-12-30T23:00:00	ND	12.32	ND	643.05	ND	ND	2.3	263.2	25.3	62	ND	0
16849	2011-12-31T00:00:00	ND	12.12	ND	676.59	ND	ND	1.4	288.4	25	64	ND	0
16850	2011-12-31T01:00:00	ND	11.56	ND	595.72	ND	ND	0.2	88.1	24.1	72.1	ND	0
16851	2011-12-31T02:00:00	ND	12.10	ND	765.24	ND	ND	1	178.8	24	73.1	ND	0
16852	2011-12-31T03:00:00	ND	13.74	ND	1084.67	ND	ND	0.7	126.8	23.6	74.7	ND	0
16853	2011-12-31T04:00:00	ND	13.33	ND	763.95	ND	ND	0.4	71.1	23	78.5	ND	0
16854	2011-12-31T05:00:00	ND	13.95	ND	978.61	ND	ND	0.3	319.9	22.8	77.4	ND	0
16855	2011-12-31T06:00:00	ND	13.06	ND	1012.06	ND	ND	0.6	141.9	22.6	79.9	ND	0
16856	2011-12-31T07:00:00	ND	12.71	ND	863.65	ND	ND	0.6	235.9	22.9	75.5	18.9	0
16857	2011-12-31T08:00:00	ND	13.40	ND	1046.53	ND	ND	0.3	183.4	24	70.7	163.4	0
16858	2011-12-31T09:00:00	ND	13.11	ND	981.92	ND	ND	1.3	145.7	25.4	67.3	377	0
16859	2011-12-31T10:00:00	ND	14.85	ND	1273.33	ND	ND	1.2	149.1	26.5	62.7	499.7	0
16860	2011-12-31T11:00:00	ND	22.38	ND	1220.46	ND	ND	0.7	142.8	27.8	56.6	443.8	0
16861	2011-12-31T12:00:00	ND	29.86	ND	1156.37	ND	ND	0.6	358.5	28	54.8	320.2	0
16862	2011-12-31T13:00:00	ND	25.22	ND	1134.00	ND	ND	1.2	346.1	29.7	49.2	685.3	0
16863	2011-12-31T14:00:00	ND	22.70	ND	1128.77	ND	ND	0.6	283.2	30.5	45.7	679.1	0
16864	2011-12-31T15:00:00	ND	22.58	ND	781.72	ND	ND	1.3	64.2	31.2	42.8	494.7	0
16865	2011-12-31T16:00:00	ND	21.42	ND	643.19	ND	ND	1.3	282.5	31.2	44.3	494.9	0
16866	2011-12-31T17:00:00	ND	20.94	ND	1040.80	ND	ND	4.1	279.9	29.6	47.8	265.2	0
16867	2011-12-31T18:00:00	ND	22.72	ND	919.00	ND	ND	3.9	283.3	28	51.8	44.2	0
16868	2011-12-31T19:00:00	ND	14.56	ND	740.57	ND	ND	4.2	271.8	26.8	56.9	ND	0
16869	2011-12-31T20:00:00	ND	14.18	ND	737.62	ND	ND	3.4	279.4	26.3	58.6	ND	0
16870	2011-12-31T21:00:00	ND	13.45	ND	586.81	ND	ND	2.2	290.8	26.2	58.7	ND	0
16871	2011-12-31T22:00:00	ND	12.36	ND	586.61	ND	ND	3.4	260.6	25.4	62.1	ND	0
16872	2011-12-31T23:00:00	ND	12.23	ND	516.22	ND	ND	2.1	242.3	24.9	64.2	ND	0
16873	2012-01-01T00:00:00	ND	11.42	ND	561.16	ND	ND	1.1	230.5	24.8	64.6	ND	0
16874	2012-01-01T01:00:00	ND	ND	ND	1518.03	ND	ND	0.4	23.5	23.9	72.1	0	0
16875	2012-01-01T02:00:00	ND	ND	ND	2106.57	ND	ND	0.1	ND	23.2	76.4	0	0
16876	2012-01-01T03:00:00	ND	ND	ND	1537.75	ND	ND	0.5	230.3	23.3	72.8	0	0
16877	2012-01-01T04:00:00	ND	ND	ND	1059.34	ND	ND	0.8	246	23.3	71.5	0	0
16878	2012-01-01T05:00:00	ND	ND	ND	762.15	ND	ND	0.6	275.7	22.9	71.6	0	0
16879	2012-01-01T06:00:00	ND	ND	ND	930.89	ND	ND	0.4	44.3	22.3	78.9	0	0
16880	2012-01-01T07:00:00	ND	ND	ND	1079.56	ND	ND	0.2	ND	22.6	77.9	8.5	0
16881	2012-01-01T08:00:00	ND	ND	ND	1298.54	ND	ND	0.6	121.3	23.3	77	155.4	0
16882	2012-01-01T09:00:00	ND	ND	ND	595.72	ND	ND	1.4	211.2	25	67.5	362	0
16883	2012-01-01T10:00:00	ND	ND	ND	597.51	ND	ND	1	129.1	25.9	62.2	354.5	0
16884	2012-01-01T11:00:00	ND	ND	ND	554.50	ND	ND	1.1	78.1	27.5	56.3	694.8	0
16885	2012-01-01T12:00:00	ND	ND	ND	592.30	ND	ND	1.3	112	29.1	50.4	722.4	0
16886	2012-01-01T13:00:00	ND	ND	ND	700.05	ND	ND	1.2	76.1	30.5	46.6	793	0
16887	2012-01-01T14:00:00	ND	ND	ND	678.50	ND	ND	1.6	42.2	31.3	44.2	730.5	0
16888	2012-01-01T15:00:00	ND	ND	ND	631.71	ND	ND	1.4	15.3	31.3	45.3	394.3	0
16889	2012-01-01T16:00:00	ND	ND	ND	432.12	ND	ND	3	290.3	30.8	45.4	473.7	0
16890	2012-01-01T17:00:00	ND	ND	ND	325.94	ND	ND	3.7	282.8	29.8	48.3	312.2	0
16891	2012-01-01T18:00:00	ND	ND	ND	393.82	ND	ND	3.8	273.3	28.3	52.1	64.1	0
16892	2012-01-01T19:00:00	ND	ND	ND	427.00	ND	ND	4.9	271.1	27.2	55.1	0	0
16893	2012-01-01T20:00:00	ND	ND	ND	368.93	ND	ND	3.8	278	26.9	55.8	0	0
16894	2012-01-01T21:00:00	ND	ND	ND	437.96	ND	ND	1.4	298.6	26.8	55.9	0	0
16895	2012-01-01T22:00:00	ND	ND	ND	483.25	ND	ND	1.8	270.5	26.3	59.6	0	0
16896	2012-01-01T23:00:00	ND	ND	ND	505.42	ND	ND	1.7	239.2	25.8	63.5	0	0
16897	2012-01-02T00:00:00	ND	ND	ND	996.01	ND	ND	0.7	25.3	24.8	69.9	0	0
16898	2012-01-02T01:00:00	ND	ND	ND	753.82	ND	ND	1.1	144.7	24.1	73.3	0	0
16899	2012-01-02T02:00:00	ND	ND	ND	535.73	ND	ND	0.9	157.8	23.5	76.3	0	0
16900	2012-01-02T03:00:00	ND	ND	ND	467.33	ND	ND	1.6	184	23.5	75	0	0
16901	2012-01-02T04:00:00	ND	ND	ND	523.97	ND	ND	1.4	175.1	23.3	76.1	0	0
16902	2012-01-02T05:00:00	ND	ND	ND	591.92	ND	ND	1.6	183.6	23.1	77.1	0	0
16903	2012-01-02T06:00:00	ND	ND	ND	683.21	ND	ND	0.7	167.5	23.2	75.8	0	0
16904	2012-01-02T07:00:00	ND	ND	ND	1013.43	ND	ND	1.2	173.5	23.2	75.1	50.7	0
16905	2012-01-02T08:00:00	ND	ND	ND	1039.70	ND	ND	1.4	206	24.2	71.1	185	0
16906	2012-01-02T09:00:00	ND	ND	ND	1132.25	ND	ND	1.3	221.2	24.5	69.8	62.1	0
16907	2012-01-02T10:00:00	ND	ND	ND	1270.77	ND	ND	0.7	184.1	24.8	67.9	72.7	0
16908	2012-01-02T11:00:00	ND	ND	ND	1327.57	ND	ND	1.5	32.5	24.7	69.4	103.5	0
16909	2012-01-02T12:00:00	ND	ND	ND	1179.58	ND	ND	2.2	11.8	24.9	67.7	182.8	0
16910	2012-01-02T13:00:00	ND	ND	ND	1136.05	ND	ND	1.8	29.8	25.5	66.3	216.1	0
16911	2012-01-02T14:00:00	ND	ND	ND	895.97	ND	ND	0.9	35.4	25.8	64.3	222.4	0
16912	2012-01-02T15:00:00	ND	ND	ND	1601.48	ND	ND	0.6	49.6	26.7	61.8	254.8	0
16913	2012-01-02T16:00:00	ND	ND	ND	2142.99	ND	ND	1.7	74.6	26.7	61.8	188.8	0
16914	2012-01-02T17:00:00	ND	ND	ND	1105.32	ND	ND	0.6	317.5	26.5	59	166.9	0
16915	2012-01-02T18:00:00	ND	ND	ND	793.65	ND	ND	1.6	256.7	26.2	57.6	41.4	0
16916	2012-01-02T19:00:00	ND	ND	ND	1455.90	ND	ND	0.3	23	25.2	66.5	0	0
16917	2012-01-02T20:00:00	ND	ND	ND	1634.92	ND	ND	0.7	16.1	24.4	69.3	0	0
16918	2012-01-02T21:00:00	ND	ND	ND	959.73	ND	ND	1.1	248.3	24.2	66	0	0
16919	2012-01-02T22:00:00	ND	ND	ND	673.19	ND	ND	1.8	266.6	23.8	66	0	0
16920	2012-01-02T23:00:00	ND	ND	ND	1001.71	ND	ND	0.6	39.8	23.1	72.5	0	0
16921	2012-01-03T00:00:00	ND	ND	ND	908.49	ND	ND	0.6	104.5	22.4	75.3	0	0
16922	2012-01-03T01:00:00	ND	ND	ND	703.84	ND	ND	1	148.8	22.3	74.8	0	0
16923	2012-01-03T02:00:00	ND	ND	ND	510.51	ND	ND	0.5	199.1	22.1	77.6	0	0
16924	2012-01-03T03:00:00	ND	ND	ND	464.50	ND	ND	1.9	211.5	21.7	82.9	0	0
16925	2012-01-03T04:00:00	ND	ND	ND	383.89	ND	ND	2.3	219.3	20.7	89.9	0	1.02
16926	2012-01-03T05:00:00	ND	ND	ND	338.84	ND	ND	2.4	265.8	20.8	87	0	0.51
16927	2012-01-03T06:00:00	ND	ND	ND	644.89	ND	ND	0.4	284	21.3	84.4	0	0
16928	2012-01-03T07:00:00	ND	ND	ND	1028.51	ND	ND	0.4	189.9	21	87.5	9.9	0
16929	2012-01-03T08:00:00	ND	ND	ND	1810.83	ND	ND	0.8	155.4	21.4	86.2	118.9	0
16930	2012-01-03T09:00:00	ND	ND	ND	1398.69	ND	ND	0.4	79.9	22.8	78.9	192.4	0
16931	2012-01-03T10:00:00	ND	ND	ND	1187.83	ND	ND	0.3	189.8	24.1	70.9	330.8	0
16932	2012-01-03T11:00:00	ND	ND	ND	1595.60	ND	ND	0.6	110.2	25.6	65.1	560.9	0
16933	2012-01-03T12:00:00	ND	ND	ND	1500.78	ND	ND	1.1	144.8	27.3	58.9	632.6	0
16934	2012-01-03T13:00:00	ND	ND	ND	1388.11	ND	ND	0.9	269.5	27.9	54.9	425.8	0
16935	2012-01-03T14:00:00	ND	ND	ND	832.03	ND	ND	3.1	281.6	27.6	52.5	558.8	0
16936	2012-01-03T15:00:00	ND	ND	ND	707.03	ND	ND	3.4	292.3	28.5	46.9	650.5	0
16937	2012-01-03T16:00:00	ND	ND	ND	728.27	ND	ND	3.4	299.5	27.7	49.2	340.5	0
16938	2012-01-03T17:00:00	ND	ND	ND	807.04	ND	ND	4.3	280.8	26.9	53.4	212.2	0
16939	2012-01-03T18:00:00	ND	ND	ND	885.67	ND	ND	3.3	284.3	26.2	56.2	57.1	0
16940	2012-01-03T19:00:00	ND	ND	ND	721.97	ND	ND	4.2	269.7	25.1	60.1	0	0
16941	2012-01-03T20:00:00	ND	ND	ND	572.23	ND	ND	3.5	262.1	24.7	60.8	0	0
16942	2012-01-03T21:00:00	ND	ND	ND	503.05	ND	ND	2.9	256.6	24.4	62.3	0	0
16943	2012-01-03T22:00:00	ND	ND	ND	491.29	ND	ND	2.1	247.7	24.2	62.6	0	0
16944	2012-01-03T23:00:00	ND	ND	ND	535.54	ND	ND	2.5	192.6	23.4	72.1	0	0
16945	2012-01-04T00:00:00	ND	ND	ND	511.20	ND	ND	1.8	175.4	22.5	78.8	0	0
16946	2012-01-04T01:00:00	ND	ND	ND	543.99	ND	ND	1.8	179.6	21.8	83.4	0	0.76
16947	2012-01-04T02:00:00	ND	ND	ND	452.09	ND	ND	1.7	190.6	21	88.5	0	5.59
16948	2012-01-04T03:00:00	ND	ND	ND	417.33	ND	ND	1.7	178	20.4	90.4	0	0.51
16949	2012-01-04T04:00:00	ND	ND	ND	405.50	ND	ND	1.7	179.1	20	90.9	0	0.25
16950	2012-01-04T05:00:00	ND	ND	ND	439.59	ND	ND	1	195.3	20.2	91.6	0	0
16951	2012-01-04T06:00:00	ND	ND	ND	801.37	ND	ND	0.3	64.6	20.6	89.3	0	0
16952	2012-01-04T07:00:00	ND	ND	ND	1138.04	ND	ND	1.3	48.1	20.1	91.3	1.6	0
16953	2012-01-04T08:00:00	ND	ND	ND	1543.68	ND	ND	0.9	59.1	20.1	90.7	43.5	0.25
16954	2012-01-04T09:00:00	ND	ND	ND	1345.43	ND	ND	0.3	172.5	21.1	86	226.9	0
16955	2012-01-04T10:00:00	ND	ND	ND	1626.67	ND	ND	1	78.7	22.9	76.4	401.5	0
16956	2012-01-04T11:00:00	ND	ND	ND	1157.84	ND	ND	0.9	104	25.2	62.8	586.8	0
16957	2012-01-04T12:00:00	ND	ND	ND	1044.95	ND	ND	1.3	145.7	25.7	58.3	463.2	0
16958	2012-01-04T13:00:00	ND	ND	ND	989.19	ND	ND	0.7	211.3	26.2	57	426.8	0
16959	2012-01-04T14:00:00	ND	ND	ND	1004.04	ND	ND	0.8	230.6	27.2	54.8	483.9	0
16960	2012-01-04T15:00:00	ND	ND	ND	1273.28	ND	ND	1.1	114.7	28.1	51.1	434.9	0
16961	2012-01-04T16:00:00	ND	ND	ND	1431.52	ND	ND	1.4	109.9	27.3	54.6	172.4	0
16962	2012-01-04T17:00:00	ND	ND	ND	1179.89	ND	ND	0.6	148.8	27.9	52.9	219	0
16963	2012-01-04T18:00:00	ND	ND	ND	944.76	ND	ND	2.2	261.2	26.7	55.4	89.2	0
16964	2012-01-04T19:00:00	ND	ND	ND	940.97	ND	ND	2.2	273.1	25.5	59	0	0
16965	2012-01-04T20:00:00	ND	ND	ND	848.32	ND	ND	1.5	291	25.2	59.2	0	0
16966	2012-01-04T21:00:00	ND	ND	ND	1202.08	ND	ND	0.6	281.1	24.8	63.9	0	0
16967	2012-01-04T22:00:00	ND	ND	ND	1520.59	ND	ND	0.5	279.9	24.4	66.9	0	0
16968	2012-01-04T23:00:00	ND	ND	ND	754.07	ND	ND	0.8	222.2	24.2	67	0	0
16969	2012-01-05T00:00:00	ND	ND	ND	876.79	ND	ND	1.3	175.3	23.2	76.5	0	0
16970	2012-01-05T01:00:00	ND	ND	ND	613.44	ND	ND	0.9	130.3	22.5	79.1	0	0
16971	2012-01-05T02:00:00	ND	ND	ND	601.67	ND	ND	0.5	121.2	22.3	78.6	0	0
16972	2012-01-05T03:00:00	ND	ND	ND	579.16	ND	ND	0.4	74	22.4	78.7	0	0
16973	2012-01-05T04:00:00	ND	ND	ND	647.08	ND	ND	1	329.6	22.3	80.2	0	0
16974	2012-01-05T05:00:00	ND	ND	ND	679.98	ND	ND	1.6	22	21.8	81.8	0	0
16975	2012-01-05T06:00:00	ND	ND	ND	881.28	ND	ND	1.1	11.8	20.9	88.5	0	0.76
16976	2012-01-05T07:00:00	ND	ND	ND	1433.93	ND	ND	0.5	50.5	20.7	90	0	0.25
16977	2012-01-05T08:00:00	ND	ND	ND	1976.56	ND	ND	1.7	16.3	20.8	89.9	25.7	0
16978	2012-01-05T09:00:00	ND	ND	ND	1567.28	ND	ND	2	12.6	20.3	90.5	60.3	4.06
16979	2012-01-05T10:00:00	ND	ND	ND	1410.38	ND	ND	1	32.4	20.5	89.3	158.6	1.27
16980	2012-01-05T11:00:00	ND	ND	ND	1564.49	ND	ND	1.4	74.8	21.9	84.4	287.7	0
16981	2012-01-05T12:00:00	ND	ND	ND	1319.09	ND	ND	1.2	48	22.8	80.4	292.1	0
16982	2012-01-05T13:00:00	ND	ND	ND	1233.52	ND	ND	1.3	53.3	24.1	72.1	467.4	0
16983	2012-01-05T14:00:00	ND	ND	ND	1048.10	ND	ND	1.6	71.6	26.6	60.5	615.2	0
16984	2012-01-05T15:00:00	ND	ND	ND	1059.97	ND	ND	0.9	42.1	26.7	58.2	187	0
16985	2012-01-05T16:00:00	ND	ND	ND	1049.15	ND	ND	1.1	308.7	26.9	54.4	157.3	0
16986	2012-01-05T17:00:00	ND	ND	ND	818.02	ND	ND	3.2	267.6	26.7	53.5	167	0
16987	2012-01-05T18:00:00	ND	ND	ND	790.47	ND	ND	3.8	284.9	25	60.4	15.5	0
16988	2012-01-05T19:00:00	ND	ND	ND	765.24	ND	ND	4	288.6	24.1	62	0	0
16989	2012-01-05T20:00:00	ND	ND	ND	718.34	ND	ND	3.8	277.3	23.6	63.4	0	0
16990	2012-01-05T21:00:00	ND	ND	ND	899.26	ND	ND	0.4	255.9	23.1	68	0	0
16991	2012-01-05T22:00:00	ND	ND	ND	475.67	ND	ND	1.9	264	21.6	75.3	0	0
16992	2012-01-05T23:00:00	ND	ND	ND	497.98	ND	ND	2.6	245.9	21.4	78.3	0	0
16993	2012-01-06T00:00:00	ND	ND	ND	451.78	ND	ND	1.5	240.2	20.8	79.9	0	0
16994	2012-01-06T01:00:00	ND	ND	ND	608.87	ND	ND	1.2	211.1	20.3	86.2	0	0
16995	2012-01-06T02:00:00	ND	ND	ND	597.39	ND	ND	0.9	169.2	20.2	88.4	0	0
16996	2012-01-06T03:00:00	ND	ND	ND	563.39	ND	ND	0.6	194.5	20.1	89.9	0	0
16997	2012-01-06T04:00:00	ND	ND	ND	518.31	ND	ND	1.1	176	20.1	90.3	0	0
16998	2012-01-06T05:00:00	ND	ND	ND	494.93	ND	ND	1.4	165.9	19.6	93.4	0	0
16999	2012-01-06T06:00:00	ND	ND	ND	742.15	ND	ND	1.1	147.5	19.5	94.3	0	0
17000	2012-01-06T07:00:00	ND	ND	ND	1384.04	ND	ND	0.8	154.9	19.7	93.1	2.2	0
17001	2012-01-06T08:00:00	ND	ND	ND	2038.76	ND	ND	0.5	189.5	20	92.4	28.2	0
17002	2012-01-06T09:00:00	ND	ND	ND	1830.97	ND	ND	1.2	174.8	21	84.3	139.2	0
17003	2012-01-06T10:00:00	ND	ND	ND	1223.97	ND	ND	1.5	159	21.8	80.5	300	0
17004	2012-01-06T11:00:00	ND	ND	ND	1001.71	ND	ND	1.9	167.8	23.1	74	483.9	0
17005	2012-01-06T12:00:00	ND	ND	ND	939.71	ND	ND	1.9	202.6	25.1	62.8	660.2	0
17006	2012-01-06T13:00:00	ND	ND	ND	783.46	ND	ND	1.4	186.2	26.7	54.7	754.7	0
17007	2012-01-06T14:00:00	ND	ND	ND	913.23	ND	ND	1.5	141.5	27.7	52.6	761.6	0
17008	2012-01-06T15:00:00	ND	ND	ND	1052.65	ND	ND	1.6	132.4	27.9	51.5	621.2	0
17009	2012-01-06T16:00:00	ND	ND	ND	1055.80	ND	ND	0.3	150.8	28.8	48.1	411.2	0
17010	2012-01-06T17:00:00	ND	ND	ND	1076.15	ND	ND	2.5	282.6	24.8	68.8	40.9	19.56
17011	2012-01-06T18:00:00	ND	ND	ND	1539.30	ND	ND	1.4	311.9	23.6	76.7	20.5	0
17012	2012-01-06T19:00:00	ND	ND	ND	1529.45	ND	ND	1.4	281.2	23.9	68.3	0	0
17013	2012-01-06T20:00:00	ND	ND	ND	1788.95	ND	ND	0.7	250.4	23.4	70.6	0	0
17014	2012-01-06T21:00:00	ND	ND	ND	2004.09	ND	ND	0.4	ND	23.2	74	0	0
17015	2012-01-06T22:00:00	ND	ND	ND	1228.54	ND	ND	1.7	218.6	22.9	74.1	0	0
17016	2012-01-06T23:00:00	ND	ND	ND	1622.83	ND	ND	1.5	168.9	22.2	83.1	0	0
17017	2012-01-07T00:00:00	ND	ND	ND	1123.11	ND	ND	1.1	181.2	22.1	83.2	0	0
17018	2012-01-07T01:00:00	ND	ND	ND	1213.46	ND	ND	0.8	221.1	22	82	0	0
17019	2012-01-07T02:00:00	ND	ND	ND	827.87	ND	ND	0	ND	22	79.7	0	0
17020	2012-01-07T03:00:00	ND	ND	ND	838.08	ND	ND	0.5	94.4	21.6	83.3	0	0
17021	2012-01-07T04:00:00	ND	ND	ND	678.60	ND	ND	0.4	26.2	21.2	87.8	0	0
17022	2012-01-07T05:00:00	ND	ND	ND	825.07	ND	ND	0.4	43.1	21	86.9	0	0
17023	2012-01-07T06:00:00	ND	ND	ND	666.84	ND	ND	0.1	ND	21	87.7	0	0
17024	2012-01-07T07:00:00	ND	ND	ND	905.41	ND	ND	0.3	ND	21.4	81.6	16.8	0
17025	2012-01-07T08:00:00	ND	ND	ND	1686.33	ND	ND	1.4	61.4	21.4	85.9	66.7	0
17026	2012-01-07T09:00:00	ND	ND	ND	1713.03	ND	ND	1.1	27.7	22.1	82.7	128.5	0
17027	2012-01-07T10:00:00	ND	ND	ND	1393.42	ND	ND	1	93.8	24.1	71.6	535.2	0
17028	2012-01-07T11:00:00	ND	ND	ND	1010.16	ND	ND	0.8	101.6	25.6	62.5	398.8	0
17029	2012-01-07T12:00:00	ND	ND	ND	1036.24	ND	ND	0.5	53.5	26.5	58.4	341.4	0
17030	2012-01-07T13:00:00	ND	ND	ND	1062.45	ND	ND	0.8	56.1	27.4	54.4	533.3	0
17031	2012-01-07T14:00:00	ND	ND	ND	1146.33	ND	ND	0.7	9.6	28.2	50.7	348.4	0
17032	2012-01-07T15:00:00	ND	ND	ND	1237.73	ND	ND	2.1	15.3	27.9	52.4	245.6	0
17033	2012-01-07T16:00:00	ND	ND	ND	924.79	ND	ND	2.5	280.2	27.7	52	232.7	0
17034	2012-01-07T17:00:00	ND	ND	ND	910.80	ND	ND	3.1	267.4	26.9	54.9	166.1	0
17035	2012-01-07T18:00:00	ND	ND	ND	759.15	ND	ND	2.7	280	26.2	55.7	71.1	0
17036	2012-01-07T19:00:00	ND	ND	ND	940.03	ND	ND	2.7	269.4	25.2	58.7	0	0
17037	2012-01-07T20:00:00	ND	ND	ND	640.89	ND	ND	3.7	263.3	24.7	60	0	0
17038	2012-01-07T21:00:00	ND	ND	ND	639.60	ND	ND	3	265.2	24.1	62.7	0	0
17039	2012-01-07T22:00:00	ND	ND	ND	582.10	ND	ND	2.3	241.3	23.9	64.7	0	0
17040	2012-01-07T23:00:00	ND	ND	ND	718.58	ND	ND	1.5	241.6	23.7	67.2	0	0
17041	2012-01-08T00:00:00	ND	ND	ND	558.71	ND	ND	1.3	256.5	23.6	66.5	0	0
17042	2012-01-08T01:00:00	ND	ND	ND	694.36	ND	ND	0.8	284.1	23.1	69	0	0
17043	2012-01-08T02:00:00	ND	ND	ND	590.52	ND	ND	1	181	22.4	75	0	0
17044	2012-01-08T03:00:00	ND	ND	ND	713.98	ND	ND	0.5	138.3	21.8	81.5	0	0
17045	2012-01-08T04:00:00	ND	ND	ND	736.65	ND	ND	1	14.3	21.8	83.1	0	0
17046	2012-01-08T05:00:00	ND	ND	ND	564.15	ND	ND	0.9	330.3	20.5	90.1	0	21.08
17047	2012-01-08T06:00:00	ND	ND	ND	540.85	ND	ND	0.8	247.8	20.1	92.2	0	1.78
17048	2012-01-08T07:00:00	ND	ND	ND	722.36	ND	ND	0.4	223.2	20.6	89.5	1.1	0
17049	2012-01-08T08:00:00	ND	ND	ND	950.04	ND	ND	0.2	306.5	21.2	86.6	59.2	0
17050	2012-01-08T09:00:00	ND	ND	ND	1237.40	ND	ND	0.6	68.6	22.3	84.3	175.8	0
17051	2012-01-08T10:00:00	ND	ND	ND	1354.12	ND	ND	0.8	125.8	23	79.1	185	0
17052	2012-01-08T11:00:00	ND	ND	ND	1013.43	ND	ND	0.7	177	23.2	77.1	197.3	0
17053	2012-01-08T12:00:00	ND	ND	ND	777.97	ND	ND	1.1	251.9	24.6	70.4	531.3	0
17054	2012-01-08T13:00:00	ND	ND	ND	818.02	ND	ND	0.7	171.5	26.7	60.3	612.3	0
17055	2012-01-08T14:00:00	ND	ND	ND	865.55	ND	ND	1	177.9	27.2	59.2	418.7	0
17056	2012-01-08T15:00:00	ND	ND	ND	699.76	ND	ND	1.8	272.1	25.4	65	58.3	0
17057	2012-01-08T16:00:00	ND	ND	ND	722.70	ND	ND	1.7	238.1	25.4	66.1	251.8	0
17058	2012-01-08T17:00:00	ND	ND	ND	485.19	ND	ND	1.4	269.8	27.5	54.7	324	0
17059	2012-01-08T18:00:00	ND	ND	ND	885.97	ND	ND	0.3	224.9	26.3	60.4	66.5	0
17060	2012-01-08T19:00:00	ND	ND	ND	973.77	ND	ND	1.1	260.1	25	66	0	0
17061	2012-01-08T20:00:00	ND	ND	ND	606.56	ND	ND	1.3	287.6	24.7	62	0	0
17062	2012-01-08T21:00:00	ND	ND	ND	583.48	ND	ND	1.3	274.5	24.6	61.3	0	0
17063	2012-01-08T22:00:00	ND	ND	ND	821.79	ND	ND	1.7	229.1	23.9	67.9	0	0
17064	2012-01-08T23:00:00	ND	ND	ND	1034.46	ND	ND	1.3	164	22.7	80.3	0	0
17065	2012-01-09T00:00:00	ND	ND	ND	715.68	ND	ND	0.2	169.7	22.5	78	0	0
17066	2012-01-09T01:00:00	ND	ND	ND	794.39	ND	ND	1	108.5	22.2	82.5	0	0
17067	2012-01-09T02:00:00	ND	ND	ND	441.69	ND	ND	0.6	186.9	21.6	83.6	0	0
17068	2012-01-09T03:00:00	ND	ND	ND	509.30	ND	ND	0.1	250.4	21.4	84.7	0	0
17069	2012-01-09T04:00:00	ND	ND	ND	600.45	ND	ND	0.4	328.1	21.7	83.9	0	0
17070	2012-01-09T05:00:00	ND	ND	ND	543.43	ND	ND	0.2	261	21.5	81	0	0
17071	2012-01-09T06:00:00	ND	ND	ND	689.67	ND	ND	0.1	ND	21.1	86.4	0	0
17072	2012-01-09T07:00:00	ND	ND	ND	621.63	ND	ND	0.8	252	21	81	1.2	0
17073	2012-01-09T08:00:00	ND	ND	ND	962.98	ND	ND	0.3	338.4	21.7	80.3	84.2	0
17074	2012-01-09T09:00:00	ND	ND	ND	944.47	ND	ND	0.4	67.6	23	77.8	198.7	0
17075	2012-01-09T10:00:00	ND	ND	ND	710.75	ND	ND	0.7	180.3	25.2	65.5	541	0
17076	2012-01-09T11:00:00	ND	ND	ND	783.98	ND	ND	1.1	122.4	26.9	58.2	693.7	0
17077	2012-01-09T12:00:00	ND	ND	ND	753.14	ND	ND	0.8	137.9	28.4	52.8	642.6	0
17078	2012-01-09T13:00:00	ND	ND	ND	777.60	ND	ND	1.1	143.9	28.9	51.5	529.6	0
17079	2012-01-09T14:00:00	ND	ND	ND	768.28	ND	ND	0.8	81.1	29.8	47.8	650.5	0
17080	2012-01-09T15:00:00	ND	ND	ND	629.63	ND	ND	0.7	5.9	30.3	46.4	415	0
17081	2012-01-09T16:00:00	ND	ND	ND	628.38	ND	ND	1	33	29.7	48.5	138	0
17082	2012-01-09T17:00:00	ND	ND	ND	508.97	ND	ND	2.7	273.5	27.9	57.4	112.2	5.33
17083	2012-01-09T18:00:00	ND	ND	ND	482.61	ND	ND	3.8	267.2	25.9	62.5	31.9	0.25
17084	2012-01-09T19:00:00	ND	ND	ND	459.01	ND	ND	4.3	266.6	25.5	61.7	0	0
17085	2012-01-09T20:00:00	ND	ND	ND	538.44	ND	ND	3.5	264.3	25	63.8	0	0
17086	2012-01-09T21:00:00	ND	ND	ND	721.49	ND	ND	1.2	300.7	24.9	64.6	0	0
17087	2012-01-09T22:00:00	ND	ND	ND	811.47	ND	ND	0.8	256.5	24.3	68.4	0	0
17088	2012-01-09T23:00:00	ND	ND	ND	422.74	ND	ND	1.7	239.1	24.2	67.4	0	0
17089	2012-01-10T00:00:00	ND	ND	ND	866.86	ND	ND	0.4	296.9	23.7	71.5	0	0
17090	2012-01-10T01:00:00	ND	ND	ND	853.73	ND	ND	1	160	23.1	76.9	0	0
17091	2012-01-10T02:00:00	ND	ND	ND	500.35	ND	ND	0.6	117	22.8	77.7	0	0
17092	2012-01-10T03:00:00	ND	ND	ND	510.85	ND	ND	0.7	93.9	22.3	79.1	0	0
17093	2012-01-10T04:00:00	ND	ND	ND	760.34	ND	ND	0.1	ND	22.2	79.4	0	0
17094	2012-01-10T05:00:00	ND	ND	ND	760.09	ND	ND	0.1	ND	22.1	79.5	0	0
17095	2012-01-10T06:00:00	ND	ND	ND	997.99	ND	ND	0.5	196.2	22	79.8	0	0
17096	2012-01-10T07:00:00	ND	ND	ND	1293.28	ND	ND	0.3	ND	22.1	80.5	3.1	0
17097	2012-01-10T08:00:00	ND	ND	ND	2308.41	ND	ND	0.4	246	22.8	76.8	87.2	0
17098	2012-01-10T09:00:00	ND	ND	ND	2305.58	ND	ND	0.4	133.3	23.9	71.6	160.2	0
17099	2012-01-10T10:00:00	ND	ND	ND	1798.60	ND	ND	0.9	118.7	25	67.4	354	0
17100	2012-01-10T11:00:00	ND	ND	ND	1114.60	ND	ND	0.2	99.5	25.9	63.1	283.8	0
17101	2012-01-10T12:00:00	ND	ND	ND	1407.96	ND	ND	0.5	138.3	27.2	59.1	587.7	0
17102	2012-01-10T13:00:00	ND	ND	ND	1136.26	ND	ND	0.8	149.7	28.6	54	558.5	0
17103	2012-01-10T14:00:00	ND	ND	ND	1221.05	ND	ND	1	106.2	29.5	50.7	534.2	0
17104	2012-01-10T15:00:00	ND	ND	ND	1116.39	ND	ND	0.8	46.2	29.5	50.1	283.2	0
17105	2012-01-10T16:00:00	ND	ND	ND	857.42	ND	ND	3.2	287.5	28.4	51.6	190.9	0
17106	2012-01-10T17:00:00	ND	ND	ND	903.47	ND	ND	4.2	273.6	28.3	51.2	240.7	0
17107	2012-01-10T18:00:00	ND	ND	ND	750.64	ND	ND	3.9	275.8	27.4	53.5	63.8	0
17108	2012-01-10T19:00:00	ND	ND	ND	883.89	ND	ND	4	273.3	25.6	60.9	0	0
17109	2012-01-10T20:00:00	ND	ND	ND	527.33	ND	ND	4	279	25.2	60.2	0	0
17110	2012-01-10T21:00:00	ND	ND	ND	527.16	ND	ND	3.4	278.1	25.1	60.1	0	0
17111	2012-01-10T22:00:00	ND	ND	ND	446.64	ND	ND	2	290.9	24.9	59.9	0	0
17112	2012-01-10T23:00:00	ND	ND	ND	412.00	ND	ND	2.1	261.7	24.7	60.9	0	0
17113	2012-01-11T00:00:00	ND	ND	ND	479.54	ND	ND	1.6	208	24	69.5	0	0
17114	2012-01-11T01:00:00	ND	ND	ND	489.97	ND	ND	1.7	203.7	23.4	75.7	0	0
17115	2012-01-11T02:00:00	ND	ND	ND	467.18	ND	ND	1.3	214.2	23.4	74.3	0	0
17116	2012-01-11T03:00:00	ND	ND	ND	467.02	ND	ND	0.8	159.6	23.3	72.7	0	0
17117	2012-01-11T04:00:00	ND	ND	ND	624.16	ND	ND	0.7	98.1	22.2	81.8	0	0
17118	2012-01-11T05:00:00	ND	ND	ND	612.61	ND	ND	0.3	141.5	22.1	81.9	0	0
17119	2012-01-11T06:00:00	ND	ND	ND	771.95	ND	ND	0.1	82.2	22.3	80.9	0	0
17120	2012-01-11T07:00:00	ND	ND	ND	1283.24	ND	ND	0.4	111.3	22.4	81.9	3.7	0
17121	2012-01-11T08:00:00	ND	ND	ND	1935.12	ND	ND	0.4	132.9	23.1	76.2	103.5	0
17122	2012-01-11T09:00:00	ND	ND	ND	1408.15	ND	ND	1.4	156.8	24.8	69.5	398.5	0
17123	2012-01-11T10:00:00	ND	ND	ND	976.71	ND	ND	1.6	171.5	25.9	63.8	421.2	0
17124	2012-01-11T11:00:00	ND	ND	ND	1209.75	ND	ND	0.8	97.4	26.7	60.6	512.3	0
17125	2012-01-11T12:00:00	ND	ND	ND	923.87	ND	ND	0.8	24.3	27.4	57.3	302.6	0
17126	2012-01-11T13:00:00	ND	ND	ND	1159.83	ND	ND	0.8	29	28.7	52	611.1	0
17127	2012-01-11T14:00:00	ND	ND	ND	1013.74	ND	ND	1.4	15.3	30.1	47.6	687.3	0
17128	2012-01-11T15:00:00	ND	ND	ND	1012.40	ND	ND	1.1	330.7	29.7	47.2	226.7	0
17129	2012-01-11T16:00:00	ND	ND	ND	745.49	ND	ND	2	329.2	30	46.5	437.2	0
17130	2012-01-11T17:00:00	ND	ND	ND	1023.70	ND	ND	3.5	275.4	29.6	47.4	284.5	0
17131	2012-01-11T18:00:00	ND	ND	ND	1191.85	ND	ND	3.1	277.1	28	50.9	55	0
17132	2012-01-11T19:00:00	ND	ND	ND	954.68	ND	ND	4.1	269.1	26.2	57.7	0	0
17133	2012-01-11T20:00:00	ND	ND	ND	735.16	ND	ND	3.7	272.3	25.8	58.8	0	0
17134	2012-01-11T21:00:00	ND	ND	ND	653.22	ND	ND	2.4	276.4	25.1	61.5	0	0
17135	2012-01-11T22:00:00	ND	ND	ND	1257.63	ND	ND	0.1	296.1	24.4	66.2	0	0
17136	2012-01-11T23:00:00	ND	ND	ND	502.88	ND	ND	1.6	231.5	24.3	64.4	0	0
17137	2012-01-12T00:00:00	ND	ND	ND	752.29	ND	ND	1.3	214.1	23.5	70.3	0	0
17138	2012-01-12T01:00:00	ND	ND	ND	979.27	ND	ND	0.3	274.7	23.2	71.4	0	0
17139	2012-01-12T02:00:00	ND	ND	ND	557.96	ND	ND	1.6	203.2	23.2	71.1	0	0
17140	2012-01-12T03:00:00	ND	ND	ND	682.75	ND	ND	0.5	184.3	23	72.8	0	0
17141	2012-01-12T04:00:00	ND	ND	ND	613.44	ND	ND	0.7	188.6	22.5	78.3	0	0
17142	2012-01-12T05:00:00	ND	ND	ND	658.43	ND	ND	0.6	133.2	22.3	80.1	0	0
17143	2012-01-12T06:00:00	ND	ND	ND	964.29	ND	ND	0.9	148.7	22.1	81.1	0	0
17144	2012-01-12T07:00:00	ND	ND	ND	1214.28	ND	ND	0.9	179.3	22.2	78.5	5.5	0
17145	2012-01-12T08:00:00	ND	ND	ND	2046.18	ND	ND	0.5	176.8	22.7	76.6	39.1	0
17146	2012-01-12T09:00:00	ND	ND	ND	2576.91	ND	ND	0.6	141.5	23.6	73	107.6	0
17147	2012-01-12T10:00:00	ND	ND	ND	2311.02	ND	ND	0.9	141.5	24.6	70.2	273.1	0
17148	2012-01-12T11:00:00	ND	ND	ND	1197.43	ND	ND	1.1	165.9	26.5	62.3	597.4	0
17149	2012-01-12T12:00:00	ND	ND	ND	891.00	ND	ND	1	197.2	28	56.3	619.8	0
17150	2012-01-12T13:00:00	ND	ND	ND	1357.45	ND	ND	1.3	59.8	28.8	53.3	370.1	0
17151	2012-01-12T14:00:00	ND	ND	ND	1126.16	ND	ND	0.8	33.9	29	51.9	412.2	0
17152	2012-01-12T15:00:00	ND	ND	ND	1291.25	ND	ND	0.6	57.4	29.6	50.1	274.1	0
17153	2012-01-12T16:00:00	ND	ND	ND	1162.14	ND	ND	1	25.7	29.3	50.6	130.3	0
17154	2012-01-12T17:00:00	ND	ND	ND	1021.67	ND	ND	2.2	275.2	29	50.4	147.2	0
17155	2012-01-12T18:00:00	ND	ND	ND	1144.05	ND	ND	2.8	275.4	27.6	53.3	45.1	0
17156	2012-01-12T19:00:00	ND	ND	ND	1139.86	ND	ND	3.4	269.4	26.5	56.3	0	0
17157	2012-01-12T20:00:00	ND	ND	ND	1068.99	ND	ND	2.7	265.2	26	58.1	0	0
17158	2012-01-12T21:00:00	ND	ND	ND	1044.25	ND	ND	1.5	257.1	25.5	60	0	0
17159	2012-01-12T22:00:00	ND	ND	ND	1694.36	ND	ND	0.2	171.1	24.8	64.3	0	0
17160	2012-01-12T23:00:00	ND	ND	ND	584.26	ND	ND	1.9	259.3	25	63.6	0	0
17161	2012-01-13T00:00:00	ND	ND	ND	492.61	ND	ND	1.4	260.1	25	64.4	0	0
17162	2012-01-13T01:00:00	ND	ND	ND	469.23	ND	ND	0.8	237.4	24.7	66.4	0	0
17163	2012-01-13T02:00:00	ND	ND	ND	728.76	ND	ND	1.3	175.6	23.2	76.4	0	0
17164	2012-01-13T03:00:00	ND	ND	ND	670.69	ND	ND	0.5	166	22.7	77.8	0	0
17165	2012-01-13T04:00:00	ND	ND	ND	785.16	ND	ND	0.2	ND	23	77.7	0	0
17166	2012-01-13T05:00:00	ND	ND	ND	694.83	ND	ND	1.1	209.8	23.3	75.9	0	0
17167	2012-01-13T06:00:00	ND	ND	ND	956.82	ND	ND	0.7	184.4	23.3	75.1	0	0
17168	2012-01-13T07:00:00	ND	ND	ND	1761.99	ND	ND	0.5	124.8	22.7	80	8.9	0
17169	2012-01-13T08:00:00	ND	ND	ND	2291.08	ND	ND	0.6	111.4	23.5	76	80.4	0
17170	2012-01-13T09:00:00	ND	ND	ND	2406.58	ND	ND	0.6	120.4	25.1	68.6	284.6	0
17171	2012-01-13T10:00:00	ND	ND	ND	1482.79	ND	ND	0.8	102.4	26	65	292.2	0
17172	2012-01-13T11:00:00	ND	ND	ND	1583.06	ND	ND	1.4	43.3	25.4	68.7	157	0
17173	2012-01-13T12:00:00	ND	ND	ND	1528.26	ND	ND	1	63.7	25.9	67.1	295.6	0
17174	2012-01-13T13:00:00	ND	ND	ND	1304.53	ND	ND	1	44.9	27.3	62.1	433	0
17175	2012-01-13T14:00:00	ND	ND	ND	1522.35	ND	ND	1.6	53.9	27	62.7	251.7	0
17176	2012-01-13T15:00:00	ND	ND	ND	1331.60	ND	ND	0.8	49.1	28.2	58.2	446.2	0
17177	2012-01-13T16:00:00	ND	ND	ND	1191.85	ND	ND	0.6	56	28	58.6	153.7	0
17178	2012-01-13T17:00:00	ND	ND	ND	1607.36	ND	ND	0.7	300.9	27.8	57.2	64.6	0
17179	2012-01-13T18:00:00	ND	ND	ND	1037.97	ND	ND	2.3	273	27	56.5	21	0
17180	2012-01-13T19:00:00	ND	ND	ND	1103.84	ND	ND	2.9	271.2	26.1	59	0	0
17181	2012-01-13T20:00:00	ND	ND	ND	907.76	ND	ND	2.6	276.6	25.9	59.9	0	0
17182	2012-01-13T21:00:00	ND	ND	ND	791.53	ND	ND	2.1	279.9	25.4	62.5	0	0
17183	2012-01-13T22:00:00	ND	ND	ND	1419.60	ND	ND	0.3	339.5	24.8	65.4	0	0
17184	2012-01-13T23:00:00	ND	ND	ND	1781.75	ND	ND	0.5	191.5	24.1	70.4	0	0
17185	2012-01-14T00:00:00	ND	ND	ND	1267.78	ND	ND	1.4	194.5	24.1	73.5	0	0
17186	2012-01-14T01:00:00	ND	ND	ND	832.36	ND	ND	1.4	175.2	23.6	77.4	0	0
17187	2012-01-14T02:00:00	ND	ND	ND	785.69	ND	ND	0.9	134.8	23.2	78.1	0	0
17188	2012-01-14T03:00:00	ND	ND	ND	648.83	ND	ND	0.3	202.2	23.1	77.2	0	0
17189	2012-01-14T04:00:00	ND	ND	ND	648.61	ND	ND	1.1	193.7	23	78.9	0	0
17190	2012-01-14T05:00:00	ND	ND	ND	682.29	ND	ND	0.4	194.4	22.8	78.8	0	0
17191	2012-01-14T06:00:00	ND	ND	ND	1350.92	ND	ND	0.5	48.4	22.3	81.6	0	0
17192	2012-01-14T07:00:00	ND	ND	ND	1925.31	ND	ND	0.7	71.6	21.6	84.7	12	0
17193	2012-01-14T08:00:00	ND	ND	ND	2486.99	ND	ND	0.9	64.9	22.4	81.8	109.2	0
17194	2012-01-14T09:00:00	ND	ND	ND	1974.58	ND	ND	1.6	45	23.9	74.2	293.5	0
17195	2012-01-14T10:00:00	ND	ND	ND	1389.91	ND	ND	1	77.2	25.8	65	492.5	0
17196	2012-01-14T11:00:00	ND	ND	ND	1605.22	ND	ND	1.5	127.5	27.4	57.4	571.2	0
17197	2012-01-14T12:00:00	ND	ND	ND	1217.42	ND	ND	0.6	167.6	28.6	52.6	528.4	0
17198	2012-01-14T13:00:00	ND	ND	ND	1454.11	ND	ND	1.1	59.8	29.6	49.1	507.5	0
17199	2012-01-14T14:00:00	ND	ND	ND	1361.05	ND	ND	0.6	33.4	29.6	48.6	262.4	0
17200	2012-01-14T15:00:00	ND	ND	ND	1083.65	ND	ND	1.3	317.6	30.1	47.2	319.2	0
17201	2012-01-14T16:00:00	ND	ND	ND	907.97	ND	ND	2.9	293.9	29.8	47.5	387.5	0
17202	2012-01-14T17:00:00	ND	ND	ND	961.70	ND	ND	3.5	275.1	28.4	49.2	119.5	0
17203	2012-01-14T18:00:00	ND	ND	ND	887.45	ND	ND	4.4	272	26.8	52.4	28.3	0
17204	2012-01-14T19:00:00	ND	ND	ND	780.32	ND	ND	3.7	266.6	25.5	60.2	0	0
17205	2012-01-14T20:00:00	ND	ND	ND	1059.34	ND	ND	1.8	234.3	23.3	75.7	0	0.51
17206	2012-01-14T21:00:00	ND	ND	ND	1218.81	ND	ND	1.7	195.5	23.3	75.3	0	0
17207	2012-01-14T22:00:00	ND	ND	ND	1625.57	ND	ND	0.8	227.4	22.7	80.3	0	0
17208	2012-01-14T23:00:00	ND	ND	ND	1538.79	ND	ND	0.7	193.8	23.5	72.4	0	0
17209	2012-01-15T00:00:00	ND	ND	ND	1320.88	ND	ND	0.9	255.4	23.2	73.1	0	0
17210	2012-01-15T01:00:00	ND	ND	ND	1295.04	ND	ND	0.6	36.8	22.5	79.4	0	0
17211	2012-01-15T02:00:00	ND	ND	ND	1463.95	ND	ND	0.7	96.2	22.2	80.9	0	0
17212	2012-01-15T03:00:00	ND	ND	ND	883.08	ND	ND	1.1	153.2	21.5	86.7	0	0
17213	2012-01-15T04:00:00	ND	ND	ND	906.95	ND	ND	0.3	304.3	21.9	83.8	0	0
17214	2012-01-15T05:00:00	ND	ND	ND	1008.98	ND	ND	0.8	89	21.9	83.5	0	3.56
17215	2012-01-15T06:00:00	ND	ND	ND	801.92	ND	ND	0.7	274	20.8	90.5	0	8.38
17216	2012-01-15T07:00:00	ND	ND	ND	689.91	ND	ND	1.1	261.3	21.2	85.1	16.6	0.25
17217	2012-01-15T08:00:00	ND	ND	ND	1325.97	ND	ND	0.2	197.8	21.8	84.7	48.6	0
17218	2012-01-15T09:00:00	ND	ND	ND	1446.13	ND	ND	0.6	10.1	23.2	80.1	265.1	0
17219	2012-01-15T10:00:00	ND	ND	ND	1369.65	ND	ND	0.7	53.9	23.9	75.5	170.5	0
17220	2012-01-15T11:00:00	ND	ND	ND	988.20	ND	ND	0.8	335	25.9	64.1	637.2	0
17221	2012-01-15T12:00:00	ND	ND	ND	1143.29	ND	ND	0.3	74	27.4	56.5	488.8	0
17222	2012-01-15T13:00:00	ND	ND	ND	893.07	ND	ND	1	329.3	28.7	51	551.5	0
17223	2012-01-15T14:00:00	ND	ND	ND	661.10	ND	ND	2.5	282.8	28.7	48.5	466.3	0
17224	2012-01-15T15:00:00	ND	ND	ND	568.88	ND	ND	4.4	279.7	29	47.3	688.3	0
17225	2012-01-15T16:00:00	ND	ND	ND	520.71	ND	ND	5.1	294.3	28	48.4	520.4	0
17226	2012-01-15T17:00:00	ND	ND	ND	564.36	ND	ND	4.7	274.1	26.6	52.1	143.3	0
17227	2012-01-15T18:00:00	ND	ND	ND	436.94	ND	ND	4.8	283.3	26.1	52.3	58.1	0
17228	2012-01-15T19:00:00	ND	ND	ND	492.61	ND	ND	4.1	270.9	25	54.2	0	0
17229	2012-01-15T20:00:00	ND	ND	ND	525.92	ND	ND	3.1	252	24.4	57	0	0
17230	2012-01-15T21:00:00	ND	ND	ND	616.55	ND	ND	2.6	262.3	24	57.6	0	0
17231	2012-01-15T22:00:00	ND	ND	ND	662.00	ND	ND	1.7	268.7	23.9	57.3	0	0
17232	2012-01-15T23:00:00	ND	ND	ND	958.76	ND	ND	0.3	323.5	23.9	59.1	0	0
17233	2012-01-16T00:00:00	ND	ND	ND	1114.78	ND	ND	0.6	33	22.9	69.9	0	0
17234	2012-01-16T01:00:00	ND	ND	ND	930.26	ND	ND	0.3	81.4	22.1	78.2	0	0
17235	2012-01-16T02:00:00	ND	ND	ND	691.08	ND	ND	0.1	ND	21.7	80.8	0	0
17236	2012-01-16T03:00:00	ND	ND	ND	555.32	ND	ND	0.6	260.7	21.8	71.3	0	0
17237	2012-01-16T04:00:00	ND	ND	ND	634.65	ND	ND	0.3	ND	21.8	73.4	0	0
17238	2012-01-16T05:00:00	ND	ND	ND	747.22	ND	ND	0.3	ND	21.5	77	0	0
17239	2012-01-16T06:00:00	ND	ND	ND	600.24	ND	ND	0.4	241.8	21.6	75.7	0	0
17240	2012-01-16T07:00:00	ND	ND	ND	1820.91	ND	ND	0.6	40.7	21.2	80.6	7.9	0
17241	2012-01-16T08:00:00	ND	ND	ND	2843.63	ND	ND	0.5	83.9	21.7	77.5	66.2	0
17242	2012-01-16T09:00:00	ND	ND	ND	2348.86	ND	ND	0.5	56.3	23.6	70.2	324.6	0
17243	2012-01-16T10:00:00	ND	ND	ND	1467.85	ND	ND	0.7	136	25.3	61.7	486.9	0
17244	2012-01-16T11:00:00	ND	ND	ND	1211.36	ND	ND	1	148.2	27.1	54.5	625.1	0
17245	2012-01-16T12:00:00	ND	ND	ND	1341.84	ND	ND	1.6	101	27.9	52.5	555.5	0
17246	2012-01-16T13:00:00	ND	ND	ND	984.55	ND	ND	0.7	17.1	28.3	51	452	0
17247	2012-01-16T14:00:00	ND	ND	ND	754.64	ND	ND	2.2	291.5	29	46.6	598.6	0
17248	2012-01-16T15:00:00	ND	ND	ND	792.61	ND	ND	2.2	264.2	30.2	41.2	696.7	0
17249	2012-01-16T16:00:00	ND	ND	ND	908.57	ND	ND	3.8	278.9	30	42.5	548	0
17250	2012-01-16T17:00:00	ND	ND	ND	833.69	ND	ND	4.9	276.9	28.2	47.9	305.9	0
17251	2012-01-16T18:00:00	ND	ND	ND	956.60	ND	ND	3.7	274.7	26.8	51.9	43.5	0
17252	2012-01-16T19:00:00	ND	ND	ND	1057.14	ND	ND	3.3	274	25.9	55.3	0	0
17253	2012-01-16T20:00:00	ND	ND	ND	894.47	ND	ND	2.9	268.3	25.3	58.6	0	0
17254	2012-01-16T21:00:00	ND	ND	ND	859.49	ND	ND	2.2	215.7	25.1	62.4	0	0
17255	2012-01-16T22:00:00	ND	ND	ND	903.21	ND	ND	2.3	184.4	24.4	67.8	0	0
17256	2012-01-16T23:00:00	ND	ND	ND	833.21	ND	ND	1.4	159.4	23.9	71	0	0
17257	2012-01-17T00:00:00	ND	ND	ND	724.33	ND	ND	1.4	162.7	21.4	87.8	0	30.99
17258	2012-01-17T01:00:00	ND	ND	ND	484.68	ND	ND	1.5	227.4	20.2	93.6	0	15.75
17259	2012-01-17T02:00:00	ND	ND	ND	383.23	ND	ND	0.7	223.5	20.2	88.2	0	8.38
17260	2012-01-17T03:00:00	ND	ND	ND	405.50	ND	ND	0.8	240.2	20	89.7	0	8.64
17261	2012-01-17T04:00:00	ND	ND	ND	449.94	ND	ND	0.8	208.9	19.6	91.5	0	3.81
17262	2012-01-17T05:00:00	ND	ND	ND	506.53	ND	ND	0.7	199.7	19.8	88.2	0	0
17263	2012-01-17T06:00:00	ND	ND	ND	642.04	ND	ND	0.9	241.6	20	87.8	0	0.25
17264	2012-01-17T07:00:00	ND	ND	ND	1083.91	ND	ND	0.4	286.3	20.7	83.7	6.2	0
17265	2012-01-17T08:00:00	ND	ND	ND	2902.72	ND	ND	0.8	84.7	20.8	86.3	73.5	0
17266	2012-01-17T09:00:00	ND	ND	ND	2489.04	ND	ND	0.6	122.6	21.3	87.1	107.1	0
17267	2012-01-17T10:00:00	ND	ND	ND	2131.34	ND	ND	0.7	157.7	21.9	84.3	199.4	0
17268	2012-01-17T11:00:00	ND	ND	ND	1746.31	ND	ND	0.4	195	23.9	73	553.4	0
17269	2012-01-17T12:00:00	ND	ND	ND	1312.57	ND	ND	0.9	137.5	26.5	61.1	659	0
17270	2012-01-17T13:00:00	ND	ND	ND	1203.43	ND	ND	1	77	28	54.4	781.8	0
17271	2012-01-17T14:00:00	ND	ND	ND	962.98	ND	ND	1	66.7	28.8	50.6	653.9	0
17272	2012-01-17T15:00:00	ND	ND	ND	1159.83	ND	ND	1.2	21.9	28.7	50.9	282.9	0
17273	2012-01-17T16:00:00	ND	ND	ND	775.54	ND	ND	3.8	278.4	28.1	50.9	510	0
17274	2012-01-17T17:00:00	ND	ND	ND	900.17	ND	ND	3.6	290.2	27.2	52.2	180.2	0
17275	2012-01-17T18:00:00	ND	ND	ND	1046.00	ND	ND	1.8	282.8	26	55.1	41.2	0
17276	2012-01-17T19:00:00	ND	ND	ND	2304.22	ND	ND	0.6	169.5	25.2	60.3	0	0
17277	2012-01-17T20:00:00	ND	ND	ND	889.98	ND	ND	1.9	231.7	23.8	70.5	0	0
17278	2012-01-17T21:00:00	ND	ND	ND	1246.64	ND	ND	1.9	164.2	21.8	85.6	0	0.25
17279	2012-01-17T22:00:00	ND	ND	ND	1426.51	ND	ND	1.1	186.5	21.5	86.9	0	0.51
17280	2012-01-17T23:00:00	ND	ND	ND	1426.51	ND	ND	0.9	209.5	21.5	87	0	0.51
17281	2012-01-18T00:00:00	ND	ND	ND	951.98	ND	ND	0.3	207.8	21.8	84.8	0	0
17282	2012-01-18T01:00:00	ND	ND	ND	634.01	ND	ND	0.9	244.8	21.5	85.9	0	2.54
17283	2012-01-18T02:00:00	ND	ND	ND	506.87	ND	ND	1.1	175	20	93.6	0	11.68
17284	2012-01-18T03:00:00	ND	ND	ND	472.44	ND	ND	1.2	186.5	19.6	94.5	0	7.11
17285	2012-01-18T04:00:00	ND	ND	ND	471.95	ND	ND	0.8	123	19.3	95.4	0	10.67
17286	2012-01-18T05:00:00	ND	ND	ND	526.33	ND	ND	1.2	98.6	18.3	97.2	0	13.46
17287	2012-01-18T06:00:00	ND	ND	ND	794.82	ND	ND	1.2	23.3	18.2	97.4	0	7.37
17288	2012-01-18T07:00:00	ND	ND	ND	1087.00	ND	ND	0.9	344.1	18.5	96.4	1.4	1.52
17289	2012-01-18T08:00:00	ND	ND	ND	2281.88	ND	ND	0.8	197.4	19.4	93.5	72.6	0
17290	2012-01-18T09:00:00	ND	ND	ND	2190.41	ND	ND	0.2	95.2	20.7	86	217.1	0.25
17291	2012-01-18T10:00:00	ND	ND	ND	2165.35	ND	ND	0.4	63.4	21.9	80.3	263.4	0
17292	2012-01-18T11:00:00	ND	ND	ND	1715.94	ND	ND	1.3	20.2	22.6	76.1	298.1	0
17293	2012-01-18T12:00:00	ND	ND	ND	1286.28	ND	ND	1.3	44.8	23.1	71.1	336.7	0
17294	2012-01-18T13:00:00	ND	ND	ND	1264.80	ND	ND	0.8	46.5	23.4	71.3	167.7	0
17295	2012-01-18T14:00:00	ND	ND	ND	1382.93	ND	ND	0.3	235.8	24.3	66.3	501.5	0
17296	2012-01-18T15:00:00	ND	ND	ND	1139.86	ND	ND	0.9	149.7	26.5	58.2	660.5	0
17297	2012-01-18T16:00:00	ND	ND	ND	1465.17	ND	ND	0.8	131.7	27.1	56.3	401.3	0
17298	2012-01-18T17:00:00	ND	ND	ND	1692.52	ND	ND	0.8	171.4	26.5	59.6	142.7	0
17299	2012-01-18T18:00:00	ND	ND	ND	2053.39	ND	ND	0.8	178.1	25.4	63.3	29.4	0
17300	2012-01-18T19:00:00	ND	ND	ND	2061.40	ND	ND	0.7	226.2	24.9	63.7	0	0
17301	2012-01-18T20:00:00	ND	ND	ND	1543.46	ND	ND	1.2	283.2	24.4	62.3	0	0
17302	2012-01-18T21:00:00	ND	ND	ND	1977.25	ND	ND	0.3	295.1	24.3	63.3	0	0
17303	2012-01-18T22:00:00	ND	ND	ND	855.75	ND	ND	1.5	269.1	23.8	65.6	0	0
17304	2012-01-18T23:00:00	ND	ND	ND	647.08	ND	ND	1.8	263.1	22.3	76.5	0	0
17305	2012-01-19T00:00:00	ND	ND	ND	555.70	ND	ND	1.2	265.1	22	76.8	0	0
17306	2012-01-19T01:00:00	ND	ND	ND	781.98	ND	ND	0.5	190.7	21.8	79.2	0	0
17307	2012-01-19T02:00:00	ND	ND	ND	815.70	ND	ND	0.8	179.9	21.7	82.5	0	0
17308	2012-01-19T03:00:00	ND	ND	ND	723.59	ND	ND	0.6	128.2	21.1	86.5	0	0
17309	2012-01-19T04:00:00	ND	ND	ND	643.35	ND	ND	0.9	130	20.6	89	0	0
17310	2012-01-19T05:00:00	ND	ND	ND	575.24	ND	ND	1.6	167.5	20.4	87.7	0	0
17311	2012-01-19T06:00:00	ND	ND	ND	901.42	ND	ND	1.2	149.8	20.1	87.5	0	0
17312	2012-01-19T07:00:00	ND	ND	ND	1487.34	ND	ND	0.5	107.8	20.1	87.9	3.9	0
17313	2012-01-19T08:00:00	ND	ND	ND	2031.65	ND	ND	0.6	67.8	20.6	87	106.8	0
17314	2012-01-19T09:00:00	ND	ND	ND	2002.55	ND	ND	1.4	71.6	21.3	84.3	138.4	0
17315	2012-01-19T10:00:00	ND	ND	ND	1308.61	ND	ND	0.5	114.1	23	74.1	423.9	0
17316	2012-01-19T11:00:00	ND	ND	ND	1216.38	ND	ND	0.6	105.7	25.5	62.3	697.1	0
17317	2012-01-19T12:00:00	ND	ND	ND	1428.66	ND	ND	1.4	101.6	26.7	57.5	682.9	0
17318	2012-01-19T13:00:00	ND	ND	ND	1247.22	ND	ND	1.2	112.9	27.4	54.3	677.2	0
17319	2012-01-19T14:00:00	ND	ND	ND	1017.95	ND	ND	0.9	193.6	27.9	52.1	590	0
17320	2012-01-19T15:00:00	ND	ND	ND	1033.96	ND	ND	0.5	240.7	29.2	48.3	498.3	0
17321	2012-01-19T16:00:00	ND	ND	ND	1395.02	ND	ND	1.3	313.3	26.9	60.4	42.3	9.65
17322	2012-01-19T17:00:00	ND	ND	ND	2460.40	ND	ND	0.1	217.8	23.3	79.8	46.4	16
17323	2012-01-19T18:00:00	ND	ND	ND	1889.62	ND	ND	1.1	295.3	24.9	64.7	24.3	0
17324	2012-01-19T19:00:00	ND	ND	ND	1634.92	ND	ND	2	277.6	24.4	64.7	0	0.25
17325	2012-01-19T20:00:00	ND	ND	ND	1221.69	ND	ND	1.9	277.6	24	66.8	0	0
17326	2012-01-19T21:00:00	ND	ND	ND	889.98	ND	ND	1.8	278	23.8	66.6	0	0
17327	2012-01-19T22:00:00	ND	ND	ND	1071.45	ND	ND	1.6	198.9	23.5	70.7	0	0
17328	2012-01-19T23:00:00	ND	ND	ND	1011.38	ND	ND	2	182.1	22.6	77.4	0	0
17329	2012-01-20T00:00:00	ND	ND	ND	873.83	ND	ND	1.5	190.4	22.2	79.1	0	0
17330	2012-01-20T01:00:00	ND	ND	ND	816.81	ND	ND	0.2	310.9	22.1	79.1	0	0
17331	2012-01-20T02:00:00	ND	ND	ND	1257.54	ND	ND	0.6	41.5	21.7	82	0	0
17332	2012-01-20T03:00:00	ND	ND	ND	972.66	ND	ND	0.1	ND	21.2	85	0	0
17333	2012-01-20T04:00:00	ND	ND	ND	972.33	ND	ND	0.4	ND	21.1	86.3	0	0
17334	2012-01-20T05:00:00	ND	ND	ND	813.21	ND	ND	0.5	77.9	20.8	89.2	0	0
17335	2012-01-20T06:00:00	ND	ND	ND	1050.40	ND	ND	0.1	ND	20.8	89.3	0	0
17336	2012-01-20T07:00:00	ND	ND	ND	1468.80	ND	ND	0.3	201.7	20.9	88.2	8.7	0
17337	2012-01-20T08:00:00	ND	ND	ND	2944.60	ND	ND	0.4	156.5	21.6	84.2	74.3	0
17338	2012-01-20T09:00:00	ND	ND	ND	3097.07	ND	ND	0.6	115.8	22.1	84	86.6	0
17339	2012-01-20T10:00:00	ND	ND	ND	1844.05	ND	ND	0.8	105.7	23.1	77.4	329.5	0
17340	2012-01-20T11:00:00	ND	ND	ND	1248.29	ND	ND	0.4	314.1	24.9	67.4	524.5	0
17341	2012-01-20T12:00:00	ND	ND	ND	1177.15	ND	ND	0.7	117.4	27.2	56.8	600.9	0
17342	2012-01-20T13:00:00	ND	ND	ND	1247.22	ND	ND	0.6	80.2	27.4	55	367.7	0
17343	2012-01-20T14:00:00	ND	ND	ND	1460.96	ND	ND	3.3	271.5	23.9	75	77.6	0
17344	2012-01-20T15:00:00	ND	ND	ND	2139.29	ND	ND	1.2	252.2	23	80.7	54.5	0.25
17345	2012-01-20T16:00:00	ND	ND	ND	2779.16	ND	ND	0.2	ND	24.5	67.3	65.5	0
17346	2012-01-20T17:00:00	ND	ND	ND	3708.03	ND	ND	1	201.3	24.7	71.2	88	0
17347	2012-01-20T18:00:00	ND	ND	ND	2382.06	ND	ND	1.1	286.9	24.9	66.6	31.9	0
17348	2012-01-20T19:00:00	ND	ND	ND	1864.83	ND	ND	1.2	277.1	24.6	64.1	0	0
17349	2012-01-20T20:00:00	ND	ND	ND	1760.09	ND	ND	1.4	284.6	24.3	65.5	0	0
17350	2012-01-20T21:00:00	ND	ND	ND	992.66	ND	ND	2.4	264.4	23.8	68.4	0	0
17351	2012-01-20T22:00:00	ND	ND	ND	866.57	ND	ND	2.3	259.7	23.6	69.1	0	0
17352	2012-01-20T23:00:00	ND	ND	ND	1764.37	ND	ND	0.7	225.2	23.1	72.4	0	0
17353	2012-01-21T00:00:00	ND	ND	ND	2225.80	ND	ND	0.8	233.5	22.4	75.7	0	0
17354	2012-01-21T01:00:00	ND	ND	ND	2065.41	ND	ND	0.3	ND	22.2	75.9	0	0
17355	2012-01-21T02:00:00	ND	ND	ND	793.85	ND	ND	0.4	208.9	22	75.3	0	0
17356	2012-01-21T03:00:00	ND	ND	ND	905.72	ND	ND	0.2	81.2	21.5	81.4	0	0
17357	2012-01-21T04:00:00	ND	ND	ND	915.80	ND	ND	1.1	163.6	21.1	84.9	0	0
17358	2012-01-21T05:00:00	ND	ND	ND	643.57	ND	ND	1.2	196	20.7	86.7	0	0
17359	2012-01-21T06:00:00	ND	ND	ND	847.10	ND	ND	0.8	172.3	20.8	85.5	0	0
17360	2012-01-21T07:00:00	ND	ND	ND	1254.56	ND	ND	0.7	169.7	21	84.6	2.8	0
17361	2012-01-21T08:00:00	ND	ND	ND	1776.27	ND	ND	0.9	111	21.3	83.2	98.8	0
17362	2012-01-21T09:00:00	ND	ND	ND	1260.96	ND	ND	0.1	107.7	22.5	77	269.6	0
17363	2012-01-21T10:00:00	ND	ND	ND	1483.29	ND	ND	1.1	35.5	23.8	71.4	344.3	0
17364	2012-01-21T11:00:00	ND	ND	ND	1512.71	ND	ND	1.2	91.9	25.1	67	566.5	0
17365	2012-01-21T12:00:00	ND	ND	ND	1127.59	ND	ND	0.6	352.3	26.3	60.5	390.8	0
17366	2012-01-21T13:00:00	ND	ND	ND	1175.19	ND	ND	1.1	30.6	26.7	58.2	396.5	0
17367	2012-01-21T14:00:00	ND	ND	ND	1018.62	ND	ND	1.1	359.3	28.1	51.3	584.7	0
17368	2012-01-21T15:00:00	ND	ND	ND	835.08	ND	ND	3.4	272	28.7	47.8	560.6	0
17369	2012-01-21T16:00:00	ND	ND	ND	889.81	ND	ND	4.1	274.4	27.6	51.4	312.3	0
17370	2012-01-21T17:00:00	ND	ND	ND	910.50	ND	ND	3.1	264.2	26.8	53.9	168.7	0
17371	2012-01-21T18:00:00	ND	ND	ND	1312.14	ND	ND	1.4	153.2	23.8	72.6	28.9	0
17372	2012-01-21T19:00:00	ND	ND	ND	1846.54	ND	ND	0.5	157.6	23.5	71.9	0	0
17373	2012-01-21T20:00:00	ND	ND	ND	2041.00	ND	ND	0.7	59.9	23.6	70.1	0	0
17374	2012-01-21T21:00:00	ND	ND	ND	2298.60	ND	ND	0.9	131.7	23	72	0	0
17375	2012-01-21T22:00:00	ND	ND	ND	2044.79	ND	ND	1.6	125.1	22.5	76.7	0	0
17376	2012-01-21T23:00:00	ND	ND	ND	1179.04	ND	ND	0.8	161.6	21.9	80.5	0	0
17377	2012-01-22T00:00:00	ND	ND	ND	1246.64	ND	ND	0.7	186.2	21.8	81.6	0	0
17378	2012-01-22T01:00:00	ND	ND	ND	1245.79	ND	ND	0.7	150.2	21.6	83.6	0	0
17379	2012-01-22T02:00:00	ND	ND	ND	1018.25	ND	ND	0.6	108.2	21.3	86.6	0	0
17380	2012-01-22T03:00:00	ND	ND	ND	904.49	ND	ND	0.6	55.8	21.1	88.3	0	0
17381	2012-01-22T04:00:00	ND	ND	ND	1141.53	ND	ND	0.5	152.9	21	88.9	0	0
17382	2012-01-22T05:00:00	ND	ND	ND	779.06	ND	ND	0.6	172.2	20.7	89.4	0	0
17383	2012-01-22T06:00:00	ND	ND	ND	880.68	ND	ND	0.6	165.1	20.7	88.4	0	0
17384	2012-01-22T07:00:00	ND	ND	ND	1117.41	ND	ND	0.8	159.6	20.6	89.4	2.8	0
17385	2012-01-22T08:00:00	ND	ND	ND	1164.14	ND	ND	1.4	179.2	21	87	128.6	0
17386	2012-01-22T09:00:00	ND	ND	ND	1135.61	ND	ND	1.5	180.6	22.4	79.8	193.1	0
17387	2012-01-22T10:00:00	ND	ND	ND	888.48	ND	ND	1.2	175.2	23.3	74.2	364.5	0
17388	2012-01-22T11:00:00	ND	ND	ND	927.01	ND	ND	0.7	180	24.7	66.1	384.4	0
17389	2012-01-22T12:00:00	ND	ND	ND	862.67	ND	ND	1	206.4	26.2	59.4	679.4	0
17390	2012-01-22T13:00:00	ND	ND	ND	1120.19	ND	ND	1.3	101.9	27.4	55.1	543.1	0
17391	2012-01-22T14:00:00	ND	ND	ND	1106.80	ND	ND	0.6	105	26.9	57	235.7	0
17392	2012-01-22T15:00:00	ND	ND	ND	843.03	ND	ND	0.3	176.2	27.4	54.6	244	0
17393	2012-01-22T16:00:00	ND	ND	ND	878.84	ND	ND	0.6	213.7	27.8	53.1	213.9	0
17394	2012-01-22T17:00:00	ND	ND	ND	564.55	ND	ND	3.1	281.3	26.7	53.9	126.7	0
17395	2012-01-22T18:00:00	ND	ND	ND	609.21	ND	ND	2.3	279.1	26	56.8	68.7	0
17396	2012-01-22T19:00:00	ND	ND	ND	653.43	ND	ND	2.1	288.6	25.2	58.4	0	0
17397	2012-01-22T20:00:00	ND	ND	ND	686.90	ND	ND	1.9	287.3	24.8	59.4	0	0
17398	2012-01-22T21:00:00	ND	ND	ND	1473.37	ND	ND	1.2	202.9	24.1	65.5	0	0
17399	2012-01-22T22:00:00	ND	ND	ND	715.68	ND	ND	2.5	207.6	22.5	78	0	0
17400	2012-01-22T23:00:00	ND	ND	ND	646.86	ND	ND	2.4	202.3	22.2	79.4	0	0
17401	2012-01-23T00:00:00	ND	ND	ND	771.69	ND	ND	1.9	169.5	22.2	77	0	0
17402	2012-01-23T01:00:00	ND	ND	ND	566.08	ND	ND	1.4	178.8	21.5	82.3	0	0
17403	2012-01-23T02:00:00	ND	ND	ND	576.81	ND	ND	1	130.9	21.2	84.7	0	0
17404	2012-01-23T03:00:00	ND	ND	ND	531.03	ND	ND	1.1	143.4	20.9	86	0	0
17405	2012-01-23T04:00:00	ND	ND	ND	564.35	ND	ND	1	129.5	20.6	87.1	0	0
17406	2012-01-23T05:00:00	ND	ND	ND	687.56	ND	ND	1.6	132	20.2	91.6	0	0
17407	2012-01-23T06:00:00	ND	ND	ND	923.01	ND	ND	1.4	141.9	19.8	93.7	0	0.76
17408	2012-01-23T07:00:00	ND	ND	ND	1484.80	ND	ND	1.4	159.7	19.6	94.4	1	2.03
17409	2012-01-23T08:00:00	ND	ND	ND	1674.31	ND	ND	1	203.5	19.3	93.8	35.1	2.03
17410	2012-01-23T09:00:00	ND	ND	ND	2432.16	ND	ND	0.6	134.3	19.9	93.1	113.4	0.76
17411	2012-01-23T10:00:00	ND	ND	ND	2016.60	ND	ND	0.2	131.5	21.7	84.7	366.8	0
17412	2012-01-23T11:00:00	ND	ND	ND	2043.76	ND	ND	0.9	143.3	24	71.2	482.5	0
17413	2012-01-23T12:00:00	ND	ND	ND	894.47	ND	ND	1	181.9	25.3	61.6	593.5	0
17414	2012-01-23T13:00:00	ND	ND	ND	1046.70	ND	ND	0.3	39	26.2	58	453.2	0
17415	2012-01-23T14:00:00	ND	ND	ND	1210.96	ND	ND	0.6	54	27	54.6	323.7	0
17416	2012-01-23T15:00:00	ND	ND	ND	1522.86	ND	ND	1	50.2	27.1	54	196.5	0
17417	2012-01-23T16:00:00	ND	ND	ND	1272.85	ND	ND	1.1	339.4	28	50.1	367.4	0
17418	2012-01-23T17:00:00	ND	ND	ND	1793.57	ND	ND	2.7	279.6	28	50.3	343.8	0
17419	2012-01-23T18:00:00	ND	ND	ND	1366.93	ND	ND	3.3	272.3	25.8	57.8	79.4	0
17420	2012-01-23T19:00:00	ND	ND	ND	1428.65	ND	ND	2.7	240.1	24.3	64.1	0	0
17421	2012-01-23T20:00:00	ND	ND	ND	1361.81	ND	ND	2.6	191	22.2	79.4	0	0
17422	2012-01-23T21:00:00	ND	ND	ND	1566.08	ND	ND	1.4	162.7	22.2	76.9	0	0
17423	2012-01-23T22:00:00	ND	ND	ND	1415.67	ND	ND	0.7	208.6	21.6	80.1	0	1.27
17424	2012-01-23T23:00:00	ND	ND	ND	799.73	ND	ND	0.7	240.7	20	89.1	0	9.91
17425	2012-01-24T00:00:00	ND	ND	ND	1025.36	ND	ND	1.2	203.4	20.1	91.1	0	3.81
17426	2012-01-24T01:00:00	ND	ND	ND	969.02	ND	ND	0.8	167.4	20.1	92.8	0	1.27
17427	2012-01-24T02:00:00	ND	ND	ND	811.00	ND	ND	1	107	20	94.1	0	0.51
17428	2012-01-24T03:00:00	ND	ND	ND	787.93	ND	ND	1	73	19.8	94.8	0	1.02
17429	2012-01-24T04:00:00	ND	ND	ND	753.39	ND	ND	1	60.4	19.5	94.9	0	1.02
17430	2012-01-24T05:00:00	ND	ND	ND	922.06	ND	ND	0.8	61.9	19.5	94.4	0	0.25
17431	2012-01-24T06:00:00	ND	ND	ND	1416.82	ND	ND	0.3	85.6	19.5	94.3	0	0.51
17432	2012-01-24T07:00:00	ND	ND	ND	2058.47	ND	ND	0.9	169.9	19.6	94.4	0	0.51
17433	2012-01-24T08:00:00	ND	ND	ND	2777.43	ND	ND	0.9	182	19.5	94.8	12.3	1.02
17434	2012-01-24T09:00:00	ND	ND	ND	2836.55	ND	ND	0.5	176	19.8	93.6	61.3	1.02
17435	2012-01-24T10:00:00	ND	ND	ND	2482.28	ND	ND	0.5	130.8	20.5	90.1	141.5	0.25
17436	2012-01-24T11:00:00	ND	ND	ND	2105.09	ND	ND	0.8	138.5	21.4	86.8	263.5	0
17437	2012-01-24T12:00:00	ND	ND	ND	1727.30	ND	ND	0.5	45.9	22.6	81.1	463.6	0.25
17438	2012-01-24T13:00:00	ND	ND	ND	1676.70	ND	ND	0.6	67.5	23.7	72.4	344.8	0
17439	2012-01-24T14:00:00	ND	ND	ND	1441.53	ND	ND	0.7	309.7	24.6	65.8	266	0
17440	2012-01-24T15:00:00	ND	ND	ND	1371.50	ND	ND	2.7	268.8	24.3	60.6	235.3	0
17441	2012-01-24T16:00:00	ND	ND	ND	1360.53	ND	ND	2.3	296.8	24.4	59.2	164.4	0
17442	2012-01-24T17:00:00	ND	ND	ND	1594.16	ND	ND	1.9	269.9	23.2	68	42.1	0
17443	2012-01-24T18:00:00	ND	ND	ND	1642.74	ND	ND	2.6	263.7	21.7	74	20.8	0
17444	2012-01-24T19:00:00	ND	ND	ND	1664.83	ND	ND	1.4	292.7	21.6	69.9	0	0
17445	2012-01-24T20:00:00	ND	ND	ND	1493.93	ND	ND	0.5	319.1	21.4	71.3	0	0
17446	2012-01-24T21:00:00	ND	ND	ND	2186.68	ND	ND	1.4	150.1	20.2	87.9	0	0
17447	2012-01-24T22:00:00	ND	ND	ND	1371.85	ND	ND	1	182.4	19.5	91.1	0	1.02
17448	2012-01-24T23:00:00	ND	ND	ND	1459.80	ND	ND	0.7	191.8	19.1	92.3	0	8.13
17449	2012-01-25T00:00:00	ND	ND	ND	1155.82	ND	ND	1	201.2	18.9	94.9	0	8.64
17450	2012-01-25T01:00:00	ND	ND	ND	919.54	ND	ND	0.6	166.5	18.7	95.3	0	2.54
17451	2012-01-25T02:00:00	ND	ND	ND	851.67	ND	ND	0.8	144.3	18.5	95.6	0	0.51
17452	2012-01-25T03:00:00	ND	ND	ND	806.85	ND	ND	0.8	163.6	18.5	95.6	0	0
17453	2012-01-25T04:00:00	ND	ND	ND	795.37	ND	ND	0.7	157.9	18.4	95.5	0	1.52
17454	2012-01-25T05:00:00	ND	ND	ND	839.89	ND	ND	0.9	164.3	18.3	95.8	0	0.51
17455	2012-01-25T06:00:00	ND	ND	ND	1052.66	ND	ND	1.2	176.3	18.3	95.8	0	0
17456	2012-01-25T07:00:00	ND	ND	ND	1601.39	ND	ND	1.1	181.7	18.3	95	2.7	0.25
17457	2012-01-25T08:00:00	ND	ND	ND	2097.71	ND	ND	0.5	203.3	18.8	93	48.6	0
17458	2012-01-25T09:00:00	ND	ND	ND	2121.22	ND	ND	0.4	113.2	20.5	82.1	249.8	0
17459	2012-01-25T10:00:00	ND	ND	ND	1646.64	ND	ND	0.7	85.5	22.4	73.1	557.8	0
17460	2012-01-25T11:00:00	ND	ND	ND	1575.10	ND	ND	0.8	92.7	23.9	66.6	581.8	0
17461	2012-01-25T12:00:00	ND	ND	ND	1419.60	ND	ND	1.4	108.1	24.8	62.8	600.8	0
17462	2012-01-25T13:00:00	ND	ND	ND	1103.47	ND	ND	0.7	58.6	26	58.1	619.3	0
17463	2012-01-25T14:00:00	ND	ND	ND	1167.16	ND	ND	0.5	76.3	27.6	52.7	655.3	0
17464	2012-01-25T15:00:00	ND	ND	ND	1354.75	ND	ND	0.8	118.5	28.2	50.9	558.6	0
17465	2012-01-25T16:00:00	ND	ND	ND	1328.50	ND	ND	0.2	139.1	27.5	51.9	185.7	0
17466	2012-01-25T17:00:00	ND	ND	ND	1881.13	ND	ND	0.6	337.1	27.2	53.4	60.4	0
17467	2012-01-25T18:00:00	ND	ND	ND	1514.23	ND	ND	2.8	275.9	25.4	60.6	13.2	0
17468	2012-01-25T19:00:00	ND	ND	ND	1772.12	ND	ND	2.7	264.5	24.4	63.3	0	0
17469	2012-01-25T20:00:00	ND	ND	ND	1299.86	ND	ND	3.1	264.2	23.6	66.3	0	0
17470	2012-01-25T21:00:00	ND	ND	ND	1071.09	ND	ND	2.2	278.8	23.4	66.2	0	0
17471	2012-01-25T22:00:00	ND	ND	ND	967.23	ND	ND	2	283.8	23	67.2	0	0
17472	2012-01-25T23:00:00	ND	ND	ND	817.64	ND	ND	1.7	279.4	22.4	68.1	0	0
17473	2012-01-26T00:00:00	ND	ND	ND	896.22	ND	ND	1.7	241.1	22.1	68.1	0	0
17474	2012-01-26T01:00:00	ND	ND	ND	736.90	ND	ND	1.6	238.4	21.9	67.3	0	0
17475	2012-01-26T02:00:00	ND	ND	ND	712.77	ND	ND	1.4	251.4	21.3	70.3	0	0
17476	2012-01-26T03:00:00	ND	ND	ND	768.82	ND	ND	1	233.3	21.1	72.7	0	0
17477	2012-01-26T04:00:00	ND	ND	ND	870.28	ND	ND	0.8	223.8	21	76.7	0	0
17478	2012-01-26T05:00:00	ND	ND	ND	734.40	ND	ND	0.7	255.4	20.9	73.8	0	0
17479	2012-01-26T06:00:00	ND	ND	ND	1118.93	ND	ND	0.4	ND	21	77.6	0	0
17480	2012-01-26T07:00:00	ND	ND	ND	1804.06	ND	ND	0.3	ND	20.3	84.3	17.7	0.25
17481	2012-01-26T08:00:00	ND	ND	ND	3428.09	ND	ND	0.5	249.5	21.3	80.8	138.5	0
17482	2012-01-26T09:00:00	ND	ND	ND	2560.32	ND	ND	0.3	188.5	23	76.3	248	0
17483	2012-01-26T10:00:00	ND	ND	ND	1447.11	ND	ND	1.7	148	23.4	71.2	309.3	0
17484	2012-01-26T11:00:00	ND	ND	ND	1086.14	ND	ND	0.7	248.5	24.4	65.6	555.1	0
17485	2012-01-26T12:00:00	ND	ND	ND	1439.22	ND	ND	0.3	0.9	26.5	57.5	465.2	0
17486	2012-01-26T13:00:00	ND	ND	ND	1580.02	ND	ND	0.8	104.2	27	54.8	506.7	0
17487	2012-01-26T14:00:00	ND	ND	ND	1444.02	ND	ND	0.7	11.8	27.5	52.1	236.4	0
17488	2012-01-26T15:00:00	ND	ND	ND	1158.29	ND	ND	2.5	280.6	28.3	47.5	571.7	0
17489	2012-01-26T16:00:00	ND	ND	ND	1133.62	ND	ND	3.9	279.9	27.9	48.1	466.8	0
17490	2012-01-26T17:00:00	ND	ND	ND	1222.09	ND	ND	3.9	280.2	26.9	50.5	286.6	0
17491	2012-01-26T18:00:00	ND	ND	ND	1068.28	ND	ND	4.3	271.3	25.8	53.9	113.8	0
17492	2012-01-26T19:00:00	ND	ND	ND	1143.69	ND	ND	4.4	271.2	24.5	58.7	0	0
17493	2012-01-26T20:00:00	ND	ND	ND	856.90	ND	ND	4.7	267.3	24.2	58.6	0	0
17494	2012-01-26T21:00:00	ND	ND	ND	1005.77	ND	ND	1.8	279.1	24.3	57.9	0	0
17495	2012-01-26T22:00:00	ND	ND	ND	1072.17	ND	ND	2.3	214.6	23.7	65.7	0	0
17496	2012-01-26T23:00:00	ND	ND	ND	1057.91	ND	ND	1.9	209.7	22.9	71.3	0	0
17497	2012-01-27T00:00:00	ND	ND	ND	1000.35	ND	ND	1.8	194.4	22.7	72.3	0	0
17498	2012-01-27T01:00:00	ND	ND	ND	1000.02	ND	ND	0.9	197.4	22.6	73.1	0	0
17499	2012-01-27T02:00:00	ND	ND	ND	907.57	ND	ND	0.5	215.2	22.1	75.8	0	0
17500	2012-01-27T03:00:00	ND	ND	ND	805.47	ND	ND	0.4	287.9	22.1	71.1	0	0
17501	2012-01-27T04:00:00	ND	ND	ND	1121.21	ND	ND	0.8	40.7	21.6	80.3	0	0
17502	2012-01-27T05:00:00	ND	ND	ND	894.40	ND	ND	0.2	80.4	21.5	80.2	0	0
17503	2012-01-27T06:00:00	ND	ND	ND	1199.27	ND	ND	0.7	126.6	21.3	82.5	0	0
17504	2012-01-27T07:00:00	ND	ND	ND	1515.54	ND	ND	0.3	ND	21.2	78.3	5.1	0
17505	2012-01-27T08:00:00	ND	ND	ND	2839.77	ND	ND	0.6	167.7	21.3	83.2	71.4	0
17506	2012-01-27T09:00:00	ND	ND	ND	2238.67	ND	ND	0.5	138.6	22.6	77.9	199.8	0
17507	2012-01-27T10:00:00	ND	ND	ND	1862.33	ND	ND	1	157.5	24.2	68.2	364.9	0
17508	2012-01-27T11:00:00	ND	ND	ND	1728.71	ND	ND	0.9	135.9	24.8	62.7	289	0
17509	2012-01-27T12:00:00	ND	ND	ND	1550.72	ND	ND	0.4	136.1	25.8	57.2	343	0
17510	2012-01-27T13:00:00	ND	ND	ND	1561.10	ND	ND	0.8	112.9	27.8	50.7	814.2	0
17511	2012-01-27T14:00:00	ND	ND	ND	1817.31	ND	ND	1.1	71.5	28.1	50	342.9	0
17512	2012-01-27T15:00:00	ND	ND	ND	1227.38	ND	ND	0.4	353.3	28.2	49.5	415.4	0
17513	2012-01-27T16:00:00	ND	ND	ND	1114.18	ND	ND	2	321.1	28.9	47.2	439	0
17514	2012-01-27T17:00:00	ND	ND	ND	1413.12	ND	ND	3	297.9	28.3	48.4	255.2	0
17515	2012-01-27T18:00:00	ND	ND	ND	1289.54	ND	ND	3.4	271.9	26.5	52.6	42.7	0
17516	2012-01-27T19:00:00	ND	ND	ND	1227.86	ND	ND	3.7	274.6	25.5	55.6	0	0
17517	2012-01-27T20:00:00	ND	ND	ND	1018.91	ND	ND	3.1	285.9	24.8	58.6	0	0
17518	2012-01-27T21:00:00	ND	ND	ND	927.32	ND	ND	2.2	289.6	24.8	58.3	0	0
17519	2012-01-27T22:00:00	ND	ND	ND	960.70	ND	ND	1.1	284	24.5	59.3	0	0
17520	2012-01-27T23:00:00	ND	ND	ND	891.17	ND	ND	1.6	250.2	24.2	61.2	0	0
17521	2012-01-28T00:00:00	ND	ND	ND	1309.93	ND	ND	0.7	161.1	23.3	70	0	0
17522	2012-01-28T01:00:00	ND	ND	ND	1182.24	ND	ND	0.6	175.2	22.7	74.6	0	0
17523	2012-01-28T02:00:00	ND	ND	ND	897.74	ND	ND	1.8	208.8	22.6	73.6	0	0
17524	2012-01-28T03:00:00	ND	ND	ND	807.38	ND	ND	0.5	ND	22.8	70.2	0	0
17525	2012-01-28T04:00:00	ND	ND	ND	1145.42	ND	ND	0.8	3.7	22	78.4	0	0
17526	2012-01-28T05:00:00	ND	ND	ND	972.66	ND	ND	0.4	347.5	21.2	82.8	0	0
17527	2012-01-28T06:00:00	ND	ND	ND	1086.13	ND	ND	0.3	263.9	21.3	80.9	0	0
17528	2012-01-28T07:00:00	ND	ND	ND	1278.90	ND	ND	0.5	273.3	21.4	76.5	16.3	0
17529	2012-01-28T08:00:00	ND	ND	ND	1600.13	ND	ND	0.1	223.7	22.2	74.9	123.9	0
17530	2012-01-28T09:00:00	ND	ND	ND	2329.20	ND	ND	0.6	145.2	24	68.1	189.4	0
17531	2012-01-28T10:00:00	ND	ND	ND	2078.71	ND	ND	1.3	165.7	24.1	69.6	263.5	0
17532	2012-01-28T11:00:00	ND	ND	ND	1655.76	ND	ND	0.7	164.9	26.1	60.9	688.1	0
17533	2012-01-28T12:00:00	ND	ND	ND	1454.61	ND	ND	0.5	70.4	27.3	55.7	479.6	0
17534	2012-01-28T13:00:00	ND	ND	ND	1424.23	ND	ND	1	29.5	28.2	53	611.1	0
17535	2012-01-28T14:00:00	ND	ND	ND	1487.04	ND	ND	0.8	24.1	29.2	48.6	571.6	0
17536	2012-01-28T15:00:00	ND	ND	ND	1536.05	ND	ND	1.1	45.4	29.7	47.6	441.1	0
17537	2012-01-28T16:00:00	ND	ND	ND	1173.76	ND	ND	1.8	311	29.3	48.4	320.7	0
17538	2012-01-28T17:00:00	ND	ND	ND	1066.34	ND	ND	4.4	277.2	28.5	49.7	317.3	0
17539	2012-01-28T18:00:00	ND	ND	ND	1026.09	ND	ND	4	275.9	26.9	54.5	106.3	0
17540	2012-01-28T19:00:00	ND	ND	ND	999.02	ND	ND	4.9	274.4	25.7	57.8	0	0
17541	2012-01-28T20:00:00	ND	ND	ND	872.12	ND	ND	4.7	273.1	25.5	57.6	0	0
17542	2012-01-28T21:00:00	ND	ND	ND	826.50	ND	ND	2.5	296.5	25.6	57.4	0	0
17543	2012-01-28T22:00:00	ND	ND	ND	940.03	ND	ND	2.4	267.5	25.2	60.3	0	0
17544	2012-01-28T23:00:00	ND	ND	ND	1052.90	ND	ND	1.6	214.4	24.7	64.6	0	0
17545	2012-01-29T00:00:00	ND	ND	ND	1085.77	ND	ND	1.6	220.5	24.3	66.6	0	0
17546	2012-01-29T01:00:00	ND	ND	ND	1026.89	ND	ND	1.3	224.4	23.8	68.3	0	0
17547	2012-01-29T02:00:00	ND	ND	ND	1422.88	ND	ND	0.1	334.9	23.1	74.5	0	0
17548	2012-01-29T03:00:00	ND	ND	ND	1522.75	ND	ND	0.6	60.4	22.6	77.6	0	0
17549	2012-01-29T04:00:00	ND	ND	ND	1055.40	ND	ND	0.6	62.7	22.2	78.2	0	0
17550	2012-01-29T05:00:00	ND	ND	ND	1123.11	ND	ND	0.3	ND	22.1	78.8	0	0
17551	2012-01-29T06:00:00	ND	ND	ND	1179.84	ND	ND	0.6	45.1	22.1	79.6	0	0
17552	2012-01-29T07:00:00	ND	ND	ND	1223.97	ND	ND	0.3	121.5	21.8	81.9	14.2	0
17553	2012-01-29T08:00:00	ND	ND	ND	1590.40	ND	ND	0.6	170.8	22.5	79.4	95.4	0
17554	2012-01-29T09:00:00	ND	ND	ND	1280.50	ND	ND	0.9	177.5	24.4	69.2	304.9	0
17555	2012-01-29T10:00:00	ND	ND	ND	1100.89	ND	ND	0.8	129.5	25.3	65.3	329.5	0
17556	2012-01-29T11:00:00	ND	ND	ND	1222.49	ND	ND	1.5	126.9	27	59	682.7	0
17557	2012-01-29T12:00:00	ND	ND	ND	1064.22	ND	ND	1	150.7	27.9	54.8	427	0
17558	2012-01-29T13:00:00	ND	ND	ND	961.06	ND	ND	0.8	289.9	28.2	53	467.5	0
17559	2012-01-29T14:00:00	ND	ND	ND	827.57	ND	ND	1.7	288.1	30.2	44.8	812.6	0
17560	2012-01-29T15:00:00	ND	ND	ND	840.06	ND	ND	3.8	279.1	30.5	42.7	731.5	0
17561	2012-01-29T16:00:00	ND	ND	ND	756.14	ND	ND	4.3	279.3	29.6	45.1	543.5	0
17562	2012-01-29T17:00:00	ND	ND	ND	776.83	ND	ND	4.4	295.4	28.6	46.7	319.9	0
17563	2012-01-29T18:00:00	ND	ND	ND	738.11	ND	ND	4.9	305	27	50	60.1	0
17564	2012-01-29T19:00:00	ND	ND	ND	886.85	ND	ND	1.6	297.6	26.6	51.8	0	0
17565	2012-01-29T20:00:00	ND	ND	ND	1203.70	ND	ND	2.4	187.3	25.2	61.6	0	0
17566	2012-01-29T21:00:00	ND	ND	ND	1182.24	ND	ND	1.9	158.7	22.7	75.8	0	0
17567	2012-01-29T22:00:00	ND	ND	ND	1271.46	ND	ND	1.1	160.9	22.3	78.9	0	0
17568	2012-01-29T23:00:00	ND	ND	ND	1375.02	ND	ND	0.4	285.8	22.6	76.8	0	0
17569	2012-01-30T00:00:00	ND	ND	ND	1386.85	ND	ND	1.1	336.1	22.7	76.1	0	0
17570	2012-01-30T01:00:00	ND	ND	ND	1136.00	ND	ND	0.5	96	22.5	76.2	0	0
17571	2012-01-30T02:00:00	ND	ND	ND	916.73	ND	ND	0.3	55.1	21.4	83.9	0	0
17572	2012-01-30T03:00:00	ND	ND	ND	904.80	ND	ND	0.6	110.8	21.2	84.5	0	0
17573	2012-01-30T04:00:00	ND	ND	ND	927.42	ND	ND	0.7	157.2	21.2	84.6	0	0
17574	2012-01-30T05:00:00	ND	ND	ND	870.57	ND	ND	0.4	204.9	21.1	84.3	0	0
17575	2012-01-30T06:00:00	ND	ND	ND	1052.19	ND	ND	0.3	ND	21.3	82.8	0	0
17576	2012-01-30T07:00:00	ND	ND	ND	2116.41	ND	ND	0.5	97.4	21.4	82.1	6.1	0
17577	2012-01-30T08:00:00	ND	ND	ND	2648.34	ND	ND	0.2	ND	21.4	84.5	69.1	0
17578	2012-01-30T09:00:00	ND	ND	ND	2577.78	ND	ND	0.7	144.5	23.7	72.5	326.7	0
17579	2012-01-30T10:00:00	ND	ND	ND	1811.27	ND	ND	1.7	131.1	25.2	65.7	532.9	0
17580	2012-01-30T11:00:00	ND	ND	ND	1369.68	ND	ND	1	115.7	26.4	58.5	575.7	0
17581	2012-01-30T12:00:00	ND	ND	ND	1500.78	ND	ND	1.4	100.4	27.3	55.3	510	0
17582	2012-01-30T13:00:00	ND	ND	ND	1409.84	ND	ND	1.3	345.5	27.6	53.4	423	0
17583	2012-01-30T14:00:00	ND	ND	ND	972.00	ND	ND	1.3	231.5	28	49.4	446.6	0
17584	2012-01-30T15:00:00	ND	ND	ND	1344.07	ND	ND	0.4	63.6	28.4	50.3	319	0
17585	2012-01-30T16:00:00	ND	ND	ND	1286.56	ND	ND	2	293.4	28.5	48	223.3	0
17586	2012-01-30T17:00:00	ND	ND	ND	1272.85	ND	ND	3.1	279.1	28	48.9	254.7	0
17587	2012-01-30T18:00:00	ND	ND	ND	1313.44	ND	ND	3.8	269	26.7	53	93	0
17588	2012-01-30T19:00:00	ND	ND	ND	1226.62	ND	ND	4	265.6	25.2	57.8	0	0
17589	2012-01-30T20:00:00	ND	ND	ND	1064.70	ND	ND	3.6	269.7	24.8	58.4	0	0
17590	2012-01-30T21:00:00	ND	ND	ND	835.73	ND	ND	3.4	274.3	24.8	57.3	0	0
17591	2012-01-30T22:00:00	ND	ND	ND	992.66	ND	ND	2.4	226.5	23.8	68.1	0	0
17592	2012-01-30T23:00:00	ND	ND	ND	1082.85	ND	ND	1.6	225.9	23.5	70.2	0	0
17593	2012-01-31T00:00:00	ND	ND	ND	866.28	ND	ND	1	240.2	23.5	68.6	0	0
17594	2012-01-31T01:00:00	ND	ND	ND	876.20	ND	ND	0.7	341.7	23	69.6	0	0
17595	2012-01-31T02:00:00	ND	ND	ND	1056.12	ND	ND	0.9	4.5	22.4	75.3	0	0
17596	2012-01-31T03:00:00	ND	ND	ND	1100.05	ND	ND	1	17.2	22	80.4	0	0
17597	2012-01-31T04:00:00	ND	ND	ND	1099.68	ND	ND	0.7	2.5	21.9	82	0	0
17598	2012-01-31T05:00:00	ND	ND	ND	1019.97	ND	ND	0.5	356.5	21.8	80.8	0	0
17599	2012-01-31T06:00:00	ND	ND	ND	1369.90	ND	ND	0.7	57.3	21.5	82.2	0	0
17600	2012-01-31T07:00:00	ND	ND	ND	2025.18	ND	ND	0.7	80	21.3	84	5.4	0
17601	2012-01-31T08:00:00	ND	ND	ND	2676.42	ND	ND	0.3	246.9	22	79.2	61.7	0
17602	2012-01-31T09:00:00	ND	ND	ND	2447.35	ND	ND	0.4	135.7	23.1	75.8	135.5	0
17603	2012-01-31T10:00:00	ND	ND	ND	1842.57	ND	ND	1.3	135.2	24.7	68.4	436.2	0
17604	2012-01-31T11:00:00	ND	ND	ND	1560.12	ND	ND	1	1.6	25.4	64	417.9	0
17605	2012-01-31T12:00:00	ND	ND	ND	1611.39	ND	ND	1	320.7	26.4	59.6	472.4	0
17606	2012-01-31T13:00:00	ND	ND	ND	1676.18	ND	ND	0.4	12.9	27.7	54.1	293.8	0
17607	2012-01-31T14:00:00	ND	ND	ND	1155.99	ND	ND	2.2	298.6	27.7	51.1	393.2	0
17608	2012-01-31T15:00:00	ND	ND	ND	1126.90	ND	ND	1.8	283.4	29.2	45.7	660.7	0
17609	2012-01-31T16:00:00	ND	ND	ND	1127.65	ND	ND	2	291.9	29.4	45	421.3	0
17610	2012-01-31T17:00:00	ND	ND	ND	1484.09	ND	ND	2.4	289.8	28.6	46.8	195.6	0
17611	2012-01-31T18:00:00	ND	ND	ND	1316.51	ND	ND	3.2	279	27.4	50.5	86.7	0
17612	2012-01-31T19:00:00	ND	ND	ND	1333.36	ND	ND	3.8	267.7	26	55.8	2.5	0
17613	2012-01-31T20:00:00	ND	ND	ND	1054.31	ND	ND	3.3	276.1	25.1	59.8	0	0
17614	2012-01-31T21:00:00	ND	ND	ND	983.57	ND	ND	3	267.4	24.5	61.7	0	0
17615	2012-01-31T22:00:00	ND	ND	ND	787.82	ND	ND	2.6	254.3	24	62.5	0	0
17616	2012-01-31T23:00:00	ND	ND	ND	867.45	ND	ND	1.7	281.3	23.9	62.8	0	0
17617	2012-02-01T00:00:00	ND	ND	ND	1104.53	ND	ND	0.6	344.8	23.2	67.9	0	0
17618	2012-02-01T01:00:00	ND	ND	ND	ND	ND	ND	0.5	1.5	22.6	72.5	0	0
17619	2012-02-01T02:00:00	ND	ND	ND	ND	ND	ND	0.3	337	22.2	75.8	0	0
17620	2012-02-01T03:00:00	ND	ND	ND	953.27	ND	ND	0.5	151.7	22.4	71.2	0	0
17621	2012-02-01T04:00:00	ND	ND	ND	1033.41	ND	ND	0.4	23.9	22.3	74.7	0	0
17622	2012-02-01T05:00:00	ND	ND	ND	885.48	ND	ND	0.9	126.8	22.1	76.7	0	0
17623	2012-02-01T06:00:00	ND	ND	ND	1009.67	ND	ND	0.1	ND	21.9	77.4	0	0
17624	2012-02-01T07:00:00	ND	ND	ND	963.64	ND	ND	0.6	247	21.7	76.8	14.4	0
17625	2012-02-01T08:00:00	ND	ND	ND	1212.23	ND	ND	0.2	89.5	22.7	72.8	90	0
17626	2012-02-01T09:00:00	ND	ND	ND	1989.34	ND	ND	0.7	80.3	22.9	76	158	0
17627	2012-02-01T10:00:00	ND	ND	ND	3082.72	ND	ND	1	71.4	24.1	71	241.3	0
17628	2012-02-01T11:00:00	ND	ND	ND	2467.04	ND	ND	0.7	116.4	26	62.1	569.8	0
17629	2012-02-01T12:00:00	ND	ND	ND	2034.53	ND	ND	1.2	83	27.4	55.6	477	0
17630	2012-02-01T13:00:00	ND	ND	ND	1524.38	ND	ND	1	124.8	28.2	52.6	689	0
17631	2012-02-01T14:00:00	ND	ND	ND	1597.91	ND	ND	1.2	301.1	29.3	47.3	497.6	0
17632	2012-02-01T15:00:00	ND	ND	ND	1626.99	ND	ND	1	349.6	29.4	46.8	427.7	0
17633	2012-02-01T16:00:00	ND	ND	ND	1174.15	ND	ND	2.4	277	29.6	44.8	413.7	0
17634	2012-02-01T17:00:00	ND	ND	ND	1384.32	ND	ND	3.7	277.8	28.6	48.2	287.5	0
17635	2012-02-01T18:00:00	ND	ND	ND	1356.55	ND	ND	4.1	270.4	27.1	51.8	92.3	0
17636	2012-02-01T19:00:00	ND	ND	ND	1349.81	ND	ND	3.7	272.2	26.2	54	0	0
17637	2012-02-01T20:00:00	ND	ND	ND	1230.74	ND	ND	4.6	269.5	25.5	57.6	0	0
17638	2012-02-01T21:00:00	ND	ND	ND	1331.13	ND	ND	4	272.1	25	58.7	0	0
17639	2012-02-01T22:00:00	ND	ND	ND	916.49	ND	ND	3.1	257.2	24.8	56	0	0
17640	2012-02-01T23:00:00	ND	ND	ND	870.08	ND	ND	2.3	244	24.7	55.1	0	0
17641	2012-02-02T00:00:00	ND	ND	ND	846.90	ND	ND	1.1	209	24.4	64.7	0	0
17642	2012-02-02T01:00:00	ND	ND	ND	720.28	ND	ND	0.7	154.2	23.5	71.5	0	0
17643	2012-02-02T02:00:00	ND	ND	ND	946.07	ND	ND	0.5	172.9	23.1	73	0	0
17644	2012-02-02T03:00:00	ND	ND	ND	922.03	ND	ND	0.8	142.6	22.9	74.6	0	0
17645	2012-02-02T04:00:00	ND	ND	ND	910.03	ND	ND	1.3	181.4	21.9	82.3	0	1.52
17646	2012-02-02T05:00:00	ND	ND	ND	918.29	ND	ND	0.6	152.9	21.4	87.7	0	0
17647	2012-02-02T06:00:00	ND	ND	ND	871.46	ND	ND	0.5	142.7	20.8	90.4	0	0
17648	2012-02-02T07:00:00	ND	ND	ND	1072.99	ND	ND	0.9	150.8	20.7	87.6	8.4	0
17649	2012-02-02T08:00:00	ND	ND	ND	1354.89	ND	ND	0.4	111	20.7	89.2	45.6	0
17650	2012-02-02T09:00:00	ND	ND	ND	2280.74	ND	ND	0.9	70.8	21.9	84.4	184.6	0
17651	2012-02-02T10:00:00	ND	ND	ND	2868.24	ND	ND	0.9	96.1	24.5	71	525.5	0
17652	2012-02-02T11:00:00	ND	ND	ND	2939.27	ND	ND	1.3	121.2	26.5	59.6	609.2	0
17653	2012-02-02T12:00:00	ND	ND	ND	2417.89	ND	ND	1	145.7	28	52.5	645.4	0
17654	2012-02-02T13:00:00	ND	ND	ND	1585.28	ND	ND	1.3	15.4	29.5	47.4	721.1	0
17655	2012-02-02T14:00:00	ND	ND	ND	1372.23	ND	ND	1	331.2	29.2	47.4	554.7	0
17656	2012-02-02T15:00:00	ND	ND	ND	1103.67	ND	ND	2.6	282.1	30.3	43.8	761	0
17657	2012-02-02T16:00:00	ND	ND	ND	1200.96	ND	ND	3.9	279.1	29.8	45.5	523.5	0
17658	2012-02-02T17:00:00	ND	ND	ND	1175.70	ND	ND	3.5	279.1	28.1	49.6	100.4	0
17659	2012-02-02T18:00:00	ND	ND	ND	1145.95	ND	ND	2.7	284	27.2	51.5	18.3	0
17660	2012-02-02T19:00:00	ND	ND	ND	1361.80	ND	ND	3.6	261.9	26.4	54.9	0	0
17661	2012-02-02T20:00:00	ND	ND	ND	1266.09	ND	ND	2.7	257	25.6	60.4	0	0
17662	2012-02-02T21:00:00	ND	ND	ND	1205.31	ND	ND	2.5	250	25.2	62	0	0
17663	2012-02-02T22:00:00	ND	ND	ND	1054.67	ND	ND	1.2	234.1	24.5	68.6	0	0
17664	2012-02-02T23:00:00	ND	ND	ND	995.01	ND	ND	0.7	17.8	24.2	72.1	0	0
17665	2012-02-03T00:00:00	ND	ND	ND	1233.93	ND	ND	1	25.6	23.5	74.6	0	0
17666	2012-02-03T01:00:00	ND	ND	ND	1561.58	ND	ND	1.1	42.7	22.7	80.7	0	0
17667	2012-02-03T02:00:00	ND	ND	ND	1295.91	ND	ND	0.9	11.1	22.8	79.9	0	0
17668	2012-02-03T03:00:00	ND	ND	ND	1091.66	ND	ND	0.6	18.3	22.9	78.4	0	0
17669	2012-02-03T04:00:00	ND	ND	ND	1012.41	ND	ND	0.5	111.7	22.4	81.2	0	0
17670	2012-02-03T05:00:00	ND	ND	ND	919.85	ND	ND	1	184.5	22.2	79.3	0	0
17671	2012-02-03T06:00:00	ND	ND	ND	873.83	ND	ND	0.8	163.2	22.5	78.1	0	0
17672	2012-02-03T07:00:00	ND	ND	ND	829.28	ND	ND	0.7	81.5	22.5	77.4	1.8	0
17673	2012-02-03T08:00:00	ND	ND	ND	1238.24	ND	ND	0.8	78.9	22.5	77.8	46.6	0
17674	2012-02-03T09:00:00	ND	ND	ND	2033.43	ND	ND	0.7	67.1	22.9	76	98	0
17675	2012-02-03T10:00:00	ND	ND	ND	2593.58	ND	ND	0.9	68.9	24.2	70.6	356.2	0
17676	2012-02-03T11:00:00	ND	ND	ND	2102.26	ND	ND	1.3	83.4	26.1	62.3	487.7	0
17677	2012-02-03T12:00:00	ND	ND	ND	1736.25	ND	ND	1.1	59.8	26.2	61.4	366.6	0
17678	2012-02-03T13:00:00	ND	ND	ND	1506.79	ND	ND	1.1	94.9	28.3	54	834.4	0
17679	2012-02-03T14:00:00	ND	ND	ND	1540.53	ND	ND	0.8	55.7	29	51.4	424.3	0
17680	2012-02-03T15:00:00	ND	ND	ND	1462.84	ND	ND	1	323.2	28.3	51	105.5	0
17681	2012-02-03T16:00:00	ND	ND	ND	1285.71	ND	ND	2.4	285.1	28	50.9	151.1	0
17682	2012-02-03T17:00:00	ND	ND	ND	1238.14	ND	ND	2.4	278.9	27.9	51.7	94.5	0
17683	2012-02-03T18:00:00	ND	ND	ND	1376.54	ND	ND	3.3	270.9	26.8	52.7	31.6	0
17684	2012-02-03T19:00:00	ND	ND	ND	1440.66	ND	ND	3.5	257	26.1	55.4	0	0
17685	2012-02-03T20:00:00	ND	ND	ND	1494.79	ND	ND	3.4	258	25.6	57.1	0	0
17686	2012-02-03T21:00:00	ND	ND	ND	1320.10	ND	ND	2	281	25.2	60.1	0	0
17687	2012-02-03T22:00:00	ND	ND	ND	1146.38	ND	ND	0.2	287	24.5	65.5	0	0
17688	2012-02-03T23:00:00	ND	ND	ND	1155.12	ND	ND	1.5	267.6	24.5	62.3	0	0
17689	2012-02-04T00:00:00	ND	ND	ND	1475.35	ND	ND	1.9	268.4	24.3	62.7	0	0
17690	2012-02-04T01:00:00	ND	ND	ND	1154.35	ND	ND	1.5	254.6	24	64	0	0
17691	2012-02-04T02:00:00	ND	ND	ND	936.25	ND	ND	0.9	182.7	23.3	74.8	0	0
17692	2012-02-04T03:00:00	ND	ND	ND	785.96	ND	ND	0.8	161.2	23	80.6	0	0
17693	2012-02-04T04:00:00	ND	ND	ND	1160.68	ND	ND	0.8	148	22.7	79.6	0	0
17694	2012-02-04T05:00:00	ND	ND	ND	1125.40	ND	ND	0.5	99.8	22.4	80.5	0	0
17695	2012-02-04T06:00:00	ND	ND	ND	1124.26	ND	ND	0.4	79.3	22.4	82.4	0	0
17696	2012-02-04T07:00:00	ND	ND	ND	1090.19	ND	ND	0.4	ND	22.2	83.6	4.4	0
17697	2012-02-04T08:00:00	ND	ND	ND	1475.30	ND	ND	0.7	235.5	22.7	78.4	42.8	0
17698	2012-02-04T09:00:00	ND	ND	ND	1636.94	ND	ND	0.6	78.2	23.4	76.1	125.4	0
17699	2012-02-04T10:00:00	ND	ND	ND	1880.10	ND	ND	1	97.2	25.2	70.9	492.1	0
17700	2012-02-04T11:00:00	ND	ND	ND	2659.59	ND	ND	1.1	112.5	27.2	60.4	642	0
17701	2012-02-04T12:00:00	ND	ND	ND	2158.10	ND	ND	1.3	84	28.4	55.6	662.9	0
17702	2012-02-04T13:00:00	ND	ND	ND	1738.02	ND	ND	0.4	57.1	29.5	50.5	701.9	0
17703	2012-02-04T14:00:00	ND	ND	ND	1593.18	ND	ND	1.7	306.2	30	46	400	0
17704	2012-02-04T15:00:00	ND	ND	ND	1537.57	ND	ND	3.2	279.7	30.5	43.3	669.7	0
17705	2012-02-04T16:00:00	ND	ND	ND	1330.10	ND	ND	4.1	279.1	29.2	47.1	223.4	0
17706	2012-02-04T17:00:00	ND	ND	ND	1092.05	ND	ND	4.1	268.2	27.9	50.7	180.7	0
17707	2012-02-04T18:00:00	ND	ND	ND	1168.32	ND	ND	4.4	268.6	27.2	53.2	60.7	0
17708	2012-02-04T19:00:00	ND	ND	ND	1142.52	ND	ND	4.6	263.8	26.1	56.7	0	0
17709	2012-02-04T20:00:00	ND	ND	ND	1138.34	ND	ND	3.1	280.6	25.9	57.6	0	0
17710	2012-02-04T21:00:00	ND	ND	ND	1034.16	ND	ND	2	299	25.4	60.3	0	0
17711	2012-02-04T22:00:00	ND	ND	ND	1032.43	ND	ND	1.7	291.4	25.4	59.4	0	0
17712	2012-02-04T23:00:00	ND	ND	ND	952.13	ND	ND	0.9	310.2	24.9	63	0	0
17713	2012-02-05T00:00:00	ND	ND	ND	858.92	ND	ND	2.1	218	24.3	66.6	0	0
17714	2012-02-05T01:00:00	ND	ND	ND	1200.06	ND	ND	1.7	222.6	24.1	67.1	0	0
17715	2012-02-05T02:00:00	ND	ND	ND	1016.51	ND	ND	2	248.9	24	65.4	0	0
17716	2012-02-05T03:00:00	ND	ND	ND	924.83	ND	ND	0.7	238.6	23.7	69.2	0	0
17717	2012-02-05T04:00:00	ND	ND	ND	718.58	ND	ND	0.9	138.2	22.9	74.8	0	0
17718	2012-02-05T05:00:00	ND	ND	ND	1001.03	ND	ND	0.6	130.9	22.5	77.7	0	0
17719	2012-02-05T06:00:00	ND	ND	ND	1260.96	ND	ND	0.8	168	22.4	77.6	0	0
17720	2012-02-05T07:00:00	ND	ND	ND	1044.76	ND	ND	0.9	181.6	22.4	77.7	0	0
17721	2012-02-05T08:00:00	ND	ND	ND	1237.82	ND	ND	1.1	168.8	22.6	78.1	39.2	0
17722	2012-02-05T09:00:00	ND	ND	ND	1511.39	ND	ND	1.1	180.8	23	77.9	103.2	0
17723	2012-02-05T10:00:00	ND	ND	ND	1285.85	ND	ND	0.6	188.6	24.4	70.8	333.3	0
17724	2012-02-05T11:00:00	ND	ND	ND	1371.96	ND	ND	1.2	128.4	26.5	61.3	526.2	0
17725	2012-02-05T12:00:00	ND	ND	ND	1358.62	ND	ND	2	160	25.9	65.1	189.2	0
17726	2012-02-05T13:00:00	ND	ND	ND	1390.37	ND	ND	0.7	196.7	25.8	65.2	184.8	0
17727	2012-02-05T14:00:00	ND	ND	ND	1447.34	ND	ND	1.9	274.2	26.1	57.7	176.5	0
17728	2012-02-05T15:00:00	ND	ND	ND	1241.82	ND	ND	2.4	289.1	26.2	55.9	194.3	0
17729	2012-02-05T16:00:00	ND	ND	ND	954.68	ND	ND	2.4	286.1	26.5	53.9	188.9	0
17730	2012-02-05T17:00:00	ND	ND	ND	828.99	ND	ND	2.4	286.9	26.5	54	153.1	0
17731	2012-02-05T18:00:00	ND	ND	ND	805.96	ND	ND	2.9	281.5	25.5	57.9	31.9	0
17732	2012-02-05T19:00:00	ND	ND	ND	768.84	ND	ND	1.6	290.5	25	60	0.1	0
17733	2012-02-05T20:00:00	ND	ND	ND	790.47	ND	ND	0.7	69.3	23.9	68.1	0	0
17734	2012-02-05T21:00:00	ND	ND	ND	947.34	ND	ND	0.2	248.5	24.1	65.9	0	0
17735	2012-02-05T22:00:00	ND	ND	ND	1576.16	ND	ND	1.6	233.6	24.3	63.5	0	0
17736	2012-02-05T23:00:00	ND	ND	ND	1622.94	ND	ND	1.8	181.6	23.5	74.5	0	0
17737	2012-02-06T00:00:00	ND	ND	ND	1151.24	ND	ND	1	120.9	22.7	79.8	0	0
17738	2012-02-06T01:00:00	ND	ND	ND	1182.24	ND	ND	0.7	159.4	22.2	83.6	0	0
17739	2012-02-06T02:00:00	ND	ND	ND	1180.24	ND	ND	0.1	ND	22	85.5	0	0
17740	2012-02-06T03:00:00	ND	ND	ND	941.28	ND	ND	0.5	3.5	22.3	80.8	0	0
17741	2012-02-06T04:00:00	ND	ND	ND	999.00	ND	ND	0.2	ND	22.2	82	0	0
17742	2012-02-06T05:00:00	ND	ND	ND	1112.15	ND	ND	0.3	ND	22.3	74.1	0	0
17743	2012-02-06T06:00:00	ND	ND	ND	1021.70	ND	ND	0.8	67.4	22.1	83.6	0	0
17744	2012-02-06T07:00:00	ND	ND	ND	986.98	ND	ND	0.6	69.1	21.6	88.7	4.5	0
17745	2012-02-06T08:00:00	ND	ND	ND	1460.97	ND	ND	1.3	359.3	21.9	85.9	51	0
17746	2012-02-06T09:00:00	ND	ND	ND	2233.37	ND	ND	1.3	41.5	22.6	81	165.9	0
17747	2012-02-06T10:00:00	ND	ND	ND	2181.85	ND	ND	1.3	86.2	23.5	75.8	221.8	0
17748	2012-02-06T11:00:00	ND	ND	ND	1880.74	ND	ND	0.9	95.5	24.1	73.3	224.2	0
17749	2012-02-06T12:00:00	ND	ND	ND	2033.02	ND	ND	0.6	135.3	24.8	68.9	225.6	0
17750	2012-02-06T13:00:00	ND	ND	ND	1866.09	ND	ND	0.6	315.8	25.4	66	438.8	0
17751	2012-02-06T14:00:00	ND	ND	ND	1743.66	ND	ND	0.3	116.3	25.4	66.3	179.1	9.4
17752	2012-02-06T15:00:00	ND	ND	ND	1594.53	ND	ND	1.6	350.3	23.1	82.7	282.4	0
17753	2012-02-06T16:00:00	ND	ND	ND	1422.88	ND	ND	0.9	51.6	25.2	69.8	238.3	0
17754	2012-02-06T17:00:00	ND	ND	ND	2006.16	ND	ND	1.3	22.5	25.6	67.4	179.4	0
17755	2012-02-06T18:00:00	ND	ND	ND	2100.68	ND	ND	1.5	46.9	24.7	69.2	44.4	0
17756	2012-02-06T19:00:00	ND	ND	ND	1968.46	ND	ND	1.3	2.7	24.2	75.9	0	0
17757	2012-02-06T20:00:00	ND	ND	ND	2250.79	ND	ND	0.7	290.6	23.9	75.6	0	0
17758	2012-02-06T21:00:00	ND	ND	ND	2533.86	ND	ND	0.4	145.9	23.7	75.6	0	0
17759	2012-02-06T22:00:00	ND	ND	ND	2007.47	ND	ND	0.6	189.8	22.7	82.6	0	0
17760	2012-02-06T23:00:00	ND	ND	ND	2534.99	ND	ND	0.3	214.1	22.6	79.1	0	0
17761	2012-02-07T00:00:00	ND	ND	ND	2056.85	ND	ND	0.5	276.7	22.6	78.4	0	0
17762	2012-02-07T01:00:00	ND	ND	ND	1863.66	ND	ND	0.8	267	22.3	78.1	0	0
17763	2012-02-07T02:00:00	ND	ND	ND	1702.84	ND	ND	1.4	262.8	22.4	76.3	0	0
17764	2012-02-07T03:00:00	ND	ND	ND	1135.61	ND	ND	0.1	ND	22	79.9	0	0
17765	2012-02-07T04:00:00	ND	ND	ND	997.99	ND	ND	0.4	ND	21.2	89	0	0
17766	2012-02-07T05:00:00	ND	ND	ND	1051.83	ND	ND	1.1	350.5	21.1	88.8	0	0
17767	2012-02-07T06:00:00	ND	ND	ND	1232.37	ND	ND	0.5	326.6	20.9	88.8	0	0
17768	2012-02-07T07:00:00	ND	ND	ND	1401.01	ND	ND	0.9	33.3	21	87.7	1.6	0
17769	2012-02-07T08:00:00	ND	ND	ND	1503.21	ND	ND	1.1	13.5	21.3	86.3	64.9	0
17770	2012-02-07T09:00:00	ND	ND	ND	2760.58	ND	ND	1.3	15.1	22.1	82	187.7	0
17771	2012-02-07T10:00:00	ND	ND	ND	2665.98	ND	ND	0.9	43.5	23.8	74.1	374.6	0
17772	2012-02-07T11:00:00	ND	ND	ND	1916.87	ND	ND	0.9	88.8	25.6	66.4	583.5	0
17773	2012-02-07T12:00:00	ND	ND	ND	1538.20	ND	ND	0.8	130.6	26.4	61	276.8	0
17774	2012-02-07T13:00:00	ND	ND	ND	1438.74	ND	ND	0.7	98.3	27.7	56.1	462.8	0
17775	2012-02-07T14:00:00	ND	ND	ND	1653.06	ND	ND	0.4	126.8	28.8	51.9	673.3	0
17776	2012-02-07T15:00:00	ND	ND	ND	1496.68	ND	ND	0.8	284.4	30.1	47.3	626.9	0
17777	2012-02-07T16:00:00	ND	ND	ND	1305.04	ND	ND	1.9	296.8	29.9	47.4	520.6	0
17778	2012-02-07T17:00:00	ND	ND	ND	1327.47	ND	ND	3.7	275	29.4	48.5	368.8	0
17779	2012-02-07T18:00:00	ND	ND	ND	1197.40	ND	ND	3.5	274	27.6	52.8	70.9	0
17780	2012-02-07T19:00:00	ND	ND	ND	1282.72	ND	ND	3	278.7	26.5	55.4	0	0
17781	2012-02-07T20:00:00	ND	ND	ND	1347.11	ND	ND	3.1	276	26	56.9	0	0
17782	2012-02-07T21:00:00	ND	ND	ND	1528.77	ND	ND	2.2	282.6	25.5	59.4	0	0
17783	2012-02-07T22:00:00	ND	ND	ND	1308.18	ND	ND	1.6	289.1	25.2	60.6	0	0
17784	2012-02-07T23:00:00	ND	ND	ND	1100.52	ND	ND	2.1	228.1	24.8	63.6	0	0
17785	2012-02-08T00:00:00	ND	ND	ND	1053.25	ND	ND	0.9	268	23.5	74.2	0	0
17786	2012-02-08T01:00:00	ND	ND	ND	854.88	ND	ND	0.9	235.2	23.2	73.7	0	0
17787	2012-02-08T02:00:00	ND	ND	ND	1161.46	ND	ND	0.6	226.9	23.1	76	0	0
17788	2012-02-08T03:00:00	ND	ND	ND	1013.09	ND	ND	1.7	168.1	22.7	78.4	0	0
17789	2012-02-08T04:00:00	ND	ND	ND	1045.82	ND	ND	1.6	198	22.1	83.6	0	0
17790	2012-02-08T05:00:00	ND	ND	ND	986.98	ND	ND	0.3	190.2	21.9	83.8	0	0.76
17791	2012-02-08T06:00:00	ND	ND	ND	940.96	ND	ND	0.7	261.6	22	82.9	0	0
17792	2012-02-08T07:00:00	ND	ND	ND	1009.33	ND	ND	0.1	208.8	22	81.7	4.2	0.25
17793	2012-02-08T08:00:00	ND	ND	ND	1043.35	ND	ND	1.2	0.2	22	87.5	89.4	0
17794	2012-02-08T09:00:00	ND	ND	ND	2211.45	ND	ND	0.5	41.4	22.3	85.9	95.9	0
17795	2012-02-08T10:00:00	ND	ND	ND	2679.14	ND	ND	1.3	48.7	22.1	85.3	43.1	0.76
17796	2012-02-08T11:00:00	ND	ND	ND	2813.46	ND	ND	1.4	328.9	22.4	83.8	403.3	0
17797	2012-02-08T12:00:00	ND	ND	ND	2725.47	ND	ND	0.8	74.8	25	69.7	321.2	0
17798	2012-02-08T13:00:00	ND	ND	ND	2050.64	ND	ND	2	23	23	83.2	265.6	2.29
17799	2012-02-08T14:00:00	ND	ND	ND	1695.50	ND	ND	2.1	20.3	24.2	75	434.1	0
17800	2012-02-08T15:00:00	ND	ND	ND	2022.28	ND	ND	1.4	63.3	24.9	70.4	137.3	0
17801	2012-02-08T16:00:00	ND	ND	ND	1523.15	ND	ND	1.1	74.8	24	76.8	72.5	0.25
17802	2012-02-08T17:00:00	ND	ND	ND	1952.41	ND	ND	1.9	163.4	22	86.7	3.5	7.87
17803	2012-02-08T18:00:00	ND	ND	ND	2290.83	ND	ND	1.2	202.7	20	95.7	0	59.69
17804	2012-02-08T19:00:00	ND	ND	ND	2466.78	ND	ND	1.1	185.5	19.4	97.8	0	10.41
17805	2012-02-08T20:00:00	ND	ND	ND	2236.92	ND	ND	1.8	171.5	19.4	96.7	0	0.76
17806	2012-02-08T21:00:00	ND	ND	ND	3012.53	ND	ND	1.1	188	19.4	95.6	0	0.25
17807	2012-02-08T22:00:00	ND	ND	ND	2405.53	ND	ND	0.9	173.1	19.6	93.6	0	0
17808	2012-02-08T23:00:00	ND	ND	ND	1597.28	ND	ND	0.7	243.7	20	91.1	0	0
17809	2012-02-09T00:00:00	ND	ND	ND	1734.63	ND	ND	0.9	11.9	20	91.5	0	0
17810	2012-02-09T01:00:00	ND	ND	ND	1520.62	ND	ND	0.7	145.9	19.6	93.8	0	0
17811	2012-02-09T02:00:00	ND	ND	ND	1990.98	ND	ND	0.8	160.1	19	95.1	0	0.25
17812	2012-02-09T03:00:00	ND	ND	ND	1448.08	ND	ND	0.7	147.8	18.7	95.7	0	0
17813	2012-02-09T04:00:00	ND	ND	ND	941.97	ND	ND	0	ND	18.4	96.3	0	0
17814	2012-02-09T05:00:00	ND	ND	ND	941.00	ND	ND	0.9	48.7	18.6	96.2	0	0
17815	2012-02-09T06:00:00	ND	ND	ND	975.27	ND	ND	0.6	266.3	18.8	94.4	0	0
17816	2012-02-09T07:00:00	ND	ND	ND	1301.26	ND	ND	0.7	200.3	19.1	88	4.2	0
17817	2012-02-09T08:00:00	ND	ND	ND	1291.36	ND	ND	0.8	188.3	19.5	91	69.2	0
17818	2012-02-09T09:00:00	ND	ND	ND	2069.01	ND	ND	0.5	177.6	21.2	82.2	298	0
17819	2012-02-09T10:00:00	ND	ND	ND	2895.36	ND	ND	1.2	63.6	22.9	76	506.7	0
17820	2012-02-09T11:00:00	ND	ND	ND	2468.45	ND	ND	1.6	87.2	24	70.5	556.8	0
17821	2012-02-09T12:00:00	ND	ND	ND	2306.36	ND	ND	1.1	115.5	25	65.4	650.1	0
17822	2012-02-09T13:00:00	ND	ND	ND	1867.34	ND	ND	1	117	27.1	58.4	855.1	0
17823	2012-02-09T14:00:00	ND	ND	ND	1788.20	ND	ND	1.4	81.9	27.9	55.7	645.1	0
17824	2012-02-09T15:00:00	ND	ND	ND	1561.62	ND	ND	0.9	77.9	28.4	53.3	428.2	0
17825	2012-02-09T16:00:00	ND	ND	ND	1506.28	ND	ND	0.8	36.8	28.3	53.8	235	0
17826	2012-02-09T17:00:00	ND	ND	ND	1610.03	ND	ND	0.2	ND	28	55.1	82.8	0
17827	2012-02-09T18:00:00	ND	ND	ND	1458.00	ND	ND	2.5	240.3	27.5	55.4	118	0
17828	2012-02-09T19:00:00	ND	ND	ND	1790.59	ND	ND	2.7	260.1	25.7	59.7	0	0
17829	2012-02-09T20:00:00	ND	ND	ND	1515.75	ND	ND	3.6	267.7	24.8	62.5	0	0
17830	2012-02-09T21:00:00	ND	ND	ND	1556.98	ND	ND	3.9	275	24.6	62.9	0	0
17831	2012-02-09T22:00:00	ND	ND	ND	1384.32	ND	ND	0.3	14.4	24.1	68.1	0	0
17832	2012-02-09T23:00:00	ND	ND	ND	913.72	ND	ND	0	ND	23.2	74.5	0	0
17833	2012-02-10T00:00:00	ND	ND	ND	1696.64	ND	ND	0.8	216	23.3	70.9	0	0
17834	2012-02-10T01:00:00	ND	ND	ND	2164.24	ND	ND	1.7	184.5	22.7	76	0	0
17835	2012-02-10T02:00:00	ND	ND	ND	1523.27	ND	ND	1	158.5	22.2	79.5	0	0
17836	2012-02-10T03:00:00	ND	ND	ND	1361.81	ND	ND	1.1	165.5	21.8	81.5	0	0
17837	2012-02-10T04:00:00	ND	ND	ND	1065.31	ND	ND	0.7	200.5	21.4	84.6	0	0
17838	2012-02-10T05:00:00	ND	ND	ND	995.96	ND	ND	0.4	108.3	21.4	85	0	0
17839	2012-02-10T06:00:00	ND	ND	ND	1007.27	ND	ND	0.1	ND	21.4	84.7	0	0
17840	2012-02-10T07:00:00	ND	ND	ND	1335.49	ND	ND	0.4	100.1	21.6	84.3	0	0
17841	2012-02-10T08:00:00	ND	ND	ND	1279.77	ND	ND	0.8	28.9	21.7	84.3	51.7	0
17842	2012-02-10T09:00:00	ND	ND	ND	2628.38	ND	ND	0.9	58.2	22.2	82.5	78.5	0
17843	2012-02-10T10:00:00	ND	ND	ND	3359.14	ND	ND	0.7	52.9	23.6	75.5	237.3	0
17844	2012-02-10T11:00:00	ND	ND	ND	2816.36	ND	ND	1.6	68.6	24.1	73.6	243	0
17845	2012-02-10T12:00:00	ND	ND	ND	2558.41	ND	ND	0.8	83.3	25.7	64.9	446.2	0
17846	2012-02-10T13:00:00	ND	ND	ND	2158.80	ND	ND	1	89.2	27.3	57	636.6	0
17847	2012-02-10T14:00:00	ND	ND	ND	1650.86	ND	ND	1.7	68.6	28	54.6	450.5	0
17848	2012-02-10T15:00:00	ND	ND	ND	1608.43	ND	ND	1.1	10.3	29	50.7	692.1	0
17849	2012-02-10T16:00:00	ND	ND	ND	1509.28	ND	ND	0.8	78.7	28.9	49.7	189.8	0
17850	2012-02-10T17:00:00	ND	ND	ND	1241.84	ND	ND	1.1	311.2	25.7	65.8	145	3.81
17851	2012-02-10T18:00:00	ND	ND	ND	1998.04	ND	ND	1.1	264.6	25.9	61.1	42.1	0
17852	2012-02-10T19:00:00	ND	ND	ND	1884.47	ND	ND	2.2	264.4	25	63.4	0	0
17853	2012-02-10T20:00:00	ND	ND	ND	1867.34	ND	ND	2.4	259.4	24.4	63.9	0	0
17854	2012-02-10T21:00:00	ND	ND	ND	2149.41	ND	ND	2.2	267.8	24	65.7	0	0
17855	2012-02-10T22:00:00	ND	ND	ND	1529.96	ND	ND	1.5	250.4	23.7	67.4	0	0
17856	2012-02-10T23:00:00	ND	ND	ND	1311.70	ND	ND	0.7	85.9	22.4	78.6	0	0
17857	2012-02-11T00:00:00	ND	ND	ND	1215.10	ND	ND	0.5	9.6	22.1	80.4	0	0
17858	2012-02-11T01:00:00	ND	ND	ND	2098.75	ND	ND	0.5	21.1	21.8	82.6	0	0
17859	2012-02-11T02:00:00	ND	ND	ND	1654.63	ND	ND	0.6	355.9	21.6	82.1	0	0
17860	2012-02-11T03:00:00	ND	ND	ND	1540.25	ND	ND	0.8	53.2	21.5	82.2	0	0
17861	2012-02-11T04:00:00	ND	ND	ND	1403.87	ND	ND	0.5	27.2	21.4	82	0	0
17862	2012-02-11T05:00:00	ND	ND	ND	1188.36	ND	ND	0.9	2.8	21.6	81	0	0
17863	2012-02-11T06:00:00	ND	ND	ND	1098.56	ND	ND	0.4	41.4	21.6	80.7	0	0
17864	2012-02-11T07:00:00	ND	ND	ND	1245.79	ND	ND	0.5	88.7	21.4	84.1	7.3	0
17865	2012-02-11T08:00:00	ND	ND	ND	1301.53	ND	ND	0.7	146.6	21.4	86.3	48.8	0
17866	2012-02-11T09:00:00	ND	ND	ND	1867.42	ND	ND	0.5	347.9	21.5	87.3	113.3	2.03
17867	2012-02-11T10:00:00	ND	ND	ND	2071.84	ND	ND	1.1	162.7	22.7	84.2	249	0.25
17868	2012-02-11T11:00:00	ND	ND	ND	2375.84	ND	ND	1.4	143.7	24.3	73.3	476	0
17869	2012-02-11T12:00:00	ND	ND	ND	2468.70	ND	ND	0.7	52.5	25.2	67	315.2	0
17870	2012-02-11T13:00:00	ND	ND	ND	2201.04	ND	ND	1.3	119.9	26.3	62.5	620.7	0
17871	2012-02-11T14:00:00	ND	ND	ND	1794.94	ND	ND	1.8	123.3	25.8	63.7	417.7	0
17872	2012-02-11T15:00:00	ND	ND	ND	1837.89	ND	ND	1.1	139.9	26.3	61.2	435.1	0
17873	2012-02-11T16:00:00	ND	ND	ND	1910.00	ND	ND	1.1	161.3	27.1	57.4	297.5	0
17874	2012-02-11T17:00:00	ND	ND	ND	1638.23	ND	ND	1	101.2	26.8	58.9	145.6	0
17875	2012-02-11T18:00:00	ND	ND	ND	1498.29	ND	ND	1.4	281.2	26.2	58.7	64.9	0
17876	2012-02-11T19:00:00	ND	ND	ND	1828.85	ND	ND	0.8	280.7	25.1	60.5	0	0
17877	2012-02-11T20:00:00	ND	ND	ND	1432.49	ND	ND	2.3	276	24.2	61.7	0	0
17878	2012-02-11T21:00:00	ND	ND	ND	1416.74	ND	ND	2.2	270.6	23.7	64.4	0	0
17879	2012-02-11T22:00:00	ND	ND	ND	1368.73	ND	ND	1.6	287	23.3	66.4	0	0
17880	2012-02-11T23:00:00	ND	ND	ND	1287.15	ND	ND	0.5	268.6	23.1	71.4	0	0
17881	2012-02-12T00:00:00	ND	ND	ND	1172.45	ND	ND	0.8	147.5	22.8	79.3	0	0
17882	2012-02-12T01:00:00	ND	ND	ND	1694.35	ND	ND	0.2	190.7	22.6	80.8	0	0
17883	2012-02-12T02:00:00	ND	ND	ND	2113.67	ND	ND	0.7	151.1	22.6	78.6	0	0
17884	2012-02-12T03:00:00	ND	ND	ND	1784.12	ND	ND	1.2	176.1	22	83.4	0	0
17885	2012-02-12T04:00:00	ND	ND	ND	1984.63	ND	ND	0.8	179.5	21.7	86.8	0	0
17886	2012-02-12T05:00:00	ND	ND	ND	1087.60	ND	ND	0.8	185	21.3	89.2	0	0
17887	2012-02-12T06:00:00	ND	ND	ND	1131.38	ND	ND	0.2	52.7	21.4	89.4	0	0
17888	2012-02-12T07:00:00	ND	ND	ND	1165.72	ND	ND	0.3	333.3	21.4	86.9	0	0
17889	2012-02-12T08:00:00	ND	ND	ND	1437.35	ND	ND	0.2	75.9	21.4	85.9	31.1	0
17890	2012-02-12T09:00:00	ND	ND	ND	1686.33	ND	ND	0.3	ND	22.1	84.4	140.1	0
17891	2012-02-12T10:00:00	ND	ND	ND	1554.21	ND	ND	0.7	159.9	23.6	75.5	270.9	0
17892	2012-02-12T11:00:00	ND	ND	ND	1676.13	ND	ND	0.5	45.1	26.1	62.8	763.7	0
17893	2012-02-12T12:00:00	ND	ND	ND	1644.27	ND	ND	0.3	80	27.3	56.9	658.5	0
17894	2012-02-12T13:00:00	ND	ND	ND	1258.35	ND	ND	0.9	66.8	28.5	51.2	640.3	0
17895	2012-02-12T14:00:00	ND	ND	ND	1251.79	ND	ND	0.5	45.6	28.6	50.1	255.4	0
17896	2012-02-12T15:00:00	ND	ND	ND	1252.20	ND	ND	0.9	294.1	27.6	55.4	137.2	6.86
17897	2012-02-12T16:00:00	ND	ND	ND	1236.49	ND	ND	2.9	251.8	23.6	71.1	139.7	0.51
17898	2012-02-12T17:00:00	ND	ND	ND	1094.62	ND	ND	2.3	285.8	26.5	58	297.7	0
17899	2012-02-12T18:00:00	ND	ND	ND	944.13	ND	ND	4.7	268.9	24.3	63.5	39	0
17900	2012-02-12T19:00:00	ND	ND	ND	902.90	ND	ND	5	260.7	23.3	66.5	0	0
17901	2012-02-12T20:00:00	ND	ND	ND	842.91	ND	ND	3.9	265.4	23.7	62.6	0	0
17902	2012-02-12T21:00:00	ND	ND	ND	844.05	ND	ND	1.5	263	23	69.3	0	0
17903	2012-02-12T22:00:00	ND	ND	ND	876.20	ND	ND	0.2	ND	22.8	72.2	0	0
17904	2012-02-12T23:00:00	ND	ND	ND	1239.49	ND	ND	0.2	202.6	22.5	73	0	0
17905	2012-02-13T00:00:00	ND	ND	ND	1579.04	ND	ND	0.1	ND	21.9	77.7	0	0
17906	2012-02-13T01:00:00	ND	ND	ND	1881.93	ND	ND	0.5	ND	21.7	79.3	0	0
17907	2012-02-13T02:00:00	ND	ND	ND	1699.38	ND	ND	0.1	ND	21.3	84.2	0	0
17908	2012-02-13T03:00:00	ND	ND	ND	1425.54	ND	ND	0.2	ND	21.5	80.8	0	0
17909	2012-02-13T04:00:00	ND	ND	ND	973.65	ND	ND	0.4	ND	21.2	84.8	0	0
17910	2012-02-13T05:00:00	ND	ND	ND	1119.69	ND	ND	0	ND	21.1	85	0	0
17911	2012-02-13T06:00:00	ND	ND	ND	1017.55	ND	ND	0.2	ND	21.3	83.8	0	0
17912	2012-02-13T07:00:00	ND	ND	ND	1233.21	ND	ND	0.6	154.8	21.1	84.9	2.7	0
17913	2012-02-13T08:00:00	ND	ND	ND	1537.64	ND	ND	0.6	162.7	21.3	84.8	54.9	0
17914	2012-02-13T09:00:00	ND	ND	ND	2172.26	ND	ND	1.1	164.4	22	79.8	139.8	0
17915	2012-02-13T10:00:00	ND	ND	ND	2846.53	ND	ND	0.8	164.3	23.3	72	377.9	0
17916	2012-02-13T11:00:00	ND	ND	ND	2380.66	ND	ND	1.6	174.8	24.9	66.6	548.8	0
17917	2012-02-13T12:00:00	ND	ND	ND	1843.81	ND	ND	1.6	179.1	26.2	59.5	696.8	0
17918	2012-02-13T13:00:00	ND	ND	ND	1679.32	ND	ND	0.4	132.9	27.6	52.4	700.2	0
17919	2012-02-13T14:00:00	ND	ND	ND	1432.95	ND	ND	0.8	111.5	28.8	49.6	584.5	0
17920	2012-02-13T15:00:00	ND	ND	ND	1253.03	ND	ND	1.1	92.5	28.9	48.7	578.9	0
17921	2012-02-13T16:00:00	ND	ND	ND	1543.60	ND	ND	1	29.3	28.9	47.4	159.4	0
17922	2012-02-13T17:00:00	ND	ND	ND	1485.57	ND	ND	3.1	280.3	27.9	48.9	146.9	0
17923	2012-02-13T18:00:00	ND	ND	ND	1781.40	ND	ND	2.1	277.8	27.1	50.8	62.5	0
17924	2012-02-13T19:00:00	ND	ND	ND	1292.12	ND	ND	3.4	264.3	25.8	55.4	0	0
17925	2012-02-13T20:00:00	ND	ND	ND	1504.77	ND	ND	3.5	273.8	25.2	57.3	0	0
17926	2012-02-13T21:00:00	ND	ND	ND	1375.65	ND	ND	3.1	272.4	24.8	58.5	0	0
17927	2012-02-13T22:00:00	ND	ND	ND	1099.04	ND	ND	2	224.7	24.4	61.6	0	0
17928	2012-02-13T23:00:00	ND	ND	ND	868.91	ND	ND	1.5	232.5	24.1	62.8	0	0
17929	2012-02-14T00:00:00	ND	ND	ND	1062.20	ND	ND	1.3	261.2	23.8	63.3	0	0
17930	2012-02-14T01:00:00	ND	ND	ND	1061.12	ND	ND	0.7	150.9	22.9	73	0	0
17931	2012-02-14T02:00:00	ND	ND	ND	819.02	ND	ND	0.1	ND	22.2	77.3	0	0
17932	2012-02-14T03:00:00	ND	ND	ND	975.97	ND	ND	0.1	ND	22.2	77.5	0	0
17933	2012-02-14T04:00:00	ND	ND	ND	975.97	ND	ND	0.6	8	22.2	76.4	0	0
17934	2012-02-14T05:00:00	ND	ND	ND	1078.10	ND	ND	0.2	ND	22.1	77.2	0	0
17935	2012-02-14T06:00:00	ND	ND	ND	1111.77	ND	ND	0.2	ND	21.8	78.4	0	0
17936	2012-02-14T07:00:00	ND	ND	ND	1257.97	ND	ND	0.2	ND	21.9	78.4	3.8	0
17937	2012-02-14T08:00:00	ND	ND	ND	1428.45	ND	ND	0.5	153.4	22.3	73.3	39.9	0
17938	2012-02-14T09:00:00	ND	ND	ND	1895.83	ND	ND	0.6	71.3	22.7	75.8	96.3	0
17939	2012-02-14T10:00:00	ND	ND	ND	2671.40	ND	ND	0.4	45.2	24.7	67.3	404.1	0
17940	2012-02-14T11:00:00	ND	ND	ND	3147.25	ND	ND	0.7	137.4	26.2	58.5	490.3	0
17941	2012-02-14T12:00:00	ND	ND	ND	2116.41	ND	ND	0.4	120.8	27.3	54	506.4	0
17942	2012-02-14T13:00:00	ND	ND	ND	1627.77	ND	ND	0.3	351.1	28.5	50.3	463.8	0
17943	2012-02-14T14:00:00	ND	ND	ND	1367.69	ND	ND	0.1	322.8	29.7	46	626.7	0
17944	2012-02-14T15:00:00	ND	ND	ND	1454.59	ND	ND	2.9	276.1	30.1	43	682.2	0
17945	2012-02-14T16:00:00	ND	ND	ND	1386.60	ND	ND	4.5	278.2	29.4	44.6	561	0
17946	2012-02-14T17:00:00	ND	ND	ND	1185.77	ND	ND	4	283	28.9	44.5	306.3	0
17947	2012-02-14T18:00:00	ND	ND	ND	1241.84	ND	ND	3.2	289.6	27.5	48.4	84.9	0
17948	2012-02-14T19:00:00	ND	ND	ND	1236.08	ND	ND	4	271.2	25.9	54.5	0	0
17949	2012-02-14T20:00:00	ND	ND	ND	1252.48	ND	ND	2.8	292.6	25.1	58.3	0	0
17950	2012-02-14T21:00:00	ND	ND	ND	1191.83	ND	ND	2.5	269.8	24.9	59.8	0	0
17951	2012-02-14T22:00:00	ND	ND	ND	1087.96	ND	ND	3.1	274.8	24.5	60.9	0	0
17952	2012-02-14T23:00:00	ND	ND	ND	960.70	ND	ND	0.8	324.5	24.5	62.3	0	0
17953	2012-02-15T00:00:00	ND	ND	ND	892.07	ND	ND	1.2	241.6	24.2	61.9	0	0
17954	2012-02-15T01:00:00	ND	ND	ND	1085.41	ND	ND	0.9	59.9	23.3	69.6	0	0
17955	2012-02-15T02:00:00	ND	ND	ND	934.04	ND	ND	1.4	112.8	22.2	76.6	0	0
17956	2012-02-15T03:00:00	ND	ND	ND	953.27	ND	ND	1	46.6	22	77.8	0	0
17957	2012-02-15T04:00:00	ND	ND	ND	873.24	ND	ND	0.7	102.7	21.7	78.4	0	0
17958	2012-02-15T05:00:00	ND	ND	ND	849.69	ND	ND	0.8	203.8	21.1	83.3	0	0
17959	2012-02-15T06:00:00	ND	ND	ND	859.27	ND	ND	1	166.4	20.9	85.2	0	0
17960	2012-02-15T07:00:00	ND	ND	ND	869.98	ND	ND	0.3	ND	21	85.8	4	0
17961	2012-02-15T08:00:00	ND	ND	ND	1231.95	ND	ND	0.4	56.3	21.4	82.4	88	0
17962	2012-02-15T09:00:00	ND	ND	ND	2229.58	ND	ND	0.9	71	22.8	75.5	231.8	0
17963	2012-02-15T10:00:00	ND	ND	ND	3047.56	ND	ND	0.9	104.8	24.6	65.7	493.7	0
17964	2012-02-15T11:00:00	ND	ND	ND	2757.21	ND	ND	1	101.3	26.7	57.9	767.1	0
17965	2012-02-15T12:00:00	ND	ND	ND	1647.56	ND	ND	1.5	132.3	27.9	53.6	691	0
17966	2012-02-15T13:00:00	ND	ND	ND	1457.51	ND	ND	0.2	358.3	28.1	50.2	444.4	0
17967	2012-02-15T14:00:00	ND	ND	ND	1516.36	ND	ND	0.9	307.3	29.7	44.7	718.9	0
17968	2012-02-15T15:00:00	ND	ND	ND	1338.23	ND	ND	3.3	286.7	29.9	42	618.9	0
17969	2012-02-15T16:00:00	ND	ND	ND	1152.80	ND	ND	4.2	276.5	29.5	44	581.9	0
17970	2012-02-15T17:00:00	ND	ND	ND	1128.02	ND	ND	4	294.1	28.7	44.5	339.7	0
17971	2012-02-15T18:00:00	ND	ND	ND	1183.03	ND	ND	3.9	279.4	27.8	47.1	148.9	0
17972	2012-02-15T19:00:00	ND	ND	ND	1202.63	ND	ND	3.8	273.7	26	52.3	0	0
17973	2012-02-15T20:00:00	ND	ND	ND	1183.94	ND	ND	3.9	263.3	25.3	56.2	0	0
17974	2012-02-15T21:00:00	ND	ND	ND	1227.03	ND	ND	3	254.9	24.5	59.7	0	0
17975	2012-02-15T22:00:00	ND	ND	ND	1017.88	ND	ND	2.5	267.6	24.2	60.2	0	0
17976	2012-02-15T23:00:00	ND	ND	ND	959.73	ND	ND	1.4	280.4	24.3	59.1	0	0
17977	2012-02-16T00:00:00	ND	ND	ND	971.48	ND	ND	1.1	58.2	23.2	67.9	0	0
17978	2012-02-16T01:00:00	ND	ND	ND	967.88	ND	ND	0.6	90.9	22.8	71	0	0
17979	2012-02-16T02:00:00	ND	ND	ND	1137.15	ND	ND	0.6	175.1	22.4	72.7	0	0
17980	2012-02-16T03:00:00	ND	ND	ND	965.27	ND	ND	0.4	208.2	22.4	71.5	0	0
17981	2012-02-16T04:00:00	ND	ND	ND	976.63	ND	ND	0.5	248.2	22.2	68.3	0	0
17982	2012-02-16T05:00:00	ND	ND	ND	930.57	ND	ND	0.5	16.2	22.1	73.8	0	0
17983	2012-02-16T06:00:00	ND	ND	ND	794.12	ND	ND	0.5	108	21.6	79.4	0	0
17984	2012-02-16T07:00:00	ND	ND	ND	1098.56	ND	ND	0.5	234.1	21.4	76.4	7	0
17985	2012-02-16T08:00:00	ND	ND	ND	1573.16	ND	ND	0.7	224.3	22.1	70.7	137.8	0
17986	2012-02-16T09:00:00	ND	ND	ND	1928.58	ND	ND	0.8	155.1	23.9	65.4	331.5	0
17987	2012-02-16T10:00:00	ND	ND	ND	2522.45	ND	ND	ND	ND	ND	ND	ND	ND
17988	2012-02-16T11:00:00	ND	ND	ND	ND	ND	ND	ND	ND	ND	ND	ND	ND
17989	2012-02-16T12:00:00	ND	ND	ND	ND	ND	ND	0.5	102.5	25.9	58.4	389.6	0
17990	2012-02-16T13:00:00	ND	ND	ND	ND	ND	ND	0.9	128.1	28.1	49.4	739.1	0
17991	2012-02-16T14:00:00	ND	ND	ND	1273.28	ND	ND	0.2	101.2	30.1	42.6	701.5	0
17992	2012-02-16T15:00:00	ND	ND	ND	1386.60	ND	ND	1.3	90	29.1	45.1	162.4	0
17993	2012-02-16T16:00:00	ND	ND	ND	1312.35	ND	ND	0.2	58.2	28.9	45.6	199.2	0
17994	2012-02-16T17:00:00	ND	ND	ND	1694.48	ND	ND	3.8	277.2	28.6	46.7	329.2	0
17995	2012-02-16T18:00:00	ND	ND	ND	1576.85	ND	ND	4.7	269.7	27	50.7	111.8	0
17996	2012-02-16T19:00:00	ND	ND	ND	1187.89	ND	ND	5	272	25.3	56.5	0	0
17997	2012-02-16T20:00:00	ND	ND	ND	1123.83	ND	ND	5.8	270.7	24.6	59.5	0	0
17998	2012-02-16T21:00:00	ND	ND	ND	1052.54	ND	ND	4.8	273.9	24.2	60.6	0	0
17999	2012-02-16T22:00:00	ND	ND	ND	868.32	ND	ND	3.4	272.3	23.8	60.9	0	0
18000	2012-02-16T23:00:00	ND	ND	ND	775.88	ND	ND	3.2	280.7	23.6	61	0	0
18001	2012-02-17T00:00:00	ND	ND	ND	775.35	ND	ND	4.3	280.3	23.4	61	0	0
18002	2012-02-17T01:00:00	ND	ND	ND	774.83	ND	ND	1.9	247.5	22.7	68.3	0	5.84
18003	2012-02-17T02:00:00	ND	ND	ND	693.43	ND	ND	1.3	183.9	21.2	83.6	0	0.51
18004	2012-02-17T03:00:00	ND	ND	ND	746.46	ND	ND	0.7	154.6	21.3	81.9	0	0.25
18005	2012-02-17T04:00:00	ND	ND	ND	1097.44	ND	ND	0.6	117.5	21	82.7	0	0
18006	2012-02-17T05:00:00	ND	ND	ND	1062.42	ND	ND	0.4	79.9	21.1	79.6	0	0
18007	2012-02-17T06:00:00	ND	ND	ND	1108.00	ND	ND	0.5	176.7	21.1	78.6	0	0
18008	2012-02-17T07:00:00	ND	ND	ND	1074.08	ND	ND	0.2	127.3	20.9	78.5	6.5	0
18009	2012-02-17T08:00:00	ND	ND	ND	1208.93	ND	ND	0.9	193.9	21.3	77.5	78.1	0
18010	2012-02-17T09:00:00	ND	ND	ND	1719.70	ND	ND	0.9	177.9	22.7	71.6	292.1	0
18011	2012-02-17T10:00:00	ND	ND	ND	2330.37	ND	ND	0.5	101.2	24.7	62.6	553.9	0
18012	2012-02-17T11:00:00	ND	ND	ND	1739.57	ND	ND	0.9	136.8	26.4	54.8	689	0
18013	2012-02-17T12:00:00	ND	ND	ND	1369.68	ND	ND	0.7	107.4	27.2	52.3	447.4	0
18014	2012-02-17T13:00:00	ND	ND	ND	1327.17	ND	ND	0.3	2.2	26.9	51.5	309.6	0
18015	2012-02-17T14:00:00	ND	ND	ND	1498.79	ND	ND	0.9	296.1	28.4	46.7	616.5	0
18016	2012-02-17T15:00:00	ND	ND	ND	1378.83	ND	ND	3.6	278	29.5	42.8	747.4	0
18017	2012-02-17T16:00:00	ND	ND	ND	1081.50	ND	ND	4.4	277.6	28.9	44.6	561.9	0
18018	2012-02-17T17:00:00	ND	ND	ND	1207.02	ND	ND	4.5	281.4	27.9	46.5	347.4	0
18019	2012-02-17T18:00:00	ND	ND	ND	1249.30	ND	ND	3.9	286.9	26.8	48.9	93.4	0
18020	2012-02-17T19:00:00	ND	ND	ND	1244.73	ND	ND	3.8	272.4	25.6	54.1	1.4	0
18021	2012-02-17T20:00:00	ND	ND	ND	1239.75	ND	ND	4.3	278.4	25	56.6	0	0
18022	2012-02-17T21:00:00	ND	ND	ND	1294.54	ND	ND	3.2	278.6	24.9	57.1	0	0
18023	2012-02-17T22:00:00	ND	ND	ND	927.63	ND	ND	3.7	254.7	24.6	57.5	0	0
18024	2012-02-17T23:00:00	ND	ND	ND	972.46	ND	ND	1.5	268.3	24.4	57.7	0	0
18025	2012-02-18T00:00:00	ND	ND	ND	788.88	ND	ND	0.5	271.5	23.4	63.7	0	0
18026	2012-02-18T01:00:00	ND	ND	ND	1025.51	ND	ND	1.2	206.3	23.3	64.1	0	0
18027	2012-02-18T02:00:00	ND	ND	ND	1401.06	ND	ND	1	178.3	22.8	71	0	0
18028	2012-02-18T03:00:00	ND	ND	ND	1000.69	ND	ND	0.8	273.3	22.8	65.1	0	0
18029	2012-02-18T04:00:00	ND	ND	ND	1194.01	ND	ND	0.5	305.3	22.4	65.6	0	0
18030	2012-02-18T05:00:00	ND	ND	ND	1112.90	ND	ND	0.9	25.6	21.9	72	0	0
18031	2012-02-18T06:00:00	ND	ND	ND	974.97	ND	ND	0.1	ND	21.7	73.4	0	0
18032	2012-02-18T07:00:00	ND	ND	ND	1438.81	ND	ND	0.3	271.2	21.9	74	2.2	0
18033	2012-02-18T08:00:00	ND	ND	ND	1383.10	ND	ND	0.2	302.3	22.3	68.8	41.7	0
18034	2012-02-18T09:00:00	ND	ND	ND	1657.43	ND	ND	1.1	102.6	22.8	74.1	194.8	0
18035	2012-02-18T10:00:00	ND	ND	ND	1785.33	ND	ND	ND	ND	ND	ND	ND	ND
18036	2012-02-18T11:00:00	ND	ND	ND	ND	ND	ND	ND	ND	ND	ND	ND	ND
18037	2012-02-18T12:00:00	ND	ND	ND	ND	ND	ND	0.6	213	26.2	56.3	349.1	0
18038	2012-02-18T13:00:00	ND	ND	ND	ND	ND	ND	1.2	212.1	27.6	51.3	927.8	0
18039	2012-02-18T14:00:00	ND	ND	ND	1375.17	ND	ND	1.5	120.5	28.5	47.8	806.2	0
18040	2012-02-18T15:00:00	ND	ND	ND	1217.02	ND	ND	0.8	48.6	29.2	45.3	390.1	0
18041	2012-02-18T16:00:00	ND	ND	ND	1301.16	ND	ND	2.4	303.2	28.7	46.4	414	0
18042	2012-02-18T17:00:00	ND	ND	ND	1345.40	ND	ND	3	275	29.2	44.7	377.8	0
18043	2012-02-18T18:00:00	ND	ND	ND	1068.81	ND	ND	3.7	272.5	27.8	48.3	134.3	0
18044	2012-02-18T19:00:00	ND	ND	ND	1110.12	ND	ND	4.2	271.1	25.9	54.2	1.1	0
18045	2012-02-18T20:00:00	ND	ND	ND	1114.60	ND	ND	4.3	275.3	25.3	56.2	0	0
18046	2012-02-18T21:00:00	ND	ND	ND	1043.55	ND	ND	2.7	291.4	25	56.1	0	0
18047	2012-02-18T22:00:00	ND	ND	ND	1008.13	ND	ND	0.4	237.3	24.6	59.6	0	0
18048	2012-02-18T23:00:00	ND	ND	ND	903.82	ND	ND	2.6	242.1	24.4	58.8	0	0
18049	2012-02-19T00:00:00	ND	ND	ND	1703.52	ND	ND	1.5	217.8	24.2	61	0	0
18050	2012-02-19T01:00:00	ND	ND	ND	902.60	ND	ND	1	189.9	23.6	66.3	0	0
18051	2012-02-19T02:00:00	ND	ND	ND	1060.41	ND	ND	0.3	257.9	22.9	71.3	0	0
18052	2012-02-19T03:00:00	ND	ND	ND	1421.92	ND	ND	0.9	352	22.3	72.8	0	0
18053	2012-02-19T04:00:00	ND	ND	ND	1260.10	ND	ND	0.9	347.9	21.9	74.7	0	0
18054	2012-02-19T05:00:00	ND	ND	ND	1371.76	ND	ND	0.4	231.4	21.5	73	0	0
18055	2012-02-19T06:00:00	ND	ND	ND	1335.94	ND	ND	1.4	274.8	21.2	70.4	0	0
18056	2012-02-19T07:00:00	ND	ND	ND	1244.10	ND	ND	0.5	282.8	21.5	69	12	0
18057	2012-02-19T08:00:00	ND	ND	ND	984.97	ND	ND	1	17	22.6	68.8	174.6	0
18058	2012-02-19T09:00:00	ND	ND	ND	1090.93	ND	ND	1.5	32.7	23.7	67.8	329.2	0
18059	2012-02-19T10:00:00	ND	ND	ND	1619.67	ND	ND	1.8	37.9	24.9	62.5	513.5	0
18060	2012-02-19T11:00:00	ND	ND	ND	1420.08	ND	ND	1.7	58.3	26.7	56.3	671.6	0
18061	2012-02-19T12:00:00	ND	ND	ND	1152.14	ND	ND	2	28.2	27	54.9	426.2	0
18062	2012-02-19T13:00:00	ND	ND	ND	1222.49	ND	ND	0.5	14.4	27.7	51.3	528.9	0
18063	2012-02-19T14:00:00	ND	ND	ND	1086.63	ND	ND	0.9	1	28.6	48.4	520.3	0
18064	2012-02-19T15:00:00	ND	ND	ND	1031.91	ND	ND	1.3	357	29.5	44	528.1	0
18065	2012-02-19T16:00:00	ND	ND	ND	1034.99	ND	ND	3	306.5	29.1	45	318.9	0
18066	2012-02-19T17:00:00	ND	ND	ND	963.94	ND	ND	3.2	285.9	28.3	46.5	356	0
18067	2012-02-19T18:00:00	ND	ND	ND	938.22	ND	ND	2.7	294.5	26.8	48.8	37.5	0
18068	2012-02-19T19:00:00	ND	ND	ND	864.40	ND	ND	3.8	272.7	25.3	53.7	0	0
18069	2012-02-19T20:00:00	ND	ND	ND	871.54	ND	ND	2.4	293.6	25.4	51.1	0	0
18070	2012-02-19T21:00:00	ND	ND	ND	848.89	ND	ND	2.7	269.7	24.8	55.4	0	0
18071	2012-02-19T22:00:00	ND	ND	ND	927.32	ND	ND	3	243.9	24.1	58.4	0	0
18072	2012-02-19T23:00:00	ND	ND	ND	890.88	ND	ND	1.1	244.5	23.6	61.3	0	0
18073	2012-02-20T00:00:00	ND	ND	ND	820.96	ND	ND	1.4	275.2	23.2	61.3	0	0
18074	2012-02-20T01:00:00	ND	ND	ND	1002.05	ND	ND	0.8	218.4	22.8	61.8	0	0
18075	2012-02-20T02:00:00	ND	ND	ND	852.86	ND	ND	0.5	256.4	22.4	64.6	0	0
18076	2012-02-20T03:00:00	ND	ND	ND	851.71	ND	ND	0.9	325.7	21.4	74.9	0	0
18077	2012-02-20T04:00:00	ND	ND	ND	1029.91	ND	ND	0.5	245.1	21.6	67.7	0	0
18078	2012-02-20T05:00:00	ND	ND	ND	1257.12	ND	ND	0.2	3.3	21.7	69.4	0	0
18079	2012-02-20T06:00:00	ND	ND	ND	974.31	ND	ND	0.3	ND	21.3	76.7	0	0
18080	2012-02-20T07:00:00	ND	ND	ND	1006.93	ND	ND	0.4	315.7	21.4	74.2	8.5	0
18081	2012-02-20T08:00:00	ND	ND	ND	1573.16	ND	ND	0.7	235.5	22.1	66.5	88.8	0
18082	2012-02-20T09:00:00	ND	ND	ND	1905.89	ND	ND	0.9	123.8	23.2	65.9	259.3	0
18083	2012-02-20T10:00:00	ND	ND	ND	2254.60	ND	ND	1.2	117.5	25.2	60.4	555.4	0
18084	2012-02-20T11:00:00	ND	ND	ND	2430.32	ND	ND	1.4	152.5	27	54	758.9	0
18085	2012-02-20T12:00:00	ND	ND	ND	1902.94	ND	ND	1.5	153.4	28.2	49.1	719.9	0
18086	2012-02-20T13:00:00	ND	ND	ND	1424.23	ND	ND	1	197.7	29.1	45.3	722.3	0
18087	2012-02-20T14:00:00	ND	ND	ND	1440.10	ND	ND	0.9	335.8	29.5	43.4	577.4	0
18088	2012-02-20T15:00:00	ND	ND	ND	1407.12	ND	ND	3.8	284.8	28.7	45.2	329.7	0
18089	2012-02-20T16:00:00	ND	ND	ND	1357.00	ND	ND	4.4	283.4	28.4	46	491.7	0
18090	2012-02-20T17:00:00	ND	ND	ND	1239.79	ND	ND	5.1	277.2	27.3	49.1	298.8	0
18091	2012-02-20T18:00:00	ND	ND	ND	1223.72	ND	ND	3.6	278.9	26.6	50.8	137.6	0
18092	2012-02-20T19:00:00	ND	ND	ND	1117.21	ND	ND	4.1	271.4	25.5	53.9	3.1	0
18093	2012-02-20T20:00:00	ND	ND	ND	1285.23	ND	ND	3	281.3	24.9	55	0	0
18094	2012-02-20T21:00:00	ND	ND	ND	1351.36	ND	ND	2.6	282.4	24.7	55.9	0	0
18095	2012-02-20T22:00:00	ND	ND	ND	1133.01	ND	ND	2.8	252.9	24.3	58.6	0	0
18096	2012-02-20T23:00:00	ND	ND	ND	868.62	ND	ND	1.7	206.7	23.8	63.1	0	0
18097	2012-02-21T00:00:00	ND	ND	ND	855.75	ND	ND	2.5	253	23.3	63	0	0
18098	2012-02-21T01:00:00	ND	ND	ND	1161.85	ND	ND	0.9	294.3	23.1	65.4	0	0
18099	2012-02-21T02:00:00	ND	ND	ND	717.13	ND	ND	0.5	196.8	22.9	67.5	0	0
18100	2012-02-21T03:00:00	ND	ND	ND	1035.16	ND	ND	1	3.6	22.7	68.7	0	0
18101	2012-02-21T04:00:00	ND	ND	ND	1000.35	ND	ND	0.8	106.1	22.3	72.2	0	0
18102	2012-02-21T05:00:00	ND	ND	ND	1033.06	ND	ND	0.6	168.8	21.8	76.4	0	0
18103	2012-02-21T06:00:00	ND	ND	ND	1008.64	ND	ND	0.4	237.4	22.1	71.5	0	0
18104	2012-02-21T07:00:00	ND	ND	ND	1043.70	ND	ND	ND	ND	ND	ND	ND	ND
18105	2012-02-21T08:00:00	ND	ND	ND	ND	ND	ND	0.3	149.3	22.5	71.1	78.1	0
18106	2012-02-21T09:00:00	ND	ND	ND	ND	ND	ND	0.4	75.8	23.4	68	199.4	0
18107	2012-02-21T10:00:00	ND	ND	ND	2096.60	ND	ND	1	168.9	25.3	61.1	578.2	0
18108	2012-02-21T11:00:00	ND	ND	ND	2293.52	ND	ND	0.9	133.3	26.1	57.1	569.9	0
18109	2012-02-21T12:00:00	ND	ND	ND	1816.74	ND	ND	1	118.8	27.6	51.9	549.1	0
18110	2012-02-21T13:00:00	ND	ND	ND	1375.17	ND	ND	0.7	50.1	27.9	49.3	408.8	0
18111	2012-02-21T14:00:00	ND	ND	ND	1688.86	ND	ND	0.9	47.2	29.2	45.8	463.4	0
18112	2012-02-21T15:00:00	ND	ND	ND	1428.96	ND	ND	3	301.4	27.9	48.9	244.4	0
18113	2012-02-21T16:00:00	ND	ND	ND	1388.11	ND	ND	4.1	274.7	28	47.5	442.8	0
18114	2012-02-21T17:00:00	ND	ND	ND	1446.43	ND	ND	4	271.7	28.2	46.6	293.2	0
18115	2012-02-21T18:00:00	ND	ND	ND	1354.75	ND	ND	3.2	274.2	26.9	50.2	31.7	0
18116	2012-02-21T19:00:00	ND	ND	ND	1348.91	ND	ND	2.7	265.2	26	52.9	0	0
18117	2012-02-21T20:00:00	ND	ND	ND	1517.28	ND	ND	2.7	258.3	25.3	56	0	0
18118	2012-02-21T21:00:00	ND	ND	ND	1513.72	ND	ND	3.1	263.8	24.8	58.6	0	0
18119	2012-02-21T22:00:00	ND	ND	ND	1328.01	ND	ND	1.7	271.3	24.5	59.9	0	0
18120	2012-02-21T23:00:00	ND	ND	ND	1063.63	ND	ND	2.3	264.4	24.1	61.3	0	0
18121	2012-02-22T00:00:00	ND	ND	ND	1073.62	ND	ND	1.4	272.9	23.7	62.4	0	0
18122	2012-02-22T01:00:00	ND	ND	ND	958.11	ND	ND	0.9	40.5	22.5	74.8	0	0
18123	2012-02-22T02:00:00	ND	ND	ND	829.28	ND	ND	0.2	ND	22	76.2	0	0
18124	2012-02-22T03:00:00	ND	ND	ND	1462.96	ND	ND	0.3	90.3	22	75	0	0
18125	2012-02-22T04:00:00	ND	ND	ND	1292.84	ND	ND	1	139.3	21.8	74.6	0	0
18126	2012-02-22T05:00:00	ND	ND	ND	1144.64	ND	ND	0.5	137.1	21.5	75.3	0	0
18127	2012-02-22T06:00:00	ND	ND	ND	1007.62	ND	ND	0.3	ND	21.6	75.8	0	0
18128	2012-02-22T07:00:00	ND	ND	ND	1087.24	ND	ND	0.3	ND	21.7	75.2	6.7	0
18129	2012-02-22T08:00:00	ND	ND	ND	1200.90	ND	ND	0.5	212.4	22.3	71.8	85.3	0
18130	2012-02-22T09:00:00	ND	ND	ND	1532.56	ND	ND	0.3	99.5	22.9	71.5	98.4	0
18131	2012-02-22T10:00:00	ND	ND	ND	2297.82	ND	ND	0.7	94.2	24	68.4	411.4	0
18132	2012-02-22T11:00:00	ND	ND	ND	2648.89	ND	ND	1.1	114.4	26.1	58.6	525.7	0
18133	2012-02-22T12:00:00	ND	ND	ND	2667.62	ND	ND	1.7	54	25.9	58.1	136.7	0
18134	2012-02-22T13:00:00	ND	ND	ND	2033.85	ND	ND	1.6	64.1	25.4	60.5	86.2	0
18135	2012-02-22T14:00:00	ND	ND	ND	1789.55	ND	ND	1.2	34.6	25.8	58.8	106.8	0
18136	2012-02-22T15:00:00	ND	ND	ND	1883.84	ND	ND	1.5	51.3	26.3	57.8	313.2	0
18137	2012-02-22T16:00:00	ND	ND	ND	1668.38	ND	ND	0.3	98.8	27.2	53.7	319.5	0
18138	2012-02-22T17:00:00	ND	ND	ND	1708.02	ND	ND	1.5	231.8	27	53.1	105.7	0
18139	2012-02-22T18:00:00	ND	ND	ND	1706.88	ND	ND	2.2	185.3	25.9	60.5	19.7	0
18140	2012-02-22T19:00:00	ND	ND	ND	1689.13	ND	ND	1.6	213.3	25.2	60.1	0	0
18141	2012-02-22T20:00:00	ND	ND	ND	2132.26	ND	ND	1.5	261.3	24.7	58.5	0	0
18142	2012-02-22T21:00:00	ND	ND	ND	2082.91	ND	ND	1.4	261.5	24.2	58.8	0	0
18143	2012-02-22T22:00:00	ND	ND	ND	1656.67	ND	ND	1.3	259.2	23.6	61.4	0	0
18144	2012-02-22T23:00:00	ND	ND	ND	1379.67	ND	ND	0.9	300.2	23.2	62.3	0	0
18145	2012-02-23T00:00:00	ND	ND	ND	1286.72	ND	ND	0.2	74.5	22.9	67.1	0	0
18146	2012-02-23T01:00:00	ND	ND	ND	1103.41	ND	ND	0.8	233.7	22.5	64.7	0	0
18147	2012-02-23T02:00:00	ND	ND	ND	1340.48	ND	ND	1.7	240.8	22	64	0	0
18148	2012-02-23T03:00:00	ND	ND	ND	986.64	ND	ND	1.4	232.1	21.3	68.8	0	0
18149	2012-02-23T04:00:00	ND	ND	ND	837.22	ND	ND	0.8	232	21	75.5	0	0
18150	2012-02-23T05:00:00	ND	ND	ND	926.79	ND	ND	0.7	221	21.2	67.1	0	0
18151	2012-02-23T06:00:00	ND	ND	ND	1085.76	ND	ND	0.8	250.5	21	70.2	0	0
18152	2012-02-23T07:00:00	ND	ND	ND	926.79	ND	ND	0.8	261.7	21.1	68.3	10.2	0
18153	2012-02-23T08:00:00	ND	ND	ND	1164.53	ND	ND	0.9	269.9	21.7	67.4	93.3	0
18154	2012-02-23T09:00:00	ND	ND	ND	1733.37	ND	ND	0.5	59.4	23.2	65	256.7	0
18155	2012-02-23T10:00:00	ND	ND	ND	2493.73	ND	ND	0.7	55.6	24.8	61.8	548.6	0
18156	2012-02-23T11:00:00	ND	ND	ND	2449.95	ND	ND	0.6	71.2	26.4	54.9	699.3	0
18157	2012-02-23T12:00:00	ND	ND	ND	1703.46	ND	ND	1.1	89	27.7	50.7	529.8	0
18158	2012-02-23T13:00:00	ND	ND	ND	1549.02	ND	ND	1	99.4	28.7	46.9	688.1	0
18159	2012-02-23T14:00:00	ND	ND	ND	1507.78	ND	ND	1	82.1	29.9	43.1	719.9	0
18160	2012-02-23T15:00:00	ND	ND	ND	1606.93	ND	ND	1.3	335.6	30.2	43	468.6	0
18161	2012-02-23T16:00:00	ND	ND	ND	1468.65	ND	ND	3.8	272.5	29.2	45.7	280.5	0
18162	2012-02-23T17:00:00	ND	ND	ND	1963.36	ND	ND	3.8	275.3	28.2	47.9	208.4	0
18163	2012-02-23T18:00:00	ND	ND	ND	1354.75	ND	ND	3	269.5	27.4	49.9	41.4	0
18164	2012-02-23T19:00:00	ND	ND	ND	1443.54	ND	ND	3.7	266.6	26.2	53.8	0	0
18165	2012-02-23T20:00:00	ND	ND	ND	1575.80	ND	ND	3.8	258.6	25.4	56.8	0	0
18166	2012-02-23T21:00:00	ND	ND	ND	1617.47	ND	ND	2.3	262.4	25	57.7	0	0
18167	2012-02-23T22:00:00	ND	ND	ND	1283.08	ND	ND	1.2	223.6	24.8	59.4	0	0
18168	2012-02-23T23:00:00	ND	ND	ND	1213.53	ND	ND	0.1	334	24.1	64.2	0	0
18169	2012-02-24T00:00:00	ND	ND	ND	1302.05	ND	ND	0.4	39.4	23.3	69.2	0	0
18170	2012-02-24T01:00:00	ND	ND	ND	1571.92	ND	ND	0.2	1.8	23.1	70.2	0	0
18171	2012-02-24T02:00:00	ND	ND	ND	1696.07	ND	ND	0.8	6.1	22.7	73.7	0	0
18172	2012-02-24T03:00:00	ND	ND	ND	1432.32	ND	ND	0.8	57.9	22.2	75.7	0	0
18173	2012-02-24T04:00:00	ND	ND	ND	1520.69	ND	ND	0.2	106.8	21.9	77.2	0	0
18174	2012-02-24T05:00:00	ND	ND	ND	1337.75	ND	ND	0.3	ND	22	77.1	0	0
18175	2012-02-24T06:00:00	ND	ND	ND	1156.76	ND	ND	0.7	54.4	21.6	78.4	0	0
18176	2012-02-24T07:00:00	ND	ND	ND	1302.42	ND	ND	0.4	92.6	21.5	78.7	8.8	0
18177	2012-02-24T08:00:00	ND	ND	ND	1788.80	ND	ND	0.8	195.4	21.7	75.9	94.4	0
18178	2012-02-24T09:00:00	ND	ND	ND	3013.57	ND	ND	1	130.1	23.2	69.9	198.9	0
18179	2012-02-24T10:00:00	ND	ND	ND	3233.87	ND	ND	0.9	99.9	25.1	62.3	513.5	0
18180	2012-02-24T11:00:00	ND	ND	ND	3289.00	ND	ND	1.1	107.2	26.6	55	668.1	0
18181	2012-02-24T12:00:00	ND	ND	ND	2245.93	ND	ND	1.4	137.9	28.1	50.1	757.7	0
18182	2012-02-24T13:00:00	ND	ND	ND	1678.41	ND	ND	1.6	142.3	29	47.1	578.6	0
18183	2012-02-24T14:00:00	ND	ND	ND	1578.94	ND	ND	1.2	146.4	28.8	49.2	456.4	0
18184	2012-02-24T15:00:00	ND	ND	ND	1624.30	ND	ND	0.5	339.6	28.8	48.7	290.6	0
18185	2012-02-24T16:00:00	ND	ND	ND	1635.90	ND	ND	0.5	287.7	29.2	47.5	320	0
18186	2012-02-24T17:00:00	ND	ND	ND	1638.07	ND	ND	2.5	265.8	29.2	45.9	307.5	0
18187	2012-02-24T18:00:00	ND	ND	ND	1731.01	ND	ND	3.2	272.9	27.1	52.5	83	0
18188	2012-02-24T19:00:00	ND	ND	ND	1557.47	ND	ND	3.3	267.4	24.9	63.6	0	0
18189	2012-02-24T20:00:00	ND	ND	ND	1546.05	ND	ND	3.9	264.4	24.8	61.4	0	0
18190	2012-02-24T21:00:00	ND	ND	ND	1637.12	ND	ND	3.2	267.9	24.9	60.1	0	0
18191	2012-02-24T22:00:00	ND	ND	ND	1408.62	ND	ND	2.9	268.9	24.4	62.3	0	0
18192	2012-02-24T23:00:00	ND	ND	ND	1211.90	ND	ND	2.2	296.3	24.5	61.5	0	0
18193	2012-02-25T00:00:00	ND	ND	ND	1120.81	ND	ND	3.1	276	24.2	61.9	0	0
18194	2012-02-25T01:00:00	ND	ND	ND	1005.43	ND	ND	2.1	265.5	24	62.3	0	0
18195	2012-02-25T02:00:00	ND	ND	ND	890.58	ND	ND	1.2	169.6	22.9	74.9	0	0
18196	2012-02-25T03:00:00	ND	ND	ND	830.40	ND	ND	1	173.2	22.7	73.4	0	0
18197	2012-02-25T04:00:00	ND	ND	ND	1375.49	ND	ND	0.5	113.4	22.5	74.5	0	0
18198	2012-02-25T05:00:00	ND	ND	ND	1238.24	ND	ND	1.5	10.3	21	85.9	0	4.57
18199	2012-02-25T06:00:00	ND	ND	ND	1322.37	ND	ND	0.6	44.7	20.3	92	0	3.3
18200	2012-02-25T07:00:00	ND	ND	ND	1172.64	ND	ND	0.8	245.9	20.1	93.1	2.3	5.08
18201	2012-02-25T08:00:00	ND	ND	ND	1487.34	ND	ND	0.4	235.9	20.9	86.5	48.2	0.25
18202	2012-02-25T09:00:00	ND	ND	ND	1581.78	ND	ND	0.6	182.2	21.9	83.8	163.7	0
18203	2012-02-25T10:00:00	ND	ND	ND	1949.95	ND	ND	0.5	157	23.3	74.7	397.6	0
18204	2012-02-25T11:00:00	ND	ND	ND	2483.18	ND	ND	1.1	106.2	25.1	66.9	519	0
18205	2012-02-25T12:00:00	ND	ND	ND	2051.33	ND	ND	0.6	93	26.2	62.3	405.2	0
18206	2012-02-25T13:00:00	ND	ND	ND	2093.40	ND	ND	1.6	271.2	25.7	59	143.9	0
18207	2012-02-25T14:00:00	ND	ND	ND	1860.24	ND	ND	2.4	296.6	26	57.9	359.4	0
18208	2012-02-25T15:00:00	ND	ND	ND	1804.64	ND	ND	2.6	297.8	26.6	54	328.8	0
18209	2012-02-25T16:00:00	ND	ND	ND	1508.80	ND	ND	2.6	306.2	25.9	55.1	145.3	0
18210	2012-02-25T17:00:00	ND	ND	ND	1275.46	ND	ND	1.6	301.8	25.9	54.2	133.1	0
18211	2012-02-25T18:00:00	ND	ND	ND	1286.96	ND	ND	2.3	260.2	25.3	55.8	25	0
18212	2012-02-25T19:00:00	ND	ND	ND	1307.31	ND	ND	2.9	256.2	23.9	61.8	0	0
18213	2012-02-25T20:00:00	ND	ND	ND	1495.21	ND	ND	2.3	233.8	23.1	66.8	0	0
18214	2012-02-25T21:00:00	ND	ND	ND	1274.90	ND	ND	1.8	176.6	22.1	76.9	0	0
18215	2012-02-25T22:00:00	ND	ND	ND	1281.94	ND	ND	1.1	177.7	22.3	75.6	0	0
18216	2012-02-25T23:00:00	ND	ND	ND	1907.18	ND	ND	0.1	68.1	22.2	76	0	0
18217	2012-02-26T00:00:00	ND	ND	ND	2099.46	ND	ND	0.5	133.2	21.4	82.1	0	0
18218	2012-02-26T01:00:00	ND	ND	ND	1742.92	ND	ND	0.4	15.8	21.5	81.9	0	0
18219	2012-02-26T02:00:00	ND	ND	ND	1539.73	ND	ND	0.6	27.3	21.4	82.8	0	0
18220	2012-02-26T03:00:00	ND	ND	ND	1380.76	ND	ND	0.9	348.2	20.2	85.1	0	18.54
18221	2012-02-26T04:00:00	ND	ND	ND	1352.59	ND	ND	0.2	179.3	19	94.7	0	20.32
18222	2012-02-26T05:00:00	ND	ND	ND	1032.74	ND	ND	0.9	201.5	19.1	94.7	0	5.84
18223	2012-02-26T06:00:00	ND	ND	ND	1156.61	ND	ND	0.7	212.1	19.4	93.1	0	0.25
18224	2012-02-26T07:00:00	ND	ND	ND	1112.84	ND	ND	0.6	228.4	19.8	91.9	2.2	0
18225	2012-02-26T08:00:00	ND	ND	ND	1001.80	ND	ND	0.5	166.7	20.3	89.5	54.1	0
18226	2012-02-26T09:00:00	ND	ND	ND	1183.92	ND	ND	0.6	150.6	21.1	86.2	162.4	0
18227	2012-02-26T10:00:00	ND	ND	ND	2012.49	ND	ND	0.7	139.6	22.2	79.9	262.1	0
18228	2012-02-26T11:00:00	ND	ND	ND	1702.26	ND	ND	0.5	109.7	23.8	71.6	582.7	0
18229	2012-02-26T12:00:00	ND	ND	ND	1517.52	ND	ND	1	110.2	25.6	63.8	819.4	0
18230	2012-02-26T13:00:00	ND	ND	ND	1377.50	ND	ND	1.1	177.1	27.2	55.7	879.6	0
18231	2012-02-26T14:00:00	ND	ND	ND	1419.50	ND	ND	0.5	106.7	27.9	53.7	689.9	0
18232	2012-02-26T15:00:00	ND	ND	ND	1272.43	ND	ND	0.5	289.5	28.2	51.3	493.6	0
18233	2012-02-26T16:00:00	ND	ND	ND	1331.60	ND	ND	0.7	271.8	29.2	47.2	547.2	0
18234	2012-02-26T17:00:00	ND	ND	ND	1289.55	ND	ND	1.8	284.2	25.8	64.1	212.9	52.32
18235	2012-02-26T18:00:00	ND	ND	ND	1102.74	ND	ND	1.5	20.4	19.2	97.1	8.3	53.09
18236	2012-02-26T19:00:00	ND	ND	ND	1044.68	ND	ND	0.9	348.8	21.5	87.7	0	0.51
18237	2012-02-26T20:00:00	ND	ND	ND	1268.01	ND	ND	0.5	323.5	22.3	84.1	0	0
18238	2012-02-26T21:00:00	ND	ND	ND	2293.16	ND	ND	1.5	222.1	22.4	82.1	0	0
18239	2012-02-26T22:00:00	ND	ND	ND	2623.26	ND	ND	1.1	201.4	22.1	80.4	0	0
18240	2012-02-26T23:00:00	ND	ND	ND	1894.55	ND	ND	0.3	ND	22.1	81.3	0	0
18241	2012-02-27T00:00:00	ND	ND	ND	1497.49	ND	ND	0.2	252.5	22.2	81.7	0	0.25
18242	2012-02-27T01:00:00	ND	ND	ND	2156.20	ND	ND	0.3	60	21.5	85.9	0	0
18243	2012-02-27T02:00:00	ND	ND	ND	1652.94	ND	ND	0.7	31.7	21	90.5	0	0
18244	2012-02-27T03:00:00	ND	ND	ND	1537.11	ND	ND	0.7	19.7	20.7	90.8	0	0
18245	2012-02-27T04:00:00	ND	ND	ND	1366.18	ND	ND	0.4	59.3	20.5	90.5	0	0
18246	2012-02-27T05:00:00	ND	ND	ND	1207.29	ND	ND	0.2	ND	20.4	91.1	0	0
18247	2012-02-27T06:00:00	ND	ND	ND	1308.39	ND	ND	0.2	ND	20.7	88.9	0	0
18248	2012-02-27T07:00:00	ND	ND	ND	1185.53	ND	ND	0.3	152.1	20.8	87.4	3.1	0
18249	2012-02-27T08:00:00	ND	ND	ND	1265.00	ND	ND	1	186.2	20.5	90.5	43.3	0
18250	2012-02-27T09:00:00	ND	ND	ND	2470.99	ND	ND	0.9	174.2	21.6	83.4	157.8	0
18251	2012-02-27T10:00:00	ND	ND	ND	2763.39	ND	ND	0.9	122.6	23.6	71.9	445.7	0
18252	2012-02-27T11:00:00	ND	ND	ND	3101.41	ND	ND	0.8	104.5	25.6	64.1	763.7	0
18253	2012-02-27T12:00:00	ND	ND	ND	1894.06	ND	ND	1	82.8	27.6	57	873.9	0
18254	2012-02-27T13:00:00	ND	ND	ND	1640.96	ND	ND	1.1	76.8	28.5	53.4	726.9	0
18255	2012-02-27T14:00:00	ND	ND	ND	1784.96	ND	ND	0.1	174.3	28	54.3	230.7	0
18256	2012-02-27T15:00:00	ND	ND	ND	1782.00	ND	ND	1.2	47.6	29.5	49.6	531.5	0
18257	2012-02-27T16:00:00	ND	ND	ND	1883.91	ND	ND	2.5	288.4	29.1	47.8	435.1	0
18258	2012-02-27T17:00:00	ND	ND	ND	1811.74	ND	ND	4.1	282.6	28.3	50	394.8	0
18259	2012-02-27T18:00:00	ND	ND	ND	1528.95	ND	ND	4.3	278.4	26.5	54.8	94	0
18260	2012-02-27T19:00:00	ND	ND	ND	1439.22	ND	ND	3.5	270	25.2	59.8	0	0
18261	2012-02-27T20:00:00	ND	ND	ND	1421.51	ND	ND	2.8	253.3	24.6	62.8	0	0
18262	2012-02-27T21:00:00	ND	ND	ND	1658.90	ND	ND	1.9	199.8	24.1	66.1	0	0
18263	2012-02-27T22:00:00	ND	ND	ND	1279.21	ND	ND	2.1	185.9	23.2	71	0	0
18264	2012-02-27T23:00:00	ND	ND	ND	1446.13	ND	ND	1.3	152.8	22.7	73.6	0	0
18265	2012-02-28T00:00:00	ND	ND	ND	1398.22	ND	ND	0.5	165.3	22	78.8	0	0
18266	2012-02-28T01:00:00	ND	ND	ND	1496.98	ND	ND	0.4	110.6	21.9	79.7	0	0
18267	2012-02-28T02:00:00	ND	ND	ND	1439.79	ND	ND	0.4	112	21.7	82	0	0
18268	2012-02-28T03:00:00	ND	ND	ND	1268.87	ND	ND	0.2	ND	21.7	81.7	0	0
18269	2012-02-28T04:00:00	ND	ND	ND	1212.23	ND	ND	0.6	152	21.3	84.8	0	0
18270	2012-02-28T05:00:00	ND	ND	ND	1131.38	ND	ND	0.6	135.4	21.3	82.9	0	0
18271	2012-02-28T06:00:00	ND	ND	ND	1187.95	ND	ND	0.7	138.5	21	82.7	0	0
18272	2012-02-28T07:00:00	ND	ND	ND	1186.74	ND	ND	1	141.1	20.8	84.3	0	1.27
18273	2012-02-28T08:00:00	ND	ND	ND	1411.83	ND	ND	0.3	190.2	20.7	89.2	91.3	1.52
18274	2012-02-28T09:00:00	ND	ND	ND	2269.44	ND	ND	0.8	173.2	21.8	83.8	217.8	0
18275	2012-02-28T10:00:00	ND	ND	ND	3082.59	ND	ND	1.6	158.2	23.3	76.3	341.5	0
18276	2012-02-28T11:00:00	ND	ND	ND	2756.55	ND	ND	1.2	158.8	25.3	64	785.7	0
18277	2012-02-28T12:00:00	ND	ND	ND	2155.91	ND	ND	1	157.4	27.2	55.4	885.3	0
18278	2012-02-28T13:00:00	ND	ND	ND	1511.82	ND	ND	1.3	256.1	27.8	52.2	705.5	0
18279	2012-02-28T14:00:00	ND	ND	ND	1561.10	ND	ND	2.6	256.8	28.7	46.8	871	0
18280	2012-02-28T15:00:00	ND	ND	ND	1484.58	ND	ND	3.6	273.3	29.6	43.2	816.4	0
18281	2012-02-28T16:00:00	ND	ND	ND	1419.22	ND	ND	3.9	277.5	29.7	43.1	747.7	0
18282	2012-02-28T17:00:00	ND	ND	ND	1477.87	ND	ND	2.7	273.5	28	50.3	244.9	0
18283	2012-02-28T18:00:00	ND	ND	ND	1481.14	ND	ND	2.4	198.2	24.9	61	11.7	0
18284	2012-02-28T19:00:00	ND	ND	ND	1694.93	ND	ND	2.1	173.4	24.1	66.1	0	0
18285	2012-02-28T20:00:00	ND	ND	ND	2215.77	ND	ND	1.8	129.2	23	74.1	0	0
18286	2012-02-28T21:00:00	ND	ND	ND	2696.87	ND	ND	1.2	168.8	21.3	87	0	1.52
18287	2012-02-28T22:00:00	ND	ND	ND	2025.18	ND	ND	2.2	186.6	20.7	88.9	0	0.25
18288	2012-02-28T23:00:00	ND	ND	ND	1648.45	ND	ND	2.5	190.2	19.7	90.1	0	7.62
18289	2012-02-29T00:00:00	ND	ND	ND	1676.60	ND	ND	1.4	180.7	19.6	86.5	0	0.51
18290	2012-02-29T01:00:00	ND	ND	ND	1271.08	ND	ND	0.6	181	19.9	86.7	0	0
18291	2012-02-29T02:00:00	ND	ND	ND	1216.08	ND	ND	0.4	ND	20.3	84.9	0	0
18292	2012-02-29T03:00:00	ND	ND	ND	1127.54	ND	ND	0.2	263.1	20.3	84.7	0	0
18293	2012-02-29T04:00:00	ND	ND	ND	1082.44	ND	ND	0.5	ND	19.9	88.3	0	0
18294	2012-02-29T05:00:00	ND	ND	ND	1069.70	ND	ND	0.7	144.9	19.1	91.7	0	0
18295	2012-02-29T06:00:00	ND	ND	ND	1156.61	ND	ND	0.8	146.7	19	92.8	0	0
18296	2012-02-29T07:00:00	ND	ND	ND	1100.09	ND	ND	0.1	ND	19.3	91.9	14.9	0
18297	2012-02-29T08:00:00	ND	ND	ND	1370.91	ND	ND	0.2	ND	20.6	85.5	140	0
18298	2012-02-29T09:00:00	ND	ND	ND	1614.03	ND	ND	0.3	28.8	22.2	74.5	306.8	0
18299	2012-02-29T10:00:00	ND	ND	ND	2576.09	ND	ND	1.2	104.1	23.1	71.8	368.1	0
18300	2012-02-29T11:00:00	ND	ND	ND	2413.20	ND	ND	0.8	167.9	24.2	65.7	508.2	0
18301	2012-02-29T12:00:00	ND	ND	ND	2113.68	ND	ND	1	142.9	26.3	58.4	824.3	0
18302	2012-02-29T13:00:00	ND	ND	ND	1760.43	ND	ND	1.1	142.2	27.6	53.2	809	0
18303	2012-02-29T14:00:00	ND	ND	ND	1675.62	ND	ND	0.8	164.2	29	48.3	883.2	0
18304	2012-02-29T15:00:00	ND	ND	ND	1718.26	ND	ND	0.8	92	29	47.8	334.2	0
18305	2012-02-29T16:00:00	ND	ND	ND	1660.21	ND	ND	2.1	347.4	28.5	49.7	197.4	0
18306	2012-02-29T17:00:00	ND	ND	ND	1727.00	ND	ND	2.3	295.4	27.9	51.3	120.3	0
18307	2012-02-29T18:00:00	ND	ND	ND	1816.11	ND	ND	2.7	269.5	26.7	55.5	24.2	0
18308	2012-02-29T19:00:00	ND	ND	ND	1566.91	ND	ND	3.1	276.7	25.8	57	0	0
18309	2012-02-29T20:00:00	ND	ND	ND	1757.48	ND	ND	1	285.9	25.4	57.3	0	0
18310	2012-02-29T21:00:00	ND	ND	ND	1743.66	ND	ND	0.9	117.1	24.3	65.4	0	0
18311	2012-02-29T22:00:00	ND	ND	ND	1657.23	ND	ND	1.3	36.2	23.2	71.9	0	0
18312	2012-02-29T23:00:00	ND	ND	ND	2152.12	ND	ND	0.6	211.1	23.4	70.1	0	0
18313	2012-03-01T00:00:00	ND	ND	ND	2085.21	ND	ND	1.1	214.3	23.1	70.7	0	0
18314	2012-03-01T01:00:00	ND	ND	ND	1923.73	ND	ND	0.8	214.8	22.5	68	0	0
18315	2012-03-01T02:00:00	ND	ND	ND	1783.51	ND	ND	0.5	261.6	22.4	70.3	0	0
18316	2012-03-01T03:00:00	ND	ND	ND	1215.10	ND	ND	0.5	267.7	22	72.7	0	0
18317	2012-03-01T04:00:00	ND	ND	ND	1168.10	ND	ND	0.6	241.5	21.9	71.9	0	0
18318	2012-03-01T05:00:00	ND	ND	ND	1224.39	ND	ND	0.1	349	22.1	73.6	0	0
18319	2012-03-01T06:00:00	ND	ND	ND	1100.43	ND	ND	0.2	273.6	21.2	83.6	0	0
18320	2012-03-01T07:00:00	ND	ND	ND	1311.96	ND	ND	0.7	208.8	21.1	84	1.2	0
18321	2012-03-01T08:00:00	ND	ND	ND	1266.29	ND	ND	0.4	142.4	21.2	85.4	57.7	0
18322	2012-03-01T09:00:00	ND	ND	ND	1798.29	ND	ND	0.6	183.8	22	82.4	150.9	0
18323	2012-03-01T10:00:00	ND	ND	ND	2676.42	ND	ND	0.8	147.8	23.7	75.5	399.5	0
18324	2012-03-01T11:00:00	ND	ND	ND	2988.40	ND	ND	1.2	149.7	25.5	65.9	564	0
18325	2012-03-01T12:00:00	ND	ND	ND	2467.19	ND	ND	0.8	150.8	27.7	54.8	851.3	0
18326	2012-03-01T13:00:00	ND	ND	ND	1976.74	ND	ND	1.2	128.7	29.3	48.8	962.8	0
18327	2012-03-01T14:00:00	ND	ND	ND	1719.96	ND	ND	0.7	116	30.3	46.4	660.2	0
18328	2012-03-01T15:00:00	ND	ND	ND	1818.93	ND	ND	1.2	65.4	30.7	44.6	663.1	0
18329	2012-03-01T16:00:00	ND	ND	ND	1809.66	ND	ND	0.8	115.4	30.9	43.9	342.2	0
18330	2012-03-01T17:00:00	ND	ND	ND	1904.31	ND	ND	2.6	280.2	28.9	51.6	38.2	0
18331	2012-03-01T18:00:00	ND	ND	ND	1996.23	ND	ND	4.1	270.3	26.4	59.9	21.9	0
18332	2012-03-01T19:00:00	ND	ND	ND	1945.17	ND	ND	3.4	270.7	26.1	60.1	0	0
18333	2012-03-01T20:00:00	ND	ND	ND	1713.26	ND	ND	0.3	13	26.1	60.8	0	0
18334	2012-03-01T21:00:00	ND	ND	ND	1851.24	ND	ND	0.6	86.2	25.6	64.8	0	0
18335	2012-03-01T22:00:00	ND	ND	ND	2181.04	ND	ND	0.2	103.1	24.8	68.9	0	0
18336	2012-03-01T23:00:00	ND	ND	ND	2289.68	ND	ND	1.4	203.9	24.7	69.5	0	0
18337	2012-03-02T00:00:00	ND	ND	ND	2208.80	ND	ND	1.3	219.9	24.4	70.5	0	0
18338	2012-03-02T01:00:00	ND	ND	ND	1989.34	ND	ND	0.8	236	23.9	68	0	0
18339	2012-03-02T02:00:00	ND	ND	ND	1666.41	ND	ND	1.2	251.6	23.2	68.1	0	0
18340	2012-03-02T03:00:00	ND	ND	ND	1298.10	ND	ND	0.3	ND	22.8	72	0	0
18341	2012-03-02T04:00:00	ND	ND	ND	1103.04	ND	ND	0.6	265.4	22.3	70.7	0	0
18342	2012-03-02T05:00:00	ND	ND	ND	1237.40	ND	ND	0.8	264	22	72.1	0	0
18343	2012-03-02T06:00:00	ND	ND	ND	1145.42	ND	ND	0.6	17.5	21.9	79.1	0	0
18344	2012-03-02T07:00:00	ND	ND	ND	1054.33	ND	ND	1.3	11.9	21.1	85.4	16.7	0
18345	2012-03-02T08:00:00	ND	ND	ND	1729.84	ND	ND	0.8	58.2	21.7	82.6	117.7	0
18346	2012-03-02T09:00:00	ND	ND	ND	2379.13	ND	ND	0.9	31	23.8	71.8	377.4	0
18347	2012-03-02T10:00:00	ND	ND	ND	2658.52	ND	ND	1.4	81.2	25.9	62.4	600.6	0
18348	2012-03-02T11:00:00	ND	ND	ND	2321.12	ND	ND	1.3	122.3	27.5	57.4	595.2	0
18349	2012-03-02T12:00:00	ND	ND	ND	1917.66	ND	ND	1.4	110.6	27.7	56.9	481.7	0
18350	2012-03-02T13:00:00	ND	ND	ND	1988.30	ND	ND	1.2	139.7	28.8	53.1	639.1	0
18351	2012-03-02T14:00:00	ND	ND	ND	2099.99	ND	ND	1.2	154	30.5	47.5	746.5	0
18352	2012-03-02T15:00:00	ND	ND	ND	1971.81	ND	ND	1.8	112	30.7	48.4	561.1	0
18353	2012-03-02T16:00:00	ND	ND	ND	1914.73	ND	ND	0.7	66.4	30.8	47.8	346.3	0
18354	2012-03-02T17:00:00	ND	ND	ND	2219.02	ND	ND	1.2	45.1	30.6	47.6	144.5	0
18355	2012-03-02T18:00:00	ND	ND	ND	2124.19	ND	ND	3	278.7	28.6	52.6	66.3	0
18356	2012-03-02T19:00:00	ND	ND	ND	2226.14	ND	ND	4.2	272.6	27	56.2	0	0
18357	2012-03-02T20:00:00	ND	ND	ND	1845.27	ND	ND	4.3	268.1	26.3	58.5	0	0
18358	2012-03-02T21:00:00	ND	ND	ND	1702.90	ND	ND	3.3	272.6	26	59	0	0
18359	2012-03-02T22:00:00	ND	ND	ND	1482.79	ND	ND	1.2	235.1	25.6	61.5	0	0
18360	2012-03-02T23:00:00	ND	ND	ND	1400.46	ND	ND	2.7	241	25.1	64.9	0	0
18361	2012-03-03T00:00:00	ND	ND	ND	1994.03	ND	ND	2	219.7	24.6	67.2	0	0
18362	2012-03-03T01:00:00	ND	ND	ND	1327.12	ND	ND	0.9	234.9	24.4	65.7	0	0
18363	2012-03-03T02:00:00	ND	ND	ND	1383.39	ND	ND	0.4	225.3	24.3	68	0	0
18364	2012-03-03T03:00:00	ND	ND	ND	1314.35	ND	ND	0.8	150.7	23.7	72.2	0	0
18365	2012-03-03T04:00:00	ND	ND	ND	1482.79	ND	ND	1	126	23.2	74.8	0	0
18366	2012-03-03T05:00:00	ND	ND	ND	1423.36	ND	ND	0.9	160.2	22.4	79.8	0	0
18367	2012-03-03T06:00:00	ND	ND	ND	1476.30	ND	ND	0.4	124.4	22.2	80.7	0	0
18368	2012-03-03T07:00:00	ND	ND	ND	1339.12	ND	ND	0.2	ND	22.6	78.8	9.7	0
18369	2012-03-03T08:00:00	ND	ND	ND	1590.93	ND	ND	0.3	43.6	23.6	74.6	105	0
18370	2012-03-03T09:00:00	ND	ND	ND	1812.96	ND	ND	0.7	101.6	24.5	71.1	162.3	0
18371	2012-03-03T10:00:00	ND	ND	ND	2550.42	ND	ND	1.4	136.4	24.8	69.8	238.4	0
18372	2012-03-03T11:00:00	ND	ND	ND	3079.62	ND	ND	1	159.3	25.5	66.3	330.5	0
18373	2012-03-03T12:00:00	ND	ND	ND	2765.55	ND	ND	1.5	120.4	26.5	62.4	470.1	0
18374	2012-03-03T13:00:00	ND	ND	ND	2279.72	ND	ND	1	97	27.6	57.9	465.8	0
18375	2012-03-03T14:00:00	ND	ND	ND	2738.78	ND	ND	1.4	104.8	28	56.1	336.6	0
18376	2012-03-03T15:00:00	ND	ND	ND	2187.00	ND	ND	1.3	62.4	28.4	55.2	333	0
18377	2012-03-03T16:00:00	ND	ND	ND	2259.42	ND	ND	0.4	107.5	28.9	53.5	362.3	0
18378	2012-03-03T17:00:00	ND	ND	ND	2297.99	ND	ND	1	35.7	28.5	54.7	123.4	0
18379	2012-03-03T18:00:00	ND	ND	ND	1842.91	ND	ND	0.7	277.7	28	55.6	33.3	0
18380	2012-03-03T19:00:00	ND	ND	ND	1990.28	ND	ND	2.5	269	27	56.1	0	0
18381	2012-03-03T20:00:00	ND	ND	ND	1949.07	ND	ND	3.3	269.7	26.2	58.5	0	0
18382	2012-03-03T21:00:00	ND	ND	ND	1782.84	ND	ND	2.6	264.9	25.9	60.7	0	0
18383	2012-03-03T22:00:00	ND	ND	ND	1574.22	ND	ND	1.5	283.5	25.8	61.7	0	0
18384	2012-03-03T23:00:00	ND	ND	ND	1596.67	ND	ND	1.3	234.3	25.7	61.1	0	0
18385	2012-03-04T00:00:00	ND	ND	ND	1619.10	ND	ND	1.7	213.5	25.2	66.3	0	0
18386	2012-03-04T01:00:00	ND	ND	ND	1547.61	ND	ND	2.1	227.6	24.2	71.3	0	0
18387	2012-03-04T02:00:00	ND	ND	ND	1930.88	ND	ND	1.1	265.9	23.8	72.2	0	0
18388	2012-03-04T03:00:00	ND	ND	ND	1574.57	ND	ND	0.6	198.8	23.3	78	0	0
18389	2012-03-04T04:00:00	ND	ND	ND	1514.97	ND	ND	0.5	92.4	23.1	78.6	0	0
18390	2012-03-04T05:00:00	ND	ND	ND	1764.37	ND	ND	0.1	165.1	22.9	81.4	0	0
18391	2012-03-04T06:00:00	ND	ND	ND	1808.68	ND	ND	0.6	201.9	22.2	79.4	0	0
18392	2012-03-04T07:00:00	ND	ND	ND	1861.14	ND	ND	0.2	112.2	22.5	78.2	15.1	0
18393	2012-03-04T08:00:00	ND	ND	ND	1454.08	ND	ND	0.2	113.8	22.8	78.2	47.4	0
18394	2012-03-04T09:00:00	ND	ND	ND	1933.15	ND	ND	1.1	204.6	23	79.7	157.1	0
18395	2012-03-04T10:00:00	ND	ND	ND	1866.19	ND	ND	0.9	177.1	24.5	71.7	356.8	0
18396	2012-03-04T11:00:00	ND	ND	ND	1852.77	ND	ND	1.1	159.5	26.7	62.1	653.2	0
18397	2012-03-04T12:00:00	ND	ND	ND	1774.30	ND	ND	1.5	154.2	27.8	60	674.7	0
18398	2012-03-04T13:00:00	ND	ND	ND	1688.30	ND	ND	1.9	150.4	28.9	55.6	795.8	0
18399	2012-03-04T14:00:00	ND	ND	ND	1682.87	ND	ND	1.8	158	30	51.7	739.6	0
18400	2012-03-04T15:00:00	ND	ND	ND	1712.30	ND	ND	1.5	217.8	30.7	49	695.6	0
18401	2012-03-04T16:00:00	ND	ND	ND	1564.48	ND	ND	3.6	281.2	30.2	48.9	492.1	0
18402	2012-03-04T17:00:00	ND	ND	ND	1375.41	ND	ND	5.4	279.2	28.1	53.2	307.9	0
18403	2012-03-04T18:00:00	ND	ND	ND	1250.13	ND	ND	4.8	278.5	26.9	56.9	33	0
18404	2012-03-04T19:00:00	ND	ND	ND	1129.85	ND	ND	3.9	283.2	26.1	59.2	0	0
18405	2012-03-04T20:00:00	ND	ND	ND	1103.84	ND	ND	0.2	28.4	25.9	60.1	0	0
18406	2012-03-04T21:00:00	ND	ND	ND	1263.97	ND	ND	3.4	226.9	24.9	63.5	0	0
18407	2012-03-04T22:00:00	ND	ND	ND	1385.72	ND	ND	2.4	197.2	24.1	64.4	0	0
18408	2012-03-04T23:00:00	ND	ND	ND	1210.68	ND	ND	1.1	119.9	24.2	65.2	0	0
18409	2012-03-05T00:00:00	ND	ND	ND	1222.51	ND	ND	0.9	97.7	23.7	70.4	0	0
18410	2012-03-05T01:00:00	ND	ND	ND	1631.07	ND	ND	0.8	174.7	23	73.2	0	0
18411	2012-03-05T02:00:00	ND	ND	ND	1308.61	ND	ND	1	108.8	22.5	76.2	0	0
18412	2012-03-05T03:00:00	ND	ND	ND	1238.24	ND	ND	1	138.1	22.2	78.5	0	0.25
18413	2012-03-05T04:00:00	ND	ND	ND	1259.68	ND	ND	0.2	ND	21.4	85.4	0	2.03
18414	2012-03-05T05:00:00	ND	ND	ND	1109.13	ND	ND	0.3	85.2	21.7	84.3	0	0
18415	2012-03-05T06:00:00	ND	ND	ND	1064.95	ND	ND	0.9	37	21.5	87.9	0	0
18416	2012-03-05T07:00:00	ND	ND	ND	1132.15	ND	ND	0.7	32.5	21.3	89.5	7.1	0.25
18417	2012-03-05T08:00:00	ND	ND	ND	1572.62	ND	ND	1.5	27.5	21.7	86.5	64.9	0
18418	2012-03-05T09:00:00	ND	ND	ND	2299.83	ND	ND	2.1	36	22.2	84.2	193	0
18419	2012-03-05T10:00:00	ND	ND	ND	2666.88	ND	ND	1	46.9	23.6	76.6	302.3	0
18420	2012-03-05T11:00:00	ND	ND	ND	1926.98	ND	ND	0.7	128.3	25.5	66.2	621.8	0
18421	2012-03-05T12:00:00	ND	ND	ND	1847.52	ND	ND	1.6	170.8	26.1	63.3	352.7	0
18422	2012-03-05T13:00:00	ND	ND	ND	1759.25	ND	ND	0.3	106	27.2	58.1	383.8	0
18423	2012-03-05T14:00:00	ND	ND	ND	1800.34	ND	ND	0.5	103.7	28.1	54.1	609.7	0
18424	2012-03-05T15:00:00	ND	ND	ND	1643.69	ND	ND	1.5	57.9	29.7	48.6	465.5	0
18425	2012-03-05T16:00:00	ND	ND	ND	1687.33	ND	ND	0.7	46.9	29.8	47.4	446.7	0
18426	2012-03-05T17:00:00	ND	ND	ND	2002.18	ND	ND	3	299	29.7	45.3	328.5	0
18427	2012-03-05T18:00:00	ND	ND	ND	2001.52	ND	ND	3.6	276	28	51.1	76.1	0
18428	2012-03-05T19:00:00	ND	ND	ND	1596.85	ND	ND	4	280.1	26.5	56	0	0
18429	2012-03-05T20:00:00	ND	ND	ND	1646.46	ND	ND	3.9	272.8	25.7	58.6	0	0
18430	2012-03-05T21:00:00	ND	ND	ND	1607.62	ND	ND	3.7	267.9	25.3	60.3	0	0
18431	2012-03-05T22:00:00	ND	ND	ND	1341.71	ND	ND	0.7	324.7	25.1	62.9	0	0.76
18432	2012-03-05T23:00:00	ND	ND	ND	1249.13	ND	ND	1.2	232.9	23.8	73.1	0	5.84
18433	2012-03-06T00:00:00	ND	ND	ND	1449.06	ND	ND	1.4	252.6	23	79.5	0	3.05
18434	2012-03-06T01:00:00	ND	ND	ND	1547.57	ND	ND	0.8	230.9	22.9	79.2	0	0
18435	2012-03-06T02:00:00	ND	ND	ND	1399.17	ND	ND	0.5	2.2	22.8	79.4	0	0
18436	2012-03-06T03:00:00	ND	ND	ND	1148.52	ND	ND	0.9	38.5	22.2	81.4	0	0
18437	2012-03-06T04:00:00	ND	ND	ND	1146.19	ND	ND	0.6	334.7	21.4	88.6	0	9.91
18438	2012-03-06T05:00:00	ND	ND	ND	1086.50	ND	ND	0.4	58.3	21.4	88.4	0	0
18439	2012-03-06T06:00:00	ND	ND	ND	1210.99	ND	ND	0.9	12.5	21.2	89.9	0	0
18440	2012-03-06T07:00:00	ND	ND	ND	1379.82	ND	ND	0.4	76.5	21.5	85.6	2.8	0
18441	2012-03-06T08:00:00	ND	ND	ND	1777.48	ND	ND	0.7	178.2	21.5	87.3	69.3	2.29
18442	2012-03-06T09:00:00	ND	ND	ND	2875.67	ND	ND	0.3	111.4	22.9	81.8	283.4	0.25
18443	2012-03-06T10:00:00	ND	ND	ND	3253.35	ND	ND	1.3	105	24.7	73.6	557.3	0
18444	2012-03-06T11:00:00	ND	ND	ND	3124.36	ND	ND	0.9	111.2	26.5	63	775	0
18445	2012-03-06T12:00:00	ND	ND	ND	2694.21	ND	ND	1.3	124.6	28.2	55.6	872.2	0
18446	2012-03-06T13:00:00	ND	ND	ND	1771.60	ND	ND	0.1	114	28.7	52.7	533.2	0
18447	2012-03-06T14:00:00	ND	ND	ND	1728.15	ND	ND	3.4	281.8	29.2	49	471.8	0
18448	2012-03-06T15:00:00	ND	ND	ND	1835.57	ND	ND	4	296.4	28.3	49	403.5	0
18449	2012-03-06T16:00:00	ND	ND	ND	1528.95	ND	ND	4.6	290.3	28.3	47.7	609.3	0
18450	2012-03-06T17:00:00	ND	ND	ND	1586.86	ND	ND	3.2	291.8	27.1	49.8	123.4	0
18451	2012-03-06T18:00:00	ND	ND	ND	1419.03	ND	ND	2.6	192	26	57.5	12.9	0
18452	2012-03-06T19:00:00	ND	ND	ND	1666.70	ND	ND	2.8	189	23.7	72.2	0	0
18453	2012-03-06T20:00:00	ND	ND	ND	2269.81	ND	ND	1.8	238.4	23.6	71.7	0	0
18454	2012-03-06T21:00:00	ND	ND	ND	1995.39	ND	ND	0.6	251.3	24	69.2	0	0
18455	2012-03-06T22:00:00	ND	ND	ND	1575.63	ND	ND	0.4	303.8	23.5	71.3	0	0
18456	2012-03-06T23:00:00	ND	ND	ND	1493.19	ND	ND	1	68.7	21.5	84.5	0	0
18457	2012-03-07T00:00:00	ND	ND	ND	1596.33	ND	ND	0.7	157.8	21	86.1	0	0
18458	2012-03-07T01:00:00	ND	ND	ND	1661.44	ND	ND	0.9	276.9	21.2	85	0	0
18459	2012-03-07T02:00:00	ND	ND	ND	1560.78	ND	ND	0.6	286.2	21.8	79.5	0	0
18460	2012-03-07T03:00:00	ND	ND	ND	1359.97	ND	ND	0.8	259.5	21.6	77.5	0	0
18461	2012-03-07T04:00:00	ND	ND	ND	1291.09	ND	ND	0.2	290.8	21.6	78	0	0
18462	2012-03-07T05:00:00	ND	ND	ND	1121.21	ND	ND	0.9	55.2	20.2	88.7	0	0
18463	2012-03-07T06:00:00	ND	ND	ND	1228.60	ND	ND	0.2	ND	20	90.4	0	0
18464	2012-03-07T07:00:00	ND	ND	ND	1407.98	ND	ND	0.4	ND	20.1	89.1	19.5	0
18465	2012-03-07T08:00:00	ND	ND	ND	1532.41	ND	ND	0.5	57.7	21.1	84.6	148.3	0
18466	2012-03-07T09:00:00	ND	ND	ND	2736.09	ND	ND	0.6	115.4	22.6	77.3	293.7	0
18467	2012-03-07T10:00:00	ND	ND	ND	3204.59	ND	ND	0.8	107.4	24.7	67.5	490.6	0
18468	2012-03-07T11:00:00	ND	ND	ND	2906.91	ND	ND	1.3	79.7	26.2	61.2	703.8	0
18469	2012-03-07T12:00:00	ND	ND	ND	2104.90	ND	ND	1.2	88.7	28	53.9	762.7	0
18470	2012-03-07T13:00:00	ND	ND	ND	1863.00	ND	ND	1	75.5	28.7	51.3	717.9	0
18471	2012-03-07T14:00:00	ND	ND	ND	1612.17	ND	ND	0.8	38.4	30.2	47.2	724.5	0
18472	2012-03-07T15:00:00	ND	ND	ND	1958.20	ND	ND	0.7	13.4	30.4	45.9	420	0
18473	2012-03-07T16:00:00	ND	ND	ND	1504.61	ND	ND	1.5	16.7	30.2	47.4	165	0
18474	2012-03-07T17:00:00	ND	ND	ND	1526.93	ND	ND	3.3	287	28.4	52.9	87	0
18475	2012-03-07T18:00:00	ND	ND	ND	1703.26	ND	ND	3.1	278.2	27.5	53.5	44.1	0
18476	2012-03-07T19:00:00	ND	ND	ND	1513.34	ND	ND	4.3	271.7	26.6	56.3	0.4	0
18477	2012-03-07T20:00:00	ND	ND	ND	1716.12	ND	ND	3.2	282.1	26.3	57	0	0
18478	2012-03-07T21:00:00	ND	ND	ND	1495.79	ND	ND	1.6	294.7	26.3	56.7	0	0
18479	2012-03-07T22:00:00	ND	ND	ND	1300.18	ND	ND	2.1	240.2	25.8	60.6	0	0
18480	2012-03-07T23:00:00	ND	ND	ND	1263.55	ND	ND	1	170.8	25	66.6	0	0
18481	2012-03-08T00:00:00	ND	ND	ND	1202.89	ND	ND	0.6	186.8	24.1	71.4	0	0
18482	2012-03-08T01:00:00	ND	ND	ND	1884.54	ND	ND	1.5	245.1	23.6	72.9	0	0
18483	2012-03-08T02:00:00	ND	ND	ND	1607.72	ND	ND	0.7	212.4	23.5	71	0	0
18484	2012-03-08T03:00:00	ND	ND	ND	1390.61	ND	ND	1.1	245.1	22.9	74.4	0	0
18485	2012-03-08T04:00:00	ND	ND	ND	1239.91	ND	ND	1.1	262.7	22.5	72.8	0	0
18486	2012-03-08T05:00:00	ND	ND	ND	1260.96	ND	ND	1	37.8	21.8	81.9	0	0
18487	2012-03-08T06:00:00	ND	ND	ND	1076.64	ND	ND	0.5	43.3	21.5	84.4	0	0
18488	2012-03-08T07:00:00	ND	ND	ND	1437.83	ND	ND	0.9	58.3	21.6	83.5	14.2	0
18489	2012-03-08T08:00:00	ND	ND	ND	1834.71	ND	ND	0.7	34.2	22.5	80	136.2	0
18490	2012-03-08T09:00:00	ND	ND	ND	2942.23	ND	ND	1.1	93.7	24.3	70.4	305.6	0
18491	2012-03-08T10:00:00	ND	ND	ND	3120.16	ND	ND	0.8	107.9	26	64	562.8	0
18492	2012-03-08T11:00:00	ND	ND	ND	2436.84	ND	ND	1.2	162.2	27.9	56.4	791.9	0
18493	2012-03-08T12:00:00	ND	ND	ND	1978.05	ND	ND	0.9	136.6	29.4	50.6	654.7	0
18494	2012-03-08T13:00:00	ND	ND	ND	1708.91	ND	ND	1.4	86.5	30.3	46.6	747.3	0
18495	2012-03-08T14:00:00	ND	ND	ND	1772.29	ND	ND	1.1	80.9	31.1	43.7	670.9	0
18496	2012-03-08T15:00:00	ND	ND	ND	2162.76	ND	ND	0.9	336.2	30.7	45.9	295.9	0
18497	2012-03-08T16:00:00	ND	ND	ND	1879.71	ND	ND	3.5	282.9	30.4	47	453.3	0
18498	2012-03-08T17:00:00	ND	ND	ND	1819.53	ND	ND	3.4	282.4	29.8	48.2	267.3	0
18499	2012-03-08T18:00:00	ND	ND	ND	1722.81	ND	ND	3.2	281.9	28.7	51.1	110.7	0
18500	2012-03-08T19:00:00	ND	ND	ND	1728.15	ND	ND	3.3	275.3	27.4	54.1	0	0
18501	2012-03-08T20:00:00	ND	ND	ND	1766.90	ND	ND	2.3	283	27.1	54.7	0	0
18502	2012-03-08T21:00:00	ND	ND	ND	1834.35	ND	ND	3.2	265.1	26.4	58.8	0	0
18503	2012-03-08T22:00:00	ND	ND	ND	1668.93	ND	ND	2.4	233.6	25.8	62.6	0	0
18504	2012-03-08T23:00:00	ND	ND	ND	1401.39	ND	ND	2	253.9	25.5	63.6	0	0
18505	2012-03-09T00:00:00	ND	ND	ND	1411.46	ND	ND	0.4	291.8	25	67.2	0	0
18506	2012-03-09T01:00:00	ND	ND	ND	1260.17	ND	ND	0.4	147.6	24.4	69.7	0	0
18507	2012-03-09T02:00:00	ND	ND	ND	1577.76	ND	ND	0.8	109.1	24.1	69.5	0	0
18508	2012-03-09T03:00:00	ND	ND	ND	1770.33	ND	ND	1.1	217.6	23	74.7	0	0
18509	2012-03-09T04:00:00	ND	ND	ND	1638.60	ND	ND	1.2	158.1	22.8	76	0	0
18510	2012-03-09T05:00:00	ND	ND	ND	1262.24	ND	ND	0.8	148.7	22.2	78.7	0	0
18511	2012-03-09T06:00:00	ND	ND	ND	1282.37	ND	ND	0.5	277.4	22.3	78.7	0	0
18512	2012-03-09T07:00:00	ND	ND	ND	1328.22	ND	ND	0.1	ND	22.8	76.7	5.5	0
18513	2012-03-09T08:00:00	ND	ND	ND	1432.81	ND	ND	0.7	31.7	23.3	74.7	57.2	0
18514	2012-03-09T09:00:00	ND	ND	ND	2141.46	ND	ND	0.9	87.8	24	73	170.3	0
18515	2012-03-09T10:00:00	ND	ND	ND	3037.09	ND	ND	0.9	111	25.3	67.7	374.4	0
18516	2012-03-09T11:00:00	ND	ND	ND	3371.48	ND	ND	0.8	144.3	27	61.5	529.2	0
18517	2012-03-09T12:00:00	ND	ND	ND	2444.99	ND	ND	1.3	127.6	27.8	58.4	587	0
18518	2012-03-09T13:00:00	ND	ND	ND	2220.23	ND	ND	1.3	175.1	28.5	55.1	620.4	0
18519	2012-03-09T14:00:00	ND	ND	ND	2109.49	ND	ND	1.6	153.8	30.1	50.1	782	0
18520	2012-03-09T15:00:00	ND	ND	ND	1934.25	ND	ND	1.4	171.7	30	50.5	429.1	0
18521	2012-03-09T16:00:00	ND	ND	ND	1805.48	ND	ND	2.9	295.3	28.7	51.5	222.5	0
18522	2012-03-09T17:00:00	ND	ND	ND	1936.92	ND	ND	2.7	12.9	26.6	57.9	95.6	0
18523	2012-03-09T18:00:00	ND	ND	ND	1727.64	ND	ND	2.9	28.6	25.2	62.6	38.6	0
18524	2012-03-09T19:00:00	ND	ND	ND	1845.67	ND	ND	2	18.8	25.1	61.5	0	0
18525	2012-03-09T20:00:00	ND	ND	ND	2509.72	ND	ND	1.1	136	24.1	70.7	0	0
18526	2012-03-09T21:00:00	ND	ND	ND	2638.36	ND	ND	1.5	183.3	22.8	79.7	0	0
18527	2012-03-09T22:00:00	ND	ND	ND	2695.05	ND	ND	2.2	188.9	22.2	82.7	0	0
18528	2012-03-09T23:00:00	ND	ND	ND	1838.45	ND	ND	1.1	194.1	22.5	79	0	0
18529	2012-03-10T00:00:00	ND	ND	ND	1681.27	ND	ND	0.8	24.3	22.6	78.2	0	0
18530	2012-03-10T01:00:00	ND	ND	ND	1500.02	ND	ND	0.6	31	22.4	80.5	0	0
18531	2012-03-10T02:00:00	ND	ND	ND	1748.84	ND	ND	0.7	52.5	22	82.5	0	0
18532	2012-03-10T03:00:00	ND	ND	ND	1723.79	ND	ND	0.6	99	21.7	84.1	0	0.25
18533	2012-03-10T04:00:00	ND	ND	ND	1608.75	ND	ND	0.5	192.1	21.2	89.1	0	0
18534	2012-03-10T05:00:00	ND	ND	ND	1447.68	ND	ND	0.4	200.1	21.1	87.9	0	0
18535	2012-03-10T06:00:00	ND	ND	ND	1390.66	ND	ND	1.1	158.3	20.9	89	0	0
18536	2012-03-10T07:00:00	ND	ND	ND	1423.61	ND	ND	1	189.5	20.8	90	0.5	0
18537	2012-03-10T08:00:00	ND	ND	ND	1615.13	ND	ND	0.1	ND	21.2	87.1	35.4	0.25
18538	2012-03-10T09:00:00	ND	ND	ND	1696.50	ND	ND	0.6	209.5	21.8	83.2	128.4	0
18539	2012-03-10T10:00:00	ND	ND	ND	1983.28	ND	ND	0.6	95.5	23.3	76.1	359.8	0
18540	2012-03-10T11:00:00	ND	ND	ND	2562.91	ND	ND	1.9	45.1	25	70.8	514.4	0
18541	2012-03-10T12:00:00	ND	ND	ND	2566.16	ND	ND	2.2	46.4	26.1	62.7	479.4	0
18542	2012-03-10T13:00:00	ND	ND	ND	2311.17	ND	ND	2.1	34.7	27.8	55	669.1	0
18543	2012-03-10T14:00:00	ND	ND	ND	2081.47	ND	ND	1.8	58.1	28.3	50.1	485.5	0
18544	2012-03-10T15:00:00	ND	ND	ND	1911.18	ND	ND	3.5	32	27.5	52.9	187.1	0
18545	2012-03-10T16:00:00	ND	ND	ND	1894.56	ND	ND	2.8	25.3	27.3	53.1	182.6	0
18546	2012-03-10T17:00:00	ND	ND	ND	1985.65	ND	ND	2.5	17.5	26.9	52.1	137.1	0
18547	2012-03-10T18:00:00	ND	ND	ND	2086.77	ND	ND	2.6	43.2	26.6	50	78.6	0
18548	2012-03-10T19:00:00	ND	ND	ND	1981.02	ND	ND	1.6	49.8	25.7	53.3	0	0
18549	2012-03-10T20:00:00	ND	ND	ND	1814.31	ND	ND	0.6	353.2	24.9	61	0	0
18550	2012-03-10T21:00:00	ND	ND	ND	2187.38	ND	ND	0.9	288.8	24.7	63.5	0	0
18551	2012-03-10T22:00:00	ND	ND	ND	2174.46	ND	ND	0.3	106	24.4	64.5	0	0
18552	2012-03-10T23:00:00	ND	ND	ND	2023.64	ND	ND	0.4	2.9	23.9	64.8	0	0
18553	2012-03-11T00:00:00	ND	ND	ND	2830.62	ND	ND	1.3	253.4	23.2	66.7	0	0
18554	2012-03-11T01:00:00	ND	ND	ND	2414.02	ND	ND	1.5	251.4	23	65.9	0	0
18555	2012-03-11T02:00:00	ND	ND	ND	1627.22	ND	ND	0.7	238.1	22.8	66.7	0	0
18556	2012-03-11T03:00:00	ND	ND	ND	1455.55	ND	ND	0.3	205.7	22.5	72.4	0	0
18557	2012-03-11T04:00:00	ND	ND	ND	1476.80	ND	ND	0.7	354.9	22	76.7	0	0
18558	2012-03-11T05:00:00	ND	ND	ND	1780.50	ND	ND	0.5	56.3	21.3	80.6	0	0
18559	2012-03-11T06:00:00	ND	ND	ND	1832.84	ND	ND	1.2	1.9	21	83.4	0	0.25
18560	2012-03-11T07:00:00	ND	ND	ND	1650.14	ND	ND	0.1	ND	21	83.6	12.8	0
18561	2012-03-11T08:00:00	ND	ND	ND	1604.93	ND	ND	0.3	57.1	21.6	80.6	96.9	0
18562	2012-03-11T09:00:00	ND	ND	ND	2151.82	ND	ND	0.4	62.4	22.6	75	160.5	0
18563	2012-03-11T10:00:00	ND	ND	ND	2011.39	ND	ND	0.8	79.3	24.4	67.9	585.6	0
18564	2012-03-11T11:00:00	ND	ND	ND	1966.48	ND	ND	1.3	57.7	26.1	61.9	759.5	0
18565	2012-03-11T12:00:00	ND	ND	ND	1943.22	ND	ND	0.9	48.3	28.1	54.6	842.5	0
18566	2012-03-11T13:00:00	ND	ND	ND	1771.01	ND	ND	1.6	83	29.4	48.1	916.1	0
18567	2012-03-11T14:00:00	ND	ND	ND	1697.28	ND	ND	1.5	93.2	30.5	43.5	896	0
18568	2012-03-11T15:00:00	ND	ND	ND	1761.79	ND	ND	1.7	83.3	31.1	42.7	664.5	0
18569	2012-03-11T16:00:00	ND	ND	ND	1718.51	ND	ND	2.1	25.3	31.5	41.9	419.2	0
18570	2012-03-11T17:00:00	ND	ND	ND	1673.95	ND	ND	0.4	344.8	30.2	47.6	101.5	0
18571	2012-03-11T18:00:00	ND	ND	ND	1503.62	ND	ND	3.1	265.5	28.5	51.7	78.2	0
18572	2012-03-11T19:00:00	ND	ND	ND	1414.06	ND	ND	3.3	266.9	27.4	54.6	0.1	0
18573	2012-03-11T20:00:00	ND	ND	ND	1362.70	ND	ND	2.7	264.7	26.6	57.4	0	0
18574	2012-03-11T21:00:00	ND	ND	ND	1416.66	ND	ND	2.8	261.6	26.1	58.9	0	0
18575	2012-03-11T22:00:00	ND	ND	ND	1575.28	ND	ND	2.6	260.3	25.6	59.8	0	0
18576	2012-03-11T23:00:00	ND	ND	ND	1561.16	ND	ND	0.9	282.5	24.9	64	0	0
18577	2012-03-12T00:00:00	ND	ND	ND	1408.62	ND	ND	1.1	212.6	24.6	68.5	0	0
18578	2012-03-12T01:00:00	ND	ND	ND	1670.34	ND	ND	1.6	248.8	24.2	66.1	0	0
18579	2012-03-12T02:00:00	ND	ND	ND	1690.95	ND	ND	0.5	41.1	23.1	74.3	0	0
18580	2012-03-12T03:00:00	ND	ND	ND	1206.60	ND	ND	0.3	115.9	22.7	77.9	0	0
18581	2012-03-12T04:00:00	ND	ND	ND	1420.96	ND	ND	1.2	164.6	22.5	79	0	0
18582	2012-03-12T05:00:00	ND	ND	ND	1374.56	ND	ND	0.7	131.2	22.2	80	0	0
18583	2012-03-12T06:00:00	ND	ND	ND	1350.46	ND	ND	0.4	199.9	22.4	78.7	0	0
18584	2012-03-12T07:00:00	ND	ND	ND	1408.16	ND	ND	0.3	139.1	22.8	75.9	2	0
18585	2012-03-12T08:00:00	ND	ND	ND	1398.69	ND	ND	0.8	52.2	22.9	76	70.2	0
18586	2012-03-12T09:00:00	ND	ND	ND	2024.81	ND	ND	0.8	92.7	23.8	74	206.7	0
18587	2012-03-12T10:00:00	ND	ND	ND	2841.08	ND	ND	0.7	150.7	24.8	68.3	242.6	0
18588	2012-03-12T11:00:00	ND	ND	ND	3056.72	ND	ND	0.8	120.4	26.8	61.5	645.3	0
18589	2012-03-12T12:00:00	ND	ND	ND	2339.63	ND	ND	1.9	59.6	28.7	55	807.4	0
18590	2012-03-12T13:00:00	ND	ND	ND	2493.64	ND	ND	1.6	77.3	29.4	52.1	587.6	0
18591	2012-03-12T14:00:00	ND	ND	ND	2150.67	ND	ND	1.4	64.3	29.6	51.6	394.4	0
18592	2012-03-12T15:00:00	ND	ND	ND	2000.86	ND	ND	1	45.7	29.7	50.3	416.6	0
18593	2012-03-12T16:00:00	ND	ND	ND	1931.70	ND	ND	0.9	29.2	30.2	50	308.9	0
18594	2012-03-12T17:00:00	ND	ND	ND	1864.96	ND	ND	0.9	97.5	29.8	50.6	143.6	0
18595	2012-03-12T18:00:00	ND	ND	ND	1827.57	ND	ND	0.8	60.8	29.4	52.1	39.4	0
18596	2012-03-12T19:00:00	ND	ND	ND	2185.54	ND	ND	2.7	266.6	27.8	57.1	0	0
18597	2012-03-12T20:00:00	ND	ND	ND	2416.82	ND	ND	3.5	264.5	26.7	58.8	0	0
18598	2012-03-12T21:00:00	ND	ND	ND	1993.21	ND	ND	3.6	259.9	26.1	60.6	0	0
18599	2012-03-12T22:00:00	ND	ND	ND	1713.26	ND	ND	1.9	285	25.7	61.7	0	0
18600	2012-03-12T23:00:00	ND	ND	ND	1469.82	ND	ND	0.6	94.2	24.6	70.9	0	0
18601	2012-03-13T00:00:00	ND	ND	ND	1487.29	ND	ND	0.2	359.4	24.5	69.2	0	0
18602	2012-03-13T01:00:00	ND	ND	ND	2218.75	ND	ND	0.7	191.9	25	65.3	0	0
18603	2012-03-13T02:00:00	ND	ND	ND	1798.60	ND	ND	1	150.9	23.8	75.1	0	0
18604	2012-03-13T03:00:00	ND	ND	ND	1369.19	ND	ND	1.7	185.1	23.8	75.2	0	0
18605	2012-03-13T04:00:00	ND	ND	ND	1414.83	ND	ND	1.2	185	23.1	79.4	0	0.76
18606	2012-03-13T05:00:00	ND	ND	ND	1354.58	ND	ND	0.6	194.6	21.9	82.8	0	2.79
18607	2012-03-13T06:00:00	ND	ND	ND	1292.41	ND	ND	2.2	41.6	19.8	87.8	0	8.38
18608	2012-03-13T07:00:00	ND	ND	ND	1215.67	ND	ND	0.6	123.6	19.7	90.1	0	1.27
18609	2012-03-13T08:00:00	ND	ND	ND	1339.03	ND	ND	1.3	171.9	19.9	89.9	13.6	0.51
18610	2012-03-13T09:00:00	ND	ND	ND	2837.52	ND	ND	1.9	176	19.3	91.9	37.6	1.52
18611	2012-03-13T10:00:00	ND	ND	ND	3371.08	ND	ND	0.7	224.8	20.1	88.5	173.9	0
18612	2012-03-13T11:00:00	ND	ND	ND	2174.67	ND	ND	0.2	327.6	22.4	76.1	442	0
18613	2012-03-13T12:00:00	ND	ND	ND	2078.17	ND	ND	0.4	79.8	24.8	63.9	699.1	0
18614	2012-03-13T13:00:00	ND	ND	ND	2026.36	ND	ND	1.5	99.7	27	55.1	928.9	0
18615	2012-03-13T14:00:00	ND	ND	ND	1833.74	ND	ND	1.4	104.6	28.7	48.6	931.5	0
18616	2012-03-13T15:00:00	ND	ND	ND	2122.49	ND	ND	1.3	107.2	29	48.2	726.4	0
18617	2012-03-13T16:00:00	ND	ND	ND	1729.87	ND	ND	1.1	91.4	29.4	48.6	599.8	0
18618	2012-03-13T17:00:00	ND	ND	ND	1894.91	ND	ND	1.3	148.7	28.9	51.4	244.1	0
18619	2012-03-13T18:00:00	ND	ND	ND	1903.38	ND	ND	2.2	192.7	27.3	57.8	62.3	0
18620	2012-03-13T19:00:00	ND	ND	ND	2101.10	ND	ND	1.5	212.4	26.5	60.3	0.6	0
18621	2012-03-13T20:00:00	ND	ND	ND	2083.99	ND	ND	1.2	265.7	26.2	60.3	0	0
18622	2012-03-13T21:00:00	ND	ND	ND	2265.93	ND	ND	0.6	236.7	25.7	61.9	0	0
18623	2012-03-13T22:00:00	ND	ND	ND	2204.73	ND	ND	0.9	342.4	25.2	64.7	0	0
18624	2012-03-13T23:00:00	ND	ND	ND	1937.38	ND	ND	1.4	58.3	23.3	80	0	0
18625	2012-03-14T00:00:00	ND	ND	ND	2243.97	ND	ND	0.3	137.1	22.7	81.8	0	0
18626	2012-03-14T01:00:00	ND	ND	ND	2080.28	ND	ND	0.4	ND	23.1	79.4	0	0
18627	2012-03-14T02:00:00	ND	ND	ND	1605.01	ND	ND	0.6	97.9	23	80.1	0	0
18628	2012-03-14T03:00:00	ND	ND	ND	1672.74	ND	ND	0.5	156.2	22	84.7	0	0
18629	2012-03-14T04:00:00	ND	ND	ND	1633.07	ND	ND	0.6	143.7	21.9	81.7	0	0
18630	2012-03-14T05:00:00	ND	ND	ND	1405.78	ND	ND	0.3	119.5	21.8	81.8	0	0
18631	2012-03-14T06:00:00	ND	ND	ND	1427.96	ND	ND	0.6	164.3	21.3	85.4	0	0
18632	2012-03-14T07:00:00	ND	ND	ND	1538.68	ND	ND	0.2	129.1	21.3	82.9	20.9	0
18633	2012-03-14T08:00:00	ND	ND	ND	2025.18	ND	ND	0.9	93.3	22.4	79.6	128.7	0
18634	2012-03-14T09:00:00	ND	ND	ND	2748.18	ND	ND	1.3	218	23.8	73.6	332.9	0
18635	2012-03-14T10:00:00	ND	ND	ND	3776.69	ND	ND	0.7	99.8	26.6	60.9	550.8	0
18636	2012-03-14T11:00:00	ND	ND	ND	2856.36	ND	ND	1.5	69.7	28.3	56	769	0
18637	2012-03-14T12:00:00	ND	ND	ND	2374.50	ND	ND	1.2	69.5	28.8	53.7	666.1	0
18638	2012-03-14T13:00:00	ND	ND	ND	2285.63	ND	ND	0.8	55.2	30.1	48.6	624.1	0
18639	2012-03-14T14:00:00	ND	ND	ND	1829.39	ND	ND	1	47.8	30.4	47.5	413.9	0
18640	2012-03-14T15:00:00	ND	ND	ND	2064.47	ND	ND	3.2	289.9	28.6	52.1	206.9	0
18641	2012-03-14T16:00:00	ND	ND	ND	1739.17	ND	ND	3.2	268.1	27.6	53.6	246.2	0
18642	2012-03-14T17:00:00	ND	ND	ND	1698.74	ND	ND	2.8	272.3	28.9	49.3	281.7	0
18643	2012-03-14T18:00:00	ND	ND	ND	1914.99	ND	ND	2.4	267.8	28.4	48.2	138.1	0
18644	2012-03-14T19:00:00	ND	ND	ND	1900.23	ND	ND	0.6	306.8	27.3	52.5	0.1	0
18645	2012-03-14T20:00:00	ND	ND	ND	1870.21	ND	ND	1.3	251.6	26	58.9	0	0
18646	2012-03-14T21:00:00	ND	ND	ND	2436.84	ND	ND	3	256.3	25.2	61.9	0	0
18647	2012-03-14T22:00:00	ND	ND	ND	2315.68	ND	ND	1.2	276.7	24.6	63.9	0	0
18648	2012-03-14T23:00:00	ND	ND	ND	1498.73	ND	ND	1.2	249.4	24.1	66.8	0	0
18649	2012-03-15T00:00:00	ND	ND	ND	1610.43	ND	ND	1.5	263.7	23.6	66.3	0	0
18650	2012-03-15T01:00:00	ND	ND	ND	2006.80	ND	ND	1	252.1	23.6	68.3	0	0
18651	2012-03-15T02:00:00	ND	ND	ND	1482.29	ND	ND	0.5	ND	22.9	77.7	0	0
18652	2012-03-15T03:00:00	ND	ND	ND	1421.92	ND	ND	0.6	1.4	22.4	79.3	0	0
18653	2012-03-15T04:00:00	ND	ND	ND	1396.80	ND	ND	1.3	265.5	22	73.3	0	0
18654	2012-03-15T05:00:00	ND	ND	ND	1531.00	ND	ND	1.3	237.5	21.7	72.6	0	0
18655	2012-03-15T06:00:00	ND	ND	ND	1257.54	ND	ND	0.7	226.2	21.7	76.5	0	0
18656	2012-03-15T07:00:00	ND	ND	ND	1212.23	ND	ND	0.5	334.5	21.7	76.1	22	0
18657	2012-03-15T08:00:00	ND	ND	ND	1642.74	ND	ND	1.4	16.2	22	82	113.6	0
18658	2012-03-15T09:00:00	ND	ND	ND	2370.22	ND	ND	1	73.1	24.2	72.2	374.5	0
18659	2012-03-15T10:00:00	ND	ND	ND	3313.34	ND	ND	0.6	89.5	25.4	67.2	399.7	0
18660	2012-03-15T11:00:00	ND	ND	ND	2856.39	ND	ND	0.5	123.1	27.7	58.5	582.3	0
18661	2012-03-15T12:00:00	ND	ND	ND	2311.97	ND	ND	0.9	102	28.7	54.3	548.5	0
18662	2012-03-15T13:00:00	ND	ND	ND	2157.29	ND	ND	1	62	30	49.8	611.1	0
18663	2012-03-15T14:00:00	ND	ND	ND	2154.93	ND	ND	1.4	68.9	31.1	47.2	652.4	0
18664	2012-03-15T15:00:00	ND	ND	ND	2221.21	ND	ND	0.8	21.4	32	43.9	697.9	0
18665	2012-03-15T16:00:00	ND	ND	ND	2145.71	ND	ND	0.6	296.6	32.3	42.7	432.4	0
18666	2012-03-15T17:00:00	ND	ND	ND	1913.08	ND	ND	3.9	278	30.5	47.7	354.7	0
18667	2012-03-15T18:00:00	ND	ND	ND	2100.15	ND	ND	3.6	283.9	28.9	51.3	116.7	0
18668	2012-03-15T19:00:00	ND	ND	ND	1798.93	ND	ND	4.1	277.7	27.2	55.9	0	0
18669	2012-03-15T20:00:00	ND	ND	ND	1788.80	ND	ND	5.3	269.4	26.7	56.6	0	0
18670	2012-03-15T21:00:00	ND	ND	ND	1716.69	ND	ND	2.1	292	26.7	56.6	0	0
18671	2012-03-15T22:00:00	ND	ND	ND	1428.66	ND	ND	3	273.8	26.4	58.2	0	0
18672	2012-03-15T23:00:00	ND	ND	ND	1461.76	ND	ND	0.7	318	25.5	63.3	0	0
18673	2012-03-16T00:00:00	ND	ND	ND	1411.46	ND	ND	1.2	187.5	24.8	69.1	0	0
18674	2012-03-16T01:00:00	ND	ND	ND	1591.33	ND	ND	1.7	176.9	24.6	71.1	0	0
18675	2012-03-16T02:00:00	ND	ND	ND	1681.78	ND	ND	3.7	261	23.4	69	0	0
18676	2012-03-16T03:00:00	ND	ND	ND	1652.21	ND	ND	2.2	215.7	22.3	74.9	0	0.25
18677	2012-03-16T04:00:00	ND	ND	ND	1191.99	ND	ND	1.1	232.4	21.5	82.3	0	2.29
18678	2012-03-16T05:00:00	ND	ND	ND	1120.83	ND	ND	1.1	246.8	21.9	80.3	0	0.25
18679	2012-03-16T06:00:00	ND	ND	ND	1145.03	ND	ND	0.9	262.1	21.1	84.4	0	5.59
18680	2012-03-16T07:00:00	ND	ND	ND	1221.06	ND	ND	1.1	228.9	21.5	81.8	6.6	0
18681	2012-03-16T08:00:00	ND	ND	ND	1347.26	ND	ND	0.3	329.7	22.2	80.1	62.7	0
18682	2012-03-16T09:00:00	ND	ND	ND	2133.51	ND	ND	0.5	74	23.8	72.5	241.3	0
18683	2012-03-16T10:00:00	ND	ND	ND	3685.41	ND	ND	0.7	107.4	25.8	65.5	463.5	0
18684	2012-03-16T11:00:00	ND	ND	ND	3572.40	ND	ND	0.6	131.7	27.3	59.2	575	0
18685	2012-03-16T12:00:00	ND	ND	ND	3013.11	ND	ND	1.7	25.4	28.2	57.2	517.2	0
18686	2012-03-16T13:00:00	ND	ND	ND	2304.24	ND	ND	2	49.5	28.8	54.5	617.9	0
18687	2012-03-16T14:00:00	ND	ND	ND	1949.16	ND	ND	1.4	283.1	28.3	54.5	281.9	0
18688	2012-03-16T15:00:00	ND	ND	ND	2038.60	ND	ND	3.3	269.7	27.2	56	193.5	0
18689	2012-03-16T16:00:00	ND	ND	ND	2100.40	ND	ND	2.9	277.7	27.8	51.8	243.8	0
18690	2012-03-16T17:00:00	ND	ND	ND	1931.14	ND	ND	2.2	273.2	27.2	50.4	53.6	0
18691	2012-03-16T18:00:00	ND	ND	ND	2008.07	ND	ND	2.5	265.1	26.6	50.9	5.2	0
18692	2012-03-16T19:00:00	ND	ND	ND	2361.10	ND	ND	2.6	188.9	24.4	69	0	0
18693	2012-03-16T20:00:00	ND	ND	ND	2229.44	ND	ND	1.8	168.7	23.8	69.6	0	0
18694	2012-03-16T21:00:00	ND	ND	ND	2510.19	ND	ND	1.8	181.3	21.3	87.2	0	6.1
18695	2012-03-16T22:00:00	ND	ND	ND	2070.43	ND	ND	0.3	136.4	21	91.4	0	6.86
18696	2012-03-16T23:00:00	ND	ND	ND	1763.16	ND	ND	1	79.4	21	93.2	0	2.54
18697	2012-03-17T00:00:00	ND	ND	ND	2328.27	ND	ND	1	177.8	20.4	94.5	0	6.6
18698	2012-03-17T01:00:00	ND	ND	ND	2413.76	ND	ND	0.4	179	20.3	93.5	0	0.76
18699	2012-03-17T02:00:00	ND	ND	ND	1646.21	ND	ND	0.3	182.7	20.3	90.3	0	0.76
18700	2012-03-17T03:00:00	ND	ND	ND	1646.21	ND	ND	0.5	156.4	20.3	93.2	0	0.25
18701	2012-03-17T04:00:00	ND	ND	ND	1431.97	ND	ND	0.4	176.8	20.3	93	0	0
18702	2012-03-17T05:00:00	ND	ND	ND	1454.53	ND	ND	0.3	213.8	20.4	91.5	0	0
18703	2012-03-17T06:00:00	ND	ND	ND	1455.02	ND	ND	0.2	ND	20.4	85.9	0	0.25
18704	2012-03-17T07:00:00	ND	ND	ND	1409.90	ND	ND	0.8	51.6	20.4	90.8	11.5	0
18705	2012-03-17T08:00:00	ND	ND	ND	1409.90	ND	ND	0.3	ND	20.5	92.4	62.3	0
18706	2012-03-17T09:00:00	ND	ND	ND	2121.22	ND	ND	0.3	192.2	22	83.6	261.1	0
18707	2012-03-17T10:00:00	ND	ND	ND	2336.19	ND	ND	0.4	93.5	23.9	72.6	403	0
18708	2012-03-17T11:00:00	ND	ND	ND	2659.41	ND	ND	1.1	121.3	25.1	69.3	643.4	0
18709	2012-03-17T12:00:00	ND	ND	ND	2555.56	ND	ND	0.9	59.2	27.1	59.3	766.7	0
18710	2012-03-17T13:00:00	ND	ND	ND	2249.68	ND	ND	1.6	47	28.1	55.4	685.3	0
18711	2012-03-17T14:00:00	ND	ND	ND	2014.09	ND	ND	2.1	46	28.1	56.1	435.2	0
18712	2012-03-17T15:00:00	ND	ND	ND	2106.70	ND	ND	2	45.9	28	55.9	284.2	0
18713	2012-03-17T16:00:00	ND	ND	ND	2059.71	ND	ND	1.1	313.2	27.9	54.6	213.8	0
18714	2012-03-17T17:00:00	ND	ND	ND	2174.70	ND	ND	2.2	267.8	27.6	53.9	125.5	0
18715	2012-03-17T18:00:00	ND	ND	ND	1768.07	ND	ND	2.3	266.4	26.8	56.2	49.9	0
18716	2012-03-17T19:00:00	ND	ND	ND	1763.37	ND	ND	2.2	272.9	25.8	58.3	0	0
18717	2012-03-17T20:00:00	ND	ND	ND	1929.79	ND	ND	0.5	111	24.7	69.1	0	0
18718	2012-03-17T21:00:00	ND	ND	ND	2014.24	ND	ND	0.5	64.2	24.1	73.7	0	0
18719	2012-03-17T22:00:00	ND	ND	ND	3003.85	ND	ND	0.5	281.8	23.8	71.9	0	0
18720	2012-03-17T23:00:00	ND	ND	ND	3069.27	ND	ND	1.5	251.9	23.1	63.5	0	0
18721	2012-03-18T00:00:00	ND	ND	ND	2743.31	ND	ND	1.6	255.4	22.9	62.9	0	0
18722	2012-03-18T01:00:00	ND	ND	ND	1876.93	ND	ND	1.3	267.5	23	64	0	0
18723	2012-03-18T02:00:00	ND	ND	ND	1570.33	ND	ND	0.5	ND	22.8	70.7	0	0
18724	2012-03-18T03:00:00	ND	ND	ND	1432.81	ND	ND	0.4	317	22.4	74.2	0	0
18725	2012-03-18T04:00:00	ND	ND	ND	1907.83	ND	ND	0.4	35	22.2	77.7	0	0
18726	2012-03-18T05:00:00	ND	ND	ND	1906.54	ND	ND	0.2	ND	21.8	83.2	0	0
18727	2012-03-18T06:00:00	ND	ND	ND	2085.28	ND	ND	0.2	ND	22	81	0	0
18728	2012-03-18T07:00:00	ND	ND	ND	2029.99	ND	ND	0.3	83.4	21.5	86.8	15	0
18729	2012-03-18T08:00:00	ND	ND	ND	1879.37	ND	ND	0.3	ND	22	85	115.3	0
18730	2012-03-18T09:00:00	ND	ND	ND	2256.81	ND	ND	0.6	56.4	24.1	74.1	327.1	0
18731	2012-03-18T10:00:00	ND	ND	ND	2250.03	ND	ND	1.2	85.1	25.7	66.7	610.8	0
18732	2012-03-18T11:00:00	ND	ND	ND	2342.53	ND	ND	1.1	108.4	27.6	57.4	750.8	0
18733	2012-03-18T12:00:00	ND	ND	ND	2230.31	ND	ND	0.4	338.2	27.8	54.9	264.4	0
18734	2012-03-18T13:00:00	ND	ND	ND	1792.38	ND	ND	1.3	350.4	28.2	53.1	480.5	0
18735	2012-03-18T14:00:00	ND	ND	ND	1725.28	ND	ND	2.6	281.2	30.1	45.1	944.6	0
18736	2012-03-18T15:00:00	ND	ND	ND	1701.21	ND	ND	4.8	274.6	28.8	48.4	454.9	0
18737	2012-03-18T16:00:00	ND	ND	ND	1450.27	ND	ND	3.9	275.6	27.8	51	191.2	0
18738	2012-03-18T17:00:00	ND	ND	ND	1410.77	ND	ND	3.8	261.4	26.2	54.9	32.8	0
18739	2012-03-18T18:00:00	ND	ND	ND	1380.26	ND	ND	2.1	183.2	25.1	64.3	24.3	0
18740	2012-03-18T19:00:00	ND	ND	ND	1352.27	ND	ND	0.6	210.1	23.9	69.3	0	0
18741	2012-03-18T20:00:00	ND	ND	ND	1677.83	ND	ND	1.3	48.6	23.3	73	0	0
18742	2012-03-18T21:00:00	ND	ND	ND	1799.73	ND	ND	0.5	97.6	23.4	71.9	0	0
18743	2012-03-18T22:00:00	ND	ND	ND	2221.94	ND	ND	0.7	76.9	23.4	71.9	0	0
18744	2012-03-18T23:00:00	ND	ND	ND	2107.99	ND	ND	1.4	123.5	22.9	76.2	0	0
18745	2012-03-19T00:00:00	ND	ND	ND	2058.94	ND	ND	2	182.3	21.8	83.8	0	0
18746	2012-03-19T01:00:00	ND	ND	ND	1994.62	ND	ND	1.3	158.6	20.7	90.1	0	0
18747	2012-03-19T02:00:00	ND	ND	ND	1490.38	ND	ND	1.4	145.2	20.4	90.9	0	0
18748	2012-03-19T03:00:00	ND	ND	ND	1466.30	ND	ND	0.9	179.8	20.6	89.8	0	0
18749	2012-03-19T04:00:00	ND	ND	ND	1354.43	ND	ND	0.5	144.9	20.8	87.1	0	0
18750	2012-03-19T05:00:00	ND	ND	ND	1310.18	ND	ND	0.9	146.4	20.8	86.8	0	0
18751	2012-03-19T06:00:00	ND	ND	ND	1366.65	ND	ND	1.1	171.2	20.7	87.6	0	0
18752	2012-03-19T07:00:00	ND	ND	ND	1400.06	ND	ND	1.4	138	20.7	88.6	0	0
18753	2012-03-19T08:00:00	ND	ND	ND	1388.76	ND	ND	0.5	143.1	20.7	88.2	18.6	0
18754	2012-03-19T09:00:00	ND	ND	ND	1580.71	ND	ND	0.4	81.1	21	85.8	78.7	0
18755	2012-03-19T10:00:00	ND	ND	ND	1661.44	ND	ND	0.8	59.5	21.7	84.6	173.4	0
18756	2012-03-19T11:00:00	ND	ND	ND	1710.71	ND	ND	1.2	75	22.2	82.5	203.9	0
18757	2012-03-19T12:00:00	ND	ND	ND	1838.45	ND	ND	0.8	46.3	22.7	81.6	339.5	0
18758	2012-03-19T13:00:00	ND	ND	ND	1864.30	ND	ND	0.5	132.1	23.6	73.6	332.1	0
18759	2012-03-19T14:00:00	ND	ND	ND	1733.14	ND	ND	1.3	39.5	24.4	70.3	279.2	0
18760	2012-03-19T15:00:00	ND	ND	ND	1726.38	ND	ND	1.3	61.1	24.5	70.9	256.6	0
18761	2012-03-19T16:00:00	ND	ND	ND	1658.34	ND	ND	1.6	60.2	24.5	70.1	150.5	0
18762	2012-03-19T17:00:00	ND	ND	ND	1784.15	ND	ND	1.5	43.9	24.6	69.9	110.9	0
18763	2012-03-19T18:00:00	ND	ND	ND	1761.87	ND	ND	1.6	26.5	24.3	70.6	35.6	0
18764	2012-03-19T19:00:00	ND	ND	ND	1771.52	ND	ND	1.4	35.8	23.7	72.5	0	0
18765	2012-03-19T20:00:00	ND	ND	ND	1790.76	ND	ND	0.9	13.8	23.3	73.2	0	0
18766	2012-03-19T21:00:00	ND	ND	ND	2073.11	ND	ND	0.9	263.5	23.2	74.9	0	0
18767	2012-03-19T22:00:00	ND	ND	ND	2106.57	ND	ND	1.2	235.8	23	74.2	0	0
18768	2012-03-19T23:00:00	ND	ND	ND	2014.12	ND	ND	0.5	142	22.7	78.6	0	0
18769	2012-03-20T00:00:00	ND	ND	ND	1761.99	ND	ND	1	148.4	22.2	81.2	0	0
18770	2012-03-20T01:00:00	ND	ND	ND	2508.00	ND	ND	0.3	ND	21.8	83.6	0	0
18771	2012-03-20T02:00:00	ND	ND	ND	2085.28	ND	ND	0.3	96	21.8	82.2	0	0
18772	2012-03-20T03:00:00	ND	ND	ND	1552.63	ND	ND	0.3	112.5	21.8	82.1	0	0
18773	2012-03-20T04:00:00	ND	ND	ND	1495.96	ND	ND	0.9	64.8	21.2	85.2	0	0
18774	2012-03-20T05:00:00	ND	ND	ND	1515.54	ND	ND	0.5	29.8	21.1	86	0	0
18775	2012-03-20T06:00:00	ND	ND	ND	1537.64	ND	ND	0.3	ND	21.5	84.3	0	0
18776	2012-03-20T07:00:00	ND	ND	ND	1630.30	ND	ND	0.7	98.6	21.4	84.5	4.9	0
18777	2012-03-20T08:00:00	ND	ND	ND	1924.01	ND	ND	1.4	43.5	21.1	84.7	79.4	0
18778	2012-03-20T09:00:00	ND	ND	ND	2724.78	ND	ND	0.7	33.1	22.3	77.3	182.8	0
18779	2012-03-20T10:00:00	ND	ND	ND	2894.83	ND	ND	0.4	198.2	23.5	72.2	51.5	0
18780	2012-03-20T11:00:00	ND	ND	ND	2359.47	ND	ND	0.3	312.2	25.4	64.1	460.3	0
18781	2012-03-20T12:00:00	ND	ND	ND	2145.16	ND	ND	1	46.2	25.1	66.6	207.5	0
18782	2012-03-20T13:00:00	ND	ND	ND	2120.08	ND	ND	0.9	9	26.7	58.4	587.3	0
18783	2012-03-20T14:00:00	ND	ND	ND	2580.80	ND	ND	0.9	37	27.4	54.6	321.8	0
18784	2012-03-20T15:00:00	ND	ND	ND	2251.93	ND	ND	1.2	83.1	27.5	52.8	224.1	0
18785	2012-03-20T16:00:00	ND	ND	ND	2010.08	ND	ND	2.1	172.5	26.8	59.2	83	0
18786	2012-03-20T17:00:00	ND	ND	ND	2466.41	ND	ND	1.4	293.4	24.3	63.4	71.5	0
18787	2012-03-20T18:00:00	ND	ND	ND	2788.72	ND	ND	1.3	256	24.2	66.4	25.7	0
18788	2012-03-20T19:00:00	ND	ND	ND	2102.26	ND	ND	0.6	272.3	24.2	69.4	0	0
18789	2012-03-20T20:00:00	ND	ND	ND	2525.00	ND	ND	1.1	270	23.9	68	0	0
18790	2012-03-20T21:00:00	ND	ND	ND	3195.86	ND	ND	1.6	275.1	23.4	69	0	0
18791	2012-03-20T22:00:00	ND	ND	ND	2677.72	ND	ND	0.7	43.2	22.8	78	0	0
18792	2012-03-20T23:00:00	ND	ND	ND	1842.18	ND	ND	0.5	340.1	22.5	79.7	0	0
18793	2012-03-21T00:00:00	ND	ND	ND	2374.23	ND	ND	0.3	ND	22.6	75.7	0	0
18794	2012-03-21T01:00:00	ND	ND	ND	2420.49	ND	ND	0.1	ND	22.8	75.6	0	0
18795	2012-03-21T02:00:00	ND	ND	ND	1933.15	ND	ND	0.3	ND	22.5	74.1	0	0
18796	2012-03-21T03:00:00	ND	ND	ND	2022.07	ND	ND	1.4	165.1	21.8	81.7	0	0
18797	2012-03-21T04:00:00	ND	ND	ND	1495.96	ND	ND	0.7	200.9	20.5	91.5	0	10.16
18798	2012-03-21T05:00:00	ND	ND	ND	1432.95	ND	ND	1.1	227.6	20.5	91.8	0	1.52
18799	2012-03-21T06:00:00	ND	ND	ND	1478.08	ND	ND	0.9	230.2	20.7	89.2	0	0.51
18800	2012-03-21T07:00:00	ND	ND	ND	1546.84	ND	ND	0.5	224.4	20.9	88.7	17.1	0
18801	2012-03-21T08:00:00	ND	ND	ND	1593.08	ND	ND	0.6	9.1	21.6	85.7	89.8	0
18802	2012-03-21T09:00:00	ND	ND	ND	2321.70	ND	ND	1	17.2	22.3	85	296.1	0
18803	2012-03-21T10:00:00	ND	ND	ND	3212.69	ND	ND	0.8	120.8	24.1	75.2	397.8	0
18804	2012-03-21T11:00:00	ND	ND	ND	2615.52	ND	ND	1.2	135.5	25.1	71	487.7	0
18805	2012-03-21T12:00:00	ND	ND	ND	2360.74	ND	ND	1.1	99.6	27	61.6	837.8	0
18806	2012-03-21T13:00:00	ND	ND	ND	2133.60	ND	ND	1.2	128.9	28.3	55.5	748.5	0
18807	2012-03-21T14:00:00	ND	ND	ND	1853.27	ND	ND	0.2	70.1	29.4	51.3	715.3	0
18808	2012-03-21T15:00:00	ND	ND	ND	1848.41	ND	ND	1.8	349.9	29.1	51.7	397.7	0
18809	2012-03-21T16:00:00	ND	ND	ND	1753.67	ND	ND	2.7	289.7	29.2	49.3	386.4	0
18810	2012-03-21T17:00:00	ND	ND	ND	1893.66	ND	ND	1.6	272.5	28	53	129.3	0
18811	2012-03-21T18:00:00	ND	ND	ND	1770.42	ND	ND	3.3	211.2	22.8	77.4	20.8	1.27
18812	2012-03-21T19:00:00	ND	ND	ND	1842.18	ND	ND	0.9	203.1	22.7	79.6	0	0.76
18813	2012-03-21T20:00:00	ND	ND	ND	1887.03	ND	ND	0.5	55.7	24.3	72	0	0.25
18814	2012-03-21T21:00:00	ND	ND	ND	3291.60	ND	ND	0.4	138.8	22.5	84.8	0	1.52
18815	2012-03-21T22:00:00	ND	ND	ND	4112.31	ND	ND	1.1	22.3	22.5	83.8	0	0.25
18816	2012-03-21T23:00:00	ND	ND	ND	3442.07	ND	ND	1.3	39.9	21.9	85.1	0	0
18817	2012-03-22T00:00:00	ND	ND	ND	2539.47	ND	ND	1.1	183.7	21.5	86.5	0	0
18818	2012-03-22T01:00:00	ND	ND	ND	1686.91	ND	ND	1.8	169.5	20.9	89.6	0	0.25
18819	2012-03-22T02:00:00	ND	ND	ND	1423.61	ND	ND	1.4	184.5	20.4	92.9	0	0.25
18820	2012-03-22T03:00:00	ND	ND	ND	1319.67	ND	ND	1	192.7	20.5	91.8	0	0
18821	2012-03-22T04:00:00	ND	ND	ND	1139.59	ND	ND	1.1	175.1	20	91.2	0	0
18822	2012-03-22T05:00:00	ND	ND	ND	1092.59	ND	ND	0.3	161.8	20.2	88.5	0	0.25
18823	2012-03-22T06:00:00	ND	ND	ND	1059.53	ND	ND	0.5	201.7	20.5	87.4	0	0
18824	2012-03-22T07:00:00	ND	ND	ND	1083.18	ND	ND	0.5	ND	20.9	87.8	4.8	0
18825	2012-03-22T08:00:00	ND	ND	ND	1333.22	ND	ND	1.4	148.4	20.7	90.8	53.4	0
18826	2012-03-22T09:00:00	ND	ND	ND	2472.68	ND	ND	0.7	156.7	21.5	87.2	207.6	0
18827	2012-03-22T10:00:00	ND	ND	ND	2954.92	ND	ND	0.9	120.9	22.2	81	147.7	0
18828	2012-03-22T11:00:00	ND	ND	ND	2167.55	ND	ND	0.3	101.7	22.9	77.8	201.5	0
18829	2012-03-22T12:00:00	ND	ND	ND	2354.70	ND	ND	1.5	12.9	23.8	74.5	373.3	0
18830	2012-03-22T13:00:00	ND	ND	ND	2019.56	ND	ND	2.1	33.6	25.9	65.8	786.2	0
18831	2012-03-22T14:00:00	ND	ND	ND	2033.85	ND	ND	2.3	40.3	27.6	56.1	783.8	0
18832	2012-03-22T15:00:00	ND	ND	ND	1848.96	ND	ND	2.3	48.6	27.9	52.4	595	0
18833	2012-03-22T16:00:00	ND	ND	ND	1619.46	ND	ND	3.1	24.1	26.9	54.4	275.1	0
18834	2012-03-22T17:00:00	ND	ND	ND	1752.43	ND	ND	3.4	22.4	25.1	60.2	49.7	0
18835	2012-03-22T18:00:00	ND	ND	ND	1764.83	ND	ND	2.5	22.4	24	66.3	23.8	0
18836	2012-03-22T19:00:00	ND	ND	ND	2112.26	ND	ND	1.1	45.5	23.7	69	5	0
18837	2012-03-22T20:00:00	ND	ND	ND	2418.09	ND	ND	0.9	210.7	23.8	69.4	0	0
18838	2012-03-22T21:00:00	ND	ND	ND	2818.26	ND	ND	1.5	175.9	23.3	72.9	0	0
18839	2012-03-22T22:00:00	ND	ND	ND	2585.69	ND	ND	1.2	165.3	22.8	74.4	0	0
18840	2012-03-22T23:00:00	ND	ND	ND	2558.59	ND	ND	1.1	165.3	22.4	76.8	0	0
18841	2012-03-23T00:00:00	ND	ND	ND	2259.87	ND	ND	0.6	201.6	22	79.7	0	0
18842	2012-03-23T01:00:00	ND	ND	ND	1814.52	ND	ND	0.2	ND	22.2	79.4	0	0
18843	2012-03-23T02:00:00	ND	ND	ND	1418.55	ND	ND	0.4	74.1	21.9	81.3	0	0
18844	2012-03-23T03:00:00	ND	ND	ND	1655.19	ND	ND	0.4	132.1	21.6	84.2	0	0
18845	2012-03-23T04:00:00	ND	ND	ND	1608.20	ND	ND	0.2	ND	21.3	86.6	0	0
18846	2012-03-23T05:00:00	ND	ND	ND	1470.80	ND	ND	0.5	16.2	21.4	86.1	0	0
18847	2012-03-23T06:00:00	ND	ND	ND	1516.57	ND	ND	0.7	35.9	20.9	87.9	0	0
18848	2012-03-23T07:00:00	ND	ND	ND	1626.98	ND	ND	0.5	4.5	21	86.4	10.4	0
18849	2012-03-23T08:00:00	ND	ND	ND	2237.86	ND	ND	0.6	40.7	21.8	84	152.6	0
18850	2012-03-23T09:00:00	ND	ND	ND	3003.26	ND	ND	1	59.4	23.3	76.6	264.6	0
18851	2012-03-23T10:00:00	ND	ND	ND	3519.73	ND	ND	1.6	84.7	25	69	634.2	0
18852	2012-03-23T11:00:00	ND	ND	ND	2611.98	ND	ND	1.4	81.3	26.8	60.5	823.5	0
18853	2012-03-23T12:00:00	ND	ND	ND	2086.07	ND	ND	0.7	99.7	27.5	57.6	437.5	0
18854	2012-03-23T13:00:00	ND	ND	ND	1802.14	ND	ND	0.7	109.9	28.8	52.3	752.6	0
18855	2012-03-23T14:00:00	ND	ND	ND	1670.71	ND	ND	1.2	75.3	29.8	48.8	624.9	0
18856	2012-03-23T15:00:00	ND	ND	ND	1885.78	ND	ND	0.6	75.6	30.2	47	434	0
18857	2012-03-23T16:00:00	ND	ND	ND	1690.12	ND	ND	1	47.6	29.8	48.2	146.3	0
18858	2012-03-23T17:00:00	ND	ND	ND	1652.97	ND	ND	2.4	279.6	28.8	52	89.3	0
18859	2012-03-23T18:00:00	ND	ND	ND	2065.18	ND	ND	2.8	272.1	28.1	52.2	56.5	0
18860	2012-03-23T19:00:00	ND	ND	ND	1909.92	ND	ND	4	265.3	26.8	55.7	1.7	0
18861	2012-03-23T20:00:00	ND	ND	ND	1797.94	ND	ND	2.8	263.8	26.1	58	0	0
18862	2012-03-23T21:00:00	ND	ND	ND	1621.27	ND	ND	2.2	216.6	25.6	62.8	0	0
18863	2012-03-23T22:00:00	ND	ND	ND	1630.04	ND	ND	1.7	190.4	24.5	69	0	0
18864	2012-03-23T23:00:00	ND	ND	ND	1612.60	ND	ND	2	191	23.5	77	0	0
18865	2012-03-24T00:00:00	ND	ND	ND	1607.18	ND	ND	1.1	170	23	81.2	0	0
18866	2012-03-24T01:00:00	ND	ND	ND	1866.19	ND	ND	1.4	163.4	22.3	84	0	0
18867	2012-03-24T02:00:00	ND	ND	ND	2168.28	ND	ND	3	183.7	21.4	88.4	0	2.29
18868	2012-03-24T03:00:00	ND	ND	ND	1607.11	ND	ND	0.8	193.3	20.7	93.2	0	16
18869	2012-03-24T04:00:00	ND	ND	ND	1162.95	ND	ND	1.6	137.4	20.1	94	0	0.25
18870	2012-03-24T05:00:00	ND	ND	ND	1250.71	ND	ND	0.3	ND	19.9	93.6	0	0.25
18871	2012-03-24T06:00:00	ND	ND	ND	1216.08	ND	ND	0.2	124.2	20.3	92.4	0	0
18872	2012-03-24T07:00:00	ND	ND	ND	1206.47	ND	ND	1.1	50	20.4	91.9	3.1	0
18873	2012-03-24T08:00:00	ND	ND	ND	1545.26	ND	ND	1.5	10.3	20.8	91.2	61.1	0
18874	2012-03-24T09:00:00	ND	ND	ND	1987.85	ND	ND	1.3	32.1	21.3	87.4	184.8	0
18875	2012-03-24T10:00:00	ND	ND	ND	2443.79	ND	ND	0.8	114	22.1	82.3	274.1	0
18876	2012-03-24T11:00:00	ND	ND	ND	2336.99	ND	ND	1.3	135.6	23.6	75.1	529.1	0
18877	2012-03-24T12:00:00	ND	ND	ND	2120.82	ND	ND	0.5	150.3	24.9	67	345.9	0
18878	2012-03-24T13:00:00	ND	ND	ND	2004.14	ND	ND	1.2	201.1	24.6	70.2	124	0
18879	2012-03-24T14:00:00	ND	ND	ND	1853.39	ND	ND	1.1	248.8	24.5	72.4	248.7	0
18880	2012-03-24T15:00:00	ND	ND	ND	2012.89	ND	ND	0.6	111.9	25.7	65.6	276.2	0
18881	2012-03-24T16:00:00	ND	ND	ND	1883.21	ND	ND	0.9	36.4	26	64.2	223.1	0
18882	2012-03-24T17:00:00	ND	ND	ND	2218.44	ND	ND	0.9	278.6	26	60.1	123.5	0
18883	2012-03-24T18:00:00	ND	ND	ND	2310.40	ND	ND	2.2	270.9	25	61.8	53.1	0
18884	2012-03-24T19:00:00	ND	ND	ND	1752.78	ND	ND	1.9	259.5	24.2	64.4	0	0
18885	2012-03-24T20:00:00	ND	ND	ND	1702.37	ND	ND	2	265.7	23.7	66.1	0	0
18886	2012-03-24T21:00:00	ND	ND	ND	1802.16	ND	ND	1.5	265.4	23.5	66.9	0	0
18887	2012-03-24T22:00:00	ND	ND	ND	1857.94	ND	ND	0.9	236.7	23.4	68.5	0	0
18888	2012-03-24T23:00:00	ND	ND	ND	1777.55	ND	ND	0.6	225	23	74.3	0	0
18889	2012-03-25T00:00:00	ND	ND	ND	1877.57	ND	ND	0.2	ND	22.5	78.3	0	0
18890	2012-03-25T01:00:00	ND	ND	ND	2453.75	ND	ND	0.8	245	22.6	74.3	0	0
18891	2012-03-25T02:00:00	ND	ND	ND	2943.23	ND	ND	1.7	196.9	22.2	80.9	0	2.54
18892	2012-03-25T03:00:00	ND	ND	ND	1906.54	ND	ND	0.5	197.4	20.6	92.7	0	20.57
18893	2012-03-25T04:00:00	ND	ND	ND	1772.05	ND	ND	0.7	228.5	19.7	96.8	0	38.61
18894	2012-03-25T05:00:00	ND	ND	ND	1305.27	ND	ND	0.3	105.9	19.5	97.5	0	9.14
18895	2012-03-25T06:00:00	ND	ND	ND	1169.44	ND	ND	0.1	ND	19.9	96.9	0	0
18896	2012-03-25T07:00:00	ND	ND	ND	1384.98	ND	ND	0.2	ND	20.2	95.7	11.9	0.25
18897	2012-03-25T08:00:00	ND	ND	ND	1589.29	ND	ND	0.6	170.6	20.7	94	46.8	1.27
18898	2012-03-25T09:00:00	ND	ND	ND	1840.40	ND	ND	1.1	173	20.7	94.2	109.1	2.03
18899	2012-03-25T10:00:00	ND	ND	ND	2077.50	ND	ND	0.9	163	21.2	90.9	230.1	0.51
18900	2012-03-25T11:00:00	ND	ND	ND	1775.67	ND	ND	0.7	148.9	22.3	84.9	365.1	0.25
18901	2012-03-25T12:00:00	ND	ND	ND	1532.56	ND	ND	0.3	181.6	24	75.3	689.4	0
18902	2012-03-25T13:00:00	ND	ND	ND	1678.39	ND	ND	1	161.3	26.1	65.1	844	0
18903	2012-03-25T14:00:00	ND	ND	ND	1529.28	ND	ND	1.1	149	27.9	56.5	880.1	0
18904	2012-03-25T15:00:00	ND	ND	ND	1561.62	ND	ND	0.6	82.1	28	56.3	388.4	0
18905	2012-03-25T16:00:00	ND	ND	ND	1515.85	ND	ND	0.5	38	28.2	55.4	215.9	0
18906	2012-03-25T17:00:00	ND	ND	ND	1609.49	ND	ND	0.6	68	27.9	56.7	136.7	0
18907	2012-03-25T18:00:00	ND	ND	ND	1550.05	ND	ND	3.6	270.9	25.8	63.1	87.1	2.03
18908	2012-03-25T19:00:00	ND	ND	ND	1573.70	ND	ND	3.7	262.4	24.8	65.3	0	0
18909	2012-03-25T20:00:00	ND	ND	ND	1202.08	ND	ND	3.1	273.3	24.8	63.1	0	0
18910	2012-03-25T21:00:00	ND	ND	ND	1270.77	ND	ND	2.6	271.2	24.6	64.8	0	0
18911	2012-03-25T22:00:00	ND	ND	ND	1269.92	ND	ND	1.8	275.7	24.4	65.8	0	0
18912	2012-03-25T23:00:00	ND	ND	ND	1269.06	ND	ND	1.5	201.6	23.6	74.5	0	3.81
18913	2012-03-26T00:00:00	ND	ND	ND	1185.83	ND	ND	2.1	233.7	19.5	94.8	0	54.1
18914	2012-03-26T01:00:00	ND	ND	ND	1585.49	ND	ND	1.2	227.3	19.4	93.4	0	3.05
18915	2012-03-26T02:00:00	ND	ND	ND	1079.12	ND	ND	0.4	ND	20.2	88.4	0	0.25
18916	2012-03-26T03:00:00	ND	ND	ND	1070.80	ND	ND	0.3	ND	20.2	90.4	0	0.25
18917	2012-03-26T04:00:00	ND	ND	ND	1127.15	ND	ND	0.6	198.6	20.3	89.8	0	0
18918	2012-03-26T05:00:00	ND	ND	ND	1217.74	ND	ND	0.6	37.5	20.4	91.6	0	0
18919	2012-03-26T06:00:00	ND	ND	ND	1184.32	ND	ND	0.4	ND	20.3	92.2	0	0
18920	2012-03-26T07:00:00	ND	ND	ND	1398.15	ND	ND	0.2	ND	20.4	89.4	6.7	0
18921	2012-03-26T08:00:00	ND	ND	ND	1477.58	ND	ND	0.7	147.2	21.1	88	79.3	0
18922	2012-03-26T09:00:00	ND	ND	ND	1899.43	ND	ND	0.8	156.5	21.1	90.7	85.6	1.27
18923	2012-03-26T10:00:00	ND	ND	ND	3776.25	ND	ND	0.8	95.8	21	92.5	193	1.27
18924	2012-03-26T11:00:00	ND	ND	ND	2723.85	ND	ND	0.4	82.7	21.9	89.6	140	0
18925	2012-03-26T12:00:00	ND	ND	ND	2324.06	ND	ND	1	81.3	21.8	90.6	121	2.54
18926	2012-03-26T13:00:00	ND	ND	ND	2515.94	ND	ND	1.6	51.6	21.8	89.8	225.6	1.52
18927	2012-03-26T14:00:00	ND	ND	ND	3037.26	ND	ND	2.1	11.9	22.5	88.7	189.2	1.02
18928	2012-03-26T15:00:00	ND	ND	ND	2431.03	ND	ND	1.8	52.8	23.5	82.4	479.5	0.25
18929	2012-03-26T16:00:00	ND	ND	ND	2097.31	ND	ND	0.9	77	25.2	70	372.5	0
18930	2012-03-26T17:00:00	ND	ND	ND	2074.94	ND	ND	1.5	60.8	25.3	65.3	167.9	0
18931	2012-03-26T18:00:00	ND	ND	ND	1915.09	ND	ND	1.3	66.6	24.6	69.7	67.7	0
18932	2012-03-26T19:00:00	ND	ND	ND	2425.43	ND	ND	0.7	69.9	23.4	78.8	1.8	0
18933	2012-03-26T20:00:00	ND	ND	ND	2563.78	ND	ND	0.8	163.3	22.8	82.9	0	0
18934	2012-03-26T21:00:00	ND	ND	ND	3263.62	ND	ND	0.6	65.5	22.3	84.3	0	0
18935	2012-03-26T22:00:00	ND	ND	ND	3189.99	ND	ND	1	41.5	21.7	83.1	0	0
18936	2012-03-26T23:00:00	ND	ND	ND	2854.96	ND	ND	0.8	242.5	21.6	83.1	0	0
18937	2012-03-27T00:00:00	ND	ND	ND	2129.17	ND	ND	1.1	181.4	21.2	85.1	0	0
18938	2012-03-27T01:00:00	ND	ND	ND	1967.94	ND	ND	0.8	199.8	20.7	91.8	0	0
18939	2012-03-27T02:00:00	ND	ND	ND	2021.05	ND	ND	0.8	277.6	20.7	86	0	0
18940	2012-03-27T03:00:00	ND	ND	ND	1309.73	ND	ND	0.5	278.3	20.9	81.7	0	0
18941	2012-03-27T04:00:00	ND	ND	ND	1310.62	ND	ND	0.2	ND	20.5	89.4	0	0
18942	2012-03-27T05:00:00	ND	ND	ND	1241.14	ND	ND	0.5	77.3	20.1	92.3	0	0
18943	2012-03-27T06:00:00	ND	ND	ND	1633.82	ND	ND	0.3	62.3	19.9	93.4	0	0
18944	2012-03-27T07:00:00	ND	ND	ND	1779.08	ND	ND	0.2	ND	20.1	90.9	23.1	0
18945	2012-03-27T08:00:00	ND	ND	ND	1780.30	ND	ND	0.4	206.2	21.5	79.9	152.6	0
18946	2012-03-27T09:00:00	ND	ND	ND	2332.23	ND	ND	0.7	113.7	23.1	75.3	320.8	0
18947	2012-03-27T10:00:00	ND	ND	ND	3084.80	ND	ND	1.3	114.8	24.9	69.6	656.4	0
18948	2012-03-27T11:00:00	ND	ND	ND	2611.11	ND	ND	1.4	65	26.3	63.7	681	0
18949	2012-03-27T12:00:00	ND	ND	ND	2393.26	ND	ND	1.1	77.3	26.6	61.2	380.6	0
18950	2012-03-27T13:00:00	ND	ND	ND	1946.47	ND	ND	0.6	158.3	27.4	58	505.3	0
18951	2012-03-27T14:00:00	ND	ND	ND	1836.19	ND	ND	0.8	174.2	28.3	55.1	382.2	0
18952	2012-03-27T15:00:00	ND	ND	ND	1899.60	ND	ND	0.7	108.4	28.8	53.5	464.9	0
18953	2012-03-27T16:00:00	ND	ND	ND	1925.96	ND	ND	0.5	44.1	28.6	54.3	220	0
18954	2012-03-27T17:00:00	ND	ND	ND	1959.47	ND	ND	0.8	344.8	28.3	55.6	66.1	0
18955	2012-03-27T18:00:00	ND	ND	ND	1992.27	ND	ND	2.7	276.1	27.5	55	120.8	0
18956	2012-03-27T19:00:00	ND	ND	ND	1940.77	ND	ND	3	269.3	26	59.3	0.1	0
18957	2012-03-27T20:00:00	ND	ND	ND	1931.08	ND	ND	3.1	268.9	25.4	60.5	0	0
18958	2012-03-27T21:00:00	ND	ND	ND	1938.68	ND	ND	2.2	275.8	25.2	60	0	0
18959	2012-03-27T22:00:00	ND	ND	ND	1902.98	ND	ND	0.5	16	24	69.9	0	0
18960	2012-03-27T23:00:00	ND	ND	ND	1895.33	ND	ND	0.2	66.6	22.9	77.3	0	0
18961	2012-03-28T00:00:00	ND	ND	ND	1911.06	ND	ND	0.6	191.4	22.8	78.2	0	0
18962	2012-03-28T01:00:00	ND	ND	ND	1921.78	ND	ND	1.1	215.2	22.8	80.2	0	0
18963	2012-03-28T02:00:00	ND	ND	ND	1955.90	ND	ND	0.9	162.7	22.2	82.6	0	0
18964	2012-03-28T03:00:00	ND	ND	ND	1929.23	ND	ND	0.6	183.6	21.8	85.8	0	0
18965	2012-03-28T04:00:00	ND	ND	ND	1960.62	ND	ND	0.5	ND	21.9	85.4	0	0
18966	2012-03-28T05:00:00	ND	ND	ND	1972.62	ND	ND	0.4	168.8	21.8	86.2	0	0
18967	2012-03-28T06:00:00	ND	ND	ND	1983.28	ND	ND	0.4	ND	21.9	85.6	0	0
18968	2012-03-28T07:00:00	ND	ND	ND	1983.96	ND	ND	0.4	187.1	22	83.8	22.2	0
18969	2012-03-28T08:00:00	ND	ND	ND	1984.63	ND	ND	0.2	304.8	22.4	81.8	76.3	0
18970	2012-03-28T09:00:00	ND	ND	ND	1987.32	ND	ND	0.5	233.2	23.5	76.1	188.7	0
18971	2012-03-28T10:00:00	ND	ND	ND	2006.12	ND	ND	0.6	216.5	24.7	68.8	316.9	0
18972	2012-03-28T11:00:00	ND	ND	ND	2048.57	ND	ND	1	148.7	26	62.4	412.8	0
18973	2012-03-28T12:00:00	ND	ND	ND	2080.51	ND	ND	0.9	137.4	26.7	59.3	405.8	0
18974	2012-03-28T13:00:00	ND	ND	ND	2131.46	ND	ND	0.5	159.3	27.8	55.9	493.9	0
18975	2012-03-28T14:00:00	ND	ND	ND	2104.60	ND	ND	1.1	7.8	28.9	52	633.8	0
18976	2012-03-28T15:00:00	ND	ND	ND	2181.93	ND	ND	1.3	93	29.6	49.6	681.1	0
18977	2012-03-28T16:00:00	ND	ND	ND	2233.52	ND	ND	1.4	75.5	29.8	49.7	355.2	0
18978	2012-03-28T17:00:00	ND	ND	ND	2304.84	ND	ND	1.5	51.2	29.1	52.1	154.7	0
18979	2012-03-28T18:00:00	ND	ND	ND	2322.74	ND	ND	1.3	317.1	28.2	55	57.2	0
18980	2012-03-28T19:00:00	ND	ND	ND	2327.40	ND	ND	3.6	272.8	25.6	63.8	0	0
18981	2012-03-28T20:00:00	ND	ND	ND	2249.91	ND	ND	2.1	281.4	25.3	63.3	0	0
18982	2012-03-28T21:00:00	ND	ND	ND	2201.78	ND	ND	1.5	270.2	25.1	63.3	0	0
18983	2012-03-28T22:00:00	ND	ND	ND	2200.30	ND	ND	0.3	207.3	24.2	70	0	0
18984	2012-03-28T23:00:00	ND	ND	ND	2182.24	ND	ND	1.9	187.1	24	74.3	0	0
18985	2012-03-29T00:00:00	ND	ND	ND	2192.19	ND	ND	1.8	188.7	23.5	77.1	0	0
18986	2012-03-29T01:00:00	ND	ND	ND	2177.10	ND	ND	0.5	ND	23.1	80.1	0	0
18987	2012-03-29T02:00:00	ND	ND	ND	2185.54	ND	ND	1.1	244.5	22.7	75.1	0	0
18988	2012-03-29T03:00:00	ND	ND	ND	2205.32	ND	ND	0.3	ND	23.1	73.5	0	0
18989	2012-03-29T04:00:00	ND	ND	ND	2208.31	ND	ND	0.7	61.1	22.3	79.3	0	0
18990	2012-03-29T05:00:00	ND	ND	ND	2225.05	ND	ND	0.3	ND	21.8	81.5	0	0
18991	2012-03-29T06:00:00	ND	ND	ND	2221.28	ND	ND	1	214.9	22	83.2	0	0
18992	2012-03-29T07:00:00	ND	ND	ND	2211.45	ND	ND	0.8	179.2	21.7	85.5	22.6	0
18993	2012-03-29T08:00:00	ND	ND	ND	2209.20	ND	ND	0.8	36.4	22.8	80.8	175.1	0
18994	2012-03-29T09:00:00	ND	ND	ND	2217.44	ND	ND	0.6	26.2	24.8	70.7	385.6	0
18995	2012-03-29T10:00:00	ND	ND	ND	2278.23	ND	ND	1.4	136.1	26.5	64	580.7	0
18996	2012-03-29T11:00:00	ND	ND	ND	2314.26	ND	ND	1.6	146.7	27.7	58.5	769.2	0
18997	2012-03-29T12:00:00	ND	ND	ND	2346.65	ND	ND	1.4	146.9	29.1	53.2	816	0
18998	2012-03-29T13:00:00	ND	ND	ND	2369.19	ND	ND	0.8	157.9	30.3	48.1	857.4	0
18999	2012-03-29T14:00:00	ND	ND	ND	2390.26	ND	ND	0.6	94.8	31.4	44.7	770.5	0
19000	2012-03-29T15:00:00	ND	ND	ND	2539.36	ND	ND	1.2	305.5	31.3	45.5	398.5	0
19001	2012-03-29T16:00:00	ND	ND	ND	2550.22	ND	ND	3.6	280.3	31.4	44.8	551.3	0
19002	2012-03-29T17:00:00	ND	ND	ND	2527.66	ND	ND	4.5	281.5	29.6	50.1	321.1	0
19003	2012-03-29T18:00:00	ND	ND	ND	2454.54	ND	ND	5	278.3	27.7	55.6	43.7	0
19004	2012-03-29T19:00:00	ND	ND	ND	2450.69	ND	ND	5.1	274.3	26.6	59.8	0	0
19005	2012-03-29T20:00:00	ND	ND	ND	2499.32	ND	ND	3.3	280.3	26.8	58.4	0	0
19006	2012-03-29T21:00:00	ND	ND	ND	2500.98	ND	ND	2.6	275	26.5	60.5	0	0
19007	2012-03-29T22:00:00	ND	ND	ND	2452.43	ND	ND	2.7	268.8	26	62.6	0	0
19008	2012-03-29T23:00:00	ND	ND	ND	2448.33	ND	ND	1.7	238.3	26	62.5	0	0
19009	2012-03-30T00:00:00	ND	ND	ND	2425.34	ND	ND	1.7	210.4	25.3	67.7	0	0
19010	2012-03-30T01:00:00	ND	ND	ND	2454.07	ND	ND	1.4	196	24.7	71.7	0	0
19011	2012-03-30T02:00:00	ND	ND	ND	2460.58	ND	ND	0.8	149.4	24	75.7	0	0
19012	2012-03-30T03:00:00	ND	ND	ND	2443.37	ND	ND	0.5	92.1	23.2	80	0	0
19013	2012-03-30T04:00:00	ND	ND	ND	2414.02	ND	ND	0.3	178.4	23.2	79.9	0	0
19014	2012-03-30T05:00:00	ND	ND	ND	2414.02	ND	ND	0.3	151.5	23.3	77.9	0	0
19015	2012-03-30T06:00:00	ND	ND	ND	2403.44	ND	ND	0.5	134.1	22.7	80.6	0	0
19016	2012-03-30T07:00:00	ND	ND	ND	2432.68	ND	ND	0.4	158.6	23.1	79.4	15.6	0
19017	2012-03-30T08:00:00	ND	ND	ND	2435.97	ND	ND	1.4	59.1	23.1	81.1	139.4	0
19018	2012-03-30T09:00:00	ND	ND	ND	2435.97	ND	ND	0.8	131.2	24.6	72.5	356.4	0
19019	2012-03-30T10:00:00	ND	ND	ND	2482.63	ND	ND	0.9	85.8	27.1	61.5	607.7	0
19020	2012-03-30T11:00:00	ND	ND	ND	2503.49	ND	ND	1.1	60.5	28.6	54.9	715.2	0
19021	2012-03-30T12:00:00	ND	ND	ND	2573.97	ND	ND	2.4	40.6	29.3	53.2	779.5	0
19022	2012-03-30T13:00:00	ND	ND	ND	2626.43	ND	ND	2.8	45.2	29.9	49.7	828.5	0
19023	2012-03-30T14:00:00	ND	ND	ND	2689.87	ND	ND	2.4	45.2	31	44.9	860.3	0
19024	2012-03-30T15:00:00	ND	ND	ND	2769.76	ND	ND	2.3	41.5	31.6	40.8	699.4	0
19025	2012-03-30T16:00:00	ND	ND	ND	2786.93	ND	ND	1.8	23.4	32	43.4	554.6	0
19026	2012-03-30T17:00:00	ND	ND	ND	2743.69	ND	ND	2.6	32.1	31.7	43.3	320.9	0
19027	2012-03-30T18:00:00	ND	ND	ND	2740.99	ND	ND	2.4	42	30.5	44.6	77.1	0
19028	2012-03-30T19:00:00	ND	ND	ND	2706.86	ND	ND	0.9	1.2	29.4	49.2	0	0
19029	2012-03-30T20:00:00	ND	ND	ND	2720.30	ND	ND	2.7	271.5	27.9	59.2	0	0
19030	2012-03-30T21:00:00	ND	ND	ND	2718.38	ND	ND	3.6	271.6	27.2	61.5	0	0
19031	2012-03-30T22:00:00	ND	ND	ND	2642.81	ND	ND	3	276	26.9	62.1	0	0
19032	2012-03-30T23:00:00	ND	ND	ND	2651.70	ND	ND	2.4	284.5	26.4	63.6	0	0
19033	2012-03-31T00:00:00	ND	ND	ND	2624.26	ND	ND	1	299.2	25.7	66.9	0	0
19034	2012-03-31T01:00:00	ND	ND	ND	2606.64	ND	ND	1.6	316.7	25.7	64	0	0
19035	2012-03-31T02:00:00	ND	ND	ND	2629.60	ND	ND	0.5	90	24.9	70.4	0	0
19036	2012-03-31T03:00:00	ND	ND	ND	2656.92	ND	ND	0.9	212.9	24.7	69.2	0	0
19037	2012-03-31T04:00:00	ND	ND	ND	2632.24	ND	ND	1.3	179.1	23.7	76.5	0	0
19038	2012-03-31T05:00:00	ND	ND	ND	2623.40	ND	ND	2.1	192.6	23.2	80.7	0	0
19039	2012-03-31T06:00:00	ND	ND	ND	2607.59	ND	ND	1	181.5	23.4	76.4	0	0
19040	2012-03-31T07:00:00	ND	ND	ND	2609.36	ND	ND	0.6	130.3	23.6	75.7	46	0
19041	2012-03-31T08:00:00	ND	ND	ND	2588.31	ND	ND	1.2	134.7	24.6	72.3	162.3	0
19042	2012-03-31T09:00:00	ND	ND	ND	2597.04	ND	ND	1.4	145.8	24.6	73.1	188.5	0
19043	2012-03-31T10:00:00	ND	ND	ND	2654.24	ND	ND	0.8	156.3	25.9	67.8	345	0
19044	2012-03-31T11:00:00	ND	ND	ND	2665.84	ND	ND	1	141.4	28.1	59	748.3	0
19045	2012-03-31T12:00:00	ND	ND	ND	2743.33	ND	ND	0.8	99.2	30	51.5	695.2	0
19046	2012-03-31T13:00:00	ND	ND	ND	2818.89	ND	ND	0.6	165.1	30.7	48.3	637.3	0
19047	2012-03-31T14:00:00	ND	ND	ND	2872.10	ND	ND	0.6	127.6	32	45.1	729.7	0
19048	2012-03-31T15:00:00	ND	ND	ND	2931.29	ND	ND	0.9	243.7	32.2	44.4	581.3	0
19049	2012-03-31T16:00:00	ND	ND	ND	2956.68	ND	ND	3.4	280.2	31.8	45	437.7	0
19050	2012-03-31T17:00:00	ND	ND	ND	2929.37	ND	ND	4.4	276.5	29.7	50.9	297.3	0
19051	2012-03-31T18:00:00	ND	ND	ND	2781.18	ND	ND	4.6	272.3	28.3	54.8	53.2	0
19052	2012-03-31T19:00:00	ND	ND	ND	2826.24	ND	ND	4	266.8	27.7	56.1	0	0
19053	2012-03-31T20:00:00	ND	ND	ND	2878.41	ND	ND	4.6	266.6	27.1	58.6	0	0
19054	2012-03-31T21:00:00	ND	ND	ND	2849.59	ND	ND	2.4	270.2	26.8	60.3	0	0
19055	2012-03-31T22:00:00	ND	ND	ND	2777.59	ND	ND	2.8	263.9	26.2	62.7	0	0
19056	2012-03-31T23:00:00	ND	ND	ND	2772.03	ND	ND	1.6	259	26	63.1	0	0
19057	2012-04-01T00:00:00	ND	ND	ND	2747.19	ND	ND	2.1	239.7	25.7	64	0	0
19058	2012-04-01T01:00:00	ND	ND	ND	2790.37	ND	ND	1.2	187.4	24.9	68	0	0
19059	2012-04-01T02:00:00	ND	ND	ND	2759.99	ND	ND	1.3	181.5	24	72.2	0	0
19060	2012-04-01T03:00:00	ND	ND	ND	2728.81	ND	ND	0.4	46.5	23.6	74.9	0	0
19061	2012-04-01T04:00:00	ND	ND	ND	2702.33	ND	ND	0.5	62.2	23.1	78.8	0	0
19062	2012-04-01T05:00:00	ND	ND	ND	2720.54	ND	ND	0.5	155	22.7	79.7	0	0
19063	2012-04-01T06:00:00	ND	ND	ND	2728.24	ND	ND	0.5	130.2	22.6	79.9	0	0
19064	2012-04-01T07:00:00	ND	ND	ND	2715.95	ND	ND	0.6	0.7	22.7	79.2	14.2	0
19065	2012-04-01T08:00:00	ND	ND	ND	ND	ND	ND	0.7	64.4	23.1	78.6	45.4	0
19066	2012-04-01T09:00:00	ND	ND	ND	ND	ND	ND	0.8	120.1	23.2	78.1	186.9	0
19067	2012-04-01T10:00:00	ND	ND	ND	2755.62	ND	ND	0.8	87.6	25.1	70.4	527.2	0
19068	2012-04-01T11:00:00	ND	ND	ND	ND	ND	ND	1	75.5	27.4	59.5	700.8	0
19069	2012-04-01T12:00:00	ND	ND	ND	ND	ND	ND	1.5	57.6	28.9	53.7	661.5	0
19070	2012-04-01T13:00:00	ND	ND	ND	ND	ND	ND	1.2	43.5	29.6	51.1	585.8	0
19071	2012-04-01T14:00:00	ND	ND	ND	ND	ND	ND	1	43	30.3	49.6	516.4	0
19072	2012-04-01T15:00:00	ND	ND	ND	2984.91	ND	ND	0.7	60.8	30	50.4	217	0
19073	2012-04-01T16:00:00	ND	ND	ND	3098.45	ND	ND	2.4	287.3	28.9	50.9	153.7	0
19074	2012-04-01T17:00:00	ND	ND	ND	3063.98	ND	ND	3.1	276.5	28.1	52.9	123.7	0
19075	2012-04-01T18:00:00	ND	ND	ND	3044.29	ND	ND	3.4	277.7	26.9	56	50.7	0
19076	2012-04-01T19:00:00	ND	ND	ND	3009.10	ND	ND	3.8	267.3	26.2	57.8	0	0
19077	2012-04-01T20:00:00	ND	ND	ND	2967.57	ND	ND	3.5	264.8	26.3	55.8	0	0
19078	2012-04-01T21:00:00	ND	ND	ND	2934.04	ND	ND	2.2	295.2	26.3	55.3	0	0
19079	2012-04-01T22:00:00	ND	ND	ND	2945.55	ND	ND	2.7	290.3	25.4	60.2	0	0
19080	2012-04-01T23:00:00	ND	ND	ND	2867.86	ND	ND	0.6	274.6	24.9	62.7	0	0
19081	2012-04-02T00:00:00	ND	ND	ND	2874.51	ND	ND	0.5	96.6	24.4	67.1	0	0
19082	2012-04-02T01:00:00	ND	ND	ND	2881.12	ND	ND	1	104.9	23.7	70.1	0	0
19083	2012-04-02T02:00:00	ND	ND	ND	2874.34	ND	ND	0.5	153.9	23.3	72.6	0	0
19084	2012-04-02T03:00:00	ND	ND	ND	2813.51	ND	ND	0.6	166.7	23.2	75.7	0	0
19085	2012-04-02T04:00:00	ND	ND	ND	2823.95	ND	ND	0.3	73.1	23.2	76.1	0	0
19086	2012-04-02T05:00:00	ND	ND	ND	2858.11	ND	ND	0.2	86.5	22.4	77.6	0	0
19087	2012-04-02T06:00:00	ND	ND	ND	1885.12	ND	ND	0.5	153.1	22.4	80	0	0
19088	2012-04-02T07:00:00	ND	ND	ND	1408.16	ND	ND	0.2	ND	22.8	78.2	21.2	0
19089	2012-04-02T08:00:00	ND	ND	ND	1421.44	ND	ND	0.7	73.1	23.3	75.9	91.4	0
19090	2012-04-02T09:00:00	ND	ND	ND	2209.80	ND	ND	1	84.7	24.2	72.2	238.7	0
19091	2012-04-02T10:00:00	ND	ND	ND	2959.16	ND	ND	1.5	100.9	25.8	64.8	602.5	0
19092	2012-04-02T11:00:00	ND	ND	ND	2722.38	ND	ND	1.1	84.9	27.6	56.4	677	0
19093	2012-04-02T12:00:00	ND	ND	ND	2045.42	ND	ND	1.1	135.4	29.3	50.7	887.6	0
19094	2012-04-02T13:00:00	ND	ND	ND	1836.18	ND	ND	0.8	132.3	30.5	46.2	849.2	0
19095	2012-04-02T14:00:00	ND	ND	ND	1866.80	ND	ND	0.9	134.4	31.4	43.7	789.7	0
19096	2012-04-02T15:00:00	ND	ND	ND	1954.25	ND	ND	1.6	119.4	31.9	41.5	653	0
19097	2012-04-02T16:00:00	ND	ND	ND	1828.53	ND	ND	0.4	296.1	31.6	42.9	318.4	0
19098	2012-04-02T17:00:00	ND	ND	ND	2025.80	ND	ND	4.7	274.4	29.1	51.8	99.9	0
19099	2012-04-02T18:00:00	ND	ND	ND	2032.40	ND	ND	5.2	281.3	27.6	54.9	40	0
19100	2012-04-02T19:00:00	ND	ND	ND	1825.85	ND	ND	5.1	281	26.9	56.6	0	0
19101	2012-04-02T20:00:00	ND	ND	ND	1706.31	ND	ND	6.4	270.3	25.9	59.7	0	0
19102	2012-04-02T21:00:00	ND	ND	ND	1597.20	ND	ND	3	274.3	26	58.3	0	0
19103	2012-04-02T22:00:00	ND	ND	ND	1402.33	ND	ND	2.9	247.7	25.9	58	0	0
19104	2012-04-02T23:00:00	ND	ND	ND	1413.35	ND	ND	1.6	259.6	26	56.9	0	0
19105	2012-04-03T00:00:00	ND	ND	ND	1367.85	ND	ND	1.6	231.3	25.2	63.2	0	0
19106	2012-04-03T01:00:00	ND	ND	ND	1364.19	ND	ND	1.4	152.4	24.4	69.7	0	0
19107	2012-04-03T02:00:00	ND	ND	ND	1337.66	ND	ND	1.1	151	23.7	71.5	0	0
19108	2012-04-03T03:00:00	ND	ND	ND	1494.20	ND	ND	0.5	162.5	23.4	72.4	0	0
19109	2012-04-03T04:00:00	ND	ND	ND	1298.98	ND	ND	0.5	161.2	23.3	74.9	0	0
19110	2012-04-03T05:00:00	ND	ND	ND	1309.93	ND	ND	0.6	232.4	23.3	75	0	0
19111	2012-04-03T06:00:00	ND	ND	ND	1321.32	ND	ND	0.3	177.4	23.2	75.9	0	0
19112	2012-04-03T07:00:00	ND	ND	ND	1286.72	ND	ND	0.7	124.8	23	77.8	24.6	0
19113	2012-04-03T08:00:00	ND	ND	ND	1604.47	ND	ND	0.6	110.5	24	72.3	191	0
19114	2012-04-03T09:00:00	ND	ND	ND	2580.38	ND	ND	0.4	197.1	25.7	63.6	414.3	0
19115	2012-04-03T10:00:00	ND	ND	ND	2468.84	ND	ND	1.3	124.1	27.3	57.9	618.7	0
19116	2012-04-03T11:00:00	ND	ND	ND	2274.27	ND	ND	0.7	99.9	28.4	54.1	384.2	0
19117	2012-04-03T12:00:00	ND	ND	ND	2189.90	ND	ND	0.4	60.7	28.8	52.5	381	0
19118	2012-04-03T13:00:00	ND	ND	ND	2192.81	ND	ND	0.3	88.1	29.7	49.5	438.7	0
19119	2012-04-03T14:00:00	ND	ND	ND	1931.70	ND	ND	0.9	59.1	30.1	48.3	422.8	0
19120	2012-04-03T15:00:00	ND	ND	ND	1922.60	ND	ND	1	221.9	31.5	43.4	605.9	0
19121	2012-04-03T16:00:00	ND	ND	ND	2177.31	ND	ND	0.5	39.5	30.9	44.5	184	0
19122	2012-04-03T17:00:00	ND	ND	ND	1869.26	ND	ND	4.7	279.7	28.9	49.3	155.5	0
19123	2012-04-03T18:00:00	ND	ND	ND	2205.14	ND	ND	4.5	277.2	27.7	53	76.7	0
19124	2012-04-03T19:00:00	ND	ND	ND	1803.34	ND	ND	1.7	294.2	26.6	58.1	0.7	0
19125	2012-04-03T20:00:00	ND	ND	ND	1750.67	ND	ND	1.1	96.1	25.2	67.6	0	0
19126	2012-04-03T21:00:00	ND	ND	ND	2006.16	ND	ND	0.9	70.7	25.1	65.5	0	0
19127	2012-04-03T22:00:00	ND	ND	ND	2956.66	ND	ND	0.9	253.1	25.1	63.4	0	0
19128	2012-04-03T23:00:00	ND	ND	ND	2486.80	ND	ND	1.6	206.2	24.9	68.7	0	0
19129	2012-04-04T00:00:00	ND	ND	ND	1798.00	ND	ND	1	148.3	24	72.9	0	0
19130	2012-04-04T01:00:00	ND	ND	ND	1632.72	ND	ND	1.3	152.3	23.3	76.4	0	0
19131	2012-04-04T02:00:00	ND	ND	ND	1685.83	ND	ND	1.2	168.5	22.9	78.5	0	0
19132	2012-04-04T03:00:00	ND	ND	ND	1524.30	ND	ND	0.5	57	22.2	80.1	0	0
19133	2012-04-04T04:00:00	ND	ND	ND	1361.81	ND	ND	0.5	195.7	22.5	79.3	0	0
19134	2012-04-04T05:00:00	ND	ND	ND	1317.76	ND	ND	0.6	167.4	22.4	80.3	0	0
19135	2012-04-04T06:00:00	ND	ND	ND	1374.09	ND	ND	0.1	212.1	22.6	79.4	0	0
19136	2012-04-04T07:00:00	ND	ND	ND	1511.39	ND	ND	0.3	111.5	22.7	79.5	27.2	0
19137	2012-04-04T08:00:00	ND	ND	ND	1636.94	ND	ND	0.4	70.9	23.5	75.9	120.2	0
19138	2012-04-04T09:00:00	ND	ND	ND	2302.48	ND	ND	0.9	68.6	24.3	72.3	162	0
19139	2012-04-04T10:00:00	ND	ND	ND	2765.86	ND	ND	1.3	46.4	25.4	67.2	526.3	0
19140	2012-04-04T11:00:00	ND	ND	ND	2948.16	ND	ND	1	8.3	27.3	58.1	671.8	0
19141	2012-04-04T12:00:00	ND	ND	ND	ND	ND	ND	1.2	5.5	28.6	52.9	640.4	0
19142	2012-04-04T13:00:00	ND	ND	ND	ND	ND	ND	1.4	39.2	29.5	50.2	446	0
19143	2012-04-04T14:00:00	ND	ND	ND	ND	ND	ND	2.5	288.2	27.8	51.9	170.6	0
19144	2012-04-04T15:00:00	ND	ND	ND	ND	ND	ND	3.3	274.8	28.1	51.1	335.5	0
19145	2012-04-04T16:00:00	ND	ND	ND	ND	ND	ND	3.1	270.1	28.7	48.9	314	0
19146	2012-04-04T17:00:00	ND	ND	ND	ND	ND	ND	2.1	281.2	28	51.5	101.4	0
19147	2012-04-04T18:00:00	ND	ND	ND	ND	ND	ND	3.4	248.1	26.7	55.2	24.5	0
19148	2012-04-04T19:00:00	ND	ND	ND	ND	ND	ND	2.1	190.4	25.4	64.4	0	0
19149	2012-04-04T20:00:00	ND	ND	ND	ND	ND	ND	1.9	165	23.5	75.6	0	0
19150	2012-04-04T21:00:00	ND	ND	ND	ND	ND	ND	1	153.2	23.4	76.1	0	0
19151	2012-04-04T22:00:00	ND	ND	ND	ND	ND	ND	2.4	23.2	23	77.5	0	0
19152	2012-04-04T23:00:00	ND	ND	ND	ND	ND	ND	1.5	32.7	21.6	86.7	0	9.14
19153	2012-04-05T00:00:00	ND	ND	ND	ND	ND	ND	1.2	23.5	21.7	86.1	0	0
19154	2012-04-05T01:00:00	ND	ND	ND	ND	ND	ND	0.8	17.2	21.8	84.4	0	0
19155	2012-04-05T02:00:00	ND	ND	ND	ND	ND	ND	0.3	76.2	21.9	83.3	0	0.25
19156	2012-04-05T03:00:00	ND	ND	ND	ND	ND	ND	0.5	235.8	21.8	86	0	0.25
19157	2012-04-05T04:00:00	ND	ND	ND	ND	ND	ND	0	ND	21.9	86.1	0	0
19158	2012-04-05T05:00:00	ND	ND	ND	ND	ND	ND	0.4	157	21.8	86.9	0	0
19159	2012-04-05T06:00:00	ND	ND	ND	ND	ND	ND	0.2	94.3	21.7	87.6	0	0
19160	2012-04-05T07:00:00	ND	ND	ND	ND	ND	ND	0.6	83.5	21.5	88.4	27.7	0
19161	2012-04-05T08:00:00	ND	ND	ND	ND	ND	ND	0.4	126.5	22.2	86.3	136.7	0
19162	2012-04-05T09:00:00	ND	ND	ND	ND	ND	ND	0.2	124.3	23.5	73.7	286	0
19163	2012-04-05T10:00:00	ND	ND	ND	ND	ND	ND	1	174.3	25	65.3	489.2	0
19164	2012-04-05T11:00:00	ND	ND	ND	ND	ND	ND	0.4	179.6	26.6	57.1	600.6	0
19165	2012-04-05T12:00:00	ND	ND	ND	ND	ND	ND	0.6	35.6	28.4	50	785.3	0
19166	2012-04-05T13:00:00	ND	ND	ND	ND	ND	ND	1.5	77	28.9	51.9	570	0
19167	2012-04-05T14:00:00	ND	ND	ND	ND	ND	ND	2.1	68.1	28.2	55.5	308.2	0
19168	2012-04-05T15:00:00	ND	ND	ND	ND	ND	ND	2.5	285.1	27.4	54.6	117.2	0
19169	2012-04-05T16:00:00	ND	ND	ND	ND	ND	ND	2.9	285.5	26.8	54.6	124.9	0
19170	2012-04-05T17:00:00	ND	ND	ND	ND	ND	ND	3.1	273.4	26.9	53.8	121.8	0
19171	2012-04-05T18:00:00	ND	ND	ND	ND	ND	ND	2.5	272.4	25.7	58.1	20.9	0
19172	2012-04-05T19:00:00	ND	ND	ND	ND	ND	ND	1.8	229.3	24.7	61	0	0
19173	2012-04-05T20:00:00	ND	ND	ND	ND	ND	ND	1.3	126.5	22.4	79.1	0	0
19174	2012-04-05T21:00:00	ND	ND	ND	ND	ND	ND	1.2	208.1	21.9	83	0	0
19175	2012-04-05T22:00:00	ND	ND	ND	ND	ND	ND	1.4	160.4	21.8	83.5	0	0
19176	2012-04-05T23:00:00	ND	ND	ND	ND	ND	ND	2.4	188	21.1	87.2	0	0
19177	2012-04-06T00:00:00	ND	ND	ND	ND	ND	ND	1.9	187.6	20.9	86.2	0	0
19178	2012-04-06T01:00:00	ND	ND	ND	ND	ND	ND	1.6	194.8	20.7	85.9	0	0
19179	2012-04-06T02:00:00	ND	ND	ND	ND	ND	ND	1.4	171.9	20.6	84.2	0	0
19180	2012-04-06T03:00:00	ND	ND	ND	ND	ND	ND	1.2	208.1	20.6	84.4	0	0
19181	2012-04-06T04:00:00	ND	ND	ND	ND	ND	ND	0.2	200.4	20.9	83.9	0	0
19182	2012-04-06T05:00:00	ND	ND	ND	ND	ND	ND	0.3	265.9	21.1	82.4	0	0
19183	2012-04-06T06:00:00	ND	ND	ND	ND	ND	ND	0.5	182	20.9	83	0	0
19184	2012-04-06T07:00:00	ND	ND	ND	ND	ND	ND	0.6	171.1	20.4	85.7	8.9	0
19185	2012-04-06T08:00:00	ND	ND	ND	ND	ND	ND	0.5	216.7	21.2	81.6	177.3	0
19186	2012-04-06T09:00:00	ND	ND	ND	ND	ND	ND	0.1	104.9	23	73.6	286.7	0
19187	2012-04-06T10:00:00	ND	ND	ND	ND	ND	ND	0.7	120.9	23.7	70.3	310.3	0
19188	2012-04-06T11:00:00	ND	ND	ND	ND	ND	ND	0.5	157	25.8	61.2	558	0
19189	2012-04-06T12:00:00	ND	ND	ND	ND	ND	ND	0.9	216.2	25.8	60.5	319.9	0
19190	2012-04-06T13:00:00	ND	ND	ND	ND	ND	ND	1.1	150.5	27.7	54.8	848.2	0
19191	2012-04-06T14:00:00	ND	ND	ND	ND	ND	ND	0.9	207	29.1	48.1	799.8	0
19192	2012-04-06T15:00:00	ND	ND	ND	ND	ND	ND	0.9	111.6	28.9	51.2	431.7	0
19193	2012-04-06T16:00:00	ND	ND	ND	ND	ND	ND	1.3	128	29.2	50.6	333.9	0
19194	2012-04-06T17:00:00	ND	ND	ND	ND	ND	ND	1.1	73.5	28.7	52	154	0
19195	2012-04-06T18:00:00	ND	ND	ND	ND	ND	ND	0.7	156.6	28.2	53.5	38.1	0
19196	2012-04-06T19:00:00	ND	ND	ND	ND	ND	ND	2	230.4	27.1	55.1	0	0
19197	2012-04-06T20:00:00	ND	ND	ND	ND	ND	ND	2.9	218.7	24	68.6	0	0.25
19198	2012-04-06T21:00:00	ND	ND	ND	ND	ND	ND	0.6	128.1	21.4	81.3	0	5.84
19199	2012-04-06T22:00:00	ND	ND	ND	ND	ND	ND	1.2	275.4	20.5	91.4	0	24.38
19200	2012-04-06T23:00:00	ND	ND	ND	ND	ND	ND	1.5	61.9	20.3	92.8	0	6.1
19201	2012-04-07T00:00:00	ND	ND	ND	ND	ND	ND	0.7	46	19.8	92.5	0	0
19202	2012-04-07T01:00:00	ND	ND	ND	ND	ND	ND	0.4	207.8	20.3	90.5	0	0.25
19203	2012-04-07T02:00:00	ND	ND	ND	ND	ND	ND	1	197.6	20.5	90.2	0	2.03
19204	2012-04-07T03:00:00	ND	ND	ND	ND	ND	ND	0.5	291.1	19.7	93.8	0	11.68
19205	2012-04-07T04:00:00	ND	ND	ND	ND	ND	ND	0.5	40.1	20.2	90.5	0	0.25
19206	2012-04-07T05:00:00	ND	ND	ND	ND	ND	ND	0.6	319.2	19.9	90.9	0	12.95
19207	2012-04-07T06:00:00	ND	ND	ND	ND	ND	ND	0.9	352.5	19.3	95.2	0	11.68
19208	2012-04-07T07:00:00	ND	ND	ND	ND	ND	ND	1.1	14.4	19.3	96.2	0	6.6
19209	2012-04-07T08:00:00	ND	ND	ND	ND	ND	ND	1.8	16.2	18.8	96.4	8.8	8.38
19210	2012-04-07T09:00:00	ND	ND	ND	ND	ND	ND	0.3	80.1	18.8	96.4	36.1	5.33
19211	2012-04-07T10:00:00	ND	ND	ND	ND	ND	ND	0.5	235.7	19.3	95.7	56.8	5.59
19212	2012-04-07T11:00:00	ND	ND	ND	ND	ND	ND	1	168.3	20	95	216	3.81
19213	2012-04-07T12:00:00	ND	ND	ND	ND	ND	ND	1	139.7	21.4	86.8	341.1	0
19214	2012-04-07T13:00:00	ND	ND	ND	ND	ND	ND	0.7	195.4	23.1	76.2	494.3	0.25
19215	2012-04-07T14:00:00	ND	ND	ND	ND	ND	ND	1.6	359.5	24.2	67.7	370.8	0
19216	2012-04-07T15:00:00	ND	ND	ND	ND	ND	ND	1.8	18.1	24.4	69.6	264.9	0
19217	2012-04-07T16:00:00	ND	ND	ND	ND	ND	ND	1.4	66.3	24.2	70.7	200.3	0
19218	2012-04-07T17:00:00	ND	ND	ND	ND	ND	ND	0.8	121	24.2	70.8	142.4	0
19219	2012-04-07T18:00:00	ND	ND	ND	ND	ND	ND	1.2	132.3	23.8	73.8	51	0
19220	2012-04-07T19:00:00	ND	ND	ND	ND	ND	ND	0.4	142.9	22.7	80.6	0	0
19221	2012-04-07T20:00:00	ND	ND	ND	ND	ND	ND	0.2	ND	22.4	81.8	0	0
19222	2012-04-07T21:00:00	ND	ND	ND	ND	ND	ND	0.4	9.5	21.9	83.6	0	0
19223	2012-04-07T22:00:00	ND	ND	ND	ND	ND	ND	0.2	ND	21.4	83.6	0	0
19224	2012-04-07T23:00:00	ND	ND	ND	ND	ND	ND	0.8	242.2	21	79.5	0	0
19225	2012-04-08T00:00:00	ND	ND	ND	ND	ND	ND	0.4	ND	20.9	80.7	0	0
19226	2012-04-08T01:00:00	ND	ND	ND	ND	ND	ND	0.4	229.4	21	81	0	0
19227	2012-04-08T02:00:00	ND	ND	ND	ND	ND	ND	0.8	130.7	20.6	86.3	0	0
19228	2012-04-08T03:00:00	ND	ND	ND	ND	ND	ND	0.4	236.6	20.4	89.6	0	0
19229	2012-04-08T04:00:00	ND	ND	ND	ND	ND	ND	0.4	185.7	20.6	88.1	0	0
19230	2012-04-08T05:00:00	ND	ND	ND	ND	ND	ND	0.7	113.5	20.4	91	0	0.76
19231	2012-04-08T06:00:00	ND	ND	ND	ND	ND	ND	0.5	92	19.9	94.3	0	4.32
19232	2012-04-08T07:00:00	ND	ND	ND	ND	ND	ND	0.9	164.4	19.5	95.7	17.2	2.29
19233	2012-04-08T08:00:00	ND	ND	ND	ND	ND	ND	1.3	153.7	19.8	95.4	52.4	0
19234	2012-04-08T09:00:00	ND	ND	ND	ND	ND	ND	1.4	165.6	20.4	92.4	130.7	0.25
19235	2012-04-08T10:00:00	ND	ND	ND	ND	ND	ND	1.3	158.3	21.5	85.5	236.5	0
19236	2012-04-08T11:00:00	ND	ND	ND	ND	ND	ND	0.8	135.8	23.4	75.8	472.2	0
19237	2012-04-08T12:00:00	ND	ND	ND	ND	ND	ND	0.6	104.1	25	68.7	581.7	0
19238	2012-04-08T13:00:00	ND	ND	ND	ND	ND	ND	1.2	19.7	25.4	66.4	442.7	0
19239	2012-04-08T14:00:00	ND	ND	ND	ND	ND	ND	1.8	271.8	23.8	73.7	196.1	0
19240	2012-04-08T15:00:00	ND	ND	ND	ND	ND	ND	1	319.6	25.2	65.2	308	0
19241	2012-04-08T16:00:00	ND	ND	ND	ND	ND	ND	2.6	329.1	26.5	53.8	304.2	0
19242	2012-04-08T17:00:00	ND	ND	ND	ND	ND	ND	3.7	291.9	25.2	58.5	147	0
19243	2012-04-08T18:00:00	ND	ND	ND	ND	ND	ND	3.1	292	24.2	61.2	26.5	0
19244	2012-04-08T19:00:00	ND	ND	ND	ND	ND	ND	2.1	265.4	23.7	64.2	0	0
19245	2012-04-08T20:00:00	ND	ND	ND	ND	ND	ND	1.6	228	23.4	65.7	0	0
19246	2012-04-08T21:00:00	ND	ND	ND	ND	ND	ND	1	257.3	23.5	64.1	0	0
19247	2012-04-08T22:00:00	ND	ND	ND	ND	ND	ND	1.7	191.8	23	69.7	0	0
19248	2012-04-08T23:00:00	ND	ND	ND	ND	ND	ND	1.5	175.7	21.8	79.6	0	0
19249	2012-04-09T00:00:00	ND	ND	ND	ND	ND	ND	1.3	190.8	21.1	82.4	0	0
19250	2012-04-09T01:00:00	ND	ND	ND	ND	ND	ND	1.6	184.6	20.8	84.6	0	0
19251	2012-04-09T02:00:00	ND	ND	ND	ND	ND	ND	0.8	181.5	20.7	85.7	0	0
19252	2012-04-09T03:00:00	ND	ND	ND	ND	ND	ND	0.2	ND	20.7	85.5	0	0
19253	2012-04-09T04:00:00	ND	ND	ND	ND	ND	ND	0.2	ND	20.7	84.2	0	0
19254	2012-04-09T05:00:00	ND	ND	ND	ND	ND	ND	0.6	66.4	20.4	87.7	0	0
19255	2012-04-09T06:00:00	ND	ND	ND	ND	ND	ND	0.9	2.4	20.3	89.5	0	0
19256	2012-04-09T07:00:00	ND	ND	ND	ND	ND	ND	0.6	3.9	20.5	88.6	43.7	0
19257	2012-04-09T08:00:00	ND	ND	ND	ND	ND	ND	1.1	85.1	21.3	84.4	183.3	0
19258	2012-04-09T09:00:00	ND	ND	ND	ND	ND	ND	0.7	47.2	22.3	79.2	206.4	0
19259	2012-04-09T10:00:00	ND	ND	ND	ND	ND	ND	0.8	101.7	23.8	71.3	386.1	0
19260	2012-04-09T11:00:00	ND	ND	ND	ND	ND	ND	0.6	74.5	25.9	60.2	770.2	0
19261	2012-04-09T12:00:00	ND	ND	ND	ND	ND	ND	1	104.2	26.9	57.4	703.2	0
19262	2012-04-09T13:00:00	ND	ND	ND	ND	ND	ND	1	82.6	27.4	54.5	380.3	0
19263	2012-04-09T14:00:00	ND	ND	ND	1755.35	ND	ND	0.5	164	27.6	54.1	349.6	0
19264	2012-04-09T15:00:00	ND	ND	ND	1675.62	ND	ND	0.9	194	27.6	55.3	384.6	0
19265	2012-04-09T16:00:00	ND	ND	ND	1606.29	ND	ND	0.2	143.3	28.1	53.9	243	0
19266	2012-04-09T17:00:00	ND	ND	ND	1713.14	ND	ND	2.2	277.6	26.7	57.1	107.9	0
19267	2012-04-09T18:00:00	ND	ND	ND	1889.51	ND	ND	2.3	281	25.9	59.2	50.2	0
19268	2012-04-09T19:00:00	ND	ND	ND	1895.96	ND	ND	3	281.2	25.2	61	0	0
19269	2012-04-09T20:00:00	ND	ND	ND	1788.35	ND	ND	3	278.2	25	60.9	0	0
19270	2012-04-09T21:00:00	ND	ND	ND	1798.60	ND	ND	2.7	272.2	24.8	61.6	0	0
19271	2012-04-09T22:00:00	ND	ND	ND	1625.67	ND	ND	1.1	282.6	24.3	65.3	0	0
19272	2012-04-09T23:00:00	ND	ND	ND	1188.63	ND	ND	1.9	213.4	23.7	70.6	0	0
19273	2012-04-10T00:00:00	ND	ND	ND	1482.79	ND	ND	1.6	182.2	23.1	75.1	0	0
19274	2012-04-10T01:00:00	ND	ND	ND	1696.07	ND	ND	1.7	165.9	22.4	80.1	0	0
19275	2012-04-10T02:00:00	ND	ND	ND	1510.36	ND	ND	0.8	172.3	22.1	81	0	0
19276	2012-04-10T03:00:00	ND	ND	ND	1157.15	ND	ND	1.1	140.2	21.6	85.3	0	0
19277	2012-04-10T04:00:00	ND	ND	ND	1098.56	ND	ND	0.6	178.3	21.2	87.6	0	0
19278	2012-04-10T05:00:00	ND	ND	ND	1097.07	ND	ND	0.6	151.5	21.1	87.2	0	0
19279	2012-04-10T06:00:00	ND	ND	ND	1153.23	ND	ND	0.4	170.4	20.9	89.2	0	0
19280	2012-04-10T07:00:00	ND	ND	ND	1197.64	ND	ND	0.7	206.8	21.1	84.5	28.2	0
19281	2012-04-10T08:00:00	ND	ND	ND	1435.88	ND	ND	1.4	179.4	22.3	79.9	238.5	0
19282	2012-04-10T09:00:00	ND	ND	ND	2122.88	ND	ND	1	141.8	24.3	71.3	465	0
19283	2012-04-10T10:00:00	ND	ND	ND	2160.11	ND	ND	0.9	176.6	24.6	70.1	280	0
19284	2012-04-10T11:00:00	ND	ND	ND	1773.31	ND	ND	1.6	183.2	25.9	63.6	593.1	0
19285	2012-04-10T12:00:00	ND	ND	ND	1666.15	ND	ND	1.2	166.4	26.7	55.6	624.8	0
19286	2012-04-10T13:00:00	ND	ND	ND	1762.78	ND	ND	0.6	30.2	28	50.8	512.5	0
19287	2012-04-10T14:00:00	ND	ND	ND	1481.14	ND	ND	2.9	275.9	25.6	60.8	189.6	0
19288	2012-04-10T15:00:00	ND	ND	ND	1503.77	ND	ND	3	288.3	25.8	57.7	127	0
19289	2012-04-10T16:00:00	ND	ND	ND	1596.67	ND	ND	3.2	297.6	25.3	59.1	175.2	0
19290	2012-04-10T17:00:00	ND	ND	ND	1421.98	ND	ND	2.5	319.3	25.9	53.3	153.2	0
19291	2012-04-10T18:00:00	ND	ND	ND	1367.39	ND	ND	1.4	292.7	26	53	36	0
19292	2012-04-10T19:00:00	ND	ND	ND	1505.78	ND	ND	3.1	263	24.4	61	0	0
19293	2012-04-10T20:00:00	ND	ND	ND	1920.75	ND	ND	2.4	260.8	24.3	61.6	0	0
19294	2012-04-10T21:00:00	ND	ND	ND	1440.07	ND	ND	1.8	225.1	23.9	65.5	0	0
19295	2012-04-10T22:00:00	ND	ND	ND	1278.34	ND	ND	0.8	197.1	23.5	69.3	0	0
19296	2012-04-10T23:00:00	ND	ND	ND	1231.03	ND	ND	0.5	255.5	23.3	67.1	0	0
19297	2012-04-11T00:00:00	ND	ND	ND	1583.31	ND	ND	0.8	269	23	66.5	0	0
19298	2012-04-11T01:00:00	ND	ND	ND	1433.78	ND	ND	1	11.4	22.4	74.4	0	0
19299	2012-04-11T02:00:00	ND	ND	ND	1078.83	ND	ND	0.8	8.2	21.9	79.1	0	0
19300	2012-04-11T03:00:00	ND	ND	ND	1428.45	ND	ND	0.8	2.7	21.6	80.7	0	0
19301	2012-04-11T04:00:00	ND	ND	ND	1370.37	ND	ND	0.8	359.6	21.5	79.8	0	0
19302	2012-04-11T05:00:00	ND	ND	ND	1222.72	ND	ND	0.3	69.2	21.5	80.5	0	0
19303	2012-04-11T06:00:00	ND	ND	ND	1234.05	ND	ND	0.4	17.3	21.5	81.2	0	0
19304	2012-04-11T07:00:00	ND	ND	ND	1347.26	ND	ND	0.2	ND	21.6	77.8	8.8	0
19305	2012-04-11T08:00:00	ND	ND	ND	1551.58	ND	ND	0.2	ND	22.2	79	104.2	0
19306	2012-04-11T09:00:00	ND	ND	ND	1985.98	ND	ND	1.1	110.4	22.9	76.2	203.8	0
19307	2012-04-11T10:00:00	ND	ND	ND	3059.97	ND	ND	0.7	100.9	23.9	70.5	449.3	0
19308	2012-04-11T11:00:00	ND	ND	ND	2830.62	ND	ND	0.7	101.5	25.7	63.5	560.5	0
19309	2012-04-11T12:00:00	ND	ND	ND	1745.41	ND	ND	1	141.9	26.8	58.5	582	0
19310	2012-04-11T13:00:00	ND	ND	ND	1809.47	ND	ND	0.3	184.9	27.6	54.3	640.8	0
19311	2012-04-11T14:00:00	ND	ND	ND	1872.08	ND	ND	0.6	95.6	28.7	50.6	505	0
19312	2012-04-11T15:00:00	ND	ND	ND	1484.58	ND	ND	3.1	297.6	28.8	48.8	612.5	0
19313	2012-04-11T16:00:00	ND	ND	ND	1461.87	ND	ND	3.7	281.7	27.7	49.9	199.2	0
19314	2012-04-11T17:00:00	ND	ND	ND	1444.98	ND	ND	4	293.3	26.7	52.3	145.2	0
19315	2012-04-11T18:00:00	ND	ND	ND	1359.53	ND	ND	4.3	282.8	25.5	58.1	14.3	0
19316	2012-04-11T19:00:00	ND	ND	ND	1411.46	ND	ND	3.5	195.7	23	71.5	0	0
19317	2012-04-11T20:00:00	ND	ND	ND	1251.71	ND	ND	2.2	205.4	21.9	76.6	0	0
19318	2012-04-11T21:00:00	ND	ND	ND	1587.17	ND	ND	0.4	ND	21.3	84.5	0	1.52
19319	2012-04-11T22:00:00	ND	ND	ND	1346.35	ND	ND	0.5	62.4	21.1	87.9	0	2.03
19320	2012-04-11T23:00:00	ND	ND	ND	1345.43	ND	ND	0.8	135	20.8	89.7	0	0
19321	2012-04-12T00:00:00	ND	ND	ND	2089.50	ND	ND	0.3	ND	20.7	88.9	0	0
19322	2012-04-12T01:00:00	ND	ND	ND	1716.20	ND	ND	0.7	160.6	20.7	89.1	0	0
19323	2012-04-12T02:00:00	ND	ND	ND	1264.57	ND	ND	0.8	167.4	20.5	89.4	0	0.25
19324	2012-04-12T03:00:00	ND	ND	ND	1173.44	ND	ND	0.7	153.2	20.4	91.3	0	0
19325	2012-04-12T04:00:00	ND	ND	ND	1026.41	ND	ND	0.2	ND	20.5	90.9	0	0
19326	2012-04-12T05:00:00	ND	ND	ND	1004.19	ND	ND	0.3	255.8	20.8	88.4	0	2.03
19327	2012-04-12T06:00:00	ND	ND	ND	1050.40	ND	ND	1	193.8	19.9	91.1	0	1.78
19328	2012-04-12T07:00:00	ND	ND	ND	1069.70	ND	ND	0.3	ND	19.9	91	2.9	0
19329	2012-04-12T08:00:00	ND	ND	ND	1047.18	ND	ND	0.2	ND	20.3	90.4	38.3	0.25
19330	2012-04-12T09:00:00	ND	ND	ND	2401.66	ND	ND	0.7	89.1	21	88.2	121.6	0
19331	2012-04-12T10:00:00	ND	ND	ND	3300.27	ND	ND	0.9	73.4	21.6	85.9	191.1	0
19332	2012-04-12T11:00:00	ND	ND	ND	3646.77	ND	ND	0.9	127	22.1	82.5	163	0
19333	2012-04-12T12:00:00	ND	ND	ND	2450.43	ND	ND	0.4	134.4	23.2	76.3	375.2	0
19334	2012-04-12T13:00:00	ND	ND	ND	2254.60	ND	ND	1	128	24.3	69.9	402.8	0
19335	2012-04-12T14:00:00	ND	ND	ND	1611.51	ND	ND	1.2	138.2	24.7	68.4	347.3	0
19336	2012-04-12T15:00:00	ND	ND	ND	1739.57	ND	ND	1	159.8	25	66.6	369.1	0
19337	2012-04-12T16:00:00	ND	ND	ND	1603.85	ND	ND	0.9	164.6	25.3	64.1	238.5	0
19338	2012-04-12T17:00:00	ND	ND	ND	1444.92	ND	ND	1.1	155.6	25.2	64	135.5	0
19339	2012-04-12T18:00:00	ND	ND	ND	1478.83	ND	ND	1	141	24.6	66	37.2	0
19340	2012-04-12T19:00:00	ND	ND	ND	2047.88	ND	ND	0.4	136.1	24	68.7	0	0
19341	2012-04-12T20:00:00	ND	ND	ND	2557.55	ND	ND	0.2	ND	23.7	71.5	0	0
19342	2012-04-12T21:00:00	ND	ND	ND	2840.12	ND	ND	1	255.8	23	76.6	0	0
19343	2012-04-12T22:00:00	ND	ND	ND	3004.11	ND	ND	0.9	238.6	22.7	76.9	0	0
19344	2012-04-12T23:00:00	ND	ND	ND	2432.68	ND	ND	0.8	251.4	22.5	76.2	0	0
19345	2012-04-13T00:00:00	ND	ND	ND	2022.07	ND	ND	0.8	254.5	22.2	76.9	0	0
19346	2012-04-13T01:00:00	ND	ND	ND	1883.84	ND	ND	0.5	238.8	22.1	77.4	0	0
19347	2012-04-13T02:00:00	ND	ND	ND	1452.11	ND	ND	0.6	308.7	21.8	79.3	0	0
19348	2012-04-13T03:00:00	ND	ND	ND	1201.30	ND	ND	0.8	13.7	21.5	84.1	0	0
19349	2012-04-13T04:00:00	ND	ND	ND	1415.19	ND	ND	0.3	ND	20.8	88.2	0	0
19350	2012-04-13T05:00:00	ND	ND	ND	1716.78	ND	ND	0.7	240.6	20.9	84.2	0	0
19351	2012-04-13T06:00:00	ND	ND	ND	1220.23	ND	ND	1	251.2	20.7	77.9	0	0
19352	2012-04-13T07:00:00	ND	ND	ND	1196.82	ND	ND	0.9	249.9	20.6	77.2	23	0
19353	2012-04-13T08:00:00	ND	ND	ND	1162.55	ND	ND	1.4	237.1	21.7	68.6	151.6	0
19354	2012-04-13T09:00:00	ND	ND	ND	2095.90	ND	ND	0.4	156.8	23.7	67.6	339.9	0
19355	2012-04-13T10:00:00	ND	ND	ND	2315.44	ND	ND	1.3	115.3	25	68.1	506.1	0
19356	2012-04-13T11:00:00	ND	ND	ND	2268.30	ND	ND	1.4	132.9	26.1	62.8	646.8	0
19357	2012-04-13T12:00:00	ND	ND	ND	2426.15	ND	ND	1.3	116.4	27.6	55.5	767.9	0
19358	2012-04-13T13:00:00	ND	ND	ND	1675.62	ND	ND	1.2	95.9	28.6	50.3	644.2	0
19359	2012-04-13T14:00:00	ND	ND	ND	1600.04	ND	ND	3	276.4	27.6	51.2	382.1	0
19360	2012-04-13T15:00:00	ND	ND	ND	1906.74	ND	ND	3.2	278.3	26.8	55.6	267.7	0
19361	2012-04-13T16:00:00	ND	ND	ND	1521.34	ND	ND	2.7	296.6	27.2	51.8	259.8	0
19362	2012-04-13T17:00:00	ND	ND	ND	1557.99	ND	ND	2.8	273.3	27.2	52.8	169.7	0
19363	2012-04-13T18:00:00	ND	ND	ND	1442.58	ND	ND	2.7	276.4	26.5	55.5	51.7	0
19364	2012-04-13T19:00:00	ND	ND	ND	1565.87	ND	ND	3.2	264.8	25.5	58.5	0	0
19365	2012-04-13T20:00:00	ND	ND	ND	1595.07	ND	ND	1.7	272.7	25	59.8	0	0
19366	2012-04-13T21:00:00	ND	ND	ND	1729.87	ND	ND	2.3	245.5	24.3	63	0	0
19367	2012-04-13T22:00:00	ND	ND	ND	1542.94	ND	ND	2.5	234.6	23.8	64.3	0	0
19368	2012-04-13T23:00:00	ND	ND	ND	1220.86	ND	ND	1.9	231.8	23.5	64.7	0	0
19369	2012-04-14T00:00:00	ND	ND	ND	1071.45	ND	ND	1.1	335.7	23	68.2	0	0
19370	2012-04-14T01:00:00	ND	ND	ND	1183.44	ND	ND	0.4	32	22	79.1	0	0
19371	2012-04-14T02:00:00	ND	ND	ND	1372.23	ND	ND	0.1	ND	21.9	79	0	0
19372	2012-04-14T03:00:00	ND	ND	ND	1462.46	ND	ND	0.8	178.1	21.5	81.3	0	0
19373	2012-04-14T04:00:00	ND	ND	ND	1675.59	ND	ND	0.7	169.5	21.1	82.2	0	0
19374	2012-04-14T05:00:00	ND	ND	ND	1548.94	ND	ND	0.5	223.6	21	81.2	0	0
19375	2012-04-14T06:00:00	ND	ND	ND	1130.23	ND	ND	0.4	251.2	21.2	76	0	0
19376	2012-04-14T07:00:00	ND	ND	ND	1210.17	ND	ND	0.6	346.2	21.3	77.9	11.7	0
19377	2012-04-14T08:00:00	ND	ND	ND	1108.76	ND	ND	1.2	34	21.2	82.8	102.2	0
19378	2012-04-14T09:00:00	ND	ND	ND	1775.67	ND	ND	0.9	67.6	22.3	78.3	219.7	0
19379	2012-04-14T10:00:00	ND	ND	ND	2349.92	ND	ND	1	50.1	24.2	69.1	506.7	0
19380	2012-04-14T11:00:00	ND	ND	ND	2136.53	ND	ND	1.9	39.3	24.7	67.8	292.4	0
19381	2012-04-14T12:00:00	ND	ND	ND	1613.68	ND	ND	1.1	20.9	24.8	66.8	231.5	0
19382	2012-04-14T13:00:00	ND	ND	ND	1717.26	ND	ND	0.5	46.3	25	64.9	277.1	0
19383	2012-04-14T14:00:00	ND	ND	ND	1706.95	ND	ND	0.7	111.3	26.1	59.8	414.3	0
19384	2012-04-14T15:00:00	ND	ND	ND	1805.24	ND	ND	1.1	138.7	27.5	55.7	545.5	0
19385	2012-04-14T16:00:00	ND	ND	ND	2044.74	ND	ND	1.2	251.1	26.5	57.1	132.7	0
19386	2012-04-14T17:00:00	ND	ND	ND	2014.90	ND	ND	2.1	265.2	25.8	60.8	140.7	0
19387	2012-04-14T18:00:00	ND	ND	ND	1814.92	ND	ND	1.8	264.6	25.8	62.4	10.6	0
19388	2012-04-14T19:00:00	ND	ND	ND	1711.54	ND	ND	0.4	26.1	25.8	61.7	0	0
19389	2012-04-14T20:00:00	ND	ND	ND	1768.97	ND	ND	0.9	250.8	25.2	61.3	0	0
19390	2012-04-14T21:00:00	ND	ND	ND	2223.97	ND	ND	0.8	310.4	24.2	64.6	0	0
19391	2012-04-14T22:00:00	ND	ND	ND	1976.58	ND	ND	0.7	24.1	23.4	70	0	0
19392	2012-04-14T23:00:00	ND	ND	ND	1629.42	ND	ND	1	31.9	22.3	75.2	0	0
19393	2012-04-15T00:00:00	ND	ND	ND	1702.84	ND	ND	1.1	5.6	21.9	78.1	0	0
19394	2012-04-15T01:00:00	ND	ND	ND	1847.91	ND	ND	0.6	153.6	22.4	75.7	0	0
19395	2012-04-15T02:00:00	ND	ND	ND	1589.86	ND	ND	0.9	59.2	21.2	82	0	0
19396	2012-04-15T03:00:00	ND	ND	ND	2024.49	ND	ND	0.2	67.9	21	84.2	0	3.3
19397	2012-04-15T04:00:00	ND	ND	ND	1277.16	ND	ND	0.5	125.6	20.5	86.9	0	1.52
19398	2012-04-15T05:00:00	ND	ND	ND	1241.14	ND	ND	0.5	0	20.1	90.9	0	0
19399	2012-04-15T06:00:00	ND	ND	ND	1431.00	ND	ND	0.5	67.3	20.4	90.2	0	0
19400	2012-04-15T07:00:00	ND	ND	ND	1274.55	ND	ND	0.8	49.3	19.9	92.5	12.8	0
19401	2012-04-15T08:00:00	ND	ND	ND	1576.40	ND	ND	0.9	68.3	20.3	91.4	73.7	0
19402	2012-04-15T09:00:00	ND	ND	ND	1680.03	ND	ND	0.4	106.1	21	88.8	222	0
19403	2012-04-15T10:00:00	ND	ND	ND	1876.18	ND	ND	1.2	156	22.9	78.5	388.1	0
19404	2012-04-15T11:00:00	ND	ND	ND	1717.68	ND	ND	1.1	151.6	24.2	71.7	426.9	0
19405	2012-04-15T12:00:00	ND	ND	ND	1542.42	ND	ND	0.9	148.4	25	66.9	454.4	0
19406	2012-04-15T13:00:00	ND	ND	ND	1397.64	ND	ND	0.9	136.1	25.6	62.7	389.6	0
19407	2012-04-15T14:00:00	ND	ND	ND	1434.89	ND	ND	1.1	123.7	26.7	59.1	577.9	0
19408	2012-04-15T15:00:00	ND	ND	ND	1589.96	ND	ND	0.9	69.1	28.5	49.9	636.5	0
19409	2012-04-15T16:00:00	ND	ND	ND	1599.51	ND	ND	0.9	43.1	28.1	54.3	171.9	0
19410	2012-04-15T17:00:00	ND	ND	ND	1319.58	ND	ND	1.5	316.1	27.4	56.6	113.8	0
19411	2012-04-15T18:00:00	ND	ND	ND	1397.35	ND	ND	1.3	284.1	26.9	58.1	43.1	0
19412	2012-04-15T19:00:00	ND	ND	ND	1210.56	ND	ND	1.4	285.8	26.5	57.4	0	0
19413	2012-04-15T20:00:00	ND	ND	ND	1243.48	ND	ND	2.4	273.3	25.9	59.4	0	0
19414	2012-04-15T21:00:00	ND	ND	ND	1298.45	ND	ND	2.4	263.9	25.3	62.3	0	0
19415	2012-04-15T22:00:00	ND	ND	ND	1135.29	ND	ND	1.4	256.9	24.6	64	0	0
19416	2012-04-15T23:00:00	ND	ND	ND	1144.07	ND	ND	0.7	201.4	24.1	70	0	0
19417	2012-04-16T00:00:00	ND	ND	ND	1256.36	ND	ND	0.8	240.5	23.4	73.5	0	0
19418	2012-04-16T01:00:00	ND	ND	ND	1777.55	ND	ND	1.1	271.5	23.2	69.2	0	0
19419	2012-04-16T02:00:00	ND	ND	ND	1423.36	ND	ND	0.3	14.9	22.9	76.7	0	0
19420	2012-04-16T03:00:00	ND	ND	ND	1023.78	ND	ND	0.6	38.8	22.4	80.6	0	0
19421	2012-04-16T04:00:00	ND	ND	ND	1396.80	ND	ND	0.4	173.8	21.8	83.2	0	0
19422	2012-04-16T05:00:00	ND	ND	ND	1541.30	ND	ND	0.2	58.2	21.7	84.1	0	0
19423	2012-04-16T06:00:00	ND	ND	ND	1348.18	ND	ND	1	230.1	21.8	80.3	0	0
19424	2012-04-16T07:00:00	ND	ND	ND	1133.31	ND	ND	0.4	277	21.9	79.2	49.5	0
19425	2012-04-16T08:00:00	ND	ND	ND	1156.36	ND	ND	1.1	55.2	23.2	76.4	183.2	0
19426	2012-04-16T09:00:00	ND	ND	ND	1708.03	ND	ND	1.4	103.2	23.7	75.7	392.9	0
19427	2012-04-16T10:00:00	ND	ND	ND	3113.86	ND	ND	1.6	132	25	68.1	407.6	0
19428	2012-04-16T11:00:00	ND	ND	ND	2039.18	ND	ND	1.1	180.8	24.4	73.8	185.5	0
19429	2012-04-16T12:00:00	ND	ND	ND	1634.92	ND	ND	1.9	248.1	24.6	74.9	621.6	0
19430	2012-04-16T13:00:00	ND	ND	ND	1784.75	ND	ND	1.9	211.6	25.9	65	589.2	0
19431	2012-04-16T14:00:00	ND	ND	ND	1723.60	ND	ND	1.6	203.4	27.5	56.3	803.2	0
19432	2012-04-16T15:00:00	ND	ND	ND	1420.92	ND	ND	1.1	195.8	28.7	50.1	739.8	0
19433	2012-04-16T16:00:00	ND	ND	ND	1275.81	ND	ND	0.7	137.8	29	48.3	323.3	0
19434	2012-04-16T17:00:00	ND	ND	ND	1381.57	ND	ND	1.8	283.4	26.9	57.5	37.9	0
19435	2012-04-16T18:00:00	ND	ND	ND	1567.96	ND	ND	4.2	268.9	23.6	68.2	9.3	0
19436	2012-04-16T19:00:00	ND	ND	ND	1824.36	ND	ND	2.6	268.6	24.3	65.5	0	0
19437	2012-04-16T20:00:00	ND	ND	ND	1634.37	ND	ND	1.3	256.7	24.6	65.4	0	0
19438	2012-04-16T21:00:00	ND	ND	ND	1887.71	ND	ND	0.9	169.7	24.4	67.8	0	0
19439	2012-04-16T22:00:00	ND	ND	ND	1794.98	ND	ND	1	227.9	23.4	67.1	0	0
19440	2012-04-16T23:00:00	ND	ND	ND	1743.37	ND	ND	1.2	256.1	23	68.3	0	0
19441	2012-04-17T00:00:00	ND	ND	ND	1718.26	ND	ND	1.2	246.6	22.7	69.4	0	0
19442	2012-04-17T01:00:00	ND	ND	ND	1216.34	ND	ND	1	227.2	22.6	71.5	0	0
19443	2012-04-17T02:00:00	ND	ND	ND	1113.65	ND	ND	1.5	240.9	21.6	79.8	0	0.25
19444	2012-04-17T03:00:00	ND	ND	ND	1223.14	ND	ND	1.5	245.2	20.9	83.4	0	0.51
19445	2012-04-17T04:00:00	ND	ND	ND	1050.76	ND	ND	0.7	162.7	20.4	87.6	0	5.33
19446	2012-04-17T05:00:00	ND	ND	ND	936.18	ND	ND	0.1	ND	19.9	91.4	0	2.29
19447	2012-04-17T06:00:00	ND	ND	ND	979.62	ND	ND	0.4	117.3	20.1	92.1	0	0.25
19448	2012-04-17T07:00:00	ND	ND	ND	1081.70	ND	ND	0.6	143.1	19.9	91.4	10.8	0.51
19449	2012-04-17T08:00:00	ND	ND	ND	1520.10	ND	ND	0.4	64.5	20	92.1	44.3	2.54
19450	2012-04-17T09:00:00	ND	ND	ND	1982.44	ND	ND	1	69.5	20.2	92.8	60.5	0
19451	2012-04-17T10:00:00	ND	ND	ND	2986.96	ND	ND	0.9	20.6	21.2	88.1	292.3	0.25
19452	2012-04-17T11:00:00	ND	ND	ND	2884.05	ND	ND	0.8	127.5	23.8	73.3	650.2	0
19453	2012-04-17T12:00:00	ND	ND	ND	1962.51	ND	ND	1.1	135	25.7	64.8	765.5	0
19454	2012-04-17T13:00:00	ND	ND	ND	1963.59	ND	ND	1.5	140.5	26.5	60.8	614.6	0
19455	2012-04-17T14:00:00	ND	ND	ND	2049.45	ND	ND	1.6	144.8	26.9	58.5	533.9	0
19456	2012-04-17T15:00:00	ND	ND	ND	1833.13	ND	ND	1.1	152	27.5	56.7	428.1	0
19457	2012-04-17T16:00:00	ND	ND	ND	1709.72	ND	ND	0.6	273.9	27	55.6	154	0
19458	2012-04-17T17:00:00	ND	ND	ND	1810.67	ND	ND	2.6	287.3	27.3	53.5	281	0
19459	2012-04-17T18:00:00	ND	ND	ND	1766.31	ND	ND	2.9	274.3	26.2	56.1	57.5	0
19460	2012-04-17T19:00:00	ND	ND	ND	1518.29	ND	ND	1.4	284.8	25.4	59.4	0	0
19461	2012-04-17T20:00:00	ND	ND	ND	1606.00	ND	ND	1.4	278.2	24.9	60.5	0	0
19462	2012-04-17T21:00:00	ND	ND	ND	2004.14	ND	ND	0.4	72.7	24.5	67.2	0	0
19463	2012-04-17T22:00:00	ND	ND	ND	1909.95	ND	ND	0.7	231	23.8	67.5	0	0
19464	2012-04-17T23:00:00	ND	ND	ND	2475.96	ND	ND	1.1	233.6	23.6	63	0	0
19465	2012-04-18T00:00:00	ND	ND	ND	2086.61	ND	ND	1.3	190	22.7	76.7	0	0
19466	2012-04-18T01:00:00	ND	ND	ND	1284.54	ND	ND	0.7	163.1	22.4	78.5	0	0
19467	2012-04-18T02:00:00	ND	ND	ND	1464.94	ND	ND	1	176.3	22.3	79.5	0	0
19468	2012-04-18T03:00:00	ND	ND	ND	1226.05	ND	ND	1	175.7	22.1	80.2	0	0
19469	2012-04-18T04:00:00	ND	ND	ND	1077.74	ND	ND	2.1	185	21.5	82.9	0	0
19470	2012-04-18T05:00:00	ND	ND	ND	1086.87	ND	ND	1.6	175.8	21	82.8	0	0
19471	2012-04-18T06:00:00	ND	ND	ND	972.00	ND	ND	1.1	159.1	20.4	86.4	0	0
19472	2012-04-18T07:00:00	ND	ND	ND	970.01	ND	ND	1	153.1	20.3	87.1	21.8	0
19473	2012-04-18T08:00:00	ND	ND	ND	1251.57	ND	ND	0.6	162.2	21	84.6	85.2	0
19474	2012-04-18T09:00:00	ND	ND	ND	1876.18	ND	ND	1.1	165.2	22.1	78.4	172.5	0
19475	2012-04-18T10:00:00	ND	ND	ND	2756.73	ND	ND	1.3	143.3	23.2	72.2	373.8	0
19476	2012-04-18T11:00:00	ND	ND	ND	2391.24	ND	ND	1.1	177.2	25	64.8	600	0
19477	2012-04-18T12:00:00	ND	ND	ND	1832.97	ND	ND	1.2	88.4	26.8	57.2	770.3	0
19478	2012-04-18T13:00:00	ND	ND	ND	1602.01	ND	ND	1.6	63.8	27.5	55.3	718.6	0
19479	2012-04-18T14:00:00	ND	ND	ND	1755.93	ND	ND	1.4	45.7	28.1	53.8	504.1	0
19480	2012-04-18T15:00:00	ND	ND	ND	1689.99	ND	ND	0.8	30.3	29.1	50.5	724.5	0
19481	2012-04-18T16:00:00	ND	ND	ND	1672.37	ND	ND	2.3	290.2	26.9	59.5	62.4	25.91
19482	2012-04-18T17:00:00	ND	ND	ND	1441.14	ND	ND	ND	ND	ND	ND	ND	ND
19483	2012-04-18T18:00:00	ND	ND	ND	ND	ND	ND	ND	ND	ND	ND	ND	ND
19484	2012-04-18T19:00:00	ND	ND	ND	ND	ND	ND	ND	ND	ND	ND	ND	ND
19485	2012-04-18T20:00:00	ND	ND	ND	ND	ND	ND	ND	ND	ND	ND	ND	ND
19486	2012-04-18T21:00:00	ND	ND	ND	ND	ND	ND	ND	ND	ND	ND	ND	ND
19487	2012-04-18T22:00:00	ND	ND	ND	ND	ND	ND	1	245.6	22	83.4	0	0
19488	2012-04-18T23:00:00	ND	ND	ND	ND	ND	ND	0.1	308.3	22.3	78.2	0	0.25
19489	2012-04-19T00:00:00	ND	ND	ND	1941.24	ND	ND	0.5	251.5	21.2	87	0	19.56
19490	2012-04-19T01:00:00	ND	ND	ND	2329.86	ND	ND	0.2	183.3	19.5	98.3	0	31.24
19491	2012-04-19T02:00:00	ND	ND	ND	2091.50	ND	ND	0.2	ND	19.4	99.3	0	6.6
19492	2012-04-19T03:00:00	ND	ND	ND	1360.14	ND	ND	0.6	147.6	19.6	99.1	0	5.08
19493	2012-04-19T04:00:00	ND	ND	ND	1372.31	ND	ND	0.8	120.5	19.5	99.1	0	3.81
19494	2012-04-19T05:00:00	ND	ND	ND	1383.09	ND	ND	0.7	70.8	19.2	98.7	0	2.03
19495	2012-04-19T06:00:00	ND	ND	ND	1325.51	ND	ND	0.2	ND	19.2	97.7	0	0
19496	2012-04-19T07:00:00	ND	ND	ND	1404.14	ND	ND	0.6	217.9	19.6	95.1	14.9	0.51
19497	2012-04-19T08:00:00	ND	ND	ND	1484.80	ND	ND	0.9	141.7	20.1	93	59.4	0
19498	2012-04-19T09:00:00	ND	ND	ND	1926.78	ND	ND	0.7	147.2	20.6	89.9	118.3	0.25
19499	2012-04-19T10:00:00	ND	ND	ND	4289.03	ND	ND	0.8	135.2	21.3	85.7	239.2	0
19500	2012-04-19T11:00:00	ND	ND	ND	3326.27	ND	ND	1.2	155.3	22.2	81.1	298.1	0
19501	2012-04-19T12:00:00	ND	ND	ND	2428.56	ND	ND	1.1	146.3	23	76.9	401.2	0
19502	2012-04-19T13:00:00	ND	ND	ND	2344.11	ND	ND	1.5	174.4	24.1	72.4	631.7	0
19503	2012-04-19T14:00:00	ND	ND	ND	1907.39	ND	ND	1.4	144.9	25.7	65.9	823.2	0
19504	2012-04-19T15:00:00	ND	ND	ND	1848.76	ND	ND	1	157.5	26.9	58.7	573	0
19505	2012-04-19T16:00:00	ND	ND	ND	1775.48	ND	ND	0.7	186.5	26.7	58.7	302.4	0
19506	2012-04-19T17:00:00	ND	ND	ND	1636.04	ND	ND	1	37.9	26.5	61.2	66.7	0
19507	2012-04-19T18:00:00	ND	ND	ND	1796.14	ND	ND	1.2	7.4	25.7	62.3	43.3	0
19508	2012-04-19T19:00:00	ND	ND	ND	2641.09	ND	ND	0.6	263.6	24.8	71.4	0	0
19509	2012-04-19T20:00:00	ND	ND	ND	2575.89	ND	ND	0.2	ND	24.1	71.9	0	0
19510	2012-04-19T21:00:00	ND	ND	ND	3357.91	ND	ND	0.3	ND	23.3	75.5	0	0
19511	2012-04-19T22:00:00	ND	ND	ND	3314.70	ND	ND	1.2	209.2	22.8	74.4	0	0
19512	2012-04-19T23:00:00	ND	ND	ND	3377.34	ND	ND	0.7	218.6	22.7	73.6	0	0
19513	2012-04-20T00:00:00	ND	ND	ND	2409.94	ND	ND	0.5	248.9	22.3	75.7	0	0
19514	2012-04-20T01:00:00	ND	ND	ND	2508.85	ND	ND	0.8	211	21.7	82.1	0	0
19515	2012-04-20T02:00:00	ND	ND	ND	1971.28	ND	ND	0.3	ND	21.6	81.2	0	0
19516	2012-04-20T03:00:00	ND	ND	ND	1993.26	ND	ND	0.2	ND	21.4	79.9	0	0
19517	2012-04-20T04:00:00	ND	ND	ND	1890.05	ND	ND	0.1	ND	21.2	82	0	0
19518	2012-04-20T05:00:00	ND	ND	ND	1323.27	ND	ND	0.3	ND	20.4	86.9	0	0
19519	2012-04-20T06:00:00	ND	ND	ND	1387.35	ND	ND	0.5	49	20	89.3	0	0
19520	2012-04-20T07:00:00	ND	ND	ND	1385.45	ND	ND	0.9	0.6	20.4	87.4	25.2	0
19521	2012-04-20T08:00:00	ND	ND	ND	1917.47	ND	ND	1.2	29.6	21.4	81.8	184.1	0
19522	2012-04-20T09:00:00	ND	ND	ND	2659.65	ND	ND	1.3	33.7	23.3	73.2	410	0
19523	2012-04-20T10:00:00	ND	ND	ND	2471.79	ND	ND	1.3	55.3	24.3	67.1	345.6	0
19524	2012-04-20T11:00:00	ND	ND	ND	2114.40	ND	ND	0.7	107.3	25.2	62.7	431.6	0
19525	2012-04-20T12:00:00	ND	ND	ND	1914.45	ND	ND	0.6	171.5	26.9	58.6	767.4	0
19526	2012-04-20T13:00:00	ND	ND	ND	1844.66	ND	ND	0.9	138.4	28.7	53.8	944.1	0
19527	2012-04-20T14:00:00	ND	ND	ND	1867.33	ND	ND	1.4	136.5	29.3	50.9	638.1	0
19528	2012-04-20T15:00:00	ND	ND	ND	1998.88	ND	ND	1.5	317.8	28.2	52.1	157.5	0
19529	2012-04-20T16:00:00	ND	ND	ND	1829.50	ND	ND	2	324	24.5	68.4	106.7	3.05
19530	2012-04-20T17:00:00	ND	ND	ND	1864.21	ND	ND	1.4	266.9	26.4	60.3	139.1	0
19531	2012-04-20T18:00:00	ND	ND	ND	2555.20	ND	ND	1.6	268.9	26.3	61.2	37.1	0
19532	2012-04-20T19:00:00	ND	ND	ND	2703.92	ND	ND	0.8	276.1	25.5	64.1	0	0
19533	2012-04-20T20:00:00	ND	ND	ND	2490.14	ND	ND	0.3	ND	24.8	68.8	0	0
19534	2012-04-20T21:00:00	ND	ND	ND	2976.58	ND	ND	0.4	256.3	24.3	68.4	0	0
19535	2012-04-20T22:00:00	ND	ND	ND	3360.17	ND	ND	1.1	232.5	24.3	65.3	0	0
19536	2012-04-20T23:00:00	ND	ND	ND	2845.86	ND	ND	0.7	ND	23.9	67	0	0
19537	2012-04-21T00:00:00	ND	ND	ND	1928.93	ND	ND	0.3	ND	23.5	71.5	0	0
19538	2012-04-21T01:00:00	ND	ND	ND	1595.78	ND	ND	1.9	179.6	22.4	81.7	0	0
19539	2012-04-21T02:00:00	ND	ND	ND	2464.28	ND	ND	1.6	190.3	21.2	89.9	0	2.54
19540	2012-04-21T03:00:00	ND	ND	ND	1617.33	ND	ND	1.2	138.6	20.6	94.2	0	4.83
19541	2012-04-21T04:00:00	ND	ND	ND	1252.85	ND	ND	1.1	186.3	20.4	95.8	0	5.84
19542	2012-04-21T05:00:00	ND	ND	ND	1376.07	ND	ND	1.5	161.8	19.9	96.5	0	6.86
19543	2012-04-21T06:00:00	ND	ND	ND	1475.06	ND	ND	0.7	164.6	19.5	96.9	0	4.06
19544	2012-04-21T07:00:00	ND	ND	ND	1416.82	ND	ND	1.4	149.8	19.6	96.7	0	2.29
19545	2012-04-21T08:00:00	ND	ND	ND	1496.05	ND	ND	0.9	167.2	19.6	95.8	31.1	1.78
19546	2012-04-21T09:00:00	ND	ND	ND	2092.22	ND	ND	0.3	184.5	20.4	91.8	112.9	0
19547	2012-04-21T10:00:00	ND	ND	ND	2537.83	ND	ND	0.5	165.3	21.6	82.6	198.8	0.25
19548	2012-04-21T11:00:00	ND	ND	ND	2921.94	ND	ND	1.1	133.4	21.6	87.6	218.7	0
19549	2012-04-21T12:00:00	ND	ND	ND	2321.70	ND	ND	1.1	141.6	21.6	87.1	221	0.76
19550	2012-04-21T13:00:00	ND	ND	ND	2842.67	ND	ND	0.5	76.2	21.9	85.7	179.8	0.51
19551	2012-04-21T14:00:00	ND	ND	ND	2505.45	ND	ND	1.2	62.1	22.1	86.4	260.1	0
19552	2012-04-21T15:00:00	ND	ND	ND	2575.22	ND	ND	0.7	47.2	23.8	74.3	539.4	0
19553	2012-04-21T16:00:00	ND	ND	ND	3171.96	ND	ND	0.6	322.5	25.6	61	545.3	0
19554	2012-04-21T17:00:00	ND	ND	ND	2020.33	ND	ND	0.7	344.6	26.4	57.1	316.9	0
19555	2012-04-21T18:00:00	ND	ND	ND	1726.48	ND	ND	1.1	78	25.1	63.3	78.7	0
19556	2012-04-21T19:00:00	ND	ND	ND	1764.83	ND	ND	0.7	263.2	24	70.6	0	0
19557	2012-04-21T20:00:00	ND	ND	ND	2557.55	ND	ND	1.6	261	22.6	78.9	0	0
19558	2012-04-21T21:00:00	ND	ND	ND	3045.50	ND	ND	0.8	287.4	22.4	77.6	0	0
19559	2012-04-21T22:00:00	ND	ND	ND	2725.47	ND	ND	0.4	193	22	79.5	0	0
19560	2012-04-21T23:00:00	ND	ND	ND	2789.82	ND	ND	0.6	168.5	21.2	83.2	0	0
19561	2012-04-22T00:00:00	ND	ND	ND	4139.46	ND	ND	0.4	258	21.2	81.5	0	0
19562	2012-04-22T01:00:00	ND	ND	ND	3777.54	ND	ND	0.4	ND	21.3	80.5	0	0
19563	2012-04-22T02:00:00	ND	ND	ND	2556.93	ND	ND	0.7	230.4	21.1	82.1	0	0
19564	2012-04-22T03:00:00	ND	ND	ND	2781.31	ND	ND	0.1	ND	21.2	81.3	0	0
19565	2012-04-22T04:00:00	ND	ND	ND	2284.62	ND	ND	0.4	281.2	21.1	82	0	0
19566	2012-04-22T05:00:00	ND	ND	ND	1775.06	ND	ND	0.1	ND	20.8	88	0	0
19567	2012-04-22T06:00:00	ND	ND	ND	1716.78	ND	ND	1.2	43.6	20.3	91.7	0	0
19568	2012-04-22T07:00:00	ND	ND	ND	2852.67	ND	ND	0.5	72.3	19.7	95.6	0.9	14.73
19569	2012-04-22T08:00:00	ND	ND	ND	2261.72	ND	ND	0.7	97.6	19.4	96.3	78.2	2.03
19570	2012-04-22T09:00:00	ND	ND	ND	1731.08	ND	ND	0.7	18.8	20.9	89	251.9	0.76
19571	2012-04-22T10:00:00	ND	ND	ND	1920.74	ND	ND	0.3	113.8	22.4	82.4	414	0
19572	2012-04-22T11:00:00	ND	ND	ND	1623.93	ND	ND	0.5	70.1	23.6	76.7	375.7	0
19573	2012-04-22T12:00:00	ND	ND	ND	1767.35	ND	ND	0.9	86.1	25	68.8	529.5	0
19574	2012-04-22T13:00:00	ND	ND	ND	1810.06	ND	ND	1.3	65.3	25.9	67	634.5	0
19575	2012-04-22T14:00:00	ND	ND	ND	1907.45	ND	ND	1.1	27.5	25.3	72.6	130.9	10.92
19576	2012-04-22T15:00:00	ND	ND	ND	1651.34	ND	ND	2	4	21.3	88.1	35.8	19.56
19577	2012-04-22T16:00:00	ND	ND	ND	1617.88	ND	ND	0.3	ND	20.6	86.7	37.4	4.57
19578	2012-04-22T17:00:00	ND	ND	ND	1591.46	ND	ND	0.8	217	21.1	87.3	39.3	0.51
19579	2012-04-22T18:00:00	ND	ND	ND	1876.82	ND	ND	1.3	224.9	21.5	86.3	29.5	0
19580	2012-04-22T19:00:00	ND	ND	ND	2162.41	ND	ND	1.8	247.7	21.2	78.4	0	0
19581	2012-04-22T20:00:00	ND	ND	ND	2092.35	ND	ND	1.9	257.2	20.9	77.7	0	0
19582	2012-04-22T21:00:00	ND	ND	ND	1660.87	ND	ND	1.6	267.7	20.9	75.7	0	0
19583	2012-04-22T22:00:00	ND	ND	ND	1706.07	ND	ND	1.1	231.4	20.5	79.1	0	0
19584	2012-04-22T23:00:00	ND	ND	ND	1444.23	ND	ND	1.1	237.6	20.4	78.3	0	0
19585	2012-04-23T00:00:00	ND	ND	ND	1940.03	ND	ND	1.2	267.9	20.4	77	0	0
19586	2012-04-23T01:00:00	ND	ND	ND	1782.12	ND	ND	0.3	347.8	20.2	83.3	0	0
19587	2012-04-23T02:00:00	ND	ND	ND	1273.68	ND	ND	0.3	ND	19.9	88.4	0	0
19588	2012-04-23T03:00:00	ND	ND	ND	1846.64	ND	ND	0.3	258.5	19.8	88.4	0	0
19589	2012-04-23T04:00:00	ND	ND	ND	2701.48	ND	ND	0.1	ND	19.5	89.1	0	0
19590	2012-04-23T05:00:00	ND	ND	ND	2170.21	ND	ND	0.4	58.2	19.1	92.1	0	0
19591	2012-04-23T06:00:00	ND	ND	ND	1605.78	ND	ND	0.6	20.6	18.7	96.6	0	0
19592	2012-04-23T07:00:00	ND	ND	ND	1928.79	ND	ND	0.5	9.4	18.9	96.5	39.7	0
19593	2012-04-23T08:00:00	ND	ND	ND	2322.87	ND	ND	0.5	149.6	20.3	88.7	182.6	0
19594	2012-04-23T09:00:00	ND	ND	ND	3292.41	ND	ND	0.6	148	22.1	81.7	416.7	0
19595	2012-04-23T10:00:00	ND	ND	ND	3471.44	ND	ND	0.7	109.3	24.2	69.6	600.7	0
19596	2012-04-23T11:00:00	ND	ND	ND	3359.04	ND	ND	1.2	118.4	25.8	63.2	770.3	0
19597	2012-04-23T12:00:00	ND	ND	ND	2538.59	ND	ND	1.1	83.9	27.8	53.1	877.2	0
19598	2012-04-23T13:00:00	ND	ND	ND	2278.05	ND	ND	1.4	78.9	28.7	52.2	873.1	0
19599	2012-04-23T14:00:00	ND	ND	ND	1948.52	ND	ND	1.3	61.8	29.8	51.1	662.1	0
19600	2012-04-23T15:00:00	ND	ND	ND	1850.86	ND	ND	0.8	315.9	29.9	49.9	412.7	0
19601	2012-04-23T16:00:00	ND	ND	ND	1851.47	ND	ND	3.3	279.6	30	47.5	546.2	0
19602	2012-04-23T17:00:00	ND	ND	ND	1933.62	ND	ND	3.3	276.8	29	51.2	228	0
19603	2012-04-23T18:00:00	ND	ND	ND	1602.16	ND	ND	4.4	268	26.9	57.9	48.4	0
19604	2012-04-23T19:00:00	ND	ND	ND	1752.43	ND	ND	4.7	269.5	26	60.5	0	0
19605	2012-04-23T20:00:00	ND	ND	ND	1632.22	ND	ND	3.4	275	26	59.9	0	0
19606	2012-04-23T21:00:00	ND	ND	ND	1620.73	ND	ND	2.3	261.8	25.6	62.6	0	0
19607	2012-04-23T22:00:00	ND	ND	ND	1400.46	ND	ND	1.5	210.3	24.5	68.9	0	0
19608	2012-04-23T23:00:00	ND	ND	ND	1395.30	ND	ND	0.3	291	24.4	68.6	0	0
19609	2012-04-24T00:00:00	ND	ND	ND	1532.02	ND	ND	0.7	104.3	22.5	78.2	0	0
19610	2012-04-24T01:00:00	ND	ND	ND	1613.12	ND	ND	0.6	55.4	22.1	80.2	0	0
19611	2012-04-24T02:00:00	ND	ND	ND	1531.52	ND	ND	0.1	ND	22.3	80.1	0	0
19612	2012-04-24T03:00:00	ND	ND	ND	1282.81	ND	ND	0.3	ND	22.2	80.8	0	0
19613	2012-04-24T04:00:00	ND	ND	ND	1305.07	ND	ND	0.8	147.2	21.2	85.1	0	0
19614	2012-04-24T05:00:00	ND	ND	ND	1334.58	ND	ND	0.2	ND	21.4	84	0	0
19615	2012-04-24T06:00:00	ND	ND	ND	1143.09	ND	ND	0.1	ND	21.4	84.7	0	0
19616	2012-04-24T07:00:00	ND	ND	ND	1210.99	ND	ND	0.5	206.6	21.9	79	29.4	0
19617	2012-04-24T08:00:00	ND	ND	ND	1677.86	ND	ND	0.6	63.8	22.3	81.1	109.8	0
19618	2012-04-24T09:00:00	ND	ND	ND	2145.58	ND	ND	1.3	23.7	23.8	74.9	381.8	0
19619	2012-04-24T10:00:00	ND	ND	ND	3491.44	ND	ND	1.2	58.8	25.2	66.8	520.9	0
19620	2012-04-24T11:00:00	ND	ND	ND	2567.88	ND	ND	0.8	81.9	26.9	59.7	714.7	0
19621	2012-04-24T12:00:00	ND	ND	ND	1787.01	ND	ND	0.9	215.4	28.1	54.3	686.2	0
19622	2012-04-24T13:00:00	ND	ND	ND	1736.29	ND	ND	1	145	29.3	50.3	819.1	0
19623	2012-04-24T14:00:00	ND	ND	ND	1650.24	ND	ND	1.2	151.6	29.8	48.5	664.1	0
19624	2012-04-24T15:00:00	ND	ND	ND	1955.62	ND	ND	0.7	71.2	30	48.8	346.2	0
19625	2012-04-24T16:00:00	ND	ND	ND	1700.65	ND	ND	1.5	291.6	29.1	51.3	222.9	0
19626	2012-04-24T17:00:00	ND	ND	ND	1997.55	ND	ND	4.2	272.8	27.7	53.4	122.5	0
19627	2012-04-24T18:00:00	ND	ND	ND	1838.02	ND	ND	5.1	274.8	26.4	56.4	11.1	0
19628	2012-04-24T19:00:00	ND	ND	ND	1657.42	ND	ND	3.8	276.7	25.5	60.4	0	0
19629	2012-04-24T20:00:00	ND	ND	ND	1549.16	ND	ND	3.2	271	24.7	62.6	0	0
19630	2012-04-24T21:00:00	ND	ND	ND	1602.24	ND	ND	2.3	243.1	23.8	68.4	0	4.32
19631	2012-04-24T22:00:00	ND	ND	ND	1426.24	ND	ND	2	257.4	22.6	77.3	0	0
19632	2012-04-24T23:00:00	ND	ND	ND	1375.02	ND	ND	0.8	216	22.2	83.3	0	0
19633	2012-04-25T00:00:00	ND	ND	ND	1486.64	ND	ND	1.5	250.4	21.8	80.7	0	0
19634	2012-04-25T01:00:00	ND	ND	ND	1813.29	ND	ND	2	237.7	21.6	77.6	0	0
19635	2012-04-25T02:00:00	ND	ND	ND	1540.25	ND	ND	0.9	278.5	21.4	78.2	0	0
19636	2012-04-25T03:00:00	ND	ND	ND	1358.12	ND	ND	0.3	334.7	21.3	80.7	0	0
19637	2012-04-25T04:00:00	ND	ND	ND	1402.92	ND	ND	0.7	269.4	20.7	81.3	0	0
19638	2012-04-25T05:00:00	ND	ND	ND	1648.45	ND	ND	0.5	247.4	20.3	82.2	0	0
19639	2012-04-25T06:00:00	ND	ND	ND	1510.90	ND	ND	0	43.9	20.1	83.6	0	0
19640	2012-04-25T07:00:00	ND	ND	ND	1374.66	ND	ND	0.8	4.8	20.4	86.6	44.2	0
19641	2012-04-25T08:00:00	ND	ND	ND	1669.33	ND	ND	0.2	283.2	22.1	77.2	221.9	0
19642	2012-04-25T09:00:00	ND	ND	ND	2507.15	ND	ND	1	189.2	23.7	71	459.6	0
19643	2012-04-25T10:00:00	ND	ND	ND	2680.43	ND	ND	1.4	148.4	25.1	68.8	592.9	0
19644	2012-04-25T11:00:00	ND	ND	ND	2406.58	ND	ND	1.6	121.4	26.3	63.8	644	0
19645	2012-04-25T12:00:00	ND	ND	ND	2347.23	ND	ND	0.9	117	27.1	59.3	702.4	0
19646	2012-04-25T13:00:00	ND	ND	ND	2053.55	ND	ND	1.1	75.3	28.6	54.8	643.1	0
19647	2012-04-25T14:00:00	ND	ND	ND	2005.84	ND	ND	0.7	62.4	29.6	52.3	529.4	0
19648	2012-04-25T15:00:00	ND	ND	ND	2035.76	ND	ND	0.8	124.6	29.7	52.2	351.6	0
19649	2012-04-25T16:00:00	ND	ND	ND	2176.07	ND	ND	0.6	279.5	30.3	50.1	397.5	0
19650	2012-04-25T17:00:00	ND	ND	ND	2180.39	ND	ND	4.3	280.4	28.4	51.5	298.7	0
19651	2012-04-25T18:00:00	ND	ND	ND	1946.58	ND	ND	5.4	274.4	26.6	56.9	70.9	0
19652	2012-04-25T19:00:00	ND	ND	ND	1727.64	ND	ND	6.3	272.1	25.5	60	0	0
19653	2012-04-25T20:00:00	ND	ND	ND	1663.92	ND	ND	4.2	277.3	25.5	59.4	0	0
19654	2012-04-25T21:00:00	ND	ND	ND	1526.21	ND	ND	1.1	288	25.6	59.7	0	0
19655	2012-04-25T22:00:00	ND	ND	ND	1434.89	ND	ND	3.3	254	25	62	0	0
19656	2012-04-25T23:00:00	ND	ND	ND	1878.80	ND	ND	1	167	24.7	66.4	0	0
19657	2012-04-26T00:00:00	ND	ND	ND	1396.23	ND	ND	1.2	190.1	24.2	70.7	0	0
19658	2012-04-26T01:00:00	ND	ND	ND	1805.20	ND	ND	0.5	202.4	23.9	74.1	0	0
19659	2012-04-26T02:00:00	ND	ND	ND	1563.69	ND	ND	0.9	120.5	23.3	76	0	0
19660	2012-04-26T03:00:00	ND	ND	ND	1549.14	ND	ND	0.6	70.5	22.5	77.4	0	0
19661	2012-04-26T04:00:00	ND	ND	ND	1420.00	ND	ND	1	205.2	22.4	78.4	0	0
19662	2012-04-26T05:00:00	ND	ND	ND	1374.09	ND	ND	1	209.7	22.2	81.6	0	0
19663	2012-04-26T06:00:00	ND	ND	ND	1248.33	ND	ND	0.4	228.6	21.9	81.4	0	0
19664	2012-04-26T07:00:00	ND	ND	ND	1258.40	ND	ND	0.1	ND	22.3	79.8	44.8	0
19665	2012-04-26T08:00:00	ND	ND	ND	1384.98	ND	ND	0.4	209.1	23.2	74.3	140.5	0
19666	2012-04-26T09:00:00	ND	ND	ND	2038.25	ND	ND	0.5	149.9	24.3	70.1	223.5	0
19667	2012-04-26T10:00:00	ND	ND	ND	2491.56	ND	ND	0.7	183.1	25.9	63.7	419.7	0
19668	2012-04-26T11:00:00	ND	ND	ND	2642.85	ND	ND	1.1	146	26.2	63.5	254.4	0
19669	2012-04-26T12:00:00	ND	ND	ND	2438.47	ND	ND	1	123.1	26	63.5	229.7	0
19670	2012-04-26T13:00:00	ND	ND	ND	2000.05	ND	ND	0.9	166.5	27.1	60.7	443.9	0
19671	2012-04-26T14:00:00	ND	ND	ND	2053.55	ND	ND	1.4	150	27.9	57.4	534.3	0
19672	2012-04-26T15:00:00	ND	ND	ND	1978.05	ND	ND	1.5	139.9	28.6	52.6	504.2	0
19673	2012-04-26T16:00:00	ND	ND	ND	2156.57	ND	ND	0.3	256.7	29.3	48.7	456.7	0
19674	2012-04-26T17:00:00	ND	ND	ND	2056.98	ND	ND	2.6	290.6	28.4	50.9	203.9	0
19675	2012-04-26T18:00:00	ND	ND	ND	1714.84	ND	ND	2.4	276.2	27.3	54.3	55	0
19676	2012-04-26T19:00:00	ND	ND	ND	1824.03	ND	ND	2.1	281.1	26.4	56.7	0	0
19677	2012-04-26T20:00:00	ND	ND	ND	1830.07	ND	ND	2.8	268.1	25.6	61	0	0
19678	2012-04-26T21:00:00	ND	ND	ND	2284.35	ND	ND	1.1	227.5	25.3	61.9	0	0
19679	2012-04-26T22:00:00	ND	ND	ND	2110.04	ND	ND	1.4	170.4	24.3	66.8	0	0
19680	2012-04-26T23:00:00	ND	ND	ND	1942.96	ND	ND	1	183.8	23.7	69.6	0	0
19681	2012-04-27T00:00:00	ND	ND	ND	1984.66	ND	ND	0.6	217.1	23.5	70.6	0	0
19682	2012-04-27T01:00:00	ND	ND	ND	1983.32	ND	ND	0.6	249.3	23.4	71.1	0	0
19683	2012-04-27T02:00:00	ND	ND	ND	1720.58	ND	ND	0.9	213.7	23.1	72.7	0	0
19684	2012-04-27T03:00:00	ND	ND	ND	1491.18	ND	ND	0.5	163.9	23	76.3	0	0
19685	2012-04-27T04:00:00	ND	ND	ND	1456.54	ND	ND	0.8	60.6	22.5	80	0	0
19686	2012-04-27T05:00:00	ND	ND	ND	1431.36	ND	ND	0.7	50.3	22.1	81.9	0	0
19687	2012-04-27T06:00:00	ND	ND	ND	1440.76	ND	ND	0.5	347.4	22.5	80.6	0	0.25
19688	2012-04-27T07:00:00	ND	ND	ND	1544.96	ND	ND	0.4	243.6	22.1	84.2	19.5	1.02
19689	2012-04-27T08:00:00	ND	ND	ND	1815.13	ND	ND	0.7	145.1	22.8	82.2	96.2	0
19690	2012-04-27T09:00:00	ND	ND	ND	2388.01	ND	ND	1.1	153.1	23.3	80	191.9	0.25
19691	2012-04-27T10:00:00	ND	ND	ND	3428.61	ND	ND	0.8	149.8	25.1	69.9	460	0
19692	2012-04-27T11:00:00	ND	ND	ND	3082.72	ND	ND	0.8	178.7	27	61.2	753.6	0
19693	2012-04-27T12:00:00	ND	ND	ND	2191.26	ND	ND	1.1	153.3	28.3	55.4	626.5	0
19694	2012-04-27T13:00:00	ND	ND	ND	1725.86	ND	ND	1	130.8	29.6	51.6	703.8	0
19695	2012-04-27T14:00:00	ND	ND	ND	1977.60	ND	ND	1.6	137.7	29.7	50.1	391.7	0
19696	2012-04-27T15:00:00	ND	ND	ND	2059.71	ND	ND	2.6	288.7	29.1	50.9	392	0
19697	2012-04-27T16:00:00	ND	ND	ND	2020.78	ND	ND	2.8	289.9	29.2	49.7	341.2	0
19698	2012-04-27T17:00:00	ND	ND	ND	1847.19	ND	ND	3.4	291.3	27.8	51.9	180.2	0
19699	2012-04-27T18:00:00	ND	ND	ND	1838.63	ND	ND	4.3	294.3	26.9	53	39.3	0
19700	2012-04-27T19:00:00	ND	ND	ND	2006.07	ND	ND	4.6	287.1	25.7	58.1	0	0
19701	2012-04-27T20:00:00	ND	ND	ND	1733.93	ND	ND	3.5	261.3	25.1	62	0	0
19702	2012-04-27T21:00:00	ND	ND	ND	1764.83	ND	ND	1.7	184.3	23.5	76.8	0	3.56
19703	2012-04-27T22:00:00	ND	ND	ND	1595.78	ND	ND	2.4	230.9	21.7	88.7	0	9.4
19704	2012-04-27T23:00:00	ND	ND	ND	2084.57	ND	ND	1.2	272.6	22	82.4	0	0.25
19705	2012-04-28T00:00:00	ND	ND	ND	1769.16	ND	ND	0.7	199.8	22.2	83	0	0
19706	2012-04-28T01:00:00	ND	ND	ND	1543.39	ND	ND	1	181.9	21.5	87.3	0	0
19707	2012-04-28T02:00:00	ND	ND	ND	1822.77	ND	ND	0.4	213.2	21.6	85.4	0	0
19708	2012-04-28T03:00:00	ND	ND	ND	1687.48	ND	ND	0.2	ND	21.5	88.9	0	0
19709	2012-04-28T04:00:00	ND	ND	ND	1573.69	ND	ND	0.3	120.8	21.6	88.6	0	0
19710	2012-04-28T05:00:00	ND	ND	ND	1755.43	ND	ND	0	ND	21.1	91	0	4.06
19711	2012-04-28T06:00:00	ND	ND	ND	1808.98	ND	ND	0.9	144.6	20.9	93	0	15.75
19712	2012-04-28T07:00:00	ND	ND	ND	1672.17	ND	ND	0.1	ND	20.1	98.2	1.2	3.56
19713	2012-04-28T08:00:00	ND	ND	ND	1971.85	ND	ND	0.6	47.3	20.2	98.2	10.8	13.72
19714	2012-04-28T09:00:00	ND	ND	ND	2096.51	ND	ND	0.5	15	20.5	96.8	118.1	1.02
19715	2012-04-28T10:00:00	ND	ND	ND	2798.20	ND	ND	0.4	79.2	22	87.7	211	0
19716	2012-04-28T11:00:00	ND	ND	ND	2767.14	ND	ND	0.5	108.4	24	75.3	559.4	0
19717	2012-04-28T12:00:00	ND	ND	ND	2797.32	ND	ND	0.6	126.7	25.5	69.8	453.5	0
19718	2012-04-28T13:00:00	ND	ND	ND	2329.48	ND	ND	1.4	97.1	25.5	69.9	202.2	0
19719	2012-04-28T14:00:00	ND	ND	ND	2111.45	ND	ND	1.4	293.5	23.9	72	56.9	0
19720	2012-04-28T15:00:00	ND	ND	ND	2522.45	ND	ND	1.9	276.4	21	86.8	104.5	12.95
19721	2012-04-28T16:00:00	ND	ND	ND	2034.41	ND	ND	1.6	300.6	23.8	71.5	286.3	0
19722	2012-04-28T17:00:00	ND	ND	ND	2008.15	ND	ND	2.4	308.6	24	64.6	163.1	0
19723	2012-04-28T18:00:00	ND	ND	ND	2135.10	ND	ND	1	271.8	23	72.8	14	0.25
19724	2012-04-28T19:00:00	ND	ND	ND	1854.81	ND	ND	0.4	71.9	21.9	83.5	0	0
19725	2012-04-28T20:00:00	ND	ND	ND	2550.80	ND	ND	1.4	184	21.7	86.3	0	0
19726	2012-04-28T21:00:00	ND	ND	ND	2820.97	ND	ND	1.2	191.4	21.1	88.3	0	0
19727	2012-04-28T22:00:00	ND	ND	ND	3041.35	ND	ND	0.8	220.8	21	88.9	0	0
19728	2012-04-28T23:00:00	ND	ND	ND	2226.55	ND	ND	0.1	72	21	87.1	0	0
19729	2012-04-29T00:00:00	ND	ND	ND	2384.79	ND	ND	0.3	4.6	21	89.3	0	0
19730	2012-04-29T01:00:00	ND	ND	ND	2802.97	ND	ND	0.5	53.6	20.3	93.1	0	0
19731	2012-04-29T02:00:00	ND	ND	ND	3033.08	ND	ND	0.4	47.7	20.2	92.9	0	0
19732	2012-04-29T03:00:00	ND	ND	ND	2231.77	ND	ND	0.6	350.6	20.2	92.2	0	0
19733	2012-04-29T04:00:00	ND	ND	ND	2152.87	ND	ND	0.2	ND	20.2	90.8	0	0
19734	2012-04-29T05:00:00	ND	ND	ND	2017.61	ND	ND	0.2	ND	20.3	88.9	0	0
19735	2012-04-29T06:00:00	ND	ND	ND	1860.44	ND	ND	0.1	ND	20.3	91.4	0	0
19736	2012-04-29T07:00:00	ND	ND	ND	1973.19	ND	ND	0.3	ND	20.2	93.8	25.2	0
19737	2012-04-29T08:00:00	ND	ND	ND	2344.48	ND	ND	0.7	124	20.6	91.6	115.4	0
19738	2012-04-29T09:00:00	ND	ND	ND	2099.37	ND	ND	0.9	93.7	21.4	86.9	181	0
19739	2012-04-29T10:00:00	ND	ND	ND	2274.85	ND	ND	0.9	85.7	22.5	80.6	322	0
19740	2012-04-29T11:00:00	ND	ND	ND	2283.35	ND	ND	0.6	109.7	23.8	73.3	473.4	0
19741	2012-04-29T12:00:00	ND	ND	ND	2179.30	ND	ND	0.6	186.5	25.6	63.7	616.4	0
19742	2012-04-29T13:00:00	ND	ND	ND	1905.54	ND	ND	1.2	114.3	26.3	61.5	442.4	0
19743	2012-04-29T14:00:00	ND	ND	ND	1829.46	ND	ND	0.2	76.3	26.8	61.1	521.5	0
19744	2012-04-29T15:00:00	ND	ND	ND	2086.07	ND	ND	0.7	11.1	28.2	54.5	719.7	0
19745	2012-04-29T16:00:00	ND	ND	ND	1887.39	ND	ND	1.7	54.6	28.1	54.4	377.6	0
19746	2012-04-29T17:00:00	ND	ND	ND	1689.99	ND	ND	0.8	346.8	28.3	53.5	307	0
19747	2012-04-29T18:00:00	ND	ND	ND	1864.85	ND	ND	1.4	354.4	27.4	58.1	62.6	0
19748	2012-04-29T19:00:00	ND	ND	ND	1755.35	ND	ND	1	350.6	25.7	65.9	0	0
19749	2012-04-29T20:00:00	ND	ND	ND	1745.41	ND	ND	1.6	267.5	25	67.8	0	0
19750	2012-04-29T21:00:00	ND	ND	ND	2211.02	ND	ND	2.4	266.4	24.4	68.2	0	0
19751	2012-04-29T22:00:00	ND	ND	ND	2160.84	ND	ND	2.4	263.3	24.4	67	0	0
19752	2012-04-29T23:00:00	ND	ND	ND	1692.09	ND	ND	0.6	338.7	23.6	75.2	0	0
19753	2012-04-30T00:00:00	ND	ND	ND	1607.72	ND	ND	0.3	8.3	22.7	80.5	0	0
19754	2012-04-30T01:00:00	ND	ND	ND	1932.50	ND	ND	1	215.3	22.5	81.4	0	0
19755	2012-04-30T02:00:00	ND	ND	ND	1908.47	ND	ND	0.7	242.1	22.6	76.7	0	0
19756	2012-04-30T03:00:00	ND	ND	ND	1909.12	ND	ND	0.2	264.1	22.2	79	0	0
19757	2012-04-30T04:00:00	ND	ND	ND	1656.87	ND	ND	0.5	240.8	22	76	0	0
19758	2012-04-30T05:00:00	ND	ND	ND	1576.36	ND	ND	0.5	201.8	21.9	74.7	0	0
19759	2012-04-30T06:00:00	ND	ND	ND	1530.48	ND	ND	0.5	296.4	21.6	82.2	0	0
19760	2012-04-30T07:00:00	ND	ND	ND	1438.32	ND	ND	0.7	254.1	21.5	81	48.1	0
19761	2012-04-30T08:00:00	ND	ND	ND	1709.55	ND	ND	0.4	301.9	22.6	75.5	117.9	0
19762	2012-04-30T09:00:00	ND	ND	ND	2375.04	ND	ND	0.5	43.6	24.5	70.3	387.4	0
19763	2012-04-30T10:00:00	ND	ND	ND	3099.39	ND	ND	1.5	62.8	26.1	66.2	443.6	0
19764	2012-04-30T11:00:00	ND	ND	ND	3047.07	ND	ND	0.8	89	26.4	64.4	445	0
19765	2012-04-30T12:00:00	ND	ND	ND	2647.28	ND	ND	1	156.5	27.5	59	444.6	0
19766	2012-04-30T13:00:00	ND	ND	ND	2079.39	ND	ND	0.3	333.8	28.9	53.5	586.7	0
19767	2012-04-30T14:00:00	ND	ND	ND	2007.84	ND	ND	1.8	347.2	29.6	49.1	624.2	0
19768	2012-04-30T15:00:00	ND	ND	ND	2140.46	ND	ND	2.5	293.4	30.4	44.6	770.3	0
19769	2012-04-30T16:00:00	ND	ND	ND	1819.53	ND	ND	4.5	290.7	29.6	46.8	562	0
19770	2012-04-30T17:00:00	ND	ND	ND	1733.30	ND	ND	4.3	291.1	28.3	50.8	301.4	0
19771	2012-04-30T18:00:00	ND	ND	ND	1737.44	ND	ND	3.4	247.2	26.6	56.3	40.5	0
19772	2012-04-30T19:00:00	ND	ND	ND	1808.26	ND	ND	2.1	152.1	23.8	69.4	0	9.14
19773	2012-04-30T20:00:00	ND	ND	ND	1882.64	ND	ND	1.6	87.8	20.3	97.9	0	26.92
19774	2012-04-30T21:00:00	ND	ND	ND	2548.24	ND	ND	1	28.8	19.9	96.9	0	11.94
19775	2012-04-30T22:00:00	ND	ND	ND	2409.64	ND	ND	1.8	25.4	19.9	95.3	0	6.6
19776	2012-04-30T23:00:00	ND	ND	ND	2161.92	ND	ND	1.4	15.8	20	94.1	0	1.52
19777	2012-05-01T00:00:00	ND	ND	ND	2027.49	ND	ND	0.4	44.1	20.1	93.4	0	1.78
19778	2012-05-01T01:00:00	ND	ND	ND	1847.90	ND	ND	0.4	83.9	20	94.2	0	2.03
19779	2012-05-01T02:00:00	ND	ND	ND	1903.59	ND	ND	0.8	64.6	19.8	93.8	0	1.02
19780	2012-05-01T03:00:00	ND	ND	ND	1722.19	ND	ND	0.6	43.5	19.5	94.8	0	4.83
19781	2012-05-01T04:00:00	ND	ND	ND	1473.05	ND	ND	0.1	ND	19.6	94.2	0	0.76
19782	2012-05-01T05:00:00	ND	ND	ND	1439.81	ND	ND	0.1	ND	20.1	93	0	0
19783	2012-05-01T06:00:00	ND	ND	ND	1442.27	ND	ND	0.3	ND	20.4	92.4	0	0
19784	2012-05-01T07:00:00	ND	ND	ND	1477.58	ND	ND	0.7	72.5	20.2	94.3	2.7	0
19785	2012-05-01T08:00:00	ND	ND	ND	1735.82	ND	ND	1.2	17.9	20.3	93.4	98.6	0.25
19786	2012-05-01T09:00:00	ND	ND	ND	2108.50	ND	ND	1.7	43.2	20.8	89.8	197	0.25
19787	2012-05-01T10:00:00	ND	ND	ND	2112.09	ND	ND	0.7	55.7	22	84.1	270.3	0
19788	2012-05-01T11:00:00	ND	ND	ND	1995.97	ND	ND	0.9	71.6	24.1	73.4	465.5	0
19789	2012-05-01T12:00:00	ND	ND	ND	2021.60	ND	ND	0.9	32.7	25.2	66.8	516.2	0
19790	2012-05-01T13:00:00	ND	ND	ND	1811.27	ND	ND	1.6	7.5	27	60.6	854.5	0
19791	2012-05-01T14:00:00	ND	ND	ND	1741.48	ND	ND	2	33.5	27.4	58.7	618.4	0
19792	2012-05-01T15:00:00	ND	ND	ND	1662.96	ND	ND	2.1	359.5	27.3	57.6	306	0
19793	2012-05-01T16:00:00	ND	ND	ND	1789.40	ND	ND	0.8	224.9	26.4	58.9	134.8	0
19794	2012-05-01T17:00:00	ND	ND	ND	1634.40	ND	ND	1.9	211.5	19.8	89.4	1.2	15.24
19795	2012-05-01T18:00:00	ND	ND	ND	1598.38	ND	ND	0.8	14.7	20.1	90.1	0	1.52
19796	2012-05-01T19:00:00	ND	ND	ND	1611.28	ND	ND	1.3	43.2	19.7	92	0	0
19797	2012-05-01T20:00:00	ND	ND	ND	2126.69	ND	ND	0.6	59.2	19.5	92.8	0	0
19798	2012-05-01T21:00:00	ND	ND	ND	2215.19	ND	ND	0.7	24.6	19.7	92.2	0	0
19799	2012-05-01T22:00:00	ND	ND	ND	2014.17	ND	ND	0.4	185.5	19.9	92	0	0
19800	2012-05-01T23:00:00	ND	ND	ND	2116.88	ND	ND	0.8	183.9	20.1	92.4	0	0.25
19801	2012-05-02T00:00:00	ND	ND	ND	2174.67	ND	ND	0.9	205.4	20	92.3	0	0
19802	2012-05-02T01:00:00	ND	ND	ND	2928.60	ND	ND	0.6	247.8	19.7	89	0	0
19803	2012-05-02T02:00:00	ND	ND	ND	2498.02	ND	ND	0.3	ND	19.7	89.3	0	0
19804	2012-05-02T03:00:00	ND	ND	ND	1586.58	ND	ND	0.3	ND	19.6	88.2	0	0
19805	2012-05-02T04:00:00	ND	ND	ND	1529.79	ND	ND	0.5	258.3	19.4	86.4	0	0
19806	2012-05-02T05:00:00	ND	ND	ND	1483.78	ND	ND	0.3	ND	19.4	89.1	0	0
19807	2012-05-02T06:00:00	ND	ND	ND	1270.21	ND	ND	0.5	14.1	19.4	93	0	0
19808	2012-05-02T07:00:00	ND	ND	ND	1573.71	ND	ND	0.2	ND	19.6	93	27.8	0
19809	2012-05-02T08:00:00	ND	ND	ND	2238.45	ND	ND	0.7	200.7	20	90.6	100.6	0
19810	2012-05-02T09:00:00	ND	ND	ND	2635.74	ND	ND	0.7	148.2	21.8	79.5	398.8	0
19811	2012-05-02T10:00:00	ND	ND	ND	3275.25	ND	ND	0.9	138.7	23.1	73.9	409.9	0
19812	2012-05-02T11:00:00	ND	ND	ND	3210.01	ND	ND	0.7	113.5	24.8	65.8	806.5	0
19813	2012-05-02T12:00:00	ND	ND	ND	2255.33	ND	ND	1	53.7	26.4	61	821.9	0
19814	2012-05-02T13:00:00	ND	ND	ND	1887.62	ND	ND	1	87.8	27.2	56.6	596.4	0
19815	2012-05-02T14:00:00	ND	ND	ND	1938.83	ND	ND	1.2	59.2	28.4	52.8	623.7	0
19816	2012-05-02T15:00:00	ND	ND	ND	2120.38	ND	ND	1.8	83.6	28.8	53.5	630.6	0
19817	2012-05-02T16:00:00	ND	ND	ND	2204.41	ND	ND	1.9	20.3	28.3	55	270.4	0
19818	2012-05-02T17:00:00	ND	ND	ND	2281.84	ND	ND	1.9	32.7	27.6	57.6	69	0
19819	2012-05-02T18:00:00	ND	ND	ND	2334.32	ND	ND	0.3	38.2	26.9	58.9	20.5	0
19820	2012-05-02T19:00:00	ND	ND	ND	2398.06	ND	ND	2.4	272.3	26.1	56.7	0	0
19821	2012-05-02T20:00:00	ND	ND	ND	3173.55	ND	ND	2.3	275.1	25.6	57.1	0	0
19822	2012-05-02T21:00:00	ND	ND	ND	2594.29	ND	ND	0.6	317.2	25.3	61.7	0	0
19823	2012-05-02T22:00:00	ND	ND	ND	1938.03	ND	ND	1.4	231.9	24.8	64.5	0	0
19824	2012-05-02T23:00:00	ND	ND	ND	2278.23	ND	ND	1.6	184.3	23.6	77.8	0	0
19825	2012-05-03T00:00:00	ND	ND	ND	1881.37	ND	ND	0.5	141.3	23	76	0	0
19826	2012-05-03T01:00:00	ND	ND	ND	1718.26	ND	ND	0.6	105.7	22.6	72.4	0	0
19827	2012-05-03T02:00:00	ND	ND	ND	1602.30	ND	ND	0.1	ND	22.2	74.1	0	0
19828	2012-05-03T03:00:00	ND	ND	ND	1520.69	ND	ND	1.4	40.4	21.4	80.5	0	0
19829	2012-05-03T04:00:00	ND	ND	ND	1414.71	ND	ND	1	7	21.5	82.1	0	0
19830	2012-05-03T05:00:00	ND	ND	ND	1471.80	ND	ND	0.5	44.8	21.6	82.4	0	0
19831	2012-05-03T06:00:00	ND	ND	ND	1427.00	ND	ND	0.6	112.9	21.3	85.8	0	0
19832	2012-05-03T07:00:00	ND	ND	ND	1617.88	ND	ND	0.8	155.4	21.1	87	43.2	0
19833	2012-05-03T08:00:00	ND	ND	ND	2012.49	ND	ND	1.1	182.5	22	82.9	229.4	0
19834	2012-05-03T09:00:00	ND	ND	ND	2653.73	ND	ND	1.5	166.2	23.7	75.6	406.2	0
19835	2012-05-03T10:00:00	ND	ND	ND	2726.06	ND	ND	1	148.8	25.2	66.6	627.9	0
19836	2012-05-03T11:00:00	ND	ND	ND	2246.90	ND	ND	1	161.6	26.9	59	792.5	0
19837	2012-05-03T12:00:00	ND	ND	ND	1787.01	ND	ND	1.3	185.2	27.8	55.4	670	0
19838	2012-05-03T13:00:00	ND	ND	ND	1722.99	ND	ND	0.6	138.6	29.2	51	742	0
19839	2012-05-03T14:00:00	ND	ND	ND	1951.75	ND	ND	1	139.9	30.6	47.4	923	0
19840	2012-05-03T15:00:00	ND	ND	ND	1995.80	ND	ND	1.4	95.9	30.5	48.5	604.4	0
19841	2012-05-03T16:00:00	ND	ND	ND	2123.49	ND	ND	1.3	60.8	29.1	53.1	121.6	0
19842	2012-05-03T17:00:00	ND	ND	ND	2102.08	ND	ND	2.6	307.7	28.1	55.6	110.5	0
19843	2012-05-03T18:00:00	ND	ND	ND	2558.13	ND	ND	2.6	284.6	27.4	57.4	49	0
19844	2012-05-03T19:00:00	ND	ND	ND	1974.77	ND	ND	3	275.3	26.5	58.9	0	0
19845	2012-05-03T20:00:00	ND	ND	ND	1980.36	ND	ND	2.7	269.7	26	61.7	0	0
19846	2012-05-03T21:00:00	ND	ND	ND	1954.07	ND	ND	1.8	248	25.2	67.5	0	0
19847	2012-05-03T22:00:00	ND	ND	ND	1731.03	ND	ND	1.3	299.9	23.6	76.5	0	0.25
19848	2012-05-03T23:00:00	ND	ND	ND	1664.73	ND	ND	0.5	239.2	24	74	0	0
19849	2012-05-04T00:00:00	ND	ND	ND	1689.81	ND	ND	0.5	24.5	23.2	81.5	0	0
19850	2012-05-04T01:00:00	ND	ND	ND	1685.26	ND	ND	1.1	182.8	23.2	80.1	0	0
19851	2012-05-04T02:00:00	ND	ND	ND	1856.06	ND	ND	0.7	184.7	23.1	81.9	0	0
19852	2012-05-04T03:00:00	ND	ND	ND	1650.54	ND	ND	0.3	239.9	23	80.8	0	0
19853	2012-05-04T04:00:00	ND	ND	ND	1604.47	ND	ND	0.5	267.6	22.9	80.2	0	0
19854	2012-05-04T05:00:00	ND	ND	ND	1512.92	ND	ND	0.4	44.3	22.4	84.6	0	0
19855	2012-05-04T06:00:00	ND	ND	ND	1340.02	ND	ND	0.8	7.1	22.2	87.9	0	0
19856	2012-05-04T07:00:00	ND	ND	ND	1543.39	ND	ND	0.5	326.8	22.1	87.5	36.2	0
19857	2012-05-04T08:00:00	ND	ND	ND	2019.34	ND	ND	0.2	ND	23	81.6	84	0
19858	2012-05-04T09:00:00	ND	ND	ND	2492.04	ND	ND	1.1	59.7	24	78.5	206.6	0
19859	2012-05-04T10:00:00	ND	ND	ND	3208.35	ND	ND	0.9	84.1	25.2	73.5	493.5	0
19860	2012-05-04T11:00:00	ND	ND	ND	3416.20	ND	ND	1.5	74.7	26.7	67.1	559	0
19861	2012-05-04T12:00:00	ND	ND	ND	2373.41	ND	ND	1.6	40.8	27.5	63.3	605.6	0
19862	2012-05-04T13:00:00	ND	ND	ND	2483.72	ND	ND	1.8	29.5	28	60.3	509	0
19863	2012-05-04T14:00:00	ND	ND	ND	2106.00	ND	ND	2.3	287.8	27.4	57	201	0
19864	2012-05-04T15:00:00	ND	ND	ND	1986.31	ND	ND	2.4	332.7	23.9	74.5	101.8	15.24
19865	2012-05-04T16:00:00	ND	ND	ND	1791.96	ND	ND	2.8	309	24.8	65.7	191.3	0.25
19866	2012-05-04T17:00:00	ND	ND	ND	2255.33	ND	ND	2.7	298.3	25.9	56.4	139.2	0
19867	2012-05-04T18:00:00	ND	ND	ND	1953.41	ND	ND	3.2	287	25.8	54.5	62	0
19868	2012-05-04T19:00:00	ND	ND	ND	1895.33	ND	ND	3.2	193.4	23.4	71	0	0
19869	2012-05-04T20:00:00	ND	ND	ND	1766.16	ND	ND	1.3	163.2	22	81	0	0
19870	2012-05-04T21:00:00	ND	ND	ND	2188.76	ND	ND	1.3	159.4	21.2	87.1	0	0
19871	2012-05-04T22:00:00	ND	ND	ND	2827.50	ND	ND	0.7	158.4	21.1	86.9	0	0
19872	2012-05-04T23:00:00	ND	ND	ND	2532.58	ND	ND	0.4	258.8	21.5	84	0	0
19873	2012-05-05T00:00:00	ND	ND	ND	2739.81	ND	ND	0.5	192	21.4	85.1	0	0
19874	2012-05-05T01:00:00	ND	ND	ND	2421.98	ND	ND	1	242.6	21.4	84.2	0	0
19875	2012-05-05T02:00:00	ND	ND	ND	2342.76	ND	ND	0.1	70.9	21.5	80.4	0	0
19876	2012-05-05T03:00:00	ND	ND	ND	2151.09	ND	ND	0.6	187.9	20.6	89.2	0	0
19877	2012-05-05T04:00:00	ND	ND	ND	1783.33	ND	ND	0.5	143.3	20.5	90.2	0	0
19878	2012-05-05T05:00:00	ND	ND	ND	1647.33	ND	ND	0.3	ND	20.6	88.1	0	0
19879	2012-05-05T06:00:00	ND	ND	ND	1760.76	ND	ND	0.5	108.8	20.7	87.8	0	0
19880	2012-05-05T07:00:00	ND	ND	ND	1603.29	ND	ND	0.2	ND	20.9	87.7	15.9	0
19881	2012-05-05T08:00:00	ND	ND	ND	2135.41	ND	ND	0.5	65.1	21.4	85.4	109.9	0
19882	2012-05-05T09:00:00	ND	ND	ND	2354.08	ND	ND	0.7	122.3	22.5	79.3	230.4	0
19883	2012-05-05T10:00:00	ND	ND	ND	2828.63	ND	ND	0.8	168.5	24.3	69.8	653.5	0
19884	2012-05-05T11:00:00	ND	ND	ND	3165.88	ND	ND	1	178.9	26.1	62.6	765.5	0
19885	2012-05-05T12:00:00	ND	ND	ND	2311.17	ND	ND	1.1	72.8	27.6	56.5	788.5	0
19886	2012-05-05T13:00:00	ND	ND	ND	2184.09	ND	ND	1.8	63.8	28.2	55.9	575.1	0
19887	2012-05-05T14:00:00	ND	ND	ND	2223.19	ND	ND	1.6	56.5	28.4	56.1	557.5	0
19888	2012-05-05T15:00:00	ND	ND	ND	2572.27	ND	ND	2.1	278.5	29	50	466.8	0
19889	2012-05-05T16:00:00	ND	ND	ND	2391.63	ND	ND	3.1	280.9	28.8	47.5	371.5	0
19890	2012-05-05T17:00:00	ND	ND	ND	1925.96	ND	ND	2	222.6	26.1	61.1	121	3.81
19891	2012-05-05T18:00:00	ND	ND	ND	1724.75	ND	ND	1.8	194.7	20.1	92.9	0.3	20.83
19892	2012-05-05T19:00:00	ND	ND	ND	1892.97	ND	ND	1.2	274.1	20.9	85.5	0	0.76
19893	2012-05-05T20:00:00	ND	ND	ND	1943.33	ND	ND	0.8	60	21.3	88.1	0	0
19894	2012-05-05T21:00:00	ND	ND	ND	2217.51	ND	ND	0.5	69.4	21.4	88.7	0	0
19895	2012-05-05T22:00:00	ND	ND	ND	3485.84	ND	ND	0.4	129.6	21	91.3	0	0.25
19896	2012-05-05T23:00:00	ND	ND	ND	3255.06	ND	ND	0.7	210.3	21.1	90.6	0	0.25
19897	2012-05-06T00:00:00	ND	ND	ND	3154.41	ND	ND	0.6	189.3	21.3	87.2	0	0
19898	2012-05-06T01:00:00	ND	ND	ND	2941.60	ND	ND	0.6	175.3	21.2	87.1	0	0
19899	2012-05-06T02:00:00	ND	ND	ND	2850.12	ND	ND	0.5	178.5	20.8	89.8	0	0
19900	2012-05-06T03:00:00	ND	ND	ND	2789.77	ND	ND	0.3	153.1	21.1	87.5	0	0
19901	2012-05-06T04:00:00	ND	ND	ND	2329.07	ND	ND	0.2	40.9	20.9	89.7	0	0
19902	2012-05-06T05:00:00	ND	ND	ND	2304.89	ND	ND	0.3	ND	20.5	90.4	0	0
19903	2012-05-06T06:00:00	ND	ND	ND	2346.88	ND	ND	0.5	17.6	20.4	92.3	0	0
19904	2012-05-06T07:00:00	ND	ND	ND	1962.59	ND	ND	0.4	216.6	20.5	90.6	19.1	0
19905	2012-05-06T08:00:00	ND	ND	ND	2098.65	ND	ND	0.3	ND	21.1	88.3	101.6	0
19906	2012-05-06T09:00:00	ND	ND	ND	2069.02	ND	ND	0.5	56.9	22.2	83.6	251.4	0
19907	2012-05-06T10:00:00	ND	ND	ND	2405.87	ND	ND	0.5	90.4	24.4	71.1	520	0
19908	2012-05-06T11:00:00	ND	ND	ND	2412.36	ND	ND	1	183.1	25.2	67.6	476	0
19909	2012-05-06T12:00:00	ND	ND	ND	1960.30	ND	ND	0.9	99.4	26.9	61	795.2	0
19910	2012-05-06T13:00:00	ND	ND	ND	2017.60	ND	ND	0.8	97.1	27.9	56.8	707.9	0
19911	2012-05-06T14:00:00	ND	ND	ND	1908.65	ND	ND	0.9	73.2	28.7	54.7	552.9	0
19912	2012-05-06T15:00:00	ND	ND	ND	1751.35	ND	ND	1.3	78.4	29	54.3	460.6	0
19913	2012-05-06T16:00:00	ND	ND	ND	1787.92	ND	ND	1.5	342.1	28.5	53.7	116.2	0
19914	2012-05-06T17:00:00	ND	ND	ND	1912.45	ND	ND	3.9	270.2	25.6	66	75.9	15.24
19915	2012-05-06T18:00:00	ND	ND	ND	1618.56	ND	ND	2.9	266.7	23.5	76	32	14.73
19916	2012-05-06T19:00:00	ND	ND	ND	1402.00	ND	ND	2.7	225.5	23.3	76.1	0	1.27
19917	2012-05-06T20:00:00	ND	ND	ND	1423.84	ND	ND	2.1	201.4	21.9	88.7	0	0.76
19918	2012-05-06T21:00:00	ND	ND	ND	1632.51	ND	ND	1.3	186.1	21.8	88.6	0	0.76
19919	2012-05-06T22:00:00	ND	ND	ND	2096.62	ND	ND	0.9	215.3	21.4	90.3	0	1.52
19920	2012-05-06T23:00:00	ND	ND	ND	2410.67	ND	ND	0.7	241.8	21.7	84	0	0
19921	2012-05-07T00:00:00	ND	ND	ND	2299.83	ND	ND	0.5	260.6	21.7	85.5	0	0.25
19922	2012-05-07T01:00:00	ND	ND	ND	1767.36	ND	ND	0.2	ND	21.7	88.9	0	1.27
19923	2012-05-07T02:00:00	ND	ND	ND	1880.65	ND	ND	0.8	100.9	21.1	94.6	0	0.25
19924	2012-05-07T03:00:00	ND	ND	ND	2102.94	ND	ND	0.8	137.6	20.9	94.5	0	0
19925	2012-05-07T04:00:00	ND	ND	ND	1706.07	ND	ND	0.6	122.2	20.8	93.8	0	0
19926	2012-05-07T05:00:00	ND	ND	ND	1457.00	ND	ND	0.4	104.2	20.8	93.1	0	0
19927	2012-05-07T06:00:00	ND	ND	ND	1411.83	ND	ND	0.9	71.1	20.4	95.1	0	18.54
19928	2012-05-07T07:00:00	ND	ND	ND	1511.42	ND	ND	1.4	30.8	19.6	98.8	9.1	4.06
19929	2012-05-07T08:00:00	ND	ND	ND	1732.27	ND	ND	1.2	24	20.2	96	79.5	0.76
19930	2012-05-07T09:00:00	ND	ND	ND	2310.67	ND	ND	0.8	89.6	21	91.3	131.1	0
19931	2012-05-07T10:00:00	ND	ND	ND	2882.09	ND	ND	0.8	98.9	22.2	85.9	313.9	0
19932	2012-05-07T11:00:00	ND	ND	ND	2882.50	ND	ND	1.1	111.3	23.4	79.6	394.5	6.1
19933	2012-05-07T12:00:00	ND	ND	ND	2563.78	ND	ND	0.9	159.5	24.2	73.6	385.9	0
19934	2012-05-07T13:00:00	ND	ND	ND	2604.97	ND	ND	0.9	191.7	25.5	66.5	722.8	0
19935	2012-05-07T14:00:00	ND	ND	ND	2318.01	ND	ND	0.7	102.9	27	60.3	575.4	0
19936	2012-05-07T15:00:00	ND	ND	ND	2156.66	ND	ND	0.2	63.3	27.2	59.3	369.7	0
19937	2012-05-07T16:00:00	ND	ND	ND	2123.48	ND	ND	0.9	71.4	26.9	60.8	232.3	0
19938	2012-05-07T17:00:00	ND	ND	ND	2375.00	ND	ND	1.5	68.4	26	64.9	87.8	0
19939	2012-05-07T18:00:00	ND	ND	ND	2839.15	ND	ND	2.8	8.9	22.2	88.2	0	8.64
19940	2012-05-07T19:00:00	ND	ND	ND	2825.76	ND	ND	0.8	337.6	21.7	90.7	0	0.25
19941	2012-05-07T20:00:00	ND	ND	ND	2481.10	ND	ND	0.1	292.5	22.2	87.8	0	0
19942	2012-05-07T21:00:00	ND	ND	ND	2916.55	ND	ND	0.9	219.8	22.4	80.2	0	0
19943	2012-05-07T22:00:00	ND	ND	ND	3679.38	ND	ND	0.7	266.2	22.1	82	0	0
19944	2012-05-07T23:00:00	ND	ND	ND	3040.35	ND	ND	0.6	224.3	21.7	85.7	0	0
19945	2012-05-08T00:00:00	ND	ND	ND	2288.50	ND	ND	0.9	232.1	21.2	85	0	0
19946	2012-05-08T01:00:00	ND	ND	ND	2375.10	ND	ND	0.6	230	21.1	85.6	0	0
19947	2012-05-08T02:00:00	ND	ND	ND	1786.37	ND	ND	0.3	ND	21.2	83.5	0	0
19948	2012-05-08T03:00:00	ND	ND	ND	1707.81	ND	ND	0.6	260.9	21.1	84	0	0
19949	2012-05-08T04:00:00	ND	ND	ND	1560.25	ND	ND	0.2	ND	21.1	83.5	0	0
19950	2012-05-08T05:00:00	ND	ND	ND	1469.80	ND	ND	0.4	251.6	21	84.5	0	0
19951	2012-05-08T06:00:00	ND	ND	ND	1424.09	ND	ND	0.2	ND	21.1	86.9	0	0
19952	2012-05-08T07:00:00	ND	ND	ND	1492.41	ND	ND	0.2	ND	21	88.3	46.6	0
19953	2012-05-08T08:00:00	ND	ND	ND	2656.04	ND	ND	0.1	229.4	21.8	84.5	99	0
19954	2012-05-08T09:00:00	ND	ND	ND	3127.92	ND	ND	0.7	177.6	22.7	79.1	240	0
19955	2012-05-08T10:00:00	ND	ND	ND	3637.65	ND	ND	0.5	133.6	24	72.9	448.5	0
19956	2012-05-08T11:00:00	ND	ND	ND	2911.50	ND	ND	0.2	158.5	25.5	65.3	520	0
19957	2012-05-08T12:00:00	ND	ND	ND	2168.83	ND	ND	0.8	93.7	27.5	57.4	797.3	0
19958	2012-05-08T13:00:00	ND	ND	ND	2137.15	ND	ND	1.3	48.6	28.5	54.3	841.7	0
19959	2012-05-08T14:00:00	ND	ND	ND	2167.45	ND	ND	1.3	86.5	29.2	52.2	758.8	0
19960	2012-05-08T15:00:00	ND	ND	ND	2126.01	ND	ND	1.1	68.6	30.3	48.9	674.6	0
19961	2012-05-08T16:00:00	ND	ND	ND	2215.37	ND	ND	0.7	31.3	29.6	51.2	257	0
19962	2012-05-08T17:00:00	ND	ND	ND	2233.52	ND	ND	3.2	285	28.1	56.3	133.6	0
19963	2012-05-08T18:00:00	ND	ND	ND	2315.05	ND	ND	3	277.2	27	58.5	26	0
19964	2012-05-08T19:00:00	ND	ND	ND	2168.20	ND	ND	3.3	272	26.2	61.4	0	0
19965	2012-05-08T20:00:00	ND	ND	ND	2231.43	ND	ND	2.6	276.5	25.8	62.8	0	0
19966	2012-05-08T21:00:00	ND	ND	ND	2262.91	ND	ND	2.4	280.5	25.5	63.2	0	0
19967	2012-05-08T22:00:00	ND	ND	ND	1916.37	ND	ND	0.8	314.1	25	66.9	0	0
19968	2012-05-08T23:00:00	ND	ND	ND	1695.50	ND	ND	0.3	114.3	23.7	75.9	0	0
19969	2012-05-09T00:00:00	ND	ND	ND	2075.91	ND	ND	0.4	134.7	24	75.8	0	0
19970	2012-05-09T01:00:00	ND	ND	ND	2409.12	ND	ND	0.6	ND	23.1	77.5	0	0
19971	2012-05-09T02:00:00	ND	ND	ND	2117.24	ND	ND	0.8	177.3	23.1	78.6	0	0
19972	2012-05-09T03:00:00	ND	ND	ND	1730.22	ND	ND	1.7	159.4	22.5	84.1	0	0
19973	2012-05-09T04:00:00	ND	ND	ND	1647.20	ND	ND	1.3	258	21.6	87.8	0	3.81
19974	2012-05-09T05:00:00	ND	ND	ND	1540.25	ND	ND	0.4	41.4	21.6	89.5	0	1.27
19975	2012-05-09T06:00:00	ND	ND	ND	1483.62	ND	ND	0.2	292.2	21.4	90.7	0	0.51
19976	2012-05-09T07:00:00	ND	ND	ND	1652.38	ND	ND	0.5	277.3	21.7	87.7	15.4	0
19977	2012-05-09T08:00:00	ND	ND	ND	2005.27	ND	ND	0.4	197	22.4	85.3	75.7	0
19978	2012-05-09T09:00:00	ND	ND	ND	2305.29	ND	ND	0.8	167.8	23	81.5	274.5	0
19979	2012-05-09T10:00:00	ND	ND	ND	3595.82	ND	ND	0.8	138.8	24.6	74.5	421.7	0
19980	2012-05-09T11:00:00	ND	ND	ND	3146.19	ND	ND	0.9	69.7	26	68.5	528.5	0
19981	2012-05-09T12:00:00	ND	ND	ND	2563.28	ND	ND	1.1	68.1	26.6	65.7	525.4	0
19982	2012-05-09T13:00:00	ND	ND	ND	2556.90	ND	ND	1.3	74.1	27.7	59.9	537.2	0
19983	2012-05-09T14:00:00	ND	ND	ND	2485.37	ND	ND	1.3	38.6	28.2	57.9	515	0
19984	2012-05-09T15:00:00	ND	ND	ND	2246.34	ND	ND	2.4	315.2	28	55.9	262.1	0
19985	2012-05-09T16:00:00	ND	ND	ND	2001.85	ND	ND	3.2	272.7	27.3	55.6	305.7	0
19986	2012-05-09T17:00:00	ND	ND	ND	1939.47	ND	ND	2.9	274.3	27.5	52.6	272.1	0
19987	2012-05-09T18:00:00	ND	ND	ND	2044.74	ND	ND	2.1	276.3	26.6	52	67	0
19988	2012-05-09T19:00:00	ND	ND	ND	2130.75	ND	ND	1.8	269	25.8	54.3	0	0
19989	2012-05-09T20:00:00	ND	ND	ND	2251.42	ND	ND	1.7	305.8	25.1	57.8	0	0
19990	2012-05-09T21:00:00	ND	ND	ND	2670.16	ND	ND	2.6	251.2	24.3	62.7	0	0
19991	2012-05-09T22:00:00	ND	ND	ND	2137.25	ND	ND	1.5	210.5	23.5	72	0	0
19992	2012-05-09T23:00:00	ND	ND	ND	1766.75	ND	ND	1.4	204.5	23	73.2	0	0
19993	2012-05-10T00:00:00	ND	ND	ND	2514.80	ND	ND	1.1	226.1	22.4	74.1	0	0
19994	2012-05-10T01:00:00	ND	ND	ND	2146.31	ND	ND	1.3	262.2	21.8	69.3	0	0
19995	2012-05-10T02:00:00	ND	ND	ND	1903.95	ND	ND	1.4	268.9	21.5	69.4	0	0
19996	2012-05-10T03:00:00	ND	ND	ND	1471.80	ND	ND	1.3	280.7	21.1	71.4	0	0
19997	2012-05-10T04:00:00	ND	ND	ND	1368.04	ND	ND	0.6	266.6	20.7	75.6	0	0
19998	2012-05-10T05:00:00	ND	ND	ND	1411.35	ND	ND	0.6	353.1	20.4	80.2	0	0
19999	2012-05-10T06:00:00	ND	ND	ND	1455.02	ND	ND	0.6	22.1	20.2	84.3	0	0
20000	2012-05-10T07:00:00	ND	ND	ND	1972.52	ND	ND	0.6	20.9	20.8	83.2	61.8	0
20001	2012-05-10T08:00:00	ND	ND	ND	2326.69	ND	ND	0.4	86.2	22.1	76.6	144.8	0
20002	2012-05-10T09:00:00	ND	ND	ND	2836.15	ND	ND	0.4	179	23.4	70.2	353.4	0
20003	2012-05-10T10:00:00	ND	ND	ND	3247.45	ND	ND	1.3	98.6	25.2	62.9	471.2	0
20004	2012-05-10T11:00:00	ND	ND	ND	3427.66	ND	ND	1.8	90.6	26.3	58.9	595.8	0
20005	2012-05-10T12:00:00	ND	ND	ND	2945.55	ND	ND	1.5	89.5	26.9	57.3	549.7	0
20006	2012-05-10T13:00:00	ND	ND	ND	2467.23	ND	ND	1.2	96.1	28.3	52.8	794.4	0
20007	2012-05-10T14:00:00	ND	ND	ND	2305.00	ND	ND	1.3	70.3	28.8	53.1	487.2	0
20008	2012-05-10T15:00:00	ND	ND	ND	2332.03	ND	ND	1.3	71	29	52.9	360.2	0
20009	2012-05-10T16:00:00	ND	ND	ND	2171.04	ND	ND	1.6	264	28.7	51.3	85.4	0
20010	2012-05-10T17:00:00	ND	ND	ND	2319.66	ND	ND	3.1	279.2	28	52.9	124.6	0
20011	2012-05-10T18:00:00	ND	ND	ND	2244.85	ND	ND	3.4	272.7	27.1	54.9	28.6	0
20012	2012-05-10T19:00:00	ND	ND	ND	2076.62	ND	ND	3.5	276.8	26.2	57.6	0	0
20013	2012-05-10T20:00:00	ND	ND	ND	2127.91	ND	ND	3.5	268.1	25.7	60.2	0	0
20014	2012-05-10T21:00:00	ND	ND	ND	2147.32	ND	ND	1.3	295.6	25.2	63.5	0	0
20015	2012-05-10T22:00:00	ND	ND	ND	1902.98	ND	ND	1	105.8	24.2	70.6	0	0
20016	2012-05-10T23:00:00	ND	ND	ND	2136.53	ND	ND	0.6	66.9	23.3	72.9	0	0
20017	2012-05-11T00:00:00	ND	ND	ND	3610.86	ND	ND	1.8	198.6	23.6	74.5	0	0
20018	2012-05-11T01:00:00	ND	ND	ND	2234.84	ND	ND	1.8	190.1	23.2	78.1	0	0
20019	2012-05-11T02:00:00	ND	ND	ND	1958.54	ND	ND	1.4	146.2	22.5	79.8	0	0
20020	2012-05-11T03:00:00	ND	ND	ND	1851.67	ND	ND	0.5	132.3	22	81.2	0	0
20021	2012-05-11T04:00:00	ND	ND	ND	1655.75	ND	ND	0.8	178	22.1	81.4	0	0
20022	2012-05-11T05:00:00	ND	ND	ND	1644.97	ND	ND	0.4	137	22.2	80.7	0	0
20023	2012-05-11T06:00:00	ND	ND	ND	1622.83	ND	ND	0.4	321	22.3	80.9	0	0
20024	2012-05-11T07:00:00	ND	ND	ND	1884.48	ND	ND	0.1	202.4	22.4	80.3	11.4	0
20025	2012-05-11T08:00:00	ND	ND	ND	1907.83	ND	ND	1	128.4	22.2	83.5	90.5	0
20026	2012-05-11T09:00:00	ND	ND	ND	2621.49	ND	ND	0.9	135.9	23	77	126.7	0
20027	2012-05-11T10:00:00	ND	ND	ND	4050.99	ND	ND	0.4	152.5	24.5	69.4	344.7	0
20028	2012-05-11T11:00:00	ND	ND	ND	2939.27	ND	ND	0.8	163.9	26.2	62.5	518.6	0
20029	2012-05-11T12:00:00	ND	ND	ND	2645.51	ND	ND	1.2	128	27.2	58.9	594	0
20030	2012-05-11T13:00:00	ND	ND	ND	2642.81	ND	ND	0.9	88.8	28.2	55.2	450.2	0
20031	2012-05-11T14:00:00	ND	ND	ND	2269.50	ND	ND	1.1	277.9	27.7	56.4	198.3	0
20032	2012-05-11T15:00:00	ND	ND	ND	2392.89	ND	ND	3	272.7	28.1	52.8	340.3	0
20033	2012-05-11T16:00:00	ND	ND	ND	2129.85	ND	ND	3	290.1	27.5	53.5	193.8	0
20034	2012-05-11T17:00:00	ND	ND	ND	2044.74	ND	ND	2.5	304	26.9	54.4	123.2	0
20035	2012-05-11T18:00:00	ND	ND	ND	2029.12	ND	ND	1.9	329.7	26.2	57.9	45.2	0
20036	2012-05-11T19:00:00	ND	ND	ND	2047.39	ND	ND	0.9	65.8	24.6	69.6	0	0
20037	2012-05-11T20:00:00	ND	ND	ND	2402.55	ND	ND	0.8	150	24.6	68.5	0	0
20038	2012-05-11T21:00:00	ND	ND	ND	3615.26	ND	ND	2.4	188.8	23.5	77.4	0	0
20039	2012-05-11T22:00:00	ND	ND	ND	3487.91	ND	ND	1.9	191.4	23.1	79.1	0	0
20040	2012-05-11T23:00:00	ND	ND	ND	2185.54	ND	ND	1	173.7	23.1	77	0	0
20041	2012-05-12T00:00:00	ND	ND	ND	1992.03	ND	ND	0.2	154.6	23.2	75.9	0	0
20042	2012-05-12T01:00:00	ND	ND	ND	2186.28	ND	ND	0.2	ND	22.9	78.3	0	0
20043	2012-05-12T02:00:00	ND	ND	ND	2047.56	ND	ND	0.4	90.8	22.2	83.2	0	0
20044	2012-05-12T03:00:00	ND	ND	ND	1861.14	ND	ND	0.6	151.9	21.6	86.6	0	0
20045	2012-05-12T04:00:00	ND	ND	ND	1925.31	ND	ND	0.3	313.6	21.8	81.1	0	0
20046	2012-05-12T05:00:00	ND	ND	ND	1790.62	ND	ND	0.6	46.2	21.6	86.1	0	0
20047	2012-05-12T06:00:00	ND	ND	ND	1540.25	ND	ND	0.7	16.2	21.2	88.7	0	0
20048	2012-05-12T07:00:00	ND	ND	ND	1809.60	ND	ND	0.5	57.2	21.5	86.4	28	0
20049	2012-05-12T08:00:00	ND	ND	ND	1969.94	ND	ND	0.8	66.7	21.7	88.5	145.6	0
20050	2012-05-12T09:00:00	ND	ND	ND	2685.02	ND	ND	0.4	101.1	23.3	80.2	234.2	0
20051	2012-05-12T10:00:00	ND	ND	ND	3246.36	ND	ND	0.9	98.4	24.6	72.4	431.7	0
20052	2012-05-12T11:00:00	ND	ND	ND	2837.29	ND	ND	1.3	87.8	26.2	65.2	708.9	0
20053	2012-05-12T12:00:00	ND	ND	ND	2472.97	ND	ND	1.1	107.7	27.4	59.7	480.8	0
20054	2012-05-12T13:00:00	ND	ND	ND	2298.12	ND	ND	1.1	87.8	28.2	56.2	509.5	0
20055	2012-05-12T14:00:00	ND	ND	ND	2385.29	ND	ND	1.2	60.9	29.1	53.2	545.3	0
20056	2012-05-12T15:00:00	ND	ND	ND	2555.01	ND	ND	1.8	53.9	28.8	54.6	239.3	0
20057	2012-05-12T16:00:00	ND	ND	ND	2320.43	ND	ND	0.4	283.2	28.3	54.5	94.4	0
20058	2012-05-12T17:00:00	ND	ND	ND	2351.34	ND	ND	3.2	265.5	27.7	54.2	139.6	0
20059	2012-05-12T18:00:00	ND	ND	ND	2242.61	ND	ND	2.3	274.9	27.5	54	108.4	0
20060	2012-05-12T19:00:00	ND	ND	ND	2056.29	ND	ND	4	265.3	25.9	58.5	0	0
20061	2012-05-12T20:00:00	ND	ND	ND	2079.81	ND	ND	3	265	25.3	59.7	0	0
20062	2012-05-12T21:00:00	ND	ND	ND	1926.56	ND	ND	2	289.1	25	60.9	0	0
20063	2012-05-12T22:00:00	ND	ND	ND	1981.90	ND	ND	0.6	247.7	24.6	64.9	0	0
20064	2012-05-12T23:00:00	ND	ND	ND	1944.92	ND	ND	1.9	231.1	24.4	64.6	0	0
20065	2012-05-13T00:00:00	ND	ND	ND	2172.27	ND	ND	1.7	210.2	23.9	70.8	0	0
20066	2012-05-13T01:00:00	ND	ND	ND	1563.69	ND	ND	0.9	222	23.9	70.7	0	0
20067	2012-05-13T02:00:00	ND	ND	ND	1940.34	ND	ND	1.8	185.6	23.2	75.9	0	0
20068	2012-05-13T03:00:00	ND	ND	ND	1867.45	ND	ND	0.8	158.7	22.4	80.8	0	0
20069	2012-05-13T04:00:00	ND	ND	ND	1612.57	ND	ND	0.6	138.1	22.1	82.1	0	0
20070	2012-05-13T05:00:00	ND	ND	ND	1622.28	ND	ND	0.6	163.1	21.7	86.3	0	0
20071	2012-05-13T06:00:00	ND	ND	ND	1540.77	ND	ND	0.3	ND	21.9	86.3	0	0
20072	2012-05-13T07:00:00	ND	ND	ND	1507.81	ND	ND	0.2	ND	22.1	83.7	26.1	0
20073	2012-05-13T08:00:00	ND	ND	ND	1281.94	ND	ND	0.5	71	22.4	83.8	75.2	0
20074	2012-05-13T09:00:00	ND	ND	ND	1680.71	ND	ND	0.5	68.2	22.7	82.2	85.8	0
20075	2012-05-13T10:00:00	ND	ND	ND	2000.71	ND	ND	0.6	0	23.4	77.8	205.3	0
20076	2012-05-13T11:00:00	ND	ND	ND	2062.42	ND	ND	0.6	12.8	25.6	65.2	495.6	0
20077	2012-05-13T12:00:00	ND	ND	ND	1997.37	ND	ND	1	60.7	27.1	58.2	565	0
20078	2012-05-13T13:00:00	ND	ND	ND	1684.37	ND	ND	1.4	69.2	28.2	55.3	630.8	0
20079	2012-05-13T14:00:00	ND	ND	ND	1771.60	ND	ND	1.4	25.2	28.7	53	537.2	0
20080	2012-05-13T15:00:00	ND	ND	ND	1890.53	ND	ND	1.6	45	28.8	54	576.7	0
20081	2012-05-13T16:00:00	ND	ND	ND	1624.30	ND	ND	2.1	286.5	28.6	51.2	389.1	0
20082	2012-05-13T17:00:00	ND	ND	ND	1576.85	ND	ND	3.9	282.6	27.4	52.8	245.9	0
20083	2012-05-13T18:00:00	ND	ND	ND	1478.19	ND	ND	3.1	274.7	26.2	56.1	56.8	0
20084	2012-05-13T19:00:00	ND	ND	ND	1449.28	ND	ND	3.2	280.5	25.2	57.9	0	0
20085	2012-05-13T20:00:00	ND	ND	ND	1490.29	ND	ND	2.3	289.6	25.1	57.5	0	0
20086	2012-05-13T21:00:00	ND	ND	ND	1501.25	ND	ND	2.3	241.7	24.5	64.4	0	0
20087	2012-05-13T22:00:00	ND	ND	ND	1532.54	ND	ND	1.1	194.3	23.4	74.1	0	0
20088	2012-05-13T23:00:00	ND	ND	ND	1549.66	ND	ND	1.3	132.4	22.4	79.8	0	0
20089	2012-05-14T00:00:00	ND	ND	ND	1873.76	ND	ND	1	189.4	21.6	82.3	0	0
20090	2012-05-14T01:00:00	ND	ND	ND	2049.89	ND	ND	0.1	ND	21.8	81.5	0	0
20091	2012-05-14T02:00:00	ND	ND	ND	1586.63	ND	ND	0.4	62.4	22.1	79.9	0	0
20092	2012-05-14T03:00:00	ND	ND	ND	1554.21	ND	ND	0.5	150.2	22	80.9	0	0
20093	2012-05-14T04:00:00	ND	ND	ND	1576.36	ND	ND	0.6	62.1	21.7	83	0	0
20094	2012-05-14T05:00:00	ND	ND	ND	1574.76	ND	ND	0.6	119.7	21.2	86.2	0	0
20095	2012-05-14T06:00:00	ND	ND	ND	1572.09	ND	ND	0.5	174.6	21.2	87.3	0	0
20096	2012-05-14T07:00:00	ND	ND	ND	1436.37	ND	ND	0.5	243.6	21.7	81.8	29.8	0
20097	2012-05-14T08:00:00	ND	ND	ND	1597.42	ND	ND	0.8	189.5	22.4	77.3	108.9	0
20098	2012-05-14T09:00:00	ND	ND	ND	1975.97	ND	ND	0.9	155.7	23.5	71.8	322.7	0
20099	2012-05-14T10:00:00	ND	ND	ND	2553.24	ND	ND	1.2	126.9	24.5	68.8	397.9	0
20100	2012-05-14T11:00:00	ND	ND	ND	2138.69	ND	ND	0.4	192.2	25.9	62.6	505.7	0
20101	2012-05-14T12:00:00	ND	ND	ND	1941.92	ND	ND	0.9	139.2	27.3	58	544.9	0
20102	2012-05-14T13:00:00	ND	ND	ND	1570.05	ND	ND	0.6	143.4	28.3	53.8	482	0
20103	2012-05-14T14:00:00	ND	ND	ND	1934.35	ND	ND	0.5	134	28.5	52.9	291.5	0
20104	2012-05-14T15:00:00	ND	ND	ND	2016.77	ND	ND	0.9	318.8	28.1	53.3	96.4	0
20105	2012-05-14T16:00:00	ND	ND	ND	1898.34	ND	ND	2.8	281.2	27.5	54.6	243	0
20106	2012-05-14T17:00:00	ND	ND	ND	1998.53	ND	ND	2.7	276	26.8	56.5	167.4	0
20107	2012-05-14T18:00:00	ND	ND	ND	1832.52	ND	ND	2	282.6	26.3	56.8	60.6	0
20108	2012-05-14T19:00:00	ND	ND	ND	1863.98	ND	ND	2.3	280.8	25.6	57.4	0	0
20109	2012-05-14T20:00:00	ND	ND	ND	1985.89	ND	ND	3.5	265.9	24.9	60.3	0	0
20110	2012-05-14T21:00:00	ND	ND	ND	1832.36	ND	ND	2.1	212.8	24.4	64.9	0	0
20111	2012-05-14T22:00:00	ND	ND	ND	1612.05	ND	ND	1.4	186.1	23.2	77.9	0	0
20112	2012-05-14T23:00:00	ND	ND	ND	1651.10	ND	ND	1	190.7	23.3	74.3	0	0
20113	2012-05-15T00:00:00	ND	ND	ND	1981.99	ND	ND	0.1	ND	22.8	75.8	0	0
20114	2012-05-15T01:00:00	ND	ND	ND	1978.64	ND	ND	0.5	ND	21.9	80.4	0	0
20115	2012-05-15T02:00:00	ND	ND	ND	1904.60	ND	ND	0.9	247.5	21.6	75.6	0	0
20116	2012-05-15T03:00:00	ND	ND	ND	1902.66	ND	ND	0.5	345.6	21.5	76.7	0	0
20117	2012-05-15T04:00:00	ND	ND	ND	1347.26	ND	ND	0.4	8.3	21.3	82.4	0	0
20118	2012-05-15T05:00:00	ND	ND	ND	1391.60	ND	ND	0.3	215.7	21.6	78.7	0	0
20119	2012-05-15T06:00:00	ND	ND	ND	1664.83	ND	ND	0.9	247.3	21.7	75	0	0
20120	2012-05-15T07:00:00	ND	ND	ND	1642.74	ND	ND	0.5	118.6	22	76	44.7	0
20121	2012-05-15T08:00:00	ND	ND	ND	1372.23	ND	ND	0.3	355.9	23	76.3	165	0
20122	2012-05-15T09:00:00	ND	ND	ND	2731.00	ND	ND	0.2	68.5	24.3	69.3	196.9	0
20123	2012-05-15T10:00:00	ND	ND	ND	3211.59	ND	ND	1.2	113.9	26	62.7	604.5	0
20124	2012-05-15T11:00:00	ND	ND	ND	3459.85	ND	ND	0.7	106.3	27	58.3	464.1	0
20125	2012-05-15T12:00:00	ND	ND	ND	3148.50	ND	ND	0.6	165.4	28.2	54	482.7	0
20126	2012-05-15T13:00:00	ND	ND	ND	2072.66	ND	ND	0.7	72	29.4	50.7	627.6	0
20127	2012-05-15T14:00:00	ND	ND	ND	1964.66	ND	ND	0.9	111.2	29.9	48.6	560.7	0
20128	2012-05-15T15:00:00	ND	ND	ND	2096.00	ND	ND	1.3	86.9	30.1	48.7	290.6	0
20129	2012-05-15T16:00:00	ND	ND	ND	1934.25	ND	ND	0.6	322.7	29.4	50.8	122.5	0
20130	2012-05-15T17:00:00	ND	ND	ND	2220.42	ND	ND	3.4	271.5	28.3	52.3	137.3	0
20131	2012-05-15T18:00:00	ND	ND	ND	2084.93	ND	ND	4	270.6	27.7	52.7	90.7	0
20132	2012-05-15T19:00:00	ND	ND	ND	2057.66	ND	ND	4	270.7	26.6	56.5	0	0
20133	2012-05-15T20:00:00	ND	ND	ND	1842.81	ND	ND	3.6	264.1	26.1	59	0	0
20134	2012-05-15T21:00:00	ND	ND	ND	1770.75	ND	ND	2.3	273.4	25.5	61.4	0	0
20135	2012-05-15T22:00:00	ND	ND	ND	1813.10	ND	ND	0.9	44.7	24.3	69.1	0	0
20136	2012-05-15T23:00:00	ND	ND	ND	1588.65	ND	ND	0.7	270	24.4	67.1	0	0
20137	2012-05-16T00:00:00	ND	ND	ND	2286.60	ND	ND	0.4	266.6	24	69.1	0	0
20138	2012-05-16T01:00:00	ND	ND	ND	2020.92	ND	ND	1.1	167.5	23	76.3	0	0
20139	2012-05-16T02:00:00	ND	ND	ND	1502.05	ND	ND	1.6	195.6	23.1	77.4	0	0
20140	2012-05-16T03:00:00	ND	ND	ND	1479.79	ND	ND	0.4	139.6	22.7	78.5	0	0
20141	2012-05-16T04:00:00	ND	ND	ND	1375.49	ND	ND	0.5	179.3	22.2	80.8	0	0
20142	2012-05-16T05:00:00	ND	ND	ND	1395.86	ND	ND	0.8	144.9	22.2	81.4	0	0
20143	2012-05-16T06:00:00	ND	ND	ND	1384.51	ND	ND	0.4	48	22.2	81.7	0	0
20144	2012-05-16T07:00:00	ND	ND	ND	1475.30	ND	ND	0.4	127.3	22.2	81.4	31.4	0
20145	2012-05-16T08:00:00	ND	ND	ND	1906.54	ND	ND	0.4	188	23.3	76.7	182.4	0
20146	2012-05-16T09:00:00	ND	ND	ND	2893.24	ND	ND	0.9	177.7	25.2	67	368	0
20147	2012-05-16T10:00:00	ND	ND	ND	3026.43	ND	ND	2.2	150.2	26.6	63.2	613.9	0
20148	2012-05-16T11:00:00	ND	ND	ND	2499.32	ND	ND	1.4	146.4	27.6	58.2	706.8	0
20149	2012-05-16T12:00:00	ND	ND	ND	2149.42	ND	ND	1.2	115.4	28.7	53.7	690.4	0
20150	2012-05-16T13:00:00	ND	ND	ND	1890.53	ND	ND	0.9	68.5	29.9	50.7	640.8	0
20151	2012-05-16T14:00:00	ND	ND	ND	1932.98	ND	ND	0.5	47.6	29.9	50.6	371.8	0
20152	2012-05-16T15:00:00	ND	ND	ND	2072.71	ND	ND	1.7	287.7	29.9	49.8	327.1	0
20153	2012-05-16T16:00:00	ND	ND	ND	1991.20	ND	ND	3.7	274.6	30.2	46.3	481.1	0
20154	2012-05-16T17:00:00	ND	ND	ND	1829.99	ND	ND	3.6	278.1	29.6	47.6	331.4	0
20155	2012-05-16T18:00:00	ND	ND	ND	1826.37	ND	ND	3.7	272.8	27.7	52.7	39.5	0
20156	2012-05-16T19:00:00	ND	ND	ND	1791.78	ND	ND	3.5	272.4	26.8	55	0	0
20157	2012-05-16T20:00:00	ND	ND	ND	1867.09	ND	ND	2.2	282.2	26.5	56.5	0	0
20158	2012-05-16T21:00:00	ND	ND	ND	1853.71	ND	ND	2.7	273.4	25.7	60.7	0	0
20159	2012-05-16T22:00:00	ND	ND	ND	1791.35	ND	ND	0.3	259.8	24.9	67.2	0	0
20160	2012-05-16T23:00:00	ND	ND	ND	1397.17	ND	ND	1.7	190.1	24.4	71	0	0
20161	2012-05-17T00:00:00	ND	ND	ND	2149.41	ND	ND	0.6	157.9	23.9	73.8	0	0
20162	2012-05-17T01:00:00	ND	ND	ND	1723.48	ND	ND	1.4	225.9	24	70.4	0	0
20163	2012-05-17T02:00:00	ND	ND	ND	1906.74	ND	ND	0.2	119.9	23.6	74.8	0	0
20164	2012-05-17T03:00:00	ND	ND	ND	1379.67	ND	ND	0.8	129.7	22.6	80.4	0	0
20165	2012-05-17T04:00:00	ND	ND	ND	1409.11	ND	ND	0.8	170.1	22.5	80.7	0	0
20166	2012-05-17T05:00:00	ND	ND	ND	1238.24	ND	ND	0.7	138.8	22.5	81	0	0
20167	2012-05-17T06:00:00	ND	ND	ND	1272.32	ND	ND	0.6	130.4	22.4	80.4	0	0
20168	2012-05-17T07:00:00	ND	ND	ND	1464.94	ND	ND	0.9	156	22.5	80.4	34.9	0
20169	2012-05-17T08:00:00	ND	ND	ND	1919.83	ND	ND	0.6	166.3	23.1	76.4	108.4	0
20170	2012-05-17T09:00:00	ND	ND	ND	2299.37	ND	ND	0.8	167	24.2	72.5	212.6	0
20171	2012-05-17T10:00:00	ND	ND	ND	2536.42	ND	ND	1.1	156.7	25	70	222.4	0
20172	2012-05-17T11:00:00	ND	ND	ND	2738.00	ND	ND	1.6	156.4	25.7	67.8	389.6	0
20173	2012-05-17T12:00:00	ND	ND	ND	2560.71	ND	ND	1.5	160.6	27.1	61.6	553.5	0
20174	2012-05-17T13:00:00	ND	ND	ND	2318.90	ND	ND	1.5	139.7	28.2	56.5	767.5	0
20175	2012-05-17T14:00:00	ND	ND	ND	2014.76	ND	ND	1.6	148	28.5	55	544.7	0
20176	2012-05-17T15:00:00	ND	ND	ND	1796.55	ND	ND	1.6	156	28.8	53.7	370.4	0
20177	2012-05-17T16:00:00	ND	ND	ND	1740.32	ND	ND	0.6	138.8	28.7	53.7	169.3	0
20178	2012-05-17T17:00:00	ND	ND	ND	1925.32	ND	ND	0.8	296.6	28.5	53.7	120.6	0
20179	2012-05-17T18:00:00	ND	ND	ND	2144.27	ND	ND	3	277.9	27.3	55.8	33.7	0
20180	2012-05-17T19:00:00	ND	ND	ND	2135.73	ND	ND	3	273.4	26.3	58.9	0	0
20181	2012-05-17T20:00:00	ND	ND	ND	1921.51	ND	ND	3.3	277.3	25.7	61.3	0	0
20182	2012-05-17T21:00:00	ND	ND	ND	1940.62	ND	ND	1.4	303.8	25.6	60.6	0	0
20183	2012-05-17T22:00:00	ND	ND	ND	1641.52	ND	ND	0.8	275.4	25	65.1	0	0
20184	2012-05-17T23:00:00	ND	ND	ND	1546.57	ND	ND	1.2	266	24.6	66.2	0	0
20185	2012-05-18T00:00:00	ND	ND	ND	1944.92	ND	ND	0.3	17.4	23.9	72	0	0
20186	2012-05-18T01:00:00	ND	ND	ND	1871.86	ND	ND	0.9	72.1	22.8	77.1	0	0
20187	2012-05-18T02:00:00	ND	ND	ND	2115.10	ND	ND	0.9	143.6	22.7	79.2	0	0
20188	2012-05-18T03:00:00	ND	ND	ND	1693.78	ND	ND	1.8	168	22	85.9	0	7.37
20189	2012-05-18T04:00:00	ND	ND	ND	1531.00	ND	ND	1.2	200.4	21.4	91.3	0	4.32
20190	2012-05-18T05:00:00	ND	ND	ND	1392.07	ND	ND	0.4	213.5	21.7	91.8	0	0.25
20191	2012-05-18T06:00:00	ND	ND	ND	1348.18	ND	ND	0.7	170.4	21.5	91.1	0	0
20192	2012-05-18T07:00:00	ND	ND	ND	1573.69	ND	ND	0.4	93.7	21.8	86.1	28.9	0
20193	2012-05-18T08:00:00	ND	ND	ND	2085.28	ND	ND	0.6	88.4	22.3	84.3	91	0.25
20194	2012-05-18T09:00:00	ND	ND	ND	2679.14	ND	ND	0.6	138.3	23.6	77.8	263.3	0
20195	2012-05-18T10:00:00	ND	ND	ND	3694.33	ND	ND	0.9	165.8	24.9	72.3	429.8	0
20196	2012-05-18T11:00:00	ND	ND	ND	2977.58	ND	ND	1.1	157.9	26.4	64.9	565.8	0
20197	2012-05-18T12:00:00	ND	ND	ND	2428.59	ND	ND	0.9	146	27.9	56.4	818.6	0
20198	2012-05-18T13:00:00	ND	ND	ND	2059.03	ND	ND	0.6	99.5	29.5	51.2	754.9	0
20199	2012-05-18T14:00:00	ND	ND	ND	1790.88	ND	ND	1.1	35.9	29.1	51.8	315	0
20200	2012-05-18T15:00:00	ND	ND	ND	1951.10	ND	ND	2.3	307.7	29.5	48.2	519.2	0
20201	2012-05-18T16:00:00	ND	ND	ND	2151.38	ND	ND	3.1	277.9	29	49	245.5	0
20202	2012-05-18T17:00:00	ND	ND	ND	1544.11	ND	ND	4.3	270.8	27.4	54.4	114.4	0
20203	2012-05-18T18:00:00	ND	ND	ND	1743.80	ND	ND	3.9	274.6	26.2	58.3	43	0
20204	2012-05-18T19:00:00	ND	ND	ND	1805.85	ND	ND	3.1	283.8	25.5	58.7	0	0
20205	2012-05-18T20:00:00	ND	ND	ND	1790.15	ND	ND	3	282.4	25.6	56.8	0	0
20206	2012-05-18T21:00:00	ND	ND	ND	1802.22	ND	ND	0.6	133.4	25.1	60.3	0	0
20207	2012-05-18T22:00:00	ND	ND	ND	1638.77	ND	ND	2.2	228.9	24.7	64	0	0
20208	2012-05-18T23:00:00	ND	ND	ND	2655.13	ND	ND	2.1	194.3	24.3	68.3	0	0
20209	2012-05-19T00:00:00	ND	ND	ND	1577.22	ND	ND	1.6	168.6	23.5	73.1	0	0
20210	2012-05-19T01:00:00	ND	ND	ND	1629.97	ND	ND	1.2	168	23.3	69.1	0	0
20211	2012-05-19T02:00:00	ND	ND	ND	1731.39	ND	ND	0.7	172.9	22.5	72.2	0	0
20212	2012-05-19T03:00:00	ND	ND	ND	1488.16	ND	ND	0.7	82	22.3	76	0	0
20213	2012-05-19T04:00:00	ND	ND	ND	1180.64	ND	ND	0.4	82.1	22.2	77.5	0	0
20214	2012-05-19T05:00:00	ND	ND	ND	1293.72	ND	ND	0.6	35.7	22.2	78.5	0	0
20215	2012-05-19T06:00:00	ND	ND	ND	1407.21	ND	ND	0.7	70.1	21.8	80.7	0	0
20216	2012-05-19T07:00:00	ND	ND	ND	1393.97	ND	ND	0.3	112	21.9	79.6	23.2	0
20217	2012-05-19T08:00:00	ND	ND	ND	1655.19	ND	ND	0.4	77.6	22.7	76.9	120.6	0
20218	2012-05-19T09:00:00	ND	ND	ND	2080.28	ND	ND	0.8	109.4	23.5	73.9	173.4	0
20219	2012-05-19T10:00:00	ND	ND	ND	2519.05	ND	ND	1	71.7	24.8	68.3	507.9	0
20220	2012-05-19T11:00:00	ND	ND	ND	2736.16	ND	ND	1.3	63.3	25.9	63	481.2	0
20221	2012-05-19T12:00:00	ND	ND	ND	2171.74	ND	ND	2.4	20.9	25.5	66.4	173.7	0
20222	2012-05-19T13:00:00	ND	ND	ND	1859.00	ND	ND	2.2	9.9	25.6	66.2	276.9	0
20223	2012-05-19T14:00:00	ND	ND	ND	1790.75	ND	ND	3.2	31.8	24.9	69.8	319.5	0
20224	2012-05-19T15:00:00	ND	ND	ND	1935.43	ND	ND	2.9	42.6	26.5	60.9	525	0
20225	2012-05-19T16:00:00	ND	ND	ND	2164.58	ND	ND	0.5	6.2	26.3	57.6	187.1	0
20226	2012-05-19T17:00:00	ND	ND	ND	1806.45	ND	ND	2.6	256.8	25.8	57.8	161.3	0
20227	2012-05-19T18:00:00	ND	ND	ND	1791.95	ND	ND	2.5	168.9	24.1	72.2	35.1	0
20228	2012-05-19T19:00:00	ND	ND	ND	1541.90	ND	ND	2.6	161.7	21.8	80.4	0	0
20229	2012-05-19T20:00:00	ND	ND	ND	2028.62	ND	ND	2.8	191.5	21.2	81.6	0	0
20230	2012-05-19T21:00:00	ND	ND	ND	1956.63	ND	ND	2.3	193.3	20.8	84.3	0	0
20231	2012-05-19T22:00:00	ND	ND	ND	1569.95	ND	ND	1.5	196.7	20.4	88.3	0	2.54
20232	2012-05-19T23:00:00	ND	ND	ND	1511.42	ND	ND	1	125.7	20.3	91.3	0	0
20233	2012-05-20T00:00:00	ND	ND	ND	1589.83	ND	ND	0.1	176.9	20.3	88.2	0	0
20234	2012-05-20T01:00:00	ND	ND	ND	2367.83	ND	ND	0.2	ND	20.5	87.7	0	0
20235	2012-05-20T02:00:00	ND	ND	ND	1771.44	ND	ND	0.8	159.8	20.2	90.4	0	0.25
20236	2012-05-20T03:00:00	ND	ND	ND	1825.99	ND	ND	0.9	161.4	19.7	93.6	0	0
20237	2012-05-20T04:00:00	ND	ND	ND	1834.13	ND	ND	1	141.2	19.6	93.1	0	0
20238	2012-05-20T05:00:00	ND	ND	ND	1507.30	ND	ND	0.3	122.2	19.7	92.3	0	0
20239	2012-05-20T06:00:00	ND	ND	ND	1530.32	ND	ND	0.2	ND	20.1	90.9	0	0
20240	2012-05-20T07:00:00	ND	ND	ND	1476.07	ND	ND	0.3	228	20.5	87.4	9.2	0
20241	2012-05-20T08:00:00	ND	ND	ND	1500.65	ND	ND	0.7	202.4	20.8	86.1	90.4	0
20242	2012-05-20T09:00:00	ND	ND	ND	1468.30	ND	ND	0.2	102.1	22.8	74.6	403.1	0
20243	2012-05-20T10:00:00	ND	ND	ND	1751.21	ND	ND	1	107.5	24.4	68.5	504.4	0
20244	2012-05-20T11:00:00	ND	ND	ND	1714.95	ND	ND	1	161.6	24.4	68.5	259.4	0
20245	2012-05-20T12:00:00	ND	ND	ND	1829.28	ND	ND	0.4	93.1	25.4	64	462.5	0
20246	2012-05-20T13:00:00	ND	ND	ND	1651.89	ND	ND	0.4	143.8	27.1	56.7	447.4	0
20247	2012-05-20T14:00:00	ND	ND	ND	2168.92	ND	ND	0.8	96.4	28	53.2	409.9	0
20248	2012-05-20T15:00:00	ND	ND	ND	1631.57	ND	ND	1.4	46.5	28.7	51.4	412.6	0
20249	2012-05-20T16:00:00	ND	ND	ND	1681.76	ND	ND	1.5	308.1	28.3	51.8	333.5	0
20250	2012-05-20T17:00:00	ND	ND	ND	1667.94	ND	ND	3.2	270.4	27.7	53.4	243.5	0
20251	2012-05-20T18:00:00	ND	ND	ND	1387.18	ND	ND	2.9	277.4	25.9	58.2	17.9	0
20252	2012-05-20T19:00:00	ND	ND	ND	1229.50	ND	ND	2.7	274.9	25.1	60.4	0	0
20253	2012-05-20T20:00:00	ND	ND	ND	1134.53	ND	ND	2.7	274.2	24.7	60.8	0	0
20254	2012-05-20T21:00:00	ND	ND	ND	1281.79	ND	ND	1.4	294	24.6	60.8	0	0
20255	2012-05-20T22:00:00	ND	ND	ND	1247.04	ND	ND	1	100.2	23.3	70.4	0	0
20256	2012-05-20T23:00:00	ND	ND	ND	1207.42	ND	ND	1.4	188.6	22.9	75	0	0
20257	2012-05-21T00:00:00	ND	ND	ND	2240.94	ND	ND	1.7	199	23	77	0	0
20258	2012-05-21T01:00:00	ND	ND	ND	1957.22	ND	ND	0.8	357.1	22.4	76.3	0	0
20259	2012-05-21T02:00:00	ND	ND	ND	1567.14	ND	ND	0.3	159.1	21.9	78.4	0	0
20260	2012-05-21T03:00:00	ND	ND	ND	1655.19	ND	ND	1	149.5	21.2	82.4	0	0
20261	2012-05-21T04:00:00	ND	ND	ND	1685.19	ND	ND	0.2	ND	21.4	79.2	0	0
20262	2012-05-21T05:00:00	ND	ND	ND	1335.49	ND	ND	0.2	223.3	21.5	78.2	0	0
20263	2012-05-21T06:00:00	ND	ND	ND	1301.98	ND	ND	0.3	14.9	21.5	80	0	0
20264	2012-05-21T07:00:00	ND	ND	ND	1335.94	ND	ND	0.2	ND	21.4	81.8	58.9	0
20265	2012-05-21T08:00:00	ND	ND	ND	1516.57	ND	ND	0.4	137.4	22.9	74.9	185.6	0
20266	2012-05-21T09:00:00	ND	ND	ND	2115.81	ND	ND	1.1	126.3	23.6	74.8	311.9	0
20267	2012-05-21T10:00:00	ND	ND	ND	1687.53	ND	ND	1	108.9	25.1	66.4	375.3	0
20268	2012-05-21T11:00:00	ND	ND	ND	1764.83	ND	ND	0.9	163.8	25.7	63.2	311.5	0
20269	2012-05-21T12:00:00	ND	ND	ND	1527.24	ND	ND	0.2	185.9	26.7	59.3	375.6	0
20270	2012-05-21T13:00:00	ND	ND	ND	1428.66	ND	ND	0.4	78.2	27.8	55.9	631.9	0
20271	2012-05-21T14:00:00	ND	ND	ND	1410.77	ND	ND	1	95.5	28.3	54	385.2	0
20272	2012-05-21T15:00:00	ND	ND	ND	1459.45	ND	ND	0.9	47.4	28.4	53.8	228	0
20273	2012-05-21T16:00:00	ND	ND	ND	1622.15	ND	ND	2.1	279.8	27.6	53.1	116.7	0
20274	2012-05-21T17:00:00	ND	ND	ND	1560.06	ND	ND	2.6	277.9	27.3	53	154.4	0
20275	2012-05-21T18:00:00	ND	ND	ND	1304.53	ND	ND	3.4	272.3	26.5	55.4	59.4	0
20276	2012-05-21T19:00:00	ND	ND	ND	1278.02	ND	ND	3.6	267.8	25.7	58.6	0	0
20277	2012-05-21T20:00:00	ND	ND	ND	1263.13	ND	ND	3.5	267.8	25	61.3	0	0
20278	2012-05-21T21:00:00	ND	ND	ND	1248.71	ND	ND	2.9	268.7	24.8	61.6	0	0
20279	2012-05-21T22:00:00	ND	ND	ND	1202.08	ND	ND	0.4	70.8	24.4	67.1	0	0
20280	2012-05-21T23:00:00	ND	ND	ND	1337.66	ND	ND	1	225.3	24.5	64.2	0	0
20281	2012-05-22T00:00:00	ND	ND	ND	1909.95	ND	ND	2	250.7	24.6	62.5	0	0
20282	2012-05-22T01:00:00	ND	ND	ND	1452.97	ND	ND	0.3	234.5	23.5	71.8	0	7.11
20283	2012-05-22T02:00:00	ND	ND	ND	1071.45	ND	ND	0.9	251.7	21.9	82.9	0	1.52
20284	2012-05-22T03:00:00	ND	ND	ND	1326.42	ND	ND	0.9	258.1	21.6	83.7	0	0
20285	2012-05-22T04:00:00	ND	ND	ND	1143.86	ND	ND	0.3	ND	21.7	85.9	0	0
20286	2012-05-22T05:00:00	ND	ND	ND	1064.95	ND	ND	0.5	38	21.7	85.6	0	0
20287	2012-05-22T06:00:00	ND	ND	ND	1280.20	ND	ND	0.4	140.8	21.5	87	0	0
20288	2012-05-22T07:00:00	ND	ND	ND	1403.87	ND	ND	0	ND	21.6	87.1	21.9	0
20289	2012-05-22T08:00:00	ND	ND	ND	1630.85	ND	ND	0.4	48.7	21.9	85.7	31.5	0
20290	2012-05-22T09:00:00	ND	ND	ND	1949.95	ND	ND	0.4	217.9	22.3	83.2	99.5	0
20291	2012-05-22T10:00:00	ND	ND	ND	3133.23	ND	ND	0.1	214.5	23.5	79.8	240.5	0
20292	2012-05-22T11:00:00	ND	ND	ND	2758.41	ND	ND	0.8	118.4	24.8	71.3	358.7	0
20293	2012-05-22T12:00:00	ND	ND	ND	3285.69	ND	ND	0.4	8.3	26.2	64.8	347.4	0
20294	2012-05-22T13:00:00	ND	ND	ND	2714.52	ND	ND	0.9	67.6	26.8	62	400	0
20295	2012-05-22T14:00:00	ND	ND	ND	2097.60	ND	ND	0.7	34.6	28.3	54.8	488.7	0
20296	2012-05-22T15:00:00	ND	ND	ND	2420.83	ND	ND	1.5	63.3	28.8	52.8	410.3	0
20297	2012-05-22T16:00:00	ND	ND	ND	1821.54	ND	ND	1.9	38.5	28.8	52.4	186.3	0
20298	2012-05-22T17:00:00	ND	ND	ND	2053.58	ND	ND	2.3	50	27.9	59	155	0
20299	2012-05-22T18:00:00	ND	ND	ND	2255.67	ND	ND	1.9	56.9	27.7	60.3	127.8	0
20300	2012-05-22T19:00:00	ND	ND	ND	2323.53	ND	ND	0.7	68	26.3	64.8	0	0
20301	2012-05-22T20:00:00	ND	ND	ND	2531.33	ND	ND	0.3	269.4	25.7	62.3	0	0
20302	2012-05-22T21:00:00	ND	ND	ND	2882.23	ND	ND	0.3	277.6	25.2	63.3	0	0
20303	2012-05-22T22:00:00	ND	ND	ND	2223.97	ND	ND	0.6	225.7	24.4	69.8	0	0
20304	2012-05-22T23:00:00	ND	ND	ND	2423.80	ND	ND	1.5	196.4	23.8	74.9	0	0
20305	2012-05-23T00:00:00	ND	ND	ND	2213.53	ND	ND	0.9	177.6	23.4	76.4	0	0
20306	2012-05-23T01:00:00	ND	ND	ND	1709.18	ND	ND	1.5	211.1	23	77.1	0	0
20307	2012-05-23T02:00:00	ND	ND	ND	1729.64	ND	ND	0.8	155.4	22.5	77.8	0	0
20308	2012-05-23T03:00:00	ND	ND	ND	1420.00	ND	ND	0.6	115.5	22.2	78.2	0	0
20309	2012-05-23T04:00:00	ND	ND	ND	1373.16	ND	ND	0.6	89.9	22.1	79.2	0	0
20310	2012-05-23T05:00:00	ND	ND	ND	1270.59	ND	ND	0.6	55.6	21.9	80.7	0	0
20311	2012-05-23T06:00:00	ND	ND	ND	1337.75	ND	ND	0.8	98.9	21.7	82.3	0	0
20312	2012-05-23T07:00:00	ND	ND	ND	1404.82	ND	ND	0.5	160.2	21.3	83	26.1	0
20313	2012-05-23T08:00:00	ND	ND	ND	1900.72	ND	ND	0.4	195.8	22.5	77.4	170.9	0
20314	2012-05-23T09:00:00	ND	ND	ND	2192.47	ND	ND	0.5	209.5	24.5	67.9	361.6	0
20315	2012-05-23T10:00:00	ND	ND	ND	2493.23	ND	ND	1.2	105.2	26.4	62	663.6	0
20316	2012-05-23T11:00:00	ND	ND	ND	2301.98	ND	ND	1.4	140.9	26.7	60.9	461	0
20317	2012-05-23T12:00:00	ND	ND	ND	2315.81	ND	ND	0.8	137.7	27.9	55.8	562.2	0
20318	2012-05-23T13:00:00	ND	ND	ND	ND	ND	ND	0.5	139.3	29	51.3	533.7	0
20319	2012-05-23T14:00:00	ND	ND	ND	ND	ND	ND	0.3	87.6	30.1	47.3	600.8	0
20320	2012-05-23T15:00:00	ND	ND	ND	1887.65	ND	ND	0.6	119.8	30.7	45.8	572.9	0
20321	2012-05-23T16:00:00	ND	ND	ND	1412.70	ND	ND	0.4	90.6	31.7	43.5	460.7	0
20322	2012-05-23T17:00:00	ND	ND	ND	1850.76	ND	ND	0.2	90.7	31	46.3	226.1	0
20323	2012-05-23T18:00:00	ND	ND	ND	1893.25	ND	ND	3.4	271.7	28.8	52.4	51.3	0
20324	2012-05-23T19:00:00	ND	ND	ND	2227.61	ND	ND	3.2	269.9	27.5	55.7	0	0
20325	2012-05-23T20:00:00	ND	ND	ND	1732.83	ND	ND	3.3	264.8	26.7	59.1	0	0
20326	2012-05-23T21:00:00	ND	ND	ND	1624.52	ND	ND	3.5	269.7	26.3	60.7	0	0
20327	2012-05-23T22:00:00	ND	ND	ND	1852.47	ND	ND	1.1	305.3	25.8	63.6	0	0
20328	2012-05-23T23:00:00	ND	ND	ND	1343.96	ND	ND	0.2	258.3	25.1	67.2	0	0
20329	2012-05-24T00:00:00	ND	ND	ND	1340.81	ND	ND	1.2	225.9	25	67.1	0	0
20330	2012-05-24T01:00:00	ND	ND	ND	2119.37	ND	ND	0.6	122.9	24.1	73.2	0	0
20331	2012-05-24T02:00:00	ND	ND	ND	1039.35	ND	ND	0.8	165.1	23.5	76.1	0	0
20332	2012-05-24T03:00:00	ND	ND	ND	1459.00	ND	ND	0.4	109	22.9	78.7	0	0
20333	2012-05-24T04:00:00	ND	ND	ND	1410.54	ND	ND	0.5	102.9	22.7	78.9	0	0
20334	2012-05-24T05:00:00	ND	ND	ND	1352.75	ND	ND	0.2	ND	22.7	78.7	0	0
20335	2012-05-24T06:00:00	ND	ND	ND	1352.75	ND	ND	0.4	77.7	22.5	80	0	0
20336	2012-05-24T07:00:00	ND	ND	ND	1420.00	ND	ND	0.3	251.7	22.5	79.8	39.7	0
20337	2012-05-24T08:00:00	ND	ND	ND	1942.55	ND	ND	0.9	150.5	23.1	76.6	93.9	0
20338	2012-05-24T09:00:00	ND	ND	ND	2572.57	ND	ND	1	158	24.3	71.7	325.4	0
20339	2012-05-24T10:00:00	ND	ND	ND	3234.45	ND	ND	1.5	141.5	26.1	65.2	664.9	0
20340	2012-05-24T11:00:00	ND	ND	ND	2690.62	ND	ND	1.9	139	27	61.8	470.8	0
20341	2012-05-24T12:00:00	ND	ND	ND	1972.14	ND	ND	1.1	167.1	27.6	58.9	625.2	0
20342	2012-05-24T13:00:00	ND	ND	ND	1848.96	ND	ND	1.3	170.4	29.3	52.5	791.1	0
20343	2012-05-24T14:00:00	ND	ND	ND	1871.04	ND	ND	1.1	141.9	29.2	50.9	429.6	0
20344	2012-05-24T15:00:00	ND	ND	ND	1684.54	ND	ND	1.6	290.9	29	52.4	210.4	0
20345	2012-05-24T16:00:00	ND	ND	ND	1636.99	ND	ND	2.7	281.3	28.3	53.7	118.6	0
20346	2012-05-24T17:00:00	ND	ND	ND	1772.19	ND	ND	3.1	283.7	27.1	57.2	56.7	0
20347	2012-05-24T18:00:00	ND	ND	ND	1788.20	ND	ND	3	271	26.6	58	18.3	0
20348	2012-05-24T19:00:00	ND	ND	ND	1773.71	ND	ND	2.3	273.5	26.4	57.2	0	0
20349	2012-05-24T20:00:00	ND	ND	ND	1772.52	ND	ND	0.8	62.2	25.3	65.3	0	0
20350	2012-05-24T21:00:00	ND	ND	ND	2041.23	ND	ND	0.5	81.8	24.3	69.3	0	0
20351	2012-05-24T22:00:00	ND	ND	ND	2605.85	ND	ND	2.1	240.4	24.7	65.1	0	0
20352	2012-05-24T23:00:00	ND	ND	ND	2472.02	ND	ND	1.4	186.8	23.9	72.3	0	0
20353	2012-05-25T00:00:00	ND	ND	ND	1460.96	ND	ND	0.5	144.9	23.6	73.9	0	0
20354	2012-05-25T01:00:00	ND	ND	ND	1858.57	ND	ND	0.6	65.3	22.8	78	0	0
20355	2012-05-25T02:00:00	ND	ND	ND	1830.81	ND	ND	0.3	205.9	22.6	78.5	0	0
20356	2012-05-25T03:00:00	ND	ND	ND	1704.57	ND	ND	1.1	197.1	22.5	80.6	0	0
20357	2012-05-25T04:00:00	ND	ND	ND	1431.36	ND	ND	0.8	159.8	22	81.6	0	0
20358	2012-05-25T05:00:00	ND	ND	ND	1236.14	ND	ND	0.1	ND	21.9	79.2	0	0
20359	2012-05-25T06:00:00	ND	ND	ND	1258.40	ND	ND	0.5	158.1	21.9	80.2	0	0
20360	2012-05-25T07:00:00	ND	ND	ND	1303.74	ND	ND	0.7	250.8	22.1	78.3	27.1	0
20361	2012-05-25T08:00:00	ND	ND	ND	1769.76	ND	ND	0.5	163.2	23	74.7	140.6	0
20362	2012-05-25T09:00:00	ND	ND	ND	2173.42	ND	ND	0.4	146.5	24.5	68.3	304.6	0
20363	2012-05-25T10:00:00	ND	ND	ND	2824.90	ND	ND	0.8	156.4	26	62.9	508.7	0
20364	2012-05-25T11:00:00	ND	ND	ND	2229.94	ND	ND	1.1	120.2	26.8	60.1	526	0
20365	2012-05-25T12:00:00	ND	ND	ND	1970.82	ND	ND	1.9	96.6	27.2	59.3	451.3	0
20366	2012-05-25T13:00:00	ND	ND	ND	2088.86	ND	ND	1.6	83.9	27.6	58.4	392.1	0
20367	2012-05-25T14:00:00	ND	ND	ND	2392.10	ND	ND	1.2	69.4	28.3	57	384.1	0
20368	2012-05-25T15:00:00	ND	ND	ND	2212.34	ND	ND	1.3	14.8	28.6	56.1	299.5	0
20369	2012-05-25T16:00:00	ND	ND	ND	2168.17	ND	ND	1.9	286.5	28.4	53.5	190.8	0
20370	2012-05-25T17:00:00	ND	ND	ND	2074.03	ND	ND	3.6	272	27.4	54.4	98	0
20371	2012-05-25T18:00:00	ND	ND	ND	1824.64	ND	ND	3.3	283.3	26.3	57.8	39.1	0
20372	2012-05-25T19:00:00	ND	ND	ND	1875.49	ND	ND	5.1	265.6	25.2	60.8	0	0
20373	2012-05-25T20:00:00	ND	ND	ND	1845.67	ND	ND	3.6	286.3	25.1	59.6	0	0
20374	2012-05-25T21:00:00	ND	ND	ND	1684.61	ND	ND	2.6	213.8	24.4	68	0	0
20375	2012-05-25T22:00:00	ND	ND	ND	1440.56	ND	ND	1.6	167.3	23.3	73.9	0	0
20376	2012-05-25T23:00:00	ND	ND	ND	1640.26	ND	ND	0.8	225.4	23.1	71	0	0
20377	2012-05-26T00:00:00	ND	ND	ND	2094.48	ND	ND	0.8	262.6	23	66.6	0	0
20378	2012-05-26T01:00:00	ND	ND	ND	1854.81	ND	ND	0.7	266.5	22.5	68.8	0	0
20379	2012-05-26T02:00:00	ND	ND	ND	1556.32	ND	ND	0.7	240.5	22.2	68	0	0
20380	2012-05-26T03:00:00	ND	ND	ND	1600.13	ND	ND	0.9	340.9	21.4	78.1	0	0
20381	2012-05-26T04:00:00	ND	ND	ND	1312.85	ND	ND	0.4	345.8	21.2	78.7	0	0
20382	2012-05-26T05:00:00	ND	ND	ND	1662.57	ND	ND	0.4	37.8	20.9	82.8	0	0
20383	2012-05-26T06:00:00	ND	ND	ND	1739.96	ND	ND	1	189.1	20.7	85	0	0
20384	2012-05-26T07:00:00	ND	ND	ND	1862.98	ND	ND	0.7	225.3	21	79.3	26.6	0
20385	2012-05-26T08:00:00	ND	ND	ND	1876.18	ND	ND	0.8	135.6	21.6	79.9	92.5	0
20386	2012-05-26T09:00:00	ND	ND	ND	1778.08	ND	ND	1	177.5	22.7	75.2	308.3	0
20387	2012-05-26T10:00:00	ND	ND	ND	2876.02	ND	ND	0.8	170.2	25.1	63.4	607.3	0
20388	2012-05-26T11:00:00	ND	ND	ND	2693.08	ND	ND	1	171.2	27	56.2	739.7	0
20389	2012-05-26T12:00:00	ND	ND	ND	2352.72	ND	ND	0.9	95.9	28.6	51.7	724.6	0
20390	2012-05-26T13:00:00	ND	ND	ND	2110.19	ND	ND	1.4	79.4	29.3	50.1	612	0
20391	2012-05-26T14:00:00	ND	ND	ND	1964.01	ND	ND	1.4	47.8	29.5	50	387.9	0
20392	2012-05-26T15:00:00	ND	ND	ND	2325.81	ND	ND	1.9	294.2	29	50.4	272.2	0
20393	2012-05-26T16:00:00	ND	ND	ND	2171.04	ND	ND	3.6	278.2	28.2	50.9	260.6	0
20394	2012-05-26T17:00:00	ND	ND	ND	1760.02	ND	ND	3.1	279.7	28.1	51.4	226.1	0
20395	2012-05-26T18:00:00	ND	ND	ND	1689.99	ND	ND	4.5	274	26.7	55.9	51.4	0
20396	2012-05-26T19:00:00	ND	ND	ND	1670.61	ND	ND	4.5	269	26.1	57.7	0	0
20397	2012-05-26T20:00:00	ND	ND	ND	1540.78	ND	ND	2.6	280.3	26.1	56.4	0	0
20398	2012-05-26T21:00:00	ND	ND	ND	1517.78	ND	ND	0.7	243	26	57.4	0	0
20399	2012-05-26T22:00:00	ND	ND	ND	1563.25	ND	ND	1.4	219.4	25.6	62.8	0	0
20400	2012-05-26T23:00:00	ND	ND	ND	1825.18	ND	ND	1.3	225.1	25.2	63.1	0	0
20401	2012-05-27T00:00:00	ND	ND	ND	1925.91	ND	ND	0.7	226.3	24.5	66.7	0	0
20402	2012-05-27T01:00:00	ND	ND	ND	1841.33	ND	ND	0.5	47	24.3	69.3	0	0
20403	2012-05-27T02:00:00	ND	ND	ND	1817.24	ND	ND	0.9	115.3	23.5	73.6	0	0
20404	2012-05-27T03:00:00	ND	ND	ND	2370.87	ND	ND	1.1	188.8	22.5	77.4	0	0
20405	2012-05-27T04:00:00	ND	ND	ND	1794.87	ND	ND	0.3	148.9	22.2	78.6	0	0
20406	2012-05-27T05:00:00	ND	ND	ND	1384.51	ND	ND	0.5	ND	22.3	77	0	0
20407	2012-05-27T06:00:00	ND	ND	ND	1532.56	ND	ND	0.2	37.2	22.1	77	0	0
20408	2012-05-27T07:00:00	ND	ND	ND	1134.46	ND	ND	0.5	49.8	21.7	81.4	45.8	0
20409	2012-05-27T08:00:00	ND	ND	ND	1790.02	ND	ND	0.5	132.9	22.5	79.2	193.6	0
20410	2012-05-27T09:00:00	ND	ND	ND	2340.15	ND	ND	0.8	165.6	24.4	69.3	413.4	0
20411	2012-05-27T10:00:00	ND	ND	ND	2229.44	ND	ND	0.3	192	26.5	60.5	562	0
20412	2012-05-27T11:00:00	ND	ND	ND	1945.82	ND	ND	1.1	129.4	27.3	57.8	493.2	0
20413	2012-05-27T12:00:00	ND	ND	ND	1708.58	ND	ND	1.2	60.5	28.6	54.6	720.2	0
20414	2012-05-27T13:00:00	ND	ND	ND	1704.39	ND	ND	1.4	83.1	29.8	50.2	782.4	0
20415	2012-05-27T14:00:00	ND	ND	ND	1839.21	ND	ND	1.7	54.1	31.1	47.3	759	0
20416	2012-05-27T15:00:00	ND	ND	ND	1847.11	ND	ND	1.2	49	30.6	47.6	284.8	0
20417	2012-05-27T16:00:00	ND	ND	ND	1797.39	ND	ND	3.1	284.6	29.6	49.4	198	0
20418	2012-05-27T17:00:00	ND	ND	ND	1512.28	ND	ND	3.8	278.2	27.9	53.2	60.3	0
20419	2012-05-27T18:00:00	ND	ND	ND	1353.40	ND	ND	3.7	267.9	27.2	55.6	28.3	0
20420	2012-05-27T19:00:00	ND	ND	ND	1315.63	ND	ND	3.1	270.6	26.8	56.7	0	0
20421	2012-05-27T20:00:00	ND	ND	ND	1210.15	ND	ND	2.3	279	26.4	58	0	0
20422	2012-05-27T21:00:00	ND	ND	ND	1438.74	ND	ND	0.5	308	25.9	59.9	0	0
20423	2012-05-27T22:00:00	ND	ND	ND	1482.30	ND	ND	1.8	255.6	25.4	60.5	0	0
20424	2012-05-27T23:00:00	ND	ND	ND	1835.43	ND	ND	0.6	303.1	25	64.6	0	0
20425	2012-05-28T00:00:00	ND	ND	ND	1420.55	ND	ND	0.6	66.4	24.2	70.7	0	0
20426	2012-05-28T01:00:00	ND	ND	ND	1736.65	ND	ND	0.6	145.8	24.1	70.2	0	0
20427	2012-05-28T02:00:00	ND	ND	ND	2192.92	ND	ND	0.5	176.6	22.9	77.1	0	0
20428	2012-05-28T03:00:00	ND	ND	ND	1683.55	ND	ND	1.2	192.3	22.7	78.5	0	0
20429	2012-05-28T04:00:00	ND	ND	ND	1284.54	ND	ND	1	233.1	22.5	79.4	0	0
20430	2012-05-28T05:00:00	ND	ND	ND	1249.60	ND	ND	0.6	231.6	22.5	77.7	0	0
20431	2012-05-28T06:00:00	ND	ND	ND	1249.60	ND	ND	0.5	199.5	22.3	77.9	0	0
20432	2012-05-28T07:00:00	ND	ND	ND	1305.51	ND	ND	0.3	59	22.6	75.9	42.6	0
20433	2012-05-28T08:00:00	ND	ND	ND	1636.39	ND	ND	0.7	111.8	22.9	78.6	134.2	0
20434	2012-05-28T09:00:00	ND	ND	ND	2366.07	ND	ND	0.4	80.8	24.9	68.5	384.8	0
20435	2012-05-28T10:00:00	ND	ND	ND	3034.84	ND	ND	1	59.2	26.9	60.2	571.6	0
20436	2012-05-28T11:00:00	ND	ND	ND	2640.17	ND	ND	1.2	102.1	27.6	57.6	536.2	0
20437	2012-05-28T12:00:00	ND	ND	ND	2091.64	ND	ND	0.8	88.2	28.7	52.9	671.5	0
20438	2012-05-28T13:00:00	ND	ND	ND	1739.75	ND	ND	1.1	49.8	30.6	47.3	842.7	0
20439	2012-05-28T14:00:00	ND	ND	ND	1867.42	ND	ND	0.9	73	30.7	46.8	346.3	0
20440	2012-05-28T15:00:00	ND	ND	ND	1984.78	ND	ND	1.3	296.1	29.4	50.4	157.8	0
20441	2012-05-28T16:00:00	ND	ND	ND	1987.91	ND	ND	2.8	268.7	29	50.3	323.6	0
20442	2012-05-28T17:00:00	ND	ND	ND	2054.94	ND	ND	1.4	305	29	51.4	140.9	0
20443	2012-05-28T18:00:00	ND	ND	ND	1962.06	ND	ND	2.7	266.7	28.1	52.8	31.4	0
20444	2012-05-28T19:00:00	ND	ND	ND	1967.79	ND	ND	2.4	261.5	27.4	55.5	0	0
20445	2012-05-28T20:00:00	ND	ND	ND	1986.31	ND	ND	2.9	268.9	26.6	57.9	0	0
20446	2012-05-28T21:00:00	ND	ND	ND	2211.38	ND	ND	1.7	214.1	25.6	60.5	0	0
20447	2012-05-28T22:00:00	ND	ND	ND	1848.14	ND	ND	1.1	181.7	25	60.9	0	0
20448	2012-05-28T23:00:00	ND	ND	ND	1626.76	ND	ND	1.2	239.7	24.5	65	0	0
20449	2012-05-29T00:00:00	ND	ND	ND	2481.80	ND	ND	1	247.9	24.5	65	0	0
20450	2012-05-29T01:00:00	ND	ND	ND	1646.91	ND	ND	0.8	259	24.2	66.6	0	0
20451	2012-05-29T02:00:00	ND	ND	ND	1382.46	ND	ND	0.7	286.9	23.9	68.7	0	0
20452	2012-05-29T03:00:00	ND	ND	ND	1312.59	ND	ND	1.1	50.1	22.6	77.6	0	0
20453	2012-05-29T04:00:00	ND	ND	ND	1215.93	ND	ND	0.9	355.5	22.1	79.6	0	0
20454	2012-05-29T05:00:00	ND	ND	ND	1486.14	ND	ND	0.3	ND	22.4	77	0	0
20455	2012-05-29T06:00:00	ND	ND	ND	1589.86	ND	ND	0.4	66.2	22.2	77.8	0	0
20456	2012-05-29T07:00:00	ND	ND	ND	1679.57	ND	ND	0.5	96.8	22.1	79.1	37.5	0
20457	2012-05-29T08:00:00	ND	ND	ND	2200.85	ND	ND	0.3	89.5	23	75.2	153.8	0
20458	2012-05-29T09:00:00	ND	ND	ND	2981.35	ND	ND	1.4	144.7	24.3	69.8	368.6	0
20459	2012-05-29T10:00:00	ND	ND	ND	2994.44	ND	ND	1.2	172.3	25.5	65.8	490.5	0
20460	2012-05-29T11:00:00	ND	ND	ND	2547.52	ND	ND	0.7	188.3	27	59	607.8	0
20461	2012-05-29T12:00:00	ND	ND	ND	1787.61	ND	ND	1.2	91	29.2	51.1	825.6	0
20462	2012-05-29T13:00:00	ND	ND	ND	1800.72	ND	ND	1.3	40.6	30.8	47	785.2	0
20463	2012-05-29T14:00:00	ND	ND	ND	2090.55	ND	ND	0.8	52.4	30.9	46.8	530.8	0
20464	2012-05-29T15:00:00	ND	ND	ND	1787.48	ND	ND	1.7	290.3	30.2	48.3	295.3	0
20465	2012-05-29T16:00:00	ND	ND	ND	1818.33	ND	ND	3.3	278.7	30.2	47.6	335.5	0
20466	2012-05-29T17:00:00	ND	ND	ND	1818.33	ND	ND	3.3	279.6	29.6	48.7	227.6	0
20467	2012-05-29T18:00:00	ND	ND	ND	1768.20	ND	ND	3	278.4	28.5	51.7	90.9	0
20468	2012-05-29T19:00:00	ND	ND	ND	1819.73	ND	ND	3.8	269	27.2	56.2	0	0
20469	2012-05-29T20:00:00	ND	ND	ND	1881.13	ND	ND	3.3	268.1	26.6	58.6	0	0
20470	2012-05-29T21:00:00	ND	ND	ND	1842.81	ND	ND	2	277.7	26.4	58.9	0	0
20471	2012-05-29T22:00:00	ND	ND	ND	1830.07	ND	ND	0.7	252	25.7	62.5	0	0
20472	2012-05-29T23:00:00	ND	ND	ND	1561.69	ND	ND	1.8	224.3	25.7	62.1	0	0
20473	2012-05-30T00:00:00	ND	ND	ND	1975.07	ND	ND	1.8	234.6	25.3	63.2	0	0
20474	2012-05-30T01:00:00	ND	ND	ND	1376.11	ND	ND	1.5	253	24.7	64.4	0	0
20475	2012-05-30T02:00:00	ND	ND	ND	1396.23	ND	ND	0.7	92.5	23.8	71.4	0	0
20476	2012-05-30T03:00:00	ND	ND	ND	1175.22	ND	ND	0.7	163.2	22.3	78.7	0	0
20477	2012-05-30T04:00:00	ND	ND	ND	1487.15	ND	ND	0.4	ND	22.3	77.8	0	0
20478	2012-05-30T05:00:00	ND	ND	ND	1305.51	ND	ND	0.8	221.9	22.1	75.2	0	0
20479	2012-05-30T06:00:00	ND	ND	ND	1384.04	ND	ND	0.6	244.7	21.9	72.9	0	0
20480	2012-05-30T07:00:00	ND	ND	ND	1349.09	ND	ND	0.8	8.2	22	76.3	42	0
20481	2012-05-30T08:00:00	ND	ND	ND	1326.87	ND	ND	1	36.2	23.5	71.2	205.8	0
20482	2012-05-30T09:00:00	ND	ND	ND	2747.02	ND	ND	1.5	71.1	24.6	66.1	384.4	0
20483	2012-05-30T10:00:00	ND	ND	ND	2860.17	ND	ND	1.3	78.3	26.7	56.6	602.2	0
20484	2012-05-30T11:00:00	ND	ND	ND	2730.58	ND	ND	0.7	110.8	28.8	48.7	736.2	0
20485	2012-05-30T12:00:00	ND	ND	ND	2053.58	ND	ND	0.5	165.2	30.3	43.6	822.3	0
20486	2012-05-30T13:00:00	ND	ND	ND	1830.59	ND	ND	1.1	84.2	31.4	39.4	863.5	0
20487	2012-05-30T14:00:00	ND	ND	ND	ND	ND	ND	1.3	71.6	32.4	36.5	609.6	0
20488	2012-05-30T15:00:00	ND	ND	ND	ND	ND	ND	0.6	23.9	31.3	42.9	295.7	0
20489	2012-05-30T16:00:00	ND	ND	ND	ND	ND	ND	4.1	281	29.2	49.8	243.7	0
20490	2012-05-30T17:00:00	ND	ND	ND	ND	ND	ND	3.4	281.2	28.2	51.2	113.5	0
20491	2012-05-30T18:00:00	ND	ND	ND	ND	ND	ND	3.2	269.6	27.5	52.8	29	0
20492	2012-05-30T19:00:00	ND	ND	ND	ND	ND	ND	2.6	268.4	26.9	54.9	0	0
20493	2012-05-30T20:00:00	ND	ND	ND	ND	ND	ND	0.5	346.5	26.6	57.4	0	0
20494	2012-05-30T21:00:00	ND	ND	ND	ND	ND	ND	0.9	240.6	25.8	60.3	0	0
20495	2012-05-30T22:00:00	ND	ND	ND	ND	ND	ND	3.7	266.1	25.6	59.9	0	0
20496	2012-05-30T23:00:00	ND	ND	ND	ND	ND	ND	2	250.2	25.2	62.6	0	0
20497	2012-05-31T00:00:00	ND	ND	ND	ND	ND	ND	0.9	156.2	23.8	72.3	0	0
20498	2012-05-31T01:00:00	ND	ND	ND	ND	ND	ND	0.7	194.4	23.6	74.1	0	0
20499	2012-05-31T02:00:00	ND	ND	ND	ND	ND	ND	1.2	202.8	23.3	73.8	0	0
20500	2012-05-31T03:00:00	ND	ND	ND	ND	ND	ND	1	199.3	23	73.6	0	0
20501	2012-05-31T04:00:00	ND	ND	ND	ND	ND	ND	0.9	175.8	22.5	75.3	0	0
20502	2012-05-31T05:00:00	ND	ND	ND	ND	ND	ND	0.3	278.8	22.1	74.5	0	0
20503	2012-05-31T06:00:00	ND	ND	ND	ND	ND	ND	0.4	276.7	21.9	72.7	0	0
20504	2012-05-31T07:00:00	ND	ND	ND	ND	ND	ND	0.7	249.8	22.1	71.3	41.1	0
20505	2012-05-31T08:00:00	ND	ND	ND	ND	ND	ND	0.3	217.4	22.8	71	97.8	0
20506	2012-05-31T09:00:00	ND	ND	ND	ND	ND	ND	0.6	83.4	24.5	65.9	354.6	0
20507	2012-05-31T10:00:00	ND	ND	ND	ND	ND	ND	0.9	126.8	26.3	60.2	546.2	0
20508	2012-05-31T11:00:00	ND	ND	ND	ND	ND	ND	0.9	123.5	27.6	55.4	721.6	0
20509	2012-05-31T12:00:00	ND	ND	ND	ND	ND	ND	0.9	123.9	29.3	48.6	811.3	0
20510	2012-05-31T13:00:00	ND	ND	ND	1801.31	ND	ND	1	97.5	30.7	41.8	833.7	0
20511	2012-05-31T14:00:00	ND	ND	ND	1891.38	ND	ND	1.5	97.1	31.6	39	804.5	0
20512	2012-05-31T15:00:00	ND	ND	ND	1885.28	ND	ND	0.9	85.1	32.6	35.9	661.2	0
20513	2012-05-31T16:00:00	ND	ND	ND	1938.46	ND	ND	2.4	277.5	31.5	42.6	262.7	0
20514	2012-05-31T17:00:00	ND	ND	ND	1826.13	ND	ND	3.3	277.6	29.9	48.1	188.2	0
20515	2012-05-31T18:00:00	ND	ND	ND	1851.47	ND	ND	2.8	273.2	28.7	51.4	17.4	0
20516	2012-05-31T19:00:00	ND	ND	ND	1890.53	ND	ND	4	272.4	27.6	54.7	0	0
20517	2012-05-31T20:00:00	ND	ND	ND	1999.19	ND	ND	3.9	270.4	27	56.4	0	0
20518	2012-05-31T21:00:00	ND	ND	ND	1776.08	ND	ND	3	280.7	26.7	57.9	0	0
20519	2012-05-31T22:00:00	ND	ND	ND	1509.31	ND	ND	2.9	264	26.3	59.5	0	0
20520	2012-05-31T23:00:00	ND	ND	ND	1334.70	ND	ND	2.1	229.6	25.8	61.6	0	0
20521	2012-06-01T00:00:00	ND	ND	ND	1458.83	ND	ND	1.9	194.7	25	64.4	0	0
20522	2012-06-01T01:00:00	ND	ND	ND	1340.36	ND	ND	0.7	349.3	24.4	69.5	0	0
20523	2012-06-01T02:00:00	ND	ND	ND	1600.62	ND	ND	0.2	257.2	24.1	71.4	0	0
20524	2012-06-01T03:00:00	ND	ND	ND	1701.80	ND	ND	0.5	51.9	23.7	72.2	0	0
20525	2012-06-01T04:00:00	ND	ND	ND	1653.88	ND	ND	0.4	127.4	23.3	72.8	0	0
20526	2012-06-01T05:00:00	ND	ND	ND	1526.36	ND	ND	0.4	85.3	22.7	73.4	0	0
20527	2012-06-01T06:00:00	ND	ND	ND	1614.21	ND	ND	0.3	190.1	22.4	75.6	0	0
20528	2012-06-01T07:00:00	ND	ND	ND	1487.65	ND	ND	0.2	227.6	23	70.5	59.4	0
20529	2012-06-01T08:00:00	ND	ND	ND	1604.47	ND	ND	1	70.7	24.3	66.2	270.5	0
20530	2012-06-01T09:00:00	ND	ND	ND	1805.81	ND	ND	1.1	124.3	25.7	60.3	481.4	0
20531	2012-06-01T10:00:00	ND	ND	ND	2928.16	ND	ND	0.8	144.9	27	55.9	517	0
20532	2012-06-01T11:00:00	ND	ND	ND	2191.26	ND	ND	1.2	135.9	27.7	53.6	487.5	0
20533	2012-06-01T12:00:00	ND	ND	ND	1733.98	ND	ND	1.1	106.7	28.8	50.4	614.7	0
20534	2012-06-01T13:00:00	ND	ND	ND	1798.33	ND	ND	1.3	97.2	29.6	48.7	387.7	0
20535	2012-06-01T14:00:00	ND	ND	ND	2024.13	ND	ND	1	11.9	29.7	50	405.2	0
20536	2012-06-01T15:00:00	ND	ND	ND	1931.70	ND	ND	1.8	306.6	29.9	48.2	322.5	0
20537	2012-06-01T16:00:00	ND	ND	ND	1583.64	ND	ND	2.7	272.2	28.7	50.6	126.1	0
20538	2012-06-01T17:00:00	ND	ND	ND	1496.18	ND	ND	3.2	262.4	28.5	50.3	183.4	0
20539	2012-06-01T18:00:00	ND	ND	ND	1750.18	ND	ND	3.1	273.1	27.7	52.3	39.8	0
20540	2012-06-01T19:00:00	ND	ND	ND	1791.78	ND	ND	3.2	268.4	26.9	55	0	0
20541	2012-06-01T20:00:00	ND	ND	ND	1810.07	ND	ND	2.7	270.8	26.5	56.8	0	0
20542	2012-06-01T21:00:00	ND	ND	ND	1876.74	ND	ND	1.2	288.5	26.1	59	0	0
20543	2012-06-01T22:00:00	ND	ND	ND	1609.77	ND	ND	0.3	234	25.3	65.3	0	0
20544	2012-06-01T23:00:00	ND	ND	ND	1651.34	ND	ND	2.3	264.7	25.5	61.8	0	0
20545	2012-06-02T00:00:00	ND	ND	ND	2386.86	ND	ND	0.6	359.2	24.7	67.1	0	0
20546	2012-06-02T01:00:00	ND	ND	ND	1327.57	ND	ND	0.7	158.8	24.2	71.6	0	0
20547	2012-06-02T02:00:00	ND	ND	ND	1542.42	ND	ND	0.8	131.7	23.5	75.7	0	0
20548	2012-06-02T03:00:00	ND	ND	ND	1892.14	ND	ND	0.4	152.6	23.1	77.3	0	0
20549	2012-06-02T04:00:00	ND	ND	ND	1650.54	ND	ND	0.3	227.3	23	75.8	0	0
20550	2012-06-02T05:00:00	ND	ND	ND	1513.43	ND	ND	0.7	165.1	22.7	77	0	0
20551	2012-06-02T06:00:00	ND	ND	ND	1432.32	ND	ND	0.6	162	22.3	79.8	0	0
20552	2012-06-02T07:00:00	ND	ND	ND	1702.84	ND	ND	0.5	48.8	22.3	80.6	23.6	0
20553	2012-06-02T08:00:00	ND	ND	ND	1668.78	ND	ND	0.4	88.8	22.8	78.7	80	0
20554	2012-06-02T09:00:00	ND	ND	ND	2331.16	ND	ND	0.8	88.5	24.1	72.7	251.8	0
20555	2012-06-02T10:00:00	ND	ND	ND	2843.95	ND	ND	0.6	88.7	26.3	63.8	576.3	0
20556	2012-06-02T11:00:00	ND	ND	ND	2945.55	ND	ND	1.7	101.7	27.7	58.7	619.3	0
20557	2012-06-02T12:00:00	ND	ND	ND	2543.17	ND	ND	0.9	101.7	28.9	54	574	0
20558	2012-06-02T13:00:00	ND	ND	ND	2309.59	ND	ND	0.8	86.5	29.4	51.5	487.9	0
20559	2012-06-02T14:00:00	ND	ND	ND	2092.54	ND	ND	0.6	177.4	30.7	47	609.8	0
20560	2012-06-02T15:00:00	ND	ND	ND	1891.38	ND	ND	2.2	282.3	30.1	47.3	233.1	0
20561	2012-06-02T16:00:00	ND	ND	ND	1864.34	ND	ND	3.2	276.1	30.2	46.1	387	0
20562	2012-06-02T17:00:00	ND	ND	ND	1678.46	ND	ND	3.8	281.1	29.1	48.9	196.2	0
20563	2012-06-02T18:00:00	ND	ND	ND	1614.30	ND	ND	4.6	277.4	27.3	54	17.4	0
20564	2012-06-02T19:00:00	ND	ND	ND	1546.96	ND	ND	3.8	279.4	26.7	56.1	0	0
20565	2012-06-02T20:00:00	ND	ND	ND	1405.61	ND	ND	3.9	270.5	26.3	56.9	0	0
20566	2012-06-02T21:00:00	ND	ND	ND	1495.79	ND	ND	1.8	201.7	25.3	63.4	0	0
20567	2012-06-02T22:00:00	ND	ND	ND	1456.39	ND	ND	1.7	131.8	24.4	67.8	0	0
20568	2012-06-02T23:00:00	ND	ND	ND	1749.25	ND	ND	0.5	131.1	24.4	67.3	0	0
20569	2012-06-03T00:00:00	ND	ND	ND	2309.47	ND	ND	0.5	160.5	23.7	69.5	0	0
20570	2012-06-03T01:00:00	ND	ND	ND	2030.29	ND	ND	0.1	ND	23.8	69.1	0	0
20571	2012-06-03T02:00:00	ND	ND	ND	2053.79	ND	ND	0.5	ND	23.2	72.8	0	0
20572	2012-06-03T03:00:00	ND	ND	ND	2152.12	ND	ND	0.7	148.7	22.2	77.7	0	0
20573	2012-06-03T04:00:00	ND	ND	ND	1883.84	ND	ND	1.1	191.4	22	79.1	0	0
20574	2012-06-03T05:00:00	ND	ND	ND	1610.39	ND	ND	0.3	215.2	22.3	77.1	0	0
20575	2012-06-03T06:00:00	ND	ND	ND	1294.16	ND	ND	0.4	ND	22.5	73.9	0	0
20576	2012-06-03T07:00:00	ND	ND	ND	1397.28	ND	ND	0.7	34.6	22.2	77.9	33.5	0
20577	2012-06-03T08:00:00	ND	ND	ND	1293.72	ND	ND	0.2	7.2	23.3	72	181.3	0
20578	2012-06-03T09:00:00	ND	ND	ND	1970.59	ND	ND	0.8	130.1	24.6	68.1	349.7	0
20579	2012-06-03T10:00:00	ND	ND	ND	1864.83	ND	ND	0.8	121.7	26.1	62.1	507.6	0
20580	2012-06-03T11:00:00	ND	ND	ND	1897.23	ND	ND	0.9	107.4	26.9	59	496.3	0
20581	2012-06-03T12:00:00	ND	ND	ND	1671.72	ND	ND	0.7	175.8	27.9	55.1	477.5	0
20582	2012-06-03T13:00:00	ND	ND	ND	1723.57	ND	ND	0.7	157.5	28.5	52.9	467.9	0
20583	2012-06-03T14:00:00	ND	ND	ND	1564.73	ND	ND	ND	ND	ND	ND	ND	ND
20584	2012-06-03T15:00:00	ND	ND	ND	ND	ND	ND	0.8	264.4	30	48.1	560.2	0
20585	2012-06-03T16:00:00	ND	ND	ND	ND	ND	ND	0.9	309.9	30.3	44.8	353.9	0
20586	2012-06-03T17:00:00	ND	ND	ND	ND	ND	ND	0.7	355	30	45.6	196.2	0
20587	2012-06-03T18:00:00	ND	ND	ND	ND	ND	ND	2.3	272.8	29.3	47.4	133.7	0
20588	2012-06-03T19:00:00	ND	ND	ND	ND	ND	ND	2.9	271.3	27.7	52.5	0.4	0
20589	2012-06-03T20:00:00	ND	ND	ND	ND	ND	ND	3.1	276.8	27	53.7	0	0
20590	2012-06-03T21:00:00	ND	ND	ND	ND	ND	ND	1.6	275.9	26.6	56.1	0	0
20591	2012-06-03T22:00:00	ND	ND	ND	ND	ND	ND	3.1	263.1	25.8	60.4	0	0
20592	2012-06-03T23:00:00	ND	ND	ND	ND	ND	ND	1.6	247.7	25.6	60.5	0	0
20593	2012-06-04T00:00:00	27	ND	ND	ND	ND	ND	0.9	212.6	24.8	67.6	0	0
20594	2012-06-04T01:00:00	16	ND	ND	ND	ND	ND	1	237.1	24.6	64.8	0	0
20595	2012-06-04T02:00:00	11	ND	ND	ND	ND	ND	0.8	242.2	24.3	68.1	0	0
20596	2012-06-04T03:00:00	22	ND	ND	ND	ND	ND	0.2	175.9	23.9	70.5	0	0
20597	2012-06-04T04:00:00	24	ND	ND	ND	ND	ND	1	137.7	22.9	79.6	0	0
20598	2012-06-04T05:00:00	38	ND	ND	ND	ND	ND	0.6	144	22.8	80	0	0
20599	2012-06-04T06:00:00	30	ND	ND	ND	ND	ND	0.5	183.9	22.7	75.8	0	0
20600	2012-06-04T07:00:00	44	ND	ND	ND	ND	ND	0.3	42.5	22.9	78.5	42.2	0
20601	2012-06-04T08:00:00	86	ND	ND	ND	ND	ND	0.6	77.7	24.3	71.3	181.5	0
20602	2012-06-04T09:00:00	71	ND	ND	605.75	ND	ND	1.6	116.7	25.3	65.4	393.5	0
20603	2012-06-04T10:00:00	53	ND	ND	974.75	ND	ND	0.6	139.3	26.4	61.9	531.8	0
20604	2012-06-04T11:00:00	45	ND	ND	517.95	ND	ND	1.5	167.1	28	56.7	634.7	0
20605	2012-06-04T12:00:00	40	ND	ND	ND	ND	ND	1.2	153.6	29.2	51.9	526.8	0
20606	2012-06-04T13:00:00	44	ND	ND	ND	ND	ND	1.3	31.7	30.7	47.4	694	0
20607	2012-06-04T14:00:00	38	ND	ND	ND	ND	ND	1.9	346.3	31.1	44.3	732.7	0
20608	2012-06-04T15:00:00	32	ND	ND	ND	ND	ND	4	281.2	31	43	671.6	0
20609	2012-06-04T16:00:00	21	ND	ND	ND	ND	ND	4.3	276.4	30.7	43	510.8	0
20610	2012-06-04T17:00:00	20	ND	ND	ND	ND	ND	4.1	280.2	29.9	45.3	315.9	0
20611	2012-06-04T18:00:00	11	ND	ND	ND	ND	ND	3.9	278.8	28.5	49.5	86.8	0
20612	2012-06-04T19:00:00	20	ND	ND	ND	ND	ND	3.5	272	27.3	52.7	0	0
20613	2012-06-04T20:00:00	12	ND	ND	ND	ND	ND	3.8	268.6	26.9	54.2	0	0
20614	2012-06-04T21:00:00	15	ND	ND	ND	ND	ND	1.4	295.9	26.7	55.8	0	0
20615	2012-06-04T22:00:00	34	ND	ND	ND	ND	ND	2.4	212.1	25.9	59.2	0	0
20616	2012-06-04T23:00:00	47	ND	ND	ND	ND	ND	1.2	201.6	25.4	59.9	0	0
20617	2012-06-05T00:00:00	49	ND	ND	ND	ND	ND	0.6	84	25.3	60.7	0	0
20618	2012-06-05T01:00:00	49	ND	ND	ND	ND	ND	0.7	137.6	24.4	63.5	0	0
20619	2012-06-05T02:00:00	55	ND	ND	ND	ND	ND	1.1	166	23.9	65.8	0	0
20620	2012-06-05T03:00:00	45	ND	ND	ND	ND	ND	1.1	143.5	23.2	70.1	0	0
20621	2012-06-05T04:00:00	31	ND	ND	ND	ND	ND	0.5	184.1	23.4	70.9	0	0
20622	2012-06-05T05:00:00	30	ND	ND	ND	ND	ND	0.1	330.9	23.7	68.8	0	0
20623	2012-06-05T06:00:00	22	ND	ND	ND	ND	ND	0.5	69.5	23.1	73.4	0	0
20624	2012-06-05T07:00:00	73	ND	ND	ND	ND	ND	1	54.2	22.5	75.5	9.4	0
20625	2012-06-05T08:00:00	65	ND	ND	ND	ND	ND	0.3	32.1	23.1	72.9	47.2	0
20626	2012-06-05T09:00:00	114	ND	ND	603.30	ND	ND	0.5	79.8	24.3	67.7	154.7	0
20627	2012-06-05T10:00:00	114	ND	ND	1314.35	ND	ND	1.2	90.2	24.9	66.2	248	0
20628	2012-06-05T11:00:00	ND	ND	ND	1603.31	ND	ND	0.7	145.6	26.2	61.2	556.3	0
20629	2012-06-05T12:00:00	68	ND	ND	1161.72	ND	ND	0.7	159.8	27.9	55	685.3	0
20630	2012-06-05T13:00:00	80	ND	ND	ND	ND	ND	1.3	118.8	29.7	48.8	835.8	0
20631	2012-06-05T14:00:00	69	ND	ND	ND	ND	ND	0.9	21.5	30.3	47.6	542.1	0
20632	2012-06-05T15:00:00	75	ND	ND	ND	ND	ND	0.6	271.5	30.6	47.3	473.4	0
20633	2012-06-05T16:00:00	71	ND	ND	ND	ND	ND	3.6	276	29.5	49.2	302.3	0
20634	2012-06-05T17:00:00	57	ND	ND	ND	ND	ND	4.1	273.4	28.1	52.6	162.8	0
20635	2012-06-05T18:00:00	46	ND	ND	ND	ND	ND	4.7	275.9	27	56.5	56.8	0
20636	2012-06-05T19:00:00	39	ND	ND	ND	ND	ND	4.7	270.6	26.3	57.1	0	0
20637	2012-06-05T20:00:00	21	ND	ND	ND	ND	ND	3	275.3	26.4	55.4	0	0
20638	2012-06-05T21:00:00	28	ND	ND	ND	ND	ND	0.5	339.1	25.9	60	0	0
20639	2012-06-05T22:00:00	31	ND	ND	ND	ND	ND	0.1	ND	24.8	65.9	0	0
20640	2012-06-05T23:00:00	52	ND	ND	881.53	ND	ND	0.3	138.3	24.4	67.2	0	0
20641	2012-06-06T00:00:00	104	ND	ND	971.81	ND	ND	1.9	164.1	23.7	73	0	0
20642	2012-06-06T01:00:00	99	ND	ND	ND	ND	ND	0.7	151.3	23.1	75	0	0
20643	2012-06-06T02:00:00	118	ND	ND	ND	ND	ND	0.8	194.1	23.1	74.8	0	0
20644	2012-06-06T03:00:00	72	ND	ND	ND	ND	ND	0.5	199.1	22.9	74.9	0	0
20645	2012-06-06T04:00:00	47	ND	ND	ND	ND	ND	0.5	169.9	22.7	76.3	0	0
20646	2012-06-06T05:00:00	58	ND	ND	ND	ND	ND	0.5	228.3	22.3	76.7	0	0
20647	2012-06-06T06:00:00	30	ND	ND	ND	ND	ND	0.5	218.4	21.9	74.9	0	0
20648	2012-06-06T07:00:00	43	ND	ND	ND	ND	ND	1.1	41.4	21.3	80.5	48.3	0
20649	2012-06-06T08:00:00	59	ND	ND	ND	ND	ND	0.3	126.4	22.3	76.8	129.6	0
20650	2012-06-06T09:00:00	98	ND	ND	1033.06	ND	ND	1	139.1	24.4	69.1	366.3	0
20651	2012-06-06T10:00:00	93	ND	ND	1371.96	ND	ND	1.2	144.3	25.7	64.6	556.5	0
20652	2012-06-06T11:00:00	91	ND	ND	1538.72	ND	ND	0.9	116.5	27.3	58.6	711.1	0
20653	2012-06-06T12:00:00	66	ND	ND	ND	ND	ND	1.2	70.2	28.9	52.8	726.3	0
20654	2012-06-06T13:00:00	65	ND	ND	ND	ND	ND	1.1	75.1	30.1	49.5	646	0
20655	2012-06-06T14:00:00	92	ND	ND	ND	ND	ND	1	29.7	30.8	48.1	419	0
20656	2012-06-06T15:00:00	66	ND	ND	ND	ND	ND	3.8	281.3	31	45	568.2	0
20657	2012-06-06T16:00:00	53	ND	ND	ND	ND	ND	4.7	280.2	30.5	45.1	509.8	0
20658	2012-06-06T17:00:00	40	ND	ND	ND	ND	ND	4.7	279.1	29.5	48.2	284.5	0
20659	2012-06-06T18:00:00	52	ND	ND	ND	ND	ND	4.3	271.7	28.2	52.8	74.3	0
20660	2012-06-06T19:00:00	28	ND	ND	ND	ND	ND	4.1	274.3	27.4	55.3	0	0
20661	2012-06-06T20:00:00	17	ND	ND	ND	ND	ND	2.9	269.3	26.8	57	0	0
20662	2012-06-06T21:00:00	13	ND	ND	ND	ND	ND	1.7	292.3	26.9	55.6	0	0
20663	2012-06-06T22:00:00	9	ND	ND	ND	ND	ND	1.8	242.2	26.3	59.1	0	0
20664	2012-06-06T23:00:00	11	ND	ND	ND	ND	ND	1.3	226.3	25.5	63.5	0	0
20665	2012-06-07T00:00:00	7	ND	ND	ND	ND	ND	1.1	233.7	24.9	66.1	0	0
20666	2012-06-07T01:00:00	25	ND	ND	ND	ND	ND	0.4	33.2	24.5	68.5	0	0
20667	2012-06-07T02:00:00	40	ND	ND	ND	ND	ND	1.1	51.2	22.8	77.4	0	0
20668	2012-06-07T03:00:00	62	ND	ND	ND	ND	ND	0.3	119.5	22.6	78.6	0	0
20669	2012-06-07T04:00:00	51	ND	ND	ND	ND	ND	0.9	152.6	22.4	79.5	0	0
20670	2012-06-07T05:00:00	57	ND	ND	ND	ND	ND	0.6	148.5	22.2	79.8	0	0
20671	2012-06-07T06:00:00	33	ND	ND	ND	ND	ND	0.9	169.2	21.9	80.2	0	0
20672	2012-06-07T07:00:00	74	ND	ND	ND	ND	ND	0.7	199.4	22.2	77.9	29.3	0
20673	2012-06-07T08:00:00	44	ND	ND	ND	ND	ND	0.3	159.5	24	69.8	223.5	0
20674	2012-06-07T09:00:00	83	ND	ND	1176.02	ND	ND	0.7	161.4	25.3	65.2	380.6	0
20675	2012-06-07T10:00:00	67	ND	ND	1158.23	ND	ND	0.8	133.3	26.9	59.7	580.7	0
20676	2012-06-07T11:00:00	68	ND	ND	1164.44	ND	ND	1.4	131.3	28.5	54.8	720.5	0
20677	2012-06-07T12:00:00	52	ND	ND	ND	ND	ND	1.2	108.4	29.4	51.8	805.8	0
20678	2012-06-07T13:00:00	64	ND	ND	ND	ND	ND	1.2	102.2	31.2	46.8	794.5	0
20679	2012-06-07T14:00:00	52	ND	ND	ND	ND	ND	1.7	103.7	32.2	43.8	770.8	0
20680	2012-06-07T15:00:00	93	ND	ND	ND	ND	ND	1	351.3	31.3	46.5	367.2	0
20681	2012-06-07T16:00:00	48	ND	ND	ND	ND	ND	3.9	280.3	30.6	46.9	391.2	0
20682	2012-06-07T17:00:00	62	ND	ND	ND	ND	ND	3.3	285.7	29.5	49.4	120.3	0
20683	2012-06-07T18:00:00	38	ND	ND	ND	ND	ND	3.7	277.9	28.1	53.4	37.9	0
20684	2012-06-07T19:00:00	38	ND	ND	ND	ND	ND	4.7	269.5	27.1	57.1	0	0
20685	2012-06-07T20:00:00	21	ND	ND	ND	ND	ND	3.8	272.8	26.9	57.6	0	0
20686	2012-06-07T21:00:00	17	ND	ND	ND	ND	ND	3.4	268.9	26.6	59.4	0	0
20687	2012-06-07T22:00:00	9	ND	ND	ND	ND	ND	1.9	230.7	26	63.1	0	0
20688	2012-06-07T23:00:00	20	ND	ND	ND	ND	ND	1.7	250.4	25.7	65.5	0	0
20689	2012-06-08T00:00:00	18	ND	ND	ND	ND	ND	0.6	273.7	25.4	66	0	0
20690	2012-06-08T01:00:00	23	ND	ND	ND	ND	ND	0.3	41.4	24.3	72.7	0	0
20691	2012-06-08T02:00:00	17	ND	ND	ND	ND	ND	1.4	163.3	24.1	74	0	0
20692	2012-06-08T03:00:00	38	ND	ND	ND	ND	ND	1.5	199	23.6	75.8	0	0
20693	2012-06-08T04:00:00	40	ND	ND	ND	ND	ND	1.1	177	23.2	77.4	0	0
20694	2012-06-08T05:00:00	39	ND	ND	ND	ND	ND	1.1	134.1	22.7	80.3	0	0
20695	2012-06-08T06:00:00	77	ND	ND	ND	ND	ND	0.1	ND	22.6	79.8	0	0
20696	2012-06-08T07:00:00	61	ND	ND	ND	ND	ND	0.3	301.5	23	77.8	47.1	0
20697	2012-06-08T08:00:00	74	ND	ND	ND	ND	ND	0.9	138.7	24	74.4	138.6	0
20698	2012-06-08T09:00:00	ND	ND	ND	ND	ND	ND	0.7	112.3	24.7	72.3	351.4	0
20699	2012-06-08T10:00:00	101	ND	ND	2014.24	ND	ND	0.4	13.8	26.5	63.8	513.3	0
20700	2012-06-08T11:00:00	91	ND	ND	1082.29	ND	ND	1.5	58.4	28.5	55.2	678.3	0
20701	2012-06-08T12:00:00	74	ND	ND	927.25	ND	ND	1.7	70.4	29.6	52.4	673.7	0
20702	2012-06-08T13:00:00	49	ND	ND	ND	ND	ND	1.2	41.5	30.6	49.2	721.3	0
20703	2012-06-08T14:00:00	33	ND	ND	ND	ND	ND	1.5	47.6	31.6	46.8	739.5	0
20704	2012-06-08T15:00:00	48	ND	ND	ND	ND	ND	1.7	289.7	30.9	45.9	357.4	0
20705	2012-06-08T16:00:00	30	ND	ND	ND	ND	ND	4.1	278.4	29.4	48.6	260.1	0
20706	2012-06-08T17:00:00	54	ND	ND	ND	ND	ND	3.6	279.9	28.2	52.1	96.5	0
20707	2012-06-08T18:00:00	30	ND	ND	ND	ND	ND	3	286.6	27.4	54.6	13.6	0
20708	2012-06-08T19:00:00	31	ND	ND	ND	ND	ND	2.7	301.1	26.5	56	0	0
20709	2012-06-08T20:00:00	22	ND	ND	ND	ND	ND	2.5	278.6	26.4	55.1	0	0
20710	2012-06-08T21:00:00	33	ND	ND	ND	ND	ND	2.1	249.9	24.1	72.2	0	6.1
20711	2012-06-08T22:00:00	20	ND	ND	ND	ND	ND	1.8	244.4	23.3	77.3	0	0.76
20712	2012-06-08T23:00:00	59	ND	ND	ND	ND	ND	1.3	162.8	23.2	76.1	0	0
20713	2012-06-09T00:00:00	39	ND	ND	ND	ND	ND	1	286	22.9	77.4	0	0
20714	2012-06-09T01:00:00	22	ND	ND	ND	ND	ND	1.3	263	22.6	75.9	0	0.25
20715	2012-06-09T02:00:00	15	ND	ND	ND	ND	ND	0.9	288.3	22.5	74.4	0	0
20716	2012-06-09T03:00:00	9	ND	ND	ND	ND	ND	0.8	267.9	22.1	75	0	0
20717	2012-06-09T04:00:00	5	ND	ND	ND	ND	ND	1.4	259.4	21.6	74.7	0	0
20718	2012-06-09T05:00:00	18	ND	ND	ND	ND	ND	0.6	202.8	20.9	83.1	0	0
20719	2012-06-09T06:00:00	56	ND	ND	ND	ND	ND	0.4	11	20.7	85.6	0	0
20720	2012-06-09T07:00:00	75	ND	ND	ND	ND	ND	0.4	329.1	21.1	82	41.1	0
20721	2012-06-09T08:00:00	70	ND	ND	ND	ND	ND	0.4	39.5	23	73.2	204.2	0
20722	2012-06-09T09:00:00	98	ND	ND	933.09	ND	ND	1.3	77	24.6	67.5	402.3	0
20723	2012-06-09T10:00:00	85	ND	ND	1018.22	ND	ND	1.2	107.7	26.1	61.7	587.3	0
20724	2012-06-09T11:00:00	66	ND	ND	1299.31	ND	ND	1.3	92.2	27.8	55.6	720.8	0
20725	2012-06-09T12:00:00	36	ND	ND	ND	ND	ND	0.9	77.2	28.6	52.6	540.1	0
20726	2012-06-09T13:00:00	63	ND	ND	ND	ND	ND	0.3	63.9	29.9	49.4	726.3	0
20727	2012-06-09T14:00:00	57	ND	ND	ND	ND	ND	1.3	124.5	30	49.8	438.4	0
20728	2012-06-09T15:00:00	56	ND	ND	ND	ND	ND	0.8	180.5	30.3	49.5	520	0
20729	2012-06-09T16:00:00	30	ND	ND	1061.04	ND	ND	2.7	279.8	30.8	46.7	513.2	0
20730	2012-06-09T17:00:00	17	ND	ND	ND	ND	ND	3.9	274	29.5	48.5	302.2	0
20731	2012-06-09T18:00:00	13	ND	ND	ND	ND	ND	3.9	273.7	28.2	51.8	88.6	0
20732	2012-06-09T19:00:00	8	ND	ND	ND	ND	ND	4.4	269.9	27.1	55	0	0
20733	2012-06-09T20:00:00	5	ND	ND	ND	ND	ND	3.9	264.9	26.8	55.8	0	0
20734	2012-06-09T21:00:00	9	ND	ND	ND	ND	ND	2.3	252.8	26.5	58.1	0	0
20735	2012-06-09T22:00:00	7	ND	ND	ND	ND	ND	2.3	253.5	26.1	59.7	0	0
20736	2012-06-09T23:00:00	20	ND	ND	ND	ND	ND	2	234.2	25.7	61.6	0	0
20737	2012-06-10T00:00:00	12	ND	ND	ND	ND	ND	1.2	210.2	25.3	63	0	0
20738	2012-06-10T01:00:00	34	ND	ND	ND	ND	ND	0.2	204.8	25	64.3	0	0
20739	2012-06-10T02:00:00	28	ND	ND	ND	ND	ND	0.8	123.5	24	67.6	0	0
20740	2012-06-10T03:00:00	33	ND	ND	ND	ND	ND	0.5	144.6	23.5	72.3	0	0
20741	2012-06-10T04:00:00	25	ND	ND	ND	ND	ND	0.5	130.9	23.1	74.6	0	0
20742	2012-06-10T05:00:00	36	ND	ND	ND	ND	ND	0.4	184.1	22.6	77.6	0	0
20743	2012-06-10T06:00:00	22	ND	ND	ND	ND	ND	0.4	ND	22.6	77.8	0	0
20744	2012-06-10T07:00:00	52	ND	ND	ND	ND	ND	0.6	55	22.2	79.3	24.5	0
20745	2012-06-10T08:00:00	59	ND	ND	ND	ND	ND	0.4	240.7	23.2	72.4	150.9	0
20746	2012-06-10T09:00:00	61	ND	ND	1024.82	ND	ND	0.4	178.6	25.3	64.3	354.9	0
20747	2012-06-10T10:00:00	60	ND	ND	ND	ND	ND	1.1	122	26.7	60.9	445.9	0
20748	2012-06-10T11:00:00	40	ND	ND	ND	ND	ND	1.3	61.8	27.8	56.9	577.6	0
20749	2012-06-10T12:00:00	36	ND	ND	ND	ND	ND	1.3	109.9	29	53.5	625.9	0
20750	2012-06-10T13:00:00	44	ND	ND	ND	ND	ND	1.1	129.2	30	49.8	679.5	0
20751	2012-06-10T14:00:00	24	ND	ND	ND	ND	ND	1.4	153.2	30.6	48.4	413.9	0
20752	2012-06-10T15:00:00	51	ND	ND	ND	ND	ND	1.2	94.1	31.2	46.3	552.2	0
20753	2012-06-10T16:00:00	36	ND	ND	ND	ND	ND	0.8	312.4	31.1	46.5	162.4	0
20754	2012-06-10T17:00:00	34	ND	ND	ND	ND	ND	3.3	278.4	29.9	50.5	148.4	0
20755	2012-06-10T18:00:00	18	ND	ND	ND	ND	ND	3.7	266.5	28.6	53.4	54.8	0
20756	2012-06-10T19:00:00	10	ND	ND	ND	ND	ND	3.2	263.2	27.7	56.5	0	0
20757	2012-06-10T20:00:00	7	ND	ND	ND	ND	ND	3.3	267.9	27	58.7	0	0
20758	2012-06-10T21:00:00	9	ND	ND	ND	ND	ND	3.8	268.2	26.8	59.1	0	0
20759	2012-06-10T22:00:00	6	ND	ND	ND	ND	ND	3.3	265.5	26.5	60.3	0	0
20760	2012-06-10T23:00:00	5	ND	ND	ND	ND	ND	0.7	290.6	26.3	62.4	0	0
20761	2012-06-11T00:00:00	26	ND	ND	ND	ND	ND	0.6	262.6	25.8	64.7	0	0
20762	2012-06-11T01:00:00	16	ND	ND	ND	ND	ND	2.1	225.2	25.7	64.4	0	0
20763	2012-06-11T02:00:00	10	ND	ND	ND	ND	ND	1.3	196.9	25.3	66.4	0	0
20764	2012-06-11T03:00:00	26	ND	ND	ND	ND	ND	0.6	92.4	24.6	71.3	0	0
20765	2012-06-11T04:00:00	21	ND	ND	ND	ND	ND	0.9	142.2	23.8	75.5	0	0
20766	2012-06-11T05:00:00	20	ND	ND	ND	ND	ND	0.2	132.6	23.5	76.2	0	0
20767	2012-06-11T06:00:00	16	ND	ND	ND	ND	ND	0.6	33.9	23.8	74	0	0
20768	2012-06-11T07:00:00	45	ND	ND	ND	ND	ND	0.7	84.8	23.5	75.7	49.6	0
20769	2012-06-11T08:00:00	28	ND	ND	ND	ND	ND	1.3	162.9	23.7	72.9	170	0
20770	2012-06-11T09:00:00	43	ND	ND	ND	ND	ND	1.1	202.1	25.1	66.2	311.3	0
20771	2012-06-11T10:00:00	30	ND	ND	ND	ND	ND	1	151.8	26.9	57.8	353.7	0
20772	2012-06-11T11:00:00	51	ND	ND	ND	ND	ND	1.1	94.9	27.8	55.6	487.5	0
20773	2012-06-11T12:00:00	55	ND	ND	ND	ND	ND	1	158.9	28.5	49.8	432.4	0
20774	2012-06-11T13:00:00	38	ND	ND	ND	ND	ND	0.7	183.3	29.7	45.9	640.4	0
20775	2012-06-11T14:00:00	35	ND	ND	ND	ND	ND	1.1	103	29.7	47.5	272.5	0
20776	2012-06-11T15:00:00	31	ND	ND	ND	ND	ND	3.1	270.6	29.2	49.8	216.8	0
20777	2012-06-11T16:00:00	18	ND	ND	ND	ND	ND	3.8	271.8	28	53.1	164.5	0
20778	2012-06-11T17:00:00	17	ND	ND	ND	ND	ND	3.7	275.7	27.9	51.9	153.2	0
20779	2012-06-11T18:00:00	12	ND	ND	ND	ND	ND	3.4	270.5	27.6	52.2	42	0
20780	2012-06-11T19:00:00	8	ND	ND	ND	ND	ND	3	268.9	26.9	53.8	0	0
20781	2012-06-11T20:00:00	6	ND	ND	ND	ND	ND	2.8	278.7	26.4	55.8	0	0
20782	2012-06-11T21:00:00	6	ND	ND	ND	ND	ND	3.4	271.8	25.9	58.7	0	0
20783	2012-06-11T22:00:00	5	ND	ND	ND	ND	ND	2.6	266.4	25.4	61.9	0	0
20784	2012-06-11T23:00:00	4	ND	ND	ND	ND	ND	0.4	317.4	25.1	63.6	0	0
20785	2012-06-12T00:00:00	8	ND	ND	ND	ND	ND	0.8	102.9	24.6	67	0	0
20786	2012-06-12T01:00:00	20	ND	ND	ND	ND	ND	1.5	155.7	23.8	73.4	0	0
20787	2012-06-12T02:00:00	27	ND	ND	ND	ND	ND	1.1	168.9	23.3	75	0	0
20788	2012-06-12T03:00:00	31	ND	ND	ND	ND	ND	1.2	114.1	22.9	77.8	0	0
20789	2012-06-12T04:00:00	19	ND	ND	ND	ND	ND	1.1	120.4	22.6	78.6	0	0
20790	2012-06-12T05:00:00	23	ND	ND	ND	ND	ND	0.3	78.1	22.1	85.7	0	0
20791	2012-06-12T06:00:00	14	ND	ND	ND	ND	ND	0.4	98.5	21.8	86.5	0	0
20792	2012-06-12T07:00:00	41	ND	ND	ND	ND	ND	0.4	62.1	21.8	87.9	19.3	0
20793	2012-06-12T08:00:00	45	ND	ND	ND	ND	ND	0.8	168.8	22.6	84.2	69.4	0
20794	2012-06-12T09:00:00	80	ND	ND	1159.11	ND	ND	1	155.3	23.3	79.9	188.8	0
20795	2012-06-12T10:00:00	54	ND	ND	2038.94	ND	ND	1.4	132.1	24.6	72.3	416.2	0
20796	2012-06-12T11:00:00	66	ND	ND	1922.04	ND	ND	1.2	93.6	25.5	66.8	416	0
20797	2012-06-12T12:00:00	44	ND	ND	929.50	ND	ND	1	67.1	26.6	62.7	563.6	0
20798	2012-06-12T13:00:00	64	ND	ND	ND	ND	ND	1.5	73.7	26.8	63.2	356.4	0
20799	2012-06-12T14:00:00	33	ND	ND	ND	ND	ND	1.2	61.1	27.2	60.7	260.9	0
20800	2012-06-12T15:00:00	38	ND	ND	ND	ND	ND	1.2	58.8	27.6	57.5	246.4	0
20801	2012-06-12T16:00:00	22	ND	ND	ND	ND	ND	1.3	45.3	27.6	56.5	160.4	0
20802	2012-06-12T17:00:00	29	ND	ND	ND	ND	ND	3	297	26.9	53.9	146.3	0
20803	2012-06-12T18:00:00	24	ND	ND	922.33	ND	ND	2.7	282.5	26.3	54.4	32.8	0
20804	2012-06-12T19:00:00	18	ND	ND	ND	ND	ND	3.5	275.4	25.4	56	0	0
20805	2012-06-12T20:00:00	10	ND	ND	ND	ND	ND	3	274.7	25.5	55.2	0	0
20806	2012-06-12T21:00:00	12	ND	ND	ND	ND	ND	3.3	269	25.3	56.7	0	0
20807	2012-06-12T22:00:00	14	ND	ND	ND	ND	ND	0.4	310.2	24.7	62.3	0	0
20808	2012-06-12T23:00:00	16	ND	ND	ND	ND	ND	1.2	242	24.7	61.8	0	0
20809	2012-06-13T00:00:00	18	ND	ND	ND	ND	ND	1.7	177.3	23.5	72.2	0	0
20810	2012-06-13T01:00:00	41	ND	ND	ND	ND	ND	1.1	193	23.3	71.4	0	0
20811	2012-06-13T02:00:00	21	ND	ND	ND	ND	ND	1	167.3	23.1	70.9	0	0
20812	2012-06-13T03:00:00	12	ND	ND	ND	ND	ND	0.8	135.7	22.2	75.1	0	0
20813	2012-06-13T04:00:00	7	ND	ND	ND	ND	ND	0.6	186.6	22.2	75.2	0	0
20814	2012-06-13T05:00:00	36	ND	ND	ND	ND	ND	0.6	140.5	21.9	77.7	0	0
20815	2012-06-13T06:00:00	19	ND	ND	ND	ND	ND	0.5	94.4	21.6	81	0	0
20816	2012-06-13T07:00:00	18	ND	ND	ND	ND	ND	0.1	140.9	21.6	80.5	13.4	0
20817	2012-06-13T08:00:00	11	ND	ND	ND	ND	ND	0.9	181.9	22.2	77.7	79.7	0
20818	2012-06-13T09:00:00	35	ND	ND	ND	ND	ND	0.7	118.2	23.4	72	282.5	0
20819	2012-06-13T10:00:00	60	ND	ND	1185.03	ND	ND	1	141.1	24.6	66.8	342.1	0
20820	2012-06-13T11:00:00	33	ND	ND	1258.48	ND	ND	0.9	100.7	26.2	59.2	512.8	0
20821	2012-06-13T12:00:00	34	ND	ND	ND	ND	ND	1.3	96.8	27	56.8	513.5	0
20822	2012-06-13T13:00:00	44	ND	ND	ND	ND	ND	0.9	117	28.7	51	809.4	0
20823	2012-06-13T14:00:00	36	ND	ND	1078.64	ND	ND	1.7	43.2	29	51.2	506.1	0
20824	2012-06-13T15:00:00	49	ND	ND	952.01	ND	ND	2.1	41.4	28.9	53.8	339.8	0
20825	2012-06-13T16:00:00	34	ND	ND	ND	ND	ND	1.4	289.9	28.9	50.7	387.8	0
20826	2012-06-13T17:00:00	27	ND	ND	951.69	ND	ND	3.4	281.6	28.8	49.4	328.4	0
20827	2012-06-13T18:00:00	35	ND	ND	ND	ND	ND	3.1	288.2	27.3	54.8	96.1	0
20828	2012-06-13T19:00:00	18	ND	ND	ND	ND	ND	3.7	268.4	25.8	58.4	0	0
20829	2012-06-13T20:00:00	10	ND	ND	ND	ND	ND	3.3	277.6	25.6	57	0	0
20830	2012-06-13T21:00:00	18	ND	ND	ND	ND	ND	0.6	307.2	25.5	57.4	0	0
20831	2012-06-13T22:00:00	10	ND	ND	ND	ND	ND	0.6	304.7	25.1	58.4	0	0
20832	2012-06-13T23:00:00	22	ND	ND	ND	ND	ND	1.1	279.7	25	57.7	0	0
20833	2012-06-14T00:00:00	18	ND	ND	905.03	ND	ND	0.8	165.3	24	64.9	0	0
20834	2012-06-14T01:00:00	10	ND	ND	ND	ND	ND	1.2	161.3	23	71.3	0	0
20835	2012-06-14T02:00:00	32	ND	ND	ND	ND	ND	1.4	181.3	22.7	73.5	0	0
20836	2012-06-14T03:00:00	17	ND	ND	ND	ND	ND	1.1	187	22.6	73.8	0	0
20837	2012-06-14T04:00:00	10	ND	ND	ND	ND	ND	0.6	169.6	22.5	75.3	0	0
20838	2012-06-14T05:00:00	48	ND	ND	ND	ND	ND	0.5	149.5	22.3	76.7	0	0
20839	2012-06-14T06:00:00	42	ND	ND	ND	ND	ND	0.2	48.2	22.1	77.3	0	0
20840	2012-06-14T07:00:00	57	ND	ND	ND	ND	ND	0.2	ND	22.1	77.5	30	0
20841	2012-06-14T08:00:00	55	ND	ND	ND	ND	ND	0.8	99.6	23.2	74.1	207.1	0
20842	2012-06-14T09:00:00	90	ND	ND	ND	ND	ND	1.1	78.3	24.9	67.5	404.5	0
20843	2012-06-14T10:00:00	83	ND	ND	2072.85	ND	ND	1	73.5	25.6	63.5	484.9	0
20844	2012-06-14T11:00:00	84	ND	ND	1894.06	ND	ND	1.5	65.1	26.9	58.4	578.4	0
20845	2012-06-14T12:00:00	68	ND	ND	1406.55	ND	ND	1.5	77.5	28.1	52.7	737.5	0
20846	2012-06-14T13:00:00	34	ND	ND	937.60	ND	ND	1.3	78.2	28.9	50.5	519.2	0
20847	2012-06-14T14:00:00	20	ND	ND	916.87	ND	ND	0.8	74.1	28.9	51.1	395.7	0
20848	2012-06-14T15:00:00	46	ND	ND	ND	ND	ND	0.7	134.4	29	49.6	167.1	0
20849	2012-06-14T16:00:00	28	ND	ND	ND	ND	ND	1.7	277.7	28.5	51	133.1	0
20850	2012-06-14T17:00:00	43	ND	ND	950.43	ND	ND	1.2	290.3	28.5	50.7	142.2	0
20851	2012-06-14T18:00:00	35	ND	ND	ND	ND	ND	0.6	16	28.4	51.9	86.3	0
20852	2012-06-14T19:00:00	56	ND	ND	915.36	ND	ND	2.6	270	26.9	57.2	0	0
20853	2012-06-14T20:00:00	37	ND	ND	1233.62	ND	ND	3	264.5	26.1	59.1	0	0
20854	2012-06-14T21:00:00	30	ND	ND	942.87	ND	ND	2.3	274.8	25.7	59.5	0	0
20855	2012-06-14T22:00:00	18	ND	ND	ND	ND	ND	1.1	258.1	25.2	61.3	0	0
20856	2012-06-14T23:00:00	11	ND	ND	ND	ND	ND	2.3	228.9	24.9	61.5	0	0
20857	2012-06-15T00:00:00	18	ND	ND	ND	ND	ND	0.6	301.7	24.4	66.2	0	0
20858	2012-06-15T01:00:00	41	ND	ND	ND	ND	ND	0.2	ND	24.1	68.5	0	0
20859	2012-06-15T02:00:00	21	ND	ND	ND	ND	ND	0.6	181.5	24	68.8	0	0
20860	2012-06-15T03:00:00	77	ND	ND	ND	ND	ND	1.3	169.8	23.6	73.4	0	0
20861	2012-06-15T04:00:00	73	ND	ND	ND	ND	ND	0.9	128.9	22.8	77.6	0	0
20862	2012-06-15T05:00:00	79	ND	ND	ND	ND	ND	1.2	193.9	22.5	78.1	0	0
20863	2012-06-15T06:00:00	66	ND	ND	ND	ND	ND	1	217.9	22.2	77.7	0	0
20864	2012-06-15T07:00:00	54	ND	ND	ND	ND	ND	1	175.9	22.5	76.7	42.7	0
20865	2012-06-15T08:00:00	66	ND	ND	ND	ND	ND	0.7	250.4	23.4	71.6	175.6	0
20866	2012-06-15T09:00:00	60	ND	ND	1173.64	ND	ND	1.2	114.4	24.8	67.4	369.4	0
20867	2012-06-15T10:00:00	42	ND	ND	1144.84	ND	ND	0.3	153.3	26.2	61.1	528.1	0
20868	2012-06-15T11:00:00	89	ND	ND	1184.73	ND	ND	1.2	86.5	27.9	54.5	722.2	0
20869	2012-06-15T12:00:00	48	ND	ND	ND	ND	ND	0.9	329.7	28.6	51.8	493.5	0
20870	2012-06-15T13:00:00	59	ND	ND	ND	ND	ND	1.3	10.5	29.9	47.6	612.6	0
20871	2012-06-15T14:00:00	46	ND	ND	ND	ND	ND	2.2	71.6	30.4	45.8	549.3	0
20872	2012-06-15T15:00:00	47	ND	ND	ND	ND	ND	1.6	32.3	30.5	45.2	425	0
20873	2012-06-15T16:00:00	49	ND	ND	1003.41	ND	ND	4.9	277.5	29.2	49.5	524.6	0
20874	2012-06-15T17:00:00	48	ND	ND	ND	ND	ND	5	283.7	27.7	51.5	282.1	0
20875	2012-06-15T18:00:00	36	ND	ND	ND	ND	ND	4.3	290.5	26.9	50.7	55.5	0
20876	2012-06-15T19:00:00	37	ND	ND	ND	ND	ND	5.6	274.1	26.2	50.2	0	0
20877	2012-06-15T20:00:00	32	ND	ND	ND	ND	ND	2.3	208.6	24.8	59.6	0	0
20878	2012-06-15T21:00:00	64	ND	ND	ND	ND	ND	2.4	179.4	22.9	74.5	0	0
20879	2012-06-15T22:00:00	34	ND	ND	ND	ND	ND	2.1	197.5	22.6	75.1	0	0
20880	2012-06-15T23:00:00	46	ND	ND	931.83	ND	ND	1.5	186.8	22.2	78.2	0	0
20881	2012-06-16T00:00:00	27	ND	ND	ND	ND	ND	0.9	186.7	22.1	76.6	0	0
20882	2012-06-16T01:00:00	14	ND	ND	ND	ND	ND	0.4	137.6	22	78.2	0	0.25
20883	2012-06-16T02:00:00	10	ND	ND	ND	ND	ND	1	146.7	20.5	87	0	0
20884	2012-06-16T03:00:00	12	ND	ND	ND	ND	ND	0.2	ND	20.5	86.2	0	0
20885	2012-06-16T04:00:00	9	ND	ND	ND	ND	ND	0.7	141.4	21.1	83.6	0	0
20886	2012-06-16T05:00:00	32	ND	ND	ND	ND	ND	0.2	27.4	20.9	84.5	0	0
20887	2012-06-16T06:00:00	30	ND	ND	ND	ND	ND	0.8	41.7	21.2	84.2	0	0
20888	2012-06-16T07:00:00	49	ND	ND	ND	ND	ND	0.6	64.4	21	87.2	7	0.76
20889	2012-06-16T08:00:00	25	ND	ND	ND	ND	ND	0.9	65.3	20.3	92	21.9	1.02
20890	2012-06-16T09:00:00	59	ND	ND	1477.08	ND	ND	0.5	32.1	20.3	93.1	107.5	7.11
20891	2012-06-16T10:00:00	64	ND	ND	1589.83	ND	ND	1.7	27.6	22.1	85.5	373	0.25
20892	2012-06-16T11:00:00	71	ND	ND	1542.86	ND	ND	2.2	43.1	22.9	79.2	330.5	0
20893	2012-06-16T12:00:00	39	ND	ND	1160.28	ND	ND	2.4	36.8	24	72.1	575.7	0
20894	2012-06-16T13:00:00	26	ND	ND	1130.35	ND	ND	1.8	38.6	25.2	65.7	632.3	0
20895	2012-06-16T14:00:00	16	ND	ND	ND	ND	ND	1.3	64.8	26.5	57.8	651.7	0
20896	2012-06-16T15:00:00	17	ND	ND	ND	ND	ND	1.2	71.8	27.6	50.8	590.2	0
20897	2012-06-16T16:00:00	15	ND	ND	1016.93	ND	ND	1	67	27.7	49.4	225.8	0
20898	2012-06-16T17:00:00	24	ND	ND	1075.07	ND	ND	2.1	30.6	27	52.3	141	0
20899	2012-06-16T18:00:00	27	ND	ND	1061.03	ND	ND	2.2	23.3	26.2	54.6	16.1	0
20900	2012-06-16T19:00:00	33	ND	ND	1058.20	ND	ND	1.6	28.5	25.1	59.5	0	0
20901	2012-06-16T20:00:00	30	ND	ND	1226.21	ND	ND	1.1	276.4	24.7	62.7	0	0
20902	2012-06-16T21:00:00	32	ND	ND	1190.23	ND	ND	0.8	52	23.7	68.4	0	0
20903	2012-06-16T22:00:00	40	ND	ND	923.89	ND	ND	0.7	77.9	23.3	72.7	0	0
20904	2012-06-16T23:00:00	56	ND	ND	1480.79	ND	ND	0.5	64.5	22.8	75.4	0	0
20905	2012-06-17T00:00:00	40	ND	ND	1876.30	ND	ND	1.1	156.7	22.8	75.9	0	0
20906	2012-06-17T01:00:00	47	ND	ND	1296.35	ND	ND	1.1	163	22.2	79.2	0	0
20907	2012-06-17T02:00:00	32	ND	ND	1475.30	ND	ND	1	164.3	21.8	81	0	0
20908	2012-06-17T03:00:00	26	ND	ND	ND	ND	ND	0.8	212.4	21.8	79.7	0	0
20909	2012-06-17T04:00:00	15	ND	ND	ND	ND	ND	0.8	255.5	21.9	72.7	0	0
20910	2012-06-17T05:00:00	18	ND	ND	ND	ND	ND	0.8	242	22	71.2	0	0
20911	2012-06-17T06:00:00	27	ND	ND	ND	ND	ND	0.3	138.8	21.9	75.9	0	0
20912	2012-06-17T07:00:00	51	ND	ND	ND	ND	ND	0.6	12.7	21.5	83.5	17.5	0
20913	2012-06-17T08:00:00	45	ND	ND	ND	ND	ND	0.6	ND	22	81.1	70.6	0
20914	2012-06-17T09:00:00	63	ND	ND	ND	ND	ND	0.6	139.3	23.4	74.6	243.1	0
20915	2012-06-17T10:00:00	33	ND	ND	934.35	ND	ND	1	103.1	24.9	66	541.5	0
20916	2012-06-17T11:00:00	20	ND	ND	ND	ND	ND	0.9	108.5	26.6	55.5	663.1	0
20917	2012-06-17T12:00:00	11	ND	ND	ND	ND	ND	0.9	121.5	27.6	49.9	773.9	0
20918	2012-06-17T13:00:00	7	ND	ND	ND	ND	ND	0.7	142.9	29.3	42.8	844.3	0
20919	2012-06-17T14:00:00	6	ND	ND	ND	ND	ND	0.5	46	30.8	36.2	792.8	0
20920	2012-06-17T15:00:00	5	ND	ND	ND	ND	ND	1.1	28.1	32	34.9	617.5	0
20921	2012-06-17T16:00:00	5	ND	ND	ND	ND	ND	1.6	7.1	32.3	36.4	489.3	0
20922	2012-06-17T17:00:00	4	ND	ND	ND	ND	ND	1.8	19.4	31.2	38.9	249.3	0
20923	2012-06-17T18:00:00	5	ND	ND	ND	ND	ND	1.6	355.3	30.3	43	62.5	0
20924	2012-06-17T19:00:00	27	ND	ND	ND	ND	ND	1.7	281.5	28.5	50.7	0	0
20925	2012-06-17T20:00:00	14	ND	ND	ND	ND	ND	2.7	270.9	26.7	56.1	0	0
20926	2012-06-17T21:00:00	29	ND	ND	ND	ND	ND	2.2	278.9	26	57.6	0	0
20927	2012-06-17T22:00:00	16	ND	ND	ND	ND	ND	1.8	279	25.9	56.5	0	0
20928	2012-06-17T23:00:00	10	ND	ND	ND	ND	ND	2.2	272.9	25.4	58.8	0	0
20929	2012-06-18T00:00:00	14	ND	ND	ND	ND	ND	1.3	186.5	24.6	65.4	0	0
20930	2012-06-18T01:00:00	32	ND	ND	ND	ND	ND	2.2	185.1	23.5	73.4	0	0
20931	2012-06-18T02:00:00	19	ND	ND	ND	ND	ND	1.5	194.5	23.4	73.1	0	0
20932	2012-06-18T03:00:00	12	ND	ND	ND	ND	ND	1.3	244.1	23.5	68.2	0	0
20933	2012-06-18T04:00:00	8	ND	ND	ND	ND	ND	1.3	234.7	23.4	67.3	0	0
20934	2012-06-18T05:00:00	5	ND	ND	ND	ND	ND	0.6	240.7	23.2	67	0	0
20935	2012-06-18T06:00:00	14	ND	ND	ND	ND	ND	1	136.7	22.2	77.7	0	0
20936	2012-06-18T07:00:00	26	ND	ND	ND	ND	ND	0.9	160.7	21.7	79.2	20.9	0
20937	2012-06-18T08:00:00	16	ND	ND	ND	ND	ND	0.9	193.7	22.1	79.7	76.8	0
20938	2012-06-18T09:00:00	28	ND	ND	ND	ND	ND	1.5	203.2	23.5	71.4	330.1	0
20939	2012-06-18T10:00:00	17	ND	ND	ND	ND	ND	1.5	163.4	25.8	62.7	587.8	0
20940	2012-06-18T11:00:00	28	ND	ND	ND	ND	ND	1.4	141.5	27.4	55.9	747.4	0
20941	2012-06-18T12:00:00	19	ND	ND	ND	ND	ND	1	64.8	28.6	52	695.9	0
20942	2012-06-18T13:00:00	32	ND	ND	ND	ND	ND	0.9	54.3	29.7	48.1	566.1	0
20943	2012-06-18T14:00:00	28	ND	ND	ND	ND	ND	0.9	358.7	31	44.1	695.2	0
20944	2012-06-18T15:00:00	33	ND	ND	ND	ND	ND	1.8	7.2	31	43.3	468.1	0
20945	2012-06-18T16:00:00	19	ND	ND	ND	ND	ND	3.2	289.6	30.3	45.1	438.4	0
20946	2012-06-18T17:00:00	13	ND	ND	ND	ND	ND	3.1	285.7	29.5	47.4	262.1	0
20947	2012-06-18T18:00:00	8	ND	ND	ND	ND	ND	2.6	282.6	27.8	52	61.1	0
20948	2012-06-18T19:00:00	12	ND	ND	ND	ND	ND	3.1	280.4	26.7	54.2	0	0
20949	2012-06-18T20:00:00	9	ND	ND	ND	ND	ND	3.3	282.7	26.6	52.5	0	0
20950	2012-06-18T21:00:00	7	ND	ND	ND	ND	ND	0.8	312.9	26.5	54.6	0	0
20951	2012-06-18T22:00:00	32	ND	ND	ND	ND	ND	1	96.6	24.9	63.1	0	0
20952	2012-06-18T23:00:00	22	ND	ND	ND	ND	ND	1	180.9	24.8	63.7	0	0
20953	2012-06-19T00:00:00	14	ND	ND	1202.08	ND	ND	1.4	199.4	24.5	65.3	0	0
20954	2012-06-19T01:00:00	21	ND	ND	ND	ND	ND	1.1	145.9	24	67.6	0	0
20955	2012-06-19T02:00:00	16	ND	ND	ND	ND	ND	0.9	163.7	22.9	74.2	0	0
20956	2012-06-19T03:00:00	30	ND	ND	ND	ND	ND	0.2	49.5	22.7	76.6	0	0
20957	2012-06-19T04:00:00	20	ND	ND	ND	ND	ND	1.5	11.8	21.9	76.9	0	2.29
20958	2012-06-19T05:00:00	39	ND	ND	ND	ND	ND	1.1	51.8	20.8	79.1	0	1.78
20959	2012-06-19T06:00:00	22	ND	ND	ND	ND	ND	1.3	35.1	19.8	85.4	0	1.52
20960	2012-06-19T07:00:00	12	ND	ND	ND	ND	ND	1.6	196.5	19.9	86	8.6	0.51
20961	2012-06-19T08:00:00	8	ND	ND	ND	ND	ND	0.8	188.8	20	86.9	60.8	0
20962	2012-06-19T09:00:00	5	ND	ND	1025.01	ND	ND	0.8	88.9	22	79.6	426.8	0
20963	2012-06-19T10:00:00	30	ND	ND	1462.96	ND	ND	1.4	65.6	23.4	74.1	567.4	0
20964	2012-06-19T11:00:00	31	ND	ND	1731.97	ND	ND	0.7	37.7	25.5	62.1	723.6	0
20965	2012-06-19T12:00:00	18	ND	ND	1273.76	ND	ND	0.8	51.8	27.4	54.1	819.8	0
20966	2012-06-19T13:00:00	28	ND	ND	ND	ND	ND	2	49	28.6	52.9	740.4	0
20967	2012-06-19T14:00:00	18	ND	ND	ND	ND	ND	3.7	278.4	29.4	45.6	811.4	0
20968	2012-06-19T15:00:00	12	ND	ND	953.27	ND	ND	3.8	291.9	29.8	43	686.4	0
20969	2012-06-19T16:00:00	8	ND	ND	ND	ND	ND	4	279	29.6	44	530.5	0
20970	2012-06-19T17:00:00	9	ND	ND	ND	ND	ND	4.3	281.2	28.6	45.6	327.7	0
20971	2012-06-19T18:00:00	16	ND	ND	ND	ND	ND	4.2	270.6	27.2	49.4	126.3	0
20972	2012-06-19T19:00:00	31	ND	ND	ND	ND	ND	3.5	276.2	26.7	47.8	0.6	0
20973	2012-06-19T20:00:00	28	ND	ND	ND	ND	ND	2.3	281.1	26.2	49.1	0	0
20974	2012-06-19T21:00:00	23	ND	ND	ND	ND	ND	1	270	25.5	52.3	0	0
20975	2012-06-19T22:00:00	19	ND	ND	ND	ND	ND	1.7	244.6	24.9	55.9	0	0
20976	2012-06-19T23:00:00	12	ND	ND	ND	ND	ND	1.4	234.9	24.4	58.5	0	0
20977	2012-06-20T00:00:00	10	ND	ND	ND	ND	ND	0.9	316.1	23.7	62.4	0	0
20978	2012-06-20T01:00:00	34	ND	ND	ND	ND	ND	0.5	223.3	23	65.8	0	0
20979	2012-06-20T02:00:00	18	ND	ND	921.71	ND	ND	0.4	236.2	22.7	64.4	0	0
20980	2012-06-20T03:00:00	11	ND	ND	ND	ND	ND	0.9	269	22.4	65	0	0
20981	2012-06-20T04:00:00	10	ND	ND	ND	ND	ND	0.6	229	22.3	68.1	0	0
20982	2012-06-20T05:00:00	8	ND	ND	ND	ND	ND	0.3	45.4	22.1	72.7	0	0
20983	2012-06-20T06:00:00	5	ND	ND	ND	ND	ND	1	197.4	21.8	73.1	0	0
20984	2012-06-20T07:00:00	44	ND	ND	ND	ND	ND	0.3	156.4	22.1	72	46.6	0
20985	2012-06-20T08:00:00	24	ND	ND	ND	ND	ND	0.2	344.1	23.2	66.1	157	0
20986	2012-06-20T09:00:00	46	ND	ND	1867.45	ND	ND	0.2	157	24.7	62.4	345.9	0
20987	2012-06-20T10:00:00	61	ND	ND	1270.34	ND	ND	1	70.1	26.4	56.8	481.2	0
20988	2012-06-20T11:00:00	51	ND	ND	1622.90	ND	ND	1.2	58.3	27.3	55.3	657.3	0
20989	2012-06-20T12:00:00	54	ND	ND	1154.45	ND	ND	1.7	97.3	28.5	51.6	664.4	0
20990	2012-06-20T13:00:00	47	ND	ND	1031.57	ND	ND	1.8	81.7	29.8	48.1	803.6	0
20991	2012-06-20T14:00:00	25	ND	ND	1164.06	ND	ND	0.9	56.5	30.5	46.4	434.9	0
20992	2012-06-20T15:00:00	54	ND	ND	1190.09	ND	ND	2.7	280.6	29.6	47.5	345.3	0
20993	2012-06-20T16:00:00	28	ND	ND	977.16	ND	ND	4.1	278.1	29.3	47.2	452.7	0
20994	2012-06-20T17:00:00	46	ND	ND	941.33	ND	ND	4.1	278.9	28	51	167.5	0
20995	2012-06-20T18:00:00	36	ND	ND	ND	ND	ND	5	272.3	26.7	55.2	61.8	0
20996	2012-06-20T19:00:00	31	ND	ND	ND	ND	ND	4.9	276.6	26	57	0	0
20997	2012-06-20T20:00:00	24	ND	ND	ND	ND	ND	4.5	279.6	25.5	59	0	0
20998	2012-06-20T21:00:00	20	ND	ND	918.02	ND	ND	2.8	274.5	25.5	58.5	0	0
20999	2012-06-20T22:00:00	12	ND	ND	ND	ND	ND	2.2	261.8	25.3	59.9	0	0
21000	2012-06-20T23:00:00	9	ND	ND	ND	ND	ND	2	226.2	24.7	63	0	0
21001	2012-06-21T00:00:00	6	ND	ND	ND	ND	ND	1.4	227.3	24.6	63.5	0	0
21002	2012-06-21T01:00:00	25	ND	ND	ND	ND	ND	0.6	339.7	24.1	67.4	0	0
21003	2012-06-21T02:00:00	31	ND	ND	ND	ND	ND	0	35.2	23.8	69.2	0	0
21004	2012-06-21T03:00:00	55	ND	ND	ND	ND	ND	0.5	146.2	23.2	73.3	0	0
21005	2012-06-21T04:00:00	30	ND	ND	ND	ND	ND	1.4	212.6	21.3	84.6	0	1.78
21006	2012-06-21T05:00:00	37	ND	ND	ND	ND	ND	0.3	102.3	21.2	84.9	0	0.51
21007	2012-06-21T06:00:00	25	ND	ND	ND	ND	ND	0.8	98.6	20.8	86.3	0	0
21008	2012-06-21T07:00:00	28	ND	ND	ND	ND	ND	0.5	52.4	20.9	84.5	15.2	0
21009	2012-06-21T08:00:00	22	ND	ND	ND	ND	ND	1	48.4	21.1	84.3	88.5	0
21010	2012-06-21T09:00:00	39	ND	ND	1153.23	ND	ND	0.8	61.5	22	80	189	0
21011	2012-06-21T10:00:00	45	ND	ND	1610.39	ND	ND	1	43.2	23.8	71.4	459.6	0
21012	2012-06-21T11:00:00	36	ND	ND	1597.39	ND	ND	1.2	139.2	25.1	65	670.6	0
21013	2012-06-21T12:00:00	44	ND	ND	1077.23	ND	ND	0.9	100.1	26.7	58.1	706.3	0
21014	2012-06-21T13:00:00	39	ND	ND	1106.06	ND	ND	1	83.8	27.9	53.1	659.6	0
21015	2012-06-21T14:00:00	22	ND	ND	1017.95	ND	ND	1.2	27.4	29	49.4	605.4	0
21016	2012-06-21T15:00:00	24	ND	ND	1172.59	ND	ND	1.2	13.5	28.9	49.9	229.8	0
21017	2012-06-21T16:00:00	13	ND	ND	ND	ND	ND	2.3	287.7	29.2	46.9	504.5	0
21018	2012-06-21T17:00:00	8	ND	ND	929.40	ND	ND	3.4	280.2	28.4	48.4	267.3	0
21019	2012-06-21T18:00:00	6	ND	ND	ND	ND	ND	3.5	279.9	27	51.6	110.3	0
21020	2012-06-21T19:00:00	28	ND	ND	ND	ND	ND	3.5	279.9	26	55.1	0	0
21021	2012-06-21T20:00:00	15	ND	ND	1011.52	ND	ND	3.6	265	25.1	58.5	0	0
21022	2012-06-21T21:00:00	8	ND	ND	939.71	ND	ND	2.2	253.8	24.8	59.6	0	0
21023	2012-06-21T22:00:00	5	ND	ND	ND	ND	ND	1.4	258.5	24.2	63	0	0
21024	2012-06-21T23:00:00	14	ND	ND	ND	ND	ND	1.4	198.6	23.1	68.9	0	0
21025	2012-06-22T00:00:00	11	ND	ND	ND	ND	ND	0.9	187.5	22.7	70.5	0	0
21026	2012-06-22T01:00:00	34	ND	ND	ND	ND	ND	0.4	213.7	22.4	69.7	0	0
21027	2012-06-22T02:00:00	18	ND	ND	ND	ND	ND	0.7	251.8	21.9	70.1	0	0
21028	2012-06-22T03:00:00	10	ND	ND	ND	ND	ND	0.4	257.5	21.6	72.8	0	0
21029	2012-06-22T04:00:00	14	ND	ND	ND	ND	ND	0.8	235.4	21.5	72	0	0
21030	2012-06-22T05:00:00	50	ND	ND	ND	ND	ND	0.3	92.8	20.9	79.5	0	0
21031	2012-06-22T06:00:00	53	ND	ND	ND	ND	ND	0.6	55.5	20	84.4	0	0
21032	2012-06-22T07:00:00	92	ND	ND	ND	ND	ND	0.8	26.9	20.3	82.5	38.7	0
21033	2012-06-22T08:00:00	114	ND	ND	947.13	ND	ND	1.1	71.1	21	79.4	159.7	0
21034	2012-06-22T09:00:00	114	ND	ND	1740.55	ND	ND	0.8	42.4	22.9	71	323.6	0
21035	2012-06-22T10:00:00	86	ND	ND	2582.20	ND	ND	0.8	112.8	25	61.7	572.4	0
21036	2012-06-22T11:00:00	86	ND	ND	1672.59	ND	ND	1.1	130.7	26.9	54.3	667.2	0
21037	2012-06-22T12:00:00	47	ND	ND	1337.38	ND	ND	1.2	116.6	28.2	50.6	818.6	0
21038	2012-06-22T13:00:00	72	ND	ND	1401.07	ND	ND	1	87.7	29.4	47.2	810.5	0
21039	2012-06-22T14:00:00	38	ND	ND	1185.77	ND	ND	0.9	145.2	30.8	41.2	782.8	0
21040	2012-06-22T15:00:00	50	ND	ND	1308.05	ND	ND	1	92.4	31.6	37	633.6	0
21041	2012-06-22T16:00:00	28	ND	ND	960.20	ND	ND	0.8	304.6	31.2	38.6	353.6	0
21042	2012-06-22T17:00:00	31	ND	ND	947.25	ND	ND	3.7	285.4	29.9	45	293.4	0
21043	2012-06-22T18:00:00	17	ND	ND	943.20	ND	ND	3.4	291.5	28.1	49.7	104.9	0
21044	2012-06-22T19:00:00	40	ND	ND	ND	ND	ND	2.6	289.7	26.9	52.2	0	0
21045	2012-06-22T20:00:00	29	ND	ND	922.33	ND	ND	4.2	270.6	26.2	54.4	0	0
21046	2012-06-22T21:00:00	28	ND	ND	1230.74	ND	ND	2.8	272.1	25.8	55.8	0	0
21047	2012-06-22T22:00:00	17	ND	ND	ND	ND	ND	1.8	248.8	25.2	58.3	0	0
21048	2012-06-22T23:00:00	21	ND	ND	ND	ND	ND	2.3	234.9	24.6	59.4	0	0
21049	2012-06-23T00:00:00	13	ND	ND	ND	ND	ND	0.1	309.4	24	63.4	0	0
21050	2012-06-23T01:00:00	51	ND	ND	ND	ND	ND	0.9	118.8	23	71.7	0	0
21051	2012-06-23T02:00:00	48	ND	ND	1251.71	ND	ND	0.6	47	22.1	74.6	0	0
21052	2012-06-23T03:00:00	75	ND	ND	1338.66	ND	ND	0.8	67.4	21.4	77.3	0	0
21053	2012-06-23T04:00:00	53	ND	ND	ND	ND	ND	1.2	200.6	20.7	79.2	0	0
21054	2012-06-23T05:00:00	63	ND	ND	ND	ND	ND	1.1	184.5	20.8	77.2	0	0
21055	2012-06-23T06:00:00	48	ND	ND	ND	ND	ND	0.3	ND	20.8	77.3	0	0
21056	2012-06-23T07:00:00	55	ND	ND	ND	ND	ND	0.3	227.6	20.8	75.4	10.6	0
21057	2012-06-23T08:00:00	49	ND	ND	ND	ND	ND	0.4	224.1	21.6	69.6	124.8	0
21058	2012-06-23T09:00:00	77	ND	ND	1121.21	ND	ND	0.9	53.6	22.9	68.7	337.8	0
21059	2012-06-23T10:00:00	76	ND	ND	1581.17	ND	ND	1.2	108.5	23.9	64.1	265.7	0
21060	2012-06-23T11:00:00	102	ND	ND	2408.31	ND	ND	0.9	122.3	24.6	63	432.7	0
21061	2012-06-23T12:00:00	103	ND	ND	1773.31	ND	ND	1.5	152.6	25.3	59.3	414.8	0
21062	2012-06-23T13:00:00	78	ND	ND	1330.24	ND	ND	1.9	131	25.5	58.8	353.7	0
21063	2012-06-23T14:00:00	79	ND	ND	1399.99	ND	ND	1.3	120.8	26	56.4	282.9	0
21064	2012-06-23T15:00:00	53	ND	ND	1379.34	ND	ND	0.8	94.5	26.3	55.2	238.6	0
21065	2012-06-23T16:00:00	52	ND	ND	1656.87	ND	ND	1.2	123.8	26.8	54.4	289	0
21066	2012-06-23T17:00:00	74	ND	ND	1475.23	ND	ND	1.3	147.4	26.4	55.8	132.2	0
21067	2012-06-23T18:00:00	66	ND	ND	1553.84	ND	ND	0.8	205.6	25.9	57.4	45	0
21068	2012-06-23T19:00:00	91	ND	ND	1321.43	ND	ND	0.5	216.7	25.8	58	0	0
21069	2012-06-23T20:00:00	83	ND	ND	1045.30	ND	ND	0.7	226.7	25.3	59.4	0	0
21070	2012-06-23T21:00:00	52	ND	ND	1456.39	ND	ND	2	251.6	24.4	60.1	0	0
21071	2012-06-23T22:00:00	51	ND	ND	1314.80	ND	ND	0.4	259.6	24	61.6	0	0
21072	2012-06-23T23:00:00	91	ND	ND	ND	ND	ND	1	26.3	23	72.5	0	0
21073	2012-06-24T00:00:00	111	ND	ND	1445.16	ND	ND	1	7.4	23	73.3	0	0
21074	2012-06-24T01:00:00	107	ND	ND	1706.88	ND	ND	0.4	61.3	22.8	73.7	0	0
21075	2012-06-24T02:00:00	100	ND	ND	1557.90	ND	ND	1	231.9	22.4	75.8	0	0
21076	2012-06-24T03:00:00	107	ND	ND	1521.72	ND	ND	0.7	254.2	22.4	69.7	0	0
21077	2012-06-24T04:00:00	75	ND	ND	ND	ND	ND	0.3	359.5	22.6	69.9	0	0
21078	2012-06-24T05:00:00	97	ND	ND	ND	ND	ND	0.4	93.1	22.5	74.3	0	0
21079	2012-06-24T06:00:00	89	ND	ND	931.52	ND	ND	0.6	75.1	21.1	82.7	0	0
21080	2012-06-24T07:00:00	97	ND	ND	1221.06	ND	ND	0.5	224.4	21.3	81.5	20.2	0
21081	2012-06-24T08:00:00	99	ND	ND	1029.56	ND	ND	0.4	146.2	22.6	74.3	158.5	0
21082	2012-06-24T09:00:00	104	ND	ND	920.47	ND	ND	1	81.4	23.6	69	253.7	0
21083	2012-06-24T10:00:00	81	ND	ND	1128.82	ND	ND	0.9	80.8	24.5	65.5	459.9	0
21084	2012-06-24T11:00:00	91	ND	ND	1097.94	ND	ND	0.4	43	26.2	58.2	653.8	0
21085	2012-06-24T12:00:00	74	ND	ND	954.68	ND	ND	1.2	130.9	27.8	53	652.3	0
21086	2012-06-24T13:00:00	89	ND	ND	ND	ND	ND	1.5	148	28.7	50	569.5	0
21087	2012-06-24T14:00:00	80	ND	ND	1055.45	ND	ND	1.6	149.4	29	49.7	620.3	0
21088	2012-06-24T15:00:00	82	ND	ND	917.18	ND	ND	0.8	68.8	30	46.5	549.6	0
21089	2012-06-24T16:00:00	52	ND	ND	1036.70	ND	ND	1.3	313.4	30.3	45	450.4	0
21090	2012-06-24T17:00:00	57	ND	ND	909.47	ND	ND	4.4	277.9	27.9	49.9	261.4	0
21091	2012-06-24T18:00:00	31	ND	ND	ND	ND	ND	4.7	272.9	26.8	51.9	91.9	0
21092	2012-06-24T19:00:00	22	ND	ND	ND	ND	ND	4.5	276.9	25.8	55	0	0
21093	2012-06-24T20:00:00	13	ND	ND	ND	ND	ND	5.3	275.9	24.9	58.7	0	0
21094	2012-06-24T21:00:00	8	ND	ND	ND	ND	ND	3.4	271.7	24.9	58	0	0
21095	2012-06-24T22:00:00	6	ND	ND	ND	ND	ND	1.4	288.3	24.7	60	0	0
21096	2012-06-24T23:00:00	5	ND	ND	ND	ND	ND	0.5	327.4	23.8	65.5	0	0
21097	2012-06-25T00:00:00	6	ND	ND	ND	ND	ND	1.5	229.8	23.8	64.4	0	0
21098	2012-06-25T01:00:00	27	ND	ND	912.80	ND	ND	2.1	196.5	22.6	73	0	0
21099	2012-06-25T02:00:00	17	ND	ND	ND	ND	ND	1.7	194.9	21.9	76.3	0	0
21100	2012-06-25T03:00:00	9	ND	ND	ND	ND	ND	1.4	207.3	21.8	76.5	0	0
21101	2012-06-25T04:00:00	6	ND	ND	ND	ND	ND	1.1	206.8	22.1	74.6	0	0
21102	2012-06-25T05:00:00	20	ND	ND	ND	ND	ND	0.3	ND	21.6	78.2	0	0.25
21103	2012-06-25T06:00:00	18	ND	ND	ND	ND	ND	0.2	ND	21.4	81.4	0	0
21104	2012-06-25T07:00:00	29	ND	ND	ND	ND	ND	0.8	122.8	21.5	79	14.3	0
21105	2012-06-25T08:00:00	32	ND	ND	ND	ND	ND	0.8	136.3	21.2	78.5	61.9	0
21106	2012-06-25T09:00:00	58	ND	ND	1832.22	ND	ND	0.8	134.2	21.8	75.9	209.8	0
21107	2012-06-25T10:00:00	63	ND	ND	2232.61	ND	ND	0.7	103.8	24.7	62.5	522	0
21108	2012-06-25T11:00:00	41	ND	ND	1453.46	ND	ND	1	135.4	26.8	55.1	651.9	0
21109	2012-06-25T12:00:00	42	ND	ND	1025.75	ND	ND	1.1	97.8	27.7	52	624.5	0
21110	2012-06-25T13:00:00	49	ND	ND	1155.99	ND	ND	0.8	92	28.4	50.3	546.9	0
21111	2012-06-25T14:00:00	42	ND	ND	1054.40	ND	ND	1.6	96.8	28.7	49.9	462.8	0
21112	2012-06-25T15:00:00	45	ND	ND	1136.63	ND	ND	0.7	105.9	28.2	51.1	175.3	0
21113	2012-06-25T16:00:00	35	ND	ND	1389.49	ND	ND	3.2	264.8	26.8	52.9	59.1	0
21114	2012-06-25T17:00:00	37	ND	ND	1417.61	ND	ND	4	263.2	24.8	60	29	0
21115	2012-06-25T18:00:00	42	ND	ND	1293.67	ND	ND	4.1	327.7	22.2	73	0	1.27
21116	2012-06-25T19:00:00	39	ND	ND	1134.84	ND	ND	1.2	342.1	21.8	75.6	0	0
21117	2012-06-25T20:00:00	53	ND	ND	1087.97	ND	ND	0.9	78	21.3	80.6	0	0
21118	2012-06-25T21:00:00	34	ND	ND	2183.57	ND	ND	0.7	68.2	21.1	82.1	0	0.25
21119	2012-06-25T22:00:00	18	ND	ND	2272.54	ND	ND	0.2	ND	21.2	82.5	0	0
21120	2012-06-25T23:00:00	29	ND	ND	1526.85	ND	ND	0.1	ND	21.2	85.1	0	0
21121	2012-06-26T00:00:00	17	ND	ND	1753.05	ND	ND	0.6	175.1	21.8	77.5	0	0
21122	2012-06-26T01:00:00	29	ND	ND	1484.63	ND	ND	1.1	151.3	21.1	80.5	0	0
21123	2012-06-26T02:00:00	31	ND	ND	1051.47	ND	ND	0.7	215.7	20.7	81.8	0	0
21124	2012-06-26T03:00:00	16	ND	ND	ND	ND	ND	1.3	245.5	20.8	79	0	0
21125	2012-06-26T04:00:00	11	ND	ND	ND	ND	ND	0.7	227.3	20.7	76.3	0	0
21126	2012-06-26T05:00:00	9	ND	ND	ND	ND	ND	0.5	248.5	20.9	74.3	0	0
21127	2012-06-26T06:00:00	8	ND	ND	ND	ND	ND	0.5	349.7	20.8	79.4	0	0
21128	2012-06-26T07:00:00	48	ND	ND	ND	ND	ND	0.7	49.7	20.6	84.7	23.4	0
21129	2012-06-26T08:00:00	79	ND	ND	ND	ND	ND	0.4	ND	21.8	77.1	141.5	0
21130	2012-06-26T09:00:00	106	ND	ND	2130.61	ND	ND	0.5	70.6	22.9	73.9	321.6	0
21131	2012-06-26T10:00:00	98	ND	ND	2457.07	ND	ND	1	124	25.1	63	510.5	0
21132	2012-06-26T11:00:00	80	ND	ND	2991.04	ND	ND	1.4	64.7	26.3	61.9	660.2	0
21133	2012-06-26T12:00:00	43	ND	ND	1645.37	ND	ND	1.2	61.6	27.1	56.8	499.3	0
21134	2012-06-26T13:00:00	54	ND	ND	1522.86	ND	ND	1.4	53	28	52.3	767.9	0
21135	2012-06-26T14:00:00	44	ND	ND	1365.43	ND	ND	1.6	46.8	29.6	47.5	754.1	0
21136	2012-06-26T15:00:00	43	ND	ND	1279.62	ND	ND	1.6	32.8	29.7	47.8	669.9	0
21137	2012-06-26T16:00:00	54	ND	ND	1117.13	ND	ND	1.4	318.4	29.9	46.1	518.8	0
21138	2012-06-26T17:00:00	28	ND	ND	1117.87	ND	ND	3.9	279.1	28.1	48.2	91.8	0
21139	2012-06-26T18:00:00	21	ND	ND	960.75	ND	ND	4.1	271.6	26.6	51.9	20.6	0
21140	2012-06-26T19:00:00	18	ND	ND	990.51	ND	ND	2.6	293.7	25.6	55	0	0
21141	2012-06-26T20:00:00	10	ND	ND	1159.39	ND	ND	3.3	277.4	25.1	57.1	0	0
21142	2012-06-26T21:00:00	12	ND	ND	1008.47	ND	ND	0.9	291.1	25	56.8	0	0
21143	2012-06-26T22:00:00	9	ND	ND	927.94	ND	ND	1.6	241.8	24.5	59.7	0	0
21144	2012-06-26T23:00:00	14	ND	ND	ND	ND	ND	2.3	204.1	23.9	63.3	0	0
21145	2012-06-27T00:00:00	8	ND	ND	ND	ND	ND	1.5	222.8	23.3	65.5	0	0
21146	2012-06-27T01:00:00	18	ND	ND	ND	ND	ND	1.2	220.5	22.7	68.6	0	0
21147	2012-06-27T02:00:00	24	ND	ND	ND	ND	ND	1	214	21.7	72.3	0	0
21148	2012-06-27T03:00:00	15	ND	ND	ND	ND	ND	0.3	291.9	21.2	74.9	0	0
21149	2012-06-27T04:00:00	12	ND	ND	ND	ND	ND	0.7	349.9	20.8	77.7	0	0
21150	2012-06-27T05:00:00	48	ND	ND	ND	ND	ND	0.4	355.6	20.6	77.7	0	0
21151	2012-06-27T06:00:00	48	ND	ND	ND	ND	ND	0.6	273.6	20.6	75.8	0	0
21152	2012-06-27T07:00:00	49	ND	ND	ND	ND	ND	0.3	165.3	20.9	74.3	27.8	0
21153	2012-06-27T08:00:00	52	ND	ND	ND	ND	ND	1.2	143.8	20.6	79.7	83.9	0
21154	2012-06-27T09:00:00	74	ND	ND	1410.87	ND	ND	0.5	97.9	21.8	73.8	285.1	0
21155	2012-06-27T10:00:00	64	ND	ND	2527.27	ND	ND	0.1	73.8	24.2	62.9	597.9	0
21156	2012-06-27T11:00:00	85	ND	ND	2010.86	ND	ND	0.9	100.1	26.3	55.8	709.1	0
21157	2012-06-27T12:00:00	46	ND	ND	1357.71	ND	ND	1	152.8	27.4	51.9	622.5	0
21158	2012-06-27T13:00:00	38	ND	ND	1501.28	ND	ND	1.6	34.2	28.8	47.1	783.7	0
21159	2012-06-27T14:00:00	23	ND	ND	1125.41	ND	ND	0.7	54.6	29.6	44.2	743.5	0
21160	2012-06-27T15:00:00	46	ND	ND	1081.86	ND	ND	0.9	76.3	30.5	41.5	554.7	0
21161	2012-06-27T16:00:00	43	ND	ND	1003.41	ND	ND	1	37.4	31	39.7	496.7	0
21162	2012-06-27T17:00:00	52	ND	ND	1180.36	ND	ND	2.5	288.3	30.2	44.8	286.5	0
21163	2012-06-27T18:00:00	49	ND	ND	1165.60	ND	ND	4	273.2	28.1	50.4	106.4	0
21164	2012-06-27T19:00:00	61	ND	ND	972.32	ND	ND	3.5	282.6	26.9	53.6	0	0
21165	2012-06-27T20:00:00	55	ND	ND	1072.21	ND	ND	3.9	272.9	26.2	56	0	0
21166	2012-06-27T21:00:00	38	ND	ND	1115.71	ND	ND	5.1	268.4	25.6	58.4	0	0
21167	2012-06-27T22:00:00	21	ND	ND	ND	ND	ND	4.1	272.8	25.5	56.8	0	0
21168	2012-06-27T23:00:00	36	ND	ND	ND	ND	ND	2.2	260.8	25.2	59	0	0
21169	2012-06-28T00:00:00	23	ND	ND	ND	ND	ND	1.2	276.1	24.6	63	0	0
21170	2012-06-28T01:00:00	52	ND	ND	ND	ND	ND	0.6	229.9	23.4	72.4	0	0.76
21171	2012-06-28T02:00:00	27	ND	ND	ND	ND	ND	1.9	261.2	23.2	72.1	0	0
21172	2012-06-28T03:00:00	15	ND	ND	ND	ND	ND	0.6	ND	22	81.3	0	0.25
21173	2012-06-28T04:00:00	10	ND	ND	ND	ND	ND	0.7	ND	21.9	80.8	0	0
21174	2012-06-28T05:00:00	29	ND	ND	ND	ND	ND	0.8	196.3	21.7	78.8	0	0
21175	2012-06-28T06:00:00	35	ND	ND	ND	ND	ND	0.5	228.7	21.5	81.1	0	0
21176	2012-06-28T07:00:00	36	ND	ND	ND	ND	ND	0.6	332.6	21.6	78.6	36.8	0
21177	2012-06-28T08:00:00	35	ND	ND	ND	ND	ND	0.6	47.4	22.5	77.4	116.7	0
21178	2012-06-28T09:00:00	68	ND	ND	988.32	ND	ND	1	58.7	23.1	74.4	219.8	0
21179	2012-06-28T10:00:00	77	ND	ND	2162.78	ND	ND	0.8	67.6	25	65.2	473.5	0
21180	2012-06-28T11:00:00	63	ND	ND	1913.16	ND	ND	0.8	179.8	26.5	55.9	706.5	0
21181	2012-06-28T12:00:00	55	ND	ND	1231.97	ND	ND	0.9	174	28.2	48.4	829.4	0
21182	2012-06-28T13:00:00	40	ND	ND	1111.59	ND	ND	0.8	117.5	29.4	45	824.6	0
21183	2012-06-28T14:00:00	21	ND	ND	1243.90	ND	ND	1.1	94.4	31	38.8	759.4	0
21184	2012-06-28T15:00:00	18	ND	ND	1121.93	ND	ND	1.8	58	30.9	39	533.4	0
21185	2012-06-28T16:00:00	25	ND	ND	1109.87	ND	ND	1	316.4	30.7	42.1	454.2	0
21186	2012-06-28T17:00:00	58	ND	ND	1190.87	ND	ND	4.5	278.5	28.5	48.9	294.1	0
21187	2012-06-28T18:00:00	38	ND	ND	985.20	ND	ND	3.8	280.7	27.1	50.7	74.3	0
21188	2012-06-28T19:00:00	32	ND	ND	ND	ND	ND	2.8	283	26.5	52	1.3	0
21189	2012-06-28T20:00:00	21	ND	ND	1036.24	ND	ND	3.8	277.5	25.5	55.2	0	0
21190	2012-06-28T21:00:00	22	ND	ND	1388.51	ND	ND	3.4	282.7	25.1	56	0	0
21191	2012-06-28T22:00:00	13	ND	ND	ND	ND	ND	3.4	261	24.6	58.5	0	0
21192	2012-06-28T23:00:00	34	ND	ND	ND	ND	ND	0.1	335.9	24.3	61.3	0	0
21193	2012-06-29T00:00:00	41	ND	ND	ND	ND	ND	0.9	265.1	24.1	61.6	0	0
21194	2012-06-29T01:00:00	31	ND	ND	1016.51	ND	ND	1.4	176.3	22.9	69	0	0
21195	2012-06-29T02:00:00	28	ND	ND	ND	ND	ND	0.5	79	21.9	73.6	0	0
21196	2012-06-29T03:00:00	18	ND	ND	ND	ND	ND	0.7	233.7	22	73.6	0	0
21197	2012-06-29T04:00:00	16	ND	ND	ND	ND	ND	0.6	222	21.9	73.7	0	0
21198	2012-06-29T05:00:00	29	ND	ND	ND	ND	ND	0.6	195.6	22	72.6	0	0
21199	2012-06-29T06:00:00	26	ND	ND	ND	ND	ND	0.9	137.1	21.7	74.7	0	0
21200	2012-06-29T07:00:00	54	ND	ND	ND	ND	ND	0.4	14	21.7	75.4	40.6	0
21201	2012-06-29T08:00:00	42	ND	ND	940.32	ND	ND	0.4	104.3	22.3	73	129.8	0
21202	2012-06-29T09:00:00	57	ND	ND	1328.22	ND	ND	1.6	191.9	23.7	66.5	362.1	0
21203	2012-06-29T10:00:00	30	ND	ND	1996.07	ND	ND	1.7	151.4	25.6	59.2	584.6	0
21204	2012-06-29T11:00:00	50	ND	ND	1549.68	ND	ND	1.3	127.6	26.6	55.8	647.7	0
21205	2012-06-29T12:00:00	43	ND	ND	1266.93	ND	ND	0.7	180.6	27.7	50.9	501.1	0
21206	2012-06-29T13:00:00	45	ND	ND	1283.15	ND	ND	0.9	310.1	28.7	47.9	628.2	0
21207	2012-06-29T14:00:00	59	ND	ND	1171.43	ND	ND	1.5	326.3	28.8	48.1	261.6	0
21208	2012-06-29T15:00:00	36	ND	ND	1264.64	ND	ND	3.3	279.7	28.6	45.6	354.2	0
21209	2012-06-29T16:00:00	20	ND	ND	1194.23	ND	ND	3.8	284.2	27.7	47.5	170.8	0
21210	2012-06-29T17:00:00	13	ND	ND	ND	ND	ND	3.4	280.1	27.4	49.8	252.5	0
21211	2012-06-29T18:00:00	19	ND	ND	ND	ND	ND	3	279.3	26.9	49.9	92.4	0
21212	2012-06-29T19:00:00	20	ND	ND	ND	ND	ND	2.6	287.9	26	52.3	2.4	0
21213	2012-06-29T20:00:00	13	ND	ND	ND	ND	ND	1.9	286.8	25.2	56.8	0	0
21214	2012-06-29T21:00:00	22	ND	ND	ND	ND	ND	1.6	277.1	24.8	58.7	0	0
21215	2012-06-29T22:00:00	14	ND	ND	ND	ND	ND	2.9	242.6	24.2	61.6	0	0
21216	2012-06-29T23:00:00	22	ND	ND	ND	ND	ND	1.7	211.5	23.9	63.8	0	0
21217	2012-06-30T00:00:00	13	ND	ND	ND	ND	ND	1.6	181.4	23.3	69.9	0	0
21218	2012-06-30T01:00:00	9	ND	ND	ND	ND	ND	1.7	176.3	22.7	73.3	0	0
21219	2012-06-30T02:00:00	15	ND	ND	ND	ND	ND	1.1	148.2	22.2	75.8	0	0
21220	2012-06-30T03:00:00	23	ND	ND	ND	ND	ND	0.8	83.3	21.7	79	0	0
21221	2012-06-30T04:00:00	13	ND	ND	ND	ND	ND	1.5	59	20.9	83.3	0	0
21222	2012-06-30T05:00:00	9	ND	ND	ND	ND	ND	1.6	42.2	20.3	85.8	0	0
21223	2012-06-30T06:00:00	28	ND	ND	ND	ND	ND	1.1	25.4	20.1	87	0	0
21224	2012-06-30T07:00:00	20	ND	ND	ND	ND	ND	0.6	43.2	20.3	88.1	6.4	0
21225	2012-06-30T08:00:00	17	ND	ND	ND	ND	ND	0.7	71	20.6	86.7	140.5	0
21226	2012-06-30T09:00:00	31	ND	ND	ND	ND	ND	0.9	129.6	22.5	75.9	278.3	0
21227	2012-06-30T10:00:00	38	ND	ND	1113.28	ND	ND	1	135.3	23.5	69.2	254.1	0
21228	2012-06-30T11:00:00	36	ND	ND	1014.46	ND	ND	0.5	117	24.3	65.4	255.7	0
21229	2012-06-30T12:00:00	33	ND	ND	ND	ND	ND	0.9	65.6	26.5	57.8	737.1	0
21230	2012-06-30T13:00:00	48	ND	ND	ND	ND	ND	1.1	119.6	26.6	57.1	180.5	0
21231	2012-06-30T14:00:00	54	ND	ND	ND	ND	ND	1.2	356.2	26.2	57.9	213.1	0
21232	2012-06-30T15:00:00	27	ND	ND	ND	ND	ND	3.7	269.4	26.3	53.7	657.8	0
21233	2012-06-30T16:00:00	16	ND	ND	ND	ND	ND	3.3	277.2	28.2	45.8	596.8	0
21234	2012-06-30T17:00:00	9	ND	ND	ND	ND	ND	3.4	279	27.3	48.7	210.8	0
21235	2012-06-30T18:00:00	6	ND	ND	ND	ND	ND	3.6	275.2	26.2	51.6	70.7	0
21236	2012-06-30T19:00:00	8	ND	ND	ND	ND	ND	3.4	276.8	25.1	54.9	0	0
21237	2012-06-30T20:00:00	24	ND	ND	ND	ND	ND	2.9	273.2	24.8	57	0	0
21238	2012-06-30T21:00:00	20	ND	ND	ND	ND	ND	2	276.8	24.6	58.1	0	0
21239	2012-06-30T22:00:00	13	ND	ND	ND	ND	ND	0.7	57.5	23.9	64.8	0	0
21240	2012-06-30T23:00:00	26	ND	ND	ND	ND	ND	0.4	41.5	23.5	66.4	0	0
21241	2012-07-01T00:00:00	24	ND	ND	ND	ND	ND	0.2	ND	23.3	66.2	0	0
21242	2012-07-01T01:00:00	26	ND	ND	ND	ND	ND	0.8	249.1	23.1	67.8	0	0
21243	2012-07-01T02:00:00	14	ND	ND	ND	ND	ND	0.8	162.5	22.8	72	0	0
21244	2012-07-01T03:00:00	47	ND	ND	ND	ND	ND	0.9	134.1	22.2	76	0	0
21245	2012-07-01T04:00:00	44	ND	ND	ND	ND	ND	0.6	34.6	21.3	82.8	0	0
21246	2012-07-01T05:00:00	27	ND	ND	ND	ND	ND	0.1	ND	21.1	84.8	0	0.25
21247	2012-07-01T06:00:00	15	ND	ND	ND	ND	ND	0.4	ND	21.1	84.8	0	0
21248	2012-07-01T07:00:00	25	ND	ND	ND	ND	ND	1	205.6	21.2	83.1	17.1	0
21249	2012-07-01T08:00:00	22	ND	ND	ND	ND	ND	0.5	148.9	21.5	80.7	50.1	0
21250	2012-07-01T09:00:00	43	ND	ND	ND	ND	ND	1	189.4	22.4	74.5	290.6	0
21251	2012-07-01T10:00:00	28	ND	ND	ND	ND	ND	0.8	156.5	24.8	64.3	575.9	0
21252	2012-07-01T11:00:00	28	ND	ND	ND	ND	ND	0.9	113.7	25.8	60.2	502.3	0
21253	2012-07-01T12:00:00	16	ND	ND	ND	ND	ND	0.6	39.9	26.5	58	410.2	0
21254	2012-07-01T13:00:00	8	ND	ND	ND	ND	ND	0.8	109.7	27.8	52.6	772.5	0
21255	2012-07-01T14:00:00	26	ND	ND	ND	ND	ND	1.2	25.1	29.5	47.9	805.4	0
21256	2012-07-01T15:00:00	35	ND	ND	ND	ND	ND	1.6	111.2	29.5	48.4	510	0
21257	2012-07-01T16:00:00	21	ND	ND	ND	ND	ND	1.1	106.4	29.8	47.8	542.8	0
21258	2012-07-01T17:00:00	26	ND	ND	ND	ND	ND	1.1	71.3	29.9	47.2	285.1	0
21259	2012-07-01T18:00:00	29	ND	ND	ND	ND	ND	2.1	262.7	28.6	52.7	52	0
21260	2012-07-01T19:00:00	49	ND	ND	ND	ND	ND	2.8	269.3	27.2	56.2	0	0
21261	2012-07-01T20:00:00	32	ND	ND	ND	ND	ND	2.9	275.6	26.2	59.6	0	0
21262	2012-07-01T21:00:00	27	ND	ND	ND	ND	ND	3.4	269.1	25.7	60.8	0	0
21263	2012-07-01T22:00:00	15	ND	ND	ND	ND	ND	2.9	270.5	25.4	61.4	0	0
21264	2012-07-01T23:00:00	26	ND	ND	ND	ND	ND	1.7	254.8	25.1	61.4	0	0
21265	2012-07-02T00:00:00	16	ND	ND	ND	ND	ND	1.5	246.2	24.9	62.5	0	0
21266	2012-07-02T01:00:00	9	ND	ND	ND	ND	ND	1	203.4	24.8	62.5	0	0
21267	2012-07-02T02:00:00	6	ND	ND	ND	ND	ND	0.6	9.5	23.6	72.8	0	0
21268	2012-07-02T03:00:00	51	ND	ND	ND	ND	ND	0.5	64.6	22.8	77.1	0	0
21269	2012-07-02T04:00:00	28	ND	ND	ND	ND	ND	0.6	141.1	22.5	77.1	0	0
21270	2012-07-02T05:00:00	53	ND	ND	ND	ND	ND	0.5	9.1	22.2	77.9	0	0
21271	2012-07-02T06:00:00	39	ND	ND	ND	ND	ND	0.6	44.4	21.7	80.4	0	0
21272	2012-07-02T07:00:00	67	ND	ND	ND	ND	ND	0.2	49.4	21.6	80.9	23.4	0
21273	2012-07-02T08:00:00	52	ND	ND	ND	ND	ND	0.9	128.2	22.3	74.7	141.7	0
21274	2012-07-02T09:00:00	66	ND	ND	ND	ND	ND	1	97.9	23.9	66.9	366.4	0
21275	2012-07-02T10:00:00	39	ND	ND	ND	ND	ND	0.9	78.5	25.9	59.1	588.1	0
21276	2012-07-02T11:00:00	64	ND	ND	ND	ND	ND	0.5	105.7	27.4	53.3	742	0
21277	2012-07-02T12:00:00	70	ND	ND	ND	ND	ND	0.8	125.1	28.8	48.6	846.9	0
21278	2012-07-02T13:00:00	40	ND	ND	ND	ND	ND	0.6	257.3	30	44.3	844.8	0
21279	2012-07-02T14:00:00	24	ND	ND	ND	ND	ND	0.9	88.5	31.5	39.5	769.2	0
21280	2012-07-02T15:00:00	30	ND	ND	ND	ND	ND	1.4	64.1	32.3	36	652.5	0
21281	2012-07-02T16:00:00	18	ND	ND	ND	ND	ND	1.4	39.2	33	31.9	510.6	0
21282	2012-07-02T17:00:00	30	ND	ND	ND	ND	ND	3.7	282	30.4	45.4	348.2	0
21283	2012-07-02T18:00:00	18	ND	ND	ND	ND	ND	3.8	279.4	28.4	50.3	129.3	0
21284	2012-07-02T19:00:00	33	ND	ND	ND	ND	ND	3.9	277.2	27	54.1	0	0
21285	2012-07-02T20:00:00	24	ND	ND	ND	ND	ND	3.9	277	26.5	56.1	0	0
21286	2012-07-02T21:00:00	23	ND	ND	ND	ND	ND	2.6	276	26.1	56.7	0	0
21287	2012-07-02T22:00:00	15	ND	ND	ND	ND	ND	2.4	287.3	26	56.3	0	0
21288	2012-07-02T23:00:00	9	ND	ND	ND	ND	ND	3.1	277.1	25.4	59.4	0	0
21289	2012-07-03T00:00:00	5	ND	ND	ND	ND	ND	1.8	262.6	25	61.3	0	0
21290	2012-07-03T01:00:00	5	ND	ND	ND	ND	ND	1	164.4	23.8	69.3	0	0
21291	2012-07-03T02:00:00	24	ND	ND	ND	ND	ND	0.7	184	23.4	70.5	0	0
21292	2012-07-03T03:00:00	32	ND	ND	ND	ND	ND	0.6	165.8	22.9	73.5	0	0
21293	2012-07-03T04:00:00	20	ND	ND	ND	ND	ND	0.2	ND	22.7	74	0	0
21294	2012-07-03T05:00:00	16	ND	ND	ND	ND	ND	0.8	223	22.5	73	0	0
21295	2012-07-03T06:00:00	10	ND	ND	ND	ND	ND	1	251.1	22.3	70.6	0	0
21296	2012-07-03T07:00:00	24	ND	ND	ND	ND	ND	0.8	270	22.5	70.5	25.7	0
21297	2012-07-03T08:00:00	45	ND	ND	ND	ND	ND	1	49.1	22.4	76.8	112.1	0
21298	2012-07-03T09:00:00	97	ND	ND	ND	ND	ND	0.5	39.5	23.7	71.2	242.5	0
21299	2012-07-03T10:00:00	105	ND	ND	1859.19	ND	ND	0.7	88.7	25.4	63.9	391.4	0
21300	2012-07-03T11:00:00	114	ND	ND	1858.38	ND	ND	0.8	184.1	27.2	56.4	602.4	0
21301	2012-07-03T12:00:00	92	ND	ND	1534.91	ND	ND	1	151.5	28.4	52.3	710.4	0
21302	2012-07-03T13:00:00	63	ND	ND	961.70	ND	ND	1.3	79	29.1	50.3	497.6	0
21303	2012-07-03T14:00:00	66	ND	ND	ND	ND	ND	1.4	43.7	29.6	47.7	506.7	0
21304	2012-07-03T15:00:00	65	ND	ND	ND	ND	ND	3	289.9	30	43.6	525.1	0
21305	2012-07-03T16:00:00	33	ND	ND	ND	ND	ND	3.4	286.2	29.5	44.6	362.6	0
21306	2012-07-03T17:00:00	19	ND	ND	ND	ND	ND	4.2	282.6	27.7	49.7	194.9	0
21307	2012-07-03T18:00:00	14	ND	ND	ND	ND	ND	4.2	278	26.6	53.6	74.1	0
21308	2012-07-03T19:00:00	16	ND	ND	ND	ND	ND	4.7	272.8	25.8	55.9	0	0
21309	2012-07-03T20:00:00	9	ND	ND	ND	ND	ND	3.6	278.7	25.7	55.7	0	0
21310	2012-07-03T21:00:00	8	ND	ND	ND	ND	ND	1.2	333.1	25.4	57.9	0	0
21311	2012-07-03T22:00:00	5	ND	ND	ND	ND	ND	1.2	267.3	24.6	61.3	0	0
21312	2012-07-03T23:00:00	4	ND	ND	ND	ND	ND	3	256.2	24.2	61.9	0	0
21313	2012-07-04T00:00:00	25	ND	ND	ND	ND	ND	1.8	243.1	24	62.6	0	0
21314	2012-07-04T01:00:00	15	ND	ND	ND	ND	ND	1.6	192	22.9	71.6	0	0
21315	2012-07-04T02:00:00	26	ND	ND	ND	ND	ND	1.5	174.2	22.7	72.9	0	0
21316	2012-07-04T03:00:00	29	ND	ND	ND	ND	ND	1	176.9	22.2	76.6	0	0
21317	2012-07-04T04:00:00	16	ND	ND	ND	ND	ND	0.9	200.7	21.9	77.8	0	0
21318	2012-07-04T05:00:00	23	ND	ND	ND	ND	ND	0.5	30.8	22.2	76.4	0	0
21319	2012-07-04T06:00:00	39	ND	ND	ND	ND	ND	0.8	75.3	21.7	79	0	0
21320	2012-07-04T07:00:00	71	ND	ND	ND	ND	ND	0.5	220.5	21.9	79.8	26.5	0
21321	2012-07-04T08:00:00	57	ND	ND	ND	ND	ND	0.5	185.4	23.1	73.2	219.6	0
21322	2012-07-04T09:00:00	63	ND	ND	ND	ND	ND	0.8	145.5	24.6	66.7	382.4	0
21323	2012-07-04T10:00:00	86	ND	ND	1075.43	ND	ND	0.9	121.7	25.7	61.6	430.3	0
21324	2012-07-04T11:00:00	59	ND	ND	1194.23	ND	ND	1.1	132.3	27	56.7	552	0
21325	2012-07-04T12:00:00	53	ND	ND	ND	ND	ND	0.4	59.7	28	51.8	454.8	0
21326	2012-07-04T13:00:00	53	ND	ND	ND	ND	ND	0.9	24.1	28.4	50.9	413.5	0
21327	2012-07-04T14:00:00	28	ND	ND	ND	ND	ND	1.6	355.5	29.2	49.1	481.3	0
21328	2012-07-04T15:00:00	23	ND	ND	ND	ND	ND	1.4	305.9	29.1	47.2	335.9	0
21329	2012-07-04T16:00:00	13	ND	ND	ND	ND	ND	2.8	280.3	29.8	44.6	473.8	0
21330	2012-07-04T17:00:00	20	ND	ND	ND	ND	ND	3.7	274.5	29.4	46.2	342.7	0
21331	2012-07-04T18:00:00	15	ND	ND	ND	ND	ND	4.4	269.2	27.5	51	116.7	0
21332	2012-07-04T19:00:00	13	ND	ND	ND	ND	ND	4.6	265.6	26.3	55.1	0	0
21333	2012-07-04T20:00:00	9	ND	ND	ND	ND	ND	3.9	270.1	25.8	57.1	0	0
21334	2012-07-04T21:00:00	8	ND	ND	ND	ND	ND	3.1	269.9	25.6	57.7	0	0
21335	2012-07-04T22:00:00	5	ND	ND	ND	ND	ND	0.9	65.9	25.1	60.9	0	0
21336	2012-07-04T23:00:00	29	ND	ND	ND	ND	ND	1.8	226	24.9	62.6	0	0
21337	2012-07-05T00:00:00	17	ND	ND	ND	ND	ND	2.3	252.4	24.7	62	0	0
21338	2012-07-05T01:00:00	16	ND	ND	ND	ND	ND	0.3	81.4	24.4	65.4	0	0
21339	2012-07-05T02:00:00	30	ND	ND	ND	ND	ND	1	160.2	23.5	73.3	0	0
21340	2012-07-05T03:00:00	32	ND	ND	ND	ND	ND	1.1	141.9	22.8	76	0	0
21341	2012-07-05T04:00:00	21	ND	ND	ND	ND	ND	0.9	140.7	22.8	75.2	0	0
21342	2012-07-05T05:00:00	44	ND	ND	ND	ND	ND	1.4	205.6	21.8	80.4	0	0
21343	2012-07-05T06:00:00	25	ND	ND	ND	ND	ND	1.1	224.5	21.9	78.8	0	0
21344	2012-07-05T07:00:00	31	ND	ND	ND	ND	ND	0.7	135.4	22.3	77.5	7	0
21345	2012-07-05T08:00:00	39	ND	ND	ND	ND	ND	0.6	124.2	22	78.4	35	0
21346	2012-07-05T09:00:00	39	ND	ND	ND	ND	ND	1	158.4	22.1	79.9	98.7	0
21347	2012-07-05T10:00:00	44	ND	ND	1497.49	ND	ND	0.7	143.4	23.7	74.2	432.8	0
21348	2012-07-05T11:00:00	28	ND	ND	1676.70	ND	ND	0.5	186.2	26	62.8	613.8	0
21349	2012-07-05T12:00:00	54	ND	ND	ND	ND	ND	0.9	128.6	28	52.8	715.9	0
21350	2012-07-05T13:00:00	40	ND	ND	ND	ND	ND	1	78	28.6	50.8	506.9	0
21351	2012-07-05T14:00:00	42	ND	ND	ND	ND	ND	1	310.9	28.9	49.5	321.5	0
21352	2012-07-05T15:00:00	28	ND	ND	ND	ND	ND	2.1	278.7	28.5	49.5	137.4	0
21353	2012-07-05T16:00:00	27	ND	ND	ND	ND	ND	3.7	274.9	28.6	48.3	441	0
21354	2012-07-05T17:00:00	19	ND	ND	ND	ND	ND	4.2	269.7	28.2	49.1	261.1	0
21355	2012-07-05T18:00:00	29	ND	ND	ND	ND	ND	4.3	273.5	26.9	53.3	76.7	0
21356	2012-07-05T19:00:00	17	ND	ND	ND	ND	ND	4.5	269.2	25.8	56.4	0	0
21357	2012-07-05T20:00:00	11	ND	ND	ND	ND	ND	4.1	274.2	25.6	57	0	0
21358	2012-07-05T21:00:00	8	ND	ND	ND	ND	ND	2.6	244.2	24.8	63.4	0	0
21359	2012-07-05T22:00:00	7	ND	ND	ND	ND	ND	1	236.3	24.4	62.3	0	0
21360	2012-07-05T23:00:00	6	ND	ND	ND	ND	ND	1.2	186.3	23.1	68.8	0	0
21361	2012-07-06T00:00:00	6	ND	ND	ND	ND	ND	0.4	108.7	23.5	68.9	0	0
21362	2012-07-06T01:00:00	18	ND	ND	ND	ND	ND	0.9	41.5	22.7	73.2	0	0
21363	2012-07-06T02:00:00	11	ND	ND	ND	ND	ND	0.5	121.6	22.1	77.5	0	0
21364	2012-07-06T03:00:00	17	ND	ND	ND	ND	ND	0.5	179.8	22.2	76.5	0	0
21365	2012-07-06T04:00:00	12	ND	ND	ND	ND	ND	0.9	234.5	21.9	77.6	0	0
21366	2012-07-06T05:00:00	14	ND	ND	ND	ND	ND	1	234	21.7	76.8	0	0
21367	2012-07-06T06:00:00	9	ND	ND	ND	ND	ND	0.4	60.2	21.6	79.7	0	0
21368	2012-07-06T07:00:00	51	ND	ND	ND	ND	ND	0.7	39.1	21.6	83.5	6.9	0
21369	2012-07-06T08:00:00	60	ND	ND	ND	ND	ND	0.2	ND	22.1	80.7	150.2	0
21370	2012-07-06T09:00:00	75	ND	ND	1134.46	ND	ND	0.6	127.4	25	65.3	501.4	0
21371	2012-07-06T10:00:00	48	ND	ND	1615.31	ND	ND	1.2	122.3	25.5	62.4	337.8	0
21372	2012-07-06T11:00:00	65	ND	ND	1078.68	ND	ND	1.2	169.5	26.1	61.6	356.3	0
21373	2012-07-06T12:00:00	34	ND	ND	908.37	ND	ND	0.1	307.7	27.4	55.7	462	0
21374	2012-07-06T13:00:00	43	ND	ND	ND	ND	ND	1.1	59.3	28.4	52.8	494.5	0
21375	2012-07-06T14:00:00	55	ND	ND	ND	ND	ND	1.4	78	28.7	52.1	364.9	0
21376	2012-07-06T15:00:00	59	ND	ND	ND	ND	ND	1.6	91.9	29.1	51	330.1	0
21377	2012-07-06T16:00:00	57	ND	ND	ND	ND	ND	1.2	87.6	29.3	49.6	369.3	0
21378	2012-07-06T17:00:00	52	ND	ND	964.57	ND	ND	0.9	110.6	30	47.8	308.4	0
21379	2012-07-06T18:00:00	82	ND	ND	ND	ND	ND	0.8	78.3	29.7	48.8	119.7	0
21380	2012-07-06T19:00:00	78	ND	ND	930.94	ND	ND	1.8	265.3	28.1	54.4	0	0
21381	2012-07-06T20:00:00	72	ND	ND	1354.30	ND	ND	2.9	264.1	26.6	59.1	0	0
21382	2012-07-06T21:00:00	50	ND	ND	ND	ND	ND	2.5	274.3	26	60.3	0	0
21383	2012-07-06T22:00:00	33	ND	ND	ND	ND	ND	2.9	268.4	25.5	61.3	0	0
21384	2012-07-06T23:00:00	26	ND	ND	ND	ND	ND	0.7	23.8	24.5	66.9	0	0
21385	2012-07-07T00:00:00	15	ND	ND	ND	ND	ND	1	256.4	24.2	67.5	0	0
21386	2012-07-07T01:00:00	34	ND	ND	ND	ND	ND	0.4	118.2	23.4	72.8	0	0
21387	2012-07-07T02:00:00	19	ND	ND	ND	ND	ND	1.3	172.6	23.3	73.2	0	0
21388	2012-07-07T03:00:00	54	ND	ND	ND	ND	ND	1.3	169.6	22.5	76.7	0	0
21389	2012-07-07T04:00:00	49	ND	ND	ND	ND	ND	0.6	104.8	22.1	77.7	0	0
21390	2012-07-07T05:00:00	54	ND	ND	ND	ND	ND	0.4	172.3	21.9	77.7	0	0
21391	2012-07-07T06:00:00	28	ND	ND	ND	ND	ND	0.1	ND	21.9	78.4	0	0
21392	2012-07-07T07:00:00	88	ND	ND	ND	ND	ND	0.6	72.8	22	78	49	0
21393	2012-07-07T08:00:00	102	ND	ND	ND	ND	ND	0.9	48.1	22	78.5	130.4	0
21394	2012-07-07T09:00:00	116	ND	ND	1848.54	ND	ND	0.6	22.3	23.8	70.6	292.4	0
21395	2012-07-07T10:00:00	93	ND	ND	1483.29	ND	ND	1.1	76.2	25.8	62.7	487.7	0
21396	2012-07-07T11:00:00	71	ND	ND	1366.93	ND	ND	1.2	91.2	27.5	56.5	652.3	0
21397	2012-07-07T12:00:00	71	ND	ND	1051.25	ND	ND	0.9	130.6	29.1	50.6	682.2	0
21398	2012-07-07T13:00:00	68	ND	ND	ND	ND	ND	0.6	143.7	29.9	47.3	468.7	0
21399	2012-07-07T14:00:00	47	ND	ND	ND	ND	ND	0.9	35.3	31	43.4	629.8	0
21400	2012-07-07T15:00:00	65	ND	ND	ND	ND	ND	1.1	12.7	31.8	40.4	574.1	0
21401	2012-07-07T16:00:00	36	ND	ND	ND	ND	ND	1	304.6	31.6	41.7	304.4	0
21402	2012-07-07T17:00:00	38	ND	ND	ND	ND	ND	4	275.7	30.3	46.9	327.3	0
21403	2012-07-07T18:00:00	20	ND	ND	ND	ND	ND	3.6	274.7	28.7	51.3	71.2	0
21404	2012-07-07T19:00:00	20	ND	ND	ND	ND	ND	4	273.6	27.3	55	0	0
21405	2012-07-07T20:00:00	13	ND	ND	ND	ND	ND	3.9	268.2	26.7	57.3	0	0
21406	2012-07-07T21:00:00	21	ND	ND	ND	ND	ND	0.6	281	26.3	58.9	0	0
21407	2012-07-07T22:00:00	41	ND	ND	ND	ND	ND	0.8	264.3	25.6	61.8	0	0
21408	2012-07-07T23:00:00	43	ND	ND	1021.64	ND	ND	2.2	272.2	25.8	60.3	0	0
21409	2012-07-08T00:00:00	45	ND	ND	1033.81	ND	ND	0.6	163.8	24.7	67.2	0	0
21410	2012-07-08T01:00:00	55	ND	ND	ND	ND	ND	1.3	171.2	23.9	71.5	0	0
21411	2012-07-08T02:00:00	88	ND	ND	1015.83	ND	ND	0.9	168.8	23.5	73.1	0	0
21412	2012-07-08T03:00:00	63	ND	ND	ND	ND	ND	1	140.4	23.1	75.4	0	0
21413	2012-07-08T04:00:00	41	ND	ND	ND	ND	ND	0.6	139.8	22.6	79.1	0	0
21414	2012-07-08T05:00:00	71	ND	ND	ND	ND	ND	0.8	93.9	22.3	80.4	0	0
21415	2012-07-08T06:00:00	53	ND	ND	ND	ND	ND	0.4	82.5	21.9	81.6	0	0
21416	2012-07-08T07:00:00	64	ND	ND	ND	ND	ND	0.4	205	22.2	80.1	41.5	0
21417	2012-07-08T08:00:00	34	ND	ND	ND	ND	ND	0.8	169.8	23.5	72.6	159.9	0
21418	2012-07-08T09:00:00	60	ND	ND	ND	ND	ND	0.9	162.5	24.9	67.7	393.1	0
21419	2012-07-08T10:00:00	37	ND	ND	ND	ND	ND	0.9	129.4	26.3	60.7	554.5	0
21420	2012-07-08T11:00:00	24	ND	ND	ND	ND	ND	0.8	159.3	27.6	56.1	680	0
21421	2012-07-08T12:00:00	31	ND	ND	ND	ND	ND	0.9	136.9	29	51.2	786.3	0
21422	2012-07-08T13:00:00	30	ND	ND	ND	ND	ND	1.1	103.9	30.4	46.9	862.8	0
21423	2012-07-08T14:00:00	16	ND	ND	ND	ND	ND	1.2	89.7	32	41.2	796.3	0
21424	2012-07-08T15:00:00	18	ND	ND	ND	ND	ND	0.8	55.1	33.3	35.8	702.8	0
21425	2012-07-08T16:00:00	10	ND	ND	ND	ND	ND	1.9	298.8	32.9	39.3	459	0
21426	2012-07-08T17:00:00	19	ND	ND	ND	ND	ND	4.1	282.3	31	45.2	348.3	0
21427	2012-07-08T18:00:00	40	ND	ND	ND	ND	ND	4.3	279.9	29	50.1	59.5	0
21428	2012-07-08T19:00:00	29	ND	ND	ND	ND	ND	5	277.2	27.6	53.9	0	0
21429	2012-07-08T20:00:00	18	ND	ND	ND	ND	ND	4.4	281.1	27.4	53.9	0	0
21430	2012-07-08T21:00:00	10	ND	ND	ND	ND	ND	6	275	26.6	58.2	0	0
21431	2012-07-08T22:00:00	8	ND	ND	ND	ND	ND	3.8	276.6	26.4	58.6	0	0
21432	2012-07-08T23:00:00	14	ND	ND	ND	ND	ND	2.4	251.1	26.5	58.5	0	0
21433	2012-07-09T00:00:00	15	ND	ND	ND	ND	ND	2	203.9	25.7	64.6	0	0
21434	2012-07-09T01:00:00	17	ND	ND	ND	ND	ND	1.4	174.1	24.9	68.7	0	0
21435	2012-07-09T02:00:00	14	ND	ND	ND	ND	ND	1.5	200.1	24.6	67.5	0	0
21436	2012-07-09T03:00:00	18	ND	ND	ND	ND	ND	0.9	189.4	24.5	66.2	0	0
21437	2012-07-09T04:00:00	24	ND	ND	ND	ND	ND	0.5	319.9	23.9	70.9	0	0
21438	2012-07-09T05:00:00	52	ND	ND	ND	ND	ND	0.7	10	23.4	75.4	0	0
21439	2012-07-09T06:00:00	60	ND	ND	ND	ND	ND	0.6	57.9	23	78.1	0	0
21440	2012-07-09T07:00:00	81	ND	ND	ND	ND	ND	0.2	ND	22.9	76	22	0
21441	2012-07-09T08:00:00	92	ND	ND	ND	ND	ND	0.7	70.1	23.4	75.1	117.1	0
21442	2012-07-09T09:00:00	ND	ND	ND	1173.64	ND	ND	0.9	85.5	24.6	70.6	229.5	0
21443	2012-07-09T10:00:00	ND	ND	ND	2963.14	ND	ND	0.2	208.1	26	64.5	408.4	0
21444	2012-07-09T11:00:00	ND	ND	ND	2241.43	ND	ND	1	101.9	27.9	56.8	526.1	0
21445	2012-07-09T12:00:00	96	ND	ND	1665.73	ND	ND	1.4	72.9	29	51.7	641.5	0
21446	2012-07-09T13:00:00	81	ND	ND	1683.43	ND	ND	1.3	59.3	29.9	48.2	662.1	0
21447	2012-07-09T14:00:00	71	ND	ND	ND	ND	ND	1.5	78.7	31	45.1	609.1	0
21448	2012-07-09T15:00:00	49	ND	ND	ND	ND	ND	1.5	306.5	31	44.7	378.7	0
21449	2012-07-09T16:00:00	25	ND	ND	ND	ND	ND	3.9	278.3	30	45.7	381	0
21450	2012-07-09T17:00:00	14	ND	ND	ND	ND	ND	4	280.5	29	48.4	259.3	0
21451	2012-07-09T18:00:00	22	ND	ND	ND	ND	ND	4.2	272	27.6	52.2	78.9	0
21452	2012-07-09T19:00:00	22	ND	ND	ND	ND	ND	4.6	269.6	26.8	54.5	0	0
21453	2012-07-09T20:00:00	13	ND	ND	ND	ND	ND	2.8	280.2	26.6	55.5	0	0
21454	2012-07-09T21:00:00	7	ND	ND	ND	ND	ND	2.8	281.4	26.1	56.9	0	0
21455	2012-07-09T22:00:00	8	ND	ND	ND	ND	ND	1.3	250.9	25.9	58	0	0
21456	2012-07-09T23:00:00	16	ND	ND	ND	ND	ND	2.3	196.1	24.5	66.8	0	0
21457	2012-07-10T00:00:00	11	ND	ND	ND	ND	ND	1.6	221.6	24	68.9	0	0
21458	2012-07-10T01:00:00	16	ND	ND	ND	ND	ND	0.6	296.9	24.1	66.1	0	0
21459	2012-07-10T02:00:00	10	ND	ND	ND	ND	ND	0.8	130	23.2	71.6	0	0
21460	2012-07-10T03:00:00	16	ND	ND	ND	ND	ND	1	152.4	22.3	76.6	0	0
21461	2012-07-10T04:00:00	18	ND	ND	ND	ND	ND	0.3	135.8	21.8	78.6	0	0
21462	2012-07-10T05:00:00	30	ND	ND	ND	ND	ND	0.3	141.7	21.9	77.2	0	0
21463	2012-07-10T06:00:00	18	ND	ND	ND	ND	ND	0.4	ND	22	73.6	0	0
21464	2012-07-10T07:00:00	32	ND	ND	ND	ND	ND	0.6	42.5	21.9	75.3	30.4	0
21465	2012-07-10T08:00:00	52	ND	ND	ND	ND	ND	0.6	62.3	22.5	75.6	148.5	0
21466	2012-07-10T09:00:00	84	ND	ND	ND	ND	ND	1.1	62.7	24	69.4	304.1	0
21467	2012-07-10T10:00:00	79	ND	ND	1883.91	ND	ND	0.5	337.8	26.3	59.7	575.1	0
21468	2012-07-10T11:00:00	102	ND	ND	1933.02	ND	ND	1.4	125.9	27.6	55	598.9	0
21469	2012-07-10T12:00:00	72	ND	ND	ND	ND	ND	1.6	159.5	29.1	51.2	819.9	0
21470	2012-07-10T13:00:00	82	ND	ND	ND	ND	ND	1.1	69.4	30.8	45	784.5	0
21471	2012-07-10T14:00:00	70	ND	ND	ND	ND	ND	0.8	78.8	31.1	43.6	388.6	0
21472	2012-07-10T15:00:00	81	ND	ND	ND	ND	ND	2.1	288.2	30.1	46.1	226.5	0
21473	2012-07-10T16:00:00	45	ND	ND	ND	ND	ND	3.3	276.6	30	45.6	295.4	0
21474	2012-07-10T17:00:00	48	ND	ND	ND	ND	ND	3.6	276.1	29	48.3	151.3	0
21475	2012-07-10T18:00:00	83	ND	ND	ND	ND	ND	4.3	275.6	27.7	52.5	63	0
21476	2012-07-10T19:00:00	43	ND	ND	ND	ND	ND	3.6	273	26.6	55.9	0	0
21477	2012-07-10T20:00:00	22	ND	ND	ND	ND	ND	4.5	272.1	26.1	57.6	0	0
21478	2012-07-10T21:00:00	24	ND	ND	ND	ND	ND	2.9	291.6	26	57.8	0	0
21479	2012-07-10T22:00:00	15	ND	ND	ND	ND	ND	2	280.5	26.1	56.2	0	0
21480	2012-07-10T23:00:00	8	ND	ND	ND	ND	ND	2.6	258.6	25.7	58.7	0	0
21481	2012-07-11T00:00:00	7	ND	ND	ND	ND	ND	3.3	272	25.2	61.3	0	0
21482	2012-07-11T01:00:00	4	ND	ND	ND	ND	ND	2.6	248.8	24.9	61.6	0	0
21483	2012-07-11T02:00:00	3	ND	ND	ND	ND	ND	1.2	218.6	24.6	62.3	0	0
21484	2012-07-11T03:00:00	3	ND	ND	ND	ND	ND	2.1	208.6	23.3	73.8	0	0
21485	2012-07-11T04:00:00	3	ND	ND	ND	ND	ND	0.8	231.4	23.5	70.3	0	0
21486	2012-07-11T05:00:00	5	ND	ND	ND	ND	ND	0.8	32.2	23.4	72.8	0	0
21487	2012-07-11T06:00:00	15	ND	ND	ND	ND	ND	0.8	63.9	22.5	77.9	0	0
21488	2012-07-11T07:00:00	50	ND	ND	ND	ND	ND	1	107.6	22.6	76.2	43.9	0
21489	2012-07-11T08:00:00	64	ND	ND	ND	ND	ND	0.8	124.7	23.7	72.6	164.6	0
21490	2012-07-11T09:00:00	74	ND	ND	ND	ND	ND	1.4	174.8	23.6	73.9	179.1	0
21491	2012-07-11T10:00:00	50	ND	ND	ND	ND	ND	1.2	126.8	25	68.4	311.3	0
21492	2012-07-11T11:00:00	69	ND	ND	ND	ND	ND	1.1	92.9	26.2	63.8	373.1	0
21493	2012-07-11T12:00:00	52	ND	ND	ND	ND	ND	1	108.2	26.1	62.6	189.4	0
21494	2012-07-11T13:00:00	71	ND	ND	ND	ND	ND	0.7	62.9	26.8	59.1	252.7	0
21495	2012-07-11T14:00:00	39	ND	ND	ND	ND	ND	0.9	75.6	27.2	57.9	317.7	0
21496	2012-07-11T15:00:00	51	ND	ND	ND	ND	ND	0.9	84.4	27.8	55.3	251.5	0
21497	2012-07-11T16:00:00	47	ND	ND	ND	ND	ND	1.1	187	27.5	57.1	80.1	0
21498	2012-07-11T17:00:00	38	ND	ND	ND	ND	ND	2.8	321.7	24.7	64.6	15.4	0
21499	2012-07-11T18:00:00	31	ND	ND	ND	ND	ND	2.3	281.8	24.4	64	9.5	0
21500	2012-07-11T19:00:00	17	ND	ND	ND	ND	ND	3.2	257.6	24	66.9	0	0
21501	2012-07-11T20:00:00	9	ND	ND	ND	ND	ND	1.1	344.4	24	67.4	0	0
21502	2012-07-11T21:00:00	26	ND	ND	ND	ND	ND	2	12.8	21.7	86.3	0	0
21503	2012-07-11T22:00:00	14	ND	ND	ND	ND	ND	1.8	39.6	21.2	89.7	0	0
21504	2012-07-11T23:00:00	10	ND	ND	ND	ND	ND	1.8	35.3	21.1	88.5	0	0
21505	2012-07-12T00:00:00	7	ND	ND	ND	ND	ND	1.2	23.7	21.3	85.9	0	0.25
21506	2012-07-12T01:00:00	5	ND	ND	ND	ND	ND	0.7	119.6	21.1	86.3	0	0
21507	2012-07-12T02:00:00	6	ND	ND	ND	ND	ND	0.7	134	20.9	86.5	0	0
21508	2012-07-12T03:00:00	5	ND	ND	ND	ND	ND	1.1	195.5	20.9	86.8	0	0
21509	2012-07-12T04:00:00	4	ND	ND	ND	ND	ND	0.9	143.7	20.7	88	0	0
21510	2012-07-12T05:00:00	3	ND	ND	ND	ND	ND	0.6	162.8	20.7	87.9	0	0
21511	2012-07-12T06:00:00	2	ND	ND	ND	ND	ND	1.2	186	20.9	86.6	0	0
21512	2012-07-12T07:00:00	18	ND	ND	ND	ND	ND	0.8	166.7	21.1	85.9	2.5	0
21513	2012-07-12T08:00:00	19	ND	ND	ND	ND	ND	0.9	147.2	21.2	85.7	44.3	0
21514	2012-07-12T09:00:00	42	ND	ND	ND	ND	ND	0.4	13.3	21.7	83.7	70.1	0
21515	2012-07-12T10:00:00	41	ND	ND	ND	ND	ND	1.4	16.3	22.2	81.8	143.9	0
21516	2012-07-12T11:00:00	57	ND	ND	ND	ND	ND	1	13.2	24.7	67.6	708.7	0
21517	2012-07-12T12:00:00	33	ND	ND	ND	ND	ND	1.4	64.1	26.6	58.9	806	0
21518	2012-07-12T13:00:00	28	ND	ND	ND	ND	ND	1.7	63.1	27.7	52.9	741.7	0
21519	2012-07-12T14:00:00	17	ND	ND	ND	ND	ND	1.6	36	29.5	46.4	811.4	0
21520	2012-07-12T15:00:00	20	ND	ND	ND	ND	ND	1.9	26.4	30	44.6	560.8	0
21521	2012-07-12T16:00:00	12	ND	ND	ND	ND	ND	3	27.3	29	48.3	268.4	0
21522	2012-07-12T17:00:00	32	ND	ND	ND	ND	ND	2.9	17	27.3	54.6	81.7	0
21523	2012-07-12T18:00:00	27	ND	ND	ND	ND	ND	1.9	12.6	26.5	60.2	34.7	0
21524	2012-07-12T19:00:00	60	ND	ND	ND	ND	ND	1.1	63.2	26.3	58.4	0	0
21525	2012-07-12T20:00:00	50	ND	ND	ND	ND	ND	0.6	258.2	26	58.3	0	0
21526	2012-07-12T21:00:00	50	ND	ND	ND	ND	ND	0.3	282.4	25.7	58.1	0	0
21527	2012-07-12T22:00:00	89	ND	ND	ND	ND	ND	0.5	74.1	24.6	64.6	0	0
21528	2012-07-12T23:00:00	ND	ND	ND	ND	ND	ND	1	142	24.4	67	0	0
21529	2012-07-13T00:00:00	88	ND	ND	ND	ND	ND	1.4	154.9	23.9	68.4	0	0
21530	2012-07-13T01:00:00	88	ND	ND	ND	ND	ND	1.4	167.7	23.2	71.6	0	0
21531	2012-07-13T02:00:00	75	ND	ND	ND	ND	ND	1.1	175.3	22.9	74.4	0	0
21532	2012-07-13T03:00:00	47	ND	ND	ND	ND	ND	0.5	246	22.9	74.4	0	0
21533	2012-07-13T04:00:00	26	ND	ND	ND	ND	ND	0.4	174.8	23	72.7	0	0
21534	2012-07-13T05:00:00	28	ND	ND	ND	ND	ND	1.1	123.1	22.4	78.9	0	0
21535	2012-07-13T06:00:00	26	ND	ND	ND	ND	ND	0.8	144.3	21.3	83.8	0	13.72
21536	2012-07-13T07:00:00	42	ND	ND	ND	ND	ND	0.3	ND	20.4	91.7	0.3	7.62
21537	2012-07-13T08:00:00	28	ND	ND	ND	ND	ND	0	ND	20.9	88.8	34.4	2.03
21538	2012-07-13T09:00:00	25	ND	ND	ND	ND	ND	0.2	ND	21.7	84.3	120.9	0
21539	2012-07-13T10:00:00	25	ND	ND	ND	ND	ND	0.6	118.8	22.5	83.3	278.8	0
21540	2012-07-13T11:00:00	47	ND	ND	ND	ND	ND	1.2	178.3	24.4	73.4	493.3	0
21541	2012-07-13T12:00:00	37	ND	ND	ND	ND	ND	1	170.1	24.7	69.4	289.4	0
21542	2012-07-13T13:00:00	63	ND	ND	ND	ND	ND	0.7	16	26.4	62.9	616.5	0
21543	2012-07-13T14:00:00	60	ND	ND	ND	ND	ND	2.2	37.2	26.6	62.6	461.1	0
21544	2012-07-13T15:00:00	47	ND	ND	ND	ND	ND	1.9	45.9	26.8	59.5	521.1	0
21545	2012-07-13T16:00:00	25	ND	ND	ND	ND	ND	2.3	20.4	27.7	53.4	514.8	0
21546	2012-07-13T17:00:00	14	ND	ND	ND	ND	ND	1.8	14.7	27.8	50.5	332.9	0
21547	2012-07-13T18:00:00	37	ND	ND	ND	ND	ND	2	28.3	27.1	54.9	95.2	0
21548	2012-07-13T19:00:00	42	ND	ND	ND	ND	ND	2	35.2	25.4	64	0	0
21549	2012-07-13T20:00:00	37	ND	ND	ND	ND	ND	1	19.9	24.9	63.8	0	0
21550	2012-07-13T21:00:00	61	ND	ND	ND	ND	ND	0.9	254.1	24.4	67.2	0	0
21551	2012-07-13T22:00:00	56	ND	ND	ND	ND	ND	1.3	264.6	24	69.3	0	0
21552	2012-07-13T23:00:00	46	ND	ND	ND	ND	ND	0.3	282.4	23.8	69.6	0	0
21553	2012-07-14T00:00:00	70	ND	ND	ND	ND	ND	0.5	86.9	23.3	73.3	0	0
21554	2012-07-14T01:00:00	87	ND	ND	ND	ND	ND	1.3	168.8	22.5	77.1	0	0
21555	2012-07-14T02:00:00	69	ND	ND	ND	ND	ND	0.8	173.2	21.9	79.3	0	0
21556	2012-07-14T03:00:00	62	ND	ND	ND	ND	ND	1.3	239.4	22	75.7	0	0
21557	2012-07-14T04:00:00	32	ND	ND	ND	ND	ND	0.8	239.5	22.4	69.6	0	0
21558	2012-07-14T05:00:00	19	ND	ND	ND	ND	ND	0.4	267.3	22.2	70.7	0	0
21559	2012-07-14T06:00:00	30	ND	ND	ND	ND	ND	0.2	ND	21.9	78.1	0	0
21560	2012-07-14T07:00:00	33	ND	ND	ND	ND	ND	0.1	ND	21.7	76.9	21.9	0
21561	2012-07-14T08:00:00	71	ND	ND	ND	ND	ND	0.3	ND	21.9	80.2	72.4	0
21562	2012-07-14T09:00:00	96	ND	ND	ND	ND	ND	0.7	ND	22.2	78.6	143	0
21563	2012-07-14T10:00:00	84	ND	ND	ND	ND	ND	0.3	178.8	23.6	72	252.8	0
21564	2012-07-14T11:00:00	ND	ND	ND	ND	ND	ND	0.8	144.6	24.3	68.8	216.2	0
21565	2012-07-14T12:00:00	ND	ND	ND	ND	ND	ND	0.3	146.8	24.9	68.1	392.2	0
21566	2012-07-14T13:00:00	ND	ND	ND	ND	ND	ND	0.6	47.8	25.8	64.9	345.7	0
21567	2012-07-14T14:00:00	104	ND	ND	ND	ND	ND	0.5	102.6	27.3	56.1	541.7	0
21568	2012-07-14T15:00:00	77	ND	ND	ND	ND	ND	0.7	114.6	28.3	51.5	448.4	0
21569	2012-07-14T16:00:00	54	ND	ND	ND	ND	ND	1.6	141.2	28.4	53.9	304.6	0
21570	2012-07-14T17:00:00	74	ND	ND	ND	ND	ND	0.7	138.5	28	55.9	146.9	0
21571	2012-07-14T18:00:00	75	ND	ND	ND	ND	ND	1.4	52.4	27.5	55.9	41.7	0
21572	2012-07-14T19:00:00	77	ND	ND	ND	ND	ND	1.3	27.3	26.8	57.6	0	0
21573	2012-07-14T20:00:00	39	ND	ND	ND	ND	ND	2	270.1	25.9	57.9	0	0
21574	2012-07-14T21:00:00	38	ND	ND	ND	ND	ND	2.1	273.9	25.1	60.9	0	0
21575	2012-07-14T22:00:00	58	ND	ND	ND	ND	ND	0.6	35.2	24.3	65.4	0	0
21576	2012-07-14T23:00:00	67	ND	ND	ND	ND	ND	0.9	259.5	23.9	66.4	0	0
21577	2012-07-15T00:00:00	38	ND	ND	ND	ND	ND	1.1	240.5	23.5	67.6	0	0
21578	2012-07-15T01:00:00	40	ND	ND	ND	ND	ND	1.1	207	22.9	71.6	0	0
21579	2012-07-15T02:00:00	37	ND	ND	ND	ND	ND	0.8	203.8	22.6	75.8	0	0
21580	2012-07-15T03:00:00	51	ND	ND	ND	ND	ND	0.4	ND	22.3	77.5	0	0
21581	2012-07-15T04:00:00	55	ND	ND	ND	ND	ND	0.1	ND	21.5	80.6	0	0
21582	2012-07-15T05:00:00	70	ND	ND	ND	ND	ND	0.8	9.4	20.8	84.8	0	0
21583	2012-07-15T06:00:00	64	ND	ND	ND	ND	ND	0.4	37.8	20.5	85.7	0	0
21584	2012-07-15T07:00:00	46	ND	ND	ND	ND	ND	0.1	ND	20.9	82.1	20	0
21585	2012-07-15T08:00:00	51	ND	ND	ND	ND	ND	0.8	66.6	21.4	82.1	97.8	0
21586	2012-07-15T09:00:00	70	ND	ND	ND	ND	ND	0.8	156.4	22.8	76.1	383.9	0
21587	2012-07-15T10:00:00	65	ND	ND	ND	ND	ND	1	86.2	24	69.6	352.8	0
21588	2012-07-15T11:00:00	84	ND	ND	ND	ND	ND	0.8	58.5	25.2	65.4	554.7	0
21589	2012-07-15T12:00:00	77	ND	ND	ND	ND	ND	1	73.2	26.4	61	432	0
21590	2012-07-15T13:00:00	80	ND	ND	ND	ND	ND	1.7	29.9	26.8	58.9	380.4	0
21591	2012-07-15T14:00:00	80	ND	ND	ND	ND	ND	1.5	43.6	27	56.8	393	0
21592	2012-07-15T15:00:00	67	ND	ND	ND	ND	ND	1.6	44.3	27.4	55.3	330.5	0
21593	2012-07-15T16:00:00	42	ND	ND	ND	ND	ND	2	49.9	28	53.6	367.1	0
21594	2012-07-15T17:00:00	23	ND	ND	ND	ND	ND	0.5	358.2	28.2	52.9	159.4	0
21595	2012-07-15T18:00:00	13	ND	ND	ND	ND	ND	2.7	267.1	27	56	72.1	0
21596	2012-07-15T19:00:00	8	ND	ND	ND	ND	ND	1.7	265.7	26.5	56.5	0	0
21597	2012-07-15T20:00:00	23	ND	ND	ND	ND	ND	0.8	275.7	26	59.5	0	0
21598	2012-07-15T21:00:00	16	ND	ND	ND	ND	ND	1.3	234.4	25.4	63.8	0	0
21599	2012-07-15T22:00:00	37	ND	ND	ND	ND	ND	0.9	216.9	24.3	70.2	0	0
21600	2012-07-15T23:00:00	43	ND	ND	ND	ND	ND	2.1	247.4	24.2	64.8	0	0
21601	2012-07-16T00:00:00	23	ND	ND	ND	ND	ND	1	347.6	23.5	71.8	0	0
21602	2012-07-16T01:00:00	31	ND	ND	ND	ND	ND	0.4	ND	23	74.5	0	0
21603	2012-07-16T02:00:00	18	ND	ND	ND	ND	ND	0.4	225.5	22.9	72.4	0	0
21604	2012-07-16T03:00:00	12	ND	ND	ND	ND	ND	0.7	199.1	22	78.7	0	0
21605	2012-07-16T04:00:00	8	ND	ND	ND	ND	ND	0.8	170.1	22	76.7	0	0
21606	2012-07-16T05:00:00	37	ND	ND	ND	ND	ND	0.8	170.1	21.5	79.3	0	0
21607	2012-07-16T06:00:00	21	ND	ND	ND	ND	ND	1	237.3	21.4	76.7	0	0
21608	2012-07-16T07:00:00	19	ND	ND	ND	ND	ND	0.9	242.8	21.6	73	35.7	0
21609	2012-07-16T08:00:00	28	ND	ND	ND	ND	ND	0.5	150.4	23.1	69.8	184.7	0
21610	2012-07-16T09:00:00	38	ND	ND	ND	ND	ND	0.6	63.6	24.3	67	371.5	0
21611	2012-07-16T10:00:00	51	ND	ND	ND	ND	ND	0.8	79.4	26	61.4	554.3	0
21612	2012-07-16T11:00:00	47	ND	ND	ND	ND	ND	1.4	98.7	27.7	54.4	732.2	0
21613	2012-07-16T12:00:00	24	ND	ND	ND	ND	ND	0.6	69.3	28.8	50	804.7	0
21614	2012-07-16T13:00:00	44	ND	ND	ND	ND	ND	1.2	82.9	30.3	45.1	813.2	0
21615	2012-07-16T14:00:00	55	ND	ND	ND	ND	ND	1.4	81.9	31.4	41.7	775.4	0
21616	2012-07-16T15:00:00	42	ND	ND	ND	ND	ND	1.5	73.7	32.3	39.1	673.7	0
21617	2012-07-16T16:00:00	23	ND	ND	ND	ND	ND	1.9	15.4	32.4	40.6	434.9	0
21618	2012-07-16T17:00:00	57	ND	ND	ND	ND	ND	3.3	287.6	29.8	50.3	141.7	0
21619	2012-07-16T18:00:00	41	ND	ND	ND	ND	ND	2.9	292.9	28.3	53.9	61.6	0
21620	2012-07-16T19:00:00	52	ND	ND	ND	ND	ND	3.3	281.2	27.5	55	0.6	0
21621	2012-07-16T20:00:00	28	ND	ND	ND	ND	ND	4.2	274.7	27	56.4	0	0
21622	2012-07-16T21:00:00	29	ND	ND	ND	ND	ND	2.1	289.2	26.8	56.8	0	0
21623	2012-07-16T22:00:00	17	ND	ND	ND	ND	ND	1.6	256	26.4	59.6	0	0
21624	2012-07-16T23:00:00	21	ND	ND	ND	ND	ND	1.6	223.1	25.4	65.4	0	0
21625	2012-07-17T00:00:00	33	ND	ND	ND	ND	ND	0.5	139.3	24.4	71.1	0	0
21626	2012-07-17T01:00:00	63	ND	ND	ND	ND	ND	1	123.5	23.6	74.8	0	0
21627	2012-07-17T02:00:00	49	ND	ND	ND	ND	ND	1.2	182.7	23.4	73	0	0
21628	2012-07-17T03:00:00	74	ND	ND	ND	ND	ND	0.9	171.5	23	76.1	0	0
21629	2012-07-17T04:00:00	78	ND	ND	ND	ND	ND	0.5	160.4	22.6	77.5	0	0
21630	2012-07-17T05:00:00	73	ND	ND	ND	ND	ND	0.2	ND	22.2	79.4	0	0
21631	2012-07-17T06:00:00	57	ND	ND	ND	ND	ND	0.4	ND	22.1	75.4	0	0
21632	2012-07-17T07:00:00	49	ND	ND	ND	ND	ND	0.8	230.8	22	74.6	39.1	0
21633	2012-07-17T08:00:00	48	ND	ND	ND	ND	ND	0.7	236.5	23.2	68.5	164.2	0
21634	2012-07-17T09:00:00	80	ND	ND	ND	ND	ND	1.4	54.1	24.7	68.6	318.3	0
21635	2012-07-17T10:00:00	74	ND	ND	ND	ND	ND	1	67.2	25.5	66.1	372.5	0
21636	2012-07-17T11:00:00	77	ND	ND	ND	ND	ND	1.3	64.1	27	61.2	589.7	0
21637	2012-07-17T12:00:00	54	ND	ND	ND	ND	ND	1.4	56.7	28.3	55.6	734.6	0
21638	2012-07-17T13:00:00	70	ND	ND	ND	ND	ND	1.6	63.9	29.8	50.9	772.8	0
21639	2012-07-17T14:00:00	44	ND	ND	ND	ND	ND	1.3	76.5	30.8	45.8	674.7	0
21640	2012-07-17T15:00:00	45	ND	ND	ND	ND	ND	1	83.4	31.8	41.5	607.4	0
21641	2012-07-17T16:00:00	43	ND	ND	ND	ND	ND	0.8	50.5	31.7	41	258.8	0
21642	2012-07-17T17:00:00	41	ND	ND	ND	ND	ND	2.4	287.9	31.3	45.1	310.4	0
21643	2012-07-17T18:00:00	55	ND	ND	ND	ND	ND	3.2	281	28.8	52.1	36.1	0
21644	2012-07-17T19:00:00	62	ND	ND	ND	ND	ND	5.1	269.1	27.6	55.6	0	0
21645	2012-07-17T20:00:00	33	ND	ND	ND	ND	ND	4.9	271.1	27.1	56.4	0	0
21646	2012-07-17T21:00:00	34	ND	ND	ND	ND	ND	3.7	278.4	26.5	58.6	0	0
21647	2012-07-17T22:00:00	18	ND	ND	ND	ND	ND	3.3	273.4	26.4	59	0	0
21648	2012-07-17T23:00:00	24	ND	ND	ND	ND	ND	1.4	211.7	25.8	63.2	0	0
21649	2012-07-18T00:00:00	18	ND	ND	ND	ND	ND	2.1	209.4	25.4	64.2	0	0
21650	2012-07-18T01:00:00	33	ND	ND	ND	ND	ND	1.6	233.3	25.4	65.3	0	0
21651	2012-07-18T02:00:00	18	ND	ND	ND	ND	ND	1.8	279.1	24.9	59.4	0	0
21652	2012-07-18T03:00:00	10	ND	ND	ND	ND	ND	1.7	276.1	24.7	58.3	0	0
21653	2012-07-18T04:00:00	7	ND	ND	ND	ND	ND	0.1	339.2	24.3	63.2	0	0
21654	2012-07-18T05:00:00	6	ND	ND	ND	ND	ND	1.3	258.3	24.1	59.5	0	0
21655	2012-07-18T06:00:00	5	ND	ND	ND	ND	ND	0.9	5.8	23.4	70.5	0	0
21656	2012-07-18T07:00:00	46	ND	ND	ND	ND	ND	0.7	143.5	22.8	77.5	15.5	0
21657	2012-07-18T08:00:00	42	ND	ND	ND	ND	ND	1.3	232.3	23.5	68.6	160.1	0
21658	2012-07-18T09:00:00	32	ND	ND	ND	ND	ND	1	200	25.2	63.6	428.9	0
21659	2012-07-18T10:00:00	40	ND	ND	ND	ND	ND	1.4	151.2	27.1	57	601.7	0
21660	2012-07-18T11:00:00	61	ND	ND	ND	ND	ND	1.3	119.7	28.6	51.7	744.6	0
21661	2012-07-18T12:00:00	53	ND	ND	ND	ND	ND	0.7	108.9	29.4	47.8	695.3	0
21662	2012-07-18T13:00:00	38	ND	ND	ND	ND	ND	1.3	26.9	30.7	43.8	811.9	0
21663	2012-07-18T14:00:00	20	ND	ND	ND	ND	ND	1.5	53.9	31.9	39.5	752.3	0
21664	2012-07-18T15:00:00	50	ND	ND	ND	ND	ND	1.5	20.8	32.6	37.5	648.1	0
21665	2012-07-18T16:00:00	56	ND	ND	ND	ND	ND	1.4	40.2	32.9	36.2	427.7	0
21666	2012-07-18T17:00:00	48	ND	ND	ND	ND	ND	1.6	355.7	32.4	37.9	309.1	0
21667	2012-07-18T18:00:00	35	ND	ND	ND	ND	ND	3.3	273	29.8	49.3	110.4	0
21668	2012-07-18T19:00:00	62	ND	ND	ND	ND	ND	4.2	267.8	28	54.3	3	0
21669	2012-07-18T20:00:00	51	ND	ND	ND	ND	ND	5.1	272.3	27.1	57.5	0	0
21670	2012-07-18T21:00:00	39	ND	ND	ND	ND	ND	3.3	271.7	26.9	57.9	0	0
21671	2012-07-18T22:00:00	20	ND	ND	ND	ND	ND	3.1	271.8	26.3	59.4	0	0
21672	2012-07-18T23:00:00	11	ND	ND	ND	ND	ND	2.2	287.6	25.7	60.9	0	0
21673	2012-07-19T00:00:00	7	ND	ND	ND	ND	ND	0.6	77.2	24.4	68.9	0	0
21674	2012-07-19T01:00:00	43	ND	ND	ND	ND	ND	1.6	201.2	24.2	64.7	0	0
21675	2012-07-19T02:00:00	32	ND	ND	ND	ND	ND	0.8	236.5	24	62.7	0	0
21676	2012-07-19T03:00:00	43	ND	ND	ND	ND	ND	1.3	198.4	23.1	68	0	0
21677	2012-07-19T04:00:00	34	ND	ND	ND	ND	ND	1.3	217.3	22.6	69.5	0	0
21678	2012-07-19T05:00:00	50	ND	ND	ND	ND	ND	0.6	292.8	22.3	71.2	0	0
21679	2012-07-19T06:00:00	29	ND	ND	ND	ND	ND	0.4	325.8	22.2	69.6	0	0
21680	2012-07-19T07:00:00	96	ND	ND	ND	ND	ND	0.7	49.5	21.1	80.2	6.2	0
21681	2012-07-19T08:00:00	104	ND	ND	ND	ND	ND	0.3	ND	21.7	78.7	125.2	0
21682	2012-07-19T09:00:00	ND	ND	ND	ND	ND	ND	0.7	104	24.4	64.6	380.3	0
21683	2012-07-19T10:00:00	ND	ND	ND	ND	ND	ND	0.8	103	26.6	55	571.4	0
21684	2012-07-19T11:00:00	ND	ND	ND	ND	ND	ND	1.3	67.7	28	50	726.5	0
21685	2012-07-19T12:00:00	ND	ND	ND	ND	ND	ND	1	124.6	29.6	43.8	833.4	0
21686	2012-07-19T13:00:00	ND	ND	ND	ND	ND	ND	1.2	87.8	31.1	38.6	681.4	0
21687	2012-07-19T14:00:00	75	ND	ND	ND	ND	ND	1.1	68.6	31.5	37.7	447.4	0
21688	2012-07-19T15:00:00	80	ND	ND	ND	ND	ND	1	94.1	32.1	35.4	527.1	0
21689	2012-07-19T16:00:00	58	ND	ND	ND	ND	ND	1.2	336.9	31.5	40.6	300.2	0
21690	2012-07-19T17:00:00	74	ND	ND	ND	ND	ND	3.6	276.8	29.9	47.2	219.1	0
21691	2012-07-19T18:00:00	49	ND	ND	ND	ND	ND	3.9	271.9	28.7	49.6	87.9	0
21692	2012-07-19T19:00:00	31	ND	ND	ND	ND	ND	4.5	268.5	27.1	54.4	0	0
21693	2012-07-19T20:00:00	18	ND	ND	ND	ND	ND	3.4	262.7	26.6	55.7	0	0
21694	2012-07-19T21:00:00	11	ND	ND	ND	ND	ND	3.1	270.5	26.1	56	0	0
21695	2012-07-19T22:00:00	7	ND	ND	ND	ND	ND	2.1	280.7	25.6	56.9	0	0
21696	2012-07-19T23:00:00	21	ND	ND	ND	ND	ND	1	58.1	24.3	66.7	0	0
21697	2012-07-20T00:00:00	49	ND	ND	ND	ND	ND	0.7	71	23.9	68.8	0	0
21698	2012-07-20T01:00:00	38	ND	ND	ND	ND	ND	0.9	258.1	23.8	62.8	0	0
21699	2012-07-20T02:00:00	22	ND	ND	ND	ND	ND	0.2	331.1	23.4	60.8	0	0
21700	2012-07-20T03:00:00	28	ND	ND	ND	ND	ND	1	42.4	22.7	72.7	0	0
21701	2012-07-20T04:00:00	34	ND	ND	ND	ND	ND	0.1	ND	22.6	74.1	0	0
21702	2012-07-20T05:00:00	32	ND	ND	ND	ND	ND	1.2	153.9	22	70.4	0	0
21703	2012-07-20T06:00:00	17	ND	ND	ND	ND	ND	1.1	202.8	21.8	58	0	0
21704	2012-07-20T07:00:00	25	ND	ND	ND	ND	ND	0.8	252.6	22.1	61.1	11.7	0
21705	2012-07-20T08:00:00	16	ND	ND	ND	ND	ND	0.9	249.6	22.4	61	68.1	0
21706	2012-07-20T09:00:00	42	ND	ND	ND	ND	ND	1	136.4	22.5	60.2	139.5	0
21707	2012-07-20T10:00:00	54	ND	ND	ND	ND	ND	0.9	84	23.4	57.8	291.5	0
21708	2012-07-20T11:00:00	68	ND	ND	ND	ND	ND	0.7	61.6	25.2	53.2	494.9	0
21709	2012-07-20T12:00:00	42	ND	ND	ND	ND	ND	0.7	66.6	27	46.4	587.3	0
21710	2012-07-20T13:00:00	55	ND	ND	ND	ND	ND	1.4	45.7	28.3	43.3	632.9	0
21711	2012-07-20T14:00:00	29	ND	ND	ND	ND	ND	1.5	46.6	29	43.5	567.8	0
21712	2012-07-20T15:00:00	40	ND	ND	ND	ND	ND	1.7	75.6	29	44.6	509.2	0
21713	2012-07-20T16:00:00	27	ND	ND	ND	ND	ND	1.1	73	29.1	43.8	293.3	0
21714	2012-07-20T17:00:00	34	ND	ND	ND	ND	ND	1.8	262.7	28.5	47.6	206.9	0
21715	2012-07-20T18:00:00	20	ND	ND	ND	ND	ND	2	275.3	27.1	51.8	26.4	0
21716	2012-07-20T19:00:00	23	ND	ND	ND	ND	ND	2.9	277.8	25.9	54.1	0	0
21717	2012-07-20T20:00:00	16	ND	ND	ND	ND	ND	2.9	266	25.7	53.5	0	0
21718	2012-07-20T21:00:00	17	ND	ND	ND	ND	ND	2.9	263.1	24.9	56.8	0	0
21719	2012-07-20T22:00:00	10	ND	ND	ND	ND	ND	2.4	268.9	24.4	57.8	0	0
21720	2012-07-20T23:00:00	7	ND	ND	ND	ND	ND	2.1	240.1	23.9	58.6	0	0
21721	2012-07-21T00:00:00	5	ND	ND	ND	ND	ND	0.9	242.9	23.2	62.5	0	0
21722	2012-07-21T01:00:00	46	ND	ND	ND	ND	ND	1.5	243.8	22.8	62.9	0	0
21723	2012-07-21T02:00:00	43	ND	ND	ND	ND	ND	1.3	250.8	22.5	64.2	0	0
21724	2012-07-21T03:00:00	23	ND	ND	ND	ND	ND	1	184.1	22.1	65.6	0	0
21725	2012-07-21T04:00:00	20	ND	ND	ND	ND	ND	1.1	152.1	21.1	72.5	0	0
21726	2012-07-21T05:00:00	37	ND	ND	ND	ND	ND	0.3	ND	20.7	74.6	0	0
21727	2012-07-21T06:00:00	44	ND	ND	ND	ND	ND	0.1	ND	20.5	74	0	0
21728	2012-07-21T07:00:00	50	ND	ND	ND	ND	ND	0.5	234.5	20.5	71.3	21.2	0
21729	2012-07-21T08:00:00	65	ND	ND	ND	ND	ND	0.8	253.4	21.6	64.8	173.2	0
21730	2012-07-21T09:00:00	46	ND	ND	ND	ND	ND	0.8	146.7	23.8	56.9	362.2	0
21731	2012-07-21T10:00:00	45	ND	ND	ND	ND	ND	0.9	112.2	25.4	55	553.1	0
21732	2012-07-21T11:00:00	86	ND	ND	ND	ND	ND	0.9	141.9	26.8	50.2	715.1	0
21733	2012-07-21T12:00:00	76	ND	ND	ND	ND	ND	0.7	94.5	28.5	45.2	789.7	0
21734	2012-07-21T13:00:00	73	ND	ND	ND	ND	ND	0.9	20.1	30.1	40.8	828.8	0
21735	2012-07-21T14:00:00	50	ND	ND	ND	ND	ND	1.2	36.7	31.4	39.1	796.8	0
21736	2012-07-21T15:00:00	66	ND	ND	ND	ND	ND	1.5	335.4	31.8	39.3	623.2	0
21737	2012-07-21T16:00:00	57	ND	ND	ND	ND	ND	4.1	281	29.5	47	225.3	0
21738	2012-07-21T17:00:00	57	ND	ND	ND	ND	ND	4.1	283.5	28.6	48.6	267.6	0
21739	2012-07-21T18:00:00	49	ND	ND	ND	ND	ND	3.9	288	27.5	50.8	50.3	0
21740	2012-07-21T19:00:00	42	ND	ND	ND	ND	ND	4.2	273.9	26.7	53.3	0.1	0
21741	2012-07-21T20:00:00	24	ND	ND	ND	ND	ND	3	274.8	26.4	54.1	0	0
21742	2012-07-21T21:00:00	12	ND	ND	ND	ND	ND	1.2	295.9	26	55.3	0	0
21743	2012-07-21T22:00:00	9	ND	ND	ND	ND	ND	1.9	273.9	25.3	58.3	0	0
21744	2012-07-21T23:00:00	16	ND	ND	ND	ND	ND	2	268	25.2	58.5	0	0
21745	2012-07-22T00:00:00	28	ND	ND	ND	ND	ND	0.4	30.2	23.7	67.2	0	0
21746	2012-07-22T01:00:00	44	ND	ND	ND	ND	ND	1.1	35.4	22.6	72.2	0	0
21747	2012-07-22T02:00:00	32	ND	ND	ND	ND	ND	0.7	39.3	22.4	72.8	0	0
21748	2012-07-22T03:00:00	29	ND	ND	ND	ND	ND	1	130.4	22.5	72.7	0	0
21749	2012-07-22T04:00:00	29	ND	ND	ND	ND	ND	0.7	135	22.2	73.7	0	0
21750	2012-07-22T05:00:00	50	ND	ND	ND	ND	ND	0.9	181	22.2	73.2	0	0
21751	2012-07-22T06:00:00	65	ND	ND	ND	ND	ND	0.6	140.6	22.1	73	0	0
21752	2012-07-22T07:00:00	74	ND	ND	ND	ND	ND	0.8	125.6	22	73.1	19.2	0
21753	2012-07-22T08:00:00	84	ND	ND	ND	ND	ND	0.5	97.2	22.3	72	86.1	0
21754	2012-07-22T09:00:00	111	ND	ND	ND	ND	ND	0.8	91.9	23.7	66.3	306.5	0
21755	2012-07-22T10:00:00	102	ND	ND	ND	ND	ND	0.8	112.4	25.7	58.5	546	0
21756	2012-07-22T11:00:00	79	ND	ND	ND	ND	ND	1.3	98.3	27.3	52.7	635.8	0
21757	2012-07-22T12:00:00	46	ND	ND	ND	ND	ND	1.2	50.1	29.1	48.1	838	0
21758	2012-07-22T13:00:00	57	ND	ND	ND	ND	ND	1.5	57	30	46.4	700.5	0
21759	2012-07-22T14:00:00	35	ND	ND	ND	ND	ND	1.3	35.3	30.8	45.4	597.2	0
21760	2012-07-22T15:00:00	53	ND	ND	ND	ND	ND	1.8	280	30.1	46.7	258.3	0
21761	2012-07-22T16:00:00	32	ND	ND	ND	ND	ND	3.5	270.3	29.2	47.7	174.9	0
21762	2012-07-22T17:00:00	30	ND	ND	ND	ND	ND	3.3	273.9	28	51.2	105.8	0
21763	2012-07-22T18:00:00	27	ND	ND	ND	ND	ND	3.6	268.7	27.7	51.8	66.9	0
21764	2012-07-22T19:00:00	16	ND	ND	ND	ND	ND	3.8	270.2	26.7	54.9	3	0
21765	2012-07-22T20:00:00	11	ND	ND	ND	ND	ND	3.8	268.8	26	57.2	0	0
21766	2012-07-22T21:00:00	7	ND	ND	ND	ND	ND	4.3	262.1	25.4	59.8	0	0
21767	2012-07-22T22:00:00	6	ND	ND	ND	ND	ND	3.1	283.9	25.2	59.6	0	0
21768	2012-07-22T23:00:00	6	ND	ND	ND	ND	ND	3.1	276.3	25.1	59.6	0	0
21769	2012-07-23T00:00:00	4	ND	ND	ND	ND	ND	1.5	302.2	24.7	61.5	0	0
21770	2012-07-23T01:00:00	3	ND	ND	ND	ND	ND	1	171.1	23.5	66.4	0	0
21771	2012-07-23T02:00:00	4	ND	ND	ND	ND	ND	1.7	211.6	23.2	69.3	0	0
21772	2012-07-23T03:00:00	32	ND	ND	ND	ND	ND	2	187.1	22.1	74.1	0	0
21773	2012-07-23T04:00:00	35	ND	ND	ND	ND	ND	0.6	170	21.9	71.1	0	0
21774	2012-07-23T05:00:00	68	ND	ND	ND	ND	ND	0.5	65.1	21.8	73.6	0	0
21775	2012-07-23T06:00:00	52	ND	ND	ND	ND	ND	0.8	358.4	21.6	77	0	0
21776	2012-07-23T07:00:00	109	ND	ND	ND	ND	ND	0.5	190.4	21.5	77.8	19.6	0
21777	2012-07-23T08:00:00	83	ND	ND	ND	ND	ND	0.6	120.5	21.8	75.2	83.2	0
21778	2012-07-23T09:00:00	ND	ND	ND	ND	ND	ND	0.6	90.8	22.7	71.5	169.6	0
21779	2012-07-23T10:00:00	ND	ND	ND	ND	ND	ND	0.7	159	24.6	62.5	406.4	0
21780	2012-07-23T11:00:00	ND	ND	ND	ND	ND	ND	1.3	122.4	25.7	57.9	255.7	0
21781	2012-07-23T12:00:00	ND	ND	ND	ND	ND	ND	1.4	137.5	26.7	55.7	511.8	0
21782	2012-07-23T13:00:00	99	ND	ND	ND	ND	ND	1.3	127.3	27.3	53.6	454.5	0
21783	2012-07-23T14:00:00	68	ND	ND	ND	ND	ND	1.4	177.8	28.9	48.8	804.1	0
21784	2012-07-23T15:00:00	66	ND	ND	ND	ND	ND	1.5	154.6	30.4	42.9	699.8	0
21785	2012-07-23T16:00:00	54	ND	ND	ND	ND	ND	1.4	130.4	30.9	39.1	522	0
21786	2012-07-23T17:00:00	64	ND	ND	ND	ND	ND	0.7	32.4	30.1	40.5	103.1	0
21787	2012-07-23T18:00:00	59	ND	ND	ND	ND	ND	2.8	284.5	27.8	50.3	29.7	0
21788	2012-07-23T19:00:00	46	ND	ND	ND	ND	ND	3.1	276.2	26.9	52	0	0
21789	2012-07-23T20:00:00	27	ND	ND	ND	ND	ND	3.9	276.3	26.3	54.3	0	0
21790	2012-07-23T21:00:00	22	ND	ND	ND	ND	ND	2.7	284.2	26.1	54.4	0	0
21791	2012-07-23T22:00:00	12	ND	ND	ND	ND	ND	1.6	288.4	26	55.4	0	0
21792	2012-07-23T23:00:00	17	ND	ND	ND	ND	ND	1.9	285.6	25.6	57.6	0	0
21793	2012-07-24T00:00:00	10	ND	ND	ND	ND	ND	2.1	255.3	25	60.1	0	0
21794	2012-07-24T01:00:00	26	ND	ND	ND	ND	ND	2	202.1	23.9	66.5	0	0
21795	2012-07-24T02:00:00	27	ND	ND	ND	ND	ND	1.1	182.2	23.7	66.6	0	0
21796	2012-07-24T03:00:00	63	ND	ND	ND	ND	ND	0.8	228.5	23.7	66.4	0	0
21797	2012-07-24T04:00:00	64	ND	ND	ND	ND	ND	0.3	65.8	22.7	73.9	0	0
21798	2012-07-24T05:00:00	35	ND	ND	ND	ND	ND	0.1	70.6	22.8	70.3	0	0
21799	2012-07-24T06:00:00	28	ND	ND	ND	ND	ND	0.7	109.2	22.2	75.4	0	0
21800	2012-07-24T07:00:00	36	ND	ND	ND	ND	ND	1	205.2	22.1	76.1	22.8	0
21801	2012-07-24T08:00:00	45	ND	ND	ND	ND	ND	1.1	152.9	22.3	74.1	88.8	0
21802	2012-07-24T09:00:00	69	ND	ND	ND	ND	ND	1.1	145.5	24.1	64.6	378.8	0
21803	2012-07-24T10:00:00	50	ND	ND	ND	ND	ND	1	147.5	26.2	57.9	589.1	0
21804	2012-07-24T11:00:00	68	ND	ND	ND	ND	ND	1.1	97.4	27.6	53	709.9	0
21805	2012-07-24T12:00:00	81	ND	ND	ND	ND	ND	1.2	89.5	29.3	48	799	0
21806	2012-07-24T13:00:00	58	ND	ND	ND	ND	ND	1.2	104.8	29.2	48.4	404.7	0
21807	2012-07-24T14:00:00	66	ND	ND	ND	ND	ND	0.3	81.1	29.5	48.4	295.1	0
21808	2012-07-24T15:00:00	52	ND	ND	ND	ND	ND	2.6	298.9	29.1	48	332.3	0
21809	2012-07-24T16:00:00	35	ND	ND	ND	ND	ND	3.1	278.7	29.6	44.8	564.9	0
21810	2012-07-24T17:00:00	22	ND	ND	ND	ND	ND	3	273.3	29.7	43.8	264.7	0
21811	2012-07-24T18:00:00	14	ND	ND	ND	ND	ND	3.3	280.4	28.4	47.8	135	0
21812	2012-07-24T19:00:00	10	ND	ND	ND	ND	ND	3.1	271.2	26.9	52.1	1.6	0
21813	2012-07-24T20:00:00	23	ND	ND	ND	ND	ND	4	266.1	25.9	56.2	0	0
21814	2012-07-24T21:00:00	15	ND	ND	ND	ND	ND	3.9	270.1	25.3	57.9	0	0
21815	2012-07-24T22:00:00	10	ND	ND	ND	ND	ND	1.7	294.9	25.4	56.8	0	0
21816	2012-07-24T23:00:00	5	ND	ND	ND	ND	ND	1.6	258.9	25	58.3	0	0
21817	2012-07-25T00:00:00	8	ND	ND	ND	ND	ND	0.5	20.7	23.8	65.4	0	0
21818	2012-07-25T01:00:00	16	ND	ND	ND	ND	ND	0.7	105.8	22.8	70.8	0	0
21819	2012-07-25T02:00:00	9	ND	ND	ND	ND	ND	1.5	171.7	22.3	75.7	0	0
21820	2012-07-25T03:00:00	49	ND	ND	ND	ND	ND	0.5	105.2	22.1	76.5	0	0
21821	2012-07-25T04:00:00	27	ND	ND	ND	ND	ND	0.5	ND	21.6	78.7	0	0
21822	2012-07-25T05:00:00	67	ND	ND	ND	ND	ND	0.3	ND	21.5	78.4	0	0
21823	2012-07-25T06:00:00	80	ND	ND	ND	ND	ND	0.1	ND	21.3	77.7	0	0
21824	2012-07-25T07:00:00	58	ND	ND	ND	ND	ND	0.7	251.5	21.4	71.1	9.9	0
21825	2012-07-25T08:00:00	31	ND	ND	ND	ND	ND	0.4	233.5	22	67.8	86.3	0
21826	2012-07-25T09:00:00	120	ND	ND	ND	ND	ND	1.4	75.9	22.2	73.5	220.9	0
21827	2012-07-25T10:00:00	118	ND	ND	ND	ND	ND	0.8	110.1	24.8	62.3	569.8	0
21828	2012-07-25T11:00:00	96	ND	ND	ND	ND	ND	1	130.1	27	54	710.7	0
21829	2012-07-25T12:00:00	70	ND	ND	ND	ND	ND	1	142.8	28.5	48.4	794.8	0
21830	2012-07-25T13:00:00	90	ND	ND	ND	ND	ND	0.8	109.9	30.3	42.8	827.7	0
21831	2012-07-25T14:00:00	66	ND	ND	ND	ND	ND	1.6	117.5	31.8	36.8	797.5	0
21832	2012-07-25T15:00:00	52	ND	ND	ND	ND	ND	0.8	56.1	33.3	30.5	701.5	0
21833	2012-07-25T16:00:00	28	ND	ND	ND	ND	ND	0.8	76.1	33.7	26	524.4	0
21834	2012-07-25T17:00:00	37	ND	ND	ND	ND	ND	3.2	280	31.9	38.4	313.3	0
21835	2012-07-25T18:00:00	26	ND	ND	ND	ND	ND	4	280.5	29.4	46.7	110.9	0
21836	2012-07-25T19:00:00	59	ND	ND	ND	ND	ND	3.6	282.2	27.7	50.7	1.1	0
21837	2012-07-25T20:00:00	40	ND	ND	ND	ND	ND	3.5	286.3	27.2	50.7	0	0
21838	2012-07-25T21:00:00	23	ND	ND	ND	ND	ND	3.9	270	26.5	55.2	0	0
21839	2012-07-25T22:00:00	31	ND	ND	ND	ND	ND	3	255.5	26	56.6	0	0
21840	2012-07-25T23:00:00	25	ND	ND	ND	ND	ND	0.2	313.6	25.3	59.1	0	0
21841	2012-07-26T00:00:00	76	ND	ND	ND	ND	ND	0.6	125.6	24.1	64.2	0	0
21842	2012-07-26T01:00:00	100	ND	ND	ND	ND	ND	0.4	341.2	23.7	67.3	0	0
21843	2012-07-26T02:00:00	73	ND	ND	ND	ND	ND	0.5	70.6	22.7	72.9	0	0
21844	2012-07-26T03:00:00	61	ND	ND	ND	ND	ND	0.6	215.2	22.7	70.1	0	0
21845	2012-07-26T04:00:00	39	ND	ND	ND	ND	ND	1	210.1	23	65	0	0
21846	2012-07-26T05:00:00	56	ND	ND	ND	ND	ND	0.8	175	22.5	68.6	0	0
21847	2012-07-26T06:00:00	74	ND	ND	ND	ND	ND	0.4	ND	21.7	69.5	0	0
21848	2012-07-26T07:00:00	58	ND	ND	ND	ND	ND	0.2	ND	21.9	68.8	29.5	0
21849	2012-07-26T08:00:00	58	ND	ND	ND	ND	ND	0.2	231.5	23.5	63.1	182.8	0
21850	2012-07-26T09:00:00	79	ND	ND	ND	ND	ND	1.1	133.7	25.2	56.4	375.6	0
21851	2012-07-26T10:00:00	69	ND	ND	ND	ND	ND	0.8	102.5	26.8	52.6	567.4	0
21852	2012-07-26T11:00:00	79	ND	ND	ND	ND	ND	1.1	96.5	28.5	48.6	716.7	0
21853	2012-07-26T12:00:00	42	ND	ND	ND	ND	ND	1.2	97.6	29.7	45.5	806.4	0
21854	2012-07-26T13:00:00	45	ND	ND	ND	ND	ND	1	39.7	31.2	40.5	823.2	0
21855	2012-07-26T14:00:00	35	ND	ND	ND	ND	ND	0.9	51.3	32.2	36.6	752.8	0
21856	2012-07-26T15:00:00	48	ND	ND	ND	ND	ND	1.3	18.4	33.5	32.4	657.9	0
21857	2012-07-26T16:00:00	61	ND	ND	ND	ND	ND	1.4	288.3	33	35.9	459.3	0
21858	2012-07-26T17:00:00	71	ND	ND	ND	ND	ND	4.4	280.9	30.3	46.2	286.8	0
21859	2012-07-26T18:00:00	42	ND	ND	ND	ND	ND	4.2	277.4	29.2	48.9	122.5	0
21860	2012-07-26T19:00:00	65	ND	ND	ND	ND	ND	3.1	287.3	27.9	51.9	0.2	0
21861	2012-07-26T20:00:00	50	ND	ND	ND	ND	ND	2.6	290.3	27.5	52.5	0	0
21862	2012-07-26T21:00:00	45	ND	ND	ND	ND	ND	2.4	288.2	27	54.2	0	0
21863	2012-07-26T22:00:00	23	ND	ND	ND	ND	ND	2.5	268	26.6	55.9	0	0
21864	2012-07-26T23:00:00	20	ND	ND	ND	ND	ND	0.9	311.5	25.9	60.1	0	0
21865	2012-07-27T00:00:00	39	ND	ND	ND	ND	ND	0.8	145.8	25.1	63.1	0	0
21866	2012-07-27T01:00:00	68	ND	ND	ND	ND	ND	1.9	183.6	24.2	66.5	0	0
21867	2012-07-27T02:00:00	40	ND	ND	ND	ND	ND	0.4	233	24.3	65.8	0	0
21868	2012-07-27T03:00:00	60	ND	ND	ND	ND	ND	1	15.3	23	74.2	0	0
21869	2012-07-27T04:00:00	82	ND	ND	ND	ND	ND	0.1	ND	23.2	72.6	0	0
21870	2012-07-27T05:00:00	46	ND	ND	ND	ND	ND	0.8	208.8	23.1	66.6	0	0
21871	2012-07-27T06:00:00	36	ND	ND	ND	ND	ND	0.5	139	22.4	71.4	0	0
21872	2012-07-27T07:00:00	58	ND	ND	ND	ND	ND	0.7	219.2	22.7	69.7	24.8	0
21873	2012-07-27T08:00:00	47	ND	ND	ND	ND	ND	0.3	255.6	24.2	62.9	176.7	0
21874	2012-07-27T09:00:00	92	ND	ND	ND	ND	ND	1.3	61.9	25.2	64.5	296.2	0
21875	2012-07-27T10:00:00	101	ND	ND	ND	ND	ND	1.1	99.2	26.4	60.4	459.8	0
21876	2012-07-27T11:00:00	79	ND	ND	ND	ND	ND	0.3	108.5	27.7	55.4	603.3	0
21877	2012-07-27T12:00:00	63	ND	ND	ND	ND	ND	1.4	124.2	29.5	50	735.5	0
21878	2012-07-27T13:00:00	65	ND	ND	ND	ND	ND	1.6	71.1	31	45.2	807.5	0
21879	2012-07-27T14:00:00	69	ND	ND	ND	ND	ND	1.3	46.6	31.9	43.1	703.7	0
21880	2012-07-27T15:00:00	64	ND	ND	ND	ND	ND	1.6	52.4	31.8	43.2	305.1	0
21881	2012-07-27T16:00:00	50	ND	ND	ND	ND	ND	1	298.3	31	46.2	226.7	0
21882	2012-07-27T17:00:00	39	ND	ND	ND	ND	ND	3.7	284.1	29.4	50.2	104.8	0
21883	2012-07-27T18:00:00	54	ND	ND	ND	ND	ND	3.4	276	28.3	53	26.7	0
21884	2012-07-27T19:00:00	32	ND	ND	ND	ND	ND	3.2	265.8	27.7	54.3	0	0
21885	2012-07-27T20:00:00	17	ND	ND	ND	ND	ND	2.6	278.2	27.4	54.6	0	0
21886	2012-07-27T21:00:00	23	ND	ND	ND	ND	ND	2	283.4	27	56.3	0	0
21887	2012-07-27T22:00:00	33	ND	ND	ND	ND	ND	2	271.3	26.4	59.3	0	0
21888	2012-07-27T23:00:00	16	ND	ND	ND	ND	ND	1	286.3	25.9	61.7	0	0
21889	2012-07-28T00:00:00	34	ND	ND	ND	ND	ND	0.4	98.6	24.9	68.4	0	0
21890	2012-07-28T01:00:00	69	ND	ND	ND	ND	ND	2	197.6	24.6	69.4	0	0
21891	2012-07-28T02:00:00	36	ND	ND	ND	ND	ND	1.6	184.2	24.6	68.4	0	0
21892	2012-07-28T03:00:00	55	ND	ND	ND	ND	ND	0.1	284.1	24.4	69.8	0	0
21893	2012-07-28T04:00:00	47	ND	ND	ND	ND	ND	0.6	142.1	23.9	71.5	0	0
21894	2012-07-28T05:00:00	74	ND	ND	ND	ND	ND	0.6	165.5	23.8	69.8	0	0
21895	2012-07-28T06:00:00	52	ND	ND	ND	ND	ND	0.6	104.2	23.7	71.8	0	0
21896	2012-07-28T07:00:00	97	ND	ND	ND	ND	ND	0.8	88.6	23.3	75	12	0
21897	2012-07-28T08:00:00	120	ND	ND	ND	ND	ND	0.7	161	23.8	70.8	105.2	0
21898	2012-07-28T09:00:00	105	ND	ND	ND	ND	ND	0.8	136.5	25	67	258	0
21899	2012-07-28T10:00:00	109	ND	ND	ND	ND	ND	1.3	148.4	25.9	61.7	383.8	0
21900	2012-07-28T11:00:00	74	ND	ND	ND	ND	ND	0.6	108.7	27	58.3	420.6	0
21901	2012-07-28T12:00:00	59	ND	ND	ND	ND	ND	0.9	146.9	27.8	55.2	328.8	0
21902	2012-07-28T13:00:00	79	ND	ND	ND	ND	ND	1.4	75.6	27.8	56.2	283.5	0
21903	2012-07-28T14:00:00	72	ND	ND	ND	ND	ND	0.9	34	28.3	53.9	408	0
21904	2012-07-28T15:00:00	61	ND	ND	ND	ND	ND	0.7	106.6	29.3	49.8	355.1	0
21905	2012-07-28T16:00:00	54	ND	ND	ND	ND	ND	1.3	70.8	29.1	51.8	246.2	0
21906	2012-07-28T17:00:00	58	ND	ND	ND	ND	ND	2	48.2	28.6	50.3	143.8	0
21907	2012-07-28T18:00:00	39	ND	ND	ND	ND	ND	1.5	57.6	27.9	51.1	45.9	0
21908	2012-07-28T19:00:00	52	ND	ND	ND	ND	ND	0.9	283.9	27.2	54.9	0	0
21909	2012-07-28T20:00:00	27	ND	ND	ND	ND	ND	3.3	270.5	26.2	57.3	0	0
21910	2012-07-28T21:00:00	29	ND	ND	ND	ND	ND	3.3	262.8	26	57.1	0	0
21911	2012-07-28T22:00:00	18	ND	ND	ND	ND	ND	2	288.2	25.7	57.8	0	0
21912	2012-07-28T23:00:00	19	ND	ND	ND	ND	ND	1.3	258.8	25.5	58.4	0	0
21913	2012-07-29T00:00:00	10	ND	ND	ND	ND	ND	0.5	278.2	24.7	64.3	0	0
21914	2012-07-29T01:00:00	34	ND	ND	ND	ND	ND	1.6	183.7	24	68.4	0	0
21915	2012-07-29T02:00:00	63	ND	ND	ND	ND	ND	1.3	175.6	23.5	71.5	0	0
21916	2012-07-29T03:00:00	53	ND	ND	ND	ND	ND	0.8	192.6	23.5	70.1	0	0
21917	2012-07-29T04:00:00	47	ND	ND	ND	ND	ND	0.5	103.3	23.2	72.1	0	0
21918	2012-07-29T05:00:00	51	ND	ND	ND	ND	ND	0.9	147.1	22.6	73	0	0
21919	2012-07-29T06:00:00	55	ND	ND	ND	ND	ND	0.4	42.7	22.2	75.4	0	0
21920	2012-07-29T07:00:00	68	ND	ND	ND	ND	ND	0.4	ND	22	76.7	39.4	0
21921	2012-07-29T08:00:00	57	ND	ND	ND	ND	ND	1.5	126.5	22.4	73	149.1	0
21922	2012-07-29T09:00:00	64	ND	ND	ND	ND	ND	0.8	127.6	23.1	70.6	242.5	0
21923	2012-07-29T10:00:00	54	ND	ND	ND	ND	ND	0.9	61.7	25.3	59.4	534.5	0
21924	2012-07-29T11:00:00	42	ND	ND	ND	ND	ND	0.8	138.4	27.8	49.6	748.8	0
21925	2012-07-29T12:00:00	63	ND	ND	ND	ND	ND	1.5	116.2	28.5	47.6	567.3	0
21926	2012-07-29T13:00:00	82	ND	ND	ND	ND	ND	1.1	107.6	30.1	44.5	714.7	0
21927	2012-07-29T14:00:00	52	ND	ND	ND	ND	ND	0.3	328.8	30.4	43.3	471.7	0
21928	2012-07-29T15:00:00	34	ND	ND	ND	ND	ND	0.5	324.5	30.3	43.3	237.9	0
21929	2012-07-29T16:00:00	21	ND	ND	ND	ND	ND	3.6	280	29.3	46.1	213.3	0
21930	2012-07-29T17:00:00	29	ND	ND	ND	ND	ND	3.5	282.1	27.8	50.4	168.6	0
21931	2012-07-29T18:00:00	27	ND	ND	ND	ND	ND	2.9	282.1	26.8	52.9	48	0
21932	2012-07-29T19:00:00	16	ND	ND	ND	ND	ND	3.8	269.5	25.9	55.1	0	0
21933	2012-07-29T20:00:00	9	ND	ND	ND	ND	ND	3.7	272.2	25.6	56.8	0	0
21934	2012-07-29T21:00:00	9	ND	ND	ND	ND	ND	3.3	272.4	25.5	57	0	0
21935	2012-07-29T22:00:00	13	ND	ND	ND	ND	ND	0.5	278.4	25	60.4	0	0
21936	2012-07-29T23:00:00	17	ND	ND	ND	ND	ND	2.8	235.1	24.3	62.1	0	0
21937	2012-07-30T00:00:00	11	ND	ND	ND	ND	ND	2.5	259.5	24	62	0	0
21938	2012-07-30T01:00:00	6	ND	ND	ND	ND	ND	0.3	302.2	23.6	64.4	0	0
21939	2012-07-30T02:00:00	17	ND	ND	ND	ND	ND	1	138.8	22.7	70.1	0	0
21940	2012-07-30T03:00:00	27	ND	ND	ND	ND	ND	0.8	216	23	67.8	0	0
21941	2012-07-30T04:00:00	32	ND	ND	ND	ND	ND	0.4	122.9	22.6	70.9	0	0
21942	2012-07-30T05:00:00	58	ND	ND	ND	ND	ND	0.3	150.4	21.6	78.9	0	0
21943	2012-07-30T06:00:00	63	ND	ND	ND	ND	ND	0.5	176.4	21.4	81.5	0	0
21944	2012-07-30T07:00:00	59	ND	ND	ND	ND	ND	0.1	ND	21.6	79.7	7.8	0
21945	2012-07-30T08:00:00	66	ND	ND	ND	ND	ND	0.5	122.9	22.2	76.5	78.1	0
21946	2012-07-30T09:00:00	71	ND	ND	ND	ND	ND	1.1	137.5	22.9	71.6	195.2	0
21947	2012-07-30T10:00:00	71	ND	ND	ND	ND	ND	ND	ND	ND	ND	ND	ND
21948	2012-07-30T11:00:00	ND	ND	ND	ND	ND	ND	ND	ND	ND	ND	ND	ND
21949	2012-07-30T12:00:00	83	ND	ND	ND	ND	ND	1.1	127.4	27.2	54.5	414.3	0
21950	2012-07-30T13:00:00	61	ND	ND	ND	ND	ND	1.1	111.7	28.1	50.7	500.3	0
21951	2012-07-30T14:00:00	65	ND	ND	ND	ND	ND	1.2	89	28.2	51.9	435.1	0
21952	2012-07-30T15:00:00	68	ND	ND	ND	ND	ND	2.2	44.4	27.5	53.6	177.1	0
21953	2012-07-30T16:00:00	45	ND	ND	ND	ND	ND	1.2	324.6	27.6	53.2	286.8	0
21954	2012-07-30T17:00:00	40	ND	ND	ND	ND	ND	3.3	280.4	27.1	52.2	183	0
21955	2012-07-30T18:00:00	43	ND	ND	ND	ND	ND	2.6	290.5	26.1	54	41.7	0
21956	2012-07-30T19:00:00	29	ND	ND	ND	ND	ND	3.1	275.7	25.5	55.8	0	0
21957	2012-07-30T20:00:00	16	ND	ND	ND	ND	ND	2.1	273.1	25.1	57.5	0	0
21958	2012-07-30T21:00:00	17	ND	ND	ND	ND	ND	1.5	52	24.1	64.2	0	0
21959	2012-07-30T22:00:00	10	ND	ND	ND	ND	ND	0.6	74.9	23.2	68.8	0	0
21960	2012-07-30T23:00:00	7	ND	ND	ND	ND	ND	0.9	260.9	23.7	64.2	0	0
21961	2012-07-31T00:00:00	9	ND	ND	ND	ND	ND	0.7	64.4	22.2	73.3	0	0
21962	2012-07-31T01:00:00	25	ND	ND	ND	ND	ND	0.5	104.7	21.8	75.3	0	0
21963	2012-07-31T02:00:00	15	ND	ND	ND	ND	ND	0.7	127.3	21.7	76.3	0	0
21964	2012-07-31T03:00:00	17	ND	ND	ND	ND	ND	0.7	175.1	21.6	76.6	0	0
21965	2012-07-31T04:00:00	15	ND	ND	ND	ND	ND	0.8	172.6	21.6	77.9	0	0
21966	2012-07-31T05:00:00	16	ND	ND	ND	ND	ND	0.7	139.3	21.3	79.5	0	0
21967	2012-07-31T06:00:00	16	ND	ND	ND	ND	ND	0.5	88.1	21.2	79.5	0	0
21968	2012-07-31T07:00:00	41	ND	ND	ND	ND	ND	0.5	152.5	21	80.6	16.6	0
21969	2012-07-31T08:00:00	49	ND	ND	ND	ND	ND	0.5	110.9	21.9	76.7	154.7	0
21970	2012-07-31T09:00:00	81	ND	ND	ND	ND	ND	0.7	107.3	23.7	69.1	373.1	0
21971	2012-07-31T10:00:00	67	ND	ND	ND	ND	ND	1.3	66.3	25.2	61.3	477.9	0
21972	2012-07-31T11:00:00	87	ND	ND	ND	ND	ND	1.1	95.2	26.7	54.4	728	0
21973	2012-07-31T12:00:00	74	ND	ND	ND	ND	ND	1.4	105.7	28.1	49.2	844.3	0
21974	2012-07-31T13:00:00	63	ND	ND	ND	ND	ND	1	96.5	29.6	44.5	740.8	0
21975	2012-07-31T14:00:00	56	ND	ND	ND	ND	ND	0.8	84.2	30.9	39.9	781.6	0
21976	2012-07-31T15:00:00	38	ND	ND	ND	ND	ND	1.1	60.2	31.7	36.8	687.7	0
21977	2012-07-31T16:00:00	21	ND	ND	ND	ND	ND	1.1	66.9	32	33.8	508	0
21978	2012-07-31T17:00:00	25	ND	ND	ND	ND	ND	2	63.5	31.6	35.9	240.3	0
21979	2012-07-31T18:00:00	20	ND	ND	ND	ND	ND	0.7	338	30.3	41.7	41.9	0
21980	2012-07-31T19:00:00	34	ND	ND	ND	ND	ND	3.2	276.7	28.8	42.1	0	0
21981	2012-07-31T20:00:00	22	ND	ND	ND	ND	ND	0.9	290.1	28.3	42.6	0	0
21982	2012-07-31T21:00:00	48	ND	ND	ND	ND	ND	1.4	32	26.3	55.6	0	0
21983	2012-07-31T22:00:00	60	ND	ND	ND	ND	ND	0.6	288.8	25.9	56	0	0
21984	2012-07-31T23:00:00	48	ND	ND	ND	ND	ND	2.3	252.7	25.8	52.2	0	0
21985	2012-08-01T00:00:00	33	ND	ND	ND	ND	ND	1.7	200.4	25.2	60.2	0	0
21986	2012-08-01T01:00:00	19	ND	ND	ND	ND	ND	1.8	238	25	57.5	0	0
21987	2012-08-01T02:00:00	17	ND	ND	ND	ND	ND	1.2	219.1	24.6	61.8	0	0
21988	2012-08-01T03:00:00	54	ND	ND	ND	ND	ND	0.8	144.7	24.1	65.3	0	0
21989	2012-08-01T04:00:00	34	ND	ND	ND	ND	ND	0.8	161.7	23.3	69.2	0	0
21990	2012-08-01T05:00:00	56	ND	ND	ND	ND	ND	1.1	155.8	23	70.4	0	0
21991	2012-08-01T06:00:00	64	ND	ND	ND	ND	ND	1	150.2	22.5	73.2	0	0
21992	2012-08-01T07:00:00	100	ND	ND	ND	ND	ND	0.7	120.5	22.8	71.4	4.6	0
21993	2012-08-01T08:00:00	108	ND	ND	ND	ND	ND	0.4	62.5	24.2	64.7	193.5	0
21994	2012-08-01T09:00:00	77	ND	ND	ND	ND	ND	0.4	174.2	26	58.7	433.8	0
21995	2012-08-01T10:00:00	84	ND	ND	ND	ND	ND	1.6	66.6	27.1	56.2	413.8	0
21996	2012-08-01T11:00:00	79	ND	ND	ND	ND	ND	1.6	75.2	27.8	52.8	514.8	0
21997	2012-08-01T12:00:00	65	ND	ND	ND	ND	ND	1	94.8	29.8	46.5	700.1	0
21998	2012-08-01T13:00:00	64	ND	ND	ND	ND	ND	1.1	74.3	30.6	43.5	657.8	0
21999	2012-08-01T14:00:00	55	ND	ND	ND	ND	ND	0.6	102.6	30.5	43.6	452.6	0
22000	2012-08-01T15:00:00	41	ND	ND	ND	ND	ND	3.9	279.7	29.9	45.7	419.9	0
22001	2012-08-01T16:00:00	26	ND	ND	ND	ND	ND	3.4	283.7	28.7	47.6	192.3	0
22002	2012-08-01T17:00:00	37	ND	ND	ND	ND	ND	2.9	269.6	29.1	44.4	147.3	0
22003	2012-08-01T18:00:00	22	ND	ND	ND	ND	ND	1.9	265.6	28.9	46.5	67.6	0
22004	2012-08-01T19:00:00	65	ND	ND	ND	ND	ND	1.5	30.3	27.2	53.7	0	0
22005	2012-08-01T20:00:00	53	ND	ND	ND	ND	ND	1.3	30.5	25.8	60.9	0	0
22006	2012-08-01T21:00:00	42	ND	ND	ND	ND	ND	1.7	231.7	25.8	58.5	0	0
22007	2012-08-01T22:00:00	43	ND	ND	ND	ND	ND	1.2	151.7	24.8	65	0	0
22008	2012-08-01T23:00:00	57	ND	ND	ND	ND	ND	0.6	132.5	23.5	71.2	0	0
22009	2012-08-02T00:00:00	74	ND	ND	ND	ND	ND	0.2	104	23.1	72.8	0	0
22010	2012-08-02T01:00:00	74	ND	ND	ND	ND	ND	1.4	165	22.8	72.6	0	0
22011	2012-08-02T02:00:00	59	ND	ND	ND	ND	ND	1.4	151.4	21.6	77.4	0	0
22012	2012-08-02T03:00:00	49	ND	ND	ND	ND	ND	0.3	ND	21.9	74.8	0	0
22013	2012-08-02T04:00:00	29	ND	ND	ND	ND	ND	0.7	162.5	21.8	75	0	0
22014	2012-08-02T05:00:00	48	ND	ND	ND	ND	ND	0.7	188.7	21.7	75.4	0	0
22015	2012-08-02T06:00:00	46	ND	ND	ND	ND	ND	1.1	148.6	20.8	77.9	0	0
22016	2012-08-02T07:00:00	57	ND	ND	ND	ND	ND	0.8	28.8	20.6	80	19.1	0
22017	2012-08-02T08:00:00	57	ND	ND	ND	ND	ND	1	47.3	21.2	78.1	124.5	0
22018	2012-08-02T09:00:00	74	ND	ND	ND	ND	ND	0.4	75.6	22.9	71.3	335.5	0
22019	2012-08-02T10:00:00	56	ND	ND	ND	ND	ND	1.3	130.9	25.2	62.4	577.6	0
22020	2012-08-02T11:00:00	58	ND	ND	ND	ND	ND	1	128.6	26.8	57.3	583.4	0
22021	2012-08-02T12:00:00	31	ND	ND	ND	ND	ND	0.8	98	28.5	51	853.7	0
22022	2012-08-02T13:00:00	47	ND	ND	ND	ND	ND	1.3	116.6	29.9	46.5	846.9	0
22023	2012-08-02T14:00:00	32	ND	ND	ND	ND	ND	0.3	228.3	30.1	45.5	416.7	0
22024	2012-08-02T15:00:00	33	ND	ND	ND	ND	ND	4.2	285.1	29.3	46.4	481.6	0
22025	2012-08-02T16:00:00	23	ND	ND	ND	ND	ND	3.8	282.8	30.1	42.8	546.5	0
22026	2012-08-02T17:00:00	29	ND	ND	ND	ND	ND	4.8	281.7	28.8	47.6	364.3	0
22027	2012-08-02T18:00:00	31	ND	ND	ND	ND	ND	5	284.1	27.3	52.3	141.9	0
22028	2012-08-02T19:00:00	55	ND	ND	ND	ND	ND	5	283	26	54.8	0	0
22029	2012-08-02T20:00:00	30	ND	ND	ND	ND	ND	3.6	276.5	26.3	50.1	0	0
22030	2012-08-02T21:00:00	16	ND	ND	ND	ND	ND	2.1	280.6	25.9	51.6	0	0
22031	2012-08-02T22:00:00	10	ND	ND	ND	ND	ND	2.4	263.1	25.4	53.2	0	0
22032	2012-08-02T23:00:00	24	ND	ND	ND	ND	ND	1.6	185.6	24.8	59.1	0	0
22033	2012-08-03T00:00:00	31	ND	ND	ND	ND	ND	1.8	184.8	23.6	67.8	0	0
22034	2012-08-03T01:00:00	39	ND	ND	ND	ND	ND	2	202.1	23.6	65.8	0	0
22035	2012-08-03T02:00:00	51	ND	ND	ND	ND	ND	1.2	186.5	23.3	68.3	0	0
22036	2012-08-03T03:00:00	50	ND	ND	ND	ND	ND	0.9	205.3	23.1	68.8	0	0
22037	2012-08-03T04:00:00	34	ND	ND	ND	ND	ND	0.8	130.4	22.2	75	0	0
22038	2012-08-03T05:00:00	58	ND	ND	ND	ND	ND	0.2	ND	22.1	77.5	0	0
22039	2012-08-03T06:00:00	51	ND	ND	ND	ND	ND	0.7	266.2	22.3	75.2	0	0
22040	2012-08-03T07:00:00	44	ND	ND	ND	ND	ND	0.3	345.6	22.2	77.6	13.8	0
22041	2012-08-03T08:00:00	50	ND	ND	ND	ND	ND	1	57.4	22.6	78.6	84.8	0
22042	2012-08-03T09:00:00	65	ND	ND	ND	ND	ND	0.7	49.6	23.5	70.9	197.9	0
22043	2012-08-03T10:00:00	84	ND	ND	ND	ND	ND	1	180.7	25.5	61.5	515.7	0
22044	2012-08-03T11:00:00	45	ND	ND	ND	ND	ND	1.1	152.8	26.9	54.8	409.8	0
22045	2012-08-03T12:00:00	27	ND	ND	ND	ND	ND	0.7	117.7	28.6	48	792.1	0
22046	2012-08-03T13:00:00	56	ND	ND	ND	ND	ND	0.9	58.9	30.4	41.5	875	0
22047	2012-08-03T14:00:00	29	ND	ND	ND	ND	ND	1.4	56.8	31.5	38.1	780.2	0
22048	2012-08-03T15:00:00	71	ND	ND	ND	ND	ND	1.7	69	32.1	36.9	684.7	0
22049	2012-08-03T16:00:00	46	ND	ND	ND	ND	ND	2.1	320.5	31.5	39.7	448.5	0
22050	2012-08-03T17:00:00	55	ND	ND	ND	ND	ND	3.6	286.9	30.2	38.8	322.6	0
22051	2012-08-03T18:00:00	40	ND	ND	ND	ND	ND	3.4	275.5	29.3	40.1	100.6	0
22052	2012-08-03T19:00:00	38	ND	ND	ND	ND	ND	3.9	275	27.7	45.6	0.6	0
22053	2012-08-03T20:00:00	22	ND	ND	ND	ND	ND	2	282	27.2	48.6	0	0
22054	2012-08-03T21:00:00	33	ND	ND	ND	ND	ND	0.1	258.7	27	50	0	0
22055	2012-08-03T22:00:00	19	ND	ND	ND	ND	ND	0.6	230.4	26.2	54.8	0	0
22056	2012-08-03T23:00:00	34	ND	ND	ND	ND	ND	2.1	262.5	25.8	55.8	0	0
22057	2012-08-04T00:00:00	21	ND	ND	ND	ND	ND	1.7	245.2	25.2	58.7	0	0
22058	2012-08-04T01:00:00	28	ND	ND	ND	ND	ND	1.6	200.6	24.1	65.6	0	0
22059	2012-08-04T02:00:00	42	ND	ND	ND	ND	ND	0.8	178.7	23.5	68.9	0	0
22060	2012-08-04T03:00:00	51	ND	ND	ND	ND	ND	0.8	173.8	23.1	70.5	0	0
22061	2012-08-04T04:00:00	47	ND	ND	ND	ND	ND	0.5	163.4	22.9	72	0	0
22062	2012-08-04T05:00:00	51	ND	ND	ND	ND	ND	0.6	174.3	22.7	71.8	0	0
22063	2012-08-04T06:00:00	26	ND	ND	ND	ND	ND	0.6	252.1	22.6	69.3	0	0
22064	2012-08-04T07:00:00	30	ND	ND	ND	ND	ND	0.2	ND	22.7	67.9	13.6	0
22065	2012-08-04T08:00:00	40	ND	ND	ND	ND	ND	0.7	134.9	22.8	71.8	82.9	0
22066	2012-08-04T09:00:00	58	ND	ND	ND	ND	ND	1.1	105.7	23.9	67.8	328	0
22067	2012-08-04T10:00:00	59	ND	ND	ND	ND	ND	0.1	134.8	25.5	61.4	534.6	0
22068	2012-08-04T11:00:00	54	ND	ND	ND	ND	ND	1.1	134.1	27.8	53.2	686.7	0
22069	2012-08-04T12:00:00	44	ND	ND	ND	ND	ND	1.3	96.6	29.4	48.7	629.6	0
22070	2012-08-04T13:00:00	70	ND	ND	ND	ND	ND	2.7	21	29.6	49.7	603.8	0
22071	2012-08-04T14:00:00	36	ND	ND	ND	ND	ND	2.4	39.7	31.2	45.3	757.1	0
22072	2012-08-04T15:00:00	46	ND	ND	ND	ND	ND	3.7	286	31.6	42.1	723.5	0
22073	2012-08-04T16:00:00	24	ND	ND	ND	ND	ND	4.8	281.3	30.5	43.9	555.2	0
22074	2012-08-04T17:00:00	29	ND	ND	ND	ND	ND	4.8	281.9	29.7	45.6	388.4	0
22075	2012-08-04T18:00:00	32	ND	ND	ND	ND	ND	4.7	278.7	28	49.3	82.9	0
22076	2012-08-04T19:00:00	26	ND	ND	ND	ND	ND	4.1	272.5	27.2	51.5	0.1	0
22077	2012-08-04T20:00:00	16	ND	ND	ND	ND	ND	2.4	281.7	27	52.8	0	0
22078	2012-08-04T21:00:00	29	ND	ND	ND	ND	ND	1.4	196.2	26.2	56.1	0	0
22079	2012-08-04T22:00:00	44	ND	ND	ND	ND	ND	1.1	97.1	24.7	67.9	0	0
22080	2012-08-04T23:00:00	64	ND	ND	ND	ND	ND	0.7	51.9	23.7	71.3	0	0.25
22081	2012-08-05T00:00:00	54	ND	ND	ND	ND	ND	0.9	65.8	23.6	71.8	0	0
22082	2012-08-05T01:00:00	69	ND	ND	ND	ND	ND	0.6	51.7	23.4	72.1	0	0
22083	2012-08-05T02:00:00	74	ND	ND	ND	ND	ND	0.7	116.2	23.3	72.8	0	0
22084	2012-08-05T03:00:00	69	ND	ND	ND	ND	ND	0.3	ND	22.2	76.1	0	0
22085	2012-08-05T04:00:00	64	ND	ND	ND	ND	ND	0.8	57.9	22.1	77.2	0	0
22086	2012-08-05T05:00:00	80	ND	ND	ND	ND	ND	0.8	49.2	21.6	79.4	0	0
22087	2012-08-05T06:00:00	76	ND	ND	ND	ND	ND	0.9	30.1	21.9	77.7	0	0
22088	2012-08-05T07:00:00	66	ND	ND	ND	ND	ND	1	66.7	21.5	80.7	11.6	0
22089	2012-08-05T08:00:00	37	ND	ND	ND	ND	ND	0.2	ND	21.7	81	80.8	0
22090	2012-08-05T09:00:00	29	ND	ND	ND	ND	ND	1.1	164.7	22.9	77	338	0
22091	2012-08-05T10:00:00	21	ND	ND	ND	ND	ND	1.3	175.7	24.5	68	597.9	0
22092	2012-08-05T11:00:00	25	ND	ND	ND	ND	ND	0.7	109.2	26.3	58.6	562.4	0
22093	2012-08-05T12:00:00	14	ND	ND	ND	ND	ND	0.9	97.1	27.7	53.3	673.3	0
22094	2012-08-05T13:00:00	32	ND	ND	ND	ND	ND	0.8	134.6	29.2	48.2	558	0
22095	2012-08-05T14:00:00	18	ND	ND	ND	ND	ND	1	128	29.7	45.3	537.9	0
22096	2012-08-05T15:00:00	12	ND	ND	ND	ND	ND	0.5	151.3	30.8	39.9	618	0
22097	2012-08-05T16:00:00	9	ND	ND	ND	ND	ND	1.5	82.7	30.8	41.2	357	0
22098	2012-08-05T17:00:00	7	ND	ND	ND	ND	ND	1.5	63.2	29.5	45.9	152.8	0
22099	2012-08-05T18:00:00	17	ND	ND	ND	ND	ND	1.6	141.2	29.1	44.1	29	0
22100	2012-08-05T19:00:00	39	ND	ND	ND	ND	ND	1	99.2	28.3	43.3	0	0
22101	2012-08-05T20:00:00	28	ND	ND	ND	ND	ND	1	266	27.2	52.4	0	0
22102	2012-08-05T21:00:00	24	ND	ND	ND	ND	ND	2.3	260.6	26.4	55.5	0	0
22103	2012-08-05T22:00:00	13	ND	ND	ND	ND	ND	2.5	262.1	25.8	57.4	0	0
22104	2012-08-05T23:00:00	26	ND	ND	ND	ND	ND	2.2	270.6	25.4	58.3	0	0
22105	2012-08-06T00:00:00	14	ND	ND	ND	ND	ND	1	282.4	25.3	61.2	0	0
22106	2012-08-06T01:00:00	12	ND	ND	ND	ND	ND	1.2	119.2	24	69.7	0	0
22107	2012-08-06T02:00:00	30	ND	ND	ND	ND	ND	1.2	181.2	23.5	69.1	0	0
22108	2012-08-06T03:00:00	34	ND	ND	ND	ND	ND	0.5	343.6	23.5	68.3	0	0
22109	2012-08-06T04:00:00	23	ND	ND	ND	ND	ND	0.3	128.4	22.5	72.7	0	0
22110	2012-08-06T05:00:00	46	ND	ND	ND	ND	ND	1.1	170.3	22.2	68.6	0	0
22111	2012-08-06T06:00:00	26	ND	ND	ND	ND	ND	0.4	172.8	21.9	64.4	0	0
22112	2012-08-06T07:00:00	16	ND	ND	ND	ND	ND	1	239.3	21.8	62.8	16.3	0
22113	2012-08-06T08:00:00	39	ND	ND	ND	ND	ND	1	182.8	22.9	58.8	185.9	0
22114	2012-08-06T09:00:00	49	ND	ND	ND	ND	ND	1.5	126.8	24.9	46	404.6	0
22115	2012-08-06T10:00:00	44	ND	ND	ND	ND	ND	0.9	134.9	26.6	44	593.6	0
22116	2012-08-06T11:00:00	32	ND	ND	ND	ND	ND	0.9	161.5	28.2	40.8	747.7	0
22117	2012-08-06T12:00:00	29	ND	ND	ND	ND	ND	1.1	78.1	29.7	34.7	827.7	0
22118	2012-08-06T13:00:00	20	ND	ND	ND	ND	ND	1.4	97.1	31	32.9	845	0
22119	2012-08-06T14:00:00	18	ND	ND	ND	ND	ND	1.7	335.3	31.4	35.6	647.9	0
22120	2012-08-06T15:00:00	49	ND	ND	ND	ND	ND	4.5	281.7	30.7	40.1	600.4	0
22121	2012-08-06T16:00:00	27	ND	ND	ND	ND	ND	4.5	279.7	30.2	41	494.7	0
22122	2012-08-06T17:00:00	30	ND	ND	ND	ND	ND	4.4	283.3	29.3	43.3	346.7	0
22123	2012-08-06T18:00:00	18	ND	ND	ND	ND	ND	4.2	285	28.1	46.5	114.6	0
22124	2012-08-06T19:00:00	24	ND	ND	ND	ND	ND	3.7	277.7	26.7	50.7	0	0
22125	2012-08-06T20:00:00	15	ND	ND	ND	ND	ND	2.8	285.1	26.5	51	0	0
22126	2012-08-06T21:00:00	16	ND	ND	ND	ND	ND	1.5	301.1	26.3	51.7	0	0
22127	2012-08-06T22:00:00	8	ND	ND	ND	ND	ND	2.1	278.8	25.6	55.8	0	0
22128	2012-08-06T23:00:00	7	ND	ND	ND	ND	ND	2.9	251.1	24.8	60.9	0	0
22129	2012-08-07T00:00:00	5	ND	ND	ND	ND	ND	1	243.5	24.1	64.6	0	0
22130	2012-08-07T01:00:00	5	ND	ND	ND	ND	ND	0.7	196.9	23.8	64.9	0	0
22131	2012-08-07T02:00:00	15	ND	ND	ND	ND	ND	0.7	180.9	23.5	65.2	0	0
22132	2012-08-07T03:00:00	28	ND	ND	ND	ND	ND	0.9	164.6	23	68	0	0
22133	2012-08-07T04:00:00	35	ND	ND	ND	ND	ND	0.6	131.5	22.4	71.1	0	0
22134	2012-08-07T05:00:00	51	ND	ND	ND	ND	ND	0.7	185.5	22.4	70.1	0	0
22135	2012-08-07T06:00:00	28	ND	ND	ND	ND	ND	0.8	161.9	22.5	67.6	0	0
22136	2012-08-07T07:00:00	62	ND	ND	ND	ND	ND	0.8	160.6	22.2	70.6	32.1	0
22137	2012-08-07T08:00:00	34	ND	ND	ND	ND	ND	1.1	145.9	22.7	69	188.9	0
22138	2012-08-07T09:00:00	70	ND	ND	ND	ND	ND	1.4	153.6	24.5	62.2	387.9	0
22139	2012-08-07T10:00:00	37	ND	ND	ND	ND	ND	1.7	119.8	25.9	57.7	584.6	0
22140	2012-08-07T11:00:00	35	ND	ND	ND	ND	ND	1.1	125.6	27.3	52.3	754.9	0
22141	2012-08-07T12:00:00	37	ND	ND	ND	ND	ND	0.7	160.2	29	46.5	782.3	0
22142	2012-08-07T13:00:00	21	ND	ND	ND	ND	ND	1.3	39.3	30.6	42.1	822.3	0
22143	2012-08-07T14:00:00	28	ND	ND	ND	ND	ND	2	19.9	31.3	40.5	519	0
22144	2012-08-07T15:00:00	26	ND	ND	ND	ND	ND	3	294.3	30.4	43.8	403.3	0
22145	2012-08-07T16:00:00	28	ND	ND	ND	ND	ND	4.3	276.8	29.5	46	417.9	0
22146	2012-08-07T17:00:00	19	ND	ND	ND	ND	ND	4.4	275.9	29.2	46.5	338.6	0
22147	2012-08-07T18:00:00	16	ND	ND	ND	ND	ND	4.2	287.1	27.7	49.1	56.1	0
22148	2012-08-07T19:00:00	35	ND	ND	ND	ND	ND	4.1	277	26.5	54.7	0	0
22149	2012-08-07T20:00:00	21	ND	ND	ND	ND	ND	4.1	279.5	26	56.2	0	0
22150	2012-08-07T21:00:00	11	ND	ND	ND	ND	ND	2.9	279	26.1	56.3	0	0
22151	2012-08-07T22:00:00	8	ND	ND	ND	ND	ND	1.1	279.2	25.7	59.1	0	0
22152	2012-08-07T23:00:00	20	ND	ND	ND	ND	ND	1.5	214.5	25	62	0	0
22153	2012-08-08T00:00:00	13	ND	ND	ND	ND	ND	1	244.6	24.7	62.4	0	0
22154	2012-08-08T01:00:00	13	ND	ND	ND	ND	ND	0.3	199.6	23.5	69.6	0	0
22155	2012-08-08T02:00:00	11	ND	ND	ND	ND	ND	1.5	203.3	23.1	71	0	0
22156	2012-08-08T03:00:00	19	ND	ND	ND	ND	ND	0.6	170.5	22.9	71.5	0	0
22157	2012-08-08T04:00:00	19	ND	ND	ND	ND	ND	0.8	170.8	22.6	72.4	0	0
22158	2012-08-08T05:00:00	52	ND	ND	ND	ND	ND	0.5	161.4	22	76	0	0
22159	2012-08-08T06:00:00	33	ND	ND	ND	ND	ND	1.1	251.2	21.9	71.1	0	0
22160	2012-08-08T07:00:00	33	ND	ND	ND	ND	ND	1	232.1	22.1	70.4	25	0
22161	2012-08-08T08:00:00	70	ND	ND	ND	ND	ND	0.6	66.7	23.3	70	201.9	0
22162	2012-08-08T09:00:00	72	ND	ND	ND	ND	ND	1.3	138.7	24.7	64.4	388.5	0
22163	2012-08-08T10:00:00	60	ND	ND	ND	ND	ND	1.4	129.9	26	60.4	479.3	0
22164	2012-08-08T11:00:00	56	ND	ND	ND	ND	ND	1.1	142	27.7	53.4	773.3	0
22165	2012-08-08T12:00:00	43	ND	ND	ND	ND	ND	1.2	96.3	29.6	47.3	760	0
22166	2012-08-08T13:00:00	47	ND	ND	ND	ND	ND	1.3	97.9	30.3	44.9	794.8	0
22167	2012-08-08T14:00:00	56	ND	ND	ND	ND	ND	1	74.2	31.4	41.8	574.2	0
22168	2012-08-08T15:00:00	76	ND	ND	ND	ND	ND	0.7	350	32.2	39.2	709.9	0
22169	2012-08-08T16:00:00	57	ND	ND	ND	ND	ND	1.7	294.8	32.1	40.3	455	0
22170	2012-08-08T17:00:00	48	ND	ND	ND	ND	ND	4.1	281	30.5	44.9	314.6	0
22171	2012-08-08T18:00:00	56	ND	ND	ND	ND	ND	4.1	270.4	28.7	49.9	65.5	0
22172	2012-08-08T19:00:00	46	ND	ND	ND	ND	ND	3.6	275.4	27.6	53.2	0	0
22173	2012-08-08T20:00:00	26	ND	ND	ND	ND	ND	4	267.1	26.7	56.8	0	0
22174	2012-08-08T21:00:00	19	ND	ND	ND	ND	ND	2.7	282.8	26.6	56.9	0	0
22175	2012-08-08T22:00:00	12	ND	ND	ND	ND	ND	3.2	283.9	26.1	58.9	0	0
22176	2012-08-08T23:00:00	8	ND	ND	ND	ND	ND	1.3	284	25.9	60	0	0
22177	2012-08-09T00:00:00	29	ND	ND	ND	ND	ND	0.9	188.9	25.3	62.9	0	0
22178	2012-08-09T01:00:00	50	ND	ND	ND	ND	ND	2	176.7	24.6	67	0	0
22179	2012-08-09T02:00:00	45	ND	ND	ND	ND	ND	1.4	200.7	24.3	67.6	0	0
22180	2012-08-09T03:00:00	56	ND	ND	ND	ND	ND	0.8	173.8	24.1	68.2	0	0
22181	2012-08-09T04:00:00	48	ND	ND	ND	ND	ND	0.5	94.7	23.4	72.2	0	0
22182	2012-08-09T05:00:00	52	ND	ND	ND	ND	ND	1.2	204.4	23.3	69.6	0	0
22183	2012-08-09T06:00:00	44	ND	ND	ND	ND	ND	0.3	283	23	69	0	0
22184	2012-08-09T07:00:00	65	ND	ND	ND	ND	ND	0.7	56.3	22.2	73.5	36.7	0
22185	2012-08-09T08:00:00	81	ND	ND	ND	ND	ND	0.4	87.6	23.3	68.3	157.9	0
22186	2012-08-09T09:00:00	101	ND	ND	ND	ND	ND	1.2	129.3	25.1	61	404	0
22187	2012-08-09T10:00:00	77	ND	ND	ND	ND	ND	1.7	138.6	26	58	527.3	0
22188	2012-08-09T11:00:00	64	ND	ND	ND	ND	ND	1.3	133.9	27.5	50.9	536.8	0
22189	2012-08-09T12:00:00	65	ND	ND	ND	ND	ND	1.4	71.1	27.9	49.5	440.5	0
22190	2012-08-09T13:00:00	82	ND	ND	ND	ND	ND	0.9	74.9	29.7	44.2	615.1	0
22191	2012-08-09T14:00:00	67	ND	ND	ND	ND	ND	1.7	69.5	30.1	41.9	445.4	0
22192	2012-08-09T15:00:00	56	ND	ND	ND	ND	ND	1.2	78	30.3	40.4	403.7	0
22193	2012-08-09T16:00:00	46	ND	ND	ND	ND	ND	1.2	55.2	31	38.6	299.3	0
22194	2012-08-09T17:00:00	63	ND	ND	ND	ND	ND	1.1	71	30.3	40.8	127.4	0
22195	2012-08-09T18:00:00	68	ND	ND	ND	ND	ND	1.8	289.6	28.9	47.7	71.9	0
22196	2012-08-09T19:00:00	54	ND	ND	ND	ND	ND	3.6	275.4	27.1	51.6	0.1	0
22197	2012-08-09T20:00:00	41	ND	ND	ND	ND	ND	3.7	271.3	26.4	53.7	0	0
22198	2012-08-09T21:00:00	29	ND	ND	ND	ND	ND	3.5	269.6	26	54.6	0	0
22199	2012-08-09T22:00:00	17	ND	ND	ND	ND	ND	1.7	291.1	26	53.6	0	0
22200	2012-08-09T23:00:00	19	ND	ND	ND	ND	ND	2.9	248.7	25.2	57.9	0	0
22201	2012-08-10T00:00:00	13	ND	ND	ND	ND	ND	1.8	223.8	24.8	59.6	0	0
22202	2012-08-10T01:00:00	20	ND	ND	ND	ND	ND	1.7	250.8	24.9	56.6	0	0
22203	2012-08-10T02:00:00	12	ND	ND	ND	ND	ND	0.4	79.5	24.1	62.6	0	0
22204	2012-08-10T03:00:00	57	ND	ND	ND	ND	ND	0.6	28.6	23.3	68.9	0	0
22205	2012-08-10T04:00:00	50	ND	ND	ND	ND	ND	0.6	154.5	22.7	66.6	0	0
22206	2012-08-10T05:00:00	44	ND	ND	ND	ND	ND	0.1	ND	22.6	66.1	0	0
22207	2012-08-10T06:00:00	35	ND	ND	ND	ND	ND	0.6	131.9	22.7	66.6	0	0
22208	2012-08-10T07:00:00	66	ND	ND	ND	ND	ND	0.5	146.2	22.8	65.8	14.1	0
22209	2012-08-10T08:00:00	86	ND	ND	ND	ND	ND	1.1	153.7	22.8	68.7	67.2	0
22210	2012-08-10T09:00:00	93	ND	ND	ND	ND	ND	1	162.6	24.2	62.8	327.3	0
22211	2012-08-10T10:00:00	62	ND	ND	ND	ND	ND	1.3	138.8	26.5	56.3	581.1	0
22212	2012-08-10T11:00:00	72	ND	ND	ND	ND	ND	1.2	89.6	27.9	50.8	680	0
22213	2012-08-10T12:00:00	64	ND	ND	ND	ND	ND	1.2	87.8	29.3	46.3	723.7	0
22214	2012-08-10T13:00:00	66	ND	ND	ND	ND	ND	1.2	102.4	29.5	45.5	378.5	0
22215	2012-08-10T14:00:00	74	ND	ND	ND	ND	ND	1.9	73.2	29.7	45.8	323.5	0
22216	2012-08-10T15:00:00	54	ND	ND	ND	ND	ND	1.5	57.4	29.8	46.1	343.8	0
22217	2012-08-10T16:00:00	48	ND	ND	ND	ND	ND	0.5	48.8	29.9	46.8	180	0
22218	2012-08-10T17:00:00	60	ND	ND	ND	ND	ND	2.1	279.2	28.3	51.7	45.2	0
22219	2012-08-10T18:00:00	35	ND	ND	ND	ND	ND	2.4	265.3	27.3	53.3	26.1	0
22220	2012-08-10T19:00:00	33	ND	ND	ND	ND	ND	2.8	266.8	27	52.3	0	0
22221	2012-08-10T20:00:00	19	ND	ND	ND	ND	ND	3	267.5	26.3	55.9	0	0
22222	2012-08-10T21:00:00	13	ND	ND	ND	ND	ND	3	267.3	25.9	58.1	0	0
22223	2012-08-10T22:00:00	8	ND	ND	ND	ND	ND	2	265.9	25.6	60.4	0	0
22224	2012-08-10T23:00:00	19	ND	ND	ND	ND	ND	1.1	167.6	24.6	66.6	0	0
22225	2012-08-11T00:00:00	39	ND	ND	ND	ND	ND	1.5	184.6	23.8	69.3	0	0
22226	2012-08-11T01:00:00	51	ND	ND	ND	ND	ND	1.4	230.3	24.3	64	0	0
22227	2012-08-11T02:00:00	33	ND	ND	ND	ND	ND	1.4	171.3	23.4	68.3	0	0
22228	2012-08-11T03:00:00	60	ND	ND	ND	ND	ND	0.5	172.6	22.6	72.9	0	0
22229	2012-08-11T04:00:00	60	ND	ND	ND	ND	ND	0.6	178	22.9	70.6	0	0
22230	2012-08-11T05:00:00	84	ND	ND	ND	ND	ND	0.6	121.8	22.4	72.1	0	0
22231	2012-08-11T06:00:00	98	ND	ND	ND	ND	ND	1	150.2	20.8	78.8	0	0
22232	2012-08-11T07:00:00	85	ND	ND	ND	ND	ND	0.3	80.7	20.8	78.1	29.7	0
22233	2012-08-11T08:00:00	76	ND	ND	ND	ND	ND	0.6	49	22.9	70.3	227.1	0
22234	2012-08-11T09:00:00	103	ND	ND	ND	ND	ND	0.7	108.2	25.1	60.5	364.9	0
22235	2012-08-11T10:00:00	73	ND	ND	ND	ND	ND	0.8	160	26.3	55.1	494.6	0
22236	2012-08-11T11:00:00	78	ND	ND	ND	ND	ND	1.4	132.4	28.3	48.8	703.1	0
22237	2012-08-11T12:00:00	49	ND	ND	ND	ND	ND	1.2	95.4	29.2	46	660	0
22238	2012-08-11T13:00:00	77	ND	ND	ND	ND	ND	1.5	86.5	30.1	44.3	803.1	0
22239	2012-08-11T14:00:00	89	ND	ND	ND	ND	ND	1.4	69.4	31	42.3	686.2	0
22240	2012-08-11T15:00:00	72	ND	ND	ND	ND	ND	0.9	22.8	30.7	43.5	371.2	0
22241	2012-08-11T16:00:00	64	ND	ND	ND	ND	ND	3.1	285.5	30.2	44.8	363.6	0
22242	2012-08-11T17:00:00	52	ND	ND	ND	ND	ND	4.6	286.3	29.2	46.7	255	0
22243	2012-08-11T18:00:00	41	ND	ND	ND	ND	ND	4.6	280.1	27.6	51	70	0
22244	2012-08-11T19:00:00	31	ND	ND	ND	ND	ND	4.9	277.2	26.4	55.2	0	0
22245	2012-08-11T20:00:00	17	ND	ND	ND	ND	ND	4.8	280.4	26.1	55.4	0	0
22246	2012-08-11T21:00:00	10	ND	ND	ND	ND	ND	2.2	297	26	56.4	0	0
22247	2012-08-11T22:00:00	9	ND	ND	ND	ND	ND	2.8	281.2	25.6	58.5	0	0
22248	2012-08-11T23:00:00	6	ND	ND	ND	ND	ND	3	284.4	25.2	59.7	0	0
22249	2012-08-12T00:00:00	15	ND	ND	ND	ND	ND	1.5	274.6	25.4	58.3	0	0
22250	2012-08-12T01:00:00	7	ND	ND	ND	ND	ND	2.1	241.8	25.1	59	0	0
22251	2012-08-12T02:00:00	4	ND	ND	ND	ND	ND	0.7	232.6	24.4	63.7	0	0
22252	2012-08-12T03:00:00	5	ND	ND	ND	ND	ND	0.4	18.6	23.9	66.2	0	0
22253	2012-08-12T04:00:00	4	ND	ND	ND	ND	ND	0.8	132.7	23.6	68.2	0	0
22254	2012-08-12T05:00:00	11	ND	ND	ND	ND	ND	0.5	146.9	22.9	71	0	0
22255	2012-08-12T06:00:00	7	ND	ND	ND	ND	ND	0.5	67	22.8	71.1	0	0
22256	2012-08-12T07:00:00	20	ND	ND	ND	ND	ND	0.8	145.8	22.8	72	3.5	0
22257	2012-08-12T08:00:00	15	ND	ND	ND	ND	ND	0.5	138.6	22.1	79.5	56.5	2.03
22258	2012-08-12T09:00:00	27	ND	ND	ND	ND	ND	1.1	220	22.4	80.1	134.6	0.25
22259	2012-08-12T10:00:00	27	ND	ND	ND	ND	ND	0.9	211.5	24.2	69.8	539.5	0
22260	2012-08-12T11:00:00	15	ND	ND	ND	ND	ND	1.2	88.2	26.3	59.1	647.8	0
22261	2012-08-12T12:00:00	9	ND	ND	ND	ND	ND	1.4	73.3	28.1	53	822.8	0
22262	2012-08-12T13:00:00	10	ND	ND	ND	ND	ND	1.4	52.5	29.6	49	827	0
22263	2012-08-12T14:00:00	6	ND	ND	ND	ND	ND	2	64	29.9	47.8	636.7	0
22264	2012-08-12T15:00:00	9	ND	ND	ND	ND	ND	0.6	49.1	30.6	45.7	698.1	0
22265	2012-08-12T16:00:00	7	ND	ND	ND	ND	ND	3.6	280.1	30.9	43	616.6	0
22266	2012-08-12T17:00:00	6	ND	ND	ND	ND	ND	4.3	277.7	29.4	46.8	330.6	0
22267	2012-08-12T18:00:00	4	ND	ND	ND	ND	ND	3.9	280.8	28	50.4	92.4	0
22268	2012-08-12T19:00:00	2	ND	ND	ND	ND	ND	4.3	273.9	26.8	53.9	0	0
22269	2012-08-12T20:00:00	28	ND	ND	ND	ND	ND	3.9	281.1	26.2	56.1	0	0
22270	2012-08-12T21:00:00	30	ND	ND	ND	ND	ND	1.5	296.4	26.3	55.3	0	0
22271	2012-08-12T22:00:00	16	ND	ND	ND	ND	ND	2	273.7	25.7	59.1	0	0
22272	2012-08-12T23:00:00	9	ND	ND	ND	ND	ND	2.9	259.7	25.2	61.3	0	0
22273	2012-08-13T00:00:00	6	ND	ND	ND	ND	ND	0.7	292.8	25	63.1	0	0
22274	2012-08-13T01:00:00	15	ND	ND	ND	ND	ND	2.5	182.3	24.2	67.9	0	0
22275	2012-08-13T02:00:00	15	ND	ND	ND	ND	ND	1.8	173	22.1	83.3	0	2.54
22276	2012-08-13T03:00:00	22	ND	ND	ND	ND	ND	0.9	83.5	21.5	88.7	0	0.25
22277	2012-08-13T04:00:00	13	ND	ND	ND	ND	ND	1.7	18.6	21.2	90.2	0	0
22278	2012-08-13T05:00:00	24	ND	ND	ND	ND	ND	2.4	35.5	20.5	91.4	0	1.27
22279	2012-08-13T06:00:00	15	ND	ND	ND	ND	ND	1.2	46.7	19.6	91.5	0	0.76
22280	2012-08-13T07:00:00	8	ND	ND	ND	ND	ND	0.9	41.5	19.8	89.2	7.9	0
22281	2012-08-13T08:00:00	11	ND	ND	ND	ND	ND	0.3	331.8	20.1	87.9	83	2.79
22282	2012-08-13T09:00:00	7	ND	ND	ND	ND	ND	0.7	195.3	21.5	85.2	305.1	0.25
22283	2012-08-13T10:00:00	13	ND	ND	ND	ND	ND	1.5	149.7	24	73.2	621.1	0
22284	2012-08-13T11:00:00	33	ND	ND	ND	ND	ND	1	152.1	25	64.2	607	0
22285	2012-08-13T12:00:00	19	ND	ND	ND	ND	ND	1.4	130	26.5	57.8	721.9	0
22286	2012-08-13T13:00:00	12	ND	ND	ND	ND	ND	1.3	123.9	27.6	54.9	799.7	0
22287	2012-08-13T14:00:00	9	ND	ND	ND	ND	ND	1	140.5	28.5	51.9	535.3	0
22288	2012-08-13T15:00:00	24	ND	ND	ND	ND	ND	0.9	119.7	28.7	50.8	298	0
22289	2012-08-13T16:00:00	44	ND	ND	ND	ND	ND	2.5	159.7	28.3	53.1	122.2	0
22290	2012-08-13T17:00:00	56	ND	ND	ND	ND	ND	3	175.1	26.3	52.6	34.2	0
22291	2012-08-13T18:00:00	30	ND	ND	ND	ND	ND	1.1	59	24.2	65.9	2.2	0
22292	2012-08-13T19:00:00	63	ND	ND	ND	ND	ND	0.6	62.5	23.7	68.9	0	0
22293	2012-08-13T20:00:00	73	ND	ND	ND	ND	ND	1	76.3	23	70	0	0
22294	2012-08-13T21:00:00	48	ND	ND	ND	ND	ND	0.1	330.8	22.6	70.7	0	0
22295	2012-08-13T22:00:00	37	ND	ND	ND	ND	ND	0.2	81.4	22.9	71.2	0	0
22296	2012-08-13T23:00:00	49	ND	ND	ND	ND	ND	0.4	99.4	22.9	72.5	0	0
22297	2012-08-14T00:00:00	49	ND	ND	ND	ND	ND	1.5	178.9	22.1	77.9	0	0
22298	2012-08-14T01:00:00	26	ND	ND	ND	ND	ND	0.8	183	21.9	78	0	0
22299	2012-08-14T02:00:00	24	ND	ND	ND	ND	ND	0.6	216.4	22	76.6	0	0
22300	2012-08-14T03:00:00	27	ND	ND	ND	ND	ND	0	ND	22	75.8	0	0
22301	2012-08-14T04:00:00	34	ND	ND	ND	ND	ND	0.9	224	21.9	75.4	0	0
22302	2012-08-14T05:00:00	27	ND	ND	ND	ND	ND	0.6	184.1	21.7	75.8	0	0
22303	2012-08-14T06:00:00	17	ND	ND	ND	ND	ND	0.6	8.6	21.6	77.3	0	0
22304	2012-08-14T07:00:00	40	ND	ND	ND	ND	ND	1	14.2	21.1	86	19.7	0
22305	2012-08-14T08:00:00	49	ND	ND	ND	ND	ND	0.6	33.1	21.7	81	75.8	0
22306	2012-08-14T09:00:00	87	ND	ND	ND	ND	ND	0.7	152.7	22.5	77.9	133.4	0
22307	2012-08-14T10:00:00	85	ND	ND	ND	ND	ND	0.8	109.1	23.3	74.2	269.4	0
22308	2012-08-14T11:00:00	87	ND	ND	ND	ND	ND	0.8	140.2	24.5	65.9	367	0
22309	2012-08-14T12:00:00	52	ND	ND	ND	ND	ND	0.8	133.7	25.9	59.8	537.2	0
22310	2012-08-14T13:00:00	59	ND	ND	ND	ND	ND	0.7	53.7	27	55.8	649.1	0
22311	2012-08-14T14:00:00	35	ND	ND	ND	ND	ND	1.1	72.2	28.3	50.1	579	0
22312	2012-08-14T15:00:00	53	ND	ND	ND	ND	ND	0.7	124.8	29.5	47.3	730	0
22313	2012-08-14T16:00:00	73	ND	ND	ND	ND	ND	1.1	107.9	29.1	48.1	252.3	0
22314	2012-08-14T17:00:00	62	ND	ND	ND	ND	ND	0.4	41.8	29.6	47	299	0
22315	2012-08-14T18:00:00	53	ND	ND	ND	ND	ND	1.5	278.2	27.8	52.4	22.9	0
22316	2012-08-14T19:00:00	61	ND	ND	ND	ND	ND	2.7	277.2	26.8	54.3	0	0
22317	2012-08-14T20:00:00	32	ND	ND	ND	ND	ND	3	271	26	57.3	0	0
22318	2012-08-14T21:00:00	43	ND	ND	ND	ND	ND	2.6	268.9	25.5	59.6	0	0
22319	2012-08-14T22:00:00	27	ND	ND	ND	ND	ND	0.8	314.5	25.1	62.8	0	0
22320	2012-08-14T23:00:00	59	ND	ND	ND	ND	ND	0.2	320.4	24.6	66.1	0	0
22321	2012-08-15T00:00:00	31	ND	ND	ND	ND	ND	0.8	212.4	24.4	66	0	0
22322	2012-08-15T01:00:00	30	ND	ND	ND	ND	ND	0.9	166.1	23.2	73.7	0	0
22323	2012-08-15T02:00:00	29	ND	ND	ND	ND	ND	0.8	136.2	22.9	75.2	0	0
22324	2012-08-15T03:00:00	15	ND	ND	ND	ND	ND	1	184.1	22.7	75.9	0	0
22325	2012-08-15T04:00:00	17	ND	ND	ND	ND	ND	0.8	160.9	22.4	78.7	0	0
22326	2012-08-15T05:00:00	50	ND	ND	ND	ND	ND	0.8	138.4	22.1	79.7	0	0
22327	2012-08-15T06:00:00	29	ND	ND	ND	ND	ND	0.3	ND	22	79.4	0	0
22328	2012-08-15T07:00:00	43	ND	ND	ND	ND	ND	0.4	135.3	22	79.7	8.3	0
22329	2012-08-15T08:00:00	47	ND	ND	ND	ND	ND	0.5	66.5	21.9	83.5	77.8	0
22330	2012-08-15T09:00:00	74	ND	ND	ND	ND	ND	1.2	129.8	22.8	78.6	168.2	0
22331	2012-08-15T10:00:00	75	ND	ND	ND	ND	ND	0.9	117.2	24	69.9	357.3	0
22332	2012-08-15T11:00:00	49	ND	ND	ND	ND	ND	1.1	97.5	26.6	60.2	775	0
22333	2012-08-15T12:00:00	45	ND	ND	ND	ND	ND	0.7	70.7	27.7	55.7	579.7	0
22334	2012-08-15T13:00:00	45	ND	ND	ND	ND	ND	0.8	8.9	29.4	50	819.6	0
22335	2012-08-15T14:00:00	26	ND	ND	ND	ND	ND	0.9	74.1	29.9	47.7	511.5	0
22336	2012-08-15T15:00:00	39	ND	ND	ND	ND	ND	0.5	23.7	30.5	43.5	337.6	0
22337	2012-08-15T16:00:00	20	ND	ND	ND	ND	ND	3.3	275	31	41.5	561.4	0
22338	2012-08-15T17:00:00	37	ND	ND	ND	ND	ND	3.9	277.7	29.8	44.2	338.1	0
22339	2012-08-15T18:00:00	24	ND	ND	ND	ND	ND	3.7	275.6	27.9	48.8	83.8	0
22340	2012-08-15T19:00:00	29	ND	ND	ND	ND	ND	3.5	273.9	26.6	53.5	0	0
22341	2012-08-15T20:00:00	17	ND	ND	ND	ND	ND	3.3	281.1	25.8	56.8	0	0
22342	2012-08-15T21:00:00	11	ND	ND	ND	ND	ND	3.5	275.6	25.4	57.3	0	0
22343	2012-08-15T22:00:00	9	ND	ND	ND	ND	ND	0.1	16.1	25.4	57.7	0	0
22344	2012-08-15T23:00:00	21	ND	ND	ND	ND	ND	0.8	258.9	24.8	59.4	0	0
22345	2012-08-16T00:00:00	12	ND	ND	ND	ND	ND	1.1	225	24.5	61.3	0	0
22346	2012-08-16T01:00:00	13	ND	ND	ND	ND	ND	0.8	161.9	24.1	65.4	0	0
22347	2012-08-16T02:00:00	24	ND	ND	ND	ND	ND	0.3	164.3	23	73.1	0	0
22348	2012-08-16T03:00:00	26	ND	ND	ND	ND	ND	0.7	166.3	22.8	71.8	0	0
22349	2012-08-16T04:00:00	15	ND	ND	ND	ND	ND	0.2	4.5	22.7	72.1	0	0
22350	2012-08-16T05:00:00	21	ND	ND	ND	ND	ND	1	66.4	21.7	76.8	0	0
22351	2012-08-16T06:00:00	24	ND	ND	ND	ND	ND	0.7	180.1	21.6	76.9	0	0
22352	2012-08-16T07:00:00	56	ND	ND	ND	ND	ND	0.5	101.4	21.8	76.8	29.1	0
22353	2012-08-16T08:00:00	63	ND	ND	ND	ND	ND	0.9	136.8	22.8	72.6	193.7	0
22354	2012-08-16T09:00:00	73	ND	ND	ND	ND	ND	0.8	102.1	23.4	70	205.5	0
22355	2012-08-16T10:00:00	68	ND	ND	ND	ND	ND	1.7	133.8	25.1	62.4	517.2	0
22356	2012-08-16T11:00:00	64	ND	ND	ND	ND	ND	1.2	124.4	26.7	56.3	673.8	0
22357	2012-08-16T12:00:00	59	ND	ND	ND	ND	ND	0.9	144.5	28.1	51.7	763.6	0
22358	2012-08-16T13:00:00	76	ND	ND	ND	ND	ND	0.7	46.9	30	46.4	708.7	0
22359	2012-08-16T14:00:00	39	ND	ND	ND	ND	ND	3.5	301.7	29.4	44.9	388.4	0
22360	2012-08-16T15:00:00	39	ND	ND	ND	ND	ND	3.7	281.5	28.3	47.4	304.5	0
22361	2012-08-16T16:00:00	20	ND	ND	ND	ND	ND	3.1	281.9	28.2	47	172.7	0
22362	2012-08-16T17:00:00	45	ND	ND	ND	ND	ND	2.2	298	26.7	54.9	44.8	0.76
22363	2012-08-16T18:00:00	24	ND	ND	ND	ND	ND	1.1	318.3	25.1	63.5	42.4	0
22364	2012-08-16T19:00:00	53	ND	ND	ND	ND	ND	0.8	70.3	23.8	74.9	0	0
22365	2012-08-16T20:00:00	51	ND	ND	ND	ND	ND	0.9	278	24.2	68.2	0	0
22366	2012-08-16T21:00:00	52	ND	ND	ND	ND	ND	0.2	64.5	23.7	74.9	0	0
22367	2012-08-16T22:00:00	28	ND	ND	ND	ND	ND	1.4	165	23.2	76.9	0	0
22368	2012-08-16T23:00:00	29	ND	ND	ND	ND	ND	1.2	168.8	23.2	76.2	0	0
22369	2012-08-17T00:00:00	56	ND	ND	ND	ND	ND	1.2	194.5	23.3	73.2	0	0
22370	2012-08-17T01:00:00	29	ND	ND	ND	ND	ND	0.8	200.2	23.4	72.5	0	0
22371	2012-08-17T02:00:00	21	ND	ND	ND	ND	ND	0.5	110.7	22.9	74.9	0	0
22372	2012-08-17T03:00:00	32	ND	ND	ND	ND	ND	0.4	176.7	22.3	78.3	0	0
22373	2012-08-17T04:00:00	17	ND	ND	ND	ND	ND	0.3	158.5	22.4	77.6	0	0
22374	2012-08-17T05:00:00	42	ND	ND	ND	ND	ND	0.5	58.5	22.6	76.8	0	0
22375	2012-08-17T06:00:00	44	ND	ND	ND	ND	ND	0.9	52.9	21.9	80.5	0	0
22376	2012-08-17T07:00:00	39	ND	ND	ND	ND	ND	0.6	53.2	21.8	78.8	10.7	0
22377	2012-08-17T08:00:00	54	ND	ND	ND	ND	ND	0.9	15.7	22.4	75.4	132.7	0
22378	2012-08-17T09:00:00	55	ND	ND	ND	ND	ND	1.5	48.2	24.3	65	377.1	0
22379	2012-08-17T10:00:00	28	ND	ND	ND	ND	ND	0.9	76.4	25.6	59.8	496.3	0
22380	2012-08-17T11:00:00	36	ND	ND	ND	ND	ND	0.2	66.3	26.6	56.9	326.8	0
22381	2012-08-17T12:00:00	21	ND	ND	ND	ND	ND	1.9	302.7	26.1	57	195.1	0
22382	2012-08-17T13:00:00	30	ND	ND	ND	ND	ND	0.7	356.9	27	53.1	379.1	0
22383	2012-08-17T14:00:00	17	ND	ND	ND	ND	ND	1.7	287.9	27.9	49.3	417.4	0
22384	2012-08-17T15:00:00	18	ND	ND	ND	ND	ND	2.8	286.3	28	47.9	461.3	0
22385	2012-08-17T16:00:00	10	ND	ND	ND	ND	ND	2.5	263.5	28.5	45.3	407.6	0
22386	2012-08-17T17:00:00	13	ND	ND	ND	ND	ND	2.4	254.3	27.6	48.4	109.1	0
22387	2012-08-17T18:00:00	31	ND	ND	ND	ND	ND	1.5	217.8	26.3	52.2	28.7	0
22388	2012-08-17T19:00:00	66	ND	ND	ND	ND	ND	2.8	197	24	66	0	0.25
22389	2012-08-17T20:00:00	67	ND	ND	ND	ND	ND	1.2	217.5	22.9	74.1	0	0
22390	2012-08-17T21:00:00	60	ND	ND	ND	ND	ND	0.8	138.2	22.5	79.1	0	0
22391	2012-08-17T22:00:00	36	ND	ND	ND	ND	ND	1.2	203.6	22	79.6	0	0
22392	2012-08-17T23:00:00	26	ND	ND	ND	ND	ND	1	257.9	22.4	71.1	0	0
22393	2012-08-18T00:00:00	14	ND	ND	ND	ND	ND	0.9	261.5	22.4	67.9	0	0
22394	2012-08-18T01:00:00	16	ND	ND	ND	ND	ND	0.3	95	22.4	72.5	0	0
22395	2012-08-18T02:00:00	41	ND	ND	ND	ND	ND	0.9	143.7	21.3	82.5	0	0
22396	2012-08-18T03:00:00	23	ND	ND	ND	ND	ND	0.7	203.7	20.9	83.6	0	0
22397	2012-08-18T04:00:00	13	ND	ND	ND	ND	ND	0.9	214.2	21.1	74.5	0	0
22398	2012-08-18T05:00:00	26	ND	ND	ND	ND	ND	0.6	243.3	21.2	72.9	0	0
22399	2012-08-18T06:00:00	36	ND	ND	ND	ND	ND	0.5	ND	21	76.5	0	0
22400	2012-08-18T07:00:00	36	ND	ND	ND	ND	ND	0.5	323.8	21	77.5	17.1	0
22401	2012-08-18T08:00:00	75	ND	ND	ND	ND	ND	0.7	86.7	21.5	80.8	98.7	0
22402	2012-08-18T09:00:00	68	ND	ND	ND	ND	ND	0.3	132.9	23	72.9	354	0
22403	2012-08-18T10:00:00	50	ND	ND	ND	ND	ND	1.1	150.3	24.4	66.6	438.6	0
22404	2012-08-18T11:00:00	61	ND	ND	ND	ND	ND	1.3	142.3	25.9	60.3	540.3	0
22405	2012-08-18T12:00:00	59	ND	ND	ND	ND	ND	1.1	123.3	27.5	54.3	665.7	0
22406	2012-08-18T13:00:00	58	ND	ND	ND	ND	ND	1.2	105.4	28.6	49.2	732.3	0
22407	2012-08-18T14:00:00	37	ND	ND	ND	ND	ND	1.1	107.9	29.7	46.1	722.7	0
22408	2012-08-18T15:00:00	41	ND	ND	ND	ND	ND	1.2	124.3	30.6	42.7	656.9	0
22409	2012-08-18T16:00:00	22	ND	ND	ND	ND	ND	1.5	96.1	30.6	41.6	316.4	0
22410	2012-08-18T17:00:00	45	ND	ND	ND	ND	ND	1.2	149.4	29.8	45.4	184.8	0
22411	2012-08-18T18:00:00	49	ND	ND	ND	ND	ND	1.7	270.4	28.6	51.1	49.6	0
22412	2012-08-18T19:00:00	47	ND	ND	ND	ND	ND	3.1	272.4	26.8	56.7	0	0
22413	2012-08-18T20:00:00	29	ND	ND	ND	ND	ND	4.5	263.7	25.9	56.3	0	0
22414	2012-08-18T21:00:00	18	ND	ND	ND	ND	ND	3.6	271	25.8	56.6	0	0
22415	2012-08-18T22:00:00	9	ND	ND	ND	ND	ND	1.6	278.8	25.3	56.4	0	0
22416	2012-08-18T23:00:00	8	ND	ND	ND	ND	ND	2.7	259.7	24.2	60	0	0
22417	2012-08-19T00:00:00	7	ND	ND	ND	ND	ND	2.1	266	24	61	0	0
22418	2012-08-19T01:00:00	4	ND	ND	ND	ND	ND	2.1	258.5	23.9	60.9	0	0
22419	2012-08-19T02:00:00	3	ND	ND	ND	ND	ND	1.3	260.5	23.5	62.3	0	0
22420	2012-08-19T03:00:00	6	ND	ND	ND	ND	ND	0.7	2.7	22.7	72.6	0	0
22421	2012-08-19T04:00:00	23	ND	ND	ND	ND	ND	0.2	24.1	22.3	73.5	0	0
22422	2012-08-19T05:00:00	13	ND	ND	ND	ND	ND	0.4	255.3	22.3	70.2	0	0
22423	2012-08-19T06:00:00	9	ND	ND	ND	ND	ND	0.3	71	21.8	77.6	0	0
22424	2012-08-19T07:00:00	16	ND	ND	ND	ND	ND	0.4	272.4	21.6	72.8	16.7	0
22425	2012-08-19T08:00:00	10	ND	ND	ND	ND	ND	0.8	251.9	22.1	67.8	97.7	0
22426	2012-08-19T09:00:00	8	ND	ND	ND	ND	ND	0.9	138.7	23.2	66.9	257.9	0
22427	2012-08-19T10:00:00	30	ND	ND	ND	ND	ND	1.1	147.3	24.1	65.2	301.1	0
22428	2012-08-19T11:00:00	33	ND	ND	ND	ND	ND	1.3	137.5	25.6	60.7	538	0
22429	2012-08-19T12:00:00	28	ND	ND	ND	ND	ND	1.9	143	25.7	59.3	526.9	0
22430	2012-08-19T13:00:00	34	ND	ND	ND	ND	ND	1.6	140.2	27.6	53.6	951.6	0
22431	2012-08-19T14:00:00	37	ND	ND	ND	ND	ND	1	159.7	28.7	50.8	805.8	0
22432	2012-08-19T15:00:00	47	ND	ND	ND	ND	ND	0.7	142.6	30.3	43.5	686.6	0
22433	2012-08-19T16:00:00	27	ND	ND	ND	ND	ND	1	174.6	31.2	37.1	446.5	0
22434	2012-08-19T17:00:00	28	ND	ND	ND	ND	ND	0.9	247.6	31.6	36.1	348.9	0
22435	2012-08-19T18:00:00	15	ND	ND	ND	ND	ND	3.6	270.8	29.1	48	114.2	0
22436	2012-08-19T19:00:00	26	ND	ND	ND	ND	ND	4.4	273.6	26.8	54.1	0	0
22437	2012-08-19T20:00:00	31	ND	ND	ND	ND	ND	4.1	279.4	26.3	53.5	0	0
22438	2012-08-19T21:00:00	17	ND	ND	ND	ND	ND	5.1	267.5	25.7	56.1	0	0
22439	2012-08-19T22:00:00	18	ND	ND	ND	ND	ND	3.3	269.7	25.2	59.3	0	0
22440	2012-08-19T23:00:00	11	ND	ND	ND	ND	ND	2.8	255.6	24.7	61.6	0	0
22441	2012-08-20T00:00:00	6	ND	ND	ND	ND	ND	3.1	262.9	24.3	63.4	0	0
22442	2012-08-20T01:00:00	7	ND	ND	ND	ND	ND	0.3	130	23.1	69.2	0	0
22443	2012-08-20T02:00:00	19	ND	ND	ND	ND	ND	0.5	192.3	22.6	66.8	0	0
22444	2012-08-20T03:00:00	12	ND	ND	ND	ND	ND	1.2	142.5	22	71.7	0	0
22445	2012-08-20T04:00:00	11	ND	ND	ND	ND	ND	0.8	242.3	21.8	70.2	0	0
22446	2012-08-20T05:00:00	55	ND	ND	ND	ND	ND	0.6	223.8	21.6	69.5	0	0
22447	2012-08-20T06:00:00	28	ND	ND	ND	ND	ND	0.3	305.7	21.3	69.6	0	0
22448	2012-08-20T07:00:00	45	ND	ND	ND	ND	ND	0.4	87.7	20.7	75.9	18.7	0
22449	2012-08-20T08:00:00	49	ND	ND	ND	ND	ND	0.5	106.4	21.8	69.1	161.4	0
22450	2012-08-20T09:00:00	53	ND	ND	ND	ND	ND	0.8	93.3	24.2	60	404.2	0
22451	2012-08-20T10:00:00	49	ND	ND	ND	ND	ND	0.6	161.5	25.7	55.1	617.9	0
22452	2012-08-20T11:00:00	46	ND	ND	ND	ND	ND	1.2	157.8	27.5	48.8	784.7	0
22453	2012-08-20T12:00:00	28	ND	ND	ND	ND	ND	1.2	151.1	29.1	44.3	901	0
22454	2012-08-20T13:00:00	32	ND	ND	ND	ND	ND	0.9	141.8	30.7	35.6	908.1	0
22455	2012-08-20T14:00:00	18	ND	ND	ND	ND	ND	0.1	139.2	32.2	29.1	882.3	0
22456	2012-08-20T15:00:00	12	ND	ND	ND	ND	ND	0.9	38.1	31.7	33.1	556.2	0
22457	2012-08-20T16:00:00	7	ND	ND	ND	ND	ND	2.8	279.7	30.6	40.4	275	0
22458	2012-08-20T17:00:00	37	ND	ND	ND	ND	ND	3.9	287.1	28.3	47.3	104.8	0
22459	2012-08-20T18:00:00	20	ND	ND	ND	ND	ND	3.6	290.5	27	51.1	55.9	0
22460	2012-08-20T19:00:00	17	ND	ND	ND	ND	ND	3.8	283.4	26.3	53.7	0	0
22461	2012-08-20T20:00:00	10	ND	ND	ND	ND	ND	4.6	274	25.5	57.2	0	0
22462	2012-08-20T21:00:00	17	ND	ND	ND	ND	ND	4.9	270	25.1	58.9	0	0
22463	2012-08-20T22:00:00	10	ND	ND	ND	ND	ND	3.6	278.9	25.1	58.6	0	0
22464	2012-08-20T23:00:00	9	ND	ND	ND	ND	ND	1.3	299	25.2	57.7	0	0
22465	2012-08-21T00:00:00	7	ND	ND	ND	ND	ND	2	240.2	24.3	62.9	0	0
22466	2012-08-21T01:00:00	7	ND	ND	ND	ND	ND	1.9	210.2	23.7	65.9	0	0
22467	2012-08-21T02:00:00	7	ND	ND	ND	ND	ND	1.1	229.4	23.6	67.1	0	0
22468	2012-08-21T03:00:00	11	ND	ND	ND	ND	ND	0.4	282.4	23.3	66.2	0	0
22469	2012-08-21T04:00:00	33	ND	ND	ND	ND	ND	1.1	40.2	22.6	70.6	0	0
22470	2012-08-21T05:00:00	19	ND	ND	ND	ND	ND	0.9	77.5	22.1	73	0	0
22471	2012-08-21T06:00:00	11	ND	ND	ND	ND	ND	0.9	124	22	74.4	0	0
22472	2012-08-21T07:00:00	30	ND	ND	ND	ND	ND	0.4	156.3	22.1	73.9	13.7	0
22473	2012-08-21T08:00:00	24	ND	ND	ND	ND	ND	0.6	182.7	22.8	70.5	96.9	0
22474	2012-08-21T09:00:00	41	ND	ND	ND	ND	ND	0.6	152.7	23.9	65.9	223	0
22475	2012-08-21T10:00:00	43	ND	ND	ND	ND	ND	0.6	135	25.2	60.8	456.4	0
22476	2012-08-21T11:00:00	34	ND	ND	ND	ND	ND	1	79.2	27.1	53.2	816.5	0
22477	2012-08-21T12:00:00	30	ND	ND	ND	ND	ND	0.6	62.8	29	47.8	874.6	0
22478	2012-08-21T13:00:00	38	ND	ND	ND	ND	ND	1.5	94.1	30.6	40.7	920.1	0
22479	2012-08-21T14:00:00	29	ND	ND	ND	ND	ND	1.5	80.4	31.3	37.7	553.8	0
22480	2012-08-21T15:00:00	50	ND	ND	ND	ND	ND	1.3	75.5	31.4	38.2	541.2	0
22481	2012-08-21T16:00:00	40	ND	ND	ND	ND	ND	2.1	50	31.9	37.3	528.6	0
22482	2012-08-21T17:00:00	68	ND	ND	ND	ND	ND	3.6	281.2	30.4	44.1	373.2	0
22483	2012-08-21T18:00:00	47	ND	ND	ND	ND	ND	3.8	284.7	28	50.3	105	0
22484	2012-08-21T19:00:00	40	ND	ND	ND	ND	ND	3.9	277	26.6	54.6	2	0
22485	2012-08-21T20:00:00	24	ND	ND	ND	ND	ND	5	269.6	25.9	57.2	0	0
22486	2012-08-21T21:00:00	25	ND	ND	ND	ND	ND	4.1	269.1	25.6	58.1	0	0
22487	2012-08-21T22:00:00	16	ND	ND	ND	ND	ND	3.4	275.7	25.5	58.7	0	0
22488	2012-08-21T23:00:00	10	ND	ND	ND	ND	ND	1	281.8	25	61.3	0	0
22489	2012-08-22T00:00:00	35	ND	ND	ND	ND	ND	0.4	199.1	24.3	68.1	0	0
22490	2012-08-22T01:00:00	33	ND	ND	ND	ND	ND	0.1	279.4	23.8	69.6	0	0
22491	2012-08-22T02:00:00	30	ND	ND	ND	ND	ND	0.6	133	23	72.5	0	0
22492	2012-08-22T03:00:00	33	ND	ND	ND	ND	ND	0.7	169.4	22.8	73.8	0	0
22493	2012-08-22T04:00:00	21	ND	ND	ND	ND	ND	0.9	143.6	22.2	75.7	0	0
22494	2012-08-22T05:00:00	58	ND	ND	ND	ND	ND	1.1	160.8	21.9	76.2	0	0
22495	2012-08-22T06:00:00	59	ND	ND	ND	ND	ND	0.2	252.8	22	74.6	0	0
22496	2012-08-22T07:00:00	50	ND	ND	ND	ND	ND	0.3	154.1	22.1	74.7	28.3	0
22497	2012-08-22T08:00:00	59	ND	ND	ND	ND	ND	0.7	120.6	22.4	73.4	115.8	0
22498	2012-08-22T09:00:00	100	ND	ND	ND	ND	ND	0.7	87.2	24.1	65.4	337.8	0
22499	2012-08-22T10:00:00	102	ND	ND	ND	ND	ND	0.7	92	26.6	56.4	517.6	0
22500	2012-08-22T11:00:00	79	ND	ND	ND	ND	ND	1.1	74.9	28	51.7	694.7	0
22501	2012-08-22T12:00:00	55	ND	ND	ND	ND	ND	1.1	85.7	29.3	46.7	792.2	0
22502	2012-08-22T13:00:00	54	ND	ND	ND	ND	ND	2.1	53.7	30.2	44.1	584.7	0
22503	2012-08-22T14:00:00	35	ND	ND	ND	ND	ND	1.8	72	30.3	44.2	417.8	0
22504	2012-08-22T15:00:00	32	ND	ND	ND	ND	ND	1.6	87.5	30.5	43.5	403.6	0
22505	2012-08-22T16:00:00	53	ND	ND	ND	ND	ND	2.2	74.7	29.6	45.8	177.4	0
22506	2012-08-22T17:00:00	38	ND	ND	ND	ND	ND	3.7	279.1	28.4	49	238.3	0
22507	2012-08-22T18:00:00	35	ND	ND	ND	ND	ND	3.8	281.8	27.4	51.9	56.9	0
22508	2012-08-22T19:00:00	39	ND	ND	ND	ND	ND	4	276.8	26.1	55.5	0	0
22509	2012-08-22T20:00:00	23	ND	ND	ND	ND	ND	5.3	273.2	25.5	57.6	0	0
22510	2012-08-22T21:00:00	28	ND	ND	ND	ND	ND	2	282.6	25.7	55.5	0	0
22511	2012-08-22T22:00:00	25	ND	ND	ND	ND	ND	2.3	263	25.3	57.2	0	0
22512	2012-08-22T23:00:00	14	ND	ND	ND	ND	ND	0.1	312.3	24.8	60.5	0	0
22513	2012-08-23T00:00:00	18	ND	ND	ND	ND	ND	0.8	149.1	23.9	66.1	0	0
22514	2012-08-23T01:00:00	37	ND	ND	ND	ND	ND	1.4	159.2	23.2	70.4	0	0
22515	2012-08-23T02:00:00	28	ND	ND	ND	ND	ND	1.4	177.2	22.4	74.1	0	0
22516	2012-08-23T03:00:00	51	ND	ND	ND	ND	ND	0.9	164.9	22.6	73	0	0
22517	2012-08-23T04:00:00	40	ND	ND	ND	ND	ND	0.6	151.8	22.3	75.7	0	0
22518	2012-08-23T05:00:00	48	ND	ND	ND	ND	ND	0.4	91.3	22	76.6	0	0
22519	2012-08-23T06:00:00	50	ND	ND	ND	ND	ND	0.2	194.4	22.2	78	0	0
22520	2012-08-23T07:00:00	49	ND	ND	ND	ND	ND	1.4	51	21.5	82.7	6.2	2.03
22521	2012-08-23T08:00:00	32	ND	ND	ND	ND	ND	1.6	17.7	21.1	88.4	142.3	0
22522	2012-08-23T09:00:00	30	ND	ND	ND	ND	ND	1.1	53.9	21.9	84	161.3	0
22523	2012-08-23T10:00:00	27	ND	ND	ND	ND	ND	0.6	54.5	22.8	77.4	251	0
22524	2012-08-23T11:00:00	30	ND	ND	ND	ND	ND	0.3	143.5	25.6	63.4	595.7	0
22525	2012-08-23T12:00:00	18	ND	ND	ND	ND	ND	0.8	9.7	26.7	57.1	533.2	0
22526	2012-08-23T13:00:00	46	ND	ND	ND	ND	ND	1.1	109.8	28.1	51.5	884.7	0
22527	2012-08-23T14:00:00	33	ND	ND	ND	ND	ND	1	125.7	30	44.2	818	0
22528	2012-08-23T15:00:00	36	ND	ND	ND	ND	ND	1.2	113.7	31.1	40.4	718.5	0
22529	2012-08-23T16:00:00	19	ND	ND	ND	ND	ND	2.9	275.9	30.6	43.1	514.1	0
22530	2012-08-23T17:00:00	30	ND	ND	ND	ND	ND	4.9	286.1	29	46	387.4	0
22531	2012-08-23T18:00:00	18	ND	ND	ND	ND	ND	4.5	283.7	27.6	49.4	79.8	0
22532	2012-08-23T19:00:00	39	ND	ND	ND	ND	ND	5	279.4	26.1	52.9	0.1	0
22533	2012-08-23T20:00:00	30	ND	ND	ND	ND	ND	3.2	285.2	25.9	54.9	0	0
22534	2012-08-23T21:00:00	18	ND	ND	ND	ND	ND	1.4	334.5	25.8	56.1	0	0
22535	2012-08-23T22:00:00	21	ND	ND	ND	ND	ND	1.2	273	25.6	57.3	0	0
22536	2012-08-23T23:00:00	13	ND	ND	ND	ND	ND	1.2	134.1	24.7	62.9	0	0
22537	2012-08-24T00:00:00	8	ND	ND	ND	ND	ND	1.7	184.3	23.9	67.3	0	0
22538	2012-08-24T01:00:00	6	ND	ND	ND	ND	ND	1.4	166.1	23.5	69.6	0	0
22539	2012-08-24T02:00:00	7	ND	ND	ND	ND	ND	1.2	158.4	22.9	72.9	0	0
22540	2012-08-24T03:00:00	6	ND	ND	ND	ND	ND	1	186.6	22.8	73.4	0	0
22541	2012-08-24T04:00:00	6	ND	ND	ND	ND	ND	1.1	183.2	22.9	72.8	0	0
22542	2012-08-24T05:00:00	25	ND	ND	ND	ND	ND	0.7	139.7	22.8	73.6	0	0
22543	2012-08-24T06:00:00	17	ND	ND	ND	ND	ND	0.9	121.8	22.5	75.6	0	0
22544	2012-08-24T07:00:00	50	ND	ND	ND	ND	ND	0.7	164.7	22.4	75.6	9	0
22545	2012-08-24T08:00:00	56	ND	ND	ND	ND	ND	1.8	171.1	22.1	79	42.6	0
22546	2012-08-24T09:00:00	58	ND	ND	ND	ND	ND	1.7	187.4	20.6	91.6	104.5	13.72
22547	2012-08-24T10:00:00	31	ND	ND	ND	ND	ND	0.5	148.7	22.3	81.2	250.2	0.51
22548	2012-08-24T11:00:00	21	ND	ND	ND	ND	ND	0.9	144.5	24.3	70.7	512.3	0
22549	2012-08-24T12:00:00	12	ND	ND	ND	ND	ND	0.4	230.9	27.5	53.4	883.4	0
22550	2012-08-24T13:00:00	10	ND	ND	ND	ND	ND	0.2	159.8	30	40.4	733.1	0
22551	2012-08-24T14:00:00	7	ND	ND	ND	ND	ND	0.5	94.4	30	41.2	501.3	0
22552	2012-08-24T15:00:00	23	ND	ND	ND	ND	ND	3.9	282	30.6	38.4	760.5	0
22553	2012-08-24T16:00:00	14	ND	ND	ND	ND	ND	4.4	288.6	29.6	43	569.3	0
22554	2012-08-24T17:00:00	10	ND	ND	ND	ND	ND	4.7	285.1	28.1	46.7	250.5	0
22555	2012-08-24T18:00:00	29	ND	ND	ND	ND	ND	4.7	281.4	26.8	50.9	106.7	0
22556	2012-08-24T19:00:00	23	ND	ND	ND	ND	ND	3.5	286.2	25.8	54.8	0	0
22557	2012-08-24T20:00:00	14	ND	ND	ND	ND	ND	3.2	280.3	25.7	55.1	0	0
22558	2012-08-24T21:00:00	15	ND	ND	ND	ND	ND	1.7	286.3	25.5	56.1	0	0
22559	2012-08-24T22:00:00	11	ND	ND	ND	ND	ND	1.3	262.3	25.2	56.8	0	0
22560	2012-08-24T23:00:00	6	ND	ND	ND	ND	ND	2.2	209.2	24.3	63	0	0
22561	2012-08-25T00:00:00	15	ND	ND	ND	ND	ND	1.6	212.7	24	64.7	0	0
22562	2012-08-25T01:00:00	24	ND	ND	ND	ND	ND	1.1	173.9	23.7	67	0	0
22563	2012-08-25T02:00:00	27	ND	ND	ND	ND	ND	1	128.2	22.5	72.9	0	0
22564	2012-08-25T03:00:00	36	ND	ND	ND	ND	ND	0.9	151	22	74.4	0	0
22565	2012-08-25T04:00:00	36	ND	ND	ND	ND	ND	0.3	ND	21.9	74.9	0	0
22566	2012-08-25T05:00:00	33	ND	ND	ND	ND	ND	0.3	243	22.1	73.4	0	0
22567	2012-08-25T06:00:00	29	ND	ND	ND	ND	ND	0.5	55.1	22	75.9	0	0
22568	2012-08-25T07:00:00	65	ND	ND	ND	ND	ND	0.4	347.3	21.9	75.6	34.8	0
22569	2012-08-25T08:00:00	60	ND	ND	ND	ND	ND	0.6	215.3	22.7	69.7	136.6	0
22570	2012-08-25T09:00:00	120	ND	ND	ND	ND	ND	0.8	134.2	23.5	71.1	172	0
22571	2012-08-25T10:00:00	98	ND	ND	ND	ND	ND	0.9	128.3	25.2	63.5	492.9	0
22572	2012-08-25T11:00:00	114	ND	ND	ND	ND	ND	1.3	99.1	26.9	56.1	710.9	0
22573	2012-08-25T12:00:00	59	ND	ND	ND	ND	ND	1.3	68.7	28.7	48.6	852.6	0
22574	2012-08-25T13:00:00	51	ND	ND	ND	ND	ND	1.7	62.6	30.3	43.7	864.4	0
22575	2012-08-25T14:00:00	28	ND	ND	ND	ND	ND	1.8	58.6	30.1	44.3	619.7	0
22576	2012-08-25T15:00:00	47	ND	ND	ND	ND	ND	1.7	61.1	30.1	44.9	380.6	0
22577	2012-08-25T16:00:00	35	ND	ND	ND	ND	ND	0.8	54.5	29.7	46.3	177	0
22578	2012-08-25T17:00:00	20	ND	ND	ND	ND	ND	0.9	321.3	29.9	45.6	221.7	0
22579	2012-08-25T18:00:00	11	ND	ND	ND	ND	ND	3.1	279.1	28.6	48.7	62.4	0
22580	2012-08-25T19:00:00	7	ND	ND	ND	ND	ND	2.2	240.6	27.3	53	0	0
22581	2012-08-25T20:00:00	9	ND	ND	ND	ND	ND	3	269.7	26.2	57.9	0	0
22582	2012-08-25T21:00:00	14	ND	ND	ND	ND	ND	2.1	283.5	26	56.8	0	0
22583	2012-08-25T22:00:00	31	ND	ND	ND	ND	ND	1.8	34.3	24.3	59.6	0	0
22584	2012-08-25T23:00:00	39	ND	ND	ND	ND	ND	0.3	226.9	24.6	56.8	0	0
22585	2012-08-26T00:00:00	28	ND	ND	ND	ND	ND	0.6	139.5	24.8	58.4	0	0
22586	2012-08-26T01:00:00	33	ND	ND	ND	ND	ND	1.1	257.6	24.8	59.4	0	0
22587	2012-08-26T02:00:00	31	ND	ND	ND	ND	ND	1.9	189	23.9	63.5	0	0
22588	2012-08-26T03:00:00	40	ND	ND	ND	ND	ND	1.3	157.2	23.1	67.5	0	0
22589	2012-08-26T04:00:00	33	ND	ND	ND	ND	ND	1	163.9	22.7	71.6	0	0
22590	2012-08-26T05:00:00	57	ND	ND	ND	ND	ND	0.5	137.7	22.2	75.6	0	0
22591	2012-08-26T06:00:00	34	ND	ND	ND	ND	ND	0.5	65.9	21.5	80.2	0	0
22592	2012-08-26T07:00:00	52	ND	ND	ND	ND	ND	0.6	141.2	21.6	79.1	14.5	0
22593	2012-08-26T08:00:00	57	ND	ND	ND	ND	ND	0.8	130.9	22.4	74.4	208.5	0
22594	2012-08-26T09:00:00	32	ND	ND	ND	ND	ND	1.3	143.5	24.1	66.7	418.1	0
22595	2012-08-26T10:00:00	39	ND	ND	ND	ND	ND	1.1	131.8	25.8	59.7	580.2	0
22596	2012-08-26T11:00:00	41	ND	ND	ND	ND	ND	0.8	114.6	27.7	51.6	779.9	0
22597	2012-08-26T12:00:00	48	ND	ND	ND	ND	ND	0.7	57.2	29.4	46.1	859.6	0
22598	2012-08-26T13:00:00	36	ND	ND	ND	ND	ND	1.1	99.7	30.4	43.5	854.6	0
22599	2012-08-26T14:00:00	20	ND	ND	ND	ND	ND	1.2	48.9	31.6	38.9	869.6	0
22600	2012-08-26T15:00:00	17	ND	ND	ND	ND	ND	1.6	86.3	32.4	34.7	723.4	0
22601	2012-08-26T16:00:00	12	ND	ND	ND	ND	ND	1.5	65.2	33	33.1	578.5	0
22602	2012-08-26T17:00:00	7	ND	ND	ND	ND	ND	0.7	305.3	32.8	33.7	311.2	0
22603	2012-08-26T18:00:00	14	ND	ND	ND	ND	ND	3.8	277.1	29.9	46.7	106.7	0
22604	2012-08-26T19:00:00	34	ND	ND	ND	ND	ND	3.6	267.5	28.1	51.5	0	0
22605	2012-08-26T20:00:00	19	ND	ND	ND	ND	ND	3.2	270.1	27.5	53.9	0	0
22606	2012-08-26T21:00:00	11	ND	ND	ND	ND	ND	0.8	293.1	27	56	0	0
22607	2012-08-26T22:00:00	7	ND	ND	ND	ND	ND	2.1	278.4	26.6	56.8	0	0
22608	2012-08-26T23:00:00	23	ND	ND	ND	ND	ND	2	273.2	26.2	57.8	0	0
22609	2012-08-27T00:00:00	12	ND	ND	ND	ND	ND	0.6	304.8	26.1	59.3	0	0
22610	2012-08-27T01:00:00	24	ND	ND	ND	ND	ND	1.3	85.4	25	66.8	0	0
22611	2012-08-27T02:00:00	15	ND	ND	ND	ND	ND	0.3	38.5	24.3	70	0	0
22612	2012-08-27T03:00:00	22	ND	ND	ND	ND	ND	0.2	41.8	24.5	66.9	0	0
22613	2012-08-27T04:00:00	18	ND	ND	ND	ND	ND	0.5	166.5	24.3	69.1	0	0
22614	2012-08-27T05:00:00	23	ND	ND	ND	ND	ND	0.8	159.5	23.9	72.2	0	0
22615	2012-08-27T06:00:00	15	ND	ND	ND	ND	ND	1.5	176.1	23.8	70.4	0	0
22616	2012-08-27T07:00:00	35	ND	ND	ND	ND	ND	1.5	175.9	23.2	75.4	49.5	0
22617	2012-08-27T08:00:00	47	ND	ND	ND	ND	ND	0.7	155.3	24.1	69.7	97.3	0
22618	2012-08-27T09:00:00	57	ND	ND	ND	ND	ND	1	125.4	25	65.4	232.4	0
22619	2012-08-27T10:00:00	30	ND	ND	ND	ND	ND	1	131.9	26.6	55.1	356.9	0
22620	2012-08-27T11:00:00	38	ND	ND	ND	ND	ND	0.9	80.5	28.2	48.5	570.9	0
22621	2012-08-27T12:00:00	32	ND	ND	ND	ND	ND	1.6	47.7	30	43.2	769.9	0
22622	2012-08-27T13:00:00	19	ND	ND	ND	ND	ND	1.3	113.9	31.1	35.9	714.8	0
22623	2012-08-27T14:00:00	11	ND	ND	ND	ND	ND	1.8	140.6	31.9	29.7	548.8	0
22624	2012-08-27T15:00:00	30	ND	ND	ND	ND	ND	1.6	121.4	32.3	28.8	531.1	0
22625	2012-08-27T16:00:00	16	ND	ND	ND	ND	ND	2	126.7	32.6	28.7	401.9	0
22626	2012-08-27T17:00:00	47	ND	ND	ND	ND	ND	2	143	32.4	28.5	282	0
22627	2012-08-27T18:00:00	26	ND	ND	ND	ND	ND	3.2	260.8	30	42	121.6	0
22628	2012-08-27T19:00:00	56	ND	ND	ND	ND	ND	3.5	260.8	28	48.5	0	0
22629	2012-08-27T20:00:00	31	ND	ND	ND	ND	ND	3.6	261.3	27.2	51.9	0	0
22630	2012-08-27T21:00:00	17	ND	ND	ND	ND	ND	2.9	269.9	26.4	54	0	0
22631	2012-08-27T22:00:00	11	ND	ND	ND	ND	ND	1.7	285.5	26.1	54.6	0	0
22632	2012-08-27T23:00:00	23	ND	ND	ND	ND	ND	0.6	74.7	24.9	62.8	0	0
22633	2012-08-28T00:00:00	19	ND	ND	ND	ND	ND	0.5	114.2	24.1	66	0	0
22634	2012-08-28T01:00:00	44	ND	ND	ND	ND	ND	0.7	193.3	23.6	66.8	0	0
22635	2012-08-28T02:00:00	30	ND	ND	ND	ND	ND	0.9	89.7	22.6	72.8	0	0
22636	2012-08-28T03:00:00	41	ND	ND	ND	ND	ND	0.9	205.7	22.3	70.9	0	0
22637	2012-08-28T04:00:00	22	ND	ND	ND	ND	ND	0.9	213.4	22.4	65.1	0	0
22638	2012-08-28T05:00:00	13	ND	ND	ND	ND	ND	1.4	234	22.3	60.6	0	0
22639	2012-08-28T06:00:00	8	ND	ND	ND	ND	ND	0.5	130.4	22	64.5	0	0
22640	2012-08-28T07:00:00	38	ND	ND	ND	ND	ND	0.5	56	21.4	71.5	26.9	0
22641	2012-08-28T08:00:00	54	ND	ND	ND	ND	ND	0.7	158.6	22.2	66	128.2	0
22642	2012-08-28T09:00:00	70	ND	ND	ND	ND	ND	0.8	135.8	23.7	59	236.4	0
22643	2012-08-28T10:00:00	37	ND	ND	ND	ND	ND	0.6	148.4	24.7	56.6	364.6	0
22644	2012-08-28T11:00:00	67	ND	ND	ND	ND	ND	0.6	115.2	27.4	46	821.3	0
22645	2012-08-28T12:00:00	48	ND	ND	ND	ND	ND	0.9	97	29.9	39.6	876.4	0
22646	2012-08-28T13:00:00	36	ND	ND	ND	ND	ND	1.3	123.1	31.6	33.9	902.7	0
22647	2012-08-28T14:00:00	21	ND	ND	ND	ND	ND	1.1	138.6	33.5	27.9	870.6	0
22648	2012-08-28T15:00:00	20	ND	ND	ND	ND	ND	1.1	80.6	34.6	23.1	726.9	0
22649	2012-08-28T16:00:00	22	ND	ND	ND	ND	ND	3.2	274.4	33	34.6	492.4	0
22650	2012-08-28T17:00:00	42	ND	ND	ND	ND	ND	4.8	276.1	30.2	44.7	197.3	0
22651	2012-08-28T18:00:00	63	ND	ND	ND	ND	ND	4.9	275.3	28.3	49.3	37.3	0
22652	2012-08-28T19:00:00	33	ND	ND	ND	ND	ND	3.9	281.7	27.6	51.3	0	0
22653	2012-08-28T20:00:00	24	ND	ND	ND	ND	ND	4.3	278.6	26.8	55.1	0	0
22654	2012-08-28T21:00:00	48	ND	ND	ND	ND	ND	4.6	269.9	26.3	57.6	0	0
22655	2012-08-28T22:00:00	28	ND	ND	ND	ND	ND	2.2	286.4	26.2	57.8	0	0
22656	2012-08-28T23:00:00	62	ND	ND	ND	ND	ND	1.1	276.2	26	58.1	0	0
22657	2012-08-29T00:00:00	54	ND	ND	ND	ND	ND	1.9	197.2	25.2	62.5	0	0
22658	2012-08-29T01:00:00	53	ND	ND	ND	ND	ND	1.8	194.5	25	61.7	0	0
22659	2012-08-29T02:00:00	38	ND	ND	ND	ND	ND	0.8	163.4	24.5	65.2	0	0
22660	2012-08-29T03:00:00	47	ND	ND	ND	ND	ND	0.4	155.3	24.3	65.9	0	0
22661	2012-08-29T04:00:00	30	ND	ND	ND	ND	ND	0.6	85.8	23.5	70.9	0	0
22662	2012-08-29T05:00:00	60	ND	ND	ND	ND	ND	0.6	110.9	23.1	71.8	0	0
22663	2012-08-29T06:00:00	55	ND	ND	ND	ND	ND	0.4	164.7	23.1	71.6	0	0
22664	2012-08-29T07:00:00	64	ND	ND	ND	ND	ND	0.8	147.4	23.3	70.7	17.8	0
22665	2012-08-29T08:00:00	47	ND	ND	ND	ND	ND	0.2	300.5	24	67.2	119.2	0
22666	2012-08-29T09:00:00	98	ND	ND	ND	ND	ND	0.9	106	25.3	64.1	307.6	0
22667	2012-08-29T10:00:00	93	ND	ND	ND	ND	ND	1.2	135.8	26.5	59.8	536.2	0
22668	2012-08-29T11:00:00	91	ND	ND	ND	ND	ND	0.9	125	28	52.6	502.8	0
22669	2012-08-29T12:00:00	73	ND	ND	ND	ND	ND	1.1	96.9	28.8	51.6	512.2	0
22670	2012-08-29T13:00:00	73	ND	ND	ND	ND	ND	1.4	109.9	29.6	49.3	678.3	0
22671	2012-08-29T14:00:00	50	ND	ND	ND	ND	ND	1.1	49.1	30.6	44.6	582.8	0
22672	2012-08-29T15:00:00	52	ND	ND	ND	ND	ND	1.5	74.5	31	44.2	518.5	0
22673	2012-08-29T16:00:00	37	ND	ND	ND	ND	ND	1	61.2	31	43.7	369.9	0
22674	2012-08-29T17:00:00	45	ND	ND	ND	ND	ND	0.8	336	30.7	44.7	264.9	0
22675	2012-08-29T18:00:00	47	ND	ND	ND	ND	ND	3.2	273.1	28.5	50.4	58	0
22676	2012-08-29T19:00:00	49	ND	ND	ND	ND	ND	3.6	272.9	27.2	53.5	0	0
22677	2012-08-29T20:00:00	41	ND	ND	ND	ND	ND	3.7	268.7	26.5	53.8	0	0
22678	2012-08-29T21:00:00	29	ND	ND	ND	ND	ND	3.5	269	26.1	56	0	0
22679	2012-08-29T22:00:00	31	ND	ND	ND	ND	ND	2.9	276.2	26.1	56.3	0	0
22680	2012-08-29T23:00:00	44	ND	ND	ND	ND	ND	0.5	59.4	25.4	60.6	0	0
22681	2012-08-30T00:00:00	24	ND	ND	ND	ND	ND	0.7	65.2	23.9	73.2	0	7.62
22682	2012-08-30T01:00:00	32	ND	ND	ND	ND	ND	1.6	254.9	23.4	72.3	0	0
22683	2012-08-30T02:00:00	18	ND	ND	ND	ND	ND	0.7	217.7	22.9	74.4	0	0
22684	2012-08-30T03:00:00	34	ND	ND	ND	ND	ND	1.3	201	22.5	76.7	0	0
22685	2012-08-30T04:00:00	43	ND	ND	ND	ND	ND	1.1	226.2	22.4	74.4	0	0
22686	2012-08-30T05:00:00	39	ND	ND	ND	ND	ND	0.7	48.9	21.9	79.1	0	0
22687	2012-08-30T06:00:00	37	ND	ND	ND	ND	ND	0.1	ND	22	79.5	0	0
22688	2012-08-30T07:00:00	58	ND	ND	ND	ND	ND	0.4	74.6	22.1	76.6	37.6	0
22689	2012-08-30T08:00:00	64	ND	ND	ND	ND	ND	0.3	56.1	22.7	76.2	148.5	0
22690	2012-08-30T09:00:00	109	ND	ND	ND	ND	ND	0.6	59.2	24.3	69.3	300.9	0
22691	2012-08-30T10:00:00	92	ND	ND	ND	ND	ND	1.6	64.3	25.7	61.6	389.4	0
22692	2012-08-30T11:00:00	70	ND	ND	ND	ND	ND	0.7	99.8	27	56.1	539	0
22693	2012-08-30T12:00:00	37	ND	ND	ND	ND	ND	1.2	86.2	28.1	52.4	537.5	0
22694	2012-08-30T13:00:00	57	ND	ND	ND	ND	ND	1.5	96.5	29.3	48.4	604.1	0
22695	2012-08-30T14:00:00	38	ND	ND	ND	ND	ND	1.2	85.5	30.2	42.9	555.6	0
22696	2012-08-30T15:00:00	50	ND	ND	ND	ND	ND	1.7	57.7	30.3	38.3	227.4	0
22697	2012-08-30T16:00:00	75	ND	ND	ND	ND	ND	1.4	70.4	30.2	38.5	249.6	0
22698	2012-08-30T17:00:00	90	ND	ND	ND	ND	ND	0.1	351.1	29.5	45	150.4	0
22699	2012-08-30T18:00:00	75	ND	ND	ND	ND	ND	3	265.5	27.6	52	35.8	0
22700	2012-08-30T19:00:00	63	ND	ND	ND	ND	ND	3	261.8	26.5	54.1	0	0
22701	2012-08-30T20:00:00	47	ND	ND	ND	ND	ND	3.1	266.3	26	54	0	0
22702	2012-08-30T21:00:00	57	ND	ND	ND	ND	ND	2.9	265.8	25.6	55.4	0	0
22703	2012-08-30T22:00:00	31	ND	ND	ND	ND	ND	1.2	294.6	25.5	56.8	0	0
22704	2012-08-30T23:00:00	19	ND	ND	ND	ND	ND	1.7	271.6	25.2	58.3	0	0
22705	2012-08-31T00:00:00	52	ND	ND	ND	ND	ND	1.2	205.9	24.4	63.1	0	0
22706	2012-08-31T01:00:00	27	ND	ND	ND	ND	ND	1	162.5	24.2	63	0	0
22707	2012-08-31T02:00:00	17	ND	ND	ND	ND	ND	0.9	164.2	23.7	63.2	0	0
22708	2012-08-31T03:00:00	30	ND	ND	ND	ND	ND	0.4	108	23.2	64.3	0	0
22709	2012-08-31T04:00:00	35	ND	ND	ND	ND	ND	0.2	ND	22.9	69.6	0	0
22710	2012-08-31T05:00:00	42	ND	ND	ND	ND	ND	0.1	ND	22.5	70.5	0	0
22711	2012-08-31T06:00:00	23	ND	ND	ND	ND	ND	1.2	264.8	22.3	65.2	0	0
22712	2012-08-31T07:00:00	42	ND	ND	ND	ND	ND	1.3	251.3	22	63.4	18.7	0
22713	2012-08-31T08:00:00	48	ND	ND	ND	ND	ND	0.6	246.7	22.9	60.4	146.1	0
22714	2012-08-31T09:00:00	48	ND	ND	ND	ND	ND	1	143.5	24.2	57.7	310.3	0
22715	2012-08-31T10:00:00	44	ND	ND	ND	ND	ND	0.8	106.1	26	49.5	440.1	0
22716	2012-08-31T11:00:00	69	ND	ND	ND	ND	ND	1.5	126.3	26.6	50.4	432.1	0
22717	2012-08-31T12:00:00	91	ND	ND	ND	ND	ND	1.3	153.6	26.6	49.7	432.1	0
22718	2012-08-31T13:00:00	87	ND	ND	ND	ND	ND	1.1	124.3	28.1	42.7	589.7	0
22719	2012-08-31T14:00:00	84	ND	ND	ND	ND	ND	1.3	140	27.7	44.1	267.3	0
22720	2012-08-31T15:00:00	66	ND	ND	ND	ND	ND	0.8	128.1	28.6	40.8	343.5	0
22721	2012-08-31T16:00:00	42	ND	ND	ND	ND	ND	1.5	141.4	28.6	40.6	198	0
22722	2012-08-31T17:00:00	76	ND	ND	ND	ND	ND	1.2	144.9	28.7	36.6	259.1	0
22723	2012-08-31T18:00:00	69	ND	ND	ND	ND	ND	0.9	60.7	28.1	37.7	52.8	0
22724	2012-08-31T19:00:00	78	ND	ND	ND	ND	ND	0.4	359.2	27.4	41.2	0	0
22725	2012-08-31T20:00:00	54	ND	ND	ND	ND	ND	1.5	282.3	26.3	51.3	0	0
22726	2012-08-31T21:00:00	66	ND	ND	ND	ND	ND	2.4	257.2	25.9	52.8	0	0
22727	2012-08-31T22:00:00	34	ND	ND	ND	ND	ND	3.1	261.7	25.2	56.8	0	0
22728	2012-08-31T23:00:00	26	ND	ND	ND	ND	ND	2.4	261.1	24.7	58.1	0	0
22729	2012-09-01T00:00:00	38	ND	ND	ND	ND	ND	0.2	36.6	23.7	64.1	0	0
22730	2012-09-01T01:00:00	71	ND	ND	ND	ND	ND	1.3	146.3	22.3	65.7	0	0
22731	2012-09-01T02:00:00	90	ND	ND	ND	ND	ND	0.9	156.8	21.7	69.1	0	0
22732	2012-09-01T03:00:00	94	ND	ND	ND	ND	ND	1	183.5	21.7	64	0	0
22733	2012-09-01T04:00:00	65	ND	ND	ND	ND	ND	0.3	213.8	21.6	61.5	0	0
22734	2012-09-01T05:00:00	69	ND	ND	ND	ND	ND	0.4	44.1	21.6	64.9	0	0
22735	2012-09-01T06:00:00	90	ND	ND	ND	ND	ND	0.3	106.7	21.1	67.8	0	0
22736	2012-09-01T07:00:00	125	ND	ND	ND	ND	ND	0.5	33.6	21.3	69.8	20.3	0
22737	2012-09-01T08:00:00	158	ND	ND	ND	ND	ND	0.9	67.6	21.7	65.2	89.7	0
22738	2012-09-01T09:00:00	148	ND	ND	ND	ND	ND	0.7	24.2	22.7	58.9	149.1	0
22739	2012-09-01T10:00:00	129	ND	ND	ND	ND	ND	1.6	55	24.1	54.8	294.7	0
22740	2012-09-01T11:00:00	117	ND	ND	ND	ND	ND	1.4	59.5	24.9	52.6	442.6	0
22741	2012-09-01T12:00:00	107	ND	ND	ND	ND	ND	1.6	37.7	26.4	49.7	458.4	0
22742	2012-09-01T13:00:00	87	ND	ND	ND	ND	ND	1.5	37.4	27.5	47.5	588.1	0
22743	2012-09-01T14:00:00	55	ND	ND	ND	ND	ND	1.5	75.6	27.5	47.4	298.8	0
22744	2012-09-01T15:00:00	74	ND	ND	ND	ND	ND	1.3	7.9	28.9	44.3	620.9	0
22745	2012-09-01T16:00:00	65	ND	ND	ND	ND	ND	1.5	74.6	30.4	40.2	592.5	0
22746	2012-09-01T17:00:00	75	ND	ND	ND	ND	ND	1.3	78.6	30.3	38.7	309.4	0
22747	2012-09-01T18:00:00	78	ND	ND	ND	ND	ND	1.6	51.9	29.3	39.8	56.6	0
22748	2012-09-01T19:00:00	82	ND	ND	ND	ND	ND	1.3	283.6	28	47.6	0.6	0
22749	2012-09-01T20:00:00	61	ND	ND	ND	ND	ND	1.6	262.9	27.1	52.8	0	0
22750	2012-09-01T21:00:00	52	ND	ND	ND	ND	ND	2.6	263.9	26	55.6	0	0
22751	2012-09-01T22:00:00	39	ND	ND	ND	ND	ND	3.7	260.6	25.2	57.6	0	0
22752	2012-09-01T23:00:00	27	ND	ND	ND	ND	ND	3	262.9	24.8	58.3	0	0
22753	2012-09-02T00:00:00	16	ND	ND	ND	ND	ND	1.7	279.7	24.2	57.8	0	0
22754	2012-09-02T01:00:00	30	ND	ND	ND	ND	ND	0.6	12.4	22.9	68.5	0	0
22755	2012-09-02T02:00:00	41	ND	ND	ND	ND	ND	0.6	144.6	21.7	75	0	0
22756	2012-09-02T03:00:00	63	ND	ND	ND	ND	ND	1.1	184.4	21.5	74	0	0
22757	2012-09-02T04:00:00	64	ND	ND	ND	ND	ND	1	192.3	21.6	70.9	0	0
22758	2012-09-02T05:00:00	54	ND	ND	ND	ND	ND	0.4	165.8	21.4	66.8	0	0
22759	2012-09-02T06:00:00	39	ND	ND	ND	ND	ND	0.4	282.8	21.3	66.1	0	0
22760	2012-09-02T07:00:00	81	ND	ND	ND	ND	ND	0.7	32.5	20.8	74.5	20.7	0
22761	2012-09-02T08:00:00	111	ND	ND	ND	ND	ND	1	34.6	22.1	69.7	151.8	0
22762	2012-09-02T09:00:00	95	ND	ND	ND	ND	ND	1	77	23.7	59.6	406.1	0
22763	2012-09-02T10:00:00	71	ND	ND	ND	ND	ND	1.2	80.5	25.2	55.8	390.7	0
22764	2012-09-02T11:00:00	65	ND	ND	ND	ND	ND	1.1	96.8	26.6	52.7	567.3	0
22765	2012-09-02T12:00:00	41	ND	ND	ND	ND	ND	1.3	76.9	27.6	49.8	630.1	0
22766	2012-09-02T13:00:00	60	ND	ND	ND	ND	ND	1.2	118.3	29	43.7	600.2	0
22767	2012-09-02T14:00:00	56	ND	ND	ND	ND	ND	1	88.2	30	39.4	743.2	0
22768	2012-09-02T15:00:00	48	ND	ND	ND	ND	ND	1.2	74.8	30.8	36.6	496.2	0
22769	2012-09-02T16:00:00	30	ND	ND	ND	ND	ND	1.4	98.4	30.4	36.2	245.8	0
22770	2012-09-02T17:00:00	52	ND	ND	ND	ND	ND	0.3	229	29.6	41.1	111.5	0
22771	2012-09-02T18:00:00	36	ND	ND	ND	ND	ND	3.1	271.3	27.7	48.4	31.1	0
22772	2012-09-02T19:00:00	35	ND	ND	ND	ND	ND	2.5	274.2	26.9	49.8	0	0
22773	2012-09-02T20:00:00	20	ND	ND	ND	ND	ND	3.7	266.8	26.3	53.2	0	0
22774	2012-09-02T21:00:00	28	ND	ND	ND	ND	ND	3.6	268.2	26.1	54.4	0	0
22775	2012-09-02T22:00:00	17	ND	ND	ND	ND	ND	3	262	26	55.5	0	0
22776	2012-09-02T23:00:00	28	ND	ND	ND	ND	ND	1.5	263.1	25.7	57.3	0	0
22777	2012-09-03T00:00:00	40	ND	ND	ND	ND	ND	1.1	34	24.6	64.4	0	0
22778	2012-09-03T01:00:00	36	ND	ND	ND	ND	ND	0.5	63.8	24.2	66.3	0	0
22779	2012-09-03T02:00:00	20	ND	ND	ND	ND	ND	0.1	107.5	24.2	65.2	0	0
22780	2012-09-03T03:00:00	11	ND	ND	ND	ND	ND	0.3	93	23.8	67.5	0	0
22781	2012-09-03T04:00:00	ND	ND	ND	ND	ND	ND	1.5	191.2	23.2	65.6	0	0
22782	2012-09-03T05:00:00	ND	ND	ND	ND	ND	ND	0.7	150.3	22.8	66.3	0	0
22783	2012-09-03T06:00:00	ND	ND	ND	ND	ND	ND	0.5	1.6	22.6	69.7	0	0
22784	2012-09-03T07:00:00	ND	ND	ND	ND	ND	ND	0.4	33.5	22.7	69.2	20	0
22785	2012-09-03T08:00:00	ND	ND	ND	ND	ND	ND	1.1	15.9	23.5	63.5	125.7	0
22786	2012-09-03T09:00:00	ND	ND	ND	ND	ND	ND	0.4	26.8	24.4	58.5	194.8	0
22787	2012-09-03T10:00:00	ND	ND	ND	ND	ND	ND	1	85.2	26.1	53.6	439	0
22788	2012-09-03T11:00:00	ND	ND	ND	ND	ND	ND	1.3	108.1	27.4	50.5	545.4	0
22789	2012-09-03T12:00:00	ND	ND	ND	ND	ND	ND	1.5	143.7	28.5	46.5	601.7	0
22790	2012-09-03T13:00:00	ND	ND	ND	ND	ND	ND	1.2	128.8	30	42.1	733.1	0
22791	2012-09-03T14:00:00	ND	ND	ND	ND	ND	ND	1.3	76	30.7	39.7	490.8	0
22792	2012-09-03T15:00:00	ND	ND	ND	ND	ND	ND	1.4	62.8	30.6	40.1	335.8	0
22793	2012-09-03T16:00:00	ND	ND	ND	ND	ND	ND	1.4	256.7	30.3	43	265.2	0
22794	2012-09-03T17:00:00	ND	ND	ND	ND	ND	ND	2.7	270.3	29.7	44.8	218.7	0
22795	2012-09-03T18:00:00	ND	ND	ND	ND	ND	ND	3.5	265.8	28.1	48.8	55.4	0
22796	2012-09-03T19:00:00	ND	ND	ND	ND	ND	ND	4.2	267.2	26.6	53.4	0.3	0
22797	2012-09-03T20:00:00	ND	ND	ND	ND	ND	ND	4	264.7	26.1	54.8	0	0
22798	2012-09-03T21:00:00	ND	ND	ND	ND	ND	ND	2.7	272.5	26	55.2	0	0
22799	2012-09-03T22:00:00	ND	ND	ND	ND	ND	ND	1.7	276.2	25.8	56	0	0
22800	2012-09-03T23:00:00	ND	ND	ND	ND	ND	ND	1.9	264.8	25.4	57.6	0	0
22801	2012-09-04T00:00:00	ND	ND	ND	ND	ND	ND	1.6	219.9	24.7	59.9	0	0
22802	2012-09-04T01:00:00	ND	ND	ND	ND	ND	ND	0.8	307.8	24.1	64.3	0	0
22803	2012-09-04T02:00:00	ND	ND	ND	ND	ND	ND	1.4	257.5	24.1	61.1	0	0
22804	2012-09-04T03:00:00	ND	ND	ND	ND	ND	ND	0.2	205.8	22.7	67.9	0	0
22805	2012-09-04T04:00:00	ND	ND	ND	ND	ND	ND	0.8	200.1	22.5	62.2	0	0
22806	2012-09-04T05:00:00	ND	ND	ND	ND	ND	ND	0.8	249.1	22.6	63.6	0	0
22807	2012-09-04T06:00:00	ND	ND	ND	ND	ND	ND	0.4	67	22.4	67.6	0	0
22808	2012-09-04T07:00:00	ND	ND	ND	ND	ND	ND	1.2	166.9	22.1	65.1	30.2	0
22809	2012-09-04T08:00:00	ND	ND	ND	ND	ND	ND	0.9	156.5	22.5	67.4	162.2	0
22810	2012-09-04T09:00:00	ND	ND	ND	ND	ND	ND	0.8	124.4	24.4	60.5	389	0
22811	2012-09-04T10:00:00	ND	ND	ND	ND	ND	ND	1.5	132.9	25.8	55.7	473.3	0
22812	2012-09-04T11:00:00	ND	ND	ND	ND	ND	ND	1	104.3	27.5	51.1	625	0
22813	2012-09-04T12:00:00	ND	ND	ND	ND	ND	ND	1.5	99	28.7	48.3	723.5	0
22814	2012-09-04T13:00:00	ND	ND	ND	ND	ND	ND	1.4	107.5	28.8	48.6	330.7	0
22815	2012-09-04T14:00:00	ND	ND	ND	ND	ND	ND	1.1	148.3	28.2	50.4	197.9	0
22816	2012-09-04T15:00:00	ND	ND	ND	ND	ND	ND	1.5	139.8	27.9	51.2	293.4	0
22817	2012-09-04T16:00:00	ND	ND	ND	ND	ND	ND	1.1	110.2	28.9	48.2	469.1	0
22818	2012-09-04T17:00:00	ND	ND	ND	ND	ND	ND	0.7	153.6	28.3	48.7	98.1	0
22819	2012-09-04T18:00:00	ND	ND	ND	ND	ND	ND	2.2	256.4	27.5	50	31.4	0
22820	2012-09-04T19:00:00	ND	ND	ND	ND	ND	ND	3.3	265.6	26.1	54.1	0.1	0
22821	2012-09-04T20:00:00	ND	ND	ND	ND	ND	ND	3.2	277.9	25	57.4	0	0
22822	2012-09-04T21:00:00	ND	ND	ND	ND	ND	ND	3.2	267.5	24.6	58.9	0	0
22823	2012-09-04T22:00:00	ND	ND	ND	ND	ND	ND	2.3	274.1	24.3	59.1	0	0
22824	2012-09-04T23:00:00	ND	ND	ND	ND	ND	ND	0.5	8.5	23.7	64.3	0	0
22825	2012-09-05T00:00:00	ND	ND	ND	ND	ND	ND	0.7	195.5	23.1	66.1	0	0
22826	2012-09-05T01:00:00	ND	ND	ND	ND	ND	ND	0.9	255.9	23.2	63.6	0	0
22827	2012-09-05T02:00:00	ND	ND	ND	ND	ND	ND	0.6	330.3	22.6	67.7	0	0
22828	2012-09-05T03:00:00	ND	ND	ND	ND	ND	ND	0.7	138.8	21.6	73.8	0	0
22829	2012-09-05T04:00:00	ND	ND	ND	ND	ND	ND	0.9	165.5	21.3	74.6	0	0
22830	2012-09-05T05:00:00	ND	ND	ND	ND	ND	ND	0.8	165.5	21.2	75.2	0	0
22831	2012-09-05T06:00:00	ND	ND	ND	ND	ND	ND	0.7	125.6	20.9	75.6	0	0
22832	2012-09-05T07:00:00	ND	ND	ND	ND	ND	ND	0.9	137.4	20.8	75.3	5.5	0
22833	2012-09-05T08:00:00	ND	ND	ND	ND	ND	ND	0.8	183.7	21.8	71.5	170.2	0
22834	2012-09-05T09:00:00	ND	ND	ND	ND	ND	ND	1	117.8	23.9	63.4	396.8	0
22835	2012-09-05T10:00:00	ND	ND	ND	ND	ND	ND	1.5	125.8	25.1	60.3	467.1	0
22836	2012-09-05T11:00:00	ND	ND	ND	ND	ND	ND	1	94.2	26.6	54.1	610.2	0
22837	2012-09-05T12:00:00	ND	ND	ND	ND	ND	ND	1	92.4	27.8	49.7	578.3	0
22838	2012-09-05T13:00:00	ND	ND	ND	ND	ND	ND	0.6	123	28.8	46.4	433.7	0
22839	2012-09-05T14:00:00	ND	ND	ND	ND	ND	ND	1.3	85	28.8	45.8	253.2	0
22840	2012-09-05T15:00:00	ND	ND	ND	ND	ND	ND	0.9	65.1	29.1	44.2	316.5	0
22841	2012-09-05T16:00:00	ND	ND	ND	ND	ND	ND	1.5	45.3	30.2	41.6	358.7	0
22842	2012-09-05T17:00:00	ND	ND	ND	ND	ND	ND	1.7	58.8	29.6	44	257.2	0
22843	2012-09-05T18:00:00	ND	ND	ND	ND	ND	ND	2.8	285.2	28.7	47.1	119.3	0
22844	2012-09-05T19:00:00	ND	ND	ND	ND	ND	ND	3	281.7	26.9	50.8	0.2	0
22845	2012-09-05T20:00:00	ND	ND	ND	ND	ND	ND	3.7	267.9	26.4	52.3	0	0
22846	2012-09-05T21:00:00	ND	ND	ND	ND	ND	ND	4.4	267.6	25.8	55.2	0	0
22847	2012-09-05T22:00:00	ND	ND	ND	ND	ND	ND	3.8	275.6	25.6	55.3	0	0
22848	2012-09-05T23:00:00	ND	ND	ND	ND	ND	ND	1.9	246	25	58.3	0	0
22849	2012-09-06T00:00:00	ND	ND	ND	ND	ND	ND	1.7	211.3	24.2	61.5	0	0
22850	2012-09-06T01:00:00	ND	ND	ND	ND	ND	ND	0.5	330.2	23.1	68.1	0	0
22851	2012-09-06T02:00:00	ND	ND	ND	ND	ND	ND	0.4	45.2	22.2	73	0	0
22852	2012-09-06T03:00:00	ND	ND	ND	ND	ND	ND	0.4	133.2	21.9	73.5	0	0
22853	2012-09-06T04:00:00	ND	ND	ND	ND	ND	ND	0.7	130.7	21.5	73.7	0	0
22854	2012-09-06T05:00:00	ND	ND	ND	ND	ND	ND	0.8	174.1	20.7	76.2	0	0
22855	2012-09-06T06:00:00	ND	ND	ND	ND	ND	ND	0.6	167.3	20.6	74.4	0	0
22856	2012-09-06T07:00:00	ND	ND	ND	ND	ND	ND	0.5	56	20.9	73.2	23.8	0
22857	2012-09-06T08:00:00	ND	ND	ND	ND	ND	ND	0.4	56.1	21.7	71.6	144.6	0
22858	2012-09-06T09:00:00	ND	ND	ND	ND	ND	ND	0.9	97.8	24	62.7	403.4	0
22859	2012-09-06T10:00:00	ND	ND	ND	ND	ND	ND	0.8	110.2	25.8	56.1	604.1	0
22860	2012-09-06T11:00:00	ND	ND	ND	ND	ND	ND	1.2	79.1	27.6	50.4	776.5	0
22861	2012-09-06T12:00:00	ND	ND	ND	ND	ND	ND	1.2	90.2	29.3	44.2	874.2	0
22862	2012-09-06T13:00:00	ND	ND	ND	ND	ND	ND	1.3	90.5	31.1	36.9	897.2	0
22863	2012-09-06T14:00:00	ND	ND	ND	ND	ND	ND	0.9	139.5	32.5	31.4	878.9	0
22864	2012-09-06T15:00:00	ND	ND	ND	ND	ND	ND	1.4	153.9	34	27.1	793.7	0
22865	2012-09-06T16:00:00	ND	ND	ND	ND	ND	ND	1.3	152.9	34.7	25.1	603.5	0
22866	2012-09-06T17:00:00	ND	ND	ND	ND	ND	ND	2.9	38.6	32.7	33.1	332.1	0
22867	2012-09-06T18:00:00	ND	ND	ND	ND	ND	ND	1.5	6	31.3	39.8	95	0
22868	2012-09-06T19:00:00	ND	ND	ND	ND	ND	ND	4.5	268.7	28	53.5	0.3	0
22869	2012-09-06T20:00:00	ND	ND	ND	ND	ND	ND	4.4	268.6	27.3	55.7	0	0
22870	2012-09-06T21:00:00	ND	ND	ND	ND	ND	ND	3.5	268.7	27.2	55.8	0	0
22871	2012-09-06T22:00:00	ND	ND	ND	ND	ND	ND	2.5	276.2	26.8	56.5	0	0
22872	2012-09-06T23:00:00	ND	ND	ND	ND	ND	ND	2.8	266.8	26.3	57.4	0	0
22873	2012-09-07T00:00:00	ND	ND	ND	ND	ND	ND	3.7	260.3	26	57.7	0	0
22874	2012-09-07T01:00:00	ND	ND	ND	ND	ND	ND	0.3	255.9	25.5	60.1	0	0
22875	2012-09-07T02:00:00	ND	ND	ND	ND	ND	ND	0.9	161.3	24.1	61.2	0	0
22876	2012-09-07T03:00:00	ND	ND	ND	ND	ND	ND	0.4	156.8	23.6	60.4	0	0
22877	2012-09-07T04:00:00	ND	ND	ND	ND	ND	ND	1.1	349.5	23.3	65.7	0	0
22878	2012-09-07T05:00:00	ND	ND	ND	ND	ND	ND	0.3	57.4	23.1	67.4	0	0
22879	2012-09-07T06:00:00	ND	ND	ND	ND	ND	ND	1	168.2	22.4	67.4	0	0
22880	2012-09-07T07:00:00	ND	ND	ND	ND	ND	ND	1.3	188.2	22	65.8	35.3	0
22881	2012-09-07T08:00:00	ND	ND	ND	ND	ND	ND	1.4	186.4	23.4	63.1	238.9	0
22882	2012-09-07T09:00:00	ND	ND	ND	ND	ND	ND	1.3	165.1	24.8	59.9	266.4	0
22883	2012-09-07T10:00:00	ND	ND	ND	ND	ND	ND	1.2	134.3	25.8	59.5	458.9	0
22884	2012-09-07T11:00:00	ND	ND	ND	ND	ND	ND	0.9	174	27.7	52.1	577.4	0
22885	2012-09-07T12:00:00	ND	ND	ND	ND	ND	ND	1	75.9	30.1	43.1	848.8	0
22886	2012-09-07T13:00:00	ND	ND	ND	ND	ND	ND	1.2	90.7	31.5	40.2	888.8	0
22887	2012-09-07T14:00:00	ND	ND	ND	ND	ND	ND	0.8	104.7	33.5	33.2	850.6	0
22888	2012-09-07T15:00:00	ND	ND	ND	ND	ND	ND	1.4	282.2	34.3	31.8	701.5	0
22889	2012-09-07T16:00:00	ND	ND	ND	ND	ND	ND	4.2	277.3	32.6	38.6	532.3	0
22890	2012-09-07T17:00:00	ND	ND	ND	ND	ND	ND	5.8	277.6	29.8	46.5	317.8	0
22891	2012-09-07T18:00:00	ND	ND	ND	ND	ND	ND	4.5	285.2	28.7	47.8	93.5	0
22892	2012-09-07T19:00:00	ND	ND	ND	ND	ND	ND	5.4	280.3	27.6	51.6	0.3	0
22893	2012-09-07T20:00:00	ND	ND	ND	ND	ND	ND	3.6	284.8	27.2	53.6	0	0
22894	2012-09-07T21:00:00	ND	ND	ND	ND	ND	ND	4.9	272.1	26.4	57.1	0	0
22895	2012-09-07T22:00:00	ND	ND	ND	ND	ND	ND	3.4	279.5	26.4	56.6	0	0
22896	2012-09-07T23:00:00	ND	ND	ND	ND	ND	ND	1.3	280.9	26.1	57.9	0	0
22897	2012-09-08T00:00:00	ND	ND	ND	ND	ND	ND	1.5	283	25.8	58.9	0	0
22898	2012-09-08T01:00:00	ND	ND	ND	ND	ND	ND	1.3	179	24.3	68.4	0	0
22899	2012-09-08T02:00:00	ND	ND	ND	ND	ND	ND	1	126.1	23.7	71.6	0	0
22900	2012-09-08T03:00:00	ND	ND	ND	ND	ND	ND	0.7	136.6	23.1	73.5	0	0
22901	2012-09-08T04:00:00	ND	ND	ND	ND	ND	ND	0.7	165.8	23	73.4	0	0
22902	2012-09-08T05:00:00	ND	ND	ND	ND	ND	ND	1	139.3	23	72.8	0	0
22903	2012-09-08T06:00:00	ND	ND	ND	ND	ND	ND	0.7	150.3	22.9	73.2	0	0
22904	2012-09-08T07:00:00	ND	ND	ND	ND	ND	ND	0.8	138.4	22.5	74.8	39.4	0
22905	2012-09-08T08:00:00	ND	ND	ND	ND	ND	ND	0.9	128.4	23.4	70.6	211.9	0
22906	2012-09-08T09:00:00	ND	ND	ND	ND	ND	ND	0.8	145.7	25.4	62.7	403.8	0
22907	2012-09-08T10:00:00	ND	ND	ND	ND	ND	ND	1.2	138.2	27.2	56.5	630.1	0
22908	2012-09-08T11:00:00	ND	ND	ND	ND	ND	ND	1.1	165.6	28.6	51.5	788.2	0
22909	2012-09-08T12:00:00	ND	ND	ND	ND	ND	ND	0.4	87.8	30.4	44.1	876.6	0
22910	2012-09-08T13:00:00	ND	ND	ND	ND	ND	ND	1.4	128.6	32	36.6	892.9	0
22911	2012-09-08T14:00:00	ND	ND	ND	ND	ND	ND	1.1	110.2	33.1	30.1	518.3	0
22912	2012-09-08T15:00:00	ND	ND	ND	ND	ND	ND	3.8	282.7	31.4	40.2	400	0
22913	2012-09-08T16:00:00	ND	ND	ND	ND	ND	ND	3.5	289.4	30.5	43.9	387.5	0
22914	2012-09-08T17:00:00	ND	ND	ND	ND	ND	ND	4.5	283	29.3	47.6	321.1	0
22915	2012-09-08T18:00:00	ND	ND	ND	ND	ND	ND	4	288.5	27.7	52.1	123	0
22916	2012-09-08T19:00:00	ND	ND	ND	ND	ND	ND	4.5	280.3	26.9	53.5	0.4	0
22917	2012-09-08T20:00:00	ND	ND	ND	ND	ND	ND	4.4	272.8	26.6	54.3	0	0
22918	2012-09-08T21:00:00	ND	ND	ND	ND	ND	ND	2.9	275.2	26.4	54.2	0	0
22919	2012-09-08T22:00:00	ND	ND	ND	ND	ND	ND	0.8	272.2	26	57	0	0
22920	2012-09-08T23:00:00	ND	ND	ND	ND	ND	ND	1.3	283.2	25.7	58.2	0	0
22921	2012-09-09T00:00:00	ND	ND	ND	ND	ND	ND	1.2	177.5	24.6	65	0	0
22922	2012-09-09T01:00:00	ND	ND	ND	ND	ND	ND	1.6	201.4	24	67.8	0	0
22923	2012-09-09T02:00:00	ND	ND	ND	ND	ND	ND	0.6	132.8	23.5	70	0	0
22924	2012-09-09T03:00:00	ND	ND	ND	ND	ND	ND	0.7	28.6	22.8	73	0	0
22925	2012-09-09T04:00:00	ND	ND	ND	ND	ND	ND	0.3	204	23	71.3	0	0
22926	2012-09-09T05:00:00	ND	ND	ND	ND	ND	ND	1.3	168.5	22.4	71.7	0	0
22927	2012-09-09T06:00:00	ND	ND	ND	ND	ND	ND	1	175.6	21	80.9	0	0
22928	2012-09-09T07:00:00	ND	ND	ND	ND	ND	ND	0.5	222.3	21.2	78.5	29.7	0
22929	2012-09-09T08:00:00	ND	ND	ND	ND	ND	ND	1	146.6	23.4	68.4	242.9	0
22930	2012-09-09T09:00:00	ND	ND	ND	ND	ND	ND	1.2	173.1	24.8	63.6	461.3	0
22931	2012-09-09T10:00:00	ND	ND	ND	ND	ND	ND	1.2	124.9	26.6	57.6	655.9	0
22932	2012-09-09T11:00:00	ND	ND	ND	ND	ND	ND	1.1	113	28.9	49.4	847.1	0
22933	2012-09-09T12:00:00	ND	ND	ND	ND	ND	ND	0.6	75.3	30.8	40.9	955.4	0
22934	2012-09-09T13:00:00	ND	ND	ND	ND	ND	ND	1.2	141.3	32.3	33.8	822.6	0
22935	2012-09-09T14:00:00	ND	ND	ND	ND	ND	ND	1.9	140.7	33.2	30.5	781	0
22936	2012-09-09T15:00:00	ND	ND	ND	ND	ND	ND	0.8	122.1	33.3	30	526.8	0
22937	2012-09-09T16:00:00	ND	ND	ND	ND	ND	ND	4.1	285	31	41.6	453.9	0
22938	2012-09-09T17:00:00	ND	ND	ND	ND	ND	ND	5.4	281.6	29	46.7	266.3	0
22939	2012-09-09T18:00:00	ND	ND	ND	ND	ND	ND	5.3	280.6	26.9	51	13.9	0
22940	2012-09-09T19:00:00	ND	ND	ND	ND	ND	ND	4.1	284.8	26.8	49.2	0	0
22941	2012-09-09T20:00:00	ND	ND	ND	ND	ND	ND	3.8	278.3	26.6	51.6	0	0
22942	2012-09-09T21:00:00	ND	ND	ND	ND	ND	ND	3.4	274.6	26.5	53.1	0	0
22943	2012-09-09T22:00:00	ND	ND	ND	ND	ND	ND	1.1	281.2	26.3	55	0	0
22944	2012-09-09T23:00:00	ND	ND	ND	ND	ND	ND	0.9	153.3	25	61.7	0	0
22945	2012-09-10T00:00:00	ND	ND	ND	ND	ND	ND	1.6	240.9	24.8	60.7	0	0
22946	2012-09-10T01:00:00	ND	ND	ND	ND	ND	ND	0.5	342.3	24.2	65.2	0	0
22947	2012-09-10T02:00:00	ND	ND	ND	ND	ND	ND	1.3	227	24.8	61.1	0	0
22948	2012-09-10T03:00:00	ND	ND	ND	ND	ND	ND	0.3	128.9	23.5	70.1	0	0
22949	2012-09-10T04:00:00	ND	ND	ND	ND	ND	ND	2.5	197.3	22.6	72.7	0	0
22950	2012-09-10T05:00:00	ND	ND	ND	ND	ND	ND	1.2	212.8	22.4	71.7	0	0
22951	2012-09-10T06:00:00	ND	ND	ND	ND	ND	ND	0.1	169	22.5	70.5	0	0
22952	2012-09-10T07:00:00	ND	ND	ND	ND	ND	ND	1.3	245.6	22.5	67.6	35.1	0
22953	2012-09-10T08:00:00	ND	ND	ND	ND	ND	ND	0.5	156.3	23.7	63	175.8	0
22954	2012-09-10T09:00:00	ND	ND	ND	ND	ND	ND	1.2	86.7	25.5	60.4	450.1	0
22955	2012-09-10T10:00:00	ND	ND	ND	ND	ND	ND	1.4	83.8	26.8	57.8	673.4	0
22956	2012-09-10T11:00:00	ND	ND	ND	ND	ND	ND	1.8	87.6	27.7	55.1	532.7	0
22957	2012-09-10T12:00:00	ND	ND	ND	ND	ND	ND	2	115.7	28.2	53.1	531.2	0
22958	2012-09-10T13:00:00	ND	ND	ND	ND	ND	ND	1.4	108.5	29.3	48.5	680.3	0
22959	2012-09-10T14:00:00	ND	ND	ND	ND	ND	ND	1.3	99.5	30.7	43.1	819.2	0
22960	2012-09-10T15:00:00	ND	ND	ND	ND	ND	ND	1.4	94.1	31.4	39.7	494	0
22961	2012-09-10T16:00:00	ND	ND	ND	ND	ND	ND	0.4	242.6	31.1	41.5	362.2	0
22962	2012-09-10T17:00:00	ND	ND	ND	ND	ND	ND	3.5	265.6	30.6	42	353.1	0
22963	2012-09-10T18:00:00	ND	ND	ND	ND	ND	ND	4	272.2	28.7	46.1	105.5	0
22964	2012-09-10T19:00:00	ND	ND	ND	ND	ND	ND	3.7	273.1	26.8	50.9	0.3	0
22965	2012-09-10T20:00:00	ND	ND	ND	ND	ND	ND	3.6	270	26.1	54.2	0	0
22966	2012-09-10T21:00:00	ND	ND	ND	ND	ND	ND	3.7	264.9	25.5	56.6	0	0
22967	2012-09-10T22:00:00	ND	ND	ND	ND	ND	ND	2.8	269.8	24.9	59.1	0	0
22968	2012-09-10T23:00:00	ND	ND	ND	ND	ND	ND	1.4	282.3	24.3	61.9	0	0
22969	2012-09-11T00:00:00	ND	ND	ND	ND	ND	ND	0.5	358.5	23.5	65.7	0	0
22970	2012-09-11T01:00:00	ND	ND	ND	ND	ND	ND	0.5	126	23.2	66.9	0	0
22971	2012-09-11T02:00:00	ND	ND	ND	ND	ND	ND	1.3	131.2	21.9	72.7	0	0
22972	2012-09-11T03:00:00	ND	ND	ND	ND	ND	ND	0.6	145.1	21.2	76.1	0	0
22973	2012-09-11T04:00:00	ND	ND	ND	ND	ND	ND	0.9	166.7	21.3	75.6	0	0
22974	2012-09-11T05:00:00	ND	ND	ND	ND	ND	ND	0.4	117.3	21.3	74.1	0	0
22975	2012-09-11T06:00:00	ND	ND	ND	ND	ND	ND	0.2	194.8	21.5	71.6	0	0
22976	2012-09-11T07:00:00	ND	ND	ND	ND	ND	ND	0.5	146.3	21.6	72.4	29.4	0
22977	2012-09-11T08:00:00	ND	ND	ND	ND	ND	ND	0.7	141.3	22.4	68.2	134.1	0
22978	2012-09-11T09:00:00	ND	ND	ND	ND	ND	ND	0.8	134.4	24.6	58.9	433.4	0
22979	2012-09-11T10:00:00	ND	ND	ND	ND	ND	ND	1.2	117.6	26.8	52	639.6	0
22980	2012-09-11T11:00:00	ND	ND	ND	ND	ND	ND	1.3	105.9	28.4	47.3	775.3	0
22981	2012-09-11T12:00:00	ND	ND	ND	ND	ND	ND	1	121.8	29.7	43.3	822.7	0
22982	2012-09-11T13:00:00	ND	ND	ND	ND	ND	ND	1.2	108.9	31.1	38.6	929.3	0
22983	2012-09-11T14:00:00	ND	ND	ND	ND	ND	ND	1.2	115.3	32.6	32.2	779.3	0
22984	2012-09-11T15:00:00	ND	ND	ND	ND	ND	ND	1.8	89.1	32.8	31.4	679.9	0
22985	2012-09-11T16:00:00	ND	ND	ND	ND	ND	ND	1.3	98.9	31.9	36.1	331.7	0
22986	2012-09-11T17:00:00	ND	ND	ND	ND	ND	ND	1.6	272.2	31.1	41.2	231.4	0
22987	2012-09-11T18:00:00	ND	ND	ND	ND	ND	ND	3.7	271.8	28.9	48.5	40.2	0
22988	2012-09-11T19:00:00	ND	ND	ND	ND	ND	ND	3.2	279.7	27.3	52.8	0.3	0
22989	2012-09-11T20:00:00	ND	ND	ND	ND	ND	ND	4	269.6	26.5	55.2	0	0
22990	2012-09-11T21:00:00	ND	ND	ND	ND	ND	ND	4.4	271.2	26.1	57.1	0	0
22991	2012-09-11T22:00:00	ND	ND	ND	ND	ND	ND	2.7	287.4	26	55.8	0	0
22992	2012-09-11T23:00:00	ND	ND	ND	ND	ND	ND	2.9	270.9	25.6	57.5	0	0
22993	2012-09-12T00:00:00	ND	ND	ND	ND	ND	ND	1.8	259.7	25.3	58.8	0	0
22994	2012-09-12T01:00:00	ND	ND	ND	ND	ND	ND	1.4	187.7	24.4	65.9	0	0
22995	2012-09-12T02:00:00	ND	ND	ND	ND	ND	ND	1.1	202.2	23.9	68.8	0	0
22996	2012-09-12T03:00:00	ND	ND	ND	ND	ND	ND	1	199.7	23.8	66.4	0	0
22997	2012-09-12T04:00:00	ND	ND	ND	ND	ND	ND	1.3	201.7	23.9	66.2	0	0
22998	2012-09-12T05:00:00	ND	ND	ND	ND	ND	ND	1.2	170.9	23.4	69.1	0	0
22999	2012-09-12T06:00:00	ND	ND	ND	ND	ND	ND	1	211.6	23.2	67.7	0	0
23000	2012-09-12T07:00:00	ND	ND	ND	ND	ND	ND	0.7	176.1	23.2	68.4	26.8	0
23001	2012-09-12T08:00:00	ND	ND	ND	ND	ND	ND	0.7	187.8	24.2	62.2	135.8	0
23002	2012-09-12T09:00:00	ND	ND	ND	ND	ND	ND	1.5	153.6	25.6	59.8	423.4	0
23003	2012-09-12T10:00:00	ND	ND	ND	ND	ND	ND	1.5	140	26.6	57.9	606.6	0
23004	2012-09-12T11:00:00	ND	ND	ND	ND	ND	ND	1.4	150.6	28.8	48.1	732	0
23005	2012-09-12T12:00:00	ND	ND	ND	ND	ND	ND	1.3	105	29.9	42.9	714.8	0
23006	2012-09-12T13:00:00	ND	ND	ND	ND	ND	ND	1.8	47	30.7	40.8	675.3	0
23007	2012-09-12T14:00:00	ND	ND	ND	ND	ND	ND	2.3	45.9	31	42.1	497.1	0
23008	2012-09-12T15:00:00	ND	ND	ND	ND	ND	ND	2.1	301.9	30.7	44.5	465.8	0
23009	2012-09-12T16:00:00	ND	ND	ND	ND	ND	ND	4.4	281.4	28.5	49.3	143.5	0
23010	2012-09-12T17:00:00	ND	ND	ND	ND	ND	ND	4	278.9	27.3	52.2	37.5	0
23011	2012-09-12T18:00:00	ND	ND	ND	ND	ND	ND	4.1	272.3	26.9	52.8	12.9	0
23012	2012-09-12T19:00:00	ND	ND	ND	ND	ND	ND	3.8	271	26.7	53.3	0	0
23013	2012-09-12T20:00:00	ND	ND	ND	ND	ND	ND	2.8	289.6	26	56.1	0	0
23014	2012-09-12T21:00:00	ND	ND	ND	ND	ND	ND	3	293.3	25.7	57.1	0	0
23015	2012-09-12T22:00:00	ND	ND	ND	ND	ND	ND	2.8	279.4	25.3	59.2	0	0
23016	2012-09-12T23:00:00	ND	ND	ND	ND	ND	ND	0.6	75.4	24.5	63.5	0	0
23017	2012-09-13T00:00:00	ND	ND	ND	ND	ND	ND	1.5	168.1	23.8	67.5	0	0
23018	2012-09-13T01:00:00	ND	ND	ND	ND	ND	ND	1.1	192.8	23.6	69.4	0	0
23019	2012-09-13T02:00:00	ND	ND	ND	ND	ND	ND	1.6	208.4	23.6	68.9	0	0
23020	2012-09-13T03:00:00	ND	ND	ND	ND	ND	ND	1.5	193.4	23.5	68.2	0	0
23021	2012-09-13T04:00:00	ND	ND	ND	ND	ND	ND	0.6	80.4	22.8	73.1	0	0
23022	2012-09-13T05:00:00	ND	ND	ND	ND	ND	ND	0.2	80.9	22.6	74.2	0	0
23023	2012-09-13T06:00:00	ND	ND	ND	ND	ND	ND	0.6	129.2	22.7	73.5	0	0
23024	2012-09-13T07:00:00	ND	ND	ND	ND	ND	ND	1.2	60	22.2	78	19.5	0
23025	2012-09-13T08:00:00	ND	ND	ND	ND	ND	ND	0.5	114.2	22.8	75.2	107.7	0
23026	2012-09-13T09:00:00	ND	ND	ND	ND	ND	ND	1.3	145.6	24.3	67.3	328.1	0
23027	2012-09-13T10:00:00	ND	ND	ND	ND	ND	ND	0.7	119	26.4	58.3	623.1	0
23028	2012-09-13T11:00:00	ND	ND	ND	ND	ND	ND	1.1	96.3	28	50.6	694.9	0
23029	2012-09-13T12:00:00	ND	ND	ND	ND	ND	ND	1.3	61.3	29.5	46	643.9	0
23030	2012-09-13T13:00:00	ND	ND	ND	ND	ND	ND	1.7	65.6	30.9	41.1	695.6	0
23031	2012-09-13T14:00:00	ND	ND	ND	ND	ND	ND	1.2	77.2	31.7	38.4	670.8	0
23032	2012-09-13T15:00:00	ND	ND	ND	ND	ND	ND	2.8	299.4	30.8	41.6	262.4	0
23033	2012-09-13T16:00:00	ND	ND	ND	ND	ND	ND	4.1	286.2	28.3	49.2	92.6	0
23034	2012-09-13T17:00:00	ND	ND	ND	ND	ND	ND	3.2	285.4	27.6	50.1	37.3	0
23035	2012-09-13T18:00:00	ND	ND	ND	ND	ND	ND	3	286.4	27.3	50.4	12.2	0
23036	2012-09-13T19:00:00	ND	ND	ND	ND	ND	ND	3.5	275.3	26.7	52.3	0	0
23037	2012-09-13T20:00:00	ND	ND	ND	ND	ND	ND	3.5	269.3	26.1	54.2	0	0
23038	2012-09-13T21:00:00	ND	ND	ND	ND	ND	ND	0.9	318.8	25.9	56.2	0	0
23039	2012-09-13T22:00:00	ND	ND	ND	ND	ND	ND	2.4	261.2	25.6	56.8	0	0
23040	2012-09-13T23:00:00	ND	ND	ND	ND	ND	ND	0.2	242	23.9	66.3	0	0
23041	2012-09-14T00:00:00	ND	ND	ND	ND	ND	ND	1.5	194.7	23.9	65.3	0	0
23042	2012-09-14T01:00:00	ND	ND	ND	ND	ND	ND	0.9	129.8	23	69.6	0	0
23043	2012-09-14T02:00:00	ND	ND	ND	ND	ND	ND	0.4	152.2	22.2	73.3	0	0
23044	2012-09-14T03:00:00	ND	ND	ND	ND	ND	ND	0.8	159.8	22	73.8	0	0
23045	2012-09-14T04:00:00	ND	ND	ND	ND	ND	ND	1.1	155	21.3	72.5	0	0
23046	2012-09-14T05:00:00	ND	ND	ND	ND	ND	ND	0.5	147.2	20.7	76	0	0
23047	2012-09-14T06:00:00	ND	ND	ND	ND	ND	ND	0.3	3.6	20.9	74.5	0	0
23048	2012-09-14T07:00:00	ND	ND	ND	ND	ND	ND	0.6	158.8	21	72.5	36.4	0
23049	2012-09-14T08:00:00	ND	ND	ND	ND	ND	ND	0.9	138.7	21.8	68	209.1	0
23050	2012-09-14T09:00:00	ND	ND	ND	ND	ND	ND	0.7	88.5	24.3	57.8	416.5	0
23051	2012-09-14T10:00:00	ND	ND	ND	ND	ND	ND	0.6	71	26	53.2	604.7	0
23052	2012-09-14T11:00:00	ND	ND	ND	ND	ND	ND	1.1	127.5	27.8	46.5	781.8	0
23053	2012-09-14T12:00:00	ND	ND	ND	ND	ND	ND	1.3	154.7	29.7	40.2	871	0
23054	2012-09-14T13:00:00	ND	ND	ND	ND	ND	ND	0.7	109.7	31.6	34	887.4	0
23055	2012-09-14T14:00:00	ND	ND	ND	ND	ND	ND	0.2	187.9	33.4	27.1	844.1	0
23056	2012-09-14T15:00:00	ND	ND	ND	ND	ND	ND	0.5	286.9	34.2	26.3	697.5	0
23057	2012-09-14T16:00:00	ND	ND	ND	ND	ND	ND	5.1	286.4	31	39.7	383.3	0
23058	2012-09-14T17:00:00	ND	ND	ND	ND	ND	ND	4.8	285.1	28.9	46.2	104.8	0
23059	2012-09-14T18:00:00	ND	ND	ND	ND	ND	ND	5	280.5	28	48	17	0
23060	2012-09-14T19:00:00	ND	ND	ND	ND	ND	ND	4.7	270.8	27.4	49.9	0	0
23061	2012-09-14T20:00:00	ND	ND	ND	ND	ND	ND	3.9	267.1	27.4	49.6	0	0
23062	2012-09-14T21:00:00	ND	ND	ND	ND	ND	ND	3.4	257.7	26.5	54.7	0	0
23063	2012-09-14T22:00:00	ND	ND	ND	ND	ND	ND	3.6	266	25.7	58.5	0	0
23064	2012-09-14T23:00:00	ND	ND	ND	ND	ND	ND	0.7	284.7	25.1	60.6	0	0
23065	2012-09-15T00:00:00	ND	ND	ND	ND	ND	ND	1.5	257.6	24.5	62.8	0	0
23066	2012-09-15T01:00:00	ND	ND	ND	ND	ND	ND	0.9	36.1	23.3	69.5	0	0
23067	2012-09-15T02:00:00	ND	ND	ND	ND	ND	ND	0.4	280	23.4	66.7	0	0
23068	2012-09-15T03:00:00	ND	ND	ND	ND	ND	ND	1.1	149.5	22.3	70.4	0	0
23069	2012-09-15T04:00:00	ND	ND	ND	ND	ND	ND	1.1	150.2	21.8	70.8	0	0
23070	2012-09-15T05:00:00	ND	ND	ND	ND	ND	ND	0.9	180.4	21.4	68.6	0	0
23071	2012-09-15T06:00:00	ND	ND	ND	ND	ND	ND	1.1	249.5	21.6	64.5	0.1	0
23072	2012-09-15T07:00:00	ND	ND	ND	ND	ND	ND	1	265	21.7	63.7	41.1	0
23073	2012-09-15T08:00:00	ND	ND	ND	ND	ND	ND	0.2	356.3	23.2	61.9	209	0
23074	2012-09-15T09:00:00	ND	ND	ND	ND	ND	ND	0.8	85.5	24.7	57.1	360.1	0
23075	2012-09-15T10:00:00	ND	ND	ND	ND	ND	ND	0.9	97.1	26.6	49.5	597.7	0
23076	2012-09-15T11:00:00	ND	ND	ND	ND	ND	ND	1.2	125	28.1	44.6	642	0
23077	2012-09-15T12:00:00	ND	ND	ND	ND	ND	ND	0.8	83.3	30.2	37.3	838.8	0
23078	2012-09-15T13:00:00	ND	ND	ND	ND	ND	ND	0.7	141.3	32	27.7	898.3	0
23079	2012-09-15T14:00:00	ND	ND	ND	ND	ND	ND	0.3	213.4	33.7	23	798.4	0
23080	2012-09-15T15:00:00	ND	ND	ND	ND	ND	ND	0.7	168.9	34.4	22.5	716.6	0
23081	2012-09-15T16:00:00	ND	ND	ND	ND	ND	ND	4.2	277.2	32.7	35	477.3	0
23082	2012-09-15T17:00:00	ND	ND	ND	ND	ND	ND	4.2	277.2	30.5	40.7	192.3	0
23083	2012-09-15T18:00:00	ND	ND	ND	ND	ND	ND	4	279.6	29	44.2	46.1	0
23084	2012-09-15T19:00:00	ND	ND	ND	ND	ND	ND	3.7	290.5	27.6	48.9	0.1	0
23085	2012-09-15T20:00:00	ND	ND	ND	ND	ND	ND	3.5	275.3	26.9	51.8	0	0
23086	2012-09-15T21:00:00	ND	ND	ND	ND	ND	ND	3.9	270.4	26.5	53.2	0	0
23087	2012-09-15T22:00:00	ND	ND	ND	ND	ND	ND	2.3	307.4	26.4	52.6	0	0
23088	2012-09-15T23:00:00	ND	ND	ND	ND	ND	ND	1	257.2	26.1	54.4	0	0
23089	2012-09-16T00:00:00	ND	ND	ND	ND	ND	ND	1.7	221.2	25	59.9	0	0
23090	2012-09-16T01:00:00	ND	ND	ND	ND	ND	ND	1.3	196.3	24.1	64.2	0	0
23091	2012-09-16T02:00:00	ND	ND	ND	ND	ND	ND	0.7	210.7	23.9	63.7	0	0
23092	2012-09-16T03:00:00	ND	ND	ND	ND	ND	ND	0.4	74.4	23.4	68.1	0	0
23093	2012-09-16T04:00:00	ND	ND	ND	ND	ND	ND	0.2	99.8	22.6	71.3	0	0
23094	2012-09-16T05:00:00	ND	ND	ND	ND	ND	ND	0.6	169	22.6	69.2	0	0
23095	2012-09-16T06:00:00	ND	ND	ND	ND	ND	ND	0.5	170	22.3	69.6	0.2	0
23096	2012-09-16T07:00:00	ND	ND	ND	ND	ND	ND	0.5	239.5	22.5	65.5	54.2	0
23097	2012-09-16T08:00:00	ND	ND	ND	ND	ND	ND	0.5	162.7	23.6	61.3	186.5	0
23098	2012-09-16T09:00:00	ND	ND	ND	ND	ND	ND	0.7	140.8	24.8	58.3	317.1	0
23099	2012-09-16T10:00:00	ND	ND	ND	ND	ND	ND	0.7	127.4	26.6	53.2	479.7	0
23100	2012-09-16T11:00:00	ND	ND	ND	ND	ND	ND	1	97.1	27.8	50.6	585.7	0
23101	2012-09-16T12:00:00	ND	ND	ND	ND	ND	ND	0.7	37.3	29.2	47.9	679.4	0
23102	2012-09-16T13:00:00	ND	ND	ND	ND	ND	ND	0.8	48.6	30.2	45	614.8	0
23103	2012-09-16T14:00:00	ND	ND	ND	ND	ND	ND	1.4	49.3	31.2	40.9	484.3	0
23104	2012-09-16T15:00:00	ND	ND	ND	ND	ND	ND	1.2	291.4	31.6	38.7	552.1	0
23105	2012-09-16T16:00:00	ND	ND	ND	ND	ND	ND	4.1	279.1	30.3	42.6	329.7	0
23106	2012-09-16T17:00:00	ND	ND	ND	ND	ND	ND	4.7	279.2	28.5	47.7	194.1	0
23107	2012-09-16T18:00:00	ND	ND	ND	ND	ND	ND	3.6	284	27.3	50.1	35	0
23108	2012-09-16T19:00:00	ND	ND	ND	ND	ND	ND	4.4	268	26.5	53.2	0	0
23109	2012-09-16T20:00:00	ND	ND	ND	ND	ND	ND	4.1	269.6	26.1	54.8	0	0
23110	2012-09-16T21:00:00	ND	ND	ND	ND	ND	ND	1.7	283.3	26.2	53.4	0	0
23111	2012-09-16T22:00:00	ND	ND	ND	ND	ND	ND	3.3	273.5	25.4	57.2	0	0
23112	2012-09-16T23:00:00	ND	ND	ND	ND	ND	ND	2.6	278.2	25	58.4	0	0
23113	2012-09-17T00:00:00	ND	ND	ND	ND	ND	ND	0.7	293.6	24.6	60.1	0	0
23114	2012-09-17T01:00:00	ND	ND	ND	ND	ND	ND	0.6	60.8	23.8	65.6	0	0
23115	2012-09-17T02:00:00	ND	ND	ND	ND	ND	ND	1.4	172.9	23.3	68.4	0	0
23116	2012-09-17T03:00:00	ND	ND	ND	ND	ND	ND	1.2	205.6	23.1	68.7	0	0
23117	2012-09-17T04:00:00	ND	ND	ND	ND	ND	ND	0.8	154.3	22.9	69.3	0	0
23118	2012-09-17T05:00:00	ND	ND	ND	ND	ND	ND	0.2	119.1	22.7	70.4	0	0
23119	2012-09-17T06:00:00	ND	ND	ND	ND	ND	ND	0.9	128.5	22.5	71.5	0	0
23120	2012-09-17T07:00:00	ND	ND	ND	ND	ND	ND	0.2	224.9	22.5	71.3	17.1	0
23121	2012-09-17T08:00:00	ND	ND	ND	ND	ND	ND	0.9	130.5	23.1	69.5	82.8	0
23122	2012-09-17T09:00:00	ND	ND	ND	ND	ND	ND	0.6	136	24.3	63.3	266.9	0
23123	2012-09-17T10:00:00	ND	ND	ND	ND	ND	ND	0.9	142.7	26.1	56.1	577.9	0
23124	2012-09-17T11:00:00	ND	ND	ND	ND	ND	ND	1.1	134.8	27.7	51	712.3	0
23125	2012-09-17T12:00:00	ND	ND	ND	ND	ND	ND	1.3	81.8	29.2	46.5	854.7	0
23126	2012-09-17T13:00:00	ND	ND	ND	ND	ND	ND	1.1	80.9	30.1	43.3	492.2	0
23127	2012-09-17T14:00:00	ND	ND	ND	ND	ND	ND	2.3	276.8	29.4	46	359	0
23128	2012-09-17T15:00:00	ND	ND	ND	ND	ND	ND	4	278.3	28.8	46.2	392.2	0
23129	2012-09-17T16:00:00	ND	ND	ND	ND	ND	ND	3.7	281.7	28.1	46.8	243.6	0
23130	2012-09-17T17:00:00	ND	ND	ND	ND	ND	ND	3.3	287.7	26.8	50	122.6	0
23131	2012-09-17T18:00:00	ND	ND	ND	ND	ND	ND	4.2	283.7	25.9	52.9	37.6	0
23132	2012-09-17T19:00:00	ND	ND	ND	ND	ND	ND	4.4	283.3	25.5	54.6	0	0
23133	2012-09-17T20:00:00	ND	ND	ND	ND	ND	ND	4.2	289.4	25.5	55.1	0	0
23134	2012-09-17T21:00:00	ND	ND	ND	ND	ND	ND	2.2	238	25.4	56.3	0	0
23135	2012-09-17T22:00:00	ND	ND	ND	ND	ND	ND	1.7	229.4	24.8	60	0	0
23136	2012-09-17T23:00:00	ND	ND	ND	ND	ND	ND	1.3	197.9	24.5	61.7	0	0
23137	2012-09-18T00:00:00	ND	ND	ND	ND	ND	ND	0.4	125.5	24	64.1	0	0
23138	2012-09-18T01:00:00	ND	ND	ND	ND	ND	ND	0.6	169.7	23	69.5	0	0
23139	2012-09-18T02:00:00	ND	ND	ND	ND	ND	ND	1.1	143.6	22.6	71.8	0	0
23140	2012-09-18T03:00:00	ND	ND	ND	ND	ND	ND	0.9	137	22	74.3	0	0
23141	2012-09-18T04:00:00	ND	ND	ND	ND	ND	ND	0.6	86.8	22.1	73.3	0	0
23142	2012-09-18T05:00:00	ND	ND	ND	ND	ND	ND	0.8	178.9	22.2	72.9	0	0
23143	2012-09-18T06:00:00	ND	ND	ND	ND	ND	ND	1.1	207	22.1	73.9	0	0
23144	2012-09-18T07:00:00	ND	ND	ND	ND	ND	ND	0.9	173.1	22.2	73.6	14.6	0
23145	2012-09-18T08:00:00	ND	ND	ND	ND	ND	ND	1.2	150.2	22.6	72.5	88.6	0
23146	2012-09-18T09:00:00	ND	ND	ND	ND	ND	ND	1	128.6	23.9	67.5	405.1	0
23147	2012-09-18T10:00:00	ND	ND	ND	ND	ND	ND	1.4	112	26.2	58.3	668.4	0
23148	2012-09-18T11:00:00	ND	ND	ND	ND	ND	ND	1.1	44.5	27.7	52.4	644.8	0
23149	2012-09-18T12:00:00	ND	ND	ND	ND	ND	ND	1.2	69.6	29.1	48.3	720.8	0
23150	2012-09-18T13:00:00	ND	ND	ND	ND	ND	ND	1.4	47.5	30.4	44.1	828	0
23151	2012-09-18T14:00:00	ND	ND	ND	ND	ND	ND	1.8	132	31.1	41.2	740.9	0
23152	2012-09-18T15:00:00	ND	ND	ND	ND	ND	ND	1.5	299	31.4	40	527.4	0
23153	2012-09-18T16:00:00	ND	ND	ND	ND	ND	ND	4.4	285.3	30.6	44.1	601.3	0
23154	2012-09-18T17:00:00	ND	ND	ND	ND	ND	ND	5.1	281.6	28.4	49.3	284.7	0
23155	2012-09-18T18:00:00	ND	ND	ND	ND	ND	ND	4.4	280.3	27.2	51.4	12.2	0
23156	2012-09-18T19:00:00	ND	ND	ND	ND	ND	ND	5.1	271.1	26.2	56.2	0	0
23157	2012-09-18T20:00:00	ND	ND	ND	ND	ND	ND	3.3	268	25.3	55.1	0	0
23158	2012-09-18T21:00:00	ND	ND	ND	ND	ND	ND	1.4	247.6	24.8	53.6	0	0
23159	2012-09-18T22:00:00	ND	ND	ND	ND	ND	ND	1.6	214	24	59	0	0
23160	2012-09-18T23:00:00	ND	ND	ND	ND	ND	ND	2.9	257	23.4	61.9	0	0
23161	2012-09-19T00:00:00	ND	ND	ND	ND	ND	ND	1.9	260.8	23.1	61.9	0	0
23162	2012-09-19T01:00:00	ND	ND	ND	ND	ND	ND	2	242.5	22.7	60.9	0	0
23163	2012-09-19T02:00:00	ND	ND	ND	ND	ND	ND	1	312.2	22.5	64.6	0	0
23164	2012-09-19T03:00:00	ND	ND	ND	ND	ND	ND	1.5	24.2	21.4	73.8	0	0
23165	2012-09-19T04:00:00	ND	ND	ND	ND	ND	ND	0.9	53	20.5	80	0	0
23166	2012-09-19T05:00:00	ND	ND	ND	ND	ND	ND	0.4	1.8	20.8	77.3	0	0
23167	2012-09-19T06:00:00	ND	ND	ND	ND	ND	ND	1.1	243.9	21.2	70.9	0.1	0
23168	2012-09-19T07:00:00	ND	ND	ND	ND	ND	ND	1.7	269.9	21.6	68.3	58.6	0
23169	2012-09-19T08:00:00	ND	ND	ND	ND	ND	ND	0.5	220.8	23.8	61.7	245.2	0
23170	2012-09-19T09:00:00	ND	ND	ND	ND	ND	ND	1.1	123.1	25.4	58.4	459.6	0
23171	2012-09-19T10:00:00	ND	ND	ND	ND	ND	ND	1.6	116.1	26.8	54	625.9	0
23172	2012-09-19T11:00:00	ND	ND	ND	ND	ND	ND	1.3	158.9	28	51	726.1	0
23173	2012-09-19T12:00:00	20	ND	ND	ND	ND	ND	1.4	94.3	29.9	45.8	852.9	0
23174	2012-09-19T13:00:00	31	ND	ND	ND	ND	ND	1.5	95.9	31.3	42.6	809.3	0
23175	2012-09-19T14:00:00	19	ND	ND	ND	ND	ND	1.1	67	32.4	39.4	734.4	0
23176	2012-09-19T15:00:00	42	ND	ND	ND	ND	ND	1.2	84.1	32.7	38.3	510.7	0
23177	2012-09-19T16:00:00	34	ND	ND	ND	ND	ND	1.1	308.4	32.8	38.7	494.7	0
23178	2012-09-19T17:00:00	21	ND	ND	ND	ND	ND	4.3	277.6	30.8	45.2	308	0
23179	2012-09-19T18:00:00	12	ND	ND	ND	ND	ND	4.4	273.2	28.6	50.4	72.2	0
23180	2012-09-19T19:00:00	17	ND	ND	ND	ND	ND	3.9	265.6	27.4	53.5	0	0
23181	2012-09-19T20:00:00	10	ND	ND	ND	ND	ND	3.6	276.1	26.9	54	0	0
23182	2012-09-19T21:00:00	6	ND	ND	ND	ND	ND	3.1	283.3	26.4	56.2	0	0
23183	2012-09-19T22:00:00	5	ND	ND	ND	ND	ND	3	286.8	26.1	57.3	0	0
23184	2012-09-19T23:00:00	3	ND	ND	ND	ND	ND	2.3	285.1	25.8	58.2	0	0
23185	2012-09-20T00:00:00	3	ND	ND	ND	ND	ND	1.1	290.5	25.8	58.5	0	0
23186	2012-09-20T01:00:00	13	ND	ND	ND	ND	ND	1.7	196.5	25.1	62.3	0	0
23187	2012-09-20T02:00:00	20	ND	ND	ND	ND	ND	1.2	148.6	24.2	67.5	0	0
23188	2012-09-20T03:00:00	38	ND	ND	ND	ND	ND	0.8	59.6	24.2	67	0	0
23189	2012-09-20T04:00:00	20	ND	ND	ND	ND	ND	0.4	74.1	24.1	67.7	0	0
23190	2012-09-20T05:00:00	52	ND	ND	ND	ND	ND	1.2	129.2	22.9	77.1	0	1.02
23191	2012-09-20T06:00:00	41	ND	ND	ND	ND	ND	1.2	151.7	23.1	72.5	0	0
23192	2012-09-20T07:00:00	43	ND	ND	ND	ND	ND	0.1	145.4	22.4	79.4	15.4	5.59
23193	2012-09-20T08:00:00	30	ND	ND	ND	ND	ND	0.7	232.7	22.3	81.7	89.4	2.03
23194	2012-09-20T09:00:00	33	ND	ND	ND	ND	ND	0.3	250.6	23.7	74.2	159.1	0.25
23195	2012-09-20T10:00:00	18	ND	ND	ND	ND	ND	1.2	283.5	24.8	68.2	270.8	0
23196	2012-09-20T11:00:00	10	ND	ND	ND	ND	ND	1.7	296.3	25.7	57	287.7	0
23197	2012-09-20T12:00:00	5	ND	ND	ND	ND	ND	2.6	311.6	27.4	44.9	655.3	0
23198	2012-09-20T13:00:00	2	ND	ND	ND	ND	ND	3.5	306.5	27.7	42.7	535.1	0
23199	2012-09-20T14:00:00	3	ND	ND	ND	ND	ND	1.9	20.9	29.2	38.9	603.8	0
23200	2012-09-20T15:00:00	3	ND	ND	ND	ND	ND	3.4	44.3	29.2	40.4	515.3	0
23201	2012-09-20T16:00:00	4	ND	ND	ND	ND	ND	2.6	36.2	29.4	37.9	344	0
23202	2012-09-20T17:00:00	3	ND	ND	ND	ND	ND	2	320.8	29.1	33.8	150.9	0
23203	2012-09-20T18:00:00	6	ND	ND	ND	ND	ND	0.6	306	28.6	35.5	52.9	0
23204	2012-09-20T19:00:00	27	ND	ND	ND	ND	ND	2	263.9	27	40.3	0	0
23205	2012-09-20T20:00:00	15	ND	ND	ND	ND	ND	2.6	266.5	25.7	43.7	0	0
23206	2012-09-20T21:00:00	14	ND	ND	ND	ND	ND	2.8	264.7	25.3	48.3	0	0
23207	2012-09-20T22:00:00	8	ND	ND	ND	ND	ND	1.7	279.1	25	48.7	0	0
23208	2012-09-20T23:00:00	31	ND	ND	ND	ND	ND	0.1	39.5	23.9	54.1	0	0
23209	2012-09-21T00:00:00	22	ND	ND	ND	ND	ND	0.7	219	23.8	55.2	0	0
23210	2012-09-21T01:00:00	37	ND	ND	ND	ND	ND	2.2	238.2	23.3	58.7	0	0
23211	2012-09-21T02:00:00	20	ND	ND	ND	ND	ND	1	233.9	23.2	57.8	0	0
23212	2012-09-21T03:00:00	46	ND	ND	ND	ND	ND	0.6	143.5	21.6	68.2	0	0
23213	2012-09-21T04:00:00	49	ND	ND	ND	ND	ND	0.8	175.6	21.2	71.2	0	0
23214	2012-09-21T05:00:00	69	ND	ND	ND	ND	ND	1	157.1	20.7	73	0	0
23215	2012-09-21T06:00:00	48	ND	ND	ND	ND	ND	0.6	146.8	20.5	73.8	0	0
23216	2012-09-21T07:00:00	69	ND	ND	ND	ND	ND	0.5	148.6	20.9	71.7	55	0
23217	2012-09-21T08:00:00	47	ND	ND	ND	ND	ND	0.5	111.4	22.5	64.2	244.6	0
23218	2012-09-21T09:00:00	68	ND	ND	ND	ND	ND	1	148.8	24	58.2	305.3	0
23219	2012-09-21T10:00:00	56	ND	ND	ND	ND	ND	0.6	153.8	25.8	53.4	622.2	0
23220	2012-09-21T11:00:00	62	ND	ND	ND	ND	ND	1.3	97.2	28.4	45.4	736.3	0
23221	2012-09-21T12:00:00	53	ND	ND	ND	ND	ND	1.1	86.6	29.7	42.3	787.2	0
23222	2012-09-21T13:00:00	49	ND	ND	ND	ND	ND	1.5	50.3	31	39.6	753.9	0
23223	2012-09-21T14:00:00	25	ND	ND	ND	ND	ND	3.7	279.6	31.1	39.1	744.4	0
23224	2012-09-21T15:00:00	27	ND	ND	ND	ND	ND	4.8	281.3	31.1	39.9	731.7	0
23225	2012-09-21T16:00:00	14	ND	ND	ND	ND	ND	5.3	284	29.9	43.6	533.4	0
23226	2012-09-21T17:00:00	24	ND	ND	ND	ND	ND	5.7	281.7	28.2	49.4	294.5	0
23227	2012-09-21T18:00:00	13	ND	ND	ND	ND	ND	6	279.4	27	53	57.9	0
23228	2012-09-21T19:00:00	28	ND	ND	ND	ND	ND	6.4	277.9	26.1	56.3	0	0
23229	2012-09-21T20:00:00	15	ND	ND	ND	ND	ND	3.3	289.6	26.3	54.4	0	0
23230	2012-09-21T21:00:00	9	ND	ND	ND	ND	ND	3.4	274.7	26	54.9	0	0
23231	2012-09-21T22:00:00	4	ND	ND	ND	ND	ND	1.4	283.9	25.7	55.6	0	0
23232	2012-09-21T23:00:00	2	ND	ND	ND	ND	ND	2.3	234.8	25.3	57.7	0	0
23233	2012-09-22T00:00:00	3	ND	ND	ND	ND	ND	1.7	206.3	24.6	62.8	0	0
23234	2012-09-22T01:00:00	15	ND	ND	ND	ND	ND	0.8	203.7	24.5	62.8	0	0
23235	2012-09-22T02:00:00	31	ND	ND	ND	ND	ND	0.8	55.5	23.7	67.8	0	0
23236	2012-09-22T03:00:00	29	ND	ND	ND	ND	ND	0.5	129.6	23.5	68.6	0	0
23237	2012-09-22T04:00:00	28	ND	ND	ND	ND	ND	1.1	109.6	23.2	70.1	0	0
23238	2012-09-22T05:00:00	39	ND	ND	ND	ND	ND	0.4	136.6	23	71	0	0
23239	2012-09-22T06:00:00	21	ND	ND	ND	ND	ND	0.5	24.4	22.8	74.6	0	0
23240	2012-09-22T07:00:00	31	ND	ND	ND	ND	ND	0.7	30.2	22.7	75.1	21.9	0
23241	2012-09-22T08:00:00	21	ND	ND	ND	ND	ND	0.3	84.3	23.6	70.4	127.8	0
23242	2012-09-22T09:00:00	57	ND	ND	ND	ND	ND	1.5	133.6	24	68.9	141.3	0
23243	2012-09-22T10:00:00	30	ND	ND	ND	ND	ND	1.1	159	25.5	62.5	623.3	0
23244	2012-09-22T11:00:00	30	ND	ND	ND	ND	ND	1.2	125	27.7	52.6	823.5	0
23245	2012-09-22T12:00:00	16	ND	ND	ND	ND	ND	0.8	83.3	29.4	46.1	897.9	0
23246	2012-09-22T13:00:00	37	ND	ND	ND	ND	ND	0.3	93.5	30.8	41.7	802.3	0
23247	2012-09-22T14:00:00	30	ND	ND	ND	ND	ND	1.4	0.7	30.8	41.3	333.7	0
23248	2012-09-22T15:00:00	31	ND	ND	ND	ND	ND	3.8	286.1	29.2	46.7	212.8	0
23249	2012-09-22T16:00:00	16	ND	ND	ND	ND	ND	2.7	288.5	28.1	52.3	179.4	1.02
23250	2012-09-22T17:00:00	22	ND	ND	ND	ND	ND	3.3	281.7	27.6	51.7	125.8	0
23251	2012-09-22T18:00:00	13	ND	ND	ND	ND	ND	3.6	278.6	27.1	52.2	50.9	0
23252	2012-09-22T19:00:00	7	ND	ND	ND	ND	ND	4.1	274.9	26	55.5	0	0
23253	2012-09-22T20:00:00	5	ND	ND	ND	ND	ND	3.6	269.3	25.7	55.8	0	0
23254	2012-09-22T21:00:00	4	ND	ND	ND	ND	ND	3.3	268.2	25.5	56.9	0	0
23255	2012-09-22T22:00:00	3	ND	ND	ND	ND	ND	1	258.7	25.2	58.7	0	0
23256	2012-09-22T23:00:00	19	ND	ND	ND	ND	ND	1.3	230.5	25	59	0	0
23257	2012-09-23T00:00:00	35	ND	ND	ND	ND	ND	0.7	116.7	23.8	66.3	0	0
23258	2012-09-23T01:00:00	59	ND	ND	ND	ND	ND	0.5	183	23.6	66.4	0	0
23259	2012-09-23T02:00:00	31	ND	ND	ND	ND	ND	1.2	203.1	23.5	64.7	0	0
23260	2012-09-23T03:00:00	37	ND	ND	ND	ND	ND	1.3	161.1	22.4	72.1	0	0
23261	2012-09-23T04:00:00	35	ND	ND	ND	ND	ND	1.5	214.8	22.1	74	0	0
23262	2012-09-23T05:00:00	28	ND	ND	ND	ND	ND	0.1	82.8	22.2	72.1	0	0
23263	2012-09-23T06:00:00	36	ND	ND	ND	ND	ND	0.4	195.1	21.7	78	0	0
23264	2012-09-23T07:00:00	36	ND	ND	ND	ND	ND	0.1	112.8	22	77.3	52	0
23265	2012-09-23T08:00:00	19	ND	ND	ND	ND	ND	0.2	233.6	23.2	67.9	161.6	0
23266	2012-09-23T09:00:00	19	ND	ND	ND	ND	ND	0.2	109.9	25.5	59	431.3	0
23267	2012-09-23T10:00:00	11	ND	ND	ND	ND	ND	1.5	60.5	27.1	55.7	676.4	0
23268	2012-09-23T11:00:00	26	ND	ND	ND	ND	ND	0.9	75.2	28.3	51	824.8	0
23269	2012-09-23T12:00:00	15	ND	ND	ND	ND	ND	0.3	22.9	29.8	46	742.4	0
23270	2012-09-23T13:00:00	19	ND	ND	ND	ND	ND	1.2	342.2	30	44.5	417.9	0
23271	2012-09-23T14:00:00	10	ND	ND	ND	ND	ND	2.4	281.8	30.6	41.7	559.4	0
23272	2012-09-23T15:00:00	17	ND	ND	ND	ND	ND	5.5	282.8	28.3	48.3	334.8	0
23273	2012-09-23T16:00:00	8	ND	ND	ND	ND	ND	4.7	280.1	26.8	51.1	298.5	0
23274	2012-09-23T17:00:00	7	ND	ND	ND	ND	ND	4.1	265.8	26.6	48.3	62.4	0
23275	2012-09-23T18:00:00	5	ND	ND	ND	ND	ND	1.9	220.1	25.9	53.6	16.7	0
23276	2012-09-23T19:00:00	15	ND	ND	ND	ND	ND	1.7	220.6	25.2	52.1	0	0
23277	2012-09-23T20:00:00	9	ND	ND	ND	ND	ND	0.9	206.8	24.4	58.3	0	0
23278	2012-09-23T21:00:00	18	ND	ND	ND	ND	ND	1	357.9	24.1	61.9	0	0
23279	2012-09-23T22:00:00	27	ND	ND	ND	ND	ND	1.2	16.8	23.5	63.8	0	0
23280	2012-09-23T23:00:00	38	ND	ND	ND	ND	ND	0.1	162.7	22.9	67	0	0
23281	2012-09-24T00:00:00	20	ND	ND	ND	ND	ND	1.2	260.1	23	60.8	0	0
23282	2012-09-24T01:00:00	23	ND	ND	ND	ND	ND	0.6	156.1	22.2	69.8	0	0
23283	2012-09-24T02:00:00	12	ND	ND	ND	ND	ND	0.4	166.8	21.4	75.3	0	0
23284	2012-09-24T03:00:00	35	ND	ND	ND	ND	ND	0.4	49.6	21.4	74.6	0	0
23285	2012-09-24T04:00:00	19	ND	ND	ND	ND	ND	0.7	246.9	21.4	68.3	0	0
23286	2012-09-24T05:00:00	14	ND	ND	ND	ND	ND	1	253.5	21.4	65.1	0	0
23287	2012-09-24T06:00:00	16	ND	ND	ND	ND	ND	0.7	36.4	20.5	77	0	0
23288	2012-09-24T07:00:00	46	ND	ND	ND	ND	ND	1	42.7	20.1	81.7	53.5	0
23289	2012-09-24T08:00:00	61	ND	ND	ND	ND	ND	1.3	15.6	21.3	75.3	240.8	0
23290	2012-09-24T09:00:00	59	ND	ND	ND	ND	ND	1.3	46.6	23.9	61.4	465.4	0
23291	2012-09-24T10:00:00	30	ND	ND	ND	ND	ND	0.9	98.2	25.9	54.7	667.8	0
23292	2012-09-24T11:00:00	30	ND	ND	ND	ND	ND	0.7	85.1	28.1	47.9	807.9	0
23293	2012-09-24T12:00:00	17	ND	ND	ND	ND	ND	1.4	60.7	30	42.8	893.8	0
23294	2012-09-24T13:00:00	31	ND	ND	ND	ND	ND	2.4	303.1	30.3	41.2	562	0
23295	2012-09-24T14:00:00	16	ND	ND	ND	ND	ND	4.5	285.6	30.6	39.7	874.8	0
23296	2012-09-24T15:00:00	8	ND	ND	ND	ND	ND	4.9	294.9	30.1	41.1	767.4	0
23297	2012-09-24T16:00:00	14	ND	ND	ND	ND	ND	5.5	286.5	29.4	42.9	471.8	0
23298	2012-09-24T17:00:00	36	ND	ND	ND	ND	ND	2.9	248.2	26.2	54.8	47.2	0
23299	2012-09-24T18:00:00	41	ND	ND	ND	ND	ND	2.3	211.2	23.5	68.3	0	1.02
23300	2012-09-24T19:00:00	38	ND	ND	ND	ND	ND	0.9	252.5	22.2	76.8	0	5.59
23301	2012-09-24T20:00:00	26	ND	ND	ND	ND	ND	1.3	333.6	22.2	80	0	1.52
23302	2012-09-24T21:00:00	39	ND	ND	ND	ND	ND	1.4	2.4	22	83.1	0	0
23303	2012-09-24T22:00:00	28	ND	ND	ND	ND	ND	1.4	35.8	21.5	83.2	0	0.25
23304	2012-09-24T23:00:00	30	ND	ND	ND	ND	ND	1.1	118.2	21.4	82.9	0	0
23305	2012-09-25T00:00:00	40	ND	ND	ND	ND	ND	1.5	154.1	21.2	85.8	0	0.51
23306	2012-09-25T01:00:00	38	ND	ND	ND	ND	ND	1.4	194.4	20.1	92.8	0	10.67
23307	2012-09-25T02:00:00	21	ND	ND	ND	ND	ND	1.2	158.7	19.8	94	0	1.52
23308	2012-09-25T03:00:00	19	ND	ND	ND	ND	ND	0.8	155.5	19.8	93.4	0	1.02
23309	2012-09-25T04:00:00	10	ND	ND	ND	ND	ND	0.9	154.7	19.8	93.6	0	0.51
23310	2012-09-25T05:00:00	15	ND	ND	ND	ND	ND	1.2	153.1	19.8	93.4	0	0
23311	2012-09-25T06:00:00	9	ND	ND	ND	ND	ND	1.1	178.1	19.8	93.2	0	0.25
23312	2012-09-25T07:00:00	6	ND	ND	ND	ND	ND	0.7	167	19.9	92.1	31.3	0
23313	2012-09-25T08:00:00	4	ND	ND	ND	ND	ND	0.9	173.1	20.7	87.9	99.4	0
23314	2012-09-25T09:00:00	35	ND	ND	ND	ND	ND	0.7	154.8	21.6	82	219.2	0
23315	2012-09-25T10:00:00	17	ND	ND	ND	ND	ND	0.2	184.1	24	69.3	531.3	0
23316	2012-09-25T11:00:00	14	ND	ND	ND	ND	ND	1.1	96.4	25.3	64.7	461.8	0
23317	2012-09-25T12:00:00	14	ND	ND	ND	ND	ND	1	35.1	26.3	61	541.3	0
23318	2012-09-25T13:00:00	8	ND	ND	ND	ND	ND	1.4	63.4	27.6	55.1	714.5	0
23319	2012-09-25T14:00:00	5	ND	ND	ND	ND	ND	1.5	43.5	29.2	49.8	792.4	0
23320	2012-09-25T15:00:00	5	ND	ND	ND	ND	ND	1.6	26	29.3	50.2	538.7	0
23321	2012-09-25T16:00:00	4	ND	ND	ND	ND	ND	1.6	331.6	29.2	50	415.3	0
23322	2012-09-25T17:00:00	12	ND	ND	ND	ND	ND	4	276.1	28.2	51.5	309.5	0
23323	2012-09-25T18:00:00	8	ND	ND	ND	ND	ND	3.4	277.2	26.5	55.1	50.7	0
23324	2012-09-25T19:00:00	4	ND	ND	ND	ND	ND	3.3	271.6	25.8	56.9	0	0
23325	2012-09-25T20:00:00	4	ND	ND	ND	ND	ND	2	280.1	25.9	55.7	0	0
23326	2012-09-25T21:00:00	9	ND	ND	ND	ND	ND	0.3	52.4	25.3	59.8	0	0
23327	2012-09-25T22:00:00	26	ND	ND	ND	ND	ND	0.5	105	23.8	67.5	0	0
23328	2012-09-25T23:00:00	34	ND	ND	ND	ND	ND	1.2	216.3	24.4	64.7	0	0
23329	2012-09-26T00:00:00	18	ND	ND	ND	ND	ND	1.6	191.6	23.1	72.4	0	0
23330	2012-09-26T01:00:00	21	ND	ND	ND	ND	ND	1.2	193.4	22.3	75.8	0	0
23331	2012-09-26T02:00:00	11	ND	ND	ND	ND	ND	0.4	186.8	22.3	75.9	0	0
23332	2012-09-26T03:00:00	6	ND	ND	ND	ND	ND	0.3	321.8	22.1	76.1	0	0
23333	2012-09-26T04:00:00	4	ND	ND	ND	ND	ND	0.3	77	21.7	78.9	0	0
23334	2012-09-26T05:00:00	9	ND	ND	ND	ND	ND	0.5	207.4	21.4	80.5	0	0
23335	2012-09-26T06:00:00	6	ND	ND	ND	ND	ND	0.8	154.3	21	81.6	0.1	0
23336	2012-09-26T07:00:00	21	ND	ND	ND	ND	ND	0.6	184.9	21.1	81.6	60.4	0
23337	2012-09-26T08:00:00	22	ND	ND	ND	ND	ND	0.3	157.3	22.7	73.3	180	0
23338	2012-09-26T09:00:00	34	ND	ND	ND	ND	ND	0.9	82.8	24.8	65.6	439.3	0
23339	2012-09-26T10:00:00	20	ND	ND	ND	ND	ND	0.9	160.4	26.3	59.3	629.9	0
23340	2012-09-26T11:00:00	17	ND	ND	ND	ND	ND	1	121.5	27.9	53.6	800.2	0
23341	2012-09-26T12:00:00	10	ND	ND	ND	ND	ND	1	106.1	29.6	48.1	873.2	0
23342	2012-09-26T13:00:00	22	ND	ND	ND	ND	ND	1.2	140.4	31.2	43	877.4	0
23343	2012-09-26T14:00:00	24	ND	ND	ND	ND	ND	0.9	104.2	32.7	37	832.4	0
23344	2012-09-26T15:00:00	24	ND	ND	ND	ND	ND	0.7	278.5	33.2	37.3	692.2	0
23345	2012-09-26T16:00:00	15	ND	ND	ND	ND	ND	5.1	278.9	30.6	45.6	417.4	0
23346	2012-09-26T17:00:00	40	ND	ND	ND	ND	ND	6	274	28	52.4	87.7	0
23347	2012-09-26T18:00:00	22	ND	ND	ND	ND	ND	5.8	273.4	27	55.3	15.7	0
23348	2012-09-26T19:00:00	31	ND	ND	ND	ND	ND	5.8	273.8	26.6	56.6	0	0
23349	2012-09-26T20:00:00	17	ND	ND	ND	ND	ND	2.8	287.9	27	53.5	0	0
23350	2012-09-26T21:00:00	23	ND	ND	ND	ND	ND	2.3	277.5	26.6	56.1	0	0
23351	2012-09-26T22:00:00	12	ND	ND	ND	ND	ND	1.2	227.9	26.1	58.6	0	0
23352	2012-09-26T23:00:00	7	ND	ND	ND	ND	ND	1.8	190.9	25.4	63.9	0	0
23353	2012-09-27T00:00:00	4	ND	ND	ND	ND	ND	1.6	202.7	24.6	69.2	0	0
23354	2012-09-27T01:00:00	19	ND	ND	ND	ND	ND	1.4	221.4	24.4	66.4	0	0
23355	2012-09-27T02:00:00	10	ND	ND	ND	ND	ND	0.2	85	23.6	70.5	0	0
23356	2012-09-27T03:00:00	30	ND	ND	ND	ND	ND	0.8	150.7	22.9	74.8	0	0
23357	2012-09-27T04:00:00	18	ND	ND	ND	ND	ND	0.7	124.6	22.5	77.2	0	0
23358	2012-09-27T05:00:00	44	ND	ND	ND	ND	ND	0.4	126	21.9	79.2	0	0
23359	2012-09-27T06:00:00	34	ND	ND	ND	ND	ND	0.8	154.4	21.7	78.8	0.1	0
23360	2012-09-27T07:00:00	48	ND	ND	ND	ND	ND	1	267	22	72.8	38.2	0
23361	2012-09-27T08:00:00	34	ND	ND	ND	ND	ND	0.7	308.1	23.5	69.8	202.1	0
23362	2012-09-27T09:00:00	77	ND	ND	ND	ND	ND	1.4	70.6	24.9	66	283.4	0
23363	2012-09-27T10:00:00	60	ND	ND	ND	ND	ND	1.3	123.6	24.7	67.4	318.9	0
23364	2012-09-27T11:00:00	67	ND	ND	ND	ND	ND	1	104.7	26.2	60.9	503.2	0
23365	2012-09-27T12:00:00	40	ND	ND	ND	ND	ND	0.8	80.6	28	54.1	641.5	0
23366	2012-09-27T13:00:00	51	ND	ND	ND	ND	ND	0.7	89.6	29.4	49.7	646.2	0
23367	2012-09-27T14:00:00	30	ND	ND	ND	ND	ND	0.9	110.7	30.8	44.7	665.2	0
23368	2012-09-27T15:00:00	49	ND	ND	ND	ND	ND	1.1	129.2	31.8	39.2	608.5	0
23369	2012-09-27T16:00:00	31	ND	ND	ND	ND	ND	1.3	156.9	32.4	36.4	456.6	0
23370	2012-09-27T17:00:00	49	ND	ND	ND	ND	ND	2	278.9	30.7	44.3	140.3	0
23371	2012-09-27T18:00:00	41	ND	ND	ND	ND	ND	2.8	275.7	28	51.4	10.9	0
23372	2012-09-27T19:00:00	40	ND	ND	ND	ND	ND	2.2	278.1	27.4	54.4	0	0
23373	2012-09-27T20:00:00	28	ND	ND	ND	ND	ND	2.9	265.2	26.8	56.8	0	0
23374	2012-09-27T21:00:00	22	ND	ND	ND	ND	ND	1.2	289.5	26.8	56.9	0	0
23375	2012-09-27T22:00:00	18	ND	ND	ND	ND	ND	0.2	72.1	26.4	59.3	0	0
23376	2012-09-27T23:00:00	27	ND	ND	ND	ND	ND	1.5	235.1	26.1	60.2	0	0
23377	2012-09-28T00:00:00	39	ND	ND	ND	ND	ND	1.5	179.3	24.8	67.7	0	0
23378	2012-09-28T01:00:00	66	ND	ND	ND	ND	ND	0.7	170.4	24.5	70.1	0	0
23379	2012-09-28T02:00:00	33	ND	ND	ND	ND	ND	1	198.2	24.2	71.8	0	0
23380	2012-09-28T03:00:00	39	ND	ND	ND	ND	ND	0.9	239.1	24	67.3	0	0
23381	2012-09-28T04:00:00	21	ND	ND	ND	ND	ND	2.1	262.8	23.2	70.3	0	7.62
23382	2012-09-28T05:00:00	11	ND	ND	ND	ND	ND	1.5	257.9	19.5	89.2	0	34.54
23383	2012-09-28T06:00:00	7	ND	ND	ND	ND	ND	0.3	310.9	19.2	94.4	0	12.95
23384	2012-09-28T07:00:00	16	ND	ND	ND	ND	ND	0.5	26.1	20.7	86.3	2.2	0.51
23385	2012-09-28T08:00:00	23	ND	ND	ND	ND	ND	0.7	29.1	21	87.6	35.7	0
23386	2012-09-28T09:00:00	30	ND	ND	ND	ND	ND	0.2	164.5	21.8	83.5	145.4	0
23387	2012-09-28T10:00:00	21	ND	ND	ND	ND	ND	0.5	228.6	23.5	74.5	363	0
23388	2012-09-28T11:00:00	40	ND	ND	ND	ND	ND	0.4	163.9	25.3	67.6	505.1	0
23389	2012-09-28T12:00:00	23	ND	ND	ND	ND	ND	1	63.1	26.5	62.8	545.7	0
23390	2012-09-28T13:00:00	34	ND	ND	ND	ND	ND	1.4	45.8	27.2	55.8	508.9	0
23391	2012-09-28T14:00:00	18	ND	ND	ND	ND	ND	1.1	48.2	29.1	47.3	713.4	0
23392	2012-09-28T15:00:00	32	ND	ND	ND	ND	ND	1.8	25.8	30.3	46.2	598.1	0
23393	2012-09-28T16:00:00	18	ND	ND	ND	ND	ND	2.6	276.1	30	43.7	540.2	0
23394	2012-09-28T17:00:00	11	ND	ND	ND	ND	ND	3.4	272.7	28.2	46.8	187.5	0
23395	2012-09-28T18:00:00	6	ND	ND	ND	ND	ND	3.5	273.1	26.7	49.9	49.4	0
23396	2012-09-28T19:00:00	15	ND	ND	ND	ND	ND	3.5	273.1	26.2	48.2	0.8	0
23397	2012-09-28T20:00:00	9	ND	ND	ND	ND	ND	1.2	300.6	26.5	42	0	0
23398	2012-09-28T21:00:00	26	ND	ND	ND	ND	ND	0.5	90.1	25.4	51.6	0	0
23399	2012-09-28T22:00:00	43	ND	ND	ND	ND	ND	0.6	146	23.9	61.2	0	0
23400	2012-09-28T23:00:00	69	ND	ND	ND	ND	ND	0.5	136.5	23.1	65.8	0	0
23401	2012-09-29T00:00:00	40	ND	ND	ND	ND	ND	0.4	223.9	23	66.3	0	0
23402	2012-09-29T01:00:00	21	ND	ND	ND	ND	ND	1	244.2	22.6	60.8	0	0
23403	2012-09-29T02:00:00	12	ND	ND	ND	ND	ND	1.2	258.5	22.4	57.9	0	0
23404	2012-09-29T03:00:00	8	ND	ND	ND	ND	ND	1.1	245.4	22.1	59.8	0	0
23405	2012-09-29T04:00:00	5	ND	ND	ND	ND	ND	0.1	315.2	21.1	75.8	0	0
23406	2012-09-29T05:00:00	39	ND	ND	ND	ND	ND	0.6	224.9	21	74	0	0
23407	2012-09-29T06:00:00	22	ND	ND	ND	ND	ND	0.6	240.5	21.2	68.2	0.7	0
23408	2012-09-29T07:00:00	33	ND	ND	ND	ND	ND	0.7	212.3	21.6	70.3	54.3	0
23409	2012-09-29T08:00:00	17	ND	ND	ND	ND	ND	0.9	207.5	22.6	68.3	161.4	0
23410	2012-09-29T09:00:00	50	ND	ND	ND	ND	ND	1.3	153.7	23.7	65	222.2	0
23411	2012-09-29T10:00:00	42	ND	ND	ND	ND	ND	0.9	145.1	24.3	63.5	304.2	0
23412	2012-09-29T11:00:00	62	ND	ND	ND	ND	ND	0.9	163	25.4	58.7	365.1	0
23413	2012-09-29T12:00:00	44	ND	ND	ND	ND	ND	1.3	173.3	27.1	51.5	592.3	0
23414	2012-09-29T13:00:00	24	ND	ND	ND	ND	ND	1.3	169.1	28.7	44.7	838.5	0
23415	2012-09-29T14:00:00	25	ND	ND	ND	ND	ND	1.5	108.8	30.7	40.6	900.8	0
23416	2012-09-29T15:00:00	27	ND	ND	ND	ND	ND	1.2	92.6	31.5	38.7	662.2	0
23417	2012-09-29T16:00:00	28	ND	ND	ND	ND	ND	0.7	354.9	32.1	37.7	501.4	0
23418	2012-09-29T17:00:00	18	ND	ND	ND	ND	ND	3.6	275.4	30.9	44.7	287.2	0
23419	2012-09-29T18:00:00	10	ND	ND	ND	ND	ND	4.4	272.9	28.1	51.7	67.4	0
23420	2012-09-29T19:00:00	22	ND	ND	ND	ND	ND	5.5	264.6	26.8	55	0	0
23421	2012-09-29T20:00:00	11	ND	ND	ND	ND	ND	4.5	268.8	26.5	56.9	0	0
23422	2012-09-29T21:00:00	10	ND	ND	ND	ND	ND	2.1	289.9	26.4	57.2	0	0
23423	2012-09-29T22:00:00	6	ND	ND	ND	ND	ND	1.1	281	26	59.5	0	0
23424	2012-09-29T23:00:00	5	ND	ND	ND	ND	ND	3	266.9	25.6	61.1	0	0
23425	2012-09-30T00:00:00	4	ND	ND	ND	ND	ND	1.6	234.4	25.2	63.5	0	0
23426	2012-09-30T01:00:00	18	ND	ND	ND	ND	ND	1.3	170.7	24.6	67.8	0	0
23427	2012-09-30T02:00:00	17	ND	ND	ND	ND	ND	0.8	172.5	23.6	73.4	0	0
23428	2012-09-30T03:00:00	24	ND	ND	ND	ND	ND	0.3	86.4	23.5	73.7	0	0
23429	2012-09-30T04:00:00	27	ND	ND	ND	ND	ND	0.7	117.2	23.2	76.8	0	0
23430	2012-09-30T05:00:00	24	ND	ND	ND	ND	ND	0.9	194.2	22.6	81.9	0	0.76
23431	2012-09-30T06:00:00	15	ND	ND	ND	ND	ND	0.1	22.8	22.5	82.9	0	0.25
23432	2012-09-30T07:00:00	18	ND	ND	ND	ND	ND	0.5	58.9	22.1	83.3	6.6	0
23433	2012-09-30T08:00:00	10	ND	ND	ND	ND	ND	0.2	84.1	22.5	80.6	49.7	0
23434	2012-09-30T09:00:00	19	ND	ND	ND	ND	ND	0.4	58.1	23.4	75.6	190.2	0
23435	2012-09-30T10:00:00	11	ND	ND	ND	ND	ND	0.4	160.7	24.6	70.8	312.6	0
23436	2012-09-30T11:00:00	36	ND	ND	ND	ND	ND	0.6	149.3	25.9	66	462.8	0
23437	2012-09-30T12:00:00	19	ND	ND	ND	ND	ND	0.9	87.2	28.1	56.8	761.8	0
23438	2012-09-30T13:00:00	17	ND	ND	ND	ND	ND	1	106.9	29.8	49	924.4	0
23439	2012-09-30T14:00:00	10	ND	ND	ND	ND	ND	1.6	71	30.9	44.7	742	0
23440	2012-09-30T15:00:00	7	ND	ND	ND	ND	ND	2.5	49.1	31	45.6	741.3	0
23441	2012-09-30T16:00:00	5	ND	ND	ND	ND	ND	2.6	58.2	30.1	48.5	392.9	0
23442	2012-09-30T17:00:00	2	ND	ND	ND	ND	ND	2.3	40.9	29.1	52	172.1	0
23443	2012-09-30T18:00:00	3	ND	ND	ND	ND	ND	2.8	285.2	27.7	51.6	28.7	0
23444	2012-09-30T19:00:00	3	ND	ND	ND	ND	ND	1.5	295.3	27.1	51.8	0	0
23445	2012-09-30T20:00:00	3	ND	ND	ND	ND	ND	2.9	273.8	26.6	52.3	0	0
23446	2012-09-30T21:00:00	1	ND	ND	ND	ND	ND	1.7	283.1	26.5	52.4	0	0
23447	2012-09-30T22:00:00	2	ND	ND	ND	ND	ND	1.5	199.7	25.5	60.3	0	0
23448	2012-09-30T23:00:00	17	ND	ND	ND	ND	ND	1.6	192.6	24.5	68.9	0	0
23449	2012-10-01T00:00:00	9	ND	ND	ND	ND	ND	0.6	89.2	23.4	72.2	0	0
23450	2012-10-01T01:00:00	17	ND	ND	ND	ND	ND	0.4	166.1	23	73	0	0
23451	2012-10-01T02:00:00	13	ND	ND	ND	ND	ND	0.5	92.5	22.6	74.9	0	0
23452	2012-10-01T03:00:00	26	ND	ND	ND	ND	ND	0.2	117.1	22.3	74.6	0	0
23453	2012-10-01T04:00:00	28	ND	ND	ND	ND	ND	0.8	168.9	21.9	77.3	0	0
23454	2012-10-01T05:00:00	29	ND	ND	ND	ND	ND	0.4	130.3	21.5	78.7	0	0
23455	2012-10-01T06:00:00	17	ND	ND	ND	ND	ND	0.9	225	21.6	76	0.2	0
23456	2012-10-01T07:00:00	29	ND	ND	ND	ND	ND	0.7	129.9	21.8	75.6	28.5	0
23457	2012-10-01T08:00:00	30	ND	ND	ND	ND	ND	0.6	185.3	22.1	75.3	143.9	0
23458	2012-10-01T09:00:00	48	ND	ND	ND	ND	ND	0.7	163.3	24.8	63.9	489.1	0
23459	2012-10-01T10:00:00	25	ND	ND	ND	ND	ND	0.9	146.2	26.6	57.1	646.5	0
23460	2012-10-01T11:00:00	22	ND	ND	ND	ND	ND	1.1	112.8	28.2	50.7	812.4	0
23461	2012-10-01T12:00:00	18	ND	ND	ND	ND	ND	1.3	119.1	30.1	44.8	903.1	0
23462	2012-10-01T13:00:00	30	ND	ND	ND	ND	ND	1.1	70.6	31.6	41.1	897.4	0
23463	2012-10-01T14:00:00	25	ND	ND	ND	ND	ND	1.3	315.1	31.7	41.3	516.5	0
23464	2012-10-01T15:00:00	21	ND	ND	ND	ND	ND	3.9	281.9	30.7	43.1	509.8	0
23465	2012-10-01T16:00:00	13	ND	ND	ND	ND	ND	3.1	272.5	29.4	48.5	149.2	0.25
23466	2012-10-01T17:00:00	14	ND	ND	ND	ND	ND	4.1	282.8	28	50.2	113.7	0
23467	2012-10-01T18:00:00	9	ND	ND	ND	ND	ND	3.3	285	27.5	49.1	13.6	0
23468	2012-10-01T19:00:00	16	ND	ND	ND	ND	ND	2.9	284.1	26.9	51.8	0	0
23469	2012-10-01T20:00:00	26	ND	ND	ND	ND	ND	4.3	267.2	26	56.6	0	0
23470	2012-10-01T21:00:00	16	ND	ND	ND	ND	ND	0.4	66.8	25.6	59.6	0	0
23471	2012-10-01T22:00:00	29	ND	ND	ND	ND	ND	0.6	86.5	24.5	65.4	0	0
23472	2012-10-01T23:00:00	61	ND	ND	ND	ND	ND	0.4	73.7	23.9	67.9	0	0
23473	2012-10-02T00:00:00	31	ND	ND	ND	ND	ND	0.9	248.4	23.6	63.5	0	0
23474	2012-10-02T01:00:00	24	ND	ND	ND	ND	ND	0.8	222.5	23.2	63.2	0	0
23475	2012-10-02T02:00:00	17	ND	ND	ND	ND	ND	0.7	49.7	22.4	70	0	0
23476	2012-10-02T03:00:00	19	ND	ND	ND	ND	ND	0.7	339.8	21.7	77.3	0	0
23477	2012-10-02T04:00:00	10	ND	ND	ND	ND	ND	0.9	220.5	22	69.7	0	0
23478	2012-10-02T05:00:00	7	ND	ND	ND	ND	ND	0.5	116.9	21.6	78.3	0	0
23479	2012-10-02T06:00:00	26	ND	ND	ND	ND	ND	0.7	168.4	21.2	80.7	0	0
23480	2012-10-02T07:00:00	42	ND	ND	ND	ND	ND	0.4	195.5	21.4	79.5	47.3	0
23481	2012-10-02T08:00:00	57	ND	ND	ND	ND	ND	0.9	161.4	22.4	75.1	118.5	0
23482	2012-10-02T09:00:00	50	ND	ND	ND	ND	ND	1.2	163.2	23.1	70.9	223.9	0
23483	2012-10-02T10:00:00	39	ND	ND	ND	ND	ND	1.5	161.7	25.5	62	659.4	0
23484	2012-10-02T11:00:00	40	ND	ND	ND	ND	ND	0.7	171	28	51.8	848.1	0
23485	2012-10-02T12:00:00	21	ND	ND	ND	ND	ND	1.1	131.3	29.6	46.3	795.3	0
23486	2012-10-02T13:00:00	42	ND	ND	ND	ND	ND	1.5	97.7	29.4	48.3	413.6	0
23487	2012-10-02T14:00:00	23	ND	ND	ND	ND	ND	3.4	271.6	29.4	43	575.9	0
23488	2012-10-02T15:00:00	19	ND	ND	ND	ND	ND	1.6	295.4	30	40.7	267.9	0
23489	2012-10-02T16:00:00	11	ND	ND	ND	ND	ND	3.2	288.2	28.5	47	156.9	0
23490	2012-10-02T17:00:00	14	ND	ND	ND	ND	ND	2.9	290.6	27.5	49.9	69.4	0
23491	2012-10-02T18:00:00	7	ND	ND	ND	ND	ND	3.5	278.7	26.7	50.5	19.5	0
23492	2012-10-02T19:00:00	6	ND	ND	ND	ND	ND	2.7	278.4	26.6	50.4	0	0
23493	2012-10-02T20:00:00	14	ND	ND	ND	ND	ND	1.9	164.5	25.4	58.2	0	0
23494	2012-10-02T21:00:00	25	ND	ND	ND	ND	ND	1.2	172.5	23.9	65.2	0	0
23495	2012-10-02T22:00:00	14	ND	ND	ND	ND	ND	0.4	285.5	24.1	62.3	0	0
23496	2012-10-02T23:00:00	35	ND	ND	ND	ND	ND	0.3	11.8	23.5	66.9	0	0
23497	2012-10-03T00:00:00	36	ND	ND	ND	ND	ND	0.2	347	23.4	64.5	0	0
23498	2012-10-03T01:00:00	36	ND	ND	ND	ND	ND	1.3	50.9	21.3	75.7	0	0
23499	2012-10-03T02:00:00	20	ND	ND	ND	ND	ND	0.8	69.8	21.3	75	0	0
23500	2012-10-03T03:00:00	50	ND	ND	ND	ND	ND	0.4	150.1	21.2	75.6	0	0
23501	2012-10-03T04:00:00	37	ND	ND	ND	ND	ND	0.3	147.1	20.9	76.3	0	0
23502	2012-10-03T05:00:00	36	ND	ND	ND	ND	ND	0.3	190.3	21.1	72.8	0	0
23503	2012-10-03T06:00:00	25	ND	ND	ND	ND	ND	0.7	139.6	20	80.6	0.2	0
23504	2012-10-03T07:00:00	46	ND	ND	ND	ND	ND	0.3	236.1	20.7	75.6	59.1	0
23505	2012-10-03T08:00:00	24	ND	ND	ND	ND	ND	0.8	179.3	22.7	66.3	246.4	0
23506	2012-10-03T09:00:00	49	ND	ND	ND	ND	ND	1.3	124.9	24.6	60.2	459.1	0
23507	2012-10-03T10:00:00	25	ND	ND	ND	ND	ND	0.7	121.1	26.3	54	665.4	0
23508	2012-10-03T11:00:00	40	ND	ND	ND	ND	ND	1.5	135.9	28.1	48.9	797.6	0
23509	2012-10-03T12:00:00	46	ND	ND	ND	ND	ND	1.3	92.2	29.7	46.1	848.2	0
23510	2012-10-03T13:00:00	52	ND	ND	ND	ND	ND	0.6	13.5	31	43.1	868	0
23511	2012-10-03T14:00:00	33	ND	ND	ND	ND	ND	1.4	356.6	32.4	40.1	738.1	0
23512	2012-10-03T15:00:00	27	ND	ND	ND	ND	ND	4.2	287.7	31.7	42	714.9	0
23513	2012-10-03T16:00:00	15	ND	ND	ND	ND	ND	5.9	280.7	29.8	46.8	488	0
23514	2012-10-03T17:00:00	32	ND	ND	ND	ND	ND	5.2	283.2	29	47.9	140.5	0
23515	2012-10-03T18:00:00	22	ND	ND	ND	ND	ND	5.2	275.6	27.6	53.1	10.5	0
23516	2012-10-03T19:00:00	23	ND	ND	ND	ND	ND	5.3	272.6	27.2	53.9	0	0
23517	2012-10-03T20:00:00	13	ND	ND	ND	ND	ND	2.5	292.8	26.9	54	0	0
23518	2012-10-03T21:00:00	8	ND	ND	ND	ND	ND	4.6	278.4	26.4	53.7	0	0
23519	2012-10-03T22:00:00	6	ND	ND	ND	ND	ND	3.4	278	26.2	52.8	0	0
23520	2012-10-03T23:00:00	5	ND	ND	ND	ND	ND	3.5	272.6	25.6	52.9	0	0
23521	2012-10-04T00:00:00	4	ND	ND	ND	ND	ND	3.7	270.3	25.2	55.1	0	0
23522	2012-10-04T01:00:00	4	ND	ND	ND	ND	ND	2.8	275.6	25.3	53.5	0	0
23523	2012-10-04T02:00:00	26	ND	ND	ND	ND	ND	1.1	115.1	24.5	60.7	0	0
23524	2012-10-04T03:00:00	49	ND	ND	ND	ND	ND	1.6	140.6	22.9	75.1	0	2.29
23525	2012-10-04T04:00:00	26	ND	ND	ND	ND	ND	0.4	120.9	21.3	89.3	0	2.29
23526	2012-10-04T05:00:00	41	ND	ND	ND	ND	ND	0.3	197.1	21.7	87.6	0	0.76
23527	2012-10-04T06:00:00	22	ND	ND	ND	ND	ND	0.1	278.2	21.8	83.3	0	0
23528	2012-10-04T07:00:00	22	ND	ND	ND	ND	ND	0.3	263.7	22	78	64.5	0
23529	2012-10-04T08:00:00	13	ND	ND	ND	ND	ND	0.2	77.4	23.4	72.8	164.6	0
23530	2012-10-04T09:00:00	41	ND	ND	ND	ND	ND	1.3	72.4	24.4	70.8	404.6	0
23531	2012-10-04T10:00:00	22	ND	ND	ND	ND	ND	1	94.2	25.6	62	343.8	0
23532	2012-10-04T11:00:00	34	ND	ND	ND	ND	ND	0.8	135.4	26.9	57.6	692.8	0
23533	2012-10-04T12:00:00	18	ND	ND	ND	ND	ND	1.1	54.7	28.2	52	576.5	0
23534	2012-10-04T13:00:00	15	ND	ND	ND	ND	ND	1.3	24.4	29.6	47.2	816.3	0
23535	2012-10-04T14:00:00	9	ND	ND	ND	ND	ND	2.2	43	30.8	41.7	735.5	0
23536	2012-10-04T15:00:00	14	ND	ND	ND	ND	ND	2.4	4.8	30.1	44.6	332.1	0
23537	2012-10-04T16:00:00	7	ND	ND	ND	ND	ND	2.1	297.1	30.1	44.9	486.6	0
23538	2012-10-04T17:00:00	4	ND	ND	ND	ND	ND	4.3	283.4	28.5	48.8	292.9	0
23539	2012-10-04T18:00:00	3	ND	ND	ND	ND	ND	4.3	274.7	26.4	56.4	36.9	0
23540	2012-10-04T19:00:00	10	ND	ND	ND	ND	ND	4.2	271	25.4	57	0	0
23541	2012-10-04T20:00:00	5	ND	ND	ND	ND	ND	3.3	278.7	25.4	56.1	0	0
23542	2012-10-04T21:00:00	2	ND	ND	ND	ND	ND	3.8	272.4	24.9	57.7	0	0
23543	2012-10-04T22:00:00	2	ND	ND	ND	ND	ND	3.3	269.8	25.1	55.5	0	0
23544	2012-10-04T23:00:00	2	ND	ND	ND	ND	ND	1.7	219.8	24.9	59.8	0	0
23545	2012-10-05T00:00:00	1	ND	ND	ND	ND	ND	0.4	129.2	24.4	63.7	0	0
23546	2012-10-05T01:00:00	13	ND	ND	ND	ND	ND	0.8	70.1	23.7	68.3	0	0.25
23547	2012-10-05T02:00:00	8	ND	ND	ND	ND	ND	0.4	68.6	20.6	86.6	0	20.07
23548	2012-10-05T03:00:00	5	ND	ND	ND	ND	ND	0.3	140.6	20.4	89.3	0	8.13
23549	2012-10-05T04:00:00	5	ND	ND	ND	ND	ND	1.4	61.6	19.4	94	0	5.84
23550	2012-10-05T05:00:00	3	ND	ND	ND	ND	ND	1	49.7	19.2	94.3	0	1.78
23551	2012-10-05T06:00:00	3	ND	ND	ND	ND	ND	0.3	27.8	19.7	91.3	0	0
23552	2012-10-05T07:00:00	3	ND	ND	ND	ND	ND	0.4	160.3	20.1	88.1	13.8	0
23553	2012-10-05T08:00:00	11	ND	ND	ND	ND	ND	1.1	214.5	20.8	84.2	113.8	0.25
23554	2012-10-05T09:00:00	7	ND	ND	ND	ND	ND	0.3	196	22.5	74.2	386.9	0
23555	2012-10-05T10:00:00	4	ND	ND	ND	ND	ND	0.6	113.5	23.8	69.1	407	0
23556	2012-10-05T11:00:00	27	ND	ND	ND	ND	ND	1.3	111.1	24.4	68.8	462.4	0
23557	2012-10-05T12:00:00	15	ND	ND	ND	ND	ND	1	82.5	25.5	65.7	508.6	0
23558	2012-10-05T13:00:00	14	ND	ND	ND	ND	ND	1	60.2	26.7	61.1	633.9	0
23559	2012-10-05T14:00:00	8	ND	ND	ND	ND	ND	1.5	43.2	27.2	58.4	423.9	0
23560	2012-10-05T15:00:00	26	ND	ND	ND	ND	ND	2.1	6.1	28.3	54.1	456.5	0
23561	2012-10-05T16:00:00	13	ND	ND	ND	ND	ND	1.8	341.6	29.1	49.4	519.8	0
23562	2012-10-05T17:00:00	13	ND	ND	ND	ND	ND	3.1	271.4	28.5	49.7	322.8	0
23563	2012-10-05T18:00:00	23	ND	ND	ND	ND	ND	4	272.9	26.4	54.8	30.7	0
23564	2012-10-05T19:00:00	22	ND	ND	ND	ND	ND	4.7	273.8	25.3	58.4	0	0
23565	2012-10-05T20:00:00	12	ND	ND	ND	ND	ND	3.1	276.3	25.2	57.3	0	0
23566	2012-10-05T21:00:00	8	ND	ND	ND	ND	ND	3	258.9	24.7	61.3	0	0
23567	2012-10-05T22:00:00	5	ND	ND	ND	ND	ND	2.8	256.3	24.1	63.6	0	0
23568	2012-10-05T23:00:00	3	ND	ND	ND	ND	ND	2.5	264.5	23.7	65.6	0	0
23569	2012-10-06T00:00:00	2	ND	ND	ND	ND	ND	1.4	275.6	23.5	65.8	0	0
23570	2012-10-06T01:00:00	1	ND	ND	ND	ND	ND	0.8	41.9	22.8	76.4	0	0
23571	2012-10-06T02:00:00	1	ND	ND	ND	ND	ND	0.8	67.1	22.4	80.5	0	0
23572	2012-10-06T03:00:00	8	ND	ND	ND	ND	ND	0	281	22	81.2	0	0
23573	2012-10-06T04:00:00	6	ND	ND	ND	ND	ND	0.2	81.7	21.5	82.3	0	0
23574	2012-10-06T05:00:00	4	ND	ND	ND	ND	ND	0.2	29	21.2	84.6	0	0
23575	2012-10-06T06:00:00	3	ND	ND	ND	ND	ND	1.2	48.1	20.7	85	0	0
23576	2012-10-06T07:00:00	9	ND	ND	ND	ND	ND	0.6	92.5	20.6	84.7	4	0
23577	2012-10-06T08:00:00	6	ND	ND	ND	ND	ND	1.3	150.7	20.8	84.7	47.9	0
23578	2012-10-06T09:00:00	19	ND	ND	ND	ND	ND	1.6	179.6	21	85.1	71	0
23579	2012-10-06T10:00:00	11	ND	ND	ND	ND	ND	1.4	186.7	21.9	79.8	290.9	0
23580	2012-10-06T11:00:00	7	ND	ND	ND	ND	ND	1	208.1	23.8	69	445.4	0
23581	2012-10-06T12:00:00	5	ND	ND	ND	ND	ND	0.6	220.5	25.6	62	611.1	0
23582	2012-10-06T13:00:00	3	ND	ND	ND	ND	ND	1.3	163.2	28	52.6	806.5	0
23583	2012-10-06T14:00:00	7	ND	ND	ND	ND	ND	0.5	111.1	27.6	53	202.5	0
23584	2012-10-06T15:00:00	19	ND	ND	ND	ND	ND	0.9	311.9	27.9	51.7	377.8	0
23585	2012-10-06T16:00:00	10	ND	ND	ND	ND	ND	2.2	305.9	28.7	48.2	423.7	0
23586	2012-10-06T17:00:00	5	ND	ND	ND	ND	ND	3.2	277.8	28.2	48.4	267.3	0
23587	2012-10-06T18:00:00	4	ND	ND	ND	ND	ND	4.2	274	26.5	53.1	58.4	0
23588	2012-10-06T19:00:00	11	ND	ND	ND	ND	ND	3.3	273.5	25.8	55	0.2	0
23589	2012-10-06T20:00:00	7	ND	ND	ND	ND	ND	0.9	85.6	25.1	61	0	0
23590	2012-10-06T21:00:00	16	ND	ND	ND	ND	ND	0.9	115.6	24.3	65.6	0	0
23591	2012-10-06T22:00:00	9	ND	ND	ND	ND	ND	2.1	236.6	24.6	63.2	0	0
23592	2012-10-06T23:00:00	27	ND	ND	ND	ND	ND	2	188	23.5	73.4	0	0
23593	2012-10-07T00:00:00	14	ND	ND	ND	ND	ND	1.4	154.9	23.1	74.3	0	0
23594	2012-10-07T01:00:00	14	ND	ND	ND	ND	ND	0.9	137.1	22.8	77.4	0	0
23595	2012-10-07T02:00:00	13	ND	ND	ND	ND	ND	0.7	112.2	22.1	83	0	0
23596	2012-10-07T03:00:00	13	ND	ND	ND	ND	ND	0.5	131	21.9	84	0	0
23597	2012-10-07T04:00:00	8	ND	ND	ND	ND	ND	0.8	134.7	21.7	84.4	0	0
23598	2012-10-07T05:00:00	7	ND	ND	ND	ND	ND	0.3	140.1	21.6	84.1	0	0
23599	2012-10-07T06:00:00	6	ND	ND	ND	ND	ND	0.8	70.9	21.6	84.2	0	0
23600	2012-10-07T07:00:00	20	ND	ND	ND	ND	ND	1	14.6	21.7	84.9	9	0.25
23601	2012-10-07T08:00:00	15	ND	ND	ND	ND	ND	0.7	51.2	21.1	91.8	56.6	3.3
23602	2012-10-07T09:00:00	32	ND	ND	ND	ND	ND	1.8	27.1	21.6	88.4	114.5	0
23603	2012-10-07T10:00:00	17	ND	ND	ND	ND	ND	1.8	20.2	22.5	82.8	306	0
23604	2012-10-07T11:00:00	9	ND	ND	ND	ND	ND	0.1	80.7	24.7	69.2	656.8	0
23605	2012-10-07T12:00:00	4	ND	ND	ND	ND	ND	1	102.9	26.5	60.3	659.7	0
23606	2012-10-07T13:00:00	2	ND	ND	ND	ND	ND	0.9	72.5	27.3	57.1	490.7	0
23607	2012-10-07T14:00:00	1	ND	ND	ND	ND	ND	1.6	48.7	28.2	53.5	625.8	0
23608	2012-10-07T15:00:00	1	ND	ND	ND	ND	ND	2.1	28.7	28.7	52.9	644.2	0
23609	2012-10-07T16:00:00	1	ND	ND	ND	ND	ND	2.2	19.2	29.4	50	517	0
23610	2012-10-07T17:00:00	3	ND	ND	ND	ND	ND	2	24.8	29.1	48.1	289.2	0
23611	2012-10-07T18:00:00	3	ND	ND	ND	ND	ND	1.7	34.9	27.9	53.3	50.9	0
23612	2012-10-07T19:00:00	7	ND	ND	ND	ND	ND	2.1	267.4	26.5	58	0	0
23613	2012-10-07T20:00:00	5	ND	ND	ND	ND	ND	1.7	298.5	25.8	60.1	0	0
23614	2012-10-07T21:00:00	21	ND	ND	ND	ND	ND	0.4	97.9	25.5	63.2	0	0
23615	2012-10-07T22:00:00	12	ND	ND	ND	ND	ND	0.9	129.6	24.7	67.5	0	0
23616	2012-10-07T23:00:00	38	ND	ND	ND	ND	ND	1	130.6	23.5	72.4	0	0
23617	2012-10-08T00:00:00	44	ND	ND	ND	ND	ND	1.2	199.5	22.9	75	0	0
23618	2012-10-08T01:00:00	39	ND	ND	ND	ND	ND	0.8	181.2	23.1	74.5	0	0
23619	2012-10-08T02:00:00	25	ND	ND	ND	ND	ND	0.6	127.4	22.8	76.8	0	0
23620	2012-10-08T03:00:00	41	ND	ND	ND	ND	ND	0.5	167.2	22.8	76.6	0	0
23621	2012-10-08T04:00:00	22	ND	ND	ND	ND	ND	0.7	100	22.3	78.7	0	0
23622	2012-10-08T05:00:00	38	ND	ND	ND	ND	ND	0.6	133.5	21.9	82.5	0	0.25
23623	2012-10-08T06:00:00	30	ND	ND	ND	ND	ND	0.7	178.5	21.6	85.8	0	0.25
23624	2012-10-08T07:00:00	27	ND	ND	ND	ND	ND	0.2	106.3	21.9	85	22.3	0
23625	2012-10-08T08:00:00	31	ND	ND	ND	ND	ND	0.5	64.5	22.5	81.8	77.7	0
23626	2012-10-08T09:00:00	71	ND	ND	ND	ND	ND	0.6	57.8	23.9	75.5	277.8	0
23627	2012-10-08T10:00:00	89	ND	ND	ND	ND	ND	1.4	96.4	25.3	68.9	380	0
23628	2012-10-08T11:00:00	72	ND	ND	ND	ND	ND	1.7	119.8	25.9	65.8	457.3	0
23629	2012-10-08T12:00:00	45	ND	ND	ND	ND	ND	0.9	105.8	27.2	60.3	733.6	0
23630	2012-10-08T13:00:00	46	ND	ND	ND	ND	ND	0.6	85.6	28.5	54.6	540.1	0
23631	2012-10-08T14:00:00	25	ND	ND	ND	ND	ND	0.5	52.4	29.7	49.2	602	0
23632	2012-10-08T15:00:00	26	ND	ND	ND	ND	ND	1.2	302.1	29.5	49.3	262.1	0
23633	2012-10-08T16:00:00	26	ND	ND	ND	ND	ND	1.6	275.9	29.6	48.1	296.1	0
23634	2012-10-08T17:00:00	30	ND	ND	ND	ND	ND	1.4	297.2	29.1	49.9	131.8	0
23635	2012-10-08T18:00:00	17	ND	ND	ND	ND	ND	2.4	274	27.6	53.5	33.5	0
23636	2012-10-08T19:00:00	23	ND	ND	ND	ND	ND	1.8	268.6	26.6	55.3	0	0
23637	2012-10-08T20:00:00	13	ND	ND	ND	ND	ND	2.5	266	25.8	58.6	0	0
23638	2012-10-08T21:00:00	22	ND	ND	ND	ND	ND	0.2	339.9	25.2	62.1	0	0
23639	2012-10-08T22:00:00	48	ND	ND	ND	ND	ND	0.3	92.7	24.5	65.4	0	0
23640	2012-10-08T23:00:00	34	ND	ND	ND	ND	ND	0.7	268.3	24.8	62.8	0	0
23641	2012-10-09T00:00:00	18	ND	ND	ND	ND	ND	0.7	121.6	23.3	73.2	0	0
23642	2012-10-09T01:00:00	34	ND	ND	ND	ND	ND	0.7	185.6	22.5	77.5	0	0
23643	2012-10-09T02:00:00	29	ND	ND	ND	ND	ND	1.1	202.3	22.5	77.7	0	0
23644	2012-10-09T03:00:00	27	ND	ND	ND	ND	ND	0.9	141.3	22.5	77.8	0	0
23645	2012-10-09T04:00:00	33	ND	ND	ND	ND	ND	0.8	148.4	22	80.2	0	0
23646	2012-10-09T05:00:00	27	ND	ND	ND	ND	ND	0.4	125.6	22.1	80.6	0	0
23647	2012-10-09T06:00:00	30	ND	ND	ND	ND	ND	0.7	69.6	21.9	80.9	1.4	0
23648	2012-10-09T07:00:00	55	ND	ND	ND	ND	ND	0.1	107.4	22.2	80	43.3	0
23649	2012-10-09T08:00:00	53	ND	ND	ND	ND	ND	0.7	25.3	23.1	75.8	115.3	0
23650	2012-10-09T09:00:00	84	ND	ND	ND	ND	ND	1.1	85.5	24.7	69.5	430.9	0
23651	2012-10-09T10:00:00	44	ND	ND	ND	ND	ND	1.4	105.3	26.2	63.2	616.5	0
23652	2012-10-09T11:00:00	35	ND	ND	ND	ND	ND	1	114.5	27.8	56	793.7	0
23653	2012-10-09T12:00:00	32	ND	ND	ND	ND	ND	1.5	293.2	28	51.9	462.3	0
23654	2012-10-09T13:00:00	17	ND	ND	ND	ND	ND	1.4	287.1	30.3	42.1	950.4	0
23655	2012-10-09T14:00:00	9	ND	ND	ND	ND	ND	3.8	282.7	31.1	35.2	736.8	0
23656	2012-10-09T15:00:00	9	ND	ND	ND	ND	ND	3.6	284.2	30.7	34.7	479.6	0
23657	2012-10-09T16:00:00	6	ND	ND	ND	ND	ND	4.2	278.4	30.5	39.8	550	0
23658	2012-10-09T17:00:00	14	ND	ND	ND	ND	ND	4.3	281.1	28.8	45.4	260.4	0
23659	2012-10-09T18:00:00	8	ND	ND	ND	ND	ND	4.3	276.8	26.9	51	49.9	0
23660	2012-10-09T19:00:00	11	ND	ND	ND	ND	ND	4.3	271.4	26.1	52.8	0	0
23661	2012-10-09T20:00:00	8	ND	ND	ND	ND	ND	3.9	266.1	25.8	54.5	0	0
23662	2012-10-09T21:00:00	5	ND	ND	ND	ND	ND	2.9	263.5	25.3	57.5	0	0
23663	2012-10-09T22:00:00	15	ND	ND	ND	ND	ND	1.5	262.9	24.9	59.5	0	0
23664	2012-10-09T23:00:00	15	ND	ND	ND	ND	ND	1.3	286.3	24.7	61.3	0	0
23665	2012-10-10T00:00:00	12	ND	ND	ND	ND	ND	0.8	89.1	23.8	66.5	0	0
23666	2012-10-10T01:00:00	26	ND	ND	ND	ND	ND	1	144.4	23	70.5	0	0
23667	2012-10-10T02:00:00	14	ND	ND	ND	ND	ND	0.5	169.6	22.6	73.1	0	0
23668	2012-10-10T03:00:00	20	ND	ND	ND	ND	ND	1.1	202.7	22.7	71.7	0	0
23669	2012-10-10T04:00:00	12	ND	ND	ND	ND	ND	1	179.8	22.4	71.9	0	0
23670	2012-10-10T05:00:00	26	ND	ND	ND	ND	ND	0.7	154.9	21.9	74.4	0	0
23671	2012-10-10T06:00:00	24	ND	ND	ND	ND	ND	0.4	168.6	21.7	75.7	0	0
23672	2012-10-10T07:00:00	29	ND	ND	ND	ND	ND	0.5	233.7	22.2	71.3	27.7	0
23673	2012-10-10T08:00:00	15	ND	ND	ND	ND	ND	0.3	175.5	23.5	66.5	242.9	0
23674	2012-10-10T09:00:00	34	ND	ND	ND	ND	ND	1.3	133.4	25.6	60.2	513.7	0
23675	2012-10-10T10:00:00	37	ND	ND	ND	ND	ND	0.8	147.9	26.7	56.1	490.5	0
23676	2012-10-10T11:00:00	36	ND	ND	ND	ND	ND	1.4	137.3	28.1	51.1	786.3	0
23677	2012-10-10T12:00:00	20	ND	ND	ND	ND	ND	1	133	29.6	45.7	822.6	0
23678	2012-10-10T13:00:00	12	ND	ND	ND	ND	ND	1.2	322.1	30	44.6	539.4	0
23679	2012-10-10T14:00:00	6	ND	ND	ND	ND	ND	2.5	305.3	30.7	42.1	672.6	0
23680	2012-10-10T15:00:00	3	ND	ND	ND	ND	ND	4	276.4	30.9	40.4	701.6	0
23681	2012-10-10T16:00:00	2	ND	ND	ND	ND	ND	4.3	283.7	30.4	40.3	519	0
23682	2012-10-10T17:00:00	24	ND	ND	ND	ND	ND	4.3	288.9	29.1	42.9	245.2	0
23683	2012-10-10T18:00:00	17	ND	ND	ND	ND	ND	3.6	286.8	27.8	46.9	61.1	0
23684	2012-10-10T19:00:00	24	ND	ND	ND	ND	ND	4.5	274.5	26.5	51.9	0	0
23685	2012-10-10T20:00:00	14	ND	ND	ND	ND	ND	2.8	286.5	26.2	52	0	0
23686	2012-10-10T21:00:00	8	ND	ND	ND	ND	ND	2.8	274	25.5	57	0	0
23687	2012-10-10T22:00:00	5	ND	ND	ND	ND	ND	0.9	332.7	24.6	61.3	0	0
23688	2012-10-10T23:00:00	4	ND	ND	ND	ND	ND	1.3	189	24.3	62.9	0	0
23689	2012-10-11T00:00:00	3	ND	ND	ND	ND	ND	0.8	162.1	23.7	67.4	0	0
23690	2012-10-11T01:00:00	19	ND	ND	ND	ND	ND	1.3	155.8	22.8	72.7	0	0
23691	2012-10-11T02:00:00	23	ND	ND	ND	ND	ND	0.9	140.4	22.4	74.5	0	0
23692	2012-10-11T03:00:00	49	ND	ND	ND	ND	ND	0.4	144.2	22.4	74.8	0	0
23693	2012-10-11T04:00:00	49	ND	ND	ND	ND	ND	0.5	140.8	22.2	75.3	0	0
23694	2012-10-11T05:00:00	51	ND	ND	ND	ND	ND	0.8	149.4	22	74.9	0	0
23695	2012-10-11T06:00:00	51	ND	ND	ND	ND	ND	0.3	198.6	22	74.2	1.6	0
23696	2012-10-11T07:00:00	42	ND	ND	ND	ND	ND	0.3	251	22.9	66.9	101	0
23697	2012-10-11T08:00:00	53	ND	ND	ND	ND	ND	0.5	60.8	23.6	68.4	166.6	0
23698	2012-10-11T09:00:00	57	ND	ND	ND	ND	ND	0.4	261.5	24.3	64.1	120.9	0
23699	2012-10-11T10:00:00	30	ND	ND	ND	ND	ND	0.7	305.2	25.4	57.9	276.4	0
23700	2012-10-11T11:00:00	26	ND	ND	ND	ND	ND	0.7	259.7	26.3	53.2	410.4	0
23701	2012-10-11T12:00:00	13	ND	ND	ND	ND	ND	0.1	153	27.7	48.5	561.4	0
23702	2012-10-11T13:00:00	6	ND	ND	ND	ND	ND	3.2	275.7	28.2	46.5	522.2	0
23703	2012-10-11T14:00:00	3	ND	ND	ND	ND	ND	4.3	284.7	27.8	47	533.8	0
23704	2012-10-11T15:00:00	2	ND	ND	ND	ND	ND	3.5	297.1	28.1	46.6	465.9	0
23705	2012-10-11T16:00:00	2	ND	ND	ND	ND	ND	4.3	297.3	27.4	46.4	291.1	0
23706	2012-10-11T17:00:00	11	ND	ND	ND	ND	ND	4.7	288.5	26.8	42.7	145.3	0
23707	2012-10-11T18:00:00	6	ND	ND	ND	ND	ND	3.9	272.8	26.3	43.4	30.6	0
23708	2012-10-11T19:00:00	11	ND	ND	ND	ND	ND	2.7	234.3	25.1	49	0	0
23709	2012-10-11T20:00:00	7	ND	ND	ND	ND	ND	3.1	249.2	24.5	49.3	0	0
23710	2012-10-11T21:00:00	5	ND	ND	ND	ND	ND	2.3	255	24.4	49.6	0	0
23711	2012-10-11T22:00:00	4	ND	ND	ND	ND	ND	0.9	213.4	23.9	59.5	0	0
23712	2012-10-11T23:00:00	9	ND	ND	ND	ND	ND	1.3	266.2	23.4	60.3	0	0
23713	2012-10-12T00:00:00	5	ND	ND	ND	ND	ND	0.4	232.6	23.2	61.4	0	0
23714	2012-10-12T01:00:00	5	ND	ND	ND	ND	ND	0.8	131.6	22.9	64.9	0	0
23715	2012-10-12T02:00:00	20	ND	ND	ND	ND	ND	0.4	27.7	22.6	65	0	0
23716	2012-10-12T03:00:00	48	ND	ND	ND	ND	ND	0.6	248.9	22.7	65.3	0	0
23717	2012-10-12T04:00:00	35	ND	ND	ND	ND	ND	1.1	152.3	22.3	67.9	0	0
23718	2012-10-12T05:00:00	47	ND	ND	ND	ND	ND	0.5	136.4	21.4	73.8	0	0
23719	2012-10-12T06:00:00	24	ND	ND	ND	ND	ND	0.7	148.6	21	79.3	0	0
23720	2012-10-12T07:00:00	53	ND	ND	ND	ND	ND	0.7	225.2	21.4	75.8	67.8	0
23721	2012-10-12T08:00:00	47	ND	ND	ND	ND	ND	0.9	74.2	23.7	65.5	273.2	0
23722	2012-10-12T09:00:00	59	ND	ND	ND	ND	ND	1.2	72.8	24.1	65.9	276.8	0
23723	2012-10-12T10:00:00	42	ND	ND	ND	ND	ND	0.6	107.6	25.6	58.3	579.4	0
23724	2012-10-12T11:00:00	40	ND	ND	ND	ND	ND	0.9	169.3	27.7	49	637.4	0
23725	2012-10-12T12:00:00	31	ND	ND	ND	ND	ND	0.1	36.7	28.1	47.8	339.3	0
23726	2012-10-12T13:00:00	36	ND	ND	ND	ND	ND	0.9	288.5	28.9	45.4	629.2	0
23727	2012-10-12T14:00:00	21	ND	ND	ND	ND	ND	1	11.6	29.7	43.2	394.3	0
23728	2012-10-12T15:00:00	14	ND	ND	ND	ND	ND	1	290.8	30.3	40.4	409.1	0
23729	2012-10-12T16:00:00	ND	ND	ND	ND	ND	ND	1.2	57.8	24	76.8	71.3	53.59
23730	2012-10-12T17:00:00	140	ND	ND	ND	ND	ND	2.1	201.2	22.8	80	37.8	0
23731	2012-10-12T18:00:00	72	ND	ND	ND	ND	ND	1.4	205.6	23.3	72.8	3.5	0
23732	2012-10-12T19:00:00	56	ND	ND	ND	ND	ND	3.2	277.4	24.8	62.7	0	0
23733	2012-10-12T20:00:00	32	ND	ND	ND	ND	ND	1.5	286.3	24.3	65	0	0
23734	2012-10-12T21:00:00	50	ND	ND	ND	ND	ND	0.3	54.5	23.5	70.1	0	0
23735	2012-10-12T22:00:00	60	ND	ND	ND	ND	ND	0.7	243.5	23.5	70.4	0	0
23736	2012-10-12T23:00:00	31	ND	ND	ND	ND	ND	1.8	268.5	23.3	68.9	0	0
23737	2012-10-13T00:00:00	17	ND	ND	ND	ND	ND	1.6	253.3	23.1	66.6	0	0
23738	2012-10-13T01:00:00	9	ND	ND	ND	ND	ND	0.8	202.6	22.6	74.3	0	0
23739	2012-10-13T02:00:00	26	ND	ND	ND	ND	ND	1.3	205.7	22.1	80.1	0	0
23740	2012-10-13T03:00:00	46	ND	ND	ND	ND	ND	1	179.1	22.2	79.5	0	0
23741	2012-10-13T04:00:00	46	ND	ND	ND	ND	ND	0.5	123.4	22.2	78.3	0	0
23742	2012-10-13T05:00:00	44	ND	ND	ND	ND	ND	0.4	120.6	22.1	76.6	0	0
23743	2012-10-13T06:00:00	42	ND	ND	ND	ND	ND	0.3	224.3	22	76.8	0.1	0
23744	2012-10-13T07:00:00	50	ND	ND	ND	ND	ND	0.6	238	21.8	74.4	25.1	0
23745	2012-10-13T08:00:00	35	ND	ND	ND	ND	ND	0.5	168.2	22.9	70.5	235.2	0
23746	2012-10-13T09:00:00	46	ND	ND	ND	ND	ND	1.5	130.7	24.8	65.3	524.9	0
23747	2012-10-13T10:00:00	47	ND	ND	ND	ND	ND	1.2	134.1	25.8	60.6	659.7	0
23748	2012-10-13T11:00:00	34	ND	ND	ND	ND	ND	0.8	165.6	27.4	53.5	836.9	0
23749	2012-10-13T12:00:00	24	ND	ND	ND	ND	ND	1.1	77.8	29	48.4	752.1	0
23750	2012-10-13T13:00:00	41	ND	ND	ND	ND	ND	1.2	0.1	29.4	47.7	588.3	0
23751	2012-10-13T14:00:00	29	ND	ND	ND	ND	ND	1.4	322.9	30.1	45.2	558.6	0
23752	2012-10-13T15:00:00	23	ND	ND	ND	ND	ND	3.9	276.7	30.4	42.5	704.6	0
23753	2012-10-13T16:00:00	25	ND	ND	ND	ND	ND	4.6	278.6	29.8	44.3	505.7	0
23754	2012-10-13T17:00:00	33	ND	ND	ND	ND	ND	4.8	281.1	28.2	49.4	260.2	0
23755	2012-10-13T18:00:00	25	ND	ND	ND	ND	ND	4.6	270	26.9	53.2	40.7	0
23756	2012-10-13T19:00:00	32	ND	ND	ND	ND	ND	4.9	272.7	26	56.4	0	0
23757	2012-10-13T20:00:00	16	ND	ND	ND	ND	ND	4	277.1	25.6	57.2	0	0
23758	2012-10-13T21:00:00	8	ND	ND	ND	ND	ND	2.9	279.4	25.7	56.6	0	0
23759	2012-10-13T22:00:00	5	ND	ND	ND	ND	ND	2.4	238.8	24.9	61.7	0	0
23760	2012-10-13T23:00:00	4	ND	ND	ND	ND	ND	1.9	242.6	24.8	60.6	0	0
23761	2012-10-14T00:00:00	3	ND	ND	ND	ND	ND	2.1	193.7	24.2	65.1	0	0
23762	2012-10-14T01:00:00	8	ND	ND	ND	ND	ND	2.3	187.8	23	73.7	0	0
23763	2012-10-14T02:00:00	29	ND	ND	ND	ND	ND	1.8	178	21.4	85.6	0	1.52
23764	2012-10-14T03:00:00	21	ND	ND	ND	ND	ND	0.6	170.7	20.9	91.7	0	1.78
23765	2012-10-14T04:00:00	11	ND	ND	ND	ND	ND	0.6	148.2	20.8	93.2	0	2.54
23766	2012-10-14T05:00:00	8	ND	ND	ND	ND	ND	0.4	213.6	20.9	91.5	0	5.59
23767	2012-10-14T06:00:00	5	ND	ND	ND	ND	ND	0.2	281.7	20.4	93.1	0	7.37
23768	2012-10-14T07:00:00	4	ND	ND	ND	ND	ND	0.6	88	20.4	94.2	0	4.06
23769	2012-10-14T08:00:00	3	ND	ND	ND	ND	ND	1.2	95.1	20.1	94.7	1.5	9.65
23770	2012-10-14T09:00:00	4	ND	ND	ND	ND	ND	0.2	15	18.9	99	35.2	8.64
23771	2012-10-14T10:00:00	3	ND	ND	ND	ND	ND	0.7	307	20.1	95.7	124.3	0.25
23772	2012-10-14T11:00:00	4	ND	ND	ND	ND	ND	0.7	125.2	21.8	82.1	289.2	0.25
23773	2012-10-14T12:00:00	2	ND	ND	ND	ND	ND	0.7	161.4	23.1	74.5	377	0
23774	2012-10-14T13:00:00	2	ND	ND	ND	ND	ND	1.1	79.7	23.5	72.7	355.6	0
23775	2012-10-14T14:00:00	3	ND	ND	ND	ND	ND	0.7	65.4	23.9	70	248.4	0
23776	2012-10-14T15:00:00	1	ND	ND	ND	ND	ND	0.4	31.7	24.7	67.6	308.3	0
23777	2012-10-14T16:00:00	1	ND	ND	ND	ND	ND	0.7	2.7	25.9	63.5	485.8	0
23778	2012-10-14T17:00:00	ND	ND	ND	ND	ND	ND	0.7	319.1	26.2	60	246.5	0
23779	2012-10-14T18:00:00	1	ND	ND	ND	ND	ND	2.3	301.6	24.8	60.1	29.3	0
23780	2012-10-14T19:00:00	11	ND	ND	ND	ND	ND	0.7	330	24	63.4	0	0
23781	2012-10-14T20:00:00	6	ND	ND	ND	ND	ND	0.2	282.7	23.7	66.7	0	0
23782	2012-10-14T21:00:00	4	ND	ND	ND	ND	ND	1.5	242.3	23.1	67.4	0	0
23783	2012-10-14T22:00:00	11	ND	ND	ND	ND	ND	0.6	315	22.4	73.6	0	0
23784	2012-10-14T23:00:00	24	ND	ND	ND	ND	ND	0.2	46.8	21.9	77.7	0	0
23785	2012-10-15T00:00:00	24	ND	ND	ND	ND	ND	0.1	70.3	21.4	79.9	0	0
23786	2012-10-15T01:00:00	46	ND	ND	ND	ND	ND	0.3	152.1	21.1	81.6	0	0
23787	2012-10-15T02:00:00	37	ND	ND	ND	ND	ND	0	122.6	20.9	82.6	0	0
23788	2012-10-15T03:00:00	31	ND	ND	ND	ND	ND	0.3	188.3	21.1	81.8	0	0
23789	2012-10-15T04:00:00	18	ND	ND	ND	ND	ND	0.3	194.9	21	80.8	0	0
23790	2012-10-15T05:00:00	29	ND	ND	ND	ND	ND	0.6	139.8	20.5	83.8	0	0
23791	2012-10-15T06:00:00	15	ND	ND	ND	ND	ND	0.3	153.7	20.1	86.4	0.1	0
23792	2012-10-15T07:00:00	28	ND	ND	ND	ND	ND	0.4	156	20.5	86.1	26.1	0
23793	2012-10-15T08:00:00	17	ND	ND	ND	ND	ND	0.3	168.6	21.5	81.3	117	0
23794	2012-10-15T09:00:00	20	ND	ND	ND	ND	ND	0.7	126.5	22.9	74.2	325.3	0
23795	2012-10-15T10:00:00	11	ND	ND	ND	ND	ND	0.5	208.3	25.4	63.3	743.8	0
23796	2012-10-15T11:00:00	11	ND	ND	ND	ND	ND	0.6	118.3	27.3	55.9	701.4	0
23797	2012-10-15T12:00:00	6	ND	ND	ND	ND	ND	1.2	297.5	28.1	51.4	757.6	0
23798	2012-10-15T13:00:00	15	ND	ND	ND	ND	ND	0.8	344.6	29.3	46.5	879.5	0
23799	2012-10-15T14:00:00	10	ND	ND	ND	ND	ND	0.8	327.5	30	44.4	529.7	0
23800	2012-10-15T15:00:00	7	ND	ND	ND	ND	ND	4.4	279	29.6	46.2	664.9	0
23801	2012-10-15T16:00:00	11	ND	ND	ND	ND	ND	4.7	278.7	26.8	52.7	167.4	0
23802	2012-10-15T17:00:00	11	ND	ND	ND	ND	ND	3.8	282.5	26.5	52	110.2	0
23803	2012-10-15T18:00:00	7	ND	ND	ND	ND	ND	3.7	280.5	25.7	56.5	38	0
23804	2012-10-15T19:00:00	5	ND	ND	ND	ND	ND	3.3	264.7	24.7	61.2	0	0
23805	2012-10-15T20:00:00	4	ND	ND	ND	ND	ND	2.5	259	24.5	61.8	0	0
23806	2012-10-15T21:00:00	3	ND	ND	ND	ND	ND	0.9	265	24.4	62.6	0	0
23807	2012-10-15T22:00:00	3	ND	ND	ND	ND	ND	1.3	253.9	24.3	64.1	0	0
23808	2012-10-15T23:00:00	15	ND	ND	ND	ND	ND	1.2	194.6	23.5	69.3	0	0
23809	2012-10-16T00:00:00	30	ND	ND	ND	ND	ND	0.7	132.7	22.5	75.9	0	0
23810	2012-10-16T01:00:00	20	ND	ND	ND	ND	ND	0.3	149.9	22.5	75.5	0	0
23811	2012-10-16T02:00:00	11	ND	ND	ND	ND	ND	0.5	166	22.6	75.2	0	0
23812	2012-10-16T03:00:00	7	ND	ND	ND	ND	ND	0.9	88.7	21.7	81.6	0	0.25
23813	2012-10-16T04:00:00	4	ND	ND	ND	ND	ND	0.7	110.6	20.7	88.1	0	0.51
23814	2012-10-16T05:00:00	4	ND	ND	ND	ND	ND	0.7	159.8	20.4	91.6	0	3.3
23815	2012-10-16T06:00:00	3	ND	ND	ND	ND	ND	1	158.9	20.2	93.5	0	0.25
23816	2012-10-16T07:00:00	12	ND	ND	ND	ND	ND	0.8	166.9	20.3	92.4	21.7	0
23817	2012-10-16T08:00:00	7	ND	ND	ND	ND	ND	0.7	174.8	21.1	87.6	112	0
23818	2012-10-16T09:00:00	31	ND	ND	ND	ND	ND	0.5	7	21.3	86.2	24.6	3.05
23819	2012-10-16T10:00:00	16	ND	ND	ND	ND	ND	0.9	303.5	20.2	94.4	50.7	14.73
23820	2012-10-16T11:00:00	10	ND	ND	ND	ND	ND	0.7	325.5	21.1	89.3	152.3	1.27
23821	2012-10-16T12:00:00	6	ND	ND	ND	ND	ND	2	15.6	20.8	89.2	108.6	0.76
23822	2012-10-16T13:00:00	5	ND	ND	ND	ND	ND	2.1	7.7	20.1	90	156.1	2.79
23823	2012-10-16T14:00:00	4	ND	ND	ND	ND	ND	1.4	5.2	20.7	88.9	182.6	1.27
23824	2012-10-16T15:00:00	19	ND	ND	ND	ND	ND	0.7	28.5	21.3	87	112.1	0.25
23825	2012-10-16T16:00:00	11	ND	ND	ND	ND	ND	0.7	75.5	21.3	87.9	94.4	0.51
23826	2012-10-16T17:00:00	20	ND	ND	ND	ND	ND	0.8	95.2	21.2	87.9	59.9	0.25
23827	2012-10-16T18:00:00	12	ND	ND	ND	ND	ND	0.7	82.7	21.1	87.2	17.4	0
23828	2012-10-16T19:00:00	38	ND	ND	ND	ND	ND	0.5	61	21	87	0	0
23829	2012-10-16T20:00:00	50	ND	ND	ND	ND	ND	0.7	69.5	20.9	88.7	0	0
23830	2012-10-16T21:00:00	55	ND	ND	ND	ND	ND	0.7	17.3	20.8	89.8	0	0
23831	2012-10-16T22:00:00	56	ND	ND	ND	ND	ND	0.2	194.3	20.8	89.9	0	0
23832	2012-10-16T23:00:00	57	ND	ND	ND	ND	ND	1.2	178.9	20.8	89.7	0	0
23833	2012-10-17T00:00:00	30	ND	ND	ND	ND	ND	0.4	234.6	20.6	87.4	0	0
23834	2012-10-17T01:00:00	17	ND	ND	ND	ND	ND	0.2	243.3	20.6	85.2	0	0
23835	2012-10-17T02:00:00	9	ND	ND	ND	ND	ND	0.4	207.2	20.4	84.2	0	0
23836	2012-10-17T03:00:00	15	ND	ND	ND	ND	ND	0.1	145.3	20.3	88.4	0	0
23837	2012-10-17T04:00:00	19	ND	ND	ND	ND	ND	0.6	167.3	20.1	90	0	0
23838	2012-10-17T05:00:00	11	ND	ND	ND	ND	ND	0.2	232.5	20	86.9	0	0
23839	2012-10-17T06:00:00	7	ND	ND	ND	ND	ND	0.3	243	19.9	85.4	0	0
23840	2012-10-17T07:00:00	17	ND	ND	ND	ND	ND	0.4	214	20.1	83.7	42.8	0
23841	2012-10-17T08:00:00	23	ND	ND	ND	ND	ND	0.6	206.4	20.9	84.6	149.5	0
23842	2012-10-17T09:00:00	38	ND	ND	ND	ND	ND	0.5	183	22	78.4	250.9	0
23843	2012-10-17T10:00:00	21	ND	ND	ND	ND	ND	0.2	179.9	23.3	70.5	353.2	0
23844	2012-10-17T11:00:00	66	ND	ND	ND	ND	ND	1.3	64.5	23.2	73.1	180.3	0
23845	2012-10-17T12:00:00	57	ND	ND	ND	ND	ND	0.9	52	23.7	72.6	314.7	0
23846	2012-10-17T13:00:00	51	ND	ND	ND	ND	ND	0.7	112.3	25	64.9	514	0
23847	2012-10-17T14:00:00	26	ND	ND	ND	ND	ND	0.5	109.2	26.3	60	591.4	0
23848	2012-10-17T15:00:00	58	ND	ND	ND	ND	ND	0.9	117.1	27.2	56.7	470.9	0
23849	2012-10-17T16:00:00	44	ND	ND	ND	ND	ND	0.8	87.6	27.1	54.6	282.5	0
23850	2012-10-17T17:00:00	66	ND	ND	ND	ND	ND	0.7	351.3	26.6	56	50.7	0
23851	2012-10-17T18:00:00	62	ND	ND	ND	ND	ND	1.3	258.6	25.4	64.6	22	0
23852	2012-10-17T19:00:00	60	ND	ND	ND	ND	ND	0.9	299.2	25	64.2	0	0
23853	2012-10-17T20:00:00	31	ND	ND	ND	ND	ND	1.4	279.3	24.6	64	0	0
23854	2012-10-17T21:00:00	20	ND	ND	ND	ND	ND	1.2	280.9	24.2	65.2	0	0
23855	2012-10-17T22:00:00	10	ND	ND	ND	ND	ND	2.6	276.9	23.9	66.2	0	0
23856	2012-10-17T23:00:00	7	ND	ND	ND	ND	ND	0.4	329.1	23.2	72.4	0	0
23857	2012-10-18T00:00:00	26	ND	ND	ND	ND	ND	1.3	163.2	23	73.6	0	0
23858	2012-10-18T01:00:00	13	ND	ND	ND	ND	ND	0.8	131.2	22.2	77.3	0	0
23859	2012-10-18T02:00:00	8	ND	ND	ND	ND	ND	0.6	185	21.6	82.8	0	0
23860	2012-10-18T03:00:00	6	ND	ND	ND	ND	ND	1.1	165.5	21.1	85.3	0	0
23861	2012-10-18T04:00:00	5	ND	ND	ND	ND	ND	1	137.2	20.8	87.1	0	0
23862	2012-10-18T05:00:00	4	ND	ND	ND	ND	ND	0.3	155.1	20.5	86.3	0	0
23863	2012-10-18T06:00:00	4	ND	ND	ND	ND	ND	0.4	98.1	20.5	88.6	0	0
23864	2012-10-18T07:00:00	29	ND	ND	ND	ND	ND	0.3	70.1	20.3	91.6	0.7	1.52
23865	2012-10-18T08:00:00	27	ND	ND	ND	ND	ND	0.7	70.3	20	93.7	6.4	4.32
23866	2012-10-18T09:00:00	30	ND	ND	ND	ND	ND	1	66.3	20.2	93	76.6	0.51
23867	2012-10-18T10:00:00	17	ND	ND	ND	ND	ND	1.7	46.9	20.5	90.3	124.6	0.51
23868	2012-10-18T11:00:00	18	ND	ND	ND	ND	ND	0.9	38.4	20.6	90.1	147.5	1.02
23869	2012-10-18T12:00:00	10	ND	ND	ND	ND	ND	0.5	65.7	21.4	86.6	242.4	0.25
23870	2012-10-18T13:00:00	24	ND	ND	ND	ND	ND	1	121.7	21.8	84.6	96	0
23871	2012-10-18T14:00:00	20	ND	ND	ND	ND	ND	1.3	135.9	20.9	90.9	35.4	3.05
23872	2012-10-18T15:00:00	32	ND	ND	ND	ND	ND	1.3	160.3	20.8	91.5	70.7	5.08
23873	2012-10-18T16:00:00	41	ND	ND	ND	ND	ND	1	171.9	21	89.3	64.9	0.25
23874	2012-10-18T17:00:00	61	ND	ND	ND	ND	ND	1.2	180.9	21.2	87	39.2	0
23875	2012-10-18T18:00:00	32	ND	ND	ND	ND	ND	1.2	199.8	21	85.4	9.2	0
23876	2012-10-18T19:00:00	43	ND	ND	ND	ND	ND	1	220.6	21.2	84	0	0
23877	2012-10-18T20:00:00	26	ND	ND	ND	ND	ND	0.5	248.8	21.4	81.9	0	0
23878	2012-10-18T21:00:00	49	ND	ND	ND	ND	ND	0.1	68.9	21.4	82.5	0	0
23879	2012-10-18T22:00:00	65	ND	ND	ND	ND	ND	0.1	94.3	20.8	89.1	0	0
23880	2012-10-18T23:00:00	60	ND	ND	ND	ND	ND	0.1	146.3	20.6	88.9	0	0
23881	2012-10-19T00:00:00	44	ND	ND	ND	ND	ND	0.1	149.8	20.2	89.4	0	0
23882	2012-10-19T01:00:00	38	ND	ND	ND	ND	ND	0	100.6	20.1	89.6	0	0
23883	2012-10-19T02:00:00	20	ND	ND	ND	ND	ND	0.2	62.8	19.9	92.2	0	0.51
23884	2012-10-19T03:00:00	33	ND	ND	ND	ND	ND	0.3	73.4	19.7	94.3	0	0.51
23885	2012-10-19T04:00:00	19	ND	ND	ND	ND	ND	0.5	91.4	19.5	95.1	0	1.52
23886	2012-10-19T05:00:00	25	ND	ND	ND	ND	ND	0.5	126.2	19.4	95.5	0	0.51
23887	2012-10-19T06:00:00	14	ND	ND	ND	ND	ND	0.4	165.7	19.5	95.6	0	0
23888	2012-10-19T07:00:00	32	ND	ND	ND	ND	ND	0.9	148.6	19.4	93.9	24.8	0
23889	2012-10-19T08:00:00	30	ND	ND	ND	ND	ND	1	165.1	20	91.1	77.5	0
23890	2012-10-19T09:00:00	64	ND	ND	ND	ND	ND	1.2	177	20.8	86.7	182.6	0
23891	2012-10-19T10:00:00	41	ND	ND	ND	ND	ND	0.6	161	21.9	79.9	363.2	0
23892	2012-10-19T11:00:00	35	ND	ND	ND	ND	ND	0.4	121.2	23.8	69.1	540.3	0
23893	2012-10-19T12:00:00	19	ND	ND	ND	ND	ND	0.7	109	24.9	64.2	496.9	0
23894	2012-10-19T13:00:00	42	ND	ND	ND	ND	ND	1.4	56.1	25.3	63.4	507	0
23895	2012-10-19T14:00:00	35	ND	ND	ND	ND	ND	1.3	63.4	25.9	61	445.4	0
23896	2012-10-19T15:00:00	42	ND	ND	ND	ND	ND	1.4	41.3	25.9	60.9	317.5	0
23897	2012-10-19T16:00:00	22	ND	ND	ND	ND	ND	1.5	44.9	25.7	62.4	307.4	0
23898	2012-10-19T17:00:00	49	ND	ND	ND	ND	ND	1.2	52.8	25.5	63.3	157.4	0
23899	2012-10-19T18:00:00	57	ND	ND	ND	ND	ND	1.3	46.8	24.9	65.6	23.7	0
23900	2012-10-19T19:00:00	82	ND	ND	ND	ND	ND	1.3	17.9	24.1	68.4	0	0
23901	2012-10-19T20:00:00	96	ND	ND	ND	ND	ND	0.6	348.4	23.6	70.8	0	0
23902	2012-10-19T21:00:00	101	ND	ND	ND	ND	ND	0.9	261.5	23	74.8	0	0
23903	2012-10-19T22:00:00	61	ND	ND	ND	ND	ND	0.7	244.7	22.7	72.7	0	0
23904	2012-10-19T23:00:00	84	ND	ND	ND	ND	ND	1.1	189.1	22.1	80.1	0	0
23905	2012-10-20T00:00:00	67	ND	ND	ND	ND	ND	1	198.2	21.8	81.3	0	0
23906	2012-10-20T01:00:00	70	ND	ND	ND	ND	ND	0.4	188.7	21.8	80.3	0	0
23907	2012-10-20T02:00:00	54	ND	ND	ND	ND	ND	0	104.6	21.8	79.4	0	0
23908	2012-10-20T03:00:00	58	ND	ND	ND	ND	ND	0.1	36.1	21.5	81.8	0	0
23909	2012-10-20T04:00:00	44	ND	ND	ND	ND	ND	0.2	66.1	20.9	84.6	0	0
23910	2012-10-20T05:00:00	51	ND	ND	ND	ND	ND	0	191.3	21	80.9	0	0
23911	2012-10-20T06:00:00	42	ND	ND	ND	ND	ND	0.1	124.7	20.8	80.5	0	0
23912	2012-10-20T07:00:00	68	ND	ND	ND	ND	ND	0.2	238.4	20.7	82.1	39.3	0
23913	2012-10-20T08:00:00	61	ND	ND	ND	ND	ND	0.2	207.9	21.5	73.9	121.2	0
23914	2012-10-20T09:00:00	80	ND	ND	ND	ND	ND	0.6	158.7	22.4	75.2	245.9	0
23915	2012-10-20T10:00:00	45	ND	ND	ND	ND	ND	0.5	142	24.2	67.6	544.8	0
23916	2012-10-20T11:00:00	62	ND	ND	ND	ND	ND	0.8	172.3	25.3	63.4	497	0
23917	2012-10-20T12:00:00	46	ND	ND	ND	ND	ND	0.6	114.3	26.7	56.7	682.2	0
23918	2012-10-20T13:00:00	65	ND	ND	ND	ND	ND	1.1	76.5	28.5	50.1	869.9	0
23919	2012-10-20T14:00:00	56	ND	ND	ND	ND	ND	1.5	78	29.3	48.4	750.2	0
23920	2012-10-20T15:00:00	74	ND	ND	ND	ND	ND	1.8	35.2	29.9	47.5	568.2	0
23921	2012-10-20T16:00:00	51	ND	ND	ND	ND	ND	1.9	322.5	29.2	48.7	341.3	0
23922	2012-10-20T17:00:00	49	ND	ND	ND	ND	ND	4.6	289.1	27.7	47.5	267.4	0
23923	2012-10-20T18:00:00	31	ND	ND	ND	ND	ND	3.5	276.1	26.4	51.5	33.5	0
23924	2012-10-20T19:00:00	38	ND	ND	ND	ND	ND	3	275.6	25.5	53.9	0	0
23925	2012-10-20T20:00:00	21	ND	ND	ND	ND	ND	2.2	273.9	25.1	55	0	0
23926	2012-10-20T21:00:00	28	ND	ND	ND	ND	ND	0.3	56.6	24.1	60.2	0	0
23927	2012-10-20T22:00:00	32	ND	ND	ND	ND	ND	1.4	209.8	23.9	61.8	0	0
23928	2012-10-20T23:00:00	50	ND	ND	ND	ND	ND	1.5	189.1	22.7	71.6	0	0
23929	2012-10-21T00:00:00	52	ND	ND	ND	ND	ND	1	196.1	22.8	71.8	0	0
23930	2012-10-21T01:00:00	37	ND	ND	ND	ND	ND	0.8	205.7	22.4	71.6	0	0
23931	2012-10-21T02:00:00	27	ND	ND	ND	ND	ND	0.5	207.2	21.9	75.3	0	0
23932	2012-10-21T03:00:00	49	ND	ND	ND	ND	ND	0.4	17.4	21.4	73.8	0	0
23933	2012-10-21T04:00:00	26	ND	ND	ND	ND	ND	0.7	222.2	21	72.9	0	0
23934	2012-10-21T05:00:00	50	ND	ND	ND	ND	ND	0.8	226.9	20.5	79.5	0	0
23935	2012-10-21T06:00:00	39	ND	ND	ND	ND	ND	0.5	237	20.3	77.9	0.1	0
23936	2012-10-21T07:00:00	31	ND	ND	ND	ND	ND	0.8	256.5	20.5	71.3	51.2	0
23937	2012-10-21T08:00:00	18	ND	ND	ND	ND	ND	1	21.1	22.1	68.7	174.4	0
23938	2012-10-21T09:00:00	36	ND	ND	ND	ND	ND	0.6	73.7	23.8	64.5	414.4	0
23939	2012-10-21T10:00:00	38	ND	ND	ND	ND	ND	1	141.8	25.8	59	642.4	0
23940	2012-10-21T11:00:00	46	ND	ND	ND	ND	ND	2	148.2	27.2	56	817.9	0
23941	2012-10-21T12:00:00	32	ND	ND	ND	ND	ND	2.1	142.3	28.1	53.2	693.3	0
23942	2012-10-21T13:00:00	32	ND	ND	ND	ND	ND	1.6	183.6	28.7	50.6	693	0
23943	2012-10-21T14:00:00	20	ND	ND	ND	ND	ND	1.2	179.2	30	45.6	835.2	0
23944	2012-10-21T15:00:00	26	ND	ND	ND	ND	ND	0.9	130.8	31.1	42.2	710.3	0
23945	2012-10-21T16:00:00	15	ND	ND	ND	ND	ND	1	306.2	30.9	42.9	403	0
23946	2012-10-21T17:00:00	21	ND	ND	ND	ND	ND	5	280.8	28.4	48.6	224	0
23947	2012-10-21T18:00:00	12	ND	ND	ND	ND	ND	5	277.7	26.8	51.3	35.7	0
23948	2012-10-21T19:00:00	8	ND	ND	ND	ND	ND	4.4	274.4	25.9	56.5	0	0
23949	2012-10-21T20:00:00	14	ND	ND	ND	ND	ND	3.5	278.1	25.5	58.4	0	0
23950	2012-10-21T21:00:00	9	ND	ND	ND	ND	ND	1.9	286.4	25.3	59	0	0
23951	2012-10-21T22:00:00	6	ND	ND	ND	ND	ND	1.9	281.7	25	60.5	0	0
23952	2012-10-21T23:00:00	4	ND	ND	ND	ND	ND	2.3	273.8	24.9	60.2	0	0
23953	2012-10-22T00:00:00	3	ND	ND	ND	ND	ND	1.1	230	24.1	65.8	0	0
23954	2012-10-22T01:00:00	7	ND	ND	ND	ND	ND	1.5	189.3	23.3	71.5	0	0
23955	2012-10-22T02:00:00	5	ND	ND	ND	ND	ND	0.2	99.2	23.2	72.3	0	0
23956	2012-10-22T03:00:00	13	ND	ND	ND	ND	ND	0.2	319.2	22.2	80	0	0
23957	2012-10-22T04:00:00	7	ND	ND	ND	ND	ND	0.6	60.7	21.9	83.1	0	3.56
23958	2012-10-22T05:00:00	16	ND	ND	ND	ND	ND	0.7	94.4	20.7	91.2	0	4.83
23959	2012-10-22T06:00:00	15	ND	ND	ND	ND	ND	2	35.8	20.3	92.6	0	1.78
23960	2012-10-22T07:00:00	11	ND	ND	ND	ND	ND	2	47.4	20	94.1	7.8	1.52
23961	2012-10-22T08:00:00	6	ND	ND	ND	ND	ND	1.6	47.6	20.1	91.1	59.6	0.51
23962	2012-10-22T09:00:00	4	ND	ND	ND	ND	ND	1.1	62.9	20.3	90.1	128.1	2.54
23963	2012-10-22T10:00:00	4	ND	ND	ND	ND	ND	0.2	293.2	21	85.2	181.4	0.25
23964	2012-10-22T11:00:00	5	ND	ND	ND	ND	ND	1.8	198.8	21.4	83.9	225.7	0
23965	2012-10-22T12:00:00	4	ND	ND	ND	ND	ND	1.3	185.4	23.2	72.7	752.4	0
23966	2012-10-22T13:00:00	2	ND	ND	ND	ND	ND	1.4	146.3	24.6	65.5	522.7	0
23967	2012-10-22T14:00:00	6	ND	ND	ND	ND	ND	0.7	156.3	24.7	63.7	270.9	0
23968	2012-10-22T15:00:00	28	ND	ND	ND	ND	ND	0.7	80.5	24.9	63.3	180.7	0
23969	2012-10-22T16:00:00	42	ND	ND	ND	ND	ND	0.6	131.7	25.1	62.9	140.4	0
23970	2012-10-22T17:00:00	42	ND	ND	ND	ND	ND	0.6	249.1	25	59.9	72.1	0
23971	2012-10-22T18:00:00	27	ND	ND	ND	ND	ND	0.2	215.4	24.5	62.6	14	0
23972	2012-10-22T19:00:00	76	ND	ND	ND	ND	ND	0.3	267.3	23.7	66.6	0	0
23973	2012-10-22T20:00:00	49	ND	ND	ND	ND	ND	1.8	251.6	22.6	69.9	0	0
23974	2012-10-22T21:00:00	32	ND	ND	ND	ND	ND	0.9	282.3	22.6	68.1	0	0
23975	2012-10-22T22:00:00	16	ND	ND	ND	ND	ND	0.9	251.7	22.5	66.9	0	0
23976	2012-10-22T23:00:00	27	ND	ND	ND	ND	ND	0.1	357	21.8	75.1	0	0
23977	2012-10-23T00:00:00	31	ND	ND	ND	ND	ND	0.4	251.7	21.3	77.5	0	0
23978	2012-10-23T01:00:00	29	ND	ND	ND	ND	ND	1.7	267.7	21.1	71.2	0	0
23979	2012-10-23T02:00:00	19	ND	ND	ND	ND	ND	0.9	255.3	20.9	68.1	0	0
23980	2012-10-23T03:00:00	21	ND	ND	ND	ND	ND	0.7	298.7	20.5	74.5	0	0
23981	2012-10-23T04:00:00	12	ND	ND	ND	ND	ND	0.6	267.5	19.9	76.4	0	0
23982	2012-10-23T05:00:00	35	ND	ND	ND	ND	ND	0.7	182.8	19.5	81.2	0	0
23983	2012-10-23T06:00:00	29	ND	ND	ND	ND	ND	0.1	160.9	19.4	85.8	0.5	0
23984	2012-10-23T07:00:00	75	ND	ND	ND	ND	ND	0.6	36.8	19.7	84.3	66.9	0
23985	2012-10-23T08:00:00	72	ND	ND	ND	ND	ND	0.2	121.7	21	79.1	259.9	0
23986	2012-10-23T09:00:00	69	ND	ND	ND	ND	ND	0.5	108.1	23.5	65.7	497.6	0
23987	2012-10-23T10:00:00	48	ND	ND	ND	ND	ND	1.2	129.5	25	60.5	719.1	0
23988	2012-10-23T11:00:00	53	ND	ND	ND	ND	ND	0.8	145.7	27	54.2	841.6	0
23989	2012-10-23T12:00:00	43	ND	ND	ND	ND	ND	0.9	99.6	28	49.6	566.5	0
23990	2012-10-23T13:00:00	58	ND	ND	ND	ND	ND	1.1	95	28.5	47.8	652.5	0
23991	2012-10-23T14:00:00	41	ND	ND	ND	ND	ND	1.1	23.9	28.9	47.8	329.9	0
23992	2012-10-23T15:00:00	43	ND	ND	ND	ND	ND	3.5	290	29.3	46.1	656.6	0
23993	2012-10-23T16:00:00	23	ND	ND	ND	ND	ND	4.2	293.5	27.8	50.2	418.5	0
23994	2012-10-23T17:00:00	33	ND	ND	ND	ND	ND	5.4	280.7	25.9	57.2	95.6	0
23995	2012-10-23T18:00:00	18	ND	ND	ND	ND	ND	5.4	272.7	25.5	57.5	15	0
23996	2012-10-23T19:00:00	15	ND	ND	ND	ND	ND	4	271.8	25.5	57.1	0	0
23997	2012-10-23T20:00:00	12	ND	ND	ND	ND	ND	3.1	287.8	24.9	60.7	0	0
23998	2012-10-23T21:00:00	8	ND	ND	ND	ND	ND	4.2	273.1	23.3	69.5	0	0
23999	2012-10-23T22:00:00	5	ND	ND	ND	ND	ND	2.7	263.5	23.6	67.7	0	0
24000	2012-10-23T23:00:00	4	ND	ND	ND	ND	ND	0.7	300	22.2	79.7	0	4.32
24001	2012-10-24T00:00:00	4	ND	ND	ND	ND	ND	0.1	217.4	21.9	83.9	0	0.25
24002	2012-10-24T01:00:00	3	ND	ND	ND	ND	ND	0.9	214.8	22.3	76.1	0	0
24003	2012-10-24T02:00:00	1	ND	ND	ND	ND	ND	0.2	338	22.4	77.6	0	0
24004	2012-10-24T03:00:00	1	ND	ND	ND	ND	ND	0.5	107.2	21.7	81.9	0	0
24005	2012-10-24T04:00:00	2	ND	ND	ND	ND	ND	0.5	74.3	21.4	81.4	0	0
24006	2012-10-24T05:00:00	15	ND	ND	ND	ND	ND	0.9	19.6	21.2	84.3	0	0
24007	2012-10-24T06:00:00	8	ND	ND	ND	ND	ND	0.7	150.2	21	84.3	0	0
24008	2012-10-24T07:00:00	31	ND	ND	ND	ND	ND	0.4	150.9	20.3	85.9	3.7	0.25
24009	2012-10-24T08:00:00	21	ND	ND	ND	ND	ND	0.4	137.9	20.3	88.8	50.5	2.03
24010	2012-10-24T09:00:00	18	ND	ND	ND	ND	ND	0.6	130.7	21	86	150.1	0
24011	2012-10-24T10:00:00	19	ND	ND	ND	ND	ND	0.6	74.8	22.4	80.6	344.7	0
24012	2012-10-24T11:00:00	18	ND	ND	ND	ND	ND	0.9	82.1	24.8	69.4	777.2	0
24013	2012-10-24T12:00:00	12	ND	ND	ND	ND	ND	1.2	107	26.6	59	689.1	0
24014	2012-10-24T13:00:00	9	ND	ND	ND	ND	ND	0.9	287.7	26.7	55.9	276.1	0
24015	2012-10-24T14:00:00	5	ND	ND	ND	ND	ND	2.6	284.9	25.2	59.2	202	0.51
24016	2012-10-24T15:00:00	3	ND	ND	ND	ND	ND	1.5	312.9	26.7	50.1	456.7	0
24017	2012-10-24T16:00:00	2	ND	ND	ND	ND	ND	0.9	85.3	27.8	46	305.9	0
24018	2012-10-24T17:00:00	35	ND	ND	ND	ND	ND	2	197.2	24.2	65.7	33.3	0.51
24019	2012-10-24T18:00:00	22	ND	ND	ND	ND	ND	1.9	185.6	20.7	87.5	4.9	4.32
24020	2012-10-24T19:00:00	34	ND	ND	ND	ND	ND	0.9	133.4	19.4	93	0	8.89
24021	2012-10-24T20:00:00	21	ND	ND	ND	ND	ND	1.2	53.4	19.3	91.7	0	1.78
24022	2012-10-24T21:00:00	13	ND	ND	ND	ND	ND	1	15.7	19.3	92.3	0	2.54
24023	2012-10-24T22:00:00	14	ND	ND	ND	ND	ND	0.6	69.1	19.4	92.9	0	1.52
24024	2012-10-24T23:00:00	25	ND	ND	ND	ND	ND	0.1	128.8	19.5	93.3	0	0.51
24025	2012-10-25T00:00:00	19	ND	ND	ND	ND	ND	0.7	145.1	19.6	93.4	0	0.25
24026	2012-10-25T01:00:00	15	ND	ND	ND	ND	ND	1	129.2	19.3	94	0	0
24027	2012-10-25T02:00:00	9	ND	ND	ND	ND	ND	0.9	120	19.4	93.7	0	0
24028	2012-10-25T03:00:00	9	ND	ND	ND	ND	ND	1.1	91.5	19.2	93.3	0	0
24029	2012-10-25T04:00:00	7	ND	ND	ND	ND	ND	0.9	89.2	19.1	93.3	0	0.25
24030	2012-10-25T05:00:00	4	ND	ND	ND	ND	ND	0.8	78.2	19.1	93.5	0	0.25
24031	2012-10-25T06:00:00	3	ND	ND	ND	ND	ND	0.6	125.4	19.3	93.6	0	0
24032	2012-10-25T07:00:00	3	ND	ND	ND	ND	ND	0.9	171.3	19.4	93.1	14.3	0
24033	2012-10-25T08:00:00	22	ND	ND	ND	ND	ND	1.3	149.8	19.7	91.4	69.9	0
24034	2012-10-25T09:00:00	33	ND	ND	ND	ND	ND	0.6	155.6	20.7	86.1	163.8	0
24035	2012-10-25T10:00:00	29	ND	ND	ND	ND	ND	0.9	144.6	21.5	80.4	196	0
24036	2012-10-25T11:00:00	28	ND	ND	ND	ND	ND	0.6	153.8	23.2	71.2	490.4	0
24037	2012-10-25T12:00:00	27	ND	ND	ND	ND	ND	0.8	171.5	23.6	69.2	397.6	0
24038	2012-10-25T13:00:00	41	ND	ND	ND	ND	ND	1	137.8	25.8	60.4	822.5	0
24039	2012-10-25T14:00:00	32	ND	ND	ND	ND	ND	1	70	26.3	58.1	505.6	0
24040	2012-10-25T15:00:00	41	ND	ND	ND	ND	ND	0.8	120	26.8	57.8	354.8	0
24041	2012-10-25T16:00:00	32	ND	ND	ND	ND	ND	1.2	281.3	26.9	56.5	316.6	0
24042	2012-10-25T17:00:00	18	ND	ND	ND	ND	ND	2.7	286.8	26.6	54.7	241.3	0
24043	2012-10-25T18:00:00	12	ND	ND	ND	ND	ND	2.7	264.7	25.1	59	16.5	0
24044	2012-10-25T19:00:00	34	ND	ND	ND	ND	ND	1.4	280	24.8	58.6	0	0
24045	2012-10-25T20:00:00	18	ND	ND	ND	ND	ND	1.6	268.9	24.6	59.6	0	0
24046	2012-10-25T21:00:00	21	ND	ND	ND	ND	ND	2.3	264.5	23.8	63.2	0	0
24047	2012-10-25T22:00:00	17	ND	ND	ND	ND	ND	1.4	291.9	23.3	66.6	0	0
24048	2012-10-25T23:00:00	60	ND	ND	ND	ND	ND	0.2	141.8	22	75.1	0	0
24049	2012-10-26T00:00:00	50	ND	ND	ND	ND	ND	0.2	14.6	21.6	76.6	0	0
24050	2012-10-26T01:00:00	68	ND	ND	ND	ND	ND	0.4	142.4	21.1	80.6	0	0
24051	2012-10-26T02:00:00	35	ND	ND	ND	ND	ND	0.5	128.1	21.1	80.8	0	0
24052	2012-10-26T03:00:00	20	ND	ND	ND	ND	ND	0.1	40.2	21	81.7	0	0
24053	2012-10-26T04:00:00	23	ND	ND	ND	ND	ND	0.3	231.4	20.8	82.3	0	0
24054	2012-10-26T05:00:00	23	ND	ND	ND	ND	ND	0.5	229.9	20.5	80.2	0	0
24055	2012-10-26T06:00:00	13	ND	ND	ND	ND	ND	0.5	228.1	20.6	77.2	0.1	0
24056	2012-10-26T07:00:00	43	ND	ND	ND	ND	ND	0.1	235.9	20.9	76.1	28.7	0
24057	2012-10-26T08:00:00	28	ND	ND	ND	ND	ND	0.3	170.1	22.3	70.5	171.1	0
24058	2012-10-26T09:00:00	64	ND	ND	ND	ND	ND	1.1	143.1	24	67.6	412.3	0
24059	2012-10-26T10:00:00	34	ND	ND	ND	ND	ND	0.8	138.8	25.1	64.6	477.7	0
24060	2012-10-26T11:00:00	41	ND	ND	ND	ND	ND	0.8	131.7	26.7	58.2	713.8	0
24061	2012-10-26T12:00:00	33	ND	ND	ND	ND	ND	1.3	94.5	28.2	54	783.9	0
24062	2012-10-26T13:00:00	38	ND	ND	ND	ND	ND	1.4	92.4	28.7	52.2	677.9	0
24063	2012-10-26T14:00:00	22	ND	ND	ND	ND	ND	1.8	28.3	29.9	48.9	621	0
24064	2012-10-26T15:00:00	37	ND	ND	ND	ND	ND	2.1	20.6	30.1	48.8	580.6	0
24065	2012-10-26T16:00:00	19	ND	ND	ND	ND	ND	2.1	280.8	30.1	47.3	494.8	0
24066	2012-10-26T17:00:00	18	ND	ND	ND	ND	ND	3.6	274.8	28.6	48.4	218.3	0
24067	2012-10-26T18:00:00	10	ND	ND	ND	ND	ND	4	269.7	26.8	54.3	24.6	0
24068	2012-10-26T19:00:00	17	ND	ND	ND	ND	ND	3.6	269	25.7	58.5	0	0
24069	2012-10-26T20:00:00	9	ND	ND	ND	ND	ND	3.6	269	25.5	59.2	0	0
24070	2012-10-26T21:00:00	37	ND	ND	ND	ND	ND	0.3	342.5	25.1	62	0	0
24071	2012-10-26T22:00:00	66	ND	ND	ND	ND	ND	0.6	289.2	24.4	65.8	0	0
24072	2012-10-26T23:00:00	53	ND	ND	ND	ND	ND	0.9	329.1	24.1	67	0	0
24073	2012-10-27T00:00:00	30	ND	ND	ND	ND	ND	0.5	331.5	23.5	70.2	0	0
24074	2012-10-27T01:00:00	45	ND	ND	ND	ND	ND	0.1	133.4	22.6	76.8	0	0
24075	2012-10-27T02:00:00	37	ND	ND	ND	ND	ND	0.7	117.3	21.9	81.3	0	0
24076	2012-10-27T03:00:00	50	ND	ND	ND	ND	ND	0.5	174.3	21.7	81.6	0	0
24077	2012-10-27T04:00:00	25	ND	ND	ND	ND	ND	0.4	107.4	21.9	80.8	0	0
24078	2012-10-27T05:00:00	38	ND	ND	ND	ND	ND	0.5	76.3	21.4	81.6	0	0
24079	2012-10-27T06:00:00	27	ND	ND	ND	ND	ND	0.7	197.5	21.4	81.6	0.2	0
24080	2012-10-27T07:00:00	41	ND	ND	ND	ND	ND	0.4	147.4	21.4	82.4	38.9	0
24081	2012-10-27T08:00:00	32	ND	ND	ND	ND	ND	0.6	208.5	23	74.7	298.1	0
24082	2012-10-27T09:00:00	36	ND	ND	ND	ND	ND	1.1	179.7	24.6	67.6	420.9	0
24083	2012-10-27T10:00:00	19	ND	ND	ND	ND	ND	0.9	116.2	26.4	59.9	681	0
24084	2012-10-27T11:00:00	20	ND	ND	ND	ND	ND	1.3	109.5	28	53.2	837.4	0
24085	2012-10-27T12:00:00	12	ND	ND	ND	ND	ND	0.7	74.2	29.4	48.4	833.8	0
24086	2012-10-27T13:00:00	34	ND	ND	ND	ND	ND	1.1	79.5	30.6	45.3	907.1	0
24087	2012-10-27T14:00:00	24	ND	ND	ND	ND	ND	1.1	81	31.2	44.3	705.4	0
24088	2012-10-27T15:00:00	60	ND	ND	ND	ND	ND	1.3	53.2	31.4	43.6	354.1	0
24089	2012-10-27T16:00:00	31	ND	ND	ND	ND	ND	1.8	275.2	31.5	43.5	457	0
24090	2012-10-27T17:00:00	31	ND	ND	ND	ND	ND	3.8	279.3	29.7	48.2	243.9	0
24091	2012-10-27T18:00:00	17	ND	ND	ND	ND	ND	4	278.3	27.7	53.8	38.3	0
24092	2012-10-27T19:00:00	18	ND	ND	ND	ND	ND	4.4	276	26.7	56.5	0	0
24093	2012-10-27T20:00:00	10	ND	ND	ND	ND	ND	5.1	270.8	26.1	58.5	0	0
24094	2012-10-27T21:00:00	7	ND	ND	ND	ND	ND	3.4	289.4	26.2	58	0	0
24095	2012-10-27T22:00:00	5	ND	ND	ND	ND	ND	2.5	280	25.9	59.6	0	0
24096	2012-10-27T23:00:00	4	ND	ND	ND	ND	ND	1.7	232.1	25.3	63.6	0	0
24097	2012-10-28T00:00:00	7	ND	ND	ND	ND	ND	0.4	314.5	24.1	70.4	0	0
24098	2012-10-28T01:00:00	49	ND	ND	ND	ND	ND	1	116.4	23	76.8	0	0
24099	2012-10-28T02:00:00	36	ND	ND	ND	ND	ND	0.5	143.8	22.6	78.6	0	0
24100	2012-10-28T03:00:00	36	ND	ND	ND	ND	ND	0.7	156.3	22.4	78.9	0	0
24101	2012-10-28T04:00:00	28	ND	ND	ND	ND	ND	0.7	166.4	22.5	78.2	0	0
24102	2012-10-28T05:00:00	32	ND	ND	ND	ND	ND	0.9	154.7	22.1	80.1	0	0
24103	2012-10-28T06:00:00	29	ND	ND	ND	ND	ND	0.7	135.7	21.7	81.2	0.3	0
24104	2012-10-28T07:00:00	38	ND	ND	ND	ND	ND	0.5	138.6	21.9	80	58.6	0
24105	2012-10-28T08:00:00	38	ND	ND	ND	ND	ND	0.6	123.3	23.8	70.8	258.4	0
24106	2012-10-28T09:00:00	42	ND	ND	ND	ND	ND	1.1	121.6	25.4	64.3	484	0
24107	2012-10-28T10:00:00	35	ND	ND	ND	ND	ND	1.1	126.3	26.7	59.9	664.9	0
24108	2012-10-28T11:00:00	42	ND	ND	ND	ND	ND	1.2	110.1	28.4	54.5	825.6	0
24109	2012-10-28T12:00:00	30	ND	ND	ND	ND	ND	1	68.7	29.4	50.9	782.2	0
24110	2012-10-28T13:00:00	23	ND	ND	ND	ND	ND	0.8	6.6	31	45.8	756.3	0
24111	2012-10-28T14:00:00	13	ND	ND	ND	ND	ND	0.6	346.5	31.2	44.2	464.2	0
24112	2012-10-28T15:00:00	23	ND	ND	ND	ND	ND	0.6	33.3	32.6	40.5	713.4	0
24113	2012-10-28T16:00:00	13	ND	ND	ND	ND	ND	4.2	276.1	31.1	44.1	486.5	0
24114	2012-10-28T17:00:00	23	ND	ND	ND	ND	ND	4.7	283.3	29.1	49.4	228	0
24115	2012-10-28T18:00:00	12	ND	ND	ND	ND	ND	5.3	281.1	27.4	54.5	13.2	0
24116	2012-10-28T19:00:00	8	ND	ND	ND	ND	ND	5.6	274.6	26.5	57.8	0	0
24117	2012-10-28T20:00:00	4	ND	ND	ND	ND	ND	3.1	288.6	26.8	55.9	0	0
24118	2012-10-28T21:00:00	2	ND	ND	ND	ND	ND	4	274	26	59.1	0	0
24119	2012-10-28T22:00:00	2	ND	ND	ND	ND	ND	2.8	278.1	26	58.9	0	0
24120	2012-10-28T23:00:00	3	ND	ND	ND	ND	ND	2.1	260.6	25.7	60.3	0	0
24121	2012-10-29T00:00:00	4	ND	ND	ND	ND	ND	1.9	171.9	24	72.3	0	0
24122	2012-10-29T01:00:00	17	ND	ND	ND	ND	ND	1.8	179.9	23.3	75.8	0	0
24123	2012-10-29T02:00:00	25	ND	ND	ND	ND	ND	0.9	169.6	23	76.4	0	0
24124	2012-10-29T03:00:00	13	ND	ND	ND	ND	ND	0.5	110.2	22.8	77.2	0	0
24125	2012-10-29T04:00:00	12	ND	ND	ND	ND	ND	0.4	31.4	22.7	78.1	0	0
24126	2012-10-29T05:00:00	12	ND	ND	ND	ND	ND	0.5	114.4	22.5	79.5	0	0
24127	2012-10-29T06:00:00	13	ND	ND	ND	ND	ND	0.5	168.8	21.9	80.8	0.5	0
24128	2012-10-29T07:00:00	39	ND	ND	ND	ND	ND	0.8	162	22.5	78	34.1	0
24129	2012-10-29T08:00:00	34	ND	ND	ND	ND	ND	1.2	143.4	23.7	72.5	265.1	0
24130	2012-10-29T09:00:00	29	ND	ND	ND	ND	ND	1.6	164.7	25	67.8	486.4	0
24131	2012-10-29T10:00:00	22	ND	ND	ND	ND	ND	1.1	155.5	26.6	61.3	650.9	0
24132	2012-10-29T11:00:00	38	ND	ND	ND	ND	ND	1.4	110.4	27.9	55.8	646.2	0
24133	2012-10-29T12:00:00	28	ND	ND	ND	ND	ND	0.9	94.1	28.5	53.9	460.9	0
24134	2012-10-29T13:00:00	23	ND	ND	ND	ND	ND	0.8	293.8	29.5	50	524.4	0
24135	2012-10-29T14:00:00	13	ND	ND	ND	ND	ND	3.8	277.2	30.1	44.3	626.7	0
24136	2012-10-29T15:00:00	7	ND	ND	ND	ND	ND	4.1	284.8	29.3	45.7	465.4	0
24137	2012-10-29T16:00:00	5	ND	ND	ND	ND	ND	5.5	285.4	27.9	49.2	404.5	0
24138	2012-10-29T17:00:00	17	ND	ND	ND	ND	ND	5.7	282.6	26.2	53.4	70.2	0
24139	2012-10-29T18:00:00	9	ND	ND	ND	ND	ND	4.7	281.9	25.9	53.3	11.7	0
24140	2012-10-29T19:00:00	6	ND	ND	ND	ND	ND	4.1	268.8	25.8	54.9	0	0
24141	2012-10-29T20:00:00	5	ND	ND	ND	ND	ND	2.6	250.6	24.9	60.7	0	0
24142	2012-10-29T21:00:00	4	ND	ND	ND	ND	ND	2	256.2	24.6	61.4	0	0
24143	2012-10-29T22:00:00	4	ND	ND	ND	ND	ND	0.9	2	24.3	65.7	0	0
24144	2012-10-29T23:00:00	39	ND	ND	ND	ND	ND	1	86	23.1	74.6	0	0
24145	2012-10-30T00:00:00	24	ND	ND	ND	ND	ND	0.9	142.7	23	75.1	0	0
24146	2012-10-30T01:00:00	24	ND	ND	ND	ND	ND	1	132.8	22.7	75.8	0	0
24147	2012-10-30T02:00:00	20	ND	ND	ND	ND	ND	0.8	176.2	22.5	75.4	0	0
24148	2012-10-30T03:00:00	27	ND	ND	ND	ND	ND	0.5	125.6	22.1	77.8	0	0
24149	2012-10-30T04:00:00	31	ND	ND	ND	ND	ND	0.5	91.1	22	76.1	0	0
24150	2012-10-30T05:00:00	17	ND	ND	ND	ND	ND	0.5	172.4	21.8	77	0	0
24151	2012-10-30T06:00:00	10	ND	ND	ND	ND	ND	0.3	173.3	22	74.4	0.1	0
24152	2012-10-30T07:00:00	29	ND	ND	ND	ND	ND	0.5	139.1	21.9	80.3	48.9	0
24153	2012-10-30T08:00:00	16	ND	ND	ND	ND	ND	0.3	193.2	23	72.2	155.8	0
24154	2012-10-30T09:00:00	31	ND	ND	ND	ND	ND	1.2	114.9	24.1	68.6	349.6	0
24155	2012-10-30T10:00:00	33	ND	ND	ND	ND	ND	1.3	99.5	25.2	63.5	507.7	0
24156	2012-10-30T11:00:00	51	ND	ND	ND	ND	ND	1.7	127.1	26.1	60.9	444.4	0
24157	2012-10-30T12:00:00	26	ND	ND	ND	ND	ND	0.9	48.6	26.9	56	522.2	0
24158	2012-10-30T13:00:00	39	ND	ND	ND	ND	ND	1.4	63.2	27.9	53.5	566.2	0
24159	2012-10-30T14:00:00	40	ND	ND	ND	ND	ND	1.4	33.3	27.8	55	334.6	0
24160	2012-10-30T15:00:00	39	ND	ND	ND	ND	ND	1	69.7	28.4	53.2	381.3	0
24161	2012-10-30T16:00:00	50	ND	ND	ND	ND	ND	1.1	61.6	28.1	53.9	139.9	0
24162	2012-10-30T17:00:00	30	ND	ND	ND	ND	ND	2.3	274.2	26.1	60.1	22.3	11.18
24163	2012-10-30T18:00:00	15	ND	ND	ND	ND	ND	3.1	225.2	19.7	94.6	0.6	70.61
24164	2012-10-30T19:00:00	24	ND	ND	ND	ND	ND	2	246.4	22.2	80.6	0	1.27
24165	2012-10-30T20:00:00	13	ND	ND	ND	ND	ND	2.7	262.4	22.4	76.2	0	0.51
24166	2012-10-30T21:00:00	18	ND	ND	ND	ND	ND	1.6	0.8	22.6	76.7	0	0.25
24167	2012-10-30T22:00:00	21	ND	ND	ND	ND	ND	0.5	26.6	21.7	83.9	0	0
24168	2012-10-30T23:00:00	12	ND	ND	ND	ND	ND	1.2	190.2	21.3	87	0	18.29
24169	2012-10-31T00:00:00	7	ND	ND	ND	ND	ND	0.8	200.8	20.2	93.3	0	4.32
24170	2012-10-31T01:00:00	8	ND	ND	ND	ND	ND	1.2	207.9	20	93.1	0	10.41
24171	2012-10-31T02:00:00	5	ND	ND	ND	ND	ND	1	220	19.8	94	0	0
24172	2012-10-31T03:00:00	7	ND	ND	ND	ND	ND	0.7	191.2	20	88.9	0	0
24173	2012-10-31T04:00:00	6	ND	ND	ND	ND	ND	1.2	151.8	19.9	90.1	0	0.25
24174	2012-10-31T05:00:00	4	ND	ND	ND	ND	ND	0.8	153.8	19.4	93.3	0	0.25
24175	2012-10-31T06:00:00	4	ND	ND	ND	ND	ND	1.1	120.2	19.2	94.4	0	4.32
24176	2012-10-31T07:00:00	3	ND	ND	ND	ND	ND	0.8	145.1	18.9	97	1.4	7.11
24177	2012-10-31T08:00:00	3	ND	ND	ND	ND	ND	0.7	167.6	19.2	97.2	146.4	3.3
24178	2012-10-31T09:00:00	7	ND	ND	ND	ND	ND	1.1	200.9	21.3	86.3	365.1	0
24179	2012-10-31T10:00:00	4	ND	ND	ND	ND	ND	1.2	136.5	23.8	68.9	699.8	0
24180	2012-10-31T11:00:00	3	ND	ND	ND	ND	ND	1.1	129.1	25.5	62.2	739.9	0
24181	2012-10-31T12:00:00	2	ND	ND	ND	ND	ND	0.9	97.2	26.1	60.4	620.2	0
24182	2012-10-31T13:00:00	10	ND	ND	ND	ND	ND	1	94.8	27.5	55.5	808	0
24183	2012-10-31T14:00:00	6	ND	ND	ND	ND	ND	1	92.2	28.2	53.8	682.3	0
24184	2012-10-31T15:00:00	23	ND	ND	ND	ND	ND	1.6	67.3	28.4	54.2	543.7	0
24185	2012-10-31T16:00:00	30	ND	ND	ND	ND	ND	1.1	71.2	27.7	56.3	158.3	0
24186	2012-10-31T17:00:00	58	ND	ND	ND	ND	ND	0.7	90.7	28.6	53.5	305.6	0
24187	2012-10-31T18:00:00	52	ND	ND	ND	ND	ND	1.3	271.7	27.2	55.5	23.8	0
24188	2012-10-31T19:00:00	28	ND	ND	ND	ND	ND	3.1	261.7	25.6	59.4	0	0
24189	2012-10-31T20:00:00	15	ND	ND	ND	ND	ND	3.2	267.7	25	61.8	0	0
24190	2012-10-31T21:00:00	18	ND	ND	ND	ND	ND	1.7	290.3	24.9	62.6	0	0
24191	2012-10-31T22:00:00	14	ND	ND	ND	ND	ND	0.7	297.6	24.2	67.4	0	0
24192	2012-10-31T23:00:00	37	ND	ND	ND	ND	ND	0.8	125.1	22.6	76.3	0	0
24193	2012-11-01T00:00:00	29	ND	ND	ND	ND	ND	1.4	193.6	22.8	78.2	0	0
24194	2012-11-01T01:00:00	40	ND	ND	ND	ND	ND	1.2	186.3	22.8	77.4	0	0
24195	2012-11-01T02:00:00	31	ND	ND	ND	ND	ND	1.1	162.3	21.8	82.1	0	0
24196	2012-11-01T03:00:00	23	ND	ND	ND	ND	ND	0.4	354	21.5	81.7	0	0
24197	2012-11-01T04:00:00	31	ND	ND	ND	ND	ND	0.3	234.4	21.5	82.2	0	0
24198	2012-11-01T05:00:00	20	ND	ND	ND	ND	ND	0.6	195.7	21.3	81.5	0	0
24199	2012-11-01T06:00:00	21	ND	ND	ND	ND	ND	0.5	76	21.1	82	0	0
24200	2012-11-01T07:00:00	61	ND	ND	ND	ND	ND	0.7	59.9	20.8	85.5	27.4	0
24201	2012-11-01T08:00:00	65	ND	ND	ND	ND	ND	0.3	11.9	21.9	79.4	128.5	0
24202	2012-11-01T09:00:00	95	ND	ND	ND	ND	ND	1	131.5	23.6	72.4	370.9	0
24203	2012-11-01T10:00:00	52	ND	ND	ND	ND	ND	1.2	135.3	25.3	64.3	536	0
24204	2012-11-01T11:00:00	38	ND	ND	ND	ND	ND	0.8	147.7	27.1	56.3	827	0
24205	2012-11-01T12:00:00	26	ND	ND	ND	ND	ND	1.1	112	28.6	51.7	825.3	0
24206	2012-11-01T13:00:00	36	ND	ND	ND	ND	ND	1.4	99.3	29.5	50.2	740.1	0
24207	2012-11-01T14:00:00	26	ND	ND	ND	ND	ND	1.4	47.7	29.4	50.9	526.6	0
24208	2012-11-01T15:00:00	38	ND	ND	ND	ND	ND	2.5	294.3	29.7	48.2	494.7	0
24209	2012-11-01T16:00:00	20	ND	ND	ND	ND	ND	4	279	28.9	49.7	440.6	0
24210	2012-11-01T17:00:00	22	ND	ND	ND	ND	ND	4.2	277.7	27.8	52	179.3	0
24211	2012-11-01T18:00:00	13	ND	ND	ND	ND	ND	4.2	269.9	25.9	59.2	6.9	0
24212	2012-11-01T19:00:00	10	ND	ND	ND	ND	ND	2.8	266.8	25.7	59	0	0
24213	2012-11-01T20:00:00	15	ND	ND	ND	ND	ND	2.1	195.5	25.1	62.6	0	0
24214	2012-11-01T21:00:00	31	ND	ND	ND	ND	ND	1.3	152.3	23.5	72.3	0	0
24215	2012-11-01T22:00:00	17	ND	ND	ND	ND	ND	1.7	204.2	22.6	77.5	0	0
24216	2012-11-01T23:00:00	33	ND	ND	ND	ND	ND	0.9	185.8	22.3	79.9	0	0
24217	2012-11-02T00:00:00	22	ND	ND	ND	ND	ND	0.2	ND	22.5	77.7	0	0
24218	2012-11-02T01:00:00	17	ND	ND	ND	ND	ND	0.5	335	22.6	73.5	0	0
24219	2012-11-02T02:00:00	17	ND	ND	ND	ND	ND	1.1	39.1	21.2	83.2	0	0
24220	2012-11-02T03:00:00	30	ND	ND	ND	ND	ND	0.8	73.2	21	83.9	0	0
24221	2012-11-02T04:00:00	19	ND	ND	ND	ND	ND	0.3	ND	20.7	84.7	0	0
24222	2012-11-02T05:00:00	37	ND	ND	ND	ND	ND	0.2	ND	20.7	84.5	0	0
24223	2012-11-02T06:00:00	37	ND	ND	ND	ND	ND	0.3	ND	21	79.1	0	0
24224	2012-11-02T07:00:00	26	ND	ND	ND	ND	ND	0.1	ND	21.6	73.5	36.9	0
24225	2012-11-02T08:00:00	36	ND	ND	ND	ND	ND	0.5	ND	22.6	71.7	140	0
24226	2012-11-02T09:00:00	71	ND	ND	ND	ND	ND	1	121.2	23.3	72.4	297.3	0
24227	2012-11-02T10:00:00	65	ND	ND	ND	ND	ND	1	145.3	24.6	67.3	430.1	0
24228	2012-11-02T11:00:00	59	ND	ND	ND	ND	ND	0.8	125.4	26.4	59.4	625.4	0
24229	2012-11-02T12:00:00	51	ND	ND	ND	ND	ND	0.9	95.2	28.2	52.9	767.2	0
24230	2012-11-02T13:00:00	43	ND	ND	ND	ND	ND	1.1	83.1	28.6	49.8	435.4	0
24231	2012-11-02T14:00:00	23	ND	ND	ND	ND	ND	1.6	10	28.6	49.2	198.3	0
24232	2012-11-02T15:00:00	13	ND	ND	ND	ND	ND	1.5	301	29.2	45.3	519.7	0
24233	2012-11-02T16:00:00	18	ND	ND	ND	ND	ND	1.7	240.3	27.2	57.7	142.4	0.76
24234	2012-11-02T17:00:00	25	ND	ND	ND	ND	ND	2	271.2	27.1	57.2	197.7	0
24235	2012-11-02T18:00:00	13	ND	ND	ND	ND	ND	2.4	279.7	26.3	57	30.4	0
24236	2012-11-02T19:00:00	20	ND	ND	ND	ND	ND	2.9	262.6	25.5	58.5	0	0
24237	2012-11-02T20:00:00	11	ND	ND	ND	ND	ND	1	261.6	25.2	60.2	0	0
24238	2012-11-02T21:00:00	25	ND	ND	ND	ND	ND	0.7	256.4	25	60.8	0	0
24239	2012-11-02T22:00:00	25	ND	ND	ND	ND	ND	1.5	170.4	23.8	71.2	0	0
24240	2012-11-02T23:00:00	16	ND	ND	ND	ND	ND	0.4	188.9	22.7	74.6	0	0
24241	2012-11-03T00:00:00	16	ND	ND	ND	ND	ND	0.3	ND	22.9	73.5	0	0
24242	2012-11-03T01:00:00	18	ND	ND	ND	ND	ND	0.7	283.2	23	72	0	0
24243	2012-11-03T02:00:00	10	ND	ND	ND	ND	ND	0.6	76.1	22.5	73.4	0	0
24244	2012-11-03T03:00:00	30	ND	ND	ND	ND	ND	0.7	42.6	21.9	74.5	0	0
24245	2012-11-03T04:00:00	17	ND	ND	ND	ND	ND	0.3	ND	22	73.9	0	0
24246	2012-11-03T05:00:00	25	ND	ND	ND	ND	ND	0.3	162.2	22	75.9	0	0
24247	2012-11-03T06:00:00	16	ND	ND	ND	ND	ND	1.2	27.5	21.5	83.1	0	0
24248	2012-11-03T07:00:00	42	ND	ND	ND	ND	ND	0.7	168.4	21.4	84	51.7	0
24249	2012-11-03T08:00:00	43	ND	ND	ND	ND	ND	0.9	157.4	22.4	77.3	174.3	0
24250	2012-11-03T09:00:00	36	ND	ND	ND	ND	ND	1	162.6	23.9	71.9	413.5	0
24251	2012-11-03T10:00:00	27	ND	ND	ND	ND	ND	1.4	144.3	25.1	66.6	560.4	0
24252	2012-11-03T11:00:00	36	ND	ND	ND	ND	ND	1.7	157.5	26.9	59.7	759.5	0
24253	2012-11-03T12:00:00	24	ND	ND	ND	ND	ND	1.7	149.1	27.7	57.2	797.2	0
24254	2012-11-03T13:00:00	29	ND	ND	ND	ND	ND	1.3	146.6	29.2	50.1	876.7	0
24255	2012-11-03T14:00:00	16	ND	ND	ND	ND	ND	0.3	47.7	30.1	47.1	596.1	0
24256	2012-11-03T15:00:00	12	ND	ND	ND	ND	ND	2.5	311.8	30.6	45.9	714.5	0
24257	2012-11-03T16:00:00	7	ND	ND	ND	ND	ND	3.7	287.3	29.5	48.2	456.5	0
24258	2012-11-03T17:00:00	9	ND	ND	ND	ND	ND	3.2	284.2	28.5	50.1	197.1	0
24259	2012-11-03T18:00:00	15	ND	ND	ND	ND	ND	2.7	274.9	26.9	55.1	11	0
24260	2012-11-03T19:00:00	9	ND	ND	ND	ND	ND	3.9	280.3	26.1	56.6	0	0
24261	2012-11-03T20:00:00	6	ND	ND	ND	ND	ND	3.1	283.5	25.8	57.9	0	0
24262	2012-11-03T21:00:00	4	ND	ND	ND	ND	ND	1.5	282.5	25.6	59	0	0
24263	2012-11-03T22:00:00	3	ND	ND	ND	ND	ND	1.8	259.5	25.4	60.2	0	0
24264	2012-11-03T23:00:00	14	ND	ND	ND	ND	ND	1.4	234.4	25	63.7	0	0
24265	2012-11-04T00:00:00	9	ND	ND	ND	ND	ND	1	230.3	24.7	65.8	0	0
24266	2012-11-04T01:00:00	21	ND	ND	ND	ND	ND	0.9	137.2	23.7	74.1	0	0
24267	2012-11-04T02:00:00	25	ND	ND	ND	ND	ND	0.6	113.3	23.4	73.6	0	0
24268	2012-11-04T03:00:00	26	ND	ND	ND	ND	ND	1.1	144.8	23.1	74.5	0	0
24269	2012-11-04T04:00:00	15	ND	ND	ND	ND	ND	0.9	156.8	22.3	80.2	0	0
24270	2012-11-04T05:00:00	14	ND	ND	ND	ND	ND	0.7	168.6	22.2	81	0	0
24271	2012-11-04T06:00:00	8	ND	ND	ND	ND	ND	0.7	144.1	22.2	80.3	0	0
24272	2012-11-04T07:00:00	30	ND	ND	ND	ND	ND	0.5	91.7	22.5	78.6	57.9	0
24273	2012-11-04T08:00:00	16	ND	ND	ND	ND	ND	0.4	125.2	24	71.7	266.4	0
24274	2012-11-04T09:00:00	27	ND	ND	ND	ND	ND	2.1	129.5	25	67	443	0
24275	2012-11-04T10:00:00	16	ND	ND	ND	ND	ND	1.3	137.7	25.9	62.9	493.6	0
24276	2012-11-04T11:00:00	21	ND	ND	ND	ND	ND	2	169.4	26.8	59.9	668.9	0
24277	2012-11-04T12:00:00	12	ND	ND	ND	ND	ND	0.6	180.5	28.5	51.7	735.1	0
24278	2012-11-04T13:00:00	16	ND	ND	ND	ND	ND	1.4	124.3	29.4	48.4	446.2	0
24279	2012-11-04T14:00:00	13	ND	ND	ND	ND	ND	0.5	34.5	28.6	50.6	183.6	0
24280	2012-11-04T15:00:00	17	ND	ND	ND	ND	ND	2.6	276.8	28.6	49.1	275.1	0
24281	2012-11-04T16:00:00	9	ND	ND	ND	ND	ND	2.2	257.4	28.5	48.7	175.6	0
24282	2012-11-04T17:00:00	4	ND	ND	ND	ND	ND	2.7	260.1	27.5	52	101.6	0
24283	2012-11-04T18:00:00	3	ND	ND	ND	ND	ND	3.5	267.7	26.7	54.5	18.6	0
24284	2012-11-04T19:00:00	6	ND	ND	ND	ND	ND	2.6	244.9	25.5	61.4	0	0
24285	2012-11-04T20:00:00	4	ND	ND	ND	ND	ND	1.8	263.7	25.6	58.5	0	0
24286	2012-11-04T21:00:00	8	ND	ND	ND	ND	ND	0.8	37.2	24.9	65.6	0	0
24287	2012-11-04T22:00:00	29	ND	ND	ND	ND	ND	0.7	132.2	24.1	69.8	0	0
24288	2012-11-04T23:00:00	32	ND	ND	ND	ND	ND	0.9	216.6	23.8	69.4	0	0
24289	2012-11-05T00:00:00	18	ND	ND	ND	ND	ND	2.2	255	23.9	64.4	0	0
24290	2012-11-05T01:00:00	10	ND	ND	ND	ND	ND	1.4	255.7	23.8	65	0	0
24291	2012-11-05T02:00:00	7	ND	ND	ND	ND	ND	0.9	188.6	23.2	71.4	0	0
24292	2012-11-05T03:00:00	19	ND	ND	ND	ND	ND	0.4	131.2	22.4	77.7	0	0
24293	2012-11-05T04:00:00	21	ND	ND	ND	ND	ND	0.5	40.3	22.4	78.3	0	0
24294	2012-11-05T05:00:00	26	ND	ND	ND	ND	ND	1.2	32.2	22.1	80.1	0	0
24295	2012-11-05T06:00:00	14	ND	ND	ND	ND	ND	1.3	43	21	85.2	0	0
24296	2012-11-05T07:00:00	14	ND	ND	ND	ND	ND	0.3	60.8	21.4	84.1	75.3	0
24297	2012-11-05T08:00:00	8	ND	ND	ND	ND	ND	0.3	ND	22.4	79.7	160.6	0
24298	2012-11-05T09:00:00	22	ND	ND	ND	ND	ND	0.7	173.8	23.9	72.2	387	0
24299	2012-11-05T10:00:00	12	ND	ND	ND	ND	ND	0.6	137	25.2	64.7	450.8	0
24300	2012-11-05T11:00:00	17	ND	ND	ND	ND	ND	1	105.8	26.9	58.8	689.7	0
24301	2012-11-05T12:00:00	12	ND	ND	ND	ND	ND	1.2	56.5	27.9	54.8	591.9	0
24302	2012-11-05T13:00:00	27	ND	ND	ND	ND	ND	1.7	70.5	28.5	53.4	643.8	0
24303	2012-11-05T14:00:00	15	ND	ND	ND	ND	ND	1.3	86.8	28.5	53	333	0
24304	2012-11-05T15:00:00	23	ND	ND	ND	ND	ND	1.7	136.9	28.4	54.9	420.6	0
24305	2012-11-05T16:00:00	13	ND	ND	ND	ND	ND	1.1	130.4	28.8	54.6	424.7	0
24306	2012-11-05T17:00:00	33	ND	ND	ND	ND	ND	1.7	13.1	27.8	55.9	27.1	0
24307	2012-11-05T18:00:00	18	ND	ND	ND	ND	ND	2.5	251.2	25.6	62.2	0	0
24308	2012-11-05T19:00:00	15	ND	ND	ND	ND	ND	1.6	275.9	25.3	63.5	0	0
24309	2012-11-05T20:00:00	20	ND	ND	ND	ND	ND	0.4	89.4	24.9	66.1	0	0
24310	2012-11-05T21:00:00	41	ND	ND	ND	ND	ND	0.5	79.6	23.7	74.2	0	0
24311	2012-11-05T22:00:00	23	ND	ND	ND	ND	ND	1.7	183.6	23.3	73.2	0	0
24312	2012-11-05T23:00:00	22	ND	ND	ND	ND	ND	0.8	168.1	22.9	74.5	0	0
24313	2012-11-06T00:00:00	12	ND	ND	ND	ND	ND	0.1	229	23.1	71.5	0	0
24314	2012-11-06T01:00:00	7	ND	ND	ND	ND	ND	0.1	ND	22.8	71.8	0	0
24315	2012-11-06T02:00:00	4	ND	ND	ND	ND	ND	0.2	244.7	22.3	74.2	0	0
24316	2012-11-06T03:00:00	15	ND	ND	ND	ND	ND	0.5	340.1	22.2	77.2	0	0
24317	2012-11-06T04:00:00	8	ND	ND	ND	ND	ND	0.4	260.3	22.3	71.6	0	0
24318	2012-11-06T05:00:00	34	ND	ND	ND	ND	ND	0.6	90.9	21.9	80	0	0
24319	2012-11-06T06:00:00	36	ND	ND	ND	ND	ND	0.7	175.5	21.1	84.3	0	0
24320	2012-11-06T07:00:00	25	ND	ND	ND	ND	ND	0.5	282.3	21.3	83.1	27.4	2.29
24321	2012-11-06T08:00:00	14	ND	ND	ND	ND	ND	0.8	57.6	22	82.9	115.8	0
24322	2012-11-06T09:00:00	44	ND	ND	ND	ND	ND	1.6	73.3	22.6	81.9	259.8	0
24323	2012-11-06T10:00:00	23	ND	ND	ND	ND	ND	1.1	25.9	24.2	71.3	381.6	0
24324	2012-11-06T11:00:00	12	ND	ND	ND	ND	ND	1.1	69.5	26.3	61	755.7	0
24325	2012-11-06T12:00:00	7	ND	ND	ND	ND	ND	1.9	65.5	28	56.2	719.3	0
24326	2012-11-06T13:00:00	30	ND	ND	ND	ND	ND	1.5	62.8	28.1	55	414.8	0
24327	2012-11-06T14:00:00	17	ND	ND	ND	ND	ND	0.9	296	28	53.2	325.3	0
24328	2012-11-06T15:00:00	9	ND	ND	ND	ND	ND	3	283.6	27.9	49.3	244.4	0
24329	2012-11-06T16:00:00	6	ND	ND	ND	ND	ND	2.8	278.8	26.6	54.3	100.3	0
24330	2012-11-06T17:00:00	6	ND	ND	ND	ND	ND	3.1	271.4	26.5	54.6	128.2	0
24331	2012-11-06T18:00:00	9	ND	ND	ND	ND	ND	2.9	269.9	26.2	55	44.3	0
24332	2012-11-06T19:00:00	7	ND	ND	ND	ND	ND	2.6	282.3	25.5	56.5	0	0
24333	2012-11-06T20:00:00	4	ND	ND	ND	ND	ND	2.6	287.8	25.1	56.7	0	0
24334	2012-11-06T21:00:00	3	ND	ND	ND	ND	ND	2.3	294.6	24.7	59.2	0	0
24335	2012-11-06T22:00:00	2	ND	ND	ND	ND	ND	2	260.2	24.1	64.2	0	0
24336	2012-11-06T23:00:00	4	ND	ND	ND	ND	ND	2.3	207.6	22.8	75.1	0	0
24337	2012-11-07T00:00:00	3	ND	ND	ND	ND	ND	1.3	215	22.8	73	0	0
24338	2012-11-07T01:00:00	3	ND	ND	ND	ND	ND	0.5	198.1	22.2	77.1	0	0
24339	2012-11-07T02:00:00	3	ND	ND	ND	ND	ND	0.6	176.9	21.9	79.1	0	0
24340	2012-11-07T03:00:00	18	ND	ND	ND	ND	ND	0.4	339.2	22	75.9	0	0
24341	2012-11-07T04:00:00	18	ND	ND	ND	ND	ND	0.7	43.2	21.9	77.7	0	0
24342	2012-11-07T05:00:00	45	ND	ND	ND	ND	ND	0.5	51.7	21.2	85.1	0	0.51
24343	2012-11-07T06:00:00	26	ND	ND	ND	ND	ND	0.2	64.6	21.2	83.5	0.1	0
24344	2012-11-07T07:00:00	47	ND	ND	ND	ND	ND	0.1	353.4	21.3	84.6	18.5	0
24345	2012-11-07T08:00:00	36	ND	ND	ND	ND	ND	1.4	246.8	22	78.1	72.7	0.25
24346	2012-11-07T09:00:00	49	ND	ND	ND	ND	ND	0.5	144.7	23	73.6	166.6	0
24347	2012-11-07T10:00:00	26	ND	ND	ND	ND	ND	0.5	148.3	25.4	65.4	611.3	0
24348	2012-11-07T11:00:00	33	ND	ND	ND	ND	ND	0.9	141.3	26.9	57.6	710.3	0
24349	2012-11-07T12:00:00	19	ND	ND	ND	ND	ND	0.9	116.6	27.9	52.5	524.3	0
24350	2012-11-07T13:00:00	25	ND	ND	ND	ND	ND	1	10.3	28.6	48.9	588	0
24351	2012-11-07T14:00:00	13	ND	ND	ND	ND	ND	1.4	334.4	30.1	42.9	612.7	0
24352	2012-11-07T15:00:00	10	ND	ND	ND	ND	ND	3.2	280	30.3	41.5	644.1	0
24353	2012-11-07T16:00:00	7	ND	ND	ND	ND	ND	4.1	284.9	29.6	44.1	420.9	0
24354	2012-11-07T17:00:00	17	ND	ND	ND	ND	ND	3.5	277.6	28.5	47.5	245.2	0
24355	2012-11-07T18:00:00	17	ND	ND	ND	ND	ND	3.9	273.7	26.6	52.5	12.8	0
24356	2012-11-07T19:00:00	16	ND	ND	ND	ND	ND	3.9	280.6	25.7	55.9	0	0
24357	2012-11-07T20:00:00	8	ND	ND	ND	ND	ND	1.4	294.2	25.7	54.9	0	0
24358	2012-11-07T21:00:00	4	ND	ND	ND	ND	ND	2.6	265.7	25	58.3	0	0
24359	2012-11-07T22:00:00	4	ND	ND	ND	ND	ND	2.7	255.4	24.5	60	0	0
24360	2012-11-07T23:00:00	3	ND	ND	ND	ND	ND	0.9	266.2	24.2	61.8	0	0
24361	2012-11-08T00:00:00	5	ND	ND	ND	ND	ND	0.6	11	23.2	69.3	0	0
24362	2012-11-08T01:00:00	23	ND	ND	ND	ND	ND	0.5	53.9	22.4	73.6	0	0
24363	2012-11-08T02:00:00	19	ND	ND	ND	ND	ND	0.6	137.2	22.6	73	0	0
24364	2012-11-08T03:00:00	11	ND	ND	ND	ND	ND	1.2	159	22.3	75.1	0	0
24365	2012-11-08T04:00:00	11	ND	ND	ND	ND	ND	1.3	177.8	21.8	77.5	0	0
24366	2012-11-08T05:00:00	33	ND	ND	ND	ND	ND	1.5	191.8	21.4	80.6	0	0
24367	2012-11-08T06:00:00	38	ND	ND	ND	ND	ND	0.4	157.8	21.5	80.8	0	0
24368	2012-11-08T07:00:00	26	ND	ND	ND	ND	ND	0.3	194.6	21.7	79.5	13.1	0
24369	2012-11-08T08:00:00	29	ND	ND	ND	ND	ND	0.8	185.5	22.2	77.3	87.4	0
24370	2012-11-08T09:00:00	54	ND	ND	ND	ND	ND	0.9	157.5	23.3	73.3	229.4	0
24371	2012-11-08T10:00:00	34	ND	ND	ND	ND	ND	0.8	146	24.1	68.8	275.6	0
24372	2012-11-08T11:00:00	50	ND	ND	ND	ND	ND	0.2	63.4	25.8	62.4	503	0
24373	2012-11-08T12:00:00	67	ND	ND	ND	ND	ND	1.9	53.6	26.1	61.6	381.7	0
24374	2012-11-08T13:00:00	50	ND	ND	ND	ND	ND	1.2	70	26.6	59.6	393.7	0
24375	2012-11-08T14:00:00	29	ND	ND	ND	ND	ND	1	76.5	27.1	58	413.1	0
24376	2012-11-08T15:00:00	51	ND	ND	ND	ND	ND	1.1	46.3	28.2	54.5	546.8	0
24377	2012-11-08T16:00:00	64	ND	ND	ND	ND	ND	1.4	31.2	28.6	52.8	379.4	0
24378	2012-11-08T17:00:00	54	ND	ND	ND	ND	ND	1.8	299	28.3	51.9	173	0
24379	2012-11-08T18:00:00	43	ND	ND	ND	ND	ND	2.9	272.6	27	54.5	15.4	0
24380	2012-11-08T19:00:00	23	ND	ND	ND	ND	ND	3.1	279.1	25.8	58.2	0	0
24381	2012-11-08T20:00:00	13	ND	ND	ND	ND	ND	2.6	285	25.7	57.9	0	0
24382	2012-11-08T21:00:00	8	ND	ND	ND	ND	ND	2.2	292.8	25.3	59.4	0	0
24383	2012-11-08T22:00:00	16	ND	ND	ND	ND	ND	0.5	31.8	24.4	64.6	0	0
24384	2012-11-08T23:00:00	19	ND	ND	ND	ND	ND	1.2	228.5	24.3	64.8	0	0
24385	2012-11-09T00:00:00	15	ND	ND	ND	ND	ND	0.9	232.5	23.7	68.2	0	0
24386	2012-11-09T01:00:00	33	ND	ND	ND	ND	ND	0.5	190.4	23	72.9	0	0
24387	2012-11-09T02:00:00	29	ND	ND	ND	ND	ND	0.4	352.2	22	78.3	0	0
24388	2012-11-09T03:00:00	42	ND	ND	ND	ND	ND	1.1	187.1	22.2	77.6	0	0
24389	2012-11-09T04:00:00	29	ND	ND	ND	ND	ND	0.8	178.6	21.8	78.6	0	0
24390	2012-11-09T05:00:00	37	ND	ND	ND	ND	ND	0.8	200	21.8	78.2	0	0
24391	2012-11-09T06:00:00	28	ND	ND	ND	ND	ND	0.1	299.1	21.9	77.5	0.6	0
24392	2012-11-09T07:00:00	76	ND	ND	ND	ND	ND	0.8	45.2	21.7	80.2	54.1	0
24393	2012-11-09T08:00:00	52	ND	ND	ND	ND	ND	0.9	246.4	23	70.9	141.4	0
24394	2012-11-09T09:00:00	59	ND	ND	ND	ND	ND	1.2	157.6	24.1	67.4	172.3	0
24395	2012-11-09T10:00:00	49	ND	ND	ND	ND	ND	1.1	111.3	25.2	64.1	388.1	0
24396	2012-11-09T11:00:00	40	ND	ND	ND	ND	ND	0.3	85.3	26.1	59.9	435.8	0
24397	2012-11-09T12:00:00	34	ND	ND	ND	ND	ND	0.5	120.9	27.3	56.4	505.8	0
24398	2012-11-09T13:00:00	76	ND	ND	ND	ND	ND	1.7	80.2	28.3	53.8	598.5	0
24399	2012-11-09T14:00:00	47	ND	ND	ND	ND	ND	1.4	47	29	51.9	466.2	0
24400	2012-11-09T15:00:00	71	ND	ND	ND	ND	ND	1.3	54.9	28.7	52.2	264.6	0
24401	2012-11-09T16:00:00	51	ND	ND	ND	ND	ND	1	303.2	28.6	52.2	144.6	0
24402	2012-11-09T17:00:00	55	ND	ND	ND	ND	ND	3	273.2	27.8	51.4	97	0
24403	2012-11-09T18:00:00	45	ND	ND	ND	ND	ND	2.9	269.4	26.9	53.9	18.2	0
24404	2012-11-09T19:00:00	24	ND	ND	ND	ND	ND	3.1	268.9	26.1	56.6	0	0
24405	2012-11-09T20:00:00	13	ND	ND	ND	ND	ND	2.3	272.6	25.7	58.6	0	0
24406	2012-11-09T21:00:00	8	ND	ND	ND	ND	ND	2.1	281.7	25.4	60.1	0	0
24407	2012-11-09T22:00:00	39	ND	ND	ND	ND	ND	0.6	81.6	24.3	67.7	0	0
24408	2012-11-09T23:00:00	38	ND	ND	ND	ND	ND	0.5	146.2	23.7	70	0	0
24409	2012-11-10T00:00:00	36	ND	ND	ND	ND	ND	0.8	240.7	23.5	70.6	0	0
24410	2012-11-10T01:00:00	50	ND	ND	ND	ND	ND	0.2	139.7	22.6	76.1	0	0
24411	2012-11-10T02:00:00	43	ND	ND	ND	ND	ND	0.8	194.9	22.6	76.6	0	0
24412	2012-11-10T03:00:00	43	ND	ND	ND	ND	ND	0.1	100.4	22.2	78.6	0	0
24413	2012-11-10T04:00:00	23	ND	ND	ND	ND	ND	0.1	209.8	21.5	82.3	0	0
24414	2012-11-10T05:00:00	17	ND	ND	ND	ND	ND	0.1	223.9	21.5	80.3	0	0
24415	2012-11-10T06:00:00	14	ND	ND	ND	ND	ND	0.6	192.6	21.5	78.4	1	0
24416	2012-11-10T07:00:00	25	ND	ND	ND	ND	ND	0.1	152.5	21.8	78.9	77.6	0
24417	2012-11-10T08:00:00	23	ND	ND	ND	ND	ND	0.6	147.2	23.5	72.9	265.8	0
24418	2012-11-10T09:00:00	54	ND	ND	ND	ND	ND	1	138.7	25.2	66.5	383.6	0
24419	2012-11-10T10:00:00	49	ND	ND	ND	ND	ND	0.6	117	26.4	60.6	610	0
24420	2012-11-10T11:00:00	57	ND	ND	ND	ND	ND	0.3	149.1	28.1	54.9	585.9	0
24421	2012-11-10T12:00:00	50	ND	ND	ND	ND	ND	1	85.5	29	51.2	398.6	0
24422	2012-11-10T13:00:00	66	ND	ND	ND	ND	ND	1	17.4	29.8	48.9	541.7	0
24423	2012-11-10T14:00:00	35	ND	ND	ND	ND	ND	1.7	1.4	30.9	44.9	581.6	0
24424	2012-11-10T15:00:00	34	ND	ND	ND	ND	ND	3.4	280	29.7	47.8	339.3	0
24425	2012-11-10T16:00:00	30	ND	ND	ND	ND	ND	3.6	279.6	28.5	49.5	259.9	0
24426	2012-11-10T17:00:00	24	ND	ND	ND	ND	ND	3.1	283.9	27.9	50.4	157.5	0
24427	2012-11-10T18:00:00	13	ND	ND	ND	ND	ND	3.3	273.9	27.2	52	23.9	0
24428	2012-11-10T19:00:00	22	ND	ND	ND	ND	ND	3.6	267.8	26.3	55.5	0	0
24429	2012-11-10T20:00:00	13	ND	ND	ND	ND	ND	3.3	275.9	25.7	58.8	0	0
24430	2012-11-10T21:00:00	14	ND	ND	ND	ND	ND	2.5	266.5	25.3	61.5	0	0
24431	2012-11-10T22:00:00	8	ND	ND	ND	ND	ND	1.9	239.9	25	60.7	0	0
24432	2012-11-10T23:00:00	13	ND	ND	ND	ND	ND	1	266.2	24.5	63.4	0	0
24433	2012-11-11T00:00:00	28	ND	ND	ND	ND	ND	0.9	327.3	24.3	66.8	0	0
24434	2012-11-11T01:00:00	53	ND	ND	ND	ND	ND	0.7	24.7	23.5	72.7	0	0
24435	2012-11-11T02:00:00	39	ND	ND	ND	ND	ND	0.3	147.4	23.1	74.2	0	0
24436	2012-11-11T03:00:00	32	ND	ND	ND	ND	ND	0.7	231.1	23.2	71	0	0
24437	2012-11-11T04:00:00	17	ND	ND	ND	ND	ND	0.9	276.2	23.3	69.3	0	0
24438	2012-11-11T05:00:00	17	ND	ND	ND	ND	ND	1	218.3	22.1	80.5	0	0.51
24439	2012-11-11T06:00:00	10	ND	ND	ND	ND	ND	0.1	354.4	20.9	88.5	0	3.81
24440	2012-11-11T07:00:00	8	ND	ND	ND	ND	ND	0.7	311.3	21	88.9	8.2	1.78
24441	2012-11-11T08:00:00	9	ND	ND	ND	ND	ND	1	20	21.4	87.1	40.9	0
24442	2012-11-11T09:00:00	18	ND	ND	ND	ND	ND	1.4	13.5	21.7	84	146.5	0
24443	2012-11-11T10:00:00	11	ND	ND	ND	ND	ND	1	55.3	22.6	80.2	227.6	0
24444	2012-11-11T11:00:00	6	ND	ND	ND	ND	ND	0.5	35.6	23.5	75.6	382.2	0
24445	2012-11-11T12:00:00	11	ND	ND	ND	ND	ND	0.7	36.4	24.6	70.1	381.1	0
24446	2012-11-11T13:00:00	7	ND	ND	ND	ND	ND	0.8	59.8	25.7	64.2	374.2	0
24447	2012-11-11T14:00:00	3	ND	ND	ND	ND	ND	1.2	43.2	25.9	63.2	360.3	0
24448	2012-11-11T15:00:00	2	ND	ND	ND	ND	ND	1.1	32.2	26.5	61.3	345	0
24449	2012-11-11T16:00:00	6	ND	ND	ND	ND	ND	1.1	27.4	26.8	61.2	268.4	0
24450	2012-11-11T17:00:00	10	ND	ND	ND	ND	ND	1.6	19.5	26.4	62.3	141.5	0
24451	2012-11-11T18:00:00	78	ND	ND	ND	ND	ND	1.3	43.3	25.6	65	22.3	0
24452	2012-11-11T19:00:00	39	ND	ND	ND	ND	ND	0.4	47.2	24.6	68.2	0	0
24453	2012-11-11T20:00:00	21	ND	ND	ND	ND	ND	1	248.8	24.2	66.3	0	0
24454	2012-11-11T21:00:00	27	ND	ND	ND	ND	ND	1.9	253	24	65.8	0	0
24455	2012-11-11T22:00:00	15	ND	ND	ND	ND	ND	0.9	289.6	23.3	69.7	0	0
24456	2012-11-11T23:00:00	32	ND	ND	ND	ND	ND	0.3	65.6	22.3	77.5	0	0
24457	2012-11-12T00:00:00	17	ND	ND	ND	ND	ND	0.5	239.7	22.3	74.3	0	0
24458	2012-11-12T01:00:00	20	ND	ND	ND	ND	ND	0.4	185.3	22	75.8	0	0
24459	2012-11-12T02:00:00	11	ND	ND	ND	ND	ND	0.1	43.3	20.9	82.3	0	0
24460	2012-11-12T03:00:00	12	ND	ND	ND	ND	ND	0.2	193.3	21.4	81.2	0	0
24461	2012-11-12T04:00:00	7	ND	ND	ND	ND	ND	0.6	214.6	21.5	82.1	0	0
24462	2012-11-12T05:00:00	8	ND	ND	ND	ND	ND	1.3	250.6	21.3	82.8	0	0.51
24463	2012-11-12T06:00:00	7	ND	ND	ND	ND	ND	1	8.7	20.6	87.2	0	1.52
24464	2012-11-12T07:00:00	13	ND	ND	ND	ND	ND	0.1	331.5	20.4	87.7	31.9	0
24465	2012-11-12T08:00:00	8	ND	ND	ND	ND	ND	0.4	199.3	21.3	83.3	123.3	0
24466	2012-11-12T09:00:00	5	ND	ND	ND	ND	ND	0.6	204.1	22.8	79	316.5	0
24467	2012-11-12T10:00:00	4	ND	ND	ND	ND	ND	0.4	173.7	25	67.6	568.4	0
24468	2012-11-12T11:00:00	5	ND	ND	ND	ND	ND	0.7	125.9	27.2	58.4	736.1	0
24469	2012-11-12T12:00:00	8	ND	ND	ND	ND	ND	0.9	52.5	28.1	54.8	640	0
24470	2012-11-12T13:00:00	15	ND	ND	ND	ND	ND	1.3	359.3	29.1	51.3	792.7	0
24471	2012-11-12T14:00:00	9	ND	ND	ND	ND	ND	1.5	307.5	30.2	44.7	730.3	0
24472	2012-11-12T15:00:00	5	ND	ND	ND	ND	ND	4	276.7	29.8	43.3	642	0
24473	2012-11-12T16:00:00	3	ND	ND	ND	ND	ND	4.2	275.2	29.5	44.1	521.2	0
24474	2012-11-12T17:00:00	2	ND	ND	ND	ND	ND	3.5	281.4	28.4	46.8	182.2	0
24475	2012-11-12T18:00:00	2	ND	ND	ND	ND	ND	4	274	26.3	53.1	13.3	0
24476	2012-11-12T19:00:00	7	ND	ND	ND	ND	ND	3.3	259.5	26	53.7	0	0
24477	2012-11-12T20:00:00	5	ND	ND	ND	ND	ND	1	195.8	25.3	62.1	0	0
24478	2012-11-12T21:00:00	29	ND	ND	ND	ND	ND	1.3	129.9	23.6	73.5	0	0
24479	2012-11-12T22:00:00	39	ND	ND	ND	ND	ND	0.9	127.6	22.9	76.8	0	0
24480	2012-11-12T23:00:00	30	ND	ND	ND	ND	ND	0.7	28	22.8	77.4	0	0
24481	2012-11-13T00:00:00	16	ND	ND	ND	ND	ND	1.5	6.7	22.3	79.4	0	0
24482	2012-11-13T01:00:00	10	ND	ND	ND	ND	ND	1.3	1.2	21.8	81.2	0	0
24483	2012-11-13T02:00:00	7	ND	ND	ND	ND	ND	0.8	30.1	21.8	80.2	0	0
24484	2012-11-13T03:00:00	5	ND	ND	ND	ND	ND	0.6	32	21.4	81.2	0	0
24485	2012-11-13T04:00:00	4	ND	ND	ND	ND	ND	0.1	38	21.3	81.7	0	0
24486	2012-11-13T05:00:00	22	ND	ND	ND	ND	ND	0.5	250.7	21.6	78.3	0	0
24487	2012-11-13T06:00:00	13	ND	ND	ND	ND	ND	0.6	58.1	21.7	79	0	0
24488	2012-11-13T07:00:00	20	ND	ND	ND	ND	ND	0.5	126.2	21.7	80.5	12.7	0
24489	2012-11-13T08:00:00	33	ND	ND	ND	ND	ND	0.3	92.2	21.8	81.9	71	0
24490	2012-11-13T09:00:00	71	ND	ND	ND	ND	ND	0.5	56.5	23.2	74	210.9	0
24491	2012-11-13T10:00:00	39	ND	ND	ND	ND	ND	0.1	328.1	25.4	63.7	474.9	0
24492	2012-11-13T11:00:00	39	ND	ND	ND	ND	ND	1.7	114.4	27.1	58.5	611.3	0
24493	2012-11-13T12:00:00	21	ND	ND	ND	ND	ND	0	112.8	27.5	56.2	457.3	0
24494	2012-11-13T13:00:00	27	ND	ND	ND	ND	ND	1.4	285.2	28.8	51.9	730.3	0
24495	2012-11-13T14:00:00	22	ND	ND	ND	ND	ND	1.5	251.8	30.2	46.8	782.5	0
24496	2012-11-13T15:00:00	37	ND	ND	ND	ND	ND	1.9	55.1	29.7	50	402.7	0
24497	2012-11-13T16:00:00	19	ND	ND	ND	ND	ND	1.1	292	28.7	53.5	288.8	1.27
24498	2012-11-13T17:00:00	45	ND	ND	ND	ND	ND	2.6	291.6	26.6	58.7	76.6	0
24499	2012-11-13T18:00:00	23	ND	ND	ND	ND	ND	2.6	286.9	26.1	57.9	20.6	0
24500	2012-11-13T19:00:00	13	ND	ND	ND	ND	ND	1.9	290.6	26.1	56.9	0	0
24501	2012-11-13T20:00:00	18	ND	ND	ND	ND	ND	0.9	275.8	25.7	58.5	0	0
24502	2012-11-13T21:00:00	16	ND	ND	ND	ND	ND	1.2	268.8	25.3	59	0	0
24503	2012-11-13T22:00:00	14	ND	ND	ND	ND	ND	0.9	349.7	24.4	65.4	0	0
24504	2012-11-13T23:00:00	30	ND	ND	ND	ND	ND	0.1	84.2	23.6	73.7	0	0
24505	2012-11-14T00:00:00	18	ND	ND	ND	ND	ND	1.4	131.3	23	79.6	0	0
24506	2012-11-14T01:00:00	39	ND	ND	ND	ND	ND	0.9	126.2	22.9	76.3	0	0
24507	2012-11-14T02:00:00	20	ND	ND	ND	ND	ND	1	146.5	22.7	75.6	0	0
24508	2012-11-14T03:00:00	11	ND	ND	ND	ND	ND	0.9	185.8	22.3	81.1	0	0
24509	2012-11-14T04:00:00	8	ND	ND	ND	ND	ND	0.5	134.9	22.2	81.8	0	0
24510	2012-11-14T05:00:00	17	ND	ND	ND	ND	ND	0.9	149.1	22.1	82.7	0	0
24511	2012-11-14T06:00:00	10	ND	ND	ND	ND	ND	1.4	162.9	22.1	82.7	0	0
24512	2012-11-14T07:00:00	31	ND	ND	ND	ND	ND	1.7	150.6	21.6	80.4	18.3	0
24513	2012-11-14T08:00:00	33	ND	ND	ND	ND	ND	1.6	135.6	21.8	77.2	99	0
24514	2012-11-14T09:00:00	25	ND	ND	ND	ND	ND	1.1	108.2	23	71.6	370.8	0
24515	2012-11-14T10:00:00	14	ND	ND	ND	ND	ND	1.4	101.9	25.1	63.9	622	0
24516	2012-11-14T11:00:00	18	ND	ND	ND	ND	ND	1.7	126.1	26.6	58.7	778.7	0
24517	2012-11-14T12:00:00	11	ND	ND	ND	ND	ND	1.3	117.9	27.7	54.5	494.2	0
24518	2012-11-14T13:00:00	6	ND	ND	ND	ND	ND	1.7	166.3	28.1	54.3	502.3	0
24519	2012-11-14T14:00:00	16	ND	ND	ND	ND	ND	1	154.6	28.7	52.6	438.1	0
24520	2012-11-14T15:00:00	20	ND	ND	ND	ND	ND	2.6	272.8	27.8	55.8	207.4	0
24521	2012-11-14T16:00:00	18	ND	ND	ND	ND	ND	2.8	272.8	26.7	62.1	179.3	0
24522	2012-11-14T17:00:00	24	ND	ND	ND	ND	ND	3.3	268.1	26.7	60.8	94.9	0
24523	2012-11-14T18:00:00	13	ND	ND	ND	ND	ND	3.4	274	25.9	61	20.9	0
24524	2012-11-14T19:00:00	16	ND	ND	ND	ND	ND	3.3	276.8	25.2	62.1	0	0
24525	2012-11-14T20:00:00	12	ND	ND	ND	ND	ND	2.7	284.4	25.1	60.9	0	0
24526	2012-11-14T21:00:00	25	ND	ND	ND	ND	ND	0.1	33.6	24.7	64.5	0	0
24527	2012-11-14T22:00:00	15	ND	ND	ND	ND	ND	2.7	256	24.3	63.1	0	0
24528	2012-11-14T23:00:00	7	ND	ND	ND	ND	ND	2.7	246.1	24.2	65.4	0	0
24529	2012-11-15T00:00:00	6	ND	ND	ND	ND	ND	1.5	249.9	24	64.8	0	0
24530	2012-11-15T01:00:00	4	ND	ND	ND	ND	ND	0.3	154.3	23.6	69.5	0	0
24531	2012-11-15T02:00:00	3	ND	ND	ND	ND	ND	1.4	52.1	22.4	79.1	0	0
24532	2012-11-15T03:00:00	5	ND	ND	ND	ND	ND	1.7	25.3	21.9	79.4	0	0
24533	2012-11-15T04:00:00	4	ND	ND	ND	ND	ND	1.5	26	21.6	82.2	0	0.76
24534	2012-11-15T05:00:00	4	ND	ND	ND	ND	ND	1.6	25	20.7	85.7	0	2.03
24535	2012-11-15T06:00:00	4	ND	ND	ND	ND	ND	2.1	32.6	20.1	89.1	0	6.1
24536	2012-11-15T07:00:00	6	ND	ND	ND	ND	ND	1.8	6.5	20	89.7	18.5	1.78
24537	2012-11-15T08:00:00	5	ND	ND	ND	ND	ND	0.7	69.5	20.7	80.1	69.8	0
24538	2012-11-15T09:00:00	17	ND	ND	ND	ND	ND	0.8	144.7	20.9	81.7	82.6	0
24539	2012-11-15T10:00:00	15	ND	ND	ND	ND	ND	1.5	152	20.7	85.6	183.5	0.25
24540	2012-11-15T11:00:00	16	ND	ND	ND	ND	ND	1.3	168.1	20.9	82.4	199.1	0.25
24541	2012-11-15T12:00:00	27	ND	ND	ND	ND	ND	1.6	194.3	21.4	81.2	281.8	0
24542	2012-11-15T13:00:00	15	ND	ND	ND	ND	ND	0.7	195.1	22.9	74.5	347.7	0
24543	2012-11-15T14:00:00	9	ND	ND	ND	ND	ND	1.4	153.5	23.6	69.6	306.1	0
24544	2012-11-15T15:00:00	19	ND	ND	ND	ND	ND	0.8	131.6	24.9	66.1	459.4	0
24545	2012-11-15T16:00:00	19	ND	ND	ND	ND	ND	1.3	27.7	26.1	61.5	267.4	0
24546	2012-11-15T17:00:00	45	ND	ND	ND	ND	ND	0	99.2	25.2	65.6	74	0
24547	2012-11-15T18:00:00	59	ND	ND	ND	ND	ND	1.8	175.7	23.9	70.4	16.6	0
24548	2012-11-15T19:00:00	47	ND	ND	ND	ND	ND	1.2	195.1	23.3	72.5	0	0
24549	2012-11-15T20:00:00	43	ND	ND	ND	ND	ND	0.7	243.4	23.3	74.8	0	0
24550	2012-11-15T21:00:00	50	ND	ND	ND	ND	ND	1	279.9	22.9	74.3	0	0
24551	2012-11-15T22:00:00	36	ND	ND	ND	ND	ND	0.6	266.6	22.9	73.5	0	0
24552	2012-11-15T23:00:00	72	ND	ND	ND	ND	ND	0.2	174.2	22.7	76.1	0	0
24553	2012-11-16T00:00:00	43	ND	ND	ND	ND	ND	0.9	177.5	22.2	80.5	0	0
24554	2012-11-16T01:00:00	22	ND	ND	ND	ND	ND	0.4	ND	22.1	80.5	0	0
24555	2012-11-16T02:00:00	12	ND	ND	ND	ND	ND	1.1	1.5	21.1	88	0	0
24556	2012-11-16T03:00:00	23	ND	ND	ND	ND	ND	0.9	31.7	20.7	90.2	0	0
24557	2012-11-16T04:00:00	12	ND	ND	ND	ND	ND	0.1	ND	20.6	90.3	0	0
24558	2012-11-16T05:00:00	30	ND	ND	ND	ND	ND	0.3	42.6	20.5	90.8	0	0
24559	2012-11-16T06:00:00	20	ND	ND	ND	ND	ND	0.5	24.2	20.6	90	0	0
24560	2012-11-16T07:00:00	43	ND	ND	ND	ND	ND	0.2	173.3	20.7	88.2	35.2	0
24561	2012-11-16T08:00:00	37	ND	ND	ND	ND	ND	0.7	218.8	21.4	82.5	97.9	0
24562	2012-11-16T09:00:00	47	ND	ND	ND	ND	ND	0.4	151.9	23.3	74.3	402.4	0
24563	2012-11-16T10:00:00	27	ND	ND	ND	ND	ND	0.5	78.7	25	66.5	471.6	0
24564	2012-11-16T11:00:00	36	ND	ND	ND	ND	ND	1.1	75.6	25.8	63.1	422.8	0
24565	2012-11-16T12:00:00	20	ND	ND	ND	ND	ND	1.1	58.1	26.7	59	510.2	0
24566	2012-11-16T13:00:00	11	ND	ND	ND	ND	ND	0.9	95.7	27.6	55.7	452.7	0
24567	2012-11-16T14:00:00	10	ND	ND	ND	ND	ND	0.4	263.1	28.2	53.4	401.4	0
24568	2012-11-16T15:00:00	25	ND	ND	ND	ND	ND	0.7	183.6	28.5	52.5	211.2	0
24569	2012-11-16T16:00:00	14	ND	ND	ND	ND	ND	2.6	274.6	29	48.8	477.3	0
24570	2012-11-16T17:00:00	23	ND	ND	ND	ND	ND	3.8	278.6	27.7	52.6	235.4	0
24571	2012-11-16T18:00:00	14	ND	ND	ND	ND	ND	3.7	278.2	26.3	55.7	15.8	0
24572	2012-11-16T19:00:00	8	ND	ND	ND	ND	ND	4.7	276.1	25.6	58.4	0	0
24573	2012-11-16T20:00:00	6	ND	ND	ND	ND	ND	4.6	271.9	24.6	62.7	0	0
24574	2012-11-16T21:00:00	12	ND	ND	ND	ND	ND	0.4	277.4	24.6	62.4	0	0
24575	2012-11-16T22:00:00	8	ND	ND	ND	ND	ND	1.5	249.5	24.1	64.1	0	0
24576	2012-11-16T23:00:00	6	ND	ND	ND	ND	ND	1.7	186.8	22.6	77.1	0	0
24577	2012-11-17T00:00:00	5	ND	ND	ND	ND	ND	2.2	186.3	22.1	81.4	0	0
24578	2012-11-17T01:00:00	12	ND	ND	ND	ND	ND	1.7	171.4	21.9	82.9	0	0
24579	2012-11-17T02:00:00	7	ND	ND	ND	ND	ND	1.4	178.5	21.4	85.9	0	0
24580	2012-11-17T03:00:00	5	ND	ND	ND	ND	ND	1.1	165.1	21.3	86.1	0	0
24581	2012-11-17T04:00:00	3	ND	ND	ND	ND	ND	1.1	154.1	20.9	87.6	0	0
24582	2012-11-17T05:00:00	4	ND	ND	ND	ND	ND	0.6	181.2	20.9	88	0	0
24583	2012-11-17T06:00:00	3	ND	ND	ND	ND	ND	0.4	ND	20.9	87.7	0	0
24584	2012-11-17T07:00:00	22	ND	ND	ND	ND	ND	0.4	ND	20.8	88.4	8.4	0
24585	2012-11-17T08:00:00	12	ND	ND	ND	ND	ND	0.3	ND	21.5	85.4	85.9	0
24586	2012-11-17T09:00:00	30	ND	ND	ND	ND	ND	0.3	ND	23.1	77	302.4	0
24587	2012-11-17T10:00:00	16	ND	ND	ND	ND	ND	0.2	314.2	24.4	69.2	422.2	0
24588	2012-11-17T11:00:00	17	ND	ND	ND	ND	ND	1.1	153.3	27.1	57.6	776.5	0
24589	2012-11-17T12:00:00	8	ND	ND	ND	ND	ND	1.4	128.5	28.1	54.2	651.6	0
24590	2012-11-17T13:00:00	22	ND	ND	ND	ND	ND	2	124.1	28.4	52.7	538.5	0
24591	2012-11-17T14:00:00	12	ND	ND	ND	ND	ND	0.9	271.4	27.9	52.1	145.9	0
24592	2012-11-17T15:00:00	18	ND	ND	ND	ND	ND	3.6	272.4	28	52.4	537.9	0
24593	2012-11-17T16:00:00	11	ND	ND	ND	ND	ND	4	276.6	27.7	52.7	190.4	0
24594	2012-11-17T17:00:00	10	ND	ND	ND	ND	ND	2.8	285	27.3	53.6	96.6	0
24595	2012-11-17T18:00:00	7	ND	ND	ND	ND	ND	2.9	274.8	26.2	57.4	13.4	0
24596	2012-11-17T19:00:00	8	ND	ND	ND	ND	ND	3	272.8	25.5	59.9	0	0
24597	2012-11-17T20:00:00	6	ND	ND	ND	ND	ND	2.7	208.5	23.9	67.4	0	0
24598	2012-11-17T21:00:00	23	ND	ND	ND	ND	ND	1	205.7	23.7	67.9	0	0
24599	2012-11-17T22:00:00	13	ND	ND	ND	ND	ND	1.2	250.1	23.4	71.9	0	0
24600	2012-11-17T23:00:00	7	ND	ND	ND	ND	ND	0.7	284.2	23.4	72.8	0	0
24601	2012-11-18T00:00:00	28	ND	ND	ND	ND	ND	1.2	138.9	22.6	77.4	0	0
24602	2012-11-18T01:00:00	38	ND	ND	ND	ND	ND	1	143.6	21.9	80.7	0	0
24603	2012-11-18T02:00:00	27	ND	ND	ND	ND	ND	1.1	166.7	21.8	78.4	0	0
24604	2012-11-18T03:00:00	14	ND	ND	ND	ND	ND	1.2	172	21.3	85.9	0	0
24605	2012-11-18T04:00:00	9	ND	ND	ND	ND	ND	0.8	102.9	20.5	90.3	0	6.1
24606	2012-11-18T05:00:00	24	ND	ND	ND	ND	ND	0.6	140.3	20	93.8	0	4.32
24607	2012-11-18T06:00:00	13	ND	ND	ND	ND	ND	0.2	ND	19.8	94.1	0	1.27
24608	2012-11-18T07:00:00	7	ND	ND	ND	ND	ND	0.1	ND	20.1	89.9	17.2	0
24609	2012-11-18T08:00:00	5	ND	ND	ND	ND	ND	0.3	15.1	21	86.2	102.7	0
24610	2012-11-18T09:00:00	8	ND	ND	ND	ND	ND	0.2	124.3	22.2	79.7	205	0
24611	2012-11-18T10:00:00	6	ND	ND	ND	ND	ND	1.7	127	22.3	81.4	310.7	0
24612	2012-11-18T11:00:00	4	ND	ND	ND	ND	ND	1	119.2	23.4	74.8	457.2	0
24613	2012-11-18T12:00:00	17	ND	ND	ND	ND	ND	1.3	126.9	24.2	68.2	361.2	0
24614	2012-11-18T13:00:00	8	ND	ND	ND	ND	ND	0.6	110	26.1	61.9	623.8	0
24615	2012-11-18T14:00:00	5	ND	ND	ND	ND	ND	1	38.2	26.5	61	389.4	0
24616	2012-11-18T15:00:00	6	ND	ND	ND	ND	ND	1.4	21.1	27.1	57.9	407.3	0
24617	2012-11-18T16:00:00	12	ND	ND	ND	ND	ND	1.5	53.1	26.9	59	228.7	0
24618	2012-11-18T17:00:00	32	ND	ND	ND	ND	ND	2.6	38	26.1	59.1	54.9	0
24619	2012-11-18T18:00:00	17	ND	ND	ND	ND	ND	1.6	50.7	25.2	63.7	11.5	0
24620	2012-11-18T19:00:00	10	ND	ND	ND	ND	ND	0.3	195.7	24.7	66.1	0	0
24621	2012-11-18T20:00:00	8	ND	ND	ND	ND	ND	1.6	274.2	24.4	63.8	0	0
24622	2012-11-18T21:00:00	20	ND	ND	ND	ND	ND	0.5	259.7	24.2	65.4	0	0
24623	2012-11-18T22:00:00	24	ND	ND	ND	ND	ND	0.5	84.9	23.1	74.7	0	0
24624	2012-11-18T23:00:00	22	ND	ND	ND	ND	ND	1.7	232.5	22.9	71.7	0	0
24625	2012-11-19T00:00:00	13	ND	ND	ND	ND	ND	1.2	226.7	22.6	71.8	0	0
24626	2012-11-19T01:00:00	20	ND	ND	ND	ND	ND	0.7	202.3	22.6	75.5	0	0
24627	2012-11-19T02:00:00	23	ND	ND	ND	ND	ND	0.1	163.1	22.1	80.7	0	0
24628	2012-11-19T03:00:00	20	ND	ND	ND	ND	ND	0.2	89.1	21.9	81.9	0	0
24629	2012-11-19T04:00:00	47	ND	ND	ND	ND	ND	0.1	39.7	21.6	84	0	0
24630	2012-11-19T05:00:00	30	ND	ND	ND	ND	ND	0	196.1	21.5	83.5	0	0
24631	2012-11-19T06:00:00	16	ND	ND	ND	ND	ND	0	21	21.7	78.3	0	0
24632	2012-11-19T07:00:00	43	ND	ND	ND	ND	ND	0.3	207.3	21.7	83.2	35.9	0
24633	2012-11-19T08:00:00	32	ND	ND	ND	ND	ND	1	206.1	22.9	74.1	236.2	0
24634	2012-11-19T09:00:00	38	ND	ND	ND	ND	ND	1.4	153.2	24.9	68.7	485	0
24635	2012-11-19T10:00:00	22	ND	ND	ND	ND	ND	1.3	121.1	26	63.7	638.2	0
24636	2012-11-19T11:00:00	27	ND	ND	ND	ND	ND	0.9	87.4	27	58.1	621.7	0
24637	2012-11-19T12:00:00	21	ND	ND	ND	ND	ND	0.9	71.6	27.5	56.4	501.6	0
24638	2012-11-19T13:00:00	21	ND	ND	ND	ND	ND	1.2	90.1	28.8	51.8	504.6	0
24639	2012-11-19T14:00:00	11	ND	ND	ND	ND	ND	0.9	335.3	29.7	48.4	660.5	0
24640	2012-11-19T15:00:00	9	ND	ND	ND	ND	ND	2.1	304.4	29.8	48.3	477	0
24641	2012-11-19T16:00:00	5	ND	ND	ND	ND	ND	2.1	281.4	29.6	48.4	249.7	0
24642	2012-11-19T17:00:00	16	ND	ND	ND	ND	ND	3.3	279.1	29.4	49.3	282.4	0
24643	2012-11-19T18:00:00	11	ND	ND	ND	ND	ND	3	279.6	28.3	51	53.2	0
24644	2012-11-19T19:00:00	23	ND	ND	ND	ND	ND	3	272.5	27.2	53.7	0	0
24645	2012-11-19T20:00:00	12	ND	ND	ND	ND	ND	2.8	276.8	26.7	56.5	0	0
24646	2012-11-19T21:00:00	8	ND	ND	ND	ND	ND	2.1	290.5	26.1	59.5	0	0
24647	2012-11-19T22:00:00	6	ND	ND	ND	ND	ND	0.9	284.3	25.8	60.6	0	0
24648	2012-11-19T23:00:00	4	ND	ND	ND	ND	ND	2.1	259.5	24.8	63	0	0
24649	2012-11-20T00:00:00	3	ND	ND	ND	ND	ND	2.4	269.1	24.6	63.5	0	0
24650	2012-11-20T01:00:00	3	ND	ND	ND	ND	ND	0.6	17.7	23.4	72.9	0	0
24651	2012-11-20T02:00:00	3	ND	ND	ND	ND	ND	0.8	90.9	22.7	78.2	0	0
24652	2012-11-20T03:00:00	25	ND	ND	ND	ND	ND	0.3	32.2	22.5	78	0	0
24653	2012-11-20T04:00:00	14	ND	ND	ND	ND	ND	0.1	71.8	22.5	78	0	0
24654	2012-11-20T05:00:00	12	ND	ND	ND	ND	ND	0.8	133.1	22.5	78.4	0	0
24655	2012-11-20T06:00:00	16	ND	ND	ND	ND	ND	0.1	105	22.4	78.9	0	0
24656	2012-11-20T07:00:00	43	ND	ND	ND	ND	ND	1	166.3	22.4	81.6	20.7	0
24657	2012-11-20T08:00:00	41	ND	ND	ND	ND	ND	0.7	212.6	22.9	78.4	92.1	0
24658	2012-11-20T09:00:00	47	ND	ND	ND	ND	ND	1	130.9	25.1	66.4	346.2	0
24659	2012-11-20T10:00:00	24	ND	ND	ND	ND	ND	0.9	131.6	26.2	62.2	430.3	0
24660	2012-11-20T11:00:00	37	ND	ND	ND	ND	ND	0.7	100.5	27.5	57.8	480.9	0
24661	2012-11-20T12:00:00	45	ND	ND	ND	ND	ND	1	78	28.3	55.7	580.7	0
24662	2012-11-20T13:00:00	45	ND	ND	ND	ND	ND	0.6	3.9	29.3	52.2	487.6	0
24663	2012-11-20T14:00:00	40	ND	ND	ND	ND	ND	1.1	45.4	29.5	51.4	272.8	0
24664	2012-11-20T15:00:00	38	ND	ND	ND	ND	ND	0.6	308.7	29.8	49.2	422.2	0
24665	2012-11-20T16:00:00	20	ND	ND	ND	ND	ND	3.3	281.7	30.4	46.3	541.1	0
24666	2012-11-20T17:00:00	20	ND	ND	ND	ND	ND	3.3	278.2	29.5	47.9	283.8	0
24667	2012-11-20T18:00:00	11	ND	ND	ND	ND	ND	3.4	278.4	27.2	55.3	38.8	0
24668	2012-11-20T19:00:00	8	ND	ND	ND	ND	ND	3.8	271.6	26.5	56.3	0	0
24669	2012-11-20T20:00:00	5	ND	ND	ND	ND	ND	2.8	305.6	26.1	57.6	0	0
24670	2012-11-20T21:00:00	11	ND	ND	ND	ND	ND	3.7	267.2	26.1	57.6	0	0
24671	2012-11-20T22:00:00	8	ND	ND	ND	ND	ND	2.8	243.6	25.5	60.3	0	0
24672	2012-11-20T23:00:00	4	ND	ND	ND	ND	ND	1.3	259.7	25.2	62.6	0	0
24673	2012-11-21T00:00:00	4	ND	ND	ND	ND	ND	1.5	239.1	24.7	64.5	0	0
24674	2012-11-21T01:00:00	4	ND	ND	ND	ND	ND	0.7	325.5	24.3	67.6	0	0
24675	2012-11-21T02:00:00	3	ND	ND	ND	ND	ND	0.9	41.5	22.8	75.7	0	0
24676	2012-11-21T03:00:00	15	ND	ND	ND	ND	ND	0.8	174.4	23.1	73.8	0	0
24677	2012-11-21T04:00:00	9	ND	ND	ND	ND	ND	0.8	147.7	23	76	0	0
24678	2012-11-21T05:00:00	13	ND	ND	ND	ND	ND	0.6	143.6	22.7	77.2	0	0
24679	2012-11-21T06:00:00	8	ND	ND	ND	ND	ND	0.5	119.9	22.8	76.3	0	0
24680	2012-11-21T07:00:00	22	ND	ND	ND	ND	ND	0.6	150.5	22.6	77.7	28.1	0
24681	2012-11-21T08:00:00	38	ND	ND	ND	ND	ND	0.7	124	23.6	74.3	185.9	0
24682	2012-11-21T09:00:00	62	ND	ND	ND	ND	ND	1.3	122.4	25.6	65.8	429.1	0
24683	2012-11-21T10:00:00	32	ND	ND	ND	ND	ND	1.4	117	26.9	59.9	615.8	0
24684	2012-11-21T11:00:00	21	ND	ND	ND	ND	ND	1	129.4	28.3	54.2	638.1	0
24685	2012-11-21T12:00:00	13	ND	ND	ND	ND	ND	0.6	303.8	27.9	54.6	136.2	0
24686	2012-11-21T13:00:00	22	ND	ND	ND	ND	ND	2.8	281.3	25.7	66.1	195.3	7.87
24687	2012-11-21T14:00:00	12	ND	ND	ND	ND	ND	4.1	288.5	27	57.5	659.4	0
24688	2012-11-21T15:00:00	7	ND	ND	ND	ND	ND	1.9	312.5	26.4	59.8	251.4	0
24689	2012-11-21T16:00:00	19	ND	ND	ND	ND	ND	1.9	91.7	22.6	84.9	19.6	1.78
24690	2012-11-21T17:00:00	27	ND	ND	ND	ND	ND	1.3	69.4	21.8	88.3	22.8	1.27
24691	2012-11-21T18:00:00	14	ND	ND	ND	ND	ND	0.1	59.7	21.9	86.8	7.2	0.76
24692	2012-11-21T19:00:00	32	ND	ND	ND	ND	ND	1.3	204	22.3	85.3	0	0
24693	2012-11-21T20:00:00	18	ND	ND	ND	ND	ND	1	174.6	22.2	86.4	0	0.25
24694	2012-11-21T21:00:00	31	ND	ND	ND	ND	ND	0.6	206.3	22.1	87.1	0	0.25
24695	2012-11-21T22:00:00	18	ND	ND	ND	ND	ND	0.5	187.9	22.3	84.4	0	0
24696	2012-11-21T23:00:00	10	ND	ND	ND	ND	ND	0.2	ND	22.5	83.5	0	0
24697	2012-11-22T00:00:00	16	ND	ND	ND	ND	ND	0.7	56.9	21.9	88.2	0	0
24698	2012-11-22T01:00:00	26	ND	ND	ND	ND	ND	0.5	141.7	21.5	90.3	0	0
24699	2012-11-22T02:00:00	15	ND	ND	ND	ND	ND	0.3	ND	21.4	89.3	0	0
24700	2012-11-22T03:00:00	23	ND	ND	ND	ND	ND	0.5	155.6	21.5	88.5	0	0
24701	2012-11-22T04:00:00	12	ND	ND	ND	ND	ND	0.2	210.9	21.5	86.6	0	0
24702	2012-11-22T05:00:00	13	ND	ND	ND	ND	ND	0.9	165.6	21.3	90.6	0	0
24703	2012-11-22T06:00:00	9	ND	ND	ND	ND	ND	0.8	165.1	21.4	91.3	0	0
24704	2012-11-22T07:00:00	18	ND	ND	ND	ND	ND	1.2	195.7	21.4	88.5	5.8	0
24705	2012-11-22T08:00:00	18	ND	ND	ND	ND	ND	1.1	147.9	21.6	87.5	60.6	0
24706	2012-11-22T09:00:00	39	ND	ND	ND	ND	ND	1	150.4	22.3	80.6	187.8	0
24707	2012-11-22T10:00:00	21	ND	ND	ND	ND	ND	0.6	177.5	23.3	74.8	341.4	0
24708	2012-11-22T11:00:00	11	ND	ND	ND	ND	ND	0.4	25.3	25.8	61.3	581.6	0
24709	2012-11-22T12:00:00	7	ND	ND	ND	ND	ND	0.7	60.4	26.7	58.3	614.4	0
24710	2012-11-22T13:00:00	7	ND	ND	ND	ND	ND	1.6	96.3	27.3	55.9	589.3	0
24711	2012-11-22T14:00:00	4	ND	ND	ND	ND	ND	1.3	90.4	27.9	54.6	557	0
24712	2012-11-22T15:00:00	2	ND	ND	ND	ND	ND	1.5	289.7	27.1	55.8	240.2	0
24713	2012-11-22T16:00:00	2	ND	ND	ND	ND	ND	2.9	278.6	26.7	55.2	221.6	0
24714	2012-11-22T17:00:00	13	ND	ND	ND	ND	ND	1.2	267.9	26.5	54.4	92.3	0
24715	2012-11-22T18:00:00	11	ND	ND	ND	ND	ND	2.6	270.7	25.8	54.8	7	0
24716	2012-11-22T19:00:00	9	ND	ND	ND	ND	ND	3.1	269.9	24.9	59.7	0	0
24717	2012-11-22T20:00:00	11	ND	ND	ND	ND	ND	2	248.1	24.2	64.4	0	0
24718	2012-11-22T21:00:00	26	ND	ND	ND	ND	ND	1.1	159.7	22.7	77	0	0
24719	2012-11-22T22:00:00	21	ND	ND	ND	ND	ND	0.6	128.8	22.6	78	0	0
24720	2012-11-22T23:00:00	25	ND	ND	ND	ND	ND	0.4	19.4	22.9	76.5	0	0
24721	2012-11-23T00:00:00	26	ND	ND	ND	ND	ND	0.8	23.2	22.4	77.9	0	0
24722	2012-11-23T01:00:00	44	ND	ND	ND	ND	ND	0.9	352.9	22.1	78.7	0	0
24723	2012-11-23T02:00:00	49	ND	ND	ND	ND	ND	0.1	129.4	21.9	79.7	0	0
24724	2012-11-23T03:00:00	36	ND	ND	ND	ND	ND	0.4	181.3	21.7	82.5	0	0
24725	2012-11-23T04:00:00	26	ND	ND	ND	ND	ND	0.1	168.7	21.8	82.1	0	0
24726	2012-11-23T05:00:00	30	ND	ND	ND	ND	ND	0.1	161	21.9	80.4	0	0
24727	2012-11-23T06:00:00	26	ND	ND	ND	ND	ND	0.5	359	21.6	82	0	0
24728	2012-11-23T07:00:00	62	ND	ND	ND	ND	ND	0.3	88.5	21.9	80.5	10.6	0
24729	2012-11-23T08:00:00	47	ND	ND	ND	ND	ND	0.2	95.5	22.6	77.3	127.7	0
24730	2012-11-23T09:00:00	59	ND	ND	ND	ND	ND	0.5	119.1	24.2	69.7	329.1	0
24731	2012-11-23T10:00:00	49	ND	ND	ND	ND	ND	0.9	85.9	25.7	61.5	529.8	0
24732	2012-11-23T11:00:00	59	ND	ND	ND	ND	ND	1.1	118.3	26.5	59.9	597.1	0
24733	2012-11-23T12:00:00	50	ND	ND	ND	ND	ND	1.5	131.5	27.2	57.7	392.1	0
24734	2012-11-23T13:00:00	50	ND	ND	ND	ND	ND	0.9	136.4	27.1	58.1	362.4	0
24735	2012-11-23T14:00:00	43	ND	ND	ND	ND	ND	0.5	78.9	28	54.6	477	0
24736	2012-11-23T15:00:00	41	ND	ND	ND	ND	ND	1	347	29.1	50.3	479.3	0
24737	2012-11-23T16:00:00	32	ND	ND	ND	ND	ND	1.5	344.3	29.6	49.4	376.3	0
24738	2012-11-23T17:00:00	50	ND	ND	ND	ND	ND	1.7	336.6	28.8	51.1	124.4	0
24739	2012-11-23T18:00:00	27	ND	ND	ND	ND	ND	2.6	272.8	27.2	54.7	27.7	0
24740	2012-11-23T19:00:00	40	ND	ND	ND	ND	ND	2.7	268.5	26	58.5	0	0
24741	2012-11-23T20:00:00	21	ND	ND	ND	ND	ND	2.3	276.1	25.7	59.1	0	0
24742	2012-11-23T21:00:00	12	ND	ND	ND	ND	ND	1.7	275.9	25.5	59.3	0	0
24743	2012-11-23T22:00:00	25	ND	ND	ND	ND	ND	0.5	142.1	24.7	65	0	0
24744	2012-11-23T23:00:00	60	ND	ND	ND	ND	ND	0.4	170.2	23.8	71.8	0	0
24745	2012-11-24T00:00:00	56	ND	ND	ND	ND	ND	0.6	169.5	23.3	73.5	0	0
24746	2012-11-24T01:00:00	49	ND	ND	ND	ND	ND	1.2	201.8	23.8	68.5	0	0
24747	2012-11-24T02:00:00	48	ND	ND	ND	ND	ND	0.5	120.7	23.3	73.5	0	0
24748	2012-11-24T03:00:00	39	ND	ND	ND	ND	ND	0.1	114.3	22.3	82.1	0	0.51
24749	2012-11-24T04:00:00	38	ND	ND	ND	ND	ND	0.6	184.6	22.2	82.5	0	0
24750	2012-11-24T05:00:00	29	ND	ND	ND	ND	ND	0.2	7.6	22.2	83.5	0	0.25
24751	2012-11-24T06:00:00	23	ND	ND	ND	ND	ND	0	37	22.1	83.9	0	0
24752	2012-11-24T07:00:00	56	ND	ND	ND	ND	ND	0.1	353.7	22.3	83.4	29.9	0
24753	2012-11-24T08:00:00	49	ND	ND	ND	ND	ND	0.4	155.7	23.1	77.8	150.2	0
24754	2012-11-24T09:00:00	54	ND	ND	ND	ND	ND	1.1	164.5	24.8	69.7	384.3	0
24755	2012-11-24T10:00:00	31	ND	ND	ND	ND	ND	1.1	143.4	26.8	60.6	635.4	0
24756	2012-11-24T11:00:00	41	ND	ND	ND	ND	ND	0.6	96.5	27.5	58.4	592.1	0
24757	2012-11-24T12:00:00	25	ND	ND	ND	ND	ND	0.9	52.5	28.4	54.8	542.8	0
24758	2012-11-24T13:00:00	24	ND	ND	ND	ND	ND	0.7	0.4	28.9	52.8	583.2	0
24759	2012-11-24T14:00:00	19	ND	ND	ND	ND	ND	1	31.2	29.9	49.9	526.4	0
24760	2012-11-24T15:00:00	16	ND	ND	ND	ND	ND	1.2	310.6	30.9	45.8	624.3	0
24761	2012-11-24T16:00:00	15	ND	ND	ND	ND	ND	3.8	277.7	30.4	46.3	521.3	0
24762	2012-11-24T17:00:00	18	ND	ND	ND	ND	ND	3.9	276.6	28.8	50.4	252.8	0
24763	2012-11-24T18:00:00	11	ND	ND	ND	ND	ND	3.9	275.7	26.9	55.6	16.2	0
24764	2012-11-24T19:00:00	15	ND	ND	ND	ND	ND	3.6	277.9	26.3	57.1	0	0
24765	2012-11-24T20:00:00	8	ND	ND	ND	ND	ND	4.5	268.5	25.7	59.3	0	0
24766	2012-11-24T21:00:00	5	ND	ND	ND	ND	ND	1.4	311.8	25.6	60.3	0	0
24767	2012-11-24T22:00:00	4	ND	ND	ND	ND	ND	1.5	237.1	25	62.9	0	0
24768	2012-11-24T23:00:00	4	ND	ND	ND	ND	ND	0.9	201.3	24.7	65.9	0	0
24769	2012-11-25T00:00:00	3	ND	ND	ND	ND	ND	0.6	199.3	24	70.5	0	0
24770	2012-11-25T01:00:00	18	ND	ND	ND	ND	ND	0.7	199.6	24	69.3	0	0
24771	2012-11-25T02:00:00	11	ND	ND	ND	ND	ND	1	168	23.4	73.5	0	0
24772	2012-11-25T03:00:00	10	ND	ND	ND	ND	ND	0.6	158.4	22.9	76.6	0	0
24773	2012-11-25T04:00:00	11	ND	ND	ND	ND	ND	0.4	166.2	23	76.5	0	0
24774	2012-11-25T05:00:00	31	ND	ND	ND	ND	ND	0.6	193	22.9	76.5	0	0
24775	2012-11-25T06:00:00	17	ND	ND	ND	ND	ND	0.2	55.6	22.9	75.2	0	0
24776	2012-11-25T07:00:00	19	ND	ND	ND	ND	ND	0.2	131	22.6	78.6	31.6	0
24777	2012-11-25T08:00:00	10	ND	ND	ND	ND	ND	0.2	136.2	24	68.9	145.9	0
24778	2012-11-25T09:00:00	31	ND	ND	ND	ND	ND	0.8	38.8	25	67.4	286.3	0
24779	2012-11-25T10:00:00	17	ND	ND	ND	ND	ND	0.4	150	27	59.8	611.2	0
24780	2012-11-25T11:00:00	35	ND	ND	ND	ND	ND	0.5	55.6	27.9	55.9	554.3	0
24781	2012-11-25T12:00:00	18	ND	ND	ND	ND	ND	0.5	68.1	28.3	52.5	535.5	0
24782	2012-11-25T13:00:00	11	ND	ND	ND	ND	ND	0.9	0.8	30.6	45.4	888.9	0
24783	2012-11-25T14:00:00	5	ND	ND	ND	ND	ND	2.1	306.8	31.1	43.4	619.9	0
24784	2012-11-25T15:00:00	3	ND	ND	ND	ND	ND	4.1	277.2	31	42.7	660.1	0
24785	2012-11-25T16:00:00	7	ND	ND	ND	ND	ND	4.9	280.7	29.7	46.6	469.5	0
24786	2012-11-25T17:00:00	15	ND	ND	ND	ND	ND	4.8	277.7	27.9	53.1	236.2	0
24787	2012-11-25T18:00:00	18	ND	ND	ND	ND	ND	4.6	271.9	26.5	56.6	22.1	0
24788	2012-11-25T19:00:00	11	ND	ND	ND	ND	ND	4.3	284.2	26.1	57.4	0	0
24789	2012-11-25T20:00:00	8	ND	ND	ND	ND	ND	3.6	268.4	25.3	61.8	0	0
24790	2012-11-25T21:00:00	6	ND	ND	ND	ND	ND	2.1	214.2	24.9	65.2	0	0
24791	2012-11-25T22:00:00	3	ND	ND	ND	ND	ND	1.6	231.7	24.9	62.6	0	0
24792	2012-11-25T23:00:00	1	ND	ND	ND	ND	ND	0.8	193.4	24.5	65.8	0	0
24793	2012-11-26T00:00:00	3	ND	ND	ND	ND	ND	0.7	198.1	23.8	69.8	0	0
24794	2012-11-26T01:00:00	3	ND	ND	ND	ND	ND	1	321.4	23.8	69.8	0	0
24795	2012-11-26T02:00:00	3	ND	ND	ND	ND	ND	0.8	39.3	23.4	72.8	0	0
24796	2012-11-26T03:00:00	3	ND	ND	ND	ND	ND	0.7	49.5	22.7	78.4	0	0
24797	2012-11-26T04:00:00	2	ND	ND	ND	ND	ND	0.5	136	22.5	79.2	0	0
24798	2012-11-26T05:00:00	2	ND	ND	ND	ND	ND	0.4	62.1	22.4	78.8	0	0
24799	2012-11-26T06:00:00	13	ND	ND	ND	ND	ND	0	156	22.5	78.5	0	0
24800	2012-11-26T07:00:00	27	ND	ND	ND	ND	ND	0.1	170.9	22.7	77.9	20	0
24801	2012-11-26T08:00:00	57	ND	ND	ND	ND	ND	0.4	176.1	22.9	78.8	147.4	0
24802	2012-11-26T09:00:00	52	ND	ND	ND	ND	ND	0.8	80.9	24.1	72.7	135.8	0
24803	2012-11-26T10:00:00	34	ND	ND	ND	ND	ND	1.2	137.8	25.2	68	409.6	0
24804	2012-11-26T11:00:00	30	ND	ND	ND	ND	ND	1.3	166	26.5	60.5	621.4	0
24805	2012-11-26T12:00:00	22	ND	ND	ND	ND	ND	1.5	154	28	56.8	787	0
24806	2012-11-26T13:00:00	23	ND	ND	ND	ND	ND	1.6	149.6	28.9	53	761.1	0
24807	2012-11-26T14:00:00	13	ND	ND	ND	ND	ND	0.6	34.6	29.2	51.5	378.8	0
24808	2012-11-26T15:00:00	17	ND	ND	ND	ND	ND	2.4	288.8	28.3	52.2	72.7	0
24809	2012-11-26T16:00:00	14	ND	ND	ND	ND	ND	3.5	274.9	25.6	65	158.4	1.78
24810	2012-11-26T17:00:00	26	ND	ND	ND	ND	ND	3.1	281.2	26.3	58.3	102.1	0
24811	2012-11-26T18:00:00	24	ND	ND	ND	ND	ND	1.7	293.1	26.1	57.7	30.5	0
24812	2012-11-26T19:00:00	24	ND	ND	ND	ND	ND	2.5	285.7	25.4	59.6	0	0
24813	2012-11-26T20:00:00	13	ND	ND	ND	ND	ND	2.1	289	25.2	60.2	0	0
24814	2012-11-26T21:00:00	8	ND	ND	ND	ND	ND	2.3	277.4	24.9	60.6	0	0
24815	2012-11-26T22:00:00	5	ND	ND	ND	ND	ND	0.3	38.8	24.8	63.3	0	0
24816	2012-11-26T23:00:00	8	ND	ND	ND	ND	ND	1.7	213.4	24.3	67.6	0	0
24817	2012-11-27T00:00:00	5	ND	ND	ND	ND	ND	1.2	189.4	23.8	71.5	0	0
24818	2012-11-27T01:00:00	7	ND	ND	ND	ND	ND	0.2	352.1	23.8	65.6	0	0
24819	2012-11-27T02:00:00	25	ND	ND	ND	ND	ND	1	25	23.2	71.3	0	0
24820	2012-11-27T03:00:00	17	ND	ND	ND	ND	ND	1	1.1	22.3	73.5	0	0
24821	2012-11-27T04:00:00	11	ND	ND	ND	ND	ND	0.1	120.4	22.4	72.6	0	0
24822	2012-11-27T05:00:00	7	ND	ND	ND	ND	ND	0.9	221	22.2	74.9	0	0
24823	2012-11-27T06:00:00	5	ND	ND	ND	ND	ND	0.8	242.1	21.9	74.8	0	0
24824	2012-11-27T07:00:00	19	ND	ND	ND	ND	ND	1.1	250.6	22.1	72.1	36.2	0
24825	2012-11-27T08:00:00	18	ND	ND	ND	ND	ND	0.2	158.4	23.7	67.2	193.4	0
24826	2012-11-27T09:00:00	39	ND	ND	ND	ND	ND	0.8	93.4	25	68.2	454.1	0
24827	2012-11-27T10:00:00	21	ND	ND	ND	ND	ND	0.2	349.5	26.3	62.1	447.8	0
24828	2012-11-27T11:00:00	36	ND	ND	ND	ND	ND	0.8	130.4	28	54.9	717	0
24829	2012-11-27T12:00:00	24	ND	ND	ND	ND	ND	1	118	28.7	53.1	474.2	0
24830	2012-11-27T13:00:00	57	ND	ND	ND	ND	ND	1.3	103.8	28.4	54.5	359.3	0
24831	2012-11-27T14:00:00	39	ND	ND	ND	ND	ND	1.4	109.7	29.1	52.7	581.2	0
24832	2012-11-27T15:00:00	41	ND	ND	ND	ND	ND	2.2	319.4	29.3	49.9	256.1	0
24833	2012-11-27T16:00:00	22	ND	ND	ND	ND	ND	2.2	298.4	30.2	45.5	449.1	0
24834	2012-11-27T17:00:00	12	ND	ND	ND	ND	ND	3.3	276	28.6	49.7	111.8	0
24835	2012-11-27T18:00:00	8	ND	ND	ND	ND	ND	3.2	277.2	27.4	51.5	8.2	0
24836	2012-11-27T19:00:00	18	ND	ND	ND	ND	ND	3.9	268.4	26.7	52.8	0	0
24837	2012-11-27T20:00:00	9	ND	ND	ND	ND	ND	2.6	229.5	26.4	54.1	0	0
24838	2012-11-27T21:00:00	24	ND	ND	ND	ND	ND	1.9	159	24	71.1	0	0
24839	2012-11-27T22:00:00	17	ND	ND	ND	ND	ND	0.4	116.7	23.3	73.6	0	0
24840	2012-11-27T23:00:00	47	ND	ND	ND	ND	ND	0.5	60.6	23.6	72.8	0	0
24841	2012-11-28T00:00:00	72	ND	ND	ND	ND	ND	0.9	51	23.1	74.9	0	0
24842	2012-11-28T01:00:00	76	ND	ND	ND	ND	ND	1.1	18.5	22.8	76.3	0	0
24843	2012-11-28T02:00:00	66	ND	ND	ND	ND	ND	0.7	51.1	22.6	76.5	0	0
24844	2012-11-28T03:00:00	54	ND	ND	ND	ND	ND	0.8	69.9	22	78.2	0	0
24845	2012-11-28T04:00:00	29	ND	ND	ND	ND	ND	0.3	87.2	21.9	79	0	0
24846	2012-11-28T05:00:00	37	ND	ND	ND	ND	ND	0.3	93.6	22.4	77	0	0
24847	2012-11-28T06:00:00	20	ND	ND	ND	ND	ND	0.5	88.1	22.3	79.8	0	0
24848	2012-11-28T07:00:00	50	ND	ND	ND	ND	ND	0.8	53	22.2	80.2	9.4	0
24849	2012-11-28T08:00:00	82	ND	ND	ND	ND	ND	0.7	118.3	22.7	77.9	97	0
24850	2012-11-28T09:00:00	73	ND	ND	ND	ND	ND	0.6	99.7	23.5	71	142.8	0
24851	2012-11-28T10:00:00	68	ND	ND	ND	ND	ND	1	132.8	23.6	71.7	58.6	0
24852	2012-11-28T11:00:00	61	ND	ND	ND	ND	ND	1.8	156.7	23.6	72.9	194.1	0
24853	2012-11-28T12:00:00	36	ND	ND	ND	ND	ND	2.6	168.2	24.3	70.7	394.4	0
24854	2012-11-28T13:00:00	42	ND	ND	ND	ND	ND	2.6	168.6	24.7	68.9	526.1	0
24855	2012-11-28T14:00:00	22	ND	ND	ND	ND	ND	2.3	164.3	25.6	61.4	380.8	0
24856	2012-11-28T15:00:00	15	ND	ND	ND	ND	ND	1.5	157.5	26.3	56.8	372.3	0
24857	2012-11-28T16:00:00	14	ND	ND	ND	ND	ND	0.7	158	26.3	53.7	151.3	0
24858	2012-11-28T17:00:00	33	ND	ND	ND	ND	ND	0.8	135.6	26.1	55	65.8	0
24859	2012-11-28T18:00:00	43	ND	ND	ND	ND	ND	0.4	123.5	25.5	57.3	17.7	0
24860	2012-11-28T19:00:00	42	ND	ND	ND	ND	ND	1.4	316.1	25	58.9	0	0
24861	2012-11-28T20:00:00	31	ND	ND	ND	ND	ND	1.6	333.1	24.4	61.4	0	0
24862	2012-11-28T21:00:00	17	ND	ND	ND	ND	ND	1.7	281.4	24.5	60.7	0	0
24863	2012-11-28T22:00:00	11	ND	ND	ND	ND	ND	1.9	266.3	24.1	62.4	0	0
24864	2012-11-28T23:00:00	13	ND	ND	ND	ND	ND	2.5	246.4	23.4	63.9	0	0
24865	2012-11-29T00:00:00	7	ND	ND	ND	ND	ND	2.1	252.8	23.3	63.1	0	0
24866	2012-11-29T01:00:00	5	ND	ND	ND	ND	ND	0.7	184	23	66.6	0	0
24867	2012-11-29T02:00:00	8	ND	ND	ND	ND	ND	0.9	171.6	21.8	81.1	0	0
24868	2012-11-29T03:00:00	20	ND	ND	ND	ND	ND	1.2	194.3	21.7	80	0	0
24869	2012-11-29T04:00:00	11	ND	ND	ND	ND	ND	0.1	203.1	21.9	79.2	0	0
24870	2012-11-29T05:00:00	9	ND	ND	ND	ND	ND	0.1	164.8	22.1	77.5	0	0
24871	2012-11-29T06:00:00	10	ND	ND	ND	ND	ND	0.2	157	22	77.5	0	0
24872	2012-11-29T07:00:00	32	ND	ND	ND	ND	ND	0	10.1	21.8	79.5	35.5	0
24873	2012-11-29T08:00:00	27	ND	ND	ND	ND	ND	0.5	72.7	23	74.3	213.2	0
24874	2012-11-29T09:00:00	46	ND	ND	ND	ND	ND	0.6	143.7	24.7	65.8	431.2	0
24875	2012-11-29T10:00:00	27	ND	ND	ND	ND	ND	1.2	155.8	26.5	58	647.4	0
24876	2012-11-29T11:00:00	36	ND	ND	ND	ND	ND	1.6	145.9	27.2	55.3	487	0
24877	2012-11-29T12:00:00	35	ND	ND	ND	ND	ND	1	115.6	27.6	54.7	477.5	0
24878	2012-11-29T13:00:00	44	ND	ND	ND	ND	ND	1	69.2	28.2	52.6	369.9	0
24879	2012-11-29T14:00:00	28	ND	ND	ND	ND	ND	1.5	284.4	27.9	51.6	157.2	0
24880	2012-11-29T15:00:00	35	ND	ND	ND	ND	ND	3.2	283.7	25.6	60.3	147.2	0.25
24881	2012-11-29T16:00:00	31	ND	ND	ND	ND	ND	3.6	275.9	26.1	56	196.8	0
24882	2012-11-29T17:00:00	17	ND	ND	ND	ND	ND	2.7	276.6	26.4	53.7	144.2	0
24883	2012-11-29T18:00:00	10	ND	ND	ND	ND	ND	3.8	260.9	25	59.2	19.6	0
24884	2012-11-29T19:00:00	44	ND	ND	ND	ND	ND	2.1	209.9	24.1	63.5	0	0
24885	2012-11-29T20:00:00	61	ND	ND	ND	ND	ND	1.4	202.6	23.7	67.2	0	0
24886	2012-11-29T21:00:00	47	ND	ND	ND	ND	ND	1	227.7	23.7	65.8	0	0
24887	2012-11-29T22:00:00	24	ND	ND	ND	ND	ND	0.8	195.8	23.9	64.5	0	0
24888	2012-11-29T23:00:00	34	ND	ND	ND	ND	ND	0.9	138.3	23.1	73.6	0	0
24889	2012-11-30T00:00:00	19	ND	ND	ND	ND	ND	0.8	145	22.4	77	0	0
24890	2012-11-30T01:00:00	19	ND	ND	ND	ND	ND	0.8	149.4	21.8	81.6	0	0
24891	2012-11-30T02:00:00	10	ND	ND	ND	ND	ND	1.4	176.5	21.4	83	0	0
24892	2012-11-30T03:00:00	21	ND	ND	ND	ND	ND	1.9	173.6	20.7	86.5	0	0
24893	2012-11-30T04:00:00	13	ND	ND	ND	ND	ND	2.2	190.5	20.2	89.5	0	0.76
24894	2012-11-30T05:00:00	8	ND	ND	ND	ND	ND	1.5	178.2	19.4	91.5	0	5.84
24895	2012-11-30T06:00:00	5	ND	ND	ND	ND	ND	1.4	165.9	19.1	92.9	0	3.05
24896	2012-11-30T07:00:00	4	ND	ND	ND	ND	ND	1.2	166.1	19	92.8	10	1.52
24897	2012-11-30T08:00:00	2	ND	ND	ND	ND	ND	0.9	167.7	19.8	87.9	100.1	0.25
24898	2012-11-30T09:00:00	1	ND	ND	ND	ND	ND	0.7	147.6	21.8	77.6	362.8	0
24899	2012-11-30T10:00:00	1	ND	ND	ND	ND	ND	0.7	117.7	24	68	607.8	0
24900	2012-11-30T11:00:00	2	ND	ND	ND	ND	ND	1.2	127.1	25.4	60.7	759.6	0
24901	2012-11-30T12:00:00	2	ND	ND	ND	ND	ND	1.2	95.6	26.1	59.7	544.5	0
24902	2012-11-30T13:00:00	4	ND	ND	ND	ND	ND	1.1	123.9	27.1	57.2	635.3	0
24903	2012-11-30T14:00:00	3	ND	ND	ND	ND	ND	1.6	299.1	28	52.8	630.5	0
24904	2012-11-30T15:00:00	3	ND	ND	ND	ND	ND	2.9	276.4	29.1	45.8	645.7	0
24905	2012-11-30T16:00:00	3	ND	ND	ND	ND	ND	3.8	269.7	27.8	49.6	316.9	0
24906	2012-11-30T17:00:00	3	ND	ND	ND	ND	ND	1.9	293.3	26.3	59.1	151.6	1.02
24907	2012-11-30T18:00:00	16	ND	ND	ND	ND	ND	0.2	294.6	24.8	66.4	11.1	0
24908	2012-11-30T19:00:00	24	ND	ND	ND	ND	ND	2.4	268.7	24.8	61.7	0	0
24909	2012-11-30T20:00:00	14	ND	ND	ND	ND	ND	2.2	256.8	24.3	63.2	0	0
24910	2012-11-30T21:00:00	11	ND	ND	ND	ND	ND	1.7	279	24.1	67.8	0	0
24911	2012-11-30T22:00:00	19	ND	ND	ND	ND	ND	0.2	282.6	22.7	81.4	0	0
24912	2012-11-30T23:00:00	20	ND	ND	ND	ND	ND	2	189.6	22	81.8	0	0
24913	2012-12-01T00:00:00	16	ND	ND	ND	ND	ND	2.2	192	21.7	82.3	0	0
24914	2012-12-01T01:00:00	9	ND	ND	ND	ND	ND	0.9	176.3	21.4	83.1	0	0
24915	2012-12-01T02:00:00	6	ND	ND	ND	ND	ND	0.6	132.4	21.2	83.9	0	0
24916	2012-12-01T03:00:00	7	ND	ND	ND	ND	ND	0.2	91.5	20.9	86.4	0	0
24917	2012-12-01T04:00:00	5	ND	ND	ND	ND	ND	0.1	111.1	21	86.5	0	0
24918	2012-12-01T05:00:00	4	ND	ND	ND	ND	ND	0.6	108.9	20.9	88.2	0	0
24919	2012-12-01T06:00:00	4	ND	ND	ND	ND	ND	1	140.6	20.7	88.9	0	0
24920	2012-12-01T07:00:00	29	ND	ND	ND	ND	ND	0.6	173.3	20.7	88.6	21.3	0
24921	2012-12-01T08:00:00	20	ND	ND	ND	ND	ND	0.4	37.2	20.9	88.6	52.6	2.79
24922	2012-12-01T09:00:00	28	ND	ND	ND	ND	ND	0.3	120.5	22.1	84.1	329.8	0
24923	2012-12-01T10:00:00	28	ND	ND	ND	ND	ND	1	141.2	24.2	71.8	501.4	0
24924	2012-12-01T11:00:00	38	ND	ND	ND	ND	ND	0.8	97.8	25.2	65.9	394.4	0
24925	2012-12-01T12:00:00	35	ND	ND	ND	ND	ND	1.2	200.2	25.1	68.8	217.1	0
24926	2012-12-01T13:00:00	26	ND	ND	ND	ND	ND	1.2	210.2	25.5	68.5	604.1	0
24927	2012-12-01T14:00:00	19	ND	ND	ND	ND	ND	1.7	172	27.9	57.5	788.9	0
24928	2012-12-01T15:00:00	52	ND	ND	ND	ND	ND	1	296.2	26.2	64.5	291.1	30.73
24929	2012-12-01T16:00:00	33	ND	ND	ND	ND	ND	0.6	239.4	19.7	99.3	18.8	31.24
24930	2012-12-01T17:00:00	32	ND	ND	ND	ND	ND	1.5	248.5	22.1	88.3	60.3	0
24931	2012-12-01T18:00:00	33	ND	ND	ND	ND	ND	1.1	327.9	23.7	74.3	27.2	0
24932	2012-12-01T19:00:00	63	ND	ND	ND	ND	ND	0.3	122.2	23.1	83.6	0	0
24933	2012-12-01T20:00:00	57	ND	ND	ND	ND	ND	1.1	208.8	22.9	75.7	0	0
24934	2012-12-01T21:00:00	64	ND	ND	ND	ND	ND	0.9	210.6	22.1	78.8	0	0
24935	2012-12-01T22:00:00	58	ND	ND	ND	ND	ND	0.4	250.8	22	75.7	0	0
24936	2012-12-01T23:00:00	41	ND	ND	ND	ND	ND	0.6	223	21.7	73.3	0	0
24937	2012-12-02T00:00:00	22	ND	ND	ND	ND	ND	1.5	253.4	21.3	71.8	0	0
24938	2012-12-02T01:00:00	41	ND	ND	ND	ND	ND	1.2	288.7	21.3	69.9	0	0
24939	2012-12-02T02:00:00	22	ND	ND	ND	ND	ND	0.2	322.2	21.1	73.4	0	0
24940	2012-12-02T03:00:00	20	ND	ND	ND	ND	ND	0.1	266.3	20.8	76.1	0	0
24941	2012-12-02T04:00:00	12	ND	ND	ND	ND	ND	0.4	242.7	20.7	77.1	0	0
24942	2012-12-02T05:00:00	27	ND	ND	ND	ND	ND	0.1	274.5	20.6	79	0	0
24943	2012-12-02T06:00:00	20	ND	ND	ND	ND	ND	0.6	239.8	20.1	79.1	0.1	0
24944	2012-12-02T07:00:00	17	ND	ND	ND	ND	ND	0.8	233.4	20	78.1	41.3	0
24945	2012-12-02T08:00:00	10	ND	ND	ND	ND	ND	0.9	237.3	21.5	74.3	143.8	0
24946	2012-12-02T09:00:00	19	ND	ND	ND	ND	ND	0.5	127.8	23.1	67.9	319.7	0
24947	2012-12-02T10:00:00	19	ND	ND	ND	ND	ND	0.8	154.9	24.8	63.8	651.1	0
24948	2012-12-02T11:00:00	38	ND	ND	ND	ND	ND	0.9	150.8	26.5	59.1	767.1	0
24949	2012-12-02T12:00:00	20	ND	ND	ND	ND	ND	0.8	75	27	57.3	440.3	0
24950	2012-12-02T13:00:00	20	ND	ND	ND	ND	ND	0.7	74.6	28.6	52	846.9	0
24951	2012-12-02T14:00:00	12	ND	ND	ND	ND	ND	1.8	232	25.6	66.1	76.8	5.84
24952	2012-12-02T15:00:00	22	ND	ND	ND	ND	ND	0.6	203.7	23.8	74.7	295.1	0.25
24953	2012-12-02T16:00:00	12	ND	ND	ND	ND	ND	0.2	193.1	26.9	61.6	367.3	0
24954	2012-12-02T17:00:00	17	ND	ND	ND	ND	ND	3.6	293.2	25.8	57.4	48.2	0
24955	2012-12-02T18:00:00	9	ND	ND	ND	ND	ND	2.3	281.8	24.1	62.6	6.3	0
24956	2012-12-02T19:00:00	6	ND	ND	ND	ND	ND	2.8	264.8	23.3	68.2	0	0
24957	2012-12-02T20:00:00	4	ND	ND	ND	ND	ND	1.3	254.1	23.6	67.4	0	0
24958	2012-12-02T21:00:00	4	ND	ND	ND	ND	ND	1	287.2	23.4	69.1	0	0
24959	2012-12-02T22:00:00	9	ND	ND	ND	ND	ND	0.5	55.3	22.4	76.7	0	0
24960	2012-12-02T23:00:00	24	ND	ND	ND	ND	ND	1.8	191.2	21.3	84.7	0	0
24961	2012-12-03T00:00:00	12	ND	ND	ND	ND	ND	1.7	175.4	20.8	89	0	0.76
24962	2012-12-03T01:00:00	14	ND	ND	ND	ND	ND	1.1	191.4	20.3	93.1	0	2.29
24963	2012-12-03T02:00:00	8	ND	ND	ND	ND	ND	0.6	212.7	20.1	88.3	0	0.51
24964	2012-12-03T03:00:00	6	ND	ND	ND	ND	ND	0.3	223.9	20	82.4	0	0.25
24965	2012-12-03T04:00:00	3	ND	ND	ND	ND	ND	0.6	307.7	19.8	84.8	0	0
24966	2012-12-03T05:00:00	3	ND	ND	ND	ND	ND	0.4	351.6	20	87.2	0	0
24967	2012-12-03T06:00:00	2	ND	ND	ND	ND	ND	0.3	252.1	20	81.9	0	0
24968	2012-12-03T07:00:00	12	ND	ND	ND	ND	ND	0.1	149.3	20.1	83.2	29.4	0
24969	2012-12-03T08:00:00	14	ND	ND	ND	ND	ND	0.2	232.8	20.9	81.7	164.7	0
24970	2012-12-03T09:00:00	27	ND	ND	ND	ND	ND	0.2	207.9	22.8	73.9	394.2	0
24971	2012-12-03T10:00:00	26	ND	ND	ND	ND	ND	1.1	83	24.8	65.8	645.5	0
24972	2012-12-03T11:00:00	47	ND	ND	ND	ND	ND	1.3	119	25.5	64.2	449.6	0
24973	2012-12-03T12:00:00	27	ND	ND	ND	ND	ND	1	101.9	26.6	58.7	635.3	0
24974	2012-12-03T13:00:00	39	ND	ND	ND	ND	ND	1.2	121.2	27.7	54.9	652.3	0
24975	2012-12-03T14:00:00	32	ND	ND	ND	ND	ND	1.7	122.4	28.3	53.2	684.9	0
24976	2012-12-03T15:00:00	26	ND	ND	ND	ND	ND	1.3	154.4	29.3	50.1	617.4	0
24977	2012-12-03T16:00:00	23	ND	ND	ND	ND	ND	0.8	130.1	28.9	50.2	237	0
24978	2012-12-03T17:00:00	46	ND	ND	ND	ND	ND	0.5	20.3	28.7	50.4	152.8	0
24979	2012-12-03T18:00:00	23	ND	ND	ND	ND	ND	4.1	266.7	26.4	53.9	12.3	0
24980	2012-12-03T19:00:00	21	ND	ND	ND	ND	ND	4.2	268.5	25.4	56.6	0	0
24981	2012-12-03T20:00:00	13	ND	ND	ND	ND	ND	3.8	269.9	24.8	58.8	0	0
24982	2012-12-03T21:00:00	8	ND	ND	ND	ND	ND	3.6	273.2	24.6	59.8	0	0
24983	2012-12-03T22:00:00	4	ND	ND	ND	ND	ND	1.7	288.2	24.7	59	0	0
24984	2012-12-03T23:00:00	10	ND	ND	ND	ND	ND	1	190.8	23.3	68.3	0	0
24985	2012-12-04T00:00:00	7	ND	ND	ND	ND	ND	1.8	193	22.7	74.4	0	0
24986	2012-12-04T01:00:00	26	ND	ND	ND	ND	ND	0.7	211.6	23	69.9	0	0
24987	2012-12-04T02:00:00	37	ND	ND	ND	ND	ND	0.2	ND	21.8	76	0	0
24988	2012-12-04T03:00:00	37	ND	ND	ND	ND	ND	0.1	ND	21.5	81.4	0	0
24989	2012-12-04T04:00:00	22	ND	ND	ND	ND	ND	0.4	ND	21.1	79.9	0	0
24990	2012-12-04T05:00:00	43	ND	ND	ND	ND	ND	0.2	ND	20.4	85.4	0	0
24991	2012-12-04T06:00:00	48	ND	ND	ND	ND	ND	0.2	ND	20.5	84.2	0	0
24992	2012-12-04T07:00:00	64	ND	ND	ND	ND	ND	0.6	227.1	21.1	78.6	31.1	0
24993	2012-12-04T08:00:00	64	ND	ND	ND	ND	ND	0.5	152.7	22.4	74.6	205.7	0
24994	2012-12-04T09:00:00	59	ND	ND	ND	ND	ND	1.5	152.7	24	69.4	450.1	0
24995	2012-12-04T10:00:00	30	ND	ND	ND	ND	ND	0.8	120.2	25.8	61.1	693.4	0
24996	2012-12-04T11:00:00	25	ND	ND	ND	ND	ND	0.6	117.6	27	56.4	718.7	0
24997	2012-12-04T12:00:00	15	ND	ND	ND	ND	ND	1.4	128.5	28.1	53	655.5	0
24998	2012-12-04T13:00:00	26	ND	ND	ND	ND	ND	0.9	124.9	28.9	50	713.6	0
24999	2012-12-04T14:00:00	29	ND	ND	ND	ND	ND	0.5	120.8	28.3	51.5	136	0
25000	2012-12-04T15:00:00	53	ND	ND	ND	ND	ND	0.6	85.2	28.1	53.7	200.2	0.25
25001	2012-12-04T16:00:00	28	ND	ND	ND	ND	ND	0.7	25.7	26.6	60.6	231.4	0
25002	2012-12-04T17:00:00	19	ND	ND	ND	ND	ND	4.3	279.2	26.2	56.5	98.5	0
25003	2012-12-04T18:00:00	11	ND	ND	ND	ND	ND	3.2	301.8	25.6	56.9	28.8	0
25004	2012-12-04T19:00:00	21	ND	ND	ND	ND	ND	3.3	277.2	25.1	58.4	0	0
25005	2012-12-04T20:00:00	12	ND	ND	ND	ND	ND	2.4	276.5	24.7	60.3	0	0
25006	2012-12-04T21:00:00	8	ND	ND	ND	ND	ND	2.3	256.5	24.3	62.7	0	0
25007	2012-12-04T22:00:00	5	ND	ND	ND	ND	ND	2.2	266.9	23.3	70.1	0	0
25008	2012-12-04T23:00:00	3	ND	ND	ND	ND	ND	1.7	203.3	22.9	76	0	0
25009	2012-12-05T00:00:00	3	ND	ND	ND	ND	ND	1.6	182.6	22	82.2	0	0
25010	2012-12-05T01:00:00	4	ND	ND	ND	ND	ND	1.1	181.3	21.6	83	0	0
25011	2012-12-05T02:00:00	3	ND	ND	ND	ND	ND	0.7	172.2	21.2	82.8	0	0
25012	2012-12-05T03:00:00	3	ND	ND	ND	ND	ND	0.2	ND	21.2	82.3	0	0
25013	2012-12-05T04:00:00	10	ND	ND	ND	ND	ND	0.4	84.5	21	85.1	0	0
25014	2012-12-05T05:00:00	6	ND	ND	ND	ND	ND	0.2	ND	20.7	86.3	0	0
25015	2012-12-05T06:00:00	6	ND	ND	ND	ND	ND	0.2	ND	20.8	87	0	0
25016	2012-12-05T07:00:00	27	ND	ND	ND	ND	ND	0.2	94.1	21.1	85.8	25.9	0
25017	2012-12-05T08:00:00	37	ND	ND	ND	ND	ND	0.8	77.4	21.6	84.3	97.5	0
25018	2012-12-05T09:00:00	48	ND	ND	ND	ND	ND	0.4	55	22.2	80.3	156.4	0
25019	2012-12-05T10:00:00	37	ND	ND	ND	ND	ND	0.8	199.7	23.8	71.6	423.3	0
25020	2012-12-05T11:00:00	38	ND	ND	ND	ND	ND	1.3	153.1	26.3	59.6	826	0
25021	2012-12-05T12:00:00	20	ND	ND	ND	ND	ND	1.5	152.8	27.4	54.3	715.2	0
25022	2012-12-05T13:00:00	17	ND	ND	ND	ND	ND	1.6	198.7	27.6	54.5	631	0
25023	2012-12-05T14:00:00	18	ND	ND	ND	ND	ND	1	181.6	28.4	51.2	443.8	0
25024	2012-12-05T15:00:00	34	ND	ND	ND	ND	ND	2	99.3	26.9	56.6	279.3	2.03
25025	2012-12-05T16:00:00	19	ND	ND	ND	ND	ND	1.3	297	27.3	56.5	509.9	0.51
25026	2012-12-05T17:00:00	18	ND	ND	ND	ND	ND	4.7	288.6	26.5	54.1	226.2	0
25027	2012-12-05T18:00:00	10	ND	ND	ND	ND	ND	4.3	286.8	25.6	55.4	59.7	0
25028	2012-12-05T19:00:00	12	ND	ND	ND	ND	ND	1.4	288	25.7	52.8	0	0
25029	2012-12-05T20:00:00	7	ND	ND	ND	ND	ND	2.1	230.5	24.4	61.5	0	0
25030	2012-12-05T21:00:00	9	ND	ND	ND	ND	ND	2.2	214.9	23.2	69.2	0	0
25031	2012-12-05T22:00:00	6	ND	ND	ND	ND	ND	2.4	179.6	22.6	71	0	0
25032	2012-12-05T23:00:00	5	ND	ND	ND	ND	ND	1.6	173.2	22.2	75.5	0	0
25033	2012-12-06T00:00:00	4	ND	ND	ND	ND	ND	0.8	147	21.7	81.5	0	0
25034	2012-12-06T01:00:00	6	ND	ND	ND	ND	ND	0.8	107.5	21.2	84.5	0	0
25035	2012-12-06T02:00:00	8	ND	ND	ND	ND	ND	0.8	48.7	21	85.2	0	0
25036	2012-12-06T03:00:00	19	ND	ND	ND	ND	ND	1.2	36	20.5	87.3	0	0
25037	2012-12-06T04:00:00	11	ND	ND	ND	ND	ND	0.5	78.3	20.3	88.5	0	0
25038	2012-12-06T05:00:00	39	ND	ND	ND	ND	ND	0.4	18.9	20.4	87.8	0	0
25039	2012-12-06T06:00:00	21	ND	ND	ND	ND	ND	0.2	222.2	20.7	85.2	0	0
25040	2012-12-06T07:00:00	51	ND	ND	ND	ND	ND	0.5	187.9	20.6	85	18.2	0
25041	2012-12-06T08:00:00	27	ND	ND	ND	ND	ND	0.7	213.7	21.7	74.3	172.1	0
25042	2012-12-06T09:00:00	44	ND	ND	ND	ND	ND	1.2	119.8	23.4	71.7	264.5	0
25043	2012-12-06T10:00:00	47	ND	ND	ND	ND	ND	1.4	153.6	24.6	65.9	593.2	0
25044	2012-12-06T11:00:00	33	ND	ND	ND	ND	ND	1.7	159.4	26.4	59	680.8	0
25045	2012-12-06T12:00:00	25	ND	ND	ND	ND	ND	1.3	163.6	27.4	54.9	749.7	0
25046	2012-12-06T13:00:00	36	ND	ND	ND	ND	ND	0.8	140.2	28	51.9	502.4	0
25047	2012-12-06T14:00:00	37	ND	ND	ND	ND	ND	0.7	61.3	28.7	48.5	437.4	0
25048	2012-12-06T15:00:00	41	ND	ND	ND	ND	ND	1.1	301.9	28.7	48.7	289.8	0
25049	2012-12-06T16:00:00	27	ND	ND	ND	ND	ND	2.8	278.6	28.8	48.3	342.9	0
25050	2012-12-06T17:00:00	22	ND	ND	ND	ND	ND	3.4	273.9	27.5	50.8	133.1	0
25051	2012-12-06T18:00:00	20	ND	ND	ND	ND	ND	3	273.1	26.1	55	25.3	0
25052	2012-12-06T19:00:00	19	ND	ND	ND	ND	ND	3.2	281.2	25.4	55.9	0	0
25053	2012-12-06T20:00:00	10	ND	ND	ND	ND	ND	3.9	270	24.9	57.8	0	0
25054	2012-12-06T21:00:00	16	ND	ND	ND	ND	ND	0.5	309.2	24.6	59.8	0	0
25055	2012-12-06T22:00:00	30	ND	ND	ND	ND	ND	0.4	ND	24.4	60.5	0	0
25056	2012-12-06T23:00:00	40	ND	ND	ND	ND	ND	0.9	105.8	24	65	0	0
25057	2012-12-07T00:00:00	22	ND	ND	ND	ND	ND	2.3	199.3	23.3	70.3	0	0
25058	2012-12-07T01:00:00	52	ND	ND	ND	ND	ND	1.9	173.9	22.7	74.7	0	0
25059	2012-12-07T02:00:00	32	ND	ND	ND	ND	ND	0.8	160.4	22.5	75.7	0	0
25060	2012-12-07T03:00:00	36	ND	ND	ND	ND	ND	0.3	156	22.5	74.9	0	0
25061	2012-12-07T04:00:00	30	ND	ND	ND	ND	ND	0.2	125.2	22.6	74.6	0	0
25062	2012-12-07T05:00:00	31	ND	ND	ND	ND	ND	0.7	115.7	22.1	78.5	0	0
25063	2012-12-07T06:00:00	21	ND	ND	ND	ND	ND	0.6	132	21.8	80.5	0	0
25064	2012-12-07T07:00:00	37	ND	ND	ND	ND	ND	0.6	182	21.8	80.7	21.6	0
25065	2012-12-07T08:00:00	32	ND	ND	ND	ND	ND	0.9	184	22.7	76.3	109	0
25066	2012-12-07T09:00:00	60	ND	ND	ND	ND	ND	1.1	122.4	23.1	76.6	171.9	0
25067	2012-12-07T10:00:00	54	ND	ND	ND	ND	ND	0.7	83.1	24.2	71.7	354.5	0
25068	2012-12-07T11:00:00	53	ND	ND	ND	ND	ND	0.9	93.4	26.5	60.8	655	0
25069	2012-12-07T12:00:00	49	ND	ND	ND	ND	ND	1.5	128.2	28	55.1	741.3	0
25070	2012-12-07T13:00:00	51	ND	ND	ND	ND	ND	1.3	98.7	28.8	51.3	570.9	0
25071	2012-12-07T14:00:00	38	ND	ND	ND	ND	ND	1.2	74.4	28.2	53.8	214.7	0
25072	2012-12-07T15:00:00	43	ND	ND	ND	ND	ND	1.5	261.1	29.6	48.4	674.1	0
25073	2012-12-07T16:00:00	26	ND	ND	ND	ND	ND	2	267.5	30.4	44.4	523	0
25074	2012-12-07T17:00:00	31	ND	ND	ND	ND	ND	3.7	274.8	29.2	47.4	272.8	0
25075	2012-12-07T18:00:00	17	ND	ND	ND	ND	ND	3.6	276	27.3	51.1	42.8	0
25076	2012-12-07T19:00:00	43	ND	ND	ND	ND	ND	3.3	275.5	26.1	56.5	0	0
25077	2012-12-07T20:00:00	24	ND	ND	ND	ND	ND	3.4	266.5	25.9	56.7	0	0
25078	2012-12-07T21:00:00	26	ND	ND	ND	ND	ND	2	277.7	25.7	58.6	0	0
25079	2012-12-07T22:00:00	26	ND	ND	ND	ND	ND	0.6	271.3	25	62.4	0	0
25080	2012-12-07T23:00:00	67	ND	ND	ND	ND	ND	0.6	308.8	24.2	66.5	0	0
25081	2012-12-08T00:00:00	36	ND	ND	ND	ND	ND	2.3	279.7	24.4	63.2	0	0
25082	2012-12-08T01:00:00	24	ND	ND	ND	ND	ND	0.7	8.8	23.6	68.3	0	0
25083	2012-12-08T02:00:00	22	ND	ND	ND	ND	ND	0.9	165.1	22.8	74.2	0	0
25084	2012-12-08T03:00:00	23	ND	ND	ND	ND	ND	1.6	162.4	22.5	77	0	0
25085	2012-12-08T04:00:00	12	ND	ND	ND	ND	ND	0.6	178.7	22.4	77.5	0	0
25086	2012-12-08T05:00:00	32	ND	ND	ND	ND	ND	0.7	202.7	22.1	79.1	0	0
25087	2012-12-08T06:00:00	17	ND	ND	ND	ND	ND	0.4	ND	22.3	78.1	0	0
25088	2012-12-08T07:00:00	41	ND	ND	ND	ND	ND	0.3	113.7	22.3	78.3	8.3	0
25089	2012-12-08T08:00:00	48	ND	ND	ND	ND	ND	0.4	154.3	23.2	75	158.3	0
25090	2012-12-08T09:00:00	41	ND	ND	ND	ND	ND	0.7	110.2	24.9	67	372.4	0
25091	2012-12-08T10:00:00	22	ND	ND	ND	ND	ND	1.1	169.7	26.1	61	483.5	0
25092	2012-12-08T11:00:00	43	ND	ND	ND	ND	ND	1	170.3	27.2	57.4	558.7	0
25093	2012-12-08T12:00:00	51	ND	ND	ND	ND	ND	1.6	158.7	28.8	53.1	753.6	0
25094	2012-12-08T13:00:00	58	ND	ND	ND	ND	ND	0.8	146.3	29.5	50	664.8	0
25095	2012-12-08T14:00:00	51	ND	ND	ND	ND	ND	0.6	159.4	30.5	46.9	496.9	0
25096	2012-12-08T15:00:00	60	ND	ND	ND	ND	ND	0.6	267.1	29.9	48.4	216.4	0
25097	2012-12-08T16:00:00	30	ND	ND	ND	ND	ND	2.2	284.9	30.9	45.1	470.5	0
25098	2012-12-08T17:00:00	17	ND	ND	ND	ND	ND	3.5	283.6	29.7	48.2	261.8	0
25099	2012-12-08T18:00:00	10	ND	ND	ND	ND	ND	3.6	275	27.7	53.4	40.9	0
25100	2012-12-08T19:00:00	9	ND	ND	ND	ND	ND	4.1	268.9	26.7	56.3	0	0
25101	2012-12-08T20:00:00	6	ND	ND	ND	ND	ND	3.3	274.2	26.2	58.2	0	0
25102	2012-12-08T21:00:00	10	ND	ND	ND	ND	ND	2	287.7	25.9	58.9	0	0
25103	2012-12-08T22:00:00	9	ND	ND	ND	ND	ND	2	274	25.4	61	0	0
25104	2012-12-08T23:00:00	4	ND	ND	ND	ND	ND	1.5	247.6	25.3	60.8	0	0
25105	2012-12-09T00:00:00	13	ND	ND	ND	ND	ND	0.8	49.6	24.4	68.6	0	0
25106	2012-12-09T01:00:00	25	ND	ND	ND	ND	ND	0.7	36.1	23.7	74.7	0	0
25107	2012-12-09T02:00:00	44	ND	ND	ND	ND	ND	1.1	205.9	23.6	73.9	0	0
25108	2012-12-09T03:00:00	30	ND	ND	ND	ND	ND	0.4	348.9	23.2	79.8	0	0
25109	2012-12-09T04:00:00	31	ND	ND	ND	ND	ND	0.6	90.3	22.9	80.8	0	0
25110	2012-12-09T05:00:00	34	ND	ND	ND	ND	ND	0.9	122.4	22.5	81.4	0	0
25111	2012-12-09T06:00:00	18	ND	ND	ND	ND	ND	0.6	192.7	22.6	80.2	0	0
25112	2012-12-09T07:00:00	50	ND	ND	ND	ND	ND	0.6	121.5	22.9	79	18.9	0
25113	2012-12-09T08:00:00	38	ND	ND	ND	ND	ND	0.4	177.3	23.5	76.7	133	0
25114	2012-12-09T09:00:00	55	ND	ND	ND	ND	ND	0.8	136.5	25.1	69.6	343.2	0
25115	2012-12-09T10:00:00	35	ND	ND	ND	ND	ND	0.8	105.9	26.7	62.7	451.7	0
25116	2012-12-09T11:00:00	26	ND	ND	ND	ND	ND	1	118.7	27.5	59	530.5	0
25117	2012-12-09T12:00:00	17	ND	ND	ND	ND	ND	1.3	139.5	28.7	55.3	731.1	0
25118	2012-12-09T13:00:00	31	ND	ND	ND	ND	ND	1.3	163.9	29.8	52	752.8	0
25119	2012-12-09T14:00:00	27	ND	ND	ND	ND	ND	1.8	128.3	30.2	50.5	627.2	0
25120	2012-12-09T15:00:00	35	ND	ND	ND	ND	ND	1	214	30.6	49.3	627.1	0
25121	2012-12-09T16:00:00	24	ND	ND	ND	ND	ND	1.2	118.3	30.5	50.2	352.6	0
25122	2012-12-09T17:00:00	19	ND	ND	ND	ND	ND	3.1	276.8	29.4	49.4	187	0
25123	2012-12-09T18:00:00	11	ND	ND	ND	ND	ND	3.1	274.9	28.1	51.2	60.4	0
25124	2012-12-09T19:00:00	12	ND	ND	ND	ND	ND	2.8	275.6	26.8	54.6	0	0
25125	2012-12-09T20:00:00	23	ND	ND	ND	ND	ND	3.3	266.4	26.1	57.2	0	0
25126	2012-12-09T21:00:00	13	ND	ND	ND	ND	ND	2.4	272.3	25.8	58.4	0	0
25127	2012-12-09T22:00:00	8	ND	ND	ND	ND	ND	2.1	282.3	25.2	60.9	0	0
25128	2012-12-09T23:00:00	11	ND	ND	ND	ND	ND	1.3	273	25	62.7	0	0
25129	2012-12-10T00:00:00	6	ND	ND	ND	ND	ND	1.4	264.9	24.8	62.8	0	0
25130	2012-12-10T01:00:00	3	ND	ND	ND	ND	ND	0.6	14.5	23.6	71	0	0
25131	2012-12-10T02:00:00	39	ND	ND	ND	ND	ND	0.6	119.3	23	76.7	0	0
25132	2012-12-10T03:00:00	38	ND	ND	ND	ND	ND	0.9	163.1	22.4	80.2	0	0
25133	2012-12-10T04:00:00	29	ND	ND	ND	ND	ND	0.9	189.7	22.4	79	0	0
25134	2012-12-10T05:00:00	27	ND	ND	ND	ND	ND	0.9	238.6	22.5	75.5	0	0
25135	2012-12-10T06:00:00	15	ND	ND	ND	ND	ND	0.3	247.9	22.4	73.1	0	0
25136	2012-12-10T07:00:00	36	ND	ND	ND	ND	ND	0.4	284.9	22.1	74.4	20.9	0
25137	2012-12-10T08:00:00	70	ND	ND	ND	ND	ND	0.6	5.4	22.6	78.4	129.9	0
25138	2012-12-10T09:00:00	54	ND	ND	ND	ND	ND	0.5	133.6	24.9	66.3	348.1	0
25139	2012-12-10T10:00:00	48	ND	ND	ND	ND	ND	1.6	136	26.4	61.3	619.5	0
25140	2012-12-10T11:00:00	57	ND	ND	ND	ND	ND	1.5	154.1	27.5	57.8	691.1	0
25141	2012-12-10T12:00:00	33	ND	ND	ND	ND	ND	1	125.4	28.6	53.3	577.1	0
25142	2012-12-10T13:00:00	50	ND	ND	ND	ND	ND	1.2	89.6	29.6	49.8	665	0
25143	2012-12-10T14:00:00	46	ND	ND	ND	ND	ND	0.7	25.5	30.1	47.8	314.6	0
25144	2012-12-10T15:00:00	61	ND	ND	ND	ND	ND	0.7	192.7	29.7	49.2	206.8	0
25145	2012-12-10T16:00:00	51	ND	ND	ND	ND	ND	1.1	235.8	29.8	48.4	190.2	0
25146	2012-12-10T17:00:00	42	ND	ND	ND	ND	ND	2.9	282	28.9	49.9	144.9	0
25147	2012-12-10T18:00:00	22	ND	ND	ND	ND	ND	3.1	276.9	27.5	52.5	34.6	0
25148	2012-12-10T19:00:00	28	ND	ND	ND	ND	ND	2.7	271.7	26.7	54.5	0	0
25149	2012-12-10T20:00:00	15	ND	ND	ND	ND	ND	3.8	266.8	26.1	56.9	0	0
25150	2012-12-10T21:00:00	9	ND	ND	ND	ND	ND	2.9	282.8	25.8	57.6	0	0
25151	2012-12-10T22:00:00	12	ND	ND	ND	ND	ND	2	274.8	25.4	59.4	0	0
25152	2012-12-10T23:00:00	7	ND	ND	ND	ND	ND	1.8	270.9	25.2	60.7	0	0
25153	2012-12-11T00:00:00	7	ND	ND	ND	ND	ND	1.2	241.6	24.8	62.8	0	0
25154	2012-12-11T01:00:00	34	ND	ND	ND	ND	ND	0.3	261.9	24.1	67.1	0	0
25155	2012-12-11T02:00:00	26	ND	ND	ND	ND	ND	1.2	185.9	23.3	74.3	0	0
25156	2012-12-11T03:00:00	30	ND	ND	ND	ND	ND	0.3	200.2	23.1	74.8	0	0
25157	2012-12-11T04:00:00	16	ND	ND	ND	ND	ND	0.6	212.7	23.1	72.9	0	0
25158	2012-12-11T05:00:00	39	ND	ND	ND	ND	ND	0.2	ND	23.1	72.1	0	0
25159	2012-12-11T06:00:00	21	ND	ND	ND	ND	ND	0.3	ND	22.9	70.2	0	0
25160	2012-12-11T07:00:00	56	ND	ND	ND	ND	ND	0.7	81.5	22.5	78.6	15.7	0
25161	2012-12-11T08:00:00	63	ND	ND	ND	ND	ND	0.3	23.1	23.1	76.1	98.8	0
25162	2012-12-11T09:00:00	104	ND	ND	ND	ND	ND	0.9	107.8	24.5	69.1	309.3	0
25163	2012-12-11T10:00:00	65	ND	ND	ND	ND	ND	1.2	160.6	26.7	59.7	601.9	0
25164	2012-12-11T11:00:00	62	ND	ND	ND	ND	ND	1.2	144.3	28	55.2	717.7	0
25165	2012-12-11T12:00:00	52	ND	ND	ND	ND	ND	1.2	118.9	29	51.4	636.8	0
25166	2012-12-11T13:00:00	55	ND	ND	ND	ND	ND	0.5	104.7	29.7	48.2	542.8	0
25167	2012-12-11T14:00:00	44	ND	ND	ND	ND	ND	1	71.8	30.7	44.7	439.3	0
25168	2012-12-11T15:00:00	40	ND	ND	ND	ND	ND	2.6	308	30.3	44	328	0
25169	2012-12-11T16:00:00	21	ND	ND	ND	ND	ND	3.9	276.7	30.3	43.6	488.6	0
25170	2012-12-11T17:00:00	22	ND	ND	ND	ND	ND	4	284	29	47.7	279.1	0
25171	2012-12-11T18:00:00	20	ND	ND	ND	ND	ND	4.5	279.7	26.8	55	49.4	0
25172	2012-12-11T19:00:00	18	ND	ND	ND	ND	ND	3.9	284.7	25.7	58.1	0	0
25173	2012-12-11T20:00:00	11	ND	ND	ND	ND	ND	2.1	324.1	25.3	58.7	0	0
25174	2012-12-11T21:00:00	6	ND	ND	ND	ND	ND	3.5	246.7	24.9	60.7	0	0
25175	2012-12-11T22:00:00	5	ND	ND	ND	ND	ND	2.8	194.7	24.1	70.5	0	0
25176	2012-12-11T23:00:00	6	ND	ND	ND	ND	ND	1.9	190.1	24.2	68.9	0	0
25177	2012-12-12T00:00:00	4	ND	ND	ND	ND	ND	1.1	195.9	24.3	65.8	0	0
25178	2012-12-12T01:00:00	15	ND	ND	ND	ND	ND	1.1	164.7	23.3	74.5	0	0
25179	2012-12-12T02:00:00	12	ND	ND	ND	ND	ND	0.7	142.7	23.3	74.2	0	0
25180	2012-12-12T03:00:00	20	ND	ND	ND	ND	ND	0.6	35.5	22.7	78	0	0
25181	2012-12-12T04:00:00	11	ND	ND	ND	ND	ND	0.7	133.3	22.3	81.5	0	0
25182	2012-12-12T05:00:00	28	ND	ND	ND	ND	ND	1	154.4	22.1	83.4	0	0
25183	2012-12-12T06:00:00	18	ND	ND	ND	ND	ND	0.4	159.8	22.3	80.1	0	0
25184	2012-12-12T07:00:00	41	ND	ND	ND	ND	ND	0.8	111.7	22.6	78.5	22.3	0
25185	2012-12-12T08:00:00	45	ND	ND	ND	ND	ND	1.3	119	22.8	77.8	127.4	0
25186	2012-12-12T09:00:00	47	ND	ND	ND	ND	ND	1.1	127.4	24.1	70.9	316.3	0
25187	2012-12-12T10:00:00	35	ND	ND	ND	ND	ND	0.9	359.1	24.8	67.8	340.6	0
25188	2012-12-12T11:00:00	40	ND	ND	ND	ND	ND	0.8	124.1	26.3	61.3	581.8	0
25189	2012-12-12T12:00:00	22	ND	ND	ND	ND	ND	1.1	119.1	28	54.4	649	0
25190	2012-12-12T13:00:00	45	ND	ND	ND	ND	ND	1.1	87.8	29.7	47.9	778.9	0
25191	2012-12-12T14:00:00	23	ND	ND	ND	ND	ND	0.6	354.6	29.7	47.3	431.1	0
25192	2012-12-12T15:00:00	44	ND	ND	ND	ND	ND	1.7	306.9	29.3	48.5	153.2	0
25193	2012-12-12T16:00:00	24	ND	ND	ND	ND	ND	3	276.8	28.1	51	176.9	0
25194	2012-12-12T17:00:00	36	ND	ND	ND	ND	ND	3.3	280.4	27.7	51.7	127.5	0
25195	2012-12-12T18:00:00	19	ND	ND	ND	ND	ND	2.8	285.7	26.7	53.2	31.5	0
25196	2012-12-12T19:00:00	15	ND	ND	ND	ND	ND	2.7	285	26.2	54.1	0	0
25197	2012-12-12T20:00:00	9	ND	ND	ND	ND	ND	2.9	277	25.8	55.7	0	0
25198	2012-12-12T21:00:00	6	ND	ND	ND	ND	ND	2.3	214.8	25.5	58.3	0	0
25199	2012-12-12T22:00:00	5	ND	ND	ND	ND	ND	1.5	236.2	25.2	60.4	0	0
25200	2012-12-12T23:00:00	10	ND	ND	ND	ND	ND	0.8	209.8	24.6	64.9	0	0
25201	2012-12-13T00:00:00	22	ND	ND	ND	ND	ND	1.3	73.7	23.9	69.5	0	0
25202	2012-12-13T01:00:00	16	ND	ND	ND	ND	ND	1.3	172.1	22.5	78	0	0
25203	2012-12-13T02:00:00	9	ND	ND	ND	ND	ND	1.6	141.5	21.7	84	0	0
25204	2012-12-13T03:00:00	18	ND	ND	ND	ND	ND	0.9	122.5	21.3	86.2	0	0
25205	2012-12-13T04:00:00	10	ND	ND	ND	ND	ND	0.8	91.6	21.1	88.4	0	0.25
25206	2012-12-13T05:00:00	15	ND	ND	ND	ND	ND	0.9	69	20.7	90.3	0	1.02
25207	2012-12-13T06:00:00	9	ND	ND	ND	ND	ND	0.4	35.3	20.7	90.7	0	0
25208	2012-12-13T07:00:00	11	ND	ND	ND	ND	ND	0.7	111.4	20.8	90.4	6.7	0
25209	2012-12-13T08:00:00	17	ND	ND	ND	ND	ND	1.4	146.7	21	89.2	38.6	0
25210	2012-12-13T09:00:00	38	ND	ND	ND	ND	ND	0.7	71.6	21.3	87.4	26.3	0.51
25211	2012-12-13T10:00:00	21	ND	ND	ND	ND	ND	0.7	215.8	20.3	90.5	35.5	4.57
25212	2012-12-13T11:00:00	38	ND	ND	ND	ND	ND	0.7	288	20.9	88.5	83.9	4.57
25213	2012-12-13T12:00:00	34	ND	ND	ND	ND	ND	0.7	217.3	21.3	87.3	254.2	2.54
25214	2012-12-13T13:00:00	23	ND	ND	ND	ND	ND	0.6	149.4	23.2	76.4	425.4	0
25215	2012-12-13T14:00:00	13	ND	ND	ND	ND	ND	0.9	175.1	24.1	69.9	335	0
25216	2012-12-13T15:00:00	21	ND	ND	ND	ND	ND	1.2	169.6	24.6	67.4	298.1	0
25217	2012-12-13T16:00:00	16	ND	ND	ND	ND	ND	1.2	198.8	24.8	67	202.9	0
25218	2012-12-13T17:00:00	41	ND	ND	ND	ND	ND	1	222.2	24.6	66.5	78.9	0
25219	2012-12-13T18:00:00	21	ND	ND	ND	ND	ND	1	236.6	24.3	67.4	16.6	0
25220	2012-12-13T19:00:00	40	ND	ND	ND	ND	ND	1.1	314.5	23.6	70.3	0	0
25221	2012-12-13T20:00:00	72	ND	ND	ND	ND	ND	0.8	15.8	23.1	75.8	0	0
25222	2012-12-13T21:00:00	75	ND	ND	ND	ND	ND	1.1	29.1	22.5	79.2	0	0
25223	2012-12-13T22:00:00	47	ND	ND	ND	ND	ND	1.7	17	22.1	77.9	0	0
25224	2012-12-13T23:00:00	46	ND	ND	ND	ND	ND	0.7	16.4	21.8	79.8	0	0
25225	2012-12-14T00:00:00	25	ND	ND	ND	ND	ND	0.2	ND	22.1	77.9	0	0
25226	2012-12-14T01:00:00	53	ND	ND	ND	ND	ND	0.6	177	21.9	79.1	0	0
25227	2012-12-14T02:00:00	34	ND	ND	ND	ND	ND	0.6	65.6	21.5	83.1	0	0
25228	2012-12-14T03:00:00	42	ND	ND	ND	ND	ND	0.8	335.5	20.9	87.1	0	0.25
25229	2012-12-14T04:00:00	29	ND	ND	ND	ND	ND	0.3	128.1	20.7	89.2	0	0
25230	2012-12-14T05:00:00	32	ND	ND	ND	ND	ND	0.9	52.3	20.7	89.4	0	0.51
25231	2012-12-14T06:00:00	18	ND	ND	ND	ND	ND	1.5	9.4	19.9	93.9	0	26.92
25232	2012-12-14T07:00:00	14	ND	ND	ND	ND	ND	0.8	315.1	19.2	98.2	0	16.26
25233	2012-12-14T08:00:00	8	ND	ND	ND	ND	ND	0.2	209	19.5	98.2	38.6	3.05
25234	2012-12-14T09:00:00	21	ND	ND	ND	ND	ND	0.3	ND	20.7	92.5	152.8	0
25235	2012-12-14T10:00:00	19	ND	ND	ND	ND	ND	1.3	145.9	22.1	82.4	365.6	0
25236	2012-12-14T11:00:00	56	ND	ND	ND	ND	ND	1.1	108.3	22.7	79.4	196.4	0
25237	2012-12-14T12:00:00	30	ND	ND	ND	ND	ND	1.2	314.5	22.1	82.8	219.8	0.25
25238	2012-12-14T13:00:00	19	ND	ND	ND	ND	ND	0.6	240.2	23.4	75.9	383.4	0
25239	2012-12-14T14:00:00	16	ND	ND	ND	ND	ND	1.1	254.9	23.8	74.7	343.3	0.25
25240	2012-12-14T15:00:00	25	ND	ND	ND	ND	ND	1.4	260.1	24	70.6	200.8	0
25241	2012-12-14T16:00:00	18	ND	ND	ND	ND	ND	0.6	257.8	24.3	68.6	161.2	0
25242	2012-12-14T17:00:00	34	ND	ND	ND	ND	ND	0.8	168.9	24.4	68.3	110.8	0
25243	2012-12-14T18:00:00	72	ND	ND	ND	ND	ND	0.8	152.2	24.1	72.3	29.9	0
25244	2012-12-14T19:00:00	76	ND	ND	ND	ND	ND	1.7	20.4	21	86.8	0	33.53
25245	2012-12-14T20:00:00	80	ND	ND	ND	ND	ND	0.3	ND	21.5	85.4	0	0.25
25246	2012-12-14T21:00:00	72	ND	ND	ND	ND	ND	1.1	234.6	22.5	77.1	0	0
25247	2012-12-14T22:00:00	37	ND	ND	ND	ND	ND	1.1	252.1	22.2	76.6	0	0
25248	2012-12-14T23:00:00	29	ND	ND	ND	ND	ND	1	258.6	21.9	76.4	0	0
25249	2012-12-15T00:00:00	16	ND	ND	ND	ND	ND	0.6	240.3	21.8	76.9	0	0
25250	2012-12-15T01:00:00	23	ND	ND	ND	ND	ND	0.7	289.8	21.6	78	0	0
25251	2012-12-15T02:00:00	25	ND	ND	ND	ND	ND	0.2	ND	21.4	84	0	0
25252	2012-12-15T03:00:00	62	ND	ND	ND	ND	ND	0	ND	21.2	86.4	0	0
25253	2012-12-15T04:00:00	67	ND	ND	ND	ND	ND	0.4	ND	21	88.7	0	0
25254	2012-12-15T05:00:00	62	ND	ND	ND	ND	ND	0.5	352.3	20.9	88.1	0	0
25255	2012-12-15T06:00:00	55	ND	ND	ND	ND	ND	0.5	34.2	20.9	88.6	0	0
25256	2012-12-15T07:00:00	55	ND	ND	ND	ND	ND	0.1	ND	20.9	88.8	25.6	0
25257	2012-12-15T08:00:00	52	ND	ND	ND	ND	ND	0.8	146.6	21.7	84.7	117.6	0
25258	2012-12-15T09:00:00	65	ND	ND	ND	ND	ND	1.1	151.5	22.3	81.4	215.4	0
25259	2012-12-15T10:00:00	42	ND	ND	ND	ND	ND	1	90.9	23.8	73.1	481.1	0
25260	2012-12-15T11:00:00	45	ND	ND	ND	ND	ND	0.9	46.1	25.3	65.7	474.6	0
25261	2012-12-15T12:00:00	47	ND	ND	ND	ND	ND	0.4	128.6	26.2	61.1	454.8	0
25262	2012-12-15T13:00:00	44	ND	ND	ND	ND	ND	1	95.8	27.4	57.1	716.9	0
25263	2012-12-15T14:00:00	23	ND	ND	ND	ND	ND	0.3	307.4	28.4	53	600.5	0
25264	2012-12-15T15:00:00	48	ND	ND	ND	ND	ND	1.3	268.1	28.6	51.4	462.5	0
25265	2012-12-15T16:00:00	25	ND	ND	ND	ND	ND	2.3	283.1	28.9	49.8	438.2	0
25266	2012-12-15T17:00:00	19	ND	ND	ND	ND	ND	3.2	278.4	28.3	50.1	278.2	0
25267	2012-12-15T18:00:00	17	ND	ND	ND	ND	ND	3.5	278.6	26.6	55.7	42.6	0
25268	2012-12-15T19:00:00	12	ND	ND	ND	ND	ND	4.2	264	25.3	59.9	0	0
25269	2012-12-15T20:00:00	10	ND	ND	ND	ND	ND	2.9	280.5	25.1	60.3	0	0
25270	2012-12-15T21:00:00	17	ND	ND	ND	ND	ND	1.6	273.2	25.2	59.1	0	0
25271	2012-12-15T22:00:00	21	ND	ND	ND	ND	ND	3.2	208.2	23.6	72.2	0	0
25272	2012-12-15T23:00:00	12	ND	ND	ND	ND	ND	2.1	219.9	21.8	81.5	0	0
25273	2012-12-16T00:00:00	8	ND	ND	ND	ND	ND	1.9	160.5	21.2	84.4	0	0
25274	2012-12-16T01:00:00	5	ND	ND	ND	ND	ND	1.5	214.2	20.6	87.6	0	0
25275	2012-12-16T02:00:00	3	ND	ND	ND	ND	ND	0.5	123.9	21	86.1	0	0
25276	2012-12-16T03:00:00	6	ND	ND	ND	ND	ND	0.5	ND	21.4	83.3	0	0
25277	2012-12-16T04:00:00	5	ND	ND	ND	ND	ND	0.7	ND	21.3	83.2	0	0
25278	2012-12-16T05:00:00	16	ND	ND	ND	ND	ND	1	154.2	20.3	88.6	0	0
25279	2012-12-16T06:00:00	17	ND	ND	ND	ND	ND	0.8	156.7	20.1	89.8	0	0
25280	2012-12-16T07:00:00	9	ND	ND	ND	ND	ND	1.1	281.2	20.7	85.8	44.9	0
25281	2012-12-16T08:00:00	6	ND	ND	ND	ND	ND	0.8	0.8	22.8	73.3	245.5	0
25282	2012-12-16T09:00:00	4	ND	ND	ND	ND	ND	1.1	93.3	24.8	64.4	415.3	0
25283	2012-12-16T10:00:00	3	ND	ND	ND	ND	ND	1.6	88.3	25.3	65.1	555.4	0
25284	2012-12-16T11:00:00	16	ND	ND	ND	ND	ND	1.3	67.2	26	61.8	528.5	0
25285	2012-12-16T12:00:00	9	ND	ND	ND	ND	ND	0.7	65.1	26.9	56.5	418.7	0
25286	2012-12-16T13:00:00	16	ND	ND	ND	ND	ND	0.6	128.7	28.2	52.2	714.1	0
25287	2012-12-16T14:00:00	10	ND	ND	ND	ND	ND	1.3	10.2	29.5	47.7	684.9	0
25288	2012-12-16T15:00:00	31	ND	ND	ND	ND	ND	0.7	358.9	29.4	46.5	338.2	0
25289	2012-12-16T16:00:00	17	ND	ND	ND	ND	ND	0.3	340.8	29.5	47	234.8	0
25290	2012-12-16T17:00:00	19	ND	ND	ND	ND	ND	3.5	284	28.1	50.6	156.6	0
25291	2012-12-16T18:00:00	11	ND	ND	ND	ND	ND	4.5	275.5	26.4	55.1	23.1	0
25292	2012-12-16T19:00:00	6	ND	ND	ND	ND	ND	4.7	264.7	25.6	57	0	0
25293	2012-12-16T20:00:00	5	ND	ND	ND	ND	ND	2.3	275.5	25.4	57	0	0
25294	2012-12-16T21:00:00	30	ND	ND	ND	ND	ND	0.6	99.7	24.9	60.6	0	0
25295	2012-12-16T22:00:00	17	ND	ND	ND	ND	ND	1.5	242.7	24.6	62.5	0	0
25296	2012-12-16T23:00:00	10	ND	ND	ND	ND	ND	2.5	252.5	24.3	63.9	0	0
25297	2012-12-17T00:00:00	24	ND	ND	ND	ND	ND	0.4	ND	23.5	69	0	0
25298	2012-12-17T01:00:00	32	ND	ND	ND	ND	ND	0.5	109.2	22.6	75	0	0
25299	2012-12-17T02:00:00	17	ND	ND	ND	ND	ND	1.2	190	21.9	79.3	0	0
25300	2012-12-17T03:00:00	15	ND	ND	ND	ND	ND	0.9	192.5	21.8	79.3	0	0
25301	2012-12-17T04:00:00	8	ND	ND	ND	ND	ND	0.4	1.7	21.8	78.8	0	0
25302	2012-12-17T05:00:00	40	ND	ND	ND	ND	ND	0.3	ND	21.5	80.6	0	0
25303	2012-12-17T06:00:00	39	ND	ND	ND	ND	ND	0.3	ND	21.6	79.4	0	0
25304	2012-12-17T07:00:00	62	ND	ND	ND	ND	ND	0.5	58.1	21.6	80.7	6.8	0
25305	2012-12-17T08:00:00	73	ND	ND	ND	ND	ND	0.4	136.1	21.8	81.8	60.3	0
25306	2012-12-17T09:00:00	47	ND	ND	ND	ND	ND	0.6	129.5	23.1	73.9	256.5	0
25307	2012-12-17T10:00:00	27	ND	ND	ND	ND	ND	0.7	164.2	25.2	62.8	563.4	0
25308	2012-12-17T11:00:00	16	ND	ND	ND	ND	ND	1.1	169.4	26.9	57.1	659	0
25309	2012-12-17T12:00:00	17	ND	ND	ND	ND	ND	1	135.1	27.6	54.5	385.9	0
25310	2012-12-17T13:00:00	39	ND	ND	ND	ND	ND	0.5	269.1	27.8	53.5	311.3	0
25311	2012-12-17T14:00:00	22	ND	ND	ND	ND	ND	0.4	359	28.8	49.7	349.9	0
25312	2012-12-17T15:00:00	16	ND	ND	ND	ND	ND	3.5	287.9	27.4	52	121.1	0
25313	2012-12-17T16:00:00	9	ND	ND	ND	ND	ND	4.5	281.1	25.9	56.6	161.7	0
25314	2012-12-17T17:00:00	11	ND	ND	ND	ND	ND	3.9	276.6	25.7	57.5	139.1	0
25315	2012-12-17T18:00:00	10	ND	ND	ND	ND	ND	4.3	282.9	25.2	58.3	64.5	0
25316	2012-12-17T19:00:00	7	ND	ND	ND	ND	ND	2.4	280.6	25	57.4	0	0
25317	2012-12-17T20:00:00	5	ND	ND	ND	ND	ND	2.2	286.8	24.8	59.3	0	0
25318	2012-12-17T21:00:00	3	ND	ND	ND	ND	ND	2.6	266.9	22.8	74	0	2.54
25319	2012-12-17T22:00:00	3	ND	ND	ND	ND	ND	0.6	257.6	22	79.3	0	1.52
25320	2012-12-17T23:00:00	3	ND	ND	ND	ND	ND	2	188.9	21.6	83	0	0.25
25321	2012-12-18T00:00:00	2	ND	ND	ND	ND	ND	2.4	178.8	20.8	88.8	0	0.25
25322	2012-12-18T01:00:00	2	ND	ND	ND	ND	ND	2.3	192.7	20.2	89.9	0	0.25
25323	2012-12-18T02:00:00	3	ND	ND	ND	ND	ND	1.6	190	20	90.7	0	1.52
25324	2012-12-18T03:00:00	3	ND	ND	ND	ND	ND	1	187.2	19.9	91.5	0	0.51
25325	2012-12-18T04:00:00	2	ND	ND	ND	ND	ND	0.6	185.6	20	91.9	0	0.51
25326	2012-12-18T05:00:00	2	ND	ND	ND	ND	ND	0.7	174.6	20.1	91.6	0	0
25327	2012-12-18T06:00:00	5	ND	ND	ND	ND	ND	0.8	171.8	20	91.4	0	0
25328	2012-12-18T07:00:00	11	ND	ND	ND	ND	ND	0.7	217.2	19.9	89.3	9	0.25
25329	2012-12-18T08:00:00	7	ND	ND	ND	ND	ND	0.1	286.7	20.4	85.7	82.5	0
25330	2012-12-18T09:00:00	15	ND	ND	ND	ND	ND	0.9	355.4	21.4	83.2	222.5	0
25331	2012-12-18T10:00:00	9	ND	ND	ND	ND	ND	0.5	13.1	22.8	75.3	386.7	0
25332	2012-12-18T11:00:00	6	ND	ND	ND	ND	ND	1.3	64.9	25	65.2	622.1	0
25333	2012-12-18T12:00:00	5	ND	ND	ND	ND	ND	1.5	66.2	26.3	58.6	717.8	0
25334	2012-12-18T13:00:00	23	ND	ND	ND	ND	ND	1.6	102.2	27.7	52.6	809.6	0
25335	2012-12-18T14:00:00	12	ND	ND	ND	ND	ND	0.8	42.5	28.6	49.4	651.3	0
25336	2012-12-18T15:00:00	6	ND	ND	ND	ND	ND	1.7	295.3	28.5	49.4	359.8	0
25337	2012-12-18T16:00:00	4	ND	ND	ND	ND	ND	4.2	280.6	28.5	46.3	522	0
25338	2012-12-18T17:00:00	5	ND	ND	ND	ND	ND	4.6	278	27.1	49.6	224.5	0
25339	2012-12-18T18:00:00	4	ND	ND	ND	ND	ND	4.8	279.2	25.8	53.4	54.6	0
25340	2012-12-18T19:00:00	3	ND	ND	ND	ND	ND	3.9	279.8	25.2	55.3	0	0
25341	2012-12-18T20:00:00	19	ND	ND	ND	ND	ND	0.1	7.8	24.8	62.1	0	0
25342	2012-12-18T21:00:00	36	ND	ND	ND	ND	ND	0.3	119.3	24.2	64.7	0	0
25343	2012-12-18T22:00:00	19	ND	ND	ND	ND	ND	1.6	246.7	23.7	62.6	0	0
25344	2012-12-18T23:00:00	10	ND	ND	ND	ND	ND	1.2	263.7	23.5	62.3	0	0
25345	2012-12-19T00:00:00	7	ND	ND	ND	ND	ND	1	218.9	23.1	66.6	0	0
25346	2012-12-19T01:00:00	37	ND	ND	ND	ND	ND	1.3	183.2	21.9	79.2	0	0
25347	2012-12-19T02:00:00	20	ND	ND	ND	ND	ND	1	247.6	22	71.6	0	0
25348	2012-12-19T03:00:00	27	ND	ND	ND	ND	ND	0.7	259	21.9	67.7	0	0
25349	2012-12-19T04:00:00	15	ND	ND	ND	ND	ND	1.1	352.1	21.9	73.3	0	0
25350	2012-12-19T05:00:00	37	ND	ND	ND	ND	ND	0.3	28	21.6	78.2	0	0
25351	2012-12-19T06:00:00	24	ND	ND	ND	ND	ND	0.7	253.4	21.8	75.8	0	0
25352	2012-12-19T07:00:00	27	ND	ND	ND	ND	ND	0.3	ND	21.8	73.5	15.1	0
25353	2012-12-19T08:00:00	30	ND	ND	ND	ND	ND	0.6	239.1	22.6	70	99.2	0
25354	2012-12-19T09:00:00	47	ND	ND	ND	ND	ND	0.4	232.9	23.8	66.2	358.4	0
25355	2012-12-19T10:00:00	46	ND	ND	ND	ND	ND	1.2	154.1	25.3	61.6	456.7	0
25356	2012-12-19T11:00:00	39	ND	ND	ND	ND	ND	1.6	156.7	26.6	56.6	644.7	0
25357	2012-12-19T12:00:00	21	ND	ND	ND	ND	ND	0.3	134	27.2	54.1	372.1	0
25358	2012-12-19T13:00:00	26	ND	ND	ND	ND	ND	0.6	357.6	28.2	50.6	562.6	0
25359	2012-12-19T14:00:00	18	ND	ND	ND	ND	ND	0.8	18.4	29.4	45.8	558.9	0
25360	2012-12-19T15:00:00	33	ND	ND	ND	ND	ND	1.9	315.8	29	48	381.7	0
25361	2012-12-19T16:00:00	18	ND	ND	ND	ND	ND	1.2	273.9	27.8	53.6	103.9	0
25362	2012-12-19T17:00:00	30	ND	ND	ND	ND	ND	2.3	286.8	27	54.2	38.8	0
25363	2012-12-19T18:00:00	17	ND	ND	ND	ND	ND	2.2	251.1	26.1	55.1	8.8	0
25364	2012-12-19T19:00:00	24	ND	ND	ND	ND	ND	1.6	313.7	25.6	56.9	0	0
25365	2012-12-19T20:00:00	40	ND	ND	ND	ND	ND	0.6	72.4	24.3	65.6	0	0
25366	2012-12-19T21:00:00	61	ND	ND	ND	ND	ND	1	133.7	23.5	69.3	0	0
25367	2012-12-19T22:00:00	42	ND	ND	ND	ND	ND	1.2	207.2	23.2	69.8	0	0
25368	2012-12-19T23:00:00	64	ND	ND	ND	ND	ND	0.1	237.6	23.2	70.4	0	0
25369	2012-12-20T00:00:00	33	ND	ND	ND	ND	ND	1.3	296.1	23.4	66.4	0	0
25370	2012-12-20T01:00:00	50	ND	ND	ND	ND	ND	0.7	69.9	23	72	0	0
25371	2012-12-20T02:00:00	62	ND	ND	ND	ND	ND	0.5	130.4	22.1	76.6	0	0
25372	2012-12-20T03:00:00	41	ND	ND	ND	ND	ND	0.6	147.2	21.7	77.9	0	0
25373	2012-12-20T04:00:00	22	ND	ND	ND	ND	ND	0.3	84.5	21.7	76.1	0	0
25374	2012-12-20T05:00:00	25	ND	ND	ND	ND	ND	0.3	111.7	21.6	77.5	0	0
25375	2012-12-20T06:00:00	13	ND	ND	ND	ND	ND	0.4	ND	21.7	78	0	0
25376	2012-12-20T07:00:00	34	ND	ND	ND	ND	ND	0.6	140.1	21.5	79.7	17.6	0
25377	2012-12-20T08:00:00	56	ND	ND	ND	ND	ND	0.2	221.7	22.4	75.3	124.1	0
25378	2012-12-20T09:00:00	54	ND	ND	ND	ND	ND	0.7	42.2	23.4	71.8	196.8	0
25379	2012-12-20T10:00:00	59	ND	ND	ND	ND	ND	1.1	62.3	24.1	68.2	286.3	0
25380	2012-12-20T11:00:00	44	ND	ND	ND	ND	ND	0.6	89.9	26.5	58	661.9	0
25381	2012-12-20T12:00:00	28	ND	ND	ND	ND	ND	1	59.1	27.8	52.5	609.4	0
25382	2012-12-20T13:00:00	36	ND	ND	ND	ND	ND	1.2	55.3	28.9	47.8	480.9	0
25383	2012-12-20T14:00:00	35	ND	ND	ND	ND	ND	1.7	301.9	29.4	45.5	695.3	0
25384	2012-12-20T15:00:00	20	ND	ND	ND	ND	ND	1.7	348.2	29.9	43.8	520.9	0
25385	2012-12-20T16:00:00	30	ND	ND	ND	ND	ND	3.7	276.1	30.1	42.6	548.8	0
25386	2012-12-20T17:00:00	18	ND	ND	ND	ND	ND	3.8	277.7	28.9	45.5	282.7	0
25387	2012-12-20T18:00:00	10	ND	ND	ND	ND	ND	3.8	277.9	26.9	52	39.9	0
25388	2012-12-20T19:00:00	11	ND	ND	ND	ND	ND	4.1	268.6	26.1	53.9	0	0
25389	2012-12-20T20:00:00	6	ND	ND	ND	ND	ND	3.6	266.2	25.3	57.9	0	0
25390	2012-12-20T21:00:00	4	ND	ND	ND	ND	ND	2.1	278.7	25.2	58.1	0	0
25391	2012-12-20T22:00:00	3	ND	ND	ND	ND	ND	1.4	269.5	25	60.3	0	0
25392	2012-12-20T23:00:00	4	ND	ND	ND	ND	ND	2	252.6	24.6	62.4	0	0
25393	2012-12-21T00:00:00	4	ND	ND	ND	ND	ND	1.5	213.3	24.2	65.5	0	0
25394	2012-12-21T01:00:00	25	ND	ND	ND	ND	ND	0.6	2.8	23.1	71.4	0	0
25395	2012-12-21T02:00:00	31	ND	ND	ND	ND	ND	0.6	56.1	22.6	74.1	0	0
25396	2012-12-21T03:00:00	34	ND	ND	ND	ND	ND	0.5	191.6	22.8	73.8	0	0
25397	2012-12-21T04:00:00	18	ND	ND	ND	ND	ND	0.8	170.2	22.4	76.9	0	0
25398	2012-12-21T05:00:00	25	ND	ND	ND	ND	ND	0.6	201.3	22.2	78.2	0	0
25399	2012-12-21T06:00:00	17	ND	ND	ND	ND	ND	0.5	151.5	21.9	80.3	0	0
25400	2012-12-21T07:00:00	37	ND	ND	ND	ND	ND	0.4	ND	22.5	76	18.9	0
25401	2012-12-21T08:00:00	25	ND	ND	ND	ND	ND	0.9	161.3	23.1	75.2	152.1	0
25402	2012-12-21T09:00:00	55	ND	ND	ND	ND	ND	1.1	157.1	24	71.1	225.4	0
25403	2012-12-21T10:00:00	48	ND	ND	ND	ND	ND	1.2	135.2	25.7	62.7	594.2	0
25404	2012-12-21T11:00:00	33	ND	ND	ND	ND	ND	1.5	141	27.6	56.3	683.1	0
25405	2012-12-21T12:00:00	21	ND	ND	ND	ND	ND	0.7	115.4	27.4	55.8	262	0
25406	2012-12-21T13:00:00	32	ND	ND	ND	ND	ND	1.1	249.9	27.8	52.9	370	0
25407	2012-12-21T14:00:00	16	ND	ND	ND	ND	ND	2.1	262.6	29.3	47	659.3	0
25408	2012-12-21T15:00:00	ND	ND	ND	ND	ND	ND	3.7	281.5	29.8	45.3	747.6	0
25409	2012-12-21T16:00:00	ND	ND	ND	ND	ND	ND	4.5	275	29	48.1	571	0
25410	2012-12-21T17:00:00	ND	ND	ND	ND	ND	ND	4.1	278.8	28.2	48.4	331.2	0
25411	2012-12-21T18:00:00	ND	ND	ND	ND	ND	ND	4.1	271.6	26.7	51.8	44.8	0
25412	2012-12-21T19:00:00	ND	ND	ND	ND	ND	ND	4	256	25.6	57.5	0	0
25413	2012-12-21T20:00:00	ND	ND	ND	ND	ND	ND	2.8	247.1	24.9	60.1	0	0
25414	2012-12-21T21:00:00	ND	ND	ND	ND	ND	ND	2.4	255	24.7	60.1	0	0
25415	2012-12-21T22:00:00	ND	ND	ND	ND	ND	ND	2.1	264.7	24.2	61.6	0	0
25416	2012-12-21T23:00:00	ND	ND	ND	ND	ND	ND	1.6	307.9	24	62.4	0	0
25417	2012-12-22T00:00:00	ND	ND	ND	ND	ND	ND	0.9	24	23.3	70.1	0	0
25418	2012-12-22T01:00:00	ND	ND	ND	ND	ND	ND	0.9	80.3	22.5	78	0	0
25419	2012-12-22T02:00:00	ND	ND	ND	ND	ND	ND	0.7	143.9	21.9	79.9	0	0
25420	2012-12-22T03:00:00	ND	ND	ND	ND	ND	ND	0.3	ND	22.2	77.3	0	0
25421	2012-12-22T04:00:00	ND	ND	ND	ND	ND	ND	0.4	196.8	22.3	76.9	0	0
25422	2012-12-22T05:00:00	ND	ND	ND	ND	ND	ND	0.6	128.3	22.2	78.3	0	0
25423	2012-12-22T06:00:00	ND	ND	ND	ND	ND	ND	0.5	107	21.8	82.9	0	0
25424	2012-12-22T07:00:00	ND	ND	ND	ND	ND	ND	0.6	51.4	21.9	81.2	10.5	0
25425	2012-12-22T08:00:00	ND	ND	ND	ND	ND	ND	0.4	43.7	22.4	79.3	83.8	0
25426	2012-12-22T09:00:00	ND	ND	ND	ND	ND	ND	1	96.1	23.8	73.4	394	0
25427	2012-12-22T10:00:00	ND	ND	ND	ND	ND	ND	1.6	135.3	25.4	65.9	633.1	0
25428	2012-12-22T11:00:00	ND	ND	ND	ND	ND	ND	1.2	139.3	26	61.4	557.9	0
25429	2012-12-22T12:00:00	ND	ND	ND	ND	ND	ND	0.9	180.1	27.4	55.4	591.4	0
25430	2012-12-22T13:00:00	ND	ND	ND	ND	ND	ND	0.9	133.2	28.2	53.3	491.8	0
25431	2012-12-22T14:00:00	ND	ND	ND	ND	ND	ND	1.2	104.4	28.8	50.6	508.3	0
25432	2012-12-22T15:00:00	ND	ND	ND	ND	ND	ND	1	33.4	29.3	48.6	305	0
25433	2012-12-22T16:00:00	ND	ND	ND	ND	ND	ND	2.9	288.9	28	50.5	107.2	0
25434	2012-12-22T17:00:00	ND	ND	ND	ND	ND	ND	2.7	273	27.3	52.6	91.5	0
25435	2012-12-22T18:00:00	ND	ND	ND	ND	ND	ND	3	272	26.6	54.5	27.4	0
25436	2012-12-22T19:00:00	ND	ND	ND	ND	ND	ND	4.2	269.2	25.7	57	0	0
25437	2012-12-22T20:00:00	ND	ND	ND	ND	ND	ND	3.9	276.6	25.4	59.1	0	0
25438	2012-12-22T21:00:00	ND	ND	ND	ND	ND	ND	1.2	291.1	25.2	60.4	0	0
25439	2012-12-22T22:00:00	ND	ND	ND	ND	ND	ND	0.2	155.2	24	67.4	0	0
25440	2012-12-22T23:00:00	ND	ND	ND	ND	ND	ND	3.2	256.9	24.6	62.7	0	0
25441	2012-12-23T00:00:00	ND	ND	ND	ND	ND	ND	1.8	228.4	24.2	66.7	0	0
25442	2012-12-23T01:00:00	ND	ND	ND	ND	ND	ND	1.4	169.5	23.1	74.6	0	0
25443	2012-12-23T02:00:00	ND	ND	ND	ND	ND	ND	1.2	191.4	22.8	75.6	0	0
25444	2012-12-23T03:00:00	ND	ND	ND	ND	ND	ND	1.1	188.8	22.7	76	0	0
25445	2012-12-23T04:00:00	ND	ND	ND	ND	ND	ND	0.9	104.3	22.4	78.3	0	0
25446	2012-12-23T05:00:00	ND	ND	ND	ND	ND	ND	0.6	140.8	22.3	78.4	0	0
25447	2012-12-23T06:00:00	ND	ND	ND	ND	ND	ND	0.9	145	22	79.3	0	0
25448	2012-12-23T07:00:00	ND	ND	ND	ND	ND	ND	0.7	154.1	21.8	81.9	13.3	0
25449	2012-12-23T08:00:00	ND	ND	ND	ND	ND	ND	0.9	145.5	22.3	79.8	91.3	0
25450	2012-12-23T09:00:00	ND	ND	ND	ND	ND	ND	0.9	120.8	23.2	73.4	181.5	0
25451	2012-12-23T10:00:00	ND	ND	ND	ND	ND	ND	0.7	196.3	24.9	65.3	533.4	0
25452	2012-12-23T11:00:00	ND	ND	ND	ND	ND	ND	1	151.8	26.2	60.9	435.6	0
25453	2012-12-23T12:00:00	ND	ND	ND	ND	ND	ND	1.3	146.7	26.8	59	438.3	0
25454	2012-12-23T13:00:00	ND	ND	ND	ND	ND	ND	1.2	138.8	27.4	57.1	415.2	0
25455	2012-12-23T14:00:00	ND	ND	ND	ND	ND	ND	1.4	130	27.3	58.4	221.8	0
25456	2012-12-23T15:00:00	ND	ND	ND	ND	ND	ND	1.1	86.4	27.3	58.1	259.9	0
25457	2012-12-23T16:00:00	ND	ND	ND	ND	ND	ND	0.8	54.3	28	55.3	222.2	0
25458	2012-12-23T17:00:00	ND	ND	ND	ND	ND	ND	0.9	78.6	27.7	55.9	72.1	0
25459	2012-12-23T18:00:00	ND	ND	ND	ND	ND	ND	1	46.8	27.1	57.3	3.6	0
25460	2012-12-23T19:00:00	ND	ND	ND	ND	ND	ND	0.5	128.8	26.6	59.5	0	0
25461	2012-12-23T20:00:00	ND	ND	ND	ND	ND	ND	1.1	207.6	26	62.5	0	0
25462	2012-12-23T21:00:00	ND	ND	ND	ND	ND	ND	1.5	213.2	25.5	63.1	0	0
25463	2012-12-23T22:00:00	ND	ND	ND	ND	ND	ND	0.8	297.7	25.1	66.9	0	0
25464	2012-12-23T23:00:00	ND	ND	ND	ND	ND	ND	0.4	297.8	24.7	68.3	0	0
25465	2012-12-24T00:00:00	ND	ND	ND	ND	ND	ND	1.1	158.3	24	72.2	0	0
25466	2012-12-24T01:00:00	ND	ND	ND	ND	ND	ND	0.9	204.7	23.2	76.7	0	0
25467	2012-12-24T02:00:00	ND	ND	ND	ND	ND	ND	0.7	209.1	23.4	76	0	0
25468	2012-12-24T03:00:00	ND	ND	ND	ND	ND	ND	0.4	86.4	23.2	76.8	0	0
25469	2012-12-24T04:00:00	ND	ND	ND	ND	ND	ND	0.6	60.3	22.9	78.5	0	0
25470	2012-12-24T05:00:00	ND	ND	ND	ND	ND	ND	0.4	60.9	22.3	81.7	0	0
25471	2012-12-24T06:00:00	ND	ND	ND	ND	ND	ND	0.7	141.9	22.3	81.8	0	0
25472	2012-12-24T07:00:00	ND	ND	ND	ND	ND	ND	0.2	ND	22.1	83.3	3.4	0
25473	2012-12-24T08:00:00	ND	ND	ND	ND	ND	ND	0.6	93.1	22.7	80.1	21.5	0
25474	2012-12-24T09:00:00	ND	ND	ND	ND	ND	ND	0.9	43.7	22.5	79.9	68.8	0
25475	2012-12-24T10:00:00	ND	ND	ND	ND	ND	ND	0	294.2	23.9	73.7	258.3	0
25476	2012-12-24T11:00:00	ND	ND	ND	ND	ND	ND	0.9	96.5	25.1	68.2	351.7	0
25477	2012-12-24T12:00:00	ND	ND	ND	ND	ND	ND	0.9	57.4	26	64.7	382.5	0
25478	2012-12-24T13:00:00	ND	ND	ND	ND	ND	ND	0.5	50	27.1	59.3	423.5	0
25479	2012-12-24T14:00:00	ND	ND	ND	ND	ND	ND	0.8	52.3	27.9	55.3	376.9	0
25480	2012-12-24T15:00:00	ND	ND	ND	ND	ND	ND	0.7	358.6	28.3	54.1	374	0
25481	2012-12-24T16:00:00	ND	ND	ND	ND	ND	ND	3	283.7	27.6	53	182.3	0
25482	2012-12-24T17:00:00	ND	ND	ND	ND	ND	ND	2	280.7	27.3	52.5	89.6	0
25483	2012-12-24T18:00:00	ND	ND	ND	ND	ND	ND	3	284.9	26.3	55.1	17.1	0
25484	2012-12-24T19:00:00	ND	ND	ND	ND	ND	ND	2.2	273.4	25.7	57.9	0	0
25485	2012-12-24T20:00:00	ND	ND	ND	ND	ND	ND	1.4	259.8	25.3	60	0	0
25486	2012-12-24T21:00:00	ND	ND	ND	ND	ND	ND	0.5	327.7	24.7	65	0	0
25487	2012-12-24T22:00:00	ND	ND	ND	ND	ND	ND	0.1	ND	23.7	71.5	0	0
25488	2012-12-24T23:00:00	ND	ND	ND	ND	ND	ND	0.9	177.4	23.3	73.1	0	0
25489	2012-12-25T00:00:00	ND	ND	ND	ND	ND	ND	1.1	191.3	22.8	75.4	0	0
25490	2012-12-25T01:00:00	ND	ND	ND	ND	ND	ND	1.4	226	22.7	72.7	0	0
25491	2012-12-25T02:00:00	ND	ND	ND	ND	ND	ND	0.6	184.2	22.4	75.7	0	0
25492	2012-12-25T03:00:00	ND	ND	ND	ND	ND	ND	0.4	140.4	21.9	79.1	0	0
25493	2012-12-25T04:00:00	ND	ND	ND	ND	ND	ND	0.8	162.1	21.9	79	0	0
25494	2012-12-25T05:00:00	ND	ND	ND	ND	ND	ND	1	112.5	21.5	81.6	0	0
25495	2012-12-25T06:00:00	ND	ND	ND	ND	ND	ND	0.4	ND	20.9	84.6	0	0
25496	2012-12-25T07:00:00	ND	ND	ND	ND	ND	ND	0.2	ND	21.4	81.8	15.1	0
25497	2012-12-25T08:00:00	ND	ND	ND	ND	ND	ND	0.3	ND	22.2	78.7	98.8	0
25498	2012-12-25T09:00:00	ND	ND	ND	ND	ND	ND	1	195	23.1	74.6	207.5	0
25499	2012-12-25T10:00:00	ND	ND	ND	ND	ND	ND	1.8	171.2	24.6	68.8	438.2	0
25500	2012-12-25T11:00:00	ND	ND	ND	ND	ND	ND	0.8	129.8	26.6	60.8	711.5	0
25501	2012-12-25T12:00:00	ND	ND	ND	ND	ND	ND	1.3	94.1	28.5	53.1	699.8	0
25502	2012-12-25T13:00:00	ND	ND	ND	ND	ND	ND	0.8	83	28.6	52	366.9	0
25503	2012-12-25T14:00:00	ND	ND	ND	ND	ND	ND	1.1	347.4	28.2	52.4	149	0
25504	2012-12-25T15:00:00	ND	ND	ND	ND	ND	ND	1.8	303.8	27.3	55.4	164.1	0
25505	2012-12-25T16:00:00	ND	ND	ND	ND	ND	ND	2.2	288.3	27.5	53.9	239.5	0
25506	2012-12-25T17:00:00	ND	ND	ND	ND	ND	ND	2.4	291.7	27.6	52.9	269.8	0
25507	2012-12-25T18:00:00	ND	ND	ND	ND	ND	ND	1.9	289.4	27.6	51.9	119.4	0
25508	2012-12-25T19:00:00	ND	ND	ND	ND	ND	ND	2.5	272.4	26.1	56.6	0	0
25509	2012-12-25T20:00:00	ND	ND	ND	ND	ND	ND	3.4	273.4	25.3	59.9	0	0
25510	2012-12-25T21:00:00	ND	ND	ND	ND	ND	ND	2.3	249.5	24.8	63.4	0	0
25511	2012-12-25T22:00:00	ND	ND	ND	ND	ND	ND	0.5	219.9	24.2	67.6	0	0
25512	2012-12-25T23:00:00	ND	ND	ND	ND	ND	ND	0.9	283.2	24.1	66.5	0	0
25513	2012-12-26T00:00:00	ND	ND	ND	ND	ND	ND	1.1	254.3	24	67.3	0	0
25514	2012-12-26T01:00:00	ND	ND	ND	ND	ND	ND	0.4	149.4	23.2	74.4	0	0
25515	2012-12-26T02:00:00	ND	ND	ND	ND	ND	ND	0.9	120.8	22.5	78.1	0	0
25516	2012-12-26T03:00:00	ND	ND	ND	ND	ND	ND	0.2	ND	22.2	79.4	0	0
25517	2012-12-26T04:00:00	ND	ND	ND	ND	ND	ND	0.5	119.4	22.3	78.9	0	0
25518	2012-12-26T05:00:00	ND	ND	ND	ND	ND	ND	0.6	214	22.4	79.1	0	0
25519	2012-12-26T06:00:00	ND	ND	ND	ND	ND	ND	0.7	61	22.3	79.7	0	0
25520	2012-12-26T07:00:00	ND	ND	ND	ND	ND	ND	0.6	37.4	21.7	83.5	12.4	0
25521	2012-12-26T08:00:00	ND	ND	ND	ND	ND	ND	0.3	105	22.6	78.9	117.3	0
25522	2012-12-26T09:00:00	ND	ND	ND	ND	ND	ND	0.7	61.1	24.2	71.5	384	0
25523	2012-12-26T10:00:00	ND	ND	ND	ND	ND	ND	0.7	134.6	26.2	62.4	526.7	0
25524	2012-12-26T11:00:00	ND	ND	ND	ND	ND	ND	1.2	194	26.2	62	261.7	0
25525	2012-12-26T12:00:00	ND	ND	ND	ND	ND	ND	0.6	78.7	27.4	56.8	463.3	0
25526	2012-12-26T13:00:00	ND	ND	ND	ND	ND	ND	0.8	94.3	29.6	48.8	751	0
25527	2012-12-26T14:00:00	ND	ND	ND	ND	ND	ND	0.6	125.1	29.9	46.7	473.1	0
25528	2012-12-26T15:00:00	ND	ND	ND	ND	ND	ND	1.4	312.8	30	46.7	338.1	0
25529	2012-12-26T16:00:00	ND	ND	ND	ND	ND	ND	3	291.7	29.6	47.6	361.3	0
25530	2012-12-26T17:00:00	ND	ND	ND	ND	ND	ND	2.9	281	27.5	57.2	78.4	0.25
25531	2012-12-26T18:00:00	ND	ND	ND	ND	ND	ND	2.6	277.8	26.3	59	17.8	0
25532	2012-12-26T19:00:00	ND	ND	ND	ND	ND	ND	3.5	265.5	26	58.8	0	0
25533	2012-12-26T20:00:00	ND	ND	ND	ND	ND	ND	2.3	276.9	26.2	56.3	0	0
25534	2012-12-26T21:00:00	ND	ND	ND	ND	ND	ND	1.6	259	25.8	59	0	0
25535	2012-12-26T22:00:00	ND	ND	ND	ND	ND	ND	2	216.3	25.2	63.2	0	0
25536	2012-12-26T23:00:00	ND	ND	ND	ND	ND	ND	1.4	226.6	24.7	66.4	0	0
25537	2012-12-27T00:00:00	ND	ND	ND	ND	ND	ND	2.1	260	24.6	63.4	0	0
25538	2012-12-27T01:00:00	ND	ND	ND	ND	ND	ND	1.3	192.8	23.2	74	0	0
25539	2012-12-27T02:00:00	ND	ND	ND	ND	ND	ND	1	189.5	23.2	73.5	0	0
25540	2012-12-27T03:00:00	ND	ND	ND	ND	ND	ND	0.2	138	23.1	74.8	0	0
25541	2012-12-27T04:00:00	ND	ND	ND	ND	ND	ND	0.4	68.9	22.4	79.5	0	0
25542	2012-12-27T05:00:00	ND	ND	ND	ND	ND	ND	0.6	132.4	22.6	78.2	0	0
25543	2012-12-27T06:00:00	ND	ND	ND	ND	ND	ND	0.5	149.8	22.4	77.1	0	0
25544	2012-12-27T07:00:00	ND	ND	ND	ND	ND	ND	0.4	81.4	22.4	77.9	14.3	0
25545	2012-12-27T08:00:00	ND	ND	ND	ND	ND	ND	0.6	83.1	22.9	76.2	72.7	0
25546	2012-12-27T09:00:00	ND	ND	ND	ND	ND	ND	0.3	161.1	24	71.6	223.3	0
25547	2012-12-27T10:00:00	ND	ND	ND	ND	ND	ND	1.3	178.5	25.3	66.2	311.1	0
25548	2012-12-27T11:00:00	ND	ND	ND	ND	ND	ND	1	156.5	26.3	62.1	492.6	0
25549	2012-12-27T12:00:00	ND	ND	ND	ND	ND	ND	1.1	86.8	28.4	54	765	0
25550	2012-12-27T13:00:00	ND	ND	ND	ND	ND	ND	0.9	74.9	29.4	50.4	537.4	0
25551	2012-12-27T14:00:00	ND	ND	ND	ND	ND	ND	1	50.2	30	48.1	488.2	0
25552	2012-12-27T15:00:00	ND	ND	ND	ND	ND	ND	1.5	302.5	29.5	48.3	320.7	0
25553	2012-12-27T16:00:00	ND	ND	ND	ND	ND	ND	0.4	265.7	30.1	47.2	266	0
25554	2012-12-27T17:00:00	ND	ND	ND	ND	ND	ND	0.6	148	29.4	50.5	77.3	0
25555	2012-12-27T18:00:00	ND	ND	ND	ND	ND	ND	2.1	269.6	28.5	51.7	12.8	0
25556	2012-12-27T19:00:00	ND	ND	ND	ND	ND	ND	3.5	258.8	26.8	56.2	0	0
25557	2012-12-27T20:00:00	ND	ND	ND	ND	ND	ND	3.3	260.6	26.1	58.7	0	0
25558	2012-12-27T21:00:00	ND	ND	ND	ND	ND	ND	2.4	265.5	25.9	58.6	0	0
25559	2012-12-27T22:00:00	ND	ND	ND	ND	ND	ND	0.3	307.3	25.3	63.7	0	0
25560	2012-12-27T23:00:00	ND	ND	ND	ND	ND	ND	0.4	85.4	25.3	63.7	0	0
25561	2012-12-28T00:00:00	ND	ND	ND	ND	ND	ND	0.3	45.8	24.3	68.8	0	0
25562	2012-12-28T01:00:00	ND	ND	ND	ND	ND	ND	1.3	197.8	24.1	70.7	0	0
25563	2012-12-28T02:00:00	ND	ND	ND	ND	ND	ND	1	172.1	23.4	75.4	0	0
25564	2012-12-28T03:00:00	ND	ND	ND	ND	ND	ND	1	171.7	22.9	76.8	0	0
25565	2012-12-28T04:00:00	ND	ND	ND	ND	ND	ND	1	155.6	22.5	78.7	0	0
25566	2012-12-28T05:00:00	ND	ND	ND	ND	ND	ND	0.3	173.7	22.5	79.5	0	0
25567	2012-12-28T06:00:00	ND	ND	ND	ND	ND	ND	0.3	63.6	22.8	76.9	0	0
25568	2012-12-28T07:00:00	ND	ND	ND	ND	ND	ND	0.1	ND	22.9	76.6	10.9	0
25569	2012-12-28T08:00:00	ND	ND	ND	ND	ND	ND	0.8	95	22.6	80.1	63.8	0
25570	2012-12-28T09:00:00	ND	ND	ND	ND	ND	ND	0.5	129.4	23.4	76.7	149.1	0
25571	2012-12-28T10:00:00	ND	ND	ND	ND	ND	ND	0.6	182.5	25.6	64.9	546.3	0
25572	2012-12-28T11:00:00	ND	ND	ND	ND	ND	ND	0.8	157.4	27.8	55.1	587.3	0
25573	2012-12-28T12:00:00	ND	ND	ND	ND	ND	ND	1	65.8	28.3	53.5	416.3	0
25574	2012-12-28T13:00:00	ND	ND	ND	ND	ND	ND	0.2	147.1	29.6	49	565.2	0
25575	2012-12-28T14:00:00	ND	ND	ND	ND	ND	ND	0.9	70.2	30.9	45.5	607.6	0
25576	2012-12-28T15:00:00	ND	ND	ND	ND	ND	ND	0.9	58.5	30.8	45.2	259.7	0
25577	2012-12-28T16:00:00	ND	ND	ND	ND	ND	ND	1.8	277.2	31	43.8	338	0
25578	2012-12-28T17:00:00	ND	ND	ND	ND	ND	ND	3.5	277.5	29.9	46.7	292	0
25579	2012-12-28T18:00:00	ND	ND	ND	ND	ND	ND	4	277.8	28.1	51.9	78.2	0
25580	2012-12-28T19:00:00	ND	ND	ND	ND	ND	ND	3.7	274.1	27	54.4	0	0
25581	2012-12-28T20:00:00	ND	ND	ND	ND	ND	ND	4.3	267.5	26.4	56	0	0
25582	2012-12-28T21:00:00	ND	ND	ND	ND	ND	ND	0.7	281.6	26.2	57.7	0	0
25583	2012-12-28T22:00:00	ND	ND	ND	ND	ND	ND	2.3	261.2	24.8	65.2	0	0
25584	2012-12-28T23:00:00	ND	ND	ND	ND	ND	ND	2.8	268.2	25	63.5	0	0
25585	2012-12-29T00:00:00	ND	ND	ND	ND	ND	ND	0.4	314.1	24.4	66.8	0	0
25586	2012-12-29T01:00:00	ND	ND	ND	ND	ND	ND	2.1	189.9	23.6	72.1	0	0
25587	2012-12-29T02:00:00	ND	ND	ND	ND	ND	ND	2	190.3	23.1	74.3	0	0
25588	2012-12-29T03:00:00	ND	ND	ND	ND	ND	ND	0.9	186.5	23.1	74.5	0	0
25589	2012-12-29T04:00:00	ND	ND	ND	ND	ND	ND	0.6	216.6	23	74.5	0	0
25590	2012-12-29T05:00:00	ND	ND	ND	ND	ND	ND	0.5	184.3	22.7	75.6	0	0
25591	2012-12-29T06:00:00	ND	ND	ND	ND	ND	ND	0.3	13.8	22.8	75	0	0
25592	2012-12-29T07:00:00	ND	ND	ND	ND	ND	ND	1	36.9	22.4	79.1	17	0
25593	2012-12-29T08:00:00	ND	ND	ND	ND	ND	ND	0.8	104.7	23	75.9	129.1	0
25594	2012-12-29T09:00:00	ND	ND	ND	ND	ND	ND	1	117	24.3	69	311.3	0
25595	2012-12-29T10:00:00	ND	ND	ND	ND	ND	ND	0.7	144.4	25.7	63.3	564.7	0
25596	2012-12-29T11:00:00	ND	ND	ND	ND	ND	ND	1	173.8	27.6	56.7	719.5	0
25597	2012-12-29T12:00:00	ND	ND	ND	ND	ND	ND	1.3	154.6	29	51.8	709.5	0
25598	2012-12-29T13:00:00	ND	ND	ND	ND	ND	ND	0.4	80.7	30.2	46.8	639.1	0
25599	2012-12-29T14:00:00	ND	ND	ND	ND	ND	ND	0.8	317.1	30.7	45	513.6	0
25600	2012-12-29T15:00:00	ND	ND	ND	ND	ND	ND	1	301.8	31.1	43.3	478.8	0
25601	2012-12-29T16:00:00	ND	ND	ND	ND	ND	ND	3.5	275.5	30.3	44.4	424.3	0
25602	2012-12-29T17:00:00	ND	ND	ND	ND	ND	ND	4	275	29.7	46.3	296.6	0
25603	2012-12-29T18:00:00	ND	ND	ND	ND	ND	ND	3.4	285	28	50.2	41.9	0
25604	2012-12-29T19:00:00	ND	ND	ND	ND	ND	ND	3.3	283	26.8	53.1	0	0
25605	2012-12-29T20:00:00	ND	ND	ND	ND	ND	ND	3.3	278.9	26.1	55.7	0	0
25606	2012-12-29T21:00:00	ND	ND	ND	ND	ND	ND	2.3	275	25.9	56.4	0	0
25607	2012-12-29T22:00:00	ND	ND	ND	ND	ND	ND	0.3	35.4	25.2	60.7	0	0
25608	2012-12-29T23:00:00	ND	ND	ND	ND	ND	ND	1.2	279.9	25	61	0	0
25609	2012-12-30T00:00:00	ND	ND	ND	ND	ND	ND	0.4	4.7	24.9	62.5	0	0
25610	2012-12-30T01:00:00	ND	ND	ND	ND	ND	ND	0.3	336.6	24	68.7	0	0
25611	2012-12-30T02:00:00	ND	ND	ND	ND	ND	ND	1	161.2	23.2	73.4	0	0
25612	2012-12-30T03:00:00	ND	ND	ND	ND	ND	ND	1	180.6	23	73.3	0	0
25613	2012-12-30T04:00:00	ND	ND	ND	ND	ND	ND	0.6	234.5	23	74.6	0	0
25614	2012-12-30T05:00:00	ND	ND	ND	ND	ND	ND	1	257.9	23	74.9	0	0
25615	2012-12-30T06:00:00	ND	ND	ND	ND	ND	ND	0.9	181.9	22.7	75.2	0	0
25616	2012-12-30T07:00:00	ND	ND	ND	ND	ND	ND	0.9	162.7	22.6	75	28.9	0
25617	2012-12-30T08:00:00	ND	ND	ND	ND	ND	ND	0.5	180	23.3	70.9	117.6	0
25618	2012-12-30T09:00:00	ND	ND	ND	ND	ND	ND	0.6	145.1	24.7	65.4	295.2	0
25619	2012-12-30T10:00:00	ND	ND	ND	ND	ND	ND	1.4	126	25.6	62.6	415.2	0
25620	2012-12-30T11:00:00	ND	ND	ND	ND	ND	ND	0.4	113.4	27.2	57	674.5	0
25621	2012-12-30T12:00:00	ND	ND	ND	ND	ND	ND	0.7	33.7	28.9	50.8	628	0
25622	2012-12-30T13:00:00	ND	ND	ND	ND	ND	ND	1.2	0.1	30.2	45.3	814.3	0
25623	2012-12-30T14:00:00	ND	ND	ND	ND	ND	ND	0.9	60.6	30.4	43	303.4	0
25624	2012-12-30T15:00:00	ND	ND	ND	ND	ND	ND	2.8	271	29.7	43.8	191.6	0
25625	2012-12-30T16:00:00	ND	ND	ND	ND	ND	ND	4.7	275.3	29.7	43.8	481.1	0
25626	2012-12-30T17:00:00	ND	ND	ND	ND	ND	ND	4.6	282.5	28.6	46.6	287.7	0
25627	2012-12-30T18:00:00	ND	ND	ND	ND	ND	ND	5.5	276.5	26.9	52.9	73.6	0
25628	2012-12-30T19:00:00	ND	ND	ND	ND	ND	ND	5.1	274.5	26.2	54.6	0	0
25629	2012-12-30T20:00:00	ND	ND	ND	ND	ND	ND	2.7	294.7	26.1	55.4	0	0
25630	2012-12-30T21:00:00	ND	ND	ND	ND	ND	ND	2.9	269.4	25.5	59	0	0
25631	2012-12-30T22:00:00	ND	ND	ND	ND	ND	ND	2	261.5	25	60.9	0	0
25632	2012-12-30T23:00:00	ND	ND	ND	ND	ND	ND	0.5	32.8	24	66.4	0	0
25633	2012-12-31T00:00:00	ND	ND	ND	ND	ND	ND	0.8	199	24	66.4	0	0
25634	2012-12-31T01:00:00	ND	ND	ND	ND	ND	ND	1.2	195.6	24	67.3	0	0
25635	2012-12-31T02:00:00	ND	ND	ND	ND	ND	ND	1.1	169.8	23.1	72.2	0	0
25636	2012-12-31T03:00:00	ND	ND	ND	ND	ND	ND	0.8	155.3	22.3	75.8	0	0
25637	2012-12-31T04:00:00	ND	ND	ND	ND	ND	ND	0.6	185.8	22.3	75	0	0
25638	2012-12-31T05:00:00	ND	ND	ND	ND	ND	ND	0.7	171.7	22.2	76.1	0	0
25639	2012-12-31T06:00:00	ND	ND	ND	ND	ND	ND	0.1	ND	22.1	76.5	0	0
25640	2012-12-31T07:00:00	ND	ND	ND	ND	ND	ND	0.1	129.8	21.8	78.1	17.4	0
25641	2012-12-31T08:00:00	ND	ND	ND	ND	ND	ND	0.9	153.2	22.7	74	142.5	0
25642	2012-12-31T09:00:00	ND	ND	ND	ND	ND	ND	1.6	144.5	23.7	69.1	349.9	0
25643	2012-12-31T10:00:00	ND	ND	ND	ND	ND	ND	1.2	119.5	25.5	61	616.7	0
25644	2012-12-31T11:00:00	ND	ND	ND	ND	ND	ND	1.1	137.2	27	56	728.9	0
25645	2012-12-31T12:00:00	ND	ND	ND	ND	ND	ND	1.2	120.6	28.6	49.5	721.6	0
25646	2012-12-31T13:00:00	ND	ND	ND	ND	ND	ND	0.7	43.9	29.5	47	530.9	0
25647	2012-12-31T14:00:00	ND	ND	ND	ND	ND	ND	0.7	48.2	29.9	45.8	502.5	0
25648	2012-12-31T15:00:00	ND	ND	ND	ND	ND	ND	0.7	70	30.9	42.3	583.6	0
25649	2012-12-31T16:00:00	ND	ND	ND	ND	ND	ND	1	295.3	30.6	43.3	224.8	0
25650	2012-12-31T17:00:00	ND	ND	ND	ND	ND	ND	4	272.2	29	47.7	207.6	0
25651	2012-12-31T18:00:00	ND	ND	ND	ND	ND	ND	5.1	271.3	27.2	51.8	39.1	0
25652	2012-12-31T19:00:00	ND	ND	ND	ND	ND	ND	4.9	268.2	26.3	55.4	0	0
25653	2012-12-31T20:00:00	ND	ND	ND	ND	ND	ND	4.3	266.7	25.9	57.4	0	0
25654	2012-12-31T21:00:00	ND	ND	ND	ND	ND	ND	1.8	296.8	25.7	58.4	0	0
25655	2012-12-31T22:00:00	ND	ND	ND	ND	ND	ND	0.2	320.5	25.1	61.8	0	0
25656	2012-12-31T23:00:00	ND	ND	ND	ND	ND	ND	2.1	209.8	24.6	64.9	0	0
25657	2013-01-01T00:00:00	ND	ND	ND	ND	ND	ND	1	231.7	24.5	64.7	0	0
25658	2013-01-01T01:00:00	ND	ND	ND	ND	ND	ND	1.5	188.3	24.2	66.5	0	0
25659	2013-01-01T02:00:00	ND	ND	ND	ND	ND	ND	1.6	177.6	23.2	72.2	0	0
25660	2013-01-01T03:00:00	ND	ND	ND	ND	ND	ND	0.5	133.2	22.7	74.3	0	0
25661	2013-01-01T04:00:00	ND	ND	ND	ND	ND	ND	0.8	140.5	22.7	73.5	0	0
25662	2013-01-01T05:00:00	ND	ND	ND	ND	ND	ND	0.8	200.7	22.6	74.3	0	0
25663	2013-01-01T06:00:00	ND	ND	ND	ND	ND	ND	0.5	194.7	22.8	73.2	0	0
25664	2013-01-01T07:00:00	ND	ND	ND	ND	ND	ND	0.4	98.9	22.5	75.3	14.1	0
25665	2013-01-01T08:00:00	ND	ND	ND	ND	ND	ND	0.5	136.6	23	72.5	105	0
25666	2013-01-01T09:00:00	ND	ND	ND	ND	ND	ND	1	135.5	23.7	68.6	324.5	0
25667	2013-01-01T10:00:00	ND	ND	ND	ND	ND	ND	0.8	119.4	26	59.1	599	0
25668	2013-01-01T11:00:00	ND	ND	ND	ND	ND	ND	0.7	100.5	27.7	52.9	753.3	0
25669	2013-01-01T12:00:00	ND	ND	ND	ND	ND	ND	0.8	35.5	28.6	49.6	567.2	0
25670	2013-01-01T13:00:00	ND	ND	ND	ND	ND	ND	1	84.1	29.8	45.8	747.4	0
25671	2013-01-01T14:00:00	ND	ND	ND	ND	ND	ND	1.2	358.2	30.3	44.4	390.3	0
25672	2013-01-01T15:00:00	ND	ND	ND	ND	ND	ND	2.2	279.9	30.9	41.4	764.9	0
25673	2013-01-01T16:00:00	ND	ND	ND	ND	ND	ND	4	280.8	29.5	44.9	281.1	0
25674	2013-01-01T17:00:00	ND	ND	ND	ND	ND	ND	3.8	274.4	29	46.2	265.7	0
25675	2013-01-01T18:00:00	ND	ND	ND	ND	ND	ND	3.6	274.6	27.5	49.6	58.3	0
25676	2013-01-01T19:00:00	ND	ND	ND	ND	ND	ND	3.9	272.4	26.4	52.3	0	0
25677	2013-01-01T20:00:00	ND	ND	ND	ND	ND	ND	3.9	270.8	26.1	53.6	0	0
25678	2013-01-01T21:00:00	ND	ND	ND	ND	ND	ND	3.5	275.2	25.6	55.5	0	0
25679	2013-01-01T22:00:00	ND	ND	ND	ND	ND	ND	2.6	273.3	25.1	57.7	0	0
25680	2013-01-01T23:00:00	ND	ND	ND	ND	ND	ND	1.1	267.6	24.4	61.3	0	0
25681	2013-01-02T00:00:00	ND	ND	ND	ND	ND	ND	0.3	41.6	23.1	68.3	0	0
25682	2013-01-02T01:00:00	ND	ND	ND	ND	ND	ND	0.8	156.7	23	69.5	0	0
25683	2013-01-02T02:00:00	ND	ND	ND	ND	ND	ND	1	144.5	22.3	73.7	0	0
25684	2013-01-02T03:00:00	ND	ND	ND	ND	ND	ND	0.3	151.9	22	74.9	0	0
25685	2013-01-02T04:00:00	ND	ND	ND	ND	ND	ND	0.7	176	22	74.7	0	0
25686	2013-01-02T05:00:00	ND	ND	ND	ND	ND	ND	0.6	158.7	21.7	76	0	0
25687	2013-01-02T06:00:00	ND	ND	ND	ND	ND	ND	1	179.2	21.5	76	0	0
25688	2013-01-02T07:00:00	ND	ND	ND	ND	ND	ND	0.3	203.9	21.9	73.9	19.7	0
25689	2013-01-02T08:00:00	ND	ND	ND	ND	ND	ND	0.7	199.6	23.1	68.5	179.2	0
25690	2013-01-02T09:00:00	ND	ND	ND	ND	ND	ND	1.1	145.4	24.6	63.8	386	0
25691	2013-01-02T10:00:00	ND	ND	ND	ND	ND	ND	1.1	159.8	25.8	59.9	567.6	0
25692	2013-01-02T11:00:00	ND	ND	ND	ND	ND	ND	1.3	128.8	27.3	54.7	720.2	0
25693	2013-01-02T12:00:00	ND	ND	ND	ND	ND	ND	1.3	147.4	29.1	48.8	631.7	0
25694	2013-01-02T13:00:00	ND	ND	ND	ND	ND	ND	0.9	96.7	29.6	46.8	655.8	0
25695	2013-01-02T14:00:00	ND	ND	ND	ND	ND	ND	0.8	2.3	30.1	44.5	415.1	0
25696	2013-01-02T15:00:00	ND	ND	ND	ND	ND	ND	2.9	290.7	30.8	40.1	732.2	0
25697	2013-01-02T16:00:00	ND	ND	ND	ND	ND	ND	3.4	274.8	30.9	40.4	475.5	0
25698	2013-01-02T17:00:00	ND	ND	ND	ND	ND	ND	3.6	274.7	29.7	44.7	296.9	0
25699	2013-01-02T18:00:00	ND	ND	ND	ND	ND	ND	3.4	281.5	28.1	49.1	49.8	0
25700	2013-01-02T19:00:00	ND	ND	ND	ND	ND	ND	3.4	279.1	26.9	52.8	0	0
25701	2013-01-02T20:00:00	ND	ND	ND	ND	ND	ND	3.6	267.3	26.4	53.9	0	0
25702	2013-01-02T21:00:00	ND	ND	ND	ND	ND	ND	2.7	275.8	25.8	56.8	0	0
25703	2013-01-02T22:00:00	ND	ND	ND	ND	ND	ND	2.2	264.6	25.2	59.8	0	0
25704	2013-01-02T23:00:00	ND	ND	ND	ND	ND	ND	2.3	273.8	25	60.2	0	0
25705	2013-01-03T00:00:00	ND	ND	ND	ND	ND	ND	0.8	41.9	23.6	68.1	0	0
25706	2013-01-03T01:00:00	ND	ND	ND	ND	ND	ND	0.3	186.4	23.5	68.4	0	0
25707	2013-01-03T02:00:00	ND	ND	ND	ND	ND	ND	1	187.9	23.7	67	0	0
25708	2013-01-03T03:00:00	ND	ND	ND	ND	ND	ND	0.7	139	22.9	72	0	0
25709	2013-01-03T04:00:00	ND	ND	ND	ND	ND	ND	0.8	163.1	22.4	74.7	0	0
25710	2013-01-03T05:00:00	ND	ND	ND	ND	ND	ND	0.3	ND	22	77.6	0	0
25711	2013-01-03T06:00:00	ND	ND	ND	ND	ND	ND	0.7	131.3	22.1	77	0	0
25712	2013-01-03T07:00:00	ND	ND	ND	ND	ND	ND	0.5	171.6	22.1	77.2	20.2	0
25713	2013-01-03T08:00:00	ND	ND	ND	ND	ND	ND	0.6	227	23.2	71	161	0
25714	2013-01-03T09:00:00	ND	ND	ND	ND	ND	ND	1.2	199.3	24.9	63.7	377.9	0
25715	2013-01-03T10:00:00	ND	ND	ND	ND	ND	ND	1.1	176.6	26.5	57.8	537.5	0
25716	2013-01-03T11:00:00	ND	ND	ND	ND	ND	ND	1.3	155	27.8	54.3	731	0
25717	2013-01-03T12:00:00	ND	ND	ND	ND	ND	ND	0.8	165.1	29	50.3	695.6	0
25718	2013-01-03T13:00:00	ND	ND	ND	ND	ND	ND	1.5	98.5	30.1	47.4	674.9	0
25719	2013-01-03T14:00:00	ND	ND	ND	ND	ND	ND	0.9	57.2	31.1	44.7	551.5	0
25720	2013-01-03T15:00:00	ND	ND	ND	ND	ND	ND	3.6	284.2	28.9	48.5	233.2	0
25721	2013-01-03T16:00:00	ND	ND	ND	ND	ND	ND	3.5	276.6	28.5	49.4	124.3	0
25722	2013-01-03T17:00:00	ND	ND	ND	ND	ND	ND	4.8	273.5	26.9	54.4	31.3	0
25723	2013-01-03T18:00:00	ND	ND	ND	ND	ND	ND	4.7	267.8	26.4	55.9	15.2	0
25724	2013-01-03T19:00:00	ND	ND	ND	ND	ND	ND	3.5	277.2	26.5	54.7	0	0
25725	2013-01-03T20:00:00	ND	ND	ND	ND	ND	ND	0.6	287.4	26	57.5	0	0
25726	2013-01-03T21:00:00	ND	ND	ND	ND	ND	ND	0.7	110.4	25	63.9	0	0
25727	2013-01-03T22:00:00	ND	ND	ND	ND	ND	ND	1.3	212.5	24.7	63.9	0	0
25728	2013-01-03T23:00:00	ND	ND	ND	ND	ND	ND	1.3	190.5	24.1	66.6	0	0
25729	2013-01-04T00:00:00	ND	ND	ND	ND	ND	ND	1.3	226	23.6	70.1	0	0
25730	2013-01-04T01:00:00	ND	ND	ND	ND	ND	ND	1.4	194	23.8	68	0	0
25731	2013-01-04T02:00:00	ND	ND	ND	ND	ND	ND	0.2	73.7	23.3	70.9	0	0
25732	2013-01-04T03:00:00	ND	ND	ND	ND	ND	ND	0.4	137.3	22.1	75.8	0	0
25733	2013-01-04T04:00:00	ND	ND	ND	ND	ND	ND	0.6	141.5	22.2	75.4	0	0
25734	2013-01-04T05:00:00	ND	ND	ND	ND	ND	ND	0.5	114.2	22.1	76.5	0	0
25735	2013-01-04T06:00:00	ND	ND	ND	ND	ND	ND	0.4	192.6	22.1	77.8	0	0
25736	2013-01-04T07:00:00	ND	ND	ND	ND	ND	ND	0.6	232.5	22.4	73.6	19.5	0
25737	2013-01-04T08:00:00	ND	ND	ND	ND	ND	ND	0.5	119.7	22.9	74.5	81.1	0
25738	2013-01-04T09:00:00	ND	ND	ND	ND	ND	ND	0.4	90.5	23.9	70.4	218.7	0
25739	2013-01-04T10:00:00	ND	ND	ND	ND	ND	ND	0.8	138.8	25.6	63.2	354.3	0
25740	2013-01-04T11:00:00	ND	ND	ND	ND	ND	ND	1.2	124.4	26.5	59.1	439.2	0
25741	2013-01-04T12:00:00	ND	ND	ND	ND	ND	ND	1	162.3	28.6	52	674.5	0
25742	2013-01-04T13:00:00	ND	ND	ND	ND	ND	ND	0.7	110.8	29.5	47.8	809	0
25743	2013-01-04T14:00:00	ND	ND	ND	ND	ND	ND	0.8	126.4	30.9	43.7	639.1	0
25744	2013-01-04T15:00:00	ND	ND	ND	ND	ND	ND	0.7	36.4	31.5	42	478.6	0
25745	2013-01-04T16:00:00	ND	ND	ND	ND	ND	ND	1.7	298.9	31	43.4	209.6	0
25746	2013-01-04T17:00:00	ND	ND	ND	ND	ND	ND	4.1	276.2	29.9	46.2	286.8	0
25747	2013-01-04T18:00:00	ND	ND	ND	ND	ND	ND	4.1	270.4	28.1	51.7	57.6	0
25748	2013-01-04T19:00:00	ND	ND	ND	ND	ND	ND	3.9	268.1	27.2	54.1	0	0
25749	2013-01-04T20:00:00	ND	ND	ND	ND	ND	ND	3.5	262	26.4	57.4	0	0
25750	2013-01-04T21:00:00	ND	ND	ND	ND	ND	ND	2.1	256.9	26.4	57.4	0	0
25751	2013-01-04T22:00:00	ND	ND	ND	ND	ND	ND	2	247.2	25.8	59.2	0	0
25752	2013-01-04T23:00:00	ND	ND	ND	ND	ND	ND	0.9	175.9	25.1	61.4	0	0
25753	2013-01-05T00:00:00	ND	ND	ND	ND	ND	ND	0.7	162.6	24.5	64	0	0
25754	2013-01-05T01:00:00	ND	ND	ND	ND	ND	ND	1.4	171	23.4	69.5	0	0
25755	2013-01-05T02:00:00	ND	ND	ND	ND	ND	ND	0.6	161.6	22.9	71.5	0	0
25756	2013-01-05T03:00:00	ND	ND	ND	ND	ND	ND	0.6	95	22.5	74.5	0	0
25757	2013-01-05T04:00:00	ND	ND	ND	ND	ND	ND	0.1	198.9	22.1	77	0	0
25758	2013-01-05T05:00:00	ND	ND	ND	ND	ND	ND	0.8	165	21.9	77.1	0	0
25759	2013-01-05T06:00:00	ND	ND	ND	ND	ND	ND	0.5	148.9	21.4	78.8	0	0
25760	2013-01-05T07:00:00	ND	ND	ND	ND	ND	ND	0.3	222.1	21.8	77.3	11.6	0
25761	2013-01-05T08:00:00	ND	ND	ND	ND	ND	ND	0.3	231.7	22.8	72.2	155	0
25762	2013-01-05T09:00:00	ND	ND	ND	ND	ND	ND	1.1	164.5	24.1	67.3	284.9	0
25763	2013-01-05T10:00:00	ND	ND	ND	ND	ND	ND	0.6	138.4	26	60.2	568.4	0
25764	2013-01-05T11:00:00	ND	ND	ND	ND	ND	ND	1.5	105.2	27.3	56.5	699.6	0
25765	2013-01-05T12:00:00	ND	ND	ND	ND	ND	ND	1	136.4	29.1	50.8	679.2	0
25766	2013-01-05T13:00:00	ND	ND	ND	ND	ND	ND	0.5	122.9	30.2	46.5	668.6	0
25767	2013-01-05T14:00:00	ND	ND	ND	ND	ND	ND	1.3	53.3	31	45.1	750.4	0
25768	2013-01-05T15:00:00	ND	ND	ND	ND	ND	ND	0.9	311.8	30.6	45.3	227.5	0
25769	2013-01-05T16:00:00	ND	ND	ND	ND	ND	ND	2.5	272.8	31.3	43.2	542.3	0
25770	2013-01-05T17:00:00	ND	ND	ND	ND	ND	ND	3.1	276.4	30.6	44.6	251.9	0
25771	2013-01-05T18:00:00	ND	ND	ND	ND	ND	ND	3.8	272.2	28.9	48.9	68.3	0
25772	2013-01-05T19:00:00	ND	ND	ND	ND	ND	ND	4.1	262.1	27.5	54.1	0	0
25773	2013-01-05T20:00:00	ND	ND	ND	ND	ND	ND	3.3	263	26.9	56.4	0	0
25774	2013-01-05T21:00:00	ND	ND	ND	ND	ND	ND	1.9	276	26.4	58.1	0	0
25775	2013-01-05T22:00:00	ND	ND	ND	ND	ND	ND	0.2	196	25.6	61.7	0	0
25776	2013-01-05T23:00:00	ND	ND	ND	ND	ND	ND	2.4	247.1	25.4	61.2	0	0
25777	2013-01-06T00:00:00	ND	ND	ND	ND	ND	ND	1.7	237.4	25.3	61.5	0	0
25778	2013-01-06T01:00:00	ND	ND	ND	ND	ND	ND	1.7	254.1	25.2	62.2	0	0
25779	2013-01-06T02:00:00	ND	ND	ND	ND	ND	ND	0.4	325.7	23.9	70.1	0	0
25780	2013-01-06T03:00:00	ND	ND	ND	ND	ND	ND	0.4	161.9	23.1	74.2	0	0
25781	2013-01-06T04:00:00	ND	ND	ND	ND	ND	ND	0.7	153.3	22.9	74.8	0	0
25782	2013-01-06T05:00:00	ND	ND	ND	ND	ND	ND	0.8	180.3	22.9	74.4	0	0
25783	2013-01-06T06:00:00	ND	ND	ND	ND	ND	ND	1	147.7	22.8	74.9	0	0
25784	2013-01-06T07:00:00	ND	ND	ND	ND	ND	ND	0.6	176.6	22.5	76.8	6.8	0
25785	2013-01-06T08:00:00	ND	ND	ND	ND	ND	ND	0.6	171.8	23.3	73.5	57.6	0
25786	2013-01-06T09:00:00	ND	ND	ND	ND	ND	ND	0.4	203.2	24.9	64.7	265	0
25787	2013-01-06T10:00:00	ND	ND	ND	ND	ND	ND	0.8	113	26.4	58.5	514	0
25788	2013-01-06T11:00:00	ND	ND	ND	ND	ND	ND	1.3	115	28.1	52.6	730.8	0
25789	2013-01-06T12:00:00	ND	ND	ND	ND	ND	ND	1.5	117.3	28.9	50.6	635.7	0
25790	2013-01-06T13:00:00	ND	ND	ND	ND	ND	ND	0.4	10.4	30	47	469.3	0
25791	2013-01-06T14:00:00	ND	ND	ND	ND	ND	ND	1.1	326	30	45.9	462.6	0
25792	2013-01-06T15:00:00	ND	ND	ND	ND	ND	ND	1.5	306.7	30.9	42.4	622.2	0
25793	2013-01-06T16:00:00	ND	ND	ND	ND	ND	ND	3.7	280.2	30	43.5	260.9	0
25794	2013-01-06T17:00:00	ND	ND	ND	ND	ND	ND	4.2	281.5	29	46.8	154.7	0
25795	2013-01-06T18:00:00	ND	ND	ND	ND	ND	ND	3.2	279.3	27.8	50.6	37.3	0
25796	2013-01-06T19:00:00	ND	ND	ND	ND	ND	ND	3.4	271	27.2	52.9	0	0
25797	2013-01-06T20:00:00	ND	ND	ND	ND	ND	ND	3.9	273	26.8	53.9	0	0
25798	2013-01-06T21:00:00	ND	ND	ND	ND	ND	ND	2.8	282.9	26.7	53.8	0	0
25799	2013-01-06T22:00:00	ND	ND	ND	ND	ND	ND	0.9	276.6	26.2	57	0	0
25800	2013-01-06T23:00:00	ND	ND	ND	ND	ND	ND	1.9	222.7	25.6	59.9	0	0
25801	2013-01-07T00:00:00	ND	ND	ND	ND	ND	ND	0.4	306.9	25	62.9	0	0
25802	2013-01-07T01:00:00	ND	ND	ND	ND	ND	ND	0.9	37.7	23.2	71.3	0	0
25803	2013-01-07T02:00:00	ND	ND	ND	ND	ND	ND	0.6	101.7	23	72.5	0	0
25804	2013-01-07T03:00:00	ND	ND	ND	ND	ND	ND	0.5	118.7	22.3	76.4	0	0
25805	2013-01-07T04:00:00	ND	ND	ND	ND	ND	ND	0.4	60	22.2	76.2	0	0
25806	2013-01-07T05:00:00	ND	ND	ND	ND	ND	ND	0.2	27.8	22.3	75.9	0	0
25807	2013-01-07T06:00:00	ND	ND	ND	ND	ND	ND	0.3	39.6	22.4	75.6	0	0
25808	2013-01-07T07:00:00	ND	ND	ND	ND	ND	ND	0.5	80.6	22.1	77.1	18.6	0
25809	2013-01-07T08:00:00	ND	ND	ND	ND	ND	ND	0.5	91.1	22.6	75.3	162.2	0
25810	2013-01-07T09:00:00	ND	ND	ND	ND	ND	ND	0.5	96.2	24.2	67.9	330.1	0
25811	2013-01-07T10:00:00	ND	ND	ND	ND	ND	ND	0.3	186.7	25.5	62.1	379.5	0
25812	2013-01-07T11:00:00	ND	ND	ND	ND	ND	ND	0.5	64.5	27	56.9	503.9	0
25813	2013-01-07T12:00:00	ND	ND	ND	ND	ND	ND	0.3	34.7	27.9	53.1	543	0
25814	2013-01-07T13:00:00	ND	ND	ND	ND	ND	ND	1.1	78.6	29	50	698.2	0
25815	2013-01-07T14:00:00	ND	ND	ND	ND	ND	ND	1.1	90.3	30.2	47.1	719.7	0
25816	2013-01-07T15:00:00	ND	ND	ND	ND	ND	ND	1	32.2	31.1	44.2	598.9	0
25817	2013-01-07T16:00:00	ND	ND	ND	ND	ND	ND	1.1	322.8	31.2	43.7	465.1	0
25818	2013-01-07T17:00:00	ND	ND	ND	ND	ND	ND	3.5	280.2	30.5	45	318.8	0
25819	2013-01-07T18:00:00	ND	ND	ND	ND	ND	ND	3.4	285.3	28	51.8	26.2	0
25820	2013-01-07T19:00:00	ND	ND	ND	ND	ND	ND	3	275.3	27.3	52.8	0	0
25821	2013-01-07T20:00:00	ND	ND	ND	ND	ND	ND	2.7	272.9	26.9	52.9	0	0
25822	2013-01-07T21:00:00	ND	ND	ND	ND	ND	ND	0.8	298	26.5	55.4	0	0
25823	2013-01-07T22:00:00	ND	ND	ND	ND	ND	ND	1.1	98.7	25.1	63	0	0
25824	2013-01-07T23:00:00	ND	ND	ND	ND	ND	ND	1.4	235.4	25.1	62.8	0	0
25825	2013-01-08T00:00:00	ND	ND	ND	ND	ND	ND	0.5	247.8	24.3	66.8	0	0
25826	2013-01-08T01:00:00	ND	ND	ND	ND	ND	ND	0.7	20	22.8	73.4	0	0
25827	2013-01-08T02:00:00	ND	ND	ND	ND	ND	ND	0.8	51.9	22.3	75.5	0	0
25828	2013-01-08T03:00:00	ND	ND	ND	ND	ND	ND	0.2	69.1	22.2	75.9	0	0
25829	2013-01-08T04:00:00	ND	ND	ND	ND	ND	ND	0.7	174.5	22	77.1	0	0
25830	2013-01-08T05:00:00	ND	ND	ND	ND	ND	ND	0.6	69.3	21.5	78	0	0
25831	2013-01-08T06:00:00	ND	ND	ND	ND	ND	ND	0.6	46.4	20.8	80.4	0	0
25832	2013-01-08T07:00:00	ND	ND	ND	ND	ND	ND	0.2	ND	21	79.7	18.7	0
25833	2013-01-08T08:00:00	ND	ND	ND	ND	ND	ND	0.2	ND	22.6	67.2	165.6	0
25834	2013-01-08T09:00:00	ND	ND	ND	ND	ND	ND	0.7	147.9	24.4	65	370.3	0
25835	2013-01-08T10:00:00	ND	ND	ND	ND	ND	ND	1	146.2	25.8	60.8	573.1	0
25836	2013-01-08T11:00:00	ND	ND	ND	ND	ND	ND	1	134.9	27.7	55.3	740.8	0
25837	2013-01-08T12:00:00	ND	ND	ND	ND	ND	ND	0.8	145.2	29.1	49.6	665.9	0
25838	2013-01-08T13:00:00	ND	ND	ND	ND	ND	ND	1.4	128.8	30.9	42.6	866.4	0
25839	2013-01-08T14:00:00	ND	ND	ND	ND	ND	ND	1.6	109.6	32.1	36.7	824.5	0
25840	2013-01-08T15:00:00	ND	ND	ND	ND	ND	ND	0.8	79.3	33.6	28.3	718.3	0
25841	2013-01-08T16:00:00	ND	ND	ND	ND	ND	ND	0.7	281.5	33.7	30.4	537.1	0
25842	2013-01-08T17:00:00	ND	ND	ND	ND	ND	ND	4.6	281.4	31	43.1	312.6	0
25843	2013-01-08T18:00:00	ND	ND	ND	ND	ND	ND	4.1	284.3	29	48.1	83.4	0
25844	2013-01-08T19:00:00	ND	ND	ND	ND	ND	ND	3.9	285	27.8	51.1	0	0
25845	2013-01-08T20:00:00	ND	ND	ND	ND	ND	ND	3.2	287.2	27.3	52.8	0	0
25846	2013-01-08T21:00:00	ND	ND	ND	ND	ND	ND	3.2	267.9	26.9	55.1	0	0
25847	2013-01-08T22:00:00	ND	ND	ND	ND	ND	ND	3.4	272.1	26.4	56.8	0	0
25848	2013-01-08T23:00:00	ND	ND	ND	ND	ND	ND	0.7	354.6	24.9	63.6	0	0
25849	2013-01-09T00:00:00	ND	ND	ND	ND	ND	ND	0.3	4.2	24.2	67.2	0	0
25850	2013-01-09T01:00:00	ND	ND	ND	ND	ND	ND	0.5	37.9	23.4	70.9	0	0
25851	2013-01-09T02:00:00	ND	ND	ND	ND	ND	ND	0.9	119	22.9	73.7	0	0
25852	2013-01-09T03:00:00	ND	ND	ND	ND	ND	ND	0.6	159.9	22.1	75.9	0	0
25853	2013-01-09T04:00:00	ND	ND	ND	ND	ND	ND	0.7	143.6	21.7	77.1	0	0
25854	2013-01-09T05:00:00	ND	ND	ND	ND	ND	ND	1	179.8	21.6	75.4	0	0
25855	2013-01-09T06:00:00	ND	ND	ND	ND	ND	ND	0.8	173.6	21.5	72.6	0	0
25856	2013-01-09T07:00:00	ND	ND	ND	ND	ND	ND	0.4	135.2	21.4	74.7	14.9	0
25857	2013-01-09T08:00:00	ND	ND	ND	ND	ND	ND	0.4	147.4	22.7	69.5	167.5	0
25858	2013-01-09T09:00:00	ND	ND	ND	ND	ND	ND	0.8	148.1	24.6	61.7	376.7	0
25859	2013-01-09T10:00:00	ND	ND	ND	ND	ND	ND	1.4	100.4	26.3	56.2	563.9	0
25860	2013-01-09T11:00:00	ND	ND	ND	ND	ND	ND	1.3	117.2	27.5	54	678.6	0
25861	2013-01-09T12:00:00	ND	ND	ND	ND	ND	ND	1.2	134.5	29	49	660.9	0
25862	2013-01-09T13:00:00	ND	ND	ND	ND	ND	ND	1.5	95.8	30.6	44.3	887.2	0
25863	2013-01-09T14:00:00	ND	ND	ND	ND	ND	ND	1.4	22.3	31.2	41.8	506.1	0
25864	2013-01-09T15:00:00	ND	ND	ND	ND	ND	ND	0.3	310.2	31.1	40.7	333.2	0
25865	2013-01-09T16:00:00	ND	ND	ND	ND	ND	ND	3.3	276.6	31.7	39.8	540.8	0
25866	2013-01-09T17:00:00	ND	ND	ND	ND	ND	ND	4.2	280.7	30.2	42.8	262.2	0
25867	2013-01-09T18:00:00	ND	ND	ND	ND	ND	ND	3.7	284.6	28.6	47	38.1	0
25868	2013-01-09T19:00:00	ND	ND	ND	ND	ND	ND	4.2	272.1	27.6	49.9	0	0
25869	2013-01-09T20:00:00	ND	ND	ND	ND	ND	ND	4.2	273.7	27.2	52.5	0	0
25870	2013-01-09T21:00:00	ND	ND	ND	ND	ND	ND	2.8	287.2	27.2	52.5	0	0
25871	2013-01-09T22:00:00	ND	ND	ND	ND	ND	ND	2.7	271.3	26.8	54.8	0	0
25872	2013-01-09T23:00:00	ND	ND	ND	ND	ND	ND	2.3	251.7	26.3	56.8	0	0
25873	2013-01-10T00:00:00	ND	ND	ND	ND	ND	ND	1.5	207.9	25.8	59.6	0	0
25874	2013-01-10T01:00:00	ND	ND	ND	ND	ND	ND	0.8	226.2	25.4	61.6	0	0
25875	2013-01-10T02:00:00	ND	ND	ND	ND	ND	ND	0.6	38.5	24.9	64.9	0	0
25876	2013-01-10T03:00:00	ND	ND	ND	ND	ND	ND	0.8	144.8	24.4	66.9	0	0
25877	2013-01-10T04:00:00	ND	ND	ND	ND	ND	ND	0.9	120.3	23.8	69.2	0	0
25878	2013-01-10T05:00:00	ND	ND	ND	ND	ND	ND	1.1	163.1	23.4	70.8	0	0
25879	2013-01-10T06:00:00	ND	ND	ND	ND	ND	ND	0.5	158.6	23.5	70.5	0	0
25880	2013-01-10T07:00:00	ND	ND	ND	ND	ND	ND	0.8	145.9	23.6	70.4	4.2	0
25881	2013-01-10T08:00:00	ND	ND	ND	ND	ND	ND	0.6	135.8	23.7	70.7	66.7	0
25882	2013-01-10T09:00:00	ND	ND	ND	ND	ND	ND	0.7	106.8	24.9	66.3	244.5	0
25883	2013-01-10T10:00:00	ND	ND	ND	ND	ND	ND	1.1	127.3	26.4	60.4	374.2	0
25884	2013-01-10T11:00:00	ND	ND	ND	ND	ND	ND	1.5	95.3	27.8	54.9	606.5	0
25885	2013-01-10T12:00:00	ND	ND	ND	ND	ND	ND	1.2	94.3	29.6	49.3	696.3	0
25886	2013-01-10T13:00:00	ND	ND	ND	ND	ND	ND	1.5	72.1	30.3	47.4	629.2	0
25887	2013-01-10T14:00:00	ND	ND	ND	ND	ND	ND	0.6	77.1	30.7	46.8	467	0
25888	2013-01-10T15:00:00	ND	ND	ND	ND	ND	ND	1	49	31.1	46.2	342.2	0
25889	2013-01-10T16:00:00	ND	ND	ND	ND	ND	ND	0.9	290.7	30.3	48.2	139.2	0
25890	2013-01-10T17:00:00	ND	ND	ND	ND	ND	ND	3.4	270.8	29.7	49.4	136.6	0
25891	2013-01-10T18:00:00	ND	ND	ND	ND	ND	ND	3.6	272.6	28.7	51.5	43	0
25892	2013-01-10T19:00:00	ND	ND	ND	ND	ND	ND	3.7	263.6	27.8	54.9	0	0
25893	2013-01-10T20:00:00	ND	ND	ND	ND	ND	ND	3.9	266.6	27.1	57.8	0	0
25894	2013-01-10T21:00:00	ND	ND	ND	ND	ND	ND	2.9	272.6	26.7	58.9	0	0
25895	2013-01-10T22:00:00	ND	ND	ND	ND	ND	ND	0.9	303.5	26.6	59.5	0	0
25896	2013-01-10T23:00:00	ND	ND	ND	ND	ND	ND	0.4	206.2	26.7	59.7	0	0
25897	2013-01-11T00:00:00	ND	ND	ND	ND	ND	ND	0.8	282.2	26.4	59.1	0	0
25898	2013-01-11T01:00:00	ND	ND	ND	ND	ND	ND	0.7	148.2	25.2	67.2	0	0
25899	2013-01-11T02:00:00	ND	ND	ND	ND	ND	ND	1	167.4	24.6	70.4	0	0
25900	2013-01-11T03:00:00	ND	ND	ND	ND	ND	ND	1	157.7	24	72.1	0	0
25901	2013-01-11T04:00:00	ND	ND	ND	ND	ND	ND	0.8	171.5	23.9	72.4	0	0
25902	2013-01-11T05:00:00	ND	ND	ND	ND	ND	ND	0.9	172.7	23.9	72.6	0	0
25903	2013-01-11T06:00:00	ND	ND	ND	ND	ND	ND	0.8	139.2	23.7	74.2	0	0
25904	2013-01-11T07:00:00	ND	ND	ND	ND	ND	ND	0.9	146.9	23.2	77.2	8.6	0
25905	2013-01-11T08:00:00	ND	ND	ND	ND	ND	ND	0.5	168.2	23.7	73.4	91	0
25906	2013-01-11T09:00:00	ND	ND	ND	ND	ND	ND	1.3	164.9	25.1	67.4	309.3	0
25907	2013-01-11T10:00:00	ND	ND	ND	ND	ND	ND	1.6	148.1	27	61.3	550.3	0
25908	2013-01-11T11:00:00	ND	ND	ND	ND	ND	ND	1	120.1	28.1	56.6	735.5	0
25909	2013-01-11T12:00:00	ND	ND	ND	ND	ND	ND	1	138.6	29.7	49.6	741.2	0
25910	2013-01-11T13:00:00	ND	ND	ND	ND	ND	ND	0.9	40.5	31.1	44.6	649.3	0
25911	2013-01-11T14:00:00	ND	ND	ND	ND	ND	ND	1.6	79.1	31.7	42	601.6	0
25912	2013-01-11T15:00:00	ND	ND	ND	ND	ND	ND	1.4	70	32.2	41	469.5	0
25913	2013-01-11T16:00:00	ND	ND	ND	ND	ND	ND	1.1	62.8	31.2	44	182.3	0
25914	2013-01-11T17:00:00	ND	ND	ND	ND	ND	ND	3	281.8	30.5	47.8	250.3	0
25915	2013-01-11T18:00:00	ND	ND	ND	ND	ND	ND	3.9	269.1	28.6	52.5	28.4	0
25916	2013-01-11T19:00:00	ND	ND	ND	ND	ND	ND	4.4	268.8	27.4	55	0	0
25917	2013-01-11T20:00:00	ND	ND	ND	ND	ND	ND	4	266.9	27	56	0	0
25918	2013-01-11T21:00:00	ND	ND	ND	ND	ND	ND	2.1	275	26.6	57	0	0
25919	2013-01-11T22:00:00	ND	ND	ND	ND	ND	ND	0.5	89.7	25.8	61.5	0	0
25920	2013-01-11T23:00:00	ND	ND	ND	ND	ND	ND	2.6	250.4	25.9	60.4	0	0
25921	2013-01-12T00:00:00	ND	ND	ND	ND	ND	ND	2.2	279.2	25.8	60.6	0	0
25922	2013-01-12T01:00:00	ND	ND	ND	ND	ND	ND	1.1	121.2	24.6	68.4	0	0
25923	2013-01-12T02:00:00	ND	ND	ND	ND	ND	ND	1.4	165	23.5	73.1	0	0
25924	2013-01-12T03:00:00	ND	ND	ND	ND	ND	ND	0.4	154.2	23.4	73.7	0	0
25925	2013-01-12T04:00:00	ND	ND	ND	ND	ND	ND	0.6	169.7	23.4	72.3	0	0
25926	2013-01-12T05:00:00	ND	ND	ND	ND	ND	ND	0.6	177.8	23.3	72.3	0	0
25927	2013-01-12T06:00:00	ND	ND	ND	ND	ND	ND	0.2	219.4	23.7	70.3	0	0
25928	2013-01-12T07:00:00	ND	ND	ND	ND	ND	ND	1	129.6	23.2	73.9	6.4	0
25929	2013-01-12T08:00:00	ND	ND	ND	ND	ND	ND	0.8	150.8	23.4	71.5	9.4	0
25930	2013-01-12T09:00:00	ND	ND	ND	ND	ND	ND	0.8	131.5	23.6	69.8	52.3	0
25931	2013-01-12T10:00:00	ND	ND	ND	ND	ND	ND	0.5	174.4	24	69.3	86.4	0
25932	2013-01-12T11:00:00	ND	ND	ND	ND	ND	ND	0.5	43	24.7	66.3	80.1	0
25933	2013-01-12T12:00:00	ND	ND	ND	ND	ND	ND	1.4	61.2	24.7	66.7	140.7	0
25934	2013-01-12T13:00:00	ND	ND	ND	ND	ND	ND	0.6	122.4	24.9	65.5	99.9	0
25935	2013-01-12T14:00:00	ND	ND	ND	ND	ND	ND	0.8	183.2	25.2	62.6	141.8	0
25936	2013-01-12T15:00:00	ND	ND	ND	ND	ND	ND	1.6	180.6	25.4	61.3	169.4	0
25937	2013-01-12T16:00:00	ND	ND	ND	ND	ND	ND	0.8	145.2	25.7	59.4	134.5	0
25938	2013-01-12T17:00:00	ND	ND	ND	ND	ND	ND	0.5	96.1	25.5	60.3	70	0
25939	2013-01-12T18:00:00	ND	ND	ND	ND	ND	ND	0.6	354.6	25.3	61.9	20.9	0
25940	2013-01-12T19:00:00	ND	ND	ND	ND	ND	ND	0.9	75.4	24.9	64.8	0	0
25941	2013-01-12T20:00:00	ND	ND	ND	ND	ND	ND	1.3	46.6	24.4	68.3	0	0
25942	2013-01-12T21:00:00	ND	ND	ND	ND	ND	ND	0.5	169.9	24	69.8	0	0
25943	2013-01-12T22:00:00	ND	ND	ND	ND	ND	ND	1.1	186.1	24	69.6	0	0
25944	2013-01-12T23:00:00	ND	ND	ND	ND	ND	ND	1.1	231.9	23.8	69.5	0	0
25945	2013-01-13T00:00:00	ND	ND	ND	ND	ND	ND	0.3	293.2	23.8	68.2	0	0
25946	2013-01-13T01:00:00	ND	ND	ND	ND	ND	ND	0.5	50.7	23.1	74.6	0	0
25947	2013-01-13T02:00:00	ND	ND	ND	ND	ND	ND	1.1	50.5	22.4	79.1	0	0
25948	2013-01-13T03:00:00	ND	ND	ND	ND	ND	ND	0.9	45.9	21.9	81.1	0	0
25949	2013-01-13T04:00:00	ND	ND	ND	ND	ND	ND	0.3	ND	22.2	79.5	0	0
25950	2013-01-13T05:00:00	ND	ND	ND	ND	ND	ND	0.5	ND	22.2	79.7	0	0
25951	2013-01-13T06:00:00	ND	ND	ND	ND	ND	ND	0.3	155.8	21.8	81.1	0	0
25952	2013-01-13T07:00:00	ND	ND	ND	ND	ND	ND	0.4	ND	21.9	79.3	11.6	0
25953	2013-01-13T08:00:00	ND	ND	ND	ND	ND	ND	0.1	ND	22.8	73.4	103.4	0
25954	2013-01-13T09:00:00	ND	ND	ND	ND	ND	ND	0.4	142.7	24.2	67	264.8	0
25955	2013-01-13T10:00:00	ND	ND	ND	ND	ND	ND	2.1	32.8	25.1	67.5	312.8	0
25956	2013-01-13T11:00:00	ND	ND	ND	ND	ND	ND	0.3	26	26	59.8	560.8	0
25957	2013-01-13T12:00:00	ND	ND	ND	ND	ND	ND	1.2	91.5	28.5	49.8	676.4	0
25958	2013-01-13T13:00:00	ND	ND	ND	ND	ND	ND	0.8	332.2	29.8	45.1	832.9	0
25959	2013-01-13T14:00:00	ND	ND	ND	ND	ND	ND	1.7	251.5	30.7	42.1	835.2	0
25960	2013-01-13T15:00:00	ND	ND	ND	ND	ND	ND	1.2	293.2	30.9	42.7	444.9	0
25961	2013-01-13T16:00:00	ND	ND	ND	ND	ND	ND	5.3	279.7	29.5	45.4	537.8	0
25962	2013-01-13T17:00:00	ND	ND	ND	ND	ND	ND	5	276.3	28.6	48.3	340.2	0
25963	2013-01-13T18:00:00	ND	ND	ND	ND	ND	ND	3.9	298.7	27.3	52.6	100.2	0
25964	2013-01-13T19:00:00	ND	ND	ND	ND	ND	ND	4.1	286.4	26	55.6	0	0
25965	2013-01-13T20:00:00	ND	ND	ND	ND	ND	ND	1.3	331.5	26	54.8	0	0
25966	2013-01-13T21:00:00	ND	ND	ND	ND	ND	ND	2.7	270.2	25.9	55.2	0	0
25967	2013-01-13T22:00:00	ND	ND	ND	ND	ND	ND	2.5	207.3	25.2	60.5	0	0
25968	2013-01-13T23:00:00	ND	ND	ND	ND	ND	ND	2.3	187.5	24.6	66.9	0	0
25969	2013-01-14T00:00:00	ND	ND	ND	ND	ND	ND	1.6	178.3	24.7	64.5	0	0
25970	2013-01-14T01:00:00	ND	ND	ND	ND	ND	ND	1.4	164.3	23.9	71	0	0
25971	2013-01-14T02:00:00	ND	ND	ND	ND	ND	ND	0.7	164.4	23.6	74.2	0	0
25972	2013-01-14T03:00:00	ND	ND	ND	ND	ND	ND	1.5	288.7	23.7	69.3	0	0
25973	2013-01-14T04:00:00	ND	ND	ND	ND	ND	ND	2.4	277.4	23.7	64.6	0	0
25974	2013-01-14T05:00:00	ND	ND	ND	ND	ND	ND	1.2	342.7	23.6	68.7	0	0
25975	2013-01-14T06:00:00	ND	ND	ND	ND	ND	ND	1.1	63.3	23.1	72.2	0	0
25976	2013-01-14T07:00:00	ND	ND	ND	ND	ND	ND	0.8	85.6	21.9	81.2	2.1	0.76
25977	2013-01-14T08:00:00	ND	ND	ND	ND	ND	ND	0.8	158.2	21.7	85.8	67.8	0.51
25978	2013-01-14T09:00:00	ND	ND	ND	ND	ND	ND	1.4	150	22.9	83.1	231.4	0
25979	2013-01-14T10:00:00	ND	ND	ND	ND	ND	ND	2.2	154.7	24	75.5	342.5	0
25980	2013-01-14T11:00:00	ND	ND	ND	ND	ND	ND	2	159.5	24.8	70.3	406	0
25981	2013-01-14T12:00:00	ND	ND	ND	ND	ND	ND	1.9	253.2	24.6	66.3	199.4	0
25982	2013-01-14T13:00:00	ND	ND	ND	ND	ND	ND	1.8	193.6	26.4	60.9	689.6	0
25983	2013-01-14T14:00:00	ND	ND	ND	ND	ND	ND	1.4	214.2	28.7	51.5	867.1	0
25984	2013-01-14T15:00:00	ND	ND	ND	ND	ND	ND	1.3	137.8	29.4	48.9	578.9	0
25985	2013-01-14T16:00:00	ND	ND	ND	ND	ND	ND	1.1	93.2	29.5	49.4	328.1	0
25986	2013-01-14T17:00:00	ND	ND	ND	ND	ND	ND	0.6	51.2	28	56.2	67.1	0
25987	2013-01-14T18:00:00	ND	ND	ND	ND	ND	ND	1.6	289.9	27.2	59.9	77.7	0
25988	2013-01-14T19:00:00	ND	ND	ND	ND	ND	ND	2.6	273.8	26	60.6	0	0
25989	2013-01-14T20:00:00	ND	ND	ND	ND	ND	ND	2.4	274.9	25.6	59.2	0	0
25990	2013-01-14T21:00:00	ND	ND	ND	ND	ND	ND	2.4	272.2	25.5	59.5	0	0
25991	2013-01-14T22:00:00	ND	ND	ND	ND	ND	ND	0.7	301.9	25.3	61.5	0	0
25992	2013-01-14T23:00:00	ND	ND	ND	ND	ND	ND	0.8	269.5	24.6	63.6	0	0
25993	2013-01-15T00:00:00	ND	ND	ND	ND	ND	ND	0.6	214.9	24.3	65.7	0	0
25994	2013-01-15T01:00:00	ND	ND	ND	ND	ND	ND	1.3	177.8	23.5	72.3	0	0
25995	2013-01-15T02:00:00	ND	ND	ND	ND	ND	ND	1.1	203.1	23.6	69.9	0	0
25996	2013-01-15T03:00:00	ND	ND	ND	ND	ND	ND	1	189.2	23.5	71.1	0	0
25997	2013-01-15T04:00:00	ND	ND	ND	ND	ND	ND	0.7	155.8	22.9	75	0	0
25998	2013-01-15T05:00:00	ND	ND	ND	ND	ND	ND	0.4	140.4	22.8	76.1	0	0
25999	2013-01-15T06:00:00	ND	ND	ND	ND	ND	ND	0.7	59.2	22.6	78	0	0
26000	2013-01-15T07:00:00	ND	ND	ND	ND	ND	ND	0.7	171.8	22.6	78.7	2.7	0
26001	2013-01-15T08:00:00	ND	ND	ND	ND	ND	ND	1.8	184.8	22.8	76.6	47.7	0
26002	2013-01-15T09:00:00	ND	ND	ND	ND	ND	ND	1.8	169	23.4	74.2	312.8	0
26003	2013-01-15T10:00:00	ND	ND	ND	ND	ND	ND	1.4	171.6	24.8	67.7	477.6	0
26004	2013-01-15T11:00:00	ND	ND	ND	ND	ND	ND	0.8	132.9	26.8	59.5	757.9	0
26005	2013-01-15T12:00:00	ND	ND	ND	ND	ND	ND	1.1	39.3	28.4	53.1	476.7	0
26006	2013-01-15T13:00:00	ND	ND	ND	ND	ND	ND	0.9	4.7	28.4	52.3	525.2	0
26007	2013-01-15T14:00:00	ND	ND	ND	ND	ND	ND	3.8	279.3	27.9	50.7	297.5	0
26008	2013-01-15T15:00:00	ND	ND	ND	ND	ND	ND	3.6	285.3	27.8	50	402.3	0
26009	2013-01-15T16:00:00	ND	ND	ND	ND	ND	ND	4.7	294.2	28	48.1	403.3	0
26010	2013-01-15T17:00:00	ND	ND	ND	ND	ND	ND	4.4	287.5	26.5	54.7	102.6	0
26011	2013-01-15T18:00:00	ND	ND	ND	ND	ND	ND	3.9	271.4	25.6	59.1	5.4	0
26012	2013-01-15T19:00:00	ND	ND	ND	ND	ND	ND	2.9	262.5	25.2	60.9	0	0
26013	2013-01-15T20:00:00	ND	ND	ND	ND	ND	ND	2.2	253.5	24.4	64.3	0	0
26014	2013-01-15T21:00:00	ND	ND	ND	ND	ND	ND	0.9	258.3	24.2	65.7	0	0
26015	2013-01-15T22:00:00	ND	ND	ND	ND	ND	ND	0.6	305.2	23.7	69.7	0	0
26016	2013-01-15T23:00:00	ND	ND	ND	ND	ND	ND	0.9	251.9	22.7	78.6	0	0.25
26017	2013-01-16T00:00:00	ND	ND	ND	ND	ND	ND	1	260.4	22.5	77.4	0	0
26018	2013-01-16T01:00:00	ND	ND	ND	ND	ND	ND	0.6	271.1	22.5	74.8	0	0
26019	2013-01-16T02:00:00	ND	ND	ND	ND	ND	ND	0.3	157.8	22.1	81.9	0	0
26020	2013-01-16T03:00:00	ND	ND	ND	ND	ND	ND	0.2	24.1	21.7	85.5	0	0
26021	2013-01-16T04:00:00	ND	ND	ND	ND	ND	ND	1	150.1	21.6	86.5	0	0
26022	2013-01-16T05:00:00	ND	ND	ND	ND	ND	ND	0.4	ND	21.5	88.1	0	0
26023	2013-01-16T06:00:00	ND	ND	ND	ND	ND	ND	0.7	137.4	21.5	87.1	0	0
26024	2013-01-16T07:00:00	ND	ND	ND	ND	ND	ND	0.7	132.5	21.4	87	3.7	0
26025	2013-01-16T08:00:00	ND	ND	ND	ND	ND	ND	0.5	110	21.6	87	104.1	0
26026	2013-01-16T09:00:00	ND	ND	ND	ND	ND	ND	0.7	31	23.4	77.7	238	0
26027	2013-01-16T10:00:00	ND	ND	ND	ND	ND	ND	0.7	134.2	24.7	70.1	295.8	0
26028	2013-01-16T11:00:00	ND	ND	ND	ND	ND	ND	1	181.9	25.4	65.8	364	0
26029	2013-01-16T12:00:00	ND	ND	ND	ND	ND	ND	0.9	126.5	27.7	55	660.1	0
26030	2013-01-16T13:00:00	ND	ND	ND	ND	ND	ND	0.8	349.9	28.4	51.2	421.9	0
26031	2013-01-16T14:00:00	ND	ND	ND	ND	ND	ND	0.6	49.7	28.7	49.8	609.6	0
26032	2013-01-16T15:00:00	ND	ND	ND	ND	ND	ND	0.5	37.1	29.3	47.4	252.3	0
26033	2013-01-16T16:00:00	ND	ND	ND	ND	ND	ND	2.6	284.5	30.1	45	512.8	0
26034	2013-01-16T17:00:00	ND	ND	ND	ND	ND	ND	4.7	276.3	28.5	49.8	329.1	0
26035	2013-01-16T18:00:00	ND	ND	ND	ND	ND	ND	4.8	271.2	26.9	53.6	31.7	0
26036	2013-01-16T19:00:00	ND	ND	ND	ND	ND	ND	4.2	274.4	26.1	56.4	0	0
26037	2013-01-16T20:00:00	ND	ND	ND	ND	ND	ND	4	276.8	25.5	59.2	0	0
26038	2013-01-16T21:00:00	ND	ND	ND	ND	ND	ND	4.4	272.6	25.5	59.4	0	0
26039	2013-01-16T22:00:00	ND	ND	ND	ND	ND	ND	4.1	252.7	25.2	60.5	0	0
26040	2013-01-16T23:00:00	ND	ND	ND	ND	ND	ND	2.5	233.1	25.1	59.9	0	0
26041	2013-01-17T00:00:00	ND	ND	ND	ND	ND	ND	2.2	272	24.9	61.7	0	0
26042	2013-01-17T01:00:00	ND	ND	ND	ND	ND	ND	1.9	185.8	23.4	74.2	0	0
26043	2013-01-17T02:00:00	ND	ND	ND	ND	ND	ND	1.9	182.6	22.7	77.6	0	0
26044	2013-01-17T03:00:00	ND	ND	ND	ND	ND	ND	1.8	180.1	22.3	79.2	0	0
26045	2013-01-17T04:00:00	ND	ND	ND	ND	ND	ND	0.8	163.1	22.5	77.3	0	0
26046	2013-01-17T05:00:00	ND	ND	ND	ND	ND	ND	0.9	106.9	22.2	79.7	0	0
26047	2013-01-17T06:00:00	ND	ND	ND	ND	ND	ND	0.8	136	22	80.6	0	0
26048	2013-01-17T07:00:00	ND	ND	ND	ND	ND	ND	0.5	145.8	22.1	81.3	8.9	0
26049	2013-01-17T08:00:00	ND	ND	ND	ND	ND	ND	0.7	146.7	22.2	81.2	30.2	0
26050	2013-01-17T09:00:00	ND	ND	ND	ND	ND	ND	0.6	142.3	22.9	78.3	159.9	0
26051	2013-01-17T10:00:00	ND	ND	ND	ND	ND	ND	0.8	120.3	24.7	69.7	441.8	0
26052	2013-01-17T11:00:00	ND	ND	ND	ND	ND	ND	1	114.9	26	63.8	463.3	0
26053	2013-01-17T12:00:00	ND	ND	ND	ND	ND	ND	1.2	82.3	28	54.8	638.7	0
26054	2013-01-17T13:00:00	ND	ND	ND	ND	ND	ND	0.6	112.4	28.2	52.1	282.7	0
26055	2013-01-17T14:00:00	ND	ND	ND	ND	ND	ND	0.4	312.4	28.5	51.1	445.9	0
26056	2013-01-17T15:00:00	ND	ND	ND	ND	ND	ND	0.6	187.1	30.2	44.7	441.3	0
26057	2013-01-17T16:00:00	ND	ND	ND	ND	ND	ND	3.1	281.6	29.9	45.7	493.1	0
26058	2013-01-17T17:00:00	ND	ND	ND	ND	ND	ND	5	277.2	28.3	49.5	324.4	0
26059	2013-01-17T18:00:00	ND	ND	ND	ND	ND	ND	5.1	275.4	26.9	53.7	81.9	0
26060	2013-01-17T19:00:00	ND	ND	ND	ND	ND	ND	5.1	271.5	26.1	55.5	0	0
26061	2013-01-17T20:00:00	ND	ND	ND	ND	ND	ND	2.7	289	26	55.9	0	0
26062	2013-01-17T21:00:00	ND	ND	ND	ND	ND	ND	1.9	306.1	25.7	57.8	0	0
26063	2013-01-17T22:00:00	ND	ND	ND	ND	ND	ND	3.3	263.7	25.4	59.5	0	0
26064	2013-01-17T23:00:00	ND	ND	ND	ND	ND	ND	2.9	268.3	24.9	61.3	0	0
26065	2013-01-18T00:00:00	ND	ND	ND	ND	ND	ND	2.3	253.4	24.7	62.1	0	0
26066	2013-01-18T01:00:00	ND	ND	ND	ND	ND	ND	1.8	240.5	24.5	62.3	0	0
26067	2013-01-18T02:00:00	ND	ND	ND	ND	ND	ND	1.4	310.1	24.4	62.9	0	0
26068	2013-01-18T03:00:00	ND	ND	ND	ND	ND	ND	0.5	20.3	23.9	68	0	0
26069	2013-01-18T04:00:00	ND	ND	ND	ND	ND	ND	0.4	54	23.3	72.5	0	0
26070	2013-01-18T05:00:00	ND	ND	ND	ND	ND	ND	0.5	147.5	23.2	74.4	0	0
26071	2013-01-18T06:00:00	ND	ND	ND	ND	ND	ND	1	144.1	22.6	79.7	0	0
26072	2013-01-18T07:00:00	ND	ND	ND	ND	ND	ND	1.1	129.7	22.4	80.4	4.1	0
26073	2013-01-18T08:00:00	ND	ND	ND	ND	ND	ND	1.3	149.5	22.8	78.8	51.7	0
26074	2013-01-18T09:00:00	ND	ND	ND	ND	ND	ND	1.9	176.4	23.1	78.9	177.5	0
26075	2013-01-18T10:00:00	ND	ND	ND	ND	ND	ND	1.7	164.5	23.8	75.6	222	0
26076	2013-01-18T11:00:00	ND	ND	ND	ND	ND	ND	1.7	150.2	24.6	71.6	392.6	0
26077	2013-01-18T12:00:00	ND	ND	ND	ND	ND	ND	1.5	141	25.8	65	450.5	0
26078	2013-01-18T13:00:00	ND	ND	ND	ND	ND	ND	0.8	114	27.3	57.7	551.4	0
26079	2013-01-18T14:00:00	ND	ND	ND	ND	ND	ND	1.2	84.3	26.9	60.3	162.6	0
26080	2013-01-18T15:00:00	ND	ND	ND	ND	ND	ND	0.7	286.8	25.9	66.4	90.8	7.37
26081	2013-01-18T16:00:00	ND	ND	ND	ND	ND	ND	0.2	ND	26.5	62.9	238.6	0.76
26082	2013-01-18T17:00:00	ND	ND	ND	ND	ND	ND	0.9	274.6	27.3	59.2	164.3	0
26083	2013-01-18T18:00:00	ND	ND	ND	ND	ND	ND	2.4	273.6	25.3	66.2	15.5	0
26084	2013-01-18T19:00:00	ND	ND	ND	ND	ND	ND	2.4	271.4	24.7	65.3	0	0
26085	2013-01-18T20:00:00	ND	ND	ND	ND	ND	ND	1.7	289.4	25	62.2	0	0
26086	2013-01-18T21:00:00	ND	ND	ND	ND	ND	ND	1.1	275.2	24.8	62.8	0	0
26087	2013-01-18T22:00:00	ND	ND	ND	ND	ND	ND	1.2	244.5	24.5	64.3	0	0
26088	2013-01-18T23:00:00	ND	ND	ND	ND	ND	ND	0.9	200.9	23.9	68.9	0	0
26089	2013-01-19T00:00:00	ND	ND	ND	ND	ND	ND	0.7	159.6	23	74.4	0	0
26090	2013-01-19T01:00:00	ND	ND	ND	ND	ND	ND	1	207.4	22.9	75.9	0	0
26091	2013-01-19T02:00:00	ND	ND	ND	ND	ND	ND	0.9	184.4	23	76.6	0	0
26092	2013-01-19T03:00:00	ND	ND	ND	ND	ND	ND	0.6	161.6	22.8	78.1	0	0
26093	2013-01-19T04:00:00	ND	ND	ND	ND	ND	ND	0.5	142.8	22.4	80.3	0	0
26094	2013-01-19T05:00:00	ND	ND	ND	ND	ND	ND	0	ND	22	79.7	0	0
26095	2013-01-19T06:00:00	ND	ND	ND	ND	ND	ND	0.9	238	21.9	77.8	0	0
26096	2013-01-19T07:00:00	ND	ND	ND	ND	ND	ND	0.2	ND	22	77.2	7.5	0
26097	2013-01-19T08:00:00	ND	ND	ND	ND	ND	ND	0.6	318.2	22.6	75.8	152.3	0
26098	2013-01-19T09:00:00	ND	ND	ND	ND	ND	ND	0.4	266.1	24.3	66.6	308	0
26099	2013-01-19T10:00:00	ND	ND	ND	ND	ND	ND	1.2	130.8	26	62.2	517.3	0
26100	2013-01-19T11:00:00	ND	ND	ND	ND	ND	ND	1.4	127.3	27.6	55.9	753	0
26101	2013-01-19T12:00:00	ND	ND	ND	ND	ND	ND	0.8	80.3	28.4	52.8	560.1	0
26102	2013-01-19T13:00:00	ND	ND	ND	ND	ND	ND	1	111.2	29.6	48.6	725.4	0
26103	2013-01-19T14:00:00	ND	ND	ND	ND	ND	ND	1.1	35	30.9	43.9	715.5	0
26104	2013-01-19T15:00:00	ND	ND	ND	ND	ND	ND	1.2	36.7	31.1	41.3	486.5	0
26105	2013-01-19T16:00:00	ND	ND	ND	ND	ND	ND	1.2	6.4	32	39.3	530.7	0
26106	2013-01-19T17:00:00	ND	ND	ND	ND	ND	ND	3.3	284.7	30.8	43.2	318.5	0
26107	2013-01-19T18:00:00	ND	ND	ND	ND	ND	ND	4.9	273.5	28.5	48.5	120.4	0
26108	2013-01-19T19:00:00	ND	ND	ND	ND	ND	ND	4.5	270.8	26.7	54.1	0	0
26109	2013-01-19T20:00:00	ND	ND	ND	ND	ND	ND	3.7	264.5	26.3	55.2	0	0
26110	2013-01-19T21:00:00	ND	ND	ND	ND	ND	ND	1.8	290.3	26.1	55.4	0	0
26111	2013-01-19T22:00:00	ND	ND	ND	ND	ND	ND	0.1	351.3	25.4	58.8	0	0
26112	2013-01-19T23:00:00	ND	ND	ND	ND	ND	ND	1.4	219.8	24.8	62	0	0
26113	2013-01-20T00:00:00	ND	ND	ND	ND	ND	ND	0.9	152.9	23.6	67.7	0	0
26114	2013-01-20T01:00:00	ND	ND	ND	ND	ND	ND	1	152.2	23.3	69.7	0	0
26115	2013-01-20T02:00:00	ND	ND	ND	ND	ND	ND	0.8	149.9	23.3	69.9	0	0
26116	2013-01-20T03:00:00	ND	ND	ND	ND	ND	ND	0.8	43.5	22.5	73	0	0
26117	2013-01-20T04:00:00	ND	ND	ND	ND	ND	ND	0.9	154	22.4	75.2	0	0
26118	2013-01-20T05:00:00	ND	ND	ND	ND	ND	ND	0.5	160.6	22.4	74.6	0	0
26119	2013-01-20T06:00:00	ND	ND	ND	ND	ND	ND	0.4	143.5	22.1	75.3	0	0
26120	2013-01-20T07:00:00	ND	ND	ND	ND	ND	ND	0.3	122.6	22.2	74.8	9.7	0
26121	2013-01-20T08:00:00	ND	ND	ND	ND	ND	ND	0.9	119	22.4	74.9	65.2	0
26122	2013-01-20T09:00:00	ND	ND	ND	ND	ND	ND	1.2	188.9	23.3	70.5	241.3	0
26123	2013-01-20T10:00:00	ND	ND	ND	ND	ND	ND	1.1	177.2	24.6	65.8	278.3	0
26124	2013-01-20T11:00:00	ND	ND	ND	ND	ND	ND	0.7	224.7	26.7	56.2	749.5	0
26125	2013-01-20T12:00:00	ND	ND	ND	ND	ND	ND	0.7	122.9	28.8	49.2	518.8	0
26126	2013-01-20T13:00:00	ND	ND	ND	ND	ND	ND	0.5	146.2	29.8	46.3	777.7	0
26127	2013-01-20T14:00:00	ND	ND	ND	ND	ND	ND	0.1	91.8	30.9	42.9	620.9	0
26128	2013-01-20T15:00:00	ND	ND	ND	ND	ND	ND	0.8	31.7	30.5	43.8	328.5	0
26129	2013-01-20T16:00:00	ND	ND	ND	ND	ND	ND	1.6	318.2	31	42.3	449.2	0
26130	2013-01-20T17:00:00	ND	ND	ND	ND	ND	ND	4	276.8	29.9	46.1	256.3	0
26131	2013-01-20T18:00:00	ND	ND	ND	ND	ND	ND	4.1	277.7	27.7	51.9	71.6	0
26132	2013-01-20T19:00:00	ND	ND	ND	ND	ND	ND	4.6	273.4	26.7	54.2	0	0
26133	2013-01-20T20:00:00	ND	ND	ND	ND	ND	ND	4	273.8	26.5	53.5	0	0
26134	2013-01-20T21:00:00	ND	ND	ND	ND	ND	ND	1	293.1	26.5	52.4	0	0
26135	2013-01-20T22:00:00	ND	ND	ND	ND	ND	ND	0.2	316.3	26.2	53.4	0	0
26136	2013-01-20T23:00:00	ND	ND	ND	ND	ND	ND	1.9	192.2	24.9	62.6	0	0
26137	2013-01-21T00:00:00	ND	ND	ND	ND	ND	ND	1.5	185.9	24.4	65	0	0
26138	2013-01-21T01:00:00	ND	ND	ND	ND	ND	ND	0.4	212.2	24.2	66.3	0	0
26139	2013-01-21T02:00:00	ND	ND	ND	ND	ND	ND	0.3	43.7	23.7	68.7	0	0
26140	2013-01-21T03:00:00	ND	ND	ND	ND	ND	ND	0.7	114	22.9	73.3	0	0
26141	2013-01-21T04:00:00	ND	ND	ND	ND	ND	ND	1	147.2	22.9	73.9	0	0
26142	2013-01-21T05:00:00	ND	ND	ND	ND	ND	ND	0.8	168.3	22.9	73.3	0	0
26143	2013-01-21T06:00:00	ND	ND	ND	ND	ND	ND	1	171.4	23.1	71.7	0	0
26144	2013-01-21T07:00:00	ND	ND	ND	ND	ND	ND	0.6	170.8	23.2	71.4	11.8	0
26145	2013-01-21T08:00:00	ND	ND	ND	ND	ND	ND	0.9	144.3	23.6	69.9	62.5	0
26146	2013-01-21T09:00:00	ND	ND	ND	ND	ND	ND	0.5	121.1	25	65	287.3	0
26147	2013-01-21T10:00:00	ND	ND	ND	ND	ND	ND	0.6	155.3	26.7	58.2	487.7	0
26148	2013-01-21T11:00:00	ND	ND	ND	ND	ND	ND	1.3	109.9	28.6	52.4	712.6	0
26149	2013-01-21T12:00:00	ND	ND	ND	ND	ND	ND	1.3	140.9	29.5	49.5	584.2	0
26150	2013-01-21T13:00:00	ND	ND	ND	ND	ND	ND	1.1	146.8	30.9	45.5	893.4	0
26151	2013-01-21T14:00:00	ND	ND	ND	ND	ND	ND	0.9	141.7	31.2	44	422.5	0
26152	2013-01-21T15:00:00	ND	ND	ND	ND	ND	ND	0.8	342.3	32.1	41.4	612.3	0
26153	2013-01-21T16:00:00	ND	ND	ND	ND	ND	ND	3	292.6	31	44.4	305.5	0
26154	2013-01-21T17:00:00	ND	ND	ND	ND	ND	ND	5.1	276.7	29	50.4	217.1	0
26155	2013-01-21T18:00:00	ND	ND	ND	ND	ND	ND	4	270.6	28.4	52.2	60.6	0
26156	2013-01-21T19:00:00	ND	ND	ND	ND	ND	ND	4.1	267.7	27.6	55	0.5	0
26157	2013-01-21T20:00:00	ND	ND	ND	ND	ND	ND	4	276	27	57.6	0	0
26158	2013-01-21T21:00:00	ND	ND	ND	ND	ND	ND	3.8	278.2	26.6	59.4	0	0
26159	2013-01-21T22:00:00	ND	ND	ND	ND	ND	ND	3.7	269.4	26.5	59.5	0	0
26160	2013-01-21T23:00:00	ND	ND	ND	ND	ND	ND	1.5	287.7	26.4	59.7	0	0
26161	2013-01-22T00:00:00	ND	ND	ND	ND	ND	ND	0.7	72.5	25.6	64.9	0	0
26162	2013-01-22T01:00:00	ND	ND	ND	ND	ND	ND	1	120.5	25.3	66.9	0	0
26163	2013-01-22T02:00:00	ND	ND	ND	ND	ND	ND	1.2	162.9	24.8	68.7	0	0
26164	2013-01-22T03:00:00	ND	ND	ND	ND	ND	ND	0.8	151.7	24	72.3	0	0
26165	2013-01-22T04:00:00	ND	ND	ND	ND	ND	ND	0.5	124.9	23.9	72.8	0	0
26166	2013-01-22T05:00:00	ND	ND	ND	ND	ND	ND	0.7	71.7	23.8	73.6	0	0
26167	2013-01-22T06:00:00	ND	ND	ND	ND	ND	ND	0.3	117.1	23.8	73.8	0	0
26168	2013-01-22T07:00:00	ND	ND	ND	ND	ND	ND	0.5	146.8	23.9	73.9	3.2	0
26169	2013-01-22T08:00:00	ND	ND	ND	ND	ND	ND	1.1	138	24.1	73.2	43.8	0
26170	2013-01-22T09:00:00	ND	ND	ND	ND	ND	ND	1.2	136	24.5	70.7	198.7	0
26171	2013-01-22T10:00:00	ND	ND	ND	ND	ND	ND	0.7	178.6	26.8	61.4	487.4	0
26172	2013-01-22T11:00:00	ND	ND	ND	ND	ND	ND	0.6	145.1	28.5	54.7	563.7	0
26173	2013-01-22T12:00:00	ND	ND	ND	ND	ND	ND	0.2	116.6	28.9	53.5	333.9	0
26174	2013-01-22T13:00:00	ND	ND	ND	ND	ND	ND	0.7	16	30	49.7	659.2	0
26175	2013-01-22T14:00:00	ND	ND	ND	ND	ND	ND	0.8	336.8	31.3	44.7	643.3	0
26176	2013-01-22T15:00:00	ND	ND	ND	ND	ND	ND	0.5	10.5	32	42.4	681	0
26177	2013-01-22T16:00:00	ND	ND	ND	ND	ND	ND	4.2	281.4	31.7	42.6	575.1	0
26178	2013-01-22T17:00:00	ND	ND	ND	ND	ND	ND	4.6	276.8	30.1	46.8	329.1	0
26179	2013-01-22T18:00:00	ND	ND	ND	ND	ND	ND	4.5	278.4	28.4	52.1	80.3	0
26180	2013-01-22T19:00:00	ND	ND	ND	ND	ND	ND	3.6	287	27.7	53.4	0.6	0
26181	2013-01-22T20:00:00	ND	ND	ND	ND	ND	ND	3.1	283.3	27.4	54.3	0	0
26182	2013-01-22T21:00:00	ND	ND	ND	ND	ND	ND	1.2	307	27.3	54.2	0	0
26183	2013-01-22T22:00:00	ND	ND	ND	ND	ND	ND	2.6	257.3	26.6	57.3	0	0
26184	2013-01-22T23:00:00	ND	ND	ND	ND	ND	ND	2.3	239.2	26.1	59	0	0
26185	2013-01-23T00:00:00	ND	ND	ND	ND	ND	ND	1.2	223.2	25.9	60.8	0	0
26186	2013-01-23T01:00:00	ND	ND	ND	ND	ND	ND	0.7	241.8	25.8	61.6	0	0
26187	2013-01-23T02:00:00	ND	ND	ND	ND	ND	ND	1.7	197.8	25	66.8	0	0
26188	2013-01-23T03:00:00	ND	ND	ND	ND	ND	ND	0.5	39.5	24.5	70.1	0	0
26189	2013-01-23T04:00:00	ND	ND	ND	ND	ND	ND	0.7	46.1	23.9	73.1	0	0
26190	2013-01-23T05:00:00	ND	ND	ND	ND	ND	ND	0.6	140.7	23.7	75.2	0	0
26191	2013-01-23T06:00:00	ND	ND	ND	ND	ND	ND	0.4	151.3	23.5	76.9	0	0
26192	2013-01-23T07:00:00	ND	ND	ND	ND	ND	ND	1	260.4	23.6	70.5	5	0
26193	2013-01-23T08:00:00	ND	ND	ND	ND	ND	ND	0.5	227	24.3	68.7	92.6	0
26194	2013-01-23T09:00:00	ND	ND	ND	ND	ND	ND	1.2	157.9	24.8	71	182.9	0
26195	2013-01-23T10:00:00	ND	ND	ND	ND	ND	ND	0.6	163.5	26.6	62.7	472.8	0
26196	2013-01-23T11:00:00	ND	ND	ND	ND	ND	ND	1.4	146.3	28.2	56.2	700.6	0
26197	2013-01-23T12:00:00	ND	ND	ND	ND	ND	ND	0.8	233.7	29.7	50	703.9	0
26198	2013-01-23T13:00:00	ND	ND	ND	ND	ND	ND	1.2	317.2	30.8	45.1	876.1	0
26199	2013-01-23T14:00:00	ND	ND	ND	ND	ND	ND	0.8	37.9	31.8	42.2	342.8	0
26200	2013-01-23T15:00:00	15.3	ND	ND	ND	ND	ND	1	305	31.2	44	383.5	0
26201	2013-01-23T16:00:00	16.9	ND	ND	ND	ND	ND	4.6	284.3	31.1	43.5	587.4	0
26202	2013-01-23T17:00:00	9.9	ND	ND	ND	ND	ND	3.4	282.3	30.8	44.5	324.9	0
26203	2013-01-23T18:00:00	14.3	ND	ND	ND	ND	ND	4.5	280.9	28.1	53.6	28.8	0
26204	2013-01-23T19:00:00	9.8	ND	ND	ND	ND	ND	4.2	279.3	27.2	56.2	1.1	0
26205	2013-01-23T20:00:00	7.9	ND	ND	ND	ND	ND	4.3	278.4	27	56.1	0	0
26206	2013-01-23T21:00:00	4.8	ND	ND	ND	ND	ND	2.7	272.7	26.7	56.9	0	0
26207	2013-01-23T22:00:00	3.5	ND	ND	ND	ND	ND	3.8	252.6	26.2	58.3	0	0
26208	2013-01-23T23:00:00	3.9	ND	ND	ND	ND	ND	2.6	257	26	59	0	0
26209	2013-01-24T00:00:00	3.3	ND	ND	ND	ND	ND	0.9	337.3	26	60.4	0	0
26210	2013-01-24T01:00:00	2.5	ND	ND	ND	ND	ND	1.1	65.5	24.7	70.7	0	0
26211	2013-01-24T02:00:00	26.4	ND	ND	ND	ND	ND	1.4	109.9	24.3	72.8	0	0
26212	2013-01-24T03:00:00	16.6	ND	ND	ND	ND	ND	1.2	136.2	24.1	72.6	0	0
26213	2013-01-24T04:00:00	23.7	ND	ND	ND	ND	ND	0.7	119.1	23.4	77.4	0	0
26214	2013-01-24T05:00:00	12.5	ND	ND	ND	ND	ND	0.8	351.9	23.1	81.4	0	0
26215	2013-01-24T06:00:00	16.1	ND	ND	ND	ND	ND	0.5	106.6	23	82.6	0	0
26216	2013-01-24T07:00:00	8.9	ND	ND	ND	ND	ND	1.6	168	22.5	79.8	0	0
26217	2013-01-24T08:00:00	7.5	ND	ND	ND	ND	ND	1.6	156.4	21.4	86	8.4	0
26218	2013-01-24T09:00:00	4.7	ND	ND	ND	ND	ND	0.5	135.2	21.7	84.2	29.1	0
26219	2013-01-24T10:00:00	18.9	ND	ND	ND	ND	ND	0.9	79.8	21.6	86.9	62.3	0
26220	2013-01-24T11:00:00	21.3	ND	ND	ND	ND	ND	1.4	90.8	21.2	87.9	166.8	0.25
26221	2013-01-24T12:00:00	36.3	ND	ND	ND	ND	ND	0.8	60	22	82.8	167.1	0
26222	2013-01-24T13:00:00	19.5	ND	ND	ND	ND	ND	0.8	36.5	22.6	81.6	122.9	0
26223	2013-01-24T14:00:00	31.2	ND	ND	ND	ND	ND	0.5	55	23.5	78.1	141.4	0
26224	2013-01-24T15:00:00	23	ND	ND	ND	ND	ND	0.7	68.5	23.5	77.7	153.9	0
26225	2013-01-24T16:00:00	49.3	ND	ND	ND	ND	ND	0.8	42.2	24.3	74.1	144.3	0
26226	2013-01-24T17:00:00	49.4	ND	ND	ND	ND	ND	0.8	103.2	24.5	71.2	129	0
26227	2013-01-24T18:00:00	44.2	ND	ND	ND	ND	ND	0.3	97.5	24.9	68	67	0
26228	2013-01-24T19:00:00	38.5	ND	ND	ND	ND	ND	0.2	276.1	24.5	68.1	0	0
26229	2013-01-24T20:00:00	50.7	ND	ND	ND	ND	ND	1	294.2	24.3	67.1	0	0
26230	2013-01-24T21:00:00	47.2	ND	ND	ND	ND	ND	0.3	ND	24	71.7	0	0
26231	2013-01-24T22:00:00	54.8	ND	ND	ND	ND	ND	0.9	190.5	23.7	73.8	0	0
26232	2013-01-24T23:00:00	49.3	ND	ND	ND	ND	ND	0.8	245.3	23.2	72.6	0	0
26233	2013-01-25T00:00:00	36	ND	ND	ND	ND	ND	1.5	252.4	22.9	69.7	0	0
26234	2013-01-25T01:00:00	18.6	ND	ND	ND	ND	ND	0.6	221.5	22.9	72.5	0	0
26235	2013-01-25T02:00:00	24.5	ND	ND	ND	ND	ND	0.5	220.2	22.3	76.1	0	0
26236	2013-01-25T03:00:00	12.8	ND	ND	ND	ND	ND	0.3	197.5	22.6	72.9	0	0
26237	2013-01-25T04:00:00	9.9	ND	ND	ND	ND	ND	0.7	68.1	22	82.6	0	0
26238	2013-01-25T05:00:00	6.4	ND	ND	ND	ND	ND	0.1	ND	21.8	85	0	0
26239	2013-01-25T06:00:00	36.2	ND	ND	ND	ND	ND	0.1	ND	21.8	85.7	0	0.25
26240	2013-01-25T07:00:00	41.1	ND	ND	ND	ND	ND	0.3	ND	21.8	80.8	10.5	0
26241	2013-01-25T08:00:00	34.9	ND	ND	ND	ND	ND	0.3	107.7	22.3	78.8	74.9	0
26242	2013-01-25T09:00:00	52.8	ND	ND	ND	ND	ND	0.5	98	22.9	78.3	183.5	0
26243	2013-01-25T10:00:00	63.4	ND	ND	ND	ND	ND	0.3	77.7	24.8	69.4	492	0
26244	2013-01-25T11:00:00	36.1	ND	ND	ND	ND	ND	1.4	350.4	25.4	66.5	167.9	0
26245	2013-01-25T12:00:00	59.1	ND	ND	ND	ND	ND	0.9	105.4	27.3	58.3	609.7	0
26246	2013-01-25T13:00:00	39.6	ND	ND	ND	ND	ND	1	103.9	29.4	48.8	834.6	0
26247	2013-01-25T14:00:00	32.9	ND	ND	ND	ND	ND	1.1	350.3	29.8	47	519.7	0
26248	2013-01-25T15:00:00	17	ND	ND	ND	ND	ND	1.2	348.7	30.1	46.2	397.5	0
26249	2013-01-25T16:00:00	14	ND	ND	ND	ND	ND	0.8	41	29.2	50.6	186.8	0
26250	2013-01-25T17:00:00	15.9	ND	ND	ND	ND	ND	3.2	278.5	28.8	49.7	200.3	0
26251	2013-01-25T18:00:00	31.5	ND	ND	ND	ND	ND	3.1	280.4	27.5	54	68.5	0
26252	2013-01-25T19:00:00	16.9	ND	ND	ND	ND	ND	2.8	279.1	26.3	57.6	0	0
26253	2013-01-25T20:00:00	19	ND	ND	ND	ND	ND	2.8	277.6	25.7	59.1	0	0
26254	2013-01-25T21:00:00	12.7	ND	ND	ND	ND	ND	3.1	277.5	25.5	58.8	0	0
26255	2013-01-25T22:00:00	6.9	ND	ND	ND	ND	ND	0.3	48	25.2	62	0	0
26256	2013-01-25T23:00:00	6	ND	ND	ND	ND	ND	0.9	99	24.4	67.4	0	0
26257	2013-01-26T00:00:00	20.8	ND	ND	ND	ND	ND	1.2	173.3	23.7	72.6	0	0
26258	2013-01-26T01:00:00	22.2	ND	ND	ND	ND	ND	0.4	110.5	23.5	74.8	0	0
26259	2013-01-26T02:00:00	28.9	ND	ND	ND	ND	ND	0.8	117.9	23.4	73.4	0	0
26260	2013-01-26T03:00:00	20.3	ND	ND	ND	ND	ND	0.5	146.8	22.9	77.6	0	0
26261	2013-01-26T04:00:00	26.4	ND	ND	ND	ND	ND	0.6	123.2	22.7	78.4	0	0
26262	2013-01-26T05:00:00	27.8	ND	ND	ND	ND	ND	0.1	ND	22.8	77.7	0	0
26263	2013-01-26T06:00:00	32.9	ND	ND	ND	ND	ND	0.3	ND	22.7	77.9	0	0
26264	2013-01-26T07:00:00	17.7	ND	ND	ND	ND	ND	0.2	ND	22.4	78	5.8	0
26265	2013-01-26T08:00:00	63.5	ND	ND	ND	ND	ND	0.4	185.6	22.6	78.1	56.2	0
26266	2013-01-26T09:00:00	41.4	ND	ND	ND	ND	ND	0.1	113.8	24	71.5	211.8	0
26267	2013-01-26T10:00:00	72.2	ND	ND	ND	ND	ND	1.2	124.8	25.9	62.2	416.6	0
26268	2013-01-26T11:00:00	70.8	ND	ND	ND	ND	ND	1.2	143.8	26.9	58.5	463	0
26269	2013-01-26T12:00:00	96.1	ND	ND	ND	ND	ND	1	131.1	28.5	52.7	581.2	0
26270	2013-01-26T13:00:00	56.7	ND	ND	ND	ND	ND	1.2	98.1	29.9	47.9	732.7	0
26271	2013-01-26T14:00:00	60.1	ND	ND	ND	ND	ND	0.5	136.8	30.6	45.6	757.3	0
26272	2013-01-26T15:00:00	32.4	ND	ND	ND	ND	ND	1.1	34.8	31.5	43.8	478	0
26273	2013-01-26T16:00:00	56.8	ND	ND	ND	ND	ND	2.1	271.5	30.8	45.8	386.5	0
26274	2013-01-26T17:00:00	29.2	ND	ND	ND	ND	ND	4.6	281	29.7	47.9	319.9	0
26275	2013-01-26T18:00:00	37.3	ND	ND	ND	ND	ND	5.1	271.3	28.2	51.3	117.6	0
26276	2013-01-26T19:00:00	21.6	ND	ND	ND	ND	ND	4.9	269	27.2	54.6	2.6	0
26277	2013-01-26T20:00:00	16.7	ND	ND	ND	ND	ND	3.2	286.2	26.8	55.7	0	0
26278	2013-01-26T21:00:00	9.2	ND	ND	ND	ND	ND	4.6	271.1	26.3	58	0	0
26279	2013-01-26T22:00:00	6.1	ND	ND	ND	ND	ND	3.5	281	26.2	58.7	0	0
26280	2013-01-26T23:00:00	4	ND	ND	ND	ND	ND	2.6	289.5	25.9	59.5	0	0
26281	2013-01-27T00:00:00	2.8	ND	ND	ND	ND	ND	0.7	171.7	25.3	64	0	0
26282	2013-01-27T01:00:00	2.3	ND	ND	ND	ND	ND	0.7	202.1	24.3	70	0	0
26283	2013-01-27T02:00:00	13.4	ND	ND	ND	ND	ND	1.4	193.2	24.1	71.6	0	0
26284	2013-01-27T03:00:00	13.8	ND	ND	ND	ND	ND	1.4	191.4	24	71.7	0	0
26285	2013-01-27T04:00:00	37.8	ND	ND	ND	ND	ND	0.7	148.5	23.5	74.5	0	0
26286	2013-01-27T05:00:00	20.7	ND	ND	ND	ND	ND	0.3	ND	23.1	76.2	0	0
26287	2013-01-27T06:00:00	43.5	ND	ND	ND	ND	ND	0.6	5.8	23.1	76.9	0	0
26288	2013-01-27T07:00:00	39.9	ND	ND	ND	ND	ND	0.4	89.9	23.1	77.3	8.3	0
26289	2013-01-27T08:00:00	52.5	ND	ND	ND	ND	ND	0.7	168.8	23.3	76.1	64.2	0
26290	2013-01-27T09:00:00	45.6	ND	ND	ND	ND	ND	0.5	220.4	24.3	71.2	202.5	0
26291	2013-01-27T10:00:00	45.5	ND	ND	ND	ND	ND	1	216.5	25.9	63.4	444.4	0
26292	2013-01-27T11:00:00	23.3	ND	ND	ND	ND	ND	1.1	179	28	55	738.5	0
26293	2013-01-27T12:00:00	24.1	ND	ND	ND	ND	ND	1.1	150.2	29.6	49.1	606.5	0
26294	2013-01-27T13:00:00	12.7	ND	ND	ND	ND	ND	0.6	73.9	30.8	45.3	657	0
26295	2013-01-27T14:00:00	27.3	ND	ND	ND	ND	ND	1.6	116.4	31.5	43.2	482	0
26296	2013-01-27T15:00:00	15.1	ND	ND	ND	ND	ND	1.6	72.6	30.8	46.3	194.9	0
26297	2013-01-27T16:00:00	22.7	ND	ND	ND	ND	ND	3.3	274.1	29.9	48	334.3	0
26298	2013-01-27T17:00:00	13.8	ND	ND	ND	ND	ND	4.6	269.7	29.4	48.5	268.6	0
26299	2013-01-27T18:00:00	13	ND	ND	ND	ND	ND	5	275.5	28.2	52.4	75.3	0
26300	2013-01-27T19:00:00	7.6	ND	ND	ND	ND	ND	4.7	271.5	27.2	55.2	0	0
26301	2013-01-27T20:00:00	5.8	ND	ND	ND	ND	ND	3.8	276.8	26.8	56.1	0	0
26302	2013-01-27T21:00:00	5.3	ND	ND	ND	ND	ND	1.5	294.6	26.5	57.6	0	0
26303	2013-01-27T22:00:00	5	ND	ND	ND	ND	ND	1.8	295.7	25.9	60.3	0	0
26304	2013-01-27T23:00:00	3.5	ND	ND	ND	ND	ND	1	298.4	25.5	62.7	0	0
26305	2013-01-28T00:00:00	2.3	ND	ND	ND	ND	ND	0.5	17.3	24.7	67.8	0	0
26306	2013-01-28T01:00:00	1.8	ND	ND	ND	ND	ND	0.9	115.9	24.1	70.6	0	0
26307	2013-01-28T02:00:00	17.6	ND	ND	ND	ND	ND	1.2	165.8	23.6	74.6	0	0
26308	2013-01-28T03:00:00	14.9	ND	ND	ND	ND	ND	0.8	158.5	23.5	75.4	0	0
26309	2013-01-28T04:00:00	29.4	ND	ND	ND	ND	ND	0.7	156.5	23.3	75.7	0	0
26310	2013-01-28T05:00:00	16.9	ND	ND	ND	ND	ND	0.3	209.5	23.5	74.7	0	0
26311	2013-01-28T06:00:00	29.7	ND	ND	ND	ND	ND	0.6	107.7	23.5	74.5	0	0
26312	2013-01-28T07:00:00	33.9	ND	ND	ND	ND	ND	0.7	171	22.6	78.9	4.6	0
26313	2013-01-28T08:00:00	52.7	ND	ND	ND	ND	ND	0.4	142.5	23.4	74.6	98.4	0
26314	2013-01-28T09:00:00	54.7	ND	ND	ND	ND	ND	1.1	132.1	24.3	71	157.4	0
26315	2013-01-28T10:00:00	75.1	ND	ND	ND	ND	ND	0.9	155.8	25.9	65.4	462.2	0
26316	2013-01-28T11:00:00	64.4	ND	ND	ND	ND	ND	1	121.2	27.4	59.2	678.2	0
26317	2013-01-28T12:00:00	40.4	ND	ND	ND	ND	ND	0.6	156.3	28.7	53.8	584.7	0
26318	2013-01-28T13:00:00	21.1	ND	ND	ND	ND	ND	0.8	103.4	29.8	50.1	655.1	0
26319	2013-01-28T14:00:00	31.4	ND	ND	ND	ND	ND	0.9	80.2	30.9	46.7	488.8	0
26320	2013-01-28T15:00:00	29.5	ND	ND	ND	ND	ND	0.8	359.4	30.5	47.9	215.1	0
26321	2013-01-28T16:00:00	56.9	ND	ND	ND	ND	ND	2.3	272.2	31	45.1	356.5	0
26322	2013-01-28T17:00:00	31.9	ND	ND	ND	ND	ND	3.3	276.1	30.6	45.5	276.8	0
26323	2013-01-28T18:00:00	34.4	ND	ND	ND	ND	ND	3.9	270.2	29.1	49.8	91.6	0
26324	2013-01-28T19:00:00	29.1	ND	ND	ND	ND	ND	4.2	266.8	27.7	53.2	0.1	0
26325	2013-01-28T20:00:00	34.5	ND	ND	ND	ND	ND	5.1	268.5	27	56	0	0
26326	2013-01-28T21:00:00	19.1	ND	ND	ND	ND	ND	3.3	272.9	26.7	56.4	0	0
26327	2013-01-28T22:00:00	10.9	ND	ND	ND	ND	ND	2.2	293.5	26.4	57.8	0	0
26328	2013-01-28T23:00:00	6.8	ND	ND	ND	ND	ND	1.2	295.1	25.7	61.5	0	0
26329	2013-01-29T00:00:00	14.7	ND	ND	ND	ND	ND	2.2	250.7	25.5	61	0	0
26330	2013-01-29T01:00:00	7.3	ND	ND	ND	ND	ND	0.4	5	24.4	67.9	0	0
26331	2013-01-29T02:00:00	3.7	ND	ND	ND	ND	ND	0.6	133.1	24.1	71.1	0	0
26332	2013-01-29T03:00:00	20.7	ND	ND	ND	ND	ND	0.6	102.1	23.4	74.3	0	0
26333	2013-01-29T04:00:00	27.1	ND	ND	ND	ND	ND	0.4	134.5	22.8	76.9	0	0
26334	2013-01-29T05:00:00	18.5	ND	ND	ND	ND	ND	0.5	142.7	22.6	78.2	0	0
26335	2013-01-29T06:00:00	30.4	ND	ND	ND	ND	ND	0.6	241.4	22.8	73.2	0	0
26336	2013-01-29T07:00:00	29	ND	ND	ND	ND	ND	0.3	85.9	23.1	73.3	1.3	0
26337	2013-01-29T08:00:00	53.1	ND	ND	ND	ND	ND	0.6	159.7	23.3	74.2	66.9	0
26338	2013-01-29T09:00:00	40.7	ND	ND	ND	ND	ND	0.7	93.5	23.8	70.2	195.8	0
26339	2013-01-29T10:00:00	57.9	ND	ND	ND	ND	ND	1.1	139.4	25.7	63.2	463.3	0
26340	2013-01-29T11:00:00	38.6	ND	ND	ND	ND	ND	1	160.8	27.4	57.6	686.3	0
26341	2013-01-29T12:00:00	40.2	ND	ND	ND	ND	ND	1.1	165.6	29.4	50.1	682.8	0
26342	2013-01-29T13:00:00	21.4	ND	ND	ND	ND	ND	1.3	128.1	30.6	46.9	810.5	0
26343	2013-01-29T14:00:00	33.9	ND	ND	ND	ND	ND	0.4	58.6	31.5	43.7	505.7	0
26344	2013-01-29T15:00:00	37.6	ND	ND	ND	ND	ND	1.1	323.9	31.4	43.7	269.3	0
26345	2013-01-29T16:00:00	53.1	ND	ND	ND	ND	ND	4.4	279.6	31	44.2	533.2	0
26346	2013-01-29T17:00:00	30.4	ND	ND	ND	ND	ND	4.9	275	29.8	47.2	290.2	0
26347	2013-01-29T18:00:00	42.6	ND	ND	ND	ND	ND	4.2	282.5	28.6	49.9	89.2	0
26348	2013-01-29T19:00:00	34.1	ND	ND	ND	ND	ND	4.6	277.3	27.3	54.8	0	0
26349	2013-01-29T20:00:00	27	ND	ND	ND	ND	ND	3	285.5	27	55.8	0	0
26350	2013-01-29T21:00:00	14.7	ND	ND	ND	ND	ND	1.9	294.2	27	55	0	0
26351	2013-01-29T22:00:00	23.3	ND	ND	ND	ND	ND	1.7	266.7	26.3	59.4	0	0
26352	2013-01-29T23:00:00	12.2	ND	ND	ND	ND	ND	2	269.9	25.7	61.6	0	0
26353	2013-01-30T00:00:00	13.9	ND	ND	ND	ND	ND	1.4	273.3	25.4	62.7	0	0
26354	2013-01-30T01:00:00	7.7	ND	ND	ND	ND	ND	0.4	279.6	24.7	66.8	0	0
26355	2013-01-30T02:00:00	11.2	ND	ND	ND	ND	ND	0.2	244.9	24	71.5	0	0
26356	2013-01-30T03:00:00	7.7	ND	ND	ND	ND	ND	0.5	176.6	23.7	72.3	0	0
26357	2013-01-30T04:00:00	33.5	ND	ND	ND	ND	ND	0.2	ND	23.8	71.4	0	0
26358	2013-01-30T05:00:00	25.7	ND	ND	ND	ND	ND	0.2	120.3	23.5	72.6	0	0
26359	2013-01-30T06:00:00	35.1	ND	ND	ND	ND	ND	0.7	27.5	23.5	74	0	0
26360	2013-01-30T07:00:00	31.7	ND	ND	ND	ND	ND	0.7	169.9	23.2	75.4	11.4	0
26361	2013-01-30T08:00:00	55.1	ND	ND	ND	ND	ND	0.7	163.9	23.8	72.8	111.3	0
26362	2013-01-30T09:00:00	30.4	ND	ND	ND	ND	ND	1.1	168	25.2	65.4	325	0
26363	2013-01-30T10:00:00	52.6	ND	ND	ND	ND	ND	1.1	158.8	26.9	58.9	545.3	0
26364	2013-01-30T11:00:00	27.6	ND	ND	ND	ND	ND	1.6	125.3	28.5	53.4	773.8	0
26365	2013-01-30T12:00:00	32.9	ND	ND	ND	ND	ND	1.4	97.7	29.3	49.6	500.2	0
26366	2013-01-30T13:00:00	18.2	ND	ND	ND	ND	ND	1	50.5	30.4	47	571.5	0
26367	2013-01-30T14:00:00	30.9	ND	ND	ND	ND	ND	0.9	24.4	31.2	44.3	499.6	0
26368	2013-01-30T15:00:00	29.9	ND	ND	ND	ND	ND	2.9	293.9	31	43.9	670.7	0
26369	2013-01-30T16:00:00	46.7	ND	ND	ND	ND	ND	5.1	283.6	30.1	45.5	551.2	0
26370	2013-01-30T17:00:00	23.9	ND	ND	ND	ND	ND	4.9	281.6	29.7	46.5	340.8	0
26371	2013-01-30T18:00:00	39.8	ND	ND	ND	ND	ND	4.1	280	28.1	50.2	39.5	0
26372	2013-01-30T19:00:00	34	ND	ND	ND	ND	ND	4.2	279	27.3	52.8	0	0
26373	2013-01-30T20:00:00	46.2	ND	ND	ND	ND	ND	3.8	275	26.9	54.3	0	0
26374	2013-01-30T21:00:00	30.2	ND	ND	ND	ND	ND	2.6	277	26.7	54.8	0	0
26375	2013-01-30T22:00:00	27.5	ND	ND	ND	ND	ND	1.9	279.1	26.3	56.8	0	0
26376	2013-01-30T23:00:00	15.1	ND	ND	ND	ND	ND	1.9	272.8	25.7	59.2	0	0
26377	2013-01-31T00:00:00	8.9	ND	ND	ND	ND	ND	0.3	30.8	25.1	63.4	0	0
26378	2013-01-31T01:00:00	14.3	ND	ND	ND	ND	ND	0.6	70.7	23.8	69.4	0	0
26379	2013-01-31T02:00:00	36.7	ND	ND	ND	ND	ND	0.7	177.8	23.9	69.3	0	0
26380	2013-01-31T03:00:00	21.4	ND	ND	ND	ND	ND	1.3	182.2	23.7	70.8	0	0
26381	2013-01-31T04:00:00	34.7	ND	ND	ND	ND	ND	0.4	160.3	23.6	71.2	0	0
26382	2013-01-31T05:00:00	19.2	ND	ND	ND	ND	ND	1.1	173	23.5	71.8	0	0
26383	2013-01-31T06:00:00	54.7	ND	ND	ND	ND	ND	1.1	187.4	22.9	74.5	0	0
26384	2013-01-31T07:00:00	39.9	ND	ND	ND	ND	ND	0.5	214.8	23	72.3	11.5	0
26385	2013-01-31T08:00:00	49.9	ND	ND	ND	ND	ND	0.3	100.5	23.7	69.3	80.5	0
26386	2013-01-31T09:00:00	44.3	ND	ND	ND	ND	ND	0.6	81	25.1	65.9	322	0
26387	2013-01-31T10:00:00	72.9	ND	ND	ND	ND	ND	1.1	124.9	27.1	57.7	552.2	0
26388	2013-01-31T11:00:00	52.6	ND	ND	ND	ND	ND	1	117.5	28.6	52.7	715.2	0
26389	2013-01-31T12:00:00	55	ND	ND	ND	ND	ND	0.6	96.4	29.5	50	516.6	0
26390	2013-01-31T13:00:00	38.6	ND	ND	ND	ND	ND	1.1	339.3	30.6	45.4	542.4	0
26391	2013-01-31T14:00:00	41.3	ND	ND	ND	ND	ND	1.8	303.4	31.1	42.5	511.5	0
26392	2013-01-31T15:00:00	23.2	ND	ND	ND	ND	ND	2.8	292.1	31.7	40.5	679.2	0
26393	2013-01-31T16:00:00	13.2	ND	ND	ND	ND	ND	4.1	281.1	31.3	41.5	553.5	0
26394	2013-01-31T17:00:00	15.2	ND	ND	ND	ND	ND	5	286.8	30	44.6	351.4	0
26395	2013-01-31T18:00:00	29.1	ND	ND	ND	ND	ND	4.2	282.8	28.9	48.1	120.1	0
26396	2013-01-31T19:00:00	30	ND	ND	ND	ND	ND	4.6	277.6	27.7	51.8	0	0
26397	2013-01-31T20:00:00	20.8	ND	ND	ND	ND	ND	4.9	271.6	26.7	57.2	0	0
26398	2013-01-31T21:00:00	12	ND	ND	ND	ND	ND	4	282.6	26.3	58.6	0	0
26399	2013-01-31T22:00:00	16	ND	ND	ND	ND	ND	3.1	268.7	26.3	58	0	0
26400	2013-01-31T23:00:00	9.9	ND	ND	ND	ND	ND	1.6	299.6	26.1	58	0	0
26401	2013-02-01T00:00:00	25.6	ND	ND	ND	ND	ND	1.4	225.4	26	58.3	0	0
26402	2013-02-01T01:00:00	14.8	ND	ND	ND	ND	ND	1.3	150.5	24.6	68.9	0	0
26403	2013-02-01T02:00:00	39.6	ND	ND	ND	ND	ND	1.3	176.9	24.6	68.6	0	0
26404	2013-02-01T03:00:00	33.6	ND	ND	ND	ND	ND	1.1	165.9	24.2	70.6	0	0
26405	2013-02-01T04:00:00	45.2	ND	ND	ND	ND	ND	1.2	153.8	24	71.2	0	0
26406	2013-02-01T05:00:00	24.8	ND	ND	ND	ND	ND	1	168.3	23.9	71.8	0	0
26407	2013-02-01T06:00:00	32.2	ND	ND	ND	ND	ND	1.1	180.3	24	70.4	0	0
26408	2013-02-01T07:00:00	25.8	ND	ND	ND	ND	ND	1.5	244.6	23.7	71.9	7.7	0
26409	2013-02-01T08:00:00	18	ND	ND	ND	ND	ND	1	197.6	24.4	68.6	63.3	0
26410	2013-02-01T09:00:00	28.1	ND	ND	ND	ND	ND	1.4	242.9	25.2	66.1	250.1	0
26411	2013-02-01T10:00:00	39.9	ND	ND	ND	ND	ND	1	155.5	26.6	59.2	455.7	0
26412	2013-02-01T11:00:00	40.5	ND	ND	ND	ND	ND	0.9	128.7	28.9	51.5	873.8	0
26413	2013-02-01T12:00:00	36.3	ND	ND	ND	ND	ND	1.3	7.1	28.7	52.2	296	0
26414	2013-02-01T13:00:00	32.2	ND	ND	ND	ND	ND	0.9	14.1	30.8	45	707.6	0
26415	2013-02-01T14:00:00	30.3	ND	ND	ND	ND	ND	2.7	293.8	30.5	44.9	480	0
26416	2013-02-01T15:00:00	17.6	ND	ND	ND	ND	ND	4.5	282.2	30.2	45.5	663.2	0
26417	2013-02-01T16:00:00	9.7	ND	ND	ND	ND	ND	4.7	291.9	29.8	46.5	627.4	0
26418	2013-02-01T17:00:00	7.4	ND	ND	ND	ND	ND	4.7	288.7	28.2	50.2	195.8	0
26419	2013-02-01T18:00:00	5.4	ND	ND	ND	ND	ND	4.6	284.2	26.9	54.7	35.2	0
26420	2013-02-01T19:00:00	4.7	ND	ND	ND	ND	ND	3.3	266.7	26.1	58.4	0	0
26421	2013-02-01T20:00:00	8.1	ND	ND	ND	ND	ND	3.1	275.6	26	58.7	0	0
26422	2013-02-01T21:00:00	11.7	ND	ND	ND	ND	ND	2.8	260	24.8	66.8	0	0
26423	2013-02-01T22:00:00	8.6	ND	ND	ND	ND	ND	2.2	230.7	24.3	68.2	0	0
26424	2013-02-01T23:00:00	6.8	ND	ND	ND	ND	ND	1.3	240.7	24.5	66.8	0	0
26425	2013-02-02T00:00:00	5.5	ND	ND	ND	ND	ND	0.4	273	24.6	66.9	0	0
26426	2013-02-02T01:00:00	4.1	ND	ND	ND	ND	ND	1.9	7.1	22.6	83.7	0	45.21
26427	2013-02-02T02:00:00	9.7	ND	ND	ND	ND	ND	1.3	26.3	19.8	98.8	0	87.12
26428	2013-02-02T03:00:00	12.9	ND	ND	ND	ND	ND	1.7	9.3	19.8	99.9	0	13.72
26429	2013-02-02T04:00:00	8.9	ND	ND	ND	ND	ND	1.1	15.7	19.9	100	0	7.11
26430	2013-02-02T05:00:00	5.3	ND	ND	ND	ND	ND	0.9	46.1	19.7	100	0	1.78
26431	2013-02-02T06:00:00	11	ND	ND	ND	ND	ND	0.6	31.5	19.9	100	0	1.02
26432	2013-02-02T07:00:00	8	ND	ND	ND	ND	ND	0.1	ND	20.2	100	0	6.6
26433	2013-02-02T08:00:00	14	ND	ND	ND	ND	ND	0.2	ND	20.1	96.8	30.1	3.56
26434	2013-02-02T09:00:00	8.4	ND	ND	ND	ND	ND	0.5	48.3	20.8	92.8	33.7	0.76
26435	2013-02-02T10:00:00	13.9	ND	ND	ND	ND	ND	0.9	85.5	21.1	92.3	119.7	0
26436	2013-02-02T11:00:00	7.8	ND	ND	ND	ND	ND	0.9	67.5	22.3	84.6	244	0.25
26437	2013-02-02T12:00:00	21.9	ND	ND	ND	ND	ND	0.9	72.4	24.2	72.9	504.4	0
26438	2013-02-02T13:00:00	13.1	ND	ND	ND	ND	ND	0.9	63.3	25.5	65.7	516	0
26439	2013-02-02T14:00:00	15.3	ND	ND	ND	ND	ND	1.2	66.8	26.1	65	348.7	0
26440	2013-02-02T15:00:00	8.7	ND	ND	ND	ND	ND	1.6	62.7	25.9	67.1	187.3	0
26441	2013-02-02T16:00:00	47.9	ND	ND	ND	ND	ND	2.2	24.7	26	66.1	174.5	0
26442	2013-02-02T17:00:00	24.8	ND	ND	ND	ND	ND	2.5	9.1	24.6	73.4	147.2	0
26443	2013-02-02T18:00:00	19.5	ND	ND	ND	ND	ND	2.2	7.5	23.5	79.4	76.5	0
26444	2013-02-02T19:00:00	11.9	ND	ND	ND	ND	ND	1.6	23.1	23	80.8	0	0
26445	2013-02-02T20:00:00	19.2	ND	ND	ND	ND	ND	1	71.1	22.9	78.5	0	0
26446	2013-02-02T21:00:00	19.8	ND	ND	ND	ND	ND	0.8	190.2	23.2	76.8	0	0
26447	2013-02-02T22:00:00	29.2	ND	ND	ND	ND	ND	1.4	178.4	22.8	80.4	0	0
26448	2013-02-02T23:00:00	24.7	ND	ND	ND	ND	ND	1.4	181	22.5	81.5	0	0
26449	2013-02-03T00:00:00	30.7	ND	ND	ND	ND	ND	1.1	170.5	22.1	84.7	0	0
26450	2013-02-03T01:00:00	17	ND	ND	ND	ND	ND	0.9	138	22	85.1	0	0
26451	2013-02-03T02:00:00	32.5	ND	ND	ND	ND	ND	0.5	141.5	21.9	85.4	0	0
26452	2013-02-03T03:00:00	17.5	ND	ND	ND	ND	ND	0.8	181.5	21.9	86.2	0	0
26453	2013-02-03T04:00:00	17.6	ND	ND	ND	ND	ND	0.6	250.6	21.9	83.2	0	0
26454	2013-02-03T05:00:00	9.8	ND	ND	ND	ND	ND	0.4	ND	21.5	85.6	0	0
26455	2013-02-03T06:00:00	25.6	ND	ND	ND	ND	ND	0	200.8	21.1	90	0	0
26456	2013-02-03T07:00:00	13.8	ND	ND	ND	ND	ND	0.7	260.2	21.2	82	10.4	0
26457	2013-02-03T08:00:00	9.2	ND	ND	ND	ND	ND	0.7	76.9	22.1	81.3	133.9	0
26458	2013-02-03T09:00:00	17.3	ND	ND	ND	ND	ND	0.6	113.3	23.6	77.4	400.4	0
26459	2013-02-03T10:00:00	48.2	ND	ND	ND	ND	ND	1.2	80.3	25	69.8	585.9	0
26460	2013-02-03T11:00:00	27	ND	ND	ND	ND	ND	0.6	81.1	26.7	61.1	692.2	0
26461	2013-02-03T12:00:00	42.6	ND	ND	ND	ND	ND	1.2	110	27.7	56.1	487	0
26462	2013-02-03T13:00:00	23.5	ND	ND	ND	ND	ND	0.3	32.9	28.4	53.3	624.6	0
26463	2013-02-03T14:00:00	15	ND	ND	ND	ND	ND	0.6	329.1	29.8	48.6	698.3	0
26464	2013-02-03T15:00:00	9.8	ND	ND	ND	ND	ND	1	349.7	29.6	50	231.9	0
26465	2013-02-03T16:00:00	6.1	ND	ND	ND	ND	ND	1.8	285.2	29.1	50	261.5	0
26466	2013-02-03T17:00:00	3.7	ND	ND	ND	ND	ND	3	291.5	28.3	50.4	172.5	0
26467	2013-02-03T18:00:00	6.1	ND	ND	ND	ND	ND	3.1	278.1	26.9	54	11.8	0
26468	2013-02-03T19:00:00	16.9	ND	ND	ND	ND	ND	3.3	274	26.2	55.8	0	0
26469	2013-02-03T20:00:00	9.9	ND	ND	ND	ND	ND	2.5	264.2	25.5	61	0	0
26470	2013-02-03T21:00:00	5.9	ND	ND	ND	ND	ND	3.4	194	23	74.5	0	0
26471	2013-02-03T22:00:00	6.8	ND	ND	ND	ND	ND	1.1	186.9	22.2	81.5	0	0
26472	2013-02-03T23:00:00	4.9	ND	ND	ND	ND	ND	0.1	ND	22.6	81.3	0	0
26473	2013-02-04T00:00:00	6.6	ND	ND	ND	ND	ND	0.6	102.2	22.9	80.1	0	0
26474	2013-02-04T01:00:00	5.7	ND	ND	ND	ND	ND	0.6	80.6	22.6	80.6	0	0
26475	2013-02-04T02:00:00	21.9	ND	ND	ND	ND	ND	0.7	135.6	22.1	83.2	0	0
26476	2013-02-04T03:00:00	13.3	ND	ND	ND	ND	ND	1.1	148.4	21.7	86.1	0	0
26477	2013-02-04T04:00:00	25.9	ND	ND	ND	ND	ND	0.6	145.5	21	93.7	0	4.32
26478	2013-02-04T05:00:00	15.4	ND	ND	ND	ND	ND	0.9	136.2	20.8	95.4	0	3.56
26479	2013-02-04T06:00:00	8.5	ND	ND	ND	ND	ND	0.9	161.9	20.8	94.8	0	0
26480	2013-02-04T07:00:00	5.4	ND	ND	ND	ND	ND	0.8	172.5	21	93.7	4.9	0
26481	2013-02-04T08:00:00	4	ND	ND	ND	ND	ND	0.9	155.9	21.3	90.9	59.9	0.25
26482	2013-02-04T09:00:00	7.2	ND	ND	ND	ND	ND	0.8	150.3	22	87.3	120	0
26483	2013-02-04T10:00:00	29	ND	ND	ND	ND	ND	1.4	143.9	23.1	81.2	315.7	0
26484	2013-02-04T11:00:00	16.3	ND	ND	ND	ND	ND	0.8	166.6	24.7	71.5	403.2	0
26485	2013-02-04T12:00:00	41.2	ND	ND	ND	ND	ND	0.9	170.8	26.4	63.9	682.6	0
26486	2013-02-04T13:00:00	27.6	ND	ND	ND	ND	ND	0.2	26.1	27.7	56.6	486.2	0
26487	2013-02-04T14:00:00	32.6	ND	ND	ND	ND	ND	1.3	293.9	26.8	58.9	142.7	0
26488	2013-02-04T15:00:00	17.1	ND	ND	ND	ND	ND	0.7	238.1	27.1	57.3	266.8	0
26489	2013-02-04T16:00:00	23	ND	ND	ND	ND	ND	1.9	296.8	27.8	51.7	302.8	0
26490	2013-02-04T17:00:00	13.1	ND	ND	ND	ND	ND	2.5	299.3	27.3	52.1	197.6	0
26491	2013-02-04T18:00:00	10.2	ND	ND	ND	ND	ND	0.3	106.2	25.9	61.3	52.3	0
26492	2013-02-04T19:00:00	5.7	ND	ND	ND	ND	ND	1.7	76.3	23.7	77.5	0	0
26493	2013-02-04T20:00:00	28.1	ND	ND	ND	ND	ND	1.3	61.9	22.7	82	0	0
26494	2013-02-04T21:00:00	17.9	ND	ND	ND	ND	ND	1.5	142.1	22	87.6	0	2.03
26495	2013-02-04T22:00:00	24.8	ND	ND	ND	ND	ND	1.5	169.5	21.4	90.2	0	0.25
26496	2013-02-04T23:00:00	14.8	ND	ND	ND	ND	ND	1.3	173.2	21	91.8	0	0
26497	2013-02-05T00:00:00	10.3	ND	ND	ND	ND	ND	0.3	ND	21.4	90.1	0	0
26498	2013-02-05T01:00:00	6.4	ND	ND	ND	ND	ND	0.6	ND	21.7	85.7	0	0
26499	2013-02-05T02:00:00	4.2	ND	ND	ND	ND	ND	0.7	ND	21	89.6	0	0
26500	2013-02-05T03:00:00	4.5	ND	ND	ND	ND	ND	0.5	149.9	20.7	92.9	0	0
26501	2013-02-05T04:00:00	10.5	ND	ND	ND	ND	ND	0.3	ND	20.8	92.3	0	0
26502	2013-02-05T05:00:00	7.3	ND	ND	ND	ND	ND	0.4	109.8	21.1	91.1	0	0
26503	2013-02-05T06:00:00	15	ND	ND	ND	ND	ND	1.3	47.3	20.3	92	0	3.81
26504	2013-02-05T07:00:00	9	ND	ND	ND	ND	ND	0.4	ND	19.9	87.9	5	0.25
26505	2013-02-05T08:00:00	6.7	ND	ND	ND	ND	ND	0.2	ND	21	82.6	80.7	0.25
26506	2013-02-05T09:00:00	3.9	ND	ND	ND	ND	ND	0.4	115.5	22	79.8	205.3	0
26507	2013-02-05T10:00:00	3.9	ND	ND	ND	ND	ND	0.8	139	23.5	74.9	313.5	0
26508	2013-02-05T11:00:00	13.2	ND	ND	ND	ND	ND	1.7	143.6	23.1	79.1	174.2	0
26509	2013-02-05T12:00:00	23.5	ND	ND	ND	ND	ND	1.2	225.1	21.1	91.1	106.6	34.29
26510	2013-02-05T13:00:00	23.4	ND	ND	ND	ND	ND	0.7	170.1	22.3	83.7	306.2	0
26511	2013-02-05T14:00:00	13.1	ND	ND	ND	ND	ND	1.2	25.4	22.9	79.7	209.2	0
26512	2013-02-05T15:00:00	12	ND	ND	ND	ND	ND	1.5	28.6	22.5	82.3	355	0
26513	2013-02-05T16:00:00	33.7	ND	ND	ND	ND	ND	0.8	16.3	23.3	80	241.5	0
26514	2013-02-05T17:00:00	41.1	ND	ND	ND	ND	ND	0.7	39.1	24	74.1	163.6	0
26515	2013-02-05T18:00:00	37.1	ND	ND	ND	ND	ND	0.6	166.6	24.2	70.5	67.7	0
26516	2013-02-05T19:00:00	19.6	ND	ND	ND	ND	ND	0.2	137.3	23.9	71.3	0	0
26517	2013-02-05T20:00:00	53.4	ND	ND	ND	ND	ND	0.4	177.7	23.4	73.8	0	0
26518	2013-02-05T21:00:00	57.7	ND	ND	ND	ND	ND	0.1	ND	23.2	74.5	0	0
26519	2013-02-05T22:00:00	59.9	ND	ND	ND	ND	ND	0.5	68.8	22.6	82.6	0	0
26520	2013-02-05T23:00:00	47.3	ND	ND	ND	ND	ND	0.4	ND	22.4	80.8	0	0
26521	2013-02-06T00:00:00	28.9	ND	ND	ND	ND	ND	0.6	184.1	22.2	83.4	0	0
26522	2013-02-06T01:00:00	15.7	ND	ND	ND	ND	ND	0.3	ND	22	81	0	0
26523	2013-02-06T02:00:00	16.4	ND	ND	ND	ND	ND	0.3	ND	22	82.5	0	0
26524	2013-02-06T03:00:00	17.2	ND	ND	ND	ND	ND	0	ND	21.8	84.9	0	0
26525	2013-02-06T04:00:00	46.5	ND	ND	ND	ND	ND	0	ND	21.7	82.6	0	0
26526	2013-02-06T05:00:00	27.5	ND	ND	ND	ND	ND	0.6	197.2	21.4	85	0	0
26527	2013-02-06T06:00:00	18.4	ND	ND	ND	ND	ND	0.4	183.8	21.2	88.1	0	0
26528	2013-02-06T07:00:00	19.2	ND	ND	ND	ND	ND	0.5	208.4	21.3	84	6.5	0
26529	2013-02-06T08:00:00	32.3	ND	ND	ND	ND	ND	0.1	ND	22	80.7	85.1	0
26530	2013-02-06T09:00:00	34.7	ND	ND	ND	ND	ND	0.7	70.5	22.6	80.4	241	0
26531	2013-02-06T10:00:00	66.7	ND	ND	ND	ND	ND	0.4	94.3	24.4	71.2	401.2	0
26532	2013-02-06T11:00:00	49.9	ND	ND	ND	ND	ND	0.9	112.1	25.2	67.4	540.4	0
26533	2013-02-06T12:00:00	54.2	ND	ND	ND	ND	ND	0.6	150.7	26.7	60.2	677	0
26534	2013-02-06T13:00:00	49.2	ND	ND	ND	ND	ND	1.4	359.5	27.4	56.6	501.8	0
26535	2013-02-06T14:00:00	45.5	ND	ND	ND	ND	ND	1.4	358.5	28.3	53.1	609.3	0
26536	2013-02-06T15:00:00	29.6	ND	ND	ND	ND	ND	1.7	349.3	28.5	51.3	379.6	0
26537	2013-02-06T16:00:00	26.3	ND	ND	ND	ND	ND	1.8	295	28.1	52.3	305.8	0
26538	2013-02-06T17:00:00	ND	ND	ND	ND	ND	ND	2.2	282.1	27.6	53.7	201.5	0
26539	2013-02-06T18:00:00	ND	ND	ND	ND	ND	ND	2.5	271.3	26.6	55.7	66.6	0
26540	2013-02-06T19:00:00	ND	ND	ND	ND	ND	ND	2.5	271.1	25.5	58.7	0	0
26541	2013-02-06T20:00:00	ND	ND	ND	ND	ND	ND	2	278.4	24.9	60.6	0	0
26542	2013-02-06T21:00:00	ND	ND	ND	ND	ND	ND	1.2	299.4	24.8	60.4	0	0
26543	2013-02-06T22:00:00	ND	ND	ND	ND	ND	ND	0.3	124.9	23.7	70.1	0	0
26544	2013-02-06T23:00:00	ND	ND	ND	ND	ND	ND	1.4	236.5	23.8	65.2	0	0
26545	2013-02-07T00:00:00	ND	ND	ND	ND	ND	ND	1.6	223	23.3	69	0	0
26546	2013-02-07T01:00:00	ND	ND	ND	ND	ND	ND	1.4	216	23.2	70	0	0
26547	2013-02-07T02:00:00	ND	ND	ND	ND	ND	ND	1.3	186.3	22.7	78.1	0	0
26548	2013-02-07T03:00:00	100.7	ND	ND	ND	ND	ND	0.9	166.5	22.2	81.1	0	0
26549	2013-02-07T04:00:00	58.6	ND	ND	ND	ND	ND	0.4	185.5	22.1	80.2	0	0
26550	2013-02-07T05:00:00	30	ND	ND	ND	ND	ND	0.3	114.8	22.3	79	0	0
26551	2013-02-07T06:00:00	25.6	ND	ND	ND	ND	ND	0.5	46.4	22.1	81.8	0	0
26552	2013-02-07T07:00:00	39.5	ND	ND	ND	ND	ND	0.5	65.3	22	82	5.2	0
26553	2013-02-07T08:00:00	62	ND	ND	ND	ND	ND	0.4	52	22.6	79	73.1	0
26554	2013-02-07T09:00:00	70.9	ND	ND	ND	ND	ND	0.3	123.7	23.4	75.4	191.9	0
26555	2013-02-07T10:00:00	92.6	ND	ND	ND	ND	ND	0.8	85.3	24.8	68.6	316.8	0
26556	2013-02-07T11:00:00	78	ND	ND	ND	ND	ND	0.7	57.9	26.2	62.4	466.7	0
26557	2013-02-07T12:00:00	66.2	ND	ND	ND	ND	ND	0.3	53.3	27.3	56.5	506.9	0
26558	2013-02-07T13:00:00	51.8	ND	ND	ND	ND	ND	0.8	6.7	28.5	51.7	616.5	0
26559	2013-02-07T14:00:00	39.9	ND	ND	ND	ND	ND	0.9	302.7	29.9	45.9	857.4	0
26560	2013-02-07T15:00:00	21.9	ND	ND	ND	ND	ND	0.8	312.2	30.2	44.4	376.9	0
26561	2013-02-07T16:00:00	11.9	ND	ND	ND	ND	ND	4.4	282.5	29.9	44.7	625	0
26562	2013-02-07T17:00:00	7.4	ND	ND	ND	ND	ND	4.5	284.8	28.6	48.4	392.9	0
26563	2013-02-07T18:00:00	16.3	ND	ND	ND	ND	ND	4.2	278.9	26.8	53.3	62.9	0
26564	2013-02-07T19:00:00	8.9	ND	ND	ND	ND	ND	4.7	278.7	25.8	56.6	0.1	0
26565	2013-02-07T20:00:00	ND	ND	ND	ND	ND	ND	6	272.1	25.1	59.2	0	0
26566	2013-02-07T21:00:00	ND	ND	ND	ND	ND	ND	3.4	274.1	25.1	59	0	0
26567	2013-02-07T22:00:00	ND	ND	ND	ND	ND	ND	3.2	260.8	24.7	61.2	0	0
26568	2013-02-07T23:00:00	ND	ND	ND	ND	ND	ND	2.2	254	24.5	61.4	0	0
26569	2013-02-08T00:00:00	ND	ND	ND	ND	ND	ND	1.2	208.7	24.5	64.8	0	0
26570	2013-02-08T01:00:00	126.6	ND	ND	ND	ND	ND	0.8	120.7	23.5	72.2	0	0
26571	2013-02-08T02:00:00	76.5	ND	ND	ND	ND	ND	0.9	126.8	22.7	75.8	0	0
26572	2013-02-08T03:00:00	40.6	ND	ND	ND	ND	ND	0.7	85.5	22.5	76.9	0	0
26573	2013-02-08T04:00:00	34.1	ND	ND	ND	ND	ND	0.3	ND	22.5	77.8	0	0
26574	2013-02-08T05:00:00	17.8	ND	ND	ND	ND	ND	0.5	100.3	22.5	78.2	0	0
26575	2013-02-08T06:00:00	11.3	ND	ND	ND	ND	ND	0.8	97.4	22.5	77.3	0	0
26576	2013-02-08T07:00:00	7.2	ND	ND	ND	ND	ND	0.9	64	22	80.1	0.9	0
26577	2013-02-08T08:00:00	32.1	ND	ND	ND	ND	ND	0.9	61.1	22.1	78.4	31	0
26578	2013-02-08T09:00:00	54.3	ND	ND	ND	ND	ND	0.7	104.6	22.5	77.6	83.6	0
26579	2013-02-08T10:00:00	49.5	ND	ND	ND	ND	ND	1.7	125.4	22	82	117.6	0
26580	2013-02-08T11:00:00	34.1	ND	ND	ND	ND	ND	1	144.6	21.9	85.1	198.4	0
26581	2013-02-08T12:00:00	27.5	ND	ND	ND	ND	ND	0.6	114.1	23.3	78.1	350.4	0
26582	2013-02-08T13:00:00	24.4	ND	ND	ND	ND	ND	1.1	113.1	25.4	67.4	451.2	0
26583	2013-02-08T14:00:00	28.7	ND	ND	ND	ND	ND	0.5	310.8	27.3	56.9	619.2	0
26584	2013-02-08T15:00:00	15.8	ND	ND	ND	ND	ND	4	282.9	28	49.8	610.9	0
26585	2013-02-08T16:00:00	8.5	ND	ND	ND	ND	ND	2.8	284	28.5	47.2	520.5	0
26586	2013-02-08T17:00:00	5.3	ND	ND	ND	ND	ND	2	12.4	26	60.8	69.3	0
26587	2013-02-08T18:00:00	10.9	ND	ND	ND	ND	ND	1.5	320.2	25.9	55.7	18.5	0
26588	2013-02-08T19:00:00	23.7	ND	ND	ND	ND	ND	1.5	194.4	25.2	62.7	0	0
26589	2013-02-08T20:00:00	18.7	ND	ND	ND	ND	ND	2.3	181.5	23.5	75.5	0	0
26590	2013-02-08T21:00:00	10.9	ND	ND	ND	ND	ND	2.1	187.5	23.3	75.2	0	0
26591	2013-02-08T22:00:00	22.1	ND	ND	ND	ND	ND	1.4	196	23.1	75.4	0	0
26592	2013-02-08T23:00:00	12.7	ND	ND	ND	ND	ND	1.2	146.7	22.9	76.9	0	0
26593	2013-02-09T00:00:00	11.1	ND	ND	ND	ND	ND	0.7	136.2	21.9	84.3	0	0
26594	2013-02-09T01:00:00	18.1	ND	ND	ND	ND	ND	0.8	79.9	21.9	84.6	0	0
26595	2013-02-09T02:00:00	26.5	ND	ND	ND	ND	ND	1.3	61.3	20.7	93.9	0	30.73
26596	2013-02-09T03:00:00	14.5	ND	ND	ND	ND	ND	0.2	ND	19.5	99.4	0	29.46
26597	2013-02-09T04:00:00	13.6	ND	ND	ND	ND	ND	1	179.7	19.5	100	0	0.25
26598	2013-02-09T05:00:00	9.3	ND	ND	ND	ND	ND	0.7	176.1	19.9	99	0	0.25
26599	2013-02-09T06:00:00	5.2	ND	ND	ND	ND	ND	0.7	121	20.2	95.8	0	1.52
26600	2013-02-09T07:00:00	6.6	ND	ND	ND	ND	ND	0.2	ND	20	95.5	0	2.54
26601	2013-02-09T08:00:00	3.9	ND	ND	ND	ND	ND	0.9	152.8	20.3	94.5	11.1	0
26602	2013-02-09T09:00:00	19.5	ND	ND	ND	ND	ND	1.3	172.5	20.8	91.5	88	0.25
26603	2013-02-09T10:00:00	10.6	ND	ND	ND	ND	ND	1.6	185.1	21.9	83.8	230.6	0
26604	2013-02-09T11:00:00	16.2	ND	ND	ND	ND	ND	1.6	146.6	22.8	79.5	236	0
26605	2013-02-09T12:00:00	21.5	ND	ND	ND	ND	ND	1.5	136.9	23.7	74.7	408.4	0
26606	2013-02-09T13:00:00	17.5	ND	ND	ND	ND	ND	0.9	209.8	24.4	70.4	414	0
26607	2013-02-09T14:00:00	10.1	ND	ND	ND	ND	ND	1.9	241.1	24.9	67.3	556.2	0
26608	2013-02-09T15:00:00	ND	ND	ND	ND	ND	ND	1.3	230.2	25.6	61.9	352.1	0
26609	2013-02-09T16:00:00	ND	ND	ND	ND	ND	ND	1	251.5	25.5	61.3	193.8	0
26610	2013-02-09T17:00:00	ND	ND	ND	ND	ND	ND	1.6	280.6	25.5	60.3	136.5	0
26611	2013-02-09T18:00:00	ND	ND	ND	ND	ND	ND	2.1	40.3	23.6	78.5	22.9	0
26612	2013-02-09T19:00:00	ND	ND	ND	ND	ND	ND	1.5	1.7	21.9	86.8	0	0
26613	2013-02-09T20:00:00	ND	ND	ND	ND	ND	ND	1	330.2	22.1	83	0	0
26614	2013-02-09T21:00:00	98.3	ND	ND	ND	ND	ND	1.5	188.3	22.3	81.8	0	0
26615	2013-02-09T22:00:00	74.3	ND	ND	ND	ND	ND	0.6	219.9	22.1	78.5	0	0
26616	2013-02-09T23:00:00	45.5	ND	ND	ND	ND	ND	0.2	146.4	22.2	78	0	0
26617	2013-02-10T00:00:00	38.7	ND	ND	ND	ND	ND	0.7	135	21	84.1	0	0
26618	2013-02-10T01:00:00	30.5	ND	ND	ND	ND	ND	0.4	114	20.4	86.6	0	0
26619	2013-02-10T02:00:00	35.9	ND	ND	ND	ND	ND	0.5	129.1	20.1	87.6	0	0
26620	2013-02-10T03:00:00	20	ND	ND	ND	ND	ND	0.6	189.7	20.3	86.3	0	0
26621	2013-02-10T04:00:00	11.8	ND	ND	ND	ND	ND	0.9	258.7	20.6	85	0	0
26622	2013-02-10T05:00:00	7	ND	ND	ND	ND	ND	0.6	152.1	20.7	84.8	0	0
26623	2013-02-10T06:00:00	19.5	ND	ND	ND	ND	ND	0.6	129.6	20.3	88.7	0	0
26624	2013-02-10T07:00:00	11.8	ND	ND	ND	ND	ND	0.1	ND	20	90.5	8.3	0
26625	2013-02-10T08:00:00	21.9	ND	ND	ND	ND	ND	0.2	ND	20.6	88	70.6	0
26626	2013-02-10T09:00:00	12.6	ND	ND	ND	ND	ND	0.3	82.5	21.6	83.8	165.1	0
26627	2013-02-10T10:00:00	31.6	ND	ND	ND	ND	ND	0.4	66.1	23.1	76.7	468.6	0
26628	2013-02-10T11:00:00	29.2	ND	ND	ND	ND	ND	1.3	91.5	25.5	64.4	816	0
26629	2013-02-10T12:00:00	22.2	ND	ND	ND	ND	ND	1.2	61.3	26.9	57.6	637.7	0
26630	2013-02-10T13:00:00	13.2	ND	ND	ND	ND	ND	0.4	176.7	27.3	54.6	442.7	0
26631	2013-02-10T14:00:00	7.2	ND	ND	ND	ND	ND	0.9	268.7	26.9	56.8	232.4	0
26632	2013-02-10T15:00:00	6.6	ND	ND	ND	ND	ND	2.5	336.2	23.6	71.5	204.5	0.76
26633	2013-02-10T16:00:00	18.1	ND	ND	ND	ND	ND	1.4	311.3	26.2	60.7	422.3	0
26634	2013-02-10T17:00:00	9.1	ND	ND	ND	ND	ND	2.2	289.1	26.4	56	177.8	0
26635	2013-02-10T18:00:00	4.5	ND	ND	ND	ND	ND	1.3	274.9	25.6	57.9	28.8	0
26636	2013-02-10T19:00:00	3	ND	ND	ND	ND	ND	1.7	272.3	24.9	59.1	0	0
26637	2013-02-10T20:00:00	1.5	ND	ND	ND	ND	ND	0.7	201.3	23.9	68.7	0	0
26638	2013-02-10T21:00:00	11.8	ND	ND	ND	ND	ND	2.3	192.9	22.7	73.7	0	0
26639	2013-02-10T22:00:00	11.9	ND	ND	ND	ND	ND	1.4	198.8	22.6	73.6	0	0
26640	2013-02-10T23:00:00	15	ND	ND	ND	ND	ND	0.6	232.4	22.4	73.4	0	0
26641	2013-02-11T00:00:00	16.5	ND	ND	ND	ND	ND	0.6	270.1	22	73.6	0	0
26642	2013-02-11T01:00:00	9.9	ND	ND	ND	ND	ND	0.4	50.4	21.2	79	0	0
26643	2013-02-11T02:00:00	10.9	ND	ND	ND	ND	ND	0.3	ND	20.4	82	0	0
26644	2013-02-11T03:00:00	12.7	ND	ND	ND	ND	ND	0.1	ND	20.5	82.8	0	0
26645	2013-02-11T04:00:00	26.7	ND	ND	ND	ND	ND	0.6	18.8	20.5	82.9	0	0
26646	2013-02-11T05:00:00	15.5	ND	ND	ND	ND	ND	0.1	ND	20.6	82.6	0	0
26647	2013-02-11T06:00:00	39.8	ND	ND	ND	ND	ND	0.8	236.5	20.5	79.3	0	0
26648	2013-02-11T07:00:00	20.5	ND	ND	ND	ND	ND	0.5	239.2	20.4	79.2	6.6	0
26649	2013-02-11T08:00:00	26.3	ND	ND	ND	ND	ND	0.2	ND	21.2	76.1	81.8	0
26650	2013-02-11T09:00:00	41.6	ND	ND	ND	ND	ND	0.7	156.7	21.9	75.3	92.9	0
26651	2013-02-11T10:00:00	79.4	ND	ND	ND	ND	ND	0.8	154.1	23.1	69.8	433.8	0
26652	2013-02-11T11:00:00	55.6	ND	ND	ND	ND	ND	1	109.8	25.4	60.2	652.2	0
26653	2013-02-11T12:00:00	56.8	ND	ND	ND	ND	ND	0.7	133.5	27	55.5	823.3	0
26654	2013-02-11T13:00:00	39.2	ND	ND	ND	ND	ND	0.8	78.4	28.1	50.9	598.6	0
26655	2013-02-11T14:00:00	52.1	ND	ND	ND	ND	ND	0.4	97	28.8	48.1	578.4	0
26656	2013-02-11T15:00:00	34	ND	ND	ND	ND	ND	0.4	117.9	27.8	54.2	112.4	4.06
26657	2013-02-11T16:00:00	54.2	ND	ND	ND	ND	ND	0.9	300.2	22	84.2	55.3	65.53
26658	2013-02-11T17:00:00	46.5	ND	ND	ND	ND	ND	2	271.7	25.3	62.6	124.8	0
26659	2013-02-11T18:00:00	25.4	ND	ND	ND	ND	ND	1.5	284	25.4	59.2	68.4	0
26660	2013-02-11T19:00:00	29.4	ND	ND	ND	ND	ND	2.1	288.8	24.9	57.6	3	0
26661	2013-02-11T20:00:00	30.2	ND	ND	ND	ND	ND	1.3	287.5	24.4	58.9	0	0
26662	2013-02-11T21:00:00	17.1	ND	ND	ND	ND	ND	1.1	225.8	23.5	67.8	0	0
26663	2013-02-11T22:00:00	35.9	ND	ND	ND	ND	ND	0.5	147.1	22.8	75.3	0	0
26664	2013-02-11T23:00:00	70.8	ND	ND	ND	ND	ND	0.8	211.9	22.4	70	0	0
26665	2013-02-12T00:00:00	38.4	ND	ND	ND	ND	ND	0.4	195.3	22.3	78.7	0	0
26666	2013-02-12T01:00:00	52.3	ND	ND	ND	ND	ND	0.3	ND	22.2	77.8	0	0
26667	2013-02-12T02:00:00	50.9	ND	ND	ND	ND	ND	0.3	ND	22.3	72.6	0	0
26668	2013-02-12T03:00:00	27.1	ND	ND	ND	ND	ND	0.8	18.5	21.8	80.2	0	0
26669	2013-02-12T04:00:00	56	ND	ND	ND	ND	ND	0.3	ND	21.5	81.7	0	0
26670	2013-02-12T05:00:00	35.6	ND	ND	ND	ND	ND	0.5	9.2	21.5	82.4	0	0
26671	2013-02-12T06:00:00	56.1	ND	ND	ND	ND	ND	0.2	ND	21.4	82.5	0	0
26672	2013-02-12T07:00:00	57	ND	ND	ND	ND	ND	0.4	78.9	21.3	84.9	8.5	0
26673	2013-02-12T08:00:00	84.5	ND	ND	ND	ND	ND	1	127.3	21.5	84	53.9	0
26674	2013-02-12T09:00:00	91.1	ND	ND	ND	ND	ND	1.1	131.1	21.4	83.7	80.1	0
26675	2013-02-12T10:00:00	63.9	ND	ND	ND	ND	ND	1.2	139.4	22	81.2	156.3	0
26676	2013-02-12T11:00:00	55.7	ND	ND	ND	ND	ND	0.8	161.5	22.9	75.3	306	0
26677	2013-02-12T12:00:00	42.4	ND	ND	ND	ND	ND	1	197.5	24.2	70	453.5	0
26678	2013-02-12T13:00:00	22	ND	ND	ND	ND	ND	0.9	34.5	24.4	67.6	276.4	0
26679	2013-02-12T14:00:00	24.4	ND	ND	ND	ND	ND	1.8	21.7	23.2	73	222.5	0
26680	2013-02-12T15:00:00	19	ND	ND	ND	ND	ND	1	96.2	23.5	72.9	235.9	0
26681	2013-02-12T16:00:00	40	ND	ND	ND	ND	ND	1.9	190.4	23	76.1	157.7	0
26682	2013-02-12T17:00:00	20.8	ND	ND	ND	ND	ND	1.7	176.1	23.3	71.7	79	0
26683	2013-02-12T18:00:00	42.2	ND	ND	ND	ND	ND	1.5	165.7	22.9	72.6	27.5	0
26684	2013-02-12T19:00:00	43.3	ND	ND	ND	ND	ND	1.5	149.6	21.9	83.5	0	0
26685	2013-02-12T20:00:00	55.3	ND	ND	ND	ND	ND	1	125.1	21.8	80.8	0	0
26686	2013-02-12T21:00:00	39.6	ND	ND	ND	ND	ND	0.6	168.9	21.6	83.2	0	0
26687	2013-02-12T22:00:00	53.6	ND	ND	ND	ND	ND	1	206.5	21.7	81.3	0	0
26688	2013-02-12T23:00:00	27.3	ND	ND	ND	ND	ND	0.8	174.9	21.5	84.3	0	0
26689	2013-02-13T00:00:00	42.5	ND	ND	ND	ND	ND	0.8	176.5	21.3	84.4	0	0
26690	2013-02-13T01:00:00	25.5	ND	ND	ND	ND	ND	0.3	ND	21.2	84.2	0	0
26691	2013-02-13T02:00:00	13.8	ND	ND	ND	ND	ND	0.4	ND	21.1	84.3	0	0
26692	2013-02-13T03:00:00	8.1	ND	ND	ND	ND	ND	0.1	ND	20.8	81.8	0	0
26693	2013-02-13T04:00:00	40.2	ND	ND	ND	ND	ND	0.2	ND	20.5	80.2	0	0
26694	2013-02-13T05:00:00	23.1	ND	ND	ND	ND	ND	0.3	ND	20.1	83.4	0	0
26695	2013-02-13T06:00:00	53.5	ND	ND	ND	ND	ND	1.1	253.3	19.8	73.2	0	0
26696	2013-02-13T07:00:00	28.9	ND	ND	ND	ND	ND	0.7	16.9	19.8	78.9	6	0
26697	2013-02-13T08:00:00	56.1	ND	ND	ND	ND	ND	0.8	10.9	20	87.8	65.5	0
26698	2013-02-13T09:00:00	58.3	ND	ND	ND	ND	ND	0.7	87.7	21.4	82.2	286.3	0
26699	2013-02-13T10:00:00	71.9	ND	ND	ND	ND	ND	1.2	130.8	23.4	72.7	639.5	0
26700	2013-02-13T11:00:00	58.5	ND	ND	ND	ND	ND	1.2	131.4	24.9	64.5	707.2	0
26701	2013-02-13T12:00:00	40.2	ND	ND	ND	ND	ND	1.3	124	26.2	58.6	660.9	0
26702	2013-02-13T13:00:00	33.7	ND	ND	ND	ND	ND	1.3	109.5	27.1	55.1	616.3	0
26703	2013-02-13T14:00:00	ND	ND	ND	ND	ND	ND	1.2	93.8	28.3	50.4	677.4	0
26704	2013-02-13T15:00:00	ND	ND	ND	ND	ND	ND	1.2	285.4	28.7	46.8	474.3	0
26705	2013-02-13T16:00:00	ND	ND	ND	ND	ND	ND	3.6	280.5	28.9	44.2	563	0
26706	2013-02-13T17:00:00	ND	ND	ND	ND	ND	ND	4	281.1	27.8	47.6	369	0
26707	2013-02-13T18:00:00	ND	ND	ND	ND	ND	ND	4.3	280.2	26.4	50.8	71	0
26708	2013-02-13T19:00:00	82.8	ND	ND	ND	ND	ND	4.1	280.9	25.6	53.9	0	0
26709	2013-02-13T20:00:00	64.7	ND	ND	ND	ND	ND	2.5	279.3	25.1	56	0	0
26710	2013-02-13T21:00:00	34.2	ND	ND	ND	ND	ND	1.1	275.6	24.7	58.2	0	0
26711	2013-02-13T22:00:00	19	ND	ND	ND	ND	ND	2.8	261.1	24	61.8	0	0
26712	2013-02-13T23:00:00	19.4	ND	ND	ND	ND	ND	2.8	256	23.7	62.4	0	0
26713	2013-02-14T00:00:00	27.8	ND	ND	ND	ND	ND	1.3	232.6	23.2	63.1	0	0
26714	2013-02-14T01:00:00	15.2	ND	ND	ND	ND	ND	1.5	181.4	22.2	71.8	0	0
26715	2013-02-14T02:00:00	25.8	ND	ND	ND	ND	ND	0.1	93	21.6	75.3	0	0
26716	2013-02-14T03:00:00	40	ND	ND	ND	ND	ND	1	53.1	21.4	77	0	0
26717	2013-02-14T04:00:00	54.6	ND	ND	ND	ND	ND	0.2	ND	21.4	76.7	0	0
26718	2013-02-14T05:00:00	43.8	ND	ND	ND	ND	ND	0.6	145.9	21.5	76.7	0	0
26719	2013-02-14T06:00:00	41.7	ND	ND	ND	ND	ND	0.5	197.1	21.2	79.3	0	0
26720	2013-02-14T07:00:00	32.1	ND	ND	ND	ND	ND	1.5	176.9	20.5	85.4	4.1	1.27
26721	2013-02-14T08:00:00	44.1	ND	ND	ND	ND	ND	1.3	161.9	20.1	91.3	74.7	2.29
26722	2013-02-14T09:00:00	30.3	ND	ND	ND	ND	ND	1.4	159.1	20.5	90.3	95.2	0.25
26723	2013-02-14T10:00:00	23.2	ND	ND	ND	ND	ND	1.2	155.3	21.2	85.6	207.9	0
26724	2013-02-14T11:00:00	12.9	ND	ND	ND	ND	ND	0.5	165.8	23.4	73.9	576.5	0
26725	2013-02-14T12:00:00	7.9	ND	ND	ND	ND	ND	0.8	21.6	25.3	64.4	625.2	0
26726	2013-02-14T13:00:00	10.9	ND	ND	ND	ND	ND	0.7	70.5	26.7	56.9	715.7	0
26727	2013-02-14T14:00:00	15.6	ND	ND	ND	ND	ND	0.7	66.1	27	54.1	416.2	0
26728	2013-02-14T15:00:00	8.5	ND	ND	ND	ND	ND	1.6	90.6	27.5	53	410	0
26729	2013-02-14T16:00:00	21.1	ND	ND	ND	ND	ND	1.4	50.2	27.8	51	298.8	0
26730	2013-02-14T17:00:00	ND	ND	ND	ND	ND	ND	2.5	38.4	27.2	51.8	185.4	0
26731	2013-02-14T18:00:00	ND	ND	ND	ND	ND	ND	1.3	45.9	26.3	56	43.2	0
26732	2013-02-14T19:00:00	ND	ND	ND	ND	ND	ND	0.6	250	25.6	55.4	0	0
26733	2013-02-14T20:00:00	ND	ND	ND	ND	ND	ND	1.3	253.9	25	57.4	0	0
26734	2013-02-14T21:00:00	107.7	ND	ND	ND	ND	ND	1.5	268	24.5	59.9	0	0
26735	2013-02-14T22:00:00	82.3	ND	ND	ND	ND	ND	1.4	226.1	23.8	65.5	0	0
26736	2013-02-14T23:00:00	55.8	ND	ND	ND	ND	ND	1.5	232.9	23	65.7	0	0
26737	2013-02-15T00:00:00	32.8	ND	ND	ND	ND	ND	0.8	227.9	22.4	66.9	0	0
26738	2013-02-15T01:00:00	17.6	ND	ND	ND	ND	ND	0.4	248.6	21.9	72	0	0
26739	2013-02-15T02:00:00	11	ND	ND	ND	ND	ND	0.8	262.6	21.7	69.8	0	0
26740	2013-02-15T03:00:00	13.7	ND	ND	ND	ND	ND	0.2	ND	21.7	72.9	0	0
26741	2013-02-15T04:00:00	8.2	ND	ND	ND	ND	ND	0.4	30.5	21.3	79.2	0	0
26742	2013-02-15T05:00:00	36.2	ND	ND	ND	ND	ND	0.7	32.5	20.7	82.5	0	0
26743	2013-02-15T06:00:00	49.9	ND	ND	ND	ND	ND	0.8	63.3	20	87.5	0	0
26744	2013-02-15T07:00:00	122	ND	ND	ND	ND	ND	0	107	20	85.8	13.4	0
26745	2013-02-15T08:00:00	ND	ND	ND	ND	ND	ND	0.7	80.4	20.7	79.2	79.8	0
26746	2013-02-15T09:00:00	ND	ND	ND	ND	ND	ND	0.8	94.9	21.8	75.1	209.3	0
26747	2013-02-15T10:00:00	ND	ND	ND	ND	ND	ND	0.9	65.9	23.3	70	495.6	0
26748	2013-02-15T11:00:00	116.1	ND	ND	ND	ND	ND	1.4	62.6	25.8	60.3	746.5	0
26749	2013-02-15T12:00:00	98.1	ND	ND	ND	ND	ND	1.4	100.9	27.2	53.9	780.9	0
26750	2013-02-15T13:00:00	57.6	ND	ND	ND	ND	ND	1.3	102.1	28.6	48.7	923.6	0
26751	2013-02-15T14:00:00	55.9	ND	ND	ND	ND	ND	1.4	90.4	29.6	46.2	848.3	0
26752	2013-02-15T15:00:00	34.5	ND	ND	ND	ND	ND	1.3	81.6	30.3	44	684.5	0
26753	2013-02-15T16:00:00	69.9	ND	ND	ND	ND	ND	1.3	79.7	30.5	43.8	314.7	0
26754	2013-02-15T17:00:00	70.4	ND	ND	ND	ND	ND	1	51	29.9	44.2	236.4	0
26755	2013-02-15T18:00:00	73.1	ND	ND	ND	ND	ND	3.3	280.6	28.3	51.6	116	0
26756	2013-02-15T19:00:00	39	ND	ND	ND	ND	ND	3.7	268.2	26.7	55.6	2	0
26757	2013-02-15T20:00:00	56.5	ND	ND	ND	ND	ND	3.7	271.3	26	57.6	0	0
26758	2013-02-15T21:00:00	54.3	ND	ND	ND	ND	ND	3.1	267	25.8	58.1	0	0
26759	2013-02-15T22:00:00	51.8	ND	ND	ND	ND	ND	0.2	337.7	25	62.9	0	0
26760	2013-02-15T23:00:00	63.3	ND	ND	ND	ND	ND	1	186.7	24.3	65.4	0	0
26761	2013-02-16T00:00:00	78.3	ND	ND	ND	ND	ND	1.6	189.5	23.6	70.7	0	0
26762	2013-02-16T01:00:00	63.6	ND	ND	ND	ND	ND	0.6	170.5	22.8	74.5	0	0
26763	2013-02-16T02:00:00	65.6	ND	ND	ND	ND	ND	0.7	197.6	22.8	77.5	0	0
26764	2013-02-16T03:00:00	40.1	ND	ND	ND	ND	ND	0.8	184.3	22.7	75.8	0	0
26765	2013-02-16T04:00:00	54	ND	ND	ND	ND	ND	0.8	107.4	21.7	80.2	0	0
26766	2013-02-16T05:00:00	52	ND	ND	ND	ND	ND	0.4	139.3	21.1	81.2	0	0
26767	2013-02-16T06:00:00	63	ND	ND	ND	ND	ND	0.5	148.6	21.4	79.2	0	0
26768	2013-02-16T07:00:00	38.7	ND	ND	ND	ND	ND	0.3	47	21.5	79.4	6.9	0
26769	2013-02-16T08:00:00	84.9	ND	ND	ND	ND	ND	0.6	89.8	21.9	79.1	82.9	0
26770	2013-02-16T09:00:00	106.9	ND	ND	ND	ND	ND	1.1	154.1	22.9	74.7	239.7	0
26771	2013-02-16T10:00:00	77.8	ND	ND	ND	ND	ND	1.5	164.4	24.8	66.4	556.6	0
26772	2013-02-16T11:00:00	67.1	ND	ND	ND	ND	ND	1.5	160.5	27	58.2	746.3	0
26773	2013-02-16T12:00:00	56.6	ND	ND	ND	ND	ND	1.4	131	28.1	53.7	746.4	0
26774	2013-02-16T13:00:00	37.8	ND	ND	ND	ND	ND	0.6	95.6	29.8	48.8	586.4	0
26775	2013-02-16T14:00:00	62.9	ND	ND	ND	ND	ND	0.1	135.7	29.7	48	419.1	0
26776	2013-02-16T15:00:00	50.8	ND	ND	ND	ND	ND	1.8	314.4	30.9	43	818.2	0
26777	2013-02-16T16:00:00	26.9	ND	ND	ND	ND	ND	4.7	280.8	29.8	45.4	622.1	0
26778	2013-02-16T17:00:00	15.8	ND	ND	ND	ND	ND	4.5	279.9	28.4	48.6	242.6	0
26779	2013-02-16T18:00:00	20.3	ND	ND	ND	ND	ND	4	281.1	26.8	53.4	41.8	0
26780	2013-02-16T19:00:00	10.8	ND	ND	ND	ND	ND	4.8	267.3	26	55.7	0.3	0
26781	2013-02-16T20:00:00	7.8	ND	ND	ND	ND	ND	3.1	262.4	25.5	57.5	0	0
26782	2013-02-16T21:00:00	4.8	ND	ND	ND	ND	ND	2.2	269.1	25.4	58.1	0	0
26783	2013-02-16T22:00:00	3.9	ND	ND	ND	ND	ND	0.7	311.2	25	61.4	0	0
26784	2013-02-16T23:00:00	13.6	ND	ND	ND	ND	ND	0.7	38.7	24.4	68.5	0	0
26785	2013-02-17T00:00:00	23.5	ND	ND	ND	ND	ND	0.9	48.6	23.7	73	0	0
26786	2013-02-17T01:00:00	25.1	ND	ND	ND	ND	ND	0.7	145.2	23.3	76.9	0	0
26787	2013-02-17T02:00:00	38.6	ND	ND	ND	ND	ND	0.9	104.7	23.2	75.9	0	0
26788	2013-02-17T03:00:00	21.3	ND	ND	ND	ND	ND	1.2	163.6	22.7	79.6	0	0
26789	2013-02-17T04:00:00	27	ND	ND	ND	ND	ND	0.5	46	22.6	79.5	0	0
26790	2013-02-17T05:00:00	15	ND	ND	ND	ND	ND	0.9	85.2	21.8	84.5	0	0
26791	2013-02-17T06:00:00	31.7	ND	ND	ND	ND	ND	0.7	140	22	81.9	0	0
26792	2013-02-17T07:00:00	17.8	ND	ND	ND	ND	ND	0.3	ND	22.1	81.9	4.6	0
26793	2013-02-17T08:00:00	33.9	ND	ND	ND	ND	ND	0.8	125.8	22.1	82.7	53.5	0
26794	2013-02-17T09:00:00	17.6	ND	ND	ND	ND	ND	0.7	121.4	23	79.1	231.9	0
26795	2013-02-17T10:00:00	34.3	ND	ND	ND	ND	ND	0.7	125	25.2	67.7	523.2	0
26796	2013-02-17T11:00:00	18.1	ND	ND	ND	ND	ND	1.2	347	25	70.5	284.4	0.76
26797	2013-02-17T12:00:00	19.2	ND	ND	ND	ND	ND	0.9	284.8	25.7	63	241.2	0
26798	2013-02-17T13:00:00	10.3	ND	ND	ND	ND	ND	1.4	42	26.5	57.8	309.3	0
26799	2013-02-17T14:00:00	13	ND	ND	ND	ND	ND	1.4	46.1	23.1	79.2	90.1	13.46
26800	2013-02-17T15:00:00	6.5	ND	ND	ND	ND	ND	0.5	0.4	21.3	90	159.3	8.13
26801	2013-02-17T16:00:00	20.2	ND	ND	ND	ND	ND	0.2	317.9	25.2	66.4	580.3	0.25
26802	2013-02-17T17:00:00	10.1	ND	ND	ND	ND	ND	1.4	265.9	25.7	60.4	180.3	0
26803	2013-02-17T18:00:00	5	ND	ND	ND	ND	ND	2.3	270	24.8	59.9	27.9	0
26804	2013-02-17T19:00:00	4.3	ND	ND	ND	ND	ND	2.3	230.5	24.1	64.7	0	0
26805	2013-02-17T20:00:00	3.7	ND	ND	ND	ND	ND	1.5	72.3	22.3	76.6	0	0
26806	2013-02-17T21:00:00	4.1	ND	ND	ND	ND	ND	1.2	72.8	20.2	89.4	0	4.57
26807	2013-02-17T22:00:00	11	ND	ND	ND	ND	ND	0.3	171	19.9	92.9	0	7.87
26808	2013-02-17T23:00:00	6.1	ND	ND	ND	ND	ND	1.5	200.3	20.1	93	0	1.27
26809	2013-02-18T00:00:00	4.2	ND	ND	ND	ND	ND	1.5	163.3	20	94.1	0	0.25
26810	2013-02-18T01:00:00	4.4	ND	ND	ND	ND	ND	1.1	150	19.5	95.1	0	0
26811	2013-02-18T02:00:00	2.9	ND	ND	ND	ND	ND	1	185.2	19.7	92.9	0	0
26812	2013-02-18T03:00:00	3	ND	ND	ND	ND	ND	0.8	169.2	19.8	91.3	0	0.25
26813	2013-02-18T04:00:00	3.7	ND	ND	ND	ND	ND	0.3	170.1	19.8	90.6	0	0
26814	2013-02-18T05:00:00	4.2	ND	ND	ND	ND	ND	0.4	32.3	20	89.6	0	0
26815	2013-02-18T06:00:00	9.4	ND	ND	ND	ND	ND	0.8	61.6	19.8	92.6	0	0
26816	2013-02-18T07:00:00	27.9	ND	ND	ND	ND	ND	0.8	2.9	19.6	92.4	2.5	0
26817	2013-02-18T08:00:00	28.2	ND	ND	ND	ND	ND	0.5	233.4	20	83.6	100.2	0
26818	2013-02-18T09:00:00	16.4	ND	ND	ND	ND	ND	0.1	183.6	21.1	79.8	155.7	0
26819	2013-02-18T10:00:00	43.3	ND	ND	ND	ND	ND	0.5	140.6	22	78.4	252.8	0
26820	2013-02-18T11:00:00	49.8	ND	ND	ND	ND	ND	0.6	85.6	23.4	73	371.5	0
26821	2013-02-18T12:00:00	60.4	ND	ND	ND	ND	ND	1.3	98.1	24.7	67.2	578.5	0
26822	2013-02-18T13:00:00	45.3	ND	ND	ND	ND	ND	1.2	75	25.9	61.7	676	0
26823	2013-02-18T14:00:00	35.8	ND	ND	ND	ND	ND	1.6	71.9	26.8	56.7	644.1	0
26824	2013-02-18T15:00:00	18.5	ND	ND	ND	ND	ND	1.8	14.2	27.6	53.2	727.8	0
26825	2013-02-18T16:00:00	10.2	ND	ND	ND	ND	ND	1.4	49.5	27.8	53.1	454.4	0
26826	2013-02-18T17:00:00	27.5	ND	ND	ND	ND	ND	1	70.8	27.9	52.6	289.4	0
26827	2013-02-18T18:00:00	32.1	ND	ND	ND	ND	ND	0.4	121.9	27.4	54.4	98.8	0
26828	2013-02-18T19:00:00	33	ND	ND	ND	ND	ND	1.1	192.2	26.3	58.1	0	0
26829	2013-02-18T20:00:00	55.6	ND	ND	ND	ND	ND	1.7	245.8	25.2	62.5	0	0
26830	2013-02-18T21:00:00	29.6	ND	ND	ND	ND	ND	2.3	268.2	24.5	64.3	0	0
26831	2013-02-18T22:00:00	27.4	ND	ND	ND	ND	ND	1.5	284	23.9	65.9	0	0
26832	2013-02-18T23:00:00	14.7	ND	ND	ND	ND	ND	0.5	313.1	23.3	69.6	0	0
26833	2013-02-19T00:00:00	28.8	ND	ND	ND	ND	ND	0.1	24.7	22.4	76.8	0	0
26834	2013-02-19T01:00:00	39.4	ND	ND	ND	ND	ND	0.9	217.8	22.2	74.6	0	0
26835	2013-02-19T02:00:00	42.7	ND	ND	ND	ND	ND	0.2	287.5	21.9	74.4	0	0
26836	2013-02-19T03:00:00	33.1	ND	ND	ND	ND	ND	0.2	ND	21.5	80.3	0	0
26837	2013-02-19T04:00:00	57.7	ND	ND	ND	ND	ND	0.2	ND	21.2	80.9	0	0
26838	2013-02-19T05:00:00	64.4	ND	ND	ND	ND	ND	1.1	203.1	21.2	81.5	0	0
26839	2013-02-19T06:00:00	47.1	ND	ND	ND	ND	ND	0.4	92.5	21.1	81.6	0	0
26840	2013-02-19T07:00:00	36.6	ND	ND	ND	ND	ND	0.8	64.3	20.8	84	6.9	0
26841	2013-02-19T08:00:00	80.6	ND	ND	ND	ND	ND	0.1	ND	21.6	80.5	81.4	0
26842	2013-02-19T09:00:00	98.9	ND	ND	ND	ND	ND	0.7	133.8	22.9	74.2	260.6	0
26843	2013-02-19T10:00:00	103.8	ND	ND	ND	ND	ND	0.6	140.3	25.3	64.7	566.8	0
26844	2013-02-19T11:00:00	88.5	ND	ND	ND	ND	ND	1.3	123.6	26.7	60.9	707.1	0
26845	2013-02-19T12:00:00	72.6	ND	ND	ND	ND	ND	1.3	113.3	28.1	55.9	620.6	0
26846	2013-02-19T13:00:00	58.9	ND	ND	ND	ND	ND	1.2	52.1	28.3	54.4	410.1	0
26847	2013-02-19T14:00:00	57.1	ND	ND	ND	ND	ND	0.9	359.5	28.6	52.7	277.6	0
26848	2013-02-19T15:00:00	46.2	ND	ND	ND	ND	ND	1	80.1	29	52.1	284.8	0
26849	2013-02-19T16:00:00	71.4	ND	ND	ND	ND	ND	1.1	75.9	29.3	51.7	418.4	0
26850	2013-02-19T17:00:00	61.4	ND	ND	ND	ND	ND	0.8	284.6	30.5	47.1	428.1	0
26851	2013-02-19T18:00:00	34.8	ND	ND	ND	ND	ND	3.7	275.5	28.4	51.3	152.3	0
26852	2013-02-19T19:00:00	19.3	ND	ND	ND	ND	ND	4.5	266.9	26.4	56.4	1	0
26853	2013-02-19T20:00:00	16.7	ND	ND	ND	ND	ND	4	273	25.7	59	0	0
26854	2013-02-19T21:00:00	9.2	ND	ND	ND	ND	ND	3.5	273.4	25.5	60.2	0	0
26855	2013-02-19T22:00:00	6.1	ND	ND	ND	ND	ND	0.4	75.8	25.1	63.3	0	0
26856	2013-02-19T23:00:00	38.8	ND	ND	ND	ND	ND	0.5	245.6	24.8	64.7	0	0
26857	2013-02-20T00:00:00	38	ND	ND	ND	ND	ND	2.2	206.2	23.9	71.1	0	0
26858	2013-02-20T01:00:00	35	ND	ND	ND	ND	ND	1.6	183.6	23.3	73.3	0	0
26859	2013-02-20T02:00:00	34.6	ND	ND	ND	ND	ND	0.4	56.9	23.1	76.6	0	0
26860	2013-02-20T03:00:00	24.2	ND	ND	ND	ND	ND	0.8	186.3	22.7	78.8	0	0
26861	2013-02-20T04:00:00	39.4	ND	ND	ND	ND	ND	0.8	147.7	22.5	79.1	0	0
26862	2013-02-20T05:00:00	39.5	ND	ND	ND	ND	ND	0.4	152.6	21.6	82.9	0	0
26863	2013-02-20T06:00:00	33.5	ND	ND	ND	ND	ND	0.2	ND	21.4	83.6	0	0
26864	2013-02-20T07:00:00	33.9	ND	ND	ND	ND	ND	0.4	78	21.8	82.1	12	0
26865	2013-02-20T08:00:00	70.3	ND	ND	ND	ND	ND	0.4	197.9	22.6	78.6	95.5	0
26866	2013-02-20T09:00:00	79.3	ND	ND	ND	ND	ND	1	140.9	24.1	71.7	287	0
26867	2013-02-20T10:00:00	92.9	ND	ND	ND	ND	ND	1.4	117.7	25.5	64.9	586	0
26868	2013-02-20T11:00:00	51.9	ND	ND	ND	ND	ND	1.1	128.9	26.9	59.8	678.9	0
26869	2013-02-20T12:00:00	75.9	ND	ND	ND	ND	ND	0.9	98.4	27.4	57.7	364.8	0
26870	2013-02-20T13:00:00	40.7	ND	ND	ND	ND	ND	0.6	171.6	28.9	52.3	734.9	0
26871	2013-02-20T14:00:00	52.5	ND	ND	ND	ND	ND	1	167.7	30.6	47.3	815	0
26872	2013-02-20T15:00:00	28.7	ND	ND	ND	ND	ND	1	78.1	30.7	46.2	459.1	0
26873	2013-02-20T16:00:00	58.9	ND	ND	ND	ND	ND	0.7	334.1	31	44.8	341.9	0
26874	2013-02-20T17:00:00	41.6	ND	ND	ND	ND	ND	3.4	282.9	30.5	46.1	396.9	0
26875	2013-02-20T18:00:00	23	ND	ND	ND	ND	ND	4.3	277.2	28.3	51.7	66.5	0
26876	2013-02-20T19:00:00	16	ND	ND	ND	ND	ND	4.4	271.6	27.1	55.5	0	0
26877	2013-02-20T20:00:00	37.2	ND	ND	ND	ND	ND	4.2	268.1	26.9	56.1	0	0
26878	2013-02-20T21:00:00	19.8	ND	ND	ND	ND	ND	3.5	264.8	26.6	57.7	0	0
26879	2013-02-20T22:00:00	20.7	ND	ND	ND	ND	ND	3.1	262.6	26	60.8	0	0
26880	2013-02-20T23:00:00	11.8	ND	ND	ND	ND	ND	3	265.5	25.9	61.8	0	0
26881	2013-02-21T00:00:00	7.3	ND	ND	ND	ND	ND	1.7	268.8	25.5	63.8	0	0
26882	2013-02-21T01:00:00	4.8	ND	ND	ND	ND	ND	1	17.2	24.6	70	0	0
26883	2013-02-21T02:00:00	28.7	ND	ND	ND	ND	ND	0.6	122.7	23.9	72.4	0	0
26884	2013-02-21T03:00:00	24.7	ND	ND	ND	ND	ND	0.5	120.8	23.4	74.9	0	0
26885	2013-02-21T04:00:00	53.8	ND	ND	ND	ND	ND	0.5	228.7	23.5	74.6	0	0
26886	2013-02-21T05:00:00	35.2	ND	ND	ND	ND	ND	0.6	167.2	23.6	73.8	0	0
26887	2013-02-21T06:00:00	36.9	ND	ND	ND	ND	ND	0.9	167.5	23.1	78.1	0	0
26888	2013-02-21T07:00:00	25.5	ND	ND	ND	ND	ND	0.9	134.1	22.6	82	4.1	0
26889	2013-02-21T08:00:00	35.7	ND	ND	ND	ND	ND	0.6	117.5	23.1	78.4	55.1	0
26890	2013-02-21T09:00:00	31.6	ND	ND	ND	ND	ND	0.2	79.7	24	74.7	136.9	0
26891	2013-02-21T10:00:00	57.6	ND	ND	ND	ND	ND	0.9	90.7	25.1	71.8	252.7	0
26892	2013-02-21T11:00:00	39.4	ND	ND	ND	ND	ND	0.6	54.6	25.8	67.3	338.8	0
26893	2013-02-21T12:00:00	52.4	ND	ND	ND	ND	ND	0.6	107.2	27.7	58.7	485.7	0
26894	2013-02-21T13:00:00	37.8	ND	ND	ND	ND	ND	0.9	128.4	27.9	57.4	348.6	0
26895	2013-02-21T14:00:00	45.9	ND	ND	ND	ND	ND	0.8	313.3	28.3	54.4	262.5	0
26896	2013-02-21T15:00:00	25.1	ND	ND	ND	ND	ND	1.1	345	28.8	52.1	425	0
26897	2013-02-21T16:00:00	20.1	ND	ND	ND	ND	ND	1.7	310	28.7	49.7	232.2	0
26898	2013-02-21T17:00:00	10.6	ND	ND	ND	ND	ND	1.7	311.7	28.2	49.5	153	0
26899	2013-02-21T18:00:00	20	ND	ND	ND	ND	ND	2	276.2	27.7	51.4	53.8	0
26900	2013-02-21T19:00:00	12.2	ND	ND	ND	ND	ND	2.6	269.5	26.4	56	0.5	0
26901	2013-02-21T20:00:00	7.9	ND	ND	ND	ND	ND	3.1	266.9	25.6	58.9	0	0
26902	2013-02-21T21:00:00	5	ND	ND	ND	ND	ND	1.9	287.4	25.4	59.4	0	0
26903	2013-02-21T22:00:00	10.4	ND	ND	ND	ND	ND	0.2	ND	25	62.7	0	0
26904	2013-02-21T23:00:00	11	ND	ND	ND	ND	ND	0.6	77	24.3	67.9	0	0
26905	2013-02-22T00:00:00	32.2	ND	ND	ND	ND	ND	0.6	148.3	23.5	71.2	0	0
26906	2013-02-22T01:00:00	35.4	ND	ND	ND	ND	ND	1.6	171.8	23	76.2	0	0
26907	2013-02-22T02:00:00	28.2	ND	ND	ND	ND	ND	1.7	193.4	22.8	78.7	0	0
26908	2013-02-22T03:00:00	26	ND	ND	ND	ND	ND	1	184.1	23.1	78.1	0	0
26909	2013-02-22T04:00:00	37.7	ND	ND	ND	ND	ND	0.9	163	22.7	79.2	0	0
26910	2013-02-22T05:00:00	20.7	ND	ND	ND	ND	ND	0.9	172.6	22.4	80.7	0	0
26911	2013-02-22T06:00:00	55.7	ND	ND	ND	ND	ND	0.4	133	22.4	80.2	0	0
26912	2013-02-22T07:00:00	32.6	ND	ND	ND	ND	ND	0.4	128.6	22.5	80.3	5.4	0
26913	2013-02-22T08:00:00	60.5	ND	ND	ND	ND	ND	0.2	72.1	23	78.9	72	0
26914	2013-02-22T09:00:00	63.8	ND	ND	ND	ND	ND	1	58.5	24.4	72	280.9	0
26915	2013-02-22T10:00:00	81.7	ND	ND	ND	ND	ND	1	87.3	26.2	61.8	587.4	0
26916	2013-02-22T11:00:00	49.9	ND	ND	ND	ND	ND	1	44.7	28.1	55.4	689.6	0
26917	2013-02-22T12:00:00	59.3	ND	ND	ND	ND	ND	2	104.1	28.9	55.1	727.2	0
26918	2013-02-22T13:00:00	75.4	ND	ND	ND	ND	ND	1.3	124.2	29.1	52.8	614.8	0
26919	2013-02-22T14:00:00	49.1	ND	ND	ND	ND	ND	0.4	51.6	29.9	50.2	444.7	0
26920	2013-02-22T15:00:00	34.4	ND	ND	ND	ND	ND	0.5	267.4	30.2	48.8	480.8	0
26921	2013-02-22T16:00:00	42.6	ND	ND	ND	ND	ND	1.8	272.6	31.5	43.4	611.8	0
26922	2013-02-22T17:00:00	22.3	ND	ND	ND	ND	ND	4.3	272.1	30.1	46.9	386.9	0
26923	2013-02-22T18:00:00	22.3	ND	ND	ND	ND	ND	4.5	277	28.2	51.5	122	0
26924	2013-02-22T19:00:00	12.1	ND	ND	ND	ND	ND	5	272.7	27	54.6	0	0
26925	2013-02-22T20:00:00	22.4	ND	ND	ND	ND	ND	3.8	269.7	26.8	55.7	0	0
26926	2013-02-22T21:00:00	12.3	ND	ND	ND	ND	ND	2.3	284.5	26.7	56.5	0	0
26927	2013-02-22T22:00:00	17.8	ND	ND	ND	ND	ND	0.7	110.5	25.7	62.5	0	0
26928	2013-02-22T23:00:00	35.8	ND	ND	ND	ND	ND	1.8	204.8	25.4	65.9	0	0
26929	2013-02-23T00:00:00	36	ND	ND	ND	ND	ND	1.5	179.6	24.6	70.5	0	0
26930	2013-02-23T01:00:00	54.2	ND	ND	ND	ND	ND	1.6	183.7	24.1	71.6	0	0
26931	2013-02-23T02:00:00	46.6	ND	ND	ND	ND	ND	1.2	173.1	23.9	72.7	0	0
26932	2013-02-23T03:00:00	30.5	ND	ND	ND	ND	ND	1.1	200.3	24	72.3	0	0
26933	2013-02-23T04:00:00	35.8	ND	ND	ND	ND	ND	0.1	109.5	23.9	72.2	0	0
26934	2013-02-23T05:00:00	25.4	ND	ND	ND	ND	ND	0.9	242.5	23.6	72.8	0	0
26935	2013-02-23T06:00:00	37.9	ND	ND	ND	ND	ND	0.4	88.4	23	78.9	0	0
26936	2013-02-23T07:00:00	34.1	ND	ND	ND	ND	ND	0.6	138.2	22.7	80.2	9.4	0
26937	2013-02-23T08:00:00	58.6	ND	ND	ND	ND	ND	0.9	170.2	23.1	77.6	57.9	0
26938	2013-02-23T09:00:00	60.6	ND	ND	ND	ND	ND	0.9	153	24.9	68.6	320.3	0
26939	2013-02-23T10:00:00	48	ND	ND	ND	ND	ND	1.4	132.7	26.8	62	599.5	0
26940	2013-02-23T11:00:00	48.1	ND	ND	ND	ND	ND	1.5	154.2	28.3	55.4	812.3	0
26941	2013-02-23T12:00:00	42.5	ND	ND	ND	ND	ND	0.9	136.4	29.3	51.4	630.4	0
26942	2013-02-23T13:00:00	24.3	ND	ND	ND	ND	ND	0.6	63.8	30.3	49	855.4	0
26943	2013-02-23T14:00:00	35.2	ND	ND	ND	ND	ND	0.8	21.3	30.6	47.1	349.6	0
26944	2013-02-23T15:00:00	ND	ND	ND	ND	ND	ND	0.6	26.9	31.3	44.9	450.8	0
26945	2013-02-23T16:00:00	101.7	ND	ND	ND	ND	ND	3.6	275.7	30.2	46.7	275.8	0
26946	2013-02-23T17:00:00	51.6	ND	ND	ND	ND	ND	4.5	276.9	29.6	48.1	376.2	0
26947	2013-02-23T18:00:00	30.4	ND	ND	ND	ND	ND	4.7	274.6	27.9	52.4	90.5	0
26948	2013-02-23T19:00:00	16.2	ND	ND	ND	ND	ND	4.5	270.6	27.1	54	1.5	0
26949	2013-02-23T20:00:00	9.6	ND	ND	ND	ND	ND	3.6	284.9	26.7	56.3	0	0
26950	2013-02-23T21:00:00	6.5	ND	ND	ND	ND	ND	3	276.5	26	59.5	0	0
26951	2013-02-23T22:00:00	4.5	ND	ND	ND	ND	ND	2.3	272.5	25.9	59.1	0	0
26952	2013-02-23T23:00:00	4.1	ND	ND	ND	ND	ND	2.1	253.5	25.8	60.4	0	0
26953	2013-02-24T00:00:00	4.3	ND	ND	ND	ND	ND	1.3	243.1	25.7	60.6	0	0
26954	2013-02-24T01:00:00	5.3	ND	ND	ND	ND	ND	1.6	214.9	25.2	64.1	0	0
26955	2013-02-24T02:00:00	3.8	ND	ND	ND	ND	ND	1.2	26.5	24.2	70.6	0	0
26956	2013-02-24T03:00:00	23.2	ND	ND	ND	ND	ND	1	139.4	23.6	74.8	0	0
26957	2013-02-24T04:00:00	24.2	ND	ND	ND	ND	ND	0.5	ND	22	88	0	7.11
26958	2013-02-24T05:00:00	26.9	ND	ND	ND	ND	ND	0.4	203.4	22.2	85.5	0	0
26959	2013-02-24T06:00:00	17	ND	ND	ND	ND	ND	1.4	212.3	21.4	86.1	0	1.27
26960	2013-02-24T07:00:00	10.2	ND	ND	ND	ND	ND	0.5	240.9	21.5	87	2.4	0.25
26961	2013-02-24T08:00:00	7.4	ND	ND	ND	ND	ND	0.5	1.5	22	88.3	56.2	0
26962	2013-02-24T09:00:00	6.2	ND	ND	ND	ND	ND	1.1	179.4	23	82.3	219.7	0
26963	2013-02-24T10:00:00	4.7	ND	ND	ND	ND	ND	1.2	170.5	23.3	80.6	140.7	0
26964	2013-02-24T11:00:00	4.7	ND	ND	ND	ND	ND	1	165.6	24.1	75.5	395.4	0
26965	2013-02-24T12:00:00	4.7	ND	ND	ND	ND	ND	0.9	142.1	26.1	65.4	707.8	0
26966	2013-02-24T13:00:00	4.6	ND	ND	ND	ND	ND	0.7	129.7	27.9	56.4	1003.7	0
26967	2013-02-24T14:00:00	3.7	ND	ND	ND	ND	ND	1	82.3	28.5	54.3	381.9	0
26968	2013-02-24T15:00:00	5.7	ND	ND	ND	ND	ND	0.8	101.1	28.9	53	500	0
26969	2013-02-24T16:00:00	8.5	ND	ND	ND	ND	ND	0.6	117.3	28.9	52.8	166.9	0
26970	2013-02-24T17:00:00	5.3	ND	ND	ND	ND	ND	1.5	65.3	28	56.8	114.6	0
26971	2013-02-24T18:00:00	8.4	ND	ND	ND	ND	ND	1.7	282.6	27.4	54.8	62.5	0
26972	2013-02-24T19:00:00	5.5	ND	ND	ND	ND	ND	1.9	268.1	26.5	58.4	2.9	0
26973	2013-02-24T20:00:00	11.1	ND	ND	ND	ND	ND	2	264.8	25.7	60.8	0	0
26974	2013-02-24T21:00:00	5.5	ND	ND	ND	ND	ND	1.1	280.2	25.3	62	0	0
26975	2013-02-24T22:00:00	4.8	ND	ND	ND	ND	ND	1.2	240.6	24.7	63.5	0	0
26976	2013-02-24T23:00:00	3	ND	ND	ND	ND	ND	1.3	213	24.1	70.4	0	0
26977	2013-02-25T00:00:00	2	ND	ND	ND	ND	ND	1.4	250.2	23.5	72.7	0	0
26978	2013-02-25T01:00:00	6.6	ND	ND	ND	ND	ND	1.3	247.1	23.1	69	0	0
26979	2013-02-25T02:00:00	7.9	ND	ND	ND	ND	ND	1.3	259	22.9	68.5	0	0
26980	2013-02-25T03:00:00	3.9	ND	ND	ND	ND	ND	0.5	306.1	22.7	71.1	0	0
26981	2013-02-25T04:00:00	2	ND	ND	ND	ND	ND	0.1	ND	22.2	77.8	0	0
26982	2013-02-25T05:00:00	8.8	ND	ND	ND	ND	ND	0.2	309.2	21.9	80.2	0	0
26983	2013-02-25T06:00:00	36.4	ND	ND	ND	ND	ND	0.2	ND	21.8	78.6	0	0
26984	2013-02-25T07:00:00	25.5	ND	ND	ND	ND	ND	0.4	ND	21.9	75.7	13.1	0
26985	2013-02-25T08:00:00	37.7	ND	ND	ND	ND	ND	0.7	182.7	22.9	71.8	142.2	0
26986	2013-02-25T09:00:00	56.2	ND	ND	ND	ND	ND	0.8	129.2	24.3	71.7	343.4	0
26987	2013-02-25T10:00:00	63.1	ND	ND	ND	ND	ND	1.2	169.9	26.1	65	605.7	0
26988	2013-02-25T11:00:00	49.2	ND	ND	ND	ND	ND	1.1	127.7	28.1	57.5	820.5	0
26989	2013-02-25T12:00:00	34.2	ND	ND	ND	ND	ND	1.2	150.2	29.3	52.5	863	0
26990	2013-02-25T13:00:00	37	ND	ND	ND	ND	ND	1.2	81	29.8	51.1	483.3	0
26991	2013-02-25T14:00:00	46.7	ND	ND	ND	ND	ND	1	18.4	29.5	51.4	220.7	0
26992	2013-02-25T15:00:00	40	ND	ND	ND	ND	ND	0.7	296.5	30	48.5	371.2	0
26993	2013-02-25T16:00:00	31	ND	ND	ND	ND	ND	0.8	352.9	29.9	49.7	230.3	0
26994	2013-02-25T17:00:00	17.6	ND	ND	ND	ND	ND	2.9	276	29.4	49.4	116.9	0
26995	2013-02-25T18:00:00	17.6	ND	ND	ND	ND	ND	3.5	270.5	28.3	51.6	42.9	0
26996	2013-02-25T19:00:00	9.9	ND	ND	ND	ND	ND	3.9	271.7	27.3	55	0	0
26997	2013-02-25T20:00:00	25.3	ND	ND	ND	ND	ND	3.1	264.5	26.7	57.7	0	0
26998	2013-02-25T21:00:00	15.1	ND	ND	ND	ND	ND	2.7	266	26.4	59.5	0	0
26999	2013-02-25T22:00:00	9.3	ND	ND	ND	ND	ND	0.4	321.6	25.7	63.1	0	0
27000	2013-02-25T23:00:00	17.1	ND	ND	ND	ND	ND	1.2	210.9	25.4	66.9	0	0
27001	2013-02-26T00:00:00	20.3	ND	ND	ND	ND	ND	0.8	123.4	24.7	71.7	0	0
27002	2013-02-26T01:00:00	22.1	ND	ND	ND	ND	ND	0.4	133.3	24	72.1	0	0
27003	2013-02-26T02:00:00	13	ND	ND	ND	ND	ND	0.7	135.6	23.5	77.2	0	0
27004	2013-02-26T03:00:00	7.5	ND	ND	ND	ND	ND	0.5	146.2	22.9	80.7	0	0
27005	2013-02-26T04:00:00	20.1	ND	ND	ND	ND	ND	0.5	173.9	22.9	79.3	0	0
27006	2013-02-26T05:00:00	12	ND	ND	ND	ND	ND	0.7	115.5	22.5	80.3	0	0
27007	2013-02-26T06:00:00	39.5	ND	ND	ND	ND	ND	0.1	242.3	22.5	79.1	0	0
27008	2013-02-26T07:00:00	35.6	ND	ND	ND	ND	ND	0.1	95.2	22.7	78.9	17.4	0
27009	2013-02-26T08:00:00	65.1	ND	ND	ND	ND	ND	0.9	139.3	23.1	79.4	58.3	0
27010	2013-02-26T09:00:00	84.7	ND	ND	ND	ND	ND	0.9	139	23.3	74.9	94.8	0
27011	2013-02-26T10:00:00	71.4	ND	ND	ND	ND	ND	0.7	98	24.3	69.7	229.2	0
27012	2013-02-26T11:00:00	58	ND	ND	ND	ND	ND	1.2	90.2	26.9	60.6	757	0
27013	2013-02-26T12:00:00	61	ND	ND	ND	ND	ND	1.1	185.7	28.7	53.1	841.8	0
27014	2013-02-26T13:00:00	49.4	ND	ND	ND	ND	ND	1.3	70.8	30.1	49.5	800.9	0
27015	2013-02-26T14:00:00	31.6	ND	ND	ND	ND	ND	1.7	26.3	30.7	49.1	601.4	0
27016	2013-02-26T15:00:00	17.4	ND	ND	ND	ND	ND	1.4	331	31.2	45.7	654.3	0
27017	2013-02-26T16:00:00	22.1	ND	ND	ND	ND	ND	3.8	276.4	31.4	43.7	647.2	0
27018	2013-02-26T17:00:00	13.4	ND	ND	ND	ND	ND	4.3	275.7	30.1	46	374.4	0
27019	2013-02-26T18:00:00	18.5	ND	ND	ND	ND	ND	3.9	277.3	29	48.8	137.5	0
27020	2013-02-26T19:00:00	13.6	ND	ND	ND	ND	ND	3.9	272.7	27.6	53.1	0	0
27021	2013-02-26T20:00:00	14.1	ND	ND	ND	ND	ND	3.2	272.7	27.5	52.8	0	0
27022	2013-02-26T21:00:00	9.4	ND	ND	ND	ND	ND	0.9	280.7	27.3	53.9	0	0
27023	2013-02-26T22:00:00	20.4	ND	ND	ND	ND	ND	0.6	200.9	26.6	58.3	0	0
27024	2013-02-26T23:00:00	12	ND	ND	ND	ND	ND	2.1	230.3	26.1	60	0	0
27025	2013-02-27T00:00:00	23.2	ND	ND	ND	ND	ND	2	219.6	25.6	63.3	0	0
27026	2013-02-27T01:00:00	13.2	ND	ND	ND	ND	ND	1	208.9	24.9	68.1	0	0
27027	2013-02-27T02:00:00	19.2	ND	ND	ND	ND	ND	1.2	190.2	24.2	70.6	0	0
27028	2013-02-27T03:00:00	18.1	ND	ND	ND	ND	ND	0.3	330.1	23.6	72.9	0	0
27029	2013-02-27T04:00:00	28	ND	ND	ND	ND	ND	0.4	40.6	23.2	76.7	0	0
27030	2013-02-27T05:00:00	51.2	ND	ND	ND	ND	ND	0.6	50.1	23.1	77.4	0	0
27031	2013-02-27T06:00:00	60.7	ND	ND	ND	ND	ND	0.1	ND	23.1	76.9	0	0
27032	2013-02-27T07:00:00	71.9	ND	ND	ND	ND	ND	0.5	132.8	23.4	75.6	10.3	0
27033	2013-02-27T08:00:00	55.1	ND	ND	ND	ND	ND	0.7	152.5	24	73.8	146.1	0
27034	2013-02-27T09:00:00	72.3	ND	ND	ND	ND	ND	1.3	135.6	25.6	66.3	368	0
27035	2013-02-27T10:00:00	62.5	ND	ND	ND	ND	ND	1	145.4	26.8	62.1	463.8	0
27036	2013-02-27T11:00:00	42.6	ND	ND	ND	ND	ND	1.8	136.5	28.1	58	743.8	0
27037	2013-02-27T12:00:00	46.1	ND	ND	ND	ND	ND	1.7	139	29.5	53.2	659.8	0
27038	2013-02-27T13:00:00	38.7	ND	ND	ND	ND	ND	1.5	142.5	29	53.7	326.8	0
27039	2013-02-27T14:00:00	45.3	ND	ND	ND	ND	ND	1.2	244.1	29.5	50.9	517.2	0
27040	2013-02-27T15:00:00	25.7	ND	ND	ND	ND	ND	1.4	174.1	30.2	50.6	437.6	0
27041	2013-02-27T16:00:00	52.3	ND	ND	ND	ND	ND	1.9	169.8	29.4	54.4	245.4	0
27042	2013-02-27T17:00:00	52.8	ND	ND	ND	ND	ND	2.2	284.9	29.2	51.5	186.8	0
27043	2013-02-27T18:00:00	36.4	ND	ND	ND	ND	ND	3	282.9	27.7	54.7	33.4	0
27044	2013-02-27T19:00:00	19.1	ND	ND	ND	ND	ND	2.3	285.4	27	56.7	0	0
27045	2013-02-27T20:00:00	27.9	ND	ND	ND	ND	ND	1.8	290.1	26.7	57	0	0
27046	2013-02-27T21:00:00	15.3	ND	ND	ND	ND	ND	3.5	267.1	26.2	58.9	0	0
27047	2013-02-27T22:00:00	16.5	ND	ND	ND	ND	ND	2.4	221.8	25.5	64.8	0	0
27048	2013-02-27T23:00:00	10.1	ND	ND	ND	ND	ND	1.3	238.2	25.4	63.4	0	0
27049	2013-02-28T00:00:00	6.5	ND	ND	ND	ND	ND	1.2	302.4	25.3	63.2	0	0
27050	2013-02-28T01:00:00	5.7	ND	ND	ND	ND	ND	1.6	255.2	24.4	68.7	0	0
27051	2013-02-28T02:00:00	3.5	ND	ND	ND	ND	ND	0.7	71.9	24.3	69.7	0	0
27052	2013-02-28T03:00:00	2.6	ND	ND	ND	ND	ND	1	108.6	23.3	78.5	0	0
27053	2013-02-28T04:00:00	26.9	ND	ND	ND	ND	ND	1.1	176.5	23.1	78.8	0	0
27054	2013-02-28T05:00:00	14.8	ND	ND	ND	ND	ND	0.8	181.7	22.7	80.8	0	0
27055	2013-02-28T06:00:00	14.4	ND	ND	ND	ND	ND	0.5	223.8	23	78.9	0	0
27056	2013-02-28T07:00:00	8.3	ND	ND	ND	ND	ND	0.2	24.1	23.2	77.8	2	0
27057	2013-02-28T08:00:00	34.8	ND	ND	ND	ND	ND	0.7	62.5	23.3	79.6	58.3	0
27058	2013-02-28T09:00:00	61	ND	ND	ND	ND	ND	0.8	71.3	23.9	76.6	146.3	0
27059	2013-02-28T10:00:00	72.9	ND	ND	ND	ND	ND	0.8	101	25	68.9	320	0
27060	2013-02-28T11:00:00	50.3	ND	ND	ND	ND	ND	1	137.3	26.4	64.4	478.8	0
27061	2013-02-28T12:00:00	45.9	ND	ND	ND	ND	ND	1.3	113.3	26.6	63.6	161.8	0
27062	2013-02-28T13:00:00	55	ND	ND	ND	ND	ND	1	123	26.8	63.3	348.6	0
27063	2013-02-28T14:00:00	30.6	ND	ND	ND	ND	ND	0.7	201.9	27.6	59.3	278.6	0
27064	2013-02-28T15:00:00	17.1	ND	ND	ND	ND	ND	0.7	355.1	29.3	52.3	706.2	0
27065	2013-02-28T16:00:00	16.5	ND	ND	ND	ND	ND	2.1	295.2	29.7	48.5	324.3	0
27066	2013-02-28T17:00:00	24	ND	ND	ND	ND	ND	2.8	279.9	28.7	49.7	217.6	0
27067	2013-02-28T18:00:00	16	ND	ND	ND	ND	ND	3	281.2	27.8	51.9	70.4	0
27068	2013-02-28T19:00:00	8.5	ND	ND	ND	ND	ND	3	275.5	26.6	56.3	0	0
27069	2013-02-28T20:00:00	9.6	ND	ND	ND	ND	ND	3.3	271.6	26.1	58.4	0	0
27070	2013-02-28T21:00:00	7.2	ND	ND	ND	ND	ND	3	278.9	25.6	60.5	0	0
27071	2013-02-28T22:00:00	9.4	ND	ND	ND	ND	ND	2.5	238.1	25.2	65.2	0	0
27072	2013-02-28T23:00:00	6.2	ND	ND	ND	ND	ND	2.5	200.2	24.3	73.1	0	0
27073	2013-03-01T00:00:00	21.8	ND	ND	ND	ND	ND	2.1	197.3	23.6	72.4	0	0.51
27074	2013-03-01T01:00:00	31.2	ND	ND	ND	ND	ND	0.6	146.5	22.2	83.2	0	2.03
27075	2013-03-01T02:00:00	17.9	ND	ND	ND	ND	ND	0.5	30.5	22.3	85.7	0	0
27076	2013-03-01T03:00:00	11.4	ND	ND	ND	ND	ND	0.6	188.8	22.2	86.1	0	0
27077	2013-03-01T04:00:00	12.6	ND	ND	ND	ND	ND	1.2	177.2	21.7	85.5	0	0
27078	2013-03-01T05:00:00	8.6	ND	ND	ND	ND	ND	0.7	162.6	21.4	87.2	0	0
27079	2013-03-01T06:00:00	6.4	ND	ND	ND	ND	ND	0.4	159.8	21.2	88.1	0	0
27080	2013-03-01T07:00:00	5.7	ND	ND	ND	ND	ND	0.5	ND	21.5	87.3	4.5	0
27081	2013-03-01T08:00:00	25.2	ND	ND	ND	ND	ND	0.8	180.3	21.9	85.9	55.1	0
27082	2013-03-01T09:00:00	24.8	ND	ND	ND	ND	ND	0.6	144.5	22.8	80.8	170	0
27083	2013-03-01T10:00:00	27.9	ND	ND	ND	ND	ND	0.9	97.4	24.1	74.6	394.9	0
27084	2013-03-01T11:00:00	15.4	ND	ND	ND	ND	ND	0.9	135.4	26.2	64.2	713.9	0
27085	2013-03-01T12:00:00	14.2	ND	ND	ND	ND	ND	1.4	97.2	27.8	58.1	643	0
27086	2013-03-01T13:00:00	16.2	ND	ND	ND	ND	ND	1.1	101.3	28.1	56.4	586.5	0
27087	2013-03-01T14:00:00	22.5	ND	ND	ND	ND	ND	0.2	202.7	28.9	51.8	433.3	0
27088	2013-03-01T15:00:00	11.8	ND	ND	ND	ND	ND	1.2	74.5	29.2	51.8	258.2	0
27089	2013-03-01T16:00:00	8.4	ND	ND	ND	ND	ND	0.5	57.7	28.7	53.9	88	0
27090	2013-03-01T17:00:00	14.9	ND	ND	ND	ND	ND	3.9	266.2	25.9	59.4	29.5	0
27091	2013-03-01T18:00:00	25.5	ND	ND	ND	ND	ND	3.2	266.7	26.1	58.8	52.2	0
27092	2013-03-01T19:00:00	13.4	ND	ND	ND	ND	ND	3.5	267.3	26.1	59.9	0	0
27093	2013-03-01T20:00:00	22.1	ND	ND	ND	ND	ND	2.5	283	25.7	60.9	0	0
27094	2013-03-01T21:00:00	13.6	ND	ND	ND	ND	ND	1.6	281.1	25.4	60.6	0	0
27095	2013-03-01T22:00:00	8.3	ND	ND	ND	ND	ND	2	273.5	25.1	59.2	0	0
27096	2013-03-01T23:00:00	5.3	ND	ND	ND	ND	ND	2.6	220	24.3	68.7	0	0
27097	2013-03-02T00:00:00	10.4	ND	ND	ND	ND	ND	1.8	194	23.6	77	0	0
27098	2013-03-02T01:00:00	6.5	ND	ND	ND	ND	ND	2	198.1	23.3	77.9	0	0
27099	2013-03-02T02:00:00	25.2	ND	ND	ND	ND	ND	1.2	188.7	22.9	78.7	0	0
27100	2013-03-02T03:00:00	14.1	ND	ND	ND	ND	ND	0.2	ND	22.6	78.3	0	0
27101	2013-03-02T04:00:00	33.4	ND	ND	ND	ND	ND	0.8	257.8	22.4	77.6	0	0
27102	2013-03-02T05:00:00	21	ND	ND	ND	ND	ND	0.7	242.4	22.3	74.7	0	0
27103	2013-03-02T06:00:00	19.2	ND	ND	ND	ND	ND	0.5	41.7	21.8	83.1	0	0
27104	2013-03-02T07:00:00	54.6	ND	ND	ND	ND	ND	0.1	ND	21.7	81.5	7.3	0
27105	2013-03-02T08:00:00	49.2	ND	ND	ND	ND	ND	0.3	ND	22.6	79.6	107.6	0
27106	2013-03-02T09:00:00	54.9	ND	ND	ND	ND	ND	0.6	70.7	23.6	75.5	226.5	0
27107	2013-03-02T10:00:00	84.9	ND	ND	ND	ND	ND	0.6	156.7	25.3	67.5	404.6	0
27108	2013-03-02T11:00:00	88.8	ND	ND	ND	ND	ND	1.3	161	26.8	60.7	571.4	0
27109	2013-03-02T12:00:00	58.4	ND	ND	ND	ND	ND	1	144.2	27.6	58.1	409.5	0
27110	2013-03-02T13:00:00	49.1	ND	ND	ND	ND	ND	1	136.3	27.4	58.7	210.5	0
27111	2013-03-02T14:00:00	61.9	ND	ND	ND	ND	ND	0.5	138.3	28.3	56	480.5	0
27112	2013-03-02T15:00:00	57.6	ND	ND	ND	ND	ND	1.2	54.8	28.8	53.7	300.4	0
27113	2013-03-02T16:00:00	66.9	ND	ND	ND	ND	ND	0.5	251.1	29.3	51	244.4	0
27114	2013-03-02T17:00:00	39.3	ND	ND	ND	ND	ND	2.4	265.8	28.5	50.1	67.4	0
27115	2013-03-02T18:00:00	32.5	ND	ND	ND	ND	ND	2.9	267.4	27.6	52.9	50.9	0
27116	2013-03-02T19:00:00	21.9	ND	ND	ND	ND	ND	2.7	274.6	26.6	57.2	0	0
27117	2013-03-02T20:00:00	22.1	ND	ND	ND	ND	ND	3.1	267.9	26.1	58.8	0	0
27118	2013-03-02T21:00:00	13.5	ND	ND	ND	ND	ND	2.1	274.7	26.1	58.8	0	0
27119	2013-03-02T22:00:00	10.5	ND	ND	ND	ND	ND	0.5	143.2	25.6	63.3	0	0
27120	2013-03-02T23:00:00	11.3	ND	ND	ND	ND	ND	0.6	ND	25.6	61.7	0	0
27121	2013-03-03T00:00:00	7.5	ND	ND	ND	ND	ND	0.8	275.1	25.4	61.8	0	0
27122	2013-03-03T01:00:00	19.7	ND	ND	ND	ND	ND	0.5	65.1	24.4	70.1	0	0
27123	2013-03-03T02:00:00	ND	ND	ND	ND	ND	ND	0.6	141.5	24.1	72.1	0	0
27124	2013-03-03T03:00:00	ND	ND	ND	ND	ND	ND	0.9	149.6	23.2	78.5	0	0
27125	2013-03-03T04:00:00	ND	ND	ND	ND	ND	ND	1.4	173.9	23.1	78.4	0	0
27126	2013-03-03T05:00:00	ND	ND	ND	ND	ND	ND	1.2	175.3	23	79.6	0	0
27127	2013-03-03T06:00:00	ND	ND	ND	ND	ND	ND	1.1	216.4	23	78.8	0	0
27128	2013-03-03T07:00:00	ND	ND	ND	ND	ND	ND	0.1	20.6	23.2	77.9	1.7	0
27129	2013-03-03T08:00:00	ND	ND	ND	ND	ND	ND	1.2	185.7	21.6	92.3	18.2	38.61
27130	2013-03-03T09:00:00	ND	ND	ND	ND	ND	ND	0.9	239.4	21.7	90.8	158.1	0.25
27131	2013-03-03T10:00:00	92.6	ND	ND	ND	ND	ND	0.8	199.9	24.6	73.9	510.2	0
27132	2013-03-03T11:00:00	46.3	ND	ND	ND	ND	ND	1.2	140.5	26.9	63.7	743.1	0
27133	2013-03-03T12:00:00	23.1	ND	ND	ND	ND	ND	1.2	102.6	27.6	60.5	453.9	0
27134	2013-03-03T13:00:00	22.5	ND	ND	ND	ND	ND	1.1	314.4	27.5	59.2	256.1	0
27135	2013-03-03T14:00:00	19.9	ND	ND	ND	ND	ND	1.8	288.6	27.4	54.5	287.1	0
27136	2013-03-03T15:00:00	11.3	ND	ND	ND	ND	ND	0.4	339.1	28.3	53.1	345.5	0
27137	2013-03-03T16:00:00	5.7	ND	ND	ND	ND	ND	0.6	28	28.6	53.3	218.4	0
27138	2013-03-03T17:00:00	5.5	ND	ND	ND	ND	ND	2.3	281.7	28.2	52.3	241.2	0
27139	2013-03-03T18:00:00	ND	ND	ND	ND	ND	ND	2.4	270.2	27.4	53.9	58	0
27140	2013-03-03T19:00:00	ND	ND	ND	ND	ND	ND	2.3	269.2	26.4	56.8	0	0
27141	2013-03-03T20:00:00	ND	ND	ND	ND	ND	ND	2.7	264.5	25.6	59.6	0	0
27142	2013-03-03T21:00:00	ND	ND	ND	ND	ND	ND	2.7	265	25.2	61.2	0	0
27143	2013-03-03T22:00:00	ND	ND	ND	ND	ND	ND	1.3	297.4	24.7	64.1	0	0
27144	2013-03-03T23:00:00	ND	ND	ND	ND	ND	ND	0.1	ND	23.7	72	0	0
27145	2013-03-04T00:00:00	ND	ND	ND	ND	ND	ND	1.4	234.7	24.1	66.6	0	0
27146	2013-03-04T01:00:00	ND	ND	ND	ND	ND	ND	2.3	245.7	23.9	65.5	0	0
27147	2013-03-04T02:00:00	ND	ND	ND	ND	ND	ND	2.1	262.5	24	65.5	0	0
27148	2013-03-04T03:00:00	87.1	ND	ND	ND	ND	ND	0.3	ND	22.9	76.9	0	0
27149	2013-03-04T04:00:00	54.2	ND	ND	ND	ND	ND	0.2	ND	22.5	81.6	0	4.32
27150	2013-03-04T05:00:00	ND	ND	ND	ND	ND	ND	0.3	112.2	22	84	0	0.25
27151	2013-03-04T06:00:00	ND	ND	ND	ND	ND	ND	0.5	163.9	21.8	88.1	0	0
27152	2013-03-04T07:00:00	ND	ND	ND	ND	ND	ND	1	203.1	22	84.5	18.8	0
27153	2013-03-04T08:00:00	ND	ND	ND	ND	ND	ND	1	148.9	22.4	81.5	71.5	0
27154	2013-03-04T09:00:00	ND	ND	ND	ND	ND	ND	0.3	171.2	22.8	78.4	90.1	0
27155	2013-03-04T10:00:00	ND	ND	ND	ND	ND	ND	0.6	144.2	23.6	74.7	124.5	0
27156	2013-03-04T11:00:00	ND	ND	ND	ND	ND	ND	0.7	86.8	24.7	70.6	269.2	0
27157	2013-03-04T12:00:00	ND	ND	ND	ND	ND	ND	1	67.4	25.4	67.5	243.6	0
27158	2013-03-04T13:00:00	122.8	ND	ND	ND	ND	ND	1.2	51.4	25.7	65.2	259	0
27159	2013-03-04T14:00:00	111.3	ND	ND	ND	ND	ND	0.4	28.6	26.3	64.2	345.2	0
27160	2013-03-04T15:00:00	79.1	ND	ND	ND	ND	ND	1.1	109.9	27.5	57.8	402.2	0
27161	2013-03-04T16:00:00	51.9	ND	ND	ND	ND	ND	1	140.1	27.6	58.2	213.9	0
27162	2013-03-04T17:00:00	39.3	ND	ND	ND	ND	ND	1	142	27.1	60.8	76.9	0
27163	2013-03-04T18:00:00	65.3	ND	ND	ND	ND	ND	1.4	156.7	26.4	64.2	19.7	0
27164	2013-03-04T19:00:00	83.3	ND	ND	ND	ND	ND	1.2	157.7	26	67	0	0
27165	2013-03-04T20:00:00	94.1	ND	ND	ND	ND	ND	0.7	142.5	25.7	67.9	0	0
27166	2013-03-04T21:00:00	76.7	ND	ND	ND	ND	ND	0.9	172.9	25.3	69.8	0	0
27167	2013-03-04T22:00:00	84.8	ND	ND	ND	ND	ND	0.5	119.8	25	71.1	0	0
27168	2013-03-04T23:00:00	70.9	ND	ND	ND	ND	ND	0.6	2.7	24.6	73	0	0
27169	2013-03-05T00:00:00	111.3	ND	ND	ND	ND	ND	1	268.3	24.4	73.3	0	0
27170	2013-03-05T01:00:00	57	ND	ND	ND	ND	ND	0.3	228.3	24.2	72.6	0	0
27171	2013-03-05T02:00:00	61.6	ND	ND	ND	ND	ND	0.6	199.9	23.1	81.1	0	0
27172	2013-03-05T03:00:00	69	ND	ND	ND	ND	ND	0.4	136.5	22.8	82.3	0	0
27173	2013-03-05T04:00:00	81.5	ND	ND	ND	ND	ND	0.3	112.2	22.3	86.3	0	0
27174	2013-03-05T05:00:00	66	ND	ND	ND	ND	ND	0.9	252.6	22.4	77.5	0	0
27175	2013-03-05T06:00:00	42.8	ND	ND	ND	ND	ND	0.5	275.6	22.3	75.9	0	0
27176	2013-03-05T07:00:00	35.1	ND	ND	ND	ND	ND	0.4	ND	22.1	79.5	9.2	0
27177	2013-03-05T08:00:00	71.7	ND	ND	ND	ND	ND	0.7	123.7	22.2	85	162	0
27178	2013-03-05T09:00:00	78	ND	ND	ND	ND	ND	1.3	137.3	24.1	76.1	390.1	0
27179	2013-03-05T10:00:00	105.4	ND	ND	ND	ND	ND	1	180	25.9	68.1	586.5	0
27180	2013-03-05T11:00:00	85.6	ND	ND	ND	ND	ND	1.4	136	28	59.3	762.2	0
27181	2013-03-05T12:00:00	72.2	ND	ND	ND	ND	ND	1.3	105.1	29.5	53.3	798.6	0
27182	2013-03-05T13:00:00	52.4	ND	ND	ND	ND	ND	0.4	150.6	30.8	48.5	912.9	0
27183	2013-03-05T14:00:00	50.7	ND	ND	ND	ND	ND	1.1	49.4	32	44.9	723.6	0
27184	2013-03-05T15:00:00	32.3	ND	ND	ND	ND	ND	1.3	50.5	32.5	43.5	503	0
27185	2013-03-05T16:00:00	73.3	ND	ND	ND	ND	ND	3	290.1	31.6	45.3	361.2	0
27186	2013-03-05T17:00:00	43.8	ND	ND	ND	ND	ND	4.2	276.2	30.4	48.2	363.8	0
27187	2013-03-05T18:00:00	24.3	ND	ND	ND	ND	ND	4.6	276.7	28.6	52.6	99	0
27188	2013-03-05T19:00:00	18.4	ND	ND	ND	ND	ND	5	272.9	27.4	56	0	0
27189	2013-03-05T20:00:00	27.5	ND	ND	ND	ND	ND	4.1	274	27.2	56.2	0	0
27190	2013-03-05T21:00:00	16.6	ND	ND	ND	ND	ND	2.5	291.9	27	56.5	0	0
27191	2013-03-05T22:00:00	16.3	ND	ND	ND	ND	ND	2.7	282.7	26.7	57.9	0	0
27192	2013-03-05T23:00:00	8.7	ND	ND	ND	ND	ND	3.2	278.8	26	62.8	0	0
27193	2013-03-06T00:00:00	5	ND	ND	ND	ND	ND	2.4	276.5	25.5	64.2	0	0
27194	2013-03-06T01:00:00	13.3	ND	ND	ND	ND	ND	1.5	177.3	24.5	70.2	0	0
27195	2013-03-06T02:00:00	22	ND	ND	ND	ND	ND	0.8	171.2	24	73.5	0	0
27196	2013-03-06T03:00:00	33.3	ND	ND	ND	ND	ND	1.1	193.3	24.1	73	0	0
27197	2013-03-06T04:00:00	41.3	ND	ND	ND	ND	ND	0.6	203.5	24	74.8	0	0
27198	2013-03-06T05:00:00	35.2	ND	ND	ND	ND	ND	0.8	126.7	23.4	77.1	0	0
27199	2013-03-06T06:00:00	36.1	ND	ND	ND	ND	ND	0.8	133.7	22.7	80.2	0	0
27200	2013-03-06T07:00:00	47.3	ND	ND	ND	ND	ND	0.5	164.7	22.5	82.7	9	0.25
27201	2013-03-06T08:00:00	51.3	ND	ND	ND	ND	ND	0.7	128.4	23.1	79.4	72.5	0
27202	2013-03-06T09:00:00	49.1	ND	ND	ND	ND	ND	1.1	181	23.9	76.1	217.2	0
27203	2013-03-06T10:00:00	67.9	ND	ND	ND	ND	ND	1.3	160.8	26.4	65.4	573.1	0
27204	2013-03-06T11:00:00	41.4	ND	ND	ND	ND	ND	1.6	151.4	28.2	57.4	813.6	0
27205	2013-03-06T12:00:00	37.9	ND	ND	ND	ND	ND	0.9	139.4	28.9	54.5	585.2	0
27206	2013-03-06T13:00:00	31.6	ND	ND	ND	ND	ND	0.4	289.1	28.6	53.9	130.4	0
27207	2013-03-06T14:00:00	26.7	ND	ND	ND	ND	ND	1.7	287.8	29.6	50.3	559.2	0
27208	2013-03-06T15:00:00	15	ND	ND	ND	ND	ND	3.3	277.9	28.3	55.9	147.5	5.84
27209	2013-03-06T16:00:00	18.6	ND	ND	ND	ND	ND	2.2	287.1	27.3	58.9	146.8	0
27210	2013-03-06T17:00:00	11.1	ND	ND	ND	ND	ND	0.7	276.1	27.8	56.4	130	0
27211	2013-03-06T18:00:00	7.9	ND	ND	ND	ND	ND	2.7	276.9	27	56.4	18.9	0
27212	2013-03-06T19:00:00	5.2	ND	ND	ND	ND	ND	4	279.7	26.3	57.6	0	0
27213	2013-03-06T20:00:00	3.1	ND	ND	ND	ND	ND	2.5	271	26.2	56.3	0	0
27214	2013-03-06T21:00:00	2.3	ND	ND	ND	ND	ND	3	275.3	25.7	57	0	0
27215	2013-03-06T22:00:00	2.2	ND	ND	ND	ND	ND	3.9	275.2	25.5	57.6	0	0
27216	2013-03-06T23:00:00	10.3	ND	ND	ND	ND	ND	1.3	284.5	25.5	56.9	0	0
27217	2013-03-07T00:00:00	6.7	ND	ND	ND	ND	ND	1.8	275.4	24.8	55.8	0	0
27218	2013-03-07T01:00:00	5.1	ND	ND	ND	ND	ND	1.2	90.1	23	73.7	0	0
27219	2013-03-07T02:00:00	6.7	ND	ND	ND	ND	ND	0.9	160.3	22.5	76.8	0	0
27220	2013-03-07T03:00:00	23.5	ND	ND	ND	ND	ND	0.7	100.8	22.1	77.9	0	0
27221	2013-03-07T04:00:00	13.1	ND	ND	ND	ND	ND	0.9	15.9	21.8	77	0	0
27222	2013-03-07T05:00:00	8.9	ND	ND	ND	ND	ND	0.7	40.3	21.5	78.2	0	0
27223	2013-03-07T06:00:00	9.2	ND	ND	ND	ND	ND	1.6	14.2	21.3	79.6	0	1.27
27224	2013-03-07T07:00:00	5.8	ND	ND	ND	ND	ND	1.4	257.1	20.9	82.7	4.1	0.76
27225	2013-03-07T08:00:00	5.1	ND	ND	ND	ND	ND	1	102.3	21.4	78.3	92.3	0.25
27226	2013-03-07T09:00:00	8	ND	ND	ND	ND	ND	0.9	150.4	22	74.7	180.5	0
27227	2013-03-07T10:00:00	47.6	ND	ND	ND	ND	ND	1.7	178.9	23	70.8	391.1	0
27228	2013-03-07T11:00:00	35.9	ND	ND	ND	ND	ND	1.2	79.9	25.6	60.1	797.1	0
27229	2013-03-07T12:00:00	24.1	ND	ND	ND	ND	ND	2	43	28	52.9	777.8	0
27230	2013-03-07T13:00:00	12.7	ND	ND	ND	ND	ND	2	49.1	28.6	50.8	740.4	0
27231	2013-03-07T14:00:00	19.6	ND	ND	ND	ND	ND	1	3.6	29.7	44	573	0
27232	2013-03-07T15:00:00	10.9	ND	ND	ND	ND	ND	1.8	45.8	30.2	43.1	393.5	0
27233	2013-03-07T16:00:00	6.1	ND	ND	ND	ND	ND	2.1	31.7	30.1	43.7	230.8	0
27234	2013-03-07T17:00:00	4.3	ND	ND	ND	ND	ND	3.5	277.7	29.9	44.4	401.7	0
27235	2013-03-07T18:00:00	11.4	ND	ND	ND	ND	ND	2.8	280.9	29.1	45.3	130.3	0
27236	2013-03-07T19:00:00	11	ND	ND	ND	ND	ND	1.9	273.3	27.8	48	0	0
27237	2013-03-07T20:00:00	6.4	ND	ND	ND	ND	ND	2.5	267	26.7	52	0	0
27238	2013-03-07T21:00:00	4.3	ND	ND	ND	ND	ND	2.1	279.8	25.8	54.5	0	0
27239	2013-03-07T22:00:00	2.9	ND	ND	ND	ND	ND	2.3	270.5	25.4	55	0	0
27240	2013-03-07T23:00:00	3.4	ND	ND	ND	ND	ND	1.5	261.6	24.9	57.9	0	0
27241	2013-03-08T00:00:00	9.9	ND	ND	ND	ND	ND	0.8	265.5	24.3	60.1	0	0
27242	2013-03-08T01:00:00	6.5	ND	ND	ND	ND	ND	1	280.7	24.1	60.1	0	0
27243	2013-03-08T02:00:00	5.5	ND	ND	ND	ND	ND	1.3	261.7	23.9	60.8	0	0
27244	2013-03-08T03:00:00	4.5	ND	ND	ND	ND	ND	1	158.4	22.8	72.2	0	0
27245	2013-03-08T04:00:00	21.1	ND	ND	ND	ND	ND	1.2	222.8	22.5	72.8	0	0
27246	2013-03-08T05:00:00	12	ND	ND	ND	ND	ND	0.7	183.1	22.6	74.4	0	0
27247	2013-03-08T06:00:00	33.2	ND	ND	ND	ND	ND	0.7	202.5	22.5	72.7	0	0
27248	2013-03-08T07:00:00	21.1	ND	ND	ND	ND	ND	0.1	ND	22.5	72.4	7.9	0
27249	2013-03-08T08:00:00	49.9	ND	ND	ND	ND	ND	0.4	160.3	22.9	73.8	116.3	0
27250	2013-03-08T09:00:00	61.5	ND	ND	ND	ND	ND	0.5	167.4	24.3	66.7	239	0
27251	2013-03-08T10:00:00	63.7	ND	ND	ND	ND	ND	0.8	95.6	25.1	64.1	355.5	0
27252	2013-03-08T11:00:00	66.3	ND	ND	ND	ND	ND	1	162.4	27.8	55.2	800.9	0
27253	2013-03-08T12:00:00	62.6	ND	ND	ND	ND	ND	1.7	133.4	29.2	51.8	770.9	0
27254	2013-03-08T13:00:00	51.6	ND	ND	ND	ND	ND	1	142	30.7	47.1	1013.5	0
27255	2013-03-08T14:00:00	38.5	ND	ND	ND	ND	ND	1.6	118.3	31.1	46	680.6	0
27256	2013-03-08T15:00:00	44.4	ND	ND	ND	ND	ND	1	142.9	31.1	45.6	330.1	0
27257	2013-03-08T16:00:00	45.8	ND	ND	ND	ND	ND	1.3	212.4	31.1	47.2	287.6	0
27258	2013-03-08T17:00:00	36.1	ND	ND	ND	ND	ND	3.4	274.3	30.2	50.2	222.2	0
27259	2013-03-08T18:00:00	37	ND	ND	ND	ND	ND	3.8	271.8	28.4	54.5	35.2	0
27260	2013-03-08T19:00:00	29.3	ND	ND	ND	ND	ND	3	274.5	27.7	55.7	0	0
27261	2013-03-08T20:00:00	23.8	ND	ND	ND	ND	ND	3.8	269.2	26.8	58.6	0	0
27262	2013-03-08T21:00:00	14	ND	ND	ND	ND	ND	2.6	269.3	26.7	58	0	0
27263	2013-03-08T22:00:00	8.9	ND	ND	ND	ND	ND	0.2	189.9	26.3	61.1	0	0
27264	2013-03-08T23:00:00	5.6	ND	ND	ND	ND	ND	1.4	278.3	26.2	60.1	0	0
27265	2013-03-09T00:00:00	12.8	ND	ND	ND	ND	ND	3	258.4	26	60.8	0	0
27266	2013-03-09T01:00:00	7.5	ND	ND	ND	ND	ND	1	350.6	24.9	69.4	0	0
27267	2013-03-09T02:00:00	21.6	ND	ND	ND	ND	ND	0.9	132.4	24	74.8	0	0
27268	2013-03-09T03:00:00	33.1	ND	ND	ND	ND	ND	0.8	150.7	23.8	75.1	0	0
27269	2013-03-09T04:00:00	47.6	ND	ND	ND	ND	ND	0.5	102.7	23.9	74	0	0
27270	2013-03-09T05:00:00	26.1	ND	ND	ND	ND	ND	0.6	141.5	23.6	75.3	0	0
27271	2013-03-09T06:00:00	56.7	ND	ND	ND	ND	ND	0.5	179.1	23.5	76.4	0	0
27272	2013-03-09T07:00:00	39.3	ND	ND	ND	ND	ND	0.9	9.9	23.7	75.7	5	0
27273	2013-03-09T08:00:00	68	ND	ND	ND	ND	ND	0.6	91	23.6	77.6	73.1	0
27274	2013-03-09T09:00:00	79.2	ND	ND	ND	ND	ND	0.7	130.4	24.5	73.7	164.9	0
27275	2013-03-09T10:00:00	90.4	ND	ND	ND	ND	ND	1	90.3	25.7	68.1	352.6	0
27276	2013-03-09T11:00:00	93.3	ND	ND	ND	ND	ND	0.7	77.3	27.5	60.1	683.4	0
27277	2013-03-09T12:00:00	81.9	ND	ND	ND	ND	ND	1.7	117.3	28.7	56.1	487	0
27278	2013-03-09T13:00:00	59.6	ND	ND	ND	ND	ND	0.5	92.3	28.7	54.3	265.2	0
27279	2013-03-09T14:00:00	62	ND	ND	ND	ND	ND	2.7	289.6	28.7	51.2	472.7	0
27280	2013-03-09T15:00:00	33.5	ND	ND	ND	ND	ND	2	282.9	29.2	50.2	251	0
27281	2013-03-09T16:00:00	17.3	ND	ND	ND	ND	ND	2.9	279.3	28.6	52.6	225.4	0
27282	2013-03-09T17:00:00	10.1	ND	ND	ND	ND	ND	3	279.9	29.4	49.6	425.5	0
27283	2013-03-09T18:00:00	7.6	ND	ND	ND	ND	ND	3.4	282.4	27.9	53.2	130.9	0
27284	2013-03-09T19:00:00	15.8	ND	ND	ND	ND	ND	2.9	283.2	27.1	53.9	1.4	0
27285	2013-03-09T20:00:00	20.7	ND	ND	ND	ND	ND	2.5	279.8	26.9	53.9	0	0
27286	2013-03-09T21:00:00	12.3	ND	ND	ND	ND	ND	1.3	293	26.4	55.3	0	0
27287	2013-03-09T22:00:00	7.6	ND	ND	ND	ND	ND	1.7	257.8	26.1	57.4	0	0
27288	2013-03-09T23:00:00	18.3	ND	ND	ND	ND	ND	1.8	215.6	25.8	64	0	0
27289	2013-03-10T00:00:00	33	ND	ND	ND	ND	ND	1.7	195.2	25.3	67	0	0
27290	2013-03-10T01:00:00	27	ND	ND	ND	ND	ND	0.6	359.6	24.3	70.1	0	0
27291	2013-03-10T02:00:00	34	ND	ND	ND	ND	ND	0.1	168	24.2	70.6	0	0
27292	2013-03-10T03:00:00	39.3	ND	ND	ND	ND	ND	1.2	139.3	23.8	73	0	0
27293	2013-03-10T04:00:00	55.5	ND	ND	ND	ND	ND	0.3	ND	23.1	76	0	0
27294	2013-03-10T05:00:00	50.9	ND	ND	ND	ND	ND	0.8	145	22.7	78.5	0	0
27295	2013-03-10T06:00:00	46.7	ND	ND	ND	ND	ND	0.4	50	22.6	79.3	0	0
27296	2013-03-10T07:00:00	25.7	ND	ND	ND	ND	ND	0.6	94.7	22.6	78.2	6.7	0
27297	2013-03-10T08:00:00	36	ND	ND	ND	ND	ND	0.1	ND	23.3	75.9	71.2	0
27298	2013-03-10T09:00:00	42.3	ND	ND	ND	ND	ND	0.3	123.5	24.6	70.8	237.6	0
27299	2013-03-10T10:00:00	47.6	ND	ND	ND	ND	ND	0.6	113.9	26.6	62.4	525.4	0
27300	2013-03-10T11:00:00	33.4	ND	ND	ND	ND	ND	1.1	68.4	28	56.5	619.4	0
27301	2013-03-10T12:00:00	21.8	ND	ND	ND	ND	ND	1.1	88.6	29.4	52	522.1	0
27302	2013-03-10T13:00:00	20	ND	ND	ND	ND	ND	1.4	141	29.4	50.9	352.2	0
27303	2013-03-10T14:00:00	29.7	ND	ND	ND	ND	ND	0.7	38.7	29.5	50.9	295.5	0
27304	2013-03-10T15:00:00	21.4	ND	ND	ND	ND	ND	0.8	352.7	30.3	48.5	451.6	0
27305	2013-03-10T16:00:00	25.3	ND	ND	ND	ND	ND	1	270.8	30.5	47.6	381.8	0
27306	2013-03-10T17:00:00	23.5	ND	ND	ND	ND	ND	3.5	276.6	30.1	47.7	294.3	0
27307	2013-03-10T18:00:00	12.4	ND	ND	ND	ND	ND	3.4	279	28.6	51	74.3	0
27308	2013-03-10T19:00:00	17.3	ND	ND	ND	ND	ND	3.7	272	27.4	54.9	0	0
27309	2013-03-10T20:00:00	11.1	ND	ND	ND	ND	ND	3.7	270.9	27.1	55.6	0	0
27310	2013-03-10T21:00:00	6.7	ND	ND	ND	ND	ND	1.6	291	27.1	55.2	0	0
27311	2013-03-10T22:00:00	5.3	ND	ND	ND	ND	ND	0.7	130	26.3	60	0	0
27312	2013-03-10T23:00:00	4	ND	ND	ND	ND	ND	0.6	103.7	25.2	67	0	0
27313	2013-03-11T00:00:00	45	ND	ND	ND	ND	ND	0.2	128.7	24.5	70.1	0	0
27314	2013-03-11T01:00:00	48.5	ND	ND	ND	ND	ND	1.7	208.1	25.1	65.8	0	0
27315	2013-03-11T02:00:00	30.9	ND	ND	ND	ND	ND	0.1	282.1	24.4	71	0	0
27316	2013-03-11T03:00:00	35	ND	ND	ND	ND	ND	1.4	165.4	23.5	75.3	0	0
27317	2013-03-11T04:00:00	38.4	ND	ND	ND	ND	ND	0.8	154.3	23	76.9	0	0
27318	2013-03-11T05:00:00	50.3	ND	ND	ND	ND	ND	1.2	154.7	22.7	78.3	0	0
27319	2013-03-11T06:00:00	36.5	ND	ND	ND	ND	ND	0.9	201.4	22.9	78.1	0	0
27320	2013-03-11T07:00:00	47.2	ND	ND	ND	ND	ND	0.2	ND	23	76.5	12.7	0
27321	2013-03-11T08:00:00	50.6	ND	ND	ND	ND	ND	0.4	141.9	23.8	75.2	95	0
27322	2013-03-11T09:00:00	48.7	ND	ND	ND	ND	ND	0.6	169.7	24.9	69.3	292.2	0
27323	2013-03-11T10:00:00	52.2	ND	ND	ND	ND	ND	1.3	190.3	26.6	62.5	550.4	0
27324	2013-03-11T11:00:00	28.1	ND	ND	ND	ND	ND	0.7	178.4	28.3	56.7	737.1	0
27325	2013-03-11T12:00:00	27.6	ND	ND	ND	ND	ND	0.9	122	30.1	50.5	833.9	0
27326	2013-03-11T13:00:00	16.1	ND	ND	ND	ND	ND	0.2	21.2	30.8	47.9	593.4	0
27327	2013-03-11T14:00:00	28.2	ND	ND	ND	ND	ND	0.9	309.8	31.8	42.8	540	0
27328	2013-03-11T15:00:00	15.1	ND	ND	ND	ND	ND	3.4	281.6	32.5	40	812.5	0
27329	2013-03-11T16:00:00	27.5	ND	ND	ND	ND	ND	4.7	277.5	31.4	44.3	599.2	0
27330	2013-03-11T17:00:00	25	ND	ND	ND	ND	ND	4.9	283.3	29.9	47.9	357.9	0
27331	2013-03-11T18:00:00	28.4	ND	ND	ND	ND	ND	5.5	280.5	28.2	52.8	122.9	0
27332	2013-03-11T19:00:00	30.6	ND	ND	ND	ND	ND	5.8	286.7	26.8	57.6	0	0
27333	2013-03-11T20:00:00	29.8	ND	ND	ND	ND	ND	4.7	277.5	26.8	58.2	0	0
27334	2013-03-11T21:00:00	16.2	ND	ND	ND	ND	ND	3.6	250.4	26.1	61.6	0	0
27335	2013-03-11T22:00:00	9.5	ND	ND	ND	ND	ND	1.9	213.1	25.7	64.1	0	0
27336	2013-03-11T23:00:00	5.5	ND	ND	ND	ND	ND	1.7	189.5	25.3	67.3	0	0
27337	2013-03-12T00:00:00	10.4	ND	ND	ND	ND	ND	1.3	156.8	25	68.8	0	0
27338	2013-03-12T01:00:00	6	ND	ND	ND	ND	ND	0.8	185	24.3	72.6	0	0
27339	2013-03-12T02:00:00	13.6	ND	ND	ND	ND	ND	1.2	27	23.9	77.1	0	0
27340	2013-03-12T03:00:00	15.7	ND	ND	ND	ND	ND	0.7	41.7	23.3	81.3	0	0
27341	2013-03-12T04:00:00	36.2	ND	ND	ND	ND	ND	0.4	ND	23.3	80.5	0	0
27342	2013-03-12T05:00:00	20.2	ND	ND	ND	ND	ND	0.6	1.1	23.3	79.6	0	0
27343	2013-03-12T06:00:00	41.1	ND	ND	ND	ND	ND	0.5	258.8	23.2	74.8	0	0
27344	2013-03-12T07:00:00	36.5	ND	ND	ND	ND	ND	0.3	ND	22.7	82.5	6.1	0
27345	2013-03-12T08:00:00	41	ND	ND	ND	ND	ND	0.7	63.1	23.2	81.2	60.3	0
27346	2013-03-12T09:00:00	60.5	ND	ND	ND	ND	ND	0.2	314.4	24.6	74.9	334.1	0
27347	2013-03-12T10:00:00	57.2	ND	ND	ND	ND	ND	0.8	126	26.7	63.5	436.3	0
27348	2013-03-12T11:00:00	57.7	ND	ND	ND	ND	ND	0.7	88.9	27.1	61.8	287.8	0
27349	2013-03-12T12:00:00	51.3	ND	ND	ND	ND	ND	1	163.2	28.6	55.3	595.6	0
27350	2013-03-12T13:00:00	26.5	ND	ND	ND	ND	ND	0.6	80.2	30.2	49.3	770.9	0
27351	2013-03-12T14:00:00	29.2	ND	ND	ND	ND	ND	1.2	348.1	31.2	45.6	478.1	0
27352	2013-03-12T15:00:00	31.3	ND	ND	ND	ND	ND	2.2	294.9	30.9	46.4	415.1	0
27353	2013-03-12T16:00:00	29.4	ND	ND	ND	ND	ND	4.2	279.2	30.5	46.8	539	0
27354	2013-03-12T17:00:00	15.6	ND	ND	ND	ND	ND	3.5	279.4	29.9	48	196.3	0
27355	2013-03-12T18:00:00	ND	ND	ND	ND	ND	ND	4.5	276.7	28.7	51.2	109.1	0
27356	2013-03-12T19:00:00	ND	ND	ND	ND	ND	ND	4.7	273	27.5	55.1	0	0
27357	2013-03-12T20:00:00	ND	ND	ND	ND	ND	ND	4.7	266.5	26.9	57.6	0	0
27358	2013-03-12T21:00:00	ND	ND	ND	ND	ND	ND	2.8	282.5	26.7	58	0	0
27359	2013-03-12T22:00:00	ND	ND	ND	ND	ND	ND	3.8	275.7	26.3	60	0	0
27360	2013-03-12T23:00:00	ND	ND	ND	ND	ND	ND	2.4	273.4	25.9	61.7	0	0
27361	2013-03-13T00:00:00	ND	ND	ND	ND	ND	ND	0.6	302.5	25.2	67.5	0	0
27362	2013-03-13T01:00:00	ND	ND	ND	ND	ND	ND	2.2	268.3	24.6	68.9	0	0
27363	2013-03-13T02:00:00	ND	ND	ND	ND	ND	ND	0.2	31.9	23.8	77.4	0	0
27364	2013-03-13T03:00:00	79.5	ND	ND	ND	ND	ND	0.7	110.1	23.3	82.8	0	5.59
27365	2013-03-13T04:00:00	43.2	ND	ND	ND	ND	ND	1.2	167.9	21.2	95.1	0	29.21
27366	2013-03-13T05:00:00	22.1	ND	ND	ND	ND	ND	0.8	203.8	21.3	93.2	0	0.25
27367	2013-03-13T06:00:00	13.1	ND	ND	ND	ND	ND	0.2	275.4	22.1	87.7	0	0.25
27368	2013-03-13T07:00:00	7.2	ND	ND	ND	ND	ND	0.6	146.1	22.3	88	3.7	0
27369	2013-03-13T08:00:00	5.7	ND	ND	ND	ND	ND	1.4	188.7	21.9	87.8	22.6	0
27370	2013-03-13T09:00:00	3.7	ND	ND	ND	ND	ND	0.6	164.9	22.5	85.2	66.4	0
27371	2013-03-13T10:00:00	15	ND	ND	ND	ND	ND	1.2	131.3	22.9	84.3	172.1	0
27372	2013-03-13T11:00:00	33.3	ND	ND	ND	ND	ND	0.9	120.4	23.6	80.5	434.5	0
27373	2013-03-13T12:00:00	33.1	ND	ND	ND	ND	ND	0.9	127.6	25.7	66.9	613.6	0
27374	2013-03-13T13:00:00	18.4	ND	ND	ND	ND	ND	0.6	113.7	28.2	57.1	947	0
27375	2013-03-13T14:00:00	10.6	ND	ND	ND	ND	ND	0.9	129	29.5	51.8	576.9	0
27376	2013-03-13T15:00:00	6.2	ND	ND	ND	ND	ND	1.6	284.3	29.3	50.5	281.9	0
27377	2013-03-13T16:00:00	4.3	ND	ND	ND	ND	ND	4	278.7	27.9	53.5	264.1	0
27378	2013-03-13T17:00:00	4.6	ND	ND	ND	ND	ND	3.9	274.3	27.2	55	148.2	0
27379	2013-03-13T18:00:00	4.9	ND	ND	ND	ND	ND	1.5	292.6	25.8	61.7	36.8	0
27380	2013-03-13T19:00:00	42.4	ND	ND	ND	ND	ND	0.2	64.4	24.7	71.1	0	0
27381	2013-03-13T20:00:00	37.5	ND	ND	ND	ND	ND	0.7	67.9	24.6	70.8	0	0
27382	2013-03-13T21:00:00	52.9	ND	ND	ND	ND	ND	1.7	278.3	24.6	66	0	0
27383	2013-03-13T22:00:00	36.9	ND	ND	ND	ND	ND	0.7	271.5	24.6	66.6	0	0
27384	2013-03-13T23:00:00	19.1	ND	ND	ND	ND	ND	1.5	177	23.3	78.7	0	0
27385	2013-03-14T00:00:00	55.3	ND	ND	ND	ND	ND	1.7	187.6	23.2	79.1	0	0
27386	2013-03-14T01:00:00	34.7	ND	ND	ND	ND	ND	0.4	134.4	23.2	79.4	0	0
27387	2013-03-14T02:00:00	28.7	ND	ND	ND	ND	ND	1.3	177.7	23.1	79.2	0	0
27388	2013-03-14T03:00:00	31.6	ND	ND	ND	ND	ND	1.1	128.9	22.5	84	0	0
27389	2013-03-14T04:00:00	27.5	ND	ND	ND	ND	ND	0.3	ND	22.2	86.2	0	0
27390	2013-03-14T05:00:00	21.2	ND	ND	ND	ND	ND	0.1	ND	22.4	83.9	0	0
27391	2013-03-14T06:00:00	11.3	ND	ND	ND	ND	ND	0.6	57.2	22.6	84.1	0	0
27392	2013-03-14T07:00:00	25.1	ND	ND	ND	ND	ND	0.4	89.8	22.4	85.9	18.5	0
27393	2013-03-14T08:00:00	67.3	ND	ND	ND	ND	ND	1.7	137.1	22.8	83.5	99.9	0
27394	2013-03-14T09:00:00	65.7	ND	ND	ND	ND	ND	1.5	158.5	23.1	81.1	141.9	0
27395	2013-03-14T10:00:00	69.8	ND	ND	ND	ND	ND	1.7	186.6	24.3	73.8	355.4	0
27396	2013-03-14T11:00:00	51.3	ND	ND	ND	ND	ND	1.1	167.9	25	70.1	323.2	0
27397	2013-03-14T12:00:00	40.6	ND	ND	ND	ND	ND	1	134.3	26.9	62.8	511.3	0
27398	2013-03-14T13:00:00	23.9	ND	ND	ND	ND	ND	1.4	151.1	28.6	54.9	852.6	0
27399	2013-03-14T14:00:00	30.2	ND	ND	ND	ND	ND	2.1	122.4	29.8	49.9	768.5	0
27400	2013-03-14T15:00:00	16.5	ND	ND	ND	ND	ND	1.3	308.7	29.2	50.2	116.3	0
27401	2013-03-14T16:00:00	10	ND	ND	ND	ND	ND	2.5	279	29.2	49	290.9	0
27402	2013-03-14T17:00:00	12.8	ND	ND	ND	ND	ND	4.2	266.9	28.1	53.3	165.6	0
27403	2013-03-14T18:00:00	12.8	ND	ND	ND	ND	ND	2.6	226.4	26	63.7	106.2	0
27404	2013-03-14T19:00:00	29.1	ND	ND	ND	ND	ND	2.6	299.8	26.2	58.6	0.2	0
27405	2013-03-14T20:00:00	21.5	ND	ND	ND	ND	ND	3.3	269.4	25.7	59.8	0	0
27406	2013-03-14T21:00:00	12.9	ND	ND	ND	ND	ND	1	338.8	24.6	70.4	0	0
27407	2013-03-14T22:00:00	18.1	ND	ND	ND	ND	ND	1.4	126.6	23.7	78.4	0	0
27408	2013-03-14T23:00:00	11.2	ND	ND	ND	ND	ND	1.7	199.8	23	81.9	0	0
27409	2013-03-15T00:00:00	10	ND	ND	ND	ND	ND	1.7	172.3	22.5	84	0	0
27410	2013-03-15T01:00:00	6	ND	ND	ND	ND	ND	1.3	177.3	21.3	92.1	0	8.89
27411	2013-03-15T02:00:00	4.3	ND	ND	ND	ND	ND	0.9	213.3	21	93.4	0	7.62
27412	2013-03-15T03:00:00	4.6	ND	ND	ND	ND	ND	0.7	172.2	20.9	94.1	0	3.05
27413	2013-03-15T04:00:00	4.4	ND	ND	ND	ND	ND	0.9	156.2	20.7	95.4	0	0
27414	2013-03-15T05:00:00	5.8	ND	ND	ND	ND	ND	1.1	174.4	20.6	95.1	0	0.51
27415	2013-03-15T06:00:00	5	ND	ND	ND	ND	ND	1.2	188.4	20.8	93.7	0	0.25
27416	2013-03-15T07:00:00	5.1	ND	ND	ND	ND	ND	0.2	122.9	21	92	0	2.54
27417	2013-03-15T08:00:00	3.1	ND	ND	ND	ND	ND	0.6	58.3	20.6	95.5	8.8	10.92
27418	2013-03-15T09:00:00	6.9	ND	ND	ND	ND	ND	0.8	52.2	20.3	98	25.1	13.72
27419	2013-03-15T10:00:00	21.4	ND	ND	ND	ND	ND	1.3	25.1	20.4	97.9	65.2	6.35
27420	2013-03-15T11:00:00	27.8	ND	ND	ND	ND	ND	0.9	6.1	21.1	93.9	158.5	1.27
27421	2013-03-15T12:00:00	16.9	ND	ND	ND	ND	ND	1	33.6	21.8	90.1	201.1	0.51
27422	2013-03-15T13:00:00	9.5	ND	ND	ND	ND	ND	1.2	65.4	22.2	87.2	242.9	0.76
27423	2013-03-15T14:00:00	6.9	ND	ND	ND	ND	ND	1.1	67.9	22.6	85.3	320.3	0.76
27424	2013-03-15T15:00:00	5	ND	ND	ND	ND	ND	0.2	48.6	23.9	78.4	283.1	0.25
27425	2013-03-15T16:00:00	4.9	ND	ND	ND	ND	ND	0.6	76.8	24.5	73.2	274.2	0
27426	2013-03-15T17:00:00	8.3	ND	ND	ND	ND	ND	0.8	345.5	24.9	71	153.2	0
27427	2013-03-15T18:00:00	19.2	ND	ND	ND	ND	ND	1	335	24.7	73.3	69.7	0
27428	2013-03-15T19:00:00	15.6	ND	ND	ND	ND	ND	1.2	2.6	23.7	79.3	0	0
27429	2013-03-15T20:00:00	55	ND	ND	ND	ND	ND	0.5	332.1	23.1	81	0	0
27430	2013-03-15T21:00:00	54.5	ND	ND	ND	ND	ND	0.5	ND	22.8	81.1	0	0
27431	2013-03-15T22:00:00	62.5	ND	ND	ND	ND	ND	1.7	263.1	21.9	80.6	0	0
27432	2013-03-15T23:00:00	32.3	ND	ND	ND	ND	ND	1.1	262.9	21.9	78	0	0
27433	2013-03-16T00:00:00	39.1	ND	ND	ND	ND	ND	0.6	302.3	21.9	80.3	0	0
27434	2013-03-16T01:00:00	28.5	ND	ND	ND	ND	ND	0.7	265.1	21.6	77.7	0	0
27435	2013-03-16T02:00:00	28.5	ND	ND	ND	ND	ND	0	118.8	21.7	82.7	0	0
27436	2013-03-16T03:00:00	17.7	ND	ND	ND	ND	ND	0.3	ND	21.2	89.1	0	0
27437	2013-03-16T04:00:00	44.6	ND	ND	ND	ND	ND	0.7	52.4	21	89.3	0	0
27438	2013-03-16T05:00:00	45.7	ND	ND	ND	ND	ND	0.4	5.6	21	88.1	0	0
27439	2013-03-16T06:00:00	43.7	ND	ND	ND	ND	ND	0.7	70.4	20.7	88.6	0	0
27440	2013-03-16T07:00:00	47.5	ND	ND	ND	ND	ND	0.5	74.2	20.4	89.4	13.7	0
27441	2013-03-16T08:00:00	63.6	ND	ND	ND	ND	ND	0.6	60.2	21.1	86.1	114.6	0
27442	2013-03-16T09:00:00	72.8	ND	ND	ND	ND	ND	0.2	ND	22.7	79.1	203.1	0
27443	2013-03-16T10:00:00	68.9	ND	ND	ND	ND	ND	0.3	122.9	24.3	72.1	465.3	0
27444	2013-03-16T11:00:00	68.2	ND	ND	ND	ND	ND	1.1	142.9	26.4	64.3	656.3	0
27445	2013-03-16T12:00:00	68.5	ND	ND	ND	ND	ND	1.2	141.6	27.5	60.4	804.3	0
27446	2013-03-16T13:00:00	45.2	ND	ND	ND	ND	ND	1	113	28.3	57.6	579.6	0
27447	2013-03-16T14:00:00	70.4	ND	ND	ND	ND	ND	1	89	28.9	55	743.7	0
27448	2013-03-16T15:00:00	41.3	ND	ND	ND	ND	ND	0.9	19.8	29.7	52.5	460.8	0
27449	2013-03-16T16:00:00	44.2	ND	ND	ND	ND	ND	1	2.4	29.8	51.9	312.8	0
27450	2013-03-16T17:00:00	24.6	ND	ND	ND	ND	ND	3.1	278.8	29.5	50.9	298.9	0
27451	2013-03-16T18:00:00	14.4	ND	ND	ND	ND	ND	3	271.1	28.1	54.3	82.1	0
27452	2013-03-16T19:00:00	8.2	ND	ND	ND	ND	ND	3.1	276.4	27.1	57	0	0
27453	2013-03-16T20:00:00	23	ND	ND	ND	ND	ND	3.7	269.4	26.5	59.5	0	0
27454	2013-03-16T21:00:00	12.9	ND	ND	ND	ND	ND	3.2	273.9	26.3	61.4	0	0
27455	2013-03-16T22:00:00	8.1	ND	ND	ND	ND	ND	2.4	243.5	25.6	65.6	0	0
27456	2013-03-16T23:00:00	5.7	ND	ND	ND	ND	ND	1.5	233.4	25.5	65.6	0	0
27457	2013-03-17T00:00:00	14.9	ND	ND	ND	ND	ND	0.5	310.1	25	69.9	0	0
27458	2013-03-17T01:00:00	9.1	ND	ND	ND	ND	ND	0.5	86.1	24.1	75.1	0	0
27459	2013-03-17T02:00:00	38.8	ND	ND	ND	ND	ND	1	168	23.3	76.2	0	0
27460	2013-03-17T03:00:00	41.8	ND	ND	ND	ND	ND	0.7	61.8	23.1	78.6	0	0
27461	2013-03-17T04:00:00	52.2	ND	ND	ND	ND	ND	0.8	66.6	22.7	80.5	0	0
27462	2013-03-17T05:00:00	34.8	ND	ND	ND	ND	ND	0.5	87.3	22.8	80.2	0	0
27463	2013-03-17T06:00:00	36.9	ND	ND	ND	ND	ND	0.7	54.6	22.6	81.5	0	0
27464	2013-03-17T07:00:00	21.1	ND	ND	ND	ND	ND	0.2	ND	23	79.6	15.3	0
27465	2013-03-17T08:00:00	34.2	ND	ND	ND	ND	ND	0.8	153.6	23.6	77.7	125.7	0
27466	2013-03-17T09:00:00	22.3	ND	ND	ND	ND	ND	1.3	142.2	23.5	81	213.9	0
27467	2013-03-17T10:00:00	40.5	ND	ND	ND	ND	ND	0.6	121.2	24.5	75.1	312.9	0
27468	2013-03-17T11:00:00	21.9	ND	ND	ND	ND	ND	1.5	181.5	25.6	67.7	248.7	0
27469	2013-03-17T12:00:00	11.6	ND	ND	ND	ND	ND	1.4	225.9	26.5	65.3	639.7	0
27470	2013-03-17T13:00:00	8.2	ND	ND	ND	ND	ND	1	175.2	28.6	55.9	927	0
27471	2013-03-17T14:00:00	5.2	ND	ND	ND	ND	ND	1.9	289.8	27.4	59.8	153.9	14.22
27472	2013-03-17T15:00:00	2.9	ND	ND	ND	ND	ND	0.4	107	22.6	85.9	65.7	10.92
27473	2013-03-17T16:00:00	3.5	ND	ND	ND	ND	ND	1.3	297.7	24.3	70.8	107.4	0
27474	2013-03-17T17:00:00	2.9	ND	ND	ND	ND	ND	1.4	337	25.1	68.7	86.4	0
27475	2013-03-17T18:00:00	14.1	ND	ND	ND	ND	ND	1.3	147.5	24	78.8	32.5	0
27476	2013-03-17T19:00:00	26.5	ND	ND	ND	ND	ND	0.3	240.3	23.3	80	0	0
27477	2013-03-17T20:00:00	18.5	ND	ND	ND	ND	ND	0.8	257.4	23.8	73.1	0	0
27478	2013-03-17T21:00:00	10.4	ND	ND	ND	ND	ND	0.9	18.2	23.6	76.2	0	0
27479	2013-03-17T22:00:00	34.1	ND	ND	ND	ND	ND	0.8	84.3	22.7	82.5	0	0
27480	2013-03-17T23:00:00	27.5	ND	ND	ND	ND	ND	1.5	59.8	22.5	81	0	0
27481	2013-03-18T00:00:00	26.8	ND	ND	ND	ND	ND	1.5	32.6	21.7	83.9	0	0
27482	2013-03-18T01:00:00	14.5	ND	ND	ND	ND	ND	0.8	61.6	20.9	90.2	0	0
27483	2013-03-18T02:00:00	9	ND	ND	ND	ND	ND	1.1	54.9	20.5	89.8	0	0
27484	2013-03-18T03:00:00	5.5	ND	ND	ND	ND	ND	1.9	29.8	20	88.1	0	0
27485	2013-03-18T04:00:00	3.4	ND	ND	ND	ND	ND	0.9	46.2	19.6	88.7	0	0
27486	2013-03-18T05:00:00	2.7	ND	ND	ND	ND	ND	0.6	151.5	19.5	90.2	0	0.76
27487	2013-03-18T06:00:00	3.4	ND	ND	ND	ND	ND	0.3	167.1	19.8	89.7	0	0
27488	2013-03-18T07:00:00	2.5	ND	ND	ND	ND	ND	0.6	198.3	20.3	88.7	21.6	0
27489	2013-03-18T08:00:00	12	ND	ND	ND	ND	ND	1.2	92.7	20.9	86.4	130.8	0
27490	2013-03-18T09:00:00	32.2	ND	ND	ND	ND	ND	1.3	84.6	21.7	81.4	233.4	0
27491	2013-03-18T10:00:00	44.8	ND	ND	ND	ND	ND	0.9	41	23.2	75.9	464	0
27492	2013-03-18T11:00:00	28.5	ND	ND	ND	ND	ND	1.5	80.7	24.7	68.9	728	0
27493	2013-03-18T12:00:00	36.6	ND	ND	ND	ND	ND	1.3	91.2	25.6	64.8	493.7	0
27494	2013-03-18T13:00:00	23.2	ND	ND	ND	ND	ND	1.2	70.9	27.2	58.9	762.9	0
27495	2013-03-18T14:00:00	29.7	ND	ND	ND	ND	ND	0.9	61.9	28.1	55.3	543.1	0
27496	2013-03-18T15:00:00	15.5	ND	ND	ND	ND	ND	0.5	60.1	28.1	54.4	318.9	0
27497	2013-03-18T16:00:00	25.9	ND	ND	ND	ND	ND	1.4	60.4	28.6	53	328.1	0
27498	2013-03-18T17:00:00	30.6	ND	ND	ND	ND	ND	2.8	354.5	26.7	61.5	98.2	0
27499	2013-03-18T18:00:00	23.3	ND	ND	ND	ND	ND	2.3	318.4	25.4	64.6	32.8	0
27500	2013-03-18T19:00:00	17.2	ND	ND	ND	ND	ND	1.8	290.1	25.6	59.2	0	0
27501	2013-03-18T20:00:00	30.9	ND	ND	ND	ND	ND	1.6	170.5	24.5	71.9	0	0
27502	2013-03-18T21:00:00	32.9	ND	ND	ND	ND	ND	1.5	197.7	22.9	82.9	0	0.51
27503	2013-03-18T22:00:00	26.6	ND	ND	ND	ND	ND	1.1	208.8	23.4	77.7	0	0
27504	2013-03-18T23:00:00	14.7	ND	ND	ND	ND	ND	0.6	139.3	22.7	85.2	0	0
27505	2013-03-19T00:00:00	20.6	ND	ND	ND	ND	ND	0.8	114.8	21.9	89.3	0	0.25
27506	2013-03-19T01:00:00	12.1	ND	ND	ND	ND	ND	1.3	58.3	21.2	92.5	0	3.56
27507	2013-03-19T02:00:00	8	ND	ND	ND	ND	ND	1.4	95.3	20.6	94.6	0	2.79
27508	2013-03-19T03:00:00	5.2	ND	ND	ND	ND	ND	1.4	172.4	19.9	93.8	0	3.3
27509	2013-03-19T04:00:00	3.7	ND	ND	ND	ND	ND	0.8	194.3	20	94.4	0	5.84
27510	2013-03-19T05:00:00	4.3	ND	ND	ND	ND	ND	0.5	69.5	20.1	93.7	0	0.25
27511	2013-03-19T06:00:00	2.1	ND	ND	ND	ND	ND	0.8	43.8	20.1	94.5	0	0
27512	2013-03-19T07:00:00	6.6	ND	ND	ND	ND	ND	0.7	19.3	20.3	93.9	12.5	0
27513	2013-03-19T08:00:00	26.6	ND	ND	ND	ND	ND	1	66.2	20.4	93.5	65.8	0.25
27514	2013-03-19T09:00:00	45.1	ND	ND	ND	ND	ND	0.5	102.7	20.8	91.5	164.4	0
27515	2013-03-19T10:00:00	50.8	ND	ND	ND	ND	ND	1	75.7	22.1	85.1	278.2	0
27516	2013-03-19T11:00:00	31.4	ND	ND	ND	ND	ND	1.1	28.8	23.1	78.8	452.6	0
27517	2013-03-19T12:00:00	49.5	ND	ND	ND	ND	ND	0.8	349.9	25	67.2	477.3	0
27518	2013-03-19T13:00:00	44.8	ND	ND	ND	ND	ND	0.3	9.2	26.8	58.3	860.1	0
27519	2013-03-19T14:00:00	47.1	ND	ND	ND	ND	ND	1.1	77.6	28.7	51.4	909.8	0
27520	2013-03-19T15:00:00	24.6	ND	ND	ND	ND	ND	1.1	47.3	29.7	49.4	749.8	0
27521	2013-03-19T16:00:00	14.7	ND	ND	ND	ND	ND	1.4	20.9	29.7	50.1	306.2	0
27522	2013-03-19T17:00:00	9.1	ND	ND	ND	ND	ND	2	293	29.5	48.7	349.2	0
27523	2013-03-19T18:00:00	16.7	ND	ND	ND	ND	ND	4.3	271.4	27	55.5	100.7	0
27524	2013-03-19T19:00:00	21.3	ND	ND	ND	ND	ND	3.3	274.3	26.2	55.4	0	0
27525	2013-03-19T20:00:00	11.8	ND	ND	ND	ND	ND	3.1	255.1	25.7	58.4	0	0
27526	2013-03-19T21:00:00	8.1	ND	ND	ND	ND	ND	1.3	256	25.4	62.1	0	0
27527	2013-03-19T22:00:00	10.9	ND	ND	ND	ND	ND	0.7	65.8	24.9	65.5	0	0
27528	2013-03-19T23:00:00	8.5	ND	ND	ND	ND	ND	1.1	142.1	23.9	69.4	0	0
27529	2013-03-20T00:00:00	18.8	ND	ND	ND	ND	ND	0.5	166.4	23.8	70.2	0	0
27530	2013-03-20T01:00:00	12.7	ND	ND	ND	ND	ND	0.3	210.7	23.7	72.8	0	0
27531	2013-03-20T02:00:00	9.4	ND	ND	ND	ND	ND	0.9	136.4	22.8	78.9	0	0
27532	2013-03-20T03:00:00	5.8	ND	ND	ND	ND	ND	0.6	152.3	22	85.8	0	0
27533	2013-03-20T04:00:00	3.4	ND	ND	ND	ND	ND	0.3	111.1	22.2	83.5	0	0
27534	2013-03-20T05:00:00	14.8	ND	ND	ND	ND	ND	0.5	130.9	22.2	81.2	0	0
27535	2013-03-20T06:00:00	11.1	ND	ND	ND	ND	ND	0.9	153.5	22	82.1	0	0
27536	2013-03-20T07:00:00	19.1	ND	ND	ND	ND	ND	1.1	154	21.7	83	8.1	0
27537	2013-03-20T08:00:00	25.5	ND	ND	ND	ND	ND	0.4	293.1	22.5	80.1	57.2	0
27538	2013-03-20T09:00:00	19	ND	ND	ND	ND	ND	0.6	198	23.8	70.9	189.3	0
27539	2013-03-20T10:00:00	40.6	ND	ND	ND	ND	ND	0.8	129.7	25.4	66.1	481.6	0
27540	2013-03-20T11:00:00	22	ND	ND	ND	ND	ND	0.8	107	27.2	59.2	683.4	0
27541	2013-03-20T12:00:00	19.9	ND	ND	ND	ND	ND	0.6	138	28.1	56	620	0
27542	2013-03-20T13:00:00	20.5	ND	ND	ND	ND	ND	1	83.3	29.6	49.6	778.7	0
27543	2013-03-20T14:00:00	11.5	ND	ND	ND	ND	ND	1.2	337	28.9	51.1	211.3	0
27544	2013-03-20T15:00:00	ND	ND	ND	ND	ND	ND	3.3	269.1	28.5	53.8	614.4	0
27545	2013-03-20T16:00:00	ND	ND	ND	ND	ND	ND	3.8	280.4	29.3	48.2	564.4	0
27546	2013-03-20T17:00:00	ND	ND	ND	ND	ND	ND	2.5	266	28.9	48.7	135.5	0
27547	2013-03-20T18:00:00	ND	ND	ND	ND	ND	ND	3.2	268.5	27.1	54.7	19.2	0
27548	2013-03-20T19:00:00	ND	ND	ND	ND	ND	ND	1.2	90.2	26.3	63.7	0	0
27549	2013-03-20T20:00:00	ND	ND	ND	ND	ND	ND	1.6	279.6	25.7	64.9	0	0
27550	2013-03-20T21:00:00	ND	ND	ND	ND	ND	ND	3.1	258.4	25.1	63.9	0	0
27551	2013-03-20T22:00:00	ND	ND	ND	ND	ND	ND	1	326	25	67.4	0	0
27552	2013-03-20T23:00:00	96.9	ND	ND	ND	ND	ND	1.1	221	24.8	67	0	0
27553	2013-03-21T00:00:00	74.9	ND	ND	ND	ND	ND	2.2	203.9	24.2	70.6	0	0
27554	2013-03-21T01:00:00	38.6	ND	ND	ND	ND	ND	2.6	200.5	22.9	81.4	0	0
27555	2013-03-21T02:00:00	20.5	ND	ND	ND	ND	ND	1.2	194	23.1	76.1	0	0
27556	2013-03-21T03:00:00	12.6	ND	ND	ND	ND	ND	1.3	55.7	22.7	77.7	0	0
27557	2013-03-21T04:00:00	9.8	ND	ND	ND	ND	ND	0.9	93.2	21.8	83.3	0	0
27558	2013-03-21T05:00:00	6.7	ND	ND	ND	ND	ND	1.6	168.8	21.8	85.8	0	0
27559	2013-03-21T06:00:00	18.9	ND	ND	ND	ND	ND	1.7	175.2	21.6	84.8	0	0
27560	2013-03-21T07:00:00	16.3	ND	ND	ND	ND	ND	1.4	175.1	21.2	88.1	0	0
27561	2013-03-21T08:00:00	21.8	ND	ND	ND	ND	ND	1.3	140.7	20.5	89.8	18.2	0.25
27562	2013-03-21T09:00:00	12.6	ND	ND	ND	ND	ND	0.6	141.7	20.4	89.2	43.1	0
27563	2013-03-21T10:00:00	16.4	ND	ND	ND	ND	ND	1	55.3	20.2	90.6	48.7	11.94
27564	2013-03-21T11:00:00	24.3	ND	ND	ND	ND	ND	1.1	59.7	19.8	92.8	84.6	2.29
27565	2013-03-21T12:00:00	33.6	ND	ND	ND	ND	ND	0.4	177.9	20.2	90.4	103.5	0
27566	2013-03-21T13:00:00	17.7	ND	ND	ND	ND	ND	1	236.3	20.8	86	161.4	0.25
27567	2013-03-21T14:00:00	10.6	ND	ND	ND	ND	ND	0.7	256.5	21.9	78.5	173.2	0
27568	2013-03-21T15:00:00	6.6	ND	ND	ND	ND	ND	0.4	114.2	22.2	77.9	128.8	0
27569	2013-03-21T16:00:00	27.6	ND	ND	ND	ND	ND	2	257.6	22.3	76.6	155.5	0
27570	2013-03-21T17:00:00	15	ND	ND	ND	ND	ND	1.2	237.8	22.6	74.6	61.4	0
27571	2013-03-21T18:00:00	26.4	ND	ND	ND	ND	ND	0.8	192.7	22.7	75	24.8	0
27572	2013-03-21T19:00:00	26.8	ND	ND	ND	ND	ND	0.9	223.5	22.4	78.2	0	0
27573	2013-03-21T20:00:00	70.4	ND	ND	ND	ND	ND	1.6	236.6	21.8	76	0	0
27574	2013-03-21T21:00:00	37.2	ND	ND	ND	ND	ND	0.9	261.4	21.7	74	0	0
27575	2013-03-21T22:00:00	34.7	ND	ND	ND	ND	ND	1.4	19.2	21.3	83.7	0	0
27576	2013-03-21T23:00:00	51.6	ND	ND	ND	ND	ND	0.6	329	21.3	84.5	0	0
27577	2013-03-22T00:00:00	37.4	ND	ND	ND	ND	ND	0.7	55.1	21.2	86.4	0	0
27578	2013-03-22T01:00:00	23.7	ND	ND	ND	ND	ND	0.4	190.1	21.2	84.7	0	0
27579	2013-03-22T02:00:00	44.5	ND	ND	ND	ND	ND	0.4	ND	21	83.7	0	0
27580	2013-03-22T03:00:00	24.1	ND	ND	ND	ND	ND	0.5	225	20.7	82.2	0	0
27581	2013-03-22T04:00:00	26.8	ND	ND	ND	ND	ND	0.7	168.7	20.4	86.5	0	0
27582	2013-03-22T05:00:00	35	ND	ND	ND	ND	ND	0.6	179.8	20	91.1	0	0
27583	2013-03-22T06:00:00	34.3	ND	ND	ND	ND	ND	0.2	ND	20.2	88.9	0	0
27584	2013-03-22T07:00:00	27.3	ND	ND	ND	ND	ND	0.4	224.1	20.5	82.2	19.2	0
27585	2013-03-22T08:00:00	50.6	ND	ND	ND	ND	ND	0.4	211.8	21.2	78.5	110.2	0
27586	2013-03-22T09:00:00	64	ND	ND	ND	ND	ND	0.5	189.4	22.4	78.2	278.4	0
27587	2013-03-22T10:00:00	56.4	ND	ND	ND	ND	ND	0.8	152.7	23.6	70.6	452	0
27588	2013-03-22T11:00:00	33.2	ND	ND	ND	ND	ND	0.6	180.4	25.1	64.6	556.8	0
27589	2013-03-22T12:00:00	56.1	ND	ND	ND	ND	ND	1.5	133	26.7	58.5	899.8	0
27590	2013-03-22T13:00:00	43.5	ND	ND	ND	ND	ND	1.2	128.8	27.6	55.7	752.3	0
27591	2013-03-22T14:00:00	44.5	ND	ND	ND	ND	ND	0.9	175.3	28.2	51.2	658.7	0
27592	2013-03-22T15:00:00	23.1	ND	ND	ND	ND	ND	1	126.4	28.5	51.5	447.2	0
27593	2013-03-22T16:00:00	41.6	ND	ND	ND	ND	ND	1.3	76.9	28.6	51.9	326.4	0
27594	2013-03-22T17:00:00	37.1	ND	ND	ND	ND	ND	1.6	74	27.8	54.5	134.4	0
27595	2013-03-22T18:00:00	52.6	ND	ND	ND	ND	ND	0.7	280.3	27.2	56.6	35.9	0
27596	2013-03-22T19:00:00	32.6	ND	ND	ND	ND	ND	0.6	206.4	26.4	59.2	0	0
27597	2013-03-22T20:00:00	61.7	ND	ND	ND	ND	ND	1.5	271.9	25.9	60.7	0	0
27598	2013-03-22T21:00:00	32.5	ND	ND	ND	ND	ND	1.3	267.6	25.4	63	0	0
27599	2013-03-22T22:00:00	ND	ND	ND	ND	ND	ND	0.2	215.3	25	66.2	0	0
27600	2013-03-22T23:00:00	ND	ND	ND	ND	ND	ND	1.2	196.6	24.8	66.9	0	0
27601	2013-03-23T00:00:00	ND	ND	ND	ND	ND	ND	1.6	208.7	24	71	0	0
27602	2013-03-23T01:00:00	ND	ND	ND	ND	ND	ND	0.6	110.5	23.6	77.4	0	0
27603	2013-03-23T02:00:00	ND	ND	ND	ND	ND	ND	1.3	46.9	23.2	81	0	0
27604	2013-03-23T03:00:00	ND	ND	ND	ND	ND	ND	1.2	19.2	23	79.9	0	0
27605	2013-03-23T04:00:00	ND	ND	ND	ND	ND	ND	0.1	ND	23.2	79.1	0	0
27606	2013-03-23T05:00:00	ND	ND	ND	ND	ND	ND	0.4	148.3	23.1	76.5	0	0
27607	2013-03-23T06:00:00	ND	ND	ND	ND	ND	ND	0.7	82.4	22.2	82.9	0	0
27608	2013-03-23T07:00:00	ND	ND	ND	ND	ND	ND	0.3	ND	22.2	82	13.1	0
27609	2013-03-23T08:00:00	ND	ND	ND	ND	ND	ND	0.6	97.9	22.5	81.5	54.4	0
27610	2013-03-23T09:00:00	125.2	ND	ND	ND	ND	ND	0.3	ND	23.1	78.6	125.1	0
27611	2013-03-23T10:00:00	127.2	ND	ND	ND	ND	ND	0.7	196.7	24.5	71.9	370.3	0
27612	2013-03-23T11:00:00	107.5	ND	ND	ND	ND	ND	0.9	140.8	26.1	65.2	536.6	0
27613	2013-03-23T12:00:00	66.9	ND	ND	ND	ND	ND	1	106.6	27	61.2	605	0
27614	2013-03-23T13:00:00	40.7	ND	ND	ND	ND	ND	0.8	87.8	28.1	56.7	449.6	0
27615	2013-03-23T14:00:00	65.3	ND	ND	ND	ND	ND	0.4	100.8	28.3	56.6	360.8	0
27616	2013-03-23T15:00:00	ND	ND	ND	ND	ND	ND	1.1	65.3	28.4	55.8	183.4	0
27617	2013-03-23T16:00:00	ND	ND	ND	ND	ND	ND	0.3	35.5	27.9	57.4	128	0
27618	2013-03-23T17:00:00	ND	ND	ND	ND	ND	ND	1.8	240.4	27.2	57.8	111.7	0
27619	2013-03-23T18:00:00	ND	ND	ND	ND	ND	ND	2.2	257.3	27.1	56.4	43.3	0
27620	2013-03-23T19:00:00	78.2	ND	ND	ND	ND	ND	2.3	259.4	26.2	59.7	0	0
27621	2013-03-23T20:00:00	53.7	ND	ND	ND	ND	ND	2.3	260.9	25.7	61.5	0	0
27622	2013-03-23T21:00:00	27.4	ND	ND	ND	ND	ND	2	261.7	25.4	62.9	0	0
27623	2013-03-23T22:00:00	21	ND	ND	ND	ND	ND	0.7	323.3	24.7	67.3	0	0
27624	2013-03-23T23:00:00	16.5	ND	ND	ND	ND	ND	0.3	317.6	23.8	73.6	0	0
27625	2013-03-24T00:00:00	26.3	ND	ND	ND	ND	ND	1.3	226.4	23.9	72.8	0	0
27626	2013-03-24T01:00:00	18.7	ND	ND	ND	ND	ND	0.8	225.8	23.6	73.9	0	0
27627	2013-03-24T02:00:00	32.6	ND	ND	ND	ND	ND	1	177.3	23.2	79.2	0	0
27628	2013-03-24T03:00:00	27.5	ND	ND	ND	ND	ND	1.5	187.1	22.7	82.9	0	0
27629	2013-03-24T04:00:00	50.1	ND	ND	ND	ND	ND	0.1	327.4	22.7	79.6	0	0
27630	2013-03-24T05:00:00	26.4	ND	ND	ND	ND	ND	0.1	259.8	22.2	78.5	0	0
27631	2013-03-24T06:00:00	40.7	ND	ND	ND	ND	ND	0.8	3.5	21.8	80.3	0	0
27632	2013-03-24T07:00:00	56.1	ND	ND	ND	ND	ND	0.4	ND	21.6	79.7	22.7	0
27633	2013-03-24T08:00:00	40.9	ND	ND	ND	ND	ND	0.6	232	22.6	75.6	122	0
27634	2013-03-24T09:00:00	40.5	ND	ND	ND	ND	ND	0.9	188.5	24.4	71.7	410.6	0
27635	2013-03-24T10:00:00	61.9	ND	ND	ND	ND	ND	1.2	152.1	26.2	65.6	613	0
27636	2013-03-24T11:00:00	48.6	ND	ND	ND	ND	ND	0.8	113.4	27.7	58.4	802.8	0
27637	2013-03-24T12:00:00	37.9	ND	ND	ND	ND	ND	1	114.7	28.6	54.6	689	0
27638	2013-03-24T13:00:00	28.9	ND	ND	ND	ND	ND	0.9	116.5	29.4	52.3	424.8	0
27639	2013-03-24T14:00:00	23.3	ND	ND	ND	ND	ND	2.2	295.1	28.4	53.6	178.7	0
27640	2013-03-24T15:00:00	13.4	ND	ND	ND	ND	ND	3.2	291.4	28.4	53.2	499.9	0
27641	2013-03-24T16:00:00	10.1	ND	ND	ND	ND	ND	4	280.7	29.8	47.6	520	0
27642	2013-03-24T17:00:00	7.2	ND	ND	ND	ND	ND	3.5	283.3	28	52.5	168.6	0
27643	2013-03-24T18:00:00	6	ND	ND	ND	ND	ND	3.7	283	26.6	57.2	16.7	0
27644	2013-03-24T19:00:00	4.5	ND	ND	ND	ND	ND	2.1	270.5	26.1	58.5	0	0
27645	2013-03-24T20:00:00	8.8	ND	ND	ND	ND	ND	3.3	185.1	24	71.2	0	0
27646	2013-03-24T21:00:00	5.5	ND	ND	ND	ND	ND	2.5	184.6	22.2	83.1	0	0.51
27647	2013-03-24T22:00:00	22.1	ND	ND	ND	ND	ND	1.2	176.8	21.7	86.5	0	0.51
27648	2013-03-24T23:00:00	13.2	ND	ND	ND	ND	ND	0.6	266.7	22.1	85.3	0	0
27649	2013-03-25T00:00:00	10.9	ND	ND	ND	ND	ND	0.6	19.3	22.3	85	0	0.25
27650	2013-03-25T01:00:00	32.3	ND	ND	ND	ND	ND	0.9	65.6	21.4	88.6	0	0
27651	2013-03-25T02:00:00	30	ND	ND	ND	ND	ND	0.6	151.1	21.1	88.6	0	0
27652	2013-03-25T03:00:00	19	ND	ND	ND	ND	ND	0.3	91.9	21	88.3	0	0
27653	2013-03-25T04:00:00	18	ND	ND	ND	ND	ND	0.4	ND	21.1	88.9	0	0
27654	2013-03-25T05:00:00	10.1	ND	ND	ND	ND	ND	1	3.9	21.2	88.8	0	0
27655	2013-03-25T06:00:00	14.8	ND	ND	ND	ND	ND	0.3	48.2	21.1	87.8	0	0
27656	2013-03-25T07:00:00	12.7	ND	ND	ND	ND	ND	0.9	231.9	21.2	80.9	22.1	0
27657	2013-03-25T08:00:00	20.2	ND	ND	ND	ND	ND	1	162.5	21.6	83.8	108	0
27658	2013-03-25T09:00:00	10.8	ND	ND	ND	ND	ND	0.4	180.9	21.8	84.2	85.4	0
27659	2013-03-25T10:00:00	33.8	ND	ND	ND	ND	ND	0.7	92.6	23.4	77.5	458.9	0
27660	2013-03-25T11:00:00	28.9	ND	ND	ND	ND	ND	0.6	49.2	25.2	68.4	518.3	0
27661	2013-03-25T12:00:00	18.5	ND	ND	ND	ND	ND	0.6	359.7	26.2	62	677.2	0
27662	2013-03-25T13:00:00	11.5	ND	ND	ND	ND	ND	1.4	81.4	28.2	54.6	781.9	0
27663	2013-03-25T14:00:00	20.2	ND	ND	ND	ND	ND	1.3	53.9	29.4	50.9	770	0
27664	2013-03-25T15:00:00	11.5	ND	ND	ND	ND	ND	1.2	21.2	29.9	49.7	517.7	0
27665	2013-03-25T16:00:00	ND	ND	ND	ND	ND	ND	1.1	12.4	30.6	46.7	559.6	0
27666	2013-03-25T17:00:00	ND	ND	ND	ND	ND	ND	2	265.7	30.9	46.9	437	0
27667	2013-03-25T18:00:00	ND	ND	ND	ND	ND	ND	3.4	264.5	29.4	50.7	171.3	0
27668	2013-03-25T19:00:00	ND	ND	ND	ND	ND	ND	2.4	270.6	28	54.6	5	0
27669	2013-03-25T20:00:00	ND	ND	ND	ND	ND	ND	3.1	265.4	26.9	58.9	0	0
27670	2013-03-25T21:00:00	ND	ND	ND	ND	ND	ND	2.7	265.1	26.4	60	0	0
27671	2013-03-25T22:00:00	ND	ND	ND	ND	ND	ND	0.8	339.2	25.4	67.1	0	0
27672	2013-03-25T23:00:00	ND	ND	ND	ND	ND	ND	1.5	263.6	25.3	64.6	0	0
27673	2013-03-26T00:00:00	ND	ND	ND	ND	ND	ND	2	269.6	25.4	64.3	0	0
27674	2013-03-26T01:00:00	82.9	ND	ND	ND	ND	ND	2	278.6	25.4	63.6	0	0
27675	2013-03-26T02:00:00	41.4	ND	ND	ND	ND	ND	0.7	134	23.6	75.9	0	0
27676	2013-03-26T03:00:00	23	ND	ND	ND	ND	ND	0.9	173.9	23.1	78.3	0	0
27677	2013-03-26T04:00:00	41.7	ND	ND	ND	ND	ND	0.1	ND	23.3	76.9	0	0
27678	2013-03-26T05:00:00	31.3	ND	ND	ND	ND	ND	0.3	17.5	23.5	76.2	0	0
27679	2013-03-26T06:00:00	29.2	ND	ND	ND	ND	ND	1	168	23.4	77.9	0	0
27680	2013-03-26T07:00:00	30.4	ND	ND	ND	ND	ND	1.5	154.5	22.8	83	24.3	0
27681	2013-03-26T08:00:00	53.6	ND	ND	ND	ND	ND	0.7	199.9	23.4	79.5	213	0
27682	2013-03-26T09:00:00	28.2	ND	ND	ND	ND	ND	1.5	150.9	24.9	72.8	220.6	0
27683	2013-03-26T10:00:00	40.8	ND	ND	ND	ND	ND	1.5	133.6	22.7	86.1	71.8	7.87
27684	2013-03-26T11:00:00	41.9	ND	ND	ND	ND	ND	2	352.8	22.8	87.3	69.6	0.25
27685	2013-03-26T12:00:00	52.2	ND	ND	ND	ND	ND	2.7	9.3	22.3	85.2	230.6	0
27686	2013-03-26T13:00:00	32.1	ND	ND	ND	ND	ND	3.2	4.7	22.3	77.3	359.3	0
27687	2013-03-26T14:00:00	32.5	ND	ND	ND	ND	ND	2.4	13.8	22	73.8	211.1	0
27688	2013-03-26T15:00:00	29.6	ND	ND	ND	ND	ND	1.1	251.8	24	61.5	446.8	0
27689	2013-03-26T16:00:00	16.4	ND	ND	ND	ND	ND	2	223	25.7	58.1	258.5	0
27690	2013-03-26T17:00:00	10.2	ND	ND	ND	ND	ND	1.6	184.7	27.3	46.8	324.4	0
27691	2013-03-26T18:00:00	10.9	ND	ND	ND	ND	ND	1.3	167.2	26.7	50.9	54.3	0
27692	2013-03-26T19:00:00	23	ND	ND	ND	ND	ND	0.7	59.2	25	61.4	0	0
27693	2013-03-26T20:00:00	48.6	ND	ND	ND	ND	ND	0.7	32.3	24	63.2	0	0
27694	2013-03-26T21:00:00	61.1	ND	ND	ND	ND	ND	0.6	158.1	22.9	70.4	0	0
27695	2013-03-26T22:00:00	64.7	ND	ND	ND	ND	ND	1.4	192	22.6	74.3	0	0
27696	2013-03-26T23:00:00	34.6	ND	ND	ND	ND	ND	1	210.9	22.4	73.4	0	0
27697	2013-03-27T00:00:00	49.5	ND	ND	ND	ND	ND	0.5	328.4	21.7	76.2	0	0
27698	2013-03-27T01:00:00	30.3	ND	ND	ND	ND	ND	0.2	ND	21.2	81.5	0	0
27699	2013-03-27T02:00:00	62.8	ND	ND	ND	ND	ND	1.3	181.4	21.5	79.6	0	0
27700	2013-03-27T03:00:00	33.3	ND	ND	ND	ND	ND	0.7	197.6	21.2	80.7	0	0
27701	2013-03-27T04:00:00	32.6	ND	ND	ND	ND	ND	1.1	266.2	20.8	76.5	0	0
27702	2013-03-27T05:00:00	18.4	ND	ND	ND	ND	ND	1.1	280.8	20.5	74.5	0	0
27703	2013-03-27T06:00:00	16.3	ND	ND	ND	ND	ND	0.9	59.7	19.6	86.5	0	0
27704	2013-03-27T07:00:00	21.3	ND	ND	ND	ND	ND	1.2	37.7	19.1	89.8	27.6	0
27705	2013-03-27T08:00:00	61.7	ND	ND	ND	ND	ND	0.7	73.1	19.5	89.5	83.3	0
27706	2013-03-27T09:00:00	44.4	ND	ND	ND	ND	ND	0.5	32.1	21	82.5	202.1	0
27707	2013-03-27T10:00:00	87.5	ND	ND	ND	ND	ND	1.7	17.1	23	72.8	380.4	0
27708	2013-03-27T11:00:00	63.4	ND	ND	ND	ND	ND	2.3	26.3	24.4	68	508	0
27709	2013-03-27T12:00:00	51.3	ND	ND	ND	ND	ND	2.2	39.6	26	61.2	804.9	0
27710	2013-03-27T13:00:00	48.1	ND	ND	ND	ND	ND	1.4	58.3	28.1	52.6	930.3	0
27711	2013-03-27T14:00:00	27.9	ND	ND	ND	ND	ND	1.3	65.2	29.8	45.5	888.3	0
27712	2013-03-27T15:00:00	15.3	ND	ND	ND	ND	ND	2.2	61.2	30.5	44.5	751.3	0
27713	2013-03-27T16:00:00	21.6	ND	ND	ND	ND	ND	1.6	29.6	30.9	44.8	593	0
27714	2013-03-27T17:00:00	15.2	ND	ND	ND	ND	ND	1.8	302.3	30.6	47.1	363.8	0
27715	2013-03-27T18:00:00	17.5	ND	ND	ND	ND	ND	4.4	275.4	28.2	51.8	113.2	0
27716	2013-03-27T19:00:00	23.2	ND	ND	ND	ND	ND	3.4	281.8	26.8	54.8	0	0
27717	2013-03-27T20:00:00	21.8	ND	ND	ND	ND	ND	3.2	264.9	26.2	56.6	0	0
27718	2013-03-27T21:00:00	13.8	ND	ND	ND	ND	ND	0.6	323.3	25.9	58	0	0
27719	2013-03-27T22:00:00	35.6	ND	ND	ND	ND	ND	0.7	247.6	25.2	61.9	0	0
27720	2013-03-27T23:00:00	21.5	ND	ND	ND	ND	ND	1.1	266.5	24.5	66.2	0	0
27721	2013-03-28T00:00:00	26.7	ND	ND	ND	ND	ND	3.1	266.5	25	59.9	0	0
27722	2013-03-28T01:00:00	15	ND	ND	ND	ND	ND	0.4	202.2	24.1	67.7	0	0
27723	2013-03-28T02:00:00	34.4	ND	ND	ND	ND	ND	0.8	142.3	22.9	75.7	0	0
27724	2013-03-28T03:00:00	29.8	ND	ND	ND	ND	ND	1	245	22.6	77.9	0	0
27725	2013-03-28T04:00:00	29.8	ND	ND	ND	ND	ND	0.4	129.8	22.8	75.9	0	0
27726	2013-03-28T05:00:00	18.2	ND	ND	ND	ND	ND	0.8	142.9	22.1	80	0	0
27727	2013-03-28T06:00:00	16.3	ND	ND	ND	ND	ND	0.5	121.6	22.1	80.2	0	0
27728	2013-03-28T07:00:00	21.1	ND	ND	ND	ND	ND	1.1	192	22.1	80	18.8	0
27729	2013-03-28T08:00:00	32	ND	ND	ND	ND	ND	0.8	160.6	22.8	77	93.2	0
27730	2013-03-28T09:00:00	23	ND	ND	ND	ND	ND	1.1	180.4	23.4	73.7	215.7	0
27731	2013-03-28T10:00:00	25.2	ND	ND	ND	ND	ND	1.2	157.6	24.6	67.7	379.4	0
27732	2013-03-28T11:00:00	14.8	ND	ND	ND	ND	ND	1.3	107.7	26.3	61.1	659.5	0
27733	2013-03-28T12:00:00	7.4	ND	ND	ND	ND	ND	0.6	155.9	27.5	56.5	633.3	0
27734	2013-03-28T13:00:00	5.2	ND	ND	ND	ND	ND	1.4	97.9	28.3	54	650.8	0
27735	2013-03-28T14:00:00	20.7	ND	ND	ND	ND	ND	1.1	155.8	29.3	51.1	569.6	0
27736	2013-03-28T15:00:00	12.7	ND	ND	ND	ND	ND	1.2	82.2	29.5	50.4	397.4	0
27737	2013-03-28T16:00:00	28.4	ND	ND	ND	ND	ND	2.5	284.9	29	50.5	248.9	0
27738	2013-03-28T17:00:00	21.6	ND	ND	ND	ND	ND	3.1	274.5	28.4	49.9	169.7	0
27739	2013-03-28T18:00:00	ND	ND	ND	ND	ND	ND	3.2	281.9	27.5	52.8	60.5	0
27740	2013-03-28T19:00:00	ND	ND	ND	ND	ND	ND	2.9	269.2	26.8	53.8	0	0
27741	2013-03-28T20:00:00	ND	ND	ND	ND	ND	ND	3	265.7	26.2	56.4	0	0
27742	2013-03-28T21:00:00	ND	ND	ND	ND	ND	ND	0.8	302.9	25.7	59.3	0	0
27743	2013-03-28T22:00:00	ND	ND	ND	ND	ND	ND	0.9	121.8	24.4	67.5	0	0
27744	2013-03-28T23:00:00	ND	ND	ND	ND	ND	ND	0.4	114.1	24.1	69.2	0	0
27745	2013-03-29T00:00:00	ND	ND	ND	ND	ND	ND	0.4	26	23.9	70.1	0	0
27746	2013-03-29T01:00:00	ND	ND	ND	ND	ND	ND	0.5	15.5	22.9	74.5	0	0
27747	2013-03-29T02:00:00	112.2	ND	ND	ND	ND	ND	0.4	105.6	22.5	77	0	0
27748	2013-03-29T03:00:00	57.9	ND	ND	ND	ND	ND	0.4	156.9	22.5	76.8	0	0
27749	2013-03-29T04:00:00	30.1	ND	ND	ND	ND	ND	0.6	129.1	22.1	79.7	0	0
27750	2013-03-29T05:00:00	16.6	ND	ND	ND	ND	ND	0.7	180	21.8	80.4	0	0
27751	2013-03-29T06:00:00	37.3	ND	ND	ND	ND	ND	0.2	ND	21.6	80.3	0	0
27752	2013-03-29T07:00:00	20.7	ND	ND	ND	ND	ND	0.6	243.7	21.8	77.9	30.1	0
27753	2013-03-29T08:00:00	36.4	ND	ND	ND	ND	ND	0.7	63.1	22.7	76	213.5	0
27754	2013-03-29T09:00:00	20	ND	ND	ND	ND	ND	0.6	224.6	24.2	68.3	234.4	0
27755	2013-03-29T10:00:00	25.9	ND	ND	ND	ND	ND	0.6	101.4	26	60.2	522.8	0
27756	2013-03-29T11:00:00	14.4	ND	ND	ND	ND	ND	1.2	75.3	28.4	54.1	799.6	0
27757	2013-03-29T12:00:00	23.9	ND	ND	ND	ND	ND	1.4	82.9	29.1	52.7	784.3	0
27758	2013-03-29T13:00:00	13.9	ND	ND	ND	ND	ND	1.4	69.4	30	49.4	911.9	0
27759	2013-03-29T14:00:00	11.4	ND	ND	ND	ND	ND	1.2	90.9	30.9	46.5	648	0
27760	2013-03-29T15:00:00	14.2	ND	ND	ND	ND	ND	1.4	67.9	31.3	45.5	454.3	0
27761	2013-03-29T16:00:00	16.5	ND	ND	ND	ND	ND	3.4	282.6	30.5	46.1	370.3	0
27762	2013-03-29T17:00:00	9.6	ND	ND	ND	ND	ND	3.4	284.3	30.1	46.8	341.1	0
27763	2013-03-29T18:00:00	5.9	ND	ND	ND	ND	ND	3.1	273.7	29.2	48.9	109.2	0
27764	2013-03-29T19:00:00	11.8	ND	ND	ND	ND	ND	4	274.6	27.3	55.3	0	0
27765	2013-03-29T20:00:00	11	ND	ND	ND	ND	ND	4.4	270.2	26.4	58.6	0	0
27766	2013-03-29T21:00:00	7.1	ND	ND	ND	ND	ND	1.3	286	26.4	57.9	0	0
27767	2013-03-29T22:00:00	11.3	ND	ND	ND	ND	ND	2.1	264.1	26	59.6	0	0
27768	2013-03-29T23:00:00	6.8	ND	ND	ND	ND	ND	2	222.7	25.4	64	0	0
27769	2013-03-30T00:00:00	11.9	ND	ND	ND	ND	ND	1.4	202.4	24.5	70	0	0
27770	2013-03-30T01:00:00	6.7	ND	ND	ND	ND	ND	1.2	191.6	24.4	69.9	0	0
27771	2013-03-30T02:00:00	20	ND	ND	ND	ND	ND	0.5	171.8	24	69.5	0	0
27772	2013-03-30T03:00:00	11.2	ND	ND	ND	ND	ND	0.7	83.6	22.8	77.4	0	0
27773	2013-03-30T04:00:00	17.5	ND	ND	ND	ND	ND	0.4	171.8	23	76.5	0	0
27774	2013-03-30T05:00:00	10.9	ND	ND	ND	ND	ND	0.7	177.9	23.2	74.9	0	0
27775	2013-03-30T06:00:00	15.5	ND	ND	ND	ND	ND	0.6	144.2	22.7	77.8	0	0
27776	2013-03-30T07:00:00	20.1	ND	ND	ND	ND	ND	0.4	206.9	22.5	79	38.4	0
27777	2013-03-30T08:00:00	23.8	ND	ND	ND	ND	ND	0.4	181.4	23.9	70	171.7	0
27778	2013-03-30T09:00:00	12.6	ND	ND	ND	ND	ND	1.2	141.8	25.3	66	318.4	0
27779	2013-03-30T10:00:00	9.6	ND	ND	ND	ND	ND	1.1	115.6	26.4	61.9	626.5	0
27780	2013-03-30T11:00:00	16.1	ND	ND	ND	ND	ND	1.7	109.1	27.9	57.2	833.7	0
27781	2013-03-30T12:00:00	29.7	ND	ND	ND	ND	ND	1.6	103.4	28.8	54.1	810.9	0
27782	2013-03-30T13:00:00	23.4	ND	ND	ND	ND	ND	0.8	108.3	30.2	49.2	711.2	0
27783	2013-03-30T14:00:00	26.5	ND	ND	ND	ND	ND	1.3	69.9	30.6	48.7	648.8	0
27784	2013-03-30T15:00:00	33.1	ND	ND	ND	ND	ND	1.4	47.1	31.2	48.3	440.5	0
27785	2013-03-30T16:00:00	40.5	ND	ND	ND	ND	ND	1.4	64.4	30.4	50.3	158.7	0
27786	2013-03-30T17:00:00	22.4	ND	ND	ND	ND	ND	0.6	289.1	29.9	50.7	46.4	0
27787	2013-03-30T18:00:00	24.2	ND	ND	ND	ND	ND	3.2	277.6	28.5	53.2	51.2	0
27788	2013-03-30T19:00:00	14.3	ND	ND	ND	ND	ND	4.3	267.6	27.5	56.1	0	0
27789	2013-03-30T20:00:00	9.6	ND	ND	ND	ND	ND	3.9	269.2	27.1	57	0	0
27790	2013-03-30T21:00:00	5.4	ND	ND	ND	ND	ND	3.8	266.7	26.7	57.8	0	0
27791	2013-03-30T22:00:00	4.3	ND	ND	ND	ND	ND	1.2	286.6	26.9	57.1	0	0
27792	2013-03-30T23:00:00	3.2	ND	ND	ND	ND	ND	2.5	237.4	26.5	59.2	0	0
27793	2013-03-31T00:00:00	3.2	ND	ND	ND	ND	ND	1.6	203.1	26.3	61.5	0	0
27794	2013-03-31T01:00:00	3.7	ND	ND	ND	ND	ND	2	195.7	25.3	66.2	0	0
27795	2013-03-31T02:00:00	2.7	ND	ND	ND	ND	ND	0.9	168.8	24.3	72	0	0
27796	2013-03-31T03:00:00	10.3	ND	ND	ND	ND	ND	0.7	337.9	24.1	72.1	0	0
27797	2013-03-31T04:00:00	7.3	ND	ND	ND	ND	ND	0.8	47.5	23.5	74	0	0
27798	2013-03-31T05:00:00	10.3	ND	ND	ND	ND	ND	0.3	95.8	23.1	76	0	0
27799	2013-03-31T06:00:00	11.2	ND	ND	ND	ND	ND	1	189	23.2	76.6	0	0
27800	2013-03-31T07:00:00	8.6	ND	ND	ND	ND	ND	0.4	213	23.2	76.8	33.2	0
27801	2013-03-31T08:00:00	7.1	ND	ND	ND	ND	ND	0.5	108.9	24.4	72.3	203	0
27802	2013-03-31T09:00:00	4.2	ND	ND	ND	ND	ND	0.9	134.6	25.8	67.3	421.8	0
27803	2013-03-31T10:00:00	4.8	ND	ND	ND	ND	ND	1	136.7	27.4	62	584	0
27804	2013-03-31T11:00:00	4.3	ND	ND	ND	ND	ND	1	131.3	28.6	56.2	693.7	0
27805	2013-03-31T12:00:00	4.4	ND	ND	ND	ND	ND	1.1	124.5	29.6	52	597.8	0
27806	2013-03-31T13:00:00	9.1	ND	ND	ND	ND	ND	0.7	107	30.8	47.8	755.3	0
27807	2013-03-31T14:00:00	29	ND	ND	ND	ND	ND	1.1	94.5	32.2	43.1	814.3	0
27808	2013-03-31T15:00:00	17.6	ND	ND	ND	ND	ND	1.3	90.1	32.7	41.2	728.2	0
27809	2013-03-31T16:00:00	10.9	ND	ND	ND	ND	ND	0.7	286.6	32.3	42.6	347	0
27810	2013-03-31T17:00:00	5.5	ND	ND	ND	ND	ND	3.7	283.4	31.4	46.4	359.4	0
27811	2013-03-31T18:00:00	2.7	ND	ND	ND	ND	ND	3.4	285	30.1	50.1	125.9	0
27812	2013-03-31T19:00:00	3.1	ND	ND	ND	ND	ND	4	272.9	28.5	53.7	4.1	0
27813	2013-03-31T20:00:00	ND	ND	ND	ND	ND	ND	3.4	273	28.1	54	0	0
27814	2013-03-31T21:00:00	83	ND	ND	ND	ND	ND	2.7	279.1	27.9	54.3	0	0
27815	2013-03-31T22:00:00	43.7	ND	ND	ND	ND	ND	1.7	282.5	27.7	54.7	0	0
27816	2013-03-31T23:00:00	24	ND	ND	ND	ND	ND	2.9	252.8	26.8	58.8	0	0
27817	2013-04-01T00:00:00	15.6	ND	ND	ND	ND	ND	2.3	235.2	26.4	60.4	0	0
27818	2013-04-01T01:00:00	9.4	ND	ND	ND	ND	ND	0.3	262	25.8	64.3	0	0
27819	2013-04-01T02:00:00	7.4	ND	ND	ND	ND	ND	0.8	54.3	24.9	70.4	0	0
27820	2013-04-01T03:00:00	4.5	ND	ND	ND	ND	ND	1	104.2	23.9	75.5	0	0
27821	2013-04-01T04:00:00	34.2	ND	ND	ND	ND	ND	1	162.8	23.7	76.4	0	0
27822	2013-04-01T05:00:00	18.9	ND	ND	ND	ND	ND	1.2	176.3	23.5	76.6	0	0
27823	2013-04-01T06:00:00	18.3	ND	ND	ND	ND	ND	1.1	208.2	23.6	77.1	0	0.76
27824	2013-04-01T07:00:00	20	ND	ND	ND	ND	ND	0.6	202.8	23.5	79	23.4	0
27825	2013-04-01T08:00:00	35.3	ND	ND	ND	ND	ND	1	159.2	24.9	71.5	202.4	0
27826	2013-04-01T09:00:00	20	ND	ND	ND	ND	ND	1.1	141.2	26.3	65.1	424.2	0
27827	2013-04-01T10:00:00	34.2	ND	ND	ND	ND	ND	0.8	168	27.3	61	410.8	0
27828	2013-04-01T11:00:00	20.9	ND	ND	ND	ND	ND	0.8	85.5	29.3	54.2	808.5	0
27829	2013-04-01T12:00:00	34.5	ND	ND	ND	ND	ND	1	94.7	31.1	49.4	699.7	0
27830	2013-04-01T13:00:00	19.5	ND	ND	ND	ND	ND	1.6	78.1	31.6	46.9	560.6	0
27831	2013-04-01T14:00:00	55.7	ND	ND	ND	ND	ND	0.8	310.4	30.9	47.5	174	0
27832	2013-04-01T15:00:00	40.8	ND	ND	ND	ND	ND	4.1	274	29	51.5	207.5	0
27833	2013-04-01T16:00:00	36	ND	ND	ND	ND	ND	5.2	272.3	28.1	53.6	151	0
27834	2013-04-01T17:00:00	19.3	ND	ND	ND	ND	ND	2.5	285.6	28	51.7	66.8	0
27835	2013-04-01T18:00:00	18.8	ND	ND	ND	ND	ND	2	291.9	27.5	54	22.1	0
27836	2013-04-01T19:00:00	11.2	ND	ND	ND	ND	ND	2.2	217.4	26.3	64.9	0	0
27837	2013-04-01T20:00:00	21.3	ND	ND	ND	ND	ND	2	232.2	25.6	67.1	0	0
27838	2013-04-01T21:00:00	29.6	ND	ND	ND	ND	ND	2.3	260	25.9	61.9	0	0
27839	2013-04-01T22:00:00	15.9	ND	ND	ND	ND	ND	0.5	308.4	25.7	63.9	0	0
27840	2013-04-01T23:00:00	19.8	ND	ND	ND	ND	ND	0.6	127.9	24.6	74.9	0	0
27841	2013-04-02T00:00:00	84.8	ND	ND	ND	ND	ND	1	182	24.1	75.6	0	0
27842	2013-04-02T01:00:00	65.8	ND	ND	ND	ND	ND	0.9	159.2	23.7	77.7	0	0
27843	2013-04-02T02:00:00	57.2	ND	ND	ND	ND	ND	0.8	179.8	23.6	76.3	0	0
27844	2013-04-02T03:00:00	29.4	ND	ND	ND	ND	ND	1	235	23.7	76.3	0	0
27845	2013-04-02T04:00:00	31.8	ND	ND	ND	ND	ND	0.6	227.3	23.8	75.8	0	0
27846	2013-04-02T05:00:00	17.7	ND	ND	ND	ND	ND	1.2	147.3	23.3	79.3	0	0
27847	2013-04-02T06:00:00	12.3	ND	ND	ND	ND	ND	0.4	ND	23.2	80.5	0	0
27848	2013-04-02T07:00:00	13.9	ND	ND	ND	ND	ND	1.3	16.2	23.1	81.4	12.7	0
27849	2013-04-02T08:00:00	62.9	ND	ND	ND	ND	ND	0.7	80.1	23.3	79.7	31.3	0
27850	2013-04-02T09:00:00	83.5	ND	ND	ND	ND	ND	0.6	329.5	20.9	97	59	60.71
27851	2013-04-02T10:00:00	57.2	ND	ND	ND	ND	ND	0.9	196.3	22.9	92.3	264.2	0
27852	2013-04-02T11:00:00	30.1	ND	ND	ND	ND	ND	0.9	97.6	25.1	74.7	374.7	0
27853	2013-04-02T12:00:00	61.8	ND	ND	ND	ND	ND	1	119.7	25.9	70.4	318.3	0
27854	2013-04-02T13:00:00	51.6	ND	ND	ND	ND	ND	0.9	95.2	26.6	66	352.3	0
27855	2013-04-02T14:00:00	51.8	ND	ND	ND	ND	ND	1.3	77.8	27.4	64.8	397.5	0
27856	2013-04-02T15:00:00	55.2	ND	ND	ND	ND	ND	1.9	67.8	26.5	68.4	238.6	0
27857	2013-04-02T16:00:00	44.2	ND	ND	ND	ND	ND	1.5	81.2	26.5	66.3	211.4	0
27858	2013-04-02T17:00:00	24.1	ND	ND	ND	ND	ND	1.6	68.1	26.3	67.7	121	0
27859	2013-04-02T18:00:00	57.5	ND	ND	ND	ND	ND	1.2	284.5	26.2	62.4	64.1	0
27860	2013-04-02T19:00:00	36.6	ND	ND	ND	ND	ND	2.1	269	25.3	62.6	0	0
27861	2013-04-02T20:00:00	27	ND	ND	ND	ND	ND	2	258.5	24.8	65.5	0	0
27862	2013-04-02T21:00:00	32.2	ND	ND	ND	ND	ND	1.2	229.9	24.5	67.5	0	0
27863	2013-04-02T22:00:00	18.5	ND	ND	ND	ND	ND	1.1	144.5	23.7	72.1	0	0
27864	2013-04-02T23:00:00	15.9	ND	ND	ND	ND	ND	0.6	140.7	23.1	73.4	0	0
27865	2013-04-03T00:00:00	35.1	ND	ND	ND	ND	ND	0.5	140.9	22.7	76.2	0	0
27866	2013-04-03T01:00:00	20.1	ND	ND	ND	ND	ND	0.6	217.6	22.5	79.8	0	0
27867	2013-04-03T02:00:00	21.9	ND	ND	ND	ND	ND	0.1	ND	22.3	82.9	0	0
27868	2013-04-03T03:00:00	12.8	ND	ND	ND	ND	ND	0.4	ND	22.2	82.1	0	0
27869	2013-04-03T04:00:00	21.5	ND	ND	ND	ND	ND	0.2	ND	22.1	81.8	0	0
27870	2013-04-03T05:00:00	11.4	ND	ND	ND	ND	ND	0.5	61.2	21.9	87	0	0
27871	2013-04-03T06:00:00	49.1	ND	ND	ND	ND	ND	0.3	41.1	21.8	87.1	0	0
27872	2013-04-03T07:00:00	48.8	ND	ND	ND	ND	ND	0.2	76.9	21.7	87.9	18.5	0
27873	2013-04-03T08:00:00	55.3	ND	ND	ND	ND	ND	0.5	82.9	22.3	85.5	99.1	0
27874	2013-04-03T09:00:00	60.7	ND	ND	ND	ND	ND	0.2	ND	23.6	77.6	324	0
27875	2013-04-03T10:00:00	69.9	ND	ND	ND	ND	ND	0.5	168	25.6	66.3	529.5	0
27876	2013-04-03T11:00:00	46.2	ND	ND	ND	ND	ND	1.4	157.2	27	60.6	668	0
27877	2013-04-03T12:00:00	48.7	ND	ND	ND	ND	ND	0.7	128.3	28.3	54.3	656.5	0
27878	2013-04-03T13:00:00	26.7	ND	ND	ND	ND	ND	0.7	97.3	28.9	52.3	500	0
27879	2013-04-03T14:00:00	31.8	ND	ND	ND	ND	ND	1.2	102	29.4	51.9	503.3	0
27880	2013-04-03T15:00:00	17.8	ND	ND	ND	ND	ND	0.4	104.4	30.1	49.6	475.3	0
27881	2013-04-03T16:00:00	33.6	ND	ND	ND	ND	ND	1.4	299.1	30.2	47.9	402	0
27882	2013-04-03T17:00:00	35.1	ND	ND	ND	ND	ND	3.2	272.6	29.7	48.2	211	0
27883	2013-04-03T18:00:00	32.5	ND	ND	ND	ND	ND	3.4	276.8	28.2	51.7	107.7	0
27884	2013-04-03T19:00:00	27.2	ND	ND	ND	ND	ND	3.7	274.9	27	55.3	0	0
27885	2013-04-03T20:00:00	20.6	ND	ND	ND	ND	ND	4.1	271.9	26.6	56.8	0	0
27886	2013-04-03T21:00:00	12.5	ND	ND	ND	ND	ND	3.1	276.7	26	60	0	0
27887	2013-04-03T22:00:00	6.9	ND	ND	ND	ND	ND	1.1	290.9	25.6	62.2	0	0
27888	2013-04-03T23:00:00	5.1	ND	ND	ND	ND	ND	0.3	265.9	25	66.1	0	0
27889	2013-04-04T00:00:00	12.5	ND	ND	ND	ND	ND	0.8	231.2	25.4	64.2	0	0
27890	2013-04-04T01:00:00	7.2	ND	ND	ND	ND	ND	0.9	163.7	24.4	72.3	0	0
27891	2013-04-04T02:00:00	23.2	ND	ND	ND	ND	ND	0.8	173	23.6	76	0	0
27892	2013-04-04T03:00:00	14.5	ND	ND	ND	ND	ND	1.1	153.5	23.5	76.5	0	0
27893	2013-04-04T04:00:00	27.5	ND	ND	ND	ND	ND	1	156	22.9	79	0	0
27894	2013-04-04T05:00:00	17.7	ND	ND	ND	ND	ND	0.3	ND	22.9	78.4	0	0
27895	2013-04-04T06:00:00	25.1	ND	ND	ND	ND	ND	0.1	ND	23.2	77.2	0	0
27896	2013-04-04T07:00:00	24.8	ND	ND	ND	ND	ND	0.6	194	22	89	4.2	15.24
27897	2013-04-04T08:00:00	36.2	ND	ND	ND	ND	ND	1.6	265.3	22	89	96.1	4.83
27898	2013-04-04T09:00:00	19.6	ND	ND	ND	ND	ND	0.7	51.7	23.8	80.9	295.6	0
27899	2013-04-04T10:00:00	11.2	ND	ND	ND	ND	ND	0.9	91.7	25.4	71.9	526.9	0
27900	2013-04-04T11:00:00	ND	ND	ND	ND	ND	ND	0.8	157.5	26.8	65	543.2	0
27901	2013-04-04T12:00:00	ND	ND	ND	ND	ND	ND	1	206.5	28	59	625.1	0
27902	2013-04-04T13:00:00	ND	ND	ND	ND	ND	ND	1.3	195.6	28.8	55.5	688.5	0
27903	2013-04-04T14:00:00	ND	ND	ND	ND	ND	ND	1.5	167.1	29.6	52.7	507.5	0
27904	2013-04-04T15:00:00	ND	ND	ND	ND	ND	ND	1.1	160.6	29.3	53.4	275.8	0
27905	2013-04-04T16:00:00	ND	ND	ND	ND	ND	ND	0.5	184.6	28.8	54.4	95.7	0
27906	2013-04-04T17:00:00	ND	ND	ND	ND	ND	ND	3.3	267	27.2	58	71.9	0
27907	2013-04-04T18:00:00	ND	ND	ND	ND	ND	ND	3.1	266.8	26.8	58.3	58.8	0
27908	2013-04-04T19:00:00	ND	ND	ND	ND	ND	ND	3.2	271.1	26.1	59.5	0	0
27909	2013-04-04T20:00:00	ND	ND	ND	ND	ND	ND	3.1	267	25.7	61.8	0	0
27910	2013-04-04T21:00:00	ND	ND	ND	ND	ND	ND	3.3	271	25.5	62.4	0	0
27911	2013-04-04T22:00:00	ND	ND	ND	ND	ND	ND	0.9	299.6	25.3	64.3	0	0
27912	2013-04-04T23:00:00	ND	ND	ND	ND	ND	ND	0.6	96.1	24.2	71.9	0	0
27913	2013-04-05T00:00:00	ND	ND	ND	ND	ND	ND	1.3	217.1	24.2	70.4	0	0
27914	2013-04-05T01:00:00	ND	ND	ND	ND	ND	ND	1.3	197.2	23.9	73.9	0	0
27915	2013-04-05T02:00:00	ND	ND	ND	ND	ND	ND	1.1	180.1	23.4	78.5	0	0
27916	2013-04-05T03:00:00	ND	ND	ND	ND	ND	ND	1	177.1	23.2	80.3	0	0
27917	2013-04-05T04:00:00	ND	ND	ND	ND	ND	ND	0.7	137.8	22.9	81.3	0	0
27918	2013-04-05T05:00:00	ND	ND	ND	ND	ND	ND	0.4	ND	22.9	80.4	0	0
27919	2013-04-05T06:00:00	ND	ND	ND	ND	ND	ND	0.6	145	22.8	80.8	0	0
27920	2013-04-05T07:00:00	ND	ND	ND	ND	ND	ND	1.2	173	22.7	83.3	10.3	0
27921	2013-04-05T08:00:00	ND	ND	ND	ND	ND	ND	0.8	188.3	22.8	81.7	88.1	0
27922	2013-04-05T09:00:00	ND	ND	ND	ND	ND	ND	0.7	153.2	24.1	73.1	192.8	0
27923	2013-04-05T10:00:00	ND	ND	ND	ND	ND	ND	0.7	143.1	25	69.9	244.2	0
27924	2013-04-05T11:00:00	ND	ND	ND	ND	ND	ND	0.6	139.7	25.9	65.2	374.2	0
27925	2013-04-05T12:00:00	ND	ND	ND	ND	ND	ND	1	99	27.3	60.6	504	0
27926	2013-04-05T13:00:00	ND	ND	ND	ND	ND	ND	1.4	29.4	28.9	54	670.5	0
27927	2013-04-05T14:00:00	ND	ND	ND	ND	ND	ND	1.7	12.2	30.1	46	533.9	0
27928	2013-04-05T15:00:00	ND	ND	ND	ND	ND	ND	2.9	303.1	29.6	46.3	470.1	0
27929	2013-04-05T16:00:00	ND	ND	ND	ND	ND	ND	3.1	280.8	30.4	44.1	561.9	0
27930	2013-04-05T17:00:00	ND	ND	ND	ND	ND	ND	3.6	279.1	29.9	46.1	279.2	0
27931	2013-04-05T18:00:00	ND	ND	ND	ND	ND	ND	3.7	273.2	27.7	52.3	26.4	0
27932	2013-04-05T19:00:00	ND	ND	ND	ND	ND	ND	2.5	262	26.9	56.9	0	0
27933	2013-04-05T20:00:00	ND	ND	ND	ND	ND	ND	2.9	268.9	26	59.8	0	0
27934	2013-04-05T21:00:00	ND	ND	ND	ND	ND	ND	1.9	284.9	25.7	61.2	0	0
27935	2013-04-05T22:00:00	ND	ND	ND	ND	ND	ND	0.7	31.3	24.6	69.7	0	0
27936	2013-04-05T23:00:00	ND	ND	ND	ND	ND	ND	0.7	25	24.6	70	0	0
27937	2013-04-06T00:00:00	ND	ND	ND	ND	ND	ND	0.6	147.5	24.2	72.9	0	0
27938	2013-04-06T01:00:00	ND	ND	ND	ND	ND	ND	0.6	169.7	23.7	74.7	0	0
27939	2013-04-06T02:00:00	ND	ND	ND	ND	ND	ND	0.2	225.8	23.5	72.7	0	0
27940	2013-04-06T03:00:00	ND	ND	ND	ND	ND	ND	0.9	204.8	22.9	76.1	0	0
27941	2013-04-06T04:00:00	ND	ND	ND	ND	ND	ND	0.8	181.9	22.8	80	0	0
27942	2013-04-06T05:00:00	ND	ND	ND	ND	ND	ND	0.7	53.7	22.2	80.3	0	0
27943	2013-04-06T06:00:00	ND	ND	ND	ND	ND	ND	0.4	185.6	22.4	78.7	0	0
27944	2013-04-06T07:00:00	ND	ND	ND	ND	ND	ND	0.6	127.3	22.5	78.8	52.8	0
27945	2013-04-06T08:00:00	ND	ND	ND	ND	ND	ND	0.5	127.7	23.3	75.4	166.3	0
27946	2013-04-06T09:00:00	ND	ND	ND	ND	ND	ND	0.7	119.6	24.5	70.4	316	0
27947	2013-04-06T10:00:00	ND	ND	ND	ND	ND	ND	1	124.9	26.2	64.2	400	0
27948	2013-04-06T11:00:00	ND	ND	ND	ND	ND	ND	0.9	96.1	27.8	58	729.2	0
27949	2013-04-06T12:00:00	ND	ND	ND	ND	ND	ND	0.4	46.5	28.4	55.1	452.5	0
27950	2013-04-06T13:00:00	ND	ND	ND	ND	ND	ND	1	82.7	30.5	48	918.7	0
27951	2013-04-06T14:00:00	ND	ND	ND	ND	ND	ND	1.3	349	30.9	46.6	509.9	0
27952	2013-04-06T15:00:00	ND	ND	ND	ND	ND	ND	0.2	358.5	31.6	43.1	559.3	0
27953	2013-04-06T16:00:00	ND	ND	ND	ND	ND	ND	3.5	278.7	31.3	44.3	464.7	0
27954	2013-04-06T17:00:00	ND	ND	ND	ND	ND	ND	4.3	278.5	30.1	47.1	351.4	0
27955	2013-04-06T18:00:00	ND	ND	ND	ND	ND	ND	4.1	276.6	28.6	50.8	124.7	0
27956	2013-04-06T19:00:00	ND	ND	ND	ND	ND	ND	3.8	281.8	27.4	54.7	0	0
27957	2013-04-06T20:00:00	ND	ND	ND	ND	ND	ND	4.5	268	26.9	57.8	0	0
27958	2013-04-06T21:00:00	ND	ND	ND	ND	ND	ND	2.5	286	26.6	58.9	0	0
27959	2013-04-06T22:00:00	ND	ND	ND	ND	ND	ND	2.5	266.7	26.1	61.1	0	0
27960	2013-04-06T23:00:00	ND	ND	ND	ND	ND	ND	2.9	256.5	26	61.7	0	0
27961	2013-04-07T00:00:00	ND	ND	ND	ND	ND	ND	1.5	272.3	25.5	63.6	0	0
27962	2013-04-07T01:00:00	ND	ND	ND	ND	ND	ND	0.6	135.1	25.3	65.3	0	0
27963	2013-04-07T02:00:00	ND	ND	ND	ND	ND	ND	1.1	145.2	24.4	72.2	0	0
27964	2013-04-07T03:00:00	ND	ND	ND	ND	ND	ND	0.8	137.3	24.1	73.4	0	0
27965	2013-04-07T04:00:00	ND	ND	ND	ND	ND	ND	0.8	169	23.9	74.5	0	0
27966	2013-04-07T05:00:00	ND	ND	ND	ND	ND	ND	0.8	114.4	23.7	75.5	0	0
27967	2013-04-07T06:00:00	ND	ND	ND	ND	ND	ND	0.4	68.4	23.5	76.8	0	0
27968	2013-04-07T07:00:00	ND	ND	ND	ND	ND	ND	0.5	209.7	23.5	79.2	15.5	0
27969	2013-04-07T08:00:00	ND	ND	ND	ND	ND	ND	0.4	30.6	23.8	78.2	60.3	0
27970	2013-04-07T09:00:00	ND	ND	ND	ND	ND	ND	0.1	262.6	25	72.1	241.8	0
27971	2013-04-07T10:00:00	ND	ND	ND	ND	ND	ND	1.4	146.8	25.8	69	338.7	0
27972	2013-04-07T11:00:00	ND	ND	ND	ND	ND	ND	1.2	177.9	27.1	62.6	684.6	0
27973	2013-04-07T12:00:00	ND	ND	ND	ND	ND	ND	1.4	167.3	28.8	54.6	832.1	0
27974	2013-04-07T13:00:00	ND	ND	ND	ND	ND	ND	0.9	190	30.5	49.9	850.7	0
27975	2013-04-07T14:00:00	ND	ND	ND	ND	ND	ND	1.3	134.6	32.1	42.9	880.3	0
27976	2013-04-07T15:00:00	ND	ND	ND	ND	ND	ND	0.7	41.1	32.2	43.1	315.3	0
27977	2013-04-07T16:00:00	ND	ND	ND	ND	ND	ND	3.7	281.9	30.9	47.1	404.7	0
27978	2013-04-07T17:00:00	ND	ND	ND	ND	ND	ND	4.9	278.8	29.7	50.1	321	0
27979	2013-04-07T18:00:00	ND	ND	ND	ND	ND	ND	3.8	279.5	28.3	53.8	74	0
27980	2013-04-07T19:00:00	ND	ND	ND	ND	ND	ND	4.2	271.8	27.5	55.6	0	0
27981	2013-04-07T20:00:00	ND	ND	ND	ND	ND	ND	3.5	277.3	27	57.5	0	0
27982	2013-04-07T21:00:00	ND	ND	ND	ND	ND	ND	1.3	286.8	27.1	57.2	0	0
27983	2013-04-07T22:00:00	ND	ND	ND	ND	ND	ND	0.2	133.5	26	63.1	0	0
27984	2013-04-07T23:00:00	ND	ND	ND	ND	ND	ND	1.8	235.1	26	61.5	0	0
27985	2013-04-08T00:00:00	ND	ND	ND	ND	ND	ND	1.9	202.4	25.6	65.2	0	0
27986	2013-04-08T01:00:00	ND	ND	ND	ND	ND	ND	0.8	251.4	25.1	66.6	0	0
27987	2013-04-08T02:00:00	ND	ND	ND	ND	ND	ND	1	42.9	23.7	75.7	0	0
27988	2013-04-08T03:00:00	ND	ND	ND	ND	ND	ND	0.4	72.3	23.7	75.3	0	0
27989	2013-04-08T04:00:00	ND	ND	ND	ND	ND	ND	0.8	161.9	23.9	74.4	0	0
27990	2013-04-08T05:00:00	ND	ND	ND	ND	ND	ND	0.9	135.6	23.6	76.2	0	0
27991	2013-04-08T06:00:00	ND	ND	ND	ND	ND	ND	0.7	158.2	23.5	76.7	0	0
27992	2013-04-08T07:00:00	ND	ND	ND	ND	ND	ND	0.4	160.7	23.4	77.9	18.1	0
27993	2013-04-08T08:00:00	ND	ND	ND	ND	ND	ND	0.9	144.4	24	76.3	78.3	0
27994	2013-04-08T09:00:00	ND	ND	ND	ND	ND	ND	0.4	117.9	25.2	69.3	271.6	0
27995	2013-04-08T10:00:00	ND	ND	ND	ND	ND	ND	1.3	148	26.7	62.9	386.4	0
27996	2013-04-08T11:00:00	ND	ND	ND	ND	ND	ND	1.6	168.5	27.7	59.4	520.7	0
27997	2013-04-08T12:00:00	ND	ND	ND	ND	ND	ND	1.5	141.7	28.3	56.7	650	0
27998	2013-04-08T13:00:00	ND	ND	ND	ND	ND	ND	1.3	183.4	30.2	50.9	869.6	0
27999	2013-04-08T14:00:00	ND	ND	ND	ND	ND	ND	1.1	156.5	31.2	46.8	784.6	0
28000	2013-04-08T15:00:00	ND	ND	ND	ND	ND	ND	0.9	98.8	31.6	44.6	421.2	0
28001	2013-04-08T16:00:00	ND	ND	ND	ND	ND	ND	3.5	278.8	29.2	53.3	158.6	0
28002	2013-04-08T17:00:00	ND	ND	ND	ND	ND	ND	3.4	280.7	28.4	54.4	122.2	0
28003	2013-04-08T18:00:00	ND	ND	ND	ND	ND	ND	4.5	275.5	27.3	57.5	41.9	0
28004	2013-04-08T19:00:00	ND	ND	ND	ND	ND	ND	3.2	289.8	26.8	58.1	0	0
28005	2013-04-08T20:00:00	ND	ND	ND	ND	ND	ND	1.5	296.7	26.9	56.5	0	0
28006	2013-04-08T21:00:00	ND	ND	ND	ND	ND	ND	2.5	278.5	26.5	57.7	0	0
28007	2013-04-08T22:00:00	ND	ND	ND	ND	ND	ND	2	213.5	26.1	62.7	0	0
28008	2013-04-08T23:00:00	ND	ND	ND	ND	ND	ND	1.6	175.6	25	69	0	0
28009	2013-04-09T00:00:00	ND	ND	ND	ND	ND	ND	1.1	193.8	24.3	70.9	0	0
28010	2013-04-09T01:00:00	ND	ND	ND	ND	ND	ND	1.3	206.4	24.3	70.5	0	0
28011	2013-04-09T02:00:00	ND	ND	ND	ND	ND	ND	0.8	249.7	24.3	69.5	0	0
28012	2013-04-09T03:00:00	ND	ND	ND	ND	ND	ND	0.2	66.2	23.9	71.7	0	0
28013	2013-04-09T04:00:00	ND	ND	ND	ND	ND	ND	0.6	121.9	22.9	77.9	0	0
28014	2013-04-09T05:00:00	ND	ND	ND	ND	ND	ND	0.5	140.9	22.4	79.2	0	0
28015	2013-04-09T06:00:00	ND	ND	ND	ND	ND	ND	0.1	ND	22.6	78.2	0	0
28016	2013-04-09T07:00:00	ND	ND	ND	ND	ND	ND	0.6	0.6	22.9	77.3	10.1	0
28017	2013-04-09T08:00:00	ND	ND	ND	ND	ND	ND	0.2	58.9	23.1	78.4	55.1	0
28018	2013-04-09T09:00:00	ND	ND	ND	ND	ND	ND	0.4	240.8	24.7	70.4	334	0
28019	2013-04-09T10:00:00	ND	ND	ND	ND	ND	ND	1	133.7	26.9	61.5	584.6	0
28020	2013-04-09T11:00:00	ND	ND	ND	ND	ND	ND	0.9	187	28.3	55.8	788.3	0
28021	2013-04-09T12:00:00	ND	ND	ND	ND	ND	ND	1.3	140.8	30.1	50.2	764.1	0
28022	2013-04-09T13:00:00	ND	ND	ND	ND	ND	ND	1.3	83.4	30.8	48.4	626.5	0
28023	2013-04-09T14:00:00	ND	ND	ND	ND	ND	ND	0.8	24.1	31.2	46.8	465.6	0
28024	2013-04-09T15:00:00	ND	ND	ND	ND	ND	ND	3.7	287.7	31.5	43.7	784.7	0
28025	2013-04-09T16:00:00	ND	ND	ND	ND	ND	ND	4.5	280.5	31	44.7	532.1	0
28026	2013-04-09T17:00:00	ND	ND	ND	ND	ND	ND	5	281.6	29.1	49.9	184.2	0
28027	2013-04-09T18:00:00	ND	ND	ND	ND	ND	ND	5.9	280.6	27.4	53.7	86.2	0
28028	2013-04-09T19:00:00	ND	ND	ND	ND	ND	ND	4.4	270.3	27.2	53.2	0	0
28029	2013-04-09T20:00:00	ND	ND	ND	ND	ND	ND	2.8	249.2	27.2	52.7	0	0
28030	2013-04-09T21:00:00	ND	ND	ND	ND	ND	ND	0.5	285.3	26.8	55.3	0	0
28031	2013-04-09T22:00:00	ND	ND	ND	ND	ND	ND	0.6	28.2	25.9	59.8	0	0
28032	2013-04-09T23:00:00	ND	ND	ND	ND	ND	ND	1.7	265.6	26.3	55.6	0	0
28033	2013-04-10T00:00:00	ND	ND	ND	ND	ND	ND	1.9	183.1	24.6	69.7	0	0
28034	2013-04-10T01:00:00	ND	ND	ND	ND	ND	ND	1.6	207.3	23.8	73.3	0	0
28035	2013-04-10T02:00:00	ND	ND	ND	ND	ND	ND	1.3	184.7	24.3	70.9	0	0
28036	2013-04-10T03:00:00	ND	ND	ND	ND	ND	ND	1.2	213.1	24.3	71.6	0	0
28037	2013-04-10T04:00:00	ND	ND	ND	ND	ND	ND	1.3	178.7	24.1	71.8	0	0
28038	2013-04-10T05:00:00	ND	ND	ND	ND	ND	ND	0.7	147.3	23.5	74.8	0	0
28039	2013-04-10T06:00:00	ND	ND	ND	ND	ND	ND	0.2	ND	23.4	75.9	0	0
28040	2013-04-10T07:00:00	ND	ND	ND	ND	ND	ND	0.7	76.5	23.4	76.8	47.1	0
28041	2013-04-10T08:00:00	ND	ND	ND	ND	ND	ND	0.7	130	24.5	72.3	212	0
28042	2013-04-10T09:00:00	ND	ND	ND	ND	ND	ND	1.1	152	26	63	425.1	0
28043	2013-04-10T10:00:00	ND	ND	ND	ND	ND	ND	1.5	133.6	27.3	58.1	633.5	0
28044	2013-04-10T11:00:00	ND	ND	ND	ND	ND	ND	1.5	166.1	28.8	51.8	759.2	0
28045	2013-04-10T12:00:00	ND	ND	ND	ND	ND	ND	1.5	133.5	29.8	49.1	678.1	0
28046	2013-04-10T13:00:00	ND	ND	ND	ND	ND	ND	1.2	94.5	30.9	46.5	686.4	0
28047	2013-04-10T14:00:00	ND	ND	ND	ND	ND	ND	1.3	21.8	30.5	47.6	243.9	0
28048	2013-04-10T15:00:00	ND	ND	ND	ND	ND	ND	2.4	276.2	30.5	47.4	403.4	0
28049	2013-04-10T16:00:00	ND	ND	ND	ND	ND	ND	3.3	278.2	30.1	47.6	227.4	0
28050	2013-04-10T17:00:00	ND	ND	ND	ND	ND	ND	3.8	278.4	29.2	49.4	160.6	0
28051	2013-04-10T18:00:00	ND	ND	ND	ND	ND	ND	3.1	270	28.6	50.9	42.3	0
28052	2013-04-10T19:00:00	ND	ND	ND	ND	ND	ND	3.6	282.6	27.7	53.5	0	0
28053	2013-04-10T20:00:00	ND	ND	ND	ND	ND	ND	1.3	285.4	26.7	61	0	0
28054	2013-04-10T21:00:00	ND	ND	ND	ND	ND	ND	0.8	93.6	25.2	70.3	0	0
28055	2013-04-10T22:00:00	ND	ND	ND	ND	ND	ND	1.2	248.3	25.6	65.9	0	0
28056	2013-04-10T23:00:00	ND	ND	ND	ND	ND	ND	1.6	283.2	25.5	62.7	0	1.52
28057	2013-04-11T00:00:00	ND	ND	ND	ND	ND	ND	0.3	139.5	24.1	73.3	0	0.51
28058	2013-04-11T01:00:00	ND	ND	ND	ND	ND	ND	0.9	40.4	22.8	83	0	0.51
28059	2013-04-11T02:00:00	ND	ND	ND	ND	ND	ND	2.2	15.4	21.5	87.7	0	0
28060	2013-04-11T03:00:00	ND	ND	ND	ND	ND	ND	1.2	33.8	21.2	87	0	0.25
28061	2013-04-11T04:00:00	ND	ND	ND	ND	ND	ND	1.1	191.1	21.9	85.2	0	0
28062	2013-04-11T05:00:00	ND	ND	ND	ND	ND	ND	1.1	76.5	21.4	86.3	0	0
28063	2013-04-11T06:00:00	ND	ND	ND	ND	ND	ND	0.4	128.3	21.1	86.8	0	0
28064	2013-04-11T07:00:00	ND	ND	ND	ND	ND	ND	0.8	231.2	21.5	85.7	34.1	0
28065	2013-04-11T08:00:00	ND	ND	ND	ND	ND	ND	1.4	172.9	22.3	82.1	162.8	0
28066	2013-04-11T09:00:00	ND	ND	ND	ND	ND	ND	1.3	170.5	23	79.3	209.8	0
28067	2013-04-11T10:00:00	ND	ND	ND	ND	ND	ND	1.4	153.7	24.7	72	452.5	0
28068	2013-04-11T11:00:00	ND	ND	ND	ND	ND	ND	1.2	153.3	25.5	68.3	457.6	0
28069	2013-04-11T12:00:00	ND	ND	ND	ND	ND	ND	0.4	193.5	27	62.1	622.1	0
28070	2013-04-11T13:00:00	ND	ND	ND	ND	ND	ND	1.1	176.5	28.3	55.7	754	0
28071	2013-04-11T14:00:00	ND	ND	ND	ND	ND	ND	1.7	178.1	29.4	51.5	732.4	0
28072	2013-04-11T15:00:00	ND	ND	ND	ND	ND	ND	1.2	160.5	30.2	46.4	612.7	0
28073	2013-04-11T16:00:00	ND	ND	ND	ND	ND	ND	0.6	55.2	30.5	46.7	344.9	0
28074	2013-04-11T17:00:00	ND	ND	ND	ND	ND	ND	1.8	315.5	29.7	51.2	244.3	0
28075	2013-04-11T18:00:00	ND	ND	ND	ND	ND	ND	3.7	278.9	28	56.1	59.8	0
28076	2013-04-11T19:00:00	ND	ND	ND	ND	ND	ND	3.8	268.3	27.1	59.4	0	0
28077	2013-04-11T20:00:00	ND	ND	ND	ND	ND	ND	3.1	266.9	26.9	59.8	0	0
28078	2013-04-11T21:00:00	ND	ND	ND	ND	ND	ND	2.9	274.2	26.5	60	0	0
28079	2013-04-11T22:00:00	ND	ND	ND	ND	ND	ND	1.4	289.8	26.4	60	0	0
28080	2013-04-11T23:00:00	ND	ND	ND	ND	ND	ND	1.3	213.6	25.9	64.9	0	0
28081	2013-04-12T00:00:00	ND	ND	ND	ND	ND	ND	1.6	180	25.5	69.2	0	0
28082	2013-04-12T01:00:00	ND	ND	ND	ND	ND	ND	0.7	ND	24.5	73.9	0	0
28083	2013-04-12T02:00:00	ND	ND	ND	ND	ND	ND	0.6	154	24.1	75.1	0	0
28084	2013-04-12T03:00:00	ND	ND	ND	ND	ND	ND	0.5	158.8	23.1	77.8	0	0
28085	2013-04-12T04:00:00	ND	ND	ND	ND	ND	ND	0.5	236.2	23.1	77	0	0
28086	2013-04-12T05:00:00	ND	ND	ND	ND	ND	ND	0.9	223.8	23.3	71.2	0	0
28087	2013-04-12T06:00:00	ND	ND	ND	ND	ND	ND	0.6	297.1	23.3	73	0	0
28088	2013-04-12T07:00:00	ND	ND	ND	ND	ND	ND	1.2	25.9	23.1	77.9	33.4	0
28089	2013-04-12T08:00:00	ND	ND	ND	ND	ND	ND	0.8	115.1	23.2	77.7	83.6	0
28090	2013-04-12T09:00:00	ND	ND	ND	ND	ND	ND	0.6	180.4	24.9	68.7	406.8	0
28091	2013-04-12T10:00:00	ND	ND	ND	ND	ND	ND	1.7	157.4	26.8	62.2	614.7	0
28092	2013-04-12T11:00:00	ND	ND	ND	ND	ND	ND	1.6	160.5	27.9	58.9	639.5	0
28093	2013-04-12T12:00:00	ND	ND	ND	ND	ND	ND	0.7	139.4	29.3	52.6	888.5	0
28094	2013-04-12T13:00:00	ND	ND	ND	ND	ND	ND	1.4	84.5	31.2	45.6	848.6	0
28095	2013-04-12T14:00:00	ND	ND	ND	ND	ND	ND	1.3	85.4	32	43	742.3	0
28096	2013-04-12T15:00:00	ND	ND	ND	ND	ND	ND	0.5	178.7	31.9	43.7	405	0
28097	2013-04-12T16:00:00	ND	ND	ND	ND	ND	ND	4	270.2	31.4	47.2	555.9	0
28098	2013-04-12T17:00:00	ND	ND	ND	ND	ND	ND	4.4	278.8	29.9	49.5	266	0
28099	2013-04-12T18:00:00	ND	ND	ND	ND	ND	ND	4	280.1	28.5	53.9	78	0
28100	2013-04-12T19:00:00	ND	ND	ND	ND	ND	ND	4	267.7	27.7	56.9	4	0
28101	2013-04-12T20:00:00	ND	ND	ND	ND	ND	ND	0.5	326.1	27.8	56.3	0	0
28102	2013-04-12T21:00:00	ND	ND	ND	ND	ND	ND	1.8	266.8	27.4	57.7	0	0
28103	2013-04-12T22:00:00	ND	ND	ND	ND	ND	ND	1.8	237.1	26.8	61	0	0
28104	2013-04-12T23:00:00	ND	ND	ND	ND	ND	ND	1.4	188.1	25.9	67	0	0
28105	2013-04-13T00:00:00	ND	ND	ND	ND	ND	ND	1	204.8	25.4	69.6	0	0
28106	2013-04-13T01:00:00	ND	ND	ND	ND	ND	ND	0.6	70.9	24.9	70.3	0	0
28107	2013-04-13T02:00:00	ND	ND	ND	ND	ND	ND	0.5	105.3	24.4	73.1	0	0
28108	2013-04-13T03:00:00	ND	ND	ND	ND	ND	ND	1.3	169.9	23.8	76.2	0	0
28109	2013-04-13T04:00:00	ND	ND	ND	ND	ND	ND	1.1	184.3	23.5	77.9	0	0
28110	2013-04-13T05:00:00	ND	ND	ND	ND	ND	ND	0.6	149.7	23.5	77.2	0	0
28111	2013-04-13T06:00:00	ND	ND	ND	ND	ND	ND	0.5	80	23.5	77.1	0	0
28112	2013-04-13T07:00:00	ND	ND	ND	ND	ND	ND	1	44.9	23.2	78.5	18.2	0
28113	2013-04-13T08:00:00	ND	ND	ND	ND	ND	ND	0.5	69	23.7	76.5	104.8	0
28114	2013-04-13T09:00:00	ND	ND	ND	ND	ND	ND	0.7	100.6	25.7	68.7	310.5	0
28115	2013-04-13T10:00:00	ND	ND	ND	ND	ND	ND	1.4	105.3	27	63.7	559.1	0
28116	2013-04-13T11:00:00	ND	ND	ND	ND	ND	ND	1.3	80.8	28.5	57.4	740.8	0
28117	2013-04-13T12:00:00	ND	ND	ND	ND	ND	ND	1	108.7	29.9	52.9	767.1	0
28118	2013-04-13T13:00:00	ND	ND	ND	ND	ND	ND	1.4	145.2	31.4	48.8	930.9	0
28119	2013-04-13T14:00:00	ND	ND	ND	ND	ND	ND	1.4	71.9	32.1	46.3	537	0
28120	2013-04-13T15:00:00	ND	ND	ND	ND	ND	ND	1.7	331.8	31.5	47.5	224.8	0
28121	2013-04-13T16:00:00	ND	ND	ND	ND	ND	ND	3.3	276	31.3	47.5	422.3	0
28122	2013-04-13T17:00:00	ND	ND	ND	ND	ND	ND	4.8	282.2	30.2	49.7	334.7	0
28123	2013-04-13T18:00:00	ND	ND	ND	ND	ND	ND	5	277.7	28.4	54.4	81.2	0
28124	2013-04-13T19:00:00	ND	ND	ND	ND	ND	ND	4.2	275	27.9	54.7	0	0
28125	2013-04-13T20:00:00	ND	ND	ND	ND	ND	ND	4.6	273.4	27.5	56.7	0	0
28126	2013-04-13T21:00:00	ND	ND	ND	ND	ND	ND	2.9	290.6	27.1	59.2	0	0
28127	2013-04-13T22:00:00	ND	ND	ND	ND	ND	ND	3.3	274.5	26.8	59	0	0
28128	2013-04-13T23:00:00	ND	ND	ND	ND	ND	ND	2	216.6	26.5	60.6	0	0
28129	2013-04-14T00:00:00	ND	ND	ND	ND	ND	ND	1.3	228.2	26.3	60.5	0	0
28130	2013-04-14T01:00:00	ND	ND	ND	ND	ND	ND	0.6	249.7	25.8	63.6	0	0
28131	2013-04-14T02:00:00	ND	ND	ND	ND	ND	ND	0.2	26.2	25.1	70.5	0	0
28132	2013-04-14T03:00:00	ND	ND	ND	ND	ND	ND	1.3	245.9	21.9	94	0	53.85
28133	2013-04-14T04:00:00	ND	ND	ND	ND	ND	ND	1.2	272	21.8	92.8	0	16.76
28134	2013-04-14T05:00:00	ND	ND	ND	ND	ND	ND	0.6	241.9	22.4	86.4	0	1.02
28135	2013-04-14T06:00:00	ND	ND	ND	ND	ND	ND	0.3	214.9	22.8	84.9	0	0.25
28136	2013-04-14T07:00:00	ND	ND	ND	ND	ND	ND	0.3	179.2	22.9	83.6	26.9	0
28137	2013-04-14T08:00:00	ND	ND	ND	ND	ND	ND	0.9	192.7	23.2	85.5	36.5	0
28138	2013-04-14T09:00:00	ND	ND	ND	ND	ND	ND	0.6	104.8	23.1	85.8	129.7	0.51
28139	2013-04-14T10:00:00	ND	ND	ND	ND	ND	ND	0.7	89.4	24.7	79.6	343	0
28140	2013-04-14T11:00:00	ND	ND	ND	ND	ND	ND	1.4	61	25.2	76.9	292.2	0
28141	2013-04-14T12:00:00	ND	ND	ND	ND	ND	ND	1.1	112.7	26.7	67.6	629.4	0
28142	2013-04-14T13:00:00	ND	ND	ND	ND	ND	ND	1.2	97.1	28.3	59.2	805.3	0
28143	2013-04-14T14:00:00	ND	ND	ND	ND	ND	ND	1.7	133.7	29.2	57.1	579.9	0
28144	2013-04-14T15:00:00	ND	ND	ND	ND	ND	ND	1.7	156.3	28.8	58	342.6	0
28145	2013-04-14T16:00:00	ND	ND	ND	ND	ND	ND	1.2	169.9	28.4	57.5	226.1	0
28146	2013-04-14T17:00:00	ND	ND	ND	ND	ND	ND	1	166.5	28.5	58.3	182.2	0
28147	2013-04-14T18:00:00	ND	ND	ND	ND	ND	ND	0.6	190.9	28.2	59.8	75.3	0
28148	2013-04-14T19:00:00	ND	ND	ND	ND	ND	ND	1.7	274.2	27.2	58.1	0	0
28149	2013-04-14T20:00:00	ND	ND	ND	ND	ND	ND	1.3	275.4	26.8	58.3	0	0
28150	2013-04-14T21:00:00	ND	ND	ND	ND	ND	ND	1.8	274.2	26.2	60.2	0	0
28151	2013-04-14T22:00:00	ND	ND	ND	ND	ND	ND	2	246.5	25.8	63.5	0	0
28152	2013-04-14T23:00:00	ND	ND	ND	ND	ND	ND	1.2	216.9	25	70.5	0	0
28153	2013-04-15T00:00:00	ND	ND	ND	ND	ND	ND	1.8	252.6	25.2	65.5	0	0
28154	2013-04-15T01:00:00	ND	ND	ND	ND	ND	ND	0.9	186.6	24.4	69.7	0	0
28155	2013-04-15T02:00:00	ND	ND	ND	ND	ND	ND	0.4	151.6	23.6	76.2	0	0
28156	2013-04-15T03:00:00	ND	ND	ND	ND	ND	ND	2.7	198.9	21.7	90.6	0	53.09
28157	2013-04-15T04:00:00	ND	ND	ND	ND	ND	ND	1.6	255	20.4	97	0	15.24
28158	2013-04-15T05:00:00	ND	ND	ND	ND	ND	ND	0.3	72.2	21.4	89.3	0	1.78
28159	2013-04-15T06:00:00	ND	ND	ND	ND	ND	ND	0.3	294	21.2	90.8	0	1.78
28160	2013-04-15T07:00:00	ND	ND	ND	ND	ND	ND	0.2	36.6	21.9	88	18.6	0
28161	2013-04-15T08:00:00	ND	ND	ND	ND	ND	ND	0.4	ND	22.4	87	92	0
28162	2013-04-15T09:00:00	ND	ND	ND	ND	ND	ND	0.3	92.8	23.2	83	182.1	0
28163	2013-04-15T10:00:00	ND	ND	ND	ND	ND	ND	0.2	170.9	24.6	74.9	341.7	0
28164	2013-04-15T11:00:00	ND	ND	ND	ND	ND	ND	0.7	116.7	26.4	66.8	691.9	0
28165	2013-04-15T12:00:00	ND	ND	ND	ND	ND	ND	1	133.2	28	59.4	670.7	0
28166	2013-04-15T13:00:00	ND	ND	ND	ND	ND	ND	1.3	95.5	28.3	57.3	412	0
28167	2013-04-15T14:00:00	ND	ND	ND	ND	ND	ND	1.2	142.7	28.5	57.3	593.8	0
28168	2013-04-15T15:00:00	ND	ND	ND	ND	ND	ND	1.2	168	29.4	56.4	683	0
28169	2013-04-15T16:00:00	ND	ND	ND	ND	ND	ND	1	235.2	29.9	53.6	456.2	0
28170	2013-04-15T17:00:00	ND	ND	ND	ND	ND	ND	3.3	275.4	28	53.8	79	0
28171	2013-04-15T18:00:00	ND	ND	ND	ND	ND	ND	1.4	290	28.1	52.5	46.1	0
28172	2013-04-15T19:00:00	ND	ND	ND	ND	ND	ND	1.5	271.1	27.7	54	0	0
28173	2013-04-15T20:00:00	ND	ND	ND	ND	ND	ND	2.6	262.9	26.8	56.4	0	0
28174	2013-04-15T21:00:00	ND	ND	ND	ND	ND	ND	0.7	278.1	26.2	58.5	0	0
28175	2013-04-15T22:00:00	ND	ND	ND	ND	ND	ND	0.8	50.5	24.6	70.6	0	0
28176	2013-04-15T23:00:00	ND	ND	ND	ND	ND	ND	0.6	246.3	24.6	68.3	0	0
28177	2013-04-16T00:00:00	ND	ND	ND	ND	ND	ND	1.1	231.9	24.1	68.7	0	0
28178	2013-04-16T01:00:00	ND	ND	ND	ND	ND	ND	0.5	227.1	24	70.6	0	0
28179	2013-04-16T02:00:00	ND	ND	ND	ND	ND	ND	0.2	127.1	22.9	80.5	0	0
28180	2013-04-16T03:00:00	ND	ND	ND	ND	ND	ND	0.9	196.6	22.9	80.8	0	0
28181	2013-04-16T04:00:00	ND	ND	ND	ND	ND	ND	0.9	181	22.7	81	0	0
28182	2013-04-16T05:00:00	ND	ND	ND	ND	ND	ND	1	172	22.3	82.7	0	0
28183	2013-04-16T06:00:00	ND	ND	ND	ND	ND	ND	0.5	46.8	22.4	82.2	0	0
28184	2013-04-16T07:00:00	ND	ND	ND	ND	ND	ND	0.3	142.5	22.7	79.1	30.7	0
28185	2013-04-16T08:00:00	ND	ND	ND	ND	ND	ND	0.8	70.6	23.4	77.3	176.9	0
28186	2013-04-16T09:00:00	ND	ND	ND	ND	ND	ND	0.9	127.3	25.1	69.2	428.6	0
28187	2013-04-16T10:00:00	ND	ND	ND	ND	ND	ND	1	119.4	26.8	62.7	600.5	0
28188	2013-04-16T11:00:00	ND	ND	ND	ND	ND	ND	1.1	139.4	28.1	58	729.8	0
28189	2013-04-16T12:00:00	ND	ND	ND	ND	ND	ND	0.8	124.7	29.4	52.3	862	0
28190	2013-04-16T13:00:00	ND	ND	ND	ND	ND	ND	0.3	205.1	31.1	46.4	894	0
28191	2013-04-16T14:00:00	ND	ND	ND	ND	ND	ND	1.2	91.7	32.7	42.2	831.4	0
28192	2013-04-16T15:00:00	ND	ND	ND	ND	ND	ND	0.9	56.4	32.6	42.7	583.6	0
28193	2013-04-16T16:00:00	ND	ND	ND	ND	ND	ND	2.9	283.9	32.1	45.1	345.9	0
28194	2013-04-16T17:00:00	ND	ND	ND	ND	ND	ND	5.4	273.6	29.6	51.9	306.4	0
28195	2013-04-16T18:00:00	ND	ND	ND	ND	ND	ND	5	268	27.7	57.6	44.9	0
28196	2013-04-16T19:00:00	ND	ND	ND	ND	ND	ND	3.3	265.4	26.8	61	0	0
28197	2013-04-16T20:00:00	ND	ND	ND	ND	ND	ND	1.4	35.4	26	65.6	0	0
28198	2013-04-16T21:00:00	ND	ND	ND	ND	ND	ND	0.7	113.6	25.5	69.3	0	0
28199	2013-04-16T22:00:00	ND	ND	ND	ND	ND	ND	1.4	174.9	25	73.9	0	0
28200	2013-04-16T23:00:00	ND	ND	ND	ND	ND	ND	0.5	104.8	24.8	71.8	0	0
28201	2013-04-17T00:00:00	ND	ND	ND	ND	ND	ND	1.3	138.7	24.1	75.9	0	0
28202	2013-04-17T01:00:00	ND	ND	ND	ND	ND	ND	0.7	150.3	23.5	79	0	3.05
28203	2013-04-17T02:00:00	ND	ND	ND	ND	ND	ND	0.5	146.1	22.8	84.3	0	0
28204	2013-04-17T03:00:00	ND	ND	ND	ND	ND	ND	0.2	ND	23.1	83.4	0	0.25
28205	2013-04-17T04:00:00	ND	ND	ND	ND	ND	ND	0.3	ND	23.3	82.2	0	0
28206	2013-04-17T05:00:00	ND	ND	ND	ND	ND	ND	0.4	210.4	23.1	83.6	0	0
28207	2013-04-17T06:00:00	ND	ND	ND	ND	ND	ND	0.5	ND	22.9	82.6	0	0
28208	2013-04-17T07:00:00	ND	ND	ND	ND	ND	ND	0.3	9.6	22.8	83.5	29.7	0
28209	2013-04-17T08:00:00	ND	ND	ND	ND	ND	ND	0.3	89.3	24	76.1	168.2	0
28210	2013-04-17T09:00:00	ND	ND	ND	ND	ND	ND	1	165.6	25.8	67.3	395.2	0
28211	2013-04-17T10:00:00	ND	ND	ND	ND	ND	ND	1.2	114.6	27.6	60.8	612.5	0
28212	2013-04-17T11:00:00	ND	ND	ND	ND	ND	ND	1.3	116.6	28	59.9	424.7	0
28213	2013-04-17T12:00:00	ND	ND	ND	ND	ND	ND	0.2	60.1	29.4	52.7	856.5	0
28214	2013-04-17T13:00:00	ND	ND	ND	ND	ND	ND	0.6	349.9	30.3	48.1	410.3	0
28215	2013-04-17T14:00:00	ND	ND	ND	ND	ND	ND	4.9	282.2	30.5	46.4	738.8	0
28216	2013-04-17T15:00:00	ND	ND	ND	ND	ND	ND	4.7	283.8	30.4	45.8	655.7	0
28217	2013-04-17T16:00:00	ND	ND	ND	ND	ND	ND	4.4	290.1	29.3	48.3	372.3	0
28218	2013-04-17T17:00:00	ND	ND	ND	ND	ND	ND	1.9	332.7	28.2	53.6	106.2	0
28219	2013-04-17T18:00:00	ND	ND	ND	ND	ND	ND	1.5	221	25.7	66.8	0	0
28220	2013-04-17T19:00:00	ND	ND	ND	ND	ND	ND	2.6	203	22.1	85.7	0	8.38
28221	2013-04-17T20:00:00	ND	ND	ND	ND	ND	ND	2.3	171.2	21.4	93.2	0	9.14
28222	2013-04-17T21:00:00	ND	ND	ND	ND	ND	ND	2	192.8	21	93.1	0	5.08
28223	2013-04-17T22:00:00	ND	ND	ND	ND	ND	ND	1.5	226.1	21.4	90.3	0	2.29
28224	2013-04-17T23:00:00	ND	ND	ND	ND	ND	ND	1.6	190.7	21.5	88.8	0	1.52
28225	2013-04-18T00:00:00	ND	ND	ND	ND	ND	ND	1.2	158.4	21	91	0	1.02
28226	2013-04-18T01:00:00	ND	ND	ND	ND	ND	ND	0.9	149.2	20.5	93.2	0	0.76
28227	2013-04-18T02:00:00	ND	ND	ND	ND	ND	ND	0.3	137.5	20.8	92.3	0	0.25
28228	2013-04-18T03:00:00	ND	ND	ND	ND	ND	ND	0.5	157	20.7	91.3	0	0.25
28229	2013-04-18T04:00:00	ND	ND	ND	ND	ND	ND	0.5	73.5	20.6	91.5	0	0
28230	2013-04-18T05:00:00	ND	ND	ND	ND	ND	ND	1.4	47.2	20.4	93.4	0	0
28231	2013-04-18T06:00:00	ND	ND	ND	ND	ND	ND	1.1	36.2	20.4	92.8	0	0
28232	2013-04-18T07:00:00	ND	ND	ND	ND	ND	ND	0.5	75	20.7	90.2	36	0
28233	2013-04-18T08:00:00	ND	ND	ND	ND	ND	ND	0.6	210.2	21.3	85.5	129.1	0
28234	2013-04-18T09:00:00	ND	ND	ND	ND	ND	ND	0.4	98.3	23.3	72.8	491.1	0
28235	2013-04-18T10:00:00	ND	ND	ND	ND	ND	ND	1.3	130.9	24.8	68.4	527	0
28236	2013-04-18T11:00:00	ND	ND	ND	ND	ND	ND	1.2	75.9	25	66.3	357.4	0
28237	2013-04-18T12:00:00	ND	ND	ND	ND	ND	ND	1.1	44.1	25.7	63.9	347.7	0
28238	2013-04-18T13:00:00	ND	ND	ND	ND	ND	ND	0.8	27.9	26.7	60.8	710.4	0
28239	2013-04-18T14:00:00	ND	ND	ND	ND	ND	ND	1	56.5	28	56.2	669.7	0
28240	2013-04-18T15:00:00	ND	ND	ND	ND	ND	ND	0.3	45.4	29.2	52.1	477	0
28241	2013-04-18T16:00:00	ND	ND	ND	ND	ND	ND	1.2	267	28.3	53.9	60.3	0
28242	2013-04-18T17:00:00	ND	ND	ND	ND	ND	ND	1.7	294.4	26.4	63.8	64.2	0
28243	2013-04-18T18:00:00	ND	ND	ND	ND	ND	ND	2.9	270.2	26.4	57.5	21.1	0
28244	2013-04-18T19:00:00	ND	ND	ND	ND	ND	ND	3.2	279.6	26.1	56.6	0	0
28245	2013-04-18T20:00:00	ND	ND	ND	ND	ND	ND	0.7	304	25.6	60.9	0	0
28246	2013-04-18T21:00:00	ND	ND	ND	ND	ND	ND	0.8	86.2	23.1	80.4	0	0
28247	2013-04-18T22:00:00	ND	ND	ND	ND	ND	ND	1.5	185.5	21.3	92.4	0	27.69
28248	2013-04-18T23:00:00	ND	ND	ND	ND	ND	ND	1	170.2	20.7	94.1	0	2.29
28249	2013-04-19T00:00:00	ND	ND	ND	ND	ND	ND	1.5	177.8	20.7	94.1	0	3.56
28250	2013-04-19T01:00:00	ND	ND	ND	ND	ND	ND	2.1	194.1	20.5	92.7	0	4.32
28251	2013-04-19T02:00:00	ND	ND	ND	ND	ND	ND	1.6	203.5	20.1	92	0	2.03
28252	2013-04-19T03:00:00	ND	ND	ND	ND	ND	ND	1.3	197.5	20.2	90.9	0	0
28253	2013-04-19T04:00:00	ND	ND	ND	ND	ND	ND	0.4	160.8	20.2	89.9	0	0.25
28254	2013-04-19T05:00:00	ND	ND	ND	ND	ND	ND	1	74.1	20.1	90.9	0	0
28255	2013-04-19T06:00:00	ND	ND	ND	ND	ND	ND	0.8	44.1	19.8	92.7	0	0
28256	2013-04-19T07:00:00	ND	ND	ND	ND	ND	ND	1.1	23	19.9	92.8	13.2	0.76
28257	2013-04-19T08:00:00	ND	ND	ND	ND	ND	ND	1.3	43.7	20.1	92.2	74.7	0.25
28258	2013-04-19T09:00:00	ND	ND	ND	ND	ND	ND	0.6	35.9	21.2	86.7	239.5	0
28259	2013-04-19T10:00:00	ND	ND	ND	ND	ND	ND	1	66.1	22.7	77.9	369.8	0
28260	2013-04-19T11:00:00	ND	ND	ND	ND	ND	ND	1.2	32.9	24.8	65.5	729.4	0
28261	2013-04-19T12:00:00	ND	ND	ND	ND	ND	ND	1.6	89.1	26	58.1	785.4	0
28262	2013-04-19T13:00:00	ND	ND	ND	ND	ND	ND	1	106.2	26.6	60.7	484.9	0
28263	2013-04-19T14:00:00	ND	ND	ND	ND	ND	ND	0.4	106.2	27.4	58	359.9	0
28264	2013-04-19T15:00:00	ND	ND	ND	ND	ND	ND	0.6	204.4	27.9	55	326.4	0
28265	2013-04-19T16:00:00	ND	ND	ND	ND	ND	ND	3	267.7	27.3	54	288	0
28266	2013-04-19T17:00:00	ND	ND	ND	ND	ND	ND	2.7	273	25.8	59.4	60.9	0
28267	2013-04-19T18:00:00	ND	ND	ND	ND	ND	ND	2	275.2	25.3	61.5	24.8	0
28268	2013-04-19T19:00:00	ND	ND	ND	ND	ND	ND	1.8	278.8	25.1	61.9	0	0
28269	2013-04-19T20:00:00	ND	ND	ND	ND	ND	ND	2	270.3	24.7	64.4	0	0
28270	2013-04-19T21:00:00	ND	ND	ND	ND	ND	ND	0.8	354.5	23.3	74.8	0	0
28271	2013-04-19T22:00:00	ND	ND	ND	ND	ND	ND	1	222.2	22.1	83.4	0	1.27
28272	2013-04-19T23:00:00	ND	ND	ND	ND	ND	ND	1.4	207.1	21.5	89.4	0	1.27
28273	2013-04-20T00:00:00	ND	ND	ND	ND	ND	ND	1.5	159.6	20.9	92.1	0	1.02
28274	2013-04-20T01:00:00	ND	ND	ND	ND	ND	ND	1.2	197.9	20.7	93.1	0	1.78
28275	2013-04-20T02:00:00	ND	ND	ND	ND	ND	ND	1.1	237.5	20.7	90.1	0	0.76
28276	2013-04-20T03:00:00	ND	ND	ND	ND	ND	ND	0.3	ND	20.7	89.5	0	0
28277	2013-04-20T04:00:00	ND	ND	ND	ND	ND	ND	0.5	265.5	20.7	88.7	0	0
28278	2013-04-20T05:00:00	ND	ND	ND	ND	ND	ND	0.6	221.4	20.6	85.2	0	0
28279	2013-04-20T06:00:00	ND	ND	ND	ND	ND	ND	0.8	236	20.4	85.2	0	0
28280	2013-04-20T07:00:00	ND	ND	ND	ND	ND	ND	0.3	ND	20.6	82.2	35.3	0
28281	2013-04-20T08:00:00	33.8	ND	ND	ND	ND	ND	0.8	17.8	21.7	82	129.4	0.25
28282	2013-04-20T09:00:00	18.8	ND	ND	ND	ND	ND	0.7	82.4	22.2	79.8	140.2	0
28283	2013-04-20T10:00:00	38.9	ND	ND	ND	ND	ND	0.8	92.8	22.8	79.1	291.4	0
28284	2013-04-20T11:00:00	22.4	ND	ND	ND	ND	ND	0.8	0.2	23.8	73.2	296.3	0
28285	2013-04-20T12:00:00	33.4	ND	ND	ND	ND	ND	0.7	34.1	24.6	68.4	324.5	0
28286	2013-04-20T13:00:00	25.4	ND	ND	ND	ND	ND	1	13	25.6	63.8	417.7	0
28287	2013-04-20T14:00:00	39.5	ND	ND	ND	ND	ND	1.4	11.2	26.8	58.7	559.2	0
28288	2013-04-20T15:00:00	32.7	ND	ND	ND	ND	ND	1.2	151.6	25.7	62.2	179.1	0
28289	2013-04-20T16:00:00	41.8	ND	ND	ND	ND	ND	2.1	153.8	19.8	95.4	13	38.1
28290	2013-04-20T17:00:00	22.9	ND	ND	ND	ND	ND	0.8	218	20.1	95.7	14.4	5.59
28291	2013-04-20T18:00:00	29.5	ND	ND	ND	ND	ND	0.6	204.7	20.8	91.7	16.2	2.54
28292	2013-04-20T19:00:00	16	ND	ND	ND	ND	ND	0.5	110.8	20.8	91.6	0	0.25
28293	2013-04-20T20:00:00	25.7	ND	ND	ND	ND	ND	0.6	85.3	20.8	91.6	0	0
28294	2013-04-20T21:00:00	14.8	ND	ND	ND	ND	ND	0.6	155.2	20.3	88.9	0	0
28295	2013-04-20T22:00:00	10.1	ND	ND	ND	ND	ND	0.5	159.7	20.2	89.4	0	0
28296	2013-04-20T23:00:00	14.6	ND	ND	ND	ND	ND	0.2	ND	20.3	90.1	0	0
28297	2013-04-21T00:00:00	27.4	ND	ND	ND	ND	ND	0.3	ND	20.4	89.3	0	0
28298	2013-04-21T01:00:00	15.2	ND	ND	ND	ND	ND	0.5	57.4	20.2	90.9	0	0
28299	2013-04-21T02:00:00	40.3	ND	ND	ND	ND	ND	0.5	56.6	19.9	92.2	0	0
28300	2013-04-21T03:00:00	29.8	ND	ND	ND	ND	ND	0.3	ND	19.7	92.8	0	0
28301	2013-04-21T04:00:00	24	ND	ND	ND	ND	ND	0.7	180.7	19.8	93	0	0
28302	2013-04-21T05:00:00	13.6	ND	ND	ND	ND	ND	0.8	141.2	19.8	92.6	0	0
28303	2013-04-21T06:00:00	17.1	ND	ND	ND	ND	ND	0.1	ND	19.7	93.7	0	0
28304	2013-04-21T07:00:00	28	ND	ND	ND	ND	ND	0.2	ND	19.9	93.8	29.3	0
28305	2013-04-21T08:00:00	26.5	ND	ND	ND	ND	ND	0.4	ND	20.5	91	96.5	0
28306	2013-04-21T09:00:00	25.3	ND	ND	ND	ND	ND	0.7	137.2	21.4	85.9	290.6	0
28307	2013-04-21T10:00:00	24.6	ND	ND	ND	ND	ND	1.1	153.6	22.7	78	366.1	0
28308	2013-04-21T11:00:00	13	ND	ND	ND	ND	ND	0.4	105.8	24.4	67.5	600.5	0
28309	2013-04-21T12:00:00	21	ND	ND	ND	ND	ND	1	138.6	26.5	59.3	718.7	0
28310	2013-04-21T13:00:00	11.7	ND	ND	ND	ND	ND	0.8	90.1	27.5	57	618.8	0
28311	2013-04-21T14:00:00	8	ND	ND	ND	ND	ND	1.4	60.7	27.8	57	534	0
28312	2013-04-21T15:00:00	16.9	ND	ND	ND	ND	ND	2	345.1	27.1	59.6	132	0
28313	2013-04-21T16:00:00	9.1	ND	ND	ND	ND	ND	1.6	288.6	27.3	56.8	285.7	0
28314	2013-04-21T17:00:00	6.4	ND	ND	ND	ND	ND	2.8	282.2	27.2	54.2	184.9	0
28315	2013-04-21T18:00:00	3.6	ND	ND	ND	ND	ND	2.6	273.9	26.1	56.6	37.2	0
28316	2013-04-21T19:00:00	2.8	ND	ND	ND	ND	ND	2.7	273.8	25.2	61.1	0	0
28317	2013-04-21T20:00:00	2.4	ND	ND	ND	ND	ND	1.4	288	24.9	62.2	0	0
28318	2013-04-21T21:00:00	2.9	ND	ND	ND	ND	ND	0.7	154.4	24.5	64.9	0	0
28319	2013-04-21T22:00:00	16.6	ND	ND	ND	ND	ND	1.7	243.4	24.2	65.5	0	0
28320	2013-04-21T23:00:00	9.8	ND	ND	ND	ND	ND	1.9	228.1	23.8	67.2	0	0
28321	2013-04-22T00:00:00	6.3	ND	ND	ND	ND	ND	0.8	249.3	23.5	68.6	0	0
28322	2013-04-22T01:00:00	7.2	ND	ND	ND	ND	ND	1	94.3	22.5	77	0	0
28323	2013-04-22T02:00:00	4.3	ND	ND	ND	ND	ND	0.7	94.1	21.3	84.2	0	1.78
28324	2013-04-22T03:00:00	2.9	ND	ND	ND	ND	ND	0.9	124.4	20.5	91.2	0	0
28325	2013-04-22T04:00:00	2.3	ND	ND	ND	ND	ND	1.6	148.1	20.1	93.1	0	0.51
28326	2013-04-22T05:00:00	2.1	ND	ND	ND	ND	ND	1	157.8	19.7	93.3	0	0.51
28327	2013-04-22T06:00:00	5.9	ND	ND	ND	ND	ND	0.9	142	19.7	92.5	0	0
28328	2013-04-22T07:00:00	3.9	ND	ND	ND	ND	ND	0.7	140.4	19.8	90.3	15	0
28329	2013-04-22T08:00:00	22.7	ND	ND	ND	ND	ND	0.6	138.4	20.4	86.2	72.4	0
28330	2013-04-22T09:00:00	11.9	ND	ND	ND	ND	ND	0.2	208.3	21.8	79.2	266.1	0
28331	2013-04-22T10:00:00	7.5	ND	ND	ND	ND	ND	0.4	252.9	22.8	74.7	257.4	0
28332	2013-04-22T11:00:00	24.4	ND	ND	ND	ND	ND	0.2	193.8	24.7	66.9	762.1	0
28333	2013-04-22T12:00:00	32.9	ND	ND	ND	ND	ND	1.4	133.6	27.1	58.8	826.5	0
28334	2013-04-22T13:00:00	18.6	ND	ND	ND	ND	ND	0.9	196.7	27	58.6	434.1	0
28335	2013-04-22T14:00:00	10.4	ND	ND	ND	ND	ND	1	148.2	28.4	52.9	662.5	0
28336	2013-04-22T15:00:00	7.3	ND	ND	ND	ND	ND	2.6	289.3	27.6	55.3	294.5	0
28337	2013-04-22T16:00:00	11.5	ND	ND	ND	ND	ND	2.9	283.8	27.1	58.1	288.4	0
28338	2013-04-22T17:00:00	21	ND	ND	ND	ND	ND	3.3	278.4	25.6	62.5	104.4	0
28339	2013-04-22T18:00:00	17.9	ND	ND	ND	ND	ND	3	272.6	25.6	59.8	63.6	0
28340	2013-04-22T19:00:00	11.1	ND	ND	ND	ND	ND	1.4	261.3	25.1	61.8	0	0
28341	2013-04-22T20:00:00	27.1	ND	ND	ND	ND	ND	1.1	158.6	24.3	66	0	0
28342	2013-04-22T21:00:00	30.3	ND	ND	ND	ND	ND	0.5	253.6	23.4	71.2	0	0.25
28343	2013-04-22T22:00:00	16.5	ND	ND	ND	ND	ND	1	276.6	22.5	78.8	0	1.27
28344	2013-04-22T23:00:00	21.7	ND	ND	ND	ND	ND	0.4	38.6	21.9	84.9	0	0
28345	2013-04-23T00:00:00	24	ND	ND	ND	ND	ND	0.4	245.6	21.8	84	0	0
28346	2013-04-23T01:00:00	12.6	ND	ND	ND	ND	ND	1.4	246	21.3	79.8	0	0
28347	2013-04-23T02:00:00	7.2	ND	ND	ND	ND	ND	0.3	331.6	21.4	83.1	0	0
28348	2013-04-23T03:00:00	23.1	ND	ND	ND	ND	ND	1	49.9	20.9	88.3	0	0
28349	2013-04-23T04:00:00	30.7	ND	ND	ND	ND	ND	0.5	183.7	20.8	88.5	0	0
28350	2013-04-23T05:00:00	16.1	ND	ND	ND	ND	ND	0.6	206.4	21.2	85.5	0	0
28351	2013-04-23T06:00:00	23	ND	ND	ND	ND	ND	0.1	153.4	21.4	80.9	0	0
28352	2013-04-23T07:00:00	50.5	ND	ND	ND	ND	ND	0.3	143.4	21.2	87.1	24.3	0
28353	2013-04-23T08:00:00	47.3	ND	ND	ND	ND	ND	0.2	ND	22.1	81.1	158.5	0
28354	2013-04-23T09:00:00	27.4	ND	ND	ND	ND	ND	0.4	124.7	23.6	71.8	255.4	0
28355	2013-04-23T10:00:00	47.7	ND	ND	ND	ND	ND	1	113.1	24.5	71.4	432.1	0
28356	2013-04-23T11:00:00	24.8	ND	ND	ND	ND	ND	1.3	97.9	26.4	61.8	766.1	0
28357	2013-04-23T12:00:00	ND	ND	ND	ND	ND	ND	1.4	113.1	28	55.6	770.3	0
28358	2013-04-23T13:00:00	ND	ND	ND	ND	ND	ND	1	91.8	28.6	53.1	605.3	0
28359	2013-04-23T14:00:00	0.5	ND	ND	ND	ND	ND	1.2	69.5	29.6	50	574.2	0
28360	2013-04-23T15:00:00	1.2	ND	ND	ND	ND	ND	1.8	301.1	28.8	51.2	303.4	0
28361	2013-04-23T16:00:00	1.9	ND	ND	ND	ND	ND	2.5	272.3	30	47.7	564.6	0
28362	2013-04-23T17:00:00	0.9	ND	ND	ND	ND	ND	3.5	261.3	28.1	54.5	123.8	0
28363	2013-04-23T18:00:00	13.5	ND	ND	ND	ND	ND	4.2	218.5	20.8	91.7	4.9	25.15
28364	2013-04-23T19:00:00	7.4	ND	ND	ND	ND	ND	2.7	268.1	22.8	76.3	0	0
28365	2013-04-23T20:00:00	5.3	ND	ND	ND	ND	ND	0.3	310.1	23.4	73.1	0	0
28366	2013-04-23T21:00:00	12.7	ND	ND	ND	ND	ND	1.8	206.9	22	81.8	0	0
28367	2013-04-23T22:00:00	16.2	ND	ND	ND	ND	ND	1.8	243.8	22.1	78.7	0	0
28368	2013-04-23T23:00:00	9.9	ND	ND	ND	ND	ND	1.8	251.7	22.3	78	0	0
28369	2013-04-24T00:00:00	8.3	ND	ND	ND	ND	ND	0.6	302.6	22.4	77.1	0	0
28370	2013-04-24T01:00:00	10.3	ND	ND	ND	ND	ND	0.3	ND	21.4	85	0	0
28371	2013-04-24T02:00:00	35.8	ND	ND	ND	ND	ND	0.6	211.4	21.5	82.5	0	0
28372	2013-04-24T03:00:00	28.3	ND	ND	ND	ND	ND	0.2	140.7	21.3	85.1	0	0
28373	2013-04-24T04:00:00	23.6	ND	ND	ND	ND	ND	0.7	152.5	20.7	88	0	0
28374	2013-04-24T05:00:00	12.9	ND	ND	ND	ND	ND	0.5	213.7	20.8	88	0	0
28375	2013-04-24T06:00:00	16.3	ND	ND	ND	ND	ND	0.1	ND	21	87	0	0
28376	2013-04-24T07:00:00	19.3	ND	ND	ND	ND	ND	0.3	ND	21.3	85.5	49.3	0
28377	2013-04-24T08:00:00	80	ND	ND	ND	ND	ND	0.6	61.9	21.6	86.5	96.1	0
28378	2013-04-24T09:00:00	91.8	ND	ND	ND	ND	ND	0.3	311	23.6	74.1	431.5	0
28379	2013-04-24T10:00:00	74	ND	ND	ND	ND	ND	0.8	170.3	25.7	64.1	610.2	0
28380	2013-04-24T11:00:00	45	ND	ND	ND	ND	ND	1.1	153.3	27.6	57.3	818.9	0
28381	2013-04-24T12:00:00	39.1	ND	ND	ND	ND	ND	0.8	107.7	28.9	52.5	812.2	0
28382	2013-04-24T13:00:00	26.9	ND	ND	ND	ND	ND	1.3	96.4	30.2	49.3	896	0
28383	2013-04-24T14:00:00	23.2	ND	ND	ND	ND	ND	0.6	83.4	30.7	46.6	705.5	0
28384	2013-04-24T15:00:00	12.3	ND	ND	ND	ND	ND	0.3	33.7	30.9	46.3	449.3	0
28385	2013-04-24T16:00:00	38.4	ND	ND	ND	ND	ND	3.6	277.5	29.8	49.6	408.7	0
28386	2013-04-24T17:00:00	30.2	ND	ND	ND	ND	ND	3.7	270.1	28.7	52.6	193.1	0
28387	2013-04-24T18:00:00	27	ND	ND	ND	ND	ND	3.1	275.3	27.6	54.8	51	0
28388	2013-04-24T19:00:00	18.8	ND	ND	ND	ND	ND	3.3	276.7	26.7	57.2	0	0
28389	2013-04-24T20:00:00	9.4	ND	ND	ND	ND	ND	2.8	273.8	26.3	59	0	0
28390	2013-04-24T21:00:00	4.7	ND	ND	ND	ND	ND	2.3	258.6	25.9	60.7	0	0
28391	2013-04-24T22:00:00	19.6	ND	ND	ND	ND	ND	0.5	269.6	25.2	65.3	0	0
28392	2013-04-24T23:00:00	11.3	ND	ND	ND	ND	ND	0.5	251.6	24.9	65.7	0	0
28393	2013-04-25T00:00:00	27.7	ND	ND	ND	ND	ND	0.4	75.9	23.5	74.2	0	0
28394	2013-04-25T01:00:00	15.4	ND	ND	ND	ND	ND	0.6	135.9	23.6	77.2	0	0
28395	2013-04-25T02:00:00	24.4	ND	ND	ND	ND	ND	0.7	74.5	23.2	77.7	0	0
28396	2013-04-25T03:00:00	13.5	ND	ND	ND	ND	ND	0.5	130.3	23.2	77.3	0	0
28397	2013-04-25T04:00:00	11.5	ND	ND	ND	ND	ND	0.9	159.8	22.9	80.4	0	0
28398	2013-04-25T05:00:00	14.3	ND	ND	ND	ND	ND	1	140.1	22.5	82.6	0	0
28399	2013-04-25T06:00:00	16.2	ND	ND	ND	ND	ND	1	188	22.1	84	0	0
28400	2013-04-25T07:00:00	9.1	ND	ND	ND	ND	ND	1.6	183.7	22.3	82.6	22.7	0
28401	2013-04-25T08:00:00	15.3	ND	ND	ND	ND	ND	1	163.2	22.9	78.8	77.4	0
28402	2013-04-25T09:00:00	19.2	ND	ND	ND	ND	ND	1	139.5	23.1	81.6	176.8	0
28403	2013-04-25T10:00:00	28.1	ND	ND	ND	ND	ND	1	159.2	25.3	67.2	562	0
28404	2013-04-25T11:00:00	23.5	ND	ND	ND	ND	ND	1.1	146.2	27.2	59.3	822.9	0
28405	2013-04-25T12:00:00	35.4	ND	ND	ND	ND	ND	1.2	152.6	28.7	52.8	833	0
28406	2013-04-25T13:00:00	24.7	ND	ND	ND	ND	ND	0.9	125.9	29.7	50.5	573.8	0
28407	2013-04-25T14:00:00	28.7	ND	ND	ND	ND	ND	1.1	167.3	30.4	48.8	612.4	0
28408	2013-04-25T15:00:00	19.2	ND	ND	ND	ND	ND	0.9	272.1	30.6	47.1	541.3	0
28409	2013-04-25T16:00:00	22.4	ND	ND	ND	ND	ND	4.2	296.9	29.7	48.3	458.8	0
28410	2013-04-25T17:00:00	12	ND	ND	ND	ND	ND	2.8	303.9	28.5	52.2	296.8	0
28411	2013-04-25T18:00:00	35.2	ND	ND	ND	ND	ND	2.2	42.9	25.4	70.5	48.6	0
28412	2013-04-25T19:00:00	28.4	ND	ND	ND	ND	ND	1	58.1	25.3	67.4	0	0
28413	2013-04-25T20:00:00	66	ND	ND	ND	ND	ND	1.4	239.3	25.6	63.4	0	0
28414	2013-04-25T21:00:00	34.4	ND	ND	ND	ND	ND	3	208.9	24.2	73.6	0	0
28415	2013-04-25T22:00:00	38.2	ND	ND	ND	ND	ND	1.7	160.3	23.8	73.7	0	0
28416	2013-04-25T23:00:00	21.5	ND	ND	ND	ND	ND	0.9	72	23.3	75.7	0	0
28417	2013-04-26T00:00:00	40.2	ND	ND	ND	ND	ND	0.2	ND	23	76.8	0	0
28418	2013-04-26T01:00:00	21.9	ND	ND	ND	ND	ND	0.9	145.4	22.6	77.4	0	0
28419	2013-04-26T02:00:00	21.4	ND	ND	ND	ND	ND	1	124.1	22.2	78.9	0	0
28420	2013-04-26T03:00:00	11.2	ND	ND	ND	ND	ND	0.7	230.4	21.9	79.5	0	0
28421	2013-04-26T04:00:00	6.5	ND	ND	ND	ND	ND	0.4	302.4	22.2	77.1	0	0
28422	2013-04-26T05:00:00	21.1	ND	ND	ND	ND	ND	0.5	84.4	22.3	78.8	0	0
28423	2013-04-26T06:00:00	19.5	ND	ND	ND	ND	ND	0.6	88.9	21.9	82.5	0	0
28424	2013-04-26T07:00:00	13.2	ND	ND	ND	ND	ND	0.1	ND	22	81.8	29.4	0
28425	2013-04-26T08:00:00	50.5	ND	ND	ND	ND	ND	0.7	157	23.1	77	174.1	0
28426	2013-04-26T09:00:00	57.6	ND	ND	ND	ND	ND	1.4	157.3	24.4	70.2	341.4	0
28427	2013-04-26T10:00:00	45.1	ND	ND	ND	ND	ND	1.4	158.2	25.7	64.4	527.1	0
28428	2013-04-26T11:00:00	48.7	ND	ND	ND	ND	ND	1.3	149.7	27.2	58.5	676.7	0
28429	2013-04-26T12:00:00	38.6	ND	ND	ND	ND	ND	0.9	88.6	28	54.3	522.7	0
28430	2013-04-26T13:00:00	21.4	ND	ND	ND	ND	ND	0.9	99.1	29	51.8	599.9	0
28431	2013-04-26T14:00:00	42	ND	ND	ND	ND	ND	1.1	69.3	29.6	49.4	470.6	0
28432	2013-04-26T15:00:00	22.8	ND	ND	ND	ND	ND	2.8	286.6	30.4	45.3	571.2	0
28433	2013-04-26T16:00:00	26.2	ND	ND	ND	ND	ND	4.3	292	28.1	51.6	266.9	0
28434	2013-04-26T17:00:00	13.8	ND	ND	ND	ND	ND	4.7	303.9	27.7	52.1	221.1	0
28435	2013-04-26T18:00:00	8	ND	ND	ND	ND	ND	2.1	310.4	26.9	56.2	68.4	0
28436	2013-04-26T19:00:00	12.9	ND	ND	ND	ND	ND	1.4	39.2	25.2	65.1	0	0
28437	2013-04-26T20:00:00	33.3	ND	ND	ND	ND	ND	3.1	202.7	24.2	70.5	0	0
28438	2013-04-26T21:00:00	20.1	ND	ND	ND	ND	ND	1.2	198.6	22.1	81.7	0	15.75
28439	2013-04-26T22:00:00	22.4	ND	ND	ND	ND	ND	1	355.7	20.5	91.2	0	11.43
28440	2013-04-26T23:00:00	11.8	ND	ND	ND	ND	ND	0.6	134.7	20.5	90.4	0	2.54
28441	2013-04-27T00:00:00	7.9	ND	ND	ND	ND	ND	0.5	40.1	20.5	91.2	0	0.25
28442	2013-04-27T01:00:00	4.4	ND	ND	ND	ND	ND	0.9	96.1	20.4	91	0	0
28443	2013-04-27T02:00:00	3.1	ND	ND	ND	ND	ND	0.9	148.5	20.1	90.9	0	0
28444	2013-04-27T03:00:00	2.3	ND	ND	ND	ND	ND	0.1	ND	20	91.6	0	0
28445	2013-04-27T04:00:00	13	ND	ND	ND	ND	ND	0.5	27.2	20.2	91	0	0
28446	2013-04-27T05:00:00	26.7	ND	ND	ND	ND	ND	0.5	98.9	20	92.2	0	0
28447	2013-04-27T06:00:00	22.7	ND	ND	ND	ND	ND	0.4	182.7	20	91.5	0	0
28448	2013-04-27T07:00:00	16.6	ND	ND	ND	ND	ND	0.7	209.6	20.5	88.3	40.3	0.25
28449	2013-04-27T08:00:00	21.4	ND	ND	ND	ND	ND	0.5	ND	21.8	81.8	194.1	0
28450	2013-04-27T09:00:00	46.6	ND	ND	ND	ND	ND	1.8	69.6	22.9	79.1	472.6	0
28451	2013-04-27T10:00:00	45.9	ND	ND	ND	ND	ND	1.4	69.5	23.7	73.2	467.4	0
28452	2013-04-27T11:00:00	24.1	ND	ND	ND	ND	ND	0.8	124.1	25.6	63.9	765.4	0
28453	2013-04-27T12:00:00	15.3	ND	ND	ND	ND	ND	0.1	167.6	26.7	58.8	540.4	0
28454	2013-04-27T13:00:00	9.1	ND	ND	ND	ND	ND	1.1	118.4	28.5	50.8	936.9	0
28455	2013-04-27T14:00:00	14.1	ND	ND	ND	ND	ND	0.7	40	29.2	50.3	701.4	0
28456	2013-04-27T15:00:00	15.3	ND	ND	ND	ND	ND	1.6	15.3	29.6	50.8	451.2	0
28457	2013-04-27T16:00:00	26.6	ND	ND	ND	ND	ND	4.4	277.3	29.4	48.2	680.3	0
28458	2013-04-27T17:00:00	14.5	ND	ND	ND	ND	ND	5	290.1	26.8	54.7	81.7	0
28459	2013-04-27T18:00:00	9.3	ND	ND	ND	ND	ND	4.5	297.8	26.2	54.5	29.9	0
28460	2013-04-27T19:00:00	6.7	ND	ND	ND	ND	ND	2.8	219.7	25.1	61.7	0	0
28461	2013-04-27T20:00:00	14.8	ND	ND	ND	ND	ND	1.9	196.5	22.7	75.5	0	0
28462	2013-04-27T21:00:00	8.8	ND	ND	ND	ND	ND	1.4	212.7	21.3	83.6	0	1.27
28463	2013-04-27T22:00:00	5.8	ND	ND	ND	ND	ND	1.8	184.9	20.7	85.1	0	0.25
28464	2013-04-27T23:00:00	4.1	ND	ND	ND	ND	ND	0.7	264.3	21.2	84.7	0	0
28465	2013-04-28T00:00:00	17.7	ND	ND	ND	ND	ND	0.2	ND	21.4	83.9	0	0
28466	2013-04-28T01:00:00	10.6	ND	ND	ND	ND	ND	1.1	121.8	20.2	88.4	0	0
28467	2013-04-28T02:00:00	19.6	ND	ND	ND	ND	ND	0.8	52.5	20.2	89.4	0	0
28468	2013-04-28T03:00:00	26.2	ND	ND	ND	ND	ND	0.4	293.5	20.5	88.1	0	0
28469	2013-04-28T04:00:00	33.6	ND	ND	ND	ND	ND	0.2	252.7	20.9	85.8	0	0
28470	2013-04-28T05:00:00	20.7	ND	ND	ND	ND	ND	0.8	67.5	20.1	89.8	0	0
28471	2013-04-28T06:00:00	44	ND	ND	ND	ND	ND	0.2	ND	20.3	88.3	0	0
28472	2013-04-28T07:00:00	27.5	ND	ND	ND	ND	ND	0.4	ND	20.7	86.6	41.6	0
28473	2013-04-28T08:00:00	48.2	ND	ND	ND	ND	ND	1	157.4	21.7	82.9	255.7	0
28474	2013-04-28T09:00:00	26	ND	ND	ND	ND	ND	0.4	142.4	24.4	68.3	558	0
28475	2013-04-28T10:00:00	17.4	ND	ND	ND	ND	ND	1.6	70.8	24.8	68	368.6	0
28476	2013-04-28T11:00:00	10.6	ND	ND	ND	ND	ND	1.4	32.3	25.8	63.1	660.9	0
28477	2013-04-28T12:00:00	14.6	ND	ND	ND	ND	ND	1.4	61.5	27.1	58.5	563.4	0
28478	2013-04-28T13:00:00	23.2	ND	ND	ND	ND	ND	1.1	63.1	27.7	56.1	565	0
28479	2013-04-28T14:00:00	63.1	ND	ND	ND	ND	ND	1.1	57.4	28.3	54.1	473.9	0
28480	2013-04-28T15:00:00	32.1	ND	ND	ND	ND	ND	1.1	47.6	28.5	53.4	258.6	0
28481	2013-04-28T16:00:00	28.7	ND	ND	ND	ND	ND	1.9	294.7	29	48.3	419	0
28482	2013-04-28T17:00:00	15.5	ND	ND	ND	ND	ND	1.1	342.6	29.2	47.4	306.4	0
28483	2013-04-28T18:00:00	8.7	ND	ND	ND	ND	ND	2.4	282.7	27.9	48.6	123.5	0
28484	2013-04-28T19:00:00	5.1	ND	ND	ND	ND	ND	2	270.3	26.5	50.6	0	0
28485	2013-04-28T20:00:00	11.3	ND	ND	ND	ND	ND	2	206.2	25.5	62.1	0	0
28486	2013-04-28T21:00:00	13.2	ND	ND	ND	ND	ND	1	225.1	25	65.2	0	0
28487	2013-04-28T22:00:00	13.3	ND	ND	ND	ND	ND	1.2	257	24.6	62.3	0	0
28488	2013-04-28T23:00:00	8.6	ND	ND	ND	ND	ND	1.1	270.6	24.3	63.4	0	0
28489	2013-04-29T00:00:00	14.5	ND	ND	ND	ND	ND	0.8	13.2	23.4	74.1	0	0
28490	2013-04-29T01:00:00	29.4	ND	ND	ND	ND	ND	0.7	26.8	22.7	75.6	0	0
28491	2013-04-29T02:00:00	22.5	ND	ND	ND	ND	ND	0.2	ND	22.5	75.2	0	0
28492	2013-04-29T03:00:00	13.4	ND	ND	ND	ND	ND	0.6	284	22.2	74.3	0	0
28493	2013-04-29T04:00:00	15.1	ND	ND	ND	ND	ND	0.1	ND	22	76.9	0	0
28494	2013-04-29T05:00:00	8.6	ND	ND	ND	ND	ND	0.1	132.4	21.8	79.8	0	0
28495	2013-04-29T06:00:00	23.3	ND	ND	ND	ND	ND	0.2	ND	21.8	76.7	0	0
28496	2013-04-29T07:00:00	27.3	ND	ND	ND	ND	ND	0.6	82.8	21.6	83.9	17.9	0
28497	2013-04-29T08:00:00	52.1	ND	ND	ND	ND	ND	0.2	ND	22.3	82.9	95.5	0
28498	2013-04-29T09:00:00	57.9	ND	ND	ND	ND	ND	0.2	184.9	23.8	75.1	361.7	0
28499	2013-04-29T10:00:00	60.4	ND	ND	ND	ND	ND	0.6	168.7	25.5	65.7	471.6	0
28500	2013-04-29T11:00:00	58.5	ND	ND	ND	ND	ND	1.4	83.8	26.7	62.3	522.2	0
28501	2013-04-29T12:00:00	50.3	ND	ND	ND	ND	ND	0.3	15.3	27.6	57.9	505.1	0
28502	2013-04-29T13:00:00	26.3	ND	ND	ND	ND	ND	0.2	85.4	28.8	51.9	619	0
28503	2013-04-29T14:00:00	38.8	ND	ND	ND	ND	ND	0.8	18.8	28.8	52.4	339.3	0
28504	2013-04-29T15:00:00	20.3	ND	ND	ND	ND	ND	2.5	269.3	27.4	54.8	106.5	4.83
28505	2013-04-29T16:00:00	23.6	ND	ND	ND	ND	ND	4.5	189.4	21.7	81	20.5	12.95
28506	2013-04-29T17:00:00	21.6	ND	ND	ND	ND	ND	1.3	186.6	20.8	86.8	7.3	5.08
28507	2013-04-29T18:00:00	29	ND	ND	ND	ND	ND	0.4	55.2	20.7	86.6	0	1.02
28508	2013-04-29T19:00:00	29.2	ND	ND	ND	ND	ND	1.3	0.1	20.2	88.2	0	4.57
28509	2013-04-29T20:00:00	23.6	ND	ND	ND	ND	ND	0.6	314.5	20.2	88.3	0	1.78
28510	2013-04-29T21:00:00	25.4	ND	ND	ND	ND	ND	0.8	223.2	20.6	86.1	0	0
28511	2013-04-29T22:00:00	21.4	ND	ND	ND	ND	ND	0.7	173.6	20.6	87.6	0	0.25
28512	2013-04-29T23:00:00	12.2	ND	ND	ND	ND	ND	0.7	137.7	20.5	89.9	0	0
28513	2013-04-30T00:00:00	17.4	ND	ND	ND	ND	ND	0.6	181.8	20.1	91	0	0
28514	2013-04-30T01:00:00	12.3	ND	ND	ND	ND	ND	0.7	133.6	20.2	91.7	0	0
28515	2013-04-30T02:00:00	38.3	ND	ND	ND	ND	ND	0.5	156.4	19.8	93.1	0	0
28516	2013-04-30T03:00:00	19.8	ND	ND	ND	ND	ND	1	162.4	19.8	93	0	0
28517	2013-04-30T04:00:00	13.5	ND	ND	ND	ND	ND	0.8	187.2	19.9	91.7	0	0
28518	2013-04-30T05:00:00	9	ND	ND	ND	ND	ND	0.8	174.8	20.1	90.3	0	0
28519	2013-04-30T06:00:00	6.6	ND	ND	ND	ND	ND	0.3	183.4	20.3	86.9	0	0
28520	2013-04-30T07:00:00	21	ND	ND	ND	ND	ND	0.4	136.6	20.4	86.6	33.9	0
28521	2013-04-30T08:00:00	46.3	ND	ND	ND	ND	ND	0.5	99.8	21.7	79.8	221.8	0
28522	2013-04-30T09:00:00	38.2	ND	ND	ND	ND	ND	0.4	76.4	23	73.9	345.9	0
28523	2013-04-30T10:00:00	67.4	ND	ND	ND	ND	ND	1.7	44.5	24.1	71.5	525.2	0
28524	2013-04-30T11:00:00	35.9	ND	ND	ND	ND	ND	0.9	53	25.1	65.8	415.3	0
28525	2013-04-30T12:00:00	25.7	ND	ND	ND	ND	ND	1.2	78.3	26.4	61.1	488.1	0
28526	2013-04-30T13:00:00	24.1	ND	ND	ND	ND	ND	1.1	57.1	28	55.1	840.7	0
28527	2013-04-30T14:00:00	27.1	ND	ND	ND	ND	ND	0.5	77.5	28.7	52.2	649	0
28528	2013-04-30T15:00:00	15.2	ND	ND	ND	ND	ND	1.6	89.9	29.3	50.7	530	0
28529	2013-04-30T16:00:00	35.5	ND	ND	ND	ND	ND	2.1	136	28.6	53.6	242.5	0
28530	2013-04-30T17:00:00	24.9	ND	ND	ND	ND	ND	1.1	166.4	28.2	54.8	159.5	0
28531	2013-04-30T18:00:00	43.6	ND	ND	ND	ND	ND	1.5	229.4	27.5	56.9	15.9	0
28532	2013-04-30T19:00:00	52.4	ND	ND	ND	ND	ND	0.3	74.1	26.1	63.6	0	0
28533	2013-04-30T20:00:00	57.2	ND	ND	ND	ND	ND	0.5	187.1	25.9	64.5	0	0
28534	2013-04-30T21:00:00	50.5	ND	ND	ND	ND	ND	0.6	74.1	24.9	69.4	0	0
28535	2013-04-30T22:00:00	51.1	ND	ND	ND	ND	ND	0.9	213.8	25	66.7	0	0
28536	2013-04-30T23:00:00	39.4	ND	ND	ND	ND	ND	0.7	93.5	24.3	74.5	0	0
28537	2013-05-01T00:00:00	50.2	ND	ND	ND	ND	ND	0.6	180	23.8	77.6	0	0
28538	2013-05-01T01:00:00	41.1	ND	ND	ND	ND	ND	0.6	146.7	23.5	79.7	0	0
28539	2013-05-01T02:00:00	54.7	ND	ND	ND	ND	ND	1.3	152.2	23.1	79.2	0	0
28540	2013-05-01T03:00:00	31.5	ND	ND	ND	ND	ND	0.3	149.7	22.6	80.9	0	0.51
28541	2013-05-01T04:00:00	29.8	ND	ND	ND	ND	ND	0.3	195.2	21.2	89.8	0	13.97
28542	2013-05-01T05:00:00	23.6	ND	ND	ND	ND	ND	1.2	181.3	21.1	92.3	0	5.84
28543	2013-05-01T06:00:00	37.9	ND	ND	ND	ND	ND	0.5	155	20.8	94.1	0	6.35
28544	2013-05-01T07:00:00	21	ND	ND	ND	ND	ND	0.8	175.4	20.4	94.6	21.7	4.06
28545	2013-05-01T08:00:00	12.2	ND	ND	ND	ND	ND	0.3	ND	21.2	92.6	163.4	0.25
28546	2013-05-01T09:00:00	6.1	ND	ND	ND	ND	ND	0.5	191.3	22.7	82.3	261.4	0.25
28547	2013-05-01T10:00:00	3.5	ND	ND	ND	ND	ND	0.8	88.4	23.9	75.6	346.3	0
28548	2013-05-01T11:00:00	3.3	ND	ND	ND	ND	ND	0.8	48.1	24.5	73.2	357.3	0
28549	2013-05-01T12:00:00	19.9	ND	ND	ND	ND	ND	1.5	45.6	24.7	72.3	348.4	0
28550	2013-05-01T13:00:00	12	ND	ND	ND	ND	ND	1.4	47.7	25.2	70.5	412.1	0
28551	2013-05-01T14:00:00	6.5	ND	ND	ND	ND	ND	0.8	39.1	26.5	62.8	618.6	0
28552	2013-05-01T15:00:00	5.1	ND	ND	ND	ND	ND	1.8	60.1	26.8	62	373.4	0
28553	2013-05-01T16:00:00	13.3	ND	ND	ND	ND	ND	1.6	214.6	27.2	55.6	400.7	0
28554	2013-05-01T17:00:00	7.9	ND	ND	ND	ND	ND	3.4	221.9	26.5	52.9	176.9	0
28555	2013-05-01T18:00:00	4.7	ND	ND	ND	ND	ND	4	221.5	25.3	57.3	60.8	0
28556	2013-05-01T19:00:00	3.9	ND	ND	ND	ND	ND	2.9	220.5	24.7	60.7	0	0
28557	2013-05-01T20:00:00	3.2	ND	ND	ND	ND	ND	1.6	201.2	24.1	69.8	0	0
28558	2013-05-01T21:00:00	3.7	ND	ND	ND	ND	ND	1.1	217.2	24	66.5	0	0
28559	2013-05-01T22:00:00	6.6	ND	ND	ND	ND	ND	0.9	155.7	23.6	73.4	0	0
28560	2013-05-01T23:00:00	14.4	ND	ND	ND	ND	ND	1.7	202.9	21	91.6	0	26.67
28561	2013-05-02T00:00:00	8.3	ND	ND	ND	ND	ND	1.2	196.2	20.3	92	0	2.29
28562	2013-05-02T01:00:00	4.8	ND	ND	ND	ND	ND	0.3	41.6	20.6	88.1	0	0.25
28563	2013-05-02T02:00:00	4.5	ND	ND	ND	ND	ND	0.2	ND	20.5	88.3	0	0
28564	2013-05-02T03:00:00	4.3	ND	ND	ND	ND	ND	0	ND	20.5	89.8	0	0
28565	2013-05-02T04:00:00	2.1	ND	ND	ND	ND	ND	0.8	163.6	20.4	90	0	0
28566	2013-05-02T05:00:00	1.1	ND	ND	ND	ND	ND	0.9	155.8	20.2	90.3	0	0
28567	2013-05-02T06:00:00	0.5	ND	ND	ND	ND	ND	0.8	181.7	20.4	90.5	0	0
28568	2013-05-02T07:00:00	4.7	ND	ND	ND	ND	ND	0.1	ND	20.5	90.3	24.3	0
28569	2013-05-02T08:00:00	33.2	ND	ND	ND	ND	ND	0.9	68.7	21.1	87.3	84.5	0
28570	2013-05-02T09:00:00	21.7	ND	ND	ND	ND	ND	0.8	95.2	21.2	87	223.1	0
28571	2013-05-02T10:00:00	38.9	ND	ND	ND	ND	ND	0.8	83.5	22.8	77.3	380.4	0
28572	2013-05-02T11:00:00	28.2	ND	ND	ND	ND	ND	1.3	85.4	25	66.5	749.3	0
28573	2013-05-02T12:00:00	19.2	ND	ND	ND	ND	ND	1.4	77.3	26.4	59.8	642.1	0
28574	2013-05-02T13:00:00	10.2	ND	ND	ND	ND	ND	1.2	77.4	27.3	56.5	611.8	0
28575	2013-05-02T14:00:00	16.2	ND	ND	ND	ND	ND	1.4	86.8	27.8	54.4	607.7	0
28576	2013-05-02T15:00:00	9.8	ND	ND	ND	ND	ND	0.1	297.2	28.4	53.2	290.3	0
28577	2013-05-02T16:00:00	23.4	ND	ND	ND	ND	ND	3	223.2	27.2	54.4	121.3	0
28578	2013-05-02T17:00:00	13.6	ND	ND	ND	ND	ND	3.4	191.7	25.4	63.2	47.3	5.84
28579	2013-05-02T18:00:00	48.3	ND	ND	ND	ND	ND	3.3	187.2	20.1	92.2	4.6	44.45
28580	2013-05-02T19:00:00	25.5	ND	ND	ND	ND	ND	0.6	89.5	20.4	89.8	0	4.06
28581	2013-05-02T20:00:00	18.3	ND	ND	ND	ND	ND	1.1	45	19.3	90.7	0	6.86
28582	2013-05-02T21:00:00	11.1	ND	ND	ND	ND	ND	0.6	30.5	19.3	92.3	0	2.03
28583	2013-05-02T22:00:00	12.5	ND	ND	ND	ND	ND	0.8	154.2	19.5	93.2	0	0.25
28584	2013-05-02T23:00:00	8.1	ND	ND	ND	ND	ND	1	180.7	19.6	92.4	0	0
28585	2013-05-03T00:00:00	4.7	ND	ND	ND	ND	ND	0.4	199	19.8	91.4	0	0
28586	2013-05-03T01:00:00	3.4	ND	ND	ND	ND	ND	0.5	210.4	20.1	88.9	0	0
28587	2013-05-03T02:00:00	3.4	ND	ND	ND	ND	ND	0.8	174.6	20	89.8	0	0
28588	2013-05-03T03:00:00	3.2	ND	ND	ND	ND	ND	0.6	162.6	19.7	93	0	0
28589	2013-05-03T04:00:00	3.2	ND	ND	ND	ND	ND	0.7	152.4	19.6	93.8	0	0
28590	2013-05-03T05:00:00	3.7	ND	ND	ND	ND	ND	0.2	ND	19.6	93.8	0	0
28591	2013-05-03T06:00:00	2.7	ND	ND	ND	ND	ND	1.7	48.3	19.3	94	0	0
28592	2013-05-03T07:00:00	2.9	ND	ND	ND	ND	ND	1	27.7	19.4	92	20.1	0
28593	2013-05-03T08:00:00	16.4	ND	ND	ND	ND	ND	0.4	338.2	20.3	87.2	115.8	0
28594	2013-05-03T09:00:00	13.3	ND	ND	ND	ND	ND	0.9	55	21.7	79.9	240.7	0.25
28595	2013-05-03T10:00:00	20.7	ND	ND	ND	ND	ND	0.3	40.7	23.2	72.7	453.3	0
28596	2013-05-03T11:00:00	11.4	ND	ND	ND	ND	ND	0.8	76.6	25	65.9	656	0
28597	2013-05-03T12:00:00	19.5	ND	ND	ND	ND	ND	1	121.9	26.6	57.2	907.8	0
28598	2013-05-03T13:00:00	10.3	ND	ND	ND	ND	ND	1.2	107.5	26.7	58.3	449	0
28599	2013-05-03T14:00:00	13.9	ND	ND	ND	ND	ND	1.2	83.8	26	61.3	258.6	0
28600	2013-05-03T15:00:00	23.2	ND	ND	ND	ND	ND	1.2	63.9	25.9	63.2	172.2	0
28601	2013-05-03T16:00:00	23.2	ND	ND	ND	ND	ND	0.6	49.3	26.1	59.9	177.5	0
28602	2013-05-03T17:00:00	13.6	ND	ND	ND	ND	ND	0.2	177.7	26.6	56.5	157.1	0
28603	2013-05-03T18:00:00	36.5	ND	ND	ND	ND	ND	0.9	223.3	26	60.3	51	0
28604	2013-05-03T19:00:00	35.6	ND	ND	ND	ND	ND	1.1	222.5	25.2	64.8	0	0
28605	2013-05-03T20:00:00	89.5	ND	ND	ND	ND	ND	0.6	210.2	24.5	69.5	0	0
28606	2013-05-03T21:00:00	58.3	ND	ND	ND	ND	ND	0.6	203.2	24.2	69.3	0	0
28607	2013-05-03T22:00:00	64.5	ND	ND	ND	ND	ND	0.8	55.4	23.4	74.7	0	0
28608	2013-05-03T23:00:00	36.3	ND	ND	ND	ND	ND	0.2	ND	22.7	77.1	0	0
28609	2013-05-04T00:00:00	26.5	ND	ND	ND	ND	ND	0.8	216.1	22.6	75.4	0	0
28610	2013-05-04T01:00:00	19.6	ND	ND	ND	ND	ND	1.3	191.6	22.2	78.3	0	0
28611	2013-05-04T02:00:00	38.5	ND	ND	ND	ND	ND	0.8	143.7	21.6	85	0	0
28612	2013-05-04T03:00:00	21.3	ND	ND	ND	ND	ND	0.2	114.3	21.5	85.8	0	0
28613	2013-05-04T04:00:00	25.7	ND	ND	ND	ND	ND	0.7	212.5	22.1	81	0	0
28614	2013-05-04T05:00:00	13.4	ND	ND	ND	ND	ND	0.4	ND	21.8	80.5	0	0
28615	2013-05-04T06:00:00	26.5	ND	ND	ND	ND	ND	0.3	41.8	21.3	84.4	0	0
28616	2013-05-04T07:00:00	38.6	ND	ND	ND	ND	ND	0.9	217.2	21.1	83.2	31	0
28617	2013-05-04T08:00:00	64.7	ND	ND	ND	ND	ND	1	133.8	21	87.6	67.5	0
28618	2013-05-04T09:00:00	83.6	ND	ND	ND	ND	ND	0.3	78.2	21.9	84.1	189.3	0
28619	2013-05-04T10:00:00	80.7	ND	ND	ND	ND	ND	0.6	63.6	23.9	73.9	435.5	0
28620	2013-05-04T11:00:00	66.7	ND	ND	ND	ND	ND	0.7	70.1	25.2	67.9	538.5	0
28621	2013-05-04T12:00:00	55.3	ND	ND	ND	ND	ND	1.1	82.7	26.9	61.2	757.4	0
28622	2013-05-04T13:00:00	37.2	ND	ND	ND	ND	ND	0.8	103.9	28.2	57.3	732.7	0
28623	2013-05-04T14:00:00	47.7	ND	ND	ND	ND	ND	0.8	117.3	29	54.9	503.5	0
28624	2013-05-04T15:00:00	42.6	ND	ND	ND	ND	ND	0.5	140.1	28.9	55.5	290.1	0
28625	2013-05-04T16:00:00	51.3	ND	ND	ND	ND	ND	2.5	189.9	26.2	64.7	213.9	0
28626	2013-05-04T17:00:00	27.8	ND	ND	ND	ND	ND	3.4	219.5	27.8	54.8	212.6	0
28627	2013-05-04T18:00:00	15.8	ND	ND	ND	ND	ND	2.9	221	27.3	55.1	71.3	0
28628	2013-05-04T19:00:00	22.8	ND	ND	ND	ND	ND	3.6	221.3	26.1	58.8	0	0
28629	2013-05-04T20:00:00	20	ND	ND	ND	ND	ND	2.8	220.6	25.8	60.4	0	0
28630	2013-05-04T21:00:00	13.8	ND	ND	ND	ND	ND	3.4	222	25.8	60.7	0	0
28631	2013-05-04T22:00:00	13.3	ND	ND	ND	ND	ND	2.1	206.9	24.9	63	0	0
28632	2013-05-04T23:00:00	14.4	ND	ND	ND	ND	ND	1	112.7	22.1	77.1	0	0
28633	2013-05-05T00:00:00	29.9	ND	ND	ND	ND	ND	0.7	147.2	21.7	81.9	0	0.25
28634	2013-05-05T01:00:00	17.3	ND	ND	ND	ND	ND	0.7	202.4	21.3	84.3	0	0
28635	2013-05-05T02:00:00	24.7	ND	ND	ND	ND	ND	1.2	215.3	21.7	82.7	0	0
28636	2013-05-05T03:00:00	26.5	ND	ND	ND	ND	ND	1.4	152.2	21.3	86.4	0	0
28637	2013-05-05T04:00:00	18	ND	ND	ND	ND	ND	0.2	ND	20.5	90.7	0	2.79
28638	2013-05-05T05:00:00	10.5	ND	ND	ND	ND	ND	0.6	115.2	20.4	90.7	0	0
28639	2013-05-05T06:00:00	9.5	ND	ND	ND	ND	ND	1	137.8	20.2	92	0	0
28640	2013-05-05T07:00:00	5.7	ND	ND	ND	ND	ND	0.8	160	20	91.5	6.9	0.51
28641	2013-05-05T08:00:00	4.5	ND	ND	ND	ND	ND	0.9	151.6	19.9	93	31	0.25
28642	2013-05-05T09:00:00	3.9	ND	ND	ND	ND	ND	0.8	176.7	20.2	89.7	90.3	0.25
28643	2013-05-05T10:00:00	2.8	ND	ND	ND	ND	ND	0.4	152.4	21	84.1	157	0
28644	2013-05-05T11:00:00	2.8	ND	ND	ND	ND	ND	0.3	ND	21.7	81	184.6	0
28645	2013-05-05T12:00:00	3	ND	ND	ND	ND	ND	0.3	173.5	23.5	71.7	551.3	0
28646	2013-05-05T13:00:00	3	ND	ND	ND	ND	ND	1.1	135.1	25.2	61.1	614.8	0
28647	2013-05-05T14:00:00	3.3	ND	ND	ND	ND	ND	0.8	123.7	26.3	57.3	603.7	0
28648	2013-05-05T15:00:00	2.2	ND	ND	ND	ND	ND	1.9	170.9	26.6	61.9	692	0
28649	2013-05-05T16:00:00	8.3	ND	ND	ND	ND	ND	1.7	132.7	25.3	66.5	197.6	0
28650	2013-05-05T17:00:00	5.6	ND	ND	ND	ND	ND	0.8	192.1	25.3	65.1	150.8	0
28651	2013-05-05T18:00:00	13.3	ND	ND	ND	ND	ND	0.5	204.9	25.2	66.6	37.5	0
28652	2013-05-05T19:00:00	8.8	ND	ND	ND	ND	ND	0.2	ND	25	68.7	0	0
28653	2013-05-05T20:00:00	48.1	ND	ND	ND	ND	ND	0.5	115.9	24.9	69.9	0	0
28654	2013-05-05T21:00:00	26.8	ND	ND	ND	ND	ND	0.1	52.6	24.7	67.6	0	0
28655	2013-05-05T22:00:00	42.7	ND	ND	ND	ND	ND	0.1	134	24.3	70.7	0	0
28656	2013-05-05T23:00:00	22.5	ND	ND	ND	ND	ND	0.6	168.8	23.6	73.8	0	0
28657	2013-05-06T00:00:00	27.6	ND	ND	ND	ND	ND	1	180	23.1	74.7	0	0
28658	2013-05-06T01:00:00	21.1	ND	ND	ND	ND	ND	1.1	176.5	22.5	80.3	0	0
28659	2013-05-06T02:00:00	12.3	ND	ND	ND	ND	ND	1	164.4	22.1	84.5	0	0
28660	2013-05-06T03:00:00	12.7	ND	ND	ND	ND	ND	0.6	142.4	21.5	90	0	0
28661	2013-05-06T04:00:00	14.9	ND	ND	ND	ND	ND	1	177.4	21.3	90	0	0
28662	2013-05-06T05:00:00	8.4	ND	ND	ND	ND	ND	1.2	177.6	21.1	89	0	0
28663	2013-05-06T06:00:00	7.9	ND	ND	ND	ND	ND	1.3	172.6	20.9	87.9	0	0
28664	2013-05-06T07:00:00	5.1	ND	ND	ND	ND	ND	0.9	197.3	21.3	84.7	39.5	0
28665	2013-05-06T08:00:00	28.4	ND	ND	ND	ND	ND	0.5	163.8	22.1	79.4	139.1	0
28666	2013-05-06T09:00:00	17.6	ND	ND	ND	ND	ND	1.1	162.6	23.2	73.9	350.6	0
28667	2013-05-06T10:00:00	19.6	ND	ND	ND	ND	ND	1.5	142.9	24.9	68.5	663	0
28668	2013-05-06T11:00:00	10.4	ND	ND	ND	ND	ND	1.4	146.6	26.4	61.7	699.2	0
28669	2013-05-06T12:00:00	14.4	ND	ND	ND	ND	ND	1.2	133.6	27.7	56	732.2	0
28670	2013-05-06T13:00:00	8.4	ND	ND	ND	ND	ND	1.6	122.3	28.6	54.3	803.3	0
28671	2013-05-06T14:00:00	6.1	ND	ND	ND	ND	ND	0.4	67.4	28.6	53.7	497.7	0
28672	2013-05-06T15:00:00	5	ND	ND	ND	ND	ND	1.8	242.3	28.4	55.3	426.5	0
28673	2013-05-06T16:00:00	23.2	ND	ND	ND	ND	ND	1.9	225.1	29.3	50.7	570.7	0
28674	2013-05-06T17:00:00	13.5	ND	ND	ND	ND	ND	3.7	221.4	28.7	49.6	315.6	0
28675	2013-05-06T18:00:00	16.9	ND	ND	ND	ND	ND	3.2	220.5	27	55	33.1	0
28676	2013-05-06T19:00:00	9.3	ND	ND	ND	ND	ND	4.2	220	25.8	58.4	0	0
28677	2013-05-06T20:00:00	14.2	ND	ND	ND	ND	ND	3.1	219.3	25.7	58.2	0	0
28678	2013-05-06T21:00:00	9.2	ND	ND	ND	ND	ND	2.8	215.7	25.5	59.9	0	0
28679	2013-05-06T22:00:00	5.3	ND	ND	ND	ND	ND	3.4	216.2	24.3	66	0	0
28680	2013-05-06T23:00:00	3.5	ND	ND	ND	ND	ND	1.3	221.7	23.9	67.5	0	0
28681	2013-05-07T00:00:00	3.2	ND	ND	ND	ND	ND	1	86	23.1	73.8	0	0
28682	2013-05-07T01:00:00	2.5	ND	ND	ND	ND	ND	0.4	126.7	22.5	76.3	0	0
28683	2013-05-07T02:00:00	19	ND	ND	ND	ND	ND	0.8	172.1	22.6	79.2	0	0
28684	2013-05-07T03:00:00	10	ND	ND	ND	ND	ND	0.8	175	22.3	82.2	0	0
28685	2013-05-07T04:00:00	6.5	ND	ND	ND	ND	ND	1.1	184.1	22.3	79.7	0	0
28686	2013-05-07T05:00:00	5.2	ND	ND	ND	ND	ND	1	171.1	21.8	82.5	0	0
28687	2013-05-07T06:00:00	11.2	ND	ND	ND	ND	ND	0.8	161.3	21.4	85	0	0
28688	2013-05-07T07:00:00	11.1	ND	ND	ND	ND	ND	0.3	186.6	21.6	82.4	25	0
28689	2013-05-07T08:00:00	21.3	ND	ND	ND	ND	ND	0.4	ND	22.3	78.3	79.4	0
28690	2013-05-07T09:00:00	11.1	ND	ND	ND	ND	ND	0.4	164.6	23	75.3	162.4	0
28691	2013-05-07T10:00:00	61.7	ND	ND	ND	ND	ND	1.1	99.9	23.6	75.5	262.3	0
28692	2013-05-07T11:00:00	63.5	ND	ND	ND	ND	ND	1.3	121.1	24.1	72.9	284.3	0
28693	2013-05-07T12:00:00	58.9	ND	ND	ND	ND	ND	0.9	141.2	24.9	69.8	351.5	0
28694	2013-05-07T13:00:00	37.1	ND	ND	ND	ND	ND	1	126.6	25.8	66	402.3	0
28695	2013-05-07T14:00:00	58.7	ND	ND	ND	ND	ND	1	112.3	26.5	62.6	372.7	0
28696	2013-05-07T15:00:00	35.3	ND	ND	ND	ND	ND	1.3	151.6	27.7	56.6	596.6	0
28697	2013-05-07T16:00:00	29	ND	ND	ND	ND	ND	2.6	211.2	26.6	56.5	126.7	0
28698	2013-05-07T17:00:00	25.4	ND	ND	ND	ND	ND	1.3	218	23.3	68.6	10.2	0
28699	2013-05-07T18:00:00	24.4	ND	ND	ND	ND	ND	0.8	46.1	22	76.3	0	0
28700	2013-05-07T19:00:00	19.9	ND	ND	ND	ND	ND	1.7	32.4	20.2	87.1	0	2.29
28701	2013-05-07T20:00:00	43.1	ND	ND	ND	ND	ND	1	24.6	19.7	89.1	0	0.51
28702	2013-05-07T21:00:00	22.6	ND	ND	ND	ND	ND	1.1	201.9	20.4	87.1	0	0
28703	2013-05-07T22:00:00	30.2	ND	ND	ND	ND	ND	0.8	207	20.5	87	0	0
28704	2013-05-07T23:00:00	15.7	ND	ND	ND	ND	ND	0.2	202.1	20.5	83.2	0	0
28705	2013-05-08T00:00:00	41.6	ND	ND	ND	ND	ND	1	11	19.4	90.4	0	0
28706	2013-05-08T01:00:00	36.2	ND	ND	ND	ND	ND	0.2	297.9	19.3	89.5	0	0
28707	2013-05-08T02:00:00	38.8	ND	ND	ND	ND	ND	1.2	207.6	19.5	87.2	0	0
28708	2013-05-08T03:00:00	21.2	ND	ND	ND	ND	ND	0.9	202.2	19.7	85.9	0	0
28709	2013-05-08T04:00:00	11.4	ND	ND	ND	ND	ND	0.6	123.8	19.4	88.6	0	0
28710	2013-05-08T05:00:00	7	ND	ND	ND	ND	ND	0.2	ND	19	89.8	0	0
28711	2013-05-08T06:00:00	32.6	ND	ND	ND	ND	ND	0.3	ND	18.9	91.5	0	0
28712	2013-05-08T07:00:00	32.4	ND	ND	ND	ND	ND	0.5	114.2	19	91.6	24	0
28713	2013-05-08T08:00:00	54.2	ND	ND	ND	ND	ND	0.6	71	20.1	88.1	224.2	0
28714	2013-05-08T09:00:00	64.3	ND	ND	ND	ND	ND	1.5	81.8	21.7	80.7	489.3	0
28715	2013-05-08T10:00:00	62.5	ND	ND	ND	ND	ND	0.6	119.8	23	72.3	603.6	0
28716	2013-05-08T11:00:00	46	ND	ND	ND	ND	ND	1.2	111.6	25.4	62.1	708.8	0
28717	2013-05-08T12:00:00	37.6	ND	ND	ND	ND	ND	1.1	117.5	26.6	58	635.9	0
28718	2013-05-08T13:00:00	20.3	ND	ND	ND	ND	ND	1	171.4	26.9	58.3	446.1	0
28719	2013-05-08T14:00:00	27.5	ND	ND	ND	ND	ND	0.4	87.8	28.7	52.7	824.9	0
28720	2013-05-08T15:00:00	20.6	ND	ND	ND	ND	ND	1.2	86.9	29.1	52.4	422.3	0
28721	2013-05-08T16:00:00	44.1	ND	ND	ND	ND	ND	0.9	62.2	28.7	52.4	192.5	0
28722	2013-05-08T17:00:00	41.5	ND	ND	ND	ND	ND	0.7	230.1	28.3	55.1	72.1	0
28723	2013-05-08T18:00:00	52	ND	ND	ND	ND	ND	3	223.6	27	57.9	28.8	0
28724	2013-05-08T19:00:00	40	ND	ND	ND	ND	ND	3.3	221.7	26.1	59.1	0	0
28725	2013-05-08T20:00:00	ND	ND	ND	ND	ND	ND	3.1	221.3	25.9	58.1	0	0
28726	2013-05-08T21:00:00	ND	ND	ND	ND	ND	ND	1	194.1	25.6	61.8	0	0
28727	2013-05-08T22:00:00	ND	ND	ND	ND	ND	ND	3.3	216.2	23.8	71.7	0	0
28728	2013-05-08T23:00:00	ND	ND	ND	ND	ND	ND	2.1	207	23.9	67.6	0	0
28729	2013-05-09T00:00:00	125.1	ND	ND	ND	ND	ND	1.6	210	23.3	73.9	0	0
28730	2013-05-09T01:00:00	63.8	ND	ND	ND	ND	ND	1.3	52.9	22.3	80.3	0	0.51
28731	2013-05-09T02:00:00	35.1	ND	ND	ND	ND	ND	0.8	163.8	21.2	85.4	0	0
28732	2013-05-09T03:00:00	18.2	ND	ND	ND	ND	ND	0.4	222.8	21.1	85.4	0	0
28733	2013-05-09T04:00:00	12.4	ND	ND	ND	ND	ND	0.9	213.5	21.2	83.6	0	0
28734	2013-05-09T05:00:00	7.1	ND	ND	ND	ND	ND	0.6	154.7	20.8	86.9	0	0
28735	2013-05-09T06:00:00	16	ND	ND	ND	ND	ND	0.7	204.8	20.6	88.2	0	0
28736	2013-05-09T07:00:00	9.1	ND	ND	ND	ND	ND	0.7	220.3	21.1	82.7	69.6	0
28737	2013-05-09T08:00:00	30.5	ND	ND	ND	ND	ND	1	147.1	21.7	82.2	148.6	0
28738	2013-05-09T09:00:00	15.9	ND	ND	ND	ND	ND	0.4	100.7	22.2	81.6	168.5	0
28739	2013-05-09T10:00:00	45.1	ND	ND	ND	ND	ND	0.3	55	23.4	76.4	318.4	0
28740	2013-05-09T11:00:00	41.4	ND	ND	ND	ND	ND	0.2	89.3	25.2	66.2	503.6	0
28741	2013-05-09T12:00:00	55.4	ND	ND	ND	ND	ND	1.4	68.6	27	59.4	745.8	0
28742	2013-05-09T13:00:00	28.2	ND	ND	ND	ND	ND	1.2	48.8	27.6	55.9	542.6	0
28743	2013-05-09T14:00:00	19.4	ND	ND	ND	ND	ND	1.3	56.9	28	54.2	570.2	0
28744	2013-05-09T15:00:00	10.7	ND	ND	ND	ND	ND	1.5	59.6	27.9	52.2	344.5	0
28745	2013-05-09T16:00:00	9.4	ND	ND	ND	ND	ND	2.3	50.7	26.7	62.5	81.5	0
28746	2013-05-09T17:00:00	6.6	ND	ND	ND	ND	ND	2	220.5	25.8	60.8	86.7	0
28747	2013-05-09T18:00:00	4.3	ND	ND	ND	ND	ND	2.4	220.2	25.9	58.2	49	0
28748	2013-05-09T19:00:00	21	ND	ND	ND	ND	ND	2.4	219.3	25.2	60.4	0	0
28749	2013-05-09T20:00:00	11.3	ND	ND	ND	ND	ND	2.6	219.5	24.6	62.9	0	0
28750	2013-05-09T21:00:00	6.7	ND	ND	ND	ND	ND	2.2	218.9	24.5	62.3	0	0
28751	2013-05-09T22:00:00	5.4	ND	ND	ND	ND	ND	1.6	222.4	23.8	69	0	0
28752	2013-05-09T23:00:00	7.9	ND	ND	ND	ND	ND	1.4	208.9	23.8	69.8	0	0
28753	2013-05-10T00:00:00	28.1	ND	ND	ND	ND	ND	1.1	171.8	23.3	76.8	0	0
28754	2013-05-10T01:00:00	16.4	ND	ND	ND	ND	ND	1	149.3	22.3	81.1	0	0
28755	2013-05-10T02:00:00	9.8	ND	ND	ND	ND	ND	0.5	91.4	21.7	83.6	0	0
28756	2013-05-10T03:00:00	15.4	ND	ND	ND	ND	ND	0.3	113.5	21.8	83.5	0	0
28757	2013-05-10T04:00:00	24.6	ND	ND	ND	ND	ND	0.7	67.4	21.9	83.3	0	0
28758	2013-05-10T05:00:00	14.4	ND	ND	ND	ND	ND	0.5	46.8	21.7	83.5	0	0
28759	2013-05-10T06:00:00	26.4	ND	ND	ND	ND	ND	0.2	95.4	21.6	85	0	0
28760	2013-05-10T07:00:00	32.3	ND	ND	ND	ND	ND	0.8	70.3	21.6	85.9	45.4	0
28761	2013-05-10T08:00:00	59.8	ND	ND	ND	ND	ND	0.6	42.5	22.1	83.6	162.2	0
28762	2013-05-10T09:00:00	30.9	ND	ND	ND	ND	ND	0.7	176.2	23.7	73.2	320.5	0
28763	2013-05-10T10:00:00	50.4	ND	ND	ND	ND	ND	0.9	129.4	25.2	66.4	411.3	0
28764	2013-05-10T11:00:00	45	ND	ND	ND	ND	ND	1.2	87.4	27	59.3	789.9	0
28765	2013-05-10T12:00:00	38	ND	ND	ND	ND	ND	1	80.4	28.2	54.6	680.5	0
28766	2013-05-10T13:00:00	39.3	ND	ND	ND	ND	ND	1	82.7	28.6	53.7	397.7	0
28767	2013-05-10T14:00:00	33	ND	ND	ND	ND	ND	0.8	79.1	29.1	52.2	389.5	0
28768	2013-05-10T15:00:00	17.7	ND	ND	ND	ND	ND	2.2	217.3	28.7	52.8	256.6	0
28769	2013-05-10T16:00:00	20.8	ND	ND	ND	ND	ND	3.1	219.7	29.5	49.2	457	0
28770	2013-05-10T17:00:00	11.7	ND	ND	ND	ND	ND	3.4	220	29.4	48.4	386.5	0
28771	2013-05-10T18:00:00	28.9	ND	ND	ND	ND	ND	3.3	220.1	27.9	52.7	88.7	0
28772	2013-05-10T19:00:00	30.5	ND	ND	ND	ND	ND	4.3	220.6	26.2	58.2	0	0
28773	2013-05-10T20:00:00	30.5	ND	ND	ND	ND	ND	3.9	220.3	25.2	62.7	0	0
28774	2013-05-10T21:00:00	17	ND	ND	ND	ND	ND	3.6	222.2	24.8	64.2	0	0
28775	2013-05-10T22:00:00	9.8	ND	ND	ND	ND	ND	1.4	215.9	24.7	63.1	0	0
28776	2013-05-10T23:00:00	13.8	ND	ND	ND	ND	ND	0.1	218	24	71.6	0	0
28777	2013-05-11T00:00:00	36.2	ND	ND	ND	ND	ND	0.8	160.7	23.6	73.6	0	0
28778	2013-05-11T01:00:00	32.8	ND	ND	ND	ND	ND	0.6	164	23	77.2	0	0
28779	2013-05-11T02:00:00	38.8	ND	ND	ND	ND	ND	0.9	170.3	22.9	76.3	0	0
28780	2013-05-11T03:00:00	25.7	ND	ND	ND	ND	ND	0.8	175.3	22.3	80.8	0	0
28781	2013-05-11T04:00:00	30.3	ND	ND	ND	ND	ND	0.5	213.5	22.3	78.1	0	0
28782	2013-05-11T05:00:00	22.8	ND	ND	ND	ND	ND	0.4	99.8	22.1	79.5	0	0
28783	2013-05-11T06:00:00	43	ND	ND	ND	ND	ND	0.2	320.9	21.7	83.7	0	0
28784	2013-05-11T07:00:00	57.5	ND	ND	ND	ND	ND	0.4	43.4	22.1	81.7	40.8	0
28785	2013-05-11T08:00:00	64.8	ND	ND	ND	ND	ND	0.4	81.1	23.3	77.2	207.6	0
28786	2013-05-11T09:00:00	59	ND	ND	ND	ND	ND	0.8	53.3	24.6	69.6	318.4	0
28787	2013-05-11T10:00:00	50.6	ND	ND	ND	ND	ND	1.1	130	26.3	63.3	534.6	0
28788	2013-05-11T11:00:00	34.5	ND	ND	ND	ND	ND	0.6	190.7	25.7	64.2	109.2	0.25
28789	2013-05-11T12:00:00	53.9	ND	ND	ND	ND	ND	1	226.8	25.5	70.6	608.8	2.79
28790	2013-05-11T13:00:00	27.5	ND	ND	ND	ND	ND	1.2	233.2	27.9	56.9	679.8	0
28791	2013-05-11T14:00:00	21.9	ND	ND	ND	ND	ND	0.7	275.2	28	53.6	418.1	0
28792	2013-05-11T15:00:00	11	ND	ND	ND	ND	ND	2.4	40.9	27.9	54.3	264.4	0
28793	2013-05-11T16:00:00	10.4	ND	ND	ND	ND	ND	2.8	42.3	26.3	64.9	201.6	0
28794	2013-05-11T17:00:00	10.5	ND	ND	ND	ND	ND	0.5	221.9	26	62.6	71.1	0
28795	2013-05-11T18:00:00	22.8	ND	ND	ND	ND	ND	2.3	194.2	25.3	61.5	36.5	0
28796	2013-05-11T19:00:00	20.1	ND	ND	ND	ND	ND	2	173.2	23.1	73	0	0
28797	2013-05-11T20:00:00	27.2	ND	ND	ND	ND	ND	1.3	191.5	22.6	74.4	0	0
28798	2013-05-11T21:00:00	26.2	ND	ND	ND	ND	ND	0.9	212.8	23.1	72.7	0	0
28799	2013-05-11T22:00:00	20.7	ND	ND	ND	ND	ND	1.2	219	22.9	70.2	0	0
28800	2013-05-11T23:00:00	22.2	ND	ND	ND	ND	ND	0.2	65.8	22.1	76.6	0	0
28801	2013-05-12T00:00:00	43.7	ND	ND	ND	ND	ND	0.9	50.9	20.7	85.6	0	0
28802	2013-05-12T01:00:00	35.5	ND	ND	ND	ND	ND	0.1	87	20.6	87	0	0
28803	2013-05-12T02:00:00	35	ND	ND	ND	ND	ND	0.1	205.1	20.8	82.3	0	0
28804	2013-05-12T03:00:00	18.8	ND	ND	ND	ND	ND	0.2	192.3	20.7	82.1	0	0
28805	2013-05-12T04:00:00	42.2	ND	ND	ND	ND	ND	0.2	67.9	20.1	88.8	0	0
28806	2013-05-12T05:00:00	25.7	ND	ND	ND	ND	ND	0.5	216.5	20.1	83.5	0	0
28807	2013-05-12T06:00:00	21.1	ND	ND	ND	ND	ND	0.5	190.5	20.2	79.7	0	0
28808	2013-05-12T07:00:00	12.1	ND	ND	ND	ND	ND	0.7	171.2	20.2	84.3	57.7	0
28809	2013-05-12T08:00:00	43.5	ND	ND	ND	ND	ND	0.3	73.4	21.2	80.1	150.6	0
28810	2013-05-12T09:00:00	32.2	ND	ND	ND	ND	ND	0.8	74.1	22.7	76.3	301.8	0
28811	2013-05-12T10:00:00	53.9	ND	ND	ND	ND	ND	0.8	108.8	23.5	73.3	454.5	0
28812	2013-05-12T11:00:00	47	ND	ND	ND	ND	ND	0.8	162.7	25.6	62.3	677.7	0
28813	2013-05-12T12:00:00	36.4	ND	ND	ND	ND	ND	0.8	176.9	26.9	57.1	622.2	0
28814	2013-05-12T13:00:00	19.2	ND	ND	ND	ND	ND	0.9	107	28.8	51	734.7	0
28815	2013-05-12T14:00:00	20.2	ND	ND	ND	ND	ND	1	65	29.1	50.3	462.2	0
28816	2013-05-12T15:00:00	27.1	ND	ND	ND	ND	ND	0.8	48.2	29.3	50.4	376.5	0
28817	2013-05-12T16:00:00	ND	ND	ND	ND	ND	ND	1.5	62.3	28.5	53.6	182.7	0
28818	2013-05-12T17:00:00	ND	ND	ND	ND	ND	ND	1.1	75.6	28.2	55.3	92.3	0
28819	2013-05-12T18:00:00	ND	ND	ND	ND	ND	ND	1.8	220.1	27.6	54.5	20.9	0
28820	2013-05-12T19:00:00	ND	ND	ND	ND	ND	ND	2.4	219.4	26.4	58.8	0	0
28821	2013-05-12T20:00:00	ND	ND	ND	ND	ND	ND	2	219.3	25.8	60.7	0	0
28822	2013-05-12T21:00:00	ND	ND	ND	ND	ND	ND	2.6	218.8	25.1	63.6	0	0
28823	2013-05-12T22:00:00	87.7	ND	ND	ND	ND	ND	2.3	220.9	24.8	64.5	0	0
28824	2013-05-12T23:00:00	45.2	ND	ND	ND	ND	ND	0.6	225.1	23.9	72.1	0	0
28825	2013-05-13T00:00:00	46.8	ND	ND	ND	ND	ND	1.5	214.7	23.9	68.6	0	0
28826	2013-05-13T01:00:00	23.4	ND	ND	ND	ND	ND	1.3	217.9	23.4	68.8	0	0
28827	2013-05-13T02:00:00	11.7	ND	ND	ND	ND	ND	0.8	214.1	23.1	70.1	0	0
28828	2013-05-13T03:00:00	6.6	ND	ND	ND	ND	ND	0.6	153.8	22.4	77.4	0	0
28829	2013-05-13T04:00:00	28.6	ND	ND	ND	ND	ND	0.4	56.9	22	81.8	0	0
28830	2013-05-13T05:00:00	16.3	ND	ND	ND	ND	ND	0.5	142.5	21.8	82.6	0	0
28831	2013-05-13T06:00:00	25.7	ND	ND	ND	ND	ND	0.3	176	21.7	83	0	0
28832	2013-05-13T07:00:00	30.7	ND	ND	ND	ND	ND	0.4	190.4	21.9	78.2	42	0
28833	2013-05-13T08:00:00	29.8	ND	ND	ND	ND	ND	0.1	11.1	22.7	76.4	104.3	0
28834	2013-05-13T09:00:00	43.3	ND	ND	ND	ND	ND	0.4	110.7	24.1	71.9	293.9	0
28835	2013-05-13T10:00:00	42.2	ND	ND	ND	ND	ND	0.8	91.3	26	63.9	526.3	0
28836	2013-05-13T11:00:00	24.7	ND	ND	ND	ND	ND	1	143.1	26.7	61.1	374.2	0
28837	2013-05-13T12:00:00	28.1	ND	ND	ND	ND	ND	1.3	157.5	27.1	60.3	424	0
28838	2013-05-13T13:00:00	20.9	ND	ND	ND	ND	ND	1.2	164.8	27.7	58.6	486.5	0
28839	2013-05-13T14:00:00	26.2	ND	ND	ND	ND	ND	0.8	183.3	27.9	58.1	355.2	0
28840	2013-05-13T15:00:00	17.2	ND	ND	ND	ND	ND	0.7	116.4	28.8	54.7	447.9	0
28841	2013-05-13T16:00:00	45.2	ND	ND	ND	ND	ND	2	217.5	29.1	51.4	347.6	0
28842	2013-05-13T17:00:00	24.6	ND	ND	ND	ND	ND	3.4	219.6	28.1	51.6	202.6	0
28843	2013-05-13T18:00:00	13.2	ND	ND	ND	ND	ND	3.2	218.5	27.2	55.3	98.6	0
28844	2013-05-13T19:00:00	7.3	ND	ND	ND	ND	ND	2.5	221	25.9	59.2	0	0
28845	2013-05-13T20:00:00	5.1	ND	ND	ND	ND	ND	1.8	223.1	25.8	59.1	0	0
28846	2013-05-13T21:00:00	7.4	ND	ND	ND	ND	ND	0.9	69.8	24.6	66.7	0	0
28847	2013-05-13T22:00:00	13.6	ND	ND	ND	ND	ND	0.9	164.8	24.2	69.2	0	0
28848	2013-05-13T23:00:00	19.1	ND	ND	ND	ND	ND	1.7	181.4	23.7	73	0	0
28849	2013-05-14T00:00:00	29.3	ND	ND	ND	ND	ND	1.6	176.1	23.3	74.3	0	0
28850	2013-05-14T01:00:00	15.3	ND	ND	ND	ND	ND	1.1	155.2	23.4	74.4	0	0
28851	2013-05-14T02:00:00	18.6	ND	ND	ND	ND	ND	0.7	156.6	23	75.9	0	0
28852	2013-05-14T03:00:00	16.1	ND	ND	ND	ND	ND	0.7	69.5	22.1	82.7	0	0
28853	2013-05-14T04:00:00	9.8	ND	ND	ND	ND	ND	0.1	234.4	22.2	82.9	0	0
28854	2013-05-14T05:00:00	6.4	ND	ND	ND	ND	ND	0.6	64.3	22.3	81.8	0	0
28855	2013-05-14T06:00:00	21	ND	ND	ND	ND	ND	0.4	93.9	22.1	80.2	0	0
28856	2013-05-14T07:00:00	27.1	ND	ND	ND	ND	ND	0.5	177.4	22.3	79.9	42.6	0
28857	2013-05-14T08:00:00	28.4	ND	ND	ND	ND	ND	1	158.1	23.1	78.6	219.4	0
28858	2013-05-14T09:00:00	14.7	ND	ND	ND	ND	ND	1	147.2	25	69.2	437.8	0
28859	2013-05-14T10:00:00	41.5	ND	ND	ND	ND	ND	1.4	98.7	26.3	63.1	577.2	0
28860	2013-05-14T11:00:00	22.8	ND	ND	ND	ND	ND	1.1	48.4	26.8	61.6	376.4	0
28861	2013-05-14T12:00:00	16.1	ND	ND	ND	ND	ND	0.7	91.2	28	58.3	760.4	0
28862	2013-05-14T13:00:00	26.1	ND	ND	ND	ND	ND	1.1	89.9	28.9	54.3	547.8	0
28863	2013-05-14T14:00:00	46.8	ND	ND	ND	ND	ND	1.1	75	29.2	52.9	395.1	0
28864	2013-05-14T15:00:00	30.4	ND	ND	ND	ND	ND	1	65.2	30	50.7	292.9	0
28865	2013-05-14T16:00:00	35.4	ND	ND	ND	ND	ND	2.6	214.9	28.9	51.3	126.5	0
28866	2013-05-14T17:00:00	19.4	ND	ND	ND	ND	ND	3.8	219.7	28.5	50.7	226.8	0
28867	2013-05-14T18:00:00	38.8	ND	ND	ND	ND	ND	2.6	214.7	25.8	65.8	13.1	21.84
28868	2013-05-14T19:00:00	32.1	ND	ND	ND	ND	ND	3	193.2	22.6	86.1	0	0.76
28869	2013-05-14T20:00:00	16.9	ND	ND	ND	ND	ND	1.8	187.3	22.4	84.6	0	2.54
28870	2013-05-14T21:00:00	9.9	ND	ND	ND	ND	ND	0.5	198.1	22.8	82.9	0	0.51
28871	2013-05-14T22:00:00	16.2	ND	ND	ND	ND	ND	0.3	134.9	22.3	88.4	0	0
28872	2013-05-14T23:00:00	27.4	ND	ND	ND	ND	ND	0.6	201	22.2	88.4	0	0
28873	2013-05-15T00:00:00	29.7	ND	ND	ND	ND	ND	0.5	182.8	22.1	88	0	0
28874	2013-05-15T01:00:00	15.3	ND	ND	ND	ND	ND	0.7	159.7	21.8	90.3	0	0
28875	2013-05-15T02:00:00	22.7	ND	ND	ND	ND	ND	0.2	154	21.8	90.8	0	0
28876	2013-05-15T03:00:00	12.9	ND	ND	ND	ND	ND	0.6	151.8	21.8	90.1	0	0
28877	2013-05-15T04:00:00	7.1	ND	ND	ND	ND	ND	0.6	202.4	21.5	91	0	0
28878	2013-05-15T05:00:00	5.6	ND	ND	ND	ND	ND	0.6	186.8	21.6	90.8	0	0.25
28879	2013-05-15T06:00:00	13.1	ND	ND	ND	ND	ND	0	140	21.7	90.5	0	0
28880	2013-05-15T07:00:00	8.3	ND	ND	ND	ND	ND	0.6	68.8	21.7	91.6	10.7	1.02
28881	2013-05-15T08:00:00	39.9	ND	ND	ND	ND	ND	0.6	68.5	21.8	91.8	61.9	0.25
28882	2013-05-15T09:00:00	32.9	ND	ND	ND	ND	ND	0.7	69.1	22.2	89.2	88	0
28883	2013-05-15T10:00:00	63.8	ND	ND	ND	ND	ND	0.2	16	23.5	82.4	389.6	0
28884	2013-05-15T11:00:00	51.6	ND	ND	ND	ND	ND	1.2	60.5	25.1	73.5	463.6	0
28885	2013-05-15T12:00:00	57.3	ND	ND	ND	ND	ND	0.8	74.5	26.3	67.5	565.1	0
28886	2013-05-15T13:00:00	37.5	ND	ND	ND	ND	ND	0.9	80.3	27.8	60.5	664.2	0
28887	2013-05-15T14:00:00	42.2	ND	ND	ND	ND	ND	1.2	61.4	27.9	59.5	266.5	0
28888	2013-05-15T15:00:00	22.3	ND	ND	ND	ND	ND	0.4	109.4	27.2	61.1	98.3	0
28889	2013-05-15T16:00:00	33.5	ND	ND	ND	ND	ND	2.5	220	26.2	59.5	46.3	0
28890	2013-05-15T17:00:00	18.3	ND	ND	ND	ND	ND	3.3	206.2	24.9	65.2	33.5	0
28891	2013-05-15T18:00:00	21.1	ND	ND	ND	ND	ND	3.4	194.7	20.9	85.4	5.4	1.78
28892	2013-05-15T19:00:00	12.6	ND	ND	ND	ND	ND	1.6	195.8	20	93.3	0	20.07
28893	2013-05-15T20:00:00	14.3	ND	ND	ND	ND	ND	0.4	195.9	20.1	91.7	0	6.1
28894	2013-05-15T21:00:00	ND	ND	ND	ND	ND	ND	ND	ND	ND	ND	ND	ND
28895	2013-05-15T22:00:00	5.8	ND	ND	ND	ND	ND	0.2	167.7	20.5	92.6	0	0.25
28896	2013-05-15T23:00:00	3.7	ND	ND	ND	ND	ND	0.3	191.9	20.6	92.4	0	0
28897	2013-05-16T00:00:00	5.2	ND	ND	ND	ND	ND	0.9	150.1	20.7	92.9	0	0
28898	2013-05-16T01:00:00	9.1	ND	ND	ND	ND	ND	1	157.1	20.1	94.5	0	0
28899	2013-05-16T02:00:00	5.9	ND	ND	ND	ND	ND	1.2	193	20.3	93	0	0
28900	2013-05-16T03:00:00	3.6	ND	ND	ND	ND	ND	0.6	168.7	20.4	91.3	0	0
28901	2013-05-16T04:00:00	3.2	ND	ND	ND	ND	ND	0.7	149.1	20.4	92.1	0	0
28902	2013-05-16T05:00:00	2.4	ND	ND	ND	ND	ND	0.8	131.9	20.3	92.6	0	0
28903	2013-05-16T06:00:00	2	ND	ND	ND	ND	ND	0.7	178.3	20.1	93.2	0	0
28904	2013-05-16T07:00:00	2.1	ND	ND	ND	ND	ND	0.4	196.1	20.3	92.1	16.2	0
28905	2013-05-16T08:00:00	2.6	ND	ND	ND	ND	ND	0.5	115.8	21	89.5	96.7	0
28906	2013-05-16T09:00:00	10.2	ND	ND	ND	ND	ND	0.7	143.5	21.6	86.7	137.6	0
28907	2013-05-16T10:00:00	36	ND	ND	ND	ND	ND	0.8	115.6	23.3	77.5	518.9	0.25
28908	2013-05-16T11:00:00	20.6	ND	ND	ND	ND	ND	1	80.8	24.6	71.4	444.2	0
28909	2013-05-16T12:00:00	22.6	ND	ND	ND	ND	ND	1.1	66.1	26	65.6	752.1	0
28910	2013-05-16T13:00:00	12.7	ND	ND	ND	ND	ND	0.5	138.4	26.3	62.7	474.6	0
28911	2013-05-16T14:00:00	16.8	ND	ND	ND	ND	ND	0.3	90.5	27.2	60.5	273.5	0
28912	2013-05-16T15:00:00	15.4	ND	ND	ND	ND	ND	0.5	329	27.2	59.2	311.7	0
28913	2013-05-16T16:00:00	37.5	ND	ND	ND	ND	ND	2.1	50.8	27	62.2	304.7	0.51
28914	2013-05-16T17:00:00	46.3	ND	ND	ND	ND	ND	0.6	131.9	25.7	67.6	103.1	0
28915	2013-05-16T18:00:00	56.8	ND	ND	ND	ND	ND	1	151.7	24.4	76.8	22.3	0.25
28916	2013-05-16T19:00:00	40.9	ND	ND	ND	ND	ND	1.5	215.3	24.5	67.8	0	0
28917	2013-05-16T20:00:00	26.8	ND	ND	ND	ND	ND	2.7	220.7	24.3	64.9	0	0
28918	2013-05-16T21:00:00	22.5	ND	ND	ND	ND	ND	0.2	116.8	23.6	76.1	0	0
28919	2013-05-16T22:00:00	51.5	ND	ND	ND	ND	ND	0.9	171.8	23.2	81.2	0	0
28920	2013-05-16T23:00:00	27.9	ND	ND	ND	ND	ND	1.6	196.5	22.8	83.3	0	0
28921	2013-05-17T00:00:00	32.3	ND	ND	ND	ND	ND	0.9	178.8	22.4	84.5	0	0
28922	2013-05-17T01:00:00	17.5	ND	ND	ND	ND	ND	0.6	209.1	22.3	80.7	0	0
28923	2013-05-17T02:00:00	17.1	ND	ND	ND	ND	ND	0.7	148.9	21.5	85.1	0	0
28924	2013-05-17T03:00:00	10.8	ND	ND	ND	ND	ND	0.1	162.7	21.6	85.8	0	0
28925	2013-05-17T04:00:00	9.8	ND	ND	ND	ND	ND	0.4	66.8	21.6	86.2	0	0
28926	2013-05-17T05:00:00	11.1	ND	ND	ND	ND	ND	0.7	53	21.3	87.1	0	0
28927	2013-05-17T06:00:00	41.7	ND	ND	ND	ND	ND	0.3	67.7	21.3	87.2	0	0
28928	2013-05-17T07:00:00	42.7	ND	ND	ND	ND	ND	0.6	69.4	21.5	85.8	21.1	0
28929	2013-05-17T08:00:00	79	ND	ND	ND	ND	ND	0.4	64.8	21.8	83	61.7	0
28930	2013-05-17T09:00:00	71.7	ND	ND	ND	ND	ND	0.2	65.9	22.9	75.6	160.2	0
28931	2013-05-17T10:00:00	62.4	ND	ND	ND	ND	ND	0.9	91.3	23.7	73.1	328.3	0
28932	2013-05-17T11:00:00	32.2	ND	ND	ND	ND	ND	0.7	102.7	25.2	65.3	507.8	0
28933	2013-05-17T12:00:00	26.4	ND	ND	ND	ND	ND	0.8	115.6	26.1	62	425	0
28934	2013-05-17T13:00:00	26	ND	ND	ND	ND	ND	1.5	67.5	26.4	61.9	341	0
28935	2013-05-17T14:00:00	37.2	ND	ND	ND	ND	ND	2.9	26	25.9	63.7	377.1	0
28936	2013-05-17T15:00:00	28.2	ND	ND	ND	ND	ND	2.6	36.2	26.5	61.8	517.8	0
28937	2013-05-17T16:00:00	19.5	ND	ND	ND	ND	ND	2	38.9	26	63.7	197	0
28938	2013-05-17T17:00:00	21.7	ND	ND	ND	ND	ND	1.9	72	25.8	62.8	129.6	0
28939	2013-05-17T18:00:00	18.2	ND	ND	ND	ND	ND	1.3	98.5	25.7	62.6	51.7	0
28940	2013-05-17T19:00:00	21.3	ND	ND	ND	ND	ND	0.9	178.1	24.6	67.8	0	0
28941	2013-05-17T20:00:00	25.2	ND	ND	ND	ND	ND	1.5	164.7	24.1	69.8	0	0
28942	2013-05-17T21:00:00	14.7	ND	ND	ND	ND	ND	1.2	180.1	23.3	78.4	0	0
28943	2013-05-17T22:00:00	8	ND	ND	ND	ND	ND	0.7	197.4	23.5	74.8	0	0
28944	2013-05-17T23:00:00	14.6	ND	ND	ND	ND	ND	0.9	207.9	23.1	76.2	0	0
28945	2013-05-18T00:00:00	14.6	ND	ND	ND	ND	ND	1.2	219.2	22.7	74.2	0	0
28946	2013-05-18T01:00:00	8.1	ND	ND	ND	ND	ND	0.4	212.6	22.5	75.5	0	0
28947	2013-05-18T02:00:00	28	ND	ND	ND	ND	ND	0.4	24	21.7	86.9	0	0
28948	2013-05-18T03:00:00	14.5	ND	ND	ND	ND	ND	0.1	251.2	21.6	87.1	0	0
28949	2013-05-18T04:00:00	41	ND	ND	ND	ND	ND	0.3	247.3	21.7	84.8	0	0
28950	2013-05-18T05:00:00	22.9	ND	ND	ND	ND	ND	0.6	70.9	21.3	88.2	0	0
28951	2013-05-18T06:00:00	42.9	ND	ND	ND	ND	ND	0.6	235.7	21.2	87.7	0	0
28952	2013-05-18T07:00:00	38.3	ND	ND	ND	ND	ND	0.4	206	21.4	79.8	34.1	0
28953	2013-05-18T08:00:00	41.1	ND	ND	ND	ND	ND	0.7	192.7	22.2	76.7	119.1	0
28954	2013-05-18T09:00:00	61.7	ND	ND	ND	ND	ND	1.5	130.4	22.4	83.5	189.4	0
28955	2013-05-18T10:00:00	57.3	ND	ND	ND	ND	ND	0.8	194	23.3	77.7	355.2	0
28956	2013-05-18T11:00:00	38.2	ND	ND	ND	ND	ND	0.8	151.3	26	62.9	773.7	0
28957	2013-05-18T12:00:00	30.3	ND	ND	ND	ND	ND	0.6	129.8	27.7	54.1	754	0
28958	2013-05-18T13:00:00	29	ND	ND	ND	ND	ND	1.2	78.7	28.9	51.2	703.2	0
28959	2013-05-18T14:00:00	58.5	ND	ND	ND	ND	ND	0.5	332.6	29.1	51.2	574.2	0
28960	2013-05-18T15:00:00	36.3	ND	ND	ND	ND	ND	0.9	19.5	29.8	49.8	515.1	0
28961	2013-05-18T16:00:00	47.5	ND	ND	ND	ND	ND	0.5	214.8	29.4	51.1	336.4	0
28962	2013-05-18T17:00:00	23.7	ND	ND	ND	ND	ND	3.7	220.1	28.9	51.1	297.9	0
28963	2013-05-18T18:00:00	11.9	ND	ND	ND	ND	ND	2.9	220.5	27.6	54.2	55.5	0
28964	2013-05-18T19:00:00	8.2	ND	ND	ND	ND	ND	3.5	219.9	26.6	57.3	0	0
28965	2013-05-18T20:00:00	5.7	ND	ND	ND	ND	ND	3.8	220.3	26.3	58.4	0	0
28966	2013-05-18T21:00:00	9.6	ND	ND	ND	ND	ND	1	203.4	25.9	60.2	0	0
28967	2013-05-18T22:00:00	16.4	ND	ND	ND	ND	ND	0.7	106.8	24.8	67.7	0	0
28968	2013-05-18T23:00:00	10.3	ND	ND	ND	ND	ND	1.7	197.2	24.7	68.1	0	0
28969	2013-05-19T00:00:00	30.1	ND	ND	ND	ND	ND	0.7	84.7	23.6	74.8	0	0
28970	2013-05-19T01:00:00	23.1	ND	ND	ND	ND	ND	0.7	147.7	23.2	76.4	0	0
28971	2013-05-19T02:00:00	36.4	ND	ND	ND	ND	ND	1	163	22.9	78.4	0	0
28972	2013-05-19T03:00:00	34.2	ND	ND	ND	ND	ND	0.8	153.1	22.7	79.7	0	0
28973	2013-05-19T04:00:00	26.5	ND	ND	ND	ND	ND	0.4	87.4	22.1	84.8	0	0
28974	2013-05-19T05:00:00	15.8	ND	ND	ND	ND	ND	0.5	158.2	22	85.6	0	0
28975	2013-05-19T06:00:00	13.3	ND	ND	ND	ND	ND	0.8	202.7	22	84	0	0
28976	2013-05-19T07:00:00	8.6	ND	ND	ND	ND	ND	0.4	179.5	22.4	82.1	54.1	0
28977	2013-05-19T08:00:00	12	ND	ND	ND	ND	ND	0.8	196.4	23.1	78.6	173.3	0
28978	2013-05-19T09:00:00	18.3	ND	ND	ND	ND	ND	1.1	116.1	24.6	72.5	407.8	0
28979	2013-05-19T10:00:00	21.3	ND	ND	ND	ND	ND	0.7	139	25.5	68.4	344.3	0
28980	2013-05-19T11:00:00	19.8	ND	ND	ND	ND	ND	1.2	154.6	26.4	66.4	453.3	0
28981	2013-05-19T12:00:00	45.6	ND	ND	ND	ND	ND	1	137.5	27.3	62	446.5	0
28982	2013-05-19T13:00:00	48.2	ND	ND	ND	ND	ND	1	107.5	27.8	60.1	385.8	0
28983	2013-05-19T14:00:00	27.4	ND	ND	ND	ND	ND	1.1	76.7	28.2	58.4	569.3	0
28984	2013-05-19T15:00:00	21.5	ND	ND	ND	ND	ND	0.4	35.4	28.6	56.9	302.9	0
28985	2013-05-19T16:00:00	21.6	ND	ND	ND	ND	ND	1.6	223.6	28.9	52.2	411.5	0
28986	2013-05-19T17:00:00	11.5	ND	ND	ND	ND	ND	3.3	220.9	27.5	56.7	156.4	0
28987	2013-05-19T18:00:00	8.6	ND	ND	ND	ND	ND	2.6	219.4	26.6	58.1	62.4	0
28988	2013-05-19T19:00:00	4.8	ND	ND	ND	ND	ND	3.3	220.3	26	57.7	0	0
28989	2013-05-19T20:00:00	3.7	ND	ND	ND	ND	ND	2.4	223	26	57.3	0	0
28990	2013-05-19T21:00:00	3	ND	ND	ND	ND	ND	0.4	95.4	25.4	61.3	0	0
28991	2013-05-19T22:00:00	10.2	ND	ND	ND	ND	ND	1.1	63.3	24.3	67.1	0	0
28992	2013-05-19T23:00:00	6.4	ND	ND	ND	ND	ND	0.4	139.4	23.9	69.8	0	0
28993	2013-05-20T00:00:00	16.4	ND	ND	ND	ND	ND	1.4	189.1	23.8	72.7	0	0
28994	2013-05-20T01:00:00	9.3	ND	ND	ND	ND	ND	0.6	157.6	23.6	73.7	0	0
28995	2013-05-20T02:00:00	22.2	ND	ND	ND	ND	ND	1	137.6	23.2	74.9	0	0
28996	2013-05-20T03:00:00	12	ND	ND	ND	ND	ND	1	150.2	22.6	77.3	0	0
28997	2013-05-20T04:00:00	7.9	ND	ND	ND	ND	ND	0.8	177.2	22.5	77.5	0	0
28998	2013-05-20T05:00:00	4.4	ND	ND	ND	ND	ND	1.1	192.2	22.6	78.8	0	0
28999	2013-05-20T06:00:00	3.5	ND	ND	ND	ND	ND	0.8	165.9	22.7	79.1	0	0
29000	2013-05-20T07:00:00	12.3	ND	ND	ND	ND	ND	0.7	128.2	22.7	80.2	34.1	0
29001	2013-05-20T08:00:00	35.8	ND	ND	ND	ND	ND	0.3	35.5	23.3	77.6	124.6	0
29002	2013-05-20T09:00:00	44.4	ND	ND	ND	ND	ND	1.1	171.3	24.9	71.1	413.5	0
29003	2013-05-20T10:00:00	45.3	ND	ND	ND	ND	ND	1.2	159.7	25.9	66.1	466.5	0
29004	2013-05-20T11:00:00	24	ND	ND	ND	ND	ND	0.7	106.6	26.7	61.6	310	0
29005	2013-05-20T12:00:00	19.2	ND	ND	ND	ND	ND	0	64.7	28.2	56.1	766.3	0
29006	2013-05-20T13:00:00	11.9	ND	ND	ND	ND	ND	1.2	37.2	29.2	53	544.6	0
29007	2013-05-20T14:00:00	47.7	ND	ND	ND	ND	ND	0.9	211.1	28	55.5	71.9	0
29008	2013-05-20T15:00:00	31	ND	ND	ND	ND	ND	4.6	219.1	24.6	66.5	119.2	0
29009	2013-05-20T16:00:00	16.4	ND	ND	ND	ND	ND	4.4	219.2	26.6	57	278.6	0
29010	2013-05-20T17:00:00	10	ND	ND	ND	ND	ND	3.5	220.2	27.1	54.8	222.8	0
29011	2013-05-20T18:00:00	18.7	ND	ND	ND	ND	ND	3.2	220.6	25.8	58.8	44.2	0
29012	2013-05-20T19:00:00	18.9	ND	ND	ND	ND	ND	2	222.1	24.3	66.9	0	0.25
29013	2013-05-20T20:00:00	22.6	ND	ND	ND	ND	ND	0.6	77.3	23.7	77.2	0	0
29014	2013-05-20T21:00:00	21	ND	ND	ND	ND	ND	1	188.3	23.5	77.5	0	0
29015	2013-05-20T22:00:00	29.4	ND	ND	ND	ND	ND	1	181.7	23.1	80.5	0	0
29016	2013-05-20T23:00:00	16.1	ND	ND	ND	ND	ND	1.2	151.1	22.8	81.6	0	0
29017	2013-05-21T00:00:00	9.2	ND	ND	ND	ND	ND	1.1	156.3	22.4	83.4	0	0
29018	2013-05-21T01:00:00	8.9	ND	ND	ND	ND	ND	0.5	152.3	22.1	84.4	0	0
29019	2013-05-21T02:00:00	4.4	ND	ND	ND	ND	ND	0.8	136.3	21.8	84.7	0	0
29020	2013-05-21T03:00:00	3.3	ND	ND	ND	ND	ND	0.2	64.4	21.8	86.3	0	0
29021	2013-05-21T04:00:00	3.2	ND	ND	ND	ND	ND	0.6	1.1	21.4	88.4	0	1.78
29022	2013-05-21T05:00:00	3.3	ND	ND	ND	ND	ND	0.8	43.8	21.1	91.3	0	1.02
29023	2013-05-21T06:00:00	3.7	ND	ND	ND	ND	ND	1.6	44.5	20.4	94.8	0	5.33
29024	2013-05-21T07:00:00	3.2	ND	ND	ND	ND	ND	1.8	25.1	19.7	95.6	8.6	12.19
29025	2013-05-21T08:00:00	3.6	ND	ND	ND	ND	ND	1.2	39.3	19.6	96.2	24.4	7.87
29026	2013-05-21T09:00:00	5.6	ND	ND	ND	ND	ND	1.3	45.2	19.7	95.6	88	3.56
29027	2013-05-21T10:00:00	3.5	ND	ND	ND	ND	ND	0.8	105.6	20.5	91.4	132.4	0.25
29028	2013-05-21T11:00:00	2.8	ND	ND	ND	ND	ND	0.8	155.6	21.1	89.7	184.5	1.27
29029	2013-05-21T12:00:00	14.8	ND	ND	ND	ND	ND	1.3	176.7	21.6	87.2	270.8	0.51
29030	2013-05-21T13:00:00	8.8	ND	ND	ND	ND	ND	1.4	155.2	21.8	85.5	370.7	0.76
29031	2013-05-21T14:00:00	5.4	ND	ND	ND	ND	ND	1.5	153.4	22.7	81.1	377.6	0
29032	2013-05-21T15:00:00	4	ND	ND	ND	ND	ND	1.9	189.7	23	77.8	303	0
29033	2013-05-21T16:00:00	3.9	ND	ND	ND	ND	ND	1.8	191.7	23.5	73.5	224.7	0
29034	2013-05-21T17:00:00	2.7	ND	ND	ND	ND	ND	1.5	182.8	23.7	70.8	118.1	0
29035	2013-05-21T18:00:00	16.5	ND	ND	ND	ND	ND	1.3	184.8	23.4	71.5	32.9	0
29036	2013-05-21T19:00:00	18.8	ND	ND	ND	ND	ND	0.9	172.9	23.1	71.4	0	0
29037	2013-05-21T20:00:00	45.8	ND	ND	ND	ND	ND	0.6	167.6	22.6	77.8	0	0
29038	2013-05-21T21:00:00	32.3	ND	ND	ND	ND	ND	0.6	203.5	22.5	77.4	0	0
29039	2013-05-21T22:00:00	43.1	ND	ND	ND	ND	ND	0.6	174.7	22.2	79.4	0	0
29040	2013-05-21T23:00:00	23.5	ND	ND	ND	ND	ND	0.4	176	21.5	89.2	0	0
29041	2013-05-22T00:00:00	20.9	ND	ND	ND	ND	ND	0.4	151.2	21.1	92.6	0	3.3
29042	2013-05-22T01:00:00	11.4	ND	ND	ND	ND	ND	0.6	221.9	20.8	90.6	0	0
29043	2013-05-22T02:00:00	18.6	ND	ND	ND	ND	ND	0.3	3.8	20.9	89.2	0	0.25
29044	2013-05-22T03:00:00	24.6	ND	ND	ND	ND	ND	0.4	14.8	20.6	92.6	0	0
29045	2013-05-22T04:00:00	23.9	ND	ND	ND	ND	ND	0.3	17.2	20.6	92.1	0	0
29046	2013-05-22T05:00:00	13.2	ND	ND	ND	ND	ND	0.8	73.3	20.4	93	0	0
29047	2013-05-22T06:00:00	17.6	ND	ND	ND	ND	ND	0.7	49	20.2	93.1	0	0
29048	2013-05-22T07:00:00	17.5	ND	ND	ND	ND	ND	0.2	170.1	20.5	92.1	8.9	0
29049	2013-05-22T08:00:00	24	ND	ND	ND	ND	ND	0.3	216.3	20.8	88.8	36.9	0
29050	2013-05-22T09:00:00	29	ND	ND	ND	ND	ND	0.5	67.1	21.3	87.9	55	0
29051	2013-05-22T10:00:00	45.8	ND	ND	ND	ND	ND	0.1	128.8	22	84.1	156	0
29052	2013-05-22T11:00:00	40.8	ND	ND	ND	ND	ND	0.3	188.3	23.7	74.8	413	0
29053	2013-05-22T12:00:00	26.9	ND	ND	ND	ND	ND	0.6	131.8	25.6	65.7	562.2	0
29054	2013-05-22T13:00:00	15.5	ND	ND	ND	ND	ND	0.7	86.3	26.5	61.2	530.9	0
29055	2013-05-22T14:00:00	17.4	ND	ND	ND	ND	ND	1.6	81.1	27.2	59.4	505	0
29056	2013-05-22T15:00:00	9.5	ND	ND	ND	ND	ND	1.7	114.8	27.6	58.5	458	0
29057	2013-05-22T16:00:00	35.7	ND	ND	ND	ND	ND	0.8	65.4	27.2	59.4	77.9	0
29058	2013-05-22T17:00:00	40.6	ND	ND	ND	ND	ND	2.3	223.7	25.4	67.9	56.1	0
29059	2013-05-22T18:00:00	40.9	ND	ND	ND	ND	ND	2	219.8	24.9	67.7	21.9	0
29060	2013-05-22T19:00:00	22.2	ND	ND	ND	ND	ND	1.8	197.1	24.1	70	0	0
29061	2013-05-22T20:00:00	16.9	ND	ND	ND	ND	ND	2	184.9	23	76.2	0	0
29062	2013-05-22T21:00:00	9.2	ND	ND	ND	ND	ND	1.4	191.2	21.5	86.1	0	7.37
29063	2013-05-22T22:00:00	16.9	ND	ND	ND	ND	ND	0.6	138.6	20.4	89.7	0	3.81
29064	2013-05-22T23:00:00	10	ND	ND	ND	ND	ND	0.3	88.8	20.4	90.3	0	0.25
29065	2013-05-23T00:00:00	22.6	ND	ND	ND	ND	ND	0.4	63.7	20.6	90.5	0	0
29066	2013-05-23T01:00:00	19.7	ND	ND	ND	ND	ND	0.6	79.7	20.5	91.1	0	0
29067	2013-05-23T02:00:00	30.1	ND	ND	ND	ND	ND	0.5	27.4	20.4	91.3	0	0
29068	2013-05-23T03:00:00	15.8	ND	ND	ND	ND	ND	0.6	28.6	20.3	90.5	0	0
29069	2013-05-23T04:00:00	8.6	ND	ND	ND	ND	ND	0.6	89	20.2	90.6	0	1.02
29070	2013-05-23T05:00:00	6.6	ND	ND	ND	ND	ND	0.6	70.4	19.8	93.4	0	4.06
29071	2013-05-23T06:00:00	4.5	ND	ND	ND	ND	ND	0.6	69.8	19.6	95.3	0	4.32
29072	2013-05-23T07:00:00	8	ND	ND	ND	ND	ND	0.7	72.9	19.6	96.2	6	1.52
29073	2013-05-23T08:00:00	5.8	ND	ND	ND	ND	ND	0.8	43.1	20	95.5	42.8	0.51
29074	2013-05-23T09:00:00	3.9	ND	ND	ND	ND	ND	1.4	51.2	20.5	93.1	123.9	0.25
29075	2013-05-23T10:00:00	15	ND	ND	ND	ND	ND	1.5	41.8	21.1	88.5	199.4	0
29076	2013-05-23T11:00:00	17	ND	ND	ND	ND	ND	1.4	55.1	21.8	84.6	327.9	0
29077	2013-05-23T12:00:00	11.9	ND	ND	ND	ND	ND	1.1	138.9	23	77.6	258.3	0
29078	2013-05-23T13:00:00	11.6	ND	ND	ND	ND	ND	1.8	159.3	23.8	73.8	557	0
29079	2013-05-23T14:00:00	9.4	ND	ND	ND	ND	ND	1.9	147.9	24.6	69.3	460.3	0
29080	2013-05-23T15:00:00	6.9	ND	ND	ND	ND	ND	1.7	167.5	24.9	67.6	417.3	0
29081	2013-05-23T16:00:00	12.3	ND	ND	ND	ND	ND	1.8	177.2	24.9	67.5	228.6	0
29082	2013-05-23T17:00:00	8	ND	ND	ND	ND	ND	1.6	208	24.7	65.9	135.5	0
29083	2013-05-23T18:00:00	17.5	ND	ND	ND	ND	ND	1	213	24.4	65.8	36.5	0
29084	2013-05-23T19:00:00	23.1	ND	ND	ND	ND	ND	1.5	218.5	24	69.9	0	0
29085	2013-05-23T20:00:00	29.8	ND	ND	ND	ND	ND	0.8	218.7	23.2	70.6	0	0
29086	2013-05-23T21:00:00	16.2	ND	ND	ND	ND	ND	0.8	213	22.6	68.8	0	0
29087	2013-05-23T22:00:00	26.9	ND	ND	ND	ND	ND	1	221.4	22.7	66.9	0	0
29088	2013-05-23T23:00:00	15.1	ND	ND	ND	ND	ND	0.1	2.7	22.5	73.6	0	0
29089	2013-05-24T00:00:00	45.7	ND	ND	ND	ND	ND	0.5	214.8	21.8	78.5	0	0
29090	2013-05-24T01:00:00	24.3	ND	ND	ND	ND	ND	1.3	218.7	21.4	74.3	0	0
29091	2013-05-24T02:00:00	17.9	ND	ND	ND	ND	ND	1	215.8	21.3	74.6	0	0
29092	2013-05-24T03:00:00	10.9	ND	ND	ND	ND	ND	1	207	21.3	74.1	0	0
29093	2013-05-24T04:00:00	6.2	ND	ND	ND	ND	ND	0.2	150.3	21	79.9	0	0
29094	2013-05-24T05:00:00	11.6	ND	ND	ND	ND	ND	0.5	139.3	20.8	84.9	0	0
29095	2013-05-24T06:00:00	15.3	ND	ND	ND	ND	ND	0.6	189.6	20.7	86.3	0	0
29096	2013-05-24T07:00:00	8.9	ND	ND	ND	ND	ND	0.1	167.8	20.8	85.6	29.8	0
29097	2013-05-24T08:00:00	6.6	ND	ND	ND	ND	ND	0.3	162.8	21.6	81.8	148.1	0
29098	2013-05-24T09:00:00	25.7	ND	ND	ND	ND	ND	0.7	148.2	22.8	76.4	233.7	0
29099	2013-05-24T10:00:00	36.9	ND	ND	ND	ND	ND	0.7	90.1	23.9	71	376.8	0
29100	2013-05-24T11:00:00	32.1	ND	ND	ND	ND	ND	0.6	80.1	25.2	66.1	465	0
29101	2013-05-24T12:00:00	39.6	ND	ND	ND	ND	ND	1.1	94.5	26	63.2	546	0
29102	2013-05-24T13:00:00	27.4	ND	ND	ND	ND	ND	0.3	101	27.1	59.2	366.9	0
29103	2013-05-24T14:00:00	30	ND	ND	ND	ND	ND	0.6	143	27.9	56.3	533.6	0
29104	2013-05-24T15:00:00	21.1	ND	ND	ND	ND	ND	1.2	93.1	27.8	57.9	299.3	0
29105	2013-05-24T16:00:00	28.9	ND	ND	ND	ND	ND	1.2	72.1	27.7	59.3	260.3	0
29106	2013-05-24T17:00:00	52.4	ND	ND	ND	ND	ND	1.1	32.7	27.4	58.8	63.1	0
29107	2013-05-24T18:00:00	37.8	ND	ND	ND	ND	ND	1.8	220.2	26.3	59.1	14.2	0
29108	2013-05-24T19:00:00	20.1	ND	ND	ND	ND	ND	1.4	218.9	25	66.5	0	0
29109	2013-05-24T20:00:00	38.1	ND	ND	ND	ND	ND	0.8	94.7	24.1	71.8	0	0
29110	2013-05-24T21:00:00	24.2	ND	ND	ND	ND	ND	0.2	173.1	23.5	73.5	0	0
29111	2013-05-24T22:00:00	28.2	ND	ND	ND	ND	ND	1.2	205.6	23.9	68.4	0	0
29112	2013-05-24T23:00:00	16	ND	ND	ND	ND	ND	0.4	86.6	22.3	80.9	0	0
29113	2013-05-25T00:00:00	50.8	ND	ND	ND	ND	ND	0	147.9	22.2	80.9	0	0
29114	2013-05-25T01:00:00	50.3	ND	ND	ND	ND	ND	0.5	132.8	21.8	80.7	0	0
29115	2013-05-25T02:00:00	64.5	ND	ND	ND	ND	ND	0.4	139.5	21.1	82.3	0	0
29116	2013-05-25T03:00:00	32.9	ND	ND	ND	ND	ND	0.4	184.2	21.2	82.2	0	0
29117	2013-05-25T04:00:00	26.1	ND	ND	ND	ND	ND	0.1	162.2	21	83.2	0	0
29118	2013-05-25T05:00:00	14	ND	ND	ND	ND	ND	0.9	211.9	20.8	83.2	0	0
29119	2013-05-25T06:00:00	8.7	ND	ND	ND	ND	ND	0.6	212.2	20.8	80.6	0	0
29120	2013-05-25T07:00:00	6	ND	ND	ND	ND	ND	0.1	116.2	21.3	80	45	0
29121	2013-05-25T08:00:00	68.3	ND	ND	ND	ND	ND	0.5	68.6	21.4	84.5	94	0
29122	2013-05-25T09:00:00	43.8	ND	ND	ND	ND	ND	0.7	170.9	22.8	77.7	374.6	0
29123	2013-05-25T10:00:00	49.2	ND	ND	ND	ND	ND	0.8	159.6	25	66.9	588.2	0
29124	2013-05-25T11:00:00	26.5	ND	ND	ND	ND	ND	0.9	148.9	26.9	60.2	659.9	0
29125	2013-05-25T12:00:00	34.5	ND	ND	ND	ND	ND	1	153.6	28	55.4	671.7	0
29126	2013-05-25T13:00:00	28.2	ND	ND	ND	ND	ND	1.2	65.3	29.1	51	793.6	0
29127	2013-05-25T14:00:00	57.9	ND	ND	ND	ND	ND	1.5	78	29.3	50.7	453.4	0
29128	2013-05-25T15:00:00	30.6	ND	ND	ND	ND	ND	0.1	167.7	29.5	50.7	488.3	0
29129	2013-05-25T16:00:00	39.6	ND	ND	ND	ND	ND	0.3	277	30.1	48.6	380.4	0
29130	2013-05-25T17:00:00	20.8	ND	ND	ND	ND	ND	3	220.2	29.6	49.1	364.7	0
29131	2013-05-25T18:00:00	13.8	ND	ND	ND	ND	ND	3.8	219.2	27.4	55	59.3	0
29132	2013-05-25T19:00:00	8.7	ND	ND	ND	ND	ND	3.6	219.5	26.2	57.7	0	0
29133	2013-05-25T20:00:00	28.5	ND	ND	ND	ND	ND	4.4	218.9	25.6	60.9	0	0
29134	2013-05-25T21:00:00	15	ND	ND	ND	ND	ND	2.3	224.9	25.6	59.7	0	0
29135	2013-05-25T22:00:00	8.5	ND	ND	ND	ND	ND	1.1	219.5	25.3	60.6	0	0
29136	2013-05-25T23:00:00	8.6	ND	ND	ND	ND	ND	0.6	49.3	23.4	73	0	0
29137	2013-05-26T00:00:00	22.8	ND	ND	ND	ND	ND	0.3	139.2	22.7	76.1	0	0
29138	2013-05-26T01:00:00	25.5	ND	ND	ND	ND	ND	1.5	197.4	23.2	72.8	0	0
29139	2013-05-26T02:00:00	12.7	ND	ND	ND	ND	ND	1.5	189.3	23.1	73.8	0	0
29140	2013-05-26T03:00:00	7.8	ND	ND	ND	ND	ND	0.8	204.8	22.4	78.9	0	0
29141	2013-05-26T04:00:00	31.3	ND	ND	ND	ND	ND	0.3	7.5	22	82.3	0	0.76
29142	2013-05-26T05:00:00	18.2	ND	ND	ND	ND	ND	0.2	93.6	21.7	86.7	0	0.25
29143	2013-05-26T06:00:00	30.1	ND	ND	ND	ND	ND	1	178.6	21.6	85.9	0	0
29144	2013-05-26T07:00:00	17.9	ND	ND	ND	ND	ND	0.7	153.5	21.4	85.2	19.6	0
29145	2013-05-26T08:00:00	13.2	ND	ND	ND	ND	ND	0.5	155	21.8	83.4	64.3	0
29146	2013-05-26T09:00:00	7.3	ND	ND	ND	ND	ND	1	159.5	22.7	79	205.3	0
29147	2013-05-26T10:00:00	4.3	ND	ND	ND	ND	ND	1.5	152.8	24.1	72.5	472.2	0
29148	2013-05-26T11:00:00	4.7	ND	ND	ND	ND	ND	1.3	136.1	25.1	68.9	349.3	0
29149	2013-05-26T12:00:00	11.3	ND	ND	ND	ND	ND	0.8	156.8	25.9	66.2	500.1	0
29150	2013-05-26T13:00:00	14.9	ND	ND	ND	ND	ND	0.8	135.9	27.3	59.8	601.3	0
29151	2013-05-26T14:00:00	13	ND	ND	ND	ND	ND	0.2	121.5	28.1	55.7	514.6	0
29152	2013-05-26T15:00:00	8.4	ND	ND	ND	ND	ND	0.2	157.2	28.6	54.7	350.8	0
29153	2013-05-26T16:00:00	28	ND	ND	ND	ND	ND	3.2	211.4	25.3	64.1	13.6	0.51
29154	2013-05-26T17:00:00	14	ND	ND	ND	ND	ND	3.7	224.7	18.9	94.8	0	94.49
29155	2013-05-26T18:00:00	12.9	ND	ND	ND	ND	ND	0.3	169.4	18.4	99.7	0	13.21
29156	2013-05-26T19:00:00	7.3	ND	ND	ND	ND	ND	0.3	275	19.1	99.5	0	3.05
29157	2013-05-26T20:00:00	6.2	ND	ND	ND	ND	ND	0.4	67.6	19.4	98.1	0	6.35
29158	2013-05-26T21:00:00	3.8	ND	ND	ND	ND	ND	1	28	19.3	97	0	2.03
29159	2013-05-26T22:00:00	3.2	ND	ND	ND	ND	ND	0.1	240.4	19.5	95.6	0	0
29160	2013-05-26T23:00:00	3.2	ND	ND	ND	ND	ND	1.2	206.6	19.9	91.2	0	0
29161	2013-05-27T00:00:00	2.7	ND	ND	ND	ND	ND	0.8	210.3	20	91	0	0
29162	2013-05-27T01:00:00	2.2	ND	ND	ND	ND	ND	0.5	148.1	20	92	0	0
29163	2013-05-27T02:00:00	2.7	ND	ND	ND	ND	ND	0.6	132	19.6	94.9	0	0
29164	2013-05-27T03:00:00	2.6	ND	ND	ND	ND	ND	0.9	153	19.4	95.7	0	0.25
29165	2013-05-27T04:00:00	2.1	ND	ND	ND	ND	ND	0.4	174.2	19.6	95.7	0	0.25
29166	2013-05-27T05:00:00	5.5	ND	ND	ND	ND	ND	0.6	57.4	19.7	94.9	0	0
29167	2013-05-27T06:00:00	7.7	ND	ND	ND	ND	ND	0.2	231.8	19.5	94.2	0	0
29168	2013-05-27T07:00:00	14.1	ND	ND	ND	ND	ND	0.1	73.7	19.8	90.1	46.2	0
29169	2013-05-27T08:00:00	23.6	ND	ND	ND	ND	ND	0.3	78.8	20.6	87.2	143.6	0
29170	2013-05-27T09:00:00	37.9	ND	ND	ND	ND	ND	1.2	55.2	21.6	84.5	342.6	0
29171	2013-05-27T10:00:00	61.8	ND	ND	ND	ND	ND	1.2	59.5	22.7	77.5	524.2	0
29172	2013-05-27T11:00:00	32.8	ND	ND	ND	ND	ND	1.1	79.9	24.2	69.1	679.5	0
29173	2013-05-27T12:00:00	40	ND	ND	ND	ND	ND	0.7	164.7	24.9	67.5	489.1	0
29174	2013-05-27T13:00:00	32.6	ND	ND	ND	ND	ND	1.3	102.8	25.8	63.7	361.5	0
29175	2013-05-27T14:00:00	18.8	ND	ND	ND	ND	ND	1	94.1	26.5	60.3	357.2	0
29176	2013-05-27T15:00:00	9.9	ND	ND	ND	ND	ND	0.7	145.9	27.1	58.6	361.4	0
29177	2013-05-27T16:00:00	18.4	ND	ND	ND	ND	ND	0.5	111	27.5	58.1	208.6	0
29178	2013-05-27T17:00:00	43.7	ND	ND	ND	ND	ND	0.8	143.3	27	60	86.5	0
29179	2013-05-27T18:00:00	44.3	ND	ND	ND	ND	ND	1	154.9	26.6	63.5	68.9	0
29180	2013-05-27T19:00:00	52.4	ND	ND	ND	ND	ND	1.5	145.8	25.3	68.4	0	0
29181	2013-05-27T20:00:00	84.1	ND	ND	ND	ND	ND	0.8	159.1	24.5	70.2	0	0
29182	2013-05-27T21:00:00	75.1	ND	ND	ND	ND	ND	0.2	332.7	24.1	72.2	0	0
29183	2013-05-27T22:00:00	89.1	ND	ND	ND	ND	ND	0.1	235.5	23.5	75.1	0	0
29184	2013-05-27T23:00:00	48.9	ND	ND	ND	ND	ND	0.3	215.8	23.2	75.5	0	0
29185	2013-05-28T00:00:00	71.8	ND	ND	ND	ND	ND	0.2	62.6	23.3	76.5	0	0
29186	2013-05-28T01:00:00	57.3	ND	ND	ND	ND	ND	0.5	100	22.5	79.3	0	0
29187	2013-05-28T02:00:00	49.5	ND	ND	ND	ND	ND	1.2	183.9	21.8	81	0	0
29188	2013-05-28T03:00:00	25.6	ND	ND	ND	ND	ND	0.2	193.3	21.7	82	0	0
29189	2013-05-28T04:00:00	24	ND	ND	ND	ND	ND	0.4	194.5	20.9	90.7	0	28.45
29190	2013-05-28T05:00:00	13.1	ND	ND	ND	ND	ND	2.3	220	20	97.4	0	23.62
29191	2013-05-28T06:00:00	18.8	ND	ND	ND	ND	ND	0.3	62.3	20.3	93.9	0	0.25
29192	2013-05-28T07:00:00	11.5	ND	ND	ND	ND	ND	0.3	157.8	20.6	94.1	20.4	0
29193	2013-05-28T08:00:00	40.8	ND	ND	ND	ND	ND	0.5	196.4	21	92.9	64.1	0
29194	2013-05-28T09:00:00	21.4	ND	ND	ND	ND	ND	0.8	195.7	22	85.3	198.2	0
29195	2013-05-28T10:00:00	24.2	ND	ND	ND	ND	ND	0.9	109.2	22.8	81.3	232.6	0
29196	2013-05-28T11:00:00	39.8	ND	ND	ND	ND	ND	0.6	114	23.7	77.5	371	0
29197	2013-05-28T12:00:00	44.8	ND	ND	ND	ND	ND	0.4	101.5	25.4	68.3	520.3	0
29198	2013-05-28T13:00:00	29.8	ND	ND	ND	ND	ND	1.8	74	26.4	62.8	507.4	0
29199	2013-05-28T14:00:00	44.5	ND	ND	ND	ND	ND	1.2	62.9	27.3	60.8	513	0
29200	2013-05-28T15:00:00	23	ND	ND	ND	ND	ND	2.2	221.6	26.8	57.3	178.6	0
29201	2013-05-28T16:00:00	12.5	ND	ND	ND	ND	ND	3.1	220.8	25.9	57.6	156.2	0
29202	2013-05-28T17:00:00	6.8	ND	ND	ND	ND	ND	4.6	219.2	25	59.2	159	0
29203	2013-05-28T18:00:00	5.3	ND	ND	ND	ND	ND	4.9	219.8	24.4	59	30.5	0
29204	2013-05-28T19:00:00	3.9	ND	ND	ND	ND	ND	4.1	219.7	24.3	57.9	0	0
29205	2013-05-28T20:00:00	9.2	ND	ND	ND	ND	ND	0.6	218.8	23.4	65.6	0	0
29206	2013-05-28T21:00:00	6.7	ND	ND	ND	ND	ND	2.4	219.5	23.4	63.7	0	0
29207	2013-05-28T22:00:00	22.8	ND	ND	ND	ND	ND	2.8	205.8	22.5	73.7	0	0
29208	2013-05-28T23:00:00	12.5	ND	ND	ND	ND	ND	1.6	177.5	21.7	78.4	0	0
29209	2013-05-29T00:00:00	13.6	ND	ND	ND	ND	ND	0.9	176.2	21.4	80	0	0
29210	2013-05-29T01:00:00	8.3	ND	ND	ND	ND	ND	0.2	209.9	21.4	80.3	0	0
29211	2013-05-29T02:00:00	5.3	ND	ND	ND	ND	ND	0.2	94.7	21.2	82.5	0	0
29212	2013-05-29T03:00:00	3.6	ND	ND	ND	ND	ND	0.3	61	20.7	86	0	0
29213	2013-05-29T04:00:00	9.6	ND	ND	ND	ND	ND	0.6	111.6	20.2	88.2	0	0
29214	2013-05-29T05:00:00	6.3	ND	ND	ND	ND	ND	0	156.5	19.9	89.6	0	0
29215	2013-05-29T06:00:00	18.2	ND	ND	ND	ND	ND	0.2	64	20.1	88.2	0	0
29216	2013-05-29T07:00:00	19.6	ND	ND	ND	ND	ND	0.1	264.4	20.4	84.5	50	0
29217	2013-05-29T08:00:00	47.6	ND	ND	ND	ND	ND	0.4	224.9	21.8	77.7	198.5	0
29218	2013-05-29T09:00:00	24.7	ND	ND	ND	ND	ND	0.6	183.4	23.6	67.5	448.7	0
29219	2013-05-29T10:00:00	25.6	ND	ND	ND	ND	ND	1.3	159.5	24.7	64.9	509.4	0
29220	2013-05-29T11:00:00	13.5	ND	ND	ND	ND	ND	1.1	159.9	26.1	60.6	742.8	0
29221	2013-05-29T12:00:00	14.1	ND	ND	ND	ND	ND	1.1	144.4	27.5	55.6	800.8	0
29222	2013-05-29T13:00:00	26.9	ND	ND	ND	ND	ND	1.2	78.1	28.2	52.9	588.3	0
29223	2013-05-29T14:00:00	34.8	ND	ND	ND	ND	ND	1.1	90.1	28.8	52.3	699.3	0
29224	2013-05-29T15:00:00	19.2	ND	ND	ND	ND	ND	1.8	68.2	28	54.6	167.6	0
29225	2013-05-29T16:00:00	39.6	ND	ND	ND	ND	ND	2.5	223.6	26.6	57.7	142.9	0
29226	2013-05-29T17:00:00	22.8	ND	ND	ND	ND	ND	2.6	219.9	26.3	57.8	125.9	0
29227	2013-05-29T18:00:00	ND	ND	ND	ND	ND	ND	2.7	218.9	25.8	58.5	49.4	0
29228	2013-05-29T19:00:00	ND	ND	ND	ND	ND	ND	0.7	232.1	25.2	62	0	0
29229	2013-05-29T20:00:00	ND	ND	ND	ND	ND	ND	2.3	225.3	22.8	77.5	0	2.54
29230	2013-05-29T21:00:00	ND	ND	ND	ND	ND	ND	0.8	193	23.1	76.3	0	0.25
29231	2013-05-29T22:00:00	83.8	ND	ND	ND	ND	ND	1.8	174	22.2	83.3	0	0
29232	2013-05-29T23:00:00	43.8	ND	ND	ND	ND	ND	1.4	177.2	22	84.4	0	0
29233	2013-05-30T00:00:00	22.5	ND	ND	ND	ND	ND	0.8	159.3	22.1	83.3	0	0
29234	2013-05-30T01:00:00	12.5	ND	ND	ND	ND	ND	0.2	151.4	21.8	85.1	0	0
29235	2013-05-30T02:00:00	20.8	ND	ND	ND	ND	ND	0.6	103.5	21.5	86.2	0	0
29236	2013-05-30T03:00:00	10.9	ND	ND	ND	ND	ND	0	167.2	21.2	89.3	0	0
29237	2013-05-30T04:00:00	17.1	ND	ND	ND	ND	ND	0.1	98	21.3	86.9	0	0
29238	2013-05-30T05:00:00	10.1	ND	ND	ND	ND	ND	0.4	52.1	20.5	91.2	0	0
29239	2013-05-30T06:00:00	41.8	ND	ND	ND	ND	ND	0	285.8	20.8	89.9	0	0
29240	2013-05-30T07:00:00	39.9	ND	ND	ND	ND	ND	0.3	78.6	21	89.3	11.1	0
29241	2013-05-30T08:00:00	76.5	ND	ND	ND	ND	ND	0.2	131.4	21.1	89	44.6	0
29242	2013-05-30T09:00:00	83.5	ND	ND	ND	ND	ND	0.5	67.2	22	85.7	189.1	0
29243	2013-05-30T10:00:00	81	ND	ND	ND	ND	ND	0.9	58.3	23.7	75.6	450.3	0
29244	2013-05-30T11:00:00	58.2	ND	ND	ND	ND	ND	0.9	154.3	25.7	64.5	598.3	0
29245	2013-05-30T12:00:00	ND	ND	ND	ND	ND	ND	0.4	164.7	26	62.7	184.5	0
29246	2013-05-30T13:00:00	ND	ND	ND	ND	ND	ND	0.5	103.8	27	59.6	528.1	0
29247	2013-05-30T14:00:00	ND	ND	ND	ND	ND	ND	0.4	26.6	28.1	55.6	435.8	0
29248	2013-05-30T15:00:00	ND	ND	ND	ND	ND	ND	1.2	233.5	28.4	53.5	620.9	0
29249	2013-05-30T16:00:00	ND	ND	ND	ND	ND	ND	2.8	221.3	29.2	49.2	563.7	0
29250	2013-05-30T17:00:00	78.4	ND	ND	ND	ND	ND	3	222.1	27.9	51.3	225.8	0
29251	2013-05-30T18:00:00	49.6	ND	ND	ND	ND	ND	2.5	221.1	26.4	55.4	26.9	0
29252	2013-05-30T19:00:00	26.8	ND	ND	ND	ND	ND	3.4	219.2	25.1	60.4	0	0
29253	2013-05-30T20:00:00	21.2	ND	ND	ND	ND	ND	2.7	197.2	24.7	61.3	0	0
29254	2013-05-30T21:00:00	15.2	ND	ND	ND	ND	ND	2.2	178.4	21.7	81.9	0	0.51
29255	2013-05-30T22:00:00	21.2	ND	ND	ND	ND	ND	0.8	189.5	21.4	84.8	0	0
29256	2013-05-30T23:00:00	11.1	ND	ND	ND	ND	ND	0.7	204.3	21.3	85.7	0	0
29257	2013-05-31T00:00:00	7	ND	ND	ND	ND	ND	0.4	44.9	21.7	83.4	0	0
29258	2013-05-31T01:00:00	22.2	ND	ND	ND	ND	ND	0.9	68.6	21	86.9	0	0
29259	2013-05-31T02:00:00	17.5	ND	ND	ND	ND	ND	0.5	63	20.9	87.4	0	0
29260	2013-05-31T03:00:00	10.4	ND	ND	ND	ND	ND	0.4	171.5	20.7	88.4	0	0
29261	2013-05-31T04:00:00	13.5	ND	ND	ND	ND	ND	0.4	158.6	20.6	91	0	0.76
29262	2013-05-31T05:00:00	8.6	ND	ND	ND	ND	ND	0.5	149.7	20.4	93.2	0	0.25
29263	2013-05-31T06:00:00	18.5	ND	ND	ND	ND	ND	0.9	138.7	20.3	94.4	0	0.25
29264	2013-05-31T07:00:00	19.4	ND	ND	ND	ND	ND	0.4	52.4	20.4	94	7.7	0.25
29265	2013-05-31T08:00:00	30.1	ND	ND	ND	ND	ND	0.5	69.3	20.7	92.7	24.7	1.78
29266	2013-05-31T09:00:00	23.9	ND	ND	ND	ND	ND	1.2	72.9	20.7	92.3	69.6	0
29267	2013-05-31T10:00:00	35.5	ND	ND	ND	ND	ND	1.2	173.2	20.9	91.2	121.7	0.25
29268	2013-05-31T11:00:00	19.8	ND	ND	ND	ND	ND	1.1	195.3	21.6	86.1	218.5	0
29269	2013-05-31T12:00:00	34.8	ND	ND	ND	ND	ND	0.8	15.7	21.8	85	52.6	2.29
29270	2013-05-31T13:00:00	24.9	ND	ND	ND	ND	ND	0.8	34.7	20.4	91.5	132.8	3.3
29271	2013-05-31T14:00:00	33	ND	ND	ND	ND	ND	1.5	53.1	21.1	86.5	254.2	1.02
29272	2013-05-31T15:00:00	18.4	ND	ND	ND	ND	ND	1.8	36.9	22.3	79.9	438.4	0
29273	2013-05-31T16:00:00	9.7	ND	ND	ND	ND	ND	1.4	51.9	23.3	73	250.5	0
29274	2013-05-31T17:00:00	9.7	ND	ND	ND	ND	ND	1	99	24.3	66.7	224.2	0
29275	2013-05-31T18:00:00	9.7	ND	ND	ND	ND	ND	1.1	81.8	23.5	68.4	48.2	0
29276	2013-05-31T19:00:00	9.7	ND	ND	ND	ND	ND	0.4	126	23.2	68.6	0	0
29277	2013-05-31T20:00:00	9.7	ND	ND	ND	ND	ND	1.6	176.6	22.7	74.6	0	0
29278	2013-05-31T21:00:00	9.7	ND	ND	ND	ND	ND	2.3	188	21.5	83.2	0	0
29279	2013-05-31T22:00:00	9.7	ND	ND	ND	ND	ND	1.2	177.4	21.1	84.6	0	0
29280	2013-05-31T23:00:00	9.7	ND	ND	ND	ND	ND	1.5	139.9	20.6	87.2	0	0
29281	2013-06-01T00:00:00	9.7	ND	ND	ND	ND	ND	0.4	168.4	20.1	90.7	0	0
29282	2013-06-01T01:00:00	ND	ND	ND	ND	ND	ND	0.8	90.3	20.1	89.6	0	0
29283	2013-06-01T02:00:00	ND	ND	ND	ND	ND	ND	1.1	55.5	19.6	90.2	0	0
29284	2013-06-01T03:00:00	ND	ND	ND	ND	ND	ND	0.3	27.6	19.5	90.8	0	0
29285	2013-06-01T04:00:00	ND	ND	ND	ND	ND	ND	0.4	344.3	19.4	90.1	0	0
29286	2013-06-01T05:00:00	ND	ND	ND	ND	ND	ND	0.3	259.7	19.3	90.3	0	0
29287	2013-06-01T06:00:00	ND	ND	ND	ND	ND	ND	0.8	234.4	19.3	90	0	0
29288	2013-06-01T07:00:00	ND	ND	ND	ND	ND	ND	0.2	284.7	19.5	89.1	48.4	0
29289	2013-06-01T08:00:00	ND	ND	ND	ND	ND	ND	0.4	69.5	21	81.5	232.1	0
29290	2013-06-01T09:00:00	ND	ND	ND	ND	ND	ND	0.7	155.6	22.1	76.5	285.3	0
29291	2013-06-01T10:00:00	ND	ND	ND	ND	ND	ND	0.1	196.5	21.8	77.1	160.2	0
29292	2013-06-01T11:00:00	ND	ND	ND	ND	ND	ND	1	91	23.6	69.2	574.6	0
29293	2013-06-01T12:00:00	ND	ND	ND	ND	ND	ND	0.8	164.1	25.9	58.1	750.1	0
29294	2013-06-01T13:00:00	ND	ND	ND	ND	ND	ND	1.1	137.8	26.9	54.9	697.9	0
29295	2013-06-01T14:00:00	ND	ND	ND	ND	ND	ND	1.5	72.6	27.6	52.2	797.9	0
29296	2013-06-01T15:00:00	ND	ND	ND	ND	ND	ND	1.3	87	28.1	51.4	550.2	0
29297	2013-06-01T16:00:00	ND	ND	ND	ND	ND	ND	0.1	177.4	28.4	51.4	336.5	0
29298	2013-06-01T17:00:00	ND	ND	ND	ND	ND	ND	0.6	66.4	28	52.9	146	0
29299	2013-06-01T18:00:00	ND	ND	ND	ND	ND	ND	2.9	217.9	26.9	55.6	88.3	0
29300	2013-06-01T19:00:00	ND	ND	ND	ND	ND	ND	2.3	218.7	26	57	10.6	0
29301	2013-06-01T20:00:00	ND	ND	ND	ND	ND	ND	2	208.3	25.5	60.5	0	0
29302	2013-06-01T21:00:00	ND	ND	ND	ND	ND	ND	2.8	210.3	22.6	74.1	0	0
29303	2013-06-01T22:00:00	ND	ND	ND	ND	ND	ND	1.2	219.4	23.2	66.6	0	0
29304	2013-06-01T23:00:00	ND	ND	ND	ND	ND	ND	1.4	215.1	23	66.9	0	0
29305	2013-06-02T00:00:00	ND	ND	ND	ND	ND	ND	1.7	189.8	21.4	82.4	0	0
29306	2013-06-02T01:00:00	ND	ND	ND	ND	ND	ND	1.1	215.2	21.7	78.9	0	0
29307	2013-06-02T02:00:00	ND	ND	ND	ND	ND	ND	1.2	218.5	21.7	76.7	0	0
29308	2013-06-02T03:00:00	ND	ND	ND	ND	ND	ND	0.8	218.5	21.7	76.6	0	0
29309	2013-06-02T04:00:00	ND	ND	ND	ND	ND	ND	1	206.1	21.3	78.3	0	0
29310	2013-06-02T05:00:00	ND	ND	ND	ND	ND	ND	0.6	212.2	21.1	78.2	0	0
29311	2013-06-02T06:00:00	ND	ND	ND	ND	ND	ND	0.8	217.1	20.7	78.1	0	0
29312	2013-06-02T07:00:00	ND	ND	ND	ND	ND	ND	0.5	206.7	20.6	78.5	48	0
29313	2013-06-02T08:00:00	ND	ND	ND	ND	ND	ND	0.4	200.2	21.9	76	203.6	0
29314	2013-06-02T09:00:00	ND	ND	ND	ND	ND	ND	0.7	88.1	23.8	69.8	455.8	0
29315	2013-06-02T10:00:00	ND	ND	ND	ND	ND	ND	0.6	109.7	24.4	67.2	343.7	0
29316	2013-06-02T11:00:00	ND	ND	ND	ND	ND	ND	0.9	72.7	26.2	60.4	766	0
29317	2013-06-02T12:00:00	ND	ND	ND	ND	ND	ND	1.2	61	26.9	57.5	725.8	0
29318	2013-06-02T13:00:00	ND	ND	ND	ND	ND	ND	1.6	67.1	28	53.6	839.8	0
29319	2013-06-02T14:00:00	ND	ND	ND	ND	ND	ND	0.5	227.3	28.9	50.4	778.3	0
29320	2013-06-02T15:00:00	ND	ND	ND	ND	ND	ND	1	59.4	29.9	47.3	703.1	0
29321	2013-06-02T16:00:00	ND	ND	ND	ND	ND	ND	1	32.3	30.4	46.6	525.2	0
29322	2013-06-02T17:00:00	ND	ND	ND	ND	ND	ND	0.6	6.5	30	48.8	317.2	0
29323	2013-06-02T18:00:00	ND	ND	ND	ND	ND	ND	0.6	354.3	29.3	49.9	101	0
29324	2013-06-02T19:00:00	ND	ND	ND	ND	ND	ND	2.8	218.7	26.9	58.9	0	0
29325	2013-06-02T20:00:00	ND	ND	ND	ND	ND	ND	3.2	218.2	25.7	62.3	0	0
29326	2013-06-02T21:00:00	ND	ND	ND	ND	ND	ND	2.5	219	25	65.1	0	0
29327	2013-06-02T22:00:00	ND	ND	ND	ND	ND	ND	1.3	206.6	24.6	67.2	0	0
29328	2013-06-02T23:00:00	ND	ND	ND	ND	ND	ND	0.6	59.7	23.1	75.5	0	0
29329	2013-06-03T00:00:00	ND	ND	ND	ND	ND	ND	0.5	75.6	22.5	76	0	0
29330	2013-06-03T01:00:00	ND	ND	ND	ND	ND	ND	0.5	146.4	22.6	76.1	0	0
29331	2013-06-03T02:00:00	ND	ND	ND	ND	ND	ND	1.3	184.5	22.4	80.3	0	0
29332	2013-06-03T03:00:00	ND	ND	ND	ND	ND	ND	0.4	164.6	22.5	80	0	0
29333	2013-06-03T04:00:00	ND	ND	ND	ND	ND	ND	0.7	45.6	21.4	82.9	0	0
29334	2013-06-03T05:00:00	ND	ND	ND	ND	ND	ND	0.1	124.7	21.4	82.3	0	0
29335	2013-06-03T06:00:00	ND	ND	ND	ND	ND	ND	0.1	246	21.4	83	0	0
29336	2013-06-03T07:00:00	ND	ND	ND	ND	ND	ND	0.6	210.7	21.8	81.4	37	0
29337	2013-06-03T08:00:00	ND	ND	ND	ND	ND	ND	0.8	126.4	23.3	75	220.5	0
29338	2013-06-03T09:00:00	ND	ND	ND	ND	ND	ND	1.3	177.8	24	72.8	384.2	0
29339	2013-06-03T10:00:00	ND	ND	ND	ND	ND	ND	1	135	25.5	64.9	503.1	0
29340	2013-06-03T11:00:00	ND	ND	ND	ND	ND	ND	0.7	100.8	27.2	58.9	617.2	0
29341	2013-06-03T12:00:00	ND	ND	ND	ND	ND	ND	1.3	113.6	27.3	59.5	374	0
29342	2013-06-03T13:00:00	ND	ND	ND	ND	ND	ND	1	105	28.4	55.7	733	0
29343	2013-06-03T14:00:00	ND	ND	ND	ND	ND	ND	0.7	116.1	29.8	49.6	789.3	0
29344	2013-06-03T15:00:00	ND	ND	ND	ND	ND	ND	1.3	119.9	30.7	46.5	604.5	0
29345	2013-06-03T16:00:00	ND	ND	ND	ND	ND	ND	1.7	86.3	30.2	47.1	373.7	0
29346	2013-06-03T17:00:00	ND	ND	ND	ND	ND	ND	1.7	77.9	30	46	243.4	0
29347	2013-06-03T18:00:00	ND	ND	ND	ND	ND	ND	0.8	36.7	29.6	48.2	111	0
29348	2013-06-03T19:00:00	ND	ND	ND	ND	ND	ND	2.4	217.6	27.7	56.4	0	0
29349	2013-06-03T20:00:00	ND	ND	ND	ND	ND	ND	2.2	218.5	26.8	59.4	0	0
29350	2013-06-03T21:00:00	ND	ND	ND	ND	ND	ND	2.3	216.6	26.2	59.9	0	0
29351	2013-06-03T22:00:00	ND	ND	ND	ND	ND	ND	2	216.5	25.9	59.1	0	0
29352	2013-06-03T23:00:00	ND	ND	ND	ND	ND	ND	2.5	218.1	25.5	62.8	0	0
29353	2013-06-04T00:00:00	ND	ND	ND	ND	ND	ND	2	217.6	25.3	63.6	0	0
29354	2013-06-04T01:00:00	ND	ND	ND	ND	ND	ND	0.6	181.1	24.6	72	0	0
29355	2013-06-04T02:00:00	ND	ND	ND	ND	ND	ND	0.9	160.6	23.8	75.9	0	0
29356	2013-06-04T03:00:00	ND	ND	ND	ND	ND	ND	0.6	124.3	23.5	76.9	0	0
29357	2013-06-04T04:00:00	ND	ND	ND	ND	ND	ND	0.7	167.8	23.1	75.7	0	0
29358	2013-06-04T05:00:00	ND	ND	ND	ND	ND	ND	0.8	187.4	22.7	76.9	0	0
29359	2013-06-04T06:00:00	ND	ND	ND	ND	ND	ND	0.4	196.6	22.5	76.5	0	0
29360	2013-06-04T07:00:00	ND	ND	ND	ND	ND	ND	0.4	14.6	22.2	81.6	44.8	0
29361	2013-06-04T08:00:00	ND	ND	ND	ND	ND	ND	0.2	91.1	23.4	76.4	151.5	0
29362	2013-06-04T09:00:00	ND	ND	ND	ND	ND	ND	1	130.2	24.6	70.4	269.6	0
29363	2013-06-04T10:00:00	ND	ND	ND	ND	ND	ND	1.2	139.6	25.3	66.7	400.2	0
29364	2013-06-04T11:00:00	ND	ND	ND	ND	ND	ND	1	124.6	26.8	57.8	629.7	0
29365	2013-06-04T12:00:00	ND	ND	ND	ND	ND	ND	1	126.9	27.9	53.1	535.3	0
29366	2013-06-04T13:00:00	ND	ND	ND	ND	ND	ND	1.3	72.4	28.4	52.4	437.3	0
29367	2013-06-04T14:00:00	ND	ND	ND	ND	ND	ND	1.3	67.4	28.8	51.5	427.3	0
29368	2013-06-04T15:00:00	ND	ND	ND	ND	ND	ND	1.6	76.6	29.1	50.9	414.6	0
29369	2013-06-04T16:00:00	ND	ND	ND	ND	ND	ND	1.6	63	29.5	50.6	506.8	0
29370	2013-06-04T17:00:00	ND	ND	ND	ND	ND	ND	1.6	221.3	29.7	48.9	270.7	0
29371	2013-06-04T18:00:00	ND	ND	ND	ND	ND	ND	4.3	218.2	27.5	53.7	34.3	0
29372	2013-06-04T19:00:00	ND	ND	ND	ND	ND	ND	4	218.2	26.4	56.2	0	0
29373	2013-06-04T20:00:00	ND	ND	ND	ND	ND	ND	3.4	217.7	26.1	56.2	0	0
29374	2013-06-04T21:00:00	ND	ND	ND	ND	ND	ND	3.2	218.3	25.9	56	0	0
29375	2013-06-04T22:00:00	ND	ND	ND	ND	ND	ND	1.5	220.1	25.5	58	0	0
29376	2013-06-04T23:00:00	ND	ND	ND	ND	ND	ND	2.2	209.3	25.4	60.5	0	0
29377	2013-06-05T00:00:00	ND	ND	ND	ND	ND	ND	0.6	216.6	24.9	64.1	0	0
29378	2013-06-05T01:00:00	ND	ND	ND	ND	ND	ND	0.3	132	23.7	73.4	0	0
29379	2013-06-05T02:00:00	ND	ND	ND	ND	ND	ND	0.4	141.8	23.7	75.2	0	0
29380	2013-06-05T03:00:00	ND	ND	ND	ND	ND	ND	0.8	70.8	22.8	75.9	0	0
29381	2013-06-05T04:00:00	ND	ND	ND	ND	ND	ND	1.6	162.2	22.3	80.2	0	4.06
29382	2013-06-05T05:00:00	ND	ND	ND	ND	ND	ND	0.6	174.2	21.1	91	0	1.52
29383	2013-06-05T06:00:00	ND	ND	ND	ND	ND	ND	0.2	86.6	21.2	91.4	0	0
29384	2013-06-05T07:00:00	ND	ND	ND	ND	ND	ND	0.7	161.1	21.3	90.7	43.1	0
29385	2013-06-05T08:00:00	ND	ND	ND	ND	ND	ND	1	174.4	22.3	85	190.7	0
29386	2013-06-05T09:00:00	ND	ND	ND	ND	ND	ND	0.4	101.1	23.5	76.4	248.7	0
29387	2013-06-05T10:00:00	ND	ND	ND	ND	ND	ND	1.4	99.5	24.7	69.3	408.4	0
29388	2013-06-05T11:00:00	ND	ND	ND	ND	ND	ND	1.5	104.1	26.3	60.9	694.9	0
29389	2013-06-05T12:00:00	ND	ND	ND	ND	ND	ND	1.2	127.3	27.3	57.5	566.5	0
29390	2013-06-05T13:00:00	ND	ND	ND	ND	ND	ND	1	152.3	28.2	54.3	533.2	0
29391	2013-06-05T14:00:00	ND	ND	ND	ND	ND	ND	1.1	128.2	28.8	52.5	453.2	0
29392	2013-06-05T15:00:00	ND	ND	ND	ND	ND	ND	0.7	166.1	28.5	53	192.6	0
29393	2013-06-05T16:00:00	ND	ND	ND	ND	ND	ND	2.8	218.8	28	51.8	231.4	0
29394	2013-06-05T17:00:00	ND	ND	ND	ND	ND	ND	3.6	219.1	28	51.1	293.8	0
29395	2013-06-05T18:00:00	ND	ND	ND	ND	ND	ND	3	219.6	26.9	53.3	69.3	0
29396	2013-06-05T19:00:00	ND	ND	ND	ND	ND	ND	2.6	219.5	25.9	55.6	0	0
29397	2013-06-05T20:00:00	ND	ND	ND	ND	ND	ND	3.4	218.7	25.2	58	0	0
29398	2013-06-05T21:00:00	ND	ND	ND	ND	ND	ND	3.4	221.6	24.9	59.2	0	0
29399	2013-06-05T22:00:00	ND	ND	ND	ND	ND	ND	0.3	182.2	24.3	64.6	0	0
29400	2013-06-05T23:00:00	ND	ND	ND	ND	ND	ND	0.8	65.8	22.8	73.8	0	0
29401	2013-06-06T00:00:00	ND	ND	ND	ND	ND	ND	0.6	107	22.4	75.3	0	0
29402	2013-06-06T01:00:00	ND	ND	ND	ND	ND	ND	0.8	130.9	22.3	75.5	0	0
29403	2013-06-06T02:00:00	ND	ND	ND	ND	ND	ND	0.4	92.2	21.9	77.2	0	0
29404	2013-06-06T03:00:00	ND	ND	ND	ND	ND	ND	0.8	142.8	21.8	79.6	0	0
29405	2013-06-06T04:00:00	ND	ND	ND	ND	ND	ND	0.7	142.9	21.6	81.5	0	0
29406	2013-06-06T05:00:00	ND	ND	ND	ND	ND	ND	0.9	180.3	21.7	80.6	0	0
29407	2013-06-06T06:00:00	ND	ND	ND	ND	ND	ND	0.8	175.2	21.6	80.7	0	0
29408	2013-06-06T07:00:00	ND	ND	ND	ND	ND	ND	0.8	61	21.2	82.2	46.1	0
29409	2013-06-06T08:00:00	ND	ND	ND	ND	ND	ND	0.6	125.7	21.7	79.8	138.7	0
29410	2013-06-06T09:00:00	ND	ND	ND	ND	ND	ND	0.7	126.2	23.1	74.3	281.8	0
29411	2013-06-06T10:00:00	ND	ND	ND	ND	ND	ND	0.8	169.8	25.1	65.4	551.5	0
29412	2013-06-06T11:00:00	ND	ND	ND	ND	ND	ND	0.9	113.5	26.2	60.9	491.6	0
29413	2013-06-06T12:00:00	ND	ND	ND	ND	ND	ND	0.7	122.2	27.4	56.6	504.9	0
29414	2013-06-06T13:00:00	ND	ND	ND	ND	ND	ND	0.8	114.9	28	54.4	400.4	0
29415	2013-06-06T14:00:00	ND	ND	ND	ND	ND	ND	1	173	28.4	52.9	440.5	0
29416	2013-06-06T15:00:00	ND	ND	ND	ND	ND	ND	1.1	109.3	29	50.7	351.1	0
29417	2013-06-06T16:00:00	ND	ND	ND	ND	ND	ND	1.2	63.9	28.7	51.2	162.3	0
29418	2013-06-06T17:00:00	ND	ND	ND	ND	ND	ND	0.6	67	28.1	53.4	73.2	0
29419	2013-06-06T18:00:00	ND	ND	ND	ND	ND	ND	2.9	218	27.2	54.4	48.1	0
29420	2013-06-06T19:00:00	ND	ND	ND	ND	ND	ND	2.5	217.4	26.6	54.3	0	0
29421	2013-06-06T20:00:00	ND	ND	ND	ND	ND	ND	2.7	218	25.8	57.5	0	0
29422	2013-06-06T21:00:00	ND	ND	ND	ND	ND	ND	2.9	218.2	25.3	59.7	0	0
29423	2013-06-06T22:00:00	ND	ND	ND	ND	ND	ND	2.4	218.5	25.1	61.1	0	0
29424	2013-06-06T23:00:00	ND	ND	ND	ND	ND	ND	0.9	223.3	24.6	65.1	0	0
29425	2013-06-07T00:00:00	ND	ND	ND	ND	ND	ND	0.4	72.2	23.2	73.9	0	0
29426	2013-06-07T01:00:00	ND	ND	ND	ND	ND	ND	1.3	197.5	23.4	74.8	0	0
29427	2013-06-07T02:00:00	ND	ND	ND	ND	ND	ND	0.6	203.9	23.5	71.6	0	0
29428	2013-06-07T03:00:00	ND	ND	ND	ND	ND	ND	1	184.8	23	76.6	0	0
29429	2013-06-07T04:00:00	ND	ND	ND	ND	ND	ND	1	148.8	22.5	78.2	0	0
29430	2013-06-07T05:00:00	ND	ND	ND	ND	ND	ND	0.8	175.6	21.7	83.2	0	0
29431	2013-06-07T06:00:00	ND	ND	ND	ND	ND	ND	0.5	35	21.7	83.7	0	0
29432	2013-06-07T07:00:00	ND	ND	ND	ND	ND	ND	0.4	337.9	21.9	81.2	17.9	0
29433	2013-06-07T08:00:00	ND	ND	ND	ND	ND	ND	0.3	187.6	22.5	76.7	94.3	0
29434	2013-06-07T09:00:00	ND	ND	ND	ND	ND	ND	0.5	171.8	24	70.1	253.5	0
29435	2013-06-07T10:00:00	ND	ND	ND	ND	ND	ND	0.5	132.1	25.7	64	475.4	0
29436	2013-06-07T11:00:00	ND	ND	ND	ND	ND	ND	0.9	90.4	26.4	62	302.9	0
29437	2013-06-07T12:00:00	ND	ND	ND	ND	ND	ND	1	60.9	27.2	60.1	487.7	0
29438	2013-06-07T13:00:00	ND	ND	ND	ND	ND	ND	1.1	44.2	28.4	54.9	604.8	0
29439	2013-06-07T14:00:00	ND	ND	ND	ND	ND	ND	1.9	47.3	29.3	53.6	609.7	0
29440	2013-06-07T15:00:00	ND	ND	ND	ND	ND	ND	1.8	44.4	28.4	55.5	212.9	0
29441	2013-06-07T16:00:00	ND	ND	ND	ND	ND	ND	1.3	54.4	28.1	56.8	127.7	0
29442	2013-06-07T17:00:00	ND	ND	ND	ND	ND	ND	1.4	214	27.9	54.5	148.2	0
29443	2013-06-07T18:00:00	ND	ND	ND	ND	ND	ND	1.4	210.1	27.8	52.7	52.9	0
29444	2013-06-07T19:00:00	ND	ND	ND	ND	ND	ND	2.5	218.8	26.8	55.9	0	0
29445	2013-06-07T20:00:00	ND	ND	ND	ND	ND	ND	2.8	217.5	26	58.9	0	0
29446	2013-06-07T21:00:00	ND	ND	ND	ND	ND	ND	2.4	217.7	25.3	60.7	0	0
29447	2013-06-07T22:00:00	ND	ND	ND	ND	ND	ND	2.8	215.3	24.9	63.1	0	0
29448	2013-06-07T23:00:00	ND	ND	ND	ND	ND	ND	1.2	214.9	24.3	64.3	0	0
29449	2013-06-08T00:00:00	ND	ND	ND	ND	ND	ND	1.2	189.9	24	70	0	0
29450	2013-06-08T01:00:00	ND	ND	ND	ND	ND	ND	1.1	209.7	23.8	69.8	0	0
29451	2013-06-08T02:00:00	ND	ND	ND	ND	ND	ND	1.1	213.3	23.7	65.7	0	0
29452	2013-06-08T03:00:00	ND	ND	ND	ND	ND	ND	0.2	200.6	23.1	71.1	0	0
29453	2013-06-08T04:00:00	ND	ND	ND	ND	ND	ND	0.5	43	22.5	78.2	0	0
29454	2013-06-08T05:00:00	ND	ND	ND	ND	ND	ND	0.6	60.3	22.2	81.1	0	0
29455	2013-06-08T06:00:00	ND	ND	ND	ND	ND	ND	0.7	150.1	21.4	85.3	0	0
29456	2013-06-08T07:00:00	ND	ND	ND	ND	ND	ND	0.5	189.5	21.6	83.7	47.1	0
29457	2013-06-08T08:00:00	ND	ND	ND	ND	ND	ND	0.7	70.9	23.5	73.8	175.5	0
29458	2013-06-08T09:00:00	ND	ND	ND	ND	ND	ND	1.1	62.1	24.2	71	313.5	0
29459	2013-06-08T10:00:00	ND	ND	ND	ND	ND	ND	0.3	140.2	26	63.3	450.9	0
29460	2013-06-08T11:00:00	ND	ND	ND	ND	ND	ND	0.9	106.2	27.3	58.4	529.5	0
29461	2013-06-08T12:00:00	ND	ND	ND	ND	ND	ND	1.6	73.8	28.7	54.1	838.8	0
29462	2013-06-08T13:00:00	ND	ND	ND	ND	ND	ND	1.1	89.9	29.5	52.6	651.4	0
29463	2013-06-08T14:00:00	ND	ND	ND	ND	ND	ND	1.4	71.1	30.3	49.9	677.5	0
29464	2013-06-08T15:00:00	ND	ND	ND	ND	ND	ND	0.9	71.4	30.9	47.1	638.9	0
29465	2013-06-08T16:00:00	ND	ND	ND	ND	ND	ND	1.4	96.8	30.2	48.3	100.3	0
29466	2013-06-08T17:00:00	ND	ND	ND	ND	ND	ND	0.9	188.1	29.3	51.5	136.9	0
29467	2013-06-08T18:00:00	ND	ND	ND	ND	ND	ND	3.4	218	27.9	56.3	69.4	0
29468	2013-06-08T19:00:00	ND	ND	ND	ND	ND	ND	3.4	217.8	27.2	55.4	0	0
29469	2013-06-08T20:00:00	ND	ND	ND	ND	ND	ND	3.9	219.2	26.3	57.8	0	0
29470	2013-06-08T21:00:00	ND	ND	ND	ND	ND	ND	4.9	219.3	26	57.1	0	0
29471	2013-06-08T22:00:00	ND	ND	ND	ND	ND	ND	2.8	224.2	25.8	58.7	0	0
29472	2013-06-08T23:00:00	ND	ND	ND	ND	ND	ND	2.5	210	25.4	62.5	0	0
29473	2013-06-09T00:00:00	ND	ND	ND	ND	ND	ND	2.4	180.1	23.8	76.8	0	0
29474	2013-06-09T01:00:00	ND	ND	ND	ND	ND	ND	1.5	186.2	23.3	78.8	0	0
29475	2013-06-09T02:00:00	ND	ND	ND	ND	ND	ND	1.1	195.9	23.3	76.4	0	0
29476	2013-06-09T03:00:00	ND	ND	ND	ND	ND	ND	1	213.4	22.8	72.7	0	0
29477	2013-06-09T04:00:00	ND	ND	ND	ND	ND	ND	0.3	173.9	22.5	70.7	0	0
29478	2013-06-09T05:00:00	ND	ND	ND	ND	ND	ND	0.6	111.8	21.5	82.8	0	0
29479	2013-06-09T06:00:00	ND	ND	ND	ND	ND	ND	0.3	161.7	21.1	83.5	0	0
29480	2013-06-09T07:00:00	ND	ND	ND	ND	ND	ND	0.1	150.4	21.6	77.9	49.4	0
29481	2013-06-09T08:00:00	ND	ND	ND	ND	ND	ND	0.4	153.5	23	71.3	213.9	0
29482	2013-06-09T09:00:00	ND	ND	ND	ND	ND	ND	0.6	94.4	24.9	63.6	364	0
29483	2013-06-09T10:00:00	ND	ND	ND	ND	ND	ND	1.3	135.6	25.9	61.6	501.6	0
29484	2013-06-09T11:00:00	ND	ND	ND	ND	ND	ND	1.5	148.2	27.1	57.8	700.4	0
29485	2013-06-09T12:00:00	ND	ND	ND	ND	ND	ND	1	163.4	28.9	51.5	780.8	0
29486	2013-06-09T13:00:00	ND	ND	ND	ND	ND	ND	1.5	113.4	29.7	48.7	545	0
29487	2013-06-09T14:00:00	ND	ND	ND	ND	ND	ND	0.9	73.5	30.1	48.4	473.9	0
29488	2013-06-09T15:00:00	ND	ND	ND	ND	ND	ND	1.2	232.3	30.2	47	545.6	0
29489	2013-06-09T16:00:00	ND	ND	ND	ND	ND	ND	3.5	219.3	30.4	45.1	504.2	0
29490	2013-06-09T17:00:00	ND	ND	ND	ND	ND	ND	4.2	218.7	29.2	48.5	315.9	0
29491	2013-06-09T18:00:00	ND	ND	ND	ND	ND	ND	4.3	217.8	27.7	52.5	89.3	0
29492	2013-06-09T19:00:00	ND	ND	ND	ND	ND	ND	3.9	218.6	26.5	55.8	0	0
29493	2013-06-09T20:00:00	ND	ND	ND	ND	ND	ND	4.7	218.4	26	57.1	0	0
29494	2013-06-09T21:00:00	ND	ND	ND	ND	ND	ND	4	219	25.7	58.3	0	0
29495	2013-06-09T22:00:00	ND	ND	ND	ND	ND	ND	1.8	223.2	25.5	59.2	0	0
29496	2013-06-09T23:00:00	ND	ND	ND	ND	ND	ND	2	194.2	24.5	67	0	0
29497	2013-06-10T00:00:00	ND	ND	ND	ND	ND	ND	1.3	159	23.1	76	0	0
29498	2013-06-10T01:00:00	ND	ND	ND	ND	ND	ND	1.4	192.8	22.9	77.1	0	0
29499	2013-06-10T02:00:00	ND	ND	ND	ND	ND	ND	1	175.5	22.9	76.6	0	0
29500	2013-06-10T03:00:00	ND	ND	ND	ND	ND	ND	1.1	183.6	22.8	76.5	0	0
29501	2013-06-10T04:00:00	ND	ND	ND	ND	ND	ND	0.9	147.4	22.3	78.2	0	0
29502	2013-06-10T05:00:00	ND	ND	ND	ND	ND	ND	0.8	149.6	22	80.4	0	0
29503	2013-06-10T06:00:00	ND	ND	ND	ND	ND	ND	0.6	158.6	21.8	80.7	0	0
29504	2013-06-10T07:00:00	ND	ND	ND	ND	ND	ND	0.6	144.1	22.1	78.2	23.9	0
29505	2013-06-10T08:00:00	ND	ND	ND	ND	ND	ND	0.3	49.8	22.2	79.1	107.9	0
29506	2013-06-10T09:00:00	ND	ND	ND	ND	ND	ND	0.3	181.2	23.9	71.1	358.2	0
29507	2013-06-10T10:00:00	ND	ND	ND	ND	ND	ND	1.3	119.2	25.2	63.8	399	0
29508	2013-06-10T11:00:00	ND	ND	ND	ND	ND	ND	0.8	140.4	26.4	58.9	559.3	0
29509	2013-06-10T12:00:00	ND	ND	ND	ND	ND	ND	1.4	158.8	27.6	55.5	518.5	0
29510	2013-06-10T13:00:00	ND	ND	ND	ND	ND	ND	1.3	147.2	27.5	55.6	359.3	0
29511	2013-06-10T14:00:00	ND	ND	ND	ND	ND	ND	0.9	159.3	28.1	52.9	393.8	0
29512	2013-06-10T15:00:00	ND	ND	ND	ND	ND	ND	1.4	153.6	29.2	50.7	600.3	0
29513	2013-06-10T16:00:00	ND	ND	ND	ND	ND	ND	1.4	138.3	29.1	50.3	210.8	0
29514	2013-06-10T17:00:00	ND	ND	ND	ND	ND	ND	1	145.5	28.9	50.6	116	0
29515	2013-06-10T18:00:00	ND	ND	ND	ND	ND	ND	1.8	213.9	27.8	54	25.2	0
29516	2013-06-10T19:00:00	ND	ND	ND	ND	ND	ND	3	218.2	26.6	57.1	0	0
29517	2013-06-10T20:00:00	ND	ND	ND	ND	ND	ND	2.9	218.3	25.8	58.8	0	0
29518	2013-06-10T21:00:00	ND	ND	ND	ND	ND	ND	1.6	203	25.4	61.7	0	0
29519	2013-06-10T22:00:00	ND	ND	ND	ND	ND	ND	0.7	99.8	24.5	70.1	0	0
29520	2013-06-10T23:00:00	ND	ND	ND	ND	ND	ND	1.7	216.3	25	63.7	0	0
29521	2013-06-11T00:00:00	ND	ND	ND	ND	ND	ND	1.6	212.8	25	62.6	0	0
29522	2013-06-11T01:00:00	ND	ND	ND	ND	ND	ND	0.2	315.2	24.3	69.4	0	0
29523	2013-06-11T02:00:00	ND	ND	ND	ND	ND	ND	0.7	179.8	23.9	71.8	0	0
29524	2013-06-11T03:00:00	ND	ND	ND	ND	ND	ND	0.8	158.9	23.4	75.3	0	0
29525	2013-06-11T04:00:00	ND	ND	ND	ND	ND	ND	0.4	108.7	23.4	74.6	0	0
29526	2013-06-11T05:00:00	ND	ND	ND	ND	ND	ND	0.7	131.5	22.5	79.2	0	0
29527	2013-06-11T06:00:00	ND	ND	ND	ND	ND	ND	0.9	152.8	22.4	80.2	0	0
29528	2013-06-11T07:00:00	ND	ND	ND	ND	ND	ND	0.8	169.4	22.7	78	19.2	0
29529	2013-06-11T08:00:00	ND	ND	ND	ND	ND	ND	1.6	197.8	22.5	80.6	144.6	0
29530	2013-06-11T09:00:00	ND	ND	ND	ND	ND	ND	1.1	145.1	23.9	76.3	203.3	0
29531	2013-06-11T10:00:00	ND	ND	ND	ND	ND	ND	0.9	131.7	24.2	72.7	220.6	0
29532	2013-06-11T11:00:00	ND	ND	ND	ND	ND	ND	0.9	109	26.1	63.9	575	0
29533	2013-06-11T12:00:00	ND	ND	ND	ND	ND	ND	1.1	118.1	27.4	58.7	557.9	0
29534	2013-06-11T13:00:00	ND	ND	ND	ND	ND	ND	0.8	170.3	27.6	58.4	235.2	0
29535	2013-06-11T14:00:00	ND	ND	ND	ND	ND	ND	0.5	96.6	28.2	55.1	304.3	0
29536	2013-06-11T15:00:00	ND	ND	ND	ND	ND	ND	0.3	135.5	28.4	53.5	201.8	0
29537	2013-06-11T16:00:00	ND	ND	ND	ND	ND	ND	3.6	221.4	27.2	53	114.1	0
29538	2013-06-11T17:00:00	ND	ND	ND	ND	ND	ND	2.9	219.5	26.7	53.3	128.3	0
29539	2013-06-11T18:00:00	ND	ND	ND	ND	ND	ND	2.5	220.6	26.3	54.1	61.4	0
29540	2013-06-11T19:00:00	ND	ND	ND	ND	ND	ND	2.9	219.7	25.7	55.8	0	0
29541	2013-06-11T20:00:00	ND	ND	ND	ND	ND	ND	3.1	219.6	25.1	58.2	0	0
29542	2013-06-11T21:00:00	ND	ND	ND	ND	ND	ND	2.2	219.4	25.2	56.2	0	0
29543	2013-06-11T22:00:00	ND	ND	ND	ND	ND	ND	1.5	205.9	24.5	60.6	0	0
29544	2013-06-11T23:00:00	ND	ND	ND	ND	ND	ND	2.5	199.5	23.6	72	0	0
29545	2013-06-12T00:00:00	ND	ND	ND	ND	ND	ND	1.8	195.9	23.5	71.1	0	0
29546	2013-06-12T01:00:00	ND	ND	ND	ND	ND	ND	0.9	154.6	22.9	74.5	0	0
29547	2013-06-12T02:00:00	ND	ND	ND	ND	ND	ND	0.7	141.1	22.1	75.6	0	0
29548	2013-06-12T03:00:00	ND	ND	ND	ND	ND	ND	0.3	181.8	21.9	76.5	0	0
29549	2013-06-12T04:00:00	ND	ND	ND	ND	ND	ND	0.2	54	22	76.6	0	0
29550	2013-06-12T05:00:00	ND	ND	ND	ND	ND	ND	0.7	55.4	22	76.7	0	0
29551	2013-06-12T06:00:00	ND	ND	ND	ND	ND	ND	0.2	344.7	21.9	76.7	0	0
29552	2013-06-12T07:00:00	ND	ND	ND	ND	ND	ND	0.5	66.6	22	76.9	27	0
29553	2013-06-12T08:00:00	ND	ND	ND	ND	ND	ND	0.7	77	22.3	76.2	83	0
29554	2013-06-12T09:00:00	ND	ND	ND	ND	ND	ND	0.9	74.3	22.9	74.3	275.3	0
29555	2013-06-12T10:00:00	ND	ND	ND	ND	ND	ND	0.9	104.1	25.1	63.5	459.9	0
29556	2013-06-12T11:00:00	ND	ND	ND	ND	ND	ND	1	142.6	26.9	57.3	726.4	0
29557	2013-06-12T12:00:00	ND	ND	ND	ND	ND	ND	0.7	158.9	27.5	56	517.9	0
29558	2013-06-12T13:00:00	ND	ND	ND	ND	ND	ND	0.7	115.1	27.6	55.6	503.3	0
29559	2013-06-12T14:00:00	ND	ND	ND	ND	ND	ND	1.4	121.7	28.6	53.1	491.7	0
29560	2013-06-12T15:00:00	ND	ND	ND	ND	ND	ND	1.3	97.2	28.7	53.5	383.9	0
29561	2013-06-12T16:00:00	ND	ND	ND	ND	ND	ND	1	63.3	28.5	54.6	166.4	0
29562	2013-06-12T17:00:00	ND	ND	ND	ND	ND	ND	2.2	221.7	27.7	55.8	85.2	0
29563	2013-06-12T18:00:00	ND	ND	ND	ND	ND	ND	2.7	218.3	27	57.1	73.7	0
29564	2013-06-12T19:00:00	ND	ND	ND	ND	ND	ND	3.4	218.2	25.6	61.4	0	0
29565	2013-06-12T20:00:00	ND	ND	ND	ND	ND	ND	4.2	218.5	25.4	60.1	0	0
29566	2013-06-12T21:00:00	ND	ND	ND	ND	ND	ND	1.3	219.4	25.3	58.9	0	0
29567	2013-06-12T22:00:00	ND	ND	ND	ND	ND	ND	0.4	152	24.9	62.5	0	0
29568	2013-06-12T23:00:00	ND	ND	ND	ND	ND	ND	1	219.1	24.6	62	0	0
29569	2013-06-13T00:00:00	ND	ND	ND	ND	ND	ND	0.7	64	22.9	73.5	0	0
29570	2013-06-13T01:00:00	ND	ND	ND	ND	ND	ND	0.6	149.1	22.5	74.9	0	0
29571	2013-06-13T02:00:00	ND	ND	ND	ND	ND	ND	1.7	177	22.7	77.1	0	0
29572	2013-06-13T03:00:00	ND	ND	ND	ND	ND	ND	1.2	162.2	21.6	81.2	0	0
29573	2013-06-13T04:00:00	ND	ND	ND	ND	ND	ND	0.9	200.3	21.6	79.6	0	0
29574	2013-06-13T05:00:00	ND	ND	ND	ND	ND	ND	0.4	183.5	21.7	80.2	0	0
29575	2013-06-13T06:00:00	ND	ND	ND	ND	ND	ND	0.1	103.3	21.8	80.1	0	0
29576	2013-06-13T07:00:00	ND	ND	ND	ND	ND	ND	0.9	84.6	21.2	82.2	17.2	0
29577	2013-06-13T08:00:00	ND	ND	ND	ND	ND	ND	0.3	194.4	22	79	89.9	0
29578	2013-06-13T09:00:00	ND	ND	ND	ND	ND	ND	0.6	90.1	24	69.5	326.5	0
29579	2013-06-13T10:00:00	ND	ND	ND	ND	ND	ND	1.5	67	25.3	64	455.5	0
29580	2013-06-13T11:00:00	ND	ND	ND	ND	ND	ND	0.3	68.2	26.9	57.5	550.6	0
29581	2013-06-13T12:00:00	ND	ND	ND	ND	ND	ND	1.1	94.1	28.2	53.2	683.9	0
29582	2013-06-13T13:00:00	ND	ND	ND	ND	ND	ND	0.6	59.6	29.5	49.2	754.5	0
29583	2013-06-13T14:00:00	ND	ND	ND	ND	ND	ND	1.1	67.8	30.2	44.8	685.9	0
29584	2013-06-13T15:00:00	ND	ND	ND	ND	ND	ND	1.5	60	30.9	43.3	542.3	0
29585	2013-06-13T16:00:00	ND	ND	ND	ND	ND	ND	0.2	78.6	30.7	44.7	319.3	0
29586	2013-06-13T17:00:00	ND	ND	ND	ND	ND	ND	2.1	222.3	30.3	48.6	290.4	0
29587	2013-06-13T18:00:00	ND	ND	ND	ND	ND	ND	4	218.4	28.2	54.2	141.4	0
29588	2013-06-13T19:00:00	ND	ND	ND	ND	ND	ND	4.1	218.2	26.6	58.5	0	0
29589	2013-06-13T20:00:00	ND	ND	ND	ND	ND	ND	4.5	218.2	26.3	57.9	0	0
29590	2013-06-13T21:00:00	ND	ND	ND	ND	ND	ND	3.4	220	26.2	58	0	0
29591	2013-06-13T22:00:00	ND	ND	ND	ND	ND	ND	1.1	214.3	26	60.3	0	0
29592	2013-06-13T23:00:00	ND	ND	ND	ND	ND	ND	0.3	17	25.1	66.6	0	0
29593	2013-06-14T00:00:00	ND	ND	ND	ND	ND	ND	0.7	105.9	25	67	0	0
29594	2013-06-14T01:00:00	ND	ND	ND	ND	ND	ND	1.4	162.5	24	72.2	0	0
29595	2013-06-14T02:00:00	ND	ND	ND	ND	ND	ND	0.9	167.1	23.1	75.5	0	0
29596	2013-06-14T03:00:00	ND	ND	ND	ND	ND	ND	0.8	180	23.3	73.4	0	0
29597	2013-06-14T04:00:00	ND	ND	ND	ND	ND	ND	0.5	168.2	23.3	72.6	0	0
29598	2013-06-14T05:00:00	ND	ND	ND	ND	ND	ND	0.8	124.4	22.9	74.3	0	0
29599	2013-06-14T06:00:00	ND	ND	ND	ND	ND	ND	0.2	73.2	22.9	75.7	0	0.76
29600	2013-06-14T07:00:00	ND	ND	ND	ND	ND	ND	0.6	59.6	22.2	83.9	10.7	0.25
29601	2013-06-14T08:00:00	ND	ND	ND	ND	ND	ND	0.7	62.5	22.8	80.4	81	0
29602	2013-06-14T09:00:00	ND	ND	ND	ND	ND	ND	1.1	40.6	23	81.1	243	0.76
29603	2013-06-14T10:00:00	ND	ND	ND	ND	ND	ND	0.3	272.1	24.7	72.3	516.6	0
29604	2013-06-14T11:00:00	ND	ND	ND	ND	ND	ND	1.4	69	26.8	63.3	571.8	0
29605	2013-06-14T12:00:00	ND	ND	ND	ND	ND	ND	1.7	68.2	27.4	61.2	552	0
29606	2013-06-14T13:00:00	ND	ND	ND	ND	ND	ND	1	64	27.8	59.2	263.8	0
29607	2013-06-14T14:00:00	ND	ND	ND	ND	ND	ND	1.9	220.9	27.7	55	300.5	0
29608	2013-06-14T15:00:00	ND	ND	ND	ND	ND	ND	2.8	224.1	28.9	50.3	594	0
29609	2013-06-14T16:00:00	ND	ND	ND	ND	ND	ND	3.4	220.9	28.9	49	427.2	0
29610	2013-06-14T17:00:00	ND	ND	ND	ND	ND	ND	3.1	219.1	27.6	50.9	144	0
29611	2013-06-14T18:00:00	ND	ND	ND	ND	ND	ND	3.3	207.6	26.5	54	34.6	0
29612	2013-06-14T19:00:00	ND	ND	ND	ND	ND	ND	2.1	172.9	25	57.4	0	0
29613	2013-06-14T20:00:00	ND	ND	ND	ND	ND	ND	1.7	124.9	22.2	77.9	0	0.51
29614	2013-06-14T21:00:00	ND	ND	ND	ND	ND	ND	1.2	16.6	21.1	87.1	0	0.25
29615	2013-06-14T22:00:00	ND	ND	ND	ND	ND	ND	0.6	165.6	21.4	85.5	0	0
29616	2013-06-14T23:00:00	ND	ND	ND	ND	ND	ND	0.7	180.4	21.5	84.9	0	0
29617	2013-06-15T00:00:00	ND	ND	ND	ND	ND	ND	1.3	167.4	20.6	89.6	0	0
29618	2013-06-15T01:00:00	ND	ND	ND	ND	ND	ND	1.1	177.8	20.5	89.3	0	0
29619	2013-06-15T02:00:00	ND	ND	ND	ND	ND	ND	0.3	142.8	20.4	87.9	0	0
29620	2013-06-15T03:00:00	ND	ND	ND	ND	ND	ND	0.2	77.9	20.4	87.2	0	0
29621	2013-06-15T04:00:00	ND	ND	ND	ND	ND	ND	0.7	64.1	20.1	89.4	0	0
29622	2013-06-15T05:00:00	ND	ND	ND	ND	ND	ND	0.5	25.2	19.3	93.9	0	0
29623	2013-06-15T06:00:00	ND	ND	ND	ND	ND	ND	0.9	213.4	19.4	88.3	0	0
29624	2013-06-15T07:00:00	ND	ND	ND	ND	ND	ND	0.6	156.3	19.7	88.3	19.8	0
29625	2013-06-15T08:00:00	ND	ND	ND	ND	ND	ND	1.1	149.4	19.8	91	107.4	0
29626	2013-06-15T09:00:00	ND	ND	ND	ND	ND	ND	0.8	159	21.1	83.3	310	0
29627	2013-06-15T10:00:00	ND	ND	ND	ND	ND	ND	0.7	96	23.2	73.4	569.5	0
29628	2013-06-15T11:00:00	ND	ND	ND	ND	ND	ND	1.2	118.2	24.4	68.7	507.4	0
29629	2013-06-15T12:00:00	ND	ND	ND	ND	ND	ND	0.6	87.5	26	61.8	503.9	0
29630	2013-06-15T13:00:00	ND	ND	ND	ND	ND	ND	1.2	91.1	26.7	59.9	494.6	0
29631	2013-06-15T14:00:00	ND	ND	ND	ND	ND	ND	1.5	72.8	27.3	59.3	426.1	0
29632	2013-06-15T15:00:00	ND	ND	ND	ND	ND	ND	1	79.3	28.1	56.6	437.9	0
29633	2013-06-15T16:00:00	ND	ND	ND	ND	ND	ND	1.5	82.9	28.5	56.1	426.6	0
29634	2013-06-15T17:00:00	ND	ND	ND	ND	ND	ND	0.8	248.8	28.9	54.8	278.9	0
29635	2013-06-15T18:00:00	ND	ND	ND	ND	ND	ND	2.2	220.3	28.3	52.7	130.6	0
29636	2013-06-15T19:00:00	ND	ND	ND	ND	ND	ND	3.3	217.6	26.6	57.3	0	0
29637	2013-06-15T20:00:00	ND	ND	ND	ND	ND	ND	3.1	218.5	26	59.7	0	0
29638	2013-06-15T21:00:00	ND	ND	ND	ND	ND	ND	2.5	218.6	25.8	59.8	0	0
29639	2013-06-15T22:00:00	ND	ND	ND	ND	ND	ND	1.9	214.6	25.6	62	0	0
29640	2013-06-15T23:00:00	ND	ND	ND	ND	ND	ND	0.4	52.1	24.1	72.3	0	0
29641	2013-06-16T00:00:00	ND	ND	ND	ND	ND	ND	1.7	205	24.5	68.8	0	0
29642	2013-06-16T01:00:00	ND	ND	ND	ND	ND	ND	0.7	222.8	23.9	70.3	0	0
29643	2013-06-16T02:00:00	ND	ND	ND	ND	ND	ND	0.6	203.1	23.7	70.1	0	0
29644	2013-06-16T03:00:00	ND	ND	ND	ND	ND	ND	0.8	155.5	22.9	79.7	0	0
29645	2013-06-16T04:00:00	ND	ND	ND	ND	ND	ND	0.8	146.2	22.5	83.4	0	0
29646	2013-06-16T05:00:00	ND	ND	ND	ND	ND	ND	0.6	139.6	22.4	82.3	0	0
29647	2013-06-16T06:00:00	ND	ND	ND	ND	ND	ND	0.3	74.9	22.2	82.1	0	0
29648	2013-06-16T07:00:00	ND	ND	ND	ND	ND	ND	0.4	76.3	22.1	83.2	18.3	0
29649	2013-06-16T08:00:00	ND	ND	ND	ND	ND	ND	0.2	207.3	22.7	81	160.6	0
29650	2013-06-16T09:00:00	ND	ND	ND	ND	ND	ND	0.8	115.2	24.4	73	318.3	0
29651	2013-06-16T10:00:00	ND	ND	ND	ND	ND	ND	0.8	104.9	25.7	66	442.7	0
29652	2013-06-16T11:00:00	ND	ND	ND	ND	ND	ND	1.1	76.8	26.3	64.1	358	0
29653	2013-06-16T12:00:00	ND	ND	ND	ND	ND	ND	1	122.1	27.3	61	533.8	0
29654	2013-06-16T13:00:00	ND	ND	ND	ND	ND	ND	1.2	134.5	28.2	58.7	654.6	0
29655	2013-06-16T14:00:00	ND	ND	ND	ND	ND	ND	1.1	128.7	28.8	57.1	540.5	0
29656	2013-06-16T15:00:00	ND	ND	ND	ND	ND	ND	1	133.9	30	52.6	566.6	0
29657	2013-06-16T16:00:00	ND	ND	ND	ND	ND	ND	0.8	49.5	30.3	50.3	296.7	0
29658	2013-06-16T17:00:00	ND	ND	ND	ND	ND	ND	2.7	219	30	48.4	312.4	0
29659	2013-06-16T18:00:00	ND	ND	ND	ND	ND	ND	4	218.1	28.3	51.7	116.9	0
29660	2013-06-16T19:00:00	ND	ND	ND	ND	ND	ND	3.3	218.4	26.7	56.5	0	0
29661	2013-06-16T20:00:00	ND	ND	ND	ND	ND	ND	3.5	218.5	26.3	57.5	0	0
29662	2013-06-16T21:00:00	ND	ND	ND	ND	ND	ND	2.5	216.9	26	57	0	0
29663	2013-06-16T22:00:00	ND	ND	ND	ND	ND	ND	1.1	109.3	25	65	0	0
29664	2013-06-16T23:00:00	ND	ND	ND	ND	ND	ND	0.4	166.3	24.2	67.2	0	0
29665	2013-06-17T00:00:00	ND	ND	ND	ND	ND	ND	0.4	113.8	22.9	74.6	0	0
29666	2013-06-17T01:00:00	ND	ND	ND	ND	ND	ND	1.2	179.4	23.2	76.5	0	0
29667	2013-06-17T02:00:00	ND	ND	ND	ND	ND	ND	0.4	106.5	22.4	78.1	0	0
29668	2013-06-17T03:00:00	ND	ND	ND	ND	ND	ND	0.7	117.5	22.2	80.4	0	0
29669	2013-06-17T04:00:00	ND	ND	ND	ND	ND	ND	0.7	147.7	21.8	81.6	0	0
29670	2013-06-17T05:00:00	ND	ND	ND	ND	ND	ND	0.8	129.2	21.7	81.2	0	0
29671	2013-06-17T06:00:00	ND	ND	ND	ND	ND	ND	0.6	147.1	21.6	82.5	0	0
29672	2013-06-17T07:00:00	ND	ND	ND	ND	ND	ND	0.8	176.2	21.7	80.7	34.3	0
29673	2013-06-17T08:00:00	ND	ND	ND	ND	ND	ND	1.1	202.7	22.7	73.9	124.3	0
29674	2013-06-17T09:00:00	ND	ND	ND	ND	ND	ND	1.7	175.2	24.9	66.7	412.4	0
29675	2013-06-17T10:00:00	ND	ND	ND	ND	ND	ND	1.8	155.1	26.2	63.1	585.3	0
29676	2013-06-17T11:00:00	ND	ND	ND	ND	ND	ND	1.4	154.3	27.6	57.4	741.2	0
29677	2013-06-17T12:00:00	ND	ND	ND	ND	ND	ND	1.3	145	29.5	50	846.2	0
29678	2013-06-17T13:00:00	ND	ND	ND	ND	ND	ND	0.6	78	30	48.6	498.2	0
29679	2013-06-17T14:00:00	ND	ND	ND	ND	ND	ND	0.6	2.7	30.1	48	420.5	0
29680	2013-06-17T15:00:00	ND	ND	ND	ND	ND	ND	3.3	219.2	29.5	47.8	390.9	0
29681	2013-06-17T16:00:00	ND	ND	ND	ND	ND	ND	3.1	217.1	30.1	45.2	391.8	0
29682	2013-06-17T17:00:00	ND	ND	ND	ND	ND	ND	2.9	218.2	30.4	44.1	354.2	0
29683	2013-06-17T18:00:00	ND	ND	ND	ND	ND	ND	3.4	218.1	29	48.1	127.4	0
29684	2013-06-17T19:00:00	ND	ND	ND	ND	ND	ND	3.4	216.5	27.1	54.6	0	0
29685	2013-06-17T20:00:00	ND	ND	ND	ND	ND	ND	3.2	218.7	26.4	57.8	0	0
29686	2013-06-17T21:00:00	ND	ND	ND	ND	ND	ND	1.6	216.9	26	59.7	0	0
29687	2013-06-17T22:00:00	ND	ND	ND	ND	ND	ND	1.1	117.5	25	68.8	0	0
29688	2013-06-17T23:00:00	ND	ND	ND	ND	ND	ND	1	194.4	24.6	69.1	0	0
29689	2013-06-18T00:00:00	ND	ND	ND	ND	ND	ND	1.4	218.4	24.3	65.7	0	0
29690	2013-06-18T01:00:00	ND	ND	ND	ND	ND	ND	0.4	86.6	23.9	72.2	0	0
29691	2013-06-18T02:00:00	ND	ND	ND	ND	ND	ND	0.6	144.5	23.4	75.4	0	0
29692	2013-06-18T03:00:00	ND	ND	ND	ND	ND	ND	0.6	73.4	23.2	76.3	0	0
29693	2013-06-18T04:00:00	ND	ND	ND	ND	ND	ND	0.4	147.2	22.9	77.3	0	0
29694	2013-06-18T05:00:00	ND	ND	ND	ND	ND	ND	0.5	69.4	22.5	78	0	0
29695	2013-06-18T06:00:00	ND	ND	ND	ND	ND	ND	0.7	51.1	21.9	82.9	0	0
29696	2013-06-18T07:00:00	ND	ND	ND	ND	ND	ND	0.4	24.5	22.2	80.7	26	0
29697	2013-06-18T08:00:00	ND	ND	ND	ND	ND	ND	0.3	50.6	22.8	77	115.6	0
29698	2013-06-18T09:00:00	ND	ND	ND	ND	ND	ND	0.7	81.6	24.5	70.3	360.2	0
29699	2013-06-18T10:00:00	ND	ND	ND	ND	ND	ND	0.9	138.8	25.8	64.5	504.9	0
29700	2013-06-18T11:00:00	ND	ND	ND	ND	ND	ND	1.2	133.6	27.5	57.9	685.4	0
29701	2013-06-18T12:00:00	ND	ND	ND	ND	ND	ND	1.1	141.2	28	55	402.9	0
29702	2013-06-18T13:00:00	ND	ND	ND	ND	ND	ND	0.6	114	28.6	53.5	541.5	0
29703	2013-06-18T14:00:00	ND	ND	ND	ND	ND	ND	1.4	82.8	29.8	50.2	605.8	0
29704	2013-06-18T15:00:00	ND	ND	ND	ND	ND	ND	0.9	182.7	30.6	48.1	662.7	0
29705	2013-06-18T16:00:00	ND	ND	ND	ND	ND	ND	1.2	185.5	31	45.8	408.7	0
29706	2013-06-18T17:00:00	ND	ND	ND	ND	ND	ND	1.2	66.2	30.4	49	122.5	0
29707	2013-06-18T18:00:00	ND	ND	ND	ND	ND	ND	2.6	219.7	29	52.3	25.9	0
29708	2013-06-18T19:00:00	ND	ND	ND	ND	ND	ND	3.4	219.5	27.3	57.8	0	0
29709	2013-06-18T20:00:00	ND	ND	ND	ND	ND	ND	4.5	218.9	26.9	58.2	0	0
29710	2013-06-18T21:00:00	ND	ND	ND	ND	ND	ND	2.8	220.5	26.9	57.8	0	0
29711	2013-06-18T22:00:00	ND	ND	ND	ND	ND	ND	0.2	72.4	25.9	64.9	0	0
29712	2013-06-18T23:00:00	ND	ND	ND	ND	ND	ND	0.3	235.9	25.3	68.4	0	0
29713	2013-06-19T00:00:00	ND	ND	ND	ND	ND	ND	0.9	146.9	25.3	67.1	0	0
29714	2013-06-19T01:00:00	ND	ND	ND	ND	ND	ND	2.5	190.5	24.5	72.8	0	0
29715	2013-06-19T02:00:00	ND	ND	ND	ND	ND	ND	1.7	190.2	24.3	74.3	0	0
29716	2013-06-19T03:00:00	ND	ND	ND	ND	ND	ND	2.5	217.2	23.1	73.3	0	1.78
29717	2013-06-19T04:00:00	ND	ND	ND	ND	ND	ND	1.2	228.8	23.2	69.5	0	1.52
29718	2013-06-19T05:00:00	ND	ND	ND	ND	ND	ND	0.7	163.2	21.2	86.5	0	17.78
29719	2013-06-19T06:00:00	ND	ND	ND	ND	ND	ND	2.7	212.8	20.8	80.7	0	0.51
29720	2013-06-19T07:00:00	ND	ND	ND	ND	ND	ND	0.8	217.4	21.3	78.8	19.1	0.25
29721	2013-06-19T08:00:00	ND	ND	ND	ND	ND	ND	0.3	260.2	22.2	78.2	133.2	0
29722	2013-06-19T09:00:00	ND	ND	ND	ND	ND	ND	0.5	49.7	24	70.5	366.2	0
29723	2013-06-19T10:00:00	ND	ND	ND	ND	ND	ND	0.4	77.1	25.7	61.6	599.9	0
29724	2013-06-19T11:00:00	ND	ND	ND	ND	ND	ND	0.5	82.5	27.3	54.5	739.6	0
29725	2013-06-19T12:00:00	ND	ND	ND	ND	ND	ND	1.1	79.5	28.4	51.4	680.9	0
29726	2013-06-19T13:00:00	ND	ND	ND	ND	ND	ND	1.4	76.2	28.2	53	352	0
29727	2013-06-19T14:00:00	ND	ND	ND	ND	ND	ND	0.9	228.1	29.2	50.2	600.9	0
29728	2013-06-19T15:00:00	ND	ND	ND	ND	ND	ND	0.5	200.7	29.7	48.7	352.8	0
29729	2013-06-19T16:00:00	ND	ND	ND	ND	ND	ND	2.7	219.9	28.8	50.4	225.7	0
29730	2013-06-19T17:00:00	ND	ND	ND	ND	ND	ND	3.2	217.1	28.2	52.5	120.1	0
29731	2013-06-19T18:00:00	ND	ND	ND	ND	ND	ND	3.5	218.2	27.1	55.2	43.5	0
29732	2013-06-19T19:00:00	ND	ND	ND	ND	ND	ND	2.9	218.3	26.2	56.6	0	0
29733	2013-06-19T20:00:00	ND	ND	ND	ND	ND	ND	2	217.2	25.8	58	0	0
29734	2013-06-19T21:00:00	ND	ND	ND	ND	ND	ND	2.3	217.6	25.3	60.1	0	0
29735	2013-06-19T22:00:00	ND	ND	ND	ND	ND	ND	1.6	219	25	62.1	0	0
29736	2013-06-19T23:00:00	ND	ND	ND	ND	ND	ND	0.8	86	23.5	72.4	0	0
29737	2013-06-20T00:00:00	ND	ND	ND	ND	ND	ND	0.2	118.2	23.8	70.4	0	0
29738	2013-06-20T01:00:00	ND	ND	ND	ND	ND	ND	0.7	75.8	23.1	74.7	0	0
29739	2013-06-20T02:00:00	ND	ND	ND	ND	ND	ND	0.8	148.6	22.8	80.6	0	0
29740	2013-06-20T03:00:00	ND	ND	ND	ND	ND	ND	1.4	144	22	83.8	0	0
29741	2013-06-20T04:00:00	ND	ND	ND	ND	ND	ND	0.8	154	21.6	85.4	0	0
29742	2013-06-20T05:00:00	ND	ND	ND	ND	ND	ND	0.6	164.9	21.6	85	0	0
29743	2013-06-20T06:00:00	ND	ND	ND	ND	ND	ND	0.6	154.1	21.5	84.5	0	0
29744	2013-06-20T07:00:00	ND	ND	ND	ND	ND	ND	0.6	143.1	21.7	83.2	19.6	0
29745	2013-06-20T08:00:00	ND	ND	ND	ND	ND	ND	0.7	130.9	22.2	80.7	73.6	0
29746	2013-06-20T09:00:00	ND	ND	ND	ND	ND	ND	0.8	91	24	73	331.4	0
29747	2013-06-20T10:00:00	ND	ND	ND	ND	ND	ND	1	104	25.8	64.7	494.9	0
29748	2013-06-20T11:00:00	ND	ND	ND	ND	ND	ND	1	102.6	26.9	60.4	530.7	0
29749	2013-06-20T12:00:00	ND	ND	ND	ND	ND	ND	1.2	92	28.3	56.1	672.3	0
29750	2013-06-20T13:00:00	ND	ND	ND	ND	ND	ND	1.6	89.9	29.2	51.7	742.2	0
29751	2013-06-20T14:00:00	ND	ND	ND	ND	ND	ND	0.8	117.7	30.4	46.5	773	0
29752	2013-06-20T15:00:00	ND	ND	ND	ND	ND	ND	1.3	62.7	31	44	473.2	0
29753	2013-06-20T16:00:00	ND	ND	ND	ND	ND	ND	2.8	222.8	29	50.1	129.7	0
29754	2013-06-20T17:00:00	ND	ND	ND	ND	ND	ND	3.7	218.4	27.9	51.4	196.7	0
29755	2013-06-20T18:00:00	ND	ND	ND	ND	ND	ND	2.8	219.1	27.5	52.5	56.6	0
29756	2013-06-20T19:00:00	ND	ND	ND	ND	ND	ND	3.2	218.8	26.3	55.5	0	0
29757	2013-06-20T20:00:00	ND	ND	ND	ND	ND	ND	5.3	217.5	25.6	57.8	0	0
29758	2013-06-20T21:00:00	ND	ND	ND	ND	ND	ND	2.5	222.8	25.7	56.3	0	0
29759	2013-06-20T22:00:00	ND	ND	ND	ND	ND	ND	0.7	129.3	24.6	63.3	0	0
29760	2013-06-20T23:00:00	ND	ND	ND	ND	ND	ND	2	209.5	24.6	61.9	0	0
29761	2013-06-21T00:00:00	ND	ND	ND	ND	ND	ND	1.3	209.2	23.4	71	0	0
29762	2013-06-21T01:00:00	ND	ND	ND	ND	ND	ND	1.4	212.9	23.7	66.5	0	0
29763	2013-06-21T02:00:00	ND	ND	ND	ND	ND	ND	0.4	196.7	23	70.7	0	0
29764	2013-06-21T03:00:00	ND	ND	ND	ND	ND	ND	0.3	128.5	22.1	77.8	0	0
29765	2013-06-21T04:00:00	ND	ND	ND	ND	ND	ND	0.6	70.3	21.4	81	0	0
29766	2013-06-21T05:00:00	ND	ND	ND	ND	ND	ND	0.7	150	21.4	81.5	0	0
29767	2013-06-21T06:00:00	ND	ND	ND	ND	ND	ND	0.4	138.2	21.1	83.7	0	0
29768	2013-06-21T07:00:00	ND	ND	ND	ND	ND	ND	1.3	213.8	21.4	75.2	50.9	0
29769	2013-06-21T08:00:00	ND	ND	ND	ND	ND	ND	0.7	190.7	22.7	72.6	165.1	0
29770	2013-06-21T09:00:00	ND	ND	ND	ND	ND	ND	0.9	207.3	24.3	66.9	391.3	0
29771	2013-06-21T10:00:00	ND	ND	ND	ND	ND	ND	1.2	125.6	26.2	60.3	581.4	0
29772	2013-06-21T11:00:00	ND	ND	ND	ND	ND	ND	1.2	97.1	27	58.4	674.1	0
29773	2013-06-21T12:00:00	ND	ND	ND	ND	ND	ND	1.1	93.3	28.5	53.6	810.9	0
29774	2013-06-21T13:00:00	ND	ND	ND	ND	ND	ND	1.5	84.4	29.6	51	613.4	0
29775	2013-06-21T14:00:00	ND	ND	ND	ND	ND	ND	0.8	83.6	30	49.7	309	0
29776	2013-06-21T15:00:00	ND	ND	ND	ND	ND	ND	0.9	212.2	30.3	47	329.9	0
29777	2013-06-21T16:00:00	ND	ND	ND	ND	ND	ND	3	218.2	30.5	44.5	446.9	0
29778	2013-06-21T17:00:00	ND	ND	ND	ND	ND	ND	3.7	218.4	30	45.4	320.1	0
29779	2013-06-21T18:00:00	ND	ND	ND	ND	ND	ND	3.7	218.6	28	50.8	68.6	0
29780	2013-06-21T19:00:00	ND	ND	ND	ND	ND	ND	4.2	217.8	26.8	55.1	0	0
29781	2013-06-21T20:00:00	ND	ND	ND	ND	ND	ND	3.8	217.9	26.2	57.3	0	0
29782	2013-06-21T21:00:00	ND	ND	ND	ND	ND	ND	2.3	221.2	26.1	57.6	0	0
29783	2013-06-21T22:00:00	ND	ND	ND	ND	ND	ND	1	111	24.9	65	0	0
29784	2013-06-21T23:00:00	ND	ND	ND	ND	ND	ND	0.8	210.9	24.8	64.1	0	0
29785	2013-06-22T00:00:00	ND	ND	ND	ND	ND	ND	0.7	168.9	23.7	71.4	0	0
29786	2013-06-22T01:00:00	ND	ND	ND	ND	ND	ND	1.9	200.9	23.5	72.3	0	0
29787	2013-06-22T02:00:00	ND	ND	ND	ND	ND	ND	1.1	189.4	23.8	69.6	0	0
29788	2013-06-22T03:00:00	ND	ND	ND	ND	ND	ND	0.8	183.5	23.4	72.9	0	0
29789	2013-06-22T04:00:00	ND	ND	ND	ND	ND	ND	0.6	143.2	23	74.9	0	0
29790	2013-06-22T05:00:00	ND	ND	ND	ND	ND	ND	0.4	100.3	22.4	78	0	0
29791	2013-06-22T06:00:00	ND	ND	ND	ND	ND	ND	0.6	212.7	22.1	76.5	0	0
29792	2013-06-22T07:00:00	ND	ND	ND	ND	ND	ND	0.7	217.7	22.1	73.6	32.7	0
29793	2013-06-22T08:00:00	ND	ND	ND	ND	ND	ND	0.5	82.2	23.4	73.1	202.8	0
29794	2013-06-22T09:00:00	ND	ND	ND	ND	ND	ND	1.1	106.4	24.4	69.1	223.3	0
29795	2013-06-22T10:00:00	ND	ND	ND	ND	ND	ND	0.7	82.2	25.8	64.2	493.7	0
29796	2013-06-22T11:00:00	ND	ND	ND	ND	ND	ND	1.2	153.3	27.5	56.9	667.9	0
29797	2013-06-22T12:00:00	ND	ND	ND	ND	ND	ND	0.8	121.3	28.8	52	604.3	0
29798	2013-06-22T13:00:00	ND	ND	ND	ND	ND	ND	0.9	82.9	30.1	48.8	743.5	0
29799	2013-06-22T14:00:00	ND	ND	ND	ND	ND	ND	0.9	54.9	30.6	48.1	448.3	0
29800	2013-06-22T15:00:00	ND	ND	ND	ND	ND	ND	1.6	218.2	30.4	46.7	256.2	0
29801	2013-06-22T16:00:00	ND	ND	ND	ND	ND	ND	4	218.6	30.3	45.3	434.3	0
29802	2013-06-22T17:00:00	ND	ND	ND	ND	ND	ND	4.1	219.1	29.8	46.4	319.3	0
29803	2013-06-22T18:00:00	ND	ND	ND	ND	ND	ND	3.5	218.1	28.6	50	106.5	0
29804	2013-06-22T19:00:00	ND	ND	ND	ND	ND	ND	3.6	218.4	27.1	55.4	0	0
29805	2013-06-22T20:00:00	ND	ND	ND	ND	ND	ND	3.3	219.2	26.5	57.5	0	0
29806	2013-06-22T21:00:00	ND	ND	ND	ND	ND	ND	2.2	219.2	26.1	59.3	0	0
29807	2013-06-22T22:00:00	ND	ND	ND	ND	ND	ND	0.4	91.9	25.3	64.5	0	0
29808	2013-06-22T23:00:00	ND	ND	ND	ND	ND	ND	2.1	211.6	25.3	62.9	0	0
29809	2013-06-23T00:00:00	ND	ND	ND	ND	ND	ND	0.5	226.5	24.5	68.7	0	0
29810	2013-06-23T01:00:00	ND	ND	ND	ND	ND	ND	0.5	91.3	23.5	75.4	0	0
29811	2013-06-23T02:00:00	ND	ND	ND	ND	ND	ND	1.2	182.6	23.6	74.2	0	0
29812	2013-06-23T03:00:00	ND	ND	ND	ND	ND	ND	0.8	147.3	23.3	75.6	0	0
29813	2013-06-23T04:00:00	ND	ND	ND	ND	ND	ND	0.8	164.5	22.8	78.4	0	0
29814	2013-06-23T05:00:00	ND	ND	ND	ND	ND	ND	0.6	212.5	23	74.4	0	0
29815	2013-06-23T06:00:00	ND	ND	ND	ND	ND	ND	0.2	247.8	22.9	75.9	0	0
29816	2013-06-23T07:00:00	ND	ND	ND	ND	ND	ND	0.7	141.2	22.7	78.3	24.2	0
29817	2013-06-23T08:00:00	ND	ND	ND	ND	ND	ND	0.6	150.9	22.8	77.6	120.4	0
29818	2013-06-23T09:00:00	ND	ND	ND	ND	ND	ND	0.6	84.7	24.3	70.9	215.3	0
29819	2013-06-23T10:00:00	ND	ND	ND	ND	ND	ND	0.4	117.2	26.3	62.4	498.2	0
29820	2013-06-23T11:00:00	ND	ND	ND	ND	ND	ND	0.9	62.5	27.2	60.7	410.1	0
29821	2013-06-23T12:00:00	ND	ND	ND	ND	ND	ND	1.3	83.3	28.2	56.6	549.6	0
29822	2013-06-23T13:00:00	ND	ND	ND	ND	ND	ND	1	76.2	28.6	55.4	422.7	0
29823	2013-06-23T14:00:00	ND	ND	ND	ND	ND	ND	0.9	117.5	29.5	52.7	554.6	0
29824	2013-06-23T15:00:00	ND	ND	ND	ND	ND	ND	1.1	151.2	30.4	50.1	489.6	0
29825	2013-06-23T16:00:00	ND	ND	ND	ND	ND	ND	0.8	195	30	50.5	216.8	0
29826	2013-06-23T17:00:00	ND	ND	ND	ND	ND	ND	3.2	218.6	28.9	52	152.9	0
29827	2013-06-23T18:00:00	ND	ND	ND	ND	ND	ND	3.9	219	27.3	56.3	80.9	0
29828	2013-06-23T19:00:00	ND	ND	ND	ND	ND	ND	4.1	219.5	26.2	59.4	0	0
29829	2013-06-23T20:00:00	ND	ND	ND	ND	ND	ND	4.3	218.4	25.8	59.9	0	0
29830	2013-06-23T21:00:00	ND	ND	ND	ND	ND	ND	2.8	222.3	26	58.1	0	0
29831	2013-06-23T22:00:00	ND	ND	ND	ND	ND	ND	1	95.4	24.7	67.4	0	0
29832	2013-06-23T23:00:00	ND	ND	ND	ND	ND	ND	0.5	112.7	24.6	67.5	0	0
29833	2013-06-24T00:00:00	ND	ND	ND	ND	ND	ND	1.2	143.9	24.1	70.6	0	0
29834	2013-06-24T01:00:00	ND	ND	ND	ND	ND	ND	0.8	152.7	23.9	72.8	0	0
29835	2013-06-24T02:00:00	ND	ND	ND	ND	ND	ND	0.7	69.6	23.6	74.5	0	0
29836	2013-06-24T03:00:00	ND	ND	ND	ND	ND	ND	0.8	146.3	23.4	75.5	0	0
29837	2013-06-24T04:00:00	ND	ND	ND	ND	ND	ND	1.4	166.2	22.9	76.4	0	0
29838	2013-06-24T05:00:00	ND	ND	ND	ND	ND	ND	1.2	176.9	22.8	76.9	0	0
29839	2013-06-24T06:00:00	ND	ND	ND	ND	ND	ND	1.6	191.7	22.8	77.5	0	0
29840	2013-06-24T07:00:00	ND	ND	ND	ND	ND	ND	1	189.6	23	75.7	22.9	0
29841	2013-06-24T08:00:00	ND	ND	ND	ND	ND	ND	0.9	169.7	23.6	73.2	91.6	0
29842	2013-06-24T09:00:00	ND	ND	ND	ND	ND	ND	1.1	159.4	24.4	70.2	178.5	0
29843	2013-06-24T10:00:00	ND	ND	ND	ND	ND	ND	0.8	58.6	26.3	63.4	558.9	0
29844	2013-06-24T11:00:00	ND	ND	ND	ND	ND	ND	1.4	51.2	27.5	57.9	569.8	0
29845	2013-06-24T12:00:00	ND	ND	ND	ND	ND	ND	1.3	57.1	28.2	55.4	479	0
29846	2013-06-24T13:00:00	ND	ND	ND	ND	ND	ND	1.3	224.8	29	50.5	694.8	0
29847	2013-06-24T14:00:00	ND	ND	ND	ND	ND	ND	3.3	217.8	30	45.4	764.8	0
29848	2013-06-24T15:00:00	ND	ND	ND	ND	ND	ND	4.2	218.3	29.9	45	536.1	0
29849	2013-06-24T16:00:00	ND	ND	ND	ND	ND	ND	4.6	219.2	29.3	45.9	457.7	0
29850	2013-06-24T17:00:00	ND	ND	ND	ND	ND	ND	4.5	218.9	27.9	49.4	226.7	0
29851	2013-06-24T18:00:00	ND	ND	ND	ND	ND	ND	4.3	219.5	26.9	52.3	138.7	0
29852	2013-06-24T19:00:00	ND	ND	ND	ND	ND	ND	5.4	217.6	25.8	55.8	4.3	0
29853	2013-06-24T20:00:00	ND	ND	ND	ND	ND	ND	4.2	218.6	25.6	57	0	0
29854	2013-06-24T21:00:00	ND	ND	ND	ND	ND	ND	3.5	217.6	25.1	59.3	0	0
29855	2013-06-24T22:00:00	ND	ND	ND	ND	ND	ND	2.8	214.9	24.7	60.7	0	0
29856	2013-06-24T23:00:00	ND	ND	ND	ND	ND	ND	1.2	211.7	24.9	60.2	0	0
29857	2013-06-25T00:00:00	ND	ND	ND	ND	ND	ND	0.5	188.2	24.1	65.8	0	0
29858	2013-06-25T01:00:00	ND	ND	ND	ND	ND	ND	0.5	66.9	23.2	73.8	0	0
29859	2013-06-25T02:00:00	ND	ND	ND	ND	ND	ND	0.1	101	23.1	73.2	0	0
29860	2013-06-25T03:00:00	ND	ND	ND	ND	ND	ND	0.8	56.3	22.9	75.6	0	0
29861	2013-06-25T04:00:00	ND	ND	ND	ND	ND	ND	0.9	53.1	21.9	81.2	0	0
29862	2013-06-25T05:00:00	ND	ND	ND	ND	ND	ND	0.6	71.7	21.4	82.1	0	0
29863	2013-06-25T06:00:00	ND	ND	ND	ND	ND	ND	1	176.1	21.8	81.2	0	0
29864	2013-06-25T07:00:00	ND	ND	ND	ND	ND	ND	1.6	164	21.7	82.7	19.5	0
29865	2013-06-25T08:00:00	ND	ND	ND	ND	ND	ND	1.1	144.5	21.8	82.3	88.5	0
29866	2013-06-25T09:00:00	ND	ND	ND	ND	ND	ND	0.8	110.5	23	76.5	276	0
29867	2013-06-25T10:00:00	ND	ND	ND	ND	ND	ND	1.4	98.8	25	67	598.3	0
29868	2013-06-25T11:00:00	ND	ND	ND	ND	ND	ND	1	122.2	26.4	58.2	379.5	0
29869	2013-06-25T12:00:00	ND	ND	ND	ND	ND	ND	0.9	93	26.8	57	280.8	0
29870	2013-06-25T13:00:00	ND	ND	ND	ND	ND	ND	0.1	341.1	28.7	49.7	772.9	0
29871	2013-06-25T14:00:00	ND	ND	ND	ND	ND	ND	0.8	93.4	29.7	47.1	569	0
29872	2013-06-25T15:00:00	ND	ND	ND	ND	ND	ND	1.4	179.3	28.9	50.5	119.9	0
29873	2013-06-25T16:00:00	ND	ND	ND	ND	ND	ND	3.6	220	27.4	53.7	86.6	0
29874	2013-06-25T17:00:00	ND	ND	ND	ND	ND	ND	3.4	218.7	27.3	53.7	191.9	0
29875	2013-06-25T18:00:00	ND	ND	ND	ND	ND	ND	2.2	220.2	27.2	53.1	73.7	0
29876	2013-06-25T19:00:00	ND	ND	ND	ND	ND	ND	2.6	220	26.6	54.9	5.9	0
29877	2013-06-25T20:00:00	ND	ND	ND	ND	ND	ND	2.9	219.5	26	56.8	0	0
29878	2013-06-25T21:00:00	ND	ND	ND	ND	ND	ND	2.2	220.1	25.9	57.5	0	0
29879	2013-06-25T22:00:00	ND	ND	ND	ND	ND	ND	2.8	220.5	25.6	59.7	0	0
29880	2013-06-25T23:00:00	ND	ND	ND	ND	ND	ND	2.3	218.6	25.4	60.6	0	0
29881	2013-06-26T00:00:00	ND	ND	ND	ND	ND	ND	2.1	192.6	24.7	66.8	0	0
29882	2013-06-26T01:00:00	ND	ND	ND	ND	ND	ND	1.4	186.1	24	71.6	0	0
29883	2013-06-26T02:00:00	ND	ND	ND	ND	ND	ND	0.7	176.8	23.8	72.4	0	0
29884	2013-06-26T03:00:00	ND	ND	ND	ND	ND	ND	1	198.7	23.6	73.4	0	0
29885	2013-06-26T04:00:00	ND	ND	ND	ND	ND	ND	0.8	168.5	23.5	72.9	0	0
29886	2013-06-26T05:00:00	ND	ND	ND	ND	ND	ND	0.6	129.3	22.7	80.1	0	0
29887	2013-06-26T06:00:00	ND	ND	ND	ND	ND	ND	0.6	117.4	22.4	81.4	0	0
29888	2013-06-26T07:00:00	ND	ND	ND	ND	ND	ND	1	133.3	22.3	80.9	17.4	0
29889	2013-06-26T08:00:00	ND	ND	ND	ND	ND	ND	0.5	130.3	22.9	78.1	75	0
29890	2013-06-26T09:00:00	ND	ND	ND	ND	ND	ND	1.3	185.3	24.1	71.2	263.1	0
29891	2013-06-26T10:00:00	ND	ND	ND	ND	ND	ND	1.4	155.9	26.4	61.2	558.6	0
29892	2013-06-26T11:00:00	ND	ND	ND	ND	ND	ND	1.6	162.3	27.9	55.8	705.7	0
29893	2013-06-26T12:00:00	ND	ND	ND	ND	ND	ND	1.3	140.5	29	52.4	844.3	0
29894	2013-06-26T13:00:00	ND	ND	ND	ND	ND	ND	0.7	148.3	30.1	48.5	711.6	0
29895	2013-06-26T14:00:00	ND	ND	ND	ND	ND	ND	1	99.7	31	44.9	497	0
29896	2013-06-26T15:00:00	ND	ND	ND	ND	ND	ND	2.4	217.6	30.4	47.5	413.7	0
29897	2013-06-26T16:00:00	ND	ND	ND	ND	ND	ND	4.4	218.3	29.3	50.7	425.6	0
29898	2013-06-26T17:00:00	ND	ND	ND	ND	ND	ND	3.5	220.8	29.4	49.1	336.7	0
29899	2013-06-26T18:00:00	ND	ND	ND	ND	ND	ND	3.3	220.6	28.2	51.8	93.2	0
29900	2013-06-26T19:00:00	ND	ND	ND	ND	ND	ND	3.5	218.8	27.1	54.2	0	0
29901	2013-06-26T20:00:00	ND	ND	ND	ND	ND	ND	3.5	220.4	26.7	55	0	0
29902	2013-06-26T21:00:00	ND	ND	ND	ND	ND	ND	3.1	220.7	26.3	57	0	0
29903	2013-06-26T22:00:00	ND	ND	ND	ND	ND	ND	3	212.6	25.7	60	0	0
29904	2013-06-26T23:00:00	ND	ND	ND	ND	ND	ND	1.8	207.4	24.9	65.1	0	0
29905	2013-06-27T00:00:00	ND	ND	ND	ND	ND	ND	1	209	24.7	65.4	0	0
29906	2013-06-27T01:00:00	ND	ND	ND	ND	ND	ND	0.3	250.6	23.8	71.4	0	0
29907	2013-06-27T02:00:00	ND	ND	ND	ND	ND	ND	0.3	39.7	23.2	74.9	0	0
29908	2013-06-27T03:00:00	ND	ND	ND	ND	ND	ND	0.6	140	22.9	75.9	0	0
29909	2013-06-27T04:00:00	ND	ND	ND	ND	ND	ND	0.2	142.7	23.1	75.1	0	0
29910	2013-06-27T05:00:00	ND	ND	ND	ND	ND	ND	0.6	169.1	23.1	74.7	0	0
29911	2013-06-27T06:00:00	ND	ND	ND	ND	ND	ND	0.5	216.8	23.3	72.9	0	0
29912	2013-06-27T07:00:00	ND	ND	ND	ND	ND	ND	0.3	81.4	23.2	73	17.9	0
29913	2013-06-27T08:00:00	ND	ND	ND	ND	ND	ND	0.7	179.2	23	76.9	99.8	0
29914	2013-06-27T09:00:00	ND	ND	ND	ND	ND	ND	1	201.1	24.1	70.4	104.7	0
29915	2013-06-27T10:00:00	ND	ND	ND	ND	ND	ND	1.5	141	25.4	64.9	276.5	0
29916	2013-06-27T11:00:00	ND	ND	ND	ND	ND	ND	1.5	126.4	25.8	63.9	291.7	0
29917	2013-06-27T12:00:00	ND	ND	ND	ND	ND	ND	0.5	157.4	27.1	58.7	646.5	0
29918	2013-06-27T13:00:00	ND	ND	ND	ND	ND	ND	0.7	130.2	29.2	51	688	0
29919	2013-06-27T14:00:00	ND	ND	ND	ND	ND	ND	0.9	147.6	30.3	48.4	688.2	0
29920	2013-06-27T15:00:00	ND	ND	ND	ND	ND	ND	2.1	223.6	30.6	47.2	523.5	0
29921	2013-06-27T16:00:00	ND	ND	ND	ND	ND	ND	3.8	220.7	29.8	46.9	430.5	0
29922	2013-06-27T17:00:00	ND	ND	ND	ND	ND	ND	4.3	220.7	28.8	49.9	229.2	0
29923	2013-06-27T18:00:00	ND	ND	ND	ND	ND	ND	3.7	219.3	26.7	55.5	41.4	0
29924	2013-06-27T19:00:00	ND	ND	ND	ND	ND	ND	2.5	220.5	26.1	56.1	0	0
29925	2013-06-27T20:00:00	ND	ND	ND	ND	ND	ND	4.2	220	25	58.3	0	0
29926	2013-06-27T21:00:00	ND	ND	ND	ND	ND	ND	5.3	215.6	24.1	57.7	0	0
29927	2013-06-27T22:00:00	ND	ND	ND	ND	ND	ND	2.4	221.3	24.6	55.1	0	0
29928	2013-06-27T23:00:00	ND	ND	ND	ND	ND	ND	1.7	201.8	24.5	60.2	0	0
29929	2013-06-28T00:00:00	ND	ND	ND	ND	ND	ND	1.5	143.5	23	68.6	0	0
29930	2013-06-28T01:00:00	ND	ND	ND	ND	ND	ND	0.9	158	22.3	73.5	0	0
29931	2013-06-28T02:00:00	ND	ND	ND	ND	ND	ND	0.6	169.7	22.3	74.2	0	0
29932	2013-06-28T03:00:00	ND	ND	ND	ND	ND	ND	0.5	180.9	22.1	74.5	0	0
29933	2013-06-28T04:00:00	ND	ND	ND	ND	ND	ND	1.2	176.7	22	75.8	0	0
29934	2013-06-28T05:00:00	ND	ND	ND	ND	ND	ND	1	147	21.5	79.2	0	0
29935	2013-06-28T06:00:00	ND	ND	ND	ND	ND	ND	0.9	152.5	21.4	79.2	0	0
29936	2013-06-28T07:00:00	ND	ND	ND	ND	ND	ND	1.1	191.2	21.5	77.7	24.9	0
29937	2013-06-28T08:00:00	ND	ND	ND	ND	ND	ND	0.5	214	21.9	76.2	116.6	0
29938	2013-06-28T09:00:00	ND	ND	ND	ND	ND	ND	0.4	172.4	23.6	67.8	291	0
29939	2013-06-28T10:00:00	ND	ND	ND	ND	ND	ND	1.3	61.5	24.9	65.3	427.7	0
29940	2013-06-28T11:00:00	ND	ND	ND	ND	ND	ND	1	66	25.3	61.8	383.7	0
29941	2013-06-28T12:00:00	ND	ND	ND	ND	ND	ND	0.5	100.5	26	58.9	402.3	0
29942	2013-06-28T13:00:00	ND	ND	ND	ND	ND	ND	0.9	33.3	27.8	52.4	792.3	0
29943	2013-06-28T14:00:00	ND	ND	ND	ND	ND	ND	1.6	62.9	28.4	51	630.4	0
29944	2013-06-28T15:00:00	ND	ND	ND	ND	ND	ND	1.8	51.7	27.9	53	209.2	0
29945	2013-06-28T16:00:00	ND	ND	ND	ND	ND	ND	1.4	227.7	27.6	52.6	249.3	0
29946	2013-06-28T17:00:00	ND	ND	ND	ND	ND	ND	3.3	221.1	26.7	53.3	118.4	0
29947	2013-06-28T18:00:00	ND	ND	ND	ND	ND	ND	2.7	221.7	25.8	56.8	37.5	0
29948	2013-06-28T19:00:00	ND	ND	ND	ND	ND	ND	1	220.7	25.1	58.1	0	0
29949	2013-06-28T20:00:00	ND	ND	ND	ND	ND	ND	1.4	222.2	25.1	57.5	0	0
29950	2013-06-28T21:00:00	ND	ND	ND	ND	ND	ND	2.7	216	24.2	63.2	0	0
29951	2013-06-28T22:00:00	ND	ND	ND	ND	ND	ND	2.1	189.5	23.3	71.1	0	0
29952	2013-06-28T23:00:00	ND	ND	ND	ND	ND	ND	1.7	180.3	23.6	67.4	0	0
29953	2013-06-29T00:00:00	ND	ND	ND	ND	ND	ND	1.1	168.2	23.1	68.4	0	0
29954	2013-06-29T01:00:00	ND	ND	ND	ND	ND	ND	0.4	101.2	22.3	72.9	0	0
29955	2013-06-29T02:00:00	ND	ND	ND	ND	ND	ND	0.2	40.1	22.1	75	0	0
29956	2013-06-29T03:00:00	ND	ND	ND	ND	ND	ND	0.2	114.6	22.1	74.7	0	0
29957	2013-06-29T04:00:00	ND	ND	ND	ND	ND	ND	0.4	31.1	21.7	77.5	0	0
29958	2013-06-29T05:00:00	ND	ND	ND	ND	ND	ND	0.6	132.1	20.9	81.4	0	0
29959	2013-06-29T06:00:00	ND	ND	ND	ND	ND	ND	0.5	131.5	21	80.8	0	0
29960	2013-06-29T07:00:00	ND	ND	ND	ND	ND	ND	0.7	212.7	21.3	76.2	18.6	0
29961	2013-06-29T08:00:00	ND	ND	ND	ND	ND	ND	0.7	205.2	22.3	69.6	159.1	0
29962	2013-06-29T09:00:00	ND	ND	ND	ND	ND	ND	1	110.9	23.7	69.7	333.6	0
29963	2013-06-29T10:00:00	ND	ND	ND	ND	ND	ND	0.8	187.7	24.7	64.2	321.4	0
29964	2013-06-29T11:00:00	ND	ND	ND	ND	ND	ND	0.8	196.4	24.8	64.1	174.3	0
29965	2013-06-29T12:00:00	ND	ND	ND	ND	ND	ND	1	179.3	26.5	57.2	545	0
29966	2013-06-29T13:00:00	ND	ND	ND	ND	ND	ND	1	106.8	28.9	47.5	860.4	0
29967	2013-06-29T14:00:00	ND	ND	ND	ND	ND	ND	0.6	104.1	29.7	43.9	522.9	0
29968	2013-06-29T15:00:00	ND	ND	ND	ND	ND	ND	0.7	207.2	29	46.8	213.5	0
29969	2013-06-29T16:00:00	ND	ND	ND	ND	ND	ND	4.2	218.6	27.5	52.3	372.8	0
29970	2013-06-29T17:00:00	ND	ND	ND	ND	ND	ND	4.4	218.3	27.2	51.3	347.8	0
29971	2013-06-29T18:00:00	ND	ND	ND	ND	ND	ND	4.3	218.9	26.5	51.9	150.5	0
29972	2013-06-29T19:00:00	ND	ND	ND	ND	ND	ND	3.9	219.1	25.6	53.6	4.9	0
29973	2013-06-29T20:00:00	ND	ND	ND	ND	ND	ND	3.3	220.2	25.5	53.9	0	0
29974	2013-06-29T21:00:00	ND	ND	ND	ND	ND	ND	3.6	217.5	24.6	59.2	0	0
29975	2013-06-29T22:00:00	ND	ND	ND	ND	ND	ND	2.9	210	24.1	61.4	0	0
29976	2013-06-29T23:00:00	ND	ND	ND	ND	ND	ND	1.1	147.3	23.1	66.2	0	0
29977	2013-06-30T00:00:00	ND	ND	ND	ND	ND	ND	0.4	226.9	23	67.4	0	0
29978	2013-06-30T01:00:00	ND	ND	ND	ND	ND	ND	0.1	182.2	23.1	66.6	0	0
29979	2013-06-30T02:00:00	ND	ND	ND	ND	ND	ND	0.6	52.8	22.4	70.1	0	0
29980	2013-06-30T03:00:00	ND	ND	ND	ND	ND	ND	0.5	293.7	21.6	72.8	0	0
29981	2013-06-30T04:00:00	ND	ND	ND	ND	ND	ND	0.2	300.7	21.4	73.8	0	0
29982	2013-06-30T05:00:00	ND	ND	ND	ND	ND	ND	0.2	163.4	21.5	73.4	0	0
29983	2013-06-30T06:00:00	ND	ND	ND	ND	ND	ND	0.4	176.1	21.4	76.7	0	0
29984	2013-06-30T07:00:00	ND	ND	ND	ND	ND	ND	0.6	25.3	21.4	74.9	11.9	0
29985	2013-06-30T08:00:00	ND	ND	ND	ND	ND	ND	0.6	63.8	21.4	76.3	63.8	0
29986	2013-06-30T09:00:00	ND	ND	ND	ND	ND	ND	1	65.5	21.6	78.5	115	0
29987	2013-06-30T10:00:00	ND	ND	ND	ND	ND	ND	0.1	4.6	22.1	75.9	239.8	0
29988	2013-06-30T11:00:00	ND	ND	ND	ND	ND	ND	1.1	38.2	23.6	67.5	366.7	0
29989	2013-06-30T12:00:00	ND	ND	ND	ND	ND	ND	1.5	60.2	23.9	67.5	322.4	0
29990	2013-06-30T13:00:00	ND	ND	ND	ND	ND	ND	1.3	64.6	24.3	67.2	400.5	0
29991	2013-06-30T14:00:00	ND	ND	ND	ND	ND	ND	0.8	67.2	25.5	60.9	494.4	0
29992	2013-06-30T15:00:00	ND	ND	ND	ND	ND	ND	0.3	227.5	27.1	55.2	647.5	0
29993	2013-06-30T16:00:00	ND	ND	ND	ND	ND	ND	0.6	232.5	28	49.7	452.9	0
29994	2013-06-30T17:00:00	ND	ND	ND	ND	ND	ND	0.8	79.8	27.4	50.8	136.6	0
29995	2013-06-30T18:00:00	ND	ND	ND	ND	ND	ND	1.5	211.6	26.5	51.9	56.4	0
29996	2013-06-30T19:00:00	ND	ND	ND	ND	ND	ND	2.6	219.1	25.4	54.4	4.2	0
29997	2013-06-30T20:00:00	ND	ND	ND	ND	ND	ND	2.6	219.5	24.7	56.5	0	0
29998	2013-06-30T21:00:00	ND	ND	ND	ND	ND	ND	2.5	217.8	24.3	56.9	0	0
29999	2013-06-30T22:00:00	ND	ND	ND	ND	ND	ND	1.7	164.3	23.6	63.9	0	0
30000	2013-06-30T23:00:00	ND	ND	ND	ND	ND	ND	0.6	129.8	23	67.5	0	0
30001	2013-07-01T00:00:00	ND	ND	ND	ND	ND	ND	1	148.9	22.3	71.5	0	0
30002	2013-07-01T01:00:00	ND	ND	ND	ND	ND	ND	1	188.1	21.8	74.4	0	0
30003	2013-07-01T02:00:00	ND	ND	ND	ND	ND	ND	0.7	228.3	21.9	73.2	0	0
30004	2013-07-01T03:00:00	ND	ND	ND	ND	ND	ND	0.7	58.7	21.5	75.9	0	0
30005	2013-07-01T04:00:00	ND	ND	ND	ND	ND	ND	0.3	315.7	20.9	78.8	0	0
30006	2013-07-01T05:00:00	ND	ND	ND	ND	ND	ND	0.1	79	20.3	81.9	0	0
30007	2013-07-01T06:00:00	ND	ND	ND	ND	ND	ND	0.2	245.7	20.5	79.5	0	0
30008	2013-07-01T07:00:00	ND	ND	ND	ND	ND	ND	0.3	27	20.4	81.2	28.6	0
30009	2013-07-01T08:00:00	ND	ND	ND	ND	ND	ND	0.7	67.7	20.9	79.4	127.5	0
30010	2013-07-01T09:00:00	ND	ND	ND	ND	ND	ND	0.5	44.8	22.4	71.2	302.9	0
30011	2013-07-01T10:00:00	ND	ND	ND	ND	ND	ND	0.4	56.3	24.8	60.3	587.7	0
30012	2013-07-01T11:00:00	ND	ND	ND	ND	ND	ND	0.9	42.1	26.4	55.2	637.4	0
30013	2013-07-01T12:00:00	ND	ND	ND	ND	ND	ND	0.2	236.4	27.7	50.8	738.1	0
30014	2013-07-01T13:00:00	ND	ND	ND	ND	ND	ND	1.5	80.8	28.6	47.8	761.3	0
30015	2013-07-01T14:00:00	ND	ND	ND	ND	ND	ND	1.3	69.3	29.3	45.8	634	0
30016	2013-07-01T15:00:00	ND	ND	ND	ND	ND	ND	0.6	69.1	28.7	48.6	160.9	0
30017	2013-07-01T16:00:00	ND	ND	ND	ND	ND	ND	2.8	219.4	28	50.6	300.4	0
30018	2013-07-01T17:00:00	ND	ND	ND	ND	ND	ND	4	218.8	27.2	50.7	255.2	0
30019	2013-07-01T18:00:00	ND	ND	ND	ND	ND	ND	3	219.8	26.3	53	38.6	0
30020	2013-07-01T19:00:00	ND	ND	ND	ND	ND	ND	2.2	219.2	25.7	54.1	0	0
30021	2013-07-01T20:00:00	ND	ND	ND	ND	ND	ND	0.6	66.4	24.6	62	0	0
30022	2013-07-01T21:00:00	ND	ND	ND	ND	ND	ND	1	52.2	22.5	76.4	0	0
30023	2013-07-01T22:00:00	ND	ND	ND	ND	ND	ND	0.7	152.5	22.1	81.2	0	0
30024	2013-07-01T23:00:00	ND	ND	ND	ND	ND	ND	1.7	171.3	21.7	82.6	0	0
30025	2013-07-02T00:00:00	ND	ND	ND	ND	ND	ND	1.2	176.4	21.4	79.9	0	0
30026	2013-07-02T01:00:00	ND	ND	ND	ND	ND	ND	0.8	160.1	21.3	78.9	0	0
30027	2013-07-02T02:00:00	ND	ND	ND	ND	ND	ND	0.3	110.2	21	80.2	0	0
30028	2013-07-02T03:00:00	ND	ND	ND	ND	ND	ND	0.4	29	20.3	85.3	0	0
30029	2013-07-02T04:00:00	ND	ND	ND	ND	ND	ND	1.1	69.7	19.6	88.1	0	0
30030	2013-07-02T05:00:00	ND	ND	ND	ND	ND	ND	0.2	232.6	19.8	88.2	0	0
30031	2013-07-02T06:00:00	ND	ND	ND	ND	ND	ND	0.3	54.8	20.4	83.6	0	0
30032	2013-07-02T07:00:00	ND	ND	ND	ND	ND	ND	0.3	63	20	86.5	12.3	0
30033	2013-07-02T08:00:00	ND	ND	ND	ND	ND	ND	0.6	74	20.8	82.3	69.1	0
30034	2013-07-02T09:00:00	ND	ND	ND	ND	ND	ND	1.1	81.9	21.8	78.6	224.9	0
30035	2013-07-02T10:00:00	ND	ND	ND	ND	ND	ND	1.1	141.9	23	72.7	348.9	0
30036	2013-07-02T11:00:00	ND	ND	ND	ND	ND	ND	1.3	162.8	24.4	66.1	531.5	0
30037	2013-07-02T12:00:00	ND	ND	ND	ND	ND	ND	1	155.5	26.3	57.3	667.7	0
30038	2013-07-02T13:00:00	ND	ND	ND	ND	ND	ND	1	112.7	26.8	55.2	401.4	0
30039	2013-07-02T14:00:00	ND	ND	ND	ND	ND	ND	0.9	93.8	26.9	56.3	289.5	0
30040	2013-07-02T15:00:00	ND	ND	ND	ND	ND	ND	0.5	128	27.3	54.8	291.5	0
30041	2013-07-02T16:00:00	ND	ND	ND	ND	ND	ND	0.9	151	27.8	53.9	407.9	0
30042	2013-07-02T17:00:00	ND	ND	ND	ND	ND	ND	2	215.2	28.8	46.1	404.7	0
30043	2013-07-02T18:00:00	ND	ND	ND	ND	ND	ND	3.6	218.1	27.1	50.5	157.3	0
30044	2013-07-02T19:00:00	ND	ND	ND	ND	ND	ND	2.5	219.7	25.9	50.8	0	0
30045	2013-07-02T20:00:00	ND	ND	ND	ND	ND	ND	3.2	217.9	25.1	51.3	0	0
30046	2013-07-02T21:00:00	ND	ND	ND	ND	ND	ND	3.1	218.8	24.8	51.6	0	0
30047	2013-07-02T22:00:00	ND	ND	ND	ND	ND	ND	1.5	220	24.4	53.5	0	0
30048	2013-07-02T23:00:00	ND	ND	ND	ND	ND	ND	2	215.1	23.7	55.8	0	0
30049	2013-07-03T00:00:00	ND	ND	ND	ND	ND	ND	1.3	216.3	23.1	58.3	0	0
30050	2013-07-03T01:00:00	ND	ND	ND	ND	ND	ND	1	217.8	22.4	61.1	0	0
30051	2013-07-03T02:00:00	ND	ND	ND	ND	ND	ND	1.6	216.2	21.9	62	0	0
30052	2013-07-03T03:00:00	ND	ND	ND	ND	ND	ND	0.8	205.2	21.6	66.6	0	0
30053	2013-07-03T04:00:00	ND	ND	ND	ND	ND	ND	0.7	243.3	21.3	68.2	0	0
30054	2013-07-03T05:00:00	ND	ND	ND	ND	ND	ND	0.4	267.4	20.8	73.3	0	0
30055	2013-07-03T06:00:00	ND	ND	ND	ND	ND	ND	0.4	24.4	20.3	78.7	0	0
30056	2013-07-03T07:00:00	ND	ND	ND	ND	ND	ND	0.6	66.6	20	82.7	41.9	0
30057	2013-07-03T08:00:00	ND	ND	ND	ND	ND	ND	0.3	212.9	21	77.8	112.7	0
30058	2013-07-03T09:00:00	ND	ND	ND	ND	ND	ND	0.2	200.2	23.3	66.8	377	0
30059	2013-07-03T10:00:00	ND	ND	ND	ND	ND	ND	1.2	81.6	25.4	58.6	541.3	0
30060	2013-07-03T11:00:00	ND	ND	ND	ND	ND	ND	1	117.2	26.8	53.5	713.6	0
30061	2013-07-03T12:00:00	ND	ND	ND	ND	ND	ND	1.4	88.8	28.5	48.2	850.8	0
30062	2013-07-03T13:00:00	ND	ND	ND	ND	ND	ND	1.4	48.1	28.9	47.6	504.9	0
30063	2013-07-03T14:00:00	ND	ND	ND	ND	ND	ND	0.6	51	28.5	48.7	438.9	0
30064	2013-07-03T15:00:00	ND	ND	ND	ND	ND	ND	3.4	215.7	28.7	45.5	564.3	0
30065	2013-07-03T16:00:00	ND	ND	ND	ND	ND	ND	3.1	218.7	28.7	43.7	279.7	0
30066	2013-07-03T17:00:00	ND	ND	ND	ND	ND	ND	3.3	219.4	28.3	44.8	337.8	0
30067	2013-07-03T18:00:00	ND	ND	ND	ND	ND	ND	3.5	217.9	27.4	47.5	92.8	0
30068	2013-07-03T19:00:00	ND	ND	ND	ND	ND	ND	3.9	217.6	25.7	53.3	0	0
30069	2013-07-03T20:00:00	ND	ND	ND	ND	ND	ND	3.2	214.4	25.4	54.9	0	0
30070	2013-07-03T21:00:00	ND	ND	ND	ND	ND	ND	1.7	204.8	24.5	62.5	0	0
30071	2013-07-03T22:00:00	ND	ND	ND	ND	ND	ND	2.3	217.5	24.3	59.4	0	0
30072	2013-07-03T23:00:00	ND	ND	ND	ND	ND	ND	2.2	219	23.8	60	0	0
30073	2013-07-04T00:00:00	ND	ND	ND	ND	ND	ND	1.5	213.7	23.4	60.5	0	0
30074	2013-07-04T01:00:00	ND	ND	ND	ND	ND	ND	0.9	174.6	22.6	68.8	0	0
30075	2013-07-04T02:00:00	ND	ND	ND	ND	ND	ND	1.3	119.8	21.5	76.8	0	0
30076	2013-07-04T03:00:00	ND	ND	ND	ND	ND	ND	0.5	189.5	21.4	75.9	0	0
30077	2013-07-04T04:00:00	ND	ND	ND	ND	ND	ND	1.4	214.2	21.7	74.8	0	0
30078	2013-07-04T05:00:00	ND	ND	ND	ND	ND	ND	1	213.1	21.6	73	0	0
30079	2013-07-04T06:00:00	ND	ND	ND	ND	ND	ND	0.8	209.9	21.5	69.3	0	0
30080	2013-07-04T07:00:00	ND	ND	ND	ND	ND	ND	0.1	282.2	21.6	73.8	30.9	0
30081	2013-07-04T08:00:00	ND	ND	ND	ND	ND	ND	0.5	101.9	22.1	72.9	108.3	0
30082	2013-07-04T09:00:00	ND	ND	ND	ND	ND	ND	0.8	93.4	22.9	70.6	269.9	0
30083	2013-07-04T10:00:00	ND	ND	ND	ND	ND	ND	1.1	165.3	25.1	59.9	568.7	0
30084	2013-07-04T11:00:00	ND	ND	ND	ND	ND	ND	1.8	147.7	26.5	54.4	588.5	0
30085	2013-07-04T12:00:00	ND	ND	ND	ND	ND	ND	1.1	143.2	27.4	51.4	804.6	0
30086	2013-07-04T13:00:00	ND	ND	ND	ND	ND	ND	0.9	84.4	28.9	46	773.7	0
30087	2013-07-04T14:00:00	ND	ND	ND	ND	ND	ND	0.9	91.5	30	43.3	773.6	0
30088	2013-07-04T15:00:00	ND	ND	ND	ND	ND	ND	0.2	335.8	30.4	43.3	363.4	0
30089	2013-07-04T16:00:00	ND	ND	ND	ND	ND	ND	4.4	218.3	28.1	49	66.6	0
30090	2013-07-04T17:00:00	ND	ND	ND	ND	ND	ND	5.8	218.3	26	55.7	79.8	0
30091	2013-07-04T18:00:00	ND	ND	ND	ND	ND	ND	5.3	218.1	25.6	55.2	38.4	0
30092	2013-07-04T19:00:00	ND	ND	ND	ND	ND	ND	4.6	219.8	25.1	55.9	0	0
30093	2013-07-04T20:00:00	ND	ND	ND	ND	ND	ND	0.4	148.5	24.9	57.9	0	0
30094	2013-07-04T21:00:00	ND	ND	ND	ND	ND	ND	2.5	217.9	24.7	57	0	0
30095	2013-07-04T22:00:00	ND	ND	ND	ND	ND	ND	2.6	214.8	24.1	61	0	0
30096	2013-07-04T23:00:00	ND	ND	ND	ND	ND	ND	1.5	203.1	24	60.9	0	0
30097	2013-07-05T00:00:00	ND	ND	ND	ND	ND	ND	0.7	157.8	22.8	71.1	0	0
30098	2013-07-05T01:00:00	ND	ND	ND	ND	ND	ND	1.3	178.2	22.6	71.9	0	0
30099	2013-07-05T02:00:00	ND	ND	ND	ND	ND	ND	0.9	179	22.5	72.3	0	0
30100	2013-07-05T03:00:00	ND	ND	ND	ND	ND	ND	1.5	196.7	22.4	73.2	0	0
30101	2013-07-05T04:00:00	ND	ND	ND	ND	ND	ND	0.9	169.6	22	74.4	0	0
30102	2013-07-05T05:00:00	ND	ND	ND	ND	ND	ND	0	96.9	21.8	74.5	0	0
30103	2013-07-05T06:00:00	ND	ND	ND	ND	ND	ND	0.4	122.2	21.6	76.4	0	0
30104	2013-07-05T07:00:00	ND	ND	ND	ND	ND	ND	0.7	146.2	21.6	75.8	9.4	0
30105	2013-07-05T08:00:00	ND	ND	ND	ND	ND	ND	0.4	85.8	22	74.7	60.4	0
30106	2013-07-05T09:00:00	ND	ND	ND	ND	ND	ND	0.4	85.3	22.7	72.3	112.9	0
30107	2013-07-05T10:00:00	ND	ND	ND	ND	ND	ND	0.7	182.9	24.1	64.9	293.6	0
30108	2013-07-05T11:00:00	ND	ND	ND	ND	ND	ND	0.8	151.5	25.4	60.1	415.9	0
30109	2013-07-05T12:00:00	ND	ND	ND	ND	ND	ND	1.2	152.6	26.6	54.8	569.7	0
30110	2013-07-05T13:00:00	ND	ND	ND	ND	ND	ND	1.2	140.5	28	49.4	831.6	0
30111	2013-07-05T14:00:00	ND	ND	ND	ND	ND	ND	0.8	78.3	29.5	45.1	719.8	0
30112	2013-07-05T15:00:00	ND	ND	ND	ND	ND	ND	0.7	27.2	29.2	47.3	240.7	0
30113	2013-07-05T16:00:00	ND	ND	ND	ND	ND	ND	0.4	118.2	28.4	48.6	100.2	0
30114	2013-07-05T17:00:00	ND	ND	ND	ND	ND	ND	3.3	216.8	27.1	52.6	110.3	0
30115	2013-07-05T18:00:00	ND	ND	ND	ND	ND	ND	3.8	216.9	26.3	54.8	35.8	0
30116	2013-07-05T19:00:00	ND	ND	ND	ND	ND	ND	1.9	183.9	25.3	59.4	0	0
30117	2013-07-05T20:00:00	ND	ND	ND	ND	ND	ND	2.2	207.4	24.5	62.3	0	0
30118	2013-07-05T21:00:00	ND	ND	ND	ND	ND	ND	2.5	218.7	23.9	57.5	0	0
30119	2013-07-05T22:00:00	ND	ND	ND	ND	ND	ND	1.6	219	22.9	63.7	0	1.02
30120	2013-07-05T23:00:00	ND	ND	ND	ND	ND	ND	1.3	213.6	21.8	78.3	0	0
30121	2013-07-06T00:00:00	ND	ND	ND	ND	ND	ND	1.6	217.7	21.8	73.9	0	0
30122	2013-07-06T01:00:00	ND	ND	ND	ND	ND	ND	1.6	215.7	21.8	73.5	0	0
30123	2013-07-06T02:00:00	ND	ND	ND	ND	ND	ND	1.4	208.2	21.8	71.7	0	0
30124	2013-07-06T03:00:00	ND	ND	ND	ND	ND	ND	0.6	196.5	21.6	76.1	0	0
30125	2013-07-06T04:00:00	ND	ND	ND	ND	ND	ND	0.3	189.1	21.5	76.2	0	0
30126	2013-07-06T05:00:00	ND	ND	ND	ND	ND	ND	0.8	18.1	20.9	84.1	0	0
30127	2013-07-06T06:00:00	ND	ND	ND	ND	ND	ND	0.6	64.9	20.4	86.9	0	0
30128	2013-07-06T07:00:00	ND	ND	ND	ND	ND	ND	0	321	20.5	84.5	33.3	0
30129	2013-07-06T08:00:00	ND	ND	ND	ND	ND	ND	0.2	135.3	21.6	76.3	145.5	0
30130	2013-07-06T09:00:00	ND	ND	ND	ND	ND	ND	0.6	136.7	23.4	70.3	287.2	0
30131	2013-07-06T10:00:00	ND	ND	ND	ND	ND	ND	0.6	116.7	25.1	61.2	533.2	0
30132	2013-07-06T11:00:00	ND	ND	ND	ND	ND	ND	1.3	107.1	26.6	55.3	641.9	0
30133	2013-07-06T12:00:00	ND	ND	ND	ND	ND	ND	1.1	100.5	27.7	51.5	608.1	0
30134	2013-07-06T13:00:00	ND	ND	ND	ND	ND	ND	1	124.4	28.9	46.6	697.8	0
30135	2013-07-06T14:00:00	ND	ND	ND	ND	ND	ND	0.8	118.9	30.4	41.2	662.7	0
30136	2013-07-06T15:00:00	ND	ND	ND	ND	ND	ND	0.3	153.6	31.2	41.1	667.7	0
30137	2013-07-06T16:00:00	ND	ND	ND	ND	ND	ND	4.9	218.5	29.7	45.3	533.2	0
30138	2013-07-06T17:00:00	ND	ND	ND	ND	ND	ND	5.4	218.9	27.9	49	330.6	0
30139	2013-07-06T18:00:00	ND	ND	ND	ND	ND	ND	5.5	218.5	26.6	53	101.4	0
30140	2013-07-06T19:00:00	ND	ND	ND	ND	ND	ND	5.4	218.1	25.6	56.4	5	0
30141	2013-07-06T20:00:00	ND	ND	ND	ND	ND	ND	4.2	219	25.5	55.9	0	0
30142	2013-07-06T21:00:00	ND	ND	ND	ND	ND	ND	5	218.6	25.4	56.2	0	0
30143	2013-07-06T22:00:00	ND	ND	ND	ND	ND	ND	2.1	220.6	25.5	56.1	0	0
30144	2013-07-06T23:00:00	ND	ND	ND	ND	ND	ND	2.7	193.7	24.2	64.6	0	0
30145	2013-07-07T00:00:00	ND	ND	ND	ND	ND	ND	1.9	203.6	24.1	63.5	0	0
30146	2013-07-07T01:00:00	ND	ND	ND	ND	ND	ND	1.3	201.9	23.5	68.2	0	0
30147	2013-07-07T02:00:00	ND	ND	ND	ND	ND	ND	0.8	159.6	22.8	71.6	0	0
30148	2013-07-07T03:00:00	ND	ND	ND	ND	ND	ND	0.9	147.5	21.7	77.5	0	0
30149	2013-07-07T04:00:00	ND	ND	ND	ND	ND	ND	0.6	211.2	21.7	76.4	0	0
30150	2013-07-07T05:00:00	ND	ND	ND	ND	ND	ND	0.5	184.1	22	73.8	0	0
30151	2013-07-07T06:00:00	ND	ND	ND	ND	ND	ND	0	236.7	22.2	73.4	0	0
30152	2013-07-07T07:00:00	ND	ND	ND	ND	ND	ND	0.7	67.2	21.8	76.6	23.2	0
30153	2013-07-07T08:00:00	ND	ND	ND	ND	ND	ND	0.5	121	22.6	73.3	166.4	0
30154	2013-07-07T09:00:00	ND	ND	ND	ND	ND	ND	0.8	177	24.4	65.8	388.1	0
30155	2013-07-07T10:00:00	ND	ND	ND	ND	ND	ND	1	104.3	25.9	59.5	580.1	0
30156	2013-07-07T11:00:00	ND	ND	ND	ND	ND	ND	1.1	83.5	27.5	53.8	674.3	0
30157	2013-07-07T12:00:00	ND	ND	ND	ND	ND	ND	0.3	130.7	28.7	50.1	569.8	0
30158	2013-07-07T13:00:00	ND	ND	ND	ND	ND	ND	1.1	129	29.3	49	493.2	0
30159	2013-07-07T14:00:00	ND	ND	ND	ND	ND	ND	0.7	194.9	29.3	48.8	295.7	0
30160	2013-07-07T15:00:00	ND	ND	ND	ND	ND	ND	3.3	218.1	28.5	49.3	192.6	0
30161	2013-07-07T16:00:00	ND	ND	ND	ND	ND	ND	3.5	219.3	28.9	48	448	0
30162	2013-07-07T17:00:00	ND	ND	ND	ND	ND	ND	3.4	218.6	28.7	47.6	364.2	0
30163	2013-07-07T18:00:00	ND	ND	ND	ND	ND	ND	3.4	218.4	27.8	49.3	121.7	0
30164	2013-07-07T19:00:00	ND	ND	ND	ND	ND	ND	4.5	217.4	26.4	53.6	0	0
30165	2013-07-07T20:00:00	ND	ND	ND	ND	ND	ND	4.3	218.4	25.8	57.2	0	0
30166	2013-07-07T21:00:00	ND	ND	ND	ND	ND	ND	4.1	219.1	25.2	59.6	0	0
30167	2013-07-07T22:00:00	ND	ND	ND	ND	ND	ND	2.9	219	25.1	59.4	0	0
30168	2013-07-07T23:00:00	ND	ND	ND	ND	ND	ND	1.7	219.8	24.6	60.6	0	0
30169	2013-07-08T00:00:00	ND	ND	ND	ND	ND	ND	0.6	91	23.2	67.6	0	0
30170	2013-07-08T01:00:00	ND	ND	ND	ND	ND	ND	1.4	180.8	23.3	70.9	0	0
30171	2013-07-08T02:00:00	ND	ND	ND	ND	ND	ND	1.1	212.3	23.4	68.5	0	0
30172	2013-07-08T03:00:00	ND	ND	ND	ND	ND	ND	0.8	80.5	22.5	71.1	0	0
30173	2013-07-08T04:00:00	ND	ND	ND	ND	ND	ND	1.9	180.6	21.9	78.3	0	0
30174	2013-07-08T05:00:00	ND	ND	ND	ND	ND	ND	0.8	154.6	21.2	86.6	0	0
30175	2013-07-08T06:00:00	ND	ND	ND	ND	ND	ND	0.6	144	21.1	86.9	0	0
30176	2013-07-08T07:00:00	ND	ND	ND	ND	ND	ND	0.7	174	20.8	88.4	21.2	0
30177	2013-07-08T08:00:00	ND	ND	ND	ND	ND	ND	0.4	156.8	21.5	84.9	79.9	0
30178	2013-07-08T09:00:00	ND	ND	ND	ND	ND	ND	0.9	147.8	22.5	79.6	260.1	0
30179	2013-07-08T10:00:00	ND	ND	ND	ND	ND	ND	0.7	74	25	65.3	462.3	0
30180	2013-07-08T11:00:00	ND	ND	ND	ND	ND	ND	1.2	121	25.7	61.2	534.2	0
30181	2013-07-08T12:00:00	ND	ND	ND	ND	ND	ND	1.6	146.1	26.9	59.2	709.7	0
30182	2013-07-08T13:00:00	ND	ND	ND	ND	ND	ND	1.7	198.5	28	53.9	871.9	0
30183	2013-07-08T14:00:00	ND	ND	ND	ND	ND	ND	1.2	135	29.6	49.3	796.4	0
30184	2013-07-08T15:00:00	ND	ND	ND	ND	ND	ND	1.1	170.6	31.1	43.4	700.9	0
30185	2013-07-08T16:00:00	ND	ND	ND	ND	ND	ND	0.9	123.2	31.4	40.1	377.1	0
30186	2013-07-08T17:00:00	ND	ND	ND	ND	ND	ND	3.8	217.6	29.9	46.3	255.1	0
30187	2013-07-08T18:00:00	ND	ND	ND	ND	ND	ND	4.2	217.1	28.4	49.4	123.6	0
30188	2013-07-08T19:00:00	ND	ND	ND	ND	ND	ND	3.9	217.9	26.6	54.1	0	0
30189	2013-07-08T20:00:00	ND	ND	ND	ND	ND	ND	4	218	25.9	56.5	0	0
30190	2013-07-08T21:00:00	ND	ND	ND	ND	ND	ND	3.4	218.4	25.6	57.4	0	0
30191	2013-07-08T22:00:00	ND	ND	ND	ND	ND	ND	1.9	225.2	25.7	56.2	0	0
30192	2013-07-08T23:00:00	ND	ND	ND	ND	ND	ND	0.8	62.3	24.3	64.5	0	0
30193	2013-07-09T00:00:00	ND	ND	ND	ND	ND	ND	0.3	64.7	23.9	66.7	0	0
30194	2013-07-09T01:00:00	ND	ND	ND	ND	ND	ND	0.3	36.5	23.3	70.3	0	0
30195	2013-07-09T02:00:00	ND	ND	ND	ND	ND	ND	0.4	48.6	22.7	74.6	0	0
30196	2013-07-09T03:00:00	ND	ND	ND	ND	ND	ND	0.8	136.2	22.4	76.8	0	0
30197	2013-07-09T04:00:00	ND	ND	ND	ND	ND	ND	0.7	74	22.1	76.2	0	0
30198	2013-07-09T05:00:00	ND	ND	ND	ND	ND	ND	0.3	107.4	22.1	75.6	0	0
30199	2013-07-09T06:00:00	ND	ND	ND	ND	ND	ND	0.7	213.1	22	76	0	0
30200	2013-07-09T07:00:00	ND	ND	ND	ND	ND	ND	0.8	211.4	22	74.7	15.3	0
30201	2013-07-09T08:00:00	ND	ND	ND	ND	ND	ND	0.7	172	22.7	73.6	129.2	0
30202	2013-07-09T09:00:00	ND	ND	ND	ND	ND	ND	1.3	149.4	24.1	68.1	346.9	0
30203	2013-07-09T10:00:00	ND	ND	ND	ND	ND	ND	0.9	123.1	25.3	63	510.1	0
30204	2013-07-09T11:00:00	ND	ND	ND	ND	ND	ND	1.1	145.9	27	57.1	603.4	0
30205	2013-07-09T12:00:00	ND	ND	ND	ND	ND	ND	1.4	138.3	27.5	54.6	579.5	0
30206	2013-07-09T13:00:00	ND	ND	ND	ND	ND	ND	1.2	116.6	28.4	51.5	631.6	0
30207	2013-07-09T14:00:00	ND	ND	ND	ND	ND	ND	1.2	90.4	29.2	49.7	699.4	0
30208	2013-07-09T15:00:00	ND	ND	ND	ND	ND	ND	0.4	226.8	29.6	48	331.9	0
30209	2013-07-09T16:00:00	ND	ND	ND	ND	ND	ND	0.4	287.3	29.8	47.9	265.5	0
30210	2013-07-09T17:00:00	ND	ND	ND	ND	ND	ND	3.3	218.6	29	48.4	255.1	0
30211	2013-07-09T18:00:00	ND	ND	ND	ND	ND	ND	3.6	218.3	27.6	50.9	96.4	0
30212	2013-07-09T19:00:00	ND	ND	ND	ND	ND	ND	3.7	217.4	26.2	55.8	0	0
30213	2013-07-09T20:00:00	ND	ND	ND	ND	ND	ND	4.3	217	25.5	57.6	0	0
30214	2013-07-09T21:00:00	ND	ND	ND	ND	ND	ND	1.7	216.9	25.8	55.5	0	0
30215	2013-07-09T22:00:00	ND	ND	ND	ND	ND	ND	0.8	196.2	25.6	56.6	0	0
30216	2013-07-09T23:00:00	ND	ND	ND	ND	ND	ND	2.2	215.5	25	57.1	0	0
30217	2013-07-10T00:00:00	ND	ND	ND	ND	ND	ND	2	211.9	24.6	59.8	0	0
30218	2013-07-10T01:00:00	ND	ND	ND	ND	ND	ND	1.1	188.7	24.2	65.7	0	0
30219	2013-07-10T02:00:00	ND	ND	ND	ND	ND	ND	0.6	156.1	23.9	67.9	0	0
30220	2013-07-10T03:00:00	ND	ND	ND	ND	ND	ND	0.8	134.6	22.9	73.2	0	0
30221	2013-07-10T04:00:00	ND	ND	ND	ND	ND	ND	1.1	116.7	22.4	74.8	0	0
30222	2013-07-10T05:00:00	ND	ND	ND	ND	ND	ND	0.7	142.1	22.1	76.4	0	0
30223	2013-07-10T06:00:00	ND	ND	ND	ND	ND	ND	0.6	138.4	21.8	77.8	0	0
30224	2013-07-10T07:00:00	ND	ND	ND	ND	ND	ND	0.3	105.4	21.9	77.4	26.4	0
30225	2013-07-10T08:00:00	ND	ND	ND	ND	ND	ND	0.5	52.2	23.1	72.5	166.6	0
30226	2013-07-10T09:00:00	ND	ND	ND	ND	ND	ND	0.8	140.6	24.8	64.1	384.8	0
30227	2013-07-10T10:00:00	ND	ND	ND	ND	ND	ND	1.3	149.2	26.2	59.2	514.1	0
30228	2013-07-10T11:00:00	ND	ND	ND	ND	ND	ND	1.3	89.3	26.8	56.2	414.9	0
30229	2013-07-10T12:00:00	ND	ND	ND	ND	ND	ND	0.9	100.5	27.2	53.1	358.3	0
30230	2013-07-10T13:00:00	ND	ND	ND	ND	ND	ND	1	94.6	27.9	50.9	437.8	0
30231	2013-07-10T14:00:00	ND	ND	ND	ND	ND	ND	0.9	127.2	29	48	636.5	0
30232	2013-07-10T15:00:00	ND	ND	ND	ND	ND	ND	1.4	168	29.4	46.5	388.5	0
30233	2013-07-10T16:00:00	ND	ND	ND	ND	ND	ND	1.6	202.9	29.1	47.4	329.9	0
30234	2013-07-10T17:00:00	ND	ND	ND	ND	ND	ND	3.5	218.2	28.3	48.1	185	0
30235	2013-07-10T18:00:00	ND	ND	ND	ND	ND	ND	4.3	217	26.8	52	50.5	0
30236	2013-07-10T19:00:00	ND	ND	ND	ND	ND	ND	4.4	217.5	25.8	55.8	0	0
30237	2013-07-10T20:00:00	ND	ND	ND	ND	ND	ND	4.2	218.4	24.9	60.1	0	0
30238	2013-07-10T21:00:00	ND	ND	ND	ND	ND	ND	4.3	219	24.8	59.1	0	0
30239	2013-07-10T22:00:00	ND	ND	ND	ND	ND	ND	1.8	222.7	25	57.6	0	0
30240	2013-07-10T23:00:00	ND	ND	ND	ND	ND	ND	2.2	215.8	24.6	59.2	0	0
30241	2013-07-11T00:00:00	ND	ND	ND	ND	ND	ND	1.7	205.8	24.1	62.3	0	0
30242	2013-07-11T01:00:00	ND	ND	ND	ND	ND	ND	1	223.8	23	69.7	0	0
30243	2013-07-11T02:00:00	ND	ND	ND	ND	ND	ND	0.6	63.7	23.1	68.7	0	0
30244	2013-07-11T03:00:00	ND	ND	ND	ND	ND	ND	0.7	148.8	22	75.7	0	0
30245	2013-07-11T04:00:00	ND	ND	ND	ND	ND	ND	1.1	152.8	21.8	78.8	0	0.25
30246	2013-07-11T05:00:00	ND	ND	ND	ND	ND	ND	1	196.1	21.4	80.8	0	0
30247	2013-07-11T06:00:00	ND	ND	ND	ND	ND	ND	0.2	297.8	21.4	81.6	0	0
30248	2013-07-11T07:00:00	ND	ND	ND	ND	ND	ND	0.3	203	21.5	81.3	20.6	0
30249	2013-07-11T08:00:00	ND	ND	ND	ND	ND	ND	0.8	75.8	21.7	81.5	118.3	0
30250	2013-07-11T09:00:00	ND	ND	ND	ND	ND	ND	0.4	120.9	22.1	80	220	0
30251	2013-07-11T10:00:00	ND	ND	ND	ND	ND	ND	0.6	116.9	24.8	66.6	557.3	0
30252	2013-07-11T11:00:00	ND	ND	ND	ND	ND	ND	1.4	90.2	26.1	59.8	658.5	0
30253	2013-07-11T12:00:00	ND	ND	ND	ND	ND	ND	1.2	81.8	27.7	52.3	717.2	0
30254	2013-07-11T13:00:00	ND	ND	ND	ND	ND	ND	0.9	85.6	28.2	49.9	500.5	0
30255	2013-07-11T14:00:00	ND	ND	ND	ND	ND	ND	1	110.2	29.3	46.7	545	0
30256	2013-07-11T15:00:00	ND	ND	ND	ND	ND	ND	1.5	77.6	29.4	45.3	321.6	0
30257	2013-07-11T16:00:00	ND	ND	ND	ND	ND	ND	0.5	107.4	29.2	46.1	261.6	0
30258	2013-07-11T17:00:00	ND	ND	ND	ND	ND	ND	3.5	217.5	28.5	49.5	262.8	0
30259	2013-07-11T18:00:00	ND	ND	ND	ND	ND	ND	3.8	217.7	27.1	52.5	98	0
30260	2013-07-11T19:00:00	ND	ND	ND	ND	ND	ND	4.7	217.2	25.8	55.4	0	0
30261	2013-07-11T20:00:00	ND	ND	ND	ND	ND	ND	4.6	217.2	25.6	55.7	0	0
30262	2013-07-11T21:00:00	ND	ND	ND	ND	ND	ND	3.6	219.7	25.4	55.9	0	0
30263	2013-07-11T22:00:00	ND	ND	ND	ND	ND	ND	1.6	224.7	25.5	55.4	0	0
30264	2013-07-11T23:00:00	ND	ND	ND	ND	ND	ND	3	218.9	24.7	59.2	0	0
30265	2013-07-12T00:00:00	ND	ND	ND	ND	ND	ND	2.9	216.1	24.4	60.4	0	0
30266	2013-07-12T01:00:00	13.5	ND	ND	ND	ND	ND	1.6	216	24.3	61.6	0	0
30267	2013-07-12T02:00:00	6.8	ND	ND	ND	ND	ND	1.1	76.1	23.1	71.1	0	0
30268	2013-07-12T03:00:00	4.8	ND	ND	ND	ND	ND	0.5	123.2	22.6	72.9	0	0
30269	2013-07-12T04:00:00	9.4	ND	ND	ND	ND	ND	0.6	172.1	22.2	75.4	0	3.05
30270	2013-07-12T05:00:00	6.6	ND	ND	ND	ND	ND	1.2	211.5	21.3	82.7	0	1.78
30271	2013-07-12T06:00:00	6.9	ND	ND	ND	ND	ND	0.9	221.8	21.3	81.6	0	0
30272	2013-07-12T07:00:00	5	ND	ND	ND	ND	ND	0.5	53.2	21	87.2	27.5	0
30273	2013-07-12T08:00:00	26	ND	ND	ND	ND	ND	0.3	144	21.9	82.6	90.4	0
30274	2013-07-12T09:00:00	15	ND	ND	ND	ND	ND	0.4	179.7	22.8	75.9	173	0
30275	2013-07-12T10:00:00	35	ND	ND	ND	ND	ND	0.8	107.3	24.4	68.4	418.3	0
30276	2013-07-12T11:00:00	34.3	ND	ND	ND	ND	ND	0.8	108.3	25.6	60.6	446.4	0
30277	2013-07-12T12:00:00	31.6	ND	ND	ND	ND	ND	1	99.9	26.6	57.2	607.9	0
30278	2013-07-12T13:00:00	18	ND	ND	ND	ND	ND	1.5	124.5	27.7	54.4	445.3	0
30279	2013-07-12T14:00:00	18.9	ND	ND	ND	ND	ND	1.1	115.7	27.9	53.5	353.5	0
30280	2013-07-12T15:00:00	11.6	ND	ND	ND	ND	ND	1.2	196.9	28.5	50.4	358.1	0
30281	2013-07-12T16:00:00	17.7	ND	ND	ND	ND	ND	3.3	218.2	27.7	48.9	187.8	0
30282	2013-07-12T17:00:00	10.4	ND	ND	ND	ND	ND	3	220.5	26.7	53	115.4	0
30283	2013-07-12T18:00:00	7	ND	ND	ND	ND	ND	4.1	218.3	25.6	56	28.9	0
30284	2013-07-12T19:00:00	4.9	ND	ND	ND	ND	ND	3.5	219.4	24.8	58.7	0	0
30285	2013-07-12T20:00:00	4	ND	ND	ND	ND	ND	2.1	218.7	24.2	61.3	0	0
30286	2013-07-12T21:00:00	3.8	ND	ND	ND	ND	ND	1.2	219.7	23.7	63.6	0	0
30287	2013-07-12T22:00:00	2.8	ND	ND	ND	ND	ND	1	81.7	22.4	74.8	0	0
30288	2013-07-12T23:00:00	3.2	ND	ND	ND	ND	ND	1.1	158.8	22	71.6	0	0
30289	2013-07-13T00:00:00	8.9	ND	ND	ND	ND	ND	0.8	177.6	22	71.7	0	0
30290	2013-07-13T01:00:00	5.2	ND	ND	ND	ND	ND	0.8	202	22.2	72.2	0	0
30291	2013-07-13T02:00:00	7.8	ND	ND	ND	ND	ND	1.2	173.9	22	74.1	0	0
30292	2013-07-13T03:00:00	3.9	ND	ND	ND	ND	ND	1	143.4	21.5	77.9	0	0
30293	2013-07-13T04:00:00	2	ND	ND	ND	ND	ND	1.2	155.2	21.3	79.4	0	0
30294	2013-07-13T05:00:00	1	ND	ND	ND	ND	ND	1.1	174.1	21.2	79.6	0	0
30295	2013-07-13T06:00:00	0.5	ND	ND	ND	ND	ND	0.2	115.1	20.7	81.1	0	0
30296	2013-07-13T07:00:00	1.8	ND	ND	ND	ND	ND	0.6	55.8	20.7	83.5	33.3	0
30297	2013-07-13T08:00:00	28.4	ND	ND	ND	ND	ND	0.5	212	21.4	80.9	129.9	0
30298	2013-07-13T09:00:00	24.1	ND	ND	ND	ND	ND	0.9	185.2	23.3	69.4	378.9	0
30299	2013-07-13T10:00:00	27.4	ND	ND	ND	ND	ND	1.3	162.2	25.2	61	589.3	0
30300	2013-07-13T11:00:00	15	ND	ND	ND	ND	ND	1.4	147.5	26.6	56	706.5	0
30301	2013-07-13T12:00:00	40.7	ND	ND	ND	ND	ND	1.3	142.8	28.2	50.1	791.5	0
30302	2013-07-13T13:00:00	21	ND	ND	ND	ND	ND	0.8	117.2	29.2	46.7	848.9	0
30303	2013-07-13T14:00:00	42.8	ND	ND	ND	ND	ND	1.3	120.3	30.2	44	728.6	0
30304	2013-07-13T15:00:00	26.8	ND	ND	ND	ND	ND	0.3	93.3	30.1	44.4	411.4	0
30305	2013-07-13T16:00:00	29.4	ND	ND	ND	ND	ND	3.7	219	29.6	45.3	378	0
30306	2013-07-13T17:00:00	15.4	ND	ND	ND	ND	ND	3.8	218.1	28.6	47.5	353.5	0
30307	2013-07-13T18:00:00	12.3	ND	ND	ND	ND	ND	3.9	218	27.1	51.8	126	0
30308	2013-07-13T19:00:00	7.2	ND	ND	ND	ND	ND	3.3	219.7	25.9	54.7	0	0
30309	2013-07-13T20:00:00	12	ND	ND	ND	ND	ND	3.3	220.2	25.8	55	0	0
30310	2013-07-13T21:00:00	7	ND	ND	ND	ND	ND	0.5	112.8	25.8	55.7	0	0
30311	2013-07-13T22:00:00	3.5	ND	ND	ND	ND	ND	1.7	187.4	24.9	60.1	0	0
30312	2013-07-13T23:00:00	1.8	ND	ND	ND	ND	ND	2.5	214.6	24.6	61.2	0	0
30313	2013-07-14T00:00:00	0.9	ND	ND	ND	ND	ND	2	213.5	24.4	61.7	0	0
30314	2013-07-14T01:00:00	0.4	ND	ND	ND	ND	ND	0.9	25.8	23	70.4	0	0
30315	2013-07-14T02:00:00	3.4	ND	ND	ND	ND	ND	0.4	55.1	22.7	70.8	0	0
30316	2013-07-14T03:00:00	2.3	ND	ND	ND	ND	ND	0.2	67.2	22.7	70.7	0	0
30317	2013-07-14T04:00:00	16	ND	ND	ND	ND	ND	0.5	205.4	22.6	71.1	0	0
30318	2013-07-14T05:00:00	9.5	ND	ND	ND	ND	ND	0.1	133.6	22.3	72.5	0	0
30319	2013-07-14T06:00:00	26.5	ND	ND	ND	ND	ND	1.1	191.1	22	75.5	0	0
30320	2013-07-14T07:00:00	20.7	ND	ND	ND	ND	ND	0.5	150.9	22.3	73.6	36.1	0
30321	2013-07-14T08:00:00	46.8	ND	ND	ND	ND	ND	1	145.9	22.6	74.1	133.1	0
30322	2013-07-14T09:00:00	25.3	ND	ND	ND	ND	ND	0.5	110.7	23.7	69.3	228.3	0
30323	2013-07-14T10:00:00	35.5	ND	ND	ND	ND	ND	0.6	105.5	25.7	61.1	545.1	0
30324	2013-07-14T11:00:00	17.7	ND	ND	ND	ND	ND	1	108.4	27.4	53.7	723.8	0
30325	2013-07-14T12:00:00	14.7	ND	ND	ND	ND	ND	1.1	88.7	29	49.6	837.2	0
30326	2013-07-14T13:00:00	9.3	ND	ND	ND	ND	ND	0.9	105.8	29.9	46.7	675.8	0
30327	2013-07-14T14:00:00	8.2	ND	ND	ND	ND	ND	0.7	52.8	30.6	45.2	707.9	0
30328	2013-07-14T15:00:00	6	ND	ND	ND	ND	ND	0.3	350.9	31.4	42.8	595	0
30329	2013-07-14T16:00:00	5	ND	ND	ND	ND	ND	2.3	219.7	31.6	41.3	576.5	0
30330	2013-07-14T17:00:00	2.5	ND	ND	ND	ND	ND	3.9	218	30.4	44.2	358.3	0
30331	2013-07-14T18:00:00	1.2	ND	ND	ND	ND	ND	3.5	218.2	28.7	48.3	131.9	0
30332	2013-07-14T19:00:00	2.3	ND	ND	ND	ND	ND	3.5	216.8	27.4	52	0	0
30333	2013-07-14T20:00:00	13	ND	ND	ND	ND	ND	4.3	217.1	26.4	55.5	0	0
30334	2013-07-14T21:00:00	7.4	ND	ND	ND	ND	ND	2.9	218.6	26.3	54.9	0	0
30335	2013-07-14T22:00:00	5.5	ND	ND	ND	ND	ND	0.4	175	26.2	55.4	0	0
30336	2013-07-14T23:00:00	4.6	ND	ND	ND	ND	ND	1.1	214	25.5	59.5	0	0
30337	2013-07-15T00:00:00	17	ND	ND	ND	ND	ND	0.3	159.2	24.6	64.5	0	0
30338	2013-07-15T01:00:00	9.1	ND	ND	ND	ND	ND	0.8	117.7	23.5	70.7	0	0
30339	2013-07-15T02:00:00	14	ND	ND	ND	ND	ND	1.6	190	23.3	73	0	0
30340	2013-07-15T03:00:00	7	ND	ND	ND	ND	ND	1	173.2	23.2	72.7	0	0
30341	2013-07-15T04:00:00	3.5	ND	ND	ND	ND	ND	0.6	141.3	23.1	71.7	0	0
30342	2013-07-15T05:00:00	2.5	ND	ND	ND	ND	ND	0.8	138.5	22.6	74.9	0	0
30343	2013-07-15T06:00:00	14.5	ND	ND	ND	ND	ND	0.4	140.1	22.4	76.9	0	0
30344	2013-07-15T07:00:00	9.4	ND	ND	ND	ND	ND	0.4	81.9	22.2	78.6	12.5	0
30345	2013-07-15T08:00:00	74.8	ND	ND	ND	ND	ND	0.4	190.9	22.7	76.3	101.3	0
30346	2013-07-15T09:00:00	55.5	ND	ND	ND	ND	ND	0.8	95.2	24.2	68.8	226.6	0
30347	2013-07-15T10:00:00	60	ND	ND	ND	ND	ND	0.6	98.7	25.8	62.9	510.6	0
30348	2013-07-15T11:00:00	35.3	ND	ND	ND	ND	ND	0.7	90.6	27.6	56	748.3	0
30349	2013-07-15T12:00:00	51.2	ND	ND	ND	ND	ND	1.3	53.1	29	50.9	757.2	0
30350	2013-07-15T13:00:00	27.4	ND	ND	ND	ND	ND	1.8	51.4	29.8	49.3	543.6	0
30351	2013-07-15T14:00:00	29.3	ND	ND	ND	ND	ND	2.1	41.1	29.5	51.8	549.9	0
30352	2013-07-15T15:00:00	16.1	ND	ND	ND	ND	ND	2	49.5	29.3	52	250.1	0
30353	2013-07-15T16:00:00	24.7	ND	ND	ND	ND	ND	3.1	217.6	28.5	52.1	349.1	0
30354	2013-07-15T17:00:00	14	ND	ND	ND	ND	ND	2	219	28.2	51.1	112.8	0
30355	2013-07-15T18:00:00	8.6	ND	ND	ND	ND	ND	2.7	218	27.2	54.4	46.5	0
30356	2013-07-15T19:00:00	5.5	ND	ND	ND	ND	ND	1.8	217.5	26.6	55.5	0	0
30357	2013-07-15T20:00:00	18.3	ND	ND	ND	ND	ND	2.6	216.2	25.9	57.8	0	0
30358	2013-07-15T21:00:00	10.5	ND	ND	ND	ND	ND	1.3	206.8	25.6	59	0	0
30359	2013-07-15T22:00:00	6.6	ND	ND	ND	ND	ND	1.4	207.1	25.1	64	0	0
30360	2013-07-15T23:00:00	11.5	ND	ND	ND	ND	ND	1.3	185.2	24.2	71.8	0	0
30361	2013-07-16T00:00:00	41.5	ND	ND	ND	ND	ND	1.3	218.6	23.8	67	0	0
30362	2013-07-16T01:00:00	22	ND	ND	ND	ND	ND	0.6	181.1	23.3	73.1	0	0
30363	2013-07-16T02:00:00	31.2	ND	ND	ND	ND	ND	0.7	177.4	22.8	75.2	0	0
30364	2013-07-16T03:00:00	34.9	ND	ND	ND	ND	ND	0.2	170.7	22.8	74.9	0	0
30365	2013-07-16T04:00:00	38.1	ND	ND	ND	ND	ND	0.6	137.5	22	79.7	0	0
30366	2013-07-16T05:00:00	27.9	ND	ND	ND	ND	ND	0.6	156.2	21.5	81.2	0	0
30367	2013-07-16T06:00:00	54.9	ND	ND	ND	ND	ND	0.2	176.9	21.5	79.9	0	0
30368	2013-07-16T07:00:00	35.9	ND	ND	ND	ND	ND	0.7	164.3	21.8	80.3	35.1	0
30369	2013-07-16T08:00:00	64.3	ND	ND	ND	ND	ND	0.7	198.1	22.6	75.5	158.6	0
30370	2013-07-16T09:00:00	41.5	ND	ND	ND	ND	ND	1.3	145.5	24.5	68	395.1	0
30371	2013-07-16T10:00:00	63.4	ND	ND	ND	ND	ND	0.9	151	25	67.1	304.9	0
30372	2013-07-16T11:00:00	63.9	ND	ND	ND	ND	ND	1.4	98	25.9	63.9	574.7	0
30373	2013-07-16T12:00:00	68.8	ND	ND	ND	ND	ND	1.2	82.5	27.8	57.2	649.5	0
30374	2013-07-16T13:00:00	67.1	ND	ND	ND	ND	ND	0.9	104.6	28.6	52.7	604.5	0
30375	2013-07-16T14:00:00	57	ND	ND	ND	ND	ND	1.3	134.2	29.7	47.8	458.8	0
30376	2013-07-16T15:00:00	36.3	ND	ND	ND	ND	ND	0.8	189	29.7	48.4	471.3	0
30377	2013-07-16T16:00:00	43.3	ND	ND	ND	ND	ND	1.7	212.6	30.4	46.5	461.1	0
30378	2013-07-16T17:00:00	22.2	ND	ND	ND	ND	ND	3	217.3	29.9	45.8	173.3	0
30379	2013-07-16T18:00:00	35.7	ND	ND	ND	ND	ND	2.7	216.6	28.4	50	48	0
30380	2013-07-16T19:00:00	19.2	ND	ND	ND	ND	ND	3.4	216.4	27.3	53.5	0	0
30381	2013-07-16T20:00:00	29.5	ND	ND	ND	ND	ND	3.6	216.5	26.4	57.1	0	0
30382	2013-07-16T21:00:00	16.7	ND	ND	ND	ND	ND	1.1	211.7	25.9	60.8	0	0
30383	2013-07-16T22:00:00	37.1	ND	ND	ND	ND	ND	0.7	207.7	25.2	64.4	0	0
30384	2013-07-16T23:00:00	19.8	ND	ND	ND	ND	ND	2.3	216.5	25	62.3	0	0
30385	2013-07-17T00:00:00	22	ND	ND	ND	ND	ND	0.3	220.6	24.4	65.3	0	0
30386	2013-07-17T01:00:00	20.5	ND	ND	ND	ND	ND	0.3	141.5	23.7	70.9	0	0
30387	2013-07-17T02:00:00	33	ND	ND	ND	ND	ND	1.3	187	23.8	67.6	0	0
30388	2013-07-17T03:00:00	23.4	ND	ND	ND	ND	ND	0.8	139.5	23.1	72	0	0
30389	2013-07-17T04:00:00	33.3	ND	ND	ND	ND	ND	0.4	118.1	22.5	75.6	0	0
30390	2013-07-17T05:00:00	20.6	ND	ND	ND	ND	ND	0.8	196.1	22.5	75	0	0
30391	2013-07-17T06:00:00	23.4	ND	ND	ND	ND	ND	1.8	214.1	22.4	68.1	0	0
30392	2013-07-17T07:00:00	13	ND	ND	ND	ND	ND	0.3	150.8	22.4	70.7	29.5	0
30393	2013-07-17T08:00:00	43.9	ND	ND	ND	ND	ND	0.3	201.2	22.8	73	147.1	0
30394	2013-07-17T09:00:00	34.9	ND	ND	ND	ND	ND	1.4	140.1	24.1	64.8	290.2	0
30395	2013-07-17T10:00:00	48.7	ND	ND	ND	ND	ND	0.8	156.3	25.6	58.3	460.4	0
30396	2013-07-17T11:00:00	26.1	ND	ND	ND	ND	ND	0.7	155.5	27.1	53.5	604	0
30397	2013-07-17T12:00:00	25.6	ND	ND	ND	ND	ND	1	80.2	28.5	49.6	677.4	0
30398	2013-07-17T13:00:00	18.8	ND	ND	ND	ND	ND	0.3	90.2	29.5	47.3	716.4	0
30399	2013-07-17T14:00:00	29.2	ND	ND	ND	ND	ND	0.8	70.2	30.8	42.9	635.1	0
30400	2013-07-17T15:00:00	32.5	ND	ND	ND	ND	ND	2.4	85.2	30.6	43.6	399	0
30401	2013-07-17T16:00:00	42.4	ND	ND	ND	ND	ND	0.3	143.3	30.3	45.1	302.1	0
30402	2013-07-17T17:00:00	22.7	ND	ND	ND	ND	ND	3.7	217	29.6	47.6	265.6	0
30403	2013-07-17T18:00:00	28.2	ND	ND	ND	ND	ND	3.7	217.1	27.8	51.8	54.4	0
30404	2013-07-17T19:00:00	31.8	ND	ND	ND	ND	ND	4.9	216.9	26.5	56.3	0	0
30405	2013-07-17T20:00:00	18.4	ND	ND	ND	ND	ND	4	217	26.1	56.6	0	0
30406	2013-07-17T21:00:00	10.7	ND	ND	ND	ND	ND	3.1	217.1	25.9	56.9	0	0
30407	2013-07-17T22:00:00	6	ND	ND	ND	ND	ND	0.7	57.1	24.8	64.8	0	0
30408	2013-07-17T23:00:00	20.2	ND	ND	ND	ND	ND	0.7	43.7	24.5	66	0	0
30409	2013-07-18T00:00:00	46	ND	ND	ND	ND	ND	0.4	66.2	24.1	68.3	0	0
30410	2013-07-18T01:00:00	34.1	ND	ND	ND	ND	ND	0.2	190.4	24.6	64.3	0	0
30411	2013-07-18T02:00:00	45.6	ND	ND	ND	ND	ND	1.7	152.9	23.5	70.4	0	0
30412	2013-07-18T03:00:00	23.7	ND	ND	ND	ND	ND	0.5	156.4	22.6	74.9	0	0
30413	2013-07-18T04:00:00	27.8	ND	ND	ND	ND	ND	0.6	172.1	22.6	75.2	0	0
30414	2013-07-18T05:00:00	14.9	ND	ND	ND	ND	ND	1.1	213.6	22.9	73.6	0	0
30415	2013-07-18T06:00:00	29	ND	ND	ND	ND	ND	0.5	150.1	22.9	72	0	0
30416	2013-07-18T07:00:00	18.2	ND	ND	ND	ND	ND	0.7	96.4	22.4	76.2	13.7	0
30417	2013-07-18T08:00:00	66.8	ND	ND	ND	ND	ND	0.5	115.7	22.7	75	95	0
30418	2013-07-18T09:00:00	77.6	ND	ND	ND	ND	ND	0.6	113.6	23.9	69.1	274.4	0
30419	2013-07-18T10:00:00	93.9	ND	ND	ND	ND	ND	0.5	94.9	25.7	61.8	453.6	0
30420	2013-07-18T11:00:00	64	ND	ND	ND	ND	ND	0.5	93.7	27.1	55.4	517.1	0
30421	2013-07-18T12:00:00	63.6	ND	ND	ND	ND	ND	0.9	66.5	28	53	506.4	0
30422	2013-07-18T13:00:00	62.6	ND	ND	ND	ND	ND	0.8	73.5	28.8	51.3	600.5	0
30423	2013-07-18T14:00:00	69.5	ND	ND	ND	ND	ND	0.8	110.9	29.7	48.9	550.7	0
30424	2013-07-18T15:00:00	36.3	ND	ND	ND	ND	ND	2.3	221	29.5	47.7	367.3	0
30425	2013-07-18T16:00:00	29	ND	ND	ND	ND	ND	4	217	28.8	47.3	343.5	0
30426	2013-07-18T17:00:00	16.1	ND	ND	ND	ND	ND	3.8	217.6	27.9	49.2	200.3	0
30427	2013-07-18T18:00:00	22.8	ND	ND	ND	ND	ND	4.1	218	26.7	52.7	86.4	0
30428	2013-07-18T19:00:00	21	ND	ND	ND	ND	ND	3.6	218.3	25.7	55.3	4.6	0
30429	2013-07-18T20:00:00	21.4	ND	ND	ND	ND	ND	3.3	219.9	25.4	55.3	0	0
30430	2013-07-18T21:00:00	12.1	ND	ND	ND	ND	ND	1	201.8	25.1	56.7	0	0
30431	2013-07-18T22:00:00	7.5	ND	ND	ND	ND	ND	1	180.5	24.7	58.6	0	0
30432	2013-07-18T23:00:00	4.4	ND	ND	ND	ND	ND	1.9	207.1	24.2	60.7	0	0
30433	2013-07-19T00:00:00	3.6	ND	ND	ND	ND	ND	2.1	207.7	23.9	61.6	0	0
30434	2013-07-19T01:00:00	3.3	ND	ND	ND	ND	ND	0.7	190.4	23	68.4	0	0
30435	2013-07-19T02:00:00	9.5	ND	ND	ND	ND	ND	0.7	136.6	22.5	73.4	0	0
30436	2013-07-19T03:00:00	6.1	ND	ND	ND	ND	ND	1.1	146.3	22.4	73.4	0	0
30437	2013-07-19T04:00:00	13.5	ND	ND	ND	ND	ND	1	142.2	21.4	79.7	0	0
30438	2013-07-19T05:00:00	7.8	ND	ND	ND	ND	ND	0.7	154.7	21.3	80.6	0	0
30439	2013-07-19T06:00:00	20.9	ND	ND	ND	ND	ND	0.5	131.3	21.5	79.9	0	0
30440	2013-07-19T07:00:00	11.4	ND	ND	ND	ND	ND	0.6	149.8	21.5	80.8	8.8	0
30441	2013-07-19T08:00:00	43.3	ND	ND	ND	ND	ND	0.2	7	22.3	76.9	108	0
30442	2013-07-19T09:00:00	59.3	ND	ND	ND	ND	ND	0.7	105.6	24.5	66.6	410	0
30443	2013-07-19T10:00:00	63.6	ND	ND	ND	ND	ND	0.6	116.1	25.2	63.4	238	0
30444	2013-07-19T11:00:00	56.8	ND	ND	ND	ND	ND	1.1	164.5	26.2	59.8	351.7	0
30445	2013-07-19T12:00:00	65.3	ND	ND	ND	ND	ND	0.8	126.4	27.3	54.2	470.2	0
30446	2013-07-19T13:00:00	34.4	ND	ND	ND	ND	ND	1.1	65.8	28.5	48.9	403.3	0
30447	2013-07-19T14:00:00	18.3	ND	ND	ND	ND	ND	0.8	235.4	29	47	363.2	0
30448	2013-07-19T15:00:00	11.2	ND	ND	ND	ND	ND	0.2	269.8	29.1	46.5	500.4	0
30449	2013-07-19T16:00:00	12.4	ND	ND	ND	ND	ND	2	54.1	28.1	53	232.3	0
30450	2013-07-19T17:00:00	13.7	ND	ND	ND	ND	ND	2.7	183.3	25.7	57.6	80.5	0
30451	2013-07-19T18:00:00	34.9	ND	ND	ND	ND	ND	1.8	182.6	25.9	56.8	38.4	0
30452	2013-07-19T19:00:00	22.2	ND	ND	ND	ND	ND	1.9	200.3	25.8	56.5	0	0
30453	2013-07-19T20:00:00	37.4	ND	ND	ND	ND	ND	1.2	221.2	25.3	58.2	0	0
30454	2013-07-19T21:00:00	43.5	ND	ND	ND	ND	ND	0.4	20	24.2	65.1	0	0
30455	2013-07-19T22:00:00	52.7	ND	ND	ND	ND	ND	0.9	34.9	22.6	74.2	0	0
30456	2013-07-19T23:00:00	68.7	ND	ND	ND	ND	ND	0.4	328.5	22.3	74.1	0	0
30457	2013-07-20T00:00:00	69.6	ND	ND	ND	ND	ND	0.9	49.1	22.1	74.4	0	0
30458	2013-07-20T01:00:00	61.9	ND	ND	ND	ND	ND	0.3	194.6	22	74	0	0
30459	2013-07-20T02:00:00	59.9	ND	ND	ND	ND	ND	0.5	171.8	22	75.2	0	0
30460	2013-07-20T03:00:00	40.2	ND	ND	ND	ND	ND	0.9	197.5	22	73.9	0	0
30461	2013-07-20T04:00:00	51.9	ND	ND	ND	ND	ND	0.3	95	22	73.7	0	0
30462	2013-07-20T05:00:00	49.8	ND	ND	ND	ND	ND	0.7	163	21.4	77.6	0	0
30463	2013-07-20T06:00:00	59.9	ND	ND	ND	ND	ND	0.5	143.5	21.1	78.8	0	0
30464	2013-07-20T07:00:00	31.7	ND	ND	ND	ND	ND	0.7	193.8	21.6	73.8	44.7	0
30465	2013-07-20T08:00:00	40	ND	ND	ND	ND	ND	1.2	141	21.9	75	100.8	0
30466	2013-07-20T09:00:00	40.9	ND	ND	ND	ND	ND	0.6	185.3	23.5	65.7	341.8	0
30467	2013-07-20T10:00:00	42.2	ND	ND	ND	ND	ND	0.6	89.3	25.6	58.8	579	0
30468	2013-07-20T11:00:00	22	ND	ND	ND	ND	ND	1.3	86.1	27	55.2	688.2	0
30469	2013-07-20T12:00:00	32	ND	ND	ND	ND	ND	1	101.6	28.5	50.8	755.8	0
30470	2013-07-20T13:00:00	29.6	ND	ND	ND	ND	ND	1	94.5	29.7	46.7	664.5	0
30471	2013-07-20T14:00:00	43.5	ND	ND	ND	ND	ND	0.6	217.4	29.8	46.1	364.9	0
30472	2013-07-20T15:00:00	23.1	ND	ND	ND	ND	ND	1.9	220.5	30.1	43.5	339.5	0
30473	2013-07-20T16:00:00	12.5	ND	ND	ND	ND	ND	4	218.5	29.1	46.4	277.5	0
30474	2013-07-20T17:00:00	7.4	ND	ND	ND	ND	ND	4.6	217.8	28.2	47.7	229.2	0
30475	2013-07-20T18:00:00	4.8	ND	ND	ND	ND	ND	3.7	218.6	27.8	49.7	131.7	0
30476	2013-07-20T19:00:00	4.2	ND	ND	ND	ND	ND	3.4	217.6	26.6	54.2	0	0
30477	2013-07-20T20:00:00	18.3	ND	ND	ND	ND	ND	3.5	218	26	56.1	0	0
30478	2013-07-20T21:00:00	9.9	ND	ND	ND	ND	ND	2.9	216.6	25.8	55.7	0	0
30479	2013-07-20T22:00:00	5	ND	ND	ND	ND	ND	2.9	216.6	25.2	58.8	0	0
30480	2013-07-20T23:00:00	4.5	ND	ND	ND	ND	ND	2.2	213.2	24.7	61.8	0	0
30481	2013-07-21T00:00:00	3.6	ND	ND	ND	ND	ND	0.7	189.3	24.1	65.8	0	0
30482	2013-07-21T01:00:00	3.6	ND	ND	ND	ND	ND	0.9	78.1	23	71.1	0	0
30483	2013-07-21T02:00:00	32	ND	ND	ND	ND	ND	0.7	112.9	22.8	72	0	0
30484	2013-07-21T03:00:00	32.5	ND	ND	ND	ND	ND	1.2	95.2	21.3	84.1	0	53.09
30485	2013-07-21T04:00:00	27.2	ND	ND	ND	ND	ND	1.3	216.2	19.2	99	0	26.16
30486	2013-07-21T05:00:00	15.3	ND	ND	ND	ND	ND	0.3	158.2	20.1	99	0	0.76
30487	2013-07-21T06:00:00	8.8	ND	ND	ND	ND	ND	0.2	ND	20.6	96.2	0	0
30488	2013-07-21T07:00:00	6.3	ND	ND	ND	ND	ND	0.2	123.8	20.6	94	27.5	0
30489	2013-07-21T08:00:00	14.9	ND	ND	ND	ND	ND	0.8	199.3	21.5	87.8	180.6	0
30490	2013-07-21T09:00:00	9.4	ND	ND	ND	ND	ND	0.6	126.2	23.6	75.4	372.1	0
30491	2013-07-21T10:00:00	7.5	ND	ND	ND	ND	ND	1	138.5	24.9	68.3	596.2	0
30492	2013-07-21T11:00:00	5.3	ND	ND	ND	ND	ND	0.8	133.7	26.4	61.5	725	0
30493	2013-07-21T12:00:00	13.6	ND	ND	ND	ND	ND	0.9	154.6	28	56	823.1	0
30494	2013-07-21T13:00:00	22.8	ND	ND	ND	ND	ND	1	108.1	29.1	51.8	748.6	0
30495	2013-07-21T14:00:00	30.7	ND	ND	ND	ND	ND	0.4	47.8	30.1	48.7	466.1	0
30496	2013-07-21T15:00:00	17	ND	ND	ND	ND	ND	3.9	218.5	29.5	47.3	561.9	0
30497	2013-07-21T16:00:00	9.5	ND	ND	ND	ND	ND	4	217.4	29.1	47.9	418.4	0
30498	2013-07-21T17:00:00	6	ND	ND	ND	ND	ND	4.2	218.2	27.5	51.5	142.7	0
30499	2013-07-21T18:00:00	4.1	ND	ND	ND	ND	ND	4.2	217.4	26.2	56.2	42.4	0
30500	2013-07-21T19:00:00	3.2	ND	ND	ND	ND	ND	4.7	217.6	25.5	58.1	0	0
30501	2013-07-21T20:00:00	3.2	ND	ND	ND	ND	ND	4.8	218.4	25.5	57.4	0	0
30502	2013-07-21T21:00:00	1.6	ND	ND	ND	ND	ND	1.9	224.8	25.4	58	0	0
30503	2013-07-21T22:00:00	0.8	ND	ND	ND	ND	ND	3.4	216.7	24.8	61.1	0	0
30504	2013-07-21T23:00:00	1.3	ND	ND	ND	ND	ND	2.3	197.1	24.2	65.7	0	0
30505	2013-07-22T00:00:00	9.5	ND	ND	ND	ND	ND	1.3	202.1	24	67.1	0	0
30506	2013-07-22T01:00:00	16.3	ND	ND	ND	ND	ND	0.9	194.2	23.5	69.5	0	0
30507	2013-07-22T02:00:00	14.6	ND	ND	ND	ND	ND	0.4	206	23.4	69.2	0	0
30508	2013-07-22T03:00:00	9.1	ND	ND	ND	ND	ND	0.6	121.9	22.4	76	0	0
30509	2013-07-22T04:00:00	17	ND	ND	ND	ND	ND	0.6	104.7	22	77.4	0	0
30510	2013-07-22T05:00:00	24.2	ND	ND	ND	ND	ND	0.2	ND	22.1	76.1	0	0
30511	2013-07-22T06:00:00	20.2	ND	ND	ND	ND	ND	0.2	ND	22.3	75.8	0	0
30512	2013-07-22T07:00:00	44.6	ND	ND	ND	ND	ND	0.7	155.4	22.3	76.7	29.2	0
30513	2013-07-22T08:00:00	55.4	ND	ND	ND	ND	ND	1	139.6	22.9	75.3	127.3	0
30514	2013-07-22T09:00:00	47.9	ND	ND	ND	ND	ND	0.6	121.1	23.7	70.3	240.7	0
30515	2013-07-22T10:00:00	60	ND	ND	ND	ND	ND	0.8	113.2	25.9	61.5	630.4	0
30516	2013-07-22T11:00:00	33.8	ND	ND	ND	ND	ND	1.3	90.8	27.8	55.2	745.5	0
30517	2013-07-22T12:00:00	53.1	ND	ND	ND	ND	ND	0.8	95.7	28.3	53.1	494.9	0
30518	2013-07-22T13:00:00	35.6	ND	ND	ND	ND	ND	1.1	153.6	28.9	51.5	666.8	0
30519	2013-07-22T14:00:00	26	ND	ND	ND	ND	ND	1.4	140.8	29.8	48.8	739.8	0
30520	2013-07-22T15:00:00	20	ND	ND	ND	ND	ND	1	213.9	30.1	47	253	0
30521	2013-07-22T16:00:00	22.9	ND	ND	ND	ND	ND	3.5	216.7	29.9	45.6	333	0
30522	2013-07-22T17:00:00	12.2	ND	ND	ND	ND	ND	3.3	220.2	27.1	56.1	111.1	10.67
30523	2013-07-22T18:00:00	20.9	ND	ND	ND	ND	ND	2.8	220.4	24.6	67.7	42.2	1.02
30524	2013-07-22T19:00:00	11.2	ND	ND	ND	ND	ND	1.8	221	25.3	59.6	6.7	0
30525	2013-07-22T20:00:00	9.2	ND	ND	ND	ND	ND	2.6	220.4	25.4	57.7	0	0
30526	2013-07-22T21:00:00	5.7	ND	ND	ND	ND	ND	0.7	181.3	24.5	64.3	0	0
30527	2013-07-22T22:00:00	23.9	ND	ND	ND	ND	ND	3.6	218	24.7	59.8	0	0
30528	2013-07-22T23:00:00	14.2	ND	ND	ND	ND	ND	3.1	219.1	24.6	60.6	0	0
30529	2013-07-23T00:00:00	7.1	ND	ND	ND	ND	ND	1	129.7	24	67	0	0
30530	2013-07-23T01:00:00	4.1	ND	ND	ND	ND	ND	1.3	179.2	23.3	73.3	0	0
30531	2013-07-23T02:00:00	22	ND	ND	ND	ND	ND	0.6	67.1	22	82.1	0	0.25
30532	2013-07-23T03:00:00	13.1	ND	ND	ND	ND	ND	0.4	209.2	21.9	81.2	0	0.51
30533	2013-07-23T04:00:00	26.1	ND	ND	ND	ND	ND	0.8	235.4	21.5	84.9	0	2.29
30534	2013-07-23T05:00:00	14.8	ND	ND	ND	ND	ND	0.4	106.1	21.2	86	0	0.25
30535	2013-07-23T06:00:00	8.3	ND	ND	ND	ND	ND	0.4	154	20.8	89.1	0	0
30536	2013-07-23T07:00:00	6	ND	ND	ND	ND	ND	0.8	177	21	88.8	9.8	0
30537	2013-07-23T08:00:00	31.1	ND	ND	ND	ND	ND	1.2	204.3	21.5	82.9	78.2	0
30538	2013-07-23T09:00:00	16	ND	ND	ND	ND	ND	1.3	152.7	22.3	81.6	226.2	0
30539	2013-07-23T10:00:00	39.4	ND	ND	ND	ND	ND	0.8	117.2	23.1	76.1	274.6	0
30540	2013-07-23T11:00:00	28	ND	ND	ND	ND	ND	1.2	78	23.6	75.6	317	0
30541	2013-07-23T12:00:00	41.5	ND	ND	ND	ND	ND	1.4	89.7	24.1	73.9	344.6	0
30542	2013-07-23T13:00:00	35.7	ND	ND	ND	ND	ND	0.3	104.8	25	69	280.7	0
30543	2013-07-23T14:00:00	58.2	ND	ND	ND	ND	ND	1.3	157.4	25.7	66.2	403	0
30544	2013-07-23T15:00:00	51.3	ND	ND	ND	ND	ND	1.5	173	26.4	63.8	460.5	0
30545	2013-07-23T16:00:00	60.1	ND	ND	ND	ND	ND	1.7	160.4	26.5	62.9	311.4	0
30546	2013-07-23T17:00:00	49.1	ND	ND	ND	ND	ND	1.6	173.9	26.2	63.2	185.9	0
30547	2013-07-23T18:00:00	71.5	ND	ND	ND	ND	ND	1.1	144.3	26	64	75.3	0
30548	2013-07-23T19:00:00	84.8	ND	ND	ND	ND	ND	1	161.5	25.4	65.7	0	0
30549	2013-07-23T20:00:00	80.6	ND	ND	ND	ND	ND	1.3	215.7	25	63.6	0	0
30550	2013-07-23T21:00:00	42.1	ND	ND	ND	ND	ND	1.1	222.1	24.7	61.8	0	0
30551	2013-07-23T22:00:00	38.2	ND	ND	ND	ND	ND	1.1	215.9	24.3	62.5	0	0
30552	2013-07-23T23:00:00	20.4	ND	ND	ND	ND	ND	1.1	211.3	23.7	65	0	0
30553	2013-07-24T00:00:00	11.7	ND	ND	ND	ND	ND	0.5	220.4	23.2	67.7	0	0
30554	2013-07-24T01:00:00	20.8	ND	ND	ND	ND	ND	0.9	217	22.5	70.2	0	0
30555	2013-07-24T02:00:00	12.1	ND	ND	ND	ND	ND	0.3	100.3	21.9	74.7	0	0
30556	2013-07-24T03:00:00	23.1	ND	ND	ND	ND	ND	1.4	190.5	21.2	80.8	0	0
30557	2013-07-24T04:00:00	29.1	ND	ND	ND	ND	ND	1.4	198.5	21.3	77.4	0	0
30558	2013-07-24T05:00:00	21.7	ND	ND	ND	ND	ND	1	187.6	21.6	75.8	0	0
30559	2013-07-24T06:00:00	40.4	ND	ND	ND	ND	ND	0.6	175.8	21.5	79.1	0	0
30560	2013-07-24T07:00:00	56.7	ND	ND	ND	ND	ND	0.7	211.1	21.4	76.8	24.5	0
30561	2013-07-24T08:00:00	58.6	ND	ND	ND	ND	ND	0.8	213.6	22.4	71	165.5	0
30562	2013-07-24T09:00:00	40.4	ND	ND	ND	ND	ND	0.5	136.2	24.5	65.4	381.6	0
30563	2013-07-24T10:00:00	55.5	ND	ND	ND	ND	ND	1	152.1	25.7	61.6	581.5	0
30564	2013-07-24T11:00:00	28.3	ND	ND	ND	ND	ND	1.3	139.5	27.2	56.3	727.9	0
30565	2013-07-24T12:00:00	45.4	ND	ND	ND	ND	ND	0.9	126.5	28.5	52.2	762.2	0
30566	2013-07-24T13:00:00	32.5	ND	ND	ND	ND	ND	1.2	109.6	30	47.7	840.8	0
30567	2013-07-24T14:00:00	44.4	ND	ND	ND	ND	ND	1.6	67.6	30.8	46.3	784.1	0
30568	2013-07-24T15:00:00	44	ND	ND	ND	ND	ND	0.4	200.9	31.7	41.8	741.1	0
30569	2013-07-24T16:00:00	42.8	ND	ND	ND	ND	ND	3.9	217.7	31.4	41	570.2	0
30570	2013-07-24T17:00:00	22.4	ND	ND	ND	ND	ND	4	218.3	30.4	43.4	354.7	0
30571	2013-07-24T18:00:00	22.2	ND	ND	ND	ND	ND	3.9	217.8	28.6	48.7	89.3	0
30572	2013-07-24T19:00:00	11.6	ND	ND	ND	ND	ND	3.5	217.9	27.4	51.4	5.5	0
30573	2013-07-24T20:00:00	27.3	ND	ND	ND	ND	ND	3.2	218.3	26.9	52.6	0	0
30574	2013-07-24T21:00:00	15.8	ND	ND	ND	ND	ND	2.1	219.5	26.8	53	0	0
30575	2013-07-24T22:00:00	15.7	ND	ND	ND	ND	ND	2.2	215.5	25.9	57.1	0	0
30576	2013-07-24T23:00:00	9.6	ND	ND	ND	ND	ND	2.3	212.9	25.3	59.1	0	0
30577	2013-07-25T00:00:00	6.1	ND	ND	ND	ND	ND	0.8	196.6	24.6	63.3	0	0
30578	2013-07-25T01:00:00	5.3	ND	ND	ND	ND	ND	1.8	206.2	24.1	66	0	0
30579	2013-07-25T02:00:00	27.4	ND	ND	ND	ND	ND	0.7	209.4	23.5	67.4	0	0
30580	2013-07-25T03:00:00	30.8	ND	ND	ND	ND	ND	1.2	38.6	21.9	77.4	0	0
30581	2013-07-25T04:00:00	44.6	ND	ND	ND	ND	ND	0.2	138.3	21.5	78.8	0	0
30582	2013-07-25T05:00:00	32.3	ND	ND	ND	ND	ND	0.2	ND	21.8	75.7	0	0
30583	2013-07-25T06:00:00	36.9	ND	ND	ND	ND	ND	0.5	166.7	21.6	75.6	0	0
30584	2013-07-25T07:00:00	51.5	ND	ND	ND	ND	ND	1	153.4	21.3	78.5	33.8	0
30585	2013-07-25T08:00:00	70.8	ND	ND	ND	ND	ND	0.6	135.4	22.7	71.7	194	0
30586	2013-07-25T09:00:00	66.6	ND	ND	ND	ND	ND	1	118.2	24.4	65.9	346.2	0
30587	2013-07-25T10:00:00	81	ND	ND	ND	ND	ND	0.8	109	25.8	60.5	525.7	0
30588	2013-07-25T11:00:00	65.2	ND	ND	ND	ND	ND	1.3	117.3	27.3	55.5	668.3	0
30589	2013-07-25T12:00:00	61.6	ND	ND	ND	ND	ND	0.9	124.5	29.1	50.4	850.6	0
30590	2013-07-25T13:00:00	39.5	ND	ND	ND	ND	ND	1	117.5	30.1	46	746.5	0
30591	2013-07-25T14:00:00	48.7	ND	ND	ND	ND	ND	1.2	86	31.2	42.6	827.7	0
30592	2013-07-25T15:00:00	26.1	ND	ND	ND	ND	ND	1.3	99.8	32	38.5	667.6	0
30593	2013-07-25T16:00:00	38.7	ND	ND	ND	ND	ND	1.2	122.7	32.4	37	507.5	0
30594	2013-07-25T17:00:00	36.1	ND	ND	ND	ND	ND	1.2	124.6	32.1	38.1	224	0
30595	2013-07-25T18:00:00	42.4	ND	ND	ND	ND	ND	2	207	30.9	44.5	125.7	0
30596	2013-07-25T19:00:00	23	ND	ND	ND	ND	ND	3.8	216.7	28.5	52.1	6.6	0
30597	2013-07-25T20:00:00	33	ND	ND	ND	ND	ND	5	217	27.3	56.4	0	0
30598	2013-07-25T21:00:00	26.7	ND	ND	ND	ND	ND	3.3	217	27.1	56.2	0	0
30599	2013-07-25T22:00:00	16.6	ND	ND	ND	ND	ND	1.7	217.4	26.6	58.3	0	0
30600	2013-07-25T23:00:00	8.8	ND	ND	ND	ND	ND	0.4	240.6	25.2	66.4	0	0
30601	2013-07-26T00:00:00	16.2	ND	ND	ND	ND	ND	1.6	223	25.4	62.4	0	0
30602	2013-07-26T01:00:00	15.1	ND	ND	ND	ND	ND	0.2	91.2	24.9	66.2	0	0
30603	2013-07-26T02:00:00	30.4	ND	ND	ND	ND	ND	1.1	180.6	23.6	72.5	0	0
30604	2013-07-26T03:00:00	17	ND	ND	ND	ND	ND	1.3	177.4	23.5	67.3	0	0
30605	2013-07-26T04:00:00	19.4	ND	ND	ND	ND	ND	0.7	151.5	22.7	75.5	0	0
30606	2013-07-26T05:00:00	10.6	ND	ND	ND	ND	ND	0.9	205.4	23.3	67.8	0	0
30607	2013-07-26T06:00:00	21.2	ND	ND	ND	ND	ND	0.8	44.2	22.6	76.3	0	0
30608	2013-07-26T07:00:00	11.5	ND	ND	ND	ND	ND	1	201.6	23.2	67.7	21.8	0
30609	2013-07-26T08:00:00	24.3	ND	ND	ND	ND	ND	2.1	172.8	23.3	64.4	139.4	0
30610	2013-07-26T09:00:00	27.4	ND	ND	ND	ND	ND	2	167.5	24.8	57.8	308.7	0
30611	2013-07-26T10:00:00	56.9	ND	ND	ND	ND	ND	0.9	137.5	25.8	57.1	381.4	0
30612	2013-07-26T11:00:00	62.3	ND	ND	ND	ND	ND	0.7	58.2	27.3	51.9	619.1	0
30613	2013-07-26T12:00:00	53.8	ND	ND	ND	ND	ND	0.3	204.4	29	45.2	771.1	0
30614	2013-07-26T13:00:00	36.6	ND	ND	ND	ND	ND	1.2	67.2	30.8	39.7	843.8	0
30615	2013-07-26T14:00:00	49.2	ND	ND	ND	ND	ND	0.5	12.3	31	38.9	631.3	0
30616	2013-07-26T15:00:00	50	ND	ND	ND	ND	ND	0.2	241.5	31.2	38.2	451.8	0
30617	2013-07-26T16:00:00	31	ND	ND	ND	ND	ND	0.6	129.3	31.5	38.1	460.4	0
30618	2013-07-26T17:00:00	19.5	ND	ND	ND	ND	ND	3.5	217.4	29.7	44.5	197.2	0
30619	2013-07-26T18:00:00	38.1	ND	ND	ND	ND	ND	3.2	217.8	28.6	47.7	82.7	0
30620	2013-07-26T19:00:00	23	ND	ND	ND	ND	ND	3.8	218.4	26.9	51.1	5.7	0
30621	2013-07-26T20:00:00	35.9	ND	ND	ND	ND	ND	4.4	216.8	26.2	51.7	0	0
30622	2013-07-26T21:00:00	18.5	ND	ND	ND	ND	ND	3.6	216.6	26	52.7	0	0
30623	2013-07-26T22:00:00	17.9	ND	ND	ND	ND	ND	2.1	217.3	25.3	55.2	0	0
30624	2013-07-26T23:00:00	9.7	ND	ND	ND	ND	ND	2.4	217.2	24.6	57.9	0	0
30625	2013-07-27T00:00:00	14.2	ND	ND	ND	ND	ND	0.1	34.2	23.3	65.8	0	0
30626	2013-07-27T01:00:00	12.8	ND	ND	ND	ND	ND	0.4	53.1	22.5	70.2	0	0
30627	2013-07-27T02:00:00	18.4	ND	ND	ND	ND	ND	0.4	47.4	22.7	69.2	0	0
30628	2013-07-27T03:00:00	17.7	ND	ND	ND	ND	ND	0.9	162.5	22.1	68.6	0	0
30629	2013-07-27T04:00:00	26.3	ND	ND	ND	ND	ND	1.1	170.5	21.4	69.7	0	0
30630	2013-07-27T05:00:00	14.4	ND	ND	ND	ND	ND	0.7	154.5	21.5	63	0	0
30631	2013-07-27T06:00:00	11.4	ND	ND	ND	ND	ND	1.1	191.5	21.3	63	0	0
30632	2013-07-27T07:00:00	7.2	ND	ND	ND	ND	ND	0.4	174.3	21.3	60.1	26.2	0
30633	2013-07-27T08:00:00	21.4	ND	ND	ND	ND	ND	0.1	ND	22.4	58.5	165.8	0
30634	2013-07-27T09:00:00	20.7	ND	ND	ND	ND	ND	1.1	118.6	24.5	52.4	407.2	0
30635	2013-07-27T10:00:00	41.5	ND	ND	ND	ND	ND	1.6	134.5	25.5	50.2	590.2	0
30636	2013-07-27T11:00:00	23.9	ND	ND	ND	ND	ND	0.6	121.2	26.9	48.3	745.2	0
30637	2013-07-27T12:00:00	52.3	ND	ND	ND	ND	ND	1.1	80.2	28.2	46.3	815.8	0
30638	2013-07-27T13:00:00	39.3	ND	ND	ND	ND	ND	1.1	102.3	30.2	41.1	858.8	0
30639	2013-07-27T14:00:00	41.4	ND	ND	ND	ND	ND	0.8	135.5	31.2	36.7	716.5	0
30640	2013-07-27T15:00:00	24.1	ND	ND	ND	ND	ND	1.3	167.3	32.5	32.4	742.4	0
30641	2013-07-27T16:00:00	16.2	ND	ND	ND	ND	ND	2.6	209.2	32.3	34.9	560.5	0
30642	2013-07-27T17:00:00	9.9	ND	ND	ND	ND	ND	4.4	217.2	30.4	42.5	366.2	0
30643	2013-07-27T18:00:00	24.2	ND	ND	ND	ND	ND	3.8	217.1	29	45.8	98.8	0
30644	2013-07-27T19:00:00	13.1	ND	ND	ND	ND	ND	4.1	216.9	27.1	51.7	0	0
30645	2013-07-27T20:00:00	7.5	ND	ND	ND	ND	ND	2.8	216.7	26.7	51.8	0	0
30646	2013-07-27T21:00:00	5.2	ND	ND	ND	ND	ND	2.9	217.1	26.4	47.7	0	0
30647	2013-07-27T22:00:00	7.5	ND	ND	ND	ND	ND	1.6	201.7	25.5	49.9	0	0
30648	2013-07-27T23:00:00	30.7	ND	ND	ND	ND	ND	1.6	190.3	24.9	54.8	0	0
30649	2013-07-28T00:00:00	21.7	ND	ND	ND	ND	ND	1.5	197.1	24.7	54.6	0	0
30650	2013-07-28T01:00:00	18.3	ND	ND	ND	ND	ND	0.3	54.6	23.4	65.7	0	0
30651	2013-07-28T02:00:00	40.6	ND	ND	ND	ND	ND	0.3	ND	23.2	60.3	0	0
30652	2013-07-28T03:00:00	24.5	ND	ND	ND	ND	ND	1	198.6	22.4	62.9	0	0
30653	2013-07-28T04:00:00	21.8	ND	ND	ND	ND	ND	1.6	214.8	21.9	59	0	0
30654	2013-07-28T05:00:00	12.6	ND	ND	ND	ND	ND	1	215.9	21.8	61.6	0	0
30655	2013-07-28T06:00:00	7.9	ND	ND	ND	ND	ND	1.2	196.3	21.3	66.6	0	0
30656	2013-07-28T07:00:00	9.4	ND	ND	ND	ND	ND	1.4	206.3	21.2	63.4	44.1	0
30657	2013-07-28T08:00:00	10.7	ND	ND	ND	ND	ND	0.6	226.9	22.8	58.2	224.1	0
30658	2013-07-28T09:00:00	35.6	ND	ND	ND	ND	ND	1.3	72.1	24.7	55.3	439	0
30659	2013-07-28T10:00:00	22.7	ND	ND	ND	ND	ND	1.2	99.7	25.8	50.4	626.5	0
30660	2013-07-28T11:00:00	23.9	ND	ND	ND	ND	ND	1.7	91.3	26.9	49.3	661.5	0
30661	2013-07-28T12:00:00	15.8	ND	ND	ND	ND	ND	1.3	80.8	28.5	45.3	810.5	0
30662	2013-07-28T13:00:00	9.7	ND	ND	ND	ND	ND	1.4	92	29.6	41.6	441.6	0
30663	2013-07-28T14:00:00	20.5	ND	ND	ND	ND	ND	1	93.3	29.9	38.4	365.1	0
30664	2013-07-28T15:00:00	10.2	ND	ND	ND	ND	ND	1.1	105.3	30.6	35.9	363.1	0
30665	2013-07-28T16:00:00	9.6	ND	ND	ND	ND	ND	1.3	79.4	31.1	34.4	386.7	0
30666	2013-07-28T17:00:00	6.2	ND	ND	ND	ND	ND	1.8	213	30.4	40.3	221.8	0
30667	2013-07-28T18:00:00	17.4	ND	ND	ND	ND	ND	3.6	217.7	28.3	47.9	35.8	0
30668	2013-07-28T19:00:00	14.1	ND	ND	ND	ND	ND	4	216.8	27.3	49.5	0	0
30669	2013-07-28T20:00:00	10.6	ND	ND	ND	ND	ND	3.9	216.6	26.7	51.9	0	0
30670	2013-07-28T21:00:00	6.2	ND	ND	ND	ND	ND	4.1	216.5	26.1	55.4	0	0
30671	2013-07-28T22:00:00	9	ND	ND	ND	ND	ND	1.9	223.5	25.8	57.4	0	0
30672	2013-07-28T23:00:00	14.6	ND	ND	ND	ND	ND	1.7	216.3	25.4	57.8	0	0
30673	2013-07-29T00:00:00	17.7	ND	ND	ND	ND	ND	1.8	217.7	24.9	58.5	0	0
30674	2013-07-29T01:00:00	10.7	ND	ND	ND	ND	ND	1	216.9	24.5	60.2	0	0
30675	2013-07-29T02:00:00	6.5	ND	ND	ND	ND	ND	0.8	59	23.6	68.2	0	0
30676	2013-07-29T03:00:00	4.8	ND	ND	ND	ND	ND	0.9	173.3	23.6	65.5	0	0
30677	2013-07-29T04:00:00	3.9	ND	ND	ND	ND	ND	1.1	208.4	23.5	59.4	0	0
30678	2013-07-29T05:00:00	2.7	ND	ND	ND	ND	ND	0.7	209	22.9	67.3	0	0
30679	2013-07-29T06:00:00	13.5	ND	ND	ND	ND	ND	0.4	157.6	22.4	64	0	0
30680	2013-07-29T07:00:00	19.5	ND	ND	ND	ND	ND	0.5	110.9	22.5	62.2	25.6	0
30681	2013-07-29T08:00:00	30.8	ND	ND	ND	ND	ND	0.6	206.1	23.1	63.2	139.1	0
30682	2013-07-29T09:00:00	21.1	ND	ND	ND	ND	ND	0.2	ND	24.7	57.7	289.9	0
30683	2013-07-29T10:00:00	37.2	ND	ND	ND	ND	ND	1.1	184.7	26.1	53.6	566.2	0
30684	2013-07-29T11:00:00	20.7	ND	ND	ND	ND	ND	1.3	142.7	27.8	48.2	711	0
30685	2013-07-29T12:00:00	30.4	ND	ND	ND	ND	ND	1.4	142	28.6	45.3	625.7	0
30686	2013-07-29T13:00:00	16.8	ND	ND	ND	ND	ND	1.2	101	29.9	43	732.9	0
30687	2013-07-29T14:00:00	36.7	ND	ND	ND	ND	ND	1.7	99	30	42.7	416	0
30688	2013-07-29T15:00:00	46	ND	ND	ND	ND	ND	1.7	83	29.9	44.1	469	0
30689	2013-07-29T16:00:00	56.1	ND	ND	ND	ND	ND	2	71.8	29.8	43.2	308.6	0
30690	2013-07-29T17:00:00	51.9	ND	ND	ND	ND	ND	1.8	208	29.4	44.4	111.5	0
30691	2013-07-29T18:00:00	50.9	ND	ND	ND	ND	ND	3.6	216.3	27.6	50	41.6	0
30692	2013-07-29T19:00:00	26.5	ND	ND	ND	ND	ND	3.5	216.2	26.9	51	0	0
30693	2013-07-29T20:00:00	31	ND	ND	ND	ND	ND	3	217.2	26.3	52.9	0	0
30694	2013-07-29T21:00:00	19.5	ND	ND	ND	ND	ND	2.8	216.4	25.7	56.7	0	0
30695	2013-07-29T22:00:00	11.6	ND	ND	ND	ND	ND	2.2	219	25.2	58.8	0	0
30696	2013-07-29T23:00:00	7.9	ND	ND	ND	ND	ND	0.2	ND	24.4	63	0	0
30697	2013-07-30T00:00:00	15.1	ND	ND	ND	ND	ND	1.9	210.9	24.2	59.7	0	0
30698	2013-07-30T01:00:00	9.1	ND	ND	ND	ND	ND	0.6	220.8	23.6	64	0	0
30699	2013-07-30T02:00:00	15.2	ND	ND	ND	ND	ND	1	135.8	22.6	71	0	0
30700	2013-07-30T03:00:00	35.7	ND	ND	ND	ND	ND	0.8	161.7	21.9	71.9	0	0
30701	2013-07-30T04:00:00	39.1	ND	ND	ND	ND	ND	0.9	157.1	21.6	68.9	0	0
30702	2013-07-30T05:00:00	22.8	ND	ND	ND	ND	ND	0.2	139.5	21.4	72.8	0	0
30703	2013-07-30T06:00:00	41.8	ND	ND	ND	ND	ND	0.4	168.3	21.3	71.8	0	0
30704	2013-07-30T07:00:00	24	ND	ND	ND	ND	ND	0.9	208.6	21.5	66.3	36.3	0
30705	2013-07-30T08:00:00	35.4	ND	ND	ND	ND	ND	1	67.6	22.8	63.9	199.2	0
30706	2013-07-30T09:00:00	74.4	ND	ND	ND	ND	ND	0.9	138.3	24.1	57.8	410.2	0
30707	2013-07-30T10:00:00	57.7	ND	ND	ND	ND	ND	0.8	160.4	25.5	51.1	516	0
30708	2013-07-30T11:00:00	40.6	ND	ND	ND	ND	ND	1.6	125.8	27.3	46.4	625.8	0
30709	2013-07-30T12:00:00	59.5	ND	ND	ND	ND	ND	2.5	153.8	27.5	46.4	657.3	0
30710	2013-07-30T13:00:00	30.8	ND	ND	ND	ND	ND	1.8	159.6	28.1	41.8	528.1	0
30711	2013-07-30T14:00:00	36.5	ND	ND	ND	ND	ND	2.1	154.5	28.9	40.8	594.8	0
30712	2013-07-30T15:00:00	19.5	ND	ND	ND	ND	ND	1.7	141.7	29.6	38.6	598.2	0
30713	2013-07-30T16:00:00	24.9	ND	ND	ND	ND	ND	1.9	134.8	29.7	36.8	425.8	0
30714	2013-07-30T17:00:00	26	ND	ND	ND	ND	ND	1.4	123	29.6	37.8	263.7	0
30715	2013-07-30T18:00:00	49.2	ND	ND	ND	ND	ND	1.4	206.4	27.9	47.4	60.5	0
30716	2013-07-30T19:00:00	51.8	ND	ND	ND	ND	ND	3.6	216.5	26	55.2	0	0
30717	2013-07-30T20:00:00	27.3	ND	ND	ND	ND	ND	4.1	217	25.2	57.1	0	0
30718	2013-07-30T21:00:00	18.2	ND	ND	ND	ND	ND	4.1	217.2	25	56.8	0	0
30719	2013-07-30T22:00:00	9.8	ND	ND	ND	ND	ND	0.6	171.1	24.2	62.2	0	0
30720	2013-07-30T23:00:00	41.4	ND	ND	ND	ND	ND	2.6	217.3	24.3	59.8	0	0
30721	2013-07-31T00:00:00	24.6	ND	ND	ND	ND	ND	0.1	48.7	23.3	66.2	0	0
30722	2013-07-31T01:00:00	38.7	ND	ND	ND	ND	ND	0.5	65.1	22.1	71.7	0	0
30723	2013-07-31T02:00:00	20.5	ND	ND	ND	ND	ND	1	171.3	22.1	71.3	0	0
30724	2013-07-31T03:00:00	26.6	ND	ND	ND	ND	ND	1.5	169.7	21.7	73.1	0	0
30725	2013-07-31T04:00:00	34.6	ND	ND	ND	ND	ND	1.1	142	21.2	74.6	0	0
30726	2013-07-31T05:00:00	21.8	ND	ND	ND	ND	ND	0.6	157.5	21	75.4	0	0
30727	2013-07-31T06:00:00	50.3	ND	ND	ND	ND	ND	0.7	200.3	21	73.8	0	0
30728	2013-07-31T07:00:00	26.3	ND	ND	ND	ND	ND	0.5	218.9	21.1	71.3	25.6	0
30729	2013-07-31T08:00:00	38.9	ND	ND	ND	ND	ND	0.9	88.8	21.9	72.7	124.4	0
30730	2013-07-31T09:00:00	73.9	ND	ND	ND	ND	ND	0.9	123.2	22.7	69.4	240.2	0
30731	2013-07-31T10:00:00	93.5	ND	ND	ND	ND	ND	1.2	141.3	24.7	60.5	518.1	0
30732	2013-07-31T11:00:00	75.1	ND	ND	ND	ND	ND	0.9	170	26.2	54.2	537.5	0
30733	2013-07-31T12:00:00	59.5	ND	ND	ND	ND	ND	1.5	111.2	27.7	48	636.1	0
30734	2013-07-31T13:00:00	39.8	ND	ND	ND	ND	ND	1.1	106.4	28.4	46.1	433.2	0
30735	2013-07-31T14:00:00	65.1	ND	ND	ND	ND	ND	1.2	159.6	29	45.3	372.6	0
30736	2013-07-31T15:00:00	65.7	ND	ND	ND	ND	ND	0.4	102.5	29.4	44.4	288.5	0
30737	2013-07-31T16:00:00	52.4	ND	ND	ND	ND	ND	2.1	214.8	30.3	42.3	597.6	0
30738	2013-07-31T17:00:00	28.1	ND	ND	ND	ND	ND	4.2	217.7	29.3	45.9	291.4	0
30739	2013-07-31T18:00:00	32	ND	ND	ND	ND	ND	4.7	217.4	27.8	49.2	131.2	0
30740	2013-07-31T19:00:00	18.6	ND	ND	ND	ND	ND	4	218.7	26.5	52.6	4.3	0
30741	2013-07-31T20:00:00	29.6	ND	ND	ND	ND	ND	4.4	218.6	25.7	55.7	0	0
30742	2013-07-31T21:00:00	16.6	ND	ND	ND	ND	ND	5.2	217.4	25.2	58.4	0	0
30743	2013-07-31T22:00:00	8.8	ND	ND	ND	ND	ND	2	212.7	25.4	56.7	0	0
30744	2013-07-31T23:00:00	5	ND	ND	ND	ND	ND	2.7	215.7	24.8	60.3	0	0
30745	2013-08-01T00:00:00	3.3	ND	ND	ND	ND	ND	2.2	209.6	24.3	62.4	0	0
30746	2013-08-01T01:00:00	2.8	ND	ND	ND	ND	ND	0.2	164.2	23.7	66.2	0	0
30747	2013-08-01T02:00:00	4.7	ND	ND	ND	ND	ND	0.3	69.8	22.9	70.7	0	0
30748	2013-08-01T03:00:00	17.7	ND	ND	ND	ND	ND	1	135.5	22.1	73.9	0	0
30749	2013-08-01T04:00:00	41.2	ND	ND	ND	ND	ND	0.6	142.6	21.8	74.7	0	0
30750	2013-08-01T05:00:00	32.1	ND	ND	ND	ND	ND	0.9	145.8	21.6	74.9	0	0
30751	2013-08-01T06:00:00	42.4	ND	ND	ND	ND	ND	1.1	152	21.6	74.4	0	0
30752	2013-08-01T07:00:00	41.5	ND	ND	ND	ND	ND	1.4	143.1	21.2	76.4	34.1	0
30753	2013-08-01T08:00:00	68.3	ND	ND	ND	ND	ND	0.8	148.5	22.1	72.3	153.4	0
30754	2013-08-01T09:00:00	45.5	ND	ND	ND	ND	ND	0.9	135.3	23.2	67.5	223.4	0
30755	2013-08-01T10:00:00	75.8	ND	ND	ND	ND	ND	0.9	110.6	24.1	64.3	347.3	0
30756	2013-08-01T11:00:00	64.5	ND	ND	ND	ND	ND	0.4	90.7	25.7	59.2	486.1	0
30757	2013-08-01T12:00:00	69.1	ND	ND	ND	ND	ND	1	79.5	27.1	54.1	665.2	0
30758	2013-08-01T13:00:00	52.1	ND	ND	ND	ND	ND	0.7	45	28.9	49	805.1	0
30759	2013-08-01T14:00:00	43.9	ND	ND	ND	ND	ND	0.6	8.1	29.6	47.4	863.9	0
30760	2013-08-01T15:00:00	23.2	ND	ND	ND	ND	ND	0.8	52	29.6	45.9	513.6	0
30761	2013-08-01T16:00:00	23.8	ND	ND	ND	ND	ND	3.5	217.4	29.4	44.9	445.6	0
30762	2013-08-01T17:00:00	13.5	ND	ND	ND	ND	ND	4.6	217.8	28.1	47.5	348.4	0
30763	2013-08-01T18:00:00	15.4	ND	ND	ND	ND	ND	5.3	217.6	26.3	51.7	40	0
30764	2013-08-01T19:00:00	8.9	ND	ND	ND	ND	ND	5	217.7	25.6	53.6	0	0
30765	2013-08-01T20:00:00	15.6	ND	ND	ND	ND	ND	4.4	217.9	25.6	53.3	0	0
30766	2013-08-01T21:00:00	8.4	ND	ND	ND	ND	ND	3.3	219.5	25.4	53.9	0	0
30767	2013-08-01T22:00:00	5.5	ND	ND	ND	ND	ND	2.8	218.8	25.1	55.5	0	0
30768	2013-08-01T23:00:00	3.3	ND	ND	ND	ND	ND	3.6	217.1	24.7	57.9	0	0
30769	2013-08-02T00:00:00	3.2	ND	ND	ND	ND	ND	1.4	77.3	23.5	66.1	0	0
30770	2013-08-02T01:00:00	8.5	ND	ND	ND	ND	ND	0.8	82.8	22.5	72.6	0	0
30771	2013-08-02T02:00:00	9	ND	ND	ND	ND	ND	0.9	55.3	22	76.3	0	0
30772	2013-08-02T03:00:00	7.9	ND	ND	ND	ND	ND	1.3	43.4	21.6	79.2	0	0
30773	2013-08-02T04:00:00	11.7	ND	ND	ND	ND	ND	0.7	76.9	21.1	82.2	0	0
30774	2013-08-02T05:00:00	7.4	ND	ND	ND	ND	ND	0.9	61.4	21	82.9	0	0
30775	2013-08-02T06:00:00	12.1	ND	ND	ND	ND	ND	0.2	ND	21.1	82.7	0	0
30776	2013-08-02T07:00:00	18.1	ND	ND	ND	ND	ND	1	177.3	21.4	80.2	9.7	0
30777	2013-08-02T08:00:00	29.5	ND	ND	ND	ND	ND	0.8	158.1	21.9	78.3	128.2	0
30778	2013-08-02T09:00:00	37.6	ND	ND	ND	ND	ND	0.7	99.5	22.8	73.4	218.5	0
30779	2013-08-02T10:00:00	46.2	ND	ND	ND	ND	ND	1.1	78.1	24.4	67.5	417	0
30780	2013-08-02T11:00:00	46.2	ND	ND	ND	ND	ND	0.9	86.5	26.3	58.6	735	0
30781	2013-08-02T12:00:00	53.7	ND	ND	ND	ND	ND	1.3	72.2	27.7	53.2	853.3	0
30782	2013-08-02T13:00:00	29	ND	ND	ND	ND	ND	1.2	74	29.1	47.9	764	0
30783	2013-08-02T14:00:00	30.5	ND	ND	ND	ND	ND	1.2	102.2	30.1	44.9	815	0
30784	2013-08-02T15:00:00	17.4	ND	ND	ND	ND	ND	1.4	72.7	31	42.4	713.5	0
30785	2013-08-02T16:00:00	11.8	ND	ND	ND	ND	ND	1	75.2	30.8	44.2	316.4	0
30786	2013-08-02T17:00:00	15.3	ND	ND	ND	ND	ND	2.4	220.7	29.6	48.1	155.2	0
30787	2013-08-02T18:00:00	13.1	ND	ND	ND	ND	ND	3.5	216.8	28.5	50.4	122.9	0
30788	2013-08-02T19:00:00	21.1	ND	ND	ND	ND	ND	3.7	217.4	27.1	54.2	0	0
30789	2013-08-02T20:00:00	36.7	ND	ND	ND	ND	ND	4	217.1	26.6	55.5	0	0
30790	2013-08-02T21:00:00	20.6	ND	ND	ND	ND	ND	3.3	217.7	26.3	56.9	0	0
30791	2013-08-02T22:00:00	11.9	ND	ND	ND	ND	ND	2.2	221	26.2	56.1	0	0
30792	2013-08-02T23:00:00	7.3	ND	ND	ND	ND	ND	2.9	214.3	25.9	57.9	0	0
30793	2013-08-03T00:00:00	4.2	ND	ND	ND	ND	ND	0.4	91.2	25.3	62.2	0	0
30794	2013-08-03T01:00:00	39.2	ND	ND	ND	ND	ND	1.1	105	24.3	67.4	0	0
30795	2013-08-03T02:00:00	19.6	ND	ND	ND	ND	ND	0.6	91	23.8	70	0	0
30796	2013-08-03T03:00:00	15.1	ND	ND	ND	ND	ND	1.7	167	23.8	70.2	0	0
30797	2013-08-03T04:00:00	14.1	ND	ND	ND	ND	ND	1.4	170.1	23.8	70.9	0	0
30798	2013-08-03T05:00:00	16.2	ND	ND	ND	ND	ND	1.5	142.6	23.4	72.7	0	0
30799	2013-08-03T06:00:00	29.2	ND	ND	ND	ND	ND	0.9	155.6	22.8	76.1	0	0
30800	2013-08-03T07:00:00	16.3	ND	ND	ND	ND	ND	0.5	161	23.1	74.7	19.9	0
30801	2013-08-03T08:00:00	31.8	ND	ND	ND	ND	ND	1.6	150.5	23.3	74.1	45.2	0
30802	2013-08-03T09:00:00	29.6	ND	ND	ND	ND	ND	0.7	168.6	24	73.7	382.7	1.02
30803	2013-08-03T10:00:00	19.1	ND	ND	ND	ND	ND	1.4	129.6	25.9	64.7	510.4	0
30804	2013-08-03T11:00:00	11.7	ND	ND	ND	ND	ND	1.3	130.8	27.6	56.8	751.4	0
30805	2013-08-03T12:00:00	20.4	ND	ND	ND	ND	ND	1.5	143.3	29.5	49.3	850.9	0
30806	2013-08-03T13:00:00	14.2	ND	ND	ND	ND	ND	1.4	183.3	30.6	44.9	877.2	0
30807	2013-08-03T14:00:00	21	ND	ND	ND	ND	ND	1.3	194.4	32.4	35.4	832.9	0
30808	2013-08-03T15:00:00	10.5	ND	ND	ND	ND	ND	0.6	102.2	33.7	28.2	686.5	0
30809	2013-08-03T16:00:00	6.9	ND	ND	ND	ND	ND	3.1	216.6	33	34.2	455.7	0
30810	2013-08-03T17:00:00	5.5	ND	ND	ND	ND	ND	4.8	218	30	44.9	224.2	0
30811	2013-08-03T18:00:00	24.4	ND	ND	ND	ND	ND	3.8	218.9	28.8	47.7	83.1	0
30812	2013-08-03T19:00:00	20.3	ND	ND	ND	ND	ND	3.8	218.1	27.3	51.5	0	0
30813	2013-08-03T20:00:00	25.5	ND	ND	ND	ND	ND	3.3	219	26.9	53	0	0
30814	2013-08-03T21:00:00	15.4	ND	ND	ND	ND	ND	5	217.1	26.1	57	0	0
30815	2013-08-03T22:00:00	18.3	ND	ND	ND	ND	ND	4.6	218.1	25.9	57	0	0
30816	2013-08-03T23:00:00	10.8	ND	ND	ND	ND	ND	2.7	218.9	25.8	57.3	0	0
30817	2013-08-04T00:00:00	6.6	ND	ND	ND	ND	ND	2	182.9	24.8	64.1	0	0
30818	2013-08-04T01:00:00	9.3	ND	ND	ND	ND	ND	1.1	150.8	23.6	70.3	0	0
30819	2013-08-04T02:00:00	43.5	ND	ND	ND	ND	ND	1.6	143	22.8	73.3	0	0
30820	2013-08-04T03:00:00	22.8	ND	ND	ND	ND	ND	0.4	120.3	22.6	73.7	0	0
30821	2013-08-04T04:00:00	38	ND	ND	ND	ND	ND	0.4	129.9	22.6	73.4	0	0
30822	2013-08-04T05:00:00	21.2	ND	ND	ND	ND	ND	1.2	175.5	22	75.2	0	0
30823	2013-08-04T06:00:00	22.8	ND	ND	ND	ND	ND	0.7	54.4	21.6	77.2	0	0
30824	2013-08-04T07:00:00	29.7	ND	ND	ND	ND	ND	0.9	209.6	21.5	77.8	32.1	0
30825	2013-08-04T08:00:00	47.4	ND	ND	ND	ND	ND	0.3	ND	23.2	69.7	156.1	0
30826	2013-08-04T09:00:00	47.3	ND	ND	ND	ND	ND	1	81.5	24.3	65.7	298.4	0
30827	2013-08-04T10:00:00	26.2	ND	ND	ND	ND	ND	0.7	90.9	25	62.3	337.4	0
30828	2013-08-04T11:00:00	14.2	ND	ND	ND	ND	ND	1.1	103.5	26.1	58.5	445.2	0
30829	2013-08-04T12:00:00	13.3	ND	ND	ND	ND	ND	0.7	82.4	27.6	54.6	460.5	0
30830	2013-08-04T13:00:00	18.2	ND	ND	ND	ND	ND	0.8	196.7	28.8	50.4	790.6	0
30831	2013-08-04T14:00:00	17.5	ND	ND	ND	ND	ND	1.3	100	30.7	43.7	860.4	0
30832	2013-08-04T15:00:00	9.4	ND	ND	ND	ND	ND	1.1	102.6	31.7	38	681.5	0
30833	2013-08-04T16:00:00	5.8	ND	ND	ND	ND	ND	0.3	66.7	32.6	31.6	588.8	0
30834	2013-08-04T17:00:00	4.2	ND	ND	ND	ND	ND	1	203.8	31.7	36.5	243.8	0
30835	2013-08-04T18:00:00	2.6	ND	ND	ND	ND	ND	3.9	216.5	29.2	46.3	71.9	0
30836	2013-08-04T19:00:00	2.6	ND	ND	ND	ND	ND	4.2	216.4	27.8	51.5	0	0
30837	2013-08-04T20:00:00	8.4	ND	ND	ND	ND	ND	4.2	216.2	26.8	55.1	0	0
30838	2013-08-04T21:00:00	4.8	ND	ND	ND	ND	ND	4.2	217.5	26.2	56.8	0	0
30839	2013-08-04T22:00:00	2.9	ND	ND	ND	ND	ND	3.7	217.5	25.7	58.3	0	0
30840	2013-08-04T23:00:00	2.7	ND	ND	ND	ND	ND	2.3	217.9	25.5	58.2	0	0
30841	2013-08-05T00:00:00	3.3	ND	ND	ND	ND	ND	1.6	197.8	25.1	61.2	0	0
30842	2013-08-05T01:00:00	3.4	ND	ND	ND	ND	ND	1.6	217	24.7	62.8	0	0
30843	2013-08-05T02:00:00	2.5	ND	ND	ND	ND	ND	2.2	215.5	24.3	62.3	0	0
30844	2013-08-05T03:00:00	2.7	ND	ND	ND	ND	ND	0.2	261.9	23.3	69.5	0	0
30845	2013-08-05T04:00:00	5	ND	ND	ND	ND	ND	1.1	119.1	22.3	73.8	0	0
30846	2013-08-05T05:00:00	4.4	ND	ND	ND	ND	ND	0.7	159.6	21.7	73.6	0	0
30847	2013-08-05T06:00:00	9.3	ND	ND	ND	ND	ND	0.9	190.8	21.8	72.5	0	0
30848	2013-08-05T07:00:00	15.1	ND	ND	ND	ND	ND	0.8	204.9	21.8	71.8	25.8	0
30849	2013-08-05T08:00:00	32	ND	ND	ND	ND	ND	0.8	163	23.1	65.6	219.1	0
30850	2013-08-05T09:00:00	17.5	ND	ND	ND	ND	ND	1.1	146.9	24.6	60.3	413	0
30851	2013-08-05T10:00:00	40.1	ND	ND	ND	ND	ND	1.2	143.1	26.1	56.1	612.8	0
30852	2013-08-05T11:00:00	21.4	ND	ND	ND	ND	ND	1.1	132.2	27.8	50	770.9	0
30853	2013-08-05T12:00:00	26	ND	ND	ND	ND	ND	1	111.9	29.4	45.4	766.1	0
30854	2013-08-05T13:00:00	14.3	ND	ND	ND	ND	ND	1.3	105.6	29.8	44.7	439.2	0
30855	2013-08-05T14:00:00	28.7	ND	ND	ND	ND	ND	1	91.8	30.3	43.5	528.8	0
30856	2013-08-05T15:00:00	16	ND	ND	ND	ND	ND	1	97	31	41.8	474.5	0
30857	2013-08-05T16:00:00	41.6	ND	ND	ND	ND	ND	0.4	123.8	30.6	42.8	251.9	0
30858	2013-08-05T17:00:00	21.6	ND	ND	ND	ND	ND	2.8	216.6	30.1	44.6	232.6	0
30859	2013-08-05T18:00:00	19.5	ND	ND	ND	ND	ND	3.6	217.7	29.3	46.4	159	0
30860	2013-08-05T19:00:00	30.9	ND	ND	ND	ND	ND	3.6	217.9	27.7	49.9	0	0
30861	2013-08-05T20:00:00	20.6	ND	ND	ND	ND	ND	3.6	216.9	26.9	52.9	0	0
30862	2013-08-05T21:00:00	11.9	ND	ND	ND	ND	ND	3.4	216.8	26.4	55.4	0	0
30863	2013-08-05T22:00:00	7.7	ND	ND	ND	ND	ND	2.2	222.7	26.3	54.3	0	0
30864	2013-08-05T23:00:00	5.9	ND	ND	ND	ND	ND	2.8	219.1	25.9	56.7	0	0
30865	2013-08-06T00:00:00	4.1	ND	ND	ND	ND	ND	1.6	215.9	25.3	59.1	0	0
30866	2013-08-06T01:00:00	3.5	ND	ND	ND	ND	ND	2.1	219.9	24.9	60.6	0	0
30867	2013-08-06T02:00:00	2.5	ND	ND	ND	ND	ND	0.4	262.9	23.7	68	0	0
30868	2013-08-06T03:00:00	14.8	ND	ND	ND	ND	ND	0.7	51.2	23.3	70.7	0	0
30869	2013-08-06T04:00:00	24.9	ND	ND	ND	ND	ND	0.4	161.2	23.2	70	0	0
30870	2013-08-06T05:00:00	26.1	ND	ND	ND	ND	ND	0.8	148.8	23	70.2	0	0
30871	2013-08-06T06:00:00	29.7	ND	ND	ND	ND	ND	0.3	ND	23.2	67.8	0	0
30872	2013-08-06T07:00:00	23.6	ND	ND	ND	ND	ND	0.3	177.7	23.3	69.9	16	0
30873	2013-08-06T08:00:00	62.4	ND	ND	ND	ND	ND	0.4	50.6	23.1	71.3	74.5	0
30874	2013-08-06T09:00:00	58.7	ND	ND	ND	ND	ND	0.3	53.3	24.2	66.7	188.8	0
30875	2013-08-06T10:00:00	92.7	ND	ND	ND	ND	ND	1.3	66	25.6	61.7	429	0
30876	2013-08-06T11:00:00	85.4	ND	ND	ND	ND	ND	1.7	81.4	26.4	59.2	519.3	0
30877	2013-08-06T12:00:00	49.6	ND	ND	ND	ND	ND	1.9	88	27.9	54.6	536.5	0
30878	2013-08-06T13:00:00	28.6	ND	ND	ND	ND	ND	1.6	89.5	29.6	49.6	685	0
30879	2013-08-06T14:00:00	51.1	ND	ND	ND	ND	ND	0.7	70.9	30.7	46.9	772.3	0
30880	2013-08-06T15:00:00	32	ND	ND	ND	ND	ND	0.7	64.8	30.6	46.1	338.5	0
30881	2013-08-06T16:00:00	31.1	ND	ND	ND	ND	ND	4.9	216.5	28.8	48.8	323.9	0
30882	2013-08-06T17:00:00	28.6	ND	ND	ND	ND	ND	5.1	217.1	27.4	52.2	221.8	0
30883	2013-08-06T18:00:00	39.2	ND	ND	ND	ND	ND	3.2	220.5	26.9	52.3	64.2	0
30884	2013-08-06T19:00:00	23.4	ND	ND	ND	ND	ND	3.5	219.9	26.3	53.6	0	0
30885	2013-08-06T20:00:00	12.5	ND	ND	ND	ND	ND	5.9	218.6	25.1	58.1	0	0
30886	2013-08-06T21:00:00	19	ND	ND	ND	ND	ND	5	218.7	24.8	58.3	0	0
30887	2013-08-06T22:00:00	11.3	ND	ND	ND	ND	ND	1.3	207.1	25	58.1	0	0
30888	2013-08-06T23:00:00	6.6	ND	ND	ND	ND	ND	0.8	86	23.8	63.7	0	0
30889	2013-08-07T00:00:00	11.1	ND	ND	ND	ND	ND	1	156.5	23.7	64.7	0	0
30890	2013-08-07T01:00:00	16	ND	ND	ND	ND	ND	1.5	180.3	23.2	70.1	0	0
30891	2013-08-07T02:00:00	35.2	ND	ND	ND	ND	ND	2.5	185.3	23.1	70.6	0	0
30892	2013-08-07T03:00:00	19.6	ND	ND	ND	ND	ND	1.8	171.2	22.8	73	0	0
30893	2013-08-07T04:00:00	17.5	ND	ND	ND	ND	ND	1.2	159.4	22.3	74.9	0	0
30894	2013-08-07T05:00:00	10.3	ND	ND	ND	ND	ND	0.7	115.9	21.8	79.4	0	0
30895	2013-08-07T06:00:00	8	ND	ND	ND	ND	ND	0.5	26.9	21.8	78.3	0	0
30896	2013-08-07T07:00:00	5.5	ND	ND	ND	ND	ND	0.5	53.1	22	77.9	28	0
30897	2013-08-07T08:00:00	22	ND	ND	ND	ND	ND	0.3	1.8	22.2	77.4	122	0
30898	2013-08-07T09:00:00	12.3	ND	ND	ND	ND	ND	0.6	205	23.8	69	361.4	0
30899	2013-08-07T10:00:00	25.8	ND	ND	ND	ND	ND	1.3	189.7	25.8	60	598.5	0
30900	2013-08-07T11:00:00	14.4	ND	ND	ND	ND	ND	0.8	150	27.7	53.1	624.4	0
30901	2013-08-07T12:00:00	8.2	ND	ND	ND	ND	ND	1.2	92.8	29.1	48.5	610.5	0
30902	2013-08-07T13:00:00	17.4	ND	ND	ND	ND	ND	1.1	103.4	29	49.6	466.3	0
30903	2013-08-07T14:00:00	10	ND	ND	ND	ND	ND	0.9	105.7	29.8	47	609.8	0
30904	2013-08-07T15:00:00	6.5	ND	ND	ND	ND	ND	1.2	72.4	31	43.7	489.6	0
30905	2013-08-07T16:00:00	20.4	ND	ND	ND	ND	ND	3.5	216.9	29.4	46.4	121.8	0
30906	2013-08-07T17:00:00	16.1	ND	ND	ND	ND	ND	4.1	218.2	28.1	49.7	210.4	0
30907	2013-08-07T18:00:00	18.2	ND	ND	ND	ND	ND	3.3	220.2	27.3	52.5	62.1	0
30908	2013-08-07T19:00:00	9.9	ND	ND	ND	ND	ND	2.9	202.7	25.6	56.9	0	0
30909	2013-08-07T20:00:00	21.2	ND	ND	ND	ND	ND	1.5	146.1	24.2	61.9	0	0
30910	2013-08-07T21:00:00	16.7	ND	ND	ND	ND	ND	2.8	188	22.2	77.5	0	2.54
30911	2013-08-07T22:00:00	16.8	ND	ND	ND	ND	ND	1.3	161.5	21.3	84	0	0.51
30912	2013-08-07T23:00:00	27.2	ND	ND	ND	ND	ND	1.1	174.4	20.9	85.8	0	1.02
30913	2013-08-08T00:00:00	14.7	ND	ND	ND	ND	ND	0.8	138.4	20.6	89.4	0	6.35
30914	2013-08-08T01:00:00	15.1	ND	ND	ND	ND	ND	0.7	82.6	19.9	93.7	0	7.62
30915	2013-08-08T02:00:00	8.8	ND	ND	ND	ND	ND	0.9	60.7	19.7	94.7	0	0.51
30916	2013-08-08T03:00:00	5	ND	ND	ND	ND	ND	0.4	180.5	20	92.2	0	0.25
30917	2013-08-08T04:00:00	4.4	ND	ND	ND	ND	ND	0.7	182.6	20.3	91.3	0	0
30918	2013-08-08T05:00:00	3.5	ND	ND	ND	ND	ND	0.8	201	20.5	86.3	0	0
30919	2013-08-08T06:00:00	3.7	ND	ND	ND	ND	ND	1.1	159.6	20	91.6	0	0
30920	2013-08-08T07:00:00	2.4	ND	ND	ND	ND	ND	0.6	102	20	92.2	10.7	0
30921	2013-08-08T08:00:00	31.1	ND	ND	ND	ND	ND	0.7	83.9	20.1	91.3	43.8	0
30922	2013-08-08T09:00:00	29.4	ND	ND	ND	ND	ND	0.5	26.7	21.2	86.1	293.2	0
30923	2013-08-08T10:00:00	34.6	ND	ND	ND	ND	ND	1.1	76.9	23.5	73.9	616.1	0
30924	2013-08-08T11:00:00	18.9	ND	ND	ND	ND	ND	1.2	68.3	24.9	66.3	515.5	0
30925	2013-08-08T12:00:00	34.6	ND	ND	ND	ND	ND	1.3	67.4	26.2	60.9	855.1	0
30926	2013-08-08T13:00:00	17.3	ND	ND	ND	ND	ND	1.5	44.1	27.2	54.5	704	0
30927	2013-08-08T14:00:00	8.7	ND	ND	ND	ND	ND	0.8	229.2	27.2	55.4	399.3	0
30928	2013-08-08T15:00:00	6	ND	ND	ND	ND	ND	2	48.8	26.3	59	244.7	0
30929	2013-08-08T16:00:00	15.2	ND	ND	ND	ND	ND	0.6	191.2	26.3	59.3	220.1	0
30930	2013-08-08T17:00:00	14.8	ND	ND	ND	ND	ND	1.7	171.1	24.6	70.5	37.5	6.35
30931	2013-08-08T18:00:00	50.7	ND	ND	ND	ND	ND	0.5	175.9	23.5	77.7	13.5	0.25
30932	2013-08-08T19:00:00	26.5	ND	ND	ND	ND	ND	0.3	220	23.7	70.1	0	0.25
30933	2013-08-08T20:00:00	41.2	ND	ND	ND	ND	ND	0.9	61.8	23.5	73.1	0	0
30934	2013-08-08T21:00:00	43.1	ND	ND	ND	ND	ND	1.3	63.7	22.5	78.7	0	0
30935	2013-08-08T22:00:00	53.3	ND	ND	ND	ND	ND	0.4	84.7	22.1	79.8	0	0
30936	2013-08-08T23:00:00	34.1	ND	ND	ND	ND	ND	0.1	234.7	22.3	78.7	0	0
30937	2013-08-09T00:00:00	32.1	ND	ND	ND	ND	ND	0.1	194	22.3	74.6	0	0
30938	2013-08-09T01:00:00	17.4	ND	ND	ND	ND	ND	0.7	90.9	21.4	83.2	0	0
30939	2013-08-09T02:00:00	33.8	ND	ND	ND	ND	ND	0.5	29.1	21.1	85.1	0	0
30940	2013-08-09T03:00:00	23.3	ND	ND	ND	ND	ND	0	356.6	21.1	85.7	0	0
30941	2013-08-09T04:00:00	27.9	ND	ND	ND	ND	ND	0.3	107.5	21.1	85.4	0	0
30942	2013-08-09T05:00:00	20.9	ND	ND	ND	ND	ND	0.4	73.7	20.6	87.6	0	0
30943	2013-08-09T06:00:00	26.9	ND	ND	ND	ND	ND	0.7	154.9	20.7	87.6	0	0
30944	2013-08-09T07:00:00	18.3	ND	ND	ND	ND	ND	1.2	129.8	20.6	88	7.7	0
30945	2013-08-09T08:00:00	44.8	ND	ND	ND	ND	ND	1.2	187.1	21	86.3	105.9	0
30946	2013-08-09T09:00:00	24.7	ND	ND	ND	ND	ND	1.1	186	22	81.3	183.6	0
30947	2013-08-09T10:00:00	50.2	ND	ND	ND	ND	ND	0.7	144	23.4	74.4	458	0
30948	2013-08-09T11:00:00	34.1	ND	ND	ND	ND	ND	1.1	138.3	25.7	63.6	628.5	0
30949	2013-08-09T12:00:00	41.1	ND	ND	ND	ND	ND	1	151	26.1	60	444.2	0
30950	2013-08-09T13:00:00	26.1	ND	ND	ND	ND	ND	0.4	178.3	27.8	53	709	0
30951	2013-08-09T14:00:00	53.9	ND	ND	ND	ND	ND	0.4	77.1	29.7	47.3	739.7	0
30952	2013-08-09T15:00:00	28.4	ND	ND	ND	ND	ND	0.9	49.5	29.7	46.4	472.6	0
30953	2013-08-09T16:00:00	37.6	ND	ND	ND	ND	ND	2.7	222	29.6	47.9	423.7	0
30954	2013-08-09T17:00:00	20.3	ND	ND	ND	ND	ND	4.1	217.5	28.4	50.1	381.1	0
30955	2013-08-09T18:00:00	15.1	ND	ND	ND	ND	ND	4.4	218	27.1	52.5	145.2	0
30956	2013-08-09T19:00:00	9.3	ND	ND	ND	ND	ND	3.5	218.1	26.2	53.7	7.9	0
30957	2013-08-09T20:00:00	5.2	ND	ND	ND	ND	ND	3.8	218.2	25.6	55.4	0	0
30958	2013-08-09T21:00:00	3.1	ND	ND	ND	ND	ND	2.9	219.3	25.2	56.3	0	0
30959	2013-08-09T22:00:00	3.5	ND	ND	ND	ND	ND	2.3	220.7	25.5	55.5	0	0
30960	2013-08-09T23:00:00	3.1	ND	ND	ND	ND	ND	0.6	106.7	24.1	64.9	0	0
30961	2013-08-10T00:00:00	5.2	ND	ND	ND	ND	ND	0.6	144	24.1	65.2	0	0
30962	2013-08-10T01:00:00	4.5	ND	ND	ND	ND	ND	0.7	51.2	22.7	71.9	0	0
30963	2013-08-10T02:00:00	3.8	ND	ND	ND	ND	ND	0.9	122.1	22.8	72.2	0	0
30964	2013-08-10T03:00:00	9.9	ND	ND	ND	ND	ND	0.8	93	22.6	73.7	0	0
30965	2013-08-10T04:00:00	6.7	ND	ND	ND	ND	ND	1	148.7	22.2	77.6	0	0
30966	2013-08-10T05:00:00	4.3	ND	ND	ND	ND	ND	1	158.1	21.9	78.5	0	0
30967	2013-08-10T06:00:00	19.4	ND	ND	ND	ND	ND	0.5	114.7	21.8	79.1	0	0
30968	2013-08-10T07:00:00	18.3	ND	ND	ND	ND	ND	0.7	69	21.9	79	15.9	0
30969	2013-08-10T08:00:00	38	ND	ND	ND	ND	ND	0.7	150.7	22.2	78	75.7	0
30970	2013-08-10T09:00:00	41.1	ND	ND	ND	ND	ND	2.1	172.7	22	79.7	31.3	3.05
30971	2013-08-10T10:00:00	53.9	ND	ND	ND	ND	ND	2.3	213.4	18.4	93.1	59.1	72.9
30972	2013-08-10T11:00:00	27.8	ND	ND	ND	ND	ND	2.3	200.3	19.7	89.2	183.4	0
30973	2013-08-10T12:00:00	14.7	ND	ND	ND	ND	ND	1.5	110.6	20.5	86.9	191.1	0.25
30974	2013-08-10T13:00:00	9.1	ND	ND	ND	ND	ND	1.2	110.5	20.1	88.3	87	1.02
30975	2013-08-10T14:00:00	10.5	ND	ND	ND	ND	ND	0.7	203	20.7	83.8	267	0.25
30976	2013-08-10T15:00:00	6.9	ND	ND	ND	ND	ND	0.7	207.1	21.8	77.8	324.4	0
30977	2013-08-10T16:00:00	4.1	ND	ND	ND	ND	ND	1.3	149.5	23.9	69.6	528.1	0
30978	2013-08-10T17:00:00	18.1	ND	ND	ND	ND	ND	2.5	155.9	24.2	68.9	241.3	0
30979	2013-08-10T18:00:00	25.7	ND	ND	ND	ND	ND	1.9	176.5	22.9	72.8	96.2	0
30980	2013-08-10T19:00:00	25.8	ND	ND	ND	ND	ND	0.1	337.1	22.6	72.5	0	0
30981	2013-08-10T20:00:00	17.2	ND	ND	ND	ND	ND	0.4	254.4	22.1	77.1	0	0
30982	2013-08-10T21:00:00	37.2	ND	ND	ND	ND	ND	0.3	184.7	21.8	79.1	0	0
30983	2013-08-10T22:00:00	63.5	ND	ND	ND	ND	ND	1.3	175.3	21	82.4	0	0
30984	2013-08-10T23:00:00	53.1	ND	ND	ND	ND	ND	0.5	200.6	21.1	80.5	0	0
30985	2013-08-11T00:00:00	40.3	ND	ND	ND	ND	ND	1.1	215.6	21.1	78.8	0	0
30986	2013-08-11T01:00:00	22.4	ND	ND	ND	ND	ND	0.1	212.5	21.4	73.9	0	0
30987	2013-08-11T02:00:00	30.6	ND	ND	ND	ND	ND	0.7	134.4	20.9	80.2	0	0
30988	2013-08-11T03:00:00	16.4	ND	ND	ND	ND	ND	0.3	173.3	20.1	86.4	0	0
30989	2013-08-11T04:00:00	20.6	ND	ND	ND	ND	ND	0.3	149.2	20.6	82.8	0	0
30990	2013-08-11T05:00:00	26	ND	ND	ND	ND	ND	0.1	206.4	20.7	80.5	0	0
30991	2013-08-11T06:00:00	20.2	ND	ND	ND	ND	ND	0.2	347.5	20	86.6	0	0
30992	2013-08-11T07:00:00	18.7	ND	ND	ND	ND	ND	0.8	51	19.6	89.9	26.6	0
30993	2013-08-11T08:00:00	33.2	ND	ND	ND	ND	ND	0.4	255.8	20.1	88.4	114.9	0
30994	2013-08-11T09:00:00	18.8	ND	ND	ND	ND	ND	0.2	54.3	21.7	78.3	284.6	0
30995	2013-08-11T10:00:00	22.8	ND	ND	ND	ND	ND	1.1	89.9	24.2	66.1	622.2	0
30996	2013-08-11T11:00:00	12.3	ND	ND	ND	ND	ND	0.2	301.6	25.4	59.6	616.7	0
30997	2013-08-11T12:00:00	8	ND	ND	ND	ND	ND	0.5	127	26.9	54.9	905.9	0
30998	2013-08-11T13:00:00	4.9	ND	ND	ND	ND	ND	1.1	92.6	27.9	49.8	632.5	0
30999	2013-08-11T14:00:00	4.4	ND	ND	ND	ND	ND	0.7	156	28.3	48.9	469.7	0
31000	2013-08-11T15:00:00	4.4	ND	ND	ND	ND	ND	1	198.8	27.4	52.7	76.3	0.51
31001	2013-08-11T16:00:00	24	ND	ND	ND	ND	ND	1.5	199.8	20	91.3	13.4	30.23
31002	2013-08-11T17:00:00	12	ND	ND	ND	ND	ND	1.4	197.8	20.5	85.8	12.2	6.86
31003	2013-08-11T18:00:00	6.6	ND	ND	ND	ND	ND	1.8	218.6	21.5	76.3	5.4	3.3
31004	2013-08-11T19:00:00	5.4	ND	ND	ND	ND	ND	0.8	188.2	21.6	76.6	0	0.25
31005	2013-08-11T20:00:00	4	ND	ND	ND	ND	ND	0.1	104.8	20.6	84.4	0	0.25
31006	2013-08-11T21:00:00	10.2	ND	ND	ND	ND	ND	0.1	200	20.6	85.6	0	0.25
31007	2013-08-11T22:00:00	8.6	ND	ND	ND	ND	ND	0	38	20.7	86.6	0	0.25
31008	2013-08-11T23:00:00	5.9	ND	ND	ND	ND	ND	0.6	184.1	20.6	87.1	0	0
31009	2013-08-12T00:00:00	8.8	ND	ND	ND	ND	ND	0.9	181.8	20.4	89.7	0	0
31010	2013-08-12T01:00:00	8.5	ND	ND	ND	ND	ND	0.3	153.2	20.2	91.6	0	0.25
31011	2013-08-12T02:00:00	5	ND	ND	ND	ND	ND	0.4	58.4	20.1	92.9	0	0.76
31012	2013-08-12T03:00:00	4.2	ND	ND	ND	ND	ND	0.5	102.6	19.8	94.5	0	1.02
31013	2013-08-12T04:00:00	4.7	ND	ND	ND	ND	ND	1.1	135.1	19.4	95	0	0
31014	2013-08-12T05:00:00	4.1	ND	ND	ND	ND	ND	0.6	129.7	19.4	94.7	0	0.25
31015	2013-08-12T06:00:00	5.7	ND	ND	ND	ND	ND	1.1	216.6	19.6	91.2	0	0
31016	2013-08-12T07:00:00	7.3	ND	ND	ND	ND	ND	0.8	72.6	20	88.3	28.5	0
31017	2013-08-12T08:00:00	16.4	ND	ND	ND	ND	ND	1.2	99.4	19.7	92.8	64.8	0
31018	2013-08-12T09:00:00	13.7	ND	ND	ND	ND	ND	0.4	71.2	20.1	90	49.4	0
31019	2013-08-12T10:00:00	33.8	ND	ND	ND	ND	ND	0.3	276.6	20.5	86.2	131	0
31020	2013-08-12T11:00:00	24	ND	ND	ND	ND	ND	0.3	63	23	72.2	619.8	0
31021	2013-08-12T12:00:00	50.9	ND	ND	ND	ND	ND	1	82.7	25.6	58.8	852.6	0
31022	2013-08-12T13:00:00	27.6	ND	ND	ND	ND	ND	1.1	107.2	27	55.1	766.6	0
31023	2013-08-12T14:00:00	19.7	ND	ND	ND	ND	ND	1.1	157.7	27	54.6	392	0
31024	2013-08-12T15:00:00	11.7	ND	ND	ND	ND	ND	0.3	110.7	27.8	52	487.7	0
31025	2013-08-12T16:00:00	16.9	ND	ND	ND	ND	ND	0.5	77.7	27.8	51.9	219.2	0
31026	2013-08-12T17:00:00	21.9	ND	ND	ND	ND	ND	1.6	214.8	27.3	52.1	105.3	0
31027	2013-08-12T18:00:00	26.7	ND	ND	ND	ND	ND	2.7	216.6	26	55.7	49.6	0
31028	2013-08-12T19:00:00	15.6	ND	ND	ND	ND	ND	2.7	217.2	25.1	59.5	0	0
31029	2013-08-12T20:00:00	21.3	ND	ND	ND	ND	ND	2.4	217.6	24.8	59.2	0	0
31030	2013-08-12T21:00:00	12	ND	ND	ND	ND	ND	2.3	219.1	24.6	60.1	0	0
31031	2013-08-12T22:00:00	9.9	ND	ND	ND	ND	ND	0.2	111.1	24	65.9	0	0
31032	2013-08-12T23:00:00	9.3	ND	ND	ND	ND	ND	0.7	216.9	24.1	63.9	0	0
31033	2013-08-13T00:00:00	5.3	ND	ND	ND	ND	ND	0.6	94.6	23	72.1	0	0
31034	2013-08-13T01:00:00	3.5	ND	ND	ND	ND	ND	1.1	154.8	22.4	76.1	0	0
31035	2013-08-13T02:00:00	20.5	ND	ND	ND	ND	ND	0.6	171.9	22.1	78.5	0	0
31036	2013-08-13T03:00:00	11.5	ND	ND	ND	ND	ND	1	111.7	21.8	79.7	0	0
31037	2013-08-13T04:00:00	9.2	ND	ND	ND	ND	ND	0.8	193.5	21.4	81.3	0	0
31038	2013-08-13T05:00:00	5.6	ND	ND	ND	ND	ND	0.6	161.2	21.5	80.4	0	0
31039	2013-08-13T06:00:00	14.7	ND	ND	ND	ND	ND	0.5	138.6	21.6	80.3	0	0
31040	2013-08-13T07:00:00	17.1	ND	ND	ND	ND	ND	0.1	ND	21.6	81.5	14.4	0
31041	2013-08-13T08:00:00	39.1	ND	ND	ND	ND	ND	0.2	ND	22.2	77	68.1	0
31042	2013-08-13T09:00:00	32.2	ND	ND	ND	ND	ND	1	113.5	22.5	78.1	118.3	0
31043	2013-08-13T10:00:00	54.9	ND	ND	ND	ND	ND	2.3	167.8	23.3	71.9	453.1	0
31044	2013-08-13T11:00:00	29.2	ND	ND	ND	ND	ND	1.9	144.4	24.9	63.5	558.2	0
31045	2013-08-13T12:00:00	28.1	ND	ND	ND	ND	ND	1.4	180.2	25.9	58.6	780	0
31046	2013-08-13T13:00:00	16	ND	ND	ND	ND	ND	0.9	116.7	26.8	55.1	413.3	0
31047	2013-08-13T14:00:00	10.7	ND	ND	ND	ND	ND	0.8	164.8	28.9	48.1	849	0
31048	2013-08-13T15:00:00	6.8	ND	ND	ND	ND	ND	0.8	157.2	29.2	44.8	562.3	0
31049	2013-08-13T16:00:00	21	ND	ND	ND	ND	ND	1.6	67.4	29.7	43.8	423.8	0
31050	2013-08-13T17:00:00	40	ND	ND	ND	ND	ND	1.6	46.6	29.9	45	340.7	0
31051	2013-08-13T18:00:00	26.4	ND	ND	ND	ND	ND	2	49.5	28.8	47.6	87.1	0
31052	2013-08-13T19:00:00	51.8	ND	ND	ND	ND	ND	0.7	61.7	27.2	55.5	0	0
31053	2013-08-13T20:00:00	53.3	ND	ND	ND	ND	ND	3.6	216.9	25.9	60.1	0	0
31054	2013-08-13T21:00:00	36.3	ND	ND	ND	ND	ND	4.2	217.2	25.1	61.6	0	0
31055	2013-08-13T22:00:00	24.5	ND	ND	ND	ND	ND	0.4	174.2	24.8	64.6	0	0
31056	2013-08-13T23:00:00	16.6	ND	ND	ND	ND	ND	0.7	173.8	24.7	65.1	0	0
31057	2013-08-14T00:00:00	39	ND	ND	ND	ND	ND	0.4	150.7	24.2	69.5	0	0
31058	2013-08-14T01:00:00	33.3	ND	ND	ND	ND	ND	1.8	179.2	23.5	72.1	0	0
31059	2013-08-14T02:00:00	26.3	ND	ND	ND	ND	ND	1.3	188.1	22.7	76.4	0	0
31060	2013-08-14T03:00:00	16.2	ND	ND	ND	ND	ND	0.8	172	22.5	77.8	0	0
31061	2013-08-14T04:00:00	32	ND	ND	ND	ND	ND	0.6	62.4	22.4	79	0	0
31062	2013-08-14T05:00:00	31.4	ND	ND	ND	ND	ND	0.6	107.4	22.1	81.1	0	0
31063	2013-08-14T06:00:00	34.3	ND	ND	ND	ND	ND	0.4	155.4	21.7	82.1	0	0
31064	2013-08-14T07:00:00	37.5	ND	ND	ND	ND	ND	0.8	141.1	21.8	81.5	14.3	0
31065	2013-08-14T08:00:00	48.2	ND	ND	ND	ND	ND	1.6	170.3	22.1	79.5	121.9	0
31066	2013-08-14T09:00:00	34.2	ND	ND	ND	ND	ND	1.2	155.3	23.3	74	276	0
31067	2013-08-14T10:00:00	45.1	ND	ND	ND	ND	ND	1.6	133.2	24.8	68.5	585.3	0
31068	2013-08-14T11:00:00	32	ND	ND	ND	ND	ND	1.1	131.7	26.5	61.1	635.5	0
31069	2013-08-14T12:00:00	36.5	ND	ND	ND	ND	ND	1.2	124.7	27.5	56.8	734.9	0
31070	2013-08-14T13:00:00	25.3	ND	ND	ND	ND	ND	0.3	132.6	29.6	50.2	892.6	0
31071	2013-08-14T14:00:00	41.6	ND	ND	ND	ND	ND	0.7	175.9	30.2	47.7	632.8	0
31072	2013-08-14T15:00:00	36.6	ND	ND	ND	ND	ND	0.6	196.2	31.1	45.3	574.4	0
31073	2013-08-14T16:00:00	52.4	ND	ND	ND	ND	ND	1.7	223	30.8	45.9	343.6	0
31074	2013-08-14T17:00:00	38.7	ND	ND	ND	ND	ND	4	217.8	29.7	47.1	310.8	0
31075	2013-08-14T18:00:00	25.9	ND	ND	ND	ND	ND	4.2	217.5	28.2	52.1	112.5	0
31076	2013-08-14T19:00:00	14	ND	ND	ND	ND	ND	4.9	216.9	27	56.4	4.5	0
31077	2013-08-14T20:00:00	22.4	ND	ND	ND	ND	ND	4.8	216.8	26.4	58.7	0	0
31078	2013-08-14T21:00:00	12.3	ND	ND	ND	ND	ND	2.7	218.7	26.4	58.4	0	0
31079	2013-08-14T22:00:00	7.4	ND	ND	ND	ND	ND	1.5	210.4	26.3	59.7	0	0
31080	2013-08-14T23:00:00	15.1	ND	ND	ND	ND	ND	3.4	216.4	25.6	61.1	0	0
31081	2013-08-15T00:00:00	11.3	ND	ND	ND	ND	ND	2.3	210.2	25.5	61	0	0
31082	2013-08-15T01:00:00	5.7	ND	ND	ND	ND	ND	2.1	175.9	24	73.9	0	8.38
31083	2013-08-15T02:00:00	2.8	ND	ND	ND	ND	ND	0.4	135.6	22.1	88.7	0	0.25
31084	2013-08-15T03:00:00	2.1	ND	ND	ND	ND	ND	0.3	ND	22.8	84.5	0	0
31085	2013-08-15T04:00:00	9.5	ND	ND	ND	ND	ND	0.2	ND	22.7	85.1	0	0
31086	2013-08-15T05:00:00	22.1	ND	ND	ND	ND	ND	0.7	155.8	22.3	85.5	0	0
31087	2013-08-15T06:00:00	30.2	ND	ND	ND	ND	ND	0.1	ND	22	84.2	0	0
31088	2013-08-15T07:00:00	17.1	ND	ND	ND	ND	ND	0	ND	22.2	83.7	24.6	0
31089	2013-08-15T08:00:00	34	ND	ND	ND	ND	ND	0.5	113.7	22.8	79.5	138.6	0
31090	2013-08-15T09:00:00	58.9	ND	ND	ND	ND	ND	0.6	86.6	23.6	76	180.1	0
31091	2013-08-15T10:00:00	77.7	ND	ND	ND	ND	ND	1.1	91.2	24.5	71.4	277.8	0
31092	2013-08-15T11:00:00	80.8	ND	ND	ND	ND	ND	1.2	92.2	25	69.6	191.3	0
31093	2013-08-15T12:00:00	79.1	ND	ND	ND	ND	ND	1.2	91.1	25.7	66	357.8	0
31094	2013-08-15T13:00:00	65.9	ND	ND	ND	ND	ND	0.6	80.5	27.2	60.3	502.3	0
31095	2013-08-15T14:00:00	64.3	ND	ND	ND	ND	ND	0.6	79.2	28.6	54.5	571.4	0
31096	2013-08-15T15:00:00	47.4	ND	ND	ND	ND	ND	1.2	116.2	29.2	51.4	500	0
31097	2013-08-15T16:00:00	52.5	ND	ND	ND	ND	ND	1.7	125.7	28.6	53	344.2	0
31098	2013-08-15T17:00:00	27.2	ND	ND	ND	ND	ND	1.9	163.8	28.1	54.8	128.8	0
31099	2013-08-15T18:00:00	55.1	ND	ND	ND	ND	ND	1.6	173	28.2	51.7	126.1	0
31100	2013-08-15T19:00:00	51	ND	ND	ND	ND	ND	1.9	211.2	26.9	55.1	0	0
31101	2013-08-15T20:00:00	44.1	ND	ND	ND	ND	ND	1.7	217.6	26	57.4	0	0
31102	2013-08-15T21:00:00	31	ND	ND	ND	ND	ND	2.5	216.6	25.3	60	0	0
31103	2013-08-15T22:00:00	16.9	ND	ND	ND	ND	ND	2.7	216.8	24.9	60.2	0	0
31104	2013-08-15T23:00:00	10.1	ND	ND	ND	ND	ND	1.6	226.7	24.5	63.7	0	0
31105	2013-08-16T00:00:00	47.2	ND	ND	ND	ND	ND	0.5	326.8	23	75.4	0	0
31106	2013-08-16T01:00:00	81.9	ND	ND	ND	ND	ND	0.7	27.4	22.6	77.3	0	0
31107	2013-08-16T02:00:00	88	ND	ND	ND	ND	ND	0.3	102.7	22.4	77.6	0	0
31108	2013-08-16T03:00:00	68.4	ND	ND	ND	ND	ND	0.2	77.9	22.3	77	0	0
31109	2013-08-16T04:00:00	58.7	ND	ND	ND	ND	ND	0.7	54.9	21.8	79.4	0	0
31110	2013-08-16T05:00:00	46.4	ND	ND	ND	ND	ND	0.4	70.4	20.9	82	0	0
31111	2013-08-16T06:00:00	59.5	ND	ND	ND	ND	ND	0.5	154.8	20.7	82.6	0	0
31112	2013-08-16T07:00:00	51.3	ND	ND	ND	ND	ND	0.7	169.8	20.8	83.1	36.2	0
31113	2013-08-16T08:00:00	65.1	ND	ND	ND	ND	ND	0.3	165.9	22.7	74.9	187.8	0
31114	2013-08-16T09:00:00	67.7	ND	ND	ND	ND	ND	0.5	131.4	24.5	66.3	410.4	0
31115	2013-08-16T10:00:00	75.1	ND	ND	ND	ND	ND	1.1	108.3	26.5	58.8	625.4	0
31116	2013-08-16T11:00:00	47.7	ND	ND	ND	ND	ND	1.5	108.8	27.5	56.6	815.3	0
31117	2013-08-16T12:00:00	50	ND	ND	ND	ND	ND	0.5	87.4	28.7	51.7	838.8	0
31118	2013-08-16T13:00:00	36.1	ND	ND	ND	ND	ND	1.4	59.2	30.2	46.8	888.1	0
31119	2013-08-16T14:00:00	33.1	ND	ND	ND	ND	ND	0.9	90.6	31	42.5	710.2	0
31120	2013-08-16T15:00:00	18.2	ND	ND	ND	ND	ND	1.6	225.8	31.5	42.1	624.6	0
31121	2013-08-16T16:00:00	31.7	ND	ND	ND	ND	ND	3.9	217.3	30.9	42.9	394.6	0
31122	2013-08-16T17:00:00	19.8	ND	ND	ND	ND	ND	5	217.1	28.1	51.5	115.1	0
31123	2013-08-16T18:00:00	29.6	ND	ND	ND	ND	ND	4.5	217.6	27.3	53.9	45.1	0
31124	2013-08-16T19:00:00	15.8	ND	ND	ND	ND	ND	4.2	218	26.4	56.4	0	0
31125	2013-08-16T20:00:00	17.4	ND	ND	ND	ND	ND	3.9	218.3	25.9	57.1	0	0
31126	2013-08-16T21:00:00	16.2	ND	ND	ND	ND	ND	3.1	219.1	25.7	57.9	0	0
31127	2013-08-16T22:00:00	8.9	ND	ND	ND	ND	ND	3.2	216	25.5	58.3	0	0
31128	2013-08-16T23:00:00	5.5	ND	ND	ND	ND	ND	1.3	205.4	25.3	60.4	0	0
31129	2013-08-17T00:00:00	7.4	ND	ND	ND	ND	ND	2.3	212.3	24.7	61.7	0	0
31130	2013-08-17T01:00:00	5.6	ND	ND	ND	ND	ND	0.2	192.2	24.4	64.2	0	0
31131	2013-08-17T02:00:00	8.8	ND	ND	ND	ND	ND	1.1	105.1	23.3	71.1	0	0
31132	2013-08-17T03:00:00	6.2	ND	ND	ND	ND	ND	0.6	119.5	22.9	73	0	0
31133	2013-08-17T04:00:00	17.8	ND	ND	ND	ND	ND	0.9	121.9	22.8	74.5	0	0.25
31134	2013-08-17T05:00:00	9.9	ND	ND	ND	ND	ND	0.5	6.8	21.3	87.3	0	1.02
31135	2013-08-17T06:00:00	11	ND	ND	ND	ND	ND	0.2	318.2	20.9	90.7	0	5.59
31136	2013-08-17T07:00:00	7	ND	ND	ND	ND	ND	0.2	161.2	21.2	87.8	26.1	0.25
31137	2013-08-17T08:00:00	5.2	ND	ND	ND	ND	ND	0.7	57.5	21.5	89	116.4	0.25
31138	2013-08-17T09:00:00	4.3	ND	ND	ND	ND	ND	0.3	148.5	22.8	81.3	187.1	0
31139	2013-08-17T10:00:00	31.2	ND	ND	ND	ND	ND	1.2	125.7	23.6	76.6	277.9	0
31140	2013-08-17T11:00:00	27.5	ND	ND	ND	ND	ND	0.5	80.3	24.9	66.9	396.5	0
31141	2013-08-17T12:00:00	32.1	ND	ND	ND	ND	ND	0.8	74	26.4	62	666.5	0
31142	2013-08-17T13:00:00	28.7	ND	ND	ND	ND	ND	0.7	90	27.2	59.1	379.4	0
31143	2013-08-17T14:00:00	16.1	ND	ND	ND	ND	ND	3.4	218.9	25.6	59.1	217.1	0
31144	2013-08-17T15:00:00	10.1	ND	ND	ND	ND	ND	2.5	220.8	26.5	53.5	426.1	0
31145	2013-08-17T16:00:00	5.6	ND	ND	ND	ND	ND	2.8	219.3	26.3	52.2	196.6	0
31146	2013-08-17T17:00:00	5	ND	ND	ND	ND	ND	2.5	225.2	26.4	50.4	135.9	0
31147	2013-08-17T18:00:00	4.2	ND	ND	ND	ND	ND	1.8	220.6	25.8	51.9	39.7	0
31148	2013-08-17T19:00:00	4	ND	ND	ND	ND	ND	2	220.5	25.2	52.6	0	0
31149	2013-08-17T20:00:00	3.7	ND	ND	ND	ND	ND	0.5	146.7	24.6	59.6	0	0
31150	2013-08-17T21:00:00	3.4	ND	ND	ND	ND	ND	2.4	214.3	24.3	57.5	0	0
31151	2013-08-17T22:00:00	3.7	ND	ND	ND	ND	ND	1.8	192.4	23.4	71.9	0	0
31152	2013-08-17T23:00:00	10.1	ND	ND	ND	ND	ND	0.8	175.3	22.6	77.3	0	0
31153	2013-08-18T00:00:00	19.8	ND	ND	ND	ND	ND	0.6	123.2	22.4	77.4	0	0
31154	2013-08-18T01:00:00	11.3	ND	ND	ND	ND	ND	0.4	52.7	22	77.5	0	0
31155	2013-08-18T02:00:00	28.2	ND	ND	ND	ND	ND	0.1	ND	21.9	77.9	0	0
31156	2013-08-18T03:00:00	36.4	ND	ND	ND	ND	ND	0.4	131.7	21.8	79.9	0	0
31157	2013-08-18T04:00:00	19.9	ND	ND	ND	ND	ND	0.6	43.9	21.3	81.7	0	0
31158	2013-08-18T05:00:00	10.9	ND	ND	ND	ND	ND	0.1	ND	21	82.9	0	0
31159	2013-08-18T06:00:00	13.5	ND	ND	ND	ND	ND	0.5	202.7	21	81.3	0	0
31160	2013-08-18T07:00:00	7.6	ND	ND	ND	ND	ND	1	189.8	20.9	79.1	10.7	0
31161	2013-08-18T08:00:00	5	ND	ND	ND	ND	ND	0.1	ND	21	84.9	75.7	0
31162	2013-08-18T09:00:00	11	ND	ND	ND	ND	ND	0.8	66.9	22.2	79.7	244.3	0
31163	2013-08-18T10:00:00	22.3	ND	ND	ND	ND	ND	1.1	124.8	24.3	69.8	644.9	0
31164	2013-08-18T11:00:00	12.7	ND	ND	ND	ND	ND	1	117.9	26.1	59.7	800.8	0
31165	2013-08-18T12:00:00	7.3	ND	ND	ND	ND	ND	0.8	115	27.7	53.2	713.6	0
31166	2013-08-18T13:00:00	4.3	ND	ND	ND	ND	ND	0.9	84.3	28.3	50	479.4	0
31167	2013-08-18T14:00:00	3.9	ND	ND	ND	ND	ND	1	80	28.8	48.6	419.3	0
31168	2013-08-18T15:00:00	3.8	ND	ND	ND	ND	ND	1.3	227	28.8	49	488.9	0
31169	2013-08-18T16:00:00	3	ND	ND	ND	ND	ND	3.1	217.6	29.6	45.4	634	0
31170	2013-08-18T17:00:00	1.5	ND	ND	ND	ND	ND	3.9	218.2	28.9	45.9	398.3	0
31171	2013-08-18T18:00:00	0.8	ND	ND	ND	ND	ND	4.1	217.4	27.2	50.1	145.7	0
31172	2013-08-18T19:00:00	1.8	ND	ND	ND	ND	ND	3.3	217.8	25.9	53.9	0	0
31173	2013-08-18T20:00:00	1.7	ND	ND	ND	ND	ND	3.4	211.6	25.4	57.3	0	0
31174	2013-08-18T21:00:00	3	ND	ND	ND	ND	ND	1.2	152.4	24.4	63.3	0	0
31175	2013-08-18T22:00:00	12.1	ND	ND	ND	ND	ND	1.3	124.4	22.9	70.4	0	0
31176	2013-08-18T23:00:00	6.8	ND	ND	ND	ND	ND	0.8	84.3	22.2	75	0	0
31177	2013-08-19T00:00:00	12.9	ND	ND	ND	ND	ND	0.3	125.3	22.2	75.5	0	0
31178	2013-08-19T01:00:00	7.7	ND	ND	ND	ND	ND	0.3	ND	22.6	71.3	0	0
31179	2013-08-19T02:00:00	15.2	ND	ND	ND	ND	ND	0.6	58.5	22.3	74.6	0	0
31180	2013-08-19T03:00:00	12.5	ND	ND	ND	ND	ND	0.7	62.4	21.9	76.8	0	0
31181	2013-08-19T04:00:00	13.9	ND	ND	ND	ND	ND	0.5	116.5	21.5	79.6	0	0
31182	2013-08-19T05:00:00	8.8	ND	ND	ND	ND	ND	0.6	118.8	21	83.6	0	0
31183	2013-08-19T06:00:00	33.4	ND	ND	ND	ND	ND	0.1	ND	21	83.2	0	0
31184	2013-08-19T07:00:00	23.6	ND	ND	ND	ND	ND	0.1	ND	21.3	81.7	29.5	0
31185	2013-08-19T08:00:00	45.7	ND	ND	ND	ND	ND	0.7	132.8	21.8	81.4	154.1	0
31186	2013-08-19T09:00:00	58.8	ND	ND	ND	ND	ND	0.4	127.9	23.1	74.1	311.6	0
31187	2013-08-19T10:00:00	50.4	ND	ND	ND	ND	ND	0.8	67.3	25.8	61	652.5	0
31188	2013-08-19T11:00:00	26.3	ND	ND	ND	ND	ND	1.6	116.3	26.8	55.3	567.3	0
31189	2013-08-19T12:00:00	16	ND	ND	ND	ND	ND	0.9	119.4	27	54	270.5	0
31190	2013-08-19T13:00:00	8.5	ND	ND	ND	ND	ND	0.7	127.3	27.4	53.4	380.9	0
31191	2013-08-19T14:00:00	22.9	ND	ND	ND	ND	ND	1	94.6	28.1	51.2	397.6	0
31192	2013-08-19T15:00:00	12.1	ND	ND	ND	ND	ND	0.6	70.8	28.5	49.9	414.2	0
31193	2013-08-19T16:00:00	7.3	ND	ND	ND	ND	ND	1	67.3	29.1	47	353.5	0
31194	2013-08-19T17:00:00	4.4	ND	ND	ND	ND	ND	2.8	217.1	28.3	47.8	253.7	0
31195	2013-08-19T18:00:00	2.9	ND	ND	ND	ND	ND	4.8	217.1	25.9	55	47.7	0
31196	2013-08-19T19:00:00	2.1	ND	ND	ND	ND	ND	3.6	217.5	25.5	53.2	0	0
31197	2013-08-19T20:00:00	1.8	ND	ND	ND	ND	ND	4.2	217.4	25.1	52.9	0	0
31198	2013-08-19T21:00:00	2.9	ND	ND	ND	ND	ND	1	213.6	25	54.2	0	0
31199	2013-08-19T22:00:00	5.5	ND	ND	ND	ND	ND	2	216.4	24.7	56.3	0	0
31200	2013-08-19T23:00:00	3.7	ND	ND	ND	ND	ND	1.9	208.8	24.2	59.9	0	0
31201	2013-08-20T00:00:00	3.5	ND	ND	ND	ND	ND	1.7	177.8	23.2	67.5	0	0
31202	2013-08-20T01:00:00	6.7	ND	ND	ND	ND	ND	1	176	22.7	71.3	0	0
31203	2013-08-20T02:00:00	15.8	ND	ND	ND	ND	ND	1.1	168.2	22.4	71.3	0	0
31204	2013-08-20T03:00:00	9.9	ND	ND	ND	ND	ND	1.3	144.3	21.7	74.5	0	0
31205	2013-08-20T04:00:00	22.2	ND	ND	ND	ND	ND	1.2	174.8	21.4	75.5	0	0
31206	2013-08-20T05:00:00	12.6	ND	ND	ND	ND	ND	1.1	186	21.4	75.5	0	0
31207	2013-08-20T06:00:00	20.8	ND	ND	ND	ND	ND	0.6	143.8	21.4	76	0	0
31208	2013-08-20T07:00:00	19.3	ND	ND	ND	ND	ND	0.3	77.9	21.2	77	19.3	0
31209	2013-08-20T08:00:00	51	ND	ND	ND	ND	ND	0.2	ND	22	74.5	160.3	0
31210	2013-08-20T09:00:00	48.8	ND	ND	ND	ND	ND	0.7	150.5	23.3	68.6	241.1	0
31211	2013-08-20T10:00:00	77.9	ND	ND	ND	ND	ND	1.1	149.7	24.5	64.6	520.2	0
31212	2013-08-20T11:00:00	53	ND	ND	ND	ND	ND	1.1	124.1	26.1	58.4	562.5	0
31213	2013-08-20T12:00:00	66.7	ND	ND	ND	ND	ND	0.7	77	27.3	54.1	602.3	0
31214	2013-08-20T13:00:00	43	ND	ND	ND	ND	ND	0.8	118.6	28.3	50.8	528.3	0
31215	2013-08-20T14:00:00	65.9	ND	ND	ND	ND	ND	1.6	129.3	29.2	48.1	632.8	0
31216	2013-08-20T15:00:00	48.1	ND	ND	ND	ND	ND	1.5	134.6	30.4	43.7	718.3	0
31217	2013-08-20T16:00:00	53.9	ND	ND	ND	ND	ND	1.7	161.2	30.4	45	410.2	0
31218	2013-08-20T17:00:00	40.6	ND	ND	ND	ND	ND	1.7	165.5	30.1	44.9	277	0
31219	2013-08-20T18:00:00	58.8	ND	ND	ND	ND	ND	1.3	153	29.5	46.6	99.9	0
31220	2013-08-20T19:00:00	44.1	ND	ND	ND	ND	ND	1.8	206.3	27.8	55.8	0	0
31221	2013-08-20T20:00:00	57.6	ND	ND	ND	ND	ND	2.8	217.3	26.8	57.6	0	0
31222	2013-08-20T21:00:00	30.3	ND	ND	ND	ND	ND	2.3	218	26.2	58.1	0	0
31223	2013-08-20T22:00:00	18.5	ND	ND	ND	ND	ND	3.2	218.3	26	58.2	0	0
31224	2013-08-20T23:00:00	11	ND	ND	ND	ND	ND	3.2	216.9	25.7	60.9	0	0
31225	2013-08-21T00:00:00	17.3	ND	ND	ND	ND	ND	2.1	203.2	24	69.4	0	0
31226	2013-08-21T01:00:00	19.7	ND	ND	ND	ND	ND	1.5	210.7	23.7	68.7	0	0
31227	2013-08-21T02:00:00	30.5	ND	ND	ND	ND	ND	1.5	214.1	23.5	62.9	0	0
31228	2013-08-21T03:00:00	15.7	ND	ND	ND	ND	ND	0.2	255.9	23.2	69.2	0	0
31229	2013-08-21T04:00:00	31.7	ND	ND	ND	ND	ND	0.3	129.7	23.2	69	0	0
31230	2013-08-21T05:00:00	22.4	ND	ND	ND	ND	ND	0.6	96.1	22.5	73.6	0	0
31231	2013-08-21T06:00:00	38.3	ND	ND	ND	ND	ND	0.5	102.3	21.9	68.6	0	0
31232	2013-08-21T07:00:00	31.1	ND	ND	ND	ND	ND	0.5	145.5	21.9	69.2	48.2	0
31233	2013-08-21T08:00:00	52.7	ND	ND	ND	ND	ND	0.5	189.5	23.4	65.8	191.5	0
31234	2013-08-21T09:00:00	38.3	ND	ND	ND	ND	ND	1.4	138.3	24.9	59.8	328.2	0
31235	2013-08-21T10:00:00	46.2	ND	ND	ND	ND	ND	1.5	148.5	26.1	56.1	557.9	0
31236	2013-08-21T11:00:00	44.3	ND	ND	ND	ND	ND	1.4	130.1	27.9	51.7	741.9	0
31237	2013-08-21T12:00:00	51.3	ND	ND	ND	ND	ND	0.6	162.9	29	46.2	506.8	0
31238	2013-08-21T13:00:00	27.4	ND	ND	ND	ND	ND	2	215.4	29.3	46.6	662.8	0
31239	2013-08-21T14:00:00	36.8	ND	ND	ND	ND	ND	1.5	221.6	30.4	43.5	759.8	0
31240	2013-08-21T15:00:00	36.8	ND	ND	ND	ND	ND	1.6	218.1	30.5	42.5	391	0
31241	2013-08-21T16:00:00	19.3	ND	ND	ND	ND	ND	3.3	217.5	30.4	42.2	438.3	0
31242	2013-08-21T17:00:00	10.9	ND	ND	ND	ND	ND	4.1	217.4	29.9	44.5	332.3	0
31243	2013-08-21T18:00:00	15.1	ND	ND	ND	ND	ND	3.9	217	28.4	48.1	99.6	0
31244	2013-08-21T19:00:00	21.8	ND	ND	ND	ND	ND	3.6	216.9	26.8	51.7	0	0
31245	2013-08-21T20:00:00	24.8	ND	ND	ND	ND	ND	4.3	216.8	26.3	53.3	0	0
31246	2013-08-21T21:00:00	13.6	ND	ND	ND	ND	ND	2.8	220.2	26	55.1	0	0
31247	2013-08-21T22:00:00	10.8	ND	ND	ND	ND	ND	3.8	218	25.9	56.4	0	0
31248	2013-08-21T23:00:00	6.9	ND	ND	ND	ND	ND	2.2	215.9	25.6	58.4	0	0
31249	2013-08-22T00:00:00	5.4	ND	ND	ND	ND	ND	1.6	185	24.5	65.2	0	0
31250	2013-08-22T01:00:00	24	ND	ND	ND	ND	ND	1.9	190.2	23.4	70.9	0	0
31251	2013-08-22T02:00:00	35.4	ND	ND	ND	ND	ND	1.3	184.5	23.4	69.7	0	0
31252	2013-08-22T03:00:00	21.1	ND	ND	ND	ND	ND	0.6	214.6	23.3	69.4	0	0
31253	2013-08-22T04:00:00	35.2	ND	ND	ND	ND	ND	0.1	317.3	22.9	72.6	0	0
31254	2013-08-22T05:00:00	28.5	ND	ND	ND	ND	ND	0.6	64.3	22.2	76.9	0	0
31255	2013-08-22T06:00:00	50.8	ND	ND	ND	ND	ND	0.4	32.5	21.9	78.3	0	0
31256	2013-08-22T07:00:00	64.2	ND	ND	ND	ND	ND	0.4	144.4	21.9	78.6	24.2	0
31257	2013-08-22T08:00:00	107.1	ND	ND	ND	ND	ND	0.5	146.5	22.3	76.4	108.6	0
31258	2013-08-22T09:00:00	93.5	ND	ND	ND	ND	ND	0.7	126.4	23.6	70.4	232.7	0
31259	2013-08-22T10:00:00	111.1	ND	ND	ND	ND	ND	0.9	128.1	25	64.1	385.6	0
31260	2013-08-22T11:00:00	80.2	ND	ND	ND	ND	ND	1.5	110	26.1	59.2	414.7	0
31261	2013-08-22T12:00:00	70.6	ND	ND	ND	ND	ND	1.6	103.2	26.7	57.2	361.4	0
31262	2013-08-22T13:00:00	48.2	ND	ND	ND	ND	ND	0.8	127.2	27.2	56	441	0
31263	2013-08-22T14:00:00	71.4	ND	ND	ND	ND	ND	0.5	123.8	28.1	52.9	512.2	0
31264	2013-08-22T15:00:00	50.5	ND	ND	ND	ND	ND	0.4	124.9	29.3	49.5	573.2	0
31265	2013-08-22T16:00:00	60.7	ND	ND	ND	ND	ND	1	61.1	30.4	45.4	510.5	0
31266	2013-08-22T17:00:00	34.3	ND	ND	ND	ND	ND	0.2	192.2	29.5	46.5	218.6	0
31267	2013-08-22T18:00:00	32.1	ND	ND	ND	ND	ND	3.3	217.6	28.3	48.4	113.7	0
31268	2013-08-22T19:00:00	19.5	ND	ND	ND	ND	ND	3.8	217.2	26.3	54.1	0	0
31269	2013-08-22T20:00:00	25.6	ND	ND	ND	ND	ND	4.3	216.9	25.6	56.3	0	0
31270	2013-08-22T21:00:00	21.2	ND	ND	ND	ND	ND	3.6	217.3	25.3	56.1	0	0
31271	2013-08-22T22:00:00	22.9	ND	ND	ND	ND	ND	2	218.6	25	57.4	0	0
31272	2013-08-22T23:00:00	ND	ND	ND	ND	ND	ND	2.5	217.1	24.9	57.5	0	0
31273	2013-08-23T00:00:00	ND	ND	ND	ND	ND	ND	0.4	208.8	23.8	64.4	0	0
31274	2013-08-23T01:00:00	ND	ND	ND	ND	ND	ND	0.2	204.2	23.2	68.8	0	0
31275	2013-08-23T02:00:00	ND	ND	ND	ND	ND	ND	1.5	183.9	22.8	71.6	0	0
31276	2013-08-23T03:00:00	ND	ND	ND	ND	ND	ND	0.7	129.2	22.3	73.9	0	0
31277	2013-08-23T04:00:00	ND	ND	ND	ND	ND	ND	0.8	145.3	21.8	76.1	0	0
31278	2013-08-23T05:00:00	ND	ND	ND	ND	ND	ND	1	182.4	21.7	76	0	0
31279	2013-08-23T06:00:00	ND	ND	ND	ND	ND	ND	0.6	189.6	21.8	74.5	0	0
31280	2013-08-23T07:00:00	ND	ND	ND	ND	ND	ND	0.2	ND	21.9	74.4	37.7	0
31281	2013-08-23T08:00:00	100.3	ND	ND	ND	ND	ND	0.6	85.2	22.5	72.8	128	0
31282	2013-08-23T09:00:00	105.2	ND	ND	ND	ND	ND	0.9	105.2	24	68	330.3	0
31283	2013-08-23T10:00:00	112.9	ND	ND	ND	ND	ND	0.6	126.7	25.3	61	435.9	0
31284	2013-08-23T11:00:00	72.7	ND	ND	ND	ND	ND	0.9	155.5	26.6	55.5	659	0
31285	2013-08-23T12:00:00	79.9	ND	ND	ND	ND	ND	1.7	125.8	27.2	54.9	420.5	0
31286	2013-08-23T13:00:00	56.6	ND	ND	ND	ND	ND	1.2	167.9	28.2	52.4	582	0
31287	2013-08-23T14:00:00	53.2	ND	ND	ND	ND	ND	0.8	173.3	29.6	47.7	685.6	0
31288	2013-08-23T15:00:00	32.2	ND	ND	ND	ND	ND	0.9	97.6	30.2	45.4	365.7	0
31289	2013-08-23T16:00:00	66.1	ND	ND	ND	ND	ND	2.6	218.3	30.4	42.3	519	0
31290	2013-08-23T17:00:00	42.3	ND	ND	ND	ND	ND	3.9	217.3	29.1	44.3	295.9	0
31291	2013-08-23T18:00:00	32.7	ND	ND	ND	ND	ND	5.2	217	27.2	50.5	81.7	0
31292	2013-08-23T19:00:00	18.1	ND	ND	ND	ND	ND	3.3	218.2	25.9	52.6	0	0
31293	2013-08-23T20:00:00	21.8	ND	ND	ND	ND	ND	3.8	217.8	25.4	54.9	0	0
31294	2013-08-23T21:00:00	15.8	ND	ND	ND	ND	ND	4.4	217.3	25.3	55.1	0	0
31295	2013-08-23T22:00:00	8.7	ND	ND	ND	ND	ND	2.8	214.5	24.6	58.9	0	0
31296	2013-08-23T23:00:00	4.3	ND	ND	ND	ND	ND	2.1	213.8	24.2	61.4	0	0
31297	2013-08-24T00:00:00	2.2	ND	ND	ND	ND	ND	1.8	206.9	24	62.8	0	0
31298	2013-08-24T01:00:00	2.7	ND	ND	ND	ND	ND	1	75.4	22.9	70	0	0
31299	2013-08-24T02:00:00	19.7	ND	ND	ND	ND	ND	0.5	96.7	22.3	74	0	0
31300	2013-08-24T03:00:00	22.3	ND	ND	ND	ND	ND	0.7	134.3	22	74.9	0	0
31301	2013-08-24T04:00:00	40.5	ND	ND	ND	ND	ND	0.5	134.5	22.3	73.8	0	0
31302	2013-08-24T05:00:00	39.3	ND	ND	ND	ND	ND	0.7	122.6	22.1	75.2	0	0
31303	2013-08-24T06:00:00	33.7	ND	ND	ND	ND	ND	0.8	137.3	21.7	77.8	0	0
31304	2013-08-24T07:00:00	20.7	ND	ND	ND	ND	ND	0.3	166.7	21.7	77.6	23.2	0
31305	2013-08-24T08:00:00	46	ND	ND	ND	ND	ND	0.6	88.8	22.5	73.5	80.6	0
31306	2013-08-24T09:00:00	56	ND	ND	ND	ND	ND	1	115.9	23.1	72.5	151.8	0
31307	2013-08-24T10:00:00	93.2	ND	ND	ND	ND	ND	0.9	152.1	23.3	71.3	176.2	0
31308	2013-08-24T11:00:00	74.8	ND	ND	ND	ND	ND	0.8	124.7	24.5	66.3	368.1	0
31309	2013-08-24T12:00:00	84.8	ND	ND	ND	ND	ND	0.7	150.9	26.4	57.7	556.3	0
31310	2013-08-24T13:00:00	61.8	ND	ND	ND	ND	ND	0.8	118.4	27.2	54.3	296.9	0
31311	2013-08-24T14:00:00	54	ND	ND	ND	ND	ND	1	182.6	26.9	55	152.5	0
31312	2013-08-24T15:00:00	42	ND	ND	ND	ND	ND	3.1	218.3	26.1	56	103.8	0
31313	2013-08-24T16:00:00	31.6	ND	ND	ND	ND	ND	4.1	217.5	25.4	58	427.8	0
31314	2013-08-24T17:00:00	16.8	ND	ND	ND	ND	ND	4	219.1	26.3	51.9	367.6	0
31315	2013-08-24T18:00:00	9.1	ND	ND	ND	ND	ND	4.7	218.3	25.8	47.2	101.4	0
31316	2013-08-24T19:00:00	8.1	ND	ND	ND	ND	ND	3.3	208.6	24.6	57.8	0	0
31317	2013-08-24T20:00:00	22.2	ND	ND	ND	ND	ND	2.4	190.4	23.5	69.8	0	0
31318	2013-08-24T21:00:00	13.1	ND	ND	ND	ND	ND	1.2	186.2	23.2	70.8	0	0
31319	2013-08-24T22:00:00	35.3	ND	ND	ND	ND	ND	1.8	216.2	22.7	64.8	0	0
31320	2013-08-24T23:00:00	19.3	ND	ND	ND	ND	ND	1.7	214.4	22.3	60.7	0	0
31321	2013-08-25T00:00:00	11.5	ND	ND	ND	ND	ND	1	219.6	22	64.9	0	0
31322	2013-08-25T01:00:00	22.6	ND	ND	ND	ND	ND	1.3	216.1	21.3	62.8	0	0
31323	2013-08-25T02:00:00	11.9	ND	ND	ND	ND	ND	1.2	219.7	21.1	65.2	0	0
31324	2013-08-25T03:00:00	8.1	ND	ND	ND	ND	ND	0.3	64.5	20.6	72.8	0	0
31325	2013-08-25T04:00:00	13.7	ND	ND	ND	ND	ND	1.1	215.8	20.1	72.6	0	0
31326	2013-08-25T05:00:00	8.7	ND	ND	ND	ND	ND	0.5	47.8	19.9	77.1	0	0
31327	2013-08-25T06:00:00	17.4	ND	ND	ND	ND	ND	0.7	216.8	19.5	78.8	0	0
31328	2013-08-25T07:00:00	10.3	ND	ND	ND	ND	ND	0.2	ND	19.8	78.6	39.1	0
31329	2013-08-25T08:00:00	44.7	ND	ND	ND	ND	ND	0.1	ND	20.9	77.4	206.9	0
31330	2013-08-25T09:00:00	54.8	ND	ND	ND	ND	ND	0.7	153.7	22.8	67.9	421.1	0
31331	2013-08-25T10:00:00	52	ND	ND	ND	ND	ND	1.5	137.3	24.8	61	624.9	0
31332	2013-08-25T11:00:00	28.1	ND	ND	ND	ND	ND	1.3	157	26.3	54.6	775.3	0
31333	2013-08-25T12:00:00	19.8	ND	ND	ND	ND	ND	0.9	140.1	27.7	49.3	889.4	0
31334	2013-08-25T13:00:00	11	ND	ND	ND	ND	ND	0.6	106.5	29.2	46.1	708.6	0
31335	2013-08-25T14:00:00	40.1	ND	ND	ND	ND	ND	0.9	219.5	29.6	45.2	500.3	0
31336	2013-08-25T15:00:00	22.1	ND	ND	ND	ND	ND	4.9	217.2	29.5	44.8	648	0
31337	2013-08-25T16:00:00	20.8	ND	ND	ND	ND	ND	5.6	217.2	27.8	49.3	305.4	0
31338	2013-08-25T17:00:00	11.2	ND	ND	ND	ND	ND	5.5	218.6	26.6	52.4	180.1	0
31339	2013-08-25T18:00:00	22.1	ND	ND	ND	ND	ND	4.7	218	25.9	55.2	51.9	0
31340	2013-08-25T19:00:00	12.7	ND	ND	ND	ND	ND	2.2	215.6	24.9	60.1	0	0
31341	2013-08-25T20:00:00	7.8	ND	ND	ND	ND	ND	1.1	68	23.7	67.8	0	0
31342	2013-08-25T21:00:00	4.7	ND	ND	ND	ND	ND	0.9	75.4	23.1	70	0	0
31343	2013-08-25T22:00:00	10	ND	ND	ND	ND	ND	2	178.1	23	71.4	0	0
31344	2013-08-25T23:00:00	6	ND	ND	ND	ND	ND	1.5	161.8	22.8	72	0	0
31345	2013-08-26T00:00:00	12	ND	ND	ND	ND	ND	0.7	134.2	22.7	72.5	0	0
31346	2013-08-26T01:00:00	7.8	ND	ND	ND	ND	ND	1	56.5	22.1	77.2	0	0
31347	2013-08-26T02:00:00	11	ND	ND	ND	ND	ND	0.5	82.4	21.3	83.2	0	0
31348	2013-08-26T03:00:00	ND	ND	ND	ND	ND	ND	0.7	54.8	21.1	85.3	0	0
31349	2013-08-26T04:00:00	ND	ND	ND	ND	ND	ND	0.4	58	21.2	83.5	0	0
31350	2013-08-26T05:00:00	ND	ND	ND	ND	ND	ND	0.7	131.4	21.2	83.3	0	0
31351	2013-08-26T06:00:00	ND	ND	ND	ND	ND	ND	0.5	156.4	20.7	84.5	0	0
31352	2013-08-26T07:00:00	ND	ND	ND	ND	ND	ND	0.6	136.7	20.7	84.6	24.7	0
31353	2013-08-26T08:00:00	ND	ND	ND	ND	ND	ND	0.5	177	21.3	81.6	181.3	0
31354	2013-08-26T09:00:00	ND	ND	ND	ND	ND	ND	0.8	112.5	23.1	73.2	320.4	0
31355	2013-08-26T10:00:00	ND	ND	ND	ND	ND	ND	1.1	127.4	24.5	65.8	523.7	0
31356	2013-08-26T11:00:00	ND	ND	ND	ND	ND	ND	1.1	103.2	26	59.6	633.6	0
31357	2013-08-26T12:00:00	ND	ND	ND	ND	ND	ND	0.3	119	26.9	55.1	544.4	0
31358	2013-08-26T13:00:00	ND	ND	ND	ND	ND	ND	1.8	73	27.3	54.4	519.3	0
31359	2013-08-26T14:00:00	ND	ND	ND	ND	ND	ND	1.1	48.8	28.6	50.2	593.6	0
31360	2013-08-26T15:00:00	ND	ND	ND	ND	ND	ND	0.9	43.8	29.4	47.5	580.6	0
31361	2013-08-26T16:00:00	ND	ND	ND	ND	ND	ND	0.2	225.2	29.3	47	343.4	0
31362	2013-08-26T17:00:00	ND	ND	ND	ND	ND	ND	3.4	216.4	28.7	46.3	262.1	0
31363	2013-08-26T18:00:00	ND	ND	ND	ND	ND	ND	3.6	216.1	27.2	50.7	61.8	0
31364	2013-08-26T19:00:00	ND	ND	ND	ND	ND	ND	3.1	215.7	26	54.1	0	0
31365	2013-08-26T20:00:00	ND	ND	ND	ND	ND	ND	2.5	214.3	25.6	56.3	0	0
31366	2013-08-26T21:00:00	ND	ND	ND	ND	ND	ND	2.4	215.8	25.4	57.6	0	0
31367	2013-08-26T22:00:00	ND	ND	ND	ND	ND	ND	1.6	206.1	25.1	59.2	0	0
31368	2013-08-26T23:00:00	ND	ND	ND	ND	ND	ND	1.7	195.9	24.5	63.6	0	0
31369	2013-08-27T00:00:00	ND	ND	ND	ND	ND	ND	1.2	187.5	23.9	68	0	0
31370	2013-08-27T01:00:00	ND	ND	ND	ND	ND	ND	1.1	157.2	23.1	72.2	0	0
31371	2013-08-27T02:00:00	ND	ND	ND	ND	ND	ND	0.5	167.8	22.6	72.7	0	0
31372	2013-08-27T03:00:00	ND	ND	ND	ND	ND	ND	0.6	169.2	22.2	74	0	0
31373	2013-08-27T04:00:00	ND	ND	ND	ND	ND	ND	0.9	155.1	21.2	78.8	0	0
31374	2013-08-27T05:00:00	ND	ND	ND	ND	ND	ND	0.2	ND	20.7	81.4	0	0
31375	2013-08-27T06:00:00	ND	ND	ND	ND	ND	ND	0.1	6.4	20.7	80.8	0	0
31376	2013-08-27T07:00:00	ND	ND	ND	ND	ND	ND	0.7	58.9	20.7	80.4	25.1	0
31377	2013-08-27T08:00:00	ND	ND	ND	ND	ND	ND	0.3	48.8	20.9	81.5	122.7	0
31378	2013-08-27T09:00:00	ND	ND	ND	ND	ND	ND	1	74	22.6	73.7	316.9	0
31379	2013-08-27T10:00:00	ND	ND	ND	ND	ND	ND	0.7	93.9	24.2	65.4	527.2	0
31380	2013-08-27T11:00:00	ND	ND	ND	ND	ND	ND	0.6	91.5	26.3	56.3	637.6	0
31381	2013-08-27T12:00:00	ND	ND	ND	ND	ND	ND	1.3	157.6	28.2	48.3	882.4	0
31382	2013-08-27T13:00:00	ND	ND	ND	ND	ND	ND	1.8	110.6	29.2	46	641.2	0
31383	2013-08-27T14:00:00	ND	ND	ND	ND	ND	ND	2.2	93.8	28.8	48	472.9	0
31384	2013-08-27T15:00:00	ND	ND	ND	ND	ND	ND	1.8	95.1	28.5	48.1	361.8	0
31385	2013-08-27T16:00:00	ND	ND	ND	ND	ND	ND	1	111	29.2	47.2	396.9	0
31386	2013-08-27T17:00:00	ND	ND	ND	ND	ND	ND	0.5	179.7	28.9	47.4	180.9	0
31387	2013-08-27T18:00:00	ND	ND	ND	ND	ND	ND	3.2	217.5	27.9	49.2	101	0
31388	2013-08-27T19:00:00	ND	ND	ND	ND	ND	ND	3.7	216.3	26.5	51.4	0	0
31389	2013-08-27T20:00:00	ND	ND	ND	ND	ND	ND	3.1	218.7	25.9	54	0	0
31390	2013-08-27T21:00:00	ND	ND	ND	ND	ND	ND	4.6	216.4	25.3	56.1	0	0
31391	2013-08-27T22:00:00	ND	ND	ND	ND	ND	ND	3.1	217	25	58.1	0	0
31392	2013-08-27T23:00:00	ND	ND	ND	ND	ND	ND	2	217.8	24.8	59.4	0	0
31393	2013-08-28T00:00:00	ND	ND	ND	ND	ND	ND	0.7	45.7	23.8	67	0	0
31394	2013-08-28T01:00:00	ND	ND	ND	ND	ND	ND	0.8	95.6	23.1	69.9	0	0
31395	2013-08-28T02:00:00	ND	ND	ND	ND	ND	ND	0.7	86.9	22.9	70.7	0	0
31396	2013-08-28T03:00:00	ND	ND	ND	ND	ND	ND	0.5	86.7	22.6	72.5	0	0
31397	2013-08-28T04:00:00	ND	ND	ND	ND	ND	ND	1	160.7	22.4	73.4	0	0
31398	2013-08-28T05:00:00	ND	ND	ND	ND	ND	ND	1	157.2	22.1	74	0	0
31399	2013-08-28T06:00:00	ND	ND	ND	ND	ND	ND	0.5	151.8	22	74.2	0	0
31400	2013-08-28T07:00:00	ND	ND	ND	ND	ND	ND	0.5	130.5	22.2	72.1	32.7	0
31401	2013-08-28T08:00:00	ND	ND	ND	ND	ND	ND	1	142.4	22.7	70.9	144.3	0
31402	2013-08-28T09:00:00	ND	ND	ND	ND	ND	ND	0.4	129.4	24.1	65.4	252.6	0
31403	2013-08-28T10:00:00	ND	ND	ND	ND	ND	ND	1.3	78.9	25.2	61.2	399.8	0
31404	2013-08-28T11:00:00	ND	ND	ND	ND	ND	ND	1.1	71.8	26.6	56.2	548.1	0
31405	2013-08-28T12:00:00	ND	ND	ND	ND	ND	ND	1.2	98.9	27.8	52.7	743	0
31406	2013-08-28T13:00:00	ND	ND	ND	ND	ND	ND	1.1	157	29.5	47	764.8	0
31407	2013-08-28T14:00:00	ND	ND	ND	ND	ND	ND	1.4	154.8	30.2	44.7	571.1	0
31408	2013-08-28T15:00:00	ND	ND	ND	ND	ND	ND	0.4	100.6	30	44.9	210	0
31409	2013-08-28T16:00:00	ND	ND	ND	ND	ND	ND	3.5	217.1	27.1	55	75.4	0
31410	2013-08-28T17:00:00	ND	ND	ND	ND	ND	ND	3	218.5	27	54.6	169	0
31411	2013-08-28T18:00:00	ND	ND	ND	ND	ND	ND	2.7	218	26.9	53.5	44.2	0
31412	2013-08-28T19:00:00	ND	ND	ND	ND	ND	ND	3.3	216.7	26	57.1	0	0
31413	2013-08-28T20:00:00	ND	ND	ND	ND	ND	ND	4.4	216.6	25.3	59.5	0	0
31414	2013-08-28T21:00:00	ND	ND	ND	ND	ND	ND	2.8	216.6	25.6	57.9	0	0
31415	2013-08-28T22:00:00	ND	ND	ND	ND	ND	ND	0.7	52.1	25	63.4	0	0
31416	2013-08-28T23:00:00	ND	ND	ND	ND	ND	ND	0.7	72.1	24.5	65.7	0	0
31417	2013-08-29T00:00:00	ND	ND	ND	ND	ND	ND	0.5	167.4	24.3	66.9	0	0
31418	2013-08-29T01:00:00	ND	ND	ND	ND	ND	ND	0.5	121.4	23.2	72.8	0	0
31419	2013-08-29T02:00:00	ND	ND	ND	ND	ND	ND	0.7	203.4	23.1	71.7	0	0
31420	2013-08-29T03:00:00	ND	ND	ND	ND	ND	ND	1.7	184.4	22.9	73.6	0	0
31421	2013-08-29T04:00:00	ND	ND	ND	ND	ND	ND	1	206.9	22.3	73.9	0	0
31422	2013-08-29T05:00:00	ND	ND	ND	ND	ND	ND	1.4	218	22	70.3	0	0
31423	2013-08-29T06:00:00	ND	ND	ND	ND	ND	ND	0.7	48.4	21.6	78.2	0	0
31424	2013-08-29T07:00:00	ND	ND	ND	ND	ND	ND	0.5	92.9	21.4	79.6	30.5	0
31425	2013-08-29T08:00:00	ND	ND	ND	ND	ND	ND	0.8	118.5	22.8	73.7	206.1	0
31426	2013-08-29T09:00:00	ND	ND	ND	ND	ND	ND	1.2	67.4	24.1	66.3	326.1	0
31427	2013-08-29T10:00:00	ND	ND	ND	ND	ND	ND	1	137.9	25.8	58	614.7	0
31428	2013-08-29T11:00:00	ND	ND	ND	ND	ND	ND	1.4	140.2	27.2	49.9	698.7	0
31429	2013-08-29T12:00:00	ND	ND	ND	ND	ND	ND	2.5	146.2	28.2	45.9	574.8	0
31430	2013-08-29T13:00:00	ND	ND	ND	ND	ND	ND	3.6	162.4	29.4	37.1	643.1	0
31431	2013-08-29T14:00:00	ND	ND	ND	ND	ND	ND	3.7	153.7	30.1	32.6	703.7	0
31432	2013-08-29T15:00:00	ND	ND	ND	ND	ND	ND	3.8	154	30.6	32.7	709.4	0
31433	2013-08-29T16:00:00	ND	ND	ND	ND	ND	ND	3.9	181.1	30.8	28.4	419.5	0
31434	2013-08-29T17:00:00	ND	ND	ND	ND	ND	ND	3.7	176.1	30.8	26.3	364.6	0
31435	2013-08-29T18:00:00	ND	ND	ND	ND	ND	ND	3	168	29.7	27.5	119.5	0
31436	2013-08-29T19:00:00	ND	ND	ND	ND	ND	ND	2.9	196.8	28.1	33.9	0	0
31437	2013-08-29T20:00:00	ND	ND	ND	ND	ND	ND	3.8	216.2	25.9	50.3	0	0
31438	2013-08-29T21:00:00	ND	ND	ND	ND	ND	ND	3.1	217.3	25.3	54.8	0	0
31439	2013-08-29T22:00:00	ND	ND	ND	ND	ND	ND	2.6	219.1	24.9	55.4	0	0
31440	2013-08-29T23:00:00	ND	ND	ND	ND	ND	ND	0.3	172.3	24	58.4	0	0
31441	2013-08-30T00:00:00	ND	ND	ND	ND	ND	ND	0.5	200.8	23.5	57.7	0	0
31442	2013-08-30T01:00:00	ND	ND	ND	ND	ND	ND	0.2	117.4	22.7	60.8	0	0
31443	2013-08-30T02:00:00	ND	ND	ND	ND	ND	ND	0.3	179.3	21.9	64.1	0	0
31444	2013-08-30T03:00:00	ND	ND	ND	ND	ND	ND	0.9	211.3	22.4	58.5	0	0
31445	2013-08-30T04:00:00	ND	ND	ND	ND	ND	ND	0.5	197.2	22.3	58.9	0	0
31446	2013-08-30T05:00:00	ND	ND	ND	ND	ND	ND	0.4	125.1	21.6	60	0	0
31447	2013-08-30T06:00:00	ND	ND	ND	ND	ND	ND	0.1	218.3	21.1	60.6	0	0
31448	2013-08-30T07:00:00	ND	ND	ND	ND	ND	ND	0.7	68.7	20.6	61.9	44.5	0
31449	2013-08-30T08:00:00	ND	ND	ND	ND	ND	ND	0.6	10.5	21.6	56.8	214.2	0
31450	2013-08-30T09:00:00	ND	ND	ND	ND	ND	ND	1.3	52.8	23.7	52.5	430.1	0
31451	2013-08-30T10:00:00	ND	ND	ND	ND	ND	ND	1.1	63.9	25.8	45.5	632.6	0
31452	2013-08-30T11:00:00	ND	ND	ND	ND	ND	ND	0.7	81.6	27.6	37.5	806.4	0
31453	2013-08-30T12:00:00	ND	ND	ND	ND	ND	ND	1.2	114.6	29.3	33.3	782.3	0
31454	2013-08-30T13:00:00	ND	ND	ND	ND	ND	ND	1.5	133.8	30.9	28.5	781.8	0
31455	2013-08-30T14:00:00	ND	ND	ND	ND	ND	ND	1.8	118.3	31.3	26.9	405.7	0
31456	2013-08-30T15:00:00	ND	ND	ND	ND	ND	ND	1.6	89.6	30.9	28.4	373.4	0
31457	2013-08-30T16:00:00	ND	ND	ND	ND	ND	ND	1.3	97.3	31	28.9	305.1	0
31458	2013-08-30T17:00:00	ND	ND	ND	ND	ND	ND	1.5	80.5	30.7	30.1	250	0
31459	2013-08-30T18:00:00	ND	ND	ND	ND	ND	ND	1.7	191.2	29.6	36.4	48.4	0
31460	2013-08-30T19:00:00	ND	ND	ND	ND	ND	ND	3.1	215.5	27.1	50.5	0	0
31461	2013-08-30T20:00:00	ND	ND	ND	ND	ND	ND	2.5	213.7	26.5	51.4	0	0
31462	2013-08-30T21:00:00	ND	ND	ND	ND	ND	ND	3.1	215.9	25.9	53.7	0	0
31463	2013-08-30T22:00:00	ND	ND	ND	ND	ND	ND	2.7	217.3	25.6	54.1	0	0
31464	2013-08-30T23:00:00	ND	ND	ND	ND	ND	ND	0.4	38	25	56.3	0	0
31465	2013-08-31T00:00:00	ND	ND	ND	ND	ND	ND	0.5	120.1	24.5	61	0	0
31466	2013-08-31T01:00:00	ND	ND	ND	ND	ND	ND	0.6	175.3	24.2	59.6	0	0
31467	2013-08-31T02:00:00	ND	ND	ND	ND	ND	ND	0.8	221.1	23.9	59.4	0	0
31468	2013-08-31T03:00:00	ND	ND	ND	ND	ND	ND	0.3	119.2	23.5	63.9	0	0
31469	2013-08-31T04:00:00	ND	ND	ND	ND	ND	ND	0.7	138.4	23	67.6	0	0
31470	2013-08-31T05:00:00	ND	ND	ND	ND	ND	ND	1.5	195.7	22.8	67.4	0	0
31471	2013-08-31T06:00:00	ND	ND	ND	ND	ND	ND	0.8	170.5	22.6	66	0	0
31472	2013-08-31T07:00:00	ND	ND	ND	ND	ND	ND	0.7	169.7	22.3	71.8	40.7	0
31473	2013-08-31T08:00:00	ND	ND	ND	ND	ND	ND	0.8	138.5	23.4	60.7	208.9	0
31474	2013-08-31T09:00:00	ND	ND	ND	ND	ND	ND	1.3	114.2	24.2	59.2	388.7	0
31475	2013-08-31T10:00:00	ND	ND	ND	ND	ND	ND	1.1	131.5	26	53.3	556.6	0
31476	2013-08-31T11:00:00	ND	ND	ND	ND	ND	ND	1.4	101.8	27	47.6	655.9	0
31477	2013-08-31T12:00:00	ND	ND	ND	ND	ND	ND	1.6	109.1	28.3	45.3	712.2	0
31478	2013-08-31T13:00:00	ND	ND	ND	ND	ND	ND	1.5	107.4	29.2	43.5	668.5	0
31479	2013-08-31T14:00:00	ND	ND	ND	ND	ND	ND	1.8	96.9	29.1	43.9	530.5	0
31480	2013-08-31T15:00:00	ND	ND	ND	ND	ND	ND	2.2	67.7	29	43.5	387.9	0
31481	2013-08-31T16:00:00	ND	ND	ND	ND	ND	ND	2.1	72	28.7	41	217.3	0
31482	2013-08-31T17:00:00	ND	ND	ND	ND	ND	ND	1	77.9	28.2	43.7	75.2	0
31483	2013-08-31T18:00:00	ND	ND	ND	ND	ND	ND	3.2	216.1	26.6	52.5	21.3	0
31484	2013-08-31T19:00:00	ND	ND	ND	ND	ND	ND	4.5	217	25.8	55.4	0	0
31485	2013-08-31T20:00:00	ND	ND	ND	ND	ND	ND	5	216.7	25.3	58	0	0
31486	2013-08-31T21:00:00	ND	ND	ND	ND	ND	ND	5	216.6	25.2	58	0	0
31487	2013-08-31T22:00:00	ND	ND	ND	ND	ND	ND	3.7	217.9	25.1	58.2	0	0
31488	2013-08-31T23:00:00	ND	ND	ND	ND	ND	ND	2	220	25.1	57.7	0	0
31489	2013-09-01T00:00:00	ND	ND	ND	ND	ND	ND	0.7	204.5	24.7	60.8	0	0
31490	2013-09-01T01:00:00	ND	ND	ND	ND	ND	ND	0.9	79.2	23.5	68	0	0
31491	2013-09-01T02:00:00	ND	ND	ND	ND	ND	ND	0.9	153.8	23.3	68.3	0	0
31492	2013-09-01T03:00:00	ND	ND	ND	ND	ND	ND	1.7	168.3	22.8	71	0	0
31493	2013-09-01T04:00:00	ND	ND	ND	ND	ND	ND	1.2	160.4	22.1	71.9	0	0
31494	2013-09-01T05:00:00	ND	ND	ND	ND	ND	ND	0.9	160.1	22	70.4	0	0
31495	2013-09-01T06:00:00	ND	ND	ND	ND	ND	ND	0.5	182.1	22.1	69.6	0	0
31496	2013-09-01T07:00:00	ND	ND	ND	ND	ND	ND	0.4	113.6	22	70.6	54.7	0
31497	2013-09-01T08:00:00	ND	ND	ND	ND	ND	ND	0.6	94.6	22.7	68.2	173.4	0
31498	2013-09-01T09:00:00	ND	ND	ND	ND	ND	ND	0.2	205.5	24.2	62.2	401.3	0
31499	2013-09-01T10:00:00	ND	ND	ND	ND	ND	ND	1.2	96.9	25.9	56.1	588.1	0
31500	2013-09-01T11:00:00	ND	ND	ND	ND	ND	ND	1.4	82.1	27.2	51.9	796.1	0
31501	2013-09-01T12:00:00	ND	ND	ND	ND	ND	ND	1.2	72.5	28.8	48.3	811.6	0
31502	2013-09-01T13:00:00	ND	ND	ND	ND	ND	ND	1.5	104.3	30.1	45.1	919	0
31503	2013-09-01T14:00:00	ND	ND	ND	ND	ND	ND	1.3	89.7	30.6	42.4	590.9	0
31504	2013-09-01T15:00:00	ND	ND	ND	ND	ND	ND	1.2	218.8	30.4	42.3	335.4	0
31505	2013-09-01T16:00:00	ND	ND	ND	ND	ND	ND	4.4	217.3	30.3	42.3	565.6	0
31506	2013-09-01T17:00:00	ND	ND	ND	ND	ND	ND	4.3	217.3	29.2	44.6	327.2	0
31507	2013-09-01T18:00:00	ND	ND	ND	ND	ND	ND	5.1	216.7	27.3	50	109	0
31508	2013-09-01T19:00:00	ND	ND	ND	ND	ND	ND	4.6	216.3	26.2	52.3	0	0
31509	2013-09-01T20:00:00	ND	ND	ND	ND	ND	ND	3	215.9	25.6	54.5	0	0
31510	2013-09-01T21:00:00	ND	ND	ND	ND	ND	ND	0.8	123.4	25.5	55.1	0	0
31511	2013-09-01T22:00:00	ND	ND	ND	ND	ND	ND	0.6	156.4	25.1	58	0	0
31512	2013-09-01T23:00:00	ND	ND	ND	ND	ND	ND	1.7	217.3	24.8	57.3	0	0
31513	2013-09-02T00:00:00	ND	ND	ND	ND	ND	ND	0.3	147.3	23.6	64.2	0	0
31514	2013-09-02T01:00:00	ND	ND	ND	ND	ND	ND	2.5	195.7	23	62.9	0	0
31515	2013-09-02T02:00:00	ND	ND	ND	ND	ND	ND	1.6	183.9	22.9	61.6	0	0
31516	2013-09-02T03:00:00	ND	ND	ND	ND	ND	ND	0.7	162.4	22.1	64.3	0	0
31517	2013-09-02T04:00:00	ND	ND	ND	ND	ND	ND	0.4	131.3	21.6	66.7	0	0
31518	2013-09-02T05:00:00	ND	ND	ND	ND	ND	ND	0.2	ND	21.3	69.4	0	0
31519	2013-09-02T06:00:00	ND	ND	ND	ND	ND	ND	0.1	72.7	21	71.3	0	0
31520	2013-09-02T07:00:00	ND	ND	ND	ND	ND	ND	0.6	115.9	21.1	72	45.6	0
31521	2013-09-02T08:00:00	ND	ND	ND	ND	ND	ND	0.6	87.8	22.4	67.9	192	0
31522	2013-09-02T09:00:00	ND	ND	ND	ND	ND	ND	1.2	126.9	23.5	63.9	375.7	0
31523	2013-09-02T10:00:00	ND	ND	ND	ND	ND	ND	1.1	143.1	25.3	57.1	637	0
31524	2013-09-02T11:00:00	ND	ND	ND	ND	ND	ND	0.8	99.7	27.4	49.6	812.6	2.29
31525	2013-09-02T12:00:00	ND	ND	ND	ND	ND	ND	1.3	108.2	29.1	44.6	885.4	0
31526	2013-09-02T13:00:00	ND	ND	ND	ND	ND	ND	0.9	77.3	30.5	40.7	900.5	0
31527	2013-09-02T14:00:00	ND	ND	ND	ND	ND	ND	1.5	95.6	30.8	39.6	489.5	0
31528	2013-09-02T15:00:00	ND	ND	ND	ND	ND	ND	2.3	210.9	30.3	40.1	476.9	0
31529	2013-09-02T16:00:00	ND	ND	ND	ND	ND	ND	4.1	216.9	30.4	40.8	460	0
31530	2013-09-02T17:00:00	ND	ND	ND	ND	ND	ND	4.6	217.4	29.3	44.7	269.2	0
31531	2013-09-02T18:00:00	ND	ND	ND	ND	ND	ND	5.8	217	26.6	52.5	18.7	0
31532	2013-09-02T19:00:00	ND	ND	ND	ND	ND	ND	5.6	216.5	25.8	54.9	0	0
31533	2013-09-02T20:00:00	ND	ND	ND	ND	ND	ND	4.2	219.3	26	52.9	0	0
31534	2013-09-02T21:00:00	ND	ND	ND	ND	ND	ND	2.4	220.8	25.6	55.6	0	0
31535	2013-09-02T22:00:00	ND	ND	ND	ND	ND	ND	2.7	214.8	25.2	56.9	0	0
31536	2013-09-02T23:00:00	ND	ND	ND	ND	ND	ND	1.1	193.9	24.5	59	0	0
31537	2013-09-03T00:00:00	ND	ND	ND	ND	ND	ND	1.8	179.2	24	61.9	0	0
31538	2013-09-03T01:00:00	ND	ND	ND	ND	ND	ND	1.4	190.1	23.4	65.6	0	0
31539	2013-09-03T02:00:00	ND	ND	ND	ND	ND	ND	1.8	199	23.5	64.6	0	0
31540	2013-09-03T03:00:00	ND	ND	ND	ND	ND	ND	0.7	37.6	22.9	67.8	0	0
31541	2013-09-03T04:00:00	ND	ND	ND	ND	ND	ND	0.5	134.4	22.1	71.5	0	0
31542	2013-09-03T05:00:00	14.6	ND	ND	ND	ND	ND	0.6	175.8	21.7	76	0	0
31543	2013-09-03T06:00:00	37.9	ND	ND	ND	ND	ND	1.1	53.8	21.8	74.1	0	0
31544	2013-09-03T07:00:00	20.8	ND	ND	ND	ND	ND	0.2	10.3	21.5	74.9	38.3	0
31545	2013-09-03T08:00:00	36.9	ND	ND	ND	ND	ND	1	167	22.3	72.8	68.6	0
31546	2013-09-03T09:00:00	42.2	ND	ND	ND	ND	ND	1	155.1	22.7	72.6	200.2	0
31547	2013-09-03T10:00:00	49.4	ND	ND	ND	ND	ND	1.3	164.2	24.5	65.2	560.3	0
31548	2013-09-03T11:00:00	26.5	ND	ND	ND	ND	ND	1.5	128.9	26.3	57.5	727.8	0
31549	2013-09-03T12:00:00	34.1	ND	ND	ND	ND	ND	0.4	184.1	27.1	53.3	550.4	0
31550	2013-09-03T13:00:00	18.1	ND	ND	ND	ND	ND	1.3	53.2	27.7	51	361.7	0
31551	2013-09-03T14:00:00	21.1	ND	ND	ND	ND	ND	0.8	62.4	28.1	48.5	342	0
31552	2013-09-03T15:00:00	15.9	ND	ND	ND	ND	ND	0.2	255.9	29.4	44.1	524.6	0
31553	2013-09-03T16:00:00	9	ND	ND	ND	ND	ND	3.8	217.3	29.9	40.7	587.5	0
31554	2013-09-03T17:00:00	5.5	ND	ND	ND	ND	ND	4.6	217.2	28.5	45.5	346.6	0
31555	2013-09-03T18:00:00	11.4	ND	ND	ND	ND	ND	5.2	216.5	26.8	50.4	94.9	0
31556	2013-09-03T19:00:00	7.4	ND	ND	ND	ND	ND	5.4	217.5	25.3	56.4	0	0
31557	2013-09-03T20:00:00	5.4	ND	ND	ND	ND	ND	4.9	217.1	24.9	58	0	0
31558	2013-09-03T21:00:00	4.5	ND	ND	ND	ND	ND	4.8	218.1	24.9	57.5	0	0
31559	2013-09-03T22:00:00	2.9	ND	ND	ND	ND	ND	2	219.1	25	56.7	0	0
31560	2013-09-03T23:00:00	2.2	ND	ND	ND	ND	ND	2.2	209.1	24.8	58.2	0	0
31561	2013-09-04T00:00:00	12.5	ND	ND	ND	ND	ND	1.5	176.7	24	65.8	0	0
31562	2013-09-04T01:00:00	9.2	ND	ND	ND	ND	ND	2	193	23.2	67.7	0	0
31563	2013-09-04T02:00:00	6.4	ND	ND	ND	ND	ND	0.9	190.4	23	63	0	0
31564	2013-09-04T03:00:00	3.8	ND	ND	ND	ND	ND	0.3	6.7	22	70.8	0	0
31565	2013-09-04T04:00:00	3.6	ND	ND	ND	ND	ND	1.1	219.6	21.8	65.7	0	0
31566	2013-09-04T05:00:00	3.6	ND	ND	ND	ND	ND	1.4	217.7	21.8	63.8	0	0
31567	2013-09-04T06:00:00	9.6	ND	ND	ND	ND	ND	0.1	64.1	21.7	69.9	0	0
31568	2013-09-04T07:00:00	6.6	ND	ND	ND	ND	ND	0.4	207.9	21.8	67	56.5	0
31569	2013-09-04T08:00:00	16.3	ND	ND	ND	ND	ND	1.1	203.7	22.8	63.9	216.2	0
31570	2013-09-04T09:00:00	15.5	ND	ND	ND	ND	ND	1.1	161.1	24.2	63.2	408.8	0
31571	2013-09-04T10:00:00	39.7	ND	ND	ND	ND	ND	1.3	149	25.7	57	565.6	0
31572	2013-09-04T11:00:00	39.7	ND	ND	ND	ND	ND	1.2	139.3	27.4	50.7	813.2	0
31573	2013-09-04T12:00:00	51.7	ND	ND	ND	ND	ND	1.1	109.6	28.7	47.4	867.5	0
31574	2013-09-04T13:00:00	39.8	ND	ND	ND	ND	ND	1.5	111.6	29.7	45.2	685.5	0
31575	2013-09-04T14:00:00	63.2	ND	ND	ND	ND	ND	1.3	131.1	30.5	43.2	674.8	0
31576	2013-09-04T15:00:00	38	ND	ND	ND	ND	ND	4.5	218.3	29.3	44.7	349	0
31577	2013-09-04T16:00:00	31.3	ND	ND	ND	ND	ND	4.9	218.6	28.6	44.5	412.5	0
31578	2013-09-04T17:00:00	16.2	ND	ND	ND	ND	ND	3.8	217.2	28.5	45	167.6	0
31579	2013-09-04T18:00:00	35.6	ND	ND	ND	ND	ND	3.8	219.4	27.2	50.2	21.2	0
31580	2013-09-04T19:00:00	18.8	ND	ND	ND	ND	ND	2.6	229.9	24.3	66.5	0	0.25
31581	2013-09-04T20:00:00	33.6	ND	ND	ND	ND	ND	0.3	141	23.3	73.3	0	0.25
31582	2013-09-04T21:00:00	17.5	ND	ND	ND	ND	ND	0.8	101.2	23.9	67.9	0	0
31583	2013-09-04T22:00:00	38.5	ND	ND	ND	ND	ND	0.6	82.8	23.4	68.6	0	0
31584	2013-09-04T23:00:00	20.4	ND	ND	ND	ND	ND	0.9	154.3	23.2	69.7	0	0
31585	2013-09-05T00:00:00	19.7	ND	ND	ND	ND	ND	1.1	160.6	22.8	72.6	0	0
31586	2013-09-05T01:00:00	10.9	ND	ND	ND	ND	ND	1	154	22.2	75.7	0	0
31587	2013-09-05T02:00:00	8.5	ND	ND	ND	ND	ND	0.6	152.9	22.2	75.9	0	0
31588	2013-09-05T03:00:00	5	ND	ND	ND	ND	ND	0.4	166.7	22.1	75.4	0	0
31589	2013-09-05T04:00:00	14.4	ND	ND	ND	ND	ND	0.3	47.7	22	77.1	0	0
31590	2013-09-05T05:00:00	9.3	ND	ND	ND	ND	ND	0.1	237.7	21.5	79.8	0	0
31591	2013-09-05T06:00:00	50.5	ND	ND	ND	ND	ND	0.3	66.9	20.9	82.4	0	0
31592	2013-09-05T07:00:00	34.5	ND	ND	ND	ND	ND	0.8	211.8	21.4	75.2	56.4	0
31593	2013-09-05T08:00:00	33.8	ND	ND	ND	ND	ND	0.8	161.4	23.1	68.4	218.6	0
31594	2013-09-05T09:00:00	51.8	ND	ND	ND	ND	ND	1.3	105	24.5	66.2	385.6	0
31595	2013-09-05T10:00:00	41.3	ND	ND	ND	ND	ND	0.8	126.5	25.7	60.8	566.3	0
31596	2013-09-05T11:00:00	22.2	ND	ND	ND	ND	ND	1.2	76.8	27.6	52.9	786.7	0
31597	2013-09-05T12:00:00	33.5	ND	ND	ND	ND	ND	1.2	80.9	29.1	47.5	915.9	0
31598	2013-09-05T13:00:00	22.8	ND	ND	ND	ND	ND	1.5	72.6	30.1	43.9	789.6	0
31599	2013-09-05T14:00:00	28.8	ND	ND	ND	ND	ND	1.2	106	31.3	39.8	866.8	0
31600	2013-09-05T15:00:00	15.5	ND	ND	ND	ND	ND	1	109.9	31.7	38.3	369.8	0
31601	2013-09-05T16:00:00	18.2	ND	ND	ND	ND	ND	3.1	216	31.6	41.6	536.2	0
31602	2013-09-05T17:00:00	19.9	ND	ND	ND	ND	ND	4.8	216.7	29.6	47	312.3	0
31603	2013-09-05T18:00:00	21.5	ND	ND	ND	ND	ND	5.1	217.1	27.7	51.7	51.8	0
31604	2013-09-05T19:00:00	17.1	ND	ND	ND	ND	ND	5.6	216.9	26.6	54.9	0	0
31605	2013-09-05T20:00:00	10.9	ND	ND	ND	ND	ND	5.7	217.6	25.4	60.3	0	0
31606	2013-09-05T21:00:00	5.4	ND	ND	ND	ND	ND	2.2	215.9	25.6	58.6	0	0
31607	2013-09-05T22:00:00	2.7	ND	ND	ND	ND	ND	2.4	183.1	25.3	59.3	0	0
31608	2013-09-05T23:00:00	3.3	ND	ND	ND	ND	ND	1.2	163.6	23.8	65.3	0	0
31609	2013-09-06T00:00:00	27.9	ND	ND	ND	ND	ND	1.1	181.6	22.9	74.5	0	0
31610	2013-09-06T01:00:00	15.2	ND	ND	ND	ND	ND	1.6	164.6	22.2	77.6	0	0
31611	2013-09-06T02:00:00	16.3	ND	ND	ND	ND	ND	1.4	189.8	21.8	77.9	0	0
31612	2013-09-06T03:00:00	8.8	ND	ND	ND	ND	ND	0.4	143.7	22.1	75.2	0	0
31613	2013-09-06T04:00:00	9.5	ND	ND	ND	ND	ND	0.6	16.1	22.1	78.4	0	1.02
31614	2013-09-06T05:00:00	5.6	ND	ND	ND	ND	ND	0.6	32.7	20.9	88.6	0	1.52
31615	2013-09-06T06:00:00	23	ND	ND	ND	ND	ND	0.2	102	21	87.6	0	0
31616	2013-09-06T07:00:00	18	ND	ND	ND	ND	ND	0.8	156.7	21.3	87.4	31.5	0
31617	2013-09-06T08:00:00	29.9	ND	ND	ND	ND	ND	1.3	175.2	22	79.4	61.1	0
31618	2013-09-06T09:00:00	25.7	ND	ND	ND	ND	ND	1.6	149.1	22.3	80.1	216.9	0
31619	2013-09-06T10:00:00	36.6	ND	ND	ND	ND	ND	1.2	144.3	23.2	76.8	424	0
31620	2013-09-06T11:00:00	18.9	ND	ND	ND	ND	ND	1	80.5	25.4	65	581.5	0
31621	2013-09-06T12:00:00	40.9	ND	ND	ND	ND	ND	1	71.6	26.2	60.1	430.8	0
31622	2013-09-06T13:00:00	28.7	ND	ND	ND	ND	ND	1.2	69.8	27.2	54.3	465.6	0
31623	2013-09-06T14:00:00	26.9	ND	ND	ND	ND	ND	1	57.8	28	51	575.1	0
31624	2013-09-06T15:00:00	15	ND	ND	ND	ND	ND	1.7	49.5	29	46.7	717.9	0
31625	2013-09-06T16:00:00	12.1	ND	ND	ND	ND	ND	1.1	41.8	28.9	44.9	238.1	0
31626	2013-09-06T17:00:00	6	ND	ND	ND	ND	ND	3.4	215.9	29.1	41.6	415.5	0
31627	2013-09-06T18:00:00	3.5	ND	ND	ND	ND	ND	3.8	213.4	26.7	47.9	24.1	0
31628	2013-09-06T19:00:00	2.5	ND	ND	ND	ND	ND	3.1	216.2	25.1	54.8	0	0
31629	2013-09-06T20:00:00	2.6	ND	ND	ND	ND	ND	2.2	217.9	24.6	56.4	0	0
31630	2013-09-06T21:00:00	2.3	ND	ND	ND	ND	ND	1.7	214.2	24.4	57.9	0	0
31631	2013-09-06T22:00:00	12.6	ND	ND	ND	ND	ND	0.8	170.6	23.8	64.1	0	0
31632	2013-09-06T23:00:00	6.9	ND	ND	ND	ND	ND	1.2	144.5	23	70.3	0	0
31633	2013-09-07T00:00:00	13.9	ND	ND	ND	ND	ND	0.9	192.6	22.9	70.6	0	0
31634	2013-09-07T01:00:00	8.9	ND	ND	ND	ND	ND	1.4	213.2	22.7	66.7	0	0
31635	2013-09-07T02:00:00	5.2	ND	ND	ND	ND	ND	1.3	216	22.7	65.5	0	0
31636	2013-09-07T03:00:00	4.8	ND	ND	ND	ND	ND	0.6	132.9	22.3	74.2	0	0
31637	2013-09-07T04:00:00	19.9	ND	ND	ND	ND	ND	0.6	144.2	21.7	77.4	0	0
31638	2013-09-07T05:00:00	13.3	ND	ND	ND	ND	ND	0.9	139	21.3	80	0	0
31639	2013-09-07T06:00:00	24.6	ND	ND	ND	ND	ND	0.4	164.4	21	81.8	0	0
31640	2013-09-07T07:00:00	14.3	ND	ND	ND	ND	ND	0.4	208.7	21.5	76	37	0
31641	2013-09-07T08:00:00	19.7	ND	ND	ND	ND	ND	0.6	215.3	22.1	72.8	81	0
31642	2013-09-07T09:00:00	11.1	ND	ND	ND	ND	ND	0.7	141.9	24.2	64.4	429.3	0
31643	2013-09-07T10:00:00	37.4	ND	ND	ND	ND	ND	1	87.5	25.8	59.6	630.7	0
31644	2013-09-07T11:00:00	20	ND	ND	ND	ND	ND	1.4	71.4	27.3	53.5	770.8	0
31645	2013-09-07T12:00:00	11	ND	ND	ND	ND	ND	1.6	102.8	28.7	47.9	871.3	0
31646	2013-09-07T13:00:00	5.5	ND	ND	ND	ND	ND	0.9	86.7	30	43.3	934	0
31647	2013-09-07T14:00:00	7.4	ND	ND	ND	ND	ND	1.1	70.8	31.4	38.6	882.9	0
31648	2013-09-07T15:00:00	4.8	ND	ND	ND	ND	ND	1.3	99.2	31.6	38.4	616.1	0
31649	2013-09-07T16:00:00	6.3	ND	ND	ND	ND	ND	3.8	216.7	30.2	45	439.1	0
31650	2013-09-07T17:00:00	11.1	ND	ND	ND	ND	ND	5.2	216.3	28.8	49.3	303.7	0
31651	2013-09-07T18:00:00	23.4	ND	ND	ND	ND	ND	5.2	216.3	27.2	53	48.2	0
31652	2013-09-07T19:00:00	18.8	ND	ND	ND	ND	ND	5.1	216.9	26.3	55.2	0	0
31653	2013-09-07T20:00:00	24.1	ND	ND	ND	ND	ND	4.7	217.5	25.9	56.7	0	0
31654	2013-09-07T21:00:00	13	ND	ND	ND	ND	ND	4.2	218.5	25.9	56.9	0	0
31655	2013-09-07T22:00:00	8.4	ND	ND	ND	ND	ND	3.9	217.3	25.3	60	0	0
31656	2013-09-07T23:00:00	5.3	ND	ND	ND	ND	ND	3.4	217.2	25	60.4	0	0
31657	2013-09-08T00:00:00	4.3	ND	ND	ND	ND	ND	2.1	215.6	24.8	61	0	0
31658	2013-09-08T01:00:00	3.8	ND	ND	ND	ND	ND	1.8	196.1	23.9	68.3	0	0
31659	2013-09-08T02:00:00	18	ND	ND	ND	ND	ND	1	178.2	23.5	69.8	0	0
31660	2013-09-08T03:00:00	33.9	ND	ND	ND	ND	ND	0.6	89.1	22.7	75.2	0	0
31661	2013-09-08T04:00:00	36	ND	ND	ND	ND	ND	0.6	141.9	22.4	76.3	0	0
31662	2013-09-08T05:00:00	24.3	ND	ND	ND	ND	ND	0.7	167.8	22.5	75.5	0	0
31663	2013-09-08T06:00:00	22.9	ND	ND	ND	ND	ND	0.2	95.9	22.6	75.7	0	0
31664	2013-09-08T07:00:00	13	ND	ND	ND	ND	ND	1.1	161	22.4	75.5	16.8	0
31665	2013-09-08T08:00:00	7.4	ND	ND	ND	ND	ND	0.7	149.8	22.4	76.1	62.9	0
31666	2013-09-08T09:00:00	4.6	ND	ND	ND	ND	ND	0.8	151.4	23.6	70.9	259.2	0
31667	2013-09-08T10:00:00	17.3	ND	ND	ND	ND	ND	1.2	107	25.6	62.3	587.9	0
31668	2013-09-08T11:00:00	25.4	ND	ND	ND	ND	ND	0.9	54.8	27.1	57	540.1	0
31669	2013-09-08T12:00:00	20.4	ND	ND	ND	ND	ND	1.2	72.8	28.4	51.4	658.1	0
31670	2013-09-08T13:00:00	12	ND	ND	ND	ND	ND	1.4	49	29	49.3	611.9	0
31671	2013-09-08T14:00:00	13.4	ND	ND	ND	ND	ND	0.6	37.1	30	45.7	702.9	0
31672	2013-09-08T15:00:00	8.8	ND	ND	ND	ND	ND	1.8	63.9	30.7	44.3	489.8	0
31673	2013-09-08T16:00:00	6	ND	ND	ND	ND	ND	2.8	218.2	29.4	47.1	426.6	0
31674	2013-09-08T17:00:00	4.3	ND	ND	ND	ND	ND	5	216.9	28.3	49.9	237.5	0
31675	2013-09-08T18:00:00	20.9	ND	ND	ND	ND	ND	4.8	217.5	26.8	53.3	43.6	0
31676	2013-09-08T19:00:00	12.4	ND	ND	ND	ND	ND	4.6	217.3	26.2	55.3	0	0
31677	2013-09-08T20:00:00	6.8	ND	ND	ND	ND	ND	3.1	219.2	25.9	57.1	0	0
31678	2013-09-08T21:00:00	5.1	ND	ND	ND	ND	ND	2.6	210	25.2	59.2	0	0
31679	2013-09-08T22:00:00	3.9	ND	ND	ND	ND	ND	2.9	217.2	24.8	56.1	0	0
31680	2013-09-08T23:00:00	4	ND	ND	ND	ND	ND	1.2	218.5	25	58.4	0	0
31681	2013-09-09T00:00:00	7.6	ND	ND	ND	ND	ND	1.2	171.8	23.6	67.6	0	0
31682	2013-09-09T01:00:00	4.7	ND	ND	ND	ND	ND	1.2	160.9	23.2	70.9	0	0
31683	2013-09-09T02:00:00	4.2	ND	ND	ND	ND	ND	1.3	170.1	23.3	70.9	0	0
31684	2013-09-09T03:00:00	3.6	ND	ND	ND	ND	ND	1.3	176.2	23.1	70.6	0	0
31685	2013-09-09T04:00:00	14.3	ND	ND	ND	ND	ND	0.1	306.1	22.5	75.8	0	0
31686	2013-09-09T05:00:00	13.2	ND	ND	ND	ND	ND	0.3	91.4	22.1	79.4	0	0
31687	2013-09-09T06:00:00	29.2	ND	ND	ND	ND	ND	0.6	154.3	22.1	80	0	0
31688	2013-09-09T07:00:00	22.9	ND	ND	ND	ND	ND	0.9	135.7	22	79.5	17.1	0
31689	2013-09-09T08:00:00	31.5	ND	ND	ND	ND	ND	1.7	179.7	21.9	80.6	107.7	0
31690	2013-09-09T09:00:00	16.6	ND	ND	ND	ND	ND	1.2	153.6	23.9	71.1	422.6	0
31691	2013-09-09T10:00:00	27.1	ND	ND	ND	ND	ND	1.6	131.5	25.8	61.2	574.2	0
31692	2013-09-09T11:00:00	21.9	ND	ND	ND	ND	ND	1.3	111.9	27.3	57.2	677.1	0
31693	2013-09-09T12:00:00	22.1	ND	ND	ND	ND	ND	1.3	85.6	27.5	55.8	454.3	0
31694	2013-09-09T13:00:00	22.3	ND	ND	ND	ND	ND	0.7	72	28.6	51.8	573.9	0
31695	2013-09-09T14:00:00	30.1	ND	ND	ND	ND	ND	0.9	141.2	29.3	49.8	534.7	0
31696	2013-09-09T15:00:00	28.1	ND	ND	ND	ND	ND	1.8	209.7	30.1	45.9	468	0
31697	2013-09-09T16:00:00	14.1	ND	ND	ND	ND	ND	3.4	218.8	27.8	50.4	64.3	0
31698	2013-09-09T17:00:00	11.6	ND	ND	ND	ND	ND	4.6	215.8	26.3	57.4	168.6	0
31699	2013-09-09T18:00:00	22.3	ND	ND	ND	ND	ND	5.9	216.9	25.1	61.1	28.7	0
31700	2013-09-09T19:00:00	12.5	ND	ND	ND	ND	ND	4.9	218	24.8	59.5	0	0
31701	2013-09-09T20:00:00	7.7	ND	ND	ND	ND	ND	0.6	211.3	23.6	69.3	0	0.51
31702	2013-09-09T21:00:00	4.6	ND	ND	ND	ND	ND	0.6	202.5	22.2	79.2	0	2.79
31703	2013-09-09T22:00:00	3.4	ND	ND	ND	ND	ND	0.8	244.8	21.4	83.8	0	0.51
31704	2013-09-09T23:00:00	2.5	ND	ND	ND	ND	ND	0.6	182.5	20.9	86.8	0	2.03
31705	2013-09-10T00:00:00	8.1	ND	ND	ND	ND	ND	0.7	171.5	20.9	88.9	0	1.02
31706	2013-09-10T01:00:00	5.4	ND	ND	ND	ND	ND	0.9	178.7	20.5	90.1	0	1.02
31707	2013-09-10T02:00:00	3.5	ND	ND	ND	ND	ND	0.8	212.4	19.8	91.9	0	9.4
31708	2013-09-10T03:00:00	2.7	ND	ND	ND	ND	ND	0.2	227.8	19.7	91.4	0	3.05
31709	2013-09-10T04:00:00	3.9	ND	ND	ND	ND	ND	0.2	7.1	20.1	90.9	0	0
31710	2013-09-10T05:00:00	2.7	ND	ND	ND	ND	ND	0.2	213	20.1	90.1	0	0
31711	2013-09-10T06:00:00	2.1	ND	ND	ND	ND	ND	1.1	215.2	20.2	85.5	0	0.25
31712	2013-09-10T07:00:00	1.6	ND	ND	ND	ND	ND	0.7	192.2	20.2	82.9	30.7	0
31713	2013-09-10T08:00:00	15.1	ND	ND	ND	ND	ND	0.6	214.8	20.7	81.8	79.7	0
31714	2013-09-10T09:00:00	9.3	ND	ND	ND	ND	ND	0.8	210.2	21.7	78	277.7	0
31715	2013-09-10T10:00:00	22.4	ND	ND	ND	ND	ND	0.9	110.8	23.1	74.7	486.4	0
31716	2013-09-10T11:00:00	12.5	ND	ND	ND	ND	ND	0.5	160.1	24.9	64	764.9	0
31717	2013-09-10T12:00:00	10.2	ND	ND	ND	ND	ND	1.1	102.4	27.4	54.6	949.5	0
31718	2013-09-10T13:00:00	15.8	ND	ND	ND	ND	ND	1.2	56.9	28.3	52.6	995.9	0
31719	2013-09-10T14:00:00	11.5	ND	ND	ND	ND	ND	1.1	129.9	29.2	49.1	667.8	0
31720	2013-09-10T15:00:00	18.1	ND	ND	ND	ND	ND	0.8	167.5	28.8	49.6	534.3	0
31721	2013-09-10T16:00:00	18.3	ND	ND	ND	ND	ND	3.4	216.9	28	51.6	217.1	0
31722	2013-09-10T17:00:00	9.8	ND	ND	ND	ND	ND	3.4	218.1	27.6	51.5	253.5	0
31723	2013-09-10T18:00:00	18.3	ND	ND	ND	ND	ND	4.1	217.2	26.7	54	43.5	0
31724	2013-09-10T19:00:00	10.2	ND	ND	ND	ND	ND	3.8	216.2	25.6	58.4	0	0
31725	2013-09-10T20:00:00	7.1	ND	ND	ND	ND	ND	1.9	219.1	25.2	60.9	0	0
31726	2013-09-10T21:00:00	31.3	ND	ND	ND	ND	ND	1.3	63.2	24	61.9	0	0
31727	2013-09-10T22:00:00	30.1	ND	ND	ND	ND	ND	1.1	154.2	23.2	67.4	0	0
31728	2013-09-10T23:00:00	16.6	ND	ND	ND	ND	ND	0.5	145.2	23.1	68.2	0	0
31729	2013-09-11T00:00:00	20.3	ND	ND	ND	ND	ND	0.6	54.5	23.3	67.8	0	0
31730	2013-09-11T01:00:00	14.8	ND	ND	ND	ND	ND	1.2	130.2	22.1	74.6	0	0
31731	2013-09-11T02:00:00	13.2	ND	ND	ND	ND	ND	0.8	137.9	21.3	80.9	0	0
31732	2013-09-11T03:00:00	13.7	ND	ND	ND	ND	ND	0.4	105.2	21.3	81.8	0	0
31733	2013-09-11T04:00:00	12.5	ND	ND	ND	ND	ND	0.6	60.1	21.5	80.2	0	0
31734	2013-09-11T05:00:00	7	ND	ND	ND	ND	ND	0.5	74.6	21.3	80.3	0	0
31735	2013-09-11T06:00:00	13.3	ND	ND	ND	ND	ND	0.6	41.4	21.2	80.2	0	0
31736	2013-09-11T07:00:00	16.1	ND	ND	ND	ND	ND	0.4	138.4	21.4	78.7	19.7	0
31737	2013-09-11T08:00:00	44.7	ND	ND	ND	ND	ND	0.8	107.3	21.6	78.4	122.5	0
31738	2013-09-11T09:00:00	30.8	ND	ND	ND	ND	ND	1.3	140.9	22.8	73.8	312.6	0
31739	2013-09-11T10:00:00	35.6	ND	ND	ND	ND	ND	0.8	110.7	24.2	67.3	466.3	0
31740	2013-09-11T11:00:00	33.3	ND	ND	ND	ND	ND	1.3	76.5	25.4	63.5	399.6	0
31741	2013-09-11T12:00:00	31.1	ND	ND	ND	ND	ND	1.1	94.7	25.9	61.3	367.1	0
31742	2013-09-11T13:00:00	27.9	ND	ND	ND	ND	ND	0.3	108.2	26.9	57.2	512.6	0
31743	2013-09-11T14:00:00	24.6	ND	ND	ND	ND	ND	0.5	74.8	27.8	54.3	443.2	0
31744	2013-09-11T15:00:00	32	ND	ND	ND	ND	ND	1.3	73	28.5	51.4	425.6	0
31745	2013-09-11T16:00:00	22.9	ND	ND	ND	ND	ND	1.6	66.3	28.9	51.3	305.6	0
31746	2013-09-11T17:00:00	13.5	ND	ND	ND	ND	ND	1.2	202	28	51.2	125.1	0
31747	2013-09-11T18:00:00	18.2	ND	ND	ND	ND	ND	3.7	217.3	26.9	52.2	71.5	0
31748	2013-09-11T19:00:00	10.5	ND	ND	ND	ND	ND	3	218.6	25.5	57.5	0	0
31749	2013-09-11T20:00:00	7.1	ND	ND	ND	ND	ND	3.8	217.8	24.8	59.4	0	0
31750	2013-09-11T21:00:00	3.5	ND	ND	ND	ND	ND	3	219.7	24.7	59.6	0	0
31751	2013-09-11T22:00:00	1.8	ND	ND	ND	ND	ND	0.6	160.3	24.3	62.5	0	0
31752	2013-09-11T23:00:00	7.9	ND	ND	ND	ND	ND	0.5	76.5	23.6	66.8	0	0
31753	2013-09-12T00:00:00	11.5	ND	ND	ND	ND	ND	0.5	127.9	23.1	70.1	0	0
31754	2013-09-12T01:00:00	15.7	ND	ND	ND	ND	ND	1.1	109	22.6	73.5	0	0
31755	2013-09-12T02:00:00	9.1	ND	ND	ND	ND	ND	1.2	132.4	22.1	75.3	0	0
31756	2013-09-12T03:00:00	5.8	ND	ND	ND	ND	ND	0.9	164.6	21.8	77	0	0
31757	2013-09-12T04:00:00	4.7	ND	ND	ND	ND	ND	0.4	121.5	21.5	77.3	0	0
31758	2013-09-12T05:00:00	3.4	ND	ND	ND	ND	ND	0.6	190.8	21.4	78	0	0
31759	2013-09-12T06:00:00	3.3	ND	ND	ND	ND	ND	0.5	204.4	21.6	77.9	0	0
31760	2013-09-12T07:00:00	1.7	ND	ND	ND	ND	ND	0.2	130.1	21.7	77.9	28.7	0
31761	2013-09-12T08:00:00	18.5	ND	ND	ND	ND	ND	0.8	78.8	22.9	72.9	203	0
31762	2013-09-12T09:00:00	26.2	ND	ND	ND	ND	ND	1	96.5	24.5	66.3	436	0
31763	2013-09-12T10:00:00	28.5	ND	ND	ND	ND	ND	1.3	134	25.5	61.5	554.8	0
31764	2013-09-12T11:00:00	15.6	ND	ND	ND	ND	ND	0.9	99.9	27	55.3	600.4	0
31765	2013-09-12T12:00:00	14.7	ND	ND	ND	ND	ND	1	124.1	27.8	51.9	602.7	0
31766	2013-09-12T13:00:00	8.5	ND	ND	ND	ND	ND	0.8	183.6	28.7	48.7	586.2	0
31767	2013-09-12T14:00:00	10.4	ND	ND	ND	ND	ND	2.1	218.7	29.2	45.6	507.8	0
31768	2013-09-12T15:00:00	5.8	ND	ND	ND	ND	ND	1.2	224.6	30.8	39.8	862.3	0
31769	2013-09-12T16:00:00	4.4	ND	ND	ND	ND	ND	4	217.2	29.5	45	393.2	0
31770	2013-09-12T17:00:00	3.5	ND	ND	ND	ND	ND	4.1	216.3	26.8	52.5	52	0
31771	2013-09-12T18:00:00	15.6	ND	ND	ND	ND	ND	3.7	217.5	26	55	24.7	0
31772	2013-09-12T19:00:00	9.9	ND	ND	ND	ND	ND	2.8	218.9	25.3	57.9	0	0
31773	2013-09-12T20:00:00	11.3	ND	ND	ND	ND	ND	2.6	214.9	24.9	60	0	0
31774	2013-09-12T21:00:00	7.8	ND	ND	ND	ND	ND	2.4	209	24.4	63.9	0	0
31775	2013-09-12T22:00:00	12.2	ND	ND	ND	ND	ND	1.8	199.9	23.5	71.7	0	0
31776	2013-09-12T23:00:00	7.8	ND	ND	ND	ND	ND	1.1	211.8	23.9	66	0	0
31777	2013-09-13T00:00:00	5.4	ND	ND	ND	ND	ND	1.4	174.7	23.3	70.4	0	0
31778	2013-09-13T01:00:00	4	ND	ND	ND	ND	ND	0.9	137.8	22.5	76.5	0	0
31779	2013-09-13T02:00:00	8.8	ND	ND	ND	ND	ND	0.6	143	22.1	80.4	0	0
31780	2013-09-13T03:00:00	19.1	ND	ND	ND	ND	ND	0.8	81.2	22.1	81.1	0	0
31781	2013-09-13T04:00:00	17	ND	ND	ND	ND	ND	0.5	14.4	21.9	82.2	0	0
31782	2013-09-13T05:00:00	11.4	ND	ND	ND	ND	ND	0.6	106.3	21.8	82.3	0	0
31783	2013-09-13T06:00:00	24.4	ND	ND	ND	ND	ND	1	162.6	21.5	83.4	0	0
31784	2013-09-13T07:00:00	23.2	ND	ND	ND	ND	ND	1.2	187	21.6	83.3	35.6	0
31785	2013-09-13T08:00:00	28.9	ND	ND	ND	ND	ND	0.8	155.5	23	76.2	210.5	0
31786	2013-09-13T09:00:00	27.5	ND	ND	ND	ND	ND	1.2	156.5	23.6	74.6	203.7	0
31787	2013-09-13T10:00:00	57.7	ND	ND	ND	ND	ND	0.5	62.5	24.4	68.9	283.4	0
31788	2013-09-13T11:00:00	29.7	ND	ND	ND	ND	ND	0.9	38.3	26.9	57.8	848.7	0
31789	2013-09-13T12:00:00	28.6	ND	ND	ND	ND	ND	1.4	59.9	28.1	52.3	772.6	0
31790	2013-09-13T13:00:00	16.1	ND	ND	ND	ND	ND	0.5	56.7	29.5	46.5	657.1	0
31791	2013-09-13T14:00:00	18.2	ND	ND	ND	ND	ND	0.4	45.7	29.5	46.6	392.6	0
31792	2013-09-13T15:00:00	10.6	ND	ND	ND	ND	ND	0.1	240.8	30.8	42	704.1	0
31793	2013-09-13T16:00:00	7.3	ND	ND	ND	ND	ND	0.2	70.7	31.5	40.8	521.3	0
31794	2013-09-13T17:00:00	5.7	ND	ND	ND	ND	ND	3	216.5	30.3	44.4	287.2	0
31795	2013-09-13T18:00:00	18	ND	ND	ND	ND	ND	3.2	217.1	28.3	49.4	69.8	0
31796	2013-09-13T19:00:00	10.4	ND	ND	ND	ND	ND	4.2	216.3	26.7	53.6	0	0
31797	2013-09-13T20:00:00	6	ND	ND	ND	ND	ND	3.2	216.2	26.5	54.9	0	0
31798	2013-09-13T21:00:00	10.3	ND	ND	ND	ND	ND	1.6	214	25.9	58.1	0	0
31799	2013-09-13T22:00:00	40.3	ND	ND	ND	ND	ND	0.7	186.2	24.8	63	0	0
31800	2013-09-13T23:00:00	22	ND	ND	ND	ND	ND	1.4	202.7	24.9	63.2	0	0
31801	2013-09-14T00:00:00	27.9	ND	ND	ND	ND	ND	1.4	214.4	24.5	62.7	0	0
31802	2013-09-14T01:00:00	21	ND	ND	ND	ND	ND	1.7	196	24	66.8	0	0
31803	2013-09-14T02:00:00	33	ND	ND	ND	ND	ND	1.1	141.8	22.5	75.3	0	0
31804	2013-09-14T03:00:00	20.5	ND	ND	ND	ND	ND	1	164	22.2	75.8	0	0
31805	2013-09-14T04:00:00	27.9	ND	ND	ND	ND	ND	0.5	146.4	22.4	75.8	0	0
31806	2013-09-14T05:00:00	28	ND	ND	ND	ND	ND	0.4	81.3	22.4	76	0	0
31807	2013-09-14T06:00:00	29.4	ND	ND	ND	ND	ND	0.3	148.5	22.4	75.6	0	0
31808	2013-09-14T07:00:00	26	ND	ND	ND	ND	ND	0.4	120.3	22.6	74.7	33.3	0
31809	2013-09-14T08:00:00	32.5	ND	ND	ND	ND	ND	0.7	163.3	23.2	72.2	98.5	0
31810	2013-09-14T09:00:00	30.1	ND	ND	ND	ND	ND	0.8	156.4	24.4	66.7	313.5	0
31811	2013-09-14T10:00:00	51	ND	ND	ND	ND	ND	0.9	101.4	26.4	59.3	570.7	0
31812	2013-09-14T11:00:00	27.7	ND	ND	ND	ND	ND	0.6	104.5	28	54.1	663.9	0
31813	2013-09-14T12:00:00	36.4	ND	ND	ND	ND	ND	0.2	142.1	29.3	50.1	650.4	0
31814	2013-09-14T13:00:00	25.3	ND	ND	ND	ND	ND	0.5	33.4	30.1	47.5	447.4	0
31815	2013-09-14T14:00:00	37.7	ND	ND	ND	ND	ND	0.3	152.1	30.7	45.1	415.3	0
31816	2013-09-14T15:00:00	18.8	ND	ND	ND	ND	ND	2.8	217.6	30.9	42.6	497.5	0
31817	2013-09-14T16:00:00	9.4	ND	ND	ND	ND	ND	4.6	216.7	30.7	44	506.1	0
31818	2013-09-14T17:00:00	4.7	ND	ND	ND	ND	ND	4.3	216.4	29.2	47.9	247.2	0
31819	2013-09-14T18:00:00	2.4	ND	ND	ND	ND	ND	3	214.5	28	50.7	36.6	0
31820	2013-09-14T19:00:00	15.7	ND	ND	ND	ND	ND	1.9	177	26.7	57.8	0	0
31821	2013-09-14T20:00:00	17.6	ND	ND	ND	ND	ND	1.4	134.4	24.2	69.9	0	0
31822	2013-09-14T21:00:00	20.2	ND	ND	ND	ND	ND	0.8	109	24	68.9	0	0
31823	2013-09-14T22:00:00	36.6	ND	ND	ND	ND	ND	0.1	48.5	24.1	69.5	0	0
31824	2013-09-14T23:00:00	33.5	ND	ND	ND	ND	ND	0.2	317.9	24.2	70.4	0	0
31825	2013-09-15T00:00:00	65.4	ND	ND	ND	ND	ND	0.5	136.2	23.4	72.8	0	0
31826	2013-09-15T01:00:00	56.1	ND	ND	ND	ND	ND	0.9	144.3	22.2	80.8	0	0
31827	2013-09-15T02:00:00	40.4	ND	ND	ND	ND	ND	0.7	64.4	22	81.3	0	0
31828	2013-09-15T03:00:00	28.1	ND	ND	ND	ND	ND	0.8	46	21.4	83.1	0	0
31829	2013-09-15T04:00:00	51.3	ND	ND	ND	ND	ND	0.3	66.7	21.2	85.1	0	0
31830	2013-09-15T05:00:00	28	ND	ND	ND	ND	ND	0.2	155.4	21.3	83	0	0
31831	2013-09-15T06:00:00	52.4	ND	ND	ND	ND	ND	0.2	62.5	21.5	81.9	0	0
31832	2013-09-15T07:00:00	27.2	ND	ND	ND	ND	ND	0.4	130	21.6	81.3	29	0
31833	2013-09-15T08:00:00	39.4	ND	ND	ND	ND	ND	1	155.2	21.9	80.7	129.2	0
31834	2013-09-15T09:00:00	34.5	ND	ND	ND	ND	ND	0.6	167.9	23.1	75.4	254.8	0
31835	2013-09-15T10:00:00	33.4	ND	ND	ND	ND	ND	1	125	26	61.6	665.9	0
31836	2013-09-15T11:00:00	18.8	ND	ND	ND	ND	ND	1.5	160.1	27.8	55.7	728.5	0
31837	2013-09-15T12:00:00	43.1	ND	ND	ND	ND	ND	1.4	155.6	28.2	54.4	583.9	0
31838	2013-09-15T13:00:00	42.7	ND	ND	ND	ND	ND	0.9	145.5	29	52.1	522	0
31839	2013-09-15T14:00:00	32.3	ND	ND	ND	ND	ND	0.6	166.4	30.1	48.9	568.8	0
31840	2013-09-15T15:00:00	17.4	ND	ND	ND	ND	ND	0.8	90.1	30.3	47.3	395.6	0
31841	2013-09-15T16:00:00	15.3	ND	ND	ND	ND	ND	3.7	214.3	29.5	48.8	336.4	0
31842	2013-09-15T17:00:00	9	ND	ND	ND	ND	ND	3.9	216.6	29	49	186.6	0
31843	2013-09-15T18:00:00	5.3	ND	ND	ND	ND	ND	3.7	211	26.5	57.1	45.8	0
31844	2013-09-15T19:00:00	4.3	ND	ND	ND	ND	ND	3.8	215.4	24.3	66.2	0	0
31845	2013-09-15T20:00:00	3.1	ND	ND	ND	ND	ND	2.1	213	25.2	63	0	0
31846	2013-09-15T21:00:00	3.5	ND	ND	ND	ND	ND	0.5	220.7	25	65.7	0	0
31847	2013-09-15T22:00:00	22.2	ND	ND	ND	ND	ND	0.9	47.1	23.8	69.8	0	0
31848	2013-09-15T23:00:00	38	ND	ND	ND	ND	ND	0.9	46.4	23.4	71.7	0	0
31849	2013-09-16T00:00:00	33.7	ND	ND	ND	ND	ND	0.5	214.8	23.4	70.9	0	0
31850	2013-09-16T01:00:00	18.5	ND	ND	ND	ND	ND	1.1	190.5	23.4	70.8	0	0
31851	2013-09-16T02:00:00	11.1	ND	ND	ND	ND	ND	1	135.1	22.3	78.8	0	0
31852	2013-09-16T03:00:00	14.9	ND	ND	ND	ND	ND	0.6	159.9	21.3	82.7	0	0
31853	2013-09-16T04:00:00	16	ND	ND	ND	ND	ND	0.4	141.6	21.3	82.7	0	0
31854	2013-09-16T05:00:00	18.3	ND	ND	ND	ND	ND	0.3	63.4	21.3	81.8	0	0
31855	2013-09-16T06:00:00	34.3	ND	ND	ND	ND	ND	0.5	202.1	20.8	83.5	0	0
31856	2013-09-16T07:00:00	17.8	ND	ND	ND	ND	ND	1.5	211.3	21.3	74.5	52.2	0
31857	2013-09-16T08:00:00	18.5	ND	ND	ND	ND	ND	0.5	175.4	23.2	67.9	145.8	0
31858	2013-09-16T09:00:00	43.3	ND	ND	ND	ND	ND	1.2	117.1	25	63.1	411.6	0
31859	2013-09-16T10:00:00	51.5	ND	ND	ND	ND	ND	1.3	104.1	25.7	62.2	441.8	0
31860	2013-09-16T11:00:00	48.2	ND	ND	ND	ND	ND	1.4	130.7	26.4	60.1	436.1	0
31861	2013-09-16T12:00:00	36.9	ND	ND	ND	ND	ND	1.3	168	28.3	53.9	712.6	0
31862	2013-09-16T13:00:00	31.8	ND	ND	ND	ND	ND	0.8	84	30	48	933.2	0
31863	2013-09-16T14:00:00	46.9	ND	ND	ND	ND	ND	0.4	152.8	31.5	43.1	786.2	0
31864	2013-09-16T15:00:00	38	ND	ND	ND	ND	ND	2.1	215.1	31	43.4	212.3	0
31865	2013-09-16T16:00:00	41.3	ND	ND	ND	ND	ND	3.6	216.9	29.8	46.9	194.2	0
31866	2013-09-16T17:00:00	22	ND	ND	ND	ND	ND	3.6	218	29.1	48.7	148.4	0
31867	2013-09-16T18:00:00	11.7	ND	ND	ND	ND	ND	4.1	217.6	27.8	52.2	48.1	0
31868	2013-09-16T19:00:00	7.7	ND	ND	ND	ND	ND	3.9	217.7	27	55	0	0
31869	2013-09-16T20:00:00	5.6	ND	ND	ND	ND	ND	4.4	217.9	26.2	57.9	0	0
31870	2013-09-16T21:00:00	3.7	ND	ND	ND	ND	ND	1.6	221.3	26.2	56.3	0	0
31871	2013-09-16T22:00:00	2.9	ND	ND	ND	ND	ND	2.1	218.3	25.9	57.6	0	0
31872	2013-09-16T23:00:00	2.3	ND	ND	ND	ND	ND	0.9	217.6	25.6	60.6	0	0
31873	2013-09-17T00:00:00	29.2	ND	ND	ND	ND	ND	0.5	51.6	24.8	65	0	0
31874	2013-09-17T01:00:00	15.1	ND	ND	ND	ND	ND	0.4	95.5	23.9	69.3	0	0
31875	2013-09-17T02:00:00	13.6	ND	ND	ND	ND	ND	1.5	202.5	24.2	69.6	0	0
31876	2013-09-17T03:00:00	22.2	ND	ND	ND	ND	ND	0.3	166.4	23.7	72.3	0	0
31877	2013-09-17T04:00:00	14.2	ND	ND	ND	ND	ND	0.9	123.8	22.9	77.4	0	0
31878	2013-09-17T05:00:00	8.6	ND	ND	ND	ND	ND	0.6	135.8	22.6	79.2	0	0
31879	2013-09-17T06:00:00	6.6	ND	ND	ND	ND	ND	0.4	130	22.6	79.6	0	0
31880	2013-09-17T07:00:00	20.8	ND	ND	ND	ND	ND	0.7	152.2	22.6	81	56.2	0
31881	2013-09-17T08:00:00	45.2	ND	ND	ND	ND	ND	0.2	172.6	23.8	74.1	183.4	0
31882	2013-09-17T09:00:00	37	ND	ND	ND	ND	ND	1.1	135.5	24.9	69.3	233.5	0
31883	2013-09-17T10:00:00	58.5	ND	ND	ND	ND	ND	0.8	132.7	25.4	67	266.8	0
31884	2013-09-17T11:00:00	48.7	ND	ND	ND	ND	ND	0.6	83.9	27.1	59.6	577.9	0
31885	2013-09-17T12:00:00	62.8	ND	ND	ND	ND	ND	1.4	81.1	28	55.5	403.3	0
31886	2013-09-17T13:00:00	63.7	ND	ND	ND	ND	ND	0.6	140.6	28.5	53.5	441.8	0
31887	2013-09-17T14:00:00	37.7	ND	ND	ND	ND	ND	3.9	216.1	28.4	50.4	464.2	0
31888	2013-09-17T15:00:00	20.6	ND	ND	ND	ND	ND	4	217.3	27.5	52	187.5	0
31889	2013-09-17T16:00:00	11.3	ND	ND	ND	ND	ND	3.7	205	26.3	56.9	181.5	0
31890	2013-09-17T17:00:00	7.4	ND	ND	ND	ND	ND	2.4	216.4	26	57.2	73.1	0
31891	2013-09-17T18:00:00	5.4	ND	ND	ND	ND	ND	1.5	196.5	25.1	62	23.6	0
31892	2013-09-17T19:00:00	4.7	ND	ND	ND	ND	ND	1.8	163.9	21.9	83	0	1.02
31893	2013-09-17T20:00:00	5.9	ND	ND	ND	ND	ND	1.2	188.6	22.2	78.8	0	0
31894	2013-09-17T21:00:00	16.9	ND	ND	ND	ND	ND	1.2	153.2	21.8	84.3	0	0
31895	2013-09-17T22:00:00	39.9	ND	ND	ND	ND	ND	1	174.2	21.4	86.4	0	0
31896	2013-09-17T23:00:00	25.6	ND	ND	ND	ND	ND	0.6	149.5	21.4	84.5	0	0
31897	2013-09-18T00:00:00	30.6	ND	ND	ND	ND	ND	0.3	57.9	21.6	84.1	0	0
31898	2013-09-18T01:00:00	22.7	ND	ND	ND	ND	ND	0.4	174.5	21.6	82.7	0	0
31899	2013-09-18T02:00:00	19.6	ND	ND	ND	ND	ND	0.5	146.9	21.1	88.1	0	0
31900	2013-09-18T03:00:00	11.7	ND	ND	ND	ND	ND	0.3	106.9	21.4	85.4	0	0
31901	2013-09-18T04:00:00	14.5	ND	ND	ND	ND	ND	0.9	74.3	21.1	87.6	0	0
31902	2013-09-18T05:00:00	16.4	ND	ND	ND	ND	ND	1	77.6	21	88.3	0	0
31903	2013-09-18T06:00:00	34.6	ND	ND	ND	ND	ND	1	70.7	20.9	88	0	0
31904	2013-09-18T07:00:00	24.7	ND	ND	ND	ND	ND	0.6	56.6	21.1	87.6	19.9	0
31905	2013-09-18T08:00:00	31.3	ND	ND	ND	ND	ND	0.9	46.7	21.6	84.7	123.9	0
31906	2013-09-18T09:00:00	27.4	ND	ND	ND	ND	ND	0.5	101.5	23	77.6	285	0
31907	2013-09-18T10:00:00	41.7	ND	ND	ND	ND	ND	0.6	141.3	24	71.8	305.2	0
31908	2013-09-18T11:00:00	32.7	ND	ND	ND	ND	ND	0.7	102.2	25.5	65.5	407.3	0
31909	2013-09-18T12:00:00	25.1	ND	ND	ND	ND	ND	1.1	83.7	26.6	60	545.9	0
31910	2013-09-18T13:00:00	13.7	ND	ND	ND	ND	ND	1.3	84.1	27.6	55.8	563.5	0
31911	2013-09-18T14:00:00	13.6	ND	ND	ND	ND	ND	0.8	93.6	29.3	49.4	717.3	0
31912	2013-09-18T15:00:00	7.5	ND	ND	ND	ND	ND	1.6	79.5	29.1	49.2	386.8	0
31913	2013-09-18T16:00:00	28.9	ND	ND	ND	ND	ND	1.7	217.6	29.5	48	371.9	0
31914	2013-09-18T17:00:00	16.3	ND	ND	ND	ND	ND	2.9	216.6	27.8	52.1	88	0
31915	2013-09-18T18:00:00	12.8	ND	ND	ND	ND	ND	2.9	218.1	26.7	54.7	25.5	0
31916	2013-09-18T19:00:00	8.4	ND	ND	ND	ND	ND	3.4	216.8	25.9	57.6	0	0
31917	2013-09-18T20:00:00	5.4	ND	ND	ND	ND	ND	2.9	217.5	25.6	58.2	0	0
31918	2013-09-18T21:00:00	5.2	ND	ND	ND	ND	ND	0.2	179.8	25.7	58.1	0	0
31919	2013-09-18T22:00:00	17.7	ND	ND	ND	ND	ND	0.4	108.1	25.1	62.3	0	0
31920	2013-09-18T23:00:00	29.7	ND	ND	ND	ND	ND	1.5	200.5	24.7	64.4	0	0
31921	2013-09-19T00:00:00	34	ND	ND	ND	ND	ND	1.7	209.6	23.9	72.4	0	0
31922	2013-09-19T01:00:00	22.7	ND	ND	ND	ND	ND	1	162.1	23.3	75.2	0	0
31923	2013-09-19T02:00:00	46.2	ND	ND	ND	ND	ND	0.6	94.1	22.9	75	0	0
31924	2013-09-19T03:00:00	ND	ND	ND	ND	ND	ND	0.4	54.1	22.8	75.2	0	0
31925	2013-09-19T04:00:00	ND	ND	ND	ND	ND	ND	0.6	66.8	22.7	76.9	0	0
31926	2013-09-19T05:00:00	ND	ND	ND	ND	ND	ND	0.5	79.5	22.5	77.6	0	0
31927	2013-09-19T06:00:00	ND	ND	ND	ND	ND	ND	0.8	148.8	22.3	80	0	0
31928	2013-09-19T07:00:00	ND	ND	ND	ND	ND	ND	1	165.5	22.2	81.7	19.8	0
31929	2013-09-19T08:00:00	102.9	ND	ND	ND	ND	ND	0.5	170.2	23	78.4	111.4	0
31930	2013-09-19T09:00:00	62	ND	ND	ND	ND	ND	0.9	114.1	24.4	70	342.8	0
31931	2013-09-19T10:00:00	57.2	ND	ND	ND	ND	ND	1.3	120.8	26.1	62.8	499.8	0
31932	2013-09-19T11:00:00	54.4	ND	ND	ND	ND	ND	1.8	133	26.3	62.5	456.3	0
31933	2013-09-19T12:00:00	41.7	ND	ND	ND	ND	ND	1.2	105.3	27.7	56.8	456.3	0
31934	2013-09-19T13:00:00	28.3	ND	ND	ND	ND	ND	1.6	92.8	27.6	57.1	274.2	0
31935	2013-09-19T14:00:00	34.4	ND	ND	ND	ND	ND	0.7	144.8	28	55.7	378.9	0
31936	2013-09-19T15:00:00	21.7	ND	ND	ND	ND	ND	0.3	105	28.6	53.6	369.9	0
31937	2013-09-19T16:00:00	30.8	ND	ND	ND	ND	ND	0.4	210.7	28.9	51.4	206.5	0
31938	2013-09-19T17:00:00	16.1	ND	ND	ND	ND	ND	3.4	216.5	27.6	51.9	90.9	0
31939	2013-09-19T18:00:00	9	ND	ND	ND	ND	ND	3.9	216.8	26.2	55.6	13.7	0
31940	2013-09-19T19:00:00	6	ND	ND	ND	ND	ND	4	216.8	25.5	57.3	0	0
31941	2013-09-19T20:00:00	4.8	ND	ND	ND	ND	ND	3.5	217	25.4	57.7	0	0
31942	2013-09-19T21:00:00	3.2	ND	ND	ND	ND	ND	2.8	217.5	24.9	60.2	0	0
31943	2013-09-19T22:00:00	3.2	ND	ND	ND	ND	ND	1.5	224	24.7	61.1	0	0
31944	2013-09-19T23:00:00	21.2	ND	ND	ND	ND	ND	0.8	66.6	23.7	68.4	0	0
31945	2013-09-20T00:00:00	34.5	ND	ND	ND	ND	ND	0.7	160.6	23.9	65.8	0	0
31946	2013-09-20T01:00:00	17.7	ND	ND	ND	ND	ND	0.3	143.6	23	71.7	0	0
31947	2013-09-20T02:00:00	25.5	ND	ND	ND	ND	ND	0.9	157.6	22.8	73.7	0	0
31948	2013-09-20T03:00:00	16.2	ND	ND	ND	ND	ND	0.8	174.7	22.6	74.7	0	0
31949	2013-09-20T04:00:00	38.3	ND	ND	ND	ND	ND	0.6	165.3	22.4	76.8	0	0
31950	2013-09-20T05:00:00	33.4	ND	ND	ND	ND	ND	1	174	22.1	77.4	0	0
31951	2013-09-20T06:00:00	25.6	ND	ND	ND	ND	ND	0.9	145.1	21.6	80.6	0	0
31952	2013-09-20T07:00:00	18.5	ND	ND	ND	ND	ND	0.9	167.5	21.7	80.3	42.4	0
31953	2013-09-20T08:00:00	64.2	ND	ND	ND	ND	ND	1	90.7	22.5	76.4	181.1	0
31954	2013-09-20T09:00:00	54.4	ND	ND	ND	ND	ND	0.6	147.2	24.4	67.6	458.6	0
31955	2013-09-20T10:00:00	42.7	ND	ND	ND	ND	ND	1	152.1	25.7	60.8	476.1	0
31956	2013-09-20T11:00:00	49.1	ND	ND	ND	ND	ND	1.4	173.9	27.3	55.5	745.7	0
31957	2013-09-20T12:00:00	47.9	ND	ND	ND	ND	ND	0.8	117.6	28.7	50.4	843.9	0
31958	2013-09-20T13:00:00	24.5	ND	ND	ND	ND	ND	0.9	109.4	30.4	43.9	835.7	0
31959	2013-09-20T14:00:00	47.3	ND	ND	ND	ND	ND	1.7	163.4	32.6	32.9	1041	0
31960	2013-09-20T15:00:00	40.5	ND	ND	ND	ND	ND	0.9	99.7	32.1	35.9	362.3	0
31961	2013-09-20T16:00:00	67.1	ND	ND	ND	ND	ND	0.9	167.9	31.1	41.4	285.5	0
31962	2013-09-20T17:00:00	46.3	ND	ND	ND	ND	ND	3.7	216.8	30.1	45.4	300.1	0
31963	2013-09-20T18:00:00	40.9	ND	ND	ND	ND	ND	3.6	216.8	28.1	51	35.7	0
31964	2013-09-20T19:00:00	35.4	ND	ND	ND	ND	ND	4	216.3	27.1	54.4	0	0
31965	2013-09-20T20:00:00	43.9	ND	ND	ND	ND	ND	3.2	217.6	26.9	54.4	0	0
31966	2013-09-20T21:00:00	24.1	ND	ND	ND	ND	ND	2.1	220.3	26.4	56	0	0
31967	2013-09-20T22:00:00	24.3	ND	ND	ND	ND	ND	0.8	89.9	25.3	63	0	0
31968	2013-09-20T23:00:00	16.5	ND	ND	ND	ND	ND	0.8	117.6	24.4	67.5	0	0
31969	2013-09-21T00:00:00	43.5	ND	ND	ND	ND	ND	1.3	179.4	23.8	71.2	0	0
31970	2013-09-21T01:00:00	23.5	ND	ND	ND	ND	ND	1.6	182.9	23.5	71.6	0	0
31971	2013-09-21T02:00:00	41.8	ND	ND	ND	ND	ND	1.1	164.7	22.6	75.5	0	0
31972	2013-09-21T03:00:00	32.8	ND	ND	ND	ND	ND	0.9	148.7	22.3	76.7	0	0
31973	2013-09-21T04:00:00	34	ND	ND	ND	ND	ND	0.8	116.6	21.6	77.7	0	0
31974	2013-09-21T05:00:00	18.5	ND	ND	ND	ND	ND	0.4	76.6	21.2	77.8	0	0
31975	2013-09-21T06:00:00	26.2	ND	ND	ND	ND	ND	0.2	170.2	21	77.2	0	0
31976	2013-09-21T07:00:00	21.4	ND	ND	ND	ND	ND	1	155.4	20.9	73.9	60.5	0
31977	2013-09-21T08:00:00	43.4	ND	ND	ND	ND	ND	0.6	114.5	22.6	67.4	254.7	0
31978	2013-09-21T09:00:00	37.7	ND	ND	ND	ND	ND	0.8	140	24.4	59.5	467.8	0
31979	2013-09-21T10:00:00	46.8	ND	ND	ND	ND	ND	0.9	129.4	26.3	53.4	668.5	0
31980	2013-09-21T11:00:00	24.4	ND	ND	ND	ND	ND	0.9	128.1	27.8	48.9	825.5	0
31981	2013-09-21T12:00:00	29.2	ND	ND	ND	ND	ND	0.9	85.1	29.2	44.6	907.7	0
31982	2013-09-21T13:00:00	16.5	ND	ND	ND	ND	ND	1.2	87	30.9	37.6	917.6	0
31983	2013-09-21T14:00:00	20.3	ND	ND	ND	ND	ND	1	84.6	31.9	35	857.6	0
31984	2013-09-21T15:00:00	11.8	ND	ND	ND	ND	ND	0.3	127.6	32.7	36	601.2	0
31985	2013-09-21T16:00:00	34.8	ND	ND	ND	ND	ND	5.4	216.8	30.8	45.6	528.9	0
31986	2013-09-21T17:00:00	18.3	ND	ND	ND	ND	ND	5.6	216.1	29.4	48.2	281.4	0
31987	2013-09-21T18:00:00	34.3	ND	ND	ND	ND	ND	5.6	215.8	27.8	52.7	41.8	0
31988	2013-09-21T19:00:00	18.7	ND	ND	ND	ND	ND	5.1	216.7	27.1	54.5	0	0
31989	2013-09-21T20:00:00	21	ND	ND	ND	ND	ND	2.9	219.7	26.7	55	0	0
31990	2013-09-21T21:00:00	11.8	ND	ND	ND	ND	ND	3.2	217.5	26.1	58.1	0	0
31991	2013-09-21T22:00:00	6.4	ND	ND	ND	ND	ND	2.4	217.3	25.7	59.6	0	0
31992	2013-09-21T23:00:00	3.9	ND	ND	ND	ND	ND	0.2	181.2	25.1	62.7	0	0
31993	2013-09-22T00:00:00	4.8	ND	ND	ND	ND	ND	1.6	184.3	24.5	66.3	0	0
31994	2013-09-22T01:00:00	3.4	ND	ND	ND	ND	ND	1.5	183.2	23.6	73.2	0	0
31995	2013-09-22T02:00:00	12.5	ND	ND	ND	ND	ND	1.1	178	23.6	72.8	0	0
31996	2013-09-22T03:00:00	16.2	ND	ND	ND	ND	ND	0.8	180.6	23.3	71.4	0	0
31997	2013-09-22T04:00:00	26	ND	ND	ND	ND	ND	1	153	22.8	73.7	0	0
31998	2013-09-22T05:00:00	14.2	ND	ND	ND	ND	ND	0.6	190.7	22.4	75.8	0	0
31999	2013-09-22T06:00:00	ND	ND	ND	ND	ND	ND	ND	ND	ND	ND	ND	ND
32000	2013-09-22T07:00:00	ND	ND	ND	ND	ND	ND	ND	ND	ND	ND	ND	ND
32001	2013-09-22T08:00:00	ND	ND	ND	ND	ND	ND	ND	ND	ND	ND	ND	ND
32002	2013-09-22T09:00:00	ND	ND	ND	ND	ND	ND	ND	ND	ND	ND	ND	ND
32003	2013-09-22T10:00:00	ND	ND	ND	ND	ND	ND	ND	ND	ND	ND	ND	ND
32004	2013-09-22T11:00:00	ND	ND	ND	ND	ND	ND	ND	ND	ND	ND	ND	ND
32005	2013-09-22T12:00:00	ND	ND	ND	ND	ND	ND	ND	ND	ND	ND	ND	ND
32006	2013-09-22T13:00:00	ND	ND	ND	ND	ND	ND	ND	ND	ND	ND	ND	ND
32007	2013-09-22T14:00:00	ND	ND	ND	ND	ND	ND	ND	ND	ND	ND	ND	ND
32008	2013-09-22T15:00:00	ND	ND	ND	ND	ND	ND	ND	ND	ND	ND	ND	ND
32009	2013-09-22T16:00:00	ND	ND	ND	ND	ND	ND	ND	ND	ND	ND	ND	ND
32010	2013-09-22T17:00:00	ND	ND	ND	ND	ND	ND	ND	ND	ND	ND	ND	ND
32011	2013-09-22T18:00:00	ND	ND	ND	ND	ND	ND	ND	ND	ND	ND	ND	ND
32012	2013-09-22T19:00:00	ND	ND	ND	ND	ND	ND	ND	ND	ND	ND	ND	ND
32013	2013-09-22T20:00:00	ND	ND	ND	ND	ND	ND	ND	ND	ND	ND	ND	ND
32014	2013-09-22T21:00:00	ND	ND	ND	ND	ND	ND	ND	ND	ND	ND	ND	ND
32015	2013-09-22T22:00:00	ND	ND	ND	ND	ND	ND	ND	ND	ND	ND	ND	ND
32016	2013-09-22T23:00:00	ND	ND	ND	ND	ND	ND	ND	ND	ND	ND	ND	ND
32017	2013-09-23T00:00:00	ND	ND	ND	ND	ND	ND	ND	ND	ND	ND	ND	ND
32018	2013-09-23T01:00:00	ND	ND	ND	ND	ND	ND	ND	ND	ND	ND	ND	ND
32019	2013-09-23T02:00:00	ND	ND	ND	ND	ND	ND	ND	ND	ND	ND	ND	ND
32020	2013-09-23T03:00:00	ND	ND	ND	ND	ND	ND	ND	ND	ND	ND	ND	ND
32021	2013-09-23T04:00:00	ND	ND	ND	ND	ND	ND	ND	ND	ND	ND	ND	ND
32022	2013-09-23T05:00:00	ND	ND	ND	ND	ND	ND	ND	ND	ND	ND	ND	ND
32023	2013-09-23T06:00:00	ND	ND	ND	ND	ND	ND	ND	ND	ND	ND	ND	ND
32024	2013-09-23T07:00:00	ND	ND	ND	ND	ND	ND	ND	ND	ND	ND	ND	ND
32025	2013-09-23T08:00:00	ND	ND	ND	ND	ND	ND	ND	ND	ND	ND	ND	ND
32026	2013-09-23T09:00:00	ND	ND	ND	ND	ND	ND	ND	ND	ND	ND	ND	ND
32027	2013-09-23T10:00:00	ND	ND	ND	ND	ND	ND	ND	ND	ND	ND	ND	ND
32028	2013-09-23T11:00:00	ND	ND	ND	ND	ND	ND	ND	ND	ND	ND	ND	ND
32029	2013-09-23T12:00:00	ND	ND	ND	ND	ND	ND	ND	ND	ND	ND	ND	ND
32030	2013-09-23T13:00:00	ND	ND	ND	ND	ND	ND	ND	ND	ND	ND	ND	ND
32031	2013-09-23T14:00:00	ND	ND	ND	ND	ND	ND	ND	ND	ND	ND	ND	ND
32032	2013-09-23T15:00:00	ND	ND	ND	ND	ND	ND	ND	ND	ND	ND	ND	ND
32033	2013-09-23T16:00:00	ND	ND	ND	ND	ND	ND	ND	ND	ND	ND	ND	ND
32034	2013-09-23T17:00:00	ND	ND	ND	ND	ND	ND	ND	ND	ND	ND	ND	ND
32035	2013-09-23T18:00:00	ND	ND	ND	ND	ND	ND	ND	ND	ND	ND	ND	ND
32036	2013-09-23T19:00:00	ND	ND	ND	ND	ND	ND	ND	ND	ND	ND	ND	ND
32037	2013-09-23T20:00:00	ND	ND	ND	ND	ND	ND	ND	ND	ND	ND	ND	ND
32038	2013-09-23T21:00:00	ND	ND	ND	ND	ND	ND	ND	ND	ND	ND	ND	ND
32039	2013-09-23T22:00:00	ND	ND	ND	ND	ND	ND	ND	ND	ND	ND	ND	ND
32040	2013-09-23T23:00:00	ND	ND	ND	ND	ND	ND	ND	ND	ND	ND	ND	ND
32041	2013-09-24T00:00:00	ND	ND	ND	ND	ND	ND	ND	ND	ND	ND	ND	ND
32042	2013-09-24T01:00:00	ND	ND	ND	ND	ND	ND	ND	ND	ND	ND	ND	ND
32043	2013-09-24T02:00:00	ND	ND	ND	ND	ND	ND	ND	ND	ND	ND	ND	ND
32044	2013-09-24T03:00:00	ND	ND	ND	ND	ND	ND	ND	ND	ND	ND	ND	ND
32045	2013-09-24T04:00:00	ND	ND	ND	ND	ND	ND	ND	ND	ND	ND	ND	ND
32046	2013-09-24T05:00:00	ND	ND	ND	ND	ND	ND	ND	ND	ND	ND	ND	ND
32047	2013-09-24T06:00:00	ND	ND	ND	ND	ND	ND	ND	ND	ND	ND	ND	ND
32048	2013-09-24T07:00:00	ND	ND	ND	ND	ND	ND	ND	ND	ND	ND	ND	ND
32049	2013-09-24T08:00:00	ND	ND	ND	ND	ND	ND	ND	ND	ND	ND	ND	ND
32050	2013-09-24T09:00:00	ND	ND	ND	ND	ND	ND	ND	ND	ND	ND	ND	ND
32051	2013-09-24T10:00:00	ND	ND	ND	ND	ND	ND	ND	ND	ND	ND	ND	ND
32052	2013-09-24T11:00:00	ND	ND	ND	ND	ND	ND	ND	ND	ND	ND	ND	ND
32053	2013-09-24T12:00:00	ND	ND	ND	ND	ND	ND	ND	ND	ND	ND	ND	ND
32054	2013-09-24T13:00:00	ND	ND	ND	ND	ND	ND	ND	ND	ND	ND	ND	ND
32055	2013-09-24T14:00:00	ND	ND	ND	ND	ND	ND	ND	ND	ND	ND	ND	ND
32056	2013-09-24T15:00:00	ND	ND	ND	ND	ND	ND	ND	ND	ND	ND	ND	ND
32057	2013-09-24T16:00:00	ND	ND	ND	ND	ND	ND	ND	ND	ND	ND	ND	ND
32058	2013-09-24T17:00:00	ND	ND	ND	ND	ND	ND	ND	ND	ND	ND	ND	ND
32059	2013-09-24T18:00:00	ND	ND	ND	ND	ND	ND	ND	ND	ND	ND	ND	ND
32060	2013-09-24T19:00:00	ND	ND	ND	ND	ND	ND	ND	ND	ND	ND	ND	ND
32061	2013-09-24T20:00:00	ND	ND	ND	ND	ND	ND	ND	ND	ND	ND	ND	ND
32062	2013-09-24T21:00:00	ND	ND	ND	ND	ND	ND	ND	ND	ND	ND	ND	ND
32063	2013-09-24T22:00:00	ND	ND	ND	ND	ND	ND	ND	ND	ND	ND	ND	ND
32064	2013-09-24T23:00:00	ND	ND	ND	ND	ND	ND	ND	ND	ND	ND	ND	ND
32065	2013-09-25T00:00:00	ND	ND	ND	ND	ND	ND	ND	ND	ND	ND	ND	ND
32066	2013-09-25T01:00:00	ND	ND	ND	ND	ND	ND	ND	ND	ND	ND	ND	ND
32067	2013-09-25T02:00:00	ND	ND	ND	ND	ND	ND	ND	ND	ND	ND	ND	ND
32068	2013-09-25T03:00:00	ND	ND	ND	ND	ND	ND	ND	ND	ND	ND	ND	ND
32069	2013-09-25T04:00:00	ND	ND	ND	ND	ND	ND	ND	ND	ND	ND	ND	ND
32070	2013-09-25T05:00:00	ND	ND	ND	ND	ND	ND	ND	ND	ND	ND	ND	ND
32071	2013-09-25T06:00:00	ND	ND	ND	ND	ND	ND	ND	ND	ND	ND	ND	ND
32072	2013-09-25T07:00:00	ND	ND	ND	ND	ND	ND	ND	ND	ND	ND	ND	ND
32073	2013-09-25T08:00:00	ND	ND	ND	ND	ND	ND	ND	ND	ND	ND	ND	ND
32074	2013-09-25T09:00:00	ND	ND	ND	ND	ND	ND	ND	ND	ND	ND	ND	ND
32075	2013-09-25T10:00:00	ND	ND	ND	ND	ND	ND	ND	ND	ND	ND	ND	ND
32076	2013-09-25T11:00:00	ND	ND	ND	ND	ND	ND	ND	ND	ND	ND	ND	ND
32077	2013-09-25T12:00:00	34.5	ND	ND	ND	ND	ND	ND	ND	ND	ND	ND	ND
32078	2013-09-25T13:00:00	21.3	ND	ND	ND	ND	ND	0.9	141.1	32.5	37.7	925.7	0
32079	2013-09-25T14:00:00	43.6	ND	ND	ND	ND	ND	1.2	149	33.4	33.2	870.3	0
32080	2013-09-25T15:00:00	23.3	ND	ND	ND	ND	ND	4.3	217.6	32.5	39.5	653.6	0
32081	2013-09-25T16:00:00	18.8	ND	ND	ND	ND	ND	5.5	217	31.2	43.2	580.6	0
32082	2013-09-25T17:00:00	10.8	ND	ND	ND	ND	ND	6.3	216.5	29.6	47	347.7	0
32083	2013-09-25T18:00:00	14.1	ND	ND	ND	ND	ND	4.9	218	27.7	51.6	65.2	0
32084	2013-09-25T19:00:00	8.8	ND	ND	ND	ND	ND	3.4	221	27	53.2	0	0
32085	2013-09-25T20:00:00	23.5	ND	ND	ND	ND	ND	1.5	229.8	27	53.1	0	0
32086	2013-09-25T21:00:00	13.7	ND	ND	ND	ND	ND	3.3	216.4	25.3	63.5	0	0
32087	2013-09-25T22:00:00	23.3	ND	ND	ND	ND	ND	2.7	212.5	24.7	64.4	0	0
32088	2013-09-25T23:00:00	13.5	ND	ND	ND	ND	ND	2	198.4	25.1	66.4	0	0
32089	2013-09-26T00:00:00	11	ND	ND	ND	ND	ND	1.4	199.4	24.5	68.4	0	0
32090	2013-09-26T01:00:00	6.4	ND	ND	ND	ND	ND	1.5	202.9	24.1	68.5	0	0
32091	2013-09-26T02:00:00	9.5	ND	ND	ND	ND	ND	0.1	245.8	23.6	70.9	0	0
32092	2013-09-26T03:00:00	16	ND	ND	ND	ND	ND	0.5	142.8	23.4	72.4	0	0
32093	2013-09-26T04:00:00	38.5	ND	ND	ND	ND	ND	1.2	153.6	22.2	79	0	0
32094	2013-09-26T05:00:00	24.5	ND	ND	ND	ND	ND	1.1	183.1	22.2	78.1	0	0
32095	2013-09-26T06:00:00	28.2	ND	ND	ND	ND	ND	0.9	169.6	22.4	74.9	0	0
32096	2013-09-26T07:00:00	21.7	ND	ND	ND	ND	ND	0.9	158.7	22.5	75.1	45.8	0
32097	2013-09-26T08:00:00	47.6	ND	ND	ND	ND	ND	0.7	185.1	23.5	69.2	219.6	0
32098	2013-09-26T09:00:00	28.2	ND	ND	ND	ND	ND	1	192.1	25.3	62.1	446.3	0
32099	2013-09-26T10:00:00	42.6	ND	ND	ND	ND	ND	1.5	119.8	27.1	56.4	623.1	0
32100	2013-09-26T11:00:00	23	ND	ND	ND	ND	ND	0.6	75.1	28.8	50.6	760.4	0
32101	2013-09-26T12:00:00	33.8	ND	ND	ND	ND	ND	1	111.8	30.2	45.3	832.9	0
32102	2013-09-26T13:00:00	34.2	ND	ND	ND	ND	ND	1.5	136.4	31.3	40.9	904.2	0
32103	2013-09-26T14:00:00	17.7	ND	ND	ND	ND	ND	1.1	150.1	32.1	35.7	764.2	0
32104	2013-09-26T15:00:00	11	ND	ND	ND	ND	ND	1	140.5	33.4	32.4	671.7	0
32105	2013-09-26T16:00:00	16.5	ND	ND	ND	ND	ND	4.5	216.5	31.5	42.5	545.1	0
32106	2013-09-26T17:00:00	70.5	ND	ND	ND	ND	ND	5.8	216.5	29.2	48.3	318.6	0
32107	2013-09-26T18:00:00	35.2	ND	ND	ND	ND	ND	6.5	217	27.7	52.2	131.7	0
32108	2013-09-26T19:00:00	18.2	ND	ND	ND	ND	ND	5.3	216.9	26.7	55.4	0	0
32109	2013-09-26T20:00:00	26.4	ND	ND	ND	ND	ND	3.1	219.2	26.5	56.1	0	0
32110	2013-09-26T21:00:00	14	ND	ND	ND	ND	ND	2.2	219.9	26.4	56.2	0	0
32111	2013-09-26T22:00:00	9.7	ND	ND	ND	ND	ND	1	205.2	26.3	56.7	0	0
32112	2013-09-26T23:00:00	6.7	ND	ND	ND	ND	ND	2.8	212.5	25.7	59	0	0
32113	2013-09-27T00:00:00	4.4	ND	ND	ND	ND	ND	2.3	190.8	24.9	65.6	0	0
32114	2013-09-27T01:00:00	3.9	ND	ND	ND	ND	ND	1.7	177.7	24.4	67.5	0	0
32115	2013-09-27T02:00:00	24.4	ND	ND	ND	ND	ND	1.7	136	23.5	72.4	0	0
32116	2013-09-27T03:00:00	21.5	ND	ND	ND	ND	ND	0.9	179.7	23.5	72	0	0
32117	2013-09-27T04:00:00	29.4	ND	ND	ND	ND	ND	1.2	195.5	23.2	76	0	0
32118	2013-09-27T05:00:00	15.5	ND	ND	ND	ND	ND	1.2	136.6	22.5	80	0	0
32119	2013-09-27T06:00:00	35	ND	ND	ND	ND	ND	0.8	169.9	22.6	79.2	0	0
32120	2013-09-27T07:00:00	25.5	ND	ND	ND	ND	ND	0.7	156.7	22.9	77.9	19.9	0
32121	2013-09-27T08:00:00	52.9	ND	ND	ND	ND	ND	1	151.5	23.4	76.8	108.1	0
32122	2013-09-27T09:00:00	60.7	ND	ND	ND	ND	ND	1.4	146.2	24.5	71.6	284.3	0
32123	2013-09-27T10:00:00	32	ND	ND	ND	ND	ND	0.9	196.7	26.4	62.8	516.3	0
32124	2013-09-27T11:00:00	30.8	ND	ND	ND	ND	ND	1.2	89.1	27.9	56.3	652.9	0
32125	2013-09-27T12:00:00	42.4	ND	ND	ND	ND	ND	1.1	101	29.6	49.2	779.1	0
32126	2013-09-27T13:00:00	26.6	ND	ND	ND	ND	ND	0.6	69.3	30	47.4	351.7	0
32127	2013-09-27T14:00:00	39.1	ND	ND	ND	ND	ND	0.5	201.6	31.3	44.1	650.5	0
32128	2013-09-27T15:00:00	20.6	ND	ND	ND	ND	ND	4.8	217.5	30.6	45.1	481.1	0
32129	2013-09-27T16:00:00	19.9	ND	ND	ND	ND	ND	6	218.1	28.6	48.7	390.6	0
32130	2013-09-27T17:00:00	11.6	ND	ND	ND	ND	ND	5.2	218.3	27.7	50.5	172.4	0
32131	2013-09-27T18:00:00	37	ND	ND	ND	ND	ND	4.3	207	23.4	71.4	0	15.75
32132	2013-09-27T19:00:00	25.2	ND	ND	ND	ND	ND	1.5	216.6	22.3	77.1	0	4.32
32133	2013-09-27T20:00:00	30.3	ND	ND	ND	ND	ND	0.3	78.7	21.7	84.2	0	0.25
32134	2013-09-27T21:00:00	16.1	ND	ND	ND	ND	ND	0.1	49.8	22.1	84.4	0	0
32135	2013-09-27T22:00:00	33.6	ND	ND	ND	ND	ND	0.5	92	22.3	81.9	0	0
32136	2013-09-27T23:00:00	24.3	ND	ND	ND	ND	ND	0.7	137.5	21.9	83.4	0	0
32137	2013-09-28T00:00:00	34.2	ND	ND	ND	ND	ND	1.3	155.7	21.5	85.2	0	0
32138	2013-09-28T01:00:00	29.9	ND	ND	ND	ND	ND	0.5	168.4	21.5	84.8	0	0.25
32139	2013-09-28T02:00:00	17.1	ND	ND	ND	ND	ND	0.8	118	21.4	84.8	0	0
32140	2013-09-28T03:00:00	9.5	ND	ND	ND	ND	ND	1	113.8	20.9	88	0	0
32141	2013-09-28T04:00:00	10.7	ND	ND	ND	ND	ND	0.4	25.2	21	87.5	0	0
32142	2013-09-28T05:00:00	12.6	ND	ND	ND	ND	ND	0.2	192.7	21.3	85.3	0	0
32143	2013-09-28T06:00:00	12.5	ND	ND	ND	ND	ND	0.7	58.3	21.1	87	0	0
32144	2013-09-28T07:00:00	9.6	ND	ND	ND	ND	ND	1.3	50.5	21.2	86.6	33.4	0
32145	2013-09-28T08:00:00	40.3	ND	ND	ND	ND	ND	0.5	248.6	22	80.8	187.9	0
32146	2013-09-28T09:00:00	20.7	ND	ND	ND	ND	ND	0.6	150.8	23.8	72.1	333.7	0
32147	2013-09-28T10:00:00	62.3	ND	ND	ND	ND	ND	1.5	166	24.7	68	410.1	0
32148	2013-09-28T11:00:00	34.9	ND	ND	ND	ND	ND	1.2	165.9	25.9	61.5	510.3	0
32149	2013-09-28T12:00:00	53.7	ND	ND	ND	ND	ND	1.2	143.2	26.9	57.9	727.3	0
32150	2013-09-28T13:00:00	27.7	ND	ND	ND	ND	ND	1	162.5	28.6	51.2	812.9	0
32151	2013-09-28T14:00:00	30.5	ND	ND	ND	ND	ND	0.8	103.8	29.9	45.6	622.3	0
32152	2013-09-28T15:00:00	15.8	ND	ND	ND	ND	ND	0.3	21	30.5	42.9	492.3	0
32153	2013-09-28T16:00:00	30.5	ND	ND	ND	ND	ND	1.3	32.4	30.3	44.1	322.2	0
32154	2013-09-28T17:00:00	16	ND	ND	ND	ND	ND	2.2	219.8	28.9	48.2	174	0
32155	2013-09-28T18:00:00	8.5	ND	ND	ND	ND	ND	3.5	217.1	26.9	53.2	33.1	0
32156	2013-09-28T19:00:00	5.9	ND	ND	ND	ND	ND	2.7	217.3	26.2	54.1	0	0
32157	2013-09-28T20:00:00	6.6	ND	ND	ND	ND	ND	3.1	217.9	25.6	57.7	0	0
32158	2013-09-28T21:00:00	4.4	ND	ND	ND	ND	ND	2.3	214	25.3	60.1	0	0
32159	2013-09-28T22:00:00	5.6	ND	ND	ND	ND	ND	1	204.4	24.7	62.7	0	0
32160	2013-09-28T23:00:00	3.7	ND	ND	ND	ND	ND	1.8	219.9	24.6	61.4	0	0
32161	2013-09-29T00:00:00	3.3	ND	ND	ND	ND	ND	0.6	53.8	23.8	68.1	0	0
32162	2013-09-29T01:00:00	2.7	ND	ND	ND	ND	ND	0.6	120.5	22.2	80.5	0	2.79
32163	2013-09-29T02:00:00	2.6	ND	ND	ND	ND	ND	0.4	167	21.7	85.3	0	0.25
32164	2013-09-29T03:00:00	3.2	ND	ND	ND	ND	ND	0.6	161.8	21.9	85.7	0	0
32165	2013-09-29T04:00:00	14	ND	ND	ND	ND	ND	1.5	177.7	21.5	86.6	0	0
32166	2013-09-29T05:00:00	8.2	ND	ND	ND	ND	ND	1.9	183.4	21	88.1	0	0
32167	2013-09-29T06:00:00	18.5	ND	ND	ND	ND	ND	2.4	149.6	20.4	90.1	0	0
32168	2013-09-29T07:00:00	10.9	ND	ND	ND	ND	ND	1.7	157.7	20.1	91.6	0	2.29
32169	2013-09-29T08:00:00	6.6	ND	ND	ND	ND	ND	1.6	175.9	19.9	93.4	4.2	3.81
32170	2013-09-29T09:00:00	5.2	ND	ND	ND	ND	ND	1.1	149.5	19.7	94.7	10.5	7.62
32171	2013-09-29T10:00:00	4.6	ND	ND	ND	ND	ND	1.1	171	20	94.5	239.5	3.05
32172	2013-09-29T11:00:00	2.3	ND	ND	ND	ND	ND	1.4	164.1	22	80	417.1	0.25
32173	2013-09-29T12:00:00	1.1	ND	ND	ND	ND	ND	1.6	165.5	23.9	66.8	696	0
32174	2013-09-29T13:00:00	0.6	ND	ND	ND	ND	ND	1.2	183.8	25.7	59.1	901.3	0
32175	2013-09-29T14:00:00	0.3	ND	ND	ND	ND	ND	0.6	173.7	27	54	810.2	0
32176	2013-09-29T15:00:00	0.9	ND	ND	ND	ND	ND	1.4	52.9	27.8	51.4	627.8	0
32177	2013-09-29T16:00:00	2.4	ND	ND	ND	ND	ND	2	29.2	27.9	53.9	452.3	0
32178	2013-09-29T17:00:00	2.8	ND	ND	ND	ND	ND	0.1	291.9	27.5	52.7	279.6	0
32179	2013-09-29T18:00:00	11	ND	ND	ND	ND	ND	2.2	216.8	26.3	54.6	63.6	0
32180	2013-09-29T19:00:00	6.4	ND	ND	ND	ND	ND	2.2	218.1	25.4	57.2	0	0
32181	2013-09-29T20:00:00	5	ND	ND	ND	ND	ND	3.2	218	24.9	58.6	0	0
32182	2013-09-29T21:00:00	2.5	ND	ND	ND	ND	ND	2.9	217.4	24.5	60.5	0	0
32183	2013-09-29T22:00:00	1.2	ND	ND	ND	ND	ND	1.9	208.3	24	65	0	0
32184	2013-09-29T23:00:00	2.2	ND	ND	ND	ND	ND	1.7	184.2	23.2	74.7	0	0
32185	2013-09-30T00:00:00	2.3	ND	ND	ND	ND	ND	2	185.9	22.4	74.2	0	0
32186	2013-09-30T01:00:00	1.8	ND	ND	ND	ND	ND	0.6	188.9	22	74.6	0	0
32187	2013-09-30T02:00:00	1.8	ND	ND	ND	ND	ND	0.5	61.1	21.7	76.3	0	0
32188	2013-09-30T03:00:00	2.3	ND	ND	ND	ND	ND	0.1	356.6	21.6	78.9	0	0
32189	2013-09-30T04:00:00	1.8	ND	ND	ND	ND	ND	0.4	195.1	21.8	75.8	0	0
32190	2013-09-30T05:00:00	0.9	ND	ND	ND	ND	ND	0.4	154.7	21.4	78.9	0	0
32191	2013-09-30T06:00:00	5.2	ND	ND	ND	ND	ND	0.5	63.6	21.1	80.2	0	0
32192	2013-09-30T07:00:00	4.4	ND	ND	ND	ND	ND	0	165.1	21.1	81.4	36.9	0
32193	2013-09-30T08:00:00	36.5	ND	ND	ND	ND	ND	0.1	172.1	22.2	76.6	130.7	0
32194	2013-09-30T09:00:00	27.6	ND	ND	ND	ND	ND	1	93.3	23.3	72	237.3	0
32195	2013-09-30T10:00:00	19.3	ND	ND	ND	ND	ND	1.3	97.2	24.9	65.1	665.1	0
32196	2013-09-30T11:00:00	11.2	ND	ND	ND	ND	ND	1.5	118.4	26.5	58.4	883.1	0
32197	2013-09-30T12:00:00	7.7	ND	ND	ND	ND	ND	1	137.9	27.6	52.7	731.2	0
32198	2013-09-30T13:00:00	4.4	ND	ND	ND	ND	ND	0.9	111.2	28.4	49.7	806.2	0
32199	2013-09-30T14:00:00	3	ND	ND	ND	ND	ND	0.5	205.9	29.1	47	536.4	0
32200	2013-09-30T15:00:00	7.7	ND	ND	ND	ND	ND	0.8	81.1	29.9	44.9	372.3	0
32201	2013-09-30T16:00:00	11.6	ND	ND	ND	ND	ND	2.9	221	29.4	44.7	301.4	0
32202	2013-09-30T17:00:00	7.5	ND	ND	ND	ND	ND	3.8	217.6	27.6	49.4	169.4	0
32203	2013-09-30T18:00:00	23.8	ND	ND	ND	ND	ND	3.9	216.9	26.8	52.1	69.7	0
32204	2013-09-30T19:00:00	13.9	ND	ND	ND	ND	ND	4.3	216.4	25.5	55.8	0	0
32205	2013-09-30T20:00:00	18.1	ND	ND	ND	ND	ND	3.1	217	25.6	54.7	0	0
32206	2013-09-30T21:00:00	11.1	ND	ND	ND	ND	ND	0.3	119.4	24.9	59.3	0	0
32207	2013-09-30T22:00:00	33.3	ND	ND	ND	ND	ND	0.7	111.8	24.1	63.6	0	0
32208	2013-09-30T23:00:00	24.6	ND	ND	ND	ND	ND	0.5	114.7	23	68.3	0	0
32209	2013-10-01T00:00:00	48.8	ND	ND	ND	ND	ND	1	156	22.8	70.3	0	0
32210	2013-10-01T01:00:00	33.3	ND	ND	ND	ND	ND	0.9	177.1	22.4	73.1	0	0
32211	2013-10-01T02:00:00	32.4	ND	ND	ND	ND	ND	1.3	159.9	22.4	73.5	0	0
32212	2013-10-01T03:00:00	18.3	ND	ND	ND	ND	ND	0.9	113.6	21.9	74.2	0	0
32213	2013-10-01T04:00:00	30.7	ND	ND	ND	ND	ND	0.8	161.1	21.4	75.9	0	0
32214	2013-10-01T05:00:00	15.9	ND	ND	ND	ND	ND	0.6	180.1	21.2	78	0	0
32215	2013-10-01T06:00:00	33	ND	ND	ND	ND	ND	0.8	212	21.5	73	0	0
32216	2013-10-01T07:00:00	27.8	ND	ND	ND	ND	ND	0.4	163.1	21.6	73.3	23.6	0
32217	2013-10-01T08:00:00	42.5	ND	ND	ND	ND	ND	1.4	185.3	22.3	73.1	222.2	0
32218	2013-10-01T09:00:00	29.8	ND	ND	ND	ND	ND	1.7	163.7	24.5	64.4	516.4	0
32219	2013-10-01T10:00:00	45.9	ND	ND	ND	ND	ND	1.6	139.9	25.7	59.3	585.7	0
32220	2013-10-01T11:00:00	46.3	ND	ND	ND	ND	ND	1.2	95.8	26.9	53.7	598.9	0
32221	2013-10-01T12:00:00	43.5	ND	ND	ND	ND	ND	0.7	38.6	28.4	49.5	754.2	0
32222	2013-10-01T13:00:00	22.9	ND	ND	ND	ND	ND	1.8	39	29.1	45.4	750.1	0
32223	2013-10-01T14:00:00	12.1	ND	ND	ND	ND	ND	1.1	43.3	30.7	42.4	884.3	0
32224	2013-10-01T15:00:00	7.4	ND	ND	ND	ND	ND	1.3	47	31.1	41.1	694.4	0
32225	2013-10-01T16:00:00	19.7	ND	ND	ND	ND	ND	0.7	267.4	31	41.8	513.1	0
32226	2013-10-01T17:00:00	10.7	ND	ND	ND	ND	ND	3	217.2	30.1	45.5	295.8	0
32227	2013-10-01T18:00:00	5.4	ND	ND	ND	ND	ND	3.5	216.3	28	49.4	78.8	0
32228	2013-10-01T19:00:00	8.8	ND	ND	ND	ND	ND	3.2	215.3	27.1	51.7	0	0
32229	2013-10-01T20:00:00	8	ND	ND	ND	ND	ND	2.6	216.6	26.5	54.2	0	0
32230	2013-10-01T21:00:00	4.7	ND	ND	ND	ND	ND	2.5	217.4	25.9	56.8	0	0
32231	2013-10-01T22:00:00	4.3	ND	ND	ND	ND	ND	0.7	140.1	25.6	60.1	0	0
32232	2013-10-01T23:00:00	3.8	ND	ND	ND	ND	ND	0.1	160.4	24.8	63	0	0
32233	2013-10-02T00:00:00	19.5	ND	ND	ND	ND	ND	0.1	279.7	24.5	63.3	0	0
32234	2013-10-02T01:00:00	12.2	ND	ND	ND	ND	ND	0.5	67.7	23.5	69.4	0	0
32235	2013-10-02T02:00:00	21.4	ND	ND	ND	ND	ND	0.6	111.6	23.3	70.1	0	0
32236	2013-10-02T03:00:00	21.3	ND	ND	ND	ND	ND	0.7	154.1	22.9	73.7	0	0
32237	2013-10-02T04:00:00	21	ND	ND	ND	ND	ND	0.6	164.8	22.8	75	0	0
32238	2013-10-02T05:00:00	19.1	ND	ND	ND	ND	ND	0.5	136.1	22.4	76.6	0	0
32239	2013-10-02T06:00:00	49.5	ND	ND	ND	ND	ND	0.8	152.3	22.5	76.2	0	0
32240	2013-10-02T07:00:00	61.7	ND	ND	ND	ND	ND	1.1	144	22.7	74	52.7	0
32241	2013-10-02T08:00:00	50.4	ND	ND	ND	ND	ND	1.2	166.3	23.3	72.7	86.9	0.25
32242	2013-10-02T09:00:00	44.2	ND	ND	ND	ND	ND	1.4	218.6	21.4	83.9	46.5	22.61
32243	2013-10-02T10:00:00	24.1	ND	ND	ND	ND	ND	1.5	224.7	22.9	75.9	472.7	0.25
32244	2013-10-02T11:00:00	12	ND	ND	ND	ND	ND	0.8	187.3	25.7	64.2	780.3	0
32245	2013-10-02T12:00:00	9.8	ND	ND	ND	ND	ND	1	84.4	27.9	57	887.8	0
32246	2013-10-02T13:00:00	5.5	ND	ND	ND	ND	ND	1.2	84.5	29.1	51.1	911.7	0
32247	2013-10-02T14:00:00	22.2	ND	ND	ND	ND	ND	1.2	70.5	30.5	45.6	847	0
32248	2013-10-02T15:00:00	12.9	ND	ND	ND	ND	ND	0.4	148.9	31.4	43.2	634.1	0
32249	2013-10-02T16:00:00	27.1	ND	ND	ND	ND	ND	0.6	72.4	31	43.6	186.4	0
32250	2013-10-02T17:00:00	26.2	ND	ND	ND	ND	ND	2.8	214	29.4	49.6	116.6	0
32251	2013-10-02T18:00:00	32.2	ND	ND	ND	ND	ND	4.4	216.1	27.7	53.8	40.6	0
32252	2013-10-02T19:00:00	17.3	ND	ND	ND	ND	ND	2.5	217.8	27	55.1	0	0
32253	2013-10-02T20:00:00	19.7	ND	ND	ND	ND	ND	2.8	216.5	26	58.9	0	0
32254	2013-10-02T21:00:00	11.3	ND	ND	ND	ND	ND	2.2	218.8	26	58.4	0	0
32255	2013-10-02T22:00:00	9.4	ND	ND	ND	ND	ND	1.9	219	25.7	58.6	0	0
32256	2013-10-02T23:00:00	4.7	ND	ND	ND	ND	ND	3	215.2	25.1	60.6	0	0
32257	2013-10-03T00:00:00	2.3	ND	ND	ND	ND	ND	2.1	190.4	24.3	68.4	0	0
32258	2013-10-03T01:00:00	2.9	ND	ND	ND	ND	ND	1.8	191.8	23.7	72.6	0	0
32259	2013-10-03T02:00:00	34.3	ND	ND	ND	ND	ND	1.2	194.5	22.9	78.9	0	0
32260	2013-10-03T03:00:00	28.4	ND	ND	ND	ND	ND	0.5	66.4	22.7	78.8	0	0
32261	2013-10-03T04:00:00	19.8	ND	ND	ND	ND	ND	0.3	188.1	22.9	75.5	0	0
32262	2013-10-03T05:00:00	20.3	ND	ND	ND	ND	ND	1.3	188.7	22	85.6	0	6.86
32263	2013-10-03T06:00:00	13.1	ND	ND	ND	ND	ND	0.9	196	20.5	94.3	0	53.09
32264	2013-10-03T07:00:00	7.4	ND	ND	ND	ND	ND	2.1	214.5	20	97.8	9.7	4.06
32265	2013-10-03T08:00:00	5.4	ND	ND	ND	ND	ND	1.5	212.3	21	89.6	48.3	0
32266	2013-10-03T09:00:00	4.7	ND	ND	ND	ND	ND	0.6	190.5	22.3	84.9	169.8	0.25
32267	2013-10-03T10:00:00	4.4	ND	ND	ND	ND	ND	0.5	103.7	24.1	73	399.2	0
32268	2013-10-03T11:00:00	10.3	ND	ND	ND	ND	ND	0.8	98.6	26	62.4	528.4	0
32269	2013-10-03T12:00:00	5.2	ND	ND	ND	ND	ND	0.1	218.1	27.7	55.3	595.8	0
32270	2013-10-03T13:00:00	3.6	ND	ND	ND	ND	ND	0.5	37.8	27.7	55	287.9	0
32271	2013-10-03T14:00:00	5.7	ND	ND	ND	ND	ND	0.9	226	28.2	51.2	545.9	0
32272	2013-10-03T15:00:00	3.9	ND	ND	ND	ND	ND	3.3	218.7	28.6	49.3	623.2	0
32273	2013-10-03T16:00:00	3.9	ND	ND	ND	ND	ND	4.3	216.7	28.1	49.9	455.2	0
32274	2013-10-03T17:00:00	3.3	ND	ND	ND	ND	ND	3.5	217.5	27.2	52.1	214.4	0
32275	2013-10-03T18:00:00	1.8	ND	ND	ND	ND	ND	3.7	217.6	25.8	54.8	39.5	0
32276	2013-10-03T19:00:00	2.7	ND	ND	ND	ND	ND	3.9	216.5	25.4	55.5	0	0
32277	2013-10-03T20:00:00	2.7	ND	ND	ND	ND	ND	3.7	216	24.8	58.7	0	0
32278	2013-10-03T21:00:00	3.2	ND	ND	ND	ND	ND	2.6	204.4	24	65	0	0
32279	2013-10-03T22:00:00	8.8	ND	ND	ND	ND	ND	2.1	169.6	22.6	73.3	0	0
32280	2013-10-03T23:00:00	4.4	ND	ND	ND	ND	ND	0.7	187.3	22.9	71.8	0	0
32281	2013-10-04T00:00:00	3.3	ND	ND	ND	ND	ND	1.4	210.9	22.3	77.6	0	0.25
32282	2013-10-04T01:00:00	1.6	ND	ND	ND	ND	ND	0.7	191.4	22	80.9	0	0
32283	2013-10-04T02:00:00	0.8	ND	ND	ND	ND	ND	0.6	228.5	21.9	80.9	0	0
32284	2013-10-04T03:00:00	1.4	ND	ND	ND	ND	ND	0	171.1	22	80.8	0	0.25
32285	2013-10-04T04:00:00	1.3	ND	ND	ND	ND	ND	0.4	71.9	21.9	83.3	0	0
32286	2013-10-04T05:00:00	2	ND	ND	ND	ND	ND	0.2	44.8	21.7	84.2	0	0
32287	2013-10-04T06:00:00	20.6	ND	ND	ND	ND	ND	0.3	63.4	21.3	84	0	0
32288	2013-10-04T07:00:00	21.9	ND	ND	ND	ND	ND	0.2	32.1	21.5	83.2	25.1	0
32289	2013-10-04T08:00:00	46.7	ND	ND	ND	ND	ND	0.1	1	22.2	80.7	120.5	0
32290	2013-10-04T09:00:00	46.3	ND	ND	ND	ND	ND	0.7	134.1	23.6	73.9	336.1	0
32291	2013-10-04T10:00:00	54.9	ND	ND	ND	ND	ND	0.9	136.2	25.3	64.5	509.7	0
32292	2013-10-04T11:00:00	29.8	ND	ND	ND	ND	ND	0.4	157.4	26.6	59.2	687.2	0
32293	2013-10-04T12:00:00	26.9	ND	ND	ND	ND	ND	0.7	91.6	27.9	53	645.3	0
32294	2013-10-04T13:00:00	15	ND	ND	ND	ND	ND	0.6	52.5	29.6	46.2	792.1	0
32295	2013-10-04T14:00:00	11.6	ND	ND	ND	ND	ND	0.8	99.9	30.3	43.8	624.4	0
32296	2013-10-04T15:00:00	7.1	ND	ND	ND	ND	ND	0.7	88.8	30.7	42.6	530.8	0
32297	2013-10-04T16:00:00	26.9	ND	ND	ND	ND	ND	3	220.5	29.7	48.2	312.9	0
32298	2013-10-04T17:00:00	15.3	ND	ND	ND	ND	ND	4.5	217.4	27.5	54.6	188.7	0
32299	2013-10-04T18:00:00	22	ND	ND	ND	ND	ND	3.5	217.5	27.1	54	52.3	0
32300	2013-10-04T19:00:00	14.5	ND	ND	ND	ND	ND	3.3	217.8	26.2	57.2	0	0
32301	2013-10-04T20:00:00	9.1	ND	ND	ND	ND	ND	3.9	217.5	25.5	60.3	0	0
32302	2013-10-04T21:00:00	8.3	ND	ND	ND	ND	ND	2.6	218	25.8	57.5	0	0
32303	2013-10-04T22:00:00	5.4	ND	ND	ND	ND	ND	0.7	171.6	25.5	60.9	0	0
32304	2013-10-04T23:00:00	3.2	ND	ND	ND	ND	ND	2.1	212.2	24.9	62.5	0	0
32305	2013-10-05T00:00:00	2.3	ND	ND	ND	ND	ND	0.2	163.7	24.1	66.9	0	0
32306	2013-10-05T01:00:00	3.1	ND	ND	ND	ND	ND	0.5	99.1	23.6	69.2	0	0
32307	2013-10-05T02:00:00	25.9	ND	ND	ND	ND	ND	1	170.8	23.5	69.9	0	0
32308	2013-10-05T03:00:00	14.1	ND	ND	ND	ND	ND	1.1	150.1	22.6	74.1	0	0
32309	2013-10-05T04:00:00	13.6	ND	ND	ND	ND	ND	0.7	131.2	22.4	75.1	0	0
32310	2013-10-05T05:00:00	7.9	ND	ND	ND	ND	ND	0.7	141.6	22.3	77.1	0	0
32311	2013-10-05T06:00:00	22.7	ND	ND	ND	ND	ND	0.7	198.4	22	78.7	0	0
32312	2013-10-05T07:00:00	14.8	ND	ND	ND	ND	ND	1.1	213.7	21.8	77.5	24.9	0
32313	2013-10-05T08:00:00	10.5	ND	ND	ND	ND	ND	0.7	211.7	22.5	76.1	104	0
32314	2013-10-05T09:00:00	14	ND	ND	ND	ND	ND	0.7	122.7	24.5	68.7	461.9	0
32315	2013-10-05T10:00:00	36.7	ND	ND	ND	ND	ND	0.9	131.8	26.2	62.8	679.9	0
32316	2013-10-05T11:00:00	28.9	ND	ND	ND	ND	ND	1.5	151.9	28.1	56	832.8	0
32317	2013-10-05T12:00:00	27.7	ND	ND	ND	ND	ND	1.2	178.1	29.4	51.2	780.3	0
32318	2013-10-05T13:00:00	19.1	ND	ND	ND	ND	ND	0.8	169.4	31	45.8	920.9	0
32319	2013-10-05T14:00:00	28.1	ND	ND	ND	ND	ND	1.4	129.7	32	40.5	855.2	0
32320	2013-10-05T15:00:00	14.8	ND	ND	ND	ND	ND	1.9	209.7	32	40.4	458.5	0
32321	2013-10-05T16:00:00	28.9	ND	ND	ND	ND	ND	5	216.5	30.5	45.2	480.9	0
32322	2013-10-05T17:00:00	15.7	ND	ND	ND	ND	ND	4.8	216.9	28.3	49.5	95.4	0
32323	2013-10-05T18:00:00	21.2	ND	ND	ND	ND	ND	5.2	216.4	27.1	52.6	25.3	0
32324	2013-10-05T19:00:00	11.3	ND	ND	ND	ND	ND	5	216.5	26.4	55.3	0	0
32325	2013-10-05T20:00:00	7.2	ND	ND	ND	ND	ND	4	217.7	25.9	57.4	0	0
32326	2013-10-05T21:00:00	3.6	ND	ND	ND	ND	ND	3.9	217.6	25.7	58.2	0	0
32327	2013-10-05T22:00:00	1.8	ND	ND	ND	ND	ND	2.1	215.1	25.4	60.1	0	0
32328	2013-10-05T23:00:00	2.9	ND	ND	ND	ND	ND	1.6	212.4	25	61.7	0	0
32329	2013-10-06T00:00:00	17.3	ND	ND	ND	ND	ND	1.5	211.7	24.3	63.9	0	0
32330	2013-10-06T01:00:00	18.6	ND	ND	ND	ND	ND	0.8	64.2	22.8	73.6	0	0
32331	2013-10-06T02:00:00	48.5	ND	ND	ND	ND	ND	0.7	148.4	22.8	74	0	0
32332	2013-10-06T03:00:00	42.7	ND	ND	ND	ND	ND	0.9	144.5	22.5	75.7	0	0
32333	2013-10-06T04:00:00	47	ND	ND	ND	ND	ND	1.2	158.9	21.9	78.4	0	0
32334	2013-10-06T05:00:00	24.9	ND	ND	ND	ND	ND	0.7	149.5	21.9	77.9	0	0
32335	2013-10-06T06:00:00	25	ND	ND	ND	ND	ND	0.4	132.1	21.7	78.2	0	0
32336	2013-10-06T07:00:00	33	ND	ND	ND	ND	ND	0.5	173.1	21.9	77.1	40.8	0
32337	2013-10-06T08:00:00	29.4	ND	ND	ND	ND	ND	1	201.6	22.9	71.3	218.1	0
32338	2013-10-06T09:00:00	16.1	ND	ND	ND	ND	ND	1	144	25.1	63.6	482.6	0
32339	2013-10-06T10:00:00	8.6	ND	ND	ND	ND	ND	1.2	137.2	26.7	58.2	662	0
32340	2013-10-06T11:00:00	5	ND	ND	ND	ND	ND	1.3	151.6	28.1	53.3	871.3	0
32341	2013-10-06T12:00:00	3.8	ND	ND	ND	ND	ND	1.3	103.7	29.5	48.9	855.6	0
32342	2013-10-06T13:00:00	3.1	ND	ND	ND	ND	ND	0.8	197.8	31	44	836.3	0
32343	2013-10-06T14:00:00	4.6	ND	ND	ND	ND	ND	0.9	205	31.4	40	452.9	0
32344	2013-10-06T15:00:00	4	ND	ND	ND	ND	ND	3.9	216.5	31.7	38.1	603.9	0
32345	2013-10-06T16:00:00	2.7	ND	ND	ND	ND	ND	4	216.1	31.6	38.1	517.1	0
32346	2013-10-06T17:00:00	3.2	ND	ND	ND	ND	ND	4.5	216.7	30	42.8	306.2	0
32347	2013-10-06T18:00:00	1.6	ND	ND	ND	ND	ND	4.5	216.7	27.9	49.1	65.4	0
32348	2013-10-06T19:00:00	2.3	ND	ND	ND	ND	ND	4.1	217	26.9	52.6	0	0
32349	2013-10-06T20:00:00	2.6	ND	ND	ND	ND	ND	3.5	216.7	26.1	56.4	0	0
32350	2013-10-06T21:00:00	3.1	ND	ND	ND	ND	ND	2.9	217.8	25.9	57	0	0
32351	2013-10-06T22:00:00	1.5	ND	ND	ND	ND	ND	3.2	218.6	25.7	58.2	0	0
32352	2013-10-06T23:00:00	1.8	ND	ND	ND	ND	ND	1.9	216.9	25.2	61.1	0	0
32353	2013-10-07T00:00:00	1.9	ND	ND	ND	ND	ND	1.4	191.1	24.4	65	0	0
32354	2013-10-07T01:00:00	14.6	ND	ND	ND	ND	ND	1.3	159.9	23.3	71.4	0	0
32355	2013-10-07T02:00:00	8.3	ND	ND	ND	ND	ND	1.1	146	22.6	74.4	0	0
32356	2013-10-07T03:00:00	5.8	ND	ND	ND	ND	ND	0.8	169.9	22.5	75	0	0
32357	2013-10-07T04:00:00	25.3	ND	ND	ND	ND	ND	1.5	173.8	22.2	74.2	0	0
32358	2013-10-07T05:00:00	14.8	ND	ND	ND	ND	ND	1.3	185.8	21.7	76.1	0	0
32359	2013-10-07T06:00:00	41.2	ND	ND	ND	ND	ND	0.8	178.8	21.6	76.2	0	0
32360	2013-10-07T07:00:00	28.9	ND	ND	ND	ND	ND	0.6	195.1	21.8	74.5	37.4	0
32361	2013-10-07T08:00:00	39.8	ND	ND	ND	ND	ND	0.9	128.2	23.2	69.6	258.8	0
32362	2013-10-07T09:00:00	23.9	ND	ND	ND	ND	ND	1.2	141.8	24.8	62	397.6	0
32363	2013-10-07T10:00:00	56.3	ND	ND	ND	ND	ND	1.3	132.6	26	58.9	688.2	0
32364	2013-10-07T11:00:00	29.8	ND	ND	ND	ND	ND	1.2	97.1	27.6	54.2	727	0
32365	2013-10-07T12:00:00	49	ND	ND	ND	ND	ND	1.1	80	28.7	50.5	705.8	0
32366	2013-10-07T13:00:00	25.9	ND	ND	ND	ND	ND	0.1	74.1	29.9	47.3	705.7	0
32367	2013-10-07T14:00:00	30.7	ND	ND	ND	ND	ND	0.6	213.7	30.6	44	571	0
32368	2013-10-07T15:00:00	16.7	ND	ND	ND	ND	ND	1.1	207.3	30.6	42.8	372.3	0
32369	2013-10-07T16:00:00	11	ND	ND	ND	ND	ND	3.5	216.5	30.8	41.4	467.4	0
32370	2013-10-07T17:00:00	7.1	ND	ND	ND	ND	ND	3.9	216.7	29.2	46.6	150.5	0
32371	2013-10-07T18:00:00	8.5	ND	ND	ND	ND	ND	3.8	216.3	27.8	49.6	55.8	0
32372	2013-10-07T19:00:00	8.2	ND	ND	ND	ND	ND	3.4	217.1	26.9	52.7	0	0
32373	2013-10-07T20:00:00	12.9	ND	ND	ND	ND	ND	3.6	216.7	26.5	54.7	0	0
32374	2013-10-07T21:00:00	7.7	ND	ND	ND	ND	ND	2.6	219.4	26.7	52.8	0	0
32375	2013-10-07T22:00:00	5.6	ND	ND	ND	ND	ND	2.5	218.2	26.1	57.2	0	0
32376	2013-10-07T23:00:00	4	ND	ND	ND	ND	ND	2.8	214.7	25.7	59.3	0	0
32377	2013-10-08T00:00:00	3.4	ND	ND	ND	ND	ND	1.5	218.5	25.6	59.5	0	0
32378	2013-10-08T01:00:00	4.5	ND	ND	ND	ND	ND	0.7	145.2	24.6	66.2	0	0
32379	2013-10-08T02:00:00	27.5	ND	ND	ND	ND	ND	1.2	183.6	24.1	67.6	0	0
32380	2013-10-08T03:00:00	34.4	ND	ND	ND	ND	ND	0.6	101.5	23.4	73.3	0	0
32381	2013-10-08T04:00:00	47.7	ND	ND	ND	ND	ND	0.2	121.4	23	76.1	0	0
32382	2013-10-08T05:00:00	31.2	ND	ND	ND	ND	ND	0.7	123.8	23.2	72.1	0	0
32383	2013-10-08T06:00:00	46.7	ND	ND	ND	ND	ND	0.7	60.3	22.9	75.1	0	0
32384	2013-10-08T07:00:00	53	ND	ND	ND	ND	ND	0.6	121.8	22.8	76.1	34.1	0
32385	2013-10-08T08:00:00	67.6	ND	ND	ND	ND	ND	0.8	133.9	23.5	71.9	157.5	0
32386	2013-10-08T09:00:00	52.7	ND	ND	ND	ND	ND	1.1	112.1	24.7	65	284.4	0
32387	2013-10-08T10:00:00	40	ND	ND	ND	ND	ND	1	62.6	26.6	58.2	679.6	0
32388	2013-10-08T11:00:00	34.9	ND	ND	ND	ND	ND	1	61.6	28.1	53.9	643.2	0
32389	2013-10-08T12:00:00	55.9	ND	ND	ND	ND	ND	0.7	82	28.5	52.7	585.8	0
32390	2013-10-08T13:00:00	36.7	ND	ND	ND	ND	ND	1.5	80.4	30.1	47	866.8	0
32391	2013-10-08T14:00:00	43.6	ND	ND	ND	ND	ND	1.2	67.4	30.8	43.6	704.5	0
32392	2013-10-08T15:00:00	33.2	ND	ND	ND	ND	ND	1.1	88.9	30.9	42.8	372.6	0
32393	2013-10-08T16:00:00	49.4	ND	ND	ND	ND	ND	2.1	216.7	30.4	45.3	301.7	0
32394	2013-10-08T17:00:00	40.5	ND	ND	ND	ND	ND	3.4	216.5	28.9	49.9	174	0
32395	2013-10-08T18:00:00	31.5	ND	ND	ND	ND	ND	3.9	215.9	27.7	52	48.1	0
32396	2013-10-08T19:00:00	28.5	ND	ND	ND	ND	ND	3.8	215.7	26.7	54.2	0	0
32397	2013-10-08T20:00:00	21.6	ND	ND	ND	ND	ND	3.7	216.1	26.2	55.5	0	0
32398	2013-10-08T21:00:00	11.5	ND	ND	ND	ND	ND	3.4	216.4	25.5	58.7	0	0
32399	2013-10-08T22:00:00	32.3	ND	ND	ND	ND	ND	0.7	217.5	24.9	62.5	0	0
32400	2013-10-08T23:00:00	18.2	ND	ND	ND	ND	ND	1.2	214	24.9	59.9	0	0
32401	2013-10-09T00:00:00	19.5	ND	ND	ND	ND	ND	2	195.3	23.9	67.4	0	0
32402	2013-10-09T01:00:00	20.3	ND	ND	ND	ND	ND	1.3	194.4	23.3	71.4	0	0
32403	2013-10-09T02:00:00	40.8	ND	ND	ND	ND	ND	0.9	167.3	22.9	74.3	0	0
32404	2013-10-09T03:00:00	40.2	ND	ND	ND	ND	ND	0.5	87.5	22.2	76.4	0	0
32405	2013-10-09T04:00:00	50.8	ND	ND	ND	ND	ND	0.6	133.3	21.9	76	0	0
32406	2013-10-09T05:00:00	42.1	ND	ND	ND	ND	ND	0.9	159.1	22	74.4	0	0
32407	2013-10-09T06:00:00	36.9	ND	ND	ND	ND	ND	0.7	139.8	21.5	77	0	0
32408	2013-10-09T07:00:00	41.5	ND	ND	ND	ND	ND	0.9	144.2	21.6	76.9	36.1	0
32409	2013-10-09T08:00:00	55.3	ND	ND	ND	ND	ND	1.2	183	22.5	72.2	159.3	0
32410	2013-10-09T09:00:00	38	ND	ND	ND	ND	ND	0.8	167.4	24.6	63	391	0
32411	2013-10-09T10:00:00	55.9	ND	ND	ND	ND	ND	1.4	120.7	26.5	57.4	688.6	0
32412	2013-10-09T11:00:00	37	ND	ND	ND	ND	ND	1.2	127.4	27.8	52.2	730.5	0
32413	2013-10-09T12:00:00	43.8	ND	ND	ND	ND	ND	1.7	153.8	29.1	47.9	771.6	0
32414	2013-10-09T13:00:00	35.9	ND	ND	ND	ND	ND	1.4	133.5	29.7	46.3	535.4	0
32415	2013-10-09T14:00:00	62.6	ND	ND	ND	ND	ND	1.8	104.4	29.9	47.1	397.3	0
32416	2013-10-09T15:00:00	37.2	ND	ND	ND	ND	ND	1.4	201.8	30.1	46.5	534.4	0
32417	2013-10-09T16:00:00	58.2	ND	ND	ND	ND	ND	3.9	217	30.5	44.6	500	0
32418	2013-10-09T17:00:00	30.9	ND	ND	ND	ND	ND	4.4	217.3	28.9	48	233.7	0
32419	2013-10-09T18:00:00	30.5	ND	ND	ND	ND	ND	4	216.9	27.4	51.5	34.5	0
32420	2013-10-09T19:00:00	17.3	ND	ND	ND	ND	ND	4.6	215.9	26.4	55.4	0	0
32421	2013-10-09T20:00:00	21	ND	ND	ND	ND	ND	4.3	217	25.8	57.6	0	0
32422	2013-10-09T21:00:00	11.6	ND	ND	ND	ND	ND	3.8	217.5	25.7	58.4	0	0
32423	2013-10-09T22:00:00	11.9	ND	ND	ND	ND	ND	0.3	150.9	25.4	60.4	0	0
32424	2013-10-09T23:00:00	7.7	ND	ND	ND	ND	ND	1.3	217.8	25.3	60.6	0	0
32425	2013-10-10T00:00:00	5.7	ND	ND	ND	ND	ND	1.1	215.9	24.7	63.2	0	0
32426	2013-10-10T01:00:00	4.1	ND	ND	ND	ND	ND	1.3	202.7	24.3	65.5	0	0
32427	2013-10-10T02:00:00	27.4	ND	ND	ND	ND	ND	2	190.6	23.9	68.9	0	0
32428	2013-10-10T03:00:00	24.2	ND	ND	ND	ND	ND	1.4	196.9	23.3	71.8	0	0
32429	2013-10-10T04:00:00	54.2	ND	ND	ND	ND	ND	0.7	144.9	23.1	72.8	0	0
32430	2013-10-10T05:00:00	29.1	ND	ND	ND	ND	ND	0.6	148.2	23	73.4	0	0
32431	2013-10-10T06:00:00	59	ND	ND	ND	ND	ND	0.9	149.4	22.7	74.9	0	0
32432	2013-10-10T07:00:00	55	ND	ND	ND	ND	ND	0.6	85.4	22.9	75.4	44.9	0
32433	2013-10-10T08:00:00	62.5	ND	ND	ND	ND	ND	0.6	65.4	23.7	71.7	150.6	0
32434	2013-10-10T09:00:00	65.7	ND	ND	ND	ND	ND	1	134.8	24.5	68.1	286	0
32435	2013-10-10T10:00:00	75.4	ND	ND	ND	ND	ND	1	85	26.3	60.3	509.9	0
32436	2013-10-10T11:00:00	57.5	ND	ND	ND	ND	ND	1	109.1	27.3	56.8	500.4	0
32437	2013-10-10T12:00:00	64.1	ND	ND	ND	ND	ND	1.2	171.3	28.5	51.6	537.6	0
32438	2013-10-10T13:00:00	32.9	ND	ND	ND	ND	ND	3.4	218.8	27.1	52.5	143.3	0.25
32439	2013-10-10T14:00:00	22.3	ND	ND	ND	ND	ND	0.3	124.5	22.2	85.2	57.2	40.89
32440	2013-10-10T15:00:00	12.9	ND	ND	ND	ND	ND	0.5	240.9	23.8	71.5	142.8	1.52
32441	2013-10-10T16:00:00	20.8	ND	ND	ND	ND	ND	0.2	105.4	24.3	69.1	130.7	0
32442	2013-10-10T17:00:00	26.6	ND	ND	ND	ND	ND	1.6	64.4	24.2	70.9	113.4	0
32443	2013-10-10T18:00:00	42.6	ND	ND	ND	ND	ND	0.5	41.8	24.2	66.1	31.1	0
32444	2013-10-10T19:00:00	23.8	ND	ND	ND	ND	ND	2.6	209.7	23.8	69	0	0
32445	2013-10-10T20:00:00	35.5	ND	ND	ND	ND	ND	2.2	196	23	73.6	0	0
32446	2013-10-10T21:00:00	20	ND	ND	ND	ND	ND	2.4	200.1	22.3	76	0	0
32447	2013-10-10T22:00:00	22.1	ND	ND	ND	ND	ND	1	175.5	22.3	76.3	0	0
32448	2013-10-10T23:00:00	11.9	ND	ND	ND	ND	ND	0.6	130.9	22	79.7	0	0
32449	2013-10-11T00:00:00	36.7	ND	ND	ND	ND	ND	0.4	75	21.6	85.6	0	0
32450	2013-10-11T01:00:00	24	ND	ND	ND	ND	ND	0.5	63.4	21.4	86.1	0	0
32451	2013-10-11T02:00:00	21.4	ND	ND	ND	ND	ND	1.1	143.6	20.7	89	0	0
32452	2013-10-11T03:00:00	12.7	ND	ND	ND	ND	ND	0.3	143.7	20.3	90.3	0	0
32453	2013-10-11T04:00:00	18.4	ND	ND	ND	ND	ND	0.1	130.5	20.4	89.6	0	0
32454	2013-10-11T05:00:00	22.3	ND	ND	ND	ND	ND	0	173	20.8	87.9	0	0
32455	2013-10-11T06:00:00	22.8	ND	ND	ND	ND	ND	0	229.1	21.2	84.6	0	0
32456	2013-10-11T07:00:00	15	ND	ND	ND	ND	ND	0.7	76.4	21.5	81.5	51.3	0
32457	2013-10-11T08:00:00	60.5	ND	ND	ND	ND	ND	0.6	33.7	21.9	82.1	230.8	0
32458	2013-10-11T09:00:00	58.2	ND	ND	ND	ND	ND	1.2	65.7	23.6	74.4	419.5	0
32459	2013-10-11T10:00:00	64.5	ND	ND	ND	ND	ND	1.3	74.4	25.3	65.3	622.7	0
32460	2013-10-11T11:00:00	42.3	ND	ND	ND	ND	ND	1.5	98.6	26.1	60.9	679.5	0
32461	2013-10-11T12:00:00	36	ND	ND	ND	ND	ND	0.3	106.7	27.3	56.4	567.2	0
32462	2013-10-11T13:00:00	18.7	ND	ND	ND	ND	ND	0.4	77.4	28.3	52.2	550.4	0
32463	2013-10-11T14:00:00	16.6	ND	ND	ND	ND	ND	0.8	89.2	28.9	50.7	635.3	0
32464	2013-10-11T15:00:00	13.9	ND	ND	ND	ND	ND	1.2	76.7	29.4	48.9	326.1	0
32465	2013-10-11T16:00:00	18.1	ND	ND	ND	ND	ND	1.2	180.1	28.9	50	186.3	0
32466	2013-10-11T17:00:00	10.4	ND	ND	ND	ND	ND	3.1	216.5	27.9	54.4	145.4	0
32467	2013-10-11T18:00:00	17	ND	ND	ND	ND	ND	3.4	215.3	26.4	58.4	8.3	0
32468	2013-10-11T19:00:00	9.3	ND	ND	ND	ND	ND	4.2	216.8	25.8	58.9	0	0
32469	2013-10-11T20:00:00	6.4	ND	ND	ND	ND	ND	3.2	217.5	25.6	59.7	0	0
32470	2013-10-11T21:00:00	5.1	ND	ND	ND	ND	ND	1.6	220.7	25.7	58.4	0	0
32471	2013-10-11T22:00:00	4.1	ND	ND	ND	ND	ND	2	220.5	25.3	59.8	0	0
32472	2013-10-11T23:00:00	2.8	ND	ND	ND	ND	ND	0.1	130.4	25.4	60.5	0	0
32473	2013-10-12T00:00:00	28.8	ND	ND	ND	ND	ND	1.7	174.1	24.5	67.6	0	0
32474	2013-10-12T01:00:00	ND	ND	ND	ND	ND	ND	1.3	206.8	23.9	70.2	0	0
32475	2013-10-12T02:00:00	ND	ND	ND	ND	ND	ND	0.5	97.3	23	76.4	0	0
32476	2013-10-12T03:00:00	ND	ND	ND	ND	ND	ND	1.4	61.5	22.2	79.2	0	0
32477	2013-10-12T04:00:00	ND	ND	ND	ND	ND	ND	1	106.8	20.8	87.1	0	0.76
32478	2013-10-12T05:00:00	ND	ND	ND	ND	ND	ND	0.9	132.2	19.7	93.1	0	14.73
32479	2013-10-12T06:00:00	ND	ND	ND	ND	ND	ND	1	152.3	19.2	94.8	0	7.11
32480	2013-10-12T07:00:00	75.6	ND	ND	ND	ND	ND	0.3	165.1	19.7	92.2	36.4	0.51
32481	2013-10-12T08:00:00	38.4	ND	ND	ND	ND	ND	0.2	210.3	20.4	88.2	71.6	0
32482	2013-10-12T09:00:00	21	ND	ND	ND	ND	ND	0.4	12.4	21.5	83.3	176.2	0
32483	2013-10-12T10:00:00	33.7	ND	ND	ND	ND	ND	1.8	53	22.3	81.7	386.6	0
32484	2013-10-12T11:00:00	18.5	ND	ND	ND	ND	ND	1.2	48.1	23.8	73.4	689.2	0
32485	2013-10-12T12:00:00	10	ND	ND	ND	ND	ND	1.2	72.1	25.7	64	863.6	0
32486	2013-10-12T13:00:00	7	ND	ND	ND	ND	ND	1.4	66.3	26.9	60.1	577.3	0
32487	2013-10-12T14:00:00	3.5	ND	ND	ND	ND	ND	0.7	72.5	28	54.7	691.9	0
32488	2013-10-12T15:00:00	3.3	ND	ND	ND	ND	ND	1.1	141.5	28.1	53.9	358.2	0
32489	2013-10-12T16:00:00	3.6	ND	ND	ND	ND	ND	2.1	153.4	28.1	54.8	431.7	0
32490	2013-10-12T17:00:00	28.9	ND	ND	ND	ND	ND	1.5	189.5	23.6	79.8	90.7	48.01
32491	2013-10-12T18:00:00	26.4	ND	ND	ND	ND	ND	0.8	216	23.3	84	43.7	0.51
32492	2013-10-12T19:00:00	16.2	ND	ND	ND	ND	ND	2.1	216.7	24.5	68.2	0	0
32493	2013-10-12T20:00:00	21.2	ND	ND	ND	ND	ND	2.1	220.6	24.1	63.4	0	0
32494	2013-10-12T21:00:00	11.5	ND	ND	ND	ND	ND	1.1	217.8	23.9	63.9	0	0
32495	2013-10-12T22:00:00	43.8	ND	ND	ND	ND	ND	0.3	144.9	23	74.9	0	0
32496	2013-10-12T23:00:00	23.3	ND	ND	ND	ND	ND	1.7	214.9	23.1	68.9	0	0
32497	2013-10-13T00:00:00	19.5	ND	ND	ND	ND	ND	1.1	73.5	22.1	78.3	0	0
32498	2013-10-13T01:00:00	10.6	ND	ND	ND	ND	ND	1.3	47.9	21.4	81.6	0	0
32499	2013-10-13T02:00:00	10.3	ND	ND	ND	ND	ND	0.7	57.7	21	84.2	0	0
32500	2013-10-13T03:00:00	7.3	ND	ND	ND	ND	ND	0.6	67.1	20.9	85	0	2.54
32501	2013-10-13T04:00:00	4.2	ND	ND	ND	ND	ND	0.3	146.3	20.4	89.3	0	1.78
32502	2013-10-13T05:00:00	3.8	ND	ND	ND	ND	ND	1	177.9	20.1	91.6	0	0.25
32503	2013-10-13T06:00:00	2.5	ND	ND	ND	ND	ND	1	194.6	20.3	91	0	0
32504	2013-10-13T07:00:00	3.1	ND	ND	ND	ND	ND	0.2	177.5	20.6	89.3	41.1	0
32505	2013-10-13T08:00:00	3.2	ND	ND	ND	ND	ND	0.3	151.4	21.4	85.1	129.2	0
32506	2013-10-13T09:00:00	4.3	ND	ND	ND	ND	ND	0.6	139.1	22.1	81.8	257.2	0
32507	2013-10-13T10:00:00	10.3	ND	ND	ND	ND	ND	0.8	185.2	24.2	70.9	694.5	0
32508	2013-10-13T11:00:00	5.9	ND	ND	ND	ND	ND	1	134.6	25.8	62.1	798.7	0
32509	2013-10-13T12:00:00	4.9	ND	ND	ND	ND	ND	1.2	94.6	27.2	56.1	739.5	0
32510	2013-10-13T13:00:00	12.4	ND	ND	ND	ND	ND	0.6	141.5	27.9	53.3	591.8	0
32511	2013-10-13T14:00:00	6.8	ND	ND	ND	ND	ND	0.5	264	27	58.7	149.2	1.02
32512	2013-10-13T15:00:00	8.5	ND	ND	ND	ND	ND	0.1	322.6	21.7	89	28	24.13
32513	2013-10-13T16:00:00	8.4	ND	ND	ND	ND	ND	0.2	230.7	22.3	86.8	58.4	1.27
32514	2013-10-13T17:00:00	5.1	ND	ND	ND	ND	ND	0.3	119	23	81.7	54.2	0
32515	2013-10-13T18:00:00	3.4	ND	ND	ND	ND	ND	1.5	206.2	23.2	77.4	13.6	0.25
32516	2013-10-13T19:00:00	5.1	ND	ND	ND	ND	ND	1	182.5	23	79.4	0	0
32517	2013-10-13T20:00:00	3.9	ND	ND	ND	ND	ND	1	147	22.7	79.2	0	0
32518	2013-10-13T21:00:00	3.5	ND	ND	ND	ND	ND	0.6	135.1	21.8	83.9	0	0
32519	2013-10-13T22:00:00	15.9	ND	ND	ND	ND	ND	0.4	98.5	21.6	84.8	0	0
32520	2013-10-13T23:00:00	8.5	ND	ND	ND	ND	ND	0.4	107.2	21.4	87	0	0
32521	2013-10-14T00:00:00	17.7	ND	ND	ND	ND	ND	1.5	190.3	21.2	86.3	0	0
32522	2013-10-14T01:00:00	10.3	ND	ND	ND	ND	ND	1.1	193.1	20.5	89.9	0	2.29
32523	2013-10-14T02:00:00	6.2	ND	ND	ND	ND	ND	1	192.4	20.5	91.8	0	1.02
32524	2013-10-14T03:00:00	3.9	ND	ND	ND	ND	ND	0.8	163.5	20.4	92.8	0	0
32525	2013-10-14T04:00:00	3.7	ND	ND	ND	ND	ND	1.2	189.8	20.2	94.1	0	0
32526	2013-10-14T05:00:00	3.8	ND	ND	ND	ND	ND	0.6	182.5	20.3	93.2	0	0
32527	2013-10-14T06:00:00	3.8	ND	ND	ND	ND	ND	0.5	110	20.4	92.1	0	0
32528	2013-10-14T07:00:00	4	ND	ND	ND	ND	ND	0.4	77.8	20.4	91.6	34.2	0
32529	2013-10-14T08:00:00	4	ND	ND	ND	ND	ND	0.4	162.4	20.8	89.6	81.4	0.25
32530	2013-10-14T09:00:00	11	ND	ND	ND	ND	ND	0.2	118.2	21.5	86.5	104.3	0
32531	2013-10-14T10:00:00	25.5	ND	ND	ND	ND	ND	0.5	85.5	22.5	81.2	299.3	0
32532	2013-10-14T11:00:00	13.4	ND	ND	ND	ND	ND	0.8	93.4	24	73.5	451.4	0
32533	2013-10-14T12:00:00	19.9	ND	ND	ND	ND	ND	0.9	128.4	25.5	64.2	633.6	0
32534	2013-10-14T13:00:00	12	ND	ND	ND	ND	ND	1.2	117.8	26.5	60.2	512.4	0
32535	2013-10-14T14:00:00	18.4	ND	ND	ND	ND	ND	0.2	29.8	26.6	59.3	291.1	0
32536	2013-10-14T15:00:00	11.9	ND	ND	ND	ND	ND	1.8	212.4	25.9	65.4	191.2	0
32537	2013-10-14T16:00:00	19.3	ND	ND	ND	ND	ND	1.8	180.3	24.1	69.9	28.9	0
32538	2013-10-14T17:00:00	16.6	ND	ND	ND	ND	ND	3.4	230.8	20.1	94.4	0	53.85
32539	2013-10-14T18:00:00	8.3	ND	ND	ND	ND	ND	0.3	322.2	20.3	97.7	6.8	0.76
32540	2013-10-14T19:00:00	6.2	ND	ND	ND	ND	ND	1.1	45.1	20.1	94.9	0	0.25
32541	2013-10-14T20:00:00	5.5	ND	ND	ND	ND	ND	0.5	140.2	20.1	92.3	0	0.25
32542	2013-10-14T21:00:00	3.3	ND	ND	ND	ND	ND	0.7	172	20.2	91.5	0	0.25
32543	2013-10-14T22:00:00	3.8	ND	ND	ND	ND	ND	0.6	185.1	20.2	91.2	0	0
32544	2013-10-14T23:00:00	2.7	ND	ND	ND	ND	ND	0.8	199.5	20.2	91	0	0
32545	2013-10-15T00:00:00	1.9	ND	ND	ND	ND	ND	1.4	214.2	20.3	86.1	0	0
32546	2013-10-15T01:00:00	2.4	ND	ND	ND	ND	ND	0.5	198.4	20.5	86.2	0	0
32547	2013-10-15T02:00:00	3	ND	ND	ND	ND	ND	0.3	72.7	20.3	89.4	0	0
32548	2013-10-15T03:00:00	3.6	ND	ND	ND	ND	ND	0.3	42.9	19.9	92.6	0	0
32549	2013-10-15T04:00:00	3.8	ND	ND	ND	ND	ND	0.6	58.1	19.6	93.7	0	0
32550	2013-10-15T05:00:00	12.6	ND	ND	ND	ND	ND	0.4	22.9	19.7	93.9	0	0
32551	2013-10-15T06:00:00	45.1	ND	ND	ND	ND	ND	0.8	59.6	19.7	93.8	0	0
32552	2013-10-15T07:00:00	26.6	ND	ND	ND	ND	ND	0.6	38.6	19.8	92.9	15.7	0
32553	2013-10-15T08:00:00	54.2	ND	ND	ND	ND	ND	0.4	18.7	20.3	90.4	29.6	0
32554	2013-10-15T09:00:00	47.9	ND	ND	ND	ND	ND	0.3	40.6	20.9	87.3	103.7	0.25
32555	2013-10-15T10:00:00	65.4	ND	ND	ND	ND	ND	0.7	66.1	21.6	84.1	139.6	0
32556	2013-10-15T11:00:00	56.6	ND	ND	ND	ND	ND	0.6	109.4	22.3	80.1	291.9	0
32557	2013-10-15T12:00:00	ND	ND	ND	ND	ND	ND	0.4	141.3	24.6	68.6	679.4	0
32558	2013-10-15T13:00:00	ND	ND	ND	ND	ND	ND	0.7	255.3	26	62.5	693.3	0
32559	2013-10-15T14:00:00	ND	ND	ND	ND	ND	ND	0.3	243.7	27.4	54.9	724.4	0
32560	2013-10-15T15:00:00	ND	ND	ND	ND	ND	ND	0.4	172	27.7	54.4	339.4	0
32561	2013-10-15T16:00:00	ND	ND	ND	ND	ND	ND	0.7	173.3	27.4	55.4	165.4	0
32562	2013-10-15T17:00:00	ND	ND	ND	ND	ND	ND	0.4	158.6	27.1	56.5	43.2	0
32563	2013-10-15T18:00:00	ND	ND	ND	ND	ND	ND	2.7	219.1	25.4	60.3	7.3	0
32564	2013-10-15T19:00:00	ND	ND	ND	ND	ND	ND	2.6	218.1	24.3	64.3	0	0
32565	2013-10-15T20:00:00	ND	ND	ND	ND	ND	ND	1.6	221.1	24.3	60.8	0	0
32566	2013-10-15T21:00:00	ND	ND	ND	ND	ND	ND	0.1	83.8	23.5	70.7	0	0
32567	2013-10-15T22:00:00	ND	ND	ND	ND	ND	ND	1.7	174.3	22.5	78.5	0	0
32568	2013-10-15T23:00:00	ND	ND	ND	ND	ND	ND	1.6	179.6	22.1	79.8	0	0
32569	2013-10-16T00:00:00	ND	ND	ND	ND	ND	ND	0.7	105.8	21.7	82.6	0	0
32570	2013-10-16T01:00:00	115.6	ND	ND	ND	ND	ND	0.6	70.1	20.8	83.1	0	0
32571	2013-10-16T02:00:00	58.3	ND	ND	ND	ND	ND	0.5	72.1	20.4	85.2	0	0
32572	2013-10-16T03:00:00	30.7	ND	ND	ND	ND	ND	0.1	213.3	20.6	84.9	0	0
32573	2013-10-16T04:00:00	ND	ND	ND	ND	ND	ND	0.5	180.7	20.9	84.3	0	0
32574	2013-10-16T05:00:00	ND	ND	ND	ND	ND	ND	0.6	134.5	20.6	85.9	0	0
32575	2013-10-16T06:00:00	90.1	ND	ND	ND	ND	ND	1	123.8	20.4	87.3	0	0
32576	2013-10-16T07:00:00	46.7	ND	ND	ND	ND	ND	0.1	58.9	20.5	86	30.3	0
32577	2013-10-16T08:00:00	44.6	ND	ND	ND	ND	ND	0.5	149.9	21.6	82	173.9	0
32578	2013-10-16T09:00:00	ND	ND	ND	ND	ND	ND	1.3	126.4	22.5	79.5	284.7	0
32579	2013-10-16T10:00:00	ND	ND	ND	ND	ND	ND	1.1	117	23.5	74.3	275.6	0
32580	2013-10-16T11:00:00	ND	ND	ND	ND	ND	ND	0.7	126.3	24	71.2	264.1	0
32581	2013-10-16T12:00:00	ND	ND	ND	ND	ND	ND	0.9	99.7	25.3	64.8	447.9	0
32582	2013-10-16T13:00:00	ND	ND	ND	ND	ND	ND	1.2	76.5	26.2	60.7	399.8	0
32583	2013-10-16T14:00:00	ND	ND	ND	ND	ND	ND	0.9	203.3	26.3	58.8	350.4	0
32584	2013-10-16T15:00:00	ND	ND	ND	ND	ND	ND	2.4	214.2	25.9	57.4	346.9	0
32585	2013-10-16T16:00:00	ND	ND	ND	ND	ND	ND	2.2	218.1	26.6	54.6	208.1	0
32586	2013-10-16T17:00:00	ND	ND	ND	ND	ND	ND	2.7	217.6	25.9	55.7	75.8	0
32587	2013-10-16T18:00:00	ND	ND	ND	ND	ND	ND	2.1	217.9	25.1	58	12.8	0
32588	2013-10-16T19:00:00	ND	ND	ND	ND	ND	ND	1.2	69.7	23.9	69.4	0	0
32589	2013-10-16T20:00:00	ND	ND	ND	ND	ND	ND	1.5	31.1	22.6	76.2	0	0
32590	2013-10-16T21:00:00	100.8	ND	ND	ND	ND	ND	0.4	320.1	21.8	83.7	0	0
32591	2013-10-16T22:00:00	63.9	ND	ND	ND	ND	ND	0.4	227.5	22	82.6	0	0
32592	2013-10-16T23:00:00	ND	ND	ND	ND	ND	ND	0	282.6	21.9	82.5	0	4.32
32593	2013-10-17T00:00:00	ND	ND	ND	ND	ND	ND	1	218	20.4	88.7	0	5.08
32594	2013-10-17T01:00:00	ND	ND	ND	ND	ND	ND	0.5	178.1	19.8	90.1	0	7.87
32595	2013-10-17T02:00:00	ND	ND	ND	ND	ND	ND	0	145.6	19.4	92.9	0	9.65
32596	2013-10-17T03:00:00	ND	ND	ND	ND	ND	ND	0.2	16.6	19.2	93.7	0	2.54
32597	2013-10-17T04:00:00	ND	ND	ND	ND	ND	ND	0.2	219.1	19.2	94	0	5.08
32598	2013-10-17T05:00:00	ND	ND	ND	ND	ND	ND	0.2	37	19.5	92.6	0	0.25
32599	2013-10-17T06:00:00	101.7	ND	ND	ND	ND	ND	0.2	182.4	19.6	92.3	0	0
32600	2013-10-17T07:00:00	51.6	ND	ND	ND	ND	ND	0.2	117.7	19.7	93.2	43.2	0.25
32601	2013-10-17T08:00:00	44.8	ND	ND	ND	ND	ND	1	58.4	20.3	91.8	96.5	0
32602	2013-10-17T09:00:00	34.3	ND	ND	ND	ND	ND	0.2	35.7	20.5	89.4	84.7	0
32603	2013-10-17T10:00:00	62.2	ND	ND	ND	ND	ND	0.3	165	21.5	81.4	250.1	0
32604	2013-10-17T11:00:00	43	ND	ND	ND	ND	ND	0.6	161.3	23.8	71.1	770.2	0
32605	2013-10-17T12:00:00	50.5	ND	ND	ND	ND	ND	1.3	127.7	26	61.6	810.1	0
32606	2013-10-17T13:00:00	36	ND	ND	ND	ND	ND	1.3	130.1	26.4	59.1	596.5	0
32607	2013-10-17T14:00:00	25.7	ND	ND	ND	ND	ND	0.6	144.4	27.6	54.4	660.3	0
32608	2013-10-17T15:00:00	13.9	ND	ND	ND	ND	ND	1	123.5	27.5	54.3	285.3	0
32609	2013-10-17T16:00:00	30.2	ND	ND	ND	ND	ND	0.9	114.9	27.6	54.9	282.1	0
32610	2013-10-17T17:00:00	16.4	ND	ND	ND	ND	ND	0.5	131.2	27.5	55.2	117.3	0
32611	2013-10-17T18:00:00	42.2	ND	ND	ND	ND	ND	0.8	58	26.9	57.7	17.4	0
32612	2013-10-17T19:00:00	29.8	ND	ND	ND	ND	ND	1.4	220.4	25.7	60.4	0	0
32613	2013-10-17T20:00:00	30.2	ND	ND	ND	ND	ND	2.1	215.9	25	61.5	0	0
32614	2013-10-17T21:00:00	ND	ND	ND	ND	ND	ND	0.3	81.2	24.4	69.3	0	0
32615	2013-10-17T22:00:00	ND	ND	ND	ND	ND	ND	0.4	166.3	24.2	69.5	0	0
32616	2013-10-17T23:00:00	ND	ND	ND	ND	ND	ND	0.1	ND	23.6	73.5	0	0
32617	2013-10-18T00:00:00	ND	ND	ND	ND	ND	ND	0.7	85.6	22.7	76.8	0	0
32618	2013-10-18T01:00:00	ND	ND	ND	ND	ND	ND	0.1	ND	22.3	79.6	0	0
32619	2013-10-18T02:00:00	ND	ND	ND	ND	ND	ND	0.3	ND	22.5	79.1	0	0
32620	2013-10-18T03:00:00	ND	ND	ND	ND	ND	ND	0.6	184.1	22.2	80.9	0	0
32621	2013-10-18T04:00:00	ND	ND	ND	ND	ND	ND	0.5	120.1	21.9	82.4	0	0
32622	2013-10-18T05:00:00	ND	ND	ND	ND	ND	ND	0.6	144.2	21.7	83	0	0
32623	2013-10-18T06:00:00	ND	ND	ND	ND	ND	ND	0.4	170.5	21.7	81.6	0	0
32624	2013-10-18T07:00:00	ND	ND	ND	ND	ND	ND	0.9	188	22	80.5	48.6	0
32625	2013-10-18T08:00:00	106.2	ND	ND	ND	ND	ND	1.3	193.9	23	76.2	267.9	0
32626	2013-10-18T09:00:00	64.5	ND	ND	ND	ND	ND	1.7	170.2	25.1	67.9	515.3	0
32627	2013-10-18T10:00:00	ND	ND	ND	ND	ND	ND	1.1	164.1	26.4	62.5	484.4	0
32628	2013-10-18T11:00:00	ND	ND	ND	ND	ND	ND	0.8	100.2	27.5	58.3	464	0
32629	2013-10-18T12:00:00	3.6	ND	ND	ND	ND	ND	1.1	118.9	28.4	54.4	696.3	0
32630	2013-10-18T13:00:00	18.7	ND	ND	ND	ND	ND	0.9	125.3	29.1	52.5	659.4	0
32631	2013-10-18T14:00:00	10.3	ND	ND	ND	ND	ND	0.1	93.6	29.9	49.2	549.2	0
32632	2013-10-18T15:00:00	21.8	ND	ND	ND	ND	ND	0.9	233.1	31.4	43.4	654	0
32633	2013-10-18T16:00:00	11.5	ND	ND	ND	ND	ND	4.2	216.3	29.9	44.6	299.1	0
32634	2013-10-18T17:00:00	23.3	ND	ND	ND	ND	ND	4.3	219.1	28.6	48.8	187.9	0
32635	2013-10-18T18:00:00	24.4	ND	ND	ND	ND	ND	1	80.1	25.5	65.6	0	0
32636	2013-10-18T19:00:00	47.1	ND	ND	ND	ND	ND	1.3	71.2	23.8	75	0	0
32637	2013-10-18T20:00:00	41.7	ND	ND	ND	ND	ND	1.2	199.3	24.4	71.2	0	0
32638	2013-10-18T21:00:00	43.4	ND	ND	ND	ND	ND	2.1	171.3	24.2	71.2	0	0
32639	2013-10-18T22:00:00	44.1	ND	ND	ND	ND	ND	1.1	169.4	23	75.9	0	0
32640	2013-10-18T23:00:00	42.9	ND	ND	ND	ND	ND	1.6	211.5	23	75.5	0	0
32641	2013-10-19T00:00:00	ND	ND	ND	ND	ND	ND	1	214.3	23.1	71.5	0	0
32642	2013-10-19T01:00:00	ND	ND	ND	ND	ND	ND	0.8	43.7	22.3	77.7	0	0
32643	2013-10-19T02:00:00	ND	ND	ND	ND	ND	ND	0.4	15.3	21	84.6	0	0
32644	2013-10-19T03:00:00	ND	ND	ND	ND	ND	ND	0.8	224.3	21.4	82	0	0
32645	2013-10-19T04:00:00	ND	ND	ND	ND	ND	ND	0.7	213	21.2	78.4	0	0
32646	2013-10-19T05:00:00	ND	ND	ND	ND	ND	ND	0.8	209.8	21.2	78.5	0	0
32647	2013-10-19T06:00:00	ND	ND	ND	ND	ND	ND	0.9	139.2	20.9	84.3	0	0
32648	2013-10-19T07:00:00	ND	ND	ND	ND	ND	ND	1	184.5	21.3	83.1	72.4	0
32649	2013-10-19T08:00:00	111	ND	ND	ND	ND	ND	1.4	168.2	23	74.7	268.6	0
32650	2013-10-19T09:00:00	108.5	ND	ND	ND	ND	ND	1.2	120.1	24.2	69.8	483.3	0
32651	2013-10-19T10:00:00	65.6	ND	ND	ND	ND	ND	1.3	151.7	25.6	64	637.4	0
32652	2013-10-19T11:00:00	58.1	ND	ND	ND	ND	ND	0.9	143.1	27.2	58	813.7	0
32653	2013-10-19T12:00:00	29.6	ND	ND	ND	ND	ND	1.4	125.4	28.7	52.7	765.1	0
32654	2013-10-19T13:00:00	ND	ND	ND	ND	ND	ND	0.5	118.1	30	48.3	683.8	0
32655	2013-10-19T14:00:00	ND	ND	ND	ND	ND	ND	0.9	70.6	30.6	47.3	603.8	0
32656	2013-10-19T15:00:00	ND	ND	ND	ND	ND	ND	0.6	3.6	31.3	43.8	569.2	0
32657	2013-10-19T16:00:00	ND	ND	ND	ND	ND	ND	2.6	223.2	30.9	42.6	417.1	0
32658	2013-10-19T17:00:00	ND	ND	ND	ND	ND	ND	4.1	217.1	29.7	44.1	253	0
32659	2013-10-19T18:00:00	ND	ND	ND	ND	ND	ND	3.3	217.4	27.7	49.2	35.4	0
32660	2013-10-19T19:00:00	ND	ND	ND	ND	ND	ND	4	216.4	26.4	53.6	0	0
32661	2013-10-19T20:00:00	ND	ND	ND	ND	ND	ND	3.5	217.2	26.1	54.1	0	0
32662	2013-10-19T21:00:00	ND	ND	ND	ND	ND	ND	1.1	222	25.7	56.8	0	0
32663	2013-10-19T22:00:00	ND	ND	ND	ND	ND	ND	1.6	214.1	25.1	60.8	0	0
32664	2013-10-19T23:00:00	ND	ND	ND	ND	ND	ND	1.2	219	24.7	63	0	0
32665	2013-10-20T00:00:00	ND	ND	ND	ND	ND	ND	1.7	218.8	24.4	64.5	0	0
32666	2013-10-20T01:00:00	ND	ND	ND	ND	ND	ND	1	113.6	23.3	71.9	0	0
32667	2013-10-20T02:00:00	ND	ND	ND	ND	ND	ND	0.7	179.2	22.6	75.6	0	0
32668	2013-10-20T03:00:00	ND	ND	ND	ND	ND	ND	0.4	128	22.7	75.3	0	0
32669	2013-10-20T04:00:00	ND	ND	ND	ND	ND	ND	1.1	156.6	22.6	75.1	0	0
32670	2013-10-20T05:00:00	ND	ND	ND	ND	ND	ND	0.6	166	22.4	76.4	0	0
32671	2013-10-20T06:00:00	ND	ND	ND	ND	ND	ND	0.7	126.9	22.2	78	0	0
32672	2013-10-20T07:00:00	ND	ND	ND	ND	ND	ND	0.4	133.5	22	79.9	38.5	0
32673	2013-10-20T08:00:00	ND	ND	ND	ND	ND	ND	0.1	33	23.1	75.8	189	0
32674	2013-10-20T09:00:00	ND	ND	ND	ND	ND	ND	0.7	160.2	24.7	68.7	379.8	0
32675	2013-10-20T10:00:00	71.1	ND	ND	ND	ND	ND	1.6	174.5	26.4	60.4	659.4	0
32676	2013-10-20T11:00:00	45.6	ND	ND	ND	ND	ND	1.8	136.8	27.6	56.9	829.5	0
32677	2013-10-20T12:00:00	41.1	ND	ND	ND	ND	ND	1.1	171.5	28.7	52.5	545.8	0
32678	2013-10-20T13:00:00	21.8	ND	ND	ND	ND	ND	0.3	216.8	29.7	47.1	623.9	0
32679	2013-10-20T14:00:00	12.5	ND	ND	ND	ND	ND	3.4	217	30	43.6	537.5	0
32680	2013-10-20T15:00:00	6.2	ND	ND	ND	ND	ND	3.5	217.5	30.5	42.1	652.3	0
32681	2013-10-20T16:00:00	3.9	ND	ND	ND	ND	ND	4.3	217.3	29.6	45	435.4	0
32682	2013-10-20T17:00:00	2.9	ND	ND	ND	ND	ND	4.6	216.5	28.1	50.3	310.5	0
32683	2013-10-20T18:00:00	2.9	ND	ND	ND	ND	ND	4.5	216.4	26.1	55.6	35.1	0
32684	2013-10-20T19:00:00	2.2	ND	ND	ND	ND	ND	3.3	217.3	25.6	57.7	0	0
32685	2013-10-20T20:00:00	2.7	ND	ND	ND	ND	ND	2.2	183.1	24.1	67.6	0	0
32686	2013-10-20T21:00:00	3.4	ND	ND	ND	ND	ND	1.7	161.3	24.1	67	0	0
32687	2013-10-20T22:00:00	3.1	ND	ND	ND	ND	ND	1.6	143.3	22.5	74.2	0	0
32688	2013-10-20T23:00:00	16.4	ND	ND	ND	ND	ND	0.6	165	21.9	77.8	0	0
32689	2013-10-21T00:00:00	10	ND	ND	ND	ND	ND	0.2	37	22.1	77.1	0	0
32690	2013-10-21T01:00:00	6.3	ND	ND	ND	ND	ND	0.3	328.2	21.9	77.5	0	0
32691	2013-10-21T02:00:00	4.9	ND	ND	ND	ND	ND	0.4	57	21.8	78.8	0	0
32692	2013-10-21T03:00:00	33.9	ND	ND	ND	ND	ND	0.8	86.3	21.3	82.9	0	0
32693	2013-10-21T04:00:00	17	ND	ND	ND	ND	ND	0.1	206.2	21.3	82.7	0	0
32694	2013-10-21T05:00:00	8.5	ND	ND	ND	ND	ND	0.6	161.4	21.6	81.1	0	0
32695	2013-10-21T06:00:00	6.4	ND	ND	ND	ND	ND	0.6	105.1	21.4	84.4	0	0
32696	2013-10-21T07:00:00	35.4	ND	ND	ND	ND	ND	0.6	93.1	21.6	83.3	26.7	0
32697	2013-10-21T08:00:00	23.5	ND	ND	ND	ND	ND	0.5	186.1	22.3	80.1	132.7	0
32698	2013-10-21T09:00:00	44.4	ND	ND	ND	ND	ND	0.7	112.3	23.5	73.4	276.1	0
32699	2013-10-21T10:00:00	29.7	ND	ND	ND	ND	ND	1.1	90.8	24	71.2	217.7	0
32700	2013-10-21T11:00:00	53.6	ND	ND	ND	ND	ND	0.8	59.5	24.6	69.1	377	0
32701	2013-10-21T12:00:00	39	ND	ND	ND	ND	ND	0.9	71.6	25.6	65.7	334.2	0
32702	2013-10-21T13:00:00	35.3	ND	ND	ND	ND	ND	1.2	78.3	26.4	62	507.6	0
32703	2013-10-21T14:00:00	18.5	ND	ND	ND	ND	ND	0.9	141.8	27.3	55.8	549.6	0
32704	2013-10-21T15:00:00	10.8	ND	ND	ND	ND	ND	3.9	217.6	29.1	44.7	797.5	0
32705	2013-10-21T16:00:00	7.1	ND	ND	ND	ND	ND	4.1	217	28.2	47.5	384.9	0
32706	2013-10-21T17:00:00	10.5	ND	ND	ND	ND	ND	4.6	218.6	26.1	53.6	99.8	0
32707	2013-10-21T18:00:00	6.9	ND	ND	ND	ND	ND	4.5	215.3	24.5	59	17.5	0
32708	2013-10-21T19:00:00	5.9	ND	ND	ND	ND	ND	3.6	216.7	24.2	59.8	0	0
32709	2013-10-21T20:00:00	4.6	ND	ND	ND	ND	ND	2.3	212.7	24	61.7	0	0
32710	2013-10-21T21:00:00	9.9	ND	ND	ND	ND	ND	1.8	184.9	23.3	71.1	0	0
32711	2013-10-21T22:00:00	5.5	ND	ND	ND	ND	ND	0.7	190.7	21	82.8	0	43.69
32712	2013-10-21T23:00:00	3.1	ND	ND	ND	ND	ND	1.4	237.1	18.1	97.6	0	68.07
32713	2013-10-22T00:00:00	3.4	ND	ND	ND	ND	ND	1.9	220.2	17.9	98.3	0	36.58
32714	2013-10-22T01:00:00	3.3	ND	ND	ND	ND	ND	0.9	220.5	18.4	96.8	0	7.62
32715	2013-10-22T02:00:00	1.7	ND	ND	ND	ND	ND	0.3	236.4	18.8	95.6	0	8.38
32716	2013-10-22T03:00:00	0.8	ND	ND	ND	ND	ND	0.4	27.4	19	95.3	0	3.3
32717	2013-10-22T04:00:00	1.9	ND	ND	ND	ND	ND	0.5	42	18.8	96.2	0	17.02
32718	2013-10-22T05:00:00	3.8	ND	ND	ND	ND	ND	0.1	171.9	18.7	97.5	0	4.32
32719	2013-10-22T06:00:00	3.7	ND	ND	ND	ND	ND	0.4	208	18.8	96.4	0	0.51
32720	2013-10-22T07:00:00	3	ND	ND	ND	ND	ND	0.5	181.2	19.2	92.8	10.2	0
32721	2013-10-22T08:00:00	6	ND	ND	ND	ND	ND	1	177.4	19.6	90.9	39.9	0
32722	2013-10-22T09:00:00	4.8	ND	ND	ND	ND	ND	1	203.2	20.7	86.6	268.5	0.25
32723	2013-10-22T10:00:00	14.8	ND	ND	ND	ND	ND	0.8	173.1	22	78.4	308.8	0
32724	2013-10-22T11:00:00	17.5	ND	ND	ND	ND	ND	0.7	126.2	23.8	69.9	479.5	0
32725	2013-10-22T12:00:00	9.6	ND	ND	ND	ND	ND	0.7	113.5	24.4	66.5	562.4	0
32726	2013-10-22T13:00:00	17.8	ND	ND	ND	ND	ND	1.5	135.5	25.8	62.3	577.5	0
32727	2013-10-22T14:00:00	20.1	ND	ND	ND	ND	ND	1.5	124.8	26	60.6	445.2	0
32728	2013-10-22T15:00:00	20	ND	ND	ND	ND	ND	1	193.3	27.3	54.9	635	0
32729	2013-10-22T16:00:00	11.7	ND	ND	ND	ND	ND	0.7	84.8	27.5	54.8	342.5	0
32730	2013-10-22T17:00:00	19.3	ND	ND	ND	ND	ND	1.3	160.1	27.5	55.2	248.9	0
32731	2013-10-22T18:00:00	34.3	ND	ND	ND	ND	ND	1.3	197.6	26.3	58.2	9	0
32732	2013-10-22T19:00:00	56.7	ND	ND	ND	ND	ND	1.9	215.9	25	66.7	0	0
32733	2013-10-22T20:00:00	31.8	ND	ND	ND	ND	ND	2.1	216.6	24.6	65.7	0	0
32734	2013-10-22T21:00:00	33	ND	ND	ND	ND	ND	2.1	211.3	24.5	64.9	0	0
32735	2013-10-22T22:00:00	18	ND	ND	ND	ND	ND	1.1	177.3	23.8	71.3	0	0
32736	2013-10-22T23:00:00	26.9	ND	ND	ND	ND	ND	1.2	197.4	23.2	75.5	0	0
32737	2013-10-23T00:00:00	13.5	ND	ND	ND	ND	ND	0.2	216.5	23.2	71.6	0	0
32738	2013-10-23T01:00:00	6.7	ND	ND	ND	ND	ND	0.3	142.6	23	76.3	0	0
32739	2013-10-23T02:00:00	15.5	ND	ND	ND	ND	ND	1.2	210.1	22.5	74.9	0	0
32740	2013-10-23T03:00:00	19	ND	ND	ND	ND	ND	0.5	214.2	22.4	75.6	0	0
32741	2013-10-23T04:00:00	11	ND	ND	ND	ND	ND	1.4	205.1	21.8	77.2	0	0
32742	2013-10-23T05:00:00	15.3	ND	ND	ND	ND	ND	0.6	130.9	21.2	84.5	0	0
32743	2013-10-23T06:00:00	9.5	ND	ND	ND	ND	ND	0.8	211.8	20.9	81.4	0	0
32744	2013-10-23T07:00:00	29.7	ND	ND	ND	ND	ND	0.6	216.6	20.9	78.5	34.7	0
32745	2013-10-23T08:00:00	33.1	ND	ND	ND	ND	ND	0.4	93.2	22.2	76.2	184.4	0
32746	2013-10-23T09:00:00	66.2	ND	ND	ND	ND	ND	0.9	104.6	24.3	68	515.8	0
32747	2013-10-23T10:00:00	44.2	ND	ND	ND	ND	ND	1.2	127.8	25.6	62.8	692.1	0
32748	2013-10-23T11:00:00	42.4	ND	ND	ND	ND	ND	1.1	138.8	27.5	55	826.4	0
32749	2013-10-23T12:00:00	23.1	ND	ND	ND	ND	ND	1.4	103.2	29.1	51.1	702.1	0
32750	2013-10-23T13:00:00	26	ND	ND	ND	ND	ND	1.5	74.5	29.7	49.9	761.3	0
32751	2013-10-23T14:00:00	25.1	ND	ND	ND	ND	ND	0.1	265.9	30.2	48.2	495.6	0
32752	2013-10-23T15:00:00	28.1	ND	ND	ND	ND	ND	2.6	217	31	42.9	705.4	0
32753	2013-10-23T16:00:00	17.9	ND	ND	ND	ND	ND	4.1	216.5	30.8	42.7	588.1	0
32754	2013-10-23T17:00:00	15	ND	ND	ND	ND	ND	2.6	213.5	29.3	48.8	195.8	0
32755	2013-10-23T18:00:00	30.2	ND	ND	ND	ND	ND	1	93.8	26.5	62.6	5.3	0
32756	2013-10-23T19:00:00	66.8	ND	ND	ND	ND	ND	0.5	116.8	26	64.3	0	0
32757	2013-10-23T20:00:00	35.5	ND	ND	ND	ND	ND	1.9	220.4	26.4	57.6	0	0
32758	2013-10-23T21:00:00	30.2	ND	ND	ND	ND	ND	1.4	184.7	25.5	63.4	0	0
32759	2013-10-23T22:00:00	16.4	ND	ND	ND	ND	ND	0.9	193	24.2	72.2	0	0
32760	2013-10-23T23:00:00	23.1	ND	ND	ND	ND	ND	0.9	219.5	24.3	70.1	0	0
32761	2013-10-24T00:00:00	12.8	ND	ND	ND	ND	ND	0.5	135	24.2	71.3	0	0
32762	2013-10-24T01:00:00	36.6	ND	ND	ND	ND	ND	1	122.7	23.4	76.7	0	0
32763	2013-10-24T02:00:00	20.6	ND	ND	ND	ND	ND	1.1	173.6	22.5	80.7	0	0
32764	2013-10-24T03:00:00	41.9	ND	ND	ND	ND	ND	1.8	204.2	22.4	79.7	0	0
32765	2013-10-24T04:00:00	28.3	ND	ND	ND	ND	ND	0.9	177.9	22.4	78.6	0	0
32766	2013-10-24T05:00:00	30.9	ND	ND	ND	ND	ND	0.9	160.6	22.3	79	0	0
32767	2013-10-24T06:00:00	16.7	ND	ND	ND	ND	ND	0.7	166.8	22.2	80.7	0	0
32768	2013-10-24T07:00:00	54.6	ND	ND	ND	ND	ND	0.9	129.2	21.9	81.7	21.5	0
32769	2013-10-24T08:00:00	51.7	ND	ND	ND	ND	ND	0.9	97.9	22	80.5	107.1	0
32770	2013-10-24T09:00:00	67.3	ND	ND	ND	ND	ND	1.5	46.3	23.9	73	267.4	0
32771	2013-10-24T10:00:00	58.2	ND	ND	ND	ND	ND	2	86	25	70.3	414.7	0
32772	2013-10-24T11:00:00	50	ND	ND	ND	ND	ND	1.3	81.2	26.3	62.5	651.7	0
32773	2013-10-24T12:00:00	33.9	ND	ND	ND	ND	ND	1.2	66.5	27.8	57.5	556	0
32774	2013-10-24T13:00:00	43.4	ND	ND	ND	ND	ND	0.3	158.3	28.7	54	457.4	0
32775	2013-10-24T14:00:00	25.8	ND	ND	ND	ND	ND	0.8	220.3	29.9	48.3	611.2	0
32776	2013-10-24T15:00:00	17.3	ND	ND	ND	ND	ND	1.2	184.8	30.5	45.5	675.6	0
32777	2013-10-24T16:00:00	24.3	ND	ND	ND	ND	ND	2.7	74.2	28.3	54.8	226	0
32778	2013-10-24T17:00:00	39.5	ND	ND	ND	ND	ND	1.1	53.9	25.6	64.3	48	0
32779	2013-10-24T18:00:00	28.8	ND	ND	ND	ND	ND	0.2	213.7	25.5	65.7	12.1	0
32780	2013-10-24T19:00:00	67.5	ND	ND	ND	ND	ND	0.4	150.3	25.5	66	0	0
32781	2013-10-24T20:00:00	89.3	ND	ND	ND	ND	ND	0.6	71.6	25	69.7	0	0
32782	2013-10-24T21:00:00	104.4	ND	ND	ND	ND	ND	0.5	57.1	24.4	71.4	0	0
32783	2013-10-24T22:00:00	87.3	ND	ND	ND	ND	ND	1	132.8	23.7	73.6	0	0
32784	2013-10-24T23:00:00	72.9	ND	ND	ND	ND	ND	0.8	198.2	23	71.1	0	0
32785	2013-10-25T00:00:00	57	ND	ND	ND	ND	ND	0.2	120.1	23.1	69.7	0	0
32786	2013-10-25T01:00:00	58.6	ND	ND	ND	ND	ND	0.9	72.4	22.5	77.2	0	0
32787	2013-10-25T02:00:00	52.5	ND	ND	ND	ND	ND	0.5	132.6	21.7	81.6	0	0
32788	2013-10-25T03:00:00	45.3	ND	ND	ND	ND	ND	0.9	184.1	21.9	78.8	0	0
32789	2013-10-25T04:00:00	37.7	ND	ND	ND	ND	ND	0.7	142.5	21.5	82	0	0
32790	2013-10-25T05:00:00	36.3	ND	ND	ND	ND	ND	0.7	171.9	21.6	80.8	0	0
32791	2013-10-25T06:00:00	35.1	ND	ND	ND	ND	ND	0.7	151.7	21.4	82	0	0
32792	2013-10-25T07:00:00	51.2	ND	ND	ND	ND	ND	0.6	182	22.1	78.9	57.9	0
32793	2013-10-25T08:00:00	49.1	ND	ND	ND	ND	ND	1.1	152.8	23	74.6	200.8	0
32794	2013-10-25T09:00:00	62.6	ND	ND	ND	ND	ND	1.4	123.6	24.6	68.4	474.7	0
32795	2013-10-25T10:00:00	47.9	ND	ND	ND	ND	ND	1.1	126	25.6	64.3	490.8	0
32796	2013-10-25T11:00:00	51.8	ND	ND	ND	ND	ND	0.5	153.8	27	58.9	673.3	0
32797	2013-10-25T12:00:00	34.4	ND	ND	ND	ND	ND	1.1	86.5	28.1	54.7	608.2	0
32798	2013-10-25T13:00:00	48.4	ND	ND	ND	ND	ND	0.5	73.5	29.9	49	817.9	0
32799	2013-10-25T14:00:00	28.4	ND	ND	ND	ND	ND	0.3	144.6	30.4	46.7	610.7	0
32800	2013-10-25T15:00:00	25.2	ND	ND	ND	ND	ND	2.4	217.1	30.9	43.8	608	0
32801	2013-10-25T16:00:00	14.8	ND	ND	ND	ND	ND	5	216.9	29.3	47.2	416.2	0
32802	2013-10-25T17:00:00	7.4	ND	ND	ND	ND	ND	5	216.3	27.4	52.6	166.3	0
32803	2013-10-25T18:00:00	9.5	ND	ND	ND	ND	ND	4.5	216.7	26.6	54.2	28.7	0
32804	2013-10-25T19:00:00	20.9	ND	ND	ND	ND	ND	5.3	216.4	26.1	53.4	0	0
32805	2013-10-25T20:00:00	11.5	ND	ND	ND	ND	ND	4.1	217	25.8	54.7	0	0
32806	2013-10-25T21:00:00	9.2	ND	ND	ND	ND	ND	2.4	213.3	25.5	56.2	0	0
32807	2013-10-25T22:00:00	5.9	ND	ND	ND	ND	ND	3.2	184.5	22.1	82.5	0	42.42
32808	2013-10-25T23:00:00	4	ND	ND	ND	ND	ND	2	174	22	77.2	0	1.52
32809	2013-10-26T00:00:00	2	ND	ND	ND	ND	ND	0.7	174.8	21.8	79.9	0	0.25
32810	2013-10-26T01:00:00	1	ND	ND	ND	ND	ND	1.3	157.8	21.7	78	0	0
32811	2013-10-26T02:00:00	1.8	ND	ND	ND	ND	ND	1.3	165.5	22.1	78.8	0	0
32812	2013-10-26T03:00:00	1.8	ND	ND	ND	ND	ND	0.2	34.7	22.1	79.3	0	0.25
32813	2013-10-26T04:00:00	6.9	ND	ND	ND	ND	ND	0.7	191.4	21.4	86.1	0	3.81
32814	2013-10-26T05:00:00	8.3	ND	ND	ND	ND	ND	1.8	161.6	20.6	89.8	0	0.76
32815	2013-10-26T06:00:00	13	ND	ND	ND	ND	ND	0.3	46.6	21	87.6	0	0.25
32816	2013-10-26T07:00:00	10.7	ND	ND	ND	ND	ND	0.2	145	21.4	87.7	64.3	0
32817	2013-10-26T08:00:00	15.7	ND	ND	ND	ND	ND	0.3	209.7	22.2	84.9	161.2	0
32818	2013-10-26T09:00:00	54.8	ND	ND	ND	ND	ND	0.9	144	23.5	78.9	351.2	0
32819	2013-10-26T10:00:00	44.9	ND	ND	ND	ND	ND	0.8	138.4	24.7	71.1	466.6	0
32820	2013-10-26T11:00:00	38.8	ND	ND	ND	ND	ND	1	144.5	27.1	60.1	815.6	0
32821	2013-10-26T12:00:00	20	ND	ND	ND	ND	ND	1.1	134.3	28.3	53.9	790.4	0
32822	2013-10-26T13:00:00	36.5	ND	ND	ND	ND	ND	1.1	111.6	30	46.9	888.5	0
32823	2013-10-26T14:00:00	20	ND	ND	ND	ND	ND	1.5	76.6	30.6	45.5	601.9	0
32824	2013-10-26T15:00:00	29.2	ND	ND	ND	ND	ND	2.6	185.9	29.4	48.7	357.3	0
32825	2013-10-26T16:00:00	15.9	ND	ND	ND	ND	ND	4	181	28.5	50	392.2	0
32826	2013-10-26T17:00:00	8.6	ND	ND	ND	ND	ND	4.9	177.5	27.6	52.3	262.8	0
32827	2013-10-26T18:00:00	12.8	ND	ND	ND	ND	ND	4.4	173.6	26	57	11.2	0
32828	2013-10-26T19:00:00	7.9	ND	ND	ND	ND	ND	5.2	172.5	25.3	60	0	0
32829	2013-10-26T20:00:00	5.8	ND	ND	ND	ND	ND	2.6	187.9	25.5	58.2	0	0
32830	2013-10-26T21:00:00	2.9	ND	ND	ND	ND	ND	2.5	178.9	25.1	60	0	0
32831	2013-10-26T22:00:00	2.1	ND	ND	ND	ND	ND	3.2	165.1	24.4	62.8	0	0
32832	2013-10-26T23:00:00	1.9	ND	ND	ND	ND	ND	1.2	152.9	23.8	68.1	0	0
32833	2013-10-27T00:00:00	1.7	ND	ND	ND	ND	ND	0.9	168.9	23.4	70.9	0	0
32834	2013-10-27T01:00:00	21.3	ND	ND	ND	ND	ND	0.3	110.5	23	73.2	0	0
32835	2013-10-27T02:00:00	12.6	ND	ND	ND	ND	ND	0.7	129.9	22.2	77.4	0	0
32836	2013-10-27T03:00:00	21.4	ND	ND	ND	ND	ND	0.4	132.8	21.7	79.2	0	0
32837	2013-10-27T04:00:00	11.5	ND	ND	ND	ND	ND	0.3	129.5	21.7	79.7	0	0
32838	2013-10-27T05:00:00	27.6	ND	ND	ND	ND	ND	0.6	150.6	22	78.8	0	0
32839	2013-10-27T06:00:00	16.9	ND	ND	ND	ND	ND	0.5	146.7	22	77.2	0	0
32840	2013-10-27T07:00:00	23.7	ND	ND	ND	ND	ND	0.8	155.8	22.3	75.6	54.9	0
32841	2013-10-27T08:00:00	20.1	ND	ND	ND	ND	ND	0.2	133	23.2	71	89.9	0
32842	2013-10-27T09:00:00	36	ND	ND	ND	ND	ND	0.8	113.8	24.7	65.3	411.7	0
32843	2013-10-27T10:00:00	35	ND	ND	ND	ND	ND	1.5	140.4	26.9	56.7	743	0
32844	2013-10-27T11:00:00	34.9	ND	ND	ND	ND	ND	0.6	162.5	27.4	55.3	431.3	0
32845	2013-10-27T12:00:00	19.6	ND	ND	ND	ND	ND	1.7	184.6	26.9	54	342.1	0
32846	2013-10-27T13:00:00	11.1	ND	ND	ND	ND	ND	2.6	179.7	28.3	47.4	681	0
32847	2013-10-27T14:00:00	7.1	ND	ND	ND	ND	ND	1.9	185.4	29.6	43.7	797.2	0
32848	2013-10-27T15:00:00	5.6	ND	ND	ND	ND	ND	4.5	179.8	28.7	47.3	585.1	0
32849	2013-10-27T16:00:00	3.5	ND	ND	ND	ND	ND	3.8	176.8	26.6	53.4	246.7	0
32850	2013-10-27T17:00:00	3	ND	ND	ND	ND	ND	2.9	184.7	26.2	51.5	114.4	0
32851	2013-10-27T18:00:00	3.5	ND	ND	ND	ND	ND	1.9	188.6	26.1	50.7	34	0
32852	2013-10-27T19:00:00	10.2	ND	ND	ND	ND	ND	2.3	173.1	25.1	57.9	0	0
32853	2013-10-27T20:00:00	10.5	ND	ND	ND	ND	ND	1.7	146.7	24	66.2	0	0
32854	2013-10-27T21:00:00	21.7	ND	ND	ND	ND	ND	1.3	167.5	23.6	65.3	0	0
32855	2013-10-27T22:00:00	11.8	ND	ND	ND	ND	ND	1.6	168.9	23	66	0	0
32856	2013-10-27T23:00:00	26	ND	ND	ND	ND	ND	1.5	176.7	22.5	68.6	0	0
32857	2013-10-28T00:00:00	14.2	ND	ND	ND	ND	ND	0.2	202.5	21.8	76.3	0	0
32858	2013-10-28T01:00:00	33.5	ND	ND	ND	ND	ND	0.7	22.9	21.3	81.1	0	0
32859	2013-10-28T02:00:00	18.6	ND	ND	ND	ND	ND	0.2	298.8	21.3	80.5	0	0
32860	2013-10-28T03:00:00	10.8	ND	ND	ND	ND	ND	0.1	135.5	21.5	79.5	0	0
32861	2013-10-28T04:00:00	6.6	ND	ND	ND	ND	ND	0.2	152	21.7	76.2	0	0
32862	2013-10-28T05:00:00	11.4	ND	ND	ND	ND	ND	0.7	84.3	21.1	77.5	0	0
32863	2013-10-28T06:00:00	12	ND	ND	ND	ND	ND	1	140.3	20.7	80.4	0	0
32864	2013-10-28T07:00:00	26	ND	ND	ND	ND	ND	0.8	142.6	21	80.4	97.8	0
32865	2013-10-28T08:00:00	13.6	ND	ND	ND	ND	ND	0.6	143.5	22.9	72.1	265	0
32866	2013-10-28T09:00:00	33.4	ND	ND	ND	ND	ND	1.2	77.5	24.4	66.1	465	0
32867	2013-10-28T10:00:00	32.5	ND	ND	ND	ND	ND	1.3	106.2	25.8	60	686.2	0
32868	2013-10-28T11:00:00	25.2	ND	ND	ND	ND	ND	1.5	121.2	27.4	54.3	823.2	0
32869	2013-10-28T12:00:00	14.1	ND	ND	ND	ND	ND	1.2	78.9	28.8	49.7	824.5	0
32870	2013-10-28T13:00:00	32.4	ND	ND	ND	ND	ND	1.3	97.3	29.4	48.2	684.6	0
32871	2013-10-28T14:00:00	20.4	ND	ND	ND	ND	ND	0.8	28.3	30.8	45.8	656.4	0
32872	2013-10-28T15:00:00	34.5	ND	ND	ND	ND	ND	1.1	190.3	30.3	45.5	520.9	0
32873	2013-10-28T16:00:00	18	ND	ND	ND	ND	ND	4.8	177.2	28.9	48.1	469.6	0
32874	2013-10-28T17:00:00	34.9	ND	ND	ND	ND	ND	4.5	177.6	27.6	51.1	253.6	0
32875	2013-10-28T18:00:00	ND	ND	ND	ND	ND	ND	5.8	175.6	26.2	55.6	38.5	0
32876	2013-10-28T19:00:00	ND	ND	ND	ND	ND	ND	5.8	171.5	25.6	57.2	0	0
32877	2013-10-28T20:00:00	63.9	ND	ND	ND	ND	ND	2.1	181.5	25.6	56.7	0	0
32878	2013-10-28T21:00:00	35.1	ND	ND	ND	ND	ND	2.3	165.8	25.1	59.4	0	0
32879	2013-10-28T22:00:00	18.8	ND	ND	ND	ND	ND	3.3	161.7	24.5	62.3	0	0
32880	2013-10-28T23:00:00	13.3	ND	ND	ND	ND	ND	2.4	175.2	24.3	63	0	0
32881	2013-10-29T00:00:00	7.6	ND	ND	ND	ND	ND	1.7	175.6	24.1	63.4	0	0
32882	2013-10-29T01:00:00	5.4	ND	ND	ND	ND	ND	0.5	159.5	23.7	65.6	0	0
32883	2013-10-29T02:00:00	34.8	ND	ND	ND	ND	ND	0.6	61.5	22.3	73.2	0	0
32884	2013-10-29T03:00:00	29	ND	ND	ND	ND	ND	0.5	127	22.5	72.1	0	0
32885	2013-10-29T04:00:00	16.5	ND	ND	ND	ND	ND	0.9	149.6	22.4	73.1	0	0
32886	2013-10-29T05:00:00	30.3	ND	ND	ND	ND	ND	1.3	148.7	22.5	74.1	0	0
32887	2013-10-29T06:00:00	16.4	ND	ND	ND	ND	ND	1.3	139.6	22.2	75.7	0	0
32888	2013-10-29T07:00:00	27.9	ND	ND	ND	ND	ND	0.6	134.6	22.1	76.9	39.1	0
32889	2013-10-29T08:00:00	19	ND	ND	ND	ND	ND	0.5	137.5	23.2	72	138.8	0
32890	2013-10-29T09:00:00	42.2	ND	ND	ND	ND	ND	1.1	142.1	24.3	67.2	210.7	0
32891	2013-10-29T10:00:00	27.5	ND	ND	ND	ND	ND	1.7	127.2	25	65.8	322.8	0
32892	2013-10-29T11:00:00	33.9	ND	ND	ND	ND	ND	1.1	144.4	26.6	59.3	771.8	0
32893	2013-10-29T12:00:00	19	ND	ND	ND	ND	ND	0.6	161.2	28.2	52.2	508	0
32894	2013-10-29T13:00:00	22.9	ND	ND	ND	ND	ND	0.9	81.6	28.6	50.4	389.3	0
32895	2013-10-29T14:00:00	20.8	ND	ND	ND	ND	ND	2.3	165	28.9	47.5	458	0
32896	2013-10-29T15:00:00	11	ND	ND	ND	ND	ND	4.8	178	29.4	45.1	648.2	0
32897	2013-10-29T16:00:00	23.2	ND	ND	ND	ND	ND	2	144.7	25.7	62	116.4	0
32898	2013-10-29T17:00:00	40.6	ND	ND	ND	ND	ND	2.1	147.2	22.2	75.1	6.4	0
32899	2013-10-29T18:00:00	27	ND	ND	ND	ND	ND	1.3	136.8	21.2	84.5	0	8.64
32900	2013-10-29T19:00:00	21.6	ND	ND	ND	ND	ND	0.8	84.2	20.4	88.6	0	2.29
32901	2013-10-29T20:00:00	12.1	ND	ND	ND	ND	ND	0.8	149.4	20.5	89.3	0	0.51
32902	2013-10-29T21:00:00	18.4	ND	ND	ND	ND	ND	1.2	140.2	20.4	89.8	0	0.25
32903	2013-10-29T22:00:00	10	ND	ND	ND	ND	ND	0.9	137.9	20.1	90.2	0	0
32904	2013-10-29T23:00:00	6.6	ND	ND	ND	ND	ND	0.8	140.5	20	90.9	0	0.76
32905	2013-10-30T00:00:00	3.8	ND	ND	ND	ND	ND	0.7	137.6	19.8	91.8	0	0.51
32906	2013-10-30T01:00:00	1.9	ND	ND	ND	ND	ND	0.6	160.2	20.2	89.8	0	0
32907	2013-10-30T02:00:00	2.1	ND	ND	ND	ND	ND	0.2	147.1	20.8	86.2	0	0.25
32908	2013-10-30T03:00:00	1.6	ND	ND	ND	ND	ND	0.6	83.3	20.7	87.8	0	0
32909	2013-10-30T04:00:00	2	ND	ND	ND	ND	ND	0.6	89.8	19.7	92.3	0	0
32910	2013-10-30T05:00:00	20.8	ND	ND	ND	ND	ND	0.3	113.4	19.7	92.1	0	0
32911	2013-10-30T06:00:00	11.8	ND	ND	ND	ND	ND	0.1	74.9	19.8	92.3	0	0
32912	2013-10-30T07:00:00	35.7	ND	ND	ND	ND	ND	1	107.4	19.5	91.7	12.8	0
32913	2013-10-30T08:00:00	19	ND	ND	ND	ND	ND	0.9	147.9	19.6	89.8	32.4	0
32914	2013-10-30T09:00:00	33.9	ND	ND	ND	ND	ND	0.4	109.2	20.7	84.3	152	0
32915	2013-10-30T10:00:00	35.8	ND	ND	ND	ND	ND	0.7	74.2	22.4	76.5	393.9	0
32916	2013-10-30T11:00:00	48.8	ND	ND	ND	ND	ND	1.2	63.6	24	70.5	616.8	0
32917	2013-10-30T12:00:00	27.4	ND	ND	ND	ND	ND	1.4	80.3	25.4	63.5	727.2	0
32918	2013-10-30T13:00:00	38.7	ND	ND	ND	ND	ND	0.9	90.8	26.6	60.4	702.1	0
32919	2013-10-30T14:00:00	31.3	ND	ND	ND	ND	ND	1.1	112.2	27.6	56.5	598.1	0
32920	2013-10-30T15:00:00	57	ND	ND	ND	ND	ND	0.9	2.2	27.3	58.7	232.5	0
32921	2013-10-30T16:00:00	37.6	ND	ND	ND	ND	ND	0.7	89.7	27.8	54.2	397.1	0
32922	2013-10-30T17:00:00	26.6	ND	ND	ND	ND	ND	3	170.5	27.1	54.4	188.7	0
32923	2013-10-30T18:00:00	22.8	ND	ND	ND	ND	ND	4.4	173.9	25.3	59.3	22.8	0
32924	2013-10-30T19:00:00	11.9	ND	ND	ND	ND	ND	4.1	171.7	24.6	60	0	0
32925	2013-10-30T20:00:00	7.3	ND	ND	ND	ND	ND	4.5	175.6	24.3	59.4	0	0
32926	2013-10-30T21:00:00	5.3	ND	ND	ND	ND	ND	4.5	183.8	24.3	58.1	0	0
32927	2013-10-30T22:00:00	2.7	ND	ND	ND	ND	ND	3	168.2	24.1	60.2	0	0
32928	2013-10-30T23:00:00	1.3	ND	ND	ND	ND	ND	2.8	152.2	22.6	74	0	0
32929	2013-10-31T00:00:00	2.2	ND	ND	ND	ND	ND	2.1	152.1	21.7	79.4	0	0
32930	2013-10-31T01:00:00	3	ND	ND	ND	ND	ND	1.6	152.6	21.2	83.3	0	0
32931	2013-10-31T02:00:00	1.5	ND	ND	ND	ND	ND	1	150.1	21.2	83.5	0	0
32932	2013-10-31T03:00:00	0.8	ND	ND	ND	ND	ND	0.4	148.4	21.1	85.2	0	0.25
32933	2013-10-31T04:00:00	1.5	ND	ND	ND	ND	ND	1.2	30.6	20.2	90.2	0	4.06
32934	2013-10-31T05:00:00	2.3	ND	ND	ND	ND	ND	1	51.4	19.4	93.9	0	12.19
32935	2013-10-31T06:00:00	2.8	ND	ND	ND	ND	ND	0.5	64.6	19.1	95.4	0	5.59
32936	2013-10-31T07:00:00	2.8	ND	ND	ND	ND	ND	1.5	142.9	19.2	95.2	5.5	1.78
32937	2013-10-31T08:00:00	2.2	ND	ND	ND	ND	ND	1.1	149.5	19.2	94.1	37.2	2.29
32938	2013-10-31T09:00:00	3.6	ND	ND	ND	ND	ND	1	151.7	19.6	93.1	91.8	1.52
32939	2013-10-31T10:00:00	1.8	ND	ND	ND	ND	ND	1.2	164	20.7	87.8	325.6	0.25
32940	2013-10-31T11:00:00	0.9	ND	ND	ND	ND	ND	1.3	164.3	22.6	73.1	302	0.25
32941	2013-10-31T12:00:00	1.5	ND	ND	ND	ND	ND	1.5	151	22.8	72	219.3	0
32942	2013-10-31T13:00:00	2.3	ND	ND	ND	ND	ND	2.1	139.3	22.3	75.9	269.4	0
32943	2013-10-31T14:00:00	1.6	ND	ND	ND	ND	ND	1.9	132.8	23	70.2	388.3	0
32944	2013-10-31T15:00:00	17.7	ND	ND	ND	ND	ND	1.3	137.6	23.4	66	245.8	0
32945	2013-10-31T16:00:00	9.9	ND	ND	ND	ND	ND	1.1	145.8	23.6	65	202.2	0
32946	2013-10-31T17:00:00	22.7	ND	ND	ND	ND	ND	1.3	139.8	23.3	66	74	0
32947	2013-10-31T18:00:00	36.1	ND	ND	ND	ND	ND	1.2	145.2	22.7	68.9	11.4	0
32948	2013-10-31T19:00:00	34.2	ND	ND	ND	ND	ND	0.6	152.1	22.4	71.6	0	0
32949	2013-10-31T20:00:00	23.4	ND	ND	ND	ND	ND	0.5	71.7	22.4	72.3	0	0
32950	2013-10-31T21:00:00	74.5	ND	ND	ND	ND	ND	0.6	132.4	22.2	73.9	0	0
32951	2013-10-31T22:00:00	43	ND	ND	ND	ND	ND	0.4	ND	22	74.2	0	0
32952	2013-10-31T23:00:00	70.3	ND	ND	ND	ND	ND	0.5	ND	21.5	75.4	0	0
32953	2013-11-01T00:00:00	41.4	ND	ND	ND	ND	ND	0.5	191.2	20.8	78.4	0	0
32954	2013-11-01T01:00:00	23.9	ND	ND	ND	ND	ND	0.9	155.8	20.5	73.9	0	0
32955	2013-11-01T02:00:00	12.8	ND	ND	ND	ND	ND	0.8	156.3	20.4	76.1	0	0
32956	2013-11-01T03:00:00	17.9	ND	ND	ND	ND	ND	0.3	ND	20.5	74.2	0	0
32957	2013-11-01T04:00:00	9.6	ND	ND	ND	ND	ND	0.3	ND	20.1	82.7	0	0
32958	2013-11-01T05:00:00	15.2	ND	ND	ND	ND	ND	0.1	ND	19.9	82.5	0	0
32959	2013-11-01T06:00:00	12.6	ND	ND	ND	ND	ND	0.1	ND	19.8	84.9	0	0
32960	2013-11-01T07:00:00	39.6	ND	ND	ND	ND	ND	0.3	ND	19.9	82.3	57.2	0
32961	2013-11-01T08:00:00	41.9	ND	ND	ND	ND	ND	0.2	ND	21.1	78.4	190.3	0
32962	2013-11-01T09:00:00	63.4	ND	ND	ND	ND	ND	1.3	134.3	22.3	74	288.2	0
32963	2013-11-01T10:00:00	32.3	ND	ND	ND	ND	ND	2.1	140.6	22.7	72.2	393.3	0
32964	2013-11-01T11:00:00	30	ND	ND	ND	ND	ND	1.6	135.1	23.6	66.3	411.4	0
32965	2013-11-01T12:00:00	15.8	ND	ND	ND	ND	ND	1.7	123.7	24.6	61.8	740.8	0
32966	2013-11-01T13:00:00	ND	ND	ND	ND	ND	ND	1.7	135	25.7	55.5	533.7	0
32967	2013-11-01T14:00:00	ND	ND	ND	ND	ND	ND	2.5	153.8	24.8	58.5	221.5	0
32968	2013-11-01T15:00:00	ND	ND	ND	ND	ND	ND	2.4	153.3	23.3	66.7	330.6	0
32969	2013-11-01T16:00:00	60.6	ND	ND	ND	ND	ND	0.6	75.8	26.1	54.5	423.2	0
32970	2013-11-01T17:00:00	39.6	ND	ND	ND	ND	ND	1.7	35.6	24.9	62	67.2	0
32971	2013-11-01T18:00:00	53.5	ND	ND	ND	ND	ND	1.5	37.8	22.9	73.3	5.1	0
32972	2013-11-01T19:00:00	34.6	ND	ND	ND	ND	ND	1.4	198.8	21.3	78.4	0	5.33
32973	2013-11-01T20:00:00	17.3	ND	ND	ND	ND	ND	1.1	40.3	20.6	83.8	0	0.25
32974	2013-11-01T21:00:00	10.6	ND	ND	ND	ND	ND	0.7	145.1	20.5	86	0	0
32975	2013-11-01T22:00:00	6.2	ND	ND	ND	ND	ND	1.4	154.7	20.6	83.6	0	0
32976	2013-11-01T23:00:00	6.7	ND	ND	ND	ND	ND	1.3	154.2	20.4	85	0	0
32977	2013-11-02T00:00:00	4.2	ND	ND	ND	ND	ND	1	161.4	20.4	82.1	0	0
32978	2013-11-02T01:00:00	3.3	ND	ND	ND	ND	ND	0.3	182.9	20.5	79.2	0	0
32979	2013-11-02T02:00:00	5.1	ND	ND	ND	ND	ND	0.6	39.7	20.1	85.6	0	0
32980	2013-11-02T03:00:00	40.4	ND	ND	ND	ND	ND	0.4	71.3	19.6	90.7	0	0
32981	2013-11-02T04:00:00	26.8	ND	ND	ND	ND	ND	0.4	72	19.5	91.5	0	0
32982	2013-11-02T05:00:00	52	ND	ND	ND	ND	ND	0.5	233.5	19.5	91.1	0	0.25
32983	2013-11-02T06:00:00	27.4	ND	ND	ND	ND	ND	0.3	ND	19.4	88.3	0	0
32984	2013-11-02T07:00:00	41	ND	ND	ND	ND	ND	0.2	ND	19.8	88.6	42.8	0.25
32985	2013-11-02T08:00:00	22.2	ND	ND	ND	ND	ND	0.1	ND	20.4	83.6	96.9	0
32986	2013-11-02T09:00:00	42.4	ND	ND	ND	ND	ND	0.9	138.4	21	83.3	177.6	0
32987	2013-11-02T10:00:00	42.6	ND	ND	ND	ND	ND	1.5	147.2	22.3	76.6	409.2	0
32988	2013-11-02T11:00:00	52.1	ND	ND	ND	ND	ND	1.9	142.3	22.9	73.9	341.4	0
32989	2013-11-02T12:00:00	28	ND	ND	ND	ND	ND	1.7	133.8	24.3	65.8	620.1	0
32990	2013-11-02T13:00:00	22.7	ND	ND	ND	ND	ND	1.4	152	25.1	60.8	435.6	0
32991	2013-11-02T14:00:00	11.9	ND	ND	ND	ND	ND	0.6	187.6	25	58.9	275.7	0
32992	2013-11-02T15:00:00	21.4	ND	ND	ND	ND	ND	0.2	70.8	25.5	52.4	243.3	0
32993	2013-11-02T16:00:00	12.6	ND	ND	ND	ND	ND	0.2	131	26.3	54.2	250.6	0
32994	2013-11-02T17:00:00	15.3	ND	ND	ND	ND	ND	1.8	188.2	25.7	54.9	97	0
32995	2013-11-02T18:00:00	9.1	ND	ND	ND	ND	ND	3.1	173.1	24.6	56.1	17.1	0
32996	2013-11-02T19:00:00	5.8	ND	ND	ND	ND	ND	3.4	185.2	24	57.4	0	0
32997	2013-11-02T20:00:00	4.5	ND	ND	ND	ND	ND	2.5	185.5	23.6	59.2	0	0
32998	2013-11-02T21:00:00	2.9	ND	ND	ND	ND	ND	0.8	170	23.1	61.9	0	0
32999	2013-11-02T22:00:00	2.5	ND	ND	ND	ND	ND	1.6	161.2	22.7	65	0	0
33000	2013-11-02T23:00:00	ND	ND	ND	ND	ND	ND	1.6	168.4	22.9	63.1	0	0
33001	2013-11-03T00:00:00	ND	ND	ND	ND	ND	ND	3.2	150.5	21.5	77	0	0
33002	2013-11-03T01:00:00	ND	ND	ND	ND	ND	ND	2.7	150.8	20.4	83.6	0	0
33003	2013-11-03T02:00:00	ND	ND	ND	ND	ND	ND	1.4	151.2	20.2	83.3	0	0
33004	2013-11-03T03:00:00	ND	ND	ND	ND	ND	ND	0.5	143.7	20.4	82.9	0	0
33005	2013-11-03T04:00:00	ND	ND	ND	ND	ND	ND	0.5	143.4	20.3	84	0	0
33006	2013-11-03T05:00:00	ND	ND	ND	ND	ND	ND	0.4	ND	20.2	84.2	0	0
33007	2013-11-03T06:00:00	ND	ND	ND	ND	ND	ND	0.1	ND	20.1	86.3	0	0
33008	2013-11-03T07:00:00	ND	ND	ND	ND	ND	ND	0.1	ND	20.2	85.2	47.3	0
33009	2013-11-03T08:00:00	ND	ND	ND	ND	ND	ND	0.2	ND	21.2	78.4	189.2	0
33010	2013-11-03T09:00:00	ND	ND	ND	ND	ND	ND	1.2	148.9	22.5	71.2	396.7	0
33011	2013-11-03T10:00:00	98.1	ND	ND	ND	ND	ND	2	141.1	24.5	63.6	758.4	0
33012	2013-11-03T11:00:00	50.6	ND	ND	ND	ND	ND	2.1	138.1	25.4	59.7	740	0
33013	2013-11-03T12:00:00	26	ND	ND	ND	ND	ND	1.5	149.8	26.7	52.8	638.1	0
33014	2013-11-03T13:00:00	14.4	ND	ND	ND	ND	ND	1.8	150	27.2	51.9	619.9	0
33015	2013-11-03T14:00:00	9.1	ND	ND	ND	ND	ND	1.6	203.8	27.2	50.5	428.1	0
33016	2013-11-03T15:00:00	6.3	ND	ND	ND	ND	ND	2.7	199.9	27	49.2	331.2	0
33017	2013-11-03T16:00:00	5	ND	ND	ND	ND	ND	2	179.2	27.8	45.9	385.9	0
33018	2013-11-03T17:00:00	2.5	ND	ND	ND	ND	ND	2.9	174.1	27	48.6	126.2	0
33019	2013-11-03T18:00:00	3.5	ND	ND	ND	ND	ND	4	174.8	25.2	55.2	15.4	0
33020	2013-11-03T19:00:00	3.7	ND	ND	ND	ND	ND	4.6	175.8	24.2	59.5	0	0
33021	2013-11-03T20:00:00	5.5	ND	ND	ND	ND	ND	3	184.4	24.5	56.3	0	0
33022	2013-11-03T21:00:00	3.4	ND	ND	ND	ND	ND	4.7	176.5	24.1	57.7	0	0
33023	2013-11-03T22:00:00	1.7	ND	ND	ND	ND	ND	3.4	177.7	23.8	57.9	0	0
33024	2013-11-03T23:00:00	0.9	ND	ND	ND	ND	ND	0.7	162.4	23.3	61.8	0	0
33025	2013-11-04T00:00:00	1.9	ND	ND	ND	ND	ND	3.8	173.3	20.3	80	0	16
33026	2013-11-04T01:00:00	1.5	ND	ND	ND	ND	ND	2.5	160.9	19.3	89.2	0	3.81
33027	2013-11-04T02:00:00	1.7	ND	ND	ND	ND	ND	1.7	159	20.6	79	0	0
33028	2013-11-04T03:00:00	2	ND	ND	ND	ND	ND	0.8	154.4	20.8	77.6	0	0
33029	2013-11-04T04:00:00	2	ND	ND	ND	ND	ND	0.8	149.3	20.2	87.4	0	0
33030	2013-11-04T05:00:00	2.8	ND	ND	ND	ND	ND	1	144	19.8	87.5	0	0.25
33031	2013-11-04T06:00:00	2.4	ND	ND	ND	ND	ND	1.5	150.9	19.3	86	0	0
33032	2013-11-04T07:00:00	ND	ND	ND	ND	ND	ND	1.4	154.2	19	88.6	9	0
33033	2013-11-04T08:00:00	ND	ND	ND	ND	ND	ND	1.6	153.4	19.1	89.3	24.8	0
33034	2013-11-04T09:00:00	ND	ND	ND	ND	ND	ND	1.7	153.4	19.2	88	70.2	0
33035	2013-11-04T10:00:00	ND	ND	ND	ND	ND	ND	1.8	149.7	19.8	85.1	163.3	0.25
33036	2013-11-04T11:00:00	ND	ND	ND	ND	ND	ND	1.6	148.2	21	79.2	346.3	0
33037	2013-11-04T12:00:00	ND	ND	ND	ND	ND	ND	1.6	139.6	22.5	72.3	530.6	0
33038	2013-11-04T13:00:00	ND	ND	ND	ND	ND	ND	1.4	142.3	23.4	67.7	489.5	0
33039	2013-11-04T14:00:00	ND	ND	ND	ND	ND	ND	1.4	150.4	24.2	64.3	481.7	0
33040	2013-11-04T15:00:00	ND	ND	ND	ND	ND	ND	1.4	143.4	24.4	63.3	298.6	0
33041	2013-11-04T16:00:00	ND	ND	ND	ND	ND	ND	1.1	141	24.2	63.7	201.3	0
33042	2013-11-04T17:00:00	ND	ND	ND	ND	ND	ND	0.7	125.6	24.2	64.8	100.9	0
33043	2013-11-04T18:00:00	ND	ND	ND	ND	ND	ND	1	139.9	23.7	66.7	26.5	0
33044	2013-11-04T19:00:00	ND	ND	ND	ND	ND	ND	0.9	143.7	22.9	70.5	0	0
33045	2013-11-04T20:00:00	ND	ND	ND	ND	ND	ND	0.8	156.8	22.3	75.2	0	0
33046	2013-11-04T21:00:00	ND	ND	ND	ND	ND	ND	0.9	162.3	21.7	77	0	0
33047	2013-11-04T22:00:00	ND	ND	ND	ND	ND	ND	0.9	174.6	21.3	76.9	0	0
33048	2013-11-04T23:00:00	ND	ND	ND	ND	ND	ND	0.4	163.8	21	77.5	0	0
33049	2013-11-05T00:00:00	ND	ND	ND	ND	ND	ND	0	ND	20.5	80.5	0	0
33050	2013-11-05T01:00:00	ND	ND	ND	ND	ND	ND	0.1	ND	20.6	79.7	0	0
33051	2013-11-05T02:00:00	ND	ND	ND	ND	ND	ND	0.7	156.2	20.4	76.5	0	0
33052	2013-11-05T03:00:00	ND	ND	ND	ND	ND	ND	1.1	148.2	20.1	81.9	0	0
33053	2013-11-05T04:00:00	ND	ND	ND	ND	ND	ND	0.4	ND	19.6	84.2	0	0
33054	2013-11-05T05:00:00	ND	ND	ND	ND	ND	ND	0.3	ND	19.8	82.9	0	0
33055	2013-11-05T06:00:00	ND	ND	ND	ND	ND	ND	0.5	179.3	19.8	80.3	0	0
33056	2013-11-05T07:00:00	ND	ND	ND	ND	ND	ND	0.6	160.5	20.1	76.5	40.3	0
33057	2013-11-05T08:00:00	ND	ND	ND	ND	ND	ND	0.2	69.7	21	76.4	135	0
33058	2013-11-05T09:00:00	ND	ND	ND	ND	ND	ND	1.1	113.2	22.5	74.1	340	0
33059	2013-11-05T10:00:00	95.7	ND	ND	ND	ND	ND	0.9	111.9	23.5	70.3	413.7	0
33060	2013-11-05T11:00:00	74.5	ND	ND	ND	ND	ND	1.3	128.8	25.2	62.7	610.9	0
33061	2013-11-05T12:00:00	37.9	ND	ND	ND	ND	ND	1.1	105.2	26.3	57.9	459.7	0
33062	2013-11-05T13:00:00	36	ND	ND	ND	ND	ND	0.5	67.4	26.7	55.9	315.7	0
33063	2013-11-05T14:00:00	25.3	ND	ND	ND	ND	ND	2	188.6	27.4	53.2	662.3	0
33064	2013-11-05T15:00:00	ND	ND	ND	ND	ND	ND	2.5	168.7	27.6	51.8	473.5	0
33065	2013-11-05T16:00:00	ND	ND	ND	ND	ND	ND	1.7	160.4	27.7	52	322.9	0
33066	2013-11-05T17:00:00	ND	ND	ND	ND	ND	ND	1.1	132.2	25.5	66.9	83.4	0.25
33067	2013-11-05T18:00:00	ND	ND	ND	ND	ND	ND	0.7	165.1	26	61.7	14.6	0
33068	2013-11-05T19:00:00	ND	ND	ND	ND	ND	ND	0.4	ND	25.6	63.6	0	0
33069	2013-11-05T20:00:00	ND	ND	ND	ND	ND	ND	0.8	161.9	24.4	67.7	0	0
33070	2013-11-05T21:00:00	ND	ND	ND	ND	ND	ND	1.1	135.4	23.6	71.2	0	0
33071	2013-11-05T22:00:00	ND	ND	ND	ND	ND	ND	0.6	129.7	22.7	76.3	0	0
33072	2013-11-05T23:00:00	ND	ND	ND	ND	ND	ND	0.9	166.4	22.2	75.9	0	0
33073	2013-11-06T00:00:00	ND	ND	ND	ND	ND	ND	1.1	185.4	22.2	71.7	0	0
33074	2013-11-06T01:00:00	ND	ND	ND	ND	ND	ND	0.3	40.9	22.1	75.9	0	0
33075	2013-11-06T02:00:00	ND	ND	ND	ND	ND	ND	0.8	112.2	21.4	80.7	0	0
33076	2013-11-06T03:00:00	ND	ND	ND	ND	ND	ND	0.8	155.2	21	83	0	0
33077	2013-11-06T04:00:00	ND	ND	ND	ND	ND	ND	1	155.5	21	81.8	0	0
33078	2013-11-06T05:00:00	ND	ND	ND	ND	ND	ND	0.7	167.2	21.1	79.4	0	0
33079	2013-11-06T06:00:00	ND	ND	ND	ND	ND	ND	0.4	78.8	21.1	79.6	0	0
33080	2013-11-06T07:00:00	ND	ND	ND	ND	ND	ND	0.3	55.5	20.8	82.7	35.4	0
33081	2013-11-06T08:00:00	ND	ND	ND	ND	ND	ND	0.6	127.2	21.5	81	152.1	0
33082	2013-11-06T09:00:00	ND	ND	ND	ND	ND	ND	0.4	160	22.5	76.9	259.4	0
33083	2013-11-06T10:00:00	ND	ND	ND	ND	ND	ND	1.1	134.5	24.4	68	478	0
33084	2013-11-06T11:00:00	ND	ND	ND	ND	ND	ND	1.1	121.8	26	60.6	734.8	0
33085	2013-11-06T12:00:00	ND	ND	ND	ND	ND	ND	2	122	27.4	55.9	653.4	0
33086	2013-11-06T13:00:00	ND	ND	ND	ND	ND	ND	1.6	128.6	28.1	53.6	592.4	0
33087	2013-11-06T14:00:00	ND	ND	ND	ND	ND	ND	2.6	208.4	26.9	56.1	221.4	0
33088	2013-11-06T15:00:00	82.8	ND	ND	ND	ND	ND	3.4	184.3	26	56.5	249.3	0
33089	2013-11-06T16:00:00	42.6	ND	ND	ND	ND	ND	4.6	186.5	25.8	51.7	193.4	0
33090	2013-11-06T17:00:00	22.6	ND	ND	ND	ND	ND	4.5	176.5	25.9	50.9	127.4	0
33091	2013-11-06T18:00:00	12.2	ND	ND	ND	ND	ND	3.7	180.2	25.1	52.8	33.6	0
33092	2013-11-06T19:00:00	8.6	ND	ND	ND	ND	ND	2.5	164.3	24.3	58.1	0	0
33093	2013-11-06T20:00:00	12.8	ND	ND	ND	ND	ND	2.9	150.5	23.2	72.5	0	0
33094	2013-11-06T21:00:00	ND	ND	ND	ND	ND	ND	1.7	146.9	22.4	75.6	0	0
33095	2013-11-06T22:00:00	ND	ND	ND	ND	ND	ND	0.8	146.6	22.3	75.7	0	0
33096	2013-11-06T23:00:00	ND	ND	ND	ND	ND	ND	0.4	ND	22.2	73.4	0	0
33097	2013-11-07T00:00:00	ND	ND	ND	ND	ND	ND	0.6	66.7	21.5	79.1	0	0
33098	2013-11-07T01:00:00	ND	ND	ND	ND	ND	ND	0.8	29.2	20.9	80.8	0	0
33099	2013-11-07T02:00:00	ND	ND	ND	ND	ND	ND	1.1	163.2	20.7	73.6	0	0
33100	2013-11-07T03:00:00	ND	ND	ND	ND	ND	ND	0.7	153.4	20.8	78.2	0	0
33101	2013-11-07T04:00:00	ND	ND	ND	ND	ND	ND	0.6	135.6	20.4	84	0	0
33102	2013-11-07T05:00:00	ND	ND	ND	ND	ND	ND	1.1	156.3	20.2	81.5	0	0
33103	2013-11-07T06:00:00	93	ND	ND	ND	ND	ND	0.9	158.2	20.5	76.6	0	0
33104	2013-11-07T07:00:00	50.9	ND	ND	ND	ND	ND	0.8	137.9	20.7	82.5	52	0
33105	2013-11-07T08:00:00	53.5	ND	ND	ND	ND	ND	0.4	51.4	21	83.9	107.1	0
33106	2013-11-07T09:00:00	78	ND	ND	ND	ND	ND	0.6	149.8	22.1	78.5	293.5	0
33107	2013-11-07T10:00:00	58.4	ND	ND	ND	ND	ND	1	138.8	24.6	66.8	460	0
33108	2013-11-07T11:00:00	47.8	ND	ND	ND	ND	ND	0.6	102	26	59.8	605.1	0
33109	2013-11-07T12:00:00	37.9	ND	ND	ND	ND	ND	1.1	77.9	27.4	55.1	682.1	0
33110	2013-11-07T13:00:00	40.2	ND	ND	ND	ND	ND	1.6	65.9	28.7	51.2	624.2	0
33111	2013-11-07T14:00:00	32.2	ND	ND	ND	ND	ND	1.3	171.6	27.6	51.7	117.3	0
33112	2013-11-07T15:00:00	ND	ND	ND	ND	ND	ND	4	179.6	26.8	52.7	376.1	0
33113	2013-11-07T16:00:00	ND	ND	ND	ND	ND	ND	5.2	177.6	26	52	270.6	0
33114	2013-11-07T17:00:00	ND	ND	ND	ND	ND	ND	6.1	176.8	25.8	47.7	212.7	0
33115	2013-11-07T18:00:00	ND	ND	ND	ND	ND	ND	5.3	183.2	25.1	49.7	52.3	0
33116	2013-11-07T19:00:00	ND	ND	ND	ND	ND	ND	5.2	184.9	24.4	53.3	0	0
33117	2013-11-07T20:00:00	ND	ND	ND	ND	ND	ND	4.3	182.1	23.9	58	0	0
33118	2013-11-07T21:00:00	ND	ND	ND	ND	ND	ND	2.6	172	23.6	61.9	0	0.25
33119	2013-11-07T22:00:00	107.7	ND	ND	ND	ND	ND	2	174.8	22.2	71.4	0	1.78
33120	2013-11-07T23:00:00	60.9	ND	ND	ND	ND	ND	0.2	131.1	22.2	72.2	0	0
33121	2013-11-08T00:00:00	32.3	ND	ND	ND	ND	ND	1.1	151.2	21.8	76.9	0	0
33122	2013-11-08T01:00:00	17	ND	ND	ND	ND	ND	0.6	150.4	21.4	81.5	0	0
33123	2013-11-08T02:00:00	10.6	ND	ND	ND	ND	ND	0.1	ND	21.2	79.6	0	0
33124	2013-11-08T03:00:00	6.1	ND	ND	ND	ND	ND	0.9	165.5	20.7	76.1	0	0
33125	2013-11-08T04:00:00	3	ND	ND	ND	ND	ND	1.2	162.5	20.1	75.3	0	0
33126	2013-11-08T05:00:00	ND	ND	ND	ND	ND	ND	1.5	162	19.8	74.7	0	0
33127	2013-11-08T06:00:00	ND	ND	ND	ND	ND	ND	1	164.4	19.8	74	0	0
33128	2013-11-08T07:00:00	ND	ND	ND	ND	ND	ND	0.4	193.5	20.1	75.3	63.2	0
33129	2013-11-08T08:00:00	ND	ND	ND	ND	ND	ND	0	22.7	21.7	71.6	257.9	0
33130	2013-11-08T09:00:00	ND	ND	ND	ND	ND	ND	0.6	121.6	23.8	63.2	461.6	0
33131	2013-11-08T10:00:00	ND	ND	ND	ND	ND	ND	0.9	118.7	25.8	55.7	663.2	0
33132	2013-11-08T11:00:00	ND	ND	ND	ND	ND	ND	1	149.6	27.1	51.4	793.3	0
33133	2013-11-08T12:00:00	ND	ND	ND	ND	ND	ND	1.3	95.5	28.2	47.4	627.8	0
33134	2013-11-08T13:00:00	ND	ND	ND	ND	ND	ND	0.7	117	29.1	45.1	553.6	0
33135	2013-11-08T14:00:00	ND	ND	ND	ND	ND	ND	2.1	202.4	29.2	44.7	639.9	0
33136	2013-11-08T15:00:00	ND	ND	ND	ND	ND	ND	4.5	180.5	29.1	45.6	686.1	0
33137	2013-11-08T16:00:00	ND	ND	ND	ND	ND	ND	5.1	181.6	28	48.8	441.4	0
33138	2013-11-08T17:00:00	ND	ND	ND	ND	ND	ND	5.6	172.4	26.2	54.8	151.2	0
33139	2013-11-08T18:00:00	ND	ND	ND	ND	ND	ND	5.8	181.9	24.8	59.4	25.1	0
33140	2013-11-08T19:00:00	ND	ND	ND	ND	ND	ND	4.7	179.4	24.9	56.5	0	0
33141	2013-11-08T20:00:00	ND	ND	ND	ND	ND	ND	2.7	179.5	25.2	54.1	0	0
33142	2013-11-08T21:00:00	ND	ND	ND	ND	ND	ND	3.2	162.9	24.3	58.9	0	0
33143	2013-11-08T22:00:00	ND	ND	ND	ND	ND	ND	2.6	172	24.1	59.9	0	0
33144	2013-11-08T23:00:00	ND	ND	ND	ND	ND	ND	2.2	161.4	24	60.6	0	0
33145	2013-11-09T00:00:00	ND	ND	ND	ND	ND	ND	1.8	154.6	23.4	64.8	0	0
33146	2013-11-09T01:00:00	ND	ND	ND	ND	ND	ND	1.2	145.6	22.9	70.5	0	0
33147	2013-11-09T02:00:00	ND	ND	ND	ND	ND	ND	1.5	128.8	22	76.8	0	0
33148	2013-11-09T03:00:00	ND	ND	ND	ND	ND	ND	1.4	138.8	21.6	80.3	0	0
33149	2013-11-09T04:00:00	90.4	ND	ND	ND	ND	ND	1.5	138.8	21	81.7	0	0
33150	2013-11-09T05:00:00	47.3	ND	ND	ND	ND	ND	1	134	20.5	85.4	0	0
33151	2013-11-09T06:00:00	24.8	ND	ND	ND	ND	ND	0.5	ND	20.5	86	0	0
33152	2013-11-09T07:00:00	27.1	ND	ND	ND	ND	ND	0.3	ND	21.1	81.4	57.5	0
33153	2013-11-09T08:00:00	20.7	ND	ND	ND	ND	ND	1	139.1	22.8	74	254.3	0
33154	2013-11-09T09:00:00	25.7	ND	ND	ND	ND	ND	1.5	136.1	23.9	69.1	394	0
33155	2013-11-09T10:00:00	13.9	ND	ND	ND	ND	ND	1.7	137.1	25.3	61.2	573.9	0
33156	2013-11-09T11:00:00	7.9	ND	ND	ND	ND	ND	1.5	135	26.9	55.4	774.4	0
33157	2013-11-09T12:00:00	9.6	ND	ND	ND	ND	ND	1.4	124.2	27.6	52.9	417.2	0
33158	2013-11-09T13:00:00	13.3	ND	ND	ND	ND	ND	0.8	63.7	28	48.6	385.8	0
33159	2013-11-09T14:00:00	8.7	ND	ND	ND	ND	ND	0.8	190.3	29.8	43.8	851.5	0
33160	2013-11-09T15:00:00	16.2	ND	ND	ND	ND	ND	0.9	187.1	30.2	44.1	586.8	0
33161	2013-11-09T16:00:00	9.1	ND	ND	ND	ND	ND	4.1	180.8	29.3	46.6	489.2	0
33162	2013-11-09T17:00:00	ND	ND	ND	ND	ND	ND	5.2	173.5	27.5	50	256.1	0
33163	2013-11-09T18:00:00	ND	ND	ND	ND	ND	ND	5.3	172.8	26.1	53.6	22.5	0
33164	2013-11-09T19:00:00	ND	ND	ND	ND	ND	ND	5	172	25.3	56.8	0	0
33165	2013-11-09T20:00:00	ND	ND	ND	ND	ND	ND	3.5	173.3	25.2	57.4	0	0
33166	2013-11-09T21:00:00	ND	ND	ND	ND	ND	ND	0.9	170.9	25.2	58.2	0	0
33167	2013-11-09T22:00:00	ND	ND	ND	ND	ND	ND	3.3	169.9	24.6	60.6	0	0
33168	2013-11-09T23:00:00	ND	ND	ND	ND	ND	ND	2.8	175.2	24.2	61.8	0	0
33169	2013-11-10T00:00:00	ND	ND	ND	ND	ND	ND	2.2	160.1	24	62.7	0	0
33170	2013-11-10T01:00:00	ND	ND	ND	ND	ND	ND	1.2	156.1	23.8	65.1	0	0
33171	2013-11-10T02:00:00	ND	ND	ND	ND	ND	ND	1.2	143.2	22.6	74.3	0	0
33172	2013-11-10T03:00:00	ND	ND	ND	ND	ND	ND	1.1	136.1	22.2	76.3	0	0
33173	2013-11-10T04:00:00	ND	ND	ND	ND	ND	ND	0.5	132.4	22	78.5	0	0
33174	2013-11-10T05:00:00	ND	ND	ND	ND	ND	ND	0.9	134.9	22	77.4	0	0
33175	2013-11-10T06:00:00	ND	ND	ND	ND	ND	ND	1.4	138	21.5	78.8	0	0
33176	2013-11-10T07:00:00	ND	ND	ND	ND	ND	ND	1.3	143.3	21.3	82	14.8	0
33177	2013-11-10T08:00:00	ND	ND	ND	ND	ND	ND	1.5	134.2	21.4	84.6	105.2	0
33178	2013-11-10T09:00:00	ND	ND	ND	ND	ND	ND	1	133.3	22.2	81.4	270	0
33179	2013-11-10T10:00:00	ND	ND	ND	ND	ND	ND	2.1	139.7	24.1	72.9	623.7	0
33180	2013-11-10T11:00:00	ND	ND	ND	ND	ND	ND	1.4	133.7	26	61.8	852.8	0
33181	2013-11-10T12:00:00	ND	ND	ND	ND	ND	ND	1.1	80.2	26.9	57.3	413.1	0
33182	2013-11-10T13:00:00	ND	ND	ND	ND	ND	ND	1.1	145.4	27.9	54.5	492.6	0
33183	2013-11-10T14:00:00	ND	ND	ND	ND	ND	ND	1.3	120.5	28.8	51.1	588.6	0
33184	2013-11-10T15:00:00	ND	ND	ND	ND	ND	ND	1.5	171.3	28.2	52.4	140.4	0
33185	2013-11-10T16:00:00	ND	ND	ND	ND	ND	ND	3	172.8	28.2	50.4	312.2	0
33186	2013-11-10T17:00:00	93.4	ND	ND	ND	ND	ND	2.6	174.4	28.2	49.7	159.2	0
33187	2013-11-10T18:00:00	48.8	ND	ND	ND	ND	ND	2.5	173.5	26.6	55.2	29.4	0
33188	2013-11-10T19:00:00	29.6	ND	ND	ND	ND	ND	0.9	66.7	25.5	66	0	0
33189	2013-11-10T20:00:00	15.5	ND	ND	ND	ND	ND	1.5	182.7	25.1	62.9	0	0
33190	2013-11-10T21:00:00	18.2	ND	ND	ND	ND	ND	1	121.4	25	66.9	0	0
33191	2013-11-10T22:00:00	9.6	ND	ND	ND	ND	ND	2.4	151	24.2	70.5	0	0
33192	2013-11-10T23:00:00	22.5	ND	ND	ND	ND	ND	2.6	151.3	23.5	77.1	0	0
33193	2013-11-11T00:00:00	12.9	ND	ND	ND	ND	ND	1.6	149.7	23.4	78.4	0	0
33194	2013-11-11T01:00:00	15.7	ND	ND	ND	ND	ND	1.2	147.8	23.1	77.6	0	0
33195	2013-11-11T02:00:00	9.9	ND	ND	ND	ND	ND	1	140.9	22.8	77.8	0	0
33196	2013-11-11T03:00:00	9.9	ND	ND	ND	ND	ND	0.8	135.2	22.8	78.2	0	0
33197	2013-11-11T04:00:00	11.1	ND	ND	ND	ND	ND	0.2	134.2	22.4	81	0	0
33198	2013-11-11T05:00:00	17.1	ND	ND	ND	ND	ND	0.5	175.3	22.5	75	0	0
33199	2013-11-11T06:00:00	9.1	ND	ND	ND	ND	ND	0.5	43.8	22.6	76.2	0	0
33200	2013-11-11T07:00:00	22.3	ND	ND	ND	ND	ND	0.3	321.4	22.3	80.3	48.6	0
33201	2013-11-11T08:00:00	18.8	ND	ND	ND	ND	ND	0.6	119.2	23.6	74.2	233	0
33202	2013-11-11T09:00:00	51.4	ND	ND	ND	ND	ND	0.9	125.9	24	72.4	226.6	0
33203	2013-11-11T10:00:00	38.7	ND	ND	ND	ND	ND	1.1	120.2	25.8	65.2	572.7	0
33204	2013-11-11T11:00:00	45.7	ND	ND	ND	ND	ND	1.4	137	27.1	59.1	780.6	0
33205	2013-11-11T12:00:00	24.3	ND	ND	ND	ND	ND	1.5	130.8	29	51.4	671.4	0
33206	2013-11-11T13:00:00	39.7	ND	ND	ND	ND	ND	1.3	114.9	30	48.4	642.8	0
33207	2013-11-11T14:00:00	27	ND	ND	ND	ND	ND	0.7	146.6	30.1	47.7	411.7	0
33208	2013-11-11T15:00:00	22	ND	ND	ND	ND	ND	2.3	205.2	29.4	47.7	284.2	0
33209	2013-11-11T16:00:00	11	ND	ND	ND	ND	ND	3.8	179.1	29.4	47.9	477.6	0
33210	2013-11-11T17:00:00	5.5	ND	ND	ND	ND	ND	4.4	178.8	28.3	50.5	205.6	0
33211	2013-11-11T18:00:00	4.9	ND	ND	ND	ND	ND	3.7	181.1	26.7	54.3	23.6	0
33212	2013-11-11T19:00:00	3.6	ND	ND	ND	ND	ND	3.1	178.3	26.2	55.7	0	0
33213	2013-11-11T20:00:00	3.4	ND	ND	ND	ND	ND	3.4	170	25.5	58.4	0	0
33214	2013-11-11T21:00:00	5.1	ND	ND	ND	ND	ND	2.4	178.6	25.5	58.2	0	0
33215	2013-11-11T22:00:00	3.4	ND	ND	ND	ND	ND	0.3	137.6	25	62.3	0	0
33216	2013-11-11T23:00:00	9.5	ND	ND	ND	ND	ND	0.8	130.9	24	68.3	0	0
33217	2013-11-12T00:00:00	6.4	ND	ND	ND	ND	ND	1.5	152.3	24.3	67.1	0	0
33218	2013-11-12T01:00:00	11.2	ND	ND	ND	ND	ND	0.6	61.2	23.4	71.9	0	0
33219	2013-11-12T02:00:00	7	ND	ND	ND	ND	ND	1.3	114.4	23	76.5	0	4.06
33220	2013-11-12T03:00:00	18.9	ND	ND	ND	ND	ND	0.4	32.3	21.5	87.2	0	4.32
33221	2013-11-12T04:00:00	11.3	ND	ND	ND	ND	ND	0.8	ND	22	85.1	0	0.25
33222	2013-11-12T05:00:00	6.2	ND	ND	ND	ND	ND	1.9	158.1	21.2	89.1	0	0.25
33223	2013-11-12T06:00:00	16.3	ND	ND	ND	ND	ND	0.5	ND	21.8	87.1	0	0
33224	2013-11-12T07:00:00	15.8	ND	ND	ND	ND	ND	0.6	ND	21.9	86.5	30.2	0
33225	2013-11-12T08:00:00	24.3	ND	ND	ND	ND	ND	0.6	150.5	22.7	81.7	227.7	0
33226	2013-11-12T09:00:00	34.2	ND	ND	ND	ND	ND	1.1	140.1	24.9	70.5	478.1	0
33227	2013-11-12T10:00:00	23	ND	ND	ND	ND	ND	1.3	135.1	26.4	63.1	533.4	0
33228	2013-11-12T11:00:00	35.5	ND	ND	ND	ND	ND	1	86.9	27	59.7	570.2	0
33229	2013-11-12T12:00:00	34.1	ND	ND	ND	ND	ND	1.4	116.5	28.7	53.7	561.1	0
33230	2013-11-12T13:00:00	42.3	ND	ND	ND	ND	ND	0.5	84.2	29.8	49.3	744.1	0
33231	2013-11-12T14:00:00	23.3	ND	ND	ND	ND	ND	0.7	74.3	30.1	48.6	240.9	0
33232	2013-11-12T15:00:00	ND	ND	ND	ND	ND	ND	2.7	173.2	29.1	50.1	298.8	0
33233	2013-11-12T16:00:00	ND	ND	ND	ND	ND	ND	4.8	171.4	27.5	54.2	116	0
33234	2013-11-12T17:00:00	ND	ND	ND	ND	ND	ND	3.7	177.8	26.8	53.4	77.7	0
33235	2013-11-12T18:00:00	ND	ND	ND	ND	ND	ND	3.5	176	26.8	53	42.9	0
33236	2013-11-12T19:00:00	ND	ND	ND	ND	ND	ND	3.4	167.6	25.8	56.8	0	0
33237	2013-11-12T20:00:00	ND	ND	ND	ND	ND	ND	2.1	175.5	25.4	58.3	0	0
33238	2013-11-12T21:00:00	ND	ND	ND	ND	ND	ND	2.2	188.7	25	60.1	0	0
33239	2013-11-12T22:00:00	ND	ND	ND	ND	ND	ND	1	178.9	24.5	63	0	0
33240	2013-11-12T23:00:00	ND	ND	ND	ND	ND	ND	0.4	117.1	23.6	68.5	0	0
33241	2013-11-13T00:00:00	84.1	ND	ND	ND	ND	ND	1.2	154.3	23.6	68.2	0	0
33242	2013-11-13T01:00:00	44	ND	ND	ND	ND	ND	1.5	152.5	23.7	68.9	0	0
33243	2013-11-13T02:00:00	23.7	ND	ND	ND	ND	ND	1.6	149.1	23.2	73.8	0	0
33244	2013-11-13T03:00:00	35.9	ND	ND	ND	ND	ND	0.9	138.9	23	76.1	0	0
33245	2013-11-13T04:00:00	ND	ND	ND	ND	ND	ND	0.5	149.5	22	83.9	0	13.46
33246	2013-11-13T05:00:00	ND	ND	ND	ND	ND	ND	1	155	21.2	89.2	0	0.51
33247	2013-11-13T06:00:00	ND	ND	ND	ND	ND	ND	0.3	85.6	21.5	87.4	0	0
33248	2013-11-13T07:00:00	ND	ND	ND	ND	ND	ND	0.2	ND	21.5	86.1	23.9	0
33249	2013-11-13T08:00:00	ND	ND	ND	ND	ND	ND	0.2	ND	22.4	83	126.6	0
33250	2013-11-13T09:00:00	ND	ND	ND	ND	ND	ND	0.8	145.5	23.5	77.4	239.8	0
33251	2013-11-13T10:00:00	ND	ND	ND	ND	ND	ND	1.3	149.9	24.6	71.9	433.3	0
33252	2013-11-13T11:00:00	ND	ND	ND	ND	ND	ND	0.7	105.7	26.6	62.8	693.1	0
33253	2013-11-13T12:00:00	73.3	ND	ND	ND	ND	ND	0.8	63.6	26.8	60.6	396.7	0
33254	2013-11-13T13:00:00	68.6	ND	ND	ND	ND	ND	1.1	112.7	28	57.9	504.4	0
33255	2013-11-13T14:00:00	35.2	ND	ND	ND	ND	ND	1.2	110.5	27.9	57.1	386.6	0
33256	2013-11-13T15:00:00	39.1	ND	ND	ND	ND	ND	1.2	118.1	28.4	54.8	301.3	0
33257	2013-11-13T16:00:00	29.2	ND	ND	ND	ND	ND	1.1	133.1	28.5	54.6	250.3	0
33258	2013-11-13T17:00:00	37.6	ND	ND	ND	ND	ND	0.7	138.1	28.2	55.3	89.1	0
33259	2013-11-13T18:00:00	19.5	ND	ND	ND	ND	ND	2.5	168.9	26.6	58.3	11.1	0
33260	2013-11-13T19:00:00	ND	ND	ND	ND	ND	ND	2.5	173.1	25.9	60.5	0	0
33261	2013-11-13T20:00:00	ND	ND	ND	ND	ND	ND	2.6	174.2	25.4	61.9	0	0
33262	2013-11-13T21:00:00	ND	ND	ND	ND	ND	ND	1.4	184.8	25.2	61.6	0	0
33263	2013-11-13T22:00:00	ND	ND	ND	ND	ND	ND	0.5	158.9	24.8	65.8	0	0
33264	2013-11-13T23:00:00	ND	ND	ND	ND	ND	ND	0.7	78.5	23.8	70.8	0	0
33265	2013-11-14T00:00:00	ND	ND	ND	ND	ND	ND	0.6	ND	23.1	74.1	0	0
33266	2013-11-14T01:00:00	ND	ND	ND	ND	ND	ND	1.3	147.3	23	76.6	0	0
33267	2013-11-14T02:00:00	ND	ND	ND	ND	ND	ND	0.7	141.8	22	79.8	0	0
33268	2013-11-14T03:00:00	ND	ND	ND	ND	ND	ND	1	132.7	21.7	81.8	0	0
33269	2013-11-14T04:00:00	ND	ND	ND	ND	ND	ND	0.6	145.2	21.7	84.2	0	0
33270	2013-11-14T05:00:00	ND	ND	ND	ND	ND	ND	0.7	124.7	21.5	84	0	0
33271	2013-11-14T06:00:00	ND	ND	ND	ND	ND	ND	0.4	141.4	21.6	84	0	0
33272	2013-11-14T07:00:00	ND	ND	ND	ND	ND	ND	0.6	147.4	21.8	83.4	26	0
33273	2013-11-14T08:00:00	ND	ND	ND	ND	ND	ND	0.7	152.9	22.4	81.1	115.9	0
33274	2013-11-14T09:00:00	ND	ND	ND	ND	ND	ND	1.4	145.1	23.4	76.3	235.7	0
33275	2013-11-14T10:00:00	ND	ND	ND	ND	ND	ND	1.3	139.7	24.3	73.6	390.5	0
33276	2013-11-14T11:00:00	ND	ND	ND	ND	ND	ND	0.9	106.8	25.5	66.5	481.4	0
33277	2013-11-14T12:00:00	ND	ND	ND	ND	ND	ND	1	65.5	26.6	61	437.9	0
33278	2013-11-14T13:00:00	ND	ND	ND	ND	ND	ND	0.8	73.2	27.5	58.1	574.9	0
33279	2013-11-14T14:00:00	ND	ND	ND	ND	ND	ND	0.6	79.7	28.9	53.6	554.4	0
33280	2013-11-14T15:00:00	ND	ND	ND	ND	ND	ND	1.1	103.4	29.2	52.2	413.1	0
33281	2013-11-14T16:00:00	ND	ND	ND	ND	ND	ND	1	114.2	29	51.8	312.3	0
33282	2013-11-14T17:00:00	ND	ND	ND	ND	ND	ND	4.1	177.9	28.3	50.1	213.6	0
33283	2013-11-14T18:00:00	ND	ND	ND	ND	ND	ND	3.5	172.4	27.3	53.2	14.5	0
33284	2013-11-14T19:00:00	ND	ND	ND	ND	ND	ND	3.6	160	26.2	58.6	0	0
33285	2013-11-14T20:00:00	ND	ND	ND	ND	ND	ND	2.8	163.5	25.3	62.8	0	0
33286	2013-11-14T21:00:00	ND	ND	ND	ND	ND	ND	1	183.1	25.5	61.1	0	0
33287	2013-11-14T22:00:00	ND	ND	ND	ND	ND	ND	0.4	44.7	24.8	65.6	0	0
33288	2013-11-14T23:00:00	ND	ND	ND	ND	ND	ND	0.5	64.6	24.1	66.5	0	0
33289	2013-11-15T00:00:00	ND	ND	ND	ND	ND	ND	0.4	35.7	24.2	65.2	0	0
33290	2013-11-15T01:00:00	ND	ND	ND	ND	ND	ND	1.3	140.5	23.8	70.2	0	0
33291	2013-11-15T02:00:00	ND	ND	ND	ND	ND	ND	1.7	151.9	21.5	87	0	3.81
33292	2013-11-15T03:00:00	96.7	ND	ND	ND	ND	ND	1.1	155.4	22.3	81	0	0
33293	2013-11-15T04:00:00	48.9	ND	ND	ND	ND	ND	0.2	122.3	22.4	82.8	0	0
33294	2013-11-15T05:00:00	25.4	ND	ND	ND	ND	ND	0.4	ND	21.8	87.1	0	0
33295	2013-11-15T06:00:00	14.3	ND	ND	ND	ND	ND	0.3	ND	21.6	88	0	0.25
33296	2013-11-15T07:00:00	20.6	ND	ND	ND	ND	ND	0.2	ND	22	86.7	38.7	0
33297	2013-11-15T08:00:00	37.7	ND	ND	ND	ND	ND	0.8	79.5	22.9	82.2	168.8	0
33298	2013-11-15T09:00:00	63.5	ND	ND	ND	ND	ND	1.3	115.7	24.9	71.8	372.6	0
33299	2013-11-15T10:00:00	41.6	ND	ND	ND	ND	ND	1.1	143.9	24.7	70	141.6	0
33300	2013-11-15T11:00:00	52.2	ND	ND	ND	ND	ND	1	150.3	24.8	70.2	147.5	0
33301	2013-11-15T12:00:00	27.8	ND	ND	ND	ND	ND	1	140.7	27.2	58.6	720.8	0
33302	2013-11-15T13:00:00	19.4	ND	ND	ND	ND	ND	1.7	127.8	29	51.4	795.1	0
33303	2013-11-15T14:00:00	14.4	ND	ND	ND	ND	ND	1	139.3	30.4	48	811	0
33304	2013-11-15T15:00:00	37.3	ND	ND	ND	ND	ND	1.4	74	30.4	47.5	483.7	0
33305	2013-11-15T16:00:00	30.1	ND	ND	ND	ND	ND	1.2	73.7	30.6	46.3	275.4	0
33306	2013-11-15T17:00:00	ND	ND	ND	ND	ND	ND	2	192.3	29.3	51.3	119.3	0
33307	2013-11-15T18:00:00	ND	ND	ND	ND	ND	ND	2.8	180.9	27.9	54	24.8	0
33308	2013-11-15T19:00:00	ND	ND	ND	ND	ND	ND	4.3	168.4	26.7	57.7	0	0
33309	2013-11-15T20:00:00	ND	ND	ND	ND	ND	ND	4.4	169	26	60.6	0	0
33310	2013-11-15T21:00:00	ND	ND	ND	ND	ND	ND	2.4	181.1	25.9	60.4	0	0
33311	2013-11-15T22:00:00	ND	ND	ND	ND	ND	ND	0.5	98.9	24.9	66.5	0	0
33312	2013-11-15T23:00:00	ND	ND	ND	ND	ND	ND	0.6	107.1	24.4	68.6	0	0
33313	2013-11-16T00:00:00	ND	ND	ND	ND	ND	ND	0.9	157.3	24.6	67.3	0	0
33314	2013-11-16T01:00:00	ND	ND	ND	ND	ND	ND	0.9	136.9	23.6	74	0	0
33315	2013-11-16T02:00:00	112.1	ND	ND	ND	ND	ND	1	141	22.8	78.8	0	0
33316	2013-11-16T03:00:00	68.8	ND	ND	ND	ND	ND	0.8	141.7	22.5	79.9	0	0
33317	2013-11-16T04:00:00	49.2	ND	ND	ND	ND	ND	0.6	153.1	22.7	79.6	0	0
33318	2013-11-16T05:00:00	42.3	ND	ND	ND	ND	ND	0.8	150.4	22.9	77	0	0
33319	2013-11-16T06:00:00	39.2	ND	ND	ND	ND	ND	0.7	141.7	22.6	79.9	0	0
33320	2013-11-16T07:00:00	59.8	ND	ND	ND	ND	ND	1	147.5	22.7	79.2	45.8	0
33321	2013-11-16T08:00:00	38.2	ND	ND	ND	ND	ND	0.8	152.3	23.6	73.5	137.2	0
33322	2013-11-16T09:00:00	54.1	ND	ND	ND	ND	ND	0.8	121	25.6	66.1	432.1	0
33323	2013-11-16T10:00:00	39.8	ND	ND	ND	ND	ND	1.3	109.7	27.3	59.8	556	0
33324	2013-11-16T11:00:00	48.2	ND	ND	ND	ND	ND	0.7	87.4	28.1	56.8	532.7	0
33325	2013-11-16T12:00:00	33.1	ND	ND	ND	ND	ND	1.1	57.9	29.7	51.9	586.3	0
33326	2013-11-16T13:00:00	33.9	ND	ND	ND	ND	ND	0.8	98.2	29.9	50.4	241.7	0
33327	2013-11-16T14:00:00	24.7	ND	ND	ND	ND	ND	0.8	216.5	29.9	48	319	0
33328	2013-11-16T15:00:00	21	ND	ND	ND	ND	ND	0.9	109.3	31.4	44.4	469.2	0
33329	2013-11-16T16:00:00	10.6	ND	ND	ND	ND	ND	4.3	174.5	27.9	56.1	35	0
33330	2013-11-16T17:00:00	13.1	ND	ND	ND	ND	ND	4.7	172.7	26.6	60.3	64.7	0
33331	2013-11-16T18:00:00	6.5	ND	ND	ND	ND	ND	3.9	175.5	26.5	58.8	16.4	0
33332	2013-11-16T19:00:00	3.3	ND	ND	ND	ND	ND	3.5	179.2	26.2	59.3	0	0
33333	2013-11-16T20:00:00	2.2	ND	ND	ND	ND	ND	1.5	174.4	26	60.1	0	0
33334	2013-11-16T21:00:00	2.3	ND	ND	ND	ND	ND	2.4	153.3	24.9	69.5	0	0
33335	2013-11-16T22:00:00	2.1	ND	ND	ND	ND	ND	1.6	170.5	25.2	64.2	0	0
33336	2013-11-16T23:00:00	2	ND	ND	ND	ND	ND	1.7	156.6	25.1	66.4	0	0
33337	2013-11-17T00:00:00	11.5	ND	ND	ND	ND	ND	1.5	145.2	24.2	72	0	0
33338	2013-11-17T01:00:00	23.1	ND	ND	ND	ND	ND	0.9	134.4	23.1	79.8	0	0
33339	2013-11-17T02:00:00	13.6	ND	ND	ND	ND	ND	1.2	139.7	22.7	82.3	0	0
33340	2013-11-17T03:00:00	16.6	ND	ND	ND	ND	ND	1	143.8	22.6	82.2	0	0
33341	2013-11-17T04:00:00	9.8	ND	ND	ND	ND	ND	0.4	185	22.9	78.6	0	0
33342	2013-11-17T05:00:00	6.8	ND	ND	ND	ND	ND	1	61	23.1	78	0	0
33343	2013-11-17T06:00:00	16.2	ND	ND	ND	ND	ND	1.1	59.4	22.1	84.9	0	0
33344	2013-11-17T07:00:00	26.1	ND	ND	ND	ND	ND	0.4	218.8	22.3	83.4	12	0
33345	2013-11-17T08:00:00	15.8	ND	ND	ND	ND	ND	0.5	228.2	23.1	78.8	118.7	0
33346	2013-11-17T09:00:00	23.2	ND	ND	ND	ND	ND	1	109.6	23.8	75.7	164.4	0
33347	2013-11-17T10:00:00	28.9	ND	ND	ND	ND	ND	1	131.9	24.1	76.1	161.7	0
33348	2013-11-17T11:00:00	27.2	ND	ND	ND	ND	ND	1.3	150.3	25	70.8	337.1	0
33349	2013-11-17T12:00:00	21.2	ND	ND	ND	ND	ND	1.1	111.7	27.1	61.9	601.4	0
33350	2013-11-17T13:00:00	29.4	ND	ND	ND	ND	ND	1	118.6	28.4	56.6	581.6	0
33351	2013-11-17T14:00:00	16.3	ND	ND	ND	ND	ND	0.4	96.1	28.8	53.4	406.7	0
33352	2013-11-17T15:00:00	12.5	ND	ND	ND	ND	ND	3.3	190.6	28.9	51.1	519.6	0
33353	2013-11-17T16:00:00	8.2	ND	ND	ND	ND	ND	4.1	180.3	28.1	52.2	391.2	0
33354	2013-11-17T17:00:00	5.1	ND	ND	ND	ND	ND	3.8	185.2	27	54.9	119.2	0
33355	2013-11-17T18:00:00	3.3	ND	ND	ND	ND	ND	4.2	173	25.9	58.9	23.6	0
33356	2013-11-17T19:00:00	2.4	ND	ND	ND	ND	ND	2.9	173.7	25.2	59.7	0	0
33357	2013-11-17T20:00:00	3.2	ND	ND	ND	ND	ND	2.9	152.8	24.5	68	0	0
33358	2013-11-17T21:00:00	2.2	ND	ND	ND	ND	ND	1.8	150.8	24.3	68.4	0	0
33359	2013-11-17T22:00:00	2.4	ND	ND	ND	ND	ND	0.8	158.6	23.9	71.3	0	0
33360	2013-11-17T23:00:00	26	ND	ND	ND	ND	ND	0.9	50.6	23.1	77.5	0	0
33361	2013-11-18T00:00:00	14.5	ND	ND	ND	ND	ND	0.6	58.6	22.4	82.3	0	1.02
33362	2013-11-18T01:00:00	33.8	ND	ND	ND	ND	ND	0.3	154.1	22	85.9	0	1.52
33363	2013-11-18T02:00:00	17.6	ND	ND	ND	ND	ND	0.8	149.4	21.8	85.7	0	0
33364	2013-11-18T03:00:00	14.8	ND	ND	ND	ND	ND	1.2	151.8	21.7	87	0	0
33365	2013-11-18T04:00:00	9.1	ND	ND	ND	ND	ND	1.1	141.6	21.7	86.9	0	0
33366	2013-11-18T05:00:00	10.3	ND	ND	ND	ND	ND	1	136.7	21.3	89.2	0	0.25
33367	2013-11-18T06:00:00	6.8	ND	ND	ND	ND	ND	1.1	136	21.1	90.6	0	0
33368	2013-11-18T07:00:00	28.1	ND	ND	ND	ND	ND	1.4	148.8	21.3	88.6	17.4	0
33369	2013-11-18T08:00:00	30.9	ND	ND	ND	ND	ND	1.6	150.1	21.8	85	75.4	0
33370	2013-11-18T09:00:00	33.3	ND	ND	ND	ND	ND	1.3	150.2	22.7	79.9	175	0
33371	2013-11-18T10:00:00	21.8	ND	ND	ND	ND	ND	1.8	143.7	23.8	74.7	350.2	0
33372	2013-11-18T11:00:00	22.9	ND	ND	ND	ND	ND	1.7	147.9	25.5	65.1	548.1	0
33373	2013-11-18T12:00:00	17.3	ND	ND	ND	ND	ND	1.3	147.1	27.3	56.9	581.6	0
33374	2013-11-18T13:00:00	9.2	ND	ND	ND	ND	ND	0.8	120.6	27.9	54.4	530.9	0
33375	2013-11-18T14:00:00	5.4	ND	ND	ND	ND	ND	2.1	176.6	27.1	57.8	209.5	2.79
33376	2013-11-18T15:00:00	19.3	ND	ND	ND	ND	ND	1	156.4	26.9	60.1	457.2	0
33377	2013-11-18T16:00:00	11.5	ND	ND	ND	ND	ND	3.1	174.6	27.6	54.3	320.5	0
33378	2013-11-18T17:00:00	8.1	ND	ND	ND	ND	ND	2.9	174.9	26.1	58	53.1	0
33379	2013-11-18T18:00:00	16.9	ND	ND	ND	ND	ND	1.7	108.5	21.6	81.5	0	1.52
33380	2013-11-18T19:00:00	21.6	ND	ND	ND	ND	ND	1.4	163.3	22.1	79.2	0	0.51
33381	2013-11-18T20:00:00	24.1	ND	ND	ND	ND	ND	0.1	235.2	22	83.7	0	0
33382	2013-11-18T21:00:00	48	ND	ND	ND	ND	ND	0.6	117.1	22	83.6	0	0
33383	2013-11-18T22:00:00	31.5	ND	ND	ND	ND	ND	0.4	121.9	21.4	82.3	0	0
33384	2013-11-18T23:00:00	45.5	ND	ND	ND	ND	ND	0.2	ND	21.6	82.3	0	0
33385	2013-11-19T00:00:00	23.4	ND	ND	ND	ND	ND	1.2	168.9	21.9	79.9	0	0
33386	2013-11-19T01:00:00	32.9	ND	ND	ND	ND	ND	0.7	89.5	21.7	82.5	0	0
33387	2013-11-19T02:00:00	22.3	ND	ND	ND	ND	ND	1	147.7	20.5	87.1	0	0
33388	2013-11-19T03:00:00	23.5	ND	ND	ND	ND	ND	1.1	151.3	20.8	84.9	0	2.03
33389	2013-11-19T04:00:00	12.5	ND	ND	ND	ND	ND	0.6	127	20.2	89.4	0	0
33390	2013-11-19T05:00:00	16.6	ND	ND	ND	ND	ND	0.8	107.4	19.8	90.5	0	2.54
33391	2013-11-19T06:00:00	9.2	ND	ND	ND	ND	ND	0.6	107.8	19.3	92.1	0	3.05
33392	2013-11-19T07:00:00	17.4	ND	ND	ND	ND	ND	0.6	111.6	19.3	91.6	0	1.02
33393	2013-11-19T08:00:00	10.1	ND	ND	ND	ND	ND	0.2	ND	19.3	91.9	24	5.59
33394	2013-11-19T09:00:00	18.9	ND	ND	ND	ND	ND	0.8	95.1	19.6	92.8	124.2	3.3
33395	2013-11-19T10:00:00	9.4	ND	ND	ND	ND	ND	0.8	232.3	21.6	83	657.6	0.25
33396	2013-11-19T11:00:00	4.7	ND	ND	ND	ND	ND	1.6	151.2	24.9	66.2	981.8	0
33397	2013-11-19T12:00:00	9.9	ND	ND	ND	ND	ND	1.8	140.2	25.9	57.8	472.1	0
33398	2013-11-19T13:00:00	7.8	ND	ND	ND	ND	ND	1.7	141.9	25.9	60.3	715.6	0
33399	2013-11-19T14:00:00	4.9	ND	ND	ND	ND	ND	1.5	116.6	27.4	55.2	821.9	0
33400	2013-11-19T15:00:00	12.8	ND	ND	ND	ND	ND	1.2	120.9	28.4	51.6	617.7	0
33401	2013-11-19T16:00:00	12.9	ND	ND	ND	ND	ND	0.4	226.1	24.9	70.9	117	9.91
33402	2013-11-19T17:00:00	43.7	ND	ND	ND	ND	ND	0.6	317.4	24.5	72.7	103.1	0
33403	2013-11-19T18:00:00	40	ND	ND	ND	ND	ND	0.9	214.3	24.7	68.7	20.2	0
33404	2013-11-19T19:00:00	30.9	ND	ND	ND	ND	ND	3.2	180.1	24.2	61.6	0	0
33405	2013-11-19T20:00:00	17.6	ND	ND	ND	ND	ND	3.1	177.1	23.8	63	0	0
33406	2013-11-19T21:00:00	18.4	ND	ND	ND	ND	ND	1.1	175.6	23.5	64.8	0	0
33407	2013-11-19T22:00:00	24.8	ND	ND	ND	ND	ND	0.6	118.7	22.3	74.5	0	0
33408	2013-11-19T23:00:00	37.3	ND	ND	ND	ND	ND	0.9	150.7	22.2	78.3	0	0
33409	2013-11-20T00:00:00	32.2	ND	ND	ND	ND	ND	0.9	147.9	22.2	77.7	0	0
33410	2013-11-20T01:00:00	34.3	ND	ND	ND	ND	ND	0	299	21.7	78.1	0	0
33411	2013-11-20T02:00:00	23.6	ND	ND	ND	ND	ND	0.6	129.8	21.8	79.3	0	0
33412	2013-11-20T03:00:00	28.2	ND	ND	ND	ND	ND	1.8	144.8	20.2	89.1	0	10.16
33413	2013-11-20T04:00:00	15.9	ND	ND	ND	ND	ND	1.2	157.4	19.4	95.3	0	33.53
33414	2013-11-20T05:00:00	11	ND	ND	ND	ND	ND	0.1	96.8	19.5	95.4	0	1.78
33415	2013-11-20T06:00:00	10.3	ND	ND	ND	ND	ND	0.6	139.1	19.8	94.3	0	0
33416	2013-11-20T07:00:00	17.7	ND	ND	ND	ND	ND	1.3	138.7	19.8	94.3	13.1	0.25
33417	2013-11-20T08:00:00	10.6	ND	ND	ND	ND	ND	1.5	147.2	20.1	93.2	124.2	0
33418	2013-11-20T09:00:00	14.9	ND	ND	ND	ND	ND	1.3	147.2	21.6	84.2	328.6	0
33419	2013-11-20T10:00:00	8.9	ND	ND	ND	ND	ND	1.4	140.9	23.8	73.4	615.5	0
33420	2013-11-20T11:00:00	22.9	ND	ND	ND	ND	ND	1.8	114.5	25.5	66.7	731.1	0
33421	2013-11-20T12:00:00	27.3	ND	ND	ND	ND	ND	1.8	128.8	26.3	62.4	637.3	0
33422	2013-11-20T13:00:00	16.2	ND	ND	ND	ND	ND	1.6	148.2	26.1	61.9	452.9	0
33423	2013-11-20T14:00:00	9.7	ND	ND	ND	ND	ND	0.4	182.7	27.5	57.1	695.1	0
33424	2013-11-20T15:00:00	5.9	ND	ND	ND	ND	ND	0.9	233.1	27.9	51.4	542.3	0
33425	2013-11-20T16:00:00	3.5	ND	ND	ND	ND	ND	2.7	191	28	50	491.4	0
33426	2013-11-20T17:00:00	10.5	ND	ND	ND	ND	ND	2.6	186.1	27.6	51.1	284.1	0
33427	2013-11-20T18:00:00	7.3	ND	ND	ND	ND	ND	2.1	165.1	26.4	54.9	32	0
33428	2013-11-20T19:00:00	51.5	ND	ND	ND	ND	ND	1.5	123.5	25.1	60.9	0	0
33429	2013-11-20T20:00:00	27.1	ND	ND	ND	ND	ND	2.3	166.5	24	67.4	0	0
33430	2013-11-20T21:00:00	14.8	ND	ND	ND	ND	ND	2.2	162.8	23.7	68.7	0	0
33431	2013-11-20T22:00:00	8.7	ND	ND	ND	ND	ND	1.4	147.6	23.5	70.5	0	0
33432	2013-11-20T23:00:00	21.9	ND	ND	ND	ND	ND	0.6	156.3	23.1	72.9	0	0
33433	2013-11-21T00:00:00	12.8	ND	ND	ND	ND	ND	0.7	164.1	22.7	73.9	0	0
33434	2013-11-21T01:00:00	11.1	ND	ND	ND	ND	ND	0.6	156.1	22.6	75.1	0	0
33435	2013-11-21T02:00:00	7.4	ND	ND	ND	ND	ND	0.6	103.5	22.2	80	0	0
33436	2013-11-21T03:00:00	22.4	ND	ND	ND	ND	ND	0.4	97.2	21.5	86.6	0	0
33437	2013-11-21T04:00:00	12.1	ND	ND	ND	ND	ND	0.3	ND	21.2	87.4	0	0
33438	2013-11-21T05:00:00	21	ND	ND	ND	ND	ND	1.2	158.2	21	83.4	0	0
33439	2013-11-21T06:00:00	24.2	ND	ND	ND	ND	ND	0.5	177.4	21.2	84.1	0	0
33440	2013-11-21T07:00:00	46.9	ND	ND	ND	ND	ND	0.7	146.6	21	88.5	58.5	0
33441	2013-11-21T08:00:00	58.7	ND	ND	ND	ND	ND	0.5	100.3	22.2	83.1	189.6	0
33442	2013-11-21T09:00:00	49.2	ND	ND	ND	ND	ND	0.8	115.9	24.3	71.5	460.9	0
33443	2013-11-21T10:00:00	42.4	ND	ND	ND	ND	ND	0.9	82.7	25.7	64.7	528.8	0
33444	2013-11-21T11:00:00	47.7	ND	ND	ND	ND	ND	0.8	103.8	26.2	61.4	295.2	0
33445	2013-11-21T12:00:00	34.6	ND	ND	ND	ND	ND	0.9	86.8	27.5	55.5	471.1	0
33446	2013-11-21T13:00:00	38.3	ND	ND	ND	ND	ND	0.6	144.4	28.1	52.3	538.2	0
33447	2013-11-21T14:00:00	24.6	ND	ND	ND	ND	ND	1.5	196.1	28.2	50	191.6	0
33448	2013-11-21T15:00:00	26.6	ND	ND	ND	ND	ND	2.9	178.6	28.8	47.9	576.7	0
33449	2013-11-21T16:00:00	14.9	ND	ND	ND	ND	ND	2.2	156.8	28.8	49.8	625.4	0
33450	2013-11-21T17:00:00	26.2	ND	ND	ND	ND	ND	1.4	142.2	25.2	65.6	36	0
33451	2013-11-21T18:00:00	15.3	ND	ND	ND	ND	ND	1.5	180.3	24.7	62.3	0	0
33452	2013-11-21T19:00:00	23	ND	ND	ND	ND	ND	1.6	104.8	23.9	68.9	0	0
33453	2013-11-21T20:00:00	14.7	ND	ND	ND	ND	ND	3.1	150.3	22.8	76.9	0	0
33454	2013-11-21T21:00:00	22.3	ND	ND	ND	ND	ND	3.3	150.2	21.7	82.6	0	0
33455	2013-11-21T22:00:00	12.6	ND	ND	ND	ND	ND	1.3	158.8	21.9	80.6	0	0
33456	2013-11-21T23:00:00	ND	ND	ND	ND	ND	ND	0.7	92.9	21.6	83.2	0	0
33457	2013-11-22T00:00:00	ND	ND	ND	ND	ND	ND	0.9	59.9	21.1	86.7	0	0
33458	2013-11-22T01:00:00	82.7	ND	ND	ND	ND	ND	0.6	124.4	20.6	87.1	0	0
33459	2013-11-22T02:00:00	42.2	ND	ND	ND	ND	ND	0.9	143.8	20.5	86.9	0	0
33460	2013-11-22T03:00:00	22.7	ND	ND	ND	ND	ND	0.7	124.5	20.1	88.8	0	0
33461	2013-11-22T04:00:00	11.3	ND	ND	ND	ND	ND	0.5	149.7	20.1	89.3	0	0
33462	2013-11-22T05:00:00	5.7	ND	ND	ND	ND	ND	0.2	ND	20.1	86.3	0	0
33463	2013-11-22T06:00:00	14.1	ND	ND	ND	ND	ND	0	ND	20	89	0	0
33464	2013-11-22T07:00:00	29.9	ND	ND	ND	ND	ND	0.2	ND	20	84	17.4	0
33465	2013-11-22T08:00:00	41.1	ND	ND	ND	ND	ND	0.8	74.2	20.5	84.1	97	0
33466	2013-11-22T09:00:00	64.6	ND	ND	ND	ND	ND	0.5	137	21.5	81.2	244.5	0
33467	2013-11-22T10:00:00	51.5	ND	ND	ND	ND	ND	0.7	122.7	23.5	68.9	496.8	0
33468	2013-11-22T11:00:00	37.3	ND	ND	ND	ND	ND	1.5	128.5	25.1	62.3	678.4	0
33469	2013-11-22T12:00:00	20	ND	ND	ND	ND	ND	1.6	109.3	26.7	56	778.6	0
33470	2013-11-22T13:00:00	36.5	ND	ND	ND	ND	ND	1.5	119.3	28.2	49.5	889.1	0
33471	2013-11-22T14:00:00	29.2	ND	ND	ND	ND	ND	1.8	83.1	27.2	51.8	283.2	0
33472	2013-11-22T15:00:00	19.4	ND	ND	ND	ND	ND	0.6	152	27.4	52.4	339.2	0
33473	2013-11-22T16:00:00	9.7	ND	ND	ND	ND	ND	3.6	163.3	28.1	49.8	607.9	0
33474	2013-11-22T17:00:00	4.8	ND	ND	ND	ND	ND	2.9	169.6	27.7	51	275.6	0
33475	2013-11-22T18:00:00	3.3	ND	ND	ND	ND	ND	3.1	169.7	25.8	56.7	27.1	0
33476	2013-11-22T19:00:00	6.9	ND	ND	ND	ND	ND	2.4	169	25.1	58.5	0	0
33477	2013-11-22T20:00:00	4.1	ND	ND	ND	ND	ND	1.7	180.3	24.5	59.8	0	0
33478	2013-11-22T21:00:00	10.8	ND	ND	ND	ND	ND	1.4	168	23.9	61.9	0	0
33479	2013-11-22T22:00:00	11.9	ND	ND	ND	ND	ND	1.7	150.4	23.2	69	0	0
33480	2013-11-22T23:00:00	45.5	ND	ND	ND	ND	ND	1.7	159.4	22.6	68.6	0	0
33481	2013-11-23T00:00:00	24	ND	ND	ND	ND	ND	1.6	159.1	22.5	65.6	0	0
33482	2013-11-23T01:00:00	13.3	ND	ND	ND	ND	ND	1	155	22.6	68.9	0	0
33483	2013-11-23T02:00:00	7.4	ND	ND	ND	ND	ND	1	164	22	67.8	0	0
33484	2013-11-23T03:00:00	18.6	ND	ND	ND	ND	ND	0.4	170.8	21.3	79.8	0	0
33485	2013-11-23T04:00:00	11.4	ND	ND	ND	ND	ND	0.8	167.5	21.2	72	0	0
33486	2013-11-23T05:00:00	34.8	ND	ND	ND	ND	ND	0.6	115.4	21.2	78.5	0	0
33487	2013-11-23T06:00:00	25.5	ND	ND	ND	ND	ND	0.7	141	20.9	80.6	0	0
33488	2013-11-23T07:00:00	42.8	ND	ND	ND	ND	ND	0.5	112	21.1	79.7	24.1	0
33489	2013-11-23T08:00:00	49.9	ND	ND	ND	ND	ND	0.4	59.7	22.2	76.3	251.2	0
33490	2013-11-23T09:00:00	59.6	ND	ND	ND	ND	ND	1.5	151.2	23.8	66.4	290.8	0
33491	2013-11-23T10:00:00	31.7	ND	ND	ND	ND	ND	1.4	131.9	25.5	63.3	598.8	0
33492	2013-11-23T11:00:00	ND	ND	ND	ND	ND	ND	1.6	129.1	27.1	55.7	732.6	0
33493	2013-11-23T12:00:00	ND	ND	ND	ND	ND	ND	2.2	175.9	25.9	58.8	202.9	0
33494	2013-11-23T13:00:00	ND	ND	ND	ND	ND	ND	3.4	168.4	23.9	70.9	353.3	0
33495	2013-11-23T14:00:00	ND	ND	ND	ND	ND	ND	3.1	174.5	28.1	49.3	851.7	0
33496	2013-11-23T15:00:00	67.9	ND	ND	ND	ND	ND	2.7	178.4	29.3	44	730.9	0
33497	2013-11-23T16:00:00	33.9	ND	ND	ND	ND	ND	3.3	183.8	29	45	474.5	0
33498	2013-11-23T17:00:00	17	ND	ND	ND	ND	ND	3.1	179.4	27.8	49.3	239.3	0
33499	2013-11-23T18:00:00	10	ND	ND	ND	ND	ND	3.2	165.9	26.1	56.2	14.2	0
33500	2013-11-23T19:00:00	11.1	ND	ND	ND	ND	ND	3.1	168.7	24.9	60.6	0	0
33501	2013-11-23T20:00:00	7.1	ND	ND	ND	ND	ND	3.5	173.3	24.1	63.3	0	0
33502	2013-11-23T21:00:00	8	ND	ND	ND	ND	ND	1.2	200.3	24.3	60.4	0	0
33503	2013-11-23T22:00:00	10.2	ND	ND	ND	ND	ND	1.1	166.3	24	60.9	0	0
33504	2013-11-23T23:00:00	6.4	ND	ND	ND	ND	ND	1.4	160.8	23.5	64.5	0	0
33505	2013-11-24T00:00:00	4.7	ND	ND	ND	ND	ND	1.8	149.5	22.8	70.6	0	0
33506	2013-11-24T01:00:00	9.5	ND	ND	ND	ND	ND	1.3	147.8	22.1	79.9	0	0
33507	2013-11-24T02:00:00	6.7	ND	ND	ND	ND	ND	0.9	167.1	22.1	76.7	0	0
33508	2013-11-24T03:00:00	4.9	ND	ND	ND	ND	ND	0.5	85.1	22	78.3	0	0
33509	2013-11-24T04:00:00	3.4	ND	ND	ND	ND	ND	1	145.1	21.1	84	0	0
33510	2013-11-24T05:00:00	6.8	ND	ND	ND	ND	ND	0.2	ND	21.4	82.1	0	0
33511	2013-11-24T06:00:00	4.6	ND	ND	ND	ND	ND	0.9	143.5	21.4	83.2	0	0
33512	2013-11-24T07:00:00	5.7	ND	ND	ND	ND	ND	1	139.6	21.3	82	5.9	0
33513	2013-11-24T08:00:00	7.8	ND	ND	ND	ND	ND	0.9	130.9	21.1	84.1	20.5	5.08
33514	2013-11-24T09:00:00	17.3	ND	ND	ND	ND	ND	0.6	86.3	20.4	90.4	114.7	13.72
33515	2013-11-24T10:00:00	9.8	ND	ND	ND	ND	ND	0.6	178.6	21.3	87.4	169.6	1.78
33516	2013-11-24T11:00:00	14.5	ND	ND	ND	ND	ND	0.9	164	22.6	79.4	316.2	0
33517	2013-11-24T12:00:00	7.3	ND	ND	ND	ND	ND	1.1	157.3	23.9	71.1	303.5	0
33518	2013-11-24T13:00:00	3.6	ND	ND	ND	ND	ND	1.3	166.5	24.6	67.5	399.2	0
33519	2013-11-24T14:00:00	2.5	ND	ND	ND	ND	ND	0.8	192.8	25.8	58.2	447.3	0
33520	2013-11-24T15:00:00	1.2	ND	ND	ND	ND	ND	1.5	211.8	26.4	55.8	471.4	0
33521	2013-11-24T16:00:00	1.5	ND	ND	ND	ND	ND	1.4	20.1	25.2	65.9	210.7	0
33522	2013-11-24T17:00:00	ND	ND	ND	ND	ND	ND	0.7	214.5	24	68.9	38.7	1.27
33523	2013-11-24T18:00:00	ND	ND	ND	ND	ND	ND	0.4	172.6	21.9	80	4.4	10.67
33524	2013-11-24T19:00:00	ND	ND	ND	ND	ND	ND	1.3	152.9	21.3	84.1	0	1.27
33525	2013-11-24T20:00:00	ND	ND	ND	ND	ND	ND	1.5	153.6	21.4	85	0	0
33526	2013-11-24T21:00:00	ND	ND	ND	ND	ND	ND	1	154.1	21.4	84.7	0	0.25
33527	2013-11-24T22:00:00	ND	ND	ND	ND	ND	ND	0.8	144.3	21.3	86.1	0	0
33528	2013-11-24T23:00:00	ND	ND	ND	ND	ND	ND	1.1	141.3	20.8	89.6	0	0
33529	2013-11-25T00:00:00	ND	ND	ND	ND	ND	ND	1.3	150.2	20.5	90.3	0	0
33530	2013-11-25T01:00:00	ND	ND	ND	ND	ND	ND	0.7	152.4	20.5	89.2	0	0
33531	2013-11-25T02:00:00	ND	ND	ND	ND	ND	ND	0.5	143.2	20.6	86.9	0	0
33532	2013-11-25T03:00:00	ND	ND	ND	ND	ND	ND	0.4	148.2	20.4	88.1	0	0
33533	2013-11-25T04:00:00	131.2	ND	ND	ND	ND	ND	0.9	162.3	20.2	82.1	0	0
33534	2013-11-25T05:00:00	66.3	ND	ND	ND	ND	ND	0.6	163	20.2	78.9	0	0
33535	2013-11-25T06:00:00	34.1	ND	ND	ND	ND	ND	0.7	174.1	20.3	80	0	0
33536	2013-11-25T07:00:00	33.1	ND	ND	ND	ND	ND	0.5	232	20.4	83.3	21.1	0
33537	2013-11-25T08:00:00	23.6	ND	ND	ND	ND	ND	0.5	81.6	21	85.2	101.6	0
33538	2013-11-25T09:00:00	60.9	ND	ND	ND	ND	ND	0.4	88.8	21.6	82.3	195	0
33539	2013-11-25T10:00:00	48.4	ND	ND	ND	ND	ND	1.4	86.7	23.5	73.8	635	0
33540	2013-11-25T11:00:00	42.3	ND	ND	ND	ND	ND	1	146	25.1	64.7	606.5	0
33541	2013-11-25T12:00:00	24.6	ND	ND	ND	ND	ND	0.9	112.6	26.7	58.8	705.1	0
33542	2013-11-25T13:00:00	ND	ND	ND	ND	ND	ND	0.9	102.7	27.3	55.8	511.5	0
33543	2013-11-25T14:00:00	ND	ND	ND	ND	ND	ND	1.1	153.8	27.4	53.1	240.6	0
33544	2013-11-25T15:00:00	ND	ND	ND	ND	ND	ND	2.2	187.8	21.9	80.3	69.8	66.04
33545	2013-11-25T16:00:00	ND	ND	ND	ND	ND	ND	1	42.7	21.7	87.4	224.9	2.79
33546	2013-11-25T17:00:00	ND	ND	ND	ND	ND	ND	0.9	137.8	22.7	82.1	53.5	0.51
33547	2013-11-25T18:00:00	ND	ND	ND	ND	ND	ND	1.3	143.4	21.6	84.9	6.9	0.25
33548	2013-11-25T19:00:00	ND	ND	ND	ND	ND	ND	1.6	147	21.2	85.2	0	0
33549	2013-11-25T20:00:00	ND	ND	ND	ND	ND	ND	2.1	151.8	21.1	82.6	0	0
33550	2013-11-25T21:00:00	ND	ND	ND	ND	ND	ND	1	153.5	21.6	78.8	0	0
33551	2013-11-25T22:00:00	ND	ND	ND	ND	ND	ND	0.9	166.2	21.4	80.6	0	0
33552	2013-11-25T23:00:00	137.9	ND	ND	ND	ND	ND	0.8	194.1	21.3	78.6	0	0
33553	2013-11-26T00:00:00	70.3	ND	ND	ND	ND	ND	1.1	62.1	20.4	87.7	0	0
33554	2013-11-26T01:00:00	62.6	ND	ND	ND	ND	ND	0.1	80.1	20	90.3	0	0
33555	2013-11-26T02:00:00	33.1	ND	ND	ND	ND	ND	0.1	ND	20.1	88.4	0	0
33556	2013-11-26T03:00:00	18.3	ND	ND	ND	ND	ND	0.2	ND	20.1	86.4	0	0
33557	2013-11-26T04:00:00	10.7	ND	ND	ND	ND	ND	0.4	167.4	20.2	85.9	0	0
33558	2013-11-26T05:00:00	8.8	ND	ND	ND	ND	ND	0.1	ND	20.4	85.1	0	0
33559	2013-11-26T06:00:00	16	ND	ND	ND	ND	ND	0	ND	20.5	85.2	0	0
33560	2013-11-26T07:00:00	45.2	ND	ND	ND	ND	ND	0.3	ND	20.5	87.3	19.3	0
33561	2013-11-26T08:00:00	74.7	ND	ND	ND	ND	ND	0.6	70.3	21	87.2	122.4	0
33562	2013-11-26T09:00:00	81.4	ND	ND	ND	ND	ND	0.7	105.7	22.5	77.8	322.4	0
33563	2013-11-26T10:00:00	42.1	ND	ND	ND	ND	ND	0.7	84.1	24.2	67.3	555.2	0
33564	2013-11-26T11:00:00	25	ND	ND	ND	ND	ND	1.2	125.6	25.8	61.4	581.2	0
33565	2013-11-26T12:00:00	16.8	ND	ND	ND	ND	ND	1.3	132.7	26.7	57.9	398.5	0
33566	2013-11-26T13:00:00	11.4	ND	ND	ND	ND	ND	0.8	141.9	27.3	55.3	505.3	0
33567	2013-11-26T14:00:00	7.8	ND	ND	ND	ND	ND	0.4	233	26.9	55.3	203.2	0
33568	2013-11-26T15:00:00	16.2	ND	ND	ND	ND	ND	2.2	199	26.4	56.4	310.5	0
33569	2013-11-26T16:00:00	12.5	ND	ND	ND	ND	ND	1.8	182.5	26.5	55.2	149.8	0
33570	2013-11-26T17:00:00	23	ND	ND	ND	ND	ND	3.5	174.7	25.4	57.9	100.3	0
33571	2013-11-26T18:00:00	13.6	ND	ND	ND	ND	ND	4.1	176.5	24.5	59	11.4	0
33572	2013-11-26T19:00:00	7.7	ND	ND	ND	ND	ND	3.7	183.7	24.9	55.6	0	0
33573	2013-11-26T20:00:00	4.7	ND	ND	ND	ND	ND	3.9	167.6	24	60.1	0	0
33574	2013-11-26T21:00:00	3.7	ND	ND	ND	ND	ND	3.1	161.4	23.8	61.9	0	0
33575	2013-11-26T22:00:00	3.5	ND	ND	ND	ND	ND	1.9	169.9	23.4	64.1	0	0
33576	2013-11-26T23:00:00	2.3	ND	ND	ND	ND	ND	2	161.1	22.9	66.1	0	0
33577	2013-11-27T00:00:00	2.7	ND	ND	ND	ND	ND	0.2	83.9	22.8	68.1	0	0
33578	2013-11-27T01:00:00	5.8	ND	ND	ND	ND	ND	1.6	32.2	21.2	79.5	0	0
33579	2013-11-27T02:00:00	3.8	ND	ND	ND	ND	ND	1.7	50.4	20.1	86.5	0	0
33580	2013-11-27T03:00:00	8.7	ND	ND	ND	ND	ND	0.7	45.5	19.8	86.7	0	0
33581	2013-11-27T04:00:00	5.4	ND	ND	ND	ND	ND	0.1	ND	20	85.5	0	0
33582	2013-11-27T05:00:00	4.1	ND	ND	ND	ND	ND	0.9	144.1	20.3	84.7	0	0
33583	2013-11-27T06:00:00	3.1	ND	ND	ND	ND	ND	0.9	136.9	20	85.7	0	0
33584	2013-11-27T07:00:00	18	ND	ND	ND	ND	ND	0.7	128.7	19.8	86.8	25	0
33585	2013-11-27T08:00:00	11	ND	ND	ND	ND	ND	0.9	135.9	20.6	83.8	101	0
33586	2013-11-27T09:00:00	22.8	ND	ND	ND	ND	ND	1.3	139.3	22	78.4	300.8	0
33587	2013-11-27T10:00:00	12.8	ND	ND	ND	ND	ND	1.7	141	23.9	69.7	640.2	0
33588	2013-11-27T11:00:00	7.5	ND	ND	ND	ND	ND	1.7	139	25	65	579.4	0
33589	2013-11-27T12:00:00	5.1	ND	ND	ND	ND	ND	1.6	136.2	26.6	57.8	800.5	0
33590	2013-11-27T13:00:00	9.1	ND	ND	ND	ND	ND	1.4	138.6	27	55	415.7	0
33591	2013-11-27T14:00:00	4.6	ND	ND	ND	ND	ND	2	160.2	27.5	52.8	435.4	0
33592	2013-11-27T15:00:00	2.3	ND	ND	ND	ND	ND	3.5	177.1	22.7	74.2	48.9	0
33593	2013-11-27T16:00:00	6.8	ND	ND	ND	ND	ND	1.6	177.7	24.1	69.5	146	0
33594	2013-11-27T17:00:00	4.9	ND	ND	ND	ND	ND	2.2	194.2	25.4	61.6	147.5	0
33595	2013-11-27T18:00:00	5	ND	ND	ND	ND	ND	1.5	195	25.1	59.4	22.3	0
33596	2013-11-27T19:00:00	7.8	ND	ND	ND	ND	ND	2.7	175.9	24.2	63.4	0	0
33597	2013-11-27T20:00:00	5.5	ND	ND	ND	ND	ND	1.4	177.4	23.7	65.7	0	0
33598	2013-11-27T21:00:00	11.5	ND	ND	ND	ND	ND	1.4	175.1	23.2	67.5	0	0
33599	2013-11-27T22:00:00	7.4	ND	ND	ND	ND	ND	1.3	181.2	22.8	69.1	0	0
33600	2013-11-27T23:00:00	11.4	ND	ND	ND	ND	ND	0.4	177.5	22.6	72.1	0	0
33601	2013-11-28T00:00:00	7.6	ND	ND	ND	ND	ND	1.8	153.5	22.6	71.2	0	0
33602	2013-11-28T01:00:00	8.6	ND	ND	ND	ND	ND	1.2	152.1	22.3	73.7	0	0
33603	2013-11-28T02:00:00	7.6	ND	ND	ND	ND	ND	1.1	153.3	21.7	77.6	0	0
33604	2013-11-28T03:00:00	4.4	ND	ND	ND	ND	ND	0.8	163.3	21.7	75.8	0	0
33605	2013-11-28T04:00:00	2.2	ND	ND	ND	ND	ND	0.3	ND	21.7	75	0	0
33606	2013-11-28T05:00:00	1.1	ND	ND	ND	ND	ND	0.2	ND	21.5	78.3	0	0
33607	2013-11-28T06:00:00	8.7	ND	ND	ND	ND	ND	0.4	7.7	20.8	84.1	0	0
33608	2013-11-28T07:00:00	44.6	ND	ND	ND	ND	ND	0.2	132.6	21.1	82.5	47.4	0
33609	2013-11-28T08:00:00	23.9	ND	ND	ND	ND	ND	1.3	143.5	21.6	79.9	92.6	0
33610	2013-11-28T09:00:00	54	ND	ND	ND	ND	ND	1.3	143	21.8	80.7	126	0
33611	2013-11-28T10:00:00	40.2	ND	ND	ND	ND	ND	1.8	147.4	22.6	77.1	306.7	0
33612	2013-11-28T11:00:00	31.5	ND	ND	ND	ND	ND	1.6	144.4	22.9	75.1	204	0.51
33613	2013-11-28T12:00:00	17.3	ND	ND	ND	ND	ND	1.9	148.3	23.6	74.2	580.4	0
33614	2013-11-28T13:00:00	ND	ND	ND	ND	ND	ND	2.1	145.7	25.3	65.9	915.6	0
33615	2013-11-28T14:00:00	ND	ND	ND	ND	ND	ND	1.2	206	23	76.8	185.4	36.83
33616	2013-11-28T15:00:00	ND	ND	ND	ND	ND	ND	1.5	179	20.6	92.6	223.1	3.56
33617	2013-11-28T16:00:00	ND	ND	ND	ND	ND	ND	1.7	153.6	25.1	64.9	559.3	0
33618	2013-11-28T17:00:00	ND	ND	ND	ND	ND	ND	1.2	143	26.3	59.7	199.7	0
33619	2013-11-28T18:00:00	ND	ND	ND	ND	ND	ND	0.6	88	24.9	64.3	13.4	0
33620	2013-11-28T19:00:00	ND	ND	ND	ND	ND	ND	0.5	163.9	24.1	66	0	0
33621	2013-11-28T20:00:00	ND	ND	ND	ND	ND	ND	1.9	206.4	24	62.6	0	0
33622	2013-11-28T21:00:00	ND	ND	ND	ND	ND	ND	2.4	199.9	24	58.3	0	0
33623	2013-11-28T22:00:00	ND	ND	ND	ND	ND	ND	0.7	204.8	23.9	60.2	0	0
33624	2013-11-28T23:00:00	ND	ND	ND	ND	ND	ND	0.7	131.6	22.8	69.4	0	0
33625	2013-11-29T00:00:00	ND	ND	ND	ND	ND	ND	1.5	153.1	22.5	72.1	0	0
33626	2013-11-29T01:00:00	ND	ND	ND	ND	ND	ND	2.1	153.5	22.4	72.1	0	0
33627	2013-11-29T02:00:00	ND	ND	ND	ND	ND	ND	2.2	149.2	21.7	79.9	0	0
33628	2013-11-29T03:00:00	ND	ND	ND	ND	ND	ND	1.5	149	21.1	83.1	0	0
33629	2013-11-29T04:00:00	ND	ND	ND	ND	ND	ND	1.5	149.2	20.9	83.6	0	0
33630	2013-11-29T05:00:00	ND	ND	ND	ND	ND	ND	0.9	139.7	20.5	86.6	0	0
33631	2013-11-29T06:00:00	ND	ND	ND	ND	ND	ND	0.1	ND	20.6	86.5	0	0
33632	2013-11-29T07:00:00	ND	ND	ND	ND	ND	ND	0.5	37.8	20.9	85.6	21.7	0
33633	2013-11-29T08:00:00	ND	ND	ND	ND	ND	ND	0.4	55.4	21.6	81.8	123.5	0
33634	2013-11-29T09:00:00	ND	ND	ND	ND	ND	ND	1.1	54.7	22.1	80.2	184.9	0
33635	2013-11-29T10:00:00	ND	ND	ND	ND	ND	ND	0.8	83.6	23.2	72.1	364	0
33636	2013-11-29T11:00:00	ND	ND	ND	ND	ND	ND	1	125.6	25.6	60.8	651.9	0
33637	2013-11-29T12:00:00	ND	ND	ND	ND	ND	ND	1.5	97	27	56.4	737.5	0
33638	2013-11-29T13:00:00	ND	ND	ND	ND	ND	ND	0.9	96.2	27.4	53.2	613.6	0
33639	2013-11-29T14:00:00	ND	ND	ND	ND	ND	ND	0.5	35.1	28.4	50.4	541.2	0
33640	2013-11-29T15:00:00	ND	ND	ND	ND	ND	ND	1	167.8	28.8	48.2	472.3	0
33641	2013-11-29T16:00:00	ND	ND	ND	ND	ND	ND	3.3	171.2	28.5	47.5	374.6	0
33642	2013-11-29T17:00:00	106.8	ND	ND	ND	ND	ND	3.7	171.6	27.8	50.5	213.8	0
33643	2013-11-29T18:00:00	53.4	ND	ND	ND	ND	ND	3.6	173.9	26	56.1	15.7	0
33644	2013-11-29T19:00:00	26.7	ND	ND	ND	ND	ND	4.1	174.2	25.2	59	0	0
33645	2013-11-29T20:00:00	14.7	ND	ND	ND	ND	ND	4.3	172.9	24.9	60.6	0	0
33646	2013-11-29T21:00:00	16.8	ND	ND	ND	ND	ND	1.2	168.9	25	60.2	0	0
33647	2013-11-29T22:00:00	10.1	ND	ND	ND	ND	ND	3	158.3	24.1	63.4	0	0
33648	2013-11-29T23:00:00	6.8	ND	ND	ND	ND	ND	2.6	150.1	22.7	76.2	0	0
33649	2013-11-30T00:00:00	4.9	ND	ND	ND	ND	ND	2.2	150.3	21.9	81.8	0	0
33650	2013-11-30T01:00:00	11.3	ND	ND	ND	ND	ND	1.4	141.6	21.3	84.7	0	0
33651	2013-11-30T02:00:00	7.3	ND	ND	ND	ND	ND	1.1	142.8	21.1	85.5	0	0
33652	2013-11-30T03:00:00	5.4	ND	ND	ND	ND	ND	1.2	140.5	20.8	86.7	0	0
33653	2013-11-30T04:00:00	5.6	ND	ND	ND	ND	ND	1.1	151.9	20.8	87.3	0	0
33654	2013-11-30T05:00:00	13.3	ND	ND	ND	ND	ND	0.7	148.2	20.8	87.7	0	0
33655	2013-11-30T06:00:00	8.6	ND	ND	ND	ND	ND	0.9	144.9	20.8	86.5	0	0
33656	2013-11-30T07:00:00	5.3	ND	ND	ND	ND	ND	0.8	142	20.4	89.4	12.3	0
33657	2013-11-30T08:00:00	4.5	ND	ND	ND	ND	ND	0.9	159.6	21.3	85.4	139.3	0
33658	2013-11-30T09:00:00	3.2	ND	ND	ND	ND	ND	0.6	115.2	23.6	72.4	417.9	0
33659	2013-11-30T10:00:00	2.5	ND	ND	ND	ND	ND	1.5	127.5	25.6	63.4	706.7	0
33660	2013-11-30T11:00:00	10.2	ND	ND	ND	ND	ND	1.8	201	23.9	72.2	228.9	3.56
33661	2013-11-30T12:00:00	6.5	ND	ND	ND	ND	ND	1.1	161.7	23.3	77.3	432.4	1.27
33662	2013-11-30T13:00:00	5	ND	ND	ND	ND	ND	0.8	128.1	26.5	57.2	691.9	0
33663	2013-11-30T14:00:00	3.5	ND	ND	ND	ND	ND	0.3	164.9	26.8	56.9	523.2	0
33664	2013-11-30T15:00:00	3.5	ND	ND	ND	ND	ND	3.2	182.5	27.4	52.2	550.7	0
33665	2013-11-30T16:00:00	2.5	ND	ND	ND	ND	ND	3	177.6	26.6	53.8	200.7	0
33666	2013-11-30T17:00:00	2.5	ND	ND	ND	ND	ND	1.5	151.7	26.1	57.2	99	0
33667	2013-11-30T18:00:00	19.4	ND	ND	ND	ND	ND	0.9	134.2	25.5	61.7	24.9	0
33668	2013-11-30T19:00:00	15.3	ND	ND	ND	ND	ND	1.8	177.8	24.7	58.9	0	0
33669	2013-11-30T20:00:00	9	ND	ND	ND	ND	ND	2.1	174.4	24.1	60.1	0	0
33670	2013-11-30T21:00:00	10.4	ND	ND	ND	ND	ND	0.6	121.1	23.8	66.6	0	0
33671	2013-11-30T22:00:00	29.4	ND	ND	ND	ND	ND	1.4	145.5	23.1	67.6	0	0
33672	2013-11-30T23:00:00	28.5	ND	ND	ND	ND	ND	1.2	154.1	22.7	70.4	0	0
33673	2013-12-01T00:00:00	16.1	ND	ND	ND	ND	ND	1.7	158.3	22.3	66.4	0	0
33674	2013-12-01T01:00:00	13.3	ND	ND	ND	ND	ND	1	154.4	22.2	69.8	0	0
33675	2013-12-01T02:00:00	15.2	ND	ND	ND	ND	ND	0.5	158.8	21.5	77.2	0	0
33676	2013-12-01T03:00:00	32.3	ND	ND	ND	ND	ND	1.2	160.9	21.2	78.3	0	0
33677	2013-12-01T04:00:00	17.7	ND	ND	ND	ND	ND	1	144.1	21.4	76.4	0	0
33678	2013-12-01T05:00:00	18	ND	ND	ND	ND	ND	0.5	143.8	21.1	76.7	0	0
33679	2013-12-01T06:00:00	10.2	ND	ND	ND	ND	ND	0.1	ND	20.9	79.1	0	0
33680	2013-12-01T07:00:00	40.1	ND	ND	ND	ND	ND	0.8	62.1	20.2	83.6	26.2	0
33681	2013-12-01T08:00:00	43.9	ND	ND	ND	ND	ND	0.7	75	20.8	81.6	157.7	0
33682	2013-12-01T09:00:00	ND	ND	ND	ND	ND	ND	0.7	137.5	22.7	72	303.5	0
33683	2013-12-01T10:00:00	ND	ND	ND	ND	ND	ND	1.2	132.9	25	61.7	626.2	0
33684	2013-12-01T11:00:00	ND	ND	ND	ND	ND	ND	1.9	140.1	26.2	58.4	722.8	0
33685	2013-12-01T12:00:00	ND	ND	ND	ND	ND	ND	2	139.6	27.2	54.7	644.1	0
33686	2013-12-01T13:00:00	ND	ND	ND	ND	ND	ND	1.3	142.5	28.2	50.2	829.3	0
33687	2013-12-01T14:00:00	ND	ND	ND	ND	ND	ND	1.5	167.1	28.7	48.2	515.8	0
33688	2013-12-01T15:00:00	ND	ND	ND	ND	ND	ND	1.5	176.9	29.2	47	642.1	0
33689	2013-12-01T16:00:00	ND	ND	ND	ND	ND	ND	4	181.1	28.5	48.3	334.3	0
33690	2013-12-01T17:00:00	ND	ND	ND	ND	ND	ND	3.6	179.7	27.3	51.2	131.8	0
33691	2013-12-01T18:00:00	76.2	ND	ND	ND	ND	ND	3.9	185.8	26.1	56.5	27.3	0
33692	2013-12-01T19:00:00	38.9	ND	ND	ND	ND	ND	4.2	180.9	25.4	58.8	0	0
33693	2013-12-01T20:00:00	19.9	ND	ND	ND	ND	ND	4.5	176	25.3	58.7	0	0
33694	2013-12-01T21:00:00	10.5	ND	ND	ND	ND	ND	2.4	191.8	24	65	0	0.51
33695	2013-12-01T22:00:00	6.2	ND	ND	ND	ND	ND	3.4	168.2	22.9	71.8	0	0.25
33696	2013-12-01T23:00:00	4.6	ND	ND	ND	ND	ND	1.9	153.8	22.9	73.8	0	0
33697	2013-12-02T00:00:00	3.4	ND	ND	ND	ND	ND	1.6	145	21.4	85.1	0	0
33698	2013-12-02T01:00:00	2.8	ND	ND	ND	ND	ND	1.8	150.3	21.2	85.8	0	0
33699	2013-12-02T02:00:00	1.4	ND	ND	ND	ND	ND	1.6	150.5	21.4	84.4	0	0
33700	2013-12-02T03:00:00	0.7	ND	ND	ND	ND	ND	0.4	141.3	21.4	85	0	0
33701	2013-12-02T04:00:00	1.2	ND	ND	ND	ND	ND	0.2	240.9	20.3	91.3	0	35.56
33702	2013-12-02T05:00:00	1.7	ND	ND	ND	ND	ND	0.4	271.6	19.7	94.9	0	9.14
33703	2013-12-02T06:00:00	2.7	ND	ND	ND	ND	ND	0.3	253.6	19.8	94.8	0	1.52
33704	2013-12-02T07:00:00	3	ND	ND	ND	ND	ND	0.4	8.8	20	93.5	10.9	0.25
33705	2013-12-02T08:00:00	3.1	ND	ND	ND	ND	ND	0.8	35	20.4	91.6	40	0.51
33706	2013-12-02T09:00:00	15.9	ND	ND	ND	ND	ND	0.7	65.2	20.5	92.1	50.9	0.25
33707	2013-12-02T10:00:00	9.3	ND	ND	ND	ND	ND	0.6	96.8	20.7	91.3	125.1	0.25
33708	2013-12-02T11:00:00	11.1	ND	ND	ND	ND	ND	1.1	141.7	21.7	86.5	262.1	0
33709	2013-12-02T12:00:00	5.5	ND	ND	ND	ND	ND	0.9	141.6	22.3	81.9	284	0.25
33710	2013-12-02T13:00:00	2.8	ND	ND	ND	ND	ND	0.7	137.2	23	78.1	282.8	0
33711	2013-12-02T14:00:00	1.4	ND	ND	ND	ND	ND	0.7	93.6	22.9	78.8	341.8	0.51
33712	2013-12-02T15:00:00	0.7	ND	ND	ND	ND	ND	0.8	90.4	24.1	74.8	566.4	0.25
33713	2013-12-02T16:00:00	7.2	ND	ND	ND	ND	ND	0.8	75.1	24.9	67.6	292.1	0
33714	2013-12-02T17:00:00	29.9	ND	ND	ND	ND	ND	0.9	120.9	25	66.7	143.4	0
33715	2013-12-02T18:00:00	20.7	ND	ND	ND	ND	ND	1.3	146.6	24.1	73.3	31.8	0
33716	2013-12-02T19:00:00	41.8	ND	ND	ND	ND	ND	0.3	ND	23.8	76.1	0	0
33717	2013-12-02T20:00:00	27	ND	ND	ND	ND	ND	0.3	28.1	23.6	74.9	0	0
33718	2013-12-02T21:00:00	53.4	ND	ND	ND	ND	ND	0.4	62.3	23.3	75.1	0	0
33719	2013-12-02T22:00:00	43	ND	ND	ND	ND	ND	1	150.7	23	76.9	0	0
33720	2013-12-02T23:00:00	57	ND	ND	ND	ND	ND	0.9	146	22.4	82.3	0	0
33721	2013-12-03T00:00:00	35	ND	ND	ND	ND	ND	0.3	ND	22.3	82.2	0	0
33722	2013-12-03T01:00:00	27.7	ND	ND	ND	ND	ND	0.3	159.3	22.3	80.2	0	0
33723	2013-12-03T02:00:00	16.6	ND	ND	ND	ND	ND	1.3	27.2	21.7	83.3	0	0
33724	2013-12-03T03:00:00	20.1	ND	ND	ND	ND	ND	0.7	20.4	20.9	86.4	0	0
33725	2013-12-03T04:00:00	11.5	ND	ND	ND	ND	ND	0	ND	20.9	87.3	0	0
33726	2013-12-03T05:00:00	13.6	ND	ND	ND	ND	ND	0.8	150	20.8	89.7	0	1.27
33727	2013-12-03T06:00:00	8.6	ND	ND	ND	ND	ND	1	146.3	20.4	92	0	0.25
33728	2013-12-03T07:00:00	7.2	ND	ND	ND	ND	ND	0.9	144.2	20.1	92.7	17.2	0
33729	2013-12-03T08:00:00	12.1	ND	ND	ND	ND	ND	1	135.2	20.6	90.6	75.2	0
33730	2013-12-03T09:00:00	6.8	ND	ND	ND	ND	ND	0.7	144.2	21.8	84.5	291.1	0
33731	2013-12-03T10:00:00	ND	ND	ND	ND	ND	ND	0.8	114.5	24.1	73.4	491.8	0
33732	2013-12-03T11:00:00	15.8	ND	ND	ND	ND	ND	1	117	24.8	68.1	435.4	0
33733	2013-12-03T12:00:00	40.8	ND	ND	ND	ND	ND	1.1	139.1	25.7	64.7	470.8	0
33734	2013-12-03T13:00:00	37.1	ND	ND	ND	ND	ND	0.5	106.4	26.2	62	302.2	0
33735	2013-12-03T14:00:00	43.4	ND	ND	ND	ND	ND	0.5	47.6	25.9	63.3	100.9	0
33736	2013-12-03T15:00:00	39.7	ND	ND	ND	ND	ND	0.5	231.9	26.3	62.5	446.8	0
33737	2013-12-03T16:00:00	22.7	ND	ND	ND	ND	ND	2	167.4	26.9	56.5	238.1	0
33738	2013-12-03T17:00:00	12	ND	ND	ND	ND	ND	1.7	148.2	25.2	65.5	34	0
33739	2013-12-03T18:00:00	29.5	ND	ND	ND	ND	ND	1.4	125	23.4	78	4.8	0
33740	2013-12-03T19:00:00	42.1	ND	ND	ND	ND	ND	0.9	97.1	23.2	77.4	0	0
33741	2013-12-03T20:00:00	65.7	ND	ND	ND	ND	ND	1.2	144.2	22.9	80.6	0	0
33742	2013-12-03T21:00:00	59.1	ND	ND	ND	ND	ND	1.7	142.9	22.4	83.9	0	0
33743	2013-12-03T22:00:00	65.4	ND	ND	ND	ND	ND	1.3	147.3	22.1	84.4	0	0
33744	2013-12-03T23:00:00	ND	ND	ND	ND	ND	ND	0.7	143.3	22	83.6	0	0
33745	2013-12-04T00:00:00	ND	ND	ND	ND	ND	ND	0	ND	22	82.3	0	0
33746	2013-12-04T01:00:00	ND	ND	ND	ND	ND	ND	0.3	160.2	21.9	81.6	0	0
33747	2013-12-04T02:00:00	ND	ND	ND	ND	ND	ND	0.1	ND	21.9	81.4	0	0
33748	2013-12-04T03:00:00	101.1	ND	ND	ND	ND	ND	0.7	137.7	21.3	86.5	0	0
33749	2013-12-04T04:00:00	52.1	ND	ND	ND	ND	ND	0.3	ND	20.9	89.2	0	0
33750	2013-12-04T05:00:00	28	ND	ND	ND	ND	ND	0.4	115.8	21	88.6	0	0
33751	2013-12-04T06:00:00	35.5	ND	ND	ND	ND	ND	0.1	ND	20.9	86.9	0	0
33752	2013-12-04T07:00:00	ND	ND	ND	ND	ND	ND	0.2	ND	21.1	87.4	34.1	0
33753	2013-12-04T08:00:00	ND	ND	ND	ND	ND	ND	0.1	286.5	21.8	83.3	131.4	0
33754	2013-12-04T09:00:00	ND	ND	ND	ND	ND	ND	0.5	63.8	23	77	287	0
33755	2013-12-04T10:00:00	ND	ND	ND	ND	ND	ND	0.8	93.4	24.8	68.9	486.6	0
33756	2013-12-04T11:00:00	ND	ND	ND	ND	ND	ND	1.4	108.4	25.6	65.3	354.5	0
33757	2013-12-04T12:00:00	ND	ND	ND	ND	ND	ND	1.1	110.6	26.4	61.3	425.3	0
33758	2013-12-04T13:00:00	ND	ND	ND	ND	ND	ND	1.2	128.2	26.5	61.3	284.9	0
33759	2013-12-04T14:00:00	ND	ND	ND	ND	ND	ND	1.4	144.9	27.9	56.7	649.6	0
33760	2013-12-04T15:00:00	ND	ND	ND	ND	ND	ND	1.9	143.8	28.4	55.1	511.9	0
33761	2013-12-04T16:00:00	ND	ND	ND	ND	ND	ND	1	127.9	27.9	56.4	176.2	0
33762	2013-12-04T17:00:00	ND	ND	ND	ND	ND	ND	1	151.3	27.5	55.9	102	0
33763	2013-12-04T18:00:00	77.6	ND	ND	ND	ND	ND	2.5	172.4	26.3	57.4	15	0
33764	2013-12-04T19:00:00	40.7	ND	ND	ND	ND	ND	2.7	170.3	25.4	61.2	0	0
33765	2013-12-04T20:00:00	ND	ND	ND	ND	ND	ND	2	181.4	25.2	61.4	0	0
33766	2013-12-04T21:00:00	ND	ND	ND	ND	ND	ND	0.5	56.1	24.2	69.4	0	0
33767	2013-12-04T22:00:00	ND	ND	ND	ND	ND	ND	0.6	120.3	23.4	74.7	0	0
33768	2013-12-04T23:00:00	ND	ND	ND	ND	ND	ND	0.7	125	23.2	75.8	0	0
33769	2013-12-05T00:00:00	ND	ND	ND	ND	ND	ND	0.7	139.7	22.5	80.7	0	0
33770	2013-12-05T01:00:00	ND	ND	ND	ND	ND	ND	0.7	89.7	22.5	80.7	0	0
33771	2013-12-05T02:00:00	ND	ND	ND	ND	ND	ND	0.5	142	21.8	83.1	0	0
33772	2013-12-05T03:00:00	ND	ND	ND	ND	ND	ND	0.9	131.5	21.9	82.4	0	0
33773	2013-12-05T04:00:00	ND	ND	ND	ND	ND	ND	0.9	152.5	21.6	84.8	0	0
33774	2013-12-05T05:00:00	ND	ND	ND	ND	ND	ND	0.7	114.4	21.5	85.8	0	0
33775	2013-12-05T06:00:00	ND	ND	ND	ND	ND	ND	0.3	178.6	21.1	88.2	0	0
33776	2013-12-05T07:00:00	ND	ND	ND	ND	ND	ND	0.6	146.6	21.5	85.2	6	0
33777	2013-12-05T08:00:00	ND	ND	ND	ND	ND	ND	0.1	ND	22	82.1	35.8	0
33778	2013-12-05T09:00:00	112.2	ND	ND	ND	ND	ND	0.7	36.2	22.9	80.1	270.9	0
33779	2013-12-05T10:00:00	104.2	ND	ND	ND	ND	ND	1	93.2	25.2	69.7	531	0
33780	2013-12-05T11:00:00	56.8	ND	ND	ND	ND	ND	1.3	128	26.7	62.7	641.2	0
33781	2013-12-05T12:00:00	67	ND	ND	ND	ND	ND	1.3	87	27.9	58.2	695.8	0
33782	2013-12-05T13:00:00	47.5	ND	ND	ND	ND	ND	0.8	54.2	27	60.8	224.5	0
33783	2013-12-05T14:00:00	52.3	ND	ND	ND	ND	ND	0.5	50.1	27.8	58.2	510.9	0
33784	2013-12-05T15:00:00	28.1	ND	ND	ND	ND	ND	1.3	222.6	28.7	50.4	600.8	0
33785	2013-12-05T16:00:00	16.4	ND	ND	ND	ND	ND	2.1	180.7	29.2	47.2	362.5	0
33786	2013-12-05T17:00:00	10.2	ND	ND	ND	ND	ND	3.1	172.8	27.5	51.1	71.3	0
33787	2013-12-05T18:00:00	9.7	ND	ND	ND	ND	ND	3.2	172.4	26.6	53.5	22.1	0
33788	2013-12-05T19:00:00	5.5	ND	ND	ND	ND	ND	2.9	161.5	25.6	58.6	0	0
33789	2013-12-05T20:00:00	20.3	ND	ND	ND	ND	ND	2.3	176.3	25	62.7	0	0
33790	2013-12-05T21:00:00	12	ND	ND	ND	ND	ND	0.6	79.5	23.5	68	0	0
33791	2013-12-05T22:00:00	29.7	ND	ND	ND	ND	ND	0.9	117.6	22.1	71.8	0	0
33792	2013-12-05T23:00:00	ND	ND	ND	ND	ND	ND	0.1	ND	22.3	71.7	0	0
33793	2013-12-06T00:00:00	ND	ND	ND	ND	ND	ND	0.3	ND	22.5	71.7	0	0
33794	2013-12-06T01:00:00	ND	ND	ND	ND	ND	ND	0.6	154.6	22.4	74	0	0
33795	2013-12-06T02:00:00	ND	ND	ND	ND	ND	ND	0.4	145	22	75.6	0	0
33796	2013-12-06T03:00:00	ND	ND	ND	ND	ND	ND	0.5	136.2	20.8	84.1	0	0
33797	2013-12-06T04:00:00	ND	ND	ND	ND	ND	ND	0.3	146.5	21.1	80.7	0	0
33798	2013-12-06T05:00:00	ND	ND	ND	ND	ND	ND	0.5	148.8	21.2	79.2	0	0
33799	2013-12-06T06:00:00	ND	ND	ND	ND	ND	ND	0.2	93	20.4	86.7	0	0
33800	2013-12-06T07:00:00	110	ND	ND	ND	ND	ND	0.2	ND	20.8	82.7	36.6	0
33801	2013-12-06T08:00:00	100.1	ND	ND	ND	ND	ND	0.3	85.4	22.2	75.9	156	0
33802	2013-12-06T09:00:00	73.4	ND	ND	ND	ND	ND	0.5	110.1	24.1	67.1	398.2	0
33803	2013-12-06T10:00:00	102.3	ND	ND	ND	ND	ND	1.1	131.3	26.1	59.4	558.6	0
33804	2013-12-06T11:00:00	71	ND	ND	ND	ND	ND	1.1	116.1	27.5	54.2	755.2	0
33805	2013-12-06T12:00:00	68.1	ND	ND	ND	ND	ND	1.2	107.1	28.3	52.4	591.6	0
33806	2013-12-06T13:00:00	53.6	ND	ND	ND	ND	ND	0.3	129.1	28.8	50.6	667.6	0
33807	2013-12-06T14:00:00	51.8	ND	ND	ND	ND	ND	0.6	68	29.7	47.9	513.9	0
33808	2013-12-06T15:00:00	26.5	ND	ND	ND	ND	ND	3.7	180.3	29.2	47	348.6	0
33809	2013-12-06T16:00:00	14.5	ND	ND	ND	ND	ND	3.8	176.8	29.3	46.5	492.5	0
33810	2013-12-06T17:00:00	8	ND	ND	ND	ND	ND	3.7	178.8	28	49.4	243.5	0
33811	2013-12-06T18:00:00	30.6	ND	ND	ND	ND	ND	2.9	176.4	26.7	53.5	17.2	0
33812	2013-12-06T19:00:00	16.6	ND	ND	ND	ND	ND	4.1	169.3	25.1	61.3	0	0
33813	2013-12-06T20:00:00	10.1	ND	ND	ND	ND	ND	3.3	157.8	24.1	66.9	0	0
33814	2013-12-06T21:00:00	19.4	ND	ND	ND	ND	ND	1.8	144.7	23.1	71.1	0	0
33815	2013-12-06T22:00:00	ND	ND	ND	ND	ND	ND	1.9	146.6	21.3	77.6	0	0
33816	2013-12-06T23:00:00	ND	ND	ND	ND	ND	ND	0.9	172.2	21.6	77.1	0	0
33817	2013-12-07T00:00:00	ND	ND	ND	ND	ND	ND	0.2	13.3	22.4	74.4	0	0
33818	2013-12-07T01:00:00	ND	ND	ND	ND	ND	ND	0.9	63.9	21.8	77.8	0	0
33819	2013-12-07T02:00:00	ND	ND	ND	ND	ND	ND	0.7	67.5	20.9	85.3	0	0
33820	2013-12-07T03:00:00	ND	ND	ND	ND	ND	ND	0.4	129.2	20.8	85.8	0	0.25
33821	2013-12-07T04:00:00	ND	ND	ND	ND	ND	ND	0.7	144	20.9	84.5	0	0
33822	2013-12-07T05:00:00	75.1	ND	ND	ND	ND	ND	0.6	146.5	21.2	83.3	0	0
33823	2013-12-07T06:00:00	43.4	ND	ND	ND	ND	ND	0.9	136.2	20.9	86.4	0	0
33824	2013-12-07T07:00:00	23.4	ND	ND	ND	ND	ND	0.5	126.6	21	85.9	21.3	0
33825	2013-12-07T08:00:00	38.4	ND	ND	ND	ND	ND	1.5	135.5	21	86.3	45.2	0
33826	2013-12-07T09:00:00	20.1	ND	ND	ND	ND	ND	1.5	144.4	21.1	85.8	122.2	0
33827	2013-12-07T10:00:00	17.1	ND	ND	ND	ND	ND	1.2	139.5	21.5	81.7	150.2	0.76
33828	2013-12-07T11:00:00	10.6	ND	ND	ND	ND	ND	0.7	139.9	21.7	86.8	303.2	0.51
33829	2013-12-07T12:00:00	30.9	ND	ND	ND	ND	ND	1.2	69.4	24	73.3	521.4	0
33830	2013-12-07T13:00:00	21.4	ND	ND	ND	ND	ND	0.8	67	26.5	59.5	592.7	0
33831	2013-12-07T14:00:00	19.4	ND	ND	ND	ND	ND	2.2	48.1	26.8	60.9	387.7	0
33832	2013-12-07T15:00:00	14.3	ND	ND	ND	ND	ND	0.5	345.7	25.5	63.7	205.9	0
33833	2013-12-07T16:00:00	12.7	ND	ND	ND	ND	ND	1.1	158.1	25.3	62.1	109.6	0
33834	2013-12-07T17:00:00	7.3	ND	ND	ND	ND	ND	1.8	167.1	25.1	58.7	90.5	0
33835	2013-12-07T18:00:00	5.6	ND	ND	ND	ND	ND	2.7	169.4	24.7	59.5	25.6	0
33836	2013-12-07T19:00:00	5.2	ND	ND	ND	ND	ND	2.8	161.8	23.8	63.6	0	0
33837	2013-12-07T20:00:00	17.1	ND	ND	ND	ND	ND	1.5	138.8	23.2	70.2	0	0
33838	2013-12-07T21:00:00	9.9	ND	ND	ND	ND	ND	1	53.1	21.1	88.3	0	0
33839	2013-12-07T22:00:00	20.3	ND	ND	ND	ND	ND	0.5	66.9	20.9	89.5	0	0
33840	2013-12-07T23:00:00	20.6	ND	ND	ND	ND	ND	0.3	ND	21.2	88.4	0	0
33841	2013-12-08T00:00:00	13.9	ND	ND	ND	ND	ND	1	41.3	20.7	90.6	0	0.25
33842	2013-12-08T01:00:00	15.9	ND	ND	ND	ND	ND	0.2	63	20.5	90.9	0	0
33843	2013-12-08T02:00:00	9.8	ND	ND	ND	ND	ND	0.4	ND	20.2	90.7	0	2.54
33844	2013-12-08T03:00:00	6.9	ND	ND	ND	ND	ND	0.5	144.4	19.9	92.7	0	2.54
33845	2013-12-08T04:00:00	4.7	ND	ND	ND	ND	ND	1	141.2	19.8	93.3	0	0.51
33846	2013-12-08T05:00:00	3.6	ND	ND	ND	ND	ND	0.5	146	19.8	94.3	0	0
33847	2013-12-08T06:00:00	10.2	ND	ND	ND	ND	ND	0.5	140	20	94.2	0	0.25
33848	2013-12-08T07:00:00	5.8	ND	ND	ND	ND	ND	0.5	129.5	20.1	93.7	30.9	0
33849	2013-12-08T08:00:00	4.7	ND	ND	ND	ND	ND	1.2	132.2	20.4	90.8	54.1	0
33850	2013-12-08T09:00:00	4.3	ND	ND	ND	ND	ND	0.7	54.6	20.4	91.1	91.9	3.3
33851	2013-12-08T10:00:00	6.8	ND	ND	ND	ND	ND	0.4	14.9	21.5	88.6	438.9	0.25
33852	2013-12-08T11:00:00	4.2	ND	ND	ND	ND	ND	0.5	13.5	23.9	72.7	700.4	0
33853	2013-12-08T12:00:00	4	ND	ND	ND	ND	ND	1.1	53.6	25.8	61.6	701	0
33854	2013-12-08T13:00:00	4.1	ND	ND	ND	ND	ND	0.7	36.8	26.1	59.8	466.5	0
33855	2013-12-08T14:00:00	2	ND	ND	ND	ND	ND	2.5	70.9	26.6	59.3	398	0
33856	2013-12-08T15:00:00	2.9	ND	ND	ND	ND	ND	2.1	60.6	26.2	58.5	172.4	0
33857	2013-12-08T16:00:00	3.2	ND	ND	ND	ND	ND	2.6	167	25.4	54.8	48.5	0
33858	2013-12-08T17:00:00	1.6	ND	ND	ND	ND	ND	3.4	151.3	22.2	78	23	1.02
33859	2013-12-08T18:00:00	0.8	ND	ND	ND	ND	ND	2.1	152.3	20.7	88	5.3	2.29
33860	2013-12-08T19:00:00	2.5	ND	ND	ND	ND	ND	1.5	153.8	21.3	85.8	0	0
33861	2013-12-08T20:00:00	3.2	ND	ND	ND	ND	ND	0.7	155	21.9	80.1	0	0
33862	2013-12-08T21:00:00	2.1	ND	ND	ND	ND	ND	0.8	125.3	21.3	82.6	0	0
33863	2013-12-08T22:00:00	17.3	ND	ND	ND	ND	ND	0.2	ND	20.6	87.3	0	0
33864	2013-12-08T23:00:00	28.5	ND	ND	ND	ND	ND	0	270.9	20.7	87.4	0	0.25
33865	2013-12-09T00:00:00	44.4	ND	ND	ND	ND	ND	0.1	342.9	20.9	85.9	0	0
33866	2013-12-09T01:00:00	30.3	ND	ND	ND	ND	ND	0.3	ND	20.8	84.1	0	0
33867	2013-12-09T02:00:00	17.3	ND	ND	ND	ND	ND	0.4	119.7	20.6	84.8	0	0
33868	2013-12-09T03:00:00	9.5	ND	ND	ND	ND	ND	0.2	46.4	20.3	89.9	0	0
33869	2013-12-09T04:00:00	18.5	ND	ND	ND	ND	ND	0.1	ND	20.2	87.6	0	0
33870	2013-12-09T05:00:00	10.8	ND	ND	ND	ND	ND	0.5	56.8	20.3	86.8	0	0
33871	2013-12-09T06:00:00	18.9	ND	ND	ND	ND	ND	0.1	ND	20	91.2	0	0
33872	2013-12-09T07:00:00	17.2	ND	ND	ND	ND	ND	0.5	153.9	20.1	87.4	18.5	0
33873	2013-12-09T08:00:00	48.1	ND	ND	ND	ND	ND	0.5	128	20.7	88.8	136	0
33874	2013-12-09T09:00:00	52.8	ND	ND	ND	ND	ND	0.7	102.3	22.2	79.3	281.1	0
33875	2013-12-09T10:00:00	70.3	ND	ND	ND	ND	ND	1.1	119.1	23	74.7	351	0
33876	2013-12-09T11:00:00	46.8	ND	ND	ND	ND	ND	0.9	139.7	24.4	67.3	483	0
33877	2013-12-09T12:00:00	44.2	ND	ND	ND	ND	ND	1.1	112.8	25.8	60.2	547.8	0
33878	2013-12-09T13:00:00	35.2	ND	ND	ND	ND	ND	0.7	89.6	26.9	54.9	466.3	0
33879	2013-12-09T14:00:00	43.6	ND	ND	ND	ND	ND	0.3	79.4	26.9	55.6	190.8	0
33880	2013-12-09T15:00:00	23.5	ND	ND	ND	ND	ND	0.4	93.7	25	68.8	81.1	8.64
33881	2013-12-09T16:00:00	35.3	ND	ND	ND	ND	ND	1.7	167.7	23.9	69.8	76.9	0
33882	2013-12-09T17:00:00	18.4	ND	ND	ND	ND	ND	1.5	164.1	24.3	67	70.4	0
33883	2013-12-09T18:00:00	21.9	ND	ND	ND	ND	ND	1.5	166.1	24.1	64.9	21.6	0
33884	2013-12-09T19:00:00	18	ND	ND	ND	ND	ND	2.4	164.6	23.4	66.3	0	0
33885	2013-12-09T20:00:00	28.1	ND	ND	ND	ND	ND	2.2	167	23.2	67	0	0
33886	2013-12-09T21:00:00	16.2	ND	ND	ND	ND	ND	1.4	182.3	22.7	68	0	0
33887	2013-12-09T22:00:00	10.9	ND	ND	ND	ND	ND	1	163.6	22	71.9	0	0
33888	2013-12-09T23:00:00	7.2	ND	ND	ND	ND	ND	0.7	157.7	21.4	77.6	0	0
33889	2013-12-10T00:00:00	30	ND	ND	ND	ND	ND	1.4	161	20.9	76.5	0	0
33890	2013-12-10T01:00:00	15	ND	ND	ND	ND	ND	0.9	157.2	21	74.3	0	0
33891	2013-12-10T02:00:00	ND	ND	ND	ND	ND	ND	0.5	167.8	20.9	76.7	0	0
33892	2013-12-10T03:00:00	ND	ND	ND	ND	ND	ND	0.3	ND	20.8	76.4	0	0
33893	2013-12-10T04:00:00	ND	ND	ND	ND	ND	ND	0.3	ND	20.8	79.3	0	0
33894	2013-12-10T05:00:00	ND	ND	ND	ND	ND	ND	0.2	ND	20.2	85.3	0	0
33895	2013-12-10T06:00:00	ND	ND	ND	ND	ND	ND	0.4	60.3	20.2	86.4	0	0
33896	2013-12-10T07:00:00	ND	ND	ND	ND	ND	ND	0.3	ND	20.4	84.9	34.4	0
33897	2013-12-10T08:00:00	ND	ND	ND	ND	ND	ND	0.4	86.3	21.9	78.6	216.1	0
33898	2013-12-10T09:00:00	ND	ND	ND	ND	ND	ND	1.1	116.6	23.7	70.3	351.3	0
33899	2013-12-10T10:00:00	ND	ND	ND	ND	ND	ND	1.4	124.9	24.8	65.6	535.9	0
33900	2013-12-10T11:00:00	ND	ND	ND	ND	ND	ND	1.6	119.2	26	60.2	678.8	0
33901	2013-12-10T12:00:00	ND	ND	ND	ND	ND	ND	1.5	132.4	27.1	56.4	538.1	0
33902	2013-12-10T13:00:00	ND	ND	ND	ND	ND	ND	1.4	132.6	27.3	56.2	367.8	0
33903	2013-12-10T14:00:00	ND	ND	ND	ND	ND	ND	1	131.1	27.9	54.1	497.8	0
33904	2013-12-10T15:00:00	ND	ND	ND	ND	ND	ND	1.2	88.1	28	54.5	145.8	0
33905	2013-12-10T16:00:00	ND	ND	ND	ND	ND	ND	1.1	122.9	27.1	56.3	99.9	0
33906	2013-12-10T17:00:00	83.9	ND	ND	ND	ND	ND	2.3	170.2	26.5	56.7	105.7	0
33907	2013-12-10T18:00:00	56.9	ND	ND	ND	ND	ND	2	170	26	58	45.9	0
33908	2013-12-10T19:00:00	29.9	ND	ND	ND	ND	ND	2.7	167.2	24.7	61.6	0	0
33909	2013-12-10T20:00:00	36.1	ND	ND	ND	ND	ND	0.8	159.2	24.3	63.9	0	0
33910	2013-12-10T21:00:00	34.4	ND	ND	ND	ND	ND	0.7	166.9	23.9	64.3	0	0
33911	2013-12-10T22:00:00	26.7	ND	ND	ND	ND	ND	0.9	158.3	23.4	67.4	0	0
33912	2013-12-10T23:00:00	ND	ND	ND	ND	ND	ND	1	148.2	22.5	75.1	0	0
33913	2013-12-11T00:00:00	ND	ND	ND	ND	ND	ND	0.4	152.7	22	78	0	0
33914	2013-12-11T01:00:00	ND	ND	ND	ND	ND	ND	1.1	157.2	22.2	70.1	0	0
33915	2013-12-11T02:00:00	ND	ND	ND	ND	ND	ND	0.8	136.5	21.7	79.2	0	0
33916	2013-12-11T03:00:00	ND	ND	ND	ND	ND	ND	0.9	146.5	21.1	83.1	0	0
33917	2013-12-11T04:00:00	ND	ND	ND	ND	ND	ND	0.6	156.9	21.1	79.3	0	0
33918	2013-12-11T05:00:00	ND	ND	ND	ND	ND	ND	0.6	171.5	20.8	76.1	0	0
33919	2013-12-11T06:00:00	ND	ND	ND	ND	ND	ND	0.2	ND	20.9	77.7	0	0
33920	2013-12-11T07:00:00	ND	ND	ND	ND	ND	ND	0.4	86	20.9	82.3	27.6	0
33921	2013-12-11T08:00:00	ND	ND	ND	ND	ND	ND	0.5	156.2	21.8	75.6	173.3	0
33922	2013-12-11T09:00:00	ND	ND	ND	ND	ND	ND	0.8	144	23.9	67	373.3	0
33923	2013-12-11T10:00:00	ND	ND	ND	ND	ND	ND	1.4	139.1	25.2	64.5	577.7	0
33924	2013-12-11T11:00:00	23.2	ND	ND	ND	ND	ND	1	96.5	27	57.3	661.6	0
33925	2013-12-11T12:00:00	52.8	ND	ND	ND	ND	ND	1.1	109.9	27.7	55	414.4	0
33926	2013-12-11T13:00:00	29.1	ND	ND	ND	ND	ND	1.1	73.4	28.7	51.6	618.7	0
33927	2013-12-11T14:00:00	56.1	ND	ND	ND	ND	ND	1.4	98.7	29.1	50.6	522.2	0
33928	2013-12-11T15:00:00	36.8	ND	ND	ND	ND	ND	0.3	83	29.9	48.4	464.6	0
33929	2013-12-11T16:00:00	39.4	ND	ND	ND	ND	ND	2.1	173.5	29.5	48.5	324.7	0
33930	2013-12-11T17:00:00	21.4	ND	ND	ND	ND	ND	3.2	175.6	29.2	47.9	277.8	0
33931	2013-12-11T18:00:00	12.7	ND	ND	ND	ND	ND	3.2	181.3	27.4	52.3	48.1	0
33932	2013-12-11T19:00:00	10.9	ND	ND	ND	ND	ND	3.5	172.8	26	57.5	0	0
33933	2013-12-11T20:00:00	26.2	ND	ND	ND	ND	ND	3.6	168.1	25.6	58.8	0	0
33934	2013-12-11T21:00:00	14.7	ND	ND	ND	ND	ND	1.4	178.7	25.1	61.4	0	0
33935	2013-12-11T22:00:00	29.8	ND	ND	ND	ND	ND	0.6	105.4	24.2	68.4	0	0
33936	2013-12-11T23:00:00	35.8	ND	ND	ND	ND	ND	1.3	154.1	24.3	66.8	0	0
33937	2013-12-12T00:00:00	33.9	ND	ND	ND	ND	ND	0.4	41.6	22.9	74.9	0	0
33938	2013-12-12T01:00:00	19	ND	ND	ND	ND	ND	0.5	ND	22.6	76.4	0	0
33939	2013-12-12T02:00:00	33.1	ND	ND	ND	ND	ND	0.8	150.8	22.5	75.9	0	0
33940	2013-12-12T03:00:00	29.6	ND	ND	ND	ND	ND	0.4	ND	22	80	0	0
33941	2013-12-12T04:00:00	20.1	ND	ND	ND	ND	ND	0.5	150.1	21.3	83.1	0	0
33942	2013-12-12T05:00:00	10.7	ND	ND	ND	ND	ND	0.3	ND	21.6	79.7	0	0
33943	2013-12-12T06:00:00	24	ND	ND	ND	ND	ND	0.1	ND	21.2	83.3	0	0
33944	2013-12-12T07:00:00	18.3	ND	ND	ND	ND	ND	1	161.5	21.7	76.5	36.3	0
33945	2013-12-12T08:00:00	30.5	ND	ND	ND	ND	ND	0.6	110.7	23.3	69.3	157.6	0
33946	2013-12-12T09:00:00	38.2	ND	ND	ND	ND	ND	0.6	110.4	24.5	70.2	356.9	0
33947	2013-12-12T10:00:00	67.5	ND	ND	ND	ND	ND	1.5	141.3	26.1	62.4	587.5	0
33948	2013-12-12T11:00:00	35.8	ND	ND	ND	ND	ND	1.5	135.6	27.6	56.5	669.4	0
33949	2013-12-12T12:00:00	23.1	ND	ND	ND	ND	ND	1.3	107.3	28.5	53.6	688.1	0
33950	2013-12-12T13:00:00	22	ND	ND	ND	ND	ND	0.7	126.7	29.8	50	803	0
33951	2013-12-12T14:00:00	41.3	ND	ND	ND	ND	ND	0.6	123.7	30.7	47.5	553.8	0
33952	2013-12-12T15:00:00	25	ND	ND	ND	ND	ND	1.4	183.6	30.3	47.1	416.6	0
33953	2013-12-12T16:00:00	13.8	ND	ND	ND	ND	ND	3.8	177.5	30.6	45.2	509.9	0
33954	2013-12-12T17:00:00	7.5	ND	ND	ND	ND	ND	3.4	181.4	29.5	48.1	273.3	0
33955	2013-12-12T18:00:00	4.1	ND	ND	ND	ND	ND	3.1	177.9	28.1	51.6	59.6	0
33956	2013-12-12T19:00:00	2.6	ND	ND	ND	ND	ND	3.4	178	26.6	56.2	0	0
33957	2013-12-12T20:00:00	2.8	ND	ND	ND	ND	ND	2.9	180.1	26.1	57.5	0	0
33958	2013-12-12T21:00:00	2.9	ND	ND	ND	ND	ND	2.1	193.9	25.9	57.7	0	0
33959	2013-12-12T22:00:00	7.1	ND	ND	ND	ND	ND	1.4	157.4	25	63.7	0	0
33960	2013-12-12T23:00:00	4.3	ND	ND	ND	ND	ND	3.1	166	24.9	61.7	0	0
33961	2013-12-13T00:00:00	5.9	ND	ND	ND	ND	ND	0.9	176.4	24.4	65.7	0	0
33962	2013-12-13T01:00:00	4	ND	ND	ND	ND	ND	1.2	158	24.4	65.1	0	0
33963	2013-12-13T02:00:00	3.9	ND	ND	ND	ND	ND	0.6	90.9	23.1	73.9	0	0
33964	2013-12-13T03:00:00	2.5	ND	ND	ND	ND	ND	1.8	150.6	22.9	76.8	0	0
33965	2013-12-13T04:00:00	2	ND	ND	ND	ND	ND	1.5	146.9	22.3	81.4	0	0
33966	2013-12-13T05:00:00	6.4	ND	ND	ND	ND	ND	0.4	133.8	22.2	82.6	0	0
33967	2013-12-13T06:00:00	22	ND	ND	ND	ND	ND	1.1	58.8	22.1	82.6	0	0
33968	2013-12-13T07:00:00	35.5	ND	ND	ND	ND	ND	0.4	78.6	21.9	83.7	28.4	0
33969	2013-12-13T08:00:00	41.1	ND	ND	ND	ND	ND	0.8	148.9	22.7	80.2	119.7	0
33970	2013-12-13T09:00:00	44.6	ND	ND	ND	ND	ND	0.5	108.6	24.3	73	304.5	0
33971	2013-12-13T10:00:00	54.9	ND	ND	ND	ND	ND	0.4	168.6	26.2	63.8	422.1	0
33972	2013-12-13T11:00:00	40.5	ND	ND	ND	ND	ND	1.4	102.3	27.2	59.8	451.4	0
33973	2013-12-13T12:00:00	52.8	ND	ND	ND	ND	ND	1.6	172.9	27.5	57.5	528.5	0
33974	2013-12-13T13:00:00	27.4	ND	ND	ND	ND	ND	2.6	180.1	28.5	51.5	729.7	0
33975	2013-12-13T14:00:00	14.8	ND	ND	ND	ND	ND	1.8	198	29.6	47	687.8	0
33976	2013-12-13T15:00:00	9.2	ND	ND	ND	ND	ND	3.5	185.1	29.2	47.5	451	0
33977	2013-12-13T16:00:00	10.7	ND	ND	ND	ND	ND	3.7	178.7	28.4	49.4	321.1	0
33978	2013-12-13T17:00:00	15.2	ND	ND	ND	ND	ND	3.2	179.5	27.4	52.9	163.3	0
33979	2013-12-13T18:00:00	10.1	ND	ND	ND	ND	ND	2.5	175.6	26.1	57.1	19.9	0
33980	2013-12-13T19:00:00	5.9	ND	ND	ND	ND	ND	2.5	167.1	25.5	58.8	0	0
33981	2013-12-13T20:00:00	7.8	ND	ND	ND	ND	ND	2.6	145.9	23.3	74.8	0	0.25
33982	2013-12-13T21:00:00	6.3	ND	ND	ND	ND	ND	2.5	149.2	21.4	84.6	0	0.51
33983	2013-12-13T22:00:00	13.4	ND	ND	ND	ND	ND	1.5	153	21.3	84.7	0	0.51
33984	2013-12-13T23:00:00	7.7	ND	ND	ND	ND	ND	0.4	129.8	21.8	83	0	0.25
33985	2013-12-14T00:00:00	5.6	ND	ND	ND	ND	ND	0.7	142.5	22.2	81.9	0	0
33986	2013-12-14T01:00:00	5.3	ND	ND	ND	ND	ND	0.8	117.9	21.6	85.7	0	0
33987	2013-12-14T02:00:00	12.6	ND	ND	ND	ND	ND	0.6	148.7	21.3	87.8	0	0
33988	2013-12-14T03:00:00	8	ND	ND	ND	ND	ND	0.2	54.2	21.5	87.2	0	0
33989	2013-12-14T04:00:00	19.4	ND	ND	ND	ND	ND	1	63.2	21.1	88.5	0	0
33990	2013-12-14T05:00:00	10.8	ND	ND	ND	ND	ND	0.8	88	20.8	90.3	0	0
33991	2013-12-14T06:00:00	ND	ND	ND	ND	ND	ND	0.5	124.4	20.8	90.2	0	0
33992	2013-12-14T07:00:00	ND	ND	ND	ND	ND	ND	0.7	152.4	21	88.8	24.4	0
33993	2013-12-14T08:00:00	ND	ND	ND	ND	ND	ND	0.8	158.3	21.9	80.9	106.1	0
33994	2013-12-14T09:00:00	ND	ND	ND	ND	ND	ND	0.4	93.9	23.1	76.9	168.2	0
33995	2013-12-14T10:00:00	ND	ND	ND	ND	ND	ND	0.6	66.4	24	74.7	342.4	0
33996	2013-12-14T11:00:00	86.2	ND	ND	ND	ND	ND	0.8	100	26.2	63.1	607.2	0
33997	2013-12-14T12:00:00	81.9	ND	ND	ND	ND	ND	1.5	102.7	27.7	57.8	717	0
33998	2013-12-14T13:00:00	63.9	ND	ND	ND	ND	ND	0.8	193.7	27.9	55	494.4	0
33999	2013-12-14T14:00:00	41.5	ND	ND	ND	ND	ND	1.2	169.1	29.7	47.4	821.8	0
34000	2013-12-14T15:00:00	39.1	ND	ND	ND	ND	ND	0.9	99	29.8	47	382.3	0
34001	2013-12-14T16:00:00	56.6	ND	ND	ND	ND	ND	3.2	177.7	29.3	48.1	419.9	0
34002	2013-12-14T17:00:00	29.3	ND	ND	ND	ND	ND	4	176.8	27.8	50.8	241.3	0
34003	2013-12-14T18:00:00	18.5	ND	ND	ND	ND	ND	4	175.5	26.6	52.1	36.8	0
34004	2013-12-14T19:00:00	11.8	ND	ND	ND	ND	ND	3.4	178.2	26.1	52.1	0	0
34005	2013-12-14T20:00:00	15.3	ND	ND	ND	ND	ND	3.5	176.9	25.7	55.6	0	0
34006	2013-12-14T21:00:00	10	ND	ND	ND	ND	ND	0.7	178.1	25.5	57.3	0	0
34007	2013-12-14T22:00:00	5.9	ND	ND	ND	ND	ND	1.8	181.4	25.1	59	0	0
34008	2013-12-14T23:00:00	4.7	ND	ND	ND	ND	ND	1.2	181.3	24.1	65.1	0	0
34009	2013-12-15T00:00:00	24.8	ND	ND	ND	ND	ND	1	111.2	23	72.4	0	0
34010	2013-12-15T01:00:00	23.9	ND	ND	ND	ND	ND	0.9	138.9	22.5	75.6	0	0
34011	2013-12-15T02:00:00	22.4	ND	ND	ND	ND	ND	0.7	139.4	22.4	76.2	0	0
34012	2013-12-15T03:00:00	26	ND	ND	ND	ND	ND	0.8	139.1	22.2	77.2	0	0
34013	2013-12-15T04:00:00	23.8	ND	ND	ND	ND	ND	0.5	133.9	21.9	78.7	0	0
34014	2013-12-15T05:00:00	16.8	ND	ND	ND	ND	ND	0.2	119.9	21.9	78.3	0	0
34015	2013-12-15T06:00:00	26.9	ND	ND	ND	ND	ND	0.5	69.2	21.5	81	0	0
34016	2013-12-15T07:00:00	23.4	ND	ND	ND	ND	ND	0.4	ND	21.7	79.7	38.4	0
34017	2013-12-15T08:00:00	27.9	ND	ND	ND	ND	ND	0.8	155	22.7	74.9	142.5	0
34018	2013-12-15T09:00:00	ND	ND	ND	ND	ND	ND	0.4	125.1	23.6	71.8	186.5	0
34019	2013-12-15T10:00:00	ND	ND	ND	ND	ND	ND	0.7	117.6	25.3	65.1	503.8	0
34020	2013-12-15T11:00:00	ND	ND	ND	ND	ND	ND	1.2	104.6	27	57.4	656.6	0
34021	2013-12-15T12:00:00	ND	ND	ND	ND	ND	ND	1.3	111.1	28.3	52.7	729.3	0
34022	2013-12-15T13:00:00	ND	ND	ND	ND	ND	ND	1.2	101.2	30	46.7	869.1	0
34023	2013-12-15T14:00:00	ND	ND	ND	ND	ND	ND	0.8	54.1	30.5	45.1	528.1	0
34024	2013-12-15T15:00:00	ND	ND	ND	ND	ND	ND	2.1	194.6	29.1	49	168.4	0
34025	2013-12-15T16:00:00	ND	ND	ND	ND	ND	ND	3.9	177.6	29.2	47.7	475.4	0
34026	2013-12-15T17:00:00	ND	ND	ND	ND	ND	ND	4.2	176.3	28.2	49.8	242.9	0
34027	2013-12-15T18:00:00	ND	ND	ND	ND	ND	ND	3.9	177.4	26.7	53.2	40.6	0
34028	2013-12-15T19:00:00	ND	ND	ND	ND	ND	ND	4.2	178.2	25.4	58.5	0	0
34029	2013-12-15T20:00:00	ND	ND	ND	ND	ND	ND	3.6	180.7	25.2	58.9	0	0
34030	2013-12-15T21:00:00	ND	ND	ND	ND	ND	ND	2.7	189	25.6	56.5	0	0
34031	2013-12-15T22:00:00	ND	ND	ND	ND	ND	ND	1.8	185.1	25.4	58.1	0	0
34032	2013-12-15T23:00:00	ND	ND	ND	ND	ND	ND	1.8	152.7	24.5	66	0	2.54
34033	2013-12-16T00:00:00	ND	ND	ND	ND	ND	ND	1.1	154.8	22.5	82.1	0	1.27
34034	2013-12-16T01:00:00	ND	ND	ND	ND	ND	ND	0.7	160.6	23	76.1	0	0
34035	2013-12-16T02:00:00	90.7	ND	ND	ND	ND	ND	0.3	ND	22.8	80.8	0	0
34036	2013-12-16T03:00:00	46.9	ND	ND	ND	ND	ND	0.3	47.5	22.4	83.1	0	0
34037	2013-12-16T04:00:00	30	ND	ND	ND	ND	ND	0.4	92.6	22.2	82.6	0	0
34038	2013-12-16T05:00:00	16.2	ND	ND	ND	ND	ND	0.6	144.1	22.1	82.8	0	0.25
34039	2013-12-16T06:00:00	26.9	ND	ND	ND	ND	ND	0.5	158.9	21.9	83	0	0
34040	2013-12-16T07:00:00	ND	ND	ND	ND	ND	ND	0.5	119	22.3	81.3	26.2	0
34041	2013-12-16T08:00:00	ND	ND	ND	ND	ND	ND	1	144.2	22.4	80.8	103.6	0
34042	2013-12-16T09:00:00	ND	ND	ND	ND	ND	ND	0.6	139.2	23.9	73.3	259.4	0
34043	2013-12-16T10:00:00	ND	ND	ND	ND	ND	ND	0.8	72.6	24.9	68.4	325.7	0
34044	2013-12-16T11:00:00	ND	ND	ND	ND	ND	ND	1.2	97.5	26.6	61.4	714	0
34045	2013-12-16T12:00:00	ND	ND	ND	ND	ND	ND	1.4	103.4	27.5	57.8	531.1	0
34046	2013-12-16T13:00:00	ND	ND	ND	ND	ND	ND	1.4	110.7	28.5	55.9	735.1	0
34047	2013-12-16T14:00:00	ND	ND	ND	ND	ND	ND	1.1	81.7	29	54.3	379.2	0
34048	2013-12-16T15:00:00	ND	ND	ND	ND	ND	ND	1.4	169.7	29.2	49.3	464.7	0
34049	2013-12-16T16:00:00	ND	ND	ND	ND	ND	ND	4	175.2	29.8	46.7	551.5	0
34050	2013-12-16T17:00:00	ND	ND	ND	ND	ND	ND	4.2	178.9	28	50.9	196.2	0
34051	2013-12-16T18:00:00	ND	ND	ND	ND	ND	ND	3.8	177.3	26.5	55.4	21.7	0
34052	2013-12-16T19:00:00	ND	ND	ND	ND	ND	ND	4.1	170.9	25.7	58.5	0	0
34053	2013-12-16T20:00:00	ND	ND	ND	ND	ND	ND	2.2	191.4	25.7	57.6	0	0
34054	2013-12-16T21:00:00	ND	ND	ND	ND	ND	ND	3.7	167.6	25.1	59.5	0	0
34055	2013-12-16T22:00:00	ND	ND	ND	ND	ND	ND	2.5	162.5	24.9	60.5	0	0
34056	2013-12-16T23:00:00	ND	ND	ND	ND	ND	ND	2.4	156.1	24.5	65.1	0	0
34057	2013-12-17T00:00:00	ND	ND	ND	ND	ND	ND	1.5	152.2	24.4	66.2	0	0
34058	2013-12-17T01:00:00	ND	ND	ND	ND	ND	ND	0.7	136.5	23.8	71.7	0	0
34059	2013-12-17T02:00:00	ND	ND	ND	ND	ND	ND	0.8	148	22.7	79.5	0	0
34060	2013-12-17T03:00:00	60.4	ND	ND	ND	ND	ND	0.9	72	22.8	78.3	0	0
34061	2013-12-17T04:00:00	32.1	ND	ND	ND	ND	ND	0.4	86.8	22.4	81	0	0
34062	2013-12-17T05:00:00	17.8	ND	ND	ND	ND	ND	0.6	149.2	22.2	81.4	0	0
34063	2013-12-17T06:00:00	ND	ND	ND	ND	ND	ND	0.6	153	22	83.2	0	0
34064	2013-12-17T07:00:00	ND	ND	ND	ND	ND	ND	0.9	149.2	22	83	20.4	0
34065	2013-12-17T08:00:00	ND	ND	ND	ND	ND	ND	0.4	124.2	22.5	82	63.6	0
34066	2013-12-17T09:00:00	ND	ND	ND	ND	ND	ND	0.7	152.8	24	74.7	363.6	0
34067	2013-12-17T10:00:00	ND	ND	ND	ND	ND	ND	1.3	120.7	25.4	67.1	328.2	0
34068	2013-12-17T11:00:00	ND	ND	ND	ND	ND	ND	0.9	101.8	26.1	64.8	370.7	0
34069	2013-12-17T12:00:00	ND	ND	ND	ND	ND	ND	1	103.3	27.2	59.2	396.9	0
34070	2013-12-17T13:00:00	ND	ND	ND	ND	ND	ND	0.9	167.3	26.1	63.1	83.5	10.41
34071	2013-12-17T14:00:00	ND	ND	ND	ND	ND	ND	1.9	158.1	24.3	72.2	130.3	0.25
34072	2013-12-17T15:00:00	90.7	ND	ND	ND	ND	ND	1.9	170.3	25.2	63.3	141.6	0
34073	2013-12-17T16:00:00	52.3	ND	ND	ND	ND	ND	2.2	168.8	26.1	58.1	311.5	0
34074	2013-12-17T17:00:00	36.7	ND	ND	ND	ND	ND	2.2	182.1	26	56.8	68.8	0
34075	2013-12-17T18:00:00	36.2	ND	ND	ND	ND	ND	2.6	153.6	24.8	64.4	19.5	0
34076	2013-12-17T19:00:00	28.3	ND	ND	ND	ND	ND	2.2	145.6	22.9	77	0	0
34077	2013-12-17T20:00:00	56.7	ND	ND	ND	ND	ND	1.4	151.1	22.7	76.8	0	0
34078	2013-12-17T21:00:00	28.9	ND	ND	ND	ND	ND	1.1	154.2	23	74.3	0	0
34079	2013-12-17T22:00:00	35.1	ND	ND	ND	ND	ND	1.3	162.2	23.2	68.8	0	0
34080	2013-12-17T23:00:00	19.6	ND	ND	ND	ND	ND	0.2	43.6	22.8	74.8	0	0
34081	2013-12-18T00:00:00	40.2	ND	ND	ND	ND	ND	0.9	68.9	21.8	84.3	0	0
34082	2013-12-18T01:00:00	82.4	ND	ND	ND	ND	ND	0.6	115	21.7	84.2	0	0
34083	2013-12-18T02:00:00	61.8	ND	ND	ND	ND	ND	0.9	144.7	21.7	84.5	0	0
34084	2013-12-18T03:00:00	33.2	ND	ND	ND	ND	ND	0.3	95.6	21.5	84.4	0	0
34085	2013-12-18T04:00:00	25.7	ND	ND	ND	ND	ND	0.8	125.7	21.5	83.2	0	0
34086	2013-12-18T05:00:00	14.7	ND	ND	ND	ND	ND	0.7	98.4	21.1	85.9	0	0
34087	2013-12-18T06:00:00	21.7	ND	ND	ND	ND	ND	0.5	146.8	21.2	85.5	0	0
34088	2013-12-18T07:00:00	12.7	ND	ND	ND	ND	ND	0.8	143.7	21.2	85.7	18.8	0
34089	2013-12-18T08:00:00	40.5	ND	ND	ND	ND	ND	1	141.6	22	83.4	152	0
34090	2013-12-18T09:00:00	38.6	ND	ND	ND	ND	ND	1.5	132.8	23.6	75.6	347.3	0
34091	2013-12-18T10:00:00	35.9	ND	ND	ND	ND	ND	1.4	145.5	23.2	75.3	236.9	0
34092	2013-12-18T11:00:00	22	ND	ND	ND	ND	ND	1.9	163.9	23.4	73.3	288.4	0
34093	2013-12-18T12:00:00	19.6	ND	ND	ND	ND	ND	1.5	164.1	25.3	61.3	641.3	0
34094	2013-12-18T13:00:00	9.8	ND	ND	ND	ND	ND	1	139	27.9	50.7	730.8	0
34095	2013-12-18T14:00:00	4.9	ND	ND	ND	ND	ND	0.5	102.3	27.7	52.3	277.3	0
34096	2013-12-18T15:00:00	7.8	ND	ND	ND	ND	ND	1.7	161.4	25.9	61.7	61.8	0
34097	2013-12-18T16:00:00	26.8	ND	ND	ND	ND	ND	1.7	159.4	25.1	66.2	158.2	0
34098	2013-12-18T17:00:00	14.5	ND	ND	ND	ND	ND	2.2	155.5	25.6	62.9	154.4	0
34099	2013-12-18T18:00:00	8.8	ND	ND	ND	ND	ND	3.2	174.1	25.5	59.2	40.9	0
34100	2013-12-18T19:00:00	8.9	ND	ND	ND	ND	ND	2.6	173.2	24.5	62.3	0	0
34101	2013-12-18T20:00:00	6.1	ND	ND	ND	ND	ND	2.4	194	24.7	60.4	0	0
34102	2013-12-18T21:00:00	4.5	ND	ND	ND	ND	ND	1.9	171.6	24.3	62.6	0	0
34103	2013-12-18T22:00:00	8.6	ND	ND	ND	ND	ND	2.7	155.5	23.4	70.9	0	0
34104	2013-12-18T23:00:00	5.5	ND	ND	ND	ND	ND	2.2	153.8	22.2	83	0	0
34105	2013-12-19T00:00:00	3.7	ND	ND	ND	ND	ND	1.7	149.5	21.9	83.8	0	0
34106	2013-12-19T01:00:00	3.2	ND	ND	ND	ND	ND	0.9	143	21.4	86.6	0	0
34107	2013-12-19T02:00:00	3.3	ND	ND	ND	ND	ND	0.9	144	21.2	87.3	0	0
34108	2013-12-19T03:00:00	3.8	ND	ND	ND	ND	ND	0.9	139.6	20.8	88.8	0	0
34109	2013-12-19T04:00:00	3.7	ND	ND	ND	ND	ND	0.5	144.5	20.5	90.2	0	0
34110	2013-12-19T05:00:00	2.6	ND	ND	ND	ND	ND	0.1	ND	20.4	90.9	0	0
34111	2013-12-19T06:00:00	3	ND	ND	ND	ND	ND	0.2	ND	20.6	90.2	0	0.25
34112	2013-12-19T07:00:00	3.6	ND	ND	ND	ND	ND	0.2	ND	20.6	91.3	15.7	0
34113	2013-12-19T08:00:00	21.9	ND	ND	ND	ND	ND	0.7	60.5	21.3	88	80.3	0
34114	2013-12-19T09:00:00	22	ND	ND	ND	ND	ND	0.5	74.3	22.2	82.1	175.2	0
34115	2013-12-19T10:00:00	ND	ND	ND	ND	ND	ND	0.6	84.8	23.7	72.9	342	0
34116	2013-12-19T11:00:00	ND	ND	ND	ND	ND	ND	1.2	124.4	25.4	65.5	586	0
34117	2013-12-19T12:00:00	ND	ND	ND	ND	ND	ND	0.5	133.2	26.5	59.3	492	0
34118	2013-12-19T13:00:00	ND	ND	ND	ND	ND	ND	0.6	138.9	27.7	54.6	492.7	0
34119	2013-12-19T14:00:00	ND	ND	ND	ND	ND	ND	1	98.2	29	47.8	539.2	0
34120	2013-12-19T15:00:00	ND	ND	ND	ND	ND	ND	0.4	163.4	28.3	49.3	151	0
34121	2013-12-19T16:00:00	ND	ND	ND	ND	ND	ND	2.6	200.6	26.7	58.3	208.3	0
34122	2013-12-19T17:00:00	79.3	ND	ND	ND	ND	ND	3.8	170.1	25.7	61.7	81.4	0
34123	2013-12-19T18:00:00	40.5	ND	ND	ND	ND	ND	3.2	176.8	25.4	60.5	17.2	0
34124	2013-12-19T19:00:00	21.7	ND	ND	ND	ND	ND	2.4	174	25.3	59.6	0	0
34125	2013-12-19T20:00:00	12.4	ND	ND	ND	ND	ND	2	169.6	24.7	61.5	0	0
34126	2013-12-19T21:00:00	6.7	ND	ND	ND	ND	ND	2.8	167.6	24	64.7	0	0
34127	2013-12-19T22:00:00	11.2	ND	ND	ND	ND	ND	1.9	176.5	23.7	65.9	0	0
34128	2013-12-19T23:00:00	6.6	ND	ND	ND	ND	ND	0.8	177.4	23.3	67.5	0	0
34129	2013-12-20T00:00:00	9.1	ND	ND	ND	ND	ND	1.3	182.8	22.9	69	0	0
34130	2013-12-20T01:00:00	6.6	ND	ND	ND	ND	ND	0.5	ND	22.1	75.3	0	0
34131	2013-12-20T02:00:00	29.7	ND	ND	ND	ND	ND	0.3	192.9	21.9	76.9	0	0
34132	2013-12-20T03:00:00	29.7	ND	ND	ND	ND	ND	0.6	148.3	21.8	79.9	0	0
34133	2013-12-20T04:00:00	26	ND	ND	ND	ND	ND	0.5	147.2	21.6	80.4	0	0
34134	2013-12-20T05:00:00	26.9	ND	ND	ND	ND	ND	0.4	89.4	21.7	80.2	0	0
34135	2013-12-20T06:00:00	28.1	ND	ND	ND	ND	ND	0.3	ND	21.5	79.9	0	0
34136	2013-12-20T07:00:00	20	ND	ND	ND	ND	ND	0.7	132.9	21.6	80.4	22.6	0
34137	2013-12-20T08:00:00	47.1	ND	ND	ND	ND	ND	0.7	112.9	22.2	78.6	159.1	0
34138	2013-12-20T09:00:00	39.1	ND	ND	ND	ND	ND	0.8	133.1	23.8	70.8	327.2	0
34139	2013-12-20T10:00:00	53.7	ND	ND	ND	ND	ND	1.2	141.9	25.6	62.7	532.4	0
34140	2013-12-20T11:00:00	34.6	ND	ND	ND	ND	ND	0.3	108.3	25.9	62.8	308	0
34141	2013-12-20T12:00:00	57.3	ND	ND	ND	ND	ND	1.5	152.1	25.3	65	108.7	0
34142	2013-12-20T13:00:00	35	ND	ND	ND	ND	ND	0.8	130.4	26.4	61.4	298.1	0
34143	2013-12-20T14:00:00	50.5	ND	ND	ND	ND	ND	0.7	95.5	27.4	54.8	352.8	0
34144	2013-12-20T15:00:00	26.4	ND	ND	ND	ND	ND	0.6	167.4	28.3	52	338	0
34145	2013-12-20T16:00:00	34.9	ND	ND	ND	ND	ND	0.6	289	27	58.4	174.2	0
34146	2013-12-20T17:00:00	21.4	ND	ND	ND	ND	ND	1.6	170.8	28	51.5	241.3	0
34147	2013-12-20T18:00:00	23.8	ND	ND	ND	ND	ND	2.3	176.3	27	53.5	54.9	0
34148	2013-12-20T19:00:00	14	ND	ND	ND	ND	ND	2.5	175.6	25.9	56.4	0	0
34149	2013-12-20T20:00:00	7.7	ND	ND	ND	ND	ND	2	191	25.2	59	0	0
34150	2013-12-20T21:00:00	5.4	ND	ND	ND	ND	ND	1.3	192.6	25	59.9	0	0
34151	2013-12-20T22:00:00	3.6	ND	ND	ND	ND	ND	1	189.3	24.8	61.3	0	0
34152	2013-12-20T23:00:00	4	ND	ND	ND	ND	ND	0.5	131.8	24.1	66.1	0	0
34153	2013-12-21T00:00:00	4.2	ND	ND	ND	ND	ND	1.6	159.6	24.1	64.3	0	0
34154	2013-12-21T01:00:00	3.8	ND	ND	ND	ND	ND	0.8	142.9	23.3	73.3	0	0
34155	2013-12-21T02:00:00	3.6	ND	ND	ND	ND	ND	1	131.3	22.8	76.9	0	0
34156	2013-12-21T03:00:00	6	ND	ND	ND	ND	ND	1.1	116.6	22.3	78.6	0	0
34157	2013-12-21T04:00:00	16.2	ND	ND	ND	ND	ND	1	134	22	78.9	0	0
34158	2013-12-21T05:00:00	9.3	ND	ND	ND	ND	ND	0.8	126.9	21.8	79.2	0	0
34159	2013-12-21T06:00:00	6.6	ND	ND	ND	ND	ND	0.5	121.5	21.6	80.6	0	0
34160	2013-12-21T07:00:00	5.3	ND	ND	ND	ND	ND	0.3	79.7	21.6	81.1	13.3	0
34161	2013-12-21T08:00:00	18.6	ND	ND	ND	ND	ND	0.6	138.7	22.1	79.3	93.9	0
34162	2013-12-21T09:00:00	29.2	ND	ND	ND	ND	ND	1.4	135.6	23.3	74.9	280.7	0
34163	2013-12-21T10:00:00	39.2	ND	ND	ND	ND	ND	1.9	146	23.6	74.8	274.4	0
34164	2013-12-21T11:00:00	47.8	ND	ND	ND	ND	ND	0.9	193.1	23.3	76.9	108.5	0
34165	2013-12-21T12:00:00	29.5	ND	ND	ND	ND	ND	0.6	25.6	24	74.3	361.4	0
34166	2013-12-21T13:00:00	16.9	ND	ND	ND	ND	ND	1.6	160.4	26.4	60.2	500.4	0
34167	2013-12-21T14:00:00	9.6	ND	ND	ND	ND	ND	1.9	164.7	28.3	51	737.6	0
34168	2013-12-21T15:00:00	5.3	ND	ND	ND	ND	ND	3.1	174.3	29.3	46.4	777.2	0
34169	2013-12-21T16:00:00	4.5	ND	ND	ND	ND	ND	3.7	172.9	28.5	47.4	438.1	0
34170	2013-12-21T17:00:00	4	ND	ND	ND	ND	ND	3	173.1	28.4	47.4	290.8	0
34171	2013-12-21T18:00:00	2.9	ND	ND	ND	ND	ND	3	176.7	26.6	53.3	17.7	0
34172	2013-12-21T19:00:00	2.4	ND	ND	ND	ND	ND	4.2	171	25.3	58.4	0	0
34173	2013-12-21T20:00:00	6.5	ND	ND	ND	ND	ND	3.6	171.5	24.9	60.9	0	0
34174	2013-12-21T21:00:00	4.3	ND	ND	ND	ND	ND	3.8	176.1	24.6	62	0	0
34175	2013-12-21T22:00:00	2.9	ND	ND	ND	ND	ND	2.6	165.8	24.5	63.3	0	0
34176	2013-12-21T23:00:00	3.2	ND	ND	ND	ND	ND	1.9	164.7	24.3	64.2	0	0
34177	2013-12-22T00:00:00	75.6	ND	ND	ND	ND	ND	0.8	171.5	24	66.2	0	0
34178	2013-12-22T01:00:00	39.3	ND	ND	ND	ND	ND	0.4	241.5	23.2	73.4	0	0
34179	2013-12-22T02:00:00	40	ND	ND	ND	ND	ND	0	351.3	23	74.9	0	0
34180	2013-12-22T03:00:00	30	ND	ND	ND	ND	ND	0.7	49.2	22.6	77.6	0	0
34181	2013-12-22T04:00:00	21	ND	ND	ND	ND	ND	0.7	47.8	21.8	84.1	0	0
34182	2013-12-22T05:00:00	11.8	ND	ND	ND	ND	ND	0	295.9	21.6	85.3	0	0
34183	2013-12-22T06:00:00	24.1	ND	ND	ND	ND	ND	0.6	47.9	21.3	87	0	0.51
34184	2013-12-22T07:00:00	14.2	ND	ND	ND	ND	ND	0.4	341.7	20.5	91.2	0	10.16
34185	2013-12-22T08:00:00	8	ND	ND	ND	ND	ND	0.6	14.7	20.3	92.4	18.5	0.25
34186	2013-12-22T09:00:00	4.6	ND	ND	ND	ND	ND	0.8	1.5	20.2	92.8	32.4	1.02
34187	2013-12-22T10:00:00	3.4	ND	ND	ND	ND	ND	0.8	23.7	20.4	93.3	93	1.02
34188	2013-12-22T11:00:00	1.7	ND	ND	ND	ND	ND	0.3	7.3	21.3	90.5	342.8	0.25
34189	2013-12-22T12:00:00	0.9	ND	ND	ND	ND	ND	1	150.6	23.7	76.3	602	0
34190	2013-12-22T13:00:00	1.4	ND	ND	ND	ND	ND	1.1	128.3	24.9	71.7	564.5	0
34191	2013-12-22T14:00:00	14	ND	ND	ND	ND	ND	1.5	109.3	26.4	64.3	658.2	0
34192	2013-12-22T15:00:00	9.2	ND	ND	ND	ND	ND	0.8	129.6	26.7	60.5	246.8	0
34193	2013-12-22T16:00:00	8.8	ND	ND	ND	ND	ND	2.3	192.5	25.2	64.3	123.9	0
34194	2013-12-22T17:00:00	5.1	ND	ND	ND	ND	ND	1.6	194.1	25.3	61.6	117	0
34195	2013-12-22T18:00:00	4.1	ND	ND	ND	ND	ND	0.9	185.4	25.2	61.7	40.2	0
34196	2013-12-22T19:00:00	3.7	ND	ND	ND	ND	ND	1.5	48.6	23.9	74.8	0	0
34197	2013-12-22T20:00:00	19.7	ND	ND	ND	ND	ND	0.8	68.6	23.1	77.5	0	0
34198	2013-12-22T21:00:00	25.3	ND	ND	ND	ND	ND	0.6	77.5	23.1	77.1	0	0
34199	2013-12-22T22:00:00	38.1	ND	ND	ND	ND	ND	0.6	122.4	23	78.2	0	0
34200	2013-12-22T23:00:00	24	ND	ND	ND	ND	ND	1.8	143.8	22.5	83.6	0	0
34201	2013-12-23T00:00:00	27.8	ND	ND	ND	ND	ND	1.7	156	21.7	86.4	0	8.89
34202	2013-12-23T01:00:00	14.5	ND	ND	ND	ND	ND	0.4	168.3	19.5	95.7	0	71.63
34203	2013-12-23T02:00:00	ND	ND	ND	ND	ND	ND	0.6	162.7	19.3	98.8	0	56.39
34204	2013-12-23T03:00:00	ND	ND	ND	ND	ND	ND	0.6	160.7	19.5	99.8	0	14.73
34205	2013-12-23T04:00:00	ND	ND	ND	ND	ND	ND	0.7	152.9	19.6	99.9	0	1.52
34206	2013-12-23T05:00:00	ND	ND	ND	ND	ND	ND	0.6	110.5	19.5	99.8	0	0.25
34207	2013-12-23T06:00:00	ND	ND	ND	ND	ND	ND	0.4	140.8	19.5	99.5	0	0.25
34208	2013-12-23T07:00:00	ND	ND	ND	ND	ND	ND	0.7	157.6	19.6	98.9	0	7.87
34209	2013-12-23T08:00:00	ND	ND	ND	ND	ND	ND	0.9	173.2	19.3	98.8	6.3	17.02
34210	2013-12-23T09:00:00	ND	ND	ND	ND	ND	ND	0.7	15	19.3	99	19.7	13.46
34211	2013-12-23T10:00:00	ND	ND	ND	ND	ND	ND	0.8	248.8	18.9	99.6	23	24.38
34212	2013-12-23T11:00:00	ND	ND	ND	ND	ND	ND	1	9.3	19.2	99.9	104.6	7.37
34213	2013-12-23T12:00:00	78.7	ND	ND	ND	ND	ND	1.4	23.7	19.8	99.8	199.5	1.02
34214	2013-12-23T13:00:00	41.4	ND	ND	ND	ND	ND	0.6	5.3	20.6	95.9	265.5	0
34215	2013-12-23T14:00:00	21.9	ND	ND	ND	ND	ND	0.6	132.2	22.1	83.6	285	0.25
34216	2013-12-23T15:00:00	12.9	ND	ND	ND	ND	ND	0.6	116.5	23.1	76.6	350.9	0
34217	2013-12-23T16:00:00	21.2	ND	ND	ND	ND	ND	0.9	53.1	23.7	72.7	218.2	0
34218	2013-12-23T17:00:00	14.6	ND	ND	ND	ND	ND	1.5	67	23.1	75.4	71.4	0
34219	2013-12-23T18:00:00	39.5	ND	ND	ND	ND	ND	1.4	49.4	22.2	80.2	11.2	0
34220	2013-12-23T19:00:00	38	ND	ND	ND	ND	ND	0.9	27.6	21.6	84.5	0	0
34221	2013-12-23T20:00:00	38.6	ND	ND	ND	ND	ND	1.2	18.7	21.2	87.1	0	0
34222	2013-12-23T21:00:00	20.7	ND	ND	ND	ND	ND	0.1	30.5	21.2	85.7	0	0
34223	2013-12-23T22:00:00	24.9	ND	ND	ND	ND	ND	0.9	160.3	21.3	84.4	0	0
34224	2013-12-23T23:00:00	22.4	ND	ND	ND	ND	ND	0.6	81.7	20.6	87.4	0	0
34225	2013-12-24T00:00:00	30.9	ND	ND	ND	ND	ND	0.1	ND	20.1	90.3	0	0
34226	2013-12-24T01:00:00	17	ND	ND	ND	ND	ND	0.8	153	20.3	90.1	0	0
34227	2013-12-24T02:00:00	29.9	ND	ND	ND	ND	ND	1	154.8	20.3	90.2	0	0
34228	2013-12-24T03:00:00	19	ND	ND	ND	ND	ND	0.3	86.8	19.9	91.4	0	0
34229	2013-12-24T04:00:00	18.3	ND	ND	ND	ND	ND	0.3	14.5	19.6	92.8	0	0
34230	2013-12-24T05:00:00	10.6	ND	ND	ND	ND	ND	0.4	ND	19.5	91.3	0	0
34231	2013-12-24T06:00:00	19.7	ND	ND	ND	ND	ND	0.5	165.1	19.6	87.4	0	0
34232	2013-12-24T07:00:00	11.8	ND	ND	ND	ND	ND	0.3	ND	19.7	85.6	25.1	0
34233	2013-12-24T08:00:00	17.8	ND	ND	ND	ND	ND	0.9	148.9	20	89.6	46.9	0
34234	2013-12-24T09:00:00	22	ND	ND	ND	ND	ND	1.2	153.5	21.3	82.9	324.2	0
34235	2013-12-24T10:00:00	36.1	ND	ND	ND	ND	ND	0.7	130.9	22.3	75.9	212.6	0
34236	2013-12-24T11:00:00	24.3	ND	ND	ND	ND	ND	0.1	139.7	23.4	71.7	336	0
34237	2013-12-24T12:00:00	46.4	ND	ND	ND	ND	ND	0.5	119.4	24.7	66.5	501.6	0
34238	2013-12-24T13:00:00	34.8	ND	ND	ND	ND	ND	0.2	138.9	25.7	61.6	423.2	0
34239	2013-12-24T14:00:00	41.5	ND	ND	ND	ND	ND	0.5	127	26.3	60	395.8	0
34240	2013-12-24T15:00:00	27.2	ND	ND	ND	ND	ND	0.5	196.3	26.2	61.4	262.7	0
34241	2013-12-24T16:00:00	37.7	ND	ND	ND	ND	ND	0.4	96.1	26.7	59.9	290	0
34242	2013-12-24T17:00:00	20.7	ND	ND	ND	ND	ND	1.2	41.5	26.5	61.1	201.4	0
34243	2013-12-24T18:00:00	50.4	ND	ND	ND	ND	ND	1	183.2	25.6	60.8	46.2	0
34244	2013-12-24T19:00:00	29.7	ND	ND	ND	ND	ND	2.1	170.2	24.5	62.2	0	0
34245	2013-12-24T20:00:00	20.4	ND	ND	ND	ND	ND	0.9	181.2	24	62.8	0	0
34246	2013-12-24T21:00:00	11.8	ND	ND	ND	ND	ND	0.6	ND	23.2	68.5	0	0
34247	2013-12-24T22:00:00	31.9	ND	ND	ND	ND	ND	0.4	ND	22.4	75	0	0
34248	2013-12-24T23:00:00	30.7	ND	ND	ND	ND	ND	1.2	154.3	22.1	74	0	0
34249	2013-12-25T00:00:00	53	ND	ND	ND	ND	ND	1.5	156.6	21.8	71.6	0	0
34250	2013-12-25T01:00:00	32.2	ND	ND	ND	ND	ND	0.3	ND	21.1	75.3	0	0
34251	2013-12-25T02:00:00	38.7	ND	ND	ND	ND	ND	0.6	154.4	20.7	83.5	0	0
34252	2013-12-25T03:00:00	25.5	ND	ND	ND	ND	ND	0.1	61.5	20.6	83.4	0	0
34253	2013-12-25T04:00:00	62.8	ND	ND	ND	ND	ND	0.2	ND	20.2	84.9	0	0
34254	2013-12-25T05:00:00	63	ND	ND	ND	ND	ND	0.2	ND	20.3	85.6	0	0
34255	2013-12-25T06:00:00	48.8	ND	ND	ND	ND	ND	0.2	ND	19.8	86.8	0	0
34256	2013-12-25T07:00:00	39	ND	ND	ND	ND	ND	0.4	ND	19.8	82.2	12.1	0
34257	2013-12-25T08:00:00	24.9	ND	ND	ND	ND	ND	0.8	173.6	20.8	75.8	177.4	0
34258	2013-12-25T09:00:00	13.6	ND	ND	ND	ND	ND	0.9	127.7	23.4	67.1	395.9	0
34259	2013-12-25T10:00:00	42.8	ND	ND	ND	ND	ND	1.3	140.9	24.1	67.4	580.3	0
34260	2013-12-25T11:00:00	25.4	ND	ND	ND	ND	ND	1	90.4	25.8	59.8	696.1	0
34261	2013-12-25T12:00:00	25.6	ND	ND	ND	ND	ND	1.3	135.8	27.4	53	741.8	0
34262	2013-12-25T13:00:00	14.7	ND	ND	ND	ND	ND	0.5	104.6	28.5	49.1	888.6	0
34263	2013-12-25T14:00:00	9	ND	ND	ND	ND	ND	0.4	179.5	29.7	46	716.1	0
34264	2013-12-25T15:00:00	11.6	ND	ND	ND	ND	ND	1	94	29.6	47.2	462.1	0
34265	2013-12-25T16:00:00	27.9	ND	ND	ND	ND	ND	1.2	159.1	29.1	48.1	372.3	0
34266	2013-12-25T17:00:00	ND	ND	ND	ND	ND	ND	3.7	179.1	28	48.7	282.8	0
34267	2013-12-25T18:00:00	ND	ND	ND	ND	ND	ND	4.3	172.3	26.3	53.7	33.6	0
34268	2013-12-25T19:00:00	ND	ND	ND	ND	ND	ND	3.3	173.7	25.6	55.7	0	0
34269	2013-12-25T20:00:00	ND	ND	ND	ND	ND	ND	2.7	176	25.1	58.1	0	0
34270	2013-12-25T21:00:00	ND	ND	ND	ND	ND	ND	0.4	115.4	23.9	65.5	0	0
34271	2013-12-25T22:00:00	122.3	ND	ND	ND	ND	ND	2.3	155.3	23.6	65.8	0	0
34272	2013-12-25T23:00:00	61.1	ND	ND	ND	ND	ND	2.1	162.3	23.6	65.1	0	0
34273	2013-12-26T00:00:00	30.6	ND	ND	ND	ND	ND	0.9	167.5	23.3	66.6	0	0
34274	2013-12-26T01:00:00	17.2	ND	ND	ND	ND	ND	0.1	ND	21.9	76.8	0	0
34275	2013-12-26T02:00:00	10.4	ND	ND	ND	ND	ND	0.2	ND	21.6	78	0	0
34276	2013-12-26T03:00:00	6.9	ND	ND	ND	ND	ND	0.2	ND	21.1	81.7	0	0
34277	2013-12-26T04:00:00	34.7	ND	ND	ND	ND	ND	0.4	ND	21.1	81.6	0	0
34278	2013-12-26T05:00:00	17.9	ND	ND	ND	ND	ND	0.1	ND	20.9	82.2	0	0
34279	2013-12-26T06:00:00	ND	ND	ND	ND	ND	ND	0.4	ND	21	82.3	0	0
34280	2013-12-26T07:00:00	ND	ND	ND	ND	ND	ND	1	143.7	21	81.7	17.2	0
34281	2013-12-26T08:00:00	ND	ND	ND	ND	ND	ND	0.7	146.2	21	81.2	45.1	0
34282	2013-12-26T09:00:00	ND	ND	ND	ND	ND	ND	1	140.9	22.4	74.6	197.4	0
34283	2013-12-26T10:00:00	ND	ND	ND	ND	ND	ND	1.1	98.3	23	71.2	264	0
34284	2013-12-26T11:00:00	ND	ND	ND	ND	ND	ND	1	87.2	25.3	63.3	651.2	0
34285	2013-12-26T12:00:00	ND	ND	ND	ND	ND	ND	0.9	78.5	27	55.9	687.4	0
34286	2013-12-26T13:00:00	ND	ND	ND	ND	ND	ND	1.2	100.4	28.4	50.3	701	0
34287	2013-12-26T14:00:00	ND	ND	ND	ND	ND	ND	1.3	81.6	28.8	50.3	483.8	0
34288	2013-12-26T15:00:00	87.8	ND	ND	ND	ND	ND	1	54.2	29	49.6	392.6	0
34289	2013-12-26T16:00:00	73.6	ND	ND	ND	ND	ND	0.4	275.6	28.4	52.5	136	0
34290	2013-12-26T17:00:00	38.4	ND	ND	ND	ND	ND	1.7	185.8	28.2	51.4	212.5	0
34291	2013-12-26T18:00:00	19.8	ND	ND	ND	ND	ND	3.3	175.1	26.7	55.1	50.7	0
34292	2013-12-26T19:00:00	11.6	ND	ND	ND	ND	ND	3.4	173.1	25.6	57.4	0	0
34293	2013-12-26T20:00:00	14.8	ND	ND	ND	ND	ND	3.1	171.4	25.1	59.1	0	0
34294	2013-12-26T21:00:00	9.5	ND	ND	ND	ND	ND	0.9	197.7	25	59.4	0	0
34295	2013-12-26T22:00:00	32.3	ND	ND	ND	ND	ND	0.6	134.6	24.2	64.9	0	0
34296	2013-12-26T23:00:00	18.8	ND	ND	ND	ND	ND	1.3	153.7	23.8	67.1	0	0
34297	2013-12-27T00:00:00	15.2	ND	ND	ND	ND	ND	1.4	154.1	23.1	71.3	0	0
34298	2013-12-27T01:00:00	9.3	ND	ND	ND	ND	ND	0.8	150.6	22.9	74.5	0	0
34299	2013-12-27T02:00:00	22.1	ND	ND	ND	ND	ND	0.4	153.9	22.2	76.9	0	0
34300	2013-12-27T03:00:00	21.7	ND	ND	ND	ND	ND	0.7	152.9	21.8	78	0	0
34301	2013-12-27T04:00:00	11.5	ND	ND	ND	ND	ND	0.5	125	21.1	81.8	0	0
34302	2013-12-27T05:00:00	9.4	ND	ND	ND	ND	ND	0.6	154.6	21	77.4	0	0
34303	2013-12-27T06:00:00	18.8	ND	ND	ND	ND	ND	0.3	179.6	20.5	82.8	0	0
34304	2013-12-27T07:00:00	33.5	ND	ND	ND	ND	ND	1.3	162	20.5	83.2	29.1	0
34305	2013-12-27T08:00:00	34.3	ND	ND	ND	ND	ND	1.1	152.8	21.8	75.7	136.7	0
34306	2013-12-27T09:00:00	21.3	ND	ND	ND	ND	ND	0.9	135.2	23.5	71.7	354.2	0
34307	2013-12-27T10:00:00	35.7	ND	ND	ND	ND	ND	0.9	120.6	25.2	65	435.1	0
34308	2013-12-27T11:00:00	39.1	ND	ND	ND	ND	ND	1.3	134.6	26.5	59.1	737	0
34309	2013-12-27T12:00:00	170.8	ND	ND	ND	ND	ND	1.3	131.8	28.2	52.1	700.4	0
34310	2013-12-27T13:00:00	86	ND	ND	ND	ND	ND	1.5	116.8	29.7	47.7	888.5	0
34311	2013-12-27T14:00:00	60.9	ND	ND	ND	ND	ND	0.9	77.6	30.5	45.6	690.2	0
34312	2013-12-27T15:00:00	40.5	ND	ND	ND	ND	ND	1.1	61.2	30.3	46.7	431.9	0
34313	2013-12-27T16:00:00	ND	ND	ND	ND	ND	ND	0.4	92.5	29.7	48.5	264	0
34314	2013-12-27T17:00:00	ND	ND	ND	ND	ND	ND	1.3	162.7	29.7	48.7	121.8	0
34315	2013-12-27T18:00:00	ND	ND	ND	ND	ND	ND	2.7	177.4	28.2	52.7	34.8	0
34316	2013-12-27T19:00:00	ND	ND	ND	ND	ND	ND	3	168.9	27	55.5	0	0
34317	2013-12-27T20:00:00	ND	ND	ND	ND	ND	ND	3.4	166.6	26	59.1	0	0
34318	2013-12-27T21:00:00	101.7	ND	ND	ND	ND	ND	3.2	171.1	25.4	61.4	0	0
34319	2013-12-27T22:00:00	52.5	ND	ND	ND	ND	ND	2.1	171.4	24.9	62.4	0	0
34320	2013-12-27T23:00:00	27.4	ND	ND	ND	ND	ND	1.7	166	24.3	64.1	0	0
34321	2013-12-28T00:00:00	41.4	ND	ND	ND	ND	ND	1.4	148	23.1	77.9	0	0
34322	2013-12-28T01:00:00	33.5	ND	ND	ND	ND	ND	1.2	164.3	22.9	73	0	0
34323	2013-12-28T02:00:00	25.5	ND	ND	ND	ND	ND	0.5	158.1	22.7	70.6	0	0
34324	2013-12-28T03:00:00	28.2	ND	ND	ND	ND	ND	0.6	144.8	22.1	76.2	0	0
34325	2013-12-28T04:00:00	30.1	ND	ND	ND	ND	ND	0.8	136.1	21.3	83.2	0	0
34326	2013-12-28T05:00:00	17.3	ND	ND	ND	ND	ND	0.3	84.7	21.2	84.3	0	0
34327	2013-12-28T06:00:00	42	ND	ND	ND	ND	ND	0.3	109	21.1	84.3	0	0
34328	2013-12-28T07:00:00	41	ND	ND	ND	ND	ND	0.5	133.2	21	83.9	27.4	0
34329	2013-12-28T08:00:00	45.7	ND	ND	ND	ND	ND	0.3	106	22.3	76.2	163.8	0
34330	2013-12-28T09:00:00	43.2	ND	ND	ND	ND	ND	1.1	118	24.3	66.6	363.8	0
34331	2013-12-28T10:00:00	56.1	ND	ND	ND	ND	ND	0.9	119.6	25.4	64.6	524.3	0
34332	2013-12-28T11:00:00	32.5	ND	ND	ND	ND	ND	1.4	144.8	26.8	59.4	697.5	0
34333	2013-12-28T12:00:00	48.8	ND	ND	ND	ND	ND	1.8	137.6	28.3	54.1	694.8	0
34334	2013-12-28T13:00:00	25.2	ND	ND	ND	ND	ND	1	117.2	29.5	50.7	741.4	0
34335	2013-12-28T14:00:00	51.1	ND	ND	ND	ND	ND	1.3	81.3	30.4	48.4	707	0
34336	2013-12-28T15:00:00	34.4	ND	ND	ND	ND	ND	0.8	110.6	30.6	49.2	388.9	0
34337	2013-12-28T16:00:00	56.7	ND	ND	ND	ND	ND	2.6	179	30.8	46.9	499.9	0
34338	2013-12-28T17:00:00	30	ND	ND	ND	ND	ND	3.7	175.8	29.6	49	275.5	0
34339	2013-12-28T18:00:00	30.5	ND	ND	ND	ND	ND	3	176	28.2	52.5	59.6	0
34340	2013-12-28T19:00:00	16.9	ND	ND	ND	ND	ND	4.6	171.2	26.7	56.5	0	0
34341	2013-12-28T20:00:00	12.2	ND	ND	ND	ND	ND	2.9	178.5	26.4	57.4	0	0
34342	2013-12-28T21:00:00	6.7	ND	ND	ND	ND	ND	1.4	193.9	26.1	58.3	0	0
34343	2013-12-28T22:00:00	15	ND	ND	ND	ND	ND	0.7	139.2	25.3	63.5	0	0
34344	2013-12-28T23:00:00	9.6	ND	ND	ND	ND	ND	0.3	181.3	24.6	67.4	0	0
34345	2013-12-29T00:00:00	47.6	ND	ND	ND	ND	ND	0.6	71	23.3	74.4	0	0
34346	2013-12-29T01:00:00	25.2	ND	ND	ND	ND	ND	0.3	59.6	23	75.8	0	0
34347	2013-12-29T02:00:00	45.7	ND	ND	ND	ND	ND	0.7	147.2	22.9	76.8	0	0
34348	2013-12-29T03:00:00	24.4	ND	ND	ND	ND	ND	1.2	148.3	23	77.3	0	0
34349	2013-12-29T04:00:00	28.1	ND	ND	ND	ND	ND	1.1	135.3	22.1	80.9	0	0
34350	2013-12-29T05:00:00	23.7	ND	ND	ND	ND	ND	0.9	140.4	21.6	83.4	0	0
34351	2013-12-29T06:00:00	38.2	ND	ND	ND	ND	ND	0.7	149.6	21.7	81.8	0	0
34352	2013-12-29T07:00:00	25.2	ND	ND	ND	ND	ND	0.5	157.8	22.2	79	28.8	0
34353	2013-12-29T08:00:00	30.9	ND	ND	ND	ND	ND	0.7	149.5	23	74.6	91.4	0
34354	2013-12-29T09:00:00	26.3	ND	ND	ND	ND	ND	1.4	138.7	24.1	70.3	331.4	0
34355	2013-12-29T10:00:00	22.9	ND	ND	ND	ND	ND	1.5	138.3	25.8	65.1	562.2	0
34356	2013-12-29T11:00:00	14.9	ND	ND	ND	ND	ND	1.2	118.1	27.4	59.1	659.9	0
34357	2013-12-29T12:00:00	26.3	ND	ND	ND	ND	ND	1.4	107.3	28.3	56.5	521.3	0
34358	2013-12-29T13:00:00	29.9	ND	ND	ND	ND	ND	0.8	83	28.9	55	546.8	0
34359	2013-12-29T14:00:00	22	ND	ND	ND	ND	ND	2.1	174.2	29.8	50	458.3	0
34360	2013-12-29T15:00:00	11	ND	ND	ND	ND	ND	4.4	178.3	30.1	45.4	689.8	0
34361	2013-12-29T16:00:00	5.5	ND	ND	ND	ND	ND	3.6	178.1	30.4	43.7	497.1	0
34362	2013-12-29T17:00:00	4.6	ND	ND	ND	ND	ND	3.3	179.1	29.8	46.1	301.4	0
34363	2013-12-29T18:00:00	2.9	ND	ND	ND	ND	ND	3.3	184.4	28.2	51.1	78.5	0
34364	2013-12-29T19:00:00	2.2	ND	ND	ND	ND	ND	4.3	172.2	26.7	55.5	0	0
34365	2013-12-29T20:00:00	7.8	ND	ND	ND	ND	ND	4	169.4	26.3	56.6	0	0
34366	2013-12-29T21:00:00	10.8	ND	ND	ND	ND	ND	2.9	175.1	25.9	58.2	0	0
34367	2013-12-29T22:00:00	7.2	ND	ND	ND	ND	ND	2.7	159.7	25.3	61.6	0	0
34368	2013-12-29T23:00:00	4.1	ND	ND	ND	ND	ND	1.9	153.2	24.7	65.8	0	0
34369	2013-12-30T00:00:00	4.1	ND	ND	ND	ND	ND	1.7	153.7	24.3	67.6	0	0
34370	2013-12-30T01:00:00	17.3	ND	ND	ND	ND	ND	0.2	3.2	23.5	71.8	0	0
34371	2013-12-30T02:00:00	35.1	ND	ND	ND	ND	ND	0.5	45.2	22.3	79.1	0	0
34372	2013-12-30T03:00:00	20.3	ND	ND	ND	ND	ND	0.3	65.6	22.3	79	0	0
34373	2013-12-30T04:00:00	32.8	ND	ND	ND	ND	ND	0.1	94.1	22	80.9	0	0
34374	2013-12-30T05:00:00	20.4	ND	ND	ND	ND	ND	0.6	155.8	22.3	77.7	0	0
34375	2013-12-30T06:00:00	12.3	ND	ND	ND	ND	ND	0.5	153.5	22.6	73.6	0	0
34376	2013-12-30T07:00:00	7.5	ND	ND	ND	ND	ND	0.3	162.6	22.6	73.4	33	0
34377	2013-12-30T08:00:00	26.2	ND	ND	ND	ND	ND	0.8	132.2	23.6	71.6	166	0
34378	2013-12-30T09:00:00	28.2	ND	ND	ND	ND	ND	1.1	147.5	24.7	67.6	324.9	0
34379	2013-12-30T10:00:00	27.3	ND	ND	ND	ND	ND	1.1	126.6	26.2	62.6	419.4	0
34380	2013-12-30T11:00:00	23.3	ND	ND	ND	ND	ND	1.5	106.2	27.9	57.1	707.4	0
34381	2013-12-30T12:00:00	44	ND	ND	ND	ND	ND	1.2	140.3	29	52.7	772.8	0
34382	2013-12-30T13:00:00	23.4	ND	ND	ND	ND	ND	0.5	150.3	29.3	50.8	351.3	0
34383	2013-12-30T14:00:00	29.3	ND	ND	ND	ND	ND	0.7	171.5	30.4	46.3	703.1	0
34384	2013-12-30T15:00:00	14.7	ND	ND	ND	ND	ND	0.4	15.5	30.9	44.5	503.7	0
34385	2013-12-30T16:00:00	7.3	ND	ND	ND	ND	ND	3.6	176.2	31	43.9	530.9	0
34386	2013-12-30T17:00:00	5.6	ND	ND	ND	ND	ND	4.4	182.3	29.4	48.5	326.1	0
34387	2013-12-30T18:00:00	19.2	ND	ND	ND	ND	ND	3.9	180.6	27.8	51.9	60	0
34388	2013-12-30T19:00:00	10.2	ND	ND	ND	ND	ND	3.7	177.7	26.8	54.7	0	0
34389	2013-12-30T20:00:00	17.5	ND	ND	ND	ND	ND	2.3	175.4	26.4	55.6	0	0
34390	2013-12-30T21:00:00	9.9	ND	ND	ND	ND	ND	2.1	171	26.3	56.1	0	0
34391	2013-12-30T22:00:00	6.3	ND	ND	ND	ND	ND	2.6	153.5	25.1	65.9	0	0
34392	2013-12-30T23:00:00	5.2	ND	ND	ND	ND	ND	2.1	153.7	24.5	68.9	0	0
34393	2013-12-31T00:00:00	4.7	ND	ND	ND	ND	ND	1.9	154.2	24.4	67.9	0	0
34394	2013-12-31T01:00:00	3.1	ND	ND	ND	ND	ND	0.8	161.1	24.1	70.9	0	0
34395	2013-12-31T02:00:00	3	ND	ND	ND	ND	ND	0.3	45.4	23.7	70.7	0	0
34396	2013-12-31T03:00:00	3.6	ND	ND	ND	ND	ND	0.1	75.7	23	75.2	0	0
34397	2013-12-31T04:00:00	6.9	ND	ND	ND	ND	ND	0.7	148.8	22.8	78.1	0	0
34398	2013-12-31T05:00:00	4.5	ND	ND	ND	ND	ND	1.1	149	22.8	76.5	0	0
34399	2013-12-31T06:00:00	10.7	ND	ND	ND	ND	ND	1	145.3	22.5	81.8	0	0
34400	2013-12-31T07:00:00	8.4	ND	ND	ND	ND	ND	0.4	154.8	22.8	76.5	16.4	0
34401	2013-12-31T08:00:00	23.3	ND	ND	ND	ND	ND	0.5	59.3	23.4	76.4	106.7	0
34402	2013-12-31T09:00:00	34.7	ND	ND	ND	ND	ND	0.6	137.9	24.4	70.9	226.8	0
34403	2013-12-31T10:00:00	26.6	ND	ND	ND	ND	ND	1.5	130.1	26.3	61.7	591.6	0
34404	2013-12-31T11:00:00	14.5	ND	ND	ND	ND	ND	1.3	142.8	27.6	56.2	666.4	0
34405	2013-12-31T12:00:00	13.6	ND	ND	ND	ND	ND	1.4	130	29.1	50.3	703.1	0
34406	2013-12-31T13:00:00	8.2	ND	ND	ND	ND	ND	1.2	83	30.2	47	657.3	0
34407	2013-12-31T14:00:00	27.8	ND	ND	ND	ND	ND	0.8	108.9	30.7	45.4	635.3	0
34408	2013-12-31T15:00:00	15.6	ND	ND	ND	ND	ND	1.8	178.4	29.6	47.8	103.9	0
34409	2013-12-31T16:00:00	8.1	ND	ND	ND	ND	ND	4.5	181	28.5	50.4	382.4	0
34410	2013-12-31T17:00:00	5.6	ND	ND	ND	ND	ND	3.8	181.1	29	49.2	339.4	0
34411	2013-12-31T18:00:00	4.6	ND	ND	ND	ND	ND	4.1	176.9	26.7	56.4	40.3	0
34412	2013-12-31T19:00:00	2.9	ND	ND	ND	ND	ND	3.2	175.7	25.8	58.8	0	0
34413	2013-12-31T20:00:00	2.7	ND	ND	ND	ND	ND	1.9	173.9	26	57.1	0	0
34414	2013-12-31T21:00:00	2	ND	ND	ND	ND	ND	3	162.4	25.2	61.2	0	0
34415	2013-12-31T22:00:00	11.4	ND	ND	ND	ND	ND	1.7	148.9	24.8	66.8	0	0
34416	2013-12-31T23:00:00	6.7	ND	ND	ND	ND	ND	1.3	147	24.3	69.3	0	0
34417	2014-01-01T00:00:00	19.5	ND	ND	ND	ND	ND	0.5	159.5	24	69.4	0	0
34418	2014-01-01T01:00:00	30.3	ND	ND	ND	ND	ND	0.3	200.9	23.7	72.2	0	0
34419	2014-01-01T02:00:00	52.6	ND	ND	ND	ND	ND	0.2	296.4	23.3	76.4	0	0
34420	2014-01-01T03:00:00	43.5	ND	ND	ND	ND	ND	0.4	338.9	22.6	81	0	0
34421	2014-01-01T04:00:00	49.2	ND	ND	ND	ND	ND	0.8	59.6	22.5	79.9	0	0
34422	2014-01-01T05:00:00	25.2	ND	ND	ND	ND	ND	0.5	61.3	22.5	80	0	0
34423	2014-01-01T06:00:00	31.5	ND	ND	ND	ND	ND	0.2	203.4	22.6	78.5	0	0
34424	2014-01-01T07:00:00	20.7	ND	ND	ND	ND	ND	0.4	91.5	22.7	78.8	8.8	0
34425	2014-01-01T08:00:00	22.2	ND	ND	ND	ND	ND	0.1	354.4	22.7	79.9	104.1	0
34426	2014-01-01T09:00:00	13.3	ND	ND	ND	ND	ND	0.7	92.5	24.5	70.8	204.8	0
34427	2014-01-01T10:00:00	28.9	ND	ND	ND	ND	ND	0.5	79.3	24.2	73.4	166.7	0
34428	2014-01-01T11:00:00	18.6	ND	ND	ND	ND	ND	0.5	143.9	26.2	62.1	561.7	0
34429	2014-01-01T12:00:00	10.8	ND	ND	ND	ND	ND	0.9	104.4	28.2	54.7	638.8	0
34430	2014-01-01T13:00:00	5.4	ND	ND	ND	ND	ND	1.1	56.6	28.5	54.1	409.1	0
34431	2014-01-01T14:00:00	7.1	ND	ND	ND	ND	ND	0.5	122.9	29.2	50.9	489.1	0
34432	2014-01-01T15:00:00	3.5	ND	ND	ND	ND	ND	4	178	29.4	46.8	621.7	0
34433	2014-01-01T16:00:00	1.8	ND	ND	ND	ND	ND	3.2	187.5	29.3	46.1	474.3	0
34434	2014-01-01T17:00:00	0.9	ND	ND	ND	ND	ND	3	188.9	28.7	47.7	248.9	0
34435	2014-01-01T18:00:00	0.4	ND	ND	ND	ND	ND	2.6	182.8	27.1	51.4	29.8	0
34436	2014-01-01T19:00:00	1.9	ND	ND	ND	ND	ND	2.6	173.5	26.5	54.1	0	0
34437	2014-01-01T20:00:00	2.5	ND	ND	ND	ND	ND	2.4	180.5	25.9	57.2	0	0
34438	2014-01-01T21:00:00	2.6	ND	ND	ND	ND	ND	2.4	154.9	24.9	65.1	0	0
34439	2014-01-01T22:00:00	2	ND	ND	ND	ND	ND	2.2	160	24.5	63.8	0	0
34440	2014-01-01T23:00:00	1.9	ND	ND	ND	ND	ND	1.5	153.1	23.8	69.7	0	0
34441	2014-01-02T00:00:00	2	ND	ND	ND	ND	ND	0.3	73.8	23.3	73.2	0	0
34442	2014-01-02T01:00:00	2.6	ND	ND	ND	ND	ND	0.3	305	22.6	77.9	0	0
34443	2014-01-02T02:00:00	4	ND	ND	ND	ND	ND	0.4	38.3	21.8	81.1	0	0
34444	2014-01-02T03:00:00	4	ND	ND	ND	ND	ND	0.2	136.4	21.9	80.4	0	0
34445	2014-01-02T04:00:00	7.9	ND	ND	ND	ND	ND	0.3	53.1	22	79.2	0	0
34446	2014-01-02T05:00:00	5.3	ND	ND	ND	ND	ND	0.8	79.6	21.6	80.9	0	0
34447	2014-01-02T06:00:00	3.4	ND	ND	ND	ND	ND	0.3	230.1	21.4	80.2	0	0
34448	2014-01-02T07:00:00	2.7	ND	ND	ND	ND	ND	0.9	161.3	21.8	76.6	28.2	0
34449	2014-01-02T08:00:00	3.4	ND	ND	ND	ND	ND	0.9	171.4	22.8	70.6	163.1	0
34450	2014-01-02T09:00:00	3.6	ND	ND	ND	ND	ND	0.7	142.9	24.6	68.3	442.6	0
34451	2014-01-02T10:00:00	18.3	ND	ND	ND	ND	ND	1.8	130.8	26.5	61.5	699.1	0
34452	2014-01-02T11:00:00	11.1	ND	ND	ND	ND	ND	1.1	118	27.2	57.7	709.1	0
34453	2014-01-02T12:00:00	6.2	ND	ND	ND	ND	ND	0.3	133.6	27.7	55.6	528	0
34454	2014-01-02T13:00:00	4.6	ND	ND	ND	ND	ND	1	106.8	28.9	50.2	543.6	0
34455	2014-01-02T14:00:00	18.7	ND	ND	ND	ND	ND	0.4	115.1	30.2	45.2	670.3	0
34456	2014-01-02T15:00:00	11.4	ND	ND	ND	ND	ND	0.3	140.4	30.7	43.5	565.7	0
34457	2014-01-02T16:00:00	6.2	ND	ND	ND	ND	ND	1.7	173.5	31.2	41.8	526.4	0
34458	2014-01-02T17:00:00	3.8	ND	ND	ND	ND	ND	4.4	174.4	29.2	47.3	286.5	0
34459	2014-01-02T18:00:00	1.9	ND	ND	ND	ND	ND	4.8	173.1	27.1	53.2	59.6	0
34460	2014-01-02T19:00:00	3	ND	ND	ND	ND	ND	3.7	181.6	26.2	56.1	0	0
34461	2014-01-02T20:00:00	2.1	ND	ND	ND	ND	ND	4.2	175.4	25.5	59.2	0	0
34462	2014-01-02T21:00:00	1.8	ND	ND	ND	ND	ND	1.3	176.9	25.6	58.4	0	0
34463	2014-01-02T22:00:00	16	ND	ND	ND	ND	ND	1.8	137.5	25.1	63.1	0	0
34464	2014-01-02T23:00:00	10.1	ND	ND	ND	ND	ND	2.5	152.9	24.7	64	0	0
34465	2014-01-03T00:00:00	6.4	ND	ND	ND	ND	ND	1.9	156.6	24.6	63.3	0	0
34466	2014-01-03T01:00:00	3.2	ND	ND	ND	ND	ND	1.5	155.6	24.5	64	0	0
34467	2014-01-03T02:00:00	1.6	ND	ND	ND	ND	ND	1.5	143.3	23.5	72.8	0	0
34468	2014-01-03T03:00:00	1.5	ND	ND	ND	ND	ND	0.5	94.8	23.1	76.6	0	0
34469	2014-01-03T04:00:00	5.9	ND	ND	ND	ND	ND	0.8	89.5	22.2	81.1	0	0
34470	2014-01-03T05:00:00	4.9	ND	ND	ND	ND	ND	0.3	92	22.2	81.2	0	0
34471	2014-01-03T06:00:00	14.1	ND	ND	ND	ND	ND	0.4	239.7	22.5	79	0	0
34472	2014-01-03T07:00:00	8.3	ND	ND	ND	ND	ND	0.7	66.9	22.4	78.9	18	0
34473	2014-01-03T08:00:00	14.7	ND	ND	ND	ND	ND	1	134.1	22.6	78.8	77.2	0
34474	2014-01-03T09:00:00	8	ND	ND	ND	ND	ND	0.4	124.3	23.6	74.7	210.7	0
34475	2014-01-03T10:00:00	15.5	ND	ND	ND	ND	ND	0.4	88.4	25	67.4	295.6	0
34476	2014-01-03T11:00:00	12.7	ND	ND	ND	ND	ND	1.1	90.4	26.9	59.8	606.6	0
34477	2014-01-03T12:00:00	25.2	ND	ND	ND	ND	ND	1.2	91.4	28	54.3	435.3	0
34478	2014-01-03T13:00:00	13.6	ND	ND	ND	ND	ND	0.8	67.8	28.7	51.2	574.1	0
34479	2014-01-03T14:00:00	15.5	ND	ND	ND	ND	ND	1.1	168.6	29.7	47.8	568.1	0
34480	2014-01-03T15:00:00	7.8	ND	ND	ND	ND	ND	2.8	171.1	30.5	44.1	775.4	0
34481	2014-01-03T16:00:00	3.9	ND	ND	ND	ND	ND	2.9	172.2	30.4	44.5	462	0
34482	2014-01-03T17:00:00	3.2	ND	ND	ND	ND	ND	3.6	175.9	29.2	47.9	235.7	0
34483	2014-01-03T18:00:00	1.6	ND	ND	ND	ND	ND	3.6	174.3	27.5	52.1	32.1	0
34484	2014-01-03T19:00:00	2.6	ND	ND	ND	ND	ND	3.9	173.5	26.5	54.2	0	0
34485	2014-01-03T20:00:00	3.1	ND	ND	ND	ND	ND	3.3	177.2	26.2	55.3	0	0
34486	2014-01-03T21:00:00	3.1	ND	ND	ND	ND	ND	2.6	184.1	25.8	56.9	0	0
34487	2014-01-03T22:00:00	2.8	ND	ND	ND	ND	ND	1.1	164.7	25.5	59.1	0	0
34488	2014-01-03T23:00:00	2.1	ND	ND	ND	ND	ND	1.2	138.1	24.4	66	0	0
34489	2014-01-04T00:00:00	22	ND	ND	ND	ND	ND	1	142.3	23.8	70.3	0	0
34490	2014-01-04T01:00:00	17.4	ND	ND	ND	ND	ND	0.8	145.7	23.3	71.8	0	0
34491	2014-01-04T02:00:00	25.5	ND	ND	ND	ND	ND	0.9	136.2	23.1	72.6	0	0
34492	2014-01-04T03:00:00	16.9	ND	ND	ND	ND	ND	0.1	22.6	22.6	75	0	0
34493	2014-01-04T04:00:00	10.1	ND	ND	ND	ND	ND	0.5	94.9	22.8	74.9	0	0
34494	2014-01-04T05:00:00	5.8	ND	ND	ND	ND	ND	0.6	47.6	22.3	77.4	0	0
34495	2014-01-04T06:00:00	17.8	ND	ND	ND	ND	ND	0.4	161.9	22.3	76.6	0	0
34496	2014-01-04T07:00:00	10.7	ND	ND	ND	ND	ND	0.2	165.3	22.5	73.2	7.7	0
34497	2014-01-04T08:00:00	ND	ND	ND	ND	ND	ND	0.9	157.8	23.4	70.4	196.2	0
34498	2014-01-04T09:00:00	ND	ND	ND	ND	ND	ND	1	114.7	25.6	63.6	378.3	0
34499	2014-01-04T10:00:00	ND	ND	ND	ND	ND	ND	0.9	88	26.6	60.4	467.6	0
34500	2014-01-04T11:00:00	87.5	ND	ND	ND	ND	ND	1.1	95	26.9	58.8	375.7	0
34501	2014-01-04T12:00:00	51.6	ND	ND	ND	ND	ND	1	54.7	28.3	54	515.3	0
34502	2014-01-04T13:00:00	26.8	ND	ND	ND	ND	ND	1	72.2	29.2	51.4	542.7	0
34503	2014-01-04T14:00:00	14.1	ND	ND	ND	ND	ND	0.3	15.4	30.6	47.9	787.4	0
34504	2014-01-04T15:00:00	ND	ND	ND	ND	ND	ND	ND	ND	ND	ND	ND	ND
34505	2014-01-04T16:00:00	ND	ND	ND	ND	ND	ND	ND	ND	ND	ND	ND	ND
34506	2014-01-04T17:00:00	ND	ND	ND	ND	ND	ND	4.1	179.3	29.7	47.6	285.5	0
34507	2014-01-04T18:00:00	ND	ND	ND	ND	ND	ND	4.3	170.4	27.8	52.5	34.6	0
34508	2014-01-04T19:00:00	ND	ND	ND	ND	ND	ND	4.7	173.1	26.9	55.2	0	0
34509	2014-01-04T20:00:00	5.1	ND	ND	ND	ND	ND	3.9	174.5	26.5	56.6	0	0
34510	2014-01-04T21:00:00	2.5	ND	ND	ND	ND	ND	1.9	192.6	26.4	56.7	0	0
34511	2014-01-04T22:00:00	1.3	ND	ND	ND	ND	ND	0.7	110.5	25.8	61.6	0	0
34512	2014-01-04T23:00:00	2.5	ND	ND	ND	ND	ND	2	154.3	25.5	63.3	0	0
34513	2014-01-05T00:00:00	2.2	ND	ND	ND	ND	ND	0.5	74.2	24.6	68.6	0	0
34514	2014-01-05T01:00:00	23.3	ND	ND	ND	ND	ND	0.2	ND	23.9	70.4	0	0
34515	2014-01-05T02:00:00	36.6	ND	ND	ND	ND	ND	1.7	150.1	24.3	69.7	0	0
34516	2014-01-05T03:00:00	19.5	ND	ND	ND	ND	ND	1.5	146.3	23.7	73.3	0	0
34517	2014-01-05T04:00:00	45.2	ND	ND	ND	ND	ND	1	123.7	23.1	75.8	0	0
34518	2014-01-05T05:00:00	24.8	ND	ND	ND	ND	ND	0.4	94.3	22.8	77.8	0	0
34519	2014-01-05T06:00:00	17.5	ND	ND	ND	ND	ND	0.5	91.9	22.8	76.9	0	0
34520	2014-01-05T07:00:00	22.3	ND	ND	ND	ND	ND	1	139.4	22.5	79.9	15.5	0
34521	2014-01-05T08:00:00	35.1	ND	ND	ND	ND	ND	0.4	151	23.2	77	99.5	0
34522	2014-01-05T09:00:00	18.7	ND	ND	ND	ND	ND	1.2	136	24.2	71.8	172.1	0
34523	2014-01-05T10:00:00	19.6	ND	ND	ND	ND	ND	1.2	138.7	26	64.6	591.7	0
34524	2014-01-05T11:00:00	11.8	ND	ND	ND	ND	ND	1.4	135.6	28	57.1	774.9	0
34525	2014-01-05T12:00:00	15.3	ND	ND	ND	ND	ND	0.7	109.6	28.2	55.5	279.8	0
34526	2014-01-05T13:00:00	14.9	ND	ND	ND	ND	ND	0.8	130.3	28.8	53.1	671.1	0
34527	2014-01-05T14:00:00	19.3	ND	ND	ND	ND	ND	0.4	182.4	29.9	48.4	374.1	0
34528	2014-01-05T15:00:00	11.8	ND	ND	ND	ND	ND	1.4	81.4	29.3	50.6	176.5	0
34529	2014-01-05T16:00:00	11.5	ND	ND	ND	ND	ND	3.4	176.1	29.6	47.7	386.9	0
34530	2014-01-05T17:00:00	7.2	ND	ND	ND	ND	ND	3.7	173.3	27.6	51.9	48	0
34531	2014-01-05T18:00:00	5.5	ND	ND	ND	ND	ND	3.8	176.5	26.9	54.3	17.4	0
34532	2014-01-05T19:00:00	4	ND	ND	ND	ND	ND	2.1	173.1	26.7	55.8	0	0
34533	2014-01-05T20:00:00	3	ND	ND	ND	ND	ND	1.1	109.6	25.8	63.5	0	0
34534	2014-01-05T21:00:00	2.5	ND	ND	ND	ND	ND	0.7	161.3	25.5	63.1	0	0
34535	2014-01-05T22:00:00	3.2	ND	ND	ND	ND	ND	2.1	161.3	25.5	62.3	0	0
34536	2014-01-05T23:00:00	3.8	ND	ND	ND	ND	ND	2.1	158	24	73.5	0	0
34537	2014-01-06T00:00:00	3.8	ND	ND	ND	ND	ND	2.2	157.8	22.8	81.5	0	21.08
34538	2014-01-06T01:00:00	5.6	ND	ND	ND	ND	ND	0.7	157.7	21.4	91.7	0	10.41
34539	2014-01-06T02:00:00	2.8	ND	ND	ND	ND	ND	0.7	137.3	21.7	90.4	0	1.27
34540	2014-01-06T03:00:00	2.5	ND	ND	ND	ND	ND	0.4	157.7	21.7	91.5	0	0
34541	2014-01-06T04:00:00	2.8	ND	ND	ND	ND	ND	1.3	149.1	21.5	91.8	0	0.51
34542	2014-01-06T05:00:00	2.9	ND	ND	ND	ND	ND	1.6	150.7	21.1	93.2	0	2.29
34543	2014-01-06T06:00:00	2	ND	ND	ND	ND	ND	0.9	146.4	20.9	93.6	0	2.29
34544	2014-01-06T07:00:00	3	ND	ND	ND	ND	ND	1	150.2	20.6	92.6	7.4	0.25
34545	2014-01-06T08:00:00	2.1	ND	ND	ND	ND	ND	0.6	103.8	20.5	91.8	44.7	0.25
34546	2014-01-06T09:00:00	2	ND	ND	ND	ND	ND	1.1	91.7	20.9	90.9	132.1	0
34547	2014-01-06T10:00:00	1.5	ND	ND	ND	ND	ND	1.6	144.7	21	89	131.6	0
34548	2014-01-06T11:00:00	1.5	ND	ND	ND	ND	ND	0.7	56.9	22	85.8	383.7	0.25
34549	2014-01-06T12:00:00	4.2	ND	ND	ND	ND	ND	0.7	199.8	24	72.8	580.3	0
34550	2014-01-06T13:00:00	2.7	ND	ND	ND	ND	ND	0.5	97.4	26.3	61.6	738.9	0
34551	2014-01-06T14:00:00	2	ND	ND	ND	ND	ND	1	92.2	27.9	57.3	767.5	0
34552	2014-01-06T15:00:00	1	ND	ND	ND	ND	ND	1	88.1	27.8	57.4	231.4	0
34553	2014-01-06T16:00:00	0.5	ND	ND	ND	ND	ND	2.7	181.7	24.4	70.4	22.9	32
34554	2014-01-06T17:00:00	9.8	ND	ND	ND	ND	ND	0.9	235.2	19.3	99.2	67.6	30.23
34555	2014-01-06T18:00:00	8.8	ND	ND	ND	ND	ND	0.6	305.7	20.8	97.4	28.9	0.25
34556	2014-01-06T19:00:00	5.1	ND	ND	ND	ND	ND	2	28.5	21.2	91	0	0.25
34557	2014-01-06T20:00:00	4.6	ND	ND	ND	ND	ND	1.1	4	20.6	91.2	0	0.25
34558	2014-01-06T21:00:00	4.1	ND	ND	ND	ND	ND	1.4	2.6	19.9	92.8	0	14.99
34559	2014-01-06T22:00:00	3.9	ND	ND	ND	ND	ND	0.3	194.8	18.8	95.5	0	29.21
34560	2014-01-06T23:00:00	3.3	ND	ND	ND	ND	ND	0.5	69.7	19.1	95.9	0	12.45
34561	2014-01-07T00:00:00	2.5	ND	ND	ND	ND	ND	0.8	66.8	18.8	97.1	0	7.87
34562	2014-01-07T01:00:00	3.2	ND	ND	ND	ND	ND	0.4	108.1	18.7	97.2	0	5.08
34563	2014-01-07T02:00:00	2.2	ND	ND	ND	ND	ND	1.2	148.5	18.8	97	0	4.32
34564	2014-01-07T03:00:00	2.8	ND	ND	ND	ND	ND	1	143.9	18.5	97.1	0	1.52
34565	2014-01-07T04:00:00	3.1	ND	ND	ND	ND	ND	0.8	148.3	18.4	97	0	1.02
34566	2014-01-07T05:00:00	2.7	ND	ND	ND	ND	ND	0.4	140.2	18.6	96.2	0	0.25
34567	2014-01-07T06:00:00	2.7	ND	ND	ND	ND	ND	0.5	107.9	18.8	95.5	0	0
34568	2014-01-07T07:00:00	2.2	ND	ND	ND	ND	ND	0.4	138.5	18.9	94	26.8	0
34569	2014-01-07T08:00:00	3	ND	ND	ND	ND	ND	0.2	ND	19.8	88.5	108.5	0.25
34570	2014-01-07T09:00:00	6.6	ND	ND	ND	ND	ND	0.8	67.8	20.7	84.3	226.5	0
34571	2014-01-07T10:00:00	28.6	ND	ND	ND	ND	ND	1	50.8	21	84.5	170.3	0
34572	2014-01-07T11:00:00	15.9	ND	ND	ND	ND	ND	0.6	35.3	21.8	79.9	235.1	0
34573	2014-01-07T12:00:00	25.8	ND	ND	ND	ND	ND	1.3	61.8	22.3	76.8	463.5	0
34574	2014-01-07T13:00:00	13.4	ND	ND	ND	ND	ND	1	57.6	23.8	70	452.5	0
34575	2014-01-07T14:00:00	11.1	ND	ND	ND	ND	ND	0.7	62.6	25.3	62.8	704.5	0
34576	2014-01-07T15:00:00	6.9	ND	ND	ND	ND	ND	0.5	109	26	59.7	326.9	0
34577	2014-01-07T16:00:00	16.9	ND	ND	ND	ND	ND	1	159.5	26.6	55.3	375.9	0
34578	2014-01-07T17:00:00	9.7	ND	ND	ND	ND	ND	2	171.1	26.6	51	346.4	0
34579	2014-01-07T18:00:00	18.2	ND	ND	ND	ND	ND	0.8	175.8	25.7	57	50.5	0
34580	2014-01-07T19:00:00	13.5	ND	ND	ND	ND	ND	2.1	162.4	24.1	61.1	0	0
34581	2014-01-07T20:00:00	35.1	ND	ND	ND	ND	ND	1.7	177	23.7	61.2	0	0
34582	2014-01-07T21:00:00	19.6	ND	ND	ND	ND	ND	0.8	180.7	23.3	62.9	0	0
34583	2014-01-07T22:00:00	10.4	ND	ND	ND	ND	ND	1.1	168.4	23	64.2	0	0
34584	2014-01-07T23:00:00	7.3	ND	ND	ND	ND	ND	0.4	190.2	22.6	69.8	0	0
34585	2014-01-08T00:00:00	ND	ND	ND	ND	ND	ND	0.2	ND	21.9	78.8	0	0
34586	2014-01-08T01:00:00	ND	ND	ND	ND	ND	ND	0.1	ND	21.7	79.2	0	0
34587	2014-01-08T02:00:00	ND	ND	ND	ND	ND	ND	0.3	ND	21.4	82.3	0	0
34588	2014-01-08T03:00:00	ND	ND	ND	ND	ND	ND	0.3	ND	20.7	87.8	0	3.81
34589	2014-01-08T04:00:00	ND	ND	ND	ND	ND	ND	0.8	154.4	19.9	91.6	0	8.13
34590	2014-01-08T05:00:00	ND	ND	ND	ND	ND	ND	1.3	153.2	19.5	94	0	4.83
34591	2014-01-08T06:00:00	ND	ND	ND	ND	ND	ND	0.7	156.2	19.4	93.6	0	3.3
34592	2014-01-08T07:00:00	ND	ND	ND	ND	ND	ND	0.7	160.1	19.5	92.2	11.4	1.02
34593	2014-01-08T08:00:00	ND	ND	ND	ND	ND	ND	0.4	ND	20.2	88.6	79	0.25
34594	2014-01-08T09:00:00	ND	ND	ND	ND	ND	ND	0.3	103.3	22.3	78.6	406.3	0
34595	2014-01-08T10:00:00	ND	ND	ND	ND	ND	ND	1.1	114.2	24.3	69.2	628.4	0
34596	2014-01-08T11:00:00	ND	ND	ND	ND	ND	ND	1	84.2	25.5	63.3	674.1	0
34597	2014-01-08T12:00:00	ND	ND	ND	ND	ND	ND	1.6	110.4	25.8	60.8	474.5	0
34598	2014-01-08T13:00:00	ND	ND	ND	ND	ND	ND	0.8	99.2	26.6	58	593.9	0
34599	2014-01-08T14:00:00	ND	ND	ND	ND	ND	ND	0.3	103.7	27.3	56.3	486.3	0
34600	2014-01-08T15:00:00	89.8	ND	ND	ND	ND	ND	1.2	164	27	55.4	188.9	0
34601	2014-01-08T16:00:00	52.7	ND	ND	ND	ND	ND	2.7	171.8	26.8	52.7	247.4	0
34602	2014-01-08T17:00:00	27.5	ND	ND	ND	ND	ND	3.1	177.5	27.1	52.9	324.2	0
34603	2014-01-08T18:00:00	24.2	ND	ND	ND	ND	ND	2.8	175.5	25.7	57.7	67.6	0
34604	2014-01-08T19:00:00	13.3	ND	ND	ND	ND	ND	2.3	180.3	24.9	59.3	0	0
34605	2014-01-08T20:00:00	15.2	ND	ND	ND	ND	ND	2.3	161.9	24.2	61.5	0	0
34606	2014-01-08T21:00:00	8.1	ND	ND	ND	ND	ND	2.4	165.5	23.9	62.8	0	0
34607	2014-01-08T22:00:00	5.7	ND	ND	ND	ND	ND	1.4	166.6	23.6	64.4	0	0
34608	2014-01-08T23:00:00	4	ND	ND	ND	ND	ND	1.4	165.1	23.4	66	0	0
34609	2014-01-09T00:00:00	5.3	ND	ND	ND	ND	ND	0.6	141.4	22.6	78.3	0	0
34610	2014-01-09T01:00:00	5.1	ND	ND	ND	ND	ND	0.5	126.3	22.3	80	0	0
34611	2014-01-09T02:00:00	27	ND	ND	ND	ND	ND	0.8	129.1	21.8	82.2	0	0
34612	2014-01-09T03:00:00	26.1	ND	ND	ND	ND	ND	0.4	125.2	21.8	82.3	0	0
34613	2014-01-09T04:00:00	18.9	ND	ND	ND	ND	ND	0.9	125.3	21.3	83.9	0	0
34614	2014-01-09T05:00:00	10.7	ND	ND	ND	ND	ND	0.3	ND	21.5	80.7	0	0
34615	2014-01-09T06:00:00	13.9	ND	ND	ND	ND	ND	0.7	135.7	21.5	81.7	0	0
34616	2014-01-09T07:00:00	8.7	ND	ND	ND	ND	ND	0.4	122.1	21.6	84.6	0	0
34617	2014-01-09T08:00:00	40.3	ND	ND	ND	ND	ND	1	117.1	21.6	86.2	28	0
34618	2014-01-09T09:00:00	42.7	ND	ND	ND	ND	ND	1.2	97.5	21.4	86.8	101.9	0
34619	2014-01-09T10:00:00	37.8	ND	ND	ND	ND	ND	0.6	136.8	21.7	83.2	113.6	0
34620	2014-01-09T11:00:00	41.6	ND	ND	ND	ND	ND	1	97.4	22.3	81.6	184.3	0
34621	2014-01-09T12:00:00	ND	ND	ND	ND	ND	ND	0.7	112.1	23.6	75.3	573.4	0
34622	2014-01-09T13:00:00	ND	ND	ND	ND	ND	ND	1.8	116.6	26.3	60.7	923.9	0
34623	2014-01-09T14:00:00	ND	ND	ND	ND	ND	ND	1.3	170.7	26.7	56.6	487.4	0
34624	2014-01-09T15:00:00	ND	ND	ND	ND	ND	ND	1.9	174.7	26.7	57.3	555.5	0
34625	2014-01-09T16:00:00	ND	ND	ND	ND	ND	ND	0.4	266.5	27.5	55.1	435.5	0
34626	2014-01-09T17:00:00	ND	ND	ND	ND	ND	ND	0.9	43.5	26.4	59.8	141.3	0
34627	2014-01-09T18:00:00	ND	ND	ND	ND	ND	ND	1.4	49.1	25.4	63.6	39.7	0
34628	2014-01-09T19:00:00	79.4	ND	ND	ND	ND	ND	1.3	82.7	24.3	69.8	0	0
34629	2014-01-09T20:00:00	75.3	ND	ND	ND	ND	ND	0.8	90.3	24	69	0	0
34630	2014-01-09T21:00:00	38.3	ND	ND	ND	ND	ND	2.1	160.4	23.9	63.7	0	0
34631	2014-01-09T22:00:00	31.5	ND	ND	ND	ND	ND	1.7	152.4	23.3	73.7	0	0
34632	2014-01-09T23:00:00	26.7	ND	ND	ND	ND	ND	1.5	146.3	22.9	75.6	0	0
34633	2014-01-10T00:00:00	16.5	ND	ND	ND	ND	ND	1	142	22.3	81.5	0	0
34634	2014-01-10T01:00:00	14.4	ND	ND	ND	ND	ND	1.1	149.7	21.4	86.5	0	3.56
34635	2014-01-10T02:00:00	8.3	ND	ND	ND	ND	ND	1	153.7	20.5	92	0	1.52
34636	2014-01-10T03:00:00	4.8	ND	ND	ND	ND	ND	1.1	152.4	20.6	91.7	0	0.25
34637	2014-01-10T04:00:00	4.4	ND	ND	ND	ND	ND	1.4	155.3	19.9	92.8	0	13.72
34638	2014-01-10T05:00:00	3.8	ND	ND	ND	ND	ND	0.7	158.6	19.7	92.4	0	0.51
34639	2014-01-10T06:00:00	2.6	ND	ND	ND	ND	ND	0.4	139.9	20	92.1	0	1.02
34640	2014-01-10T07:00:00	2.4	ND	ND	ND	ND	ND	0.9	132.5	19.7	94.5	0	28.7
34641	2014-01-10T08:00:00	8.6	ND	ND	ND	ND	ND	0.5	179.2	19.3	98.4	11.9	60.71
34642	2014-01-10T09:00:00	6.2	ND	ND	ND	ND	ND	0.9	181.1	19.4	99.5	76.9	7.62
34643	2014-01-10T10:00:00	4.1	ND	ND	ND	ND	ND	0.9	147.6	20.5	96.8	259.6	1.02
34644	2014-01-10T11:00:00	3.3	ND	ND	ND	ND	ND	1	128.1	22.5	83.4	349.9	0
34645	2014-01-10T12:00:00	3.2	ND	ND	ND	ND	ND	0.8	117.4	23.7	74.2	479.2	0
34646	2014-01-10T13:00:00	3.2	ND	ND	ND	ND	ND	1	81.6	24.6	69.8	413.2	0
34647	2014-01-10T14:00:00	7.6	ND	ND	ND	ND	ND	1.3	89.9	25.3	66.2	609.5	0
34648	2014-01-10T15:00:00	5.8	ND	ND	ND	ND	ND	1.2	65	25.6	65.2	293	0
34649	2014-01-10T16:00:00	31.7	ND	ND	ND	ND	ND	0.1	183.6	26.2	62.7	265.4	0
34650	2014-01-10T17:00:00	28.7	ND	ND	ND	ND	ND	1.4	71.3	26	64.1	172.9	0
34651	2014-01-10T18:00:00	51.3	ND	ND	ND	ND	ND	0.5	117.1	25.3	64.2	36	0
34652	2014-01-10T19:00:00	26.4	ND	ND	ND	ND	ND	1.4	180	24.6	63.9	0	0
34653	2014-01-10T20:00:00	14.9	ND	ND	ND	ND	ND	2	169.8	24.1	66.4	0	0
34654	2014-01-10T21:00:00	8.6	ND	ND	ND	ND	ND	1.9	165.6	23.7	67.8	0	0
34655	2014-01-10T22:00:00	5	ND	ND	ND	ND	ND	2.4	166	23.5	69.1	0	0
34656	2014-01-10T23:00:00	2.5	ND	ND	ND	ND	ND	2.2	164.2	23.4	68.8	0	0
34657	2014-01-11T00:00:00	1.3	ND	ND	ND	ND	ND	0.9	149.9	22.6	80.9	0	0
34658	2014-01-11T01:00:00	1.6	ND	ND	ND	ND	ND	0.6	150.6	22.1	83.9	0	0
34659	2014-01-11T02:00:00	29.4	ND	ND	ND	ND	ND	0.5	155.5	22.2	80	0	0
34660	2014-01-11T03:00:00	15.2	ND	ND	ND	ND	ND	0.6	153.6	22.1	79.2	0	0.76
34661	2014-01-11T04:00:00	17.9	ND	ND	ND	ND	ND	0.8	142.3	20.7	90.5	0	2.03
34662	2014-01-11T05:00:00	10.1	ND	ND	ND	ND	ND	1.2	149.5	20.7	91.9	0	0
34663	2014-01-11T06:00:00	5.8	ND	ND	ND	ND	ND	1.3	150.1	20.7	91.8	0	3.81
34664	2014-01-11T07:00:00	4	ND	ND	ND	ND	ND	0.8	154.3	20.4	93.7	5.9	5.59
34665	2014-01-11T08:00:00	3.5	ND	ND	ND	ND	ND	0.3	138.5	20.9	91.8	59.8	0
34666	2014-01-11T09:00:00	22.5	ND	ND	ND	ND	ND	0.2	ND	21.9	85.2	150.3	0.25
34667	2014-01-11T10:00:00	21.9	ND	ND	ND	ND	ND	0.8	83.3	22.9	80.2	311.8	0
34668	2014-01-11T11:00:00	11.7	ND	ND	ND	ND	ND	1.2	127.9	23.3	78.7	247.1	0
34669	2014-01-11T12:00:00	38.3	ND	ND	ND	ND	ND	1	120.1	23.7	74.2	286.4	0
34670	2014-01-11T13:00:00	20.6	ND	ND	ND	ND	ND	0.9	117.1	24.9	66.1	428.3	0
34671	2014-01-11T14:00:00	24.8	ND	ND	ND	ND	ND	1.2	122.3	26.6	58.7	821.1	0
34672	2014-01-11T15:00:00	13.2	ND	ND	ND	ND	ND	1.1	119.2	28	50.1	604.8	0
34673	2014-01-11T16:00:00	7.3	ND	ND	ND	ND	ND	1.3	184.8	28	51.5	340.9	0
34674	2014-01-11T17:00:00	5.2	ND	ND	ND	ND	ND	1.1	168	27.3	56.3	113.9	0
34675	2014-01-11T18:00:00	13.8	ND	ND	ND	ND	ND	1.1	66.9	26.8	57.2	71.3	0
34676	2014-01-11T19:00:00	21	ND	ND	ND	ND	ND	1.1	170.5	26.1	61.2	0	0
34677	2014-01-11T20:00:00	30.8	ND	ND	ND	ND	ND	2.1	167.6	25.1	63.8	0	0
34678	2014-01-11T21:00:00	97	ND	ND	ND	ND	ND	1.5	176.5	24.6	65.2	0	0
34679	2014-01-11T22:00:00	48.5	ND	ND	ND	ND	ND	1.7	166.6	23.8	66.9	0	0
34680	2014-01-11T23:00:00	25.1	ND	ND	ND	ND	ND	2.3	156.9	23.5	65.3	0	0
34681	2014-01-12T00:00:00	13.8	ND	ND	ND	ND	ND	1.6	155.9	23.2	67.9	0	0
34682	2014-01-12T01:00:00	16.6	ND	ND	ND	ND	ND	1.5	160.2	23	68.7	0	0
34683	2014-01-12T02:00:00	14.2	ND	ND	ND	ND	ND	0.8	161.2	22.5	69.8	0	0
34684	2014-01-12T03:00:00	16.7	ND	ND	ND	ND	ND	0.6	160.9	22	74.5	0	0
34685	2014-01-12T04:00:00	23.8	ND	ND	ND	ND	ND	0.9	152.3	21.6	79.3	0	0
34686	2014-01-12T05:00:00	11.9	ND	ND	ND	ND	ND	0.4	166.4	21.5	79.9	0	0
34687	2014-01-12T06:00:00	12.3	ND	ND	ND	ND	ND	0.7	159.7	21.5	77	0	0
34688	2014-01-12T07:00:00	8.8	ND	ND	ND	ND	ND	0.6	ND	21.5	75.9	13.1	0
34689	2014-01-12T08:00:00	25.2	ND	ND	ND	ND	ND	0.4	138.8	21.7	79.5	59.1	0
34690	2014-01-12T09:00:00	13.5	ND	ND	ND	ND	ND	0	154.7	22.8	76.9	206.4	0
34691	2014-01-12T10:00:00	43.3	ND	ND	ND	ND	ND	0.7	70	23.6	72.9	230.7	0
34692	2014-01-12T11:00:00	35.5	ND	ND	ND	ND	ND	1	87.4	24.2	72.2	361.7	0
34693	2014-01-12T12:00:00	35.7	ND	ND	ND	ND	ND	1.2	97.4	25.7	66.5	494.3	0
34694	2014-01-12T13:00:00	21	ND	ND	ND	ND	ND	1.1	96	26.5	63.3	533.8	0
34695	2014-01-12T14:00:00	43.5	ND	ND	ND	ND	ND	1	140.5	27.5	59.3	641	0
34696	2014-01-12T15:00:00	26.3	ND	ND	ND	ND	ND	0.9	76.8	28.3	56.3	434	0
34697	2014-01-12T16:00:00	33.2	ND	ND	ND	ND	ND	1.5	65.4	27.9	58	214.5	0
34698	2014-01-12T17:00:00	23.7	ND	ND	ND	ND	ND	0.4	103	27.3	60.2	80.4	0
34699	2014-01-12T18:00:00	36	ND	ND	ND	ND	ND	1.4	172.5	27.1	58.6	33.2	0
34700	2014-01-12T19:00:00	21.8	ND	ND	ND	ND	ND	1	154.3	26.1	60.7	0	0
34701	2014-01-12T20:00:00	18.1	ND	ND	ND	ND	ND	1.1	157.8	25.1	66.2	0	0
34702	2014-01-12T21:00:00	11.1	ND	ND	ND	ND	ND	1.5	166.3	24.5	66.2	0	0
34703	2014-01-12T22:00:00	9	ND	ND	ND	ND	ND	1.4	187.4	23.9	68.1	0	0
34704	2014-01-12T23:00:00	5.7	ND	ND	ND	ND	ND	0.8	169.4	23.6	69.9	0	0
34705	2014-01-13T00:00:00	6.4	ND	ND	ND	ND	ND	1.4	159.6	23.3	70.6	0	0
34706	2014-01-13T01:00:00	4	ND	ND	ND	ND	ND	0.3	113.8	22.6	78.4	0	0
34707	2014-01-13T02:00:00	28.1	ND	ND	ND	ND	ND	0.8	149.6	21.7	84.5	0	0
34708	2014-01-13T03:00:00	21.2	ND	ND	ND	ND	ND	1.1	148.6	21.5	85.3	0	0
34709	2014-01-13T04:00:00	25.1	ND	ND	ND	ND	ND	0.9	150.8	21.5	81.9	0	0
34710	2014-01-13T05:00:00	14.2	ND	ND	ND	ND	ND	0.5	155.2	21.7	80.1	0	0
34711	2014-01-13T06:00:00	18.6	ND	ND	ND	ND	ND	0.4	ND	21.8	79.5	0	0
34712	2014-01-13T07:00:00	27.4	ND	ND	ND	ND	ND	0.7	94	21.5	85.6	4.2	0
34713	2014-01-13T08:00:00	51.9	ND	ND	ND	ND	ND	0.5	35	21.4	86.7	90	0
34714	2014-01-13T09:00:00	56.5	ND	ND	ND	ND	ND	0.9	62.8	22.3	81.4	183.5	0
34715	2014-01-13T10:00:00	61.4	ND	ND	ND	ND	ND	0.5	50	24.4	70.9	509.5	0
34716	2014-01-13T11:00:00	38.5	ND	ND	ND	ND	ND	0.8	83.4	26.4	59.7	646.7	0
34717	2014-01-13T12:00:00	36.7	ND	ND	ND	ND	ND	1.2	89.6	28.1	53	684	0
34718	2014-01-13T13:00:00	21.5	ND	ND	ND	ND	ND	1.3	89.3	28.8	51.4	728.7	0
34719	2014-01-13T14:00:00	27.6	ND	ND	ND	ND	ND	1.2	105.7	29.2	50.4	510.4	0
34720	2014-01-13T15:00:00	16.8	ND	ND	ND	ND	ND	0.3	82.8	29.6	48.2	360.2	0
34721	2014-01-13T16:00:00	13.5	ND	ND	ND	ND	ND	3.1	183.1	29.8	45.5	567.4	0
34722	2014-01-13T17:00:00	7.3	ND	ND	ND	ND	ND	4.1	175.2	28.8	47.5	327.4	0
34723	2014-01-13T18:00:00	5	ND	ND	ND	ND	ND	3.5	180.5	27.5	51.1	102.6	0
34724	2014-01-13T19:00:00	3	ND	ND	ND	ND	ND	3.4	182.1	26.6	54	0	0
34725	2014-01-13T20:00:00	6.4	ND	ND	ND	ND	ND	3.7	174.4	25.8	58.1	0	0
34726	2014-01-13T21:00:00	4.1	ND	ND	ND	ND	ND	1.7	181.1	25.7	58.7	0	0
34727	2014-01-13T22:00:00	8.6	ND	ND	ND	ND	ND	2.4	155.7	25.1	63.9	0	0
34728	2014-01-13T23:00:00	5.4	ND	ND	ND	ND	ND	1.9	152.2	23.9	71	0	0
34729	2014-01-14T00:00:00	27.4	ND	ND	ND	ND	ND	1.1	154.4	24	69.2	0	0
34730	2014-01-14T01:00:00	14.6	ND	ND	ND	ND	ND	1	156.3	23.7	68.6	0	0
34731	2014-01-14T02:00:00	8	ND	ND	ND	ND	ND	0.9	151	23	73.5	0	0
34732	2014-01-14T03:00:00	5	ND	ND	ND	ND	ND	0.6	81.6	22.5	76.4	0	0
34733	2014-01-14T04:00:00	13.4	ND	ND	ND	ND	ND	0.5	ND	21.5	82.1	0	0
34734	2014-01-14T05:00:00	17.6	ND	ND	ND	ND	ND	0.2	ND	21.7	80.5	0	0
34735	2014-01-14T06:00:00	26.5	ND	ND	ND	ND	ND	0.4	121.9	21.8	80.2	0	0
34736	2014-01-14T07:00:00	33	ND	ND	ND	ND	ND	0.2	ND	21.8	81.2	20.3	0
34737	2014-01-14T08:00:00	55.7	ND	ND	ND	ND	ND	0.4	ND	22.9	76.8	124.1	0
34738	2014-01-14T09:00:00	65.7	ND	ND	ND	ND	ND	1.2	121.2	24.5	70.6	385.5	0
34739	2014-01-14T10:00:00	76.6	ND	ND	ND	ND	ND	1.1	107.8	25.8	64	571.8	0
34740	2014-01-14T11:00:00	48.7	ND	ND	ND	ND	ND	1	92.8	27.2	58.4	715	0
34741	2014-01-14T12:00:00	72.7	ND	ND	ND	ND	ND	1.3	107.7	28.6	53.4	700.8	0
34742	2014-01-14T13:00:00	37.7	ND	ND	ND	ND	ND	0.8	110.7	29.1	50.9	575	0
34743	2014-01-14T14:00:00	46.8	ND	ND	ND	ND	ND	0.6	76.8	29.2	50.8	332.3	0
34744	2014-01-14T15:00:00	36.8	ND	ND	ND	ND	ND	2.7	180.6	29.7	47.8	448	0
34745	2014-01-14T16:00:00	38.5	ND	ND	ND	ND	ND	4.7	173.3	29.7	46.6	523.9	0
34746	2014-01-14T17:00:00	21.2	ND	ND	ND	ND	ND	4.1	174.5	29.1	48.1	326.6	0
34747	2014-01-14T18:00:00	14.7	ND	ND	ND	ND	ND	4.1	178.7	28	50.8	157.1	0
34748	2014-01-14T19:00:00	8.7	ND	ND	ND	ND	ND	2.9	174.1	27.2	53.6	5.7	0
34749	2014-01-14T20:00:00	7.5	ND	ND	ND	ND	ND	4.1	171.3	26.6	55.5	0	0
34750	2014-01-14T21:00:00	5.7	ND	ND	ND	ND	ND	2.5	184.2	26.4	56.6	0	0
34751	2014-01-14T22:00:00	3.9	ND	ND	ND	ND	ND	2.6	179.2	25.6	61	0	0
34752	2014-01-14T23:00:00	2.5	ND	ND	ND	ND	ND	1.9	178.5	25.5	61.4	0	0
34753	2014-01-15T00:00:00	10.3	ND	ND	ND	ND	ND	0.3	65.1	24.2	69.4	0	0
34754	2014-01-15T01:00:00	7.6	ND	ND	ND	ND	ND	0.6	106.9	24	70	0	0
34755	2014-01-15T02:00:00	19.8	ND	ND	ND	ND	ND	1	88.3	23	74.1	0	0
34756	2014-01-15T03:00:00	9.9	ND	ND	ND	ND	ND	1.1	150.5	22.8	77.1	0	0
34757	2014-01-15T04:00:00	5	ND	ND	ND	ND	ND	0.6	143.4	22.5	79.7	0	0
34758	2014-01-15T05:00:00	5	ND	ND	ND	ND	ND	1	134.6	22.4	80	0	0
34759	2014-01-15T06:00:00	44.7	ND	ND	ND	ND	ND	0.5	125.1	22.4	80.8	0	0
34760	2014-01-15T07:00:00	44.5	ND	ND	ND	ND	ND	0.8	121.7	22.4	80.3	14	0
34761	2014-01-15T08:00:00	69.5	ND	ND	ND	ND	ND	0.8	150.8	23	77.1	115.8	0
34762	2014-01-15T09:00:00	58	ND	ND	ND	ND	ND	1.7	144.2	24.5	70.3	330.5	0
34763	2014-01-15T10:00:00	75.9	ND	ND	ND	ND	ND	2	140.5	26.1	64.4	533.2	0
34764	2014-01-15T11:00:00	47.2	ND	ND	ND	ND	ND	1.8	138.8	26.7	61.8	480.8	0
34765	2014-01-15T12:00:00	66.1	ND	ND	ND	ND	ND	1	132.3	27.4	59.4	443	0
34766	2014-01-15T13:00:00	33.9	ND	ND	ND	ND	ND	0.4	23.3	27.9	57.6	297.5	0
34767	2014-01-15T14:00:00	51	ND	ND	ND	ND	ND	2.5	200.8	29.1	49.1	714.1	0
34768	2014-01-15T15:00:00	27.5	ND	ND	ND	ND	ND	4.2	183.1	29.4	48.3	612.9	0
34769	2014-01-15T16:00:00	14.6	ND	ND	ND	ND	ND	3.5	176.9	29.7	46.5	497.7	0
34770	2014-01-15T17:00:00	8.9	ND	ND	ND	ND	ND	4.3	179.8	28.6	49	338.1	0
34771	2014-01-15T18:00:00	14.1	ND	ND	ND	ND	ND	5	175.3	26.9	52.1	108	0
34772	2014-01-15T19:00:00	8.8	ND	ND	ND	ND	ND	5	175.3	26.5	52.2	0	0
34773	2014-01-15T20:00:00	17.8	ND	ND	ND	ND	ND	3.3	161.5	25.6	59.5	0	0
34774	2014-01-15T21:00:00	9.8	ND	ND	ND	ND	ND	2.4	148.9	23.9	72.5	0	0
34775	2014-01-15T22:00:00	15.1	ND	ND	ND	ND	ND	1.5	147.4	22.7	80.9	0	0
34776	2014-01-15T23:00:00	8.3	ND	ND	ND	ND	ND	0.4	171.6	23.2	78.3	0	0
34777	2014-01-16T00:00:00	15	ND	ND	ND	ND	ND	0.4	184	23.1	75.4	0	0
34778	2014-01-16T01:00:00	9.2	ND	ND	ND	ND	ND	1.2	171.2	22.7	68.5	0	0
34779	2014-01-16T02:00:00	16.6	ND	ND	ND	ND	ND	0.5	97.5	22	77.7	0	0
34780	2014-01-16T03:00:00	10.3	ND	ND	ND	ND	ND	0.7	144.3	20.8	86.7	0	0
34781	2014-01-16T04:00:00	25.6	ND	ND	ND	ND	ND	0.3	69.7	20.7	86.9	0	0
34782	2014-01-16T05:00:00	18.1	ND	ND	ND	ND	ND	0.5	169.7	20.9	85.2	0	0
34783	2014-01-16T06:00:00	29.6	ND	ND	ND	ND	ND	0.2	ND	20.9	80.3	0	0
34784	2014-01-16T07:00:00	27.2	ND	ND	ND	ND	ND	0.7	154.6	21	78	23.1	0
34785	2014-01-16T08:00:00	32.8	ND	ND	ND	ND	ND	1.1	130.2	22.6	71.4	170.2	0
34786	2014-01-16T09:00:00	56.5	ND	ND	ND	ND	ND	0.7	105	22.8	76.1	205.8	0
34787	2014-01-16T10:00:00	75	ND	ND	ND	ND	ND	0.7	82.3	23.8	72.6	265.2	0
34788	2014-01-16T11:00:00	83.8	ND	ND	ND	ND	ND	1.2	57.7	24.1	70.8	179.1	0
34789	2014-01-16T12:00:00	79	ND	ND	ND	ND	ND	0.8	40.6	24.2	71.1	377.7	0
34790	2014-01-16T13:00:00	53.2	ND	ND	ND	ND	ND	1.3	54.6	26.8	61.2	799.5	0
34791	2014-01-16T14:00:00	45	ND	ND	ND	ND	ND	1.8	48.7	27.9	56	499.3	0
34792	2014-01-16T15:00:00	28.6	ND	ND	ND	ND	ND	1.1	92.5	29	52.6	577.9	0
34793	2014-01-16T16:00:00	35	ND	ND	ND	ND	ND	0.8	106.9	29.7	50.6	374.3	0
34794	2014-01-16T17:00:00	21.3	ND	ND	ND	ND	ND	1.6	62.8	28.6	53.7	137.7	0
34795	2014-01-16T18:00:00	45.6	ND	ND	ND	ND	ND	2	168.8	27.9	52.8	38.4	0
34796	2014-01-16T19:00:00	24.2	ND	ND	ND	ND	ND	4.1	171.6	26.4	56.3	0	0
34797	2014-01-16T20:00:00	13.3	ND	ND	ND	ND	ND	3.8	169.2	25.7	58.9	0	0
34798	2014-01-16T21:00:00	7.4	ND	ND	ND	ND	ND	3.9	166.9	25.3	60.3	0	0
34799	2014-01-16T22:00:00	4.9	ND	ND	ND	ND	ND	0.4	111.9	24.3	66.8	0	0
34800	2014-01-16T23:00:00	7.3	ND	ND	ND	ND	ND	0.5	ND	24.1	66.6	0	0
34801	2014-01-17T00:00:00	28.4	ND	ND	ND	ND	ND	0.3	165.6	23.7	68.8	0	0
34802	2014-01-17T01:00:00	18.2	ND	ND	ND	ND	ND	0.6	142.1	22.9	73.5	0	0
34803	2014-01-17T02:00:00	38	ND	ND	ND	ND	ND	1.6	151	22.8	78.4	0	0
34804	2014-01-17T03:00:00	27.6	ND	ND	ND	ND	ND	0.8	134.2	21.9	78.6	0	0
34805	2014-01-17T04:00:00	33.4	ND	ND	ND	ND	ND	0.6	148.2	21.9	77.9	0	0
34806	2014-01-17T05:00:00	29.3	ND	ND	ND	ND	ND	0.9	146.4	22.1	80.6	0	0
34807	2014-01-17T06:00:00	47.6	ND	ND	ND	ND	ND	0.7	130.9	21.7	81.4	0	0
34808	2014-01-17T07:00:00	38.7	ND	ND	ND	ND	ND	0.3	192.9	21.8	79.2	16	0
34809	2014-01-17T08:00:00	78	ND	ND	ND	ND	ND	0.8	171.3	22.8	72	151.7	0
34810	2014-01-17T09:00:00	43.6	ND	ND	ND	ND	ND	1.6	109.5	24.2	68.9	246.9	0
34811	2014-01-17T10:00:00	66.5	ND	ND	ND	ND	ND	1.2	87.6	23.9	71.2	292.1	0
34812	2014-01-17T11:00:00	55.4	ND	ND	ND	ND	ND	1.5	138.9	26.2	60.5	699.4	0
34813	2014-01-17T12:00:00	48.2	ND	ND	ND	ND	ND	1.6	146.6	28	53.2	646	0
34814	2014-01-17T13:00:00	29.9	ND	ND	ND	ND	ND	1.3	149.1	29.3	49.3	600.9	0
34815	2014-01-17T14:00:00	30.5	ND	ND	ND	ND	ND	2	189.9	29.4	48.4	685.7	0
34816	2014-01-17T15:00:00	16	ND	ND	ND	ND	ND	1.4	186.6	30.6	44.4	710.4	0
34817	2014-01-17T16:00:00	11.5	ND	ND	ND	ND	ND	4.1	180	30	45.1	520.9	0
34818	2014-01-17T17:00:00	6.5	ND	ND	ND	ND	ND	3.8	180.5	29	47	280.7	0
34819	2014-01-17T18:00:00	17.5	ND	ND	ND	ND	ND	3.1	182.8	27.8	49.1	73.9	0
34820	2014-01-17T19:00:00	10.7	ND	ND	ND	ND	ND	3	179.1	26.7	53.5	0	0
34821	2014-01-17T20:00:00	8.1	ND	ND	ND	ND	ND	3.2	177.2	26	55.6	0	0
34822	2014-01-17T21:00:00	6.2	ND	ND	ND	ND	ND	2.1	183.3	25.6	57.2	0	0
34823	2014-01-17T22:00:00	22.4	ND	ND	ND	ND	ND	0.7	146.5	24.9	61.6	0	0
34824	2014-01-17T23:00:00	12.5	ND	ND	ND	ND	ND	1.1	164.6	24.6	62	0	0
34825	2014-01-18T00:00:00	27.8	ND	ND	ND	ND	ND	0.4	50	23.3	69.8	0	0
34826	2014-01-18T01:00:00	19.1	ND	ND	ND	ND	ND	0.8	141.8	22.8	73	0	0
34827	2014-01-18T02:00:00	29.5	ND	ND	ND	ND	ND	0.4	161.5	22.3	74.9	0	0
34828	2014-01-18T03:00:00	16.1	ND	ND	ND	ND	ND	1.1	157.5	22.2	69.7	0	0
34829	2014-01-18T04:00:00	11.3	ND	ND	ND	ND	ND	0.4	151.5	22.2	70.5	0	0
34830	2014-01-18T05:00:00	11.3	ND	ND	ND	ND	ND	1	142.8	21.8	76.8	0	0
34831	2014-01-18T06:00:00	48	ND	ND	ND	ND	ND	0.5	122.3	21.6	78.5	0	0
34832	2014-01-18T07:00:00	51.2	ND	ND	ND	ND	ND	0.8	114.6	21.4	79.7	13.3	0
34833	2014-01-18T08:00:00	61.5	ND	ND	ND	ND	ND	0.7	150	22.6	73.7	155.6	0
34834	2014-01-18T09:00:00	34.8	ND	ND	ND	ND	ND	1.1	147.8	24.5	65.5	340.4	0
34835	2014-01-18T10:00:00	28.4	ND	ND	ND	ND	ND	0.7	107.4	26.2	58.5	545.3	0
34836	2014-01-18T11:00:00	26.2	ND	ND	ND	ND	ND	1.1	85.1	27.5	54.7	574.4	0
34837	2014-01-18T12:00:00	51.1	ND	ND	ND	ND	ND	1.2	94.9	28	55.2	378.9	0
34838	2014-01-18T13:00:00	38.2	ND	ND	ND	ND	ND	1	108.2	29.5	50.3	835.8	0
34839	2014-01-18T14:00:00	60.9	ND	ND	ND	ND	ND	1.9	113	30.3	48.3	680.4	0
34840	2014-01-18T15:00:00	43.6	ND	ND	ND	ND	ND	1.8	129.2	30.6	47.7	547.1	0
34841	2014-01-18T16:00:00	53.3	ND	ND	ND	ND	ND	0.7	180.8	30	49.1	212.9	0
34842	2014-01-18T17:00:00	29.8	ND	ND	ND	ND	ND	3.5	176.3	29.7	48.5	310.7	0
34843	2014-01-18T18:00:00	33.6	ND	ND	ND	ND	ND	4.1	170.8	28.1	52.7	84.6	0
34844	2014-01-18T19:00:00	32	ND	ND	ND	ND	ND	3.7	172.6	26.8	56	0	0
34845	2014-01-18T20:00:00	19.7	ND	ND	ND	ND	ND	3.8	173.4	26.2	57.5	0	0
34846	2014-01-18T21:00:00	9.8	ND	ND	ND	ND	ND	1.8	166.4	26	58.4	0	0
34847	2014-01-18T22:00:00	4.9	ND	ND	ND	ND	ND	0.5	ND	24.4	69.1	0	0
34848	2014-01-18T23:00:00	13	ND	ND	ND	ND	ND	2.5	160.8	25	63.4	0	0
34849	2014-01-19T00:00:00	16.5	ND	ND	ND	ND	ND	1.9	166.7	25.3	60.4	0	0
34850	2014-01-19T01:00:00	10	ND	ND	ND	ND	ND	2.1	154.3	24.9	65.5	0	0
34851	2014-01-19T02:00:00	ND	ND	ND	ND	ND	ND	1.5	148.6	24	71.6	0	0
34852	2014-01-19T03:00:00	ND	ND	ND	ND	ND	ND	0.7	126.1	23.6	72.7	0	0
34853	2014-01-19T04:00:00	ND	ND	ND	ND	ND	ND	0.8	58.4	22.9	76.2	0	0
34854	2014-01-19T05:00:00	ND	ND	ND	ND	ND	ND	0.8	141.9	22.9	76.3	0	0
34855	2014-01-19T06:00:00	ND	ND	ND	ND	ND	ND	0.3	ND	23.1	76.2	0	0
34856	2014-01-19T07:00:00	ND	ND	ND	ND	ND	ND	0.6	60.7	22.8	77.7	0	0
34857	2014-01-19T08:00:00	ND	ND	ND	ND	ND	ND	1.2	147.7	21.8	87.3	47.9	4.83
34858	2014-01-19T09:00:00	134.6	ND	ND	ND	ND	ND	0.5	143.5	23.1	84.5	346.3	0.25
34859	2014-01-19T10:00:00	84.2	ND	ND	ND	ND	ND	0.6	164.1	25.3	72.3	426.5	0
34860	2014-01-19T11:00:00	44.6	ND	ND	ND	ND	ND	1	88.8	26.6	65.3	386.3	0
34861	2014-01-19T12:00:00	46.2	ND	ND	ND	ND	ND	1.2	117.9	26.9	63.4	391	0
34862	2014-01-19T13:00:00	34.1	ND	ND	ND	ND	ND	1	173	27.5	59.5	385.9	0
34863	2014-01-19T14:00:00	17.7	ND	ND	ND	ND	ND	0.6	150.3	29.1	51.5	748	0
34864	2014-01-19T15:00:00	10.3	ND	ND	ND	ND	ND	1.6	134.1	29.9	50.2	474.6	0
34865	2014-01-19T16:00:00	19.6	ND	ND	ND	ND	ND	3.8	172.9	27.6	54.5	117.6	0
34866	2014-01-19T17:00:00	11.9	ND	ND	ND	ND	ND	4.2	173.8	27	54.3	188.4	0
34867	2014-01-19T18:00:00	7.4	ND	ND	ND	ND	ND	3.6	178.2	26.4	55.4	69.9	0
34868	2014-01-19T19:00:00	4.6	ND	ND	ND	ND	ND	4.3	173	25.7	57.3	0	0
34869	2014-01-19T20:00:00	3.2	ND	ND	ND	ND	ND	3.5	181.6	25.5	58.1	0	0
34870	2014-01-19T21:00:00	1.6	ND	ND	ND	ND	ND	1.8	203.5	25.2	59.3	0	0
34871	2014-01-19T22:00:00	0.8	ND	ND	ND	ND	ND	1.4	168.1	25.2	59.5	0	0
34872	2014-01-19T23:00:00	2.3	ND	ND	ND	ND	ND	2.3	176.6	24.8	61.3	0	0
34873	2014-01-20T00:00:00	1.9	ND	ND	ND	ND	ND	0.4	222.9	24	68.5	0	0
34874	2014-01-20T01:00:00	9.5	ND	ND	ND	ND	ND	0.2	56.5	23.2	74	0	0
34875	2014-01-20T02:00:00	22.2	ND	ND	ND	ND	ND	1.2	154.9	23.1	75.5	0	0
34876	2014-01-20T03:00:00	11.6	ND	ND	ND	ND	ND	0.6	154.7	22.4	81.6	0	0.25
34877	2014-01-20T04:00:00	6.8	ND	ND	ND	ND	ND	0.4	173.7	22.5	79.6	0	0
34878	2014-01-20T05:00:00	4.7	ND	ND	ND	ND	ND	0.2	297.6	22.2	82.6	0	0
34879	2014-01-20T06:00:00	14.2	ND	ND	ND	ND	ND	0.4	168.5	22.2	83.4	0	0
34880	2014-01-20T07:00:00	22	ND	ND	ND	ND	ND	0.4	169.4	22.4	82.2	8	0
34881	2014-01-20T08:00:00	41.8	ND	ND	ND	ND	ND	0.1	17.8	22.8	80.8	66.1	0
34882	2014-01-20T09:00:00	25.6	ND	ND	ND	ND	ND	0.2	169.5	24.1	74.6	225.1	0
34883	2014-01-20T10:00:00	50.2	ND	ND	ND	ND	ND	1	246.2	24.3	73.7	233.4	0
34884	2014-01-20T11:00:00	35.6	ND	ND	ND	ND	ND	0.4	118.6	26.4	63.3	496.3	0
34885	2014-01-20T12:00:00	35.5	ND	ND	ND	ND	ND	1.6	146.7	28.1	54	599.1	0
34886	2014-01-20T13:00:00	18.9	ND	ND	ND	ND	ND	1.2	127.8	29.7	48.3	847.6	0
34887	2014-01-20T14:00:00	22.8	ND	ND	ND	ND	ND	1	129.7	30.4	46	675	0
34888	2014-01-20T15:00:00	12.7	ND	ND	ND	ND	ND	0.5	195.1	30.4	46.4	380.1	0
34889	2014-01-20T16:00:00	17.1	ND	ND	ND	ND	ND	4.2	181.4	29.7	48.2	521.8	0
34890	2014-01-20T17:00:00	15.9	ND	ND	ND	ND	ND	4.8	177.3	28.5	51.2	312.1	0
34891	2014-01-20T18:00:00	8.1	ND	ND	ND	ND	ND	5	176.5	27	56.2	78.7	0
34892	2014-01-20T19:00:00	5.1	ND	ND	ND	ND	ND	5.8	172.1	25.7	58.7	0	0
34893	2014-01-20T20:00:00	3	ND	ND	ND	ND	ND	4	172.1	25.6	57.6	0	0
34894	2014-01-20T21:00:00	3.6	ND	ND	ND	ND	ND	3.3	172.2	25.7	57.1	0	0
34895	2014-01-20T22:00:00	2.3	ND	ND	ND	ND	ND	2.7	156.5	25.3	61.3	0	0
34896	2014-01-20T23:00:00	3.3	ND	ND	ND	ND	ND	1.9	152.1	24.9	64.7	0	0
34897	2014-01-21T00:00:00	2.5	ND	ND	ND	ND	ND	1.8	155.9	24.5	64.9	0	0
34898	2014-01-21T01:00:00	3.9	ND	ND	ND	ND	ND	0.2	139.6	24.1	70.1	0	0
34899	2014-01-21T02:00:00	15.7	ND	ND	ND	ND	ND	0.2	326.2	23.6	74.5	0	0
34900	2014-01-21T03:00:00	21.8	ND	ND	ND	ND	ND	0.8	41.4	23.2	76.4	0	0
34901	2014-01-21T04:00:00	35.2	ND	ND	ND	ND	ND	0.8	120.5	22.8	79	0	0
34902	2014-01-21T05:00:00	20.4	ND	ND	ND	ND	ND	0.8	126.4	22.5	81.2	0	0
34903	2014-01-21T06:00:00	25.3	ND	ND	ND	ND	ND	0.6	149	22.6	80.5	0	0
34904	2014-01-21T07:00:00	40.1	ND	ND	ND	ND	ND	0.7	146.2	22.8	80.2	0	0
34905	2014-01-21T08:00:00	35.7	ND	ND	ND	ND	ND	1.3	147	23.1	78.6	22.7	0
34906	2014-01-21T09:00:00	33.4	ND	ND	ND	ND	ND	1.6	148.9	23.1	77.2	31.8	0
34907	2014-01-21T10:00:00	29.3	ND	ND	ND	ND	ND	1.2	151.3	22.4	79.2	105.7	0
34908	2014-01-21T11:00:00	15.6	ND	ND	ND	ND	ND	1.1	135.4	23.5	73.6	284.2	0
34909	2014-01-21T12:00:00	24.8	ND	ND	ND	ND	ND	1	99.2	25.1	64.8	329.8	0
34910	2014-01-21T13:00:00	17.6	ND	ND	ND	ND	ND	1.3	82.4	25.9	62.9	356.2	0
34911	2014-01-21T14:00:00	10.8	ND	ND	ND	ND	ND	0.3	138.6	26.8	59.6	398.1	0
34912	2014-01-21T15:00:00	6.7	ND	ND	ND	ND	ND	0.4	207.2	27	56.9	180.6	0
34913	2014-01-21T16:00:00	31	ND	ND	ND	ND	ND	0.7	73.6	26.6	59.1	130.5	0
34914	2014-01-21T17:00:00	22.2	ND	ND	ND	ND	ND	2.3	182.5	26.4	56.2	161.4	0
34915	2014-01-21T18:00:00	24.5	ND	ND	ND	ND	ND	1.2	163.7	26.2	57.2	61	0
34916	2014-01-21T19:00:00	17.1	ND	ND	ND	ND	ND	0.7	156.3	25.7	61.6	9.2	0
34917	2014-01-21T20:00:00	18	ND	ND	ND	ND	ND	1.9	176.4	24.5	63.4	0	0
34918	2014-01-21T21:00:00	11.1	ND	ND	ND	ND	ND	2	174.8	24.3	63.2	0	0
34919	2014-01-21T22:00:00	6.7	ND	ND	ND	ND	ND	1.8	184.7	24.2	63.7	0	0
34920	2014-01-21T23:00:00	8.9	ND	ND	ND	ND	ND	0.4	71.7	22.4	74.4	0	0
34921	2014-01-22T00:00:00	18	ND	ND	ND	ND	ND	0.1	107.2	22.6	72.8	0	0
34922	2014-01-22T01:00:00	22.7	ND	ND	ND	ND	ND	1	130.2	22	77	0	0
34923	2014-01-22T02:00:00	41.7	ND	ND	ND	ND	ND	0.7	102.5	21.5	80.4	0	0
34924	2014-01-22T03:00:00	22	ND	ND	ND	ND	ND	0.6	141.9	21.3	80.6	0	0
34925	2014-01-22T04:00:00	26.8	ND	ND	ND	ND	ND	1.4	152.1	21.1	84.1	0	0
34926	2014-01-22T05:00:00	24.9	ND	ND	ND	ND	ND	1.4	152	21.2	85.1	0	0
34927	2014-01-22T06:00:00	23.5	ND	ND	ND	ND	ND	0.3	111.8	21.5	83.6	0	0
34928	2014-01-22T07:00:00	33.7	ND	ND	ND	ND	ND	0.8	63.3	21.1	85.6	14.7	0
34929	2014-01-22T08:00:00	43.3	ND	ND	ND	ND	ND	0.8	148.2	22.2	81.1	153.5	0
34930	2014-01-22T09:00:00	38.4	ND	ND	ND	ND	ND	0.7	131.4	24.3	69.9	353	0
34931	2014-01-22T10:00:00	35.2	ND	ND	ND	ND	ND	1.4	134.3	26.1	61.6	567.9	0
34932	2014-01-22T11:00:00	20.2	ND	ND	ND	ND	ND	1.9	136.4	27.3	57.3	615.5	0
34933	2014-01-22T12:00:00	24.4	ND	ND	ND	ND	ND	1.5	113.4	28.1	53.2	508.7	0
34934	2014-01-22T13:00:00	23	ND	ND	ND	ND	ND	0.7	161.4	28.7	51.4	574.5	0
34935	2014-01-22T14:00:00	34.1	ND	ND	ND	ND	ND	1.6	210.9	28.8	48.2	284.4	0
34936	2014-01-22T15:00:00	18.8	ND	ND	ND	ND	ND	2.9	174.3	30.1	43.3	627.2	0
34937	2014-01-22T16:00:00	11.4	ND	ND	ND	ND	ND	3.5	177.9	29.3	45.4	288	0
34938	2014-01-22T17:00:00	7.2	ND	ND	ND	ND	ND	3.2	176.7	28.8	47.8	248.6	0
34939	2014-01-22T18:00:00	ND	ND	ND	ND	ND	ND	3.4	179.8	27.3	52	71.1	0
34940	2014-01-22T19:00:00	ND	ND	ND	ND	ND	ND	3.8	174.5	26.3	55.1	0	0
34941	2014-01-22T20:00:00	ND	ND	ND	ND	ND	ND	3.3	184.2	25.8	57.1	0	0
34942	2014-01-22T21:00:00	113	ND	ND	ND	ND	ND	2.7	184.9	25.6	57.9	0	0
34943	2014-01-22T22:00:00	68.9	ND	ND	ND	ND	ND	3.2	180.8	25.3	59.2	0	0
34944	2014-01-22T23:00:00	35.7	ND	ND	ND	ND	ND	0.9	113.2	24.6	64	0	0
34945	2014-01-23T00:00:00	26.2	ND	ND	ND	ND	ND	1	167	24.3	64	0	0
34946	2014-01-23T01:00:00	13.9	ND	ND	ND	ND	ND	1.2	149.2	23.8	68	0	0
34947	2014-01-23T02:00:00	22.9	ND	ND	ND	ND	ND	1.1	137.6	22.6	78.8	0	0
34948	2014-01-23T03:00:00	23.3	ND	ND	ND	ND	ND	1.5	140.4	22.1	81	0	0
34949	2014-01-23T04:00:00	28.3	ND	ND	ND	ND	ND	0.4	140.3	21.9	80.9	0	0
34950	2014-01-23T05:00:00	16.1	ND	ND	ND	ND	ND	1.2	158.2	21.9	77.9	0	0
34951	2014-01-23T06:00:00	17.7	ND	ND	ND	ND	ND	1.1	166.3	21.8	75.5	0	0
34952	2014-01-23T07:00:00	10.6	ND	ND	ND	ND	ND	0.2	141.2	22.3	76.7	6.1	0
34953	2014-01-23T08:00:00	35	ND	ND	ND	ND	ND	0.5	114.8	22.8	74.9	89.1	0
34954	2014-01-23T09:00:00	49.2	ND	ND	ND	ND	ND	0.8	58.7	23.5	72.8	148.7	0
34955	2014-01-23T10:00:00	68.4	ND	ND	ND	ND	ND	0.6	130.1	24.8	66.7	352	0
34956	2014-01-23T11:00:00	40.8	ND	ND	ND	ND	ND	1.2	142.6	26.6	59.5	721.9	0
34957	2014-01-23T12:00:00	39.8	ND	ND	ND	ND	ND	1.5	119	28.7	50.9	648.8	0
34958	2014-01-23T13:00:00	27.5	ND	ND	ND	ND	ND	1.3	104.1	30.1	46.4	883.6	0
34959	2014-01-23T14:00:00	42.5	ND	ND	ND	ND	ND	1.2	94.2	30.8	44.2	803.6	0
34960	2014-01-23T15:00:00	27.1	ND	ND	ND	ND	ND	0.8	100.7	31	44.2	414.2	0
34961	2014-01-23T16:00:00	37.4	ND	ND	ND	ND	ND	4.4	177.7	30	46.9	566.7	0
34962	2014-01-23T17:00:00	33	ND	ND	ND	ND	ND	4.9	179.2	28.6	50.5	366.7	0
34963	2014-01-23T18:00:00	40.9	ND	ND	ND	ND	ND	4.6	177.6	27.4	53.4	111.4	0
34964	2014-01-23T19:00:00	22.6	ND	ND	ND	ND	ND	4.4	178.5	26.6	54.6	8.9	0
34965	2014-01-23T20:00:00	23.2	ND	ND	ND	ND	ND	2.7	186.8	26.2	56	0	0
34966	2014-01-23T21:00:00	13.2	ND	ND	ND	ND	ND	1.9	190.7	26	56.3	0	0
34967	2014-01-23T22:00:00	14.5	ND	ND	ND	ND	ND	1.9	162.1	25.3	59.9	0	0
34968	2014-01-23T23:00:00	9.1	ND	ND	ND	ND	ND	0.6	190.5	24.7	63.5	0	0
34969	2014-01-24T00:00:00	18.2	ND	ND	ND	ND	ND	0.7	53	23.3	71.1	0	0
34970	2014-01-24T01:00:00	10.3	ND	ND	ND	ND	ND	0.1	98.2	23	73.5	0	0
34971	2014-01-24T02:00:00	38.8	ND	ND	ND	ND	ND	0.7	93.7	22.7	76.1	0	0
34972	2014-01-24T03:00:00	21.2	ND	ND	ND	ND	ND	0.2	32.9	22.6	75.7	0	0
34973	2014-01-24T04:00:00	30.8	ND	ND	ND	ND	ND	0.2	139.1	22.8	74.2	0	0
34974	2014-01-24T05:00:00	17.1	ND	ND	ND	ND	ND	0.8	139.4	22.4	77.5	0	0
34975	2014-01-24T06:00:00	27.9	ND	ND	ND	ND	ND	0.9	157.9	22.2	78.7	0	0
34976	2014-01-24T07:00:00	24.4	ND	ND	ND	ND	ND	0.8	153.8	22.3	77.1	9.8	0
34977	2014-01-24T08:00:00	49.5	ND	ND	ND	ND	ND	1.1	150	22.7	75.7	74.7	0
34978	2014-01-24T09:00:00	48.9	ND	ND	ND	ND	ND	1.1	143.2	24.1	69.1	301.5	0
34979	2014-01-24T10:00:00	45.3	ND	ND	ND	ND	ND	1.5	126.4	25.8	64.1	568.1	0
34980	2014-01-24T11:00:00	29.8	ND	ND	ND	ND	ND	1.3	134.5	27.3	57.5	651.9	0
34981	2014-01-24T12:00:00	32	ND	ND	ND	ND	ND	1.1	85.7	27.9	55.5	461.8	0
34982	2014-01-24T13:00:00	37.5	ND	ND	ND	ND	ND	1.4	81.8	29.4	50.3	662.2	0
34983	2014-01-24T14:00:00	22.9	ND	ND	ND	ND	ND	0.1	277.4	29.8	46.9	455.6	0
34984	2014-01-24T15:00:00	11.5	ND	ND	ND	ND	ND	2.9	183	31.2	40.6	779	0
34985	2014-01-24T16:00:00	5.7	ND	ND	ND	ND	ND	4.5	177.9	30.3	43.1	578.1	0
34986	2014-01-24T17:00:00	8.8	ND	ND	ND	ND	ND	4.8	182	28.9	46.6	312.9	0
34987	2014-01-24T18:00:00	14.3	ND	ND	ND	ND	ND	4.9	177.1	27.7	49.2	123.3	0
34988	2014-01-24T19:00:00	8.2	ND	ND	ND	ND	ND	5.1	171.1	26.5	53	0	0
34989	2014-01-24T20:00:00	5.4	ND	ND	ND	ND	ND	4.7	171.7	26.2	54	0	0
34990	2014-01-24T21:00:00	4.4	ND	ND	ND	ND	ND	3.8	169.8	25.9	55	0	0
34991	2014-01-24T22:00:00	10.6	ND	ND	ND	ND	ND	3	170	25.4	57.7	0	0
34992	2014-01-24T23:00:00	6.9	ND	ND	ND	ND	ND	1.8	161	25.1	59.1	0	0
34993	2014-01-25T00:00:00	4	ND	ND	ND	ND	ND	1.5	156.5	24.9	61	0	0
34994	2014-01-25T01:00:00	3.3	ND	ND	ND	ND	ND	1.8	152.3	24.2	63.4	0	0
34995	2014-01-25T02:00:00	19	ND	ND	ND	ND	ND	1.7	152.5	23.5	68.6	0	0
34996	2014-01-25T03:00:00	11.2	ND	ND	ND	ND	ND	0.9	165.5	23.3	65.6	0	0
34997	2014-01-25T04:00:00	24	ND	ND	ND	ND	ND	0.9	48.2	22.6	73.1	0	0
34998	2014-01-25T05:00:00	33.6	ND	ND	ND	ND	ND	0.9	130.2	22.5	75.5	0	0
34999	2014-01-25T06:00:00	43.4	ND	ND	ND	ND	ND	1.1	150	22.4	73.3	0	0
35000	2014-01-25T07:00:00	23.8	ND	ND	ND	ND	ND	0.4	162	22.7	71.8	10.9	0
35001	2014-01-25T08:00:00	26.5	ND	ND	ND	ND	ND	0.8	128.6	23.5	69.3	125.8	0
35002	2014-01-25T09:00:00	23.4	ND	ND	ND	ND	ND	0.9	137.7	24.6	64.4	209.7	0
35003	2014-01-25T10:00:00	46.1	ND	ND	ND	ND	ND	1.2	133.6	26.2	58.2	549.3	0
35004	2014-01-25T11:00:00	24.3	ND	ND	ND	ND	ND	1.4	125.3	27.7	53.5	638.5	0
35005	2014-01-25T12:00:00	34.9	ND	ND	ND	ND	ND	0.7	85.6	27.4	56.2	241.2	0
35006	2014-01-25T13:00:00	23.9	ND	ND	ND	ND	ND	1.8	148.7	28.3	53.1	777.1	0
35007	2014-01-25T14:00:00	35.4	ND	ND	ND	ND	ND	2.4	160.7	29.7	46.8	551.3	0
35008	2014-01-25T15:00:00	28.5	ND	ND	ND	ND	ND	4.4	182.3	28.5	46.6	560.3	0
35009	2014-01-25T16:00:00	18.7	ND	ND	ND	ND	ND	3	173.6	29.3	42.5	483.1	0
35010	2014-01-25T17:00:00	9.3	ND	ND	ND	ND	ND	2.4	168.2	28.3	46.1	133.1	0
35011	2014-01-25T18:00:00	5.3	ND	ND	ND	ND	ND	2.8	175.4	26.8	52.7	45.6	0
35012	2014-01-25T19:00:00	8.1	ND	ND	ND	ND	ND	3.1	171.8	25.1	61.4	0	0
35013	2014-01-25T20:00:00	6.8	ND	ND	ND	ND	ND	2.3	168.8	24.3	65.6	0	0
35014	2014-01-25T21:00:00	10.6	ND	ND	ND	ND	ND	1.1	159.6	23.5	70.4	0	0.51
35015	2014-01-25T22:00:00	7	ND	ND	ND	ND	ND	2.2	160.2	22.9	71.6	0	0.51
35016	2014-01-25T23:00:00	4.3	ND	ND	ND	ND	ND	1.2	159.2	22.5	73.8	0	0.51
35017	2014-01-26T00:00:00	4.2	ND	ND	ND	ND	ND	0.6	59.2	21.3	86.1	0	0
35018	2014-01-26T01:00:00	3.5	ND	ND	ND	ND	ND	0.4	79.9	21.4	84.8	0	0.25
35019	2014-01-26T02:00:00	2.5	ND	ND	ND	ND	ND	0.8	141.9	21.6	82.9	0	0
35020	2014-01-26T03:00:00	3	ND	ND	ND	ND	ND	1.7	149	21.4	83.7	0	0
35021	2014-01-26T04:00:00	2.7	ND	ND	ND	ND	ND	1.6	150.3	21.5	80.8	0	0
35022	2014-01-26T05:00:00	3.4	ND	ND	ND	ND	ND	1.5	143.3	21	82.7	0	0
35023	2014-01-26T06:00:00	13.4	ND	ND	ND	ND	ND	1.4	151.1	20.7	84.3	0	0
35024	2014-01-26T07:00:00	8.9	ND	ND	ND	ND	ND	1.3	157	21.2	80.6	4.5	0
35025	2014-01-26T08:00:00	4.4	ND	ND	ND	ND	ND	2.1	153.7	20.9	82.2	55	0
35026	2014-01-26T09:00:00	2.2	ND	ND	ND	ND	ND	1.3	137.1	21.2	82.5	144	0
35027	2014-01-26T10:00:00	1.1	ND	ND	ND	ND	ND	1.3	147.7	23.1	72	423.3	0
35028	2014-01-26T11:00:00	0.6	ND	ND	ND	ND	ND	1.3	147.8	25.2	60.8	705.5	0
35029	2014-01-26T12:00:00	0.3	ND	ND	ND	ND	ND	1.2	140.8	26.4	55.5	432	0
35030	2014-01-26T13:00:00	1.8	ND	ND	ND	ND	ND	0.2	55.8	26.9	53	409.6	0
35031	2014-01-26T14:00:00	1.8	ND	ND	ND	ND	ND	0.1	348.8	27.1	51.9	384.8	0
35032	2014-01-26T15:00:00	0.9	ND	ND	ND	ND	ND	0.3	255.1	27.2	52.5	350	0
35033	2014-01-26T16:00:00	0.4	ND	ND	ND	ND	ND	3	179.9	26.4	52.9	205.9	0
35034	2014-01-26T17:00:00	1.6	ND	ND	ND	ND	ND	2.1	175.6	26.5	50.9	157.5	0
35035	2014-01-26T18:00:00	1.5	ND	ND	ND	ND	ND	1.5	183.4	26	51.7	75.9	0
35036	2014-01-26T19:00:00	2.1	ND	ND	ND	ND	ND	0.8	173.6	25.2	54.6	0	0
35037	2014-01-26T20:00:00	2.2	ND	ND	ND	ND	ND	2.8	167.7	24.2	58.2	0	0
35038	2014-01-26T21:00:00	2.1	ND	ND	ND	ND	ND	2.8	167.2	23.5	61	0	0
35039	2014-01-26T22:00:00	1.7	ND	ND	ND	ND	ND	2.7	164.9	23.1	60.4	0	0
35040	2014-01-26T23:00:00	3	ND	ND	ND	ND	ND	0.8	193.7	22.6	63.9	0	0
35041	2014-01-27T00:00:00	3.6	ND	ND	ND	ND	ND	1.6	167.6	22.1	61.8	0	0
35042	2014-01-27T01:00:00	3.1	ND	ND	ND	ND	ND	1.7	165.6	21.8	62.6	0	0
35043	2014-01-27T02:00:00	3.7	ND	ND	ND	ND	ND	1.6	161.8	21.6	64.1	0	0
35044	2014-01-27T03:00:00	2.5	ND	ND	ND	ND	ND	1.1	165.1	21.5	65.4	0	0
35045	2014-01-27T04:00:00	2.6	ND	ND	ND	ND	ND	1.1	170.2	21	67.9	0	0
35046	2014-01-27T05:00:00	2.8	ND	ND	ND	ND	ND	1.3	162.1	20.6	67.8	0	0
35047	2014-01-27T06:00:00	2.7	ND	ND	ND	ND	ND	1.2	175.2	20.6	69.3	0	0
35048	2014-01-27T07:00:00	3	ND	ND	ND	ND	ND	1.3	161.6	20.6	67.8	15.5	0
35049	2014-01-27T08:00:00	3.4	ND	ND	ND	ND	ND	1.3	162.8	21.4	66	68.3	0
35050	2014-01-27T09:00:00	4.9	ND	ND	ND	ND	ND	0.6	100.6	22.7	66.4	263.5	0
35051	2014-01-27T10:00:00	30.4	ND	ND	ND	ND	ND	0.9	114.4	25.2	60	572.7	0
35052	2014-01-27T11:00:00	28.3	ND	ND	ND	ND	ND	0.9	85.6	26.8	53.9	748.7	0
35053	2014-01-27T12:00:00	30.9	ND	ND	ND	ND	ND	1.2	94.2	28.2	48.8	666.5	0
35054	2014-01-27T13:00:00	19.9	ND	ND	ND	ND	ND	1.1	75.2	29.6	44.1	818.4	0
35055	2014-01-27T14:00:00	17.4	ND	ND	ND	ND	ND	1.1	70	30.1	43.2	523.7	0
35056	2014-01-27T15:00:00	10.3	ND	ND	ND	ND	ND	0.6	40.5	30	43.4	252.1	0
35057	2014-01-27T16:00:00	29.2	ND	ND	ND	ND	ND	2.1	191.5	30.5	42.4	530.7	0
35058	2014-01-27T17:00:00	17.8	ND	ND	ND	ND	ND	3.9	183.9	29.7	43.8	362.3	0
35059	2014-01-27T18:00:00	20.2	ND	ND	ND	ND	ND	3.9	177	27.7	50.8	101.4	0
35060	2014-01-27T19:00:00	14.7	ND	ND	ND	ND	ND	4.7	175.6	26	55	0	0
35061	2014-01-27T20:00:00	14.3	ND	ND	ND	ND	ND	4.2	171.5	25.5	56.7	0	0
35062	2014-01-27T21:00:00	9	ND	ND	ND	ND	ND	1.9	193.6	25.3	57.6	0	0
35063	2014-01-27T22:00:00	5.6	ND	ND	ND	ND	ND	2.5	172	24.9	59.6	0	0
35064	2014-01-27T23:00:00	12.1	ND	ND	ND	ND	ND	0.7	141.3	23.8	65.5	0	0
35065	2014-01-28T00:00:00	30.8	ND	ND	ND	ND	ND	0.8	157.4	23.8	66.9	0	0
35066	2014-01-28T01:00:00	28.7	ND	ND	ND	ND	ND	1.6	151.8	23.3	69.8	0	0
35067	2014-01-28T02:00:00	29.9	ND	ND	ND	ND	ND	1.2	146.3	22.7	72.8	0	0
35068	2014-01-28T03:00:00	22.7	ND	ND	ND	ND	ND	0.9	146.8	22.4	73.6	0	0
35069	2014-01-28T04:00:00	35.9	ND	ND	ND	ND	ND	1	162.5	22.3	70.4	0	0
35070	2014-01-28T05:00:00	18.5	ND	ND	ND	ND	ND	1	149.5	22	70.5	0	0
35071	2014-01-28T06:00:00	30.9	ND	ND	ND	ND	ND	0.5	88.5	21.2	80	0	0
35072	2014-01-28T07:00:00	37.9	ND	ND	ND	ND	ND	0.3	325.4	21.2	79.1	15.4	0
35073	2014-01-28T08:00:00	82.8	ND	ND	ND	ND	ND	0.5	53.8	22.1	74.7	106.2	0
35074	2014-01-28T09:00:00	92.7	ND	ND	ND	ND	ND	1.1	135.5	24.4	64.9	349.3	0
35075	2014-01-28T10:00:00	78.2	ND	ND	ND	ND	ND	1.5	136.3	25.8	61.2	554.6	0
35076	2014-01-28T11:00:00	47.7	ND	ND	ND	ND	ND	1.5	139.8	27.4	55.5	706.4	0
35077	2014-01-28T12:00:00	37.4	ND	ND	ND	ND	ND	1.3	117.1	28.7	50.6	613.8	0
35078	2014-01-28T13:00:00	19.2	ND	ND	ND	ND	ND	0.5	76.5	29.3	48.4	536	0
35079	2014-01-28T14:00:00	25	ND	ND	ND	ND	ND	0.8	181	30.5	44	757	0
35080	2014-01-28T15:00:00	12.5	ND	ND	ND	ND	ND	3.4	182.6	30.8	41.7	654	0
35081	2014-01-28T16:00:00	6.2	ND	ND	ND	ND	ND	4.4	181.8	29.8	45.2	491.5	0
35082	2014-01-28T17:00:00	5.9	ND	ND	ND	ND	ND	5.3	177.7	28.2	50	273.2	0
35083	2014-01-28T18:00:00	20.4	ND	ND	ND	ND	ND	5.5	173.7	26.6	55.5	52.5	0
35084	2014-01-28T19:00:00	23.6	ND	ND	ND	ND	ND	5.4	171.1	25.8	58	0	0
35085	2014-01-28T20:00:00	13.1	ND	ND	ND	ND	ND	4.1	169.7	25.6	59.1	0	0
35086	2014-01-28T21:00:00	8.3	ND	ND	ND	ND	ND	3.8	173.4	24.9	61.3	0	0
35087	2014-01-28T22:00:00	5.7	ND	ND	ND	ND	ND	2.2	171.6	25.3	58.3	0	0
35088	2014-01-28T23:00:00	3.9	ND	ND	ND	ND	ND	1.4	148.3	24.7	63.6	0	0
35089	2014-01-29T00:00:00	14.4	ND	ND	ND	ND	ND	1	108.4	23.9	68.8	0	0
35090	2014-01-29T01:00:00	16.2	ND	ND	ND	ND	ND	0.7	79.9	23.2	72.3	0	0
35091	2014-01-29T02:00:00	27.5	ND	ND	ND	ND	ND	0.7	108.2	22.6	77.4	0	0
35092	2014-01-29T03:00:00	15.9	ND	ND	ND	ND	ND	0.7	49.4	22.5	78.1	0	0
35093	2014-01-29T04:00:00	25.3	ND	ND	ND	ND	ND	0.9	64.8	21.9	82.2	0	0
35094	2014-01-29T05:00:00	14.3	ND	ND	ND	ND	ND	0.1	68.1	22.1	80.9	0	0
35095	2014-01-29T06:00:00	22.1	ND	ND	ND	ND	ND	0.9	137.4	22	80.6	0	0
35096	2014-01-29T07:00:00	15.2	ND	ND	ND	ND	ND	1	144	21.7	83.6	11.1	0
35097	2014-01-29T08:00:00	32.2	ND	ND	ND	ND	ND	0.2	177.4	22.5	79.7	57	0
35098	2014-01-29T09:00:00	18.1	ND	ND	ND	ND	ND	0.8	118.5	23.2	76.4	72.6	0
35099	2014-01-29T10:00:00	61.8	ND	ND	ND	ND	ND	1	110.5	24.1	74.6	423.5	0
35100	2014-01-29T11:00:00	31.7	ND	ND	ND	ND	ND	1.6	114.3	26.3	61.6	713.3	0
35101	2014-01-29T12:00:00	49.1	ND	ND	ND	ND	ND	0.8	164	27.4	55.6	439.5	0
35102	2014-01-29T13:00:00	50.4	ND	ND	ND	ND	ND	0.4	165.5	27.3	54.9	301.1	0
35103	2014-01-29T14:00:00	37.2	ND	ND	ND	ND	ND	1.1	57.1	28.7	50.5	720.5	0
35104	2014-01-29T15:00:00	21.6	ND	ND	ND	ND	ND	1.9	167.9	29.2	47.2	527.8	0
35105	2014-01-29T16:00:00	19.4	ND	ND	ND	ND	ND	3.6	177.8	29.3	45.9	544.7	0
35106	2014-01-29T17:00:00	11.2	ND	ND	ND	ND	ND	3.8	182.3	28	49	247.7	0
35107	2014-01-29T18:00:00	12.3	ND	ND	ND	ND	ND	4.8	175.6	26.4	54.2	83.3	0
35108	2014-01-29T19:00:00	8.3	ND	ND	ND	ND	ND	5.1	174.8	25.3	56.3	0	0
35109	2014-01-29T20:00:00	6.2	ND	ND	ND	ND	ND	4.7	177.2	25	58.1	0	0
35110	2014-01-29T21:00:00	5.1	ND	ND	ND	ND	ND	2.1	188.4	25.2	57.6	0	0
35111	2014-01-29T22:00:00	4	ND	ND	ND	ND	ND	2.2	155.5	23.8	69.2	0	0
35112	2014-01-29T23:00:00	3.8	ND	ND	ND	ND	ND	2	160.1	23.8	68.7	0	0
35113	2014-01-30T00:00:00	4.1	ND	ND	ND	ND	ND	2.1	157.9	23.1	72.9	0	0
35114	2014-01-30T01:00:00	3.1	ND	ND	ND	ND	ND	1.8	153.2	22.7	75.2	0	0
35115	2014-01-30T02:00:00	2.5	ND	ND	ND	ND	ND	1.4	147.8	21.2	87.5	0	2.29
35116	2014-01-30T03:00:00	2.3	ND	ND	ND	ND	ND	0.9	152.8	20.6	90.8	0	1.02
35117	2014-01-30T04:00:00	2.9	ND	ND	ND	ND	ND	0.8	151.5	21	88.8	0	0
35118	2014-01-30T05:00:00	3.5	ND	ND	ND	ND	ND	0.8	148.5	21.1	89.3	0	0.25
35119	2014-01-30T06:00:00	2.5	ND	ND	ND	ND	ND	1.2	145.6	20.9	88.1	0	0
35120	2014-01-30T07:00:00	12.3	ND	ND	ND	ND	ND	0.6	121.9	21	86.2	0	0
35121	2014-01-30T08:00:00	7	ND	ND	ND	ND	ND	1.1	145	21	87.6	59.6	0
35122	2014-01-30T09:00:00	5.4	ND	ND	ND	ND	ND	0.5	105.9	22.1	82.8	142.3	0
35123	2014-01-30T10:00:00	26.5	ND	ND	ND	ND	ND	1.4	134.2	23.7	74	462.2	0
35124	2014-01-30T11:00:00	14.9	ND	ND	ND	ND	ND	1.6	139	25.4	65.2	631.4	0
35125	2014-01-30T12:00:00	9.1	ND	ND	ND	ND	ND	0.4	97.6	26.3	60.9	266.5	0
35126	2014-01-30T13:00:00	11.4	ND	ND	ND	ND	ND	0.6	105.3	26.9	57.2	347.1	0
35127	2014-01-30T14:00:00	32.7	ND	ND	ND	ND	ND	1.1	100.2	28.1	51.9	453.1	0
35128	2014-01-30T15:00:00	18.1	ND	ND	ND	ND	ND	3.5	182.1	26.9	52.2	265	0
35129	2014-01-30T16:00:00	20.9	ND	ND	ND	ND	ND	2.9	191.9	26.4	52.2	191.9	0
35130	2014-01-30T17:00:00	12.5	ND	ND	ND	ND	ND	2.6	180.5	26.4	51.3	169.6	0
35131	2014-01-30T18:00:00	6.9	ND	ND	ND	ND	ND	3.7	169.9	25.6	53.1	49.4	0
35132	2014-01-30T19:00:00	5.2	ND	ND	ND	ND	ND	2.4	152.4	24.3	63.8	0	0
35133	2014-01-30T20:00:00	25.6	ND	ND	ND	ND	ND	2.2	148.3	22.6	76.1	0	0
35134	2014-01-30T21:00:00	13.6	ND	ND	ND	ND	ND	1.2	150.7	22.4	77	0	0
35135	2014-01-30T22:00:00	12.9	ND	ND	ND	ND	ND	0.1	93.5	22.5	77.6	0	0
35136	2014-01-30T23:00:00	10.8	ND	ND	ND	ND	ND	0.2	24.1	22.6	77.1	0	0
35137	2014-01-31T00:00:00	33.2	ND	ND	ND	ND	ND	0.6	53	22.1	80.1	0	0
35138	2014-01-31T01:00:00	27.6	ND	ND	ND	ND	ND	0.5	127.2	21.7	81.4	0	0
35139	2014-01-31T02:00:00	33.1	ND	ND	ND	ND	ND	0.3	158	21.6	80.4	0	0
35140	2014-01-31T03:00:00	18.1	ND	ND	ND	ND	ND	0.6	71	21.7	77.1	0	0
35141	2014-01-31T04:00:00	25.7	ND	ND	ND	ND	ND	0.6	27.3	20.8	86.5	0	0
35142	2014-01-31T05:00:00	24.2	ND	ND	ND	ND	ND	0.3	38.7	20.8	85.7	0	0
35143	2014-01-31T06:00:00	41.9	ND	ND	ND	ND	ND	0.5	179.6	20.7	81.9	0	0
35144	2014-01-31T07:00:00	22.2	ND	ND	ND	ND	ND	0.4	226.3	20.8	81.2	8.7	0
35145	2014-01-31T08:00:00	50.8	ND	ND	ND	ND	ND	0.1	44.7	21.2	81	50.7	0
35146	2014-01-31T09:00:00	49.2	ND	ND	ND	ND	ND	0.6	69.2	22.2	77.1	136.7	0
35147	2014-01-31T10:00:00	92.9	ND	ND	ND	ND	ND	1	65.6	23.2	73.4	238.5	0
35148	2014-01-31T11:00:00	83.8	ND	ND	ND	ND	ND	1.4	76.7	23.9	69.6	272.8	0
35149	2014-01-31T12:00:00	75.5	ND	ND	ND	ND	ND	0.9	100	25.4	62.8	581.7	0
35150	2014-01-31T13:00:00	38.8	ND	ND	ND	ND	ND	0.8	108.8	27	54.7	496.8	0
35151	2014-01-31T14:00:00	30.3	ND	ND	ND	ND	ND	0.7	124	27.6	51.4	533.6	0
35152	2014-01-31T15:00:00	27.5	ND	ND	ND	ND	ND	0.7	225.9	27.8	50.4	231.4	0
35153	2014-01-31T16:00:00	36.3	ND	ND	ND	ND	ND	2.8	179.6	27.9	49.3	392.3	0
35154	2014-01-31T17:00:00	18.7	ND	ND	ND	ND	ND	2.9	176.4	27.7	49.9	280.7	0
35155	2014-01-31T18:00:00	24.6	ND	ND	ND	ND	ND	3.4	172.2	26.5	53.6	68	0
35156	2014-01-31T19:00:00	21	ND	ND	ND	ND	ND	2.4	180.6	25.9	55.1	0	0
35157	2014-01-31T20:00:00	26.4	ND	ND	ND	ND	ND	3	175.2	25.6	55.9	0	0
35158	2014-01-31T21:00:00	14.7	ND	ND	ND	ND	ND	2.4	186.7	25.4	56.8	0	0
35159	2014-01-31T22:00:00	9.5	ND	ND	ND	ND	ND	0.9	168.2	25.1	57.5	0	0
35160	2014-01-31T23:00:00	14.7	ND	ND	ND	ND	ND	1.7	154	24.6	60.4	0	0
35161	2014-02-01T00:00:00	9.4	ND	ND	ND	ND	ND	1.9	157	24.4	61.4	0	0
35162	2014-02-01T01:00:00	9.5	ND	ND	ND	ND	ND	1.1	146.8	23.7	69.1	0	0
35163	2014-02-01T02:00:00	18.9	ND	ND	ND	ND	ND	0.8	114.6	22.8	73.9	0	0
35164	2014-02-01T03:00:00	21.5	ND	ND	ND	ND	ND	1	134.4	22.4	75	0	0
35165	2014-02-01T04:00:00	33.8	ND	ND	ND	ND	ND	0.9	145	22.1	75.1	0	0
35166	2014-02-01T05:00:00	27.3	ND	ND	ND	ND	ND	0.8	143	22.1	76	0	0
35167	2014-02-01T06:00:00	46.4	ND	ND	ND	ND	ND	0.9	151	22.2	74.9	0	0
35168	2014-02-01T07:00:00	25.3	ND	ND	ND	ND	ND	0.9	152.3	22.2	74.6	13.8	0
35169	2014-02-01T08:00:00	41.3	ND	ND	ND	ND	ND	1.1	132.8	22.5	76	127.8	0
35170	2014-02-01T09:00:00	48.5	ND	ND	ND	ND	ND	1.3	140.8	23.7	69.9	230	0
35171	2014-02-01T10:00:00	40.2	ND	ND	ND	ND	ND	1.1	159.4	24.8	64.9	490.8	0
35172	2014-02-01T11:00:00	23.6	ND	ND	ND	ND	ND	1.5	140.3	27.1	55.8	722.6	0
35173	2014-02-01T12:00:00	32.2	ND	ND	ND	ND	ND	1.6	132.2	28.5	50.8	643.6	0
35174	2014-02-01T13:00:00	20.3	ND	ND	ND	ND	ND	1.5	116.7	29.7	47	748.6	0
35175	2014-02-01T14:00:00	51.8	ND	ND	ND	ND	ND	0.6	183.8	29.8	46.3	313.9	0
35176	2014-02-01T15:00:00	29	ND	ND	ND	ND	ND	3.6	179.3	30.4	43.4	799.5	0
35177	2014-02-01T16:00:00	17.5	ND	ND	ND	ND	ND	5	178.1	28.9	47.9	491	0
35178	2014-02-01T17:00:00	10.8	ND	ND	ND	ND	ND	5.6	176.8	27.8	50.1	296.7	0
35179	2014-02-01T18:00:00	10.6	ND	ND	ND	ND	ND	4.5	179.2	26.9	52.1	46.6	0
35180	2014-02-01T19:00:00	6.2	ND	ND	ND	ND	ND	4.6	174.3	26.3	54.6	0	0
35181	2014-02-01T20:00:00	5.1	ND	ND	ND	ND	ND	2.6	191.8	26.4	54.2	0	0
35182	2014-02-01T21:00:00	3.9	ND	ND	ND	ND	ND	3.3	175.5	26	55.5	0	0
35183	2014-02-01T22:00:00	3.1	ND	ND	ND	ND	ND	3.2	159.9	25.5	58.1	0	0
35184	2014-02-01T23:00:00	2.9	ND	ND	ND	ND	ND	1.2	180.8	25	60.8	0	0
35185	2014-02-02T00:00:00	11.9	ND	ND	ND	ND	ND	2.7	168.2	24.6	62.1	0	0
35186	2014-02-02T01:00:00	7.8	ND	ND	ND	ND	ND	0.7	171.6	24	66	0	0
35187	2014-02-02T02:00:00	21	ND	ND	ND	ND	ND	0.5	94.1	23.5	70.8	0	0
35188	2014-02-02T03:00:00	18	ND	ND	ND	ND	ND	1.2	129.7	23.2	72.6	0	0
35189	2014-02-02T04:00:00	30.1	ND	ND	ND	ND	ND	1.4	162.3	23	72.1	0	0
35190	2014-02-02T05:00:00	16	ND	ND	ND	ND	ND	1.5	151.9	21.5	83.4	0	8.64
35191	2014-02-02T06:00:00	17.9	ND	ND	ND	ND	ND	1.9	155.6	20.9	88.2	0	0.25
35192	2014-02-02T07:00:00	10	ND	ND	ND	ND	ND	0.3	124.4	21.8	83.4	10.1	0
35193	2014-02-02T08:00:00	17	ND	ND	ND	ND	ND	0.6	112.3	21.8	86.2	44.8	9.91
35194	2014-02-02T09:00:00	25	ND	ND	ND	ND	ND	0.5	150.6	20.8	93.5	71.9	11.68
35195	2014-02-02T10:00:00	22	ND	ND	ND	ND	ND	0.9	159.7	22.9	79.9	392.7	0
35196	2014-02-02T11:00:00	12.8	ND	ND	ND	ND	ND	0.8	156.4	26.1	63.4	710.5	0
35197	2014-02-02T12:00:00	8.1	ND	ND	ND	ND	ND	1	141.5	28.1	55.5	642.4	0
35198	2014-02-02T13:00:00	5.6	ND	ND	ND	ND	ND	1.6	172.5	28.2	51.6	435.9	0
35199	2014-02-02T14:00:00	4.7	ND	ND	ND	ND	ND	3.2	187.6	27.8	51.7	311.8	0
35200	2014-02-02T15:00:00	3.6	ND	ND	ND	ND	ND	3.4	177.5	28.4	48.8	551.5	0
35201	2014-02-02T16:00:00	3.7	ND	ND	ND	ND	ND	4.3	178.5	27.2	52.4	317.9	0
35202	2014-02-02T17:00:00	2.8	ND	ND	ND	ND	ND	4.4	179.1	26.2	55	208.3	0
35203	2014-02-02T18:00:00	2.7	ND	ND	ND	ND	ND	4.5	172.7	25.7	55.6	87.6	0
35204	2014-02-02T19:00:00	2	ND	ND	ND	ND	ND	3.1	146.9	24.2	66	0	0
35205	2014-02-02T20:00:00	3	ND	ND	ND	ND	ND	1.7	144.5	22.8	73.3	0	0
35206	2014-02-02T21:00:00	12.3	ND	ND	ND	ND	ND	0.9	141.7	22.3	76.7	0	0
35207	2014-02-02T22:00:00	32.7	ND	ND	ND	ND	ND	0.2	163.8	22.8	74.3	0	0
35208	2014-02-02T23:00:00	18.2	ND	ND	ND	ND	ND	0.3	118	23	73.5	0	0
35209	2014-02-03T00:00:00	24.1	ND	ND	ND	ND	ND	0.3	75	22.8	74.5	0	0
35210	2014-02-03T01:00:00	37.6	ND	ND	ND	ND	ND	0.5	140.1	21.8	80	0	0
35211	2014-02-03T02:00:00	34.9	ND	ND	ND	ND	ND	0.9	121	21.3	82.9	0	0
35212	2014-02-03T03:00:00	37.9	ND	ND	ND	ND	ND	0.7	147.8	20.7	85.3	0	0
35213	2014-02-03T04:00:00	30.2	ND	ND	ND	ND	ND	0.3	66.2	20.8	84.7	0	0
35214	2014-02-03T05:00:00	16.1	ND	ND	ND	ND	ND	0.1	158.3	20.9	84	0	0
35215	2014-02-03T06:00:00	27.5	ND	ND	ND	ND	ND	0.8	174.7	20.9	79.8	0	0
35216	2014-02-03T07:00:00	31.2	ND	ND	ND	ND	ND	0.2	97.5	21.1	76.5	17.7	0
35217	2014-02-03T08:00:00	48.7	ND	ND	ND	ND	ND	1	57.9	20.7	85.2	93.9	0
35218	2014-02-03T09:00:00	59.9	ND	ND	ND	ND	ND	0.4	67.8	21.9	78.6	178.5	0
35219	2014-02-03T10:00:00	65.6	ND	ND	ND	ND	ND	0.6	109.2	24.1	68.8	489.9	0
35220	2014-02-03T11:00:00	34.4	ND	ND	ND	ND	ND	1.3	127.1	26.7	57.8	649.5	0
35221	2014-02-03T12:00:00	40.8	ND	ND	ND	ND	ND	1.8	131.4	27.7	53.6	608	0
35222	2014-02-03T13:00:00	35.2	ND	ND	ND	ND	ND	1.4	144.6	28.3	51.8	513.7	0
35223	2014-02-03T14:00:00	29	ND	ND	ND	ND	ND	0.7	145.9	29.1	49.2	523.6	0
35224	2014-02-03T15:00:00	25.2	ND	ND	ND	ND	ND	1.4	190	29.9	46	618.6	0
35225	2014-02-03T16:00:00	19.1	ND	ND	ND	ND	ND	4.2	180	29.6	44.9	534.7	0
35226	2014-02-03T17:00:00	11.3	ND	ND	ND	ND	ND	4.2	178.4	28.4	48.2	284	0
35227	2014-02-03T18:00:00	15.5	ND	ND	ND	ND	ND	3.8	175.7	27.2	51.8	96.2	0
35228	2014-02-03T19:00:00	30.1	ND	ND	ND	ND	ND	4.4	172.4	26	55.9	0	0
35229	2014-02-03T20:00:00	16.5	ND	ND	ND	ND	ND	4.1	174.8	25.7	56.8	0	0
35230	2014-02-03T21:00:00	9.7	ND	ND	ND	ND	ND	1.8	190.1	25.7	56	0	0
35231	2014-02-03T22:00:00	6.6	ND	ND	ND	ND	ND	1	165.5	24.7	61.8	0	0
35232	2014-02-03T23:00:00	11.5	ND	ND	ND	ND	ND	0.2	242.3	23.7	67.8	0	0
35233	2014-02-04T00:00:00	25.3	ND	ND	ND	ND	ND	0.6	150.9	24.1	64.1	0	0
35234	2014-02-04T01:00:00	16.4	ND	ND	ND	ND	ND	0.8	54.5	22.1	75.3	0	0
35235	2014-02-04T02:00:00	33.5	ND	ND	ND	ND	ND	0.4	141.6	22.1	76.5	0	0
35236	2014-02-04T03:00:00	18.9	ND	ND	ND	ND	ND	0.2	51.7	22.7	73.1	0	0
35237	2014-02-04T04:00:00	29.9	ND	ND	ND	ND	ND	0.5	144.5	22.3	76.7	0	0
35238	2014-02-04T05:00:00	24.8	ND	ND	ND	ND	ND	0.7	128.7	22	79.2	0	0
35239	2014-02-04T06:00:00	43.4	ND	ND	ND	ND	ND	0.7	135.7	21.8	80.3	0	0
35240	2014-02-04T07:00:00	51.3	ND	ND	ND	ND	ND	0.4	92.6	21.9	78.9	11.6	0
35241	2014-02-04T08:00:00	58.1	ND	ND	ND	ND	ND	0.2	46.3	22.7	75.4	106.8	0
35242	2014-02-04T09:00:00	75.2	ND	ND	ND	ND	ND	0.4	56.5	23.8	69.3	263.8	0
35243	2014-02-04T10:00:00	77.1	ND	ND	ND	ND	ND	1.5	145.9	25.5	63.9	516.5	0
35244	2014-02-04T11:00:00	53.9	ND	ND	ND	ND	ND	2	140.6	27	57.6	754.8	0
35245	2014-02-04T12:00:00	50.4	ND	ND	ND	ND	ND	1.4	144.2	27.4	56.4	406.4	0
35246	2014-02-04T13:00:00	37.1	ND	ND	ND	ND	ND	0.9	140.9	28.2	53.1	431.8	0
35247	2014-02-04T14:00:00	42.8	ND	ND	ND	ND	ND	0.9	187.9	29.1	50.1	498.4	0
35248	2014-02-04T15:00:00	23.2	ND	ND	ND	ND	ND	3.7	184	30.1	44.1	770.3	0
35249	2014-02-04T16:00:00	13	ND	ND	ND	ND	ND	4.9	188.1	28.4	48.9	470.8	0
35250	2014-02-04T17:00:00	7.4	ND	ND	ND	ND	ND	4.7	184.4	27.6	51.2	216.5	0
35251	2014-02-04T18:00:00	5.8	ND	ND	ND	ND	ND	3.3	174.8	26.9	54	49.8	0
35252	2014-02-04T19:00:00	3.8	ND	ND	ND	ND	ND	2.8	164.4	25.8	58.5	0	0
35253	2014-02-04T20:00:00	7.2	ND	ND	ND	ND	ND	1.7	187.1	25.6	58	0	0
35254	2014-02-04T21:00:00	5.7	ND	ND	ND	ND	ND	1.8	155.8	25	61.2	0	0
35255	2014-02-04T22:00:00	14.9	ND	ND	ND	ND	ND	1.1	177.4	24.5	64.3	0	0
35256	2014-02-04T23:00:00	34.8	ND	ND	ND	ND	ND	0.4	95.3	23.8	69.1	0	0
35257	2014-02-05T00:00:00	51.9	ND	ND	ND	ND	ND	1	75.1	22.9	75.8	0	0
35258	2014-02-05T01:00:00	26.8	ND	ND	ND	ND	ND	0.9	139.2	22.8	74.4	0	0
35259	2014-02-05T02:00:00	34.6	ND	ND	ND	ND	ND	1.5	157.9	22.9	71.5	0	0
35260	2014-02-05T03:00:00	17.3	ND	ND	ND	ND	ND	1.3	162.5	23.5	66.7	0	0
35261	2014-02-05T04:00:00	8.7	ND	ND	ND	ND	ND	1.6	134.9	21.9	81.7	0	0
35262	2014-02-05T05:00:00	7.9	ND	ND	ND	ND	ND	1.4	143.2	21.2	84.8	0	0
35263	2014-02-05T06:00:00	15.9	ND	ND	ND	ND	ND	1.5	151.2	21.2	82.9	0	0
35264	2014-02-05T07:00:00	8.8	ND	ND	ND	ND	ND	0.8	143.1	21.1	82.8	9.8	0
35265	2014-02-05T08:00:00	19.8	ND	ND	ND	ND	ND	1.3	143	21.8	80.1	120.9	0
35266	2014-02-05T09:00:00	11.3	ND	ND	ND	ND	ND	1.9	148.4	22.5	75.9	144.9	0
35267	2014-02-05T10:00:00	28	ND	ND	ND	ND	ND	1.8	141	23.4	70.7	292.6	0
35268	2014-02-05T11:00:00	15.1	ND	ND	ND	ND	ND	1.4	132.8	24.5	66.5	398.7	0
35269	2014-02-05T12:00:00	14.4	ND	ND	ND	ND	ND	1.8	143.7	25.7	61.8	487.5	0
35270	2014-02-05T13:00:00	7.8	ND	ND	ND	ND	ND	2.5	151.1	26.7	57.4	636.3	0
35271	2014-02-05T14:00:00	5.3	ND	ND	ND	ND	ND	2	149	28.4	49.5	863.8	0
35272	2014-02-05T15:00:00	4.1	ND	ND	ND	ND	ND	1.7	134.7	28.8	48.4	474.9	0
35273	2014-02-05T16:00:00	2.1	ND	ND	ND	ND	ND	1.1	62	25.9	62.1	71.2	0
35274	2014-02-05T17:00:00	13.5	ND	ND	ND	ND	ND	3.2	37.9	23.3	72.6	118.2	0
35275	2014-02-05T18:00:00	25.7	ND	ND	ND	ND	ND	1.9	25.8	22.1	77.1	12.1	0
35276	2014-02-05T19:00:00	14.9	ND	ND	ND	ND	ND	1.3	34.3	21.5	80.2	0	0
35277	2014-02-05T20:00:00	37.9	ND	ND	ND	ND	ND	1	139.4	21.4	80.6	0	0
35278	2014-02-05T21:00:00	32.7	ND	ND	ND	ND	ND	1.5	125.5	20.8	82.7	0	0
35279	2014-02-05T22:00:00	29	ND	ND	ND	ND	ND	0.8	155.6	21.2	79.8	0	0
35280	2014-02-05T23:00:00	21.3	ND	ND	ND	ND	ND	0.2	173.6	21.4	80	0	0
35281	2014-02-06T00:00:00	12.4	ND	ND	ND	ND	ND	0.5	134.6	21.3	80.3	0	0
35282	2014-02-06T01:00:00	17	ND	ND	ND	ND	ND	1	110.3	20.3	84.8	0	0
35283	2014-02-06T02:00:00	43.9	ND	ND	ND	ND	ND	0.5	114.4	19.4	87.9	0	0
35284	2014-02-06T03:00:00	28	ND	ND	ND	ND	ND	0.7	90.9	19.6	87	0	0
35285	2014-02-06T04:00:00	29.7	ND	ND	ND	ND	ND	0.5	50	19.5	87.6	0	0
35286	2014-02-06T05:00:00	31	ND	ND	ND	ND	ND	0.5	44.5	19.7	86.6	0	0
35287	2014-02-06T06:00:00	42.2	ND	ND	ND	ND	ND	1	75.1	19.6	87	0	0
35288	2014-02-06T07:00:00	49.2	ND	ND	ND	ND	ND	0.9	90.9	19.3	87.5	7	0
35289	2014-02-06T08:00:00	58.1	ND	ND	ND	ND	ND	1	71.8	19.4	86.2	64.3	0
35290	2014-02-06T09:00:00	53.3	ND	ND	ND	ND	ND	1	66.7	19.5	84.8	97.3	0
35291	2014-02-06T10:00:00	46.6	ND	ND	ND	ND	ND	0.4	144.6	21.7	75.1	405.1	0
35292	2014-02-06T11:00:00	46.4	ND	ND	ND	ND	ND	0.8	115.1	23.7	66.3	464.9	0
35293	2014-02-06T12:00:00	57.5	ND	ND	ND	ND	ND	1.7	67.4	24.1	66	387.4	0
35294	2014-02-06T13:00:00	41.2	ND	ND	ND	ND	ND	1.3	79.3	25	61.8	592.1	0
35295	2014-02-06T14:00:00	49	ND	ND	ND	ND	ND	1.1	72.7	25.8	58	316.6	0
35296	2014-02-06T15:00:00	26.5	ND	ND	ND	ND	ND	0.7	96	25.9	57.3	332.9	0
35297	2014-02-06T16:00:00	33.3	ND	ND	ND	ND	ND	0.3	217.2	26.1	56.8	170.7	0
35298	2014-02-06T17:00:00	26.8	ND	ND	ND	ND	ND	0.5	179.7	26.2	56.5	120.7	0
35299	2014-02-06T18:00:00	53.1	ND	ND	ND	ND	ND	0.5	77.8	26.3	57	56.5	0
35300	2014-02-06T19:00:00	65.3	ND	ND	ND	ND	ND	1	145.2	25.5	60	0	0
35301	2014-02-06T20:00:00	85.4	ND	ND	ND	ND	ND	1.1	159.7	24.7	63.3	0	0
35302	2014-02-06T21:00:00	50.5	ND	ND	ND	ND	ND	1.5	171.4	23.9	62.9	0	0
35303	2014-02-06T22:00:00	34.9	ND	ND	ND	ND	ND	2.3	172	23.1	64.5	0	0
35304	2014-02-06T23:00:00	19.4	ND	ND	ND	ND	ND	0.8	177.6	22.7	68.1	0	0
35305	2014-02-07T00:00:00	40.1	ND	ND	ND	ND	ND	0.4	100.8	21.4	77.7	0	0
35306	2014-02-07T01:00:00	44.2	ND	ND	ND	ND	ND	1.1	148	21.5	76.8	0	0
35307	2014-02-07T02:00:00	53.7	ND	ND	ND	ND	ND	0.7	155.9	21.2	74.7	0	0
35308	2014-02-07T03:00:00	28.5	ND	ND	ND	ND	ND	0.9	154.1	20.9	73.6	0	0
35309	2014-02-07T04:00:00	22.1	ND	ND	ND	ND	ND	0.4	144.4	20.2	82.6	0	0
35310	2014-02-07T05:00:00	21.3	ND	ND	ND	ND	ND	0.3	160.5	20.3	74.6	0	0
35311	2014-02-07T06:00:00	21.6	ND	ND	ND	ND	ND	0.1	22	20.4	78.3	0	0
35312	2014-02-07T07:00:00	37.8	ND	ND	ND	ND	ND	0.4	156.2	20.1	78.7	14.2	0
35313	2014-02-07T08:00:00	42.2	ND	ND	ND	ND	ND	0.6	161.9	21.1	72.1	101.4	0
35314	2014-02-07T09:00:00	27.2	ND	ND	ND	ND	ND	0.3	73.7	22.6	70.2	270.4	0
35315	2014-02-07T10:00:00	79.8	ND	ND	ND	ND	ND	1	126.3	24.3	64.1	423.3	0
35316	2014-02-07T11:00:00	70.7	ND	ND	ND	ND	ND	1	131.2	26.2	57.7	615.7	0
35317	2014-02-07T12:00:00	72.1	ND	ND	ND	ND	ND	1.1	147.4	27.4	51.7	633.3	0
35318	2014-02-07T13:00:00	36.8	ND	ND	ND	ND	ND	1.3	128	28.9	46.9	602.5	0
35319	2014-02-07T14:00:00	39.6	ND	ND	ND	ND	ND	1.2	98.8	29.5	45.2	533.5	0
35320	2014-02-07T15:00:00	47.6	ND	ND	ND	ND	ND	0.9	102.7	30.2	43	620.7	0
35321	2014-02-07T16:00:00	63.5	ND	ND	ND	ND	ND	0.6	119.9	30.3	42.9	281.8	0
35322	2014-02-07T17:00:00	39.2	ND	ND	ND	ND	ND	3	179	29.2	47.2	211.9	0
35323	2014-02-07T18:00:00	46.9	ND	ND	ND	ND	ND	4.6	173	27.4	52.1	104	0
35324	2014-02-07T19:00:00	39.8	ND	ND	ND	ND	ND	4.1	171.3	26.2	54.5	5.8	0
35325	2014-02-07T20:00:00	26.2	ND	ND	ND	ND	ND	3.9	171.6	25.9	54.6	0	0
35326	2014-02-07T21:00:00	15.6	ND	ND	ND	ND	ND	2.9	179	25.3	57.6	0	0
35327	2014-02-07T22:00:00	9.4	ND	ND	ND	ND	ND	1.5	196.6	24.9	58.8	0	0
35328	2014-02-07T23:00:00	5.9	ND	ND	ND	ND	ND	1.9	159.2	24.5	59.6	0	0
35329	2014-02-08T00:00:00	20.2	ND	ND	ND	ND	ND	0.4	182.3	23.6	66.5	0	0
35330	2014-02-08T01:00:00	38.3	ND	ND	ND	ND	ND	0.8	132.3	22.3	75.5	0	0
35331	2014-02-08T02:00:00	52.9	ND	ND	ND	ND	ND	0.4	137.7	22.5	73.3	0	0
35332	2014-02-08T03:00:00	35.3	ND	ND	ND	ND	ND	0.7	134.1	21.9	75.7	0	0
35333	2014-02-08T04:00:00	48.9	ND	ND	ND	ND	ND	0.4	137.8	21.7	76.5	0	0
35334	2014-02-08T05:00:00	25.3	ND	ND	ND	ND	ND	0.5	113.7	21.6	77	0	0
35335	2014-02-08T06:00:00	44.4	ND	ND	ND	ND	ND	0.6	132	20.9	80.3	0	0
35336	2014-02-08T07:00:00	48.5	ND	ND	ND	ND	ND	0.2	140.3	21	80.1	11.8	0
35337	2014-02-08T08:00:00	62.2	ND	ND	ND	ND	ND	1	152.3	21.6	77.4	126	0
35338	2014-02-08T09:00:00	34.2	ND	ND	ND	ND	ND	0.9	134.9	23.6	67.1	260.7	0
35339	2014-02-08T10:00:00	62.4	ND	ND	ND	ND	ND	0.9	128.9	25.2	61.5	509.6	0
35340	2014-02-08T11:00:00	42.5	ND	ND	ND	ND	ND	1.1	111.1	27	54.5	695.7	0
35341	2014-02-08T12:00:00	57.3	ND	ND	ND	ND	ND	1.6	102.5	28.4	50.7	730.6	0
35342	2014-02-08T13:00:00	45.2	ND	ND	ND	ND	ND	0.9	83.4	28.9	49	527	0
35343	2014-02-08T14:00:00	41.4	ND	ND	ND	ND	ND	0.9	203.4	29.2	47	496.2	0
35344	2014-02-08T15:00:00	25.1	ND	ND	ND	ND	ND	0.9	166.3	30.3	42.9	318.8	0
35345	2014-02-08T16:00:00	28.9	ND	ND	ND	ND	ND	4	180.1	29.5	44.4	376.4	0
35346	2014-02-08T17:00:00	15.8	ND	ND	ND	ND	ND	5.4	178	27.5	50.8	205.7	0
35347	2014-02-08T18:00:00	13.9	ND	ND	ND	ND	ND	5.2	181.1	26.5	50.5	61.2	0
35348	2014-02-08T19:00:00	7.5	ND	ND	ND	ND	ND	4.1	174.5	26.4	48.3	0	0
35349	2014-02-08T20:00:00	5.1	ND	ND	ND	ND	ND	0.6	156.6	26	52.6	0	0
35350	2014-02-08T21:00:00	4.3	ND	ND	ND	ND	ND	3.2	172.8	25.3	54.5	0	0
35351	2014-02-08T22:00:00	3.9	ND	ND	ND	ND	ND	2.4	176.8	25.1	55.9	0	0
35352	2014-02-08T23:00:00	10.3	ND	ND	ND	ND	ND	0.9	127	24.5	62.5	0	0
35353	2014-02-09T00:00:00	18.5	ND	ND	ND	ND	ND	1.3	136.8	24.2	65.9	0	0
35354	2014-02-09T01:00:00	26.7	ND	ND	ND	ND	ND	1.4	147.6	23.4	74.4	0	0
35355	2014-02-09T02:00:00	46.3	ND	ND	ND	ND	ND	1.4	143.3	23	77.9	0	0
35356	2014-02-09T03:00:00	33.3	ND	ND	ND	ND	ND	1.5	146	22.7	79.5	0	0
35357	2014-02-09T04:00:00	44.3	ND	ND	ND	ND	ND	0.8	142	22.3	81.1	0	0
35358	2014-02-09T05:00:00	37.7	ND	ND	ND	ND	ND	0.8	138.6	22.1	80.7	0	0
35359	2014-02-09T06:00:00	19.8	ND	ND	ND	ND	ND	0.5	138.5	21.8	83.3	0	0
35360	2014-02-09T07:00:00	12	ND	ND	ND	ND	ND	0.7	67.4	21.9	83.2	5.5	0
35361	2014-02-09T08:00:00	44.8	ND	ND	ND	ND	ND	0.2	68.5	22.5	80.6	122.8	0
35362	2014-02-09T09:00:00	32.1	ND	ND	ND	ND	ND	0.4	168.5	23.6	74.2	203.2	0
35363	2014-02-09T10:00:00	36.2	ND	ND	ND	ND	ND	1	145.4	24.8	68.9	327.2	0
35364	2014-02-09T11:00:00	19.7	ND	ND	ND	ND	ND	1.2	133.6	27.3	57.1	726.5	0
35365	2014-02-09T12:00:00	10.7	ND	ND	ND	ND	ND	1.1	131.7	27.7	55.2	392.2	0
35366	2014-02-09T13:00:00	10.9	ND	ND	ND	ND	ND	0.4	113.1	28.5	51.7	432.9	0
35367	2014-02-09T14:00:00	9.9	ND	ND	ND	ND	ND	0.4	168.4	29.4	47.3	667.6	0
35368	2014-02-09T15:00:00	6.6	ND	ND	ND	ND	ND	0	102.9	30.8	42.5	487.4	0
35369	2014-02-09T16:00:00	6.6	ND	ND	ND	ND	ND	3.9	175	29.7	45.4	379.6	0
35370	2014-02-09T17:00:00	3.9	ND	ND	ND	ND	ND	4.8	180.2	28.8	47.2	355.7	0
35371	2014-02-09T18:00:00	9.7	ND	ND	ND	ND	ND	4.8	177.7	27	52	49.4	0
35372	2014-02-09T19:00:00	7	ND	ND	ND	ND	ND	5.2	174.5	26.2	54.2	0	0
35373	2014-02-09T20:00:00	4.6	ND	ND	ND	ND	ND	2.4	184.7	26.2	53.2	0	0
35374	2014-02-09T21:00:00	4.5	ND	ND	ND	ND	ND	1.6	187.9	26.3	51.2	0	0
35375	2014-02-09T22:00:00	3.6	ND	ND	ND	ND	ND	2.2	154.7	25.3	61.8	0	0
35376	2014-02-09T23:00:00	3.6	ND	ND	ND	ND	ND	2.4	151.7	24.7	64	0	0
35377	2014-02-10T00:00:00	8.8	ND	ND	ND	ND	ND	1.4	151.8	24.4	66.9	0	0
35378	2014-02-10T01:00:00	8.9	ND	ND	ND	ND	ND	1.2	141.3	23.6	71.2	0	0
35379	2014-02-10T02:00:00	14	ND	ND	ND	ND	ND	0.5	146.3	22.9	74.9	0	0
35380	2014-02-10T03:00:00	10.7	ND	ND	ND	ND	ND	1.1	153.8	22.6	76.1	0	0
35381	2014-02-10T04:00:00	6.2	ND	ND	ND	ND	ND	1	182	22.4	70.3	0	0
35382	2014-02-10T05:00:00	4.5	ND	ND	ND	ND	ND	0.2	63.3	22.7	70.8	0	0
35383	2014-02-10T06:00:00	10.6	ND	ND	ND	ND	ND	0.8	57	22.4	73.9	0	0
35384	2014-02-10T07:00:00	19.3	ND	ND	ND	ND	ND	1	134.3	22	75.9	9.4	0
35385	2014-02-10T08:00:00	47	ND	ND	ND	ND	ND	1.1	156.8	22.6	74.2	105.7	0
35386	2014-02-10T09:00:00	31	ND	ND	ND	ND	ND	0.7	130.5	24.9	64.8	369.1	0
35387	2014-02-10T10:00:00	46.7	ND	ND	ND	ND	ND	0.9	124.7	26.9	56.9	559.9	0
35388	2014-02-10T11:00:00	24	ND	ND	ND	ND	ND	2	118.3	28.1	54.2	688.4	0
35389	2014-02-10T12:00:00	54	ND	ND	ND	ND	ND	1.4	145	28.7	52.4	599.7	0
35390	2014-02-10T13:00:00	41.3	ND	ND	ND	ND	ND	1	133.9	30	48.5	783.7	0
35391	2014-02-10T14:00:00	42.5	ND	ND	ND	ND	ND	1.3	131.9	30.8	45.9	785.6	0
35392	2014-02-10T15:00:00	34.9	ND	ND	ND	ND	ND	0.4	205.5	31	43.9	287.5	0
35393	2014-02-10T16:00:00	32.7	ND	ND	ND	ND	ND	4	185.9	29.8	46.9	453.4	0
35394	2014-02-10T17:00:00	17.6	ND	ND	ND	ND	ND	4.4	182.1	28.5	50.3	313	0
35395	2014-02-10T18:00:00	14.6	ND	ND	ND	ND	ND	3.6	182	27.7	52	71.5	0
35396	2014-02-10T19:00:00	9.5	ND	ND	ND	ND	ND	5.2	175.6	26.6	55.4	0	0
35397	2014-02-10T20:00:00	16	ND	ND	ND	ND	ND	4.1	186.6	26.1	58.1	0	0
35398	2014-02-10T21:00:00	9.8	ND	ND	ND	ND	ND	4	172.6	25.8	59.3	0	0
35399	2014-02-10T22:00:00	13.2	ND	ND	ND	ND	ND	2.8	172.3	25.5	60.8	0	0
35400	2014-02-10T23:00:00	6.6	ND	ND	ND	ND	ND	1.5	167.6	25	63.1	0	0
35401	2014-02-11T00:00:00	3.3	ND	ND	ND	ND	ND	1.9	151	24.5	67	0	0
35402	2014-02-11T01:00:00	5.9	ND	ND	ND	ND	ND	1.5	154.2	23.9	69.7	0	0
35403	2014-02-11T02:00:00	33.9	ND	ND	ND	ND	ND	0.5	174.5	23.5	69.9	0	0
35404	2014-02-11T03:00:00	18.9	ND	ND	ND	ND	ND	0.8	147	23	73.3	0	0
35405	2014-02-11T04:00:00	24.7	ND	ND	ND	ND	ND	0.6	142	22.6	75.7	0	0
35406	2014-02-11T05:00:00	14.2	ND	ND	ND	ND	ND	0.9	146.7	22.4	77.4	0	0
35407	2014-02-11T06:00:00	13.8	ND	ND	ND	ND	ND	0.4	76.3	22.4	76.9	0	0
35408	2014-02-11T07:00:00	44.2	ND	ND	ND	ND	ND	0.4	120.9	22.2	79.2	20.8	0
35409	2014-02-11T08:00:00	62.3	ND	ND	ND	ND	ND	0.6	70.7	22.9	76.3	136.8	0
35410	2014-02-11T09:00:00	79.9	ND	ND	ND	ND	ND	0.9	98.3	24.5	68.6	200.7	0
35411	2014-02-11T10:00:00	92.7	ND	ND	ND	ND	ND	1.4	83.2	24.7	67.7	226.1	0
35412	2014-02-11T11:00:00	48.4	ND	ND	ND	ND	ND	1	136.8	26.4	61.3	508.8	0
35413	2014-02-11T12:00:00	69.3	ND	ND	ND	ND	ND	2.4	136.9	27.9	56.4	700.2	0
35414	2014-02-11T13:00:00	57.7	ND	ND	ND	ND	ND	1.5	137.5	29	52.8	778.6	0
35415	2014-02-11T14:00:00	65.8	ND	ND	ND	ND	ND	1.6	140.3	30.1	48.9	584.5	0
35416	2014-02-11T15:00:00	34.8	ND	ND	ND	ND	ND	1.6	172	29.5	49.6	356	0
35417	2014-02-11T16:00:00	47.3	ND	ND	ND	ND	ND	1.9	149.5	30.1	48.2	319.4	0
35418	2014-02-11T17:00:00	25.1	ND	ND	ND	ND	ND	2	169.7	29.6	49.8	217.4	0
35419	2014-02-11T18:00:00	34	ND	ND	ND	ND	ND	3.3	176.2	28.3	52.4	54.1	0
35420	2014-02-11T19:00:00	17.9	ND	ND	ND	ND	ND	3.9	174.1	27	55.7	0	0
35421	2014-02-11T20:00:00	27.3	ND	ND	ND	ND	ND	3.2	181.8	26	59.7	0	0
35422	2014-02-11T21:00:00	15.9	ND	ND	ND	ND	ND	2.8	188.5	25.8	59.5	0	0
35423	2014-02-11T22:00:00	18.2	ND	ND	ND	ND	ND	2	178.5	25.7	58.9	0	0
35424	2014-02-11T23:00:00	11.1	ND	ND	ND	ND	ND	3.6	164.8	24.5	63.2	0	0
35425	2014-02-12T00:00:00	6.8	ND	ND	ND	ND	ND	2.2	166.7	23.7	67	0	0
35426	2014-02-12T01:00:00	4.7	ND	ND	ND	ND	ND	1.4	151.9	22.9	74.1	0	0
35427	2014-02-12T02:00:00	3.4	ND	ND	ND	ND	ND	2.5	151.6	22.1	76.1	0	0
35428	2014-02-12T03:00:00	3.2	ND	ND	ND	ND	ND	2.4	152.9	22	74.2	0	0
35429	2014-02-12T04:00:00	2.9	ND	ND	ND	ND	ND	1.4	149.5	21.9	76.1	0	0
35430	2014-02-12T05:00:00	2.4	ND	ND	ND	ND	ND	0.7	140.7	21.3	82.1	0	0
35431	2014-02-12T06:00:00	9.6	ND	ND	ND	ND	ND	0.8	145.9	21.3	81.2	0	0
35432	2014-02-12T07:00:00	6.2	ND	ND	ND	ND	ND	0.8	155.6	21.4	81.5	8.4	0
35433	2014-02-12T08:00:00	12.9	ND	ND	ND	ND	ND	0.6	167.5	23.1	71.2	153	0
35434	2014-02-12T09:00:00	7.7	ND	ND	ND	ND	ND	1.2	132.1	24.8	68.3	347.4	0
35435	2014-02-12T10:00:00	41.7	ND	ND	ND	ND	ND	1.6	117.3	26.1	62.5	575.3	0
35436	2014-02-12T11:00:00	22.4	ND	ND	ND	ND	ND	0.8	108.9	27.2	55.9	502.6	0
35437	2014-02-12T12:00:00	25.8	ND	ND	ND	ND	ND	0.9	79.6	28	53.6	611.6	0
35438	2014-02-12T13:00:00	14.7	ND	ND	ND	ND	ND	1.2	96.5	29.6	48.3	861.3	0
35439	2014-02-12T14:00:00	32.1	ND	ND	ND	ND	ND	1.5	107.2	30.7	44.3	782.8	0
35440	2014-02-12T15:00:00	35.5	ND	ND	ND	ND	ND	0.5	108.7	30.6	44.2	348.3	0
35441	2014-02-12T16:00:00	28.9	ND	ND	ND	ND	ND	3.9	174.5	30.9	43.2	588.2	0
35442	2014-02-12T17:00:00	16.6	ND	ND	ND	ND	ND	5.1	175.6	29.5	46.7	345.1	0
35443	2014-02-12T18:00:00	22.2	ND	ND	ND	ND	ND	5.4	176.6	27.2	53.6	71.1	0
35444	2014-02-12T19:00:00	14.7	ND	ND	ND	ND	ND	5.2	174.9	26.5	55.9	0	0
35445	2014-02-12T20:00:00	8.3	ND	ND	ND	ND	ND	3.2	169.9	26.5	56.6	0	0
35446	2014-02-12T21:00:00	5.8	ND	ND	ND	ND	ND	1.9	168.3	25.7	61.1	0	0
35447	2014-02-12T22:00:00	4	ND	ND	ND	ND	ND	2.5	177.2	25.6	59.3	0	0
35448	2014-02-12T23:00:00	2	ND	ND	ND	ND	ND	2.7	181.2	25.4	60.1	0	0
35449	2014-02-13T00:00:00	1	ND	ND	ND	ND	ND	1	195.8	25	62.9	0	0
35450	2014-02-13T01:00:00	2.6	ND	ND	ND	ND	ND	2.7	154	24.4	68.9	0	0
35451	2014-02-13T02:00:00	20.5	ND	ND	ND	ND	ND	2	151.4	23.9	71.2	0	0
35452	2014-02-13T03:00:00	12.4	ND	ND	ND	ND	ND	1.2	132.9	22.9	78.9	0	24.89
35453	2014-02-13T04:00:00	24.7	ND	ND	ND	ND	ND	0.8	179.1	20.2	95.3	0	21.08
35454	2014-02-13T05:00:00	13.1	ND	ND	ND	ND	ND	1.3	163	20.8	91.5	0	0.76
35455	2014-02-13T06:00:00	11.1	ND	ND	ND	ND	ND	0.8	47.3	21.1	89.8	0	0.25
35456	2014-02-13T07:00:00	7.4	ND	ND	ND	ND	ND	0.1	198.9	21.1	90.3	18.1	0
35457	2014-02-13T08:00:00	4.9	ND	ND	ND	ND	ND	0.9	68.7	21.5	89.5	121	0
35458	2014-02-13T09:00:00	5.8	ND	ND	ND	ND	ND	1	76.5	23.2	80.9	391.2	0
35459	2014-02-13T10:00:00	13.2	ND	ND	ND	ND	ND	0.4	116.8	24.7	72.6	420.2	0
35460	2014-02-13T11:00:00	7.5	ND	ND	ND	ND	ND	1.2	122.9	25.6	67.6	420.7	0
35461	2014-02-13T12:00:00	14.4	ND	ND	ND	ND	ND	1.6	141.5	26.9	61.9	540	0
35462	2014-02-13T13:00:00	9.4	ND	ND	ND	ND	ND	1.3	201.1	28.3	54.9	646.2	0
35463	2014-02-13T14:00:00	19.1	ND	ND	ND	ND	ND	1.3	217	27.8	52.9	338.5	0
35464	2014-02-13T15:00:00	11	ND	ND	ND	ND	ND	1.5	206.3	28.6	51.2	405.3	0
35465	2014-02-13T16:00:00	6.1	ND	ND	ND	ND	ND	3.8	200.1	28.4	50.1	403.7	0
35466	2014-02-13T17:00:00	5	ND	ND	ND	ND	ND	2.4	180.8	27.6	53.3	205.8	0
35467	2014-02-13T18:00:00	28.4	ND	ND	ND	ND	ND	1.8	84.3	25.1	64.8	5.6	0
35468	2014-02-13T19:00:00	22.5	ND	ND	ND	ND	ND	1.6	143.6	23.4	72.5	0	0
35469	2014-02-13T20:00:00	32.5	ND	ND	ND	ND	ND	1.2	150.1	23.4	74.3	0	0
35470	2014-02-13T21:00:00	26.5	ND	ND	ND	ND	ND	1.9	150.1	22.6	76.8	0	0.25
35471	2014-02-13T22:00:00	23.6	ND	ND	ND	ND	ND	0.9	152.1	22.6	76.3	0	0
35472	2014-02-13T23:00:00	13.8	ND	ND	ND	ND	ND	0.9	64.5	21.4	86.8	0	7.87
35473	2014-02-14T00:00:00	16.1	ND	ND	ND	ND	ND	1	39.1	20.8	92.3	0	1.52
35474	2014-02-14T01:00:00	9.2	ND	ND	ND	ND	ND	0.3	55.8	20.8	91.2	0	0
35475	2014-02-14T02:00:00	15.2	ND	ND	ND	ND	ND	0.1	56.3	20.9	89	0	0
35476	2014-02-14T03:00:00	8.5	ND	ND	ND	ND	ND	0.7	147.9	21	88.9	0	0
35477	2014-02-14T04:00:00	6	ND	ND	ND	ND	ND	1.9	137.7	20.3	90	0	0.25
35478	2014-02-14T05:00:00	4	ND	ND	ND	ND	ND	0.2	106.2	20.4	89.1	0	0
35479	2014-02-14T06:00:00	16.2	ND	ND	ND	ND	ND	0.8	174	20.6	88.4	0	0
35480	2014-02-14T07:00:00	18.6	ND	ND	ND	ND	ND	0.8	69.4	20.7	88.7	5	0
35481	2014-02-14T08:00:00	37.9	ND	ND	ND	ND	ND	0.7	115.8	20.8	88.9	70.6	0
35482	2014-02-14T09:00:00	45.9	ND	ND	ND	ND	ND	1.2	151	21.5	84.8	150.3	0
35483	2014-02-14T10:00:00	48	ND	ND	ND	ND	ND	0.1	127.2	23	75.6	295.4	0
35484	2014-02-14T11:00:00	32	ND	ND	ND	ND	ND	0.5	40.7	24.7	68.7	641.8	0
35485	2014-02-14T12:00:00	33.2	ND	ND	ND	ND	ND	1.3	125	26.7	59.3	788.5	0
35486	2014-02-14T13:00:00	33.6	ND	ND	ND	ND	ND	1.3	94.4	27.9	54.2	723.4	0
35487	2014-02-14T14:00:00	36.3	ND	ND	ND	ND	ND	0.3	78.8	28.4	52.2	498.9	0
35488	2014-02-14T15:00:00	29	ND	ND	ND	ND	ND	0.7	50.1	28.3	52.6	167.1	0
35489	2014-02-14T16:00:00	27.9	ND	ND	ND	ND	ND	2	206.8	28.7	48.6	531.3	0
35490	2014-02-14T17:00:00	15.4	ND	ND	ND	ND	ND	2	196	28.7	46.9	265.2	0
35491	2014-02-14T18:00:00	17.4	ND	ND	ND	ND	ND	2.6	49.1	27.3	57.2	118.8	0
35492	2014-02-14T19:00:00	13.1	ND	ND	ND	ND	ND	1.1	53	25.9	63.8	0	0
35493	2014-02-14T20:00:00	44.6	ND	ND	ND	ND	ND	1.1	145.2	25	65.8	0	0
35494	2014-02-14T21:00:00	23.6	ND	ND	ND	ND	ND	2.7	162.9	24.6	62.4	0	0
35495	2014-02-14T22:00:00	13	ND	ND	ND	ND	ND	2.7	164.5	24.2	62.2	0	0
35496	2014-02-14T23:00:00	9	ND	ND	ND	ND	ND	2.1	164.5	23.6	64.3	0	0
35497	2014-02-15T00:00:00	6	ND	ND	ND	ND	ND	0.8	125.1	23.2	71	0	0
35498	2014-02-15T01:00:00	16.3	ND	ND	ND	ND	ND	0.5	122.4	22.2	79.5	0	0
35499	2014-02-15T02:00:00	37.6	ND	ND	ND	ND	ND	0.6	153	22.1	79.7	0	0
35500	2014-02-15T03:00:00	21	ND	ND	ND	ND	ND	0.6	160.7	22.3	76.4	0	0
35501	2014-02-15T04:00:00	24.3	ND	ND	ND	ND	ND	0.7	97.9	21.7	79.2	0	0
35502	2014-02-15T05:00:00	12.9	ND	ND	ND	ND	ND	0.5	158.8	21.5	81.3	0	0
35503	2014-02-15T06:00:00	19	ND	ND	ND	ND	ND	0.6	125.3	21.6	79.8	0	0
35504	2014-02-15T07:00:00	38.9	ND	ND	ND	ND	ND	0.6	104.3	20.9	84	14	0
35505	2014-02-15T08:00:00	62.9	ND	ND	ND	ND	ND	0.2	114.2	21.9	79.9	179.2	0
35506	2014-02-15T09:00:00	62.8	ND	ND	ND	ND	ND	0.9	139.2	23.9	70.5	381.9	0
35507	2014-02-15T10:00:00	66.8	ND	ND	ND	ND	ND	1.2	124.5	25.7	63	539.9	0
35508	2014-02-15T11:00:00	46.9	ND	ND	ND	ND	ND	1.2	112.6	27.1	57.4	701.3	0
35509	2014-02-15T12:00:00	64.6	ND	ND	ND	ND	ND	1.2	107	28.1	54.2	657.4	0
35510	2014-02-15T13:00:00	37.6	ND	ND	ND	ND	ND	1	65.5	28.4	52.7	420.1	0
35511	2014-02-15T14:00:00	54.3	ND	ND	ND	ND	ND	0.6	219.2	29.6	47.9	735.3	0
35512	2014-02-15T15:00:00	28.5	ND	ND	ND	ND	ND	0.3	132.8	30.3	45.8	399	0
35513	2014-02-15T16:00:00	29.6	ND	ND	ND	ND	ND	4.1	181.1	30.4	43.6	661.2	0
35514	2014-02-15T17:00:00	16	ND	ND	ND	ND	ND	3.8	178.6	29.5	45.5	347.8	0
35515	2014-02-15T18:00:00	13.1	ND	ND	ND	ND	ND	3.7	182	28.1	49	106.6	0
35516	2014-02-15T19:00:00	14.3	ND	ND	ND	ND	ND	4.5	175.9	26.8	52.7	0	0
35517	2014-02-15T20:00:00	7.7	ND	ND	ND	ND	ND	3.9	181.4	26.5	54.3	0	0
35518	2014-02-15T21:00:00	6	ND	ND	ND	ND	ND	3.1	176	25.7	59	0	0
35519	2014-02-15T22:00:00	9.4	ND	ND	ND	ND	ND	1.4	164.2	25.4	60.8	0	0
35520	2014-02-15T23:00:00	24.8	ND	ND	ND	ND	ND	2	150	24.8	63.6	0	0
35521	2014-02-16T00:00:00	24.3	ND	ND	ND	ND	ND	0.1	254.1	24.3	66.8	0	0
35522	2014-02-16T01:00:00	13.7	ND	ND	ND	ND	ND	0.3	125.6	23.9	69.2	0	0
35523	2014-02-16T02:00:00	31.2	ND	ND	ND	ND	ND	0.6	129.2	23.6	70.8	0	0
35524	2014-02-16T03:00:00	28.8	ND	ND	ND	ND	ND	0.5	43.7	22.6	75.9	0	0
35525	2014-02-16T04:00:00	50.4	ND	ND	ND	ND	ND	0.2	148.1	22.8	74.2	0	0
35526	2014-02-16T05:00:00	26.7	ND	ND	ND	ND	ND	0.7	52.9	22.3	77	0	0
35527	2014-02-16T06:00:00	28.1	ND	ND	ND	ND	ND	0.4	187.3	22.2	76.8	0	0
35528	2014-02-16T07:00:00	22.9	ND	ND	ND	ND	ND	0.4	164.6	22.4	75.8	0	0
35529	2014-02-16T08:00:00	23	ND	ND	ND	ND	ND	1.5	158	22.7	74.8	109.1	0
35530	2014-02-16T09:00:00	17.3	ND	ND	ND	ND	ND	1.2	133.5	24.6	67.6	326	0
35531	2014-02-16T10:00:00	25.1	ND	ND	ND	ND	ND	1.5	142.4	26.3	60.9	523.8	0
35532	2014-02-16T11:00:00	14.3	ND	ND	ND	ND	ND	1.2	126	26.9	58.7	439.3	0
35533	2014-02-16T12:00:00	8.3	ND	ND	ND	ND	ND	0.7	89.9	28.4	53.7	562.8	0
35534	2014-02-16T13:00:00	4.7	ND	ND	ND	ND	ND	0.9	87	29.1	50.9	677.3	0
35535	2014-02-16T14:00:00	4	ND	ND	ND	ND	ND	0.9	81.9	30.4	47.1	799.7	0
35536	2014-02-16T15:00:00	15.7	ND	ND	ND	ND	ND	1	203.6	30.6	46.3	461.1	0
35537	2014-02-16T16:00:00	15.1	ND	ND	ND	ND	ND	3.8	174.4	29.1	50.9	195.2	0
35538	2014-02-16T17:00:00	15.9	ND	ND	ND	ND	ND	3.2	178.6	27	57.8	111.7	0.51
35539	2014-02-16T18:00:00	9.8	ND	ND	ND	ND	ND	1.7	162.8	26.5	57.2	8.6	0
35540	2014-02-16T19:00:00	10.3	ND	ND	ND	ND	ND	1.9	132.2	24.8	66.1	0	0
35541	2014-02-16T20:00:00	35.2	ND	ND	ND	ND	ND	1.5	142.8	23.5	71.2	0	0
35542	2014-02-16T21:00:00	20.3	ND	ND	ND	ND	ND	0.6	124.3	23.7	71	0	0
35543	2014-02-16T22:00:00	39.5	ND	ND	ND	ND	ND	0.6	133.8	24	68.7	0	0
35544	2014-02-16T23:00:00	40.9	ND	ND	ND	ND	ND	0.5	23.9	23.5	72.7	0	0
35545	2014-02-17T00:00:00	61.5	ND	ND	ND	ND	ND	0.7	122.2	23.2	74.8	0	0
35546	2014-02-17T01:00:00	39.5	ND	ND	ND	ND	ND	0.6	30.2	22.6	78.1	0	0
35547	2014-02-17T02:00:00	35.3	ND	ND	ND	ND	ND	0.6	46.7	22.3	79.1	0	0
35548	2014-02-17T03:00:00	39.8	ND	ND	ND	ND	ND	0.4	76.7	22.1	80.1	0	0
35549	2014-02-17T04:00:00	59.2	ND	ND	ND	ND	ND	0.4	144.5	21.8	82.1	0	0
35550	2014-02-17T05:00:00	30.6	ND	ND	ND	ND	ND	0.1	40.3	21.9	81.1	0	0
35551	2014-02-17T06:00:00	48.9	ND	ND	ND	ND	ND	0.7	156.3	22.1	75.7	0	0
35552	2014-02-17T07:00:00	26.5	ND	ND	ND	ND	ND	0.7	154.1	22.2	77.1	6.9	0
35553	2014-02-17T08:00:00	63.3	ND	ND	ND	ND	ND	1	145.5	22.3	78.1	51.2	0
35554	2014-02-17T09:00:00	55.9	ND	ND	ND	ND	ND	1	152.9	23.1	71.9	95.2	0
35555	2014-02-17T10:00:00	60.2	ND	ND	ND	ND	ND	0.6	153.9	22.2	84.1	367.6	16.26
35556	2014-02-17T11:00:00	31.2	ND	ND	ND	ND	ND	0.9	140.1	26	64.3	713.9	0
35557	2014-02-17T12:00:00	25.6	ND	ND	ND	ND	ND	1.8	138	27.9	55.3	736.9	0
35558	2014-02-17T13:00:00	14.2	ND	ND	ND	ND	ND	0.9	130.9	28.8	50.9	572.5	0
35559	2014-02-17T14:00:00	15.9	ND	ND	ND	ND	ND	0.4	85.2	29.3	49.7	421.3	0
35560	2014-02-17T15:00:00	24	ND	ND	ND	ND	ND	2.1	188.7	29	49.3	436.4	0
35561	2014-02-17T16:00:00	23.9	ND	ND	ND	ND	ND	4.1	176.2	28.8	49.8	457.9	0
35562	2014-02-17T17:00:00	12.8	ND	ND	ND	ND	ND	3.5	166.4	28.7	49.5	232.5	0
35563	2014-02-17T18:00:00	14.2	ND	ND	ND	ND	ND	1.8	163.2	28.1	52.4	84.2	0
35564	2014-02-17T19:00:00	19.9	ND	ND	ND	ND	ND	0.7	126.4	27	58.6	0	0
35565	2014-02-17T20:00:00	43.3	ND	ND	ND	ND	ND	1.3	154.7	26.2	58	0	0
35566	2014-02-17T21:00:00	27.8	ND	ND	ND	ND	ND	1.1	161.9	25	64	0	0
35567	2014-02-17T22:00:00	32.3	ND	ND	ND	ND	ND	0.8	159.8	24.8	64.5	0	0
35568	2014-02-17T23:00:00	18.4	ND	ND	ND	ND	ND	0.8	62.5	23.1	73.5	0	0
35569	2014-02-18T00:00:00	29.1	ND	ND	ND	ND	ND	0.5	95.9	22.6	75.7	0	0
35570	2014-02-18T01:00:00	15.7	ND	ND	ND	ND	ND	0.2	79.6	22.4	76.6	0	0
35571	2014-02-18T02:00:00	22.5	ND	ND	ND	ND	ND	0.6	98.1	22.3	77.3	0	0
35572	2014-02-18T03:00:00	13.9	ND	ND	ND	ND	ND	0.4	111.8	21.9	78.8	0	0
35573	2014-02-18T04:00:00	25.8	ND	ND	ND	ND	ND	0.8	86.3	21.5	79.8	0	0
35574	2014-02-18T05:00:00	28.4	ND	ND	ND	ND	ND	0.5	148.9	21.4	80.6	0	0
35575	2014-02-18T06:00:00	24.9	ND	ND	ND	ND	ND	0.6	85.3	21.6	79	0	0
35576	2014-02-18T07:00:00	31.8	ND	ND	ND	ND	ND	0.8	152.9	21.6	79.4	20.5	0
35577	2014-02-18T08:00:00	43.2	ND	ND	ND	ND	ND	0.7	137.7	22.9	75.5	141.1	0
35578	2014-02-18T09:00:00	43.1	ND	ND	ND	ND	ND	2.3	149.7	23.8	71.3	316.2	0
35579	2014-02-18T10:00:00	39.1	ND	ND	ND	ND	ND	1.6	132.3	25.4	65.5	550.3	0
35580	2014-02-18T11:00:00	21.2	ND	ND	ND	ND	ND	1.6	114.5	26.9	59	759.5	0
35581	2014-02-18T12:00:00	29.7	ND	ND	ND	ND	ND	1.5	162.7	27.5	55.7	478	0
35582	2014-02-18T13:00:00	16.2	ND	ND	ND	ND	ND	1.4	178.4	28.8	50.9	903.3	0
35583	2014-02-18T14:00:00	23.3	ND	ND	ND	ND	ND	2.4	166.3	30.2	44.9	709.7	0
35584	2014-02-18T15:00:00	13.9	ND	ND	ND	ND	ND	1.4	165.4	25.5	67.2	124.6	38.1
35585	2014-02-18T16:00:00	28.1	ND	ND	ND	ND	ND	0.8	90.7	22.2	84.4	45.7	19.3
35586	2014-02-18T17:00:00	16.3	ND	ND	ND	ND	ND	0.5	191.2	24.2	73.7	35	2.54
35587	2014-02-18T18:00:00	21.1	ND	ND	ND	ND	ND	1.1	135.6	24	79.2	54.7	0.76
35588	2014-02-18T19:00:00	24.9	ND	ND	ND	ND	ND	0.9	47.2	22.9	82.9	0	0
35589	2014-02-18T20:00:00	48	ND	ND	ND	ND	ND	0.5	145.1	23.2	80.6	0	0
35590	2014-02-18T21:00:00	38.9	ND	ND	ND	ND	ND	0.6	152.9	23.3	79.3	0	0
35591	2014-02-18T22:00:00	52.4	ND	ND	ND	ND	ND	0.5	164.6	23.3	76.6	0	0
35592	2014-02-18T23:00:00	44.4	ND	ND	ND	ND	ND	0.5	65.3	22.6	83.3	0	0
35593	2014-02-19T00:00:00	83.9	ND	ND	ND	ND	ND	0.6	60.9	22	88	0	0
35594	2014-02-19T01:00:00	60.1	ND	ND	ND	ND	ND	0.4	94.6	21.6	87.9	0	0
35595	2014-02-19T02:00:00	69.3	ND	ND	ND	ND	ND	0.3	152.7	21.8	87.2	0	0
35596	2014-02-19T03:00:00	51.2	ND	ND	ND	ND	ND	1.9	157.5	21.6	86.1	0	0
35597	2014-02-19T04:00:00	26.6	ND	ND	ND	ND	ND	1.6	158.7	21.2	84.1	0	0
35598	2014-02-19T05:00:00	16.2	ND	ND	ND	ND	ND	0.7	146.1	21.3	86.8	0	0
35599	2014-02-19T06:00:00	8.8	ND	ND	ND	ND	ND	0.9	152.9	20.8	90.3	0	0.25
35600	2014-02-19T07:00:00	7.2	ND	ND	ND	ND	ND	0.6	156.2	20.9	91	17.7	0.25
35601	2014-02-19T08:00:00	19.7	ND	ND	ND	ND	ND	0.5	105.1	21.5	88.1	60.3	0.25
35602	2014-02-19T09:00:00	12.2	ND	ND	ND	ND	ND	0.4	135.4	22.2	84.4	133.6	0
35603	2014-02-19T10:00:00	37.8	ND	ND	ND	ND	ND	0.2	132.2	23.4	77.7	277.4	0
35604	2014-02-19T11:00:00	46.7	ND	ND	ND	ND	ND	0.9	114	25.5	68	691.6	0
35605	2014-02-19T12:00:00	38.1	ND	ND	ND	ND	ND	1.4	130.9	27.7	57.6	817.3	0
35606	2014-02-19T13:00:00	20.7	ND	ND	ND	ND	ND	1.2	153.3	28.4	53.1	597.8	0
35607	2014-02-19T14:00:00	23	ND	ND	ND	ND	ND	1.1	171.3	29.4	48.3	841.4	0
35608	2014-02-19T15:00:00	13.3	ND	ND	ND	ND	ND	1.4	184.8	29.8	45.6	430.5	0
35609	2014-02-19T16:00:00	16.4	ND	ND	ND	ND	ND	3.5	178.4	29.7	46.2	571.8	0
35610	2014-02-19T17:00:00	10.2	ND	ND	ND	ND	ND	4	177.4	28.6	49.8	307.3	0
35611	2014-02-19T18:00:00	6.6	ND	ND	ND	ND	ND	3.2	176.8	26.8	54.6	52.7	0
35612	2014-02-19T19:00:00	5.4	ND	ND	ND	ND	ND	2.4	183.7	26.1	55.8	0	0
35613	2014-02-19T20:00:00	10	ND	ND	ND	ND	ND	1.2	196.7	25.8	57.9	0	0
35614	2014-02-19T21:00:00	7.3	ND	ND	ND	ND	ND	3	164	25.1	61	0	0
35615	2014-02-19T22:00:00	5.9	ND	ND	ND	ND	ND	2.1	152.3	24.7	66.6	0	0
35616	2014-02-19T23:00:00	4.5	ND	ND	ND	ND	ND	1.8	148.9	24.2	70	0	0
35617	2014-02-20T00:00:00	24	ND	ND	ND	ND	ND	1.4	145.8	23.6	73.8	0	0
35618	2014-02-20T01:00:00	24.8	ND	ND	ND	ND	ND	0.2	213.7	23.2	77	0	0
35619	2014-02-20T02:00:00	26	ND	ND	ND	ND	ND	0.8	9.1	22.8	78.6	0	0
35620	2014-02-20T03:00:00	23.7	ND	ND	ND	ND	ND	1	25.9	22.5	80.8	0	0
35621	2014-02-20T04:00:00	12.5	ND	ND	ND	ND	ND	0.4	42.1	22.5	80.3	0	0
35622	2014-02-20T05:00:00	15.9	ND	ND	ND	ND	ND	0.9	91.6	22.1	83.1	0	0
35623	2014-02-20T06:00:00	10.1	ND	ND	ND	ND	ND	0.5	119.2	21.7	85.3	0	0
35624	2014-02-20T07:00:00	6.3	ND	ND	ND	ND	ND	0.6	112.1	21.9	84.5	22.2	0
35625	2014-02-20T08:00:00	29.4	ND	ND	ND	ND	ND	0.6	152.6	22.9	79.5	142.5	0
35626	2014-02-20T09:00:00	29.5	ND	ND	ND	ND	ND	1.5	140.2	23.6	75.7	179.4	0
35627	2014-02-20T10:00:00	43.1	ND	ND	ND	ND	ND	0.8	119	24.5	72.9	301.4	0
35628	2014-02-20T11:00:00	28.5	ND	ND	ND	ND	ND	1.3	107.1	25.4	68.6	370.1	0
35629	2014-02-20T12:00:00	48.5	ND	ND	ND	ND	ND	1.7	89	26.9	61.2	635	0
35630	2014-02-20T13:00:00	35.7	ND	ND	ND	ND	ND	1.2	112.3	27.7	56.3	471.9	0
35631	2014-02-20T14:00:00	27.1	ND	ND	ND	ND	ND	1.1	101.6	27.9	55.2	441.9	0
35632	2014-02-20T15:00:00	14.4	ND	ND	ND	ND	ND	1.2	78.3	28.4	54.1	420.8	0
35633	2014-02-20T16:00:00	34.4	ND	ND	ND	ND	ND	1.4	137.8	28.6	53.1	274.3	0
35634	2014-02-20T17:00:00	19.1	ND	ND	ND	ND	ND	3.3	175.6	28.1	50.9	174.1	0
35635	2014-02-20T18:00:00	11.6	ND	ND	ND	ND	ND	3.7	173.9	26.8	54	67.5	0
35636	2014-02-20T19:00:00	7.8	ND	ND	ND	ND	ND	3.9	170.9	25.8	57.4	0	0
35637	2014-02-20T20:00:00	18.9	ND	ND	ND	ND	ND	2.5	186.4	25.4	59.1	0	0
35638	2014-02-20T21:00:00	11.5	ND	ND	ND	ND	ND	0.8	202.8	25.4	59.8	0	0
35639	2014-02-20T22:00:00	6.5	ND	ND	ND	ND	ND	0.6	161.6	25.2	61.8	0	0
35640	2014-02-20T23:00:00	5.2	ND	ND	ND	ND	ND	0.5	94.1	24.6	65.9	0	0
35641	2014-02-21T00:00:00	30.1	ND	ND	ND	ND	ND	0.5	88.4	23.9	68.6	0	0
35642	2014-02-21T01:00:00	16.2	ND	ND	ND	ND	ND	1	132.1	23.3	71.8	0	0
35643	2014-02-21T02:00:00	9.9	ND	ND	ND	ND	ND	0.5	140.6	22.9	73.9	0	0
35644	2014-02-21T03:00:00	22.4	ND	ND	ND	ND	ND	1	138.4	22.8	75.9	0	0
35645	2014-02-21T04:00:00	15.2	ND	ND	ND	ND	ND	0.6	122.9	22.7	75.8	0	0
35646	2014-02-21T05:00:00	9.2	ND	ND	ND	ND	ND	0.7	111.9	22.4	78.3	0	0
35647	2014-02-21T06:00:00	14.5	ND	ND	ND	ND	ND	0.8	73.5	22	81.8	0	0
35648	2014-02-21T07:00:00	13.5	ND	ND	ND	ND	ND	1	76.1	21.8	83.9	6.6	0
35649	2014-02-21T08:00:00	44.9	ND	ND	ND	ND	ND	0.9	66.7	22	83.5	58.7	0
35650	2014-02-21T09:00:00	47.7	ND	ND	ND	ND	ND	1.1	82.8	22.4	82.4	71.1	0
35651	2014-02-21T10:00:00	46.4	ND	ND	ND	ND	ND	1.2	91.9	22.5	83.9	95.6	0
35652	2014-02-21T11:00:00	32.3	ND	ND	ND	ND	ND	1.1	141.8	22.8	85.2	323.4	0.25
35653	2014-02-21T12:00:00	32.5	ND	ND	ND	ND	ND	1.2	142.3	25.7	69.4	641.4	0
35654	2014-02-21T13:00:00	21.7	ND	ND	ND	ND	ND	1.1	176.5	26.5	63.8	438.4	0
35655	2014-02-21T14:00:00	31.5	ND	ND	ND	ND	ND	1	206.8	26.4	62.4	278.5	0
35656	2014-02-21T15:00:00	17.3	ND	ND	ND	ND	ND	1.8	204.7	27.2	54.6	304.9	0
35657	2014-02-21T16:00:00	9.6	ND	ND	ND	ND	ND	1.9	198.2	27.5	51.7	265	0
35658	2014-02-21T17:00:00	6.5	ND	ND	ND	ND	ND	3.6	159.7	25.2	61.5	112.6	0
35659	2014-02-21T18:00:00	19	ND	ND	ND	ND	ND	2.2	148.4	21.2	82.1	21.1	7.11
35660	2014-02-21T19:00:00	11.5	ND	ND	ND	ND	ND	1.4	141.5	21.5	81.5	0	0.25
35661	2014-02-21T20:00:00	31.5	ND	ND	ND	ND	ND	1.3	151.6	21	86.2	0	0
35662	2014-02-21T21:00:00	17	ND	ND	ND	ND	ND	1.3	129.1	21.2	85.7	0	0
35663	2014-02-21T22:00:00	29.1	ND	ND	ND	ND	ND	0.3	109.2	20.9	87.3	0	0
35664	2014-02-21T23:00:00	18.4	ND	ND	ND	ND	ND	0.4	58.2	21	85.4	0	0
35665	2014-02-22T00:00:00	47.3	ND	ND	ND	ND	ND	0.7	97.2	20.5	87	0	0
35666	2014-02-22T01:00:00	39	ND	ND	ND	ND	ND	0.6	32.9	20.4	86.9	0	0
35667	2014-02-22T02:00:00	45.1	ND	ND	ND	ND	ND	0.5	52.3	20.5	86	0	0
35668	2014-02-22T03:00:00	31.1	ND	ND	ND	ND	ND	0.1	33.8	20.5	85.4	0	0
35669	2014-02-22T04:00:00	57.2	ND	ND	ND	ND	ND	0.6	146.5	20.7	85.8	0	0
35670	2014-02-22T05:00:00	30.4	ND	ND	ND	ND	ND	0.8	141.7	20.2	89.9	0	0
35671	2014-02-22T06:00:00	56.8	ND	ND	ND	ND	ND	0.5	142.8	20.2	90.7	0	0
35672	2014-02-22T07:00:00	62	ND	ND	ND	ND	ND	0.5	115.5	20.1	91	17.2	0
35673	2014-02-22T08:00:00	64.9	ND	ND	ND	ND	ND	0.7	110.3	20.4	90.8	84.6	0
35674	2014-02-22T09:00:00	59.9	ND	ND	ND	ND	ND	0.6	123.7	21.6	86.4	258.1	0
35675	2014-02-22T10:00:00	69.2	ND	ND	ND	ND	ND	0.9	105.8	24.4	70	586.9	0
35676	2014-02-22T11:00:00	37.2	ND	ND	ND	ND	ND	1	87.8	26.2	61.7	671	0
35677	2014-02-22T12:00:00	51	ND	ND	ND	ND	ND	1.4	80.7	27	58.9	551.2	0
35678	2014-02-22T13:00:00	27	ND	ND	ND	ND	ND	0.8	106.8	28.2	53.6	650.2	0
35679	2014-02-22T14:00:00	34.3	ND	ND	ND	ND	ND	0.4	145.7	28.7	52.2	502.6	0
35680	2014-02-22T15:00:00	19.2	ND	ND	ND	ND	ND	2.2	181.4	29.2	49.1	524.6	0
35681	2014-02-22T16:00:00	19.2	ND	ND	ND	ND	ND	3.6	175.6	28.7	49.7	335.3	0
35682	2014-02-22T17:00:00	10.7	ND	ND	ND	ND	ND	3.3	176.8	27.8	51.6	191.2	0
35683	2014-02-22T18:00:00	6.1	ND	ND	ND	ND	ND	2.4	177.3	27.2	52.3	88	0
35684	2014-02-22T19:00:00	5.1	ND	ND	ND	ND	ND	2.8	178.7	26.2	55.6	0	0
35685	2014-02-22T20:00:00	4.3	ND	ND	ND	ND	ND	3.3	168	25.2	60.8	0	0
35686	2014-02-22T21:00:00	8.8	ND	ND	ND	ND	ND	2	150.4	24.7	66.9	0	0
35687	2014-02-22T22:00:00	27.1	ND	ND	ND	ND	ND	2.3	147.5	23.3	74.9	0	0
35688	2014-02-22T23:00:00	14.3	ND	ND	ND	ND	ND	1.6	147.3	23	76.1	0	0
35689	2014-02-23T00:00:00	16.5	ND	ND	ND	ND	ND	1	155.2	23	76.3	0	0
35690	2014-02-23T01:00:00	8.9	ND	ND	ND	ND	ND	0.7	150.1	23	75	0	0
35691	2014-02-23T02:00:00	9.7	ND	ND	ND	ND	ND	0.6	172.2	23.1	74.1	0	0
35692	2014-02-23T03:00:00	6.1	ND	ND	ND	ND	ND	0.7	78.6	22.6	77.7	0	0
35693	2014-02-23T04:00:00	8.8	ND	ND	ND	ND	ND	0.6	76.7	21.7	85	0	0
35694	2014-02-23T05:00:00	5.6	ND	ND	ND	ND	ND	0.8	64.6	21.6	86	0	0
35695	2014-02-23T06:00:00	29.8	ND	ND	ND	ND	ND	0.7	57.4	21.3	86.9	0	0
35696	2014-02-23T07:00:00	21.8	ND	ND	ND	ND	ND	0.2	65.4	21.5	86.4	9.5	0
35697	2014-02-23T08:00:00	48.2	ND	ND	ND	ND	ND	0.1	115.4	22.1	83.4	47.4	0
35698	2014-02-23T09:00:00	39.2	ND	ND	ND	ND	ND	0.6	118.5	23	76.7	94.5	0
35699	2014-02-23T10:00:00	33.6	ND	ND	ND	ND	ND	0.6	105.5	24	74.2	321.6	0
35700	2014-02-23T11:00:00	18.3	ND	ND	ND	ND	ND	0.8	139.7	26.3	62.6	729.7	0
35701	2014-02-23T12:00:00	16.9	ND	ND	ND	ND	ND	0.8	105.2	28.5	53.3	761.1	0
35702	2014-02-23T13:00:00	10.1	ND	ND	ND	ND	ND	0.6	173.8	29.3	50.1	676.3	0
35703	2014-02-23T14:00:00	7.1	ND	ND	ND	ND	ND	0.5	178.6	30.2	46.8	769.6	0
35704	2014-02-23T15:00:00	3.5	ND	ND	ND	ND	ND	1.4	200.8	30.2	45.6	443.2	0
35705	2014-02-23T16:00:00	1.8	ND	ND	ND	ND	ND	3.9	179.7	29.9	46.2	563.4	0
35706	2014-02-23T17:00:00	3	ND	ND	ND	ND	ND	3.6	183.5	28.8	48.3	243.7	0
35707	2014-02-23T18:00:00	2.1	ND	ND	ND	ND	ND	3.3	182.9	27.8	50.3	117.9	0
35708	2014-02-23T19:00:00	1.8	ND	ND	ND	ND	ND	3.6	173.2	26.8	51.4	0	0
35709	2014-02-23T20:00:00	2.4	ND	ND	ND	ND	ND	2.4	157.6	26.1	56.8	0	0
35710	2014-02-23T21:00:00	2.2	ND	ND	ND	ND	ND	1.7	155.5	25	64.6	0	0
35711	2014-02-23T22:00:00	13.8	ND	ND	ND	ND	ND	2.7	152	22.9	76.6	0	0
35712	2014-02-23T23:00:00	8.1	ND	ND	ND	ND	ND	2	150.5	23	75.8	0	0
35713	2014-02-24T00:00:00	10.5	ND	ND	ND	ND	ND	0.3	155	23.3	73.7	0	0
35714	2014-02-24T01:00:00	6	ND	ND	ND	ND	ND	1	81.8	23.1	75.9	0	0
35715	2014-02-24T02:00:00	23.3	ND	ND	ND	ND	ND	0.8	139	22.2	81.6	0	0
35716	2014-02-24T03:00:00	12.9	ND	ND	ND	ND	ND	1	139.9	21.9	83.8	0	0
35717	2014-02-24T04:00:00	16.2	ND	ND	ND	ND	ND	0.6	143.1	21.9	83.2	0	0
35718	2014-02-24T05:00:00	8.1	ND	ND	ND	ND	ND	0.8	137.6	21.6	85.3	0	0
35719	2014-02-24T06:00:00	4.1	ND	ND	ND	ND	ND	0.9	115.5	21.4	87	0	0
35720	2014-02-24T07:00:00	ND	ND	ND	ND	ND	ND	0.5	152	21.3	88.2	7	0
35721	2014-02-24T08:00:00	120.8	ND	ND	ND	ND	ND	0.6	94.7	22.3	83.9	136.8	0
35722	2014-02-24T09:00:00	62.5	ND	ND	ND	ND	ND	0.6	93.2	24.2	74.6	358.8	0
35723	2014-02-24T10:00:00	66.5	ND	ND	ND	ND	ND	1.1	114.8	25.9	65.4	591.6	0
35724	2014-02-24T11:00:00	33.7	ND	ND	ND	ND	ND	1.6	135.5	27.5	57.7	662.6	0
35725	2014-02-24T12:00:00	37.4	ND	ND	ND	ND	ND	0.9	124.3	28.4	54.5	542.9	0
35726	2014-02-24T13:00:00	19.7	ND	ND	ND	ND	ND	0.7	78.4	28.9	51.3	429.9	0
35727	2014-02-24T14:00:00	20.3	ND	ND	ND	ND	ND	1.1	112.9	29.6	49.4	491.4	0
35728	2014-02-24T15:00:00	11.3	ND	ND	ND	ND	ND	0.3	228.3	29.9	47.3	162.9	0
35729	2014-02-24T16:00:00	19.4	ND	ND	ND	ND	ND	3.4	166.7	27.4	56.8	74.4	0
35730	2014-02-24T17:00:00	11.4	ND	ND	ND	ND	ND	3.2	164.2	26.5	58.7	177.8	0
35731	2014-02-24T18:00:00	14.7	ND	ND	ND	ND	ND	3.7	172.3	27.2	54.2	75.7	0
35732	2014-02-24T19:00:00	15.4	ND	ND	ND	ND	ND	3.6	178.7	26.3	56.7	0	0
35733	2014-02-24T20:00:00	8.6	ND	ND	ND	ND	ND	1.3	171.9	26	57.6	0	0
35734	2014-02-24T21:00:00	24.5	ND	ND	ND	ND	ND	1.3	29.3	24.4	69.8	0	0
35735	2014-02-24T22:00:00	18.4	ND	ND	ND	ND	ND	0.6	47.1	23.8	73	0	0
35736	2014-02-24T23:00:00	11.4	ND	ND	ND	ND	ND	2.2	154.8	22.4	82.9	0	9.91
35737	2014-02-25T00:00:00	14.9	ND	ND	ND	ND	ND	0.3	148.9	20.9	93	0	17.53
35738	2014-02-25T01:00:00	9.6	ND	ND	ND	ND	ND	1.2	155.3	21.3	91.6	0	4.57
35739	2014-02-25T02:00:00	5.5	ND	ND	ND	ND	ND	0.5	88.9	21.4	90.6	0	0
35740	2014-02-25T03:00:00	10.3	ND	ND	ND	ND	ND	0.6	153.2	21.1	90	0	0.25
35741	2014-02-25T04:00:00	7.2	ND	ND	ND	ND	ND	0.4	142.8	21.3	90.4	0	0
35742	2014-02-25T05:00:00	5	ND	ND	ND	ND	ND	0.6	155.3	21.3	91	0	0
35743	2014-02-25T06:00:00	3.8	ND	ND	ND	ND	ND	0.5	58	21.2	91	0	0
35744	2014-02-25T07:00:00	3.8	ND	ND	ND	ND	ND	0.7	144.7	21.4	90.3	16.6	0
35745	2014-02-25T08:00:00	33.9	ND	ND	ND	ND	ND	0.6	141.3	22.6	84.9	158.5	0
35746	2014-02-25T09:00:00	31.7	ND	ND	ND	ND	ND	1.2	125.6	23.5	79.8	186.5	0
35747	2014-02-25T10:00:00	56.4	ND	ND	ND	ND	ND	1.4	148.4	24.4	75.1	449.2	0
35748	2014-02-25T11:00:00	29.9	ND	ND	ND	ND	ND	0.5	88	26.5	65.3	772.8	0
35749	2014-02-25T12:00:00	29.5	ND	ND	ND	ND	ND	0.6	145.4	26.8	62.3	349.6	0
35750	2014-02-25T13:00:00	16.6	ND	ND	ND	ND	ND	0.9	128.7	27.6	57.5	403.7	0
35751	2014-02-25T14:00:00	ND	ND	ND	ND	ND	ND	1.6	155.2	28	56.2	397.8	0
35752	2014-02-25T15:00:00	ND	ND	ND	ND	ND	ND	3.7	176.7	27.3	53.9	263.9	0
35753	2014-02-25T16:00:00	ND	ND	ND	ND	ND	ND	1.6	177.4	27.7	51	324.6	0
35754	2014-02-25T17:00:00	ND	ND	ND	ND	ND	ND	1.6	146	29.1	48.2	411.8	0
35755	2014-02-25T18:00:00	96.3	ND	ND	ND	ND	ND	1.6	176.5	28.1	51.5	142.4	0
35756	2014-02-25T19:00:00	49.5	ND	ND	ND	ND	ND	3.4	174.1	26	56.8	0	0
35757	2014-02-25T20:00:00	27.3	ND	ND	ND	ND	ND	2.6	172.6	25.9	55.4	0	0
35758	2014-02-25T21:00:00	14.5	ND	ND	ND	ND	ND	3.4	174	24.9	60.9	0	0
35759	2014-02-25T22:00:00	9	ND	ND	ND	ND	ND	2	183.8	24.9	61.1	0	0
35760	2014-02-25T23:00:00	6.6	ND	ND	ND	ND	ND	1.2	170.9	24.5	62.6	0	0
35761	2014-02-26T00:00:00	5.8	ND	ND	ND	ND	ND	2.1	167.1	24.4	62.1	0	0
35762	2014-02-26T01:00:00	3.4	ND	ND	ND	ND	ND	0.7	149.1	23.6	73.5	0	0
35763	2014-02-26T02:00:00	3.4	ND	ND	ND	ND	ND	0.4	107.4	23.2	75	0	0
35764	2014-02-26T03:00:00	3.1	ND	ND	ND	ND	ND	0.4	45.8	23.2	73.3	0	0
35765	2014-02-26T04:00:00	15.1	ND	ND	ND	ND	ND	0.2	328.5	22.8	75.9	0	0
35766	2014-02-26T05:00:00	8.3	ND	ND	ND	ND	ND	0.4	199.5	22.2	77.9	0	0
35767	2014-02-26T06:00:00	17.5	ND	ND	ND	ND	ND	0.4	49.1	22.1	82.8	0	0
35768	2014-02-26T07:00:00	12	ND	ND	ND	ND	ND	0.3	87	21.1	90.8	26.9	16.51
35769	2014-02-26T08:00:00	39.1	ND	ND	ND	ND	ND	0.4	73.5	21.5	92.3	101.1	0.25
35770	2014-02-26T09:00:00	25.5	ND	ND	ND	ND	ND	0.8	153	22.6	84	155.5	0
35771	2014-02-26T10:00:00	33	ND	ND	ND	ND	ND	1.1	158.9	23.9	76.5	336.2	0
35772	2014-02-26T11:00:00	32	ND	ND	ND	ND	ND	0.8	120.6	24.8	70.6	385.6	0
35773	2014-02-26T12:00:00	44.6	ND	ND	ND	ND	ND	1.1	134.9	27.3	59.8	833.6	0
35774	2014-02-26T13:00:00	23.1	ND	ND	ND	ND	ND	1.1	129	29.1	52.8	845.3	0
35775	2014-02-26T14:00:00	26.9	ND	ND	ND	ND	ND	1.1	103.2	30.3	47.7	697.9	0
35776	2014-02-26T15:00:00	14.8	ND	ND	ND	ND	ND	1	76.3	30	48.5	311.8	0
35777	2014-02-26T16:00:00	22.9	ND	ND	ND	ND	ND	0.7	67.6	30.1	48.9	207.4	0
35778	2014-02-26T17:00:00	17.6	ND	ND	ND	ND	ND	2.1	171.7	29.9	48.6	316.4	0
35779	2014-02-26T18:00:00	37.4	ND	ND	ND	ND	ND	3.9	171.7	28.1	53.1	122.8	0
35780	2014-02-26T19:00:00	20.8	ND	ND	ND	ND	ND	4.6	172	26.6	56.8	0	0
35781	2014-02-26T20:00:00	21.4	ND	ND	ND	ND	ND	3.4	169.2	26.3	58.1	0	0
35782	2014-02-26T21:00:00	11.9	ND	ND	ND	ND	ND	2.8	172.1	26.2	59.2	0	0
35783	2014-02-26T22:00:00	12	ND	ND	ND	ND	ND	1.6	178.8	25.6	63.7	0	0
35784	2014-02-26T23:00:00	7.7	ND	ND	ND	ND	ND	1.9	169.7	25.1	65	0	0
35785	2014-02-27T00:00:00	5.1	ND	ND	ND	ND	ND	1.8	160.6	25.1	64.8	0	0
35786	2014-02-27T01:00:00	11.3	ND	ND	ND	ND	ND	1.4	149.8	24.3	71.5	0	0
35787	2014-02-27T02:00:00	21.5	ND	ND	ND	ND	ND	1.3	149.9	23.9	73.9	0	0
35788	2014-02-27T03:00:00	12.1	ND	ND	ND	ND	ND	1.2	150.6	24	72.6	0	0
35789	2014-02-27T04:00:00	11.2	ND	ND	ND	ND	ND	0.5	90.4	23.2	77.4	0	0
35790	2014-02-27T05:00:00	19.8	ND	ND	ND	ND	ND	0.1	28.8	23	80.8	0	0
35791	2014-02-27T06:00:00	32.9	ND	ND	ND	ND	ND	0.9	146.4	22.6	84.7	0	0
35792	2014-02-27T07:00:00	29.3	ND	ND	ND	ND	ND	1	137.8	22.2	86.3	8.3	0
35793	2014-02-27T08:00:00	50.7	ND	ND	ND	ND	ND	0.9	146.6	22.4	84.5	36.3	0
35794	2014-02-27T09:00:00	31.7	ND	ND	ND	ND	ND	0.4	123.6	22.7	83.1	43.6	0
35795	2014-02-27T10:00:00	49.2	ND	ND	ND	ND	ND	1	59.7	23.2	80.3	178.1	0
35796	2014-02-27T11:00:00	26.5	ND	ND	ND	ND	ND	1.2	68.7	25	69.3	459.3	0
35797	2014-02-27T12:00:00	22.3	ND	ND	ND	ND	ND	1.3	89.5	26.7	63.2	608.7	0
35798	2014-02-27T13:00:00	35.2	ND	ND	ND	ND	ND	1.4	68.8	27.5	60.7	480	0
35799	2014-02-27T14:00:00	36.8	ND	ND	ND	ND	ND	2	186.8	28	55.7	625.7	0
35800	2014-02-27T15:00:00	19.5	ND	ND	ND	ND	ND	4.2	192	28.1	50.2	505.4	0
35801	2014-02-27T16:00:00	10.6	ND	ND	ND	ND	ND	2.4	149.1	26.4	59	211.7	0
35802	2014-02-27T17:00:00	16.7	ND	ND	ND	ND	ND	2.2	108	22.9	74.8	31.9	0
35803	2014-02-27T18:00:00	25	ND	ND	ND	ND	ND	1.2	126.2	19.4	88.7	0	19.56
35804	2014-02-27T19:00:00	36.6	ND	ND	ND	ND	ND	0.8	117.9	19.5	93.1	0	8.13
35805	2014-02-27T20:00:00	20.8	ND	ND	ND	ND	ND	1.2	136.6	19.2	93.4	0	2.79
35806	2014-02-27T21:00:00	12	ND	ND	ND	ND	ND	0.1	84.8	19.6	92	0	0.51
35807	2014-02-27T22:00:00	6.9	ND	ND	ND	ND	ND	0.8	162.9	20	89	0	0.25
35808	2014-02-27T23:00:00	5.2	ND	ND	ND	ND	ND	0.6	164	20.4	87.6	0	0
35809	2014-02-28T00:00:00	3.2	ND	ND	ND	ND	ND	0.7	160.3	20.4	86.8	0	0
35810	2014-02-28T01:00:00	2.4	ND	ND	ND	ND	ND	0.9	130.9	19.9	89.7	0	0
35811	2014-02-28T02:00:00	2.3	ND	ND	ND	ND	ND	0.3	ND	19.7	92.2	0	0
35812	2014-02-28T03:00:00	2.6	ND	ND	ND	ND	ND	0.3	65.7	19.8	91.6	0	0
35813	2014-02-28T04:00:00	22.1	ND	ND	ND	ND	ND	0.4	ND	20	90.8	0	0
35814	2014-02-28T05:00:00	11.7	ND	ND	ND	ND	ND	0.7	120.7	19.6	92.2	0	0
35815	2014-02-28T06:00:00	14.7	ND	ND	ND	ND	ND	0.5	108.1	19.6	92.1	0	0
35816	2014-02-28T07:00:00	19	ND	ND	ND	ND	ND	0.9	71.9	19.4	92.3	4.7	0
35817	2014-02-28T08:00:00	48.5	ND	ND	ND	ND	ND	0.9	70.8	19.4	92.7	23.9	0
35818	2014-02-28T09:00:00	63.1	ND	ND	ND	ND	ND	0.9	61.9	20.8	86.6	346.7	0
35819	2014-02-28T10:00:00	47.4	ND	ND	ND	ND	ND	1.3	64.2	22.7	77	454.6	0
35820	2014-02-28T11:00:00	52.1	ND	ND	ND	ND	ND	1	56.7	24.2	69.6	455.7	0
35821	2014-02-28T12:00:00	43.9	ND	ND	ND	ND	ND	1.5	71.2	25.5	63.7	789.3	0
35822	2014-02-28T13:00:00	23.1	ND	ND	ND	ND	ND	1.2	75.6	26.6	58.8	586.5	0
35823	2014-02-28T14:00:00	22.1	ND	ND	ND	ND	ND	0.9	78.6	27.4	57.3	572.1	0
35824	2014-02-28T15:00:00	12.6	ND	ND	ND	ND	ND	0.5	106.9	27.9	54.7	411.1	0
35825	2014-02-28T16:00:00	14.8	ND	ND	ND	ND	ND	0.2	105.1	28.1	54.4	216.7	0
35826	2014-02-28T17:00:00	28.5	ND	ND	ND	ND	ND	1.9	175.2	25.6	66.9	45.8	4.57
35827	2014-02-28T18:00:00	38.4	ND	ND	ND	ND	ND	2.8	165.8	23.8	73.4	19.4	0.51
35828	2014-02-28T19:00:00	19.2	ND	ND	ND	ND	ND	3	173.5	24	65.9	0	0
35829	2014-02-28T20:00:00	9.6	ND	ND	ND	ND	ND	2.1	179.5	24.6	59.4	0	0
35830	2014-02-28T21:00:00	6.2	ND	ND	ND	ND	ND	1.4	120.4	22.8	73.4	0	0.25
35831	2014-02-28T22:00:00	22.3	ND	ND	ND	ND	ND	0.5	ND	21	86.4	0	2.03
35832	2014-02-28T23:00:00	13.2	ND	ND	ND	ND	ND	1.1	131	20.8	88.6	0	1.27
35833	2014-03-01T00:00:00	19.1	ND	ND	ND	ND	ND	1.5	152.1	20.4	91.3	0	4.06
35834	2014-03-01T01:00:00	11.3	ND	ND	ND	ND	ND	1.4	149.6	20.4	92.4	0	0.51
35835	2014-03-01T02:00:00	6.8	ND	ND	ND	ND	ND	1.5	147.4	19.8	93.3	0	0.51
35836	2014-03-01T03:00:00	5.2	ND	ND	ND	ND	ND	1.6	150.8	19.6	93.8	0	0.25
35837	2014-03-01T04:00:00	4.3	ND	ND	ND	ND	ND	1.1	153	19.6	90.1	0	0
35838	2014-03-01T05:00:00	2.2	ND	ND	ND	ND	ND	0.5	149.1	19.9	88.9	0	0.25
35839	2014-03-01T06:00:00	1.1	ND	ND	ND	ND	ND	0.7	111.9	19.9	90.6	0	0
35840	2014-03-01T07:00:00	2.1	ND	ND	ND	ND	ND	0.3	94.2	19.9	92.1	5.7	0
35841	2014-03-01T08:00:00	12.5	ND	ND	ND	ND	ND	1	143.1	20	91.6	44.8	0
35842	2014-03-01T09:00:00	16.1	ND	ND	ND	ND	ND	0.7	138.6	20.5	89.2	116.3	0.25
35843	2014-03-01T10:00:00	26.5	ND	ND	ND	ND	ND	0.6	116.8	21.3	84.4	142.1	0
35844	2014-03-01T11:00:00	24.8	ND	ND	ND	ND	ND	0.5	98.3	22.1	79.5	245.2	0
35845	2014-03-01T12:00:00	19	ND	ND	ND	ND	ND	0.7	121.1	23.6	72.8	548.6	0
35846	2014-03-01T13:00:00	18.7	ND	ND	ND	ND	ND	1.2	127.2	26	62.1	930.2	0
35847	2014-03-01T14:00:00	26.5	ND	ND	ND	ND	ND	0.7	88.8	27.7	52.9	900.8	0
35848	2014-03-01T15:00:00	14.2	ND	ND	ND	ND	ND	0.4	309	27.5	54.5	450.9	0
35849	2014-03-01T16:00:00	16.9	ND	ND	ND	ND	ND	0.8	153.9	27.1	53.2	249.1	0
35850	2014-03-01T17:00:00	9	ND	ND	ND	ND	ND	2.6	169.1	26.3	57.4	158.5	0
35851	2014-03-01T18:00:00	5.9	ND	ND	ND	ND	ND	2.4	167.3	25.7	57.9	51.7	0
35852	2014-03-01T19:00:00	4.9	ND	ND	ND	ND	ND	1.3	149.1	24.9	61.9	0	0
35853	2014-03-01T20:00:00	17.6	ND	ND	ND	ND	ND	0.4	142.2	24	68	0	0
35854	2014-03-01T21:00:00	10.2	ND	ND	ND	ND	ND	1.1	165.7	23.9	67.4	0	0
35855	2014-03-01T22:00:00	14.3	ND	ND	ND	ND	ND	1.6	155.6	23.7	65.4	0	0
35856	2014-03-01T23:00:00	8.4	ND	ND	ND	ND	ND	1.2	175	23.6	65.6	0	0
35857	2014-03-02T00:00:00	6.3	ND	ND	ND	ND	ND	0.7	172.7	23.2	67.2	0	0
35858	2014-03-02T01:00:00	4.3	ND	ND	ND	ND	ND	1.1	168.8	22.7	68.9	0	0
35859	2014-03-02T02:00:00	3.2	ND	ND	ND	ND	ND	0.2	93	22.1	77.7	0	0
35860	2014-03-02T03:00:00	2.1	ND	ND	ND	ND	ND	0.3	273.2	21.6	81.6	0	0
35861	2014-03-02T04:00:00	23	ND	ND	ND	ND	ND	0.2	34.9	21.4	83.3	0	0
35862	2014-03-02T05:00:00	35.9	ND	ND	ND	ND	ND	0.4	ND	21.3	83.9	0	0
35863	2014-03-02T06:00:00	30.3	ND	ND	ND	ND	ND	0.3	ND	21.3	84.3	0	0
35864	2014-03-02T07:00:00	16.5	ND	ND	ND	ND	ND	0.9	89.5	21.1	85.3	0	0
35865	2014-03-02T08:00:00	22.4	ND	ND	ND	ND	ND	0.7	66.4	20.9	85.1	30.7	0
35866	2014-03-02T09:00:00	13.4	ND	ND	ND	ND	ND	1.2	153.2	21.8	81.8	268.9	0
35867	2014-03-02T10:00:00	10.8	ND	ND	ND	ND	ND	1.8	146	24.2	70.4	566.2	0
35868	2014-03-02T11:00:00	5.4	ND	ND	ND	ND	ND	1.6	137.6	25.8	61.6	771.6	0
35869	2014-03-02T12:00:00	2.7	ND	ND	ND	ND	ND	1.5	114.9	26.8	57.8	709.5	0
35870	2014-03-02T13:00:00	2.5	ND	ND	ND	ND	ND	0.1	159.3	27	58	383.4	0
35871	2014-03-02T14:00:00	2.4	ND	ND	ND	ND	ND	1.4	154.3	26	62.2	288.6	0
35872	2014-03-02T15:00:00	2	ND	ND	ND	ND	ND	2.6	208.6	23.6	76.7	362.1	12.45
35873	2014-03-02T16:00:00	1.8	ND	ND	ND	ND	ND	3.1	183.3	26.3	61	445.6	0
35874	2014-03-02T17:00:00	2.9	ND	ND	ND	ND	ND	2.8	179.1	25.7	58.3	110.5	0
35875	2014-03-02T18:00:00	1.5	ND	ND	ND	ND	ND	3.1	182.3	25.1	59.1	39.3	0
35876	2014-03-02T19:00:00	2.6	ND	ND	ND	ND	ND	3.7	173.4	24.9	59	0	0
35877	2014-03-02T20:00:00	3.1	ND	ND	ND	ND	ND	1.7	197.7	25	57.8	0	0
35878	2014-03-02T21:00:00	2.3	ND	ND	ND	ND	ND	2.2	160.8	24.5	60.5	0	0
35879	2014-03-02T22:00:00	2	ND	ND	ND	ND	ND	1.9	154.5	24	65.3	0	0
35880	2014-03-02T23:00:00	5.5	ND	ND	ND	ND	ND	1.8	155.9	23.2	72	0	0
35881	2014-03-03T00:00:00	11.7	ND	ND	ND	ND	ND	1.9	158.2	23.2	71	0	0
35882	2014-03-03T01:00:00	39.2	ND	ND	ND	ND	ND	2	152.5	22.3	79.6	0	0
35883	2014-03-03T02:00:00	21.4	ND	ND	ND	ND	ND	2.4	152.7	21.9	81	0	0
35884	2014-03-03T03:00:00	12.9	ND	ND	ND	ND	ND	2.8	152.3	21.5	81.5	0	0
35885	2014-03-03T04:00:00	8.2	ND	ND	ND	ND	ND	2.2	153.1	21	84.3	0	0
35886	2014-03-03T05:00:00	5.6	ND	ND	ND	ND	ND	0.7	122	20.3	88.8	0	27.69
35887	2014-03-03T06:00:00	3.4	ND	ND	ND	ND	ND	0.6	54.6	19.6	95.5	0	11.94
35888	2014-03-03T07:00:00	2.2	ND	ND	ND	ND	ND	0.2	356.8	19.6	95.8	7.7	1.27
35889	2014-03-03T08:00:00	3.5	ND	ND	ND	ND	ND	0.6	23	20.1	94.6	56.9	0
35890	2014-03-03T09:00:00	7.8	ND	ND	ND	ND	ND	0.5	63.6	21.3	86.3	135.4	0
35891	2014-03-03T10:00:00	31.6	ND	ND	ND	ND	ND	0.4	87.1	22.4	81	250	0
35892	2014-03-03T11:00:00	20.7	ND	ND	ND	ND	ND	0.6	129.1	24.6	69.4	625.9	0
35893	2014-03-03T12:00:00	32.5	ND	ND	ND	ND	ND	2.2	172.8	23.8	71.9	202.9	0
35894	2014-03-03T13:00:00	17.2	ND	ND	ND	ND	ND	1.2	174.6	24	72.3	412.8	0
35895	2014-03-03T14:00:00	9.5	ND	ND	ND	ND	ND	0.9	137.3	26.7	58.7	626.6	0
35896	2014-03-03T15:00:00	4.7	ND	ND	ND	ND	ND	1.3	136	27.1	54.4	288	0
35897	2014-03-03T16:00:00	14.9	ND	ND	ND	ND	ND	2.1	154.7	25.3	66.5	240.9	0
35898	2014-03-03T17:00:00	8.1	ND	ND	ND	ND	ND	0.5	73.9	23.7	70.5	212.6	0
35899	2014-03-03T18:00:00	6.5	ND	ND	ND	ND	ND	0.9	277.9	22.4	77.7	63.5	0
35900	2014-03-03T19:00:00	4.8	ND	ND	ND	ND	ND	0.4	295.1	22.8	73.8	0	0
35901	2014-03-03T20:00:00	43.1	ND	ND	ND	ND	ND	0.7	67.6	22.5	77.1	0	0
35902	2014-03-03T21:00:00	50.7	ND	ND	ND	ND	ND	1.3	26.4	21.6	81.9	0	0
35903	2014-03-03T22:00:00	41.7	ND	ND	ND	ND	ND	0.5	74.9	21	84.5	0	0
35904	2014-03-03T23:00:00	29.1	ND	ND	ND	ND	ND	1	140.6	20.9	85.1	0	0
35905	2014-03-04T00:00:00	38.1	ND	ND	ND	ND	ND	0.8	150.4	20.7	86	0	0
35906	2014-03-04T01:00:00	20.1	ND	ND	ND	ND	ND	1.4	151.2	21	84.9	0	0
35907	2014-03-04T02:00:00	14.2	ND	ND	ND	ND	ND	1	150.8	20.9	84.8	0	0
35908	2014-03-04T03:00:00	9.2	ND	ND	ND	ND	ND	0.7	153.5	20.8	85.3	0	0
35909	2014-03-04T04:00:00	9.8	ND	ND	ND	ND	ND	0.7	150.6	20.9	85.1	0	0
35910	2014-03-04T05:00:00	5.5	ND	ND	ND	ND	ND	0.9	158.1	20.6	85.8	0	0
35911	2014-03-04T06:00:00	3.3	ND	ND	ND	ND	ND	1.4	159	20	86.6	0	0
35912	2014-03-04T07:00:00	3.2	ND	ND	ND	ND	ND	0.6	188.9	20.4	85.8	9.4	0
35913	2014-03-04T08:00:00	31.5	ND	ND	ND	ND	ND	0.8	31	20.8	87.7	71.7	0
35914	2014-03-04T09:00:00	51.1	ND	ND	ND	ND	ND	0.2	47.3	22.1	81.1	249.6	0
35915	2014-03-04T10:00:00	76.2	ND	ND	ND	ND	ND	0.8	58	24.1	69.4	402.8	0
35916	2014-03-04T11:00:00	39.5	ND	ND	ND	ND	ND	1.1	66.5	25	63.9	544.1	0
35917	2014-03-04T12:00:00	51.4	ND	ND	ND	ND	ND	1	63.8	25.9	61.9	442.8	0
35918	2014-03-04T13:00:00	25.7	ND	ND	ND	ND	ND	1	152.5	27.1	55.9	614	0
35919	2014-03-04T14:00:00	16.9	ND	ND	ND	ND	ND	0.6	156.2	28.5	49.4	563.9	0
35920	2014-03-04T15:00:00	14.5	ND	ND	ND	ND	ND	0.6	132.9	29	47.7	528.5	0
35921	2014-03-04T16:00:00	26.3	ND	ND	ND	ND	ND	0.8	195	29.4	46.5	386	0
35922	2014-03-04T17:00:00	17.2	ND	ND	ND	ND	ND	3.7	176.8	27.8	50.7	243.4	0
35923	2014-03-04T18:00:00	9.9	ND	ND	ND	ND	ND	3.3	178.2	26.8	52.2	96.7	0
35924	2014-03-04T19:00:00	6.4	ND	ND	ND	ND	ND	4	175.1	25.5	56.3	9.7	0
35925	2014-03-04T20:00:00	5.8	ND	ND	ND	ND	ND	3.8	177.3	24.8	58.1	0	0
35926	2014-03-04T21:00:00	4.5	ND	ND	ND	ND	ND	2.3	187.6	24.6	58.1	0	0
35927	2014-03-04T22:00:00	4.1	ND	ND	ND	ND	ND	1.3	188.3	24.7	56.8	0	0
35928	2014-03-04T23:00:00	3.7	ND	ND	ND	ND	ND	1.4	163.8	23.9	60.8	0	0
35929	2014-03-05T00:00:00	3.4	ND	ND	ND	ND	ND	2.2	163.3	23.5	61.7	0	0
35930	2014-03-05T01:00:00	2.3	ND	ND	ND	ND	ND	1.7	158.8	23.1	65.9	0	0
35931	2014-03-05T02:00:00	1.8	ND	ND	ND	ND	ND	0.6	162.6	22.8	67.8	0	0
35932	2014-03-05T03:00:00	1.6	ND	ND	ND	ND	ND	1.6	157.6	22.7	67.2	0	0
35933	2014-03-05T04:00:00	0.8	ND	ND	ND	ND	ND	0.9	141.9	22.3	73.1	0	0
35934	2014-03-05T05:00:00	1.7	ND	ND	ND	ND	ND	0.4	100.1	21.4	81.5	0	0
35935	2014-03-05T06:00:00	35.2	ND	ND	ND	ND	ND	0.7	140.6	21.3	81.5	0	0
35936	2014-03-05T07:00:00	39.8	ND	ND	ND	ND	ND	1.2	139.8	21.3	83.3	11.5	0
35937	2014-03-05T08:00:00	47.3	ND	ND	ND	ND	ND	0.9	142.4	21.6	82.6	57.9	0
35938	2014-03-05T09:00:00	33.6	ND	ND	ND	ND	ND	1.3	147	22.3	79	129.3	0
35939	2014-03-05T10:00:00	36	ND	ND	ND	ND	ND	1.6	151.2	23.2	72.8	241.5	0
35940	2014-03-05T11:00:00	31.2	ND	ND	ND	ND	ND	1.4	135.4	24.8	66	553.1	0
35941	2014-03-05T12:00:00	16.9	ND	ND	ND	ND	ND	0.9	97	25.6	62.9	259.4	0
35942	2014-03-05T13:00:00	22.2	ND	ND	ND	ND	ND	1.1	164.8	23.8	73	68.4	0
35943	2014-03-05T14:00:00	13.7	ND	ND	ND	ND	ND	1.7	155.3	23	78.7	236.7	0
35944	2014-03-05T15:00:00	21.7	ND	ND	ND	ND	ND	1.7	147.9	26.1	63.6	391.3	0
35945	2014-03-05T16:00:00	33.8	ND	ND	ND	ND	ND	2.3	155.3	26.9	59.7	582.7	0
35946	2014-03-05T17:00:00	18	ND	ND	ND	ND	ND	2.1	153.8	26.8	58.6	183	0
35947	2014-03-05T18:00:00	39.2	ND	ND	ND	ND	ND	2.3	152.6	25.9	63.1	49.8	0
35948	2014-03-05T19:00:00	20.6	ND	ND	ND	ND	ND	1.6	158.7	25.2	61.9	0	0
35949	2014-03-05T20:00:00	26	ND	ND	ND	ND	ND	2	176.6	24.7	60.5	0	0
35950	2014-03-05T21:00:00	14.8	ND	ND	ND	ND	ND	1.4	46.6	24	68.5	0	0
35951	2014-03-05T22:00:00	20.7	ND	ND	ND	ND	ND	0.9	261.9	22.4	81.5	0	0
35952	2014-03-05T23:00:00	43.1	ND	ND	ND	ND	ND	0.7	13	21.8	84.6	0	0
35953	2014-03-06T00:00:00	26.1	ND	ND	ND	ND	ND	0.3	349	21.4	85.1	0	0
35954	2014-03-06T01:00:00	13.1	ND	ND	ND	ND	ND	0.7	ND	21.7	83.5	0	0
35955	2014-03-06T02:00:00	6.5	ND	ND	ND	ND	ND	0.9	170.3	21.1	87.5	0	22.61
35956	2014-03-06T03:00:00	5.2	ND	ND	ND	ND	ND	0.5	111.8	20.1	94.8	0	16.76
35957	2014-03-06T04:00:00	3.1	ND	ND	ND	ND	ND	0.5	160.5	20.3	94.3	0	0
35958	2014-03-06T05:00:00	1.5	ND	ND	ND	ND	ND	0.4	147.3	20.6	92.1	0	0.25
35959	2014-03-06T06:00:00	ND	ND	ND	ND	ND	ND	ND	ND	ND	ND	ND	ND
35960	2014-03-06T07:00:00	ND	ND	ND	ND	ND	ND	ND	ND	ND	ND	ND	ND
35961	2014-03-06T08:00:00	ND	ND	ND	ND	ND	ND	ND	ND	ND	ND	ND	ND
35962	2014-03-06T09:00:00	ND	ND	ND	ND	ND	ND	ND	ND	ND	ND	ND	ND
35963	2014-03-06T10:00:00	ND	ND	ND	ND	ND	ND	ND	ND	ND	ND	ND	ND
35964	2014-03-06T11:00:00	ND	ND	ND	ND	ND	ND	ND	ND	ND	ND	ND	ND
35965	2014-03-06T12:00:00	ND	ND	ND	ND	ND	ND	ND	ND	ND	ND	ND	ND
35966	2014-03-06T13:00:00	ND	ND	ND	ND	ND	ND	ND	ND	ND	ND	ND	ND
35967	2014-03-06T14:00:00	ND	ND	ND	ND	ND	ND	ND	ND	ND	ND	ND	ND
35968	2014-03-06T15:00:00	ND	ND	ND	ND	ND	ND	ND	ND	ND	ND	ND	ND
35969	2014-03-06T16:00:00	ND	ND	ND	ND	ND	ND	ND	ND	ND	ND	ND	ND
35970	2014-03-06T17:00:00	ND	ND	ND	ND	ND	ND	ND	ND	ND	ND	ND	ND
35971	2014-03-06T18:00:00	ND	ND	ND	ND	ND	ND	ND	ND	ND	ND	ND	ND
35972	2014-03-06T19:00:00	ND	ND	ND	ND	ND	ND	ND	ND	ND	ND	ND	ND
35973	2014-03-06T20:00:00	ND	ND	ND	ND	ND	ND	ND	ND	ND	ND	ND	ND
35974	2014-03-06T21:00:00	ND	ND	ND	ND	ND	ND	ND	ND	ND	ND	ND	ND
35975	2014-03-06T22:00:00	ND	ND	ND	ND	ND	ND	ND	ND	ND	ND	ND	ND
35976	2014-03-06T23:00:00	ND	ND	ND	ND	ND	ND	ND	ND	ND	ND	ND	ND
35977	2014-03-07T00:00:00	ND	ND	ND	ND	ND	ND	ND	ND	ND	ND	ND	ND
35978	2014-03-07T01:00:00	ND	ND	ND	ND	ND	ND	ND	ND	ND	ND	ND	ND
35979	2014-03-07T02:00:00	ND	ND	ND	ND	ND	ND	ND	ND	ND	ND	ND	ND
35980	2014-03-07T03:00:00	ND	ND	ND	ND	ND	ND	ND	ND	ND	ND	ND	ND
35981	2014-03-07T04:00:00	ND	ND	ND	ND	ND	ND	ND	ND	ND	ND	ND	ND
35982	2014-03-07T05:00:00	ND	ND	ND	ND	ND	ND	ND	ND	ND	ND	ND	ND
35983	2014-03-07T06:00:00	ND	ND	ND	ND	ND	ND	ND	ND	ND	ND	ND	ND
35984	2014-03-07T07:00:00	ND	ND	ND	ND	ND	ND	ND	ND	ND	ND	ND	ND
35985	2014-03-07T08:00:00	ND	ND	ND	ND	ND	ND	ND	ND	ND	ND	ND	ND
35986	2014-03-07T09:00:00	ND	ND	ND	ND	ND	ND	ND	ND	ND	ND	ND	ND
35987	2014-03-07T10:00:00	ND	ND	ND	ND	ND	ND	ND	ND	ND	ND	ND	ND
35988	2014-03-07T11:00:00	ND	ND	ND	ND	ND	ND	ND	ND	ND	ND	ND	ND
35989	2014-03-07T12:00:00	ND	ND	ND	ND	ND	ND	ND	ND	ND	ND	ND	ND
35990	2014-03-07T13:00:00	ND	ND	ND	ND	ND	ND	ND	ND	ND	ND	ND	ND
35991	2014-03-07T14:00:00	ND	ND	ND	ND	ND	ND	ND	ND	ND	ND	ND	ND
35992	2014-03-07T15:00:00	ND	ND	ND	ND	ND	ND	ND	ND	ND	ND	ND	ND
35993	2014-03-07T16:00:00	ND	ND	ND	ND	ND	ND	ND	ND	ND	ND	ND	ND
35994	2014-03-07T17:00:00	ND	ND	ND	ND	ND	ND	ND	ND	ND	ND	ND	ND
35995	2014-03-07T18:00:00	ND	ND	ND	ND	ND	ND	ND	ND	ND	ND	ND	ND
35996	2014-03-07T19:00:00	ND	ND	ND	ND	ND	ND	ND	ND	ND	ND	ND	ND
35997	2014-03-07T20:00:00	ND	ND	ND	ND	ND	ND	ND	ND	ND	ND	ND	ND
35998	2014-03-07T21:00:00	ND	ND	ND	ND	ND	ND	ND	ND	ND	ND	ND	ND
35999	2014-03-07T22:00:00	ND	ND	ND	ND	ND	ND	ND	ND	ND	ND	ND	ND
36000	2014-03-07T23:00:00	ND	ND	ND	ND	ND	ND	ND	ND	ND	ND	ND	ND
36001	2014-03-08T00:00:00	ND	ND	ND	ND	ND	ND	ND	ND	ND	ND	ND	ND
36002	2014-03-08T01:00:00	ND	ND	ND	ND	ND	ND	ND	ND	ND	ND	ND	ND
36003	2014-03-08T02:00:00	ND	ND	ND	ND	ND	ND	ND	ND	ND	ND	ND	ND
36004	2014-03-08T03:00:00	ND	ND	ND	ND	ND	ND	ND	ND	ND	ND	ND	ND
36005	2014-03-08T04:00:00	ND	ND	ND	ND	ND	ND	ND	ND	ND	ND	ND	ND
36006	2014-03-08T05:00:00	ND	ND	ND	ND	ND	ND	ND	ND	ND	ND	ND	ND
36007	2014-03-08T06:00:00	ND	ND	ND	ND	ND	ND	ND	ND	ND	ND	ND	ND
36008	2014-03-08T07:00:00	ND	ND	ND	ND	ND	ND	ND	ND	ND	ND	ND	ND
36009	2014-03-08T08:00:00	ND	ND	ND	ND	ND	ND	ND	ND	ND	ND	ND	ND
36010	2014-03-08T09:00:00	ND	ND	ND	ND	ND	ND	ND	ND	ND	ND	ND	ND
36011	2014-03-08T10:00:00	ND	ND	ND	ND	ND	ND	ND	ND	ND	ND	ND	ND
36012	2014-03-08T11:00:00	ND	ND	ND	ND	ND	ND	ND	ND	ND	ND	ND	ND
36013	2014-03-08T12:00:00	ND	ND	ND	ND	ND	ND	ND	ND	ND	ND	ND	ND
36014	2014-03-08T13:00:00	ND	ND	ND	ND	ND	ND	ND	ND	ND	ND	ND	ND
36015	2014-03-08T14:00:00	ND	ND	ND	ND	ND	ND	ND	ND	ND	ND	ND	ND
36016	2014-03-08T15:00:00	ND	ND	ND	ND	ND	ND	ND	ND	ND	ND	ND	ND
36017	2014-03-08T16:00:00	ND	ND	ND	ND	ND	ND	ND	ND	ND	ND	ND	ND
36018	2014-03-08T17:00:00	ND	ND	ND	ND	ND	ND	ND	ND	ND	ND	ND	ND
36019	2014-03-08T18:00:00	ND	ND	ND	ND	ND	ND	ND	ND	ND	ND	ND	ND
36020	2014-03-08T19:00:00	ND	ND	ND	ND	ND	ND	ND	ND	ND	ND	ND	ND
36021	2014-03-08T20:00:00	ND	ND	ND	ND	ND	ND	ND	ND	ND	ND	ND	ND
36022	2014-03-08T21:00:00	ND	ND	ND	ND	ND	ND	ND	ND	ND	ND	ND	ND
36023	2014-03-08T22:00:00	ND	ND	ND	ND	ND	ND	ND	ND	ND	ND	ND	ND
36024	2014-03-08T23:00:00	ND	ND	ND	ND	ND	ND	ND	ND	ND	ND	ND	ND
36025	2014-03-09T00:00:00	ND	ND	ND	ND	ND	ND	ND	ND	ND	ND	ND	ND
36026	2014-03-09T01:00:00	ND	ND	ND	ND	ND	ND	ND	ND	ND	ND	ND	ND
36027	2014-03-09T02:00:00	ND	ND	ND	ND	ND	ND	ND	ND	ND	ND	ND	ND
36028	2014-03-09T03:00:00	ND	ND	ND	ND	ND	ND	ND	ND	ND	ND	ND	ND
36029	2014-03-09T04:00:00	ND	ND	ND	ND	ND	ND	ND	ND	ND	ND	ND	ND
36030	2014-03-09T05:00:00	ND	ND	ND	ND	ND	ND	ND	ND	ND	ND	ND	ND
36031	2014-03-09T06:00:00	ND	ND	ND	ND	ND	ND	ND	ND	ND	ND	ND	ND
36032	2014-03-09T07:00:00	ND	ND	ND	ND	ND	ND	ND	ND	ND	ND	ND	ND
36033	2014-03-09T08:00:00	ND	ND	ND	ND	ND	ND	ND	ND	ND	ND	ND	ND
36034	2014-03-09T09:00:00	ND	ND	ND	ND	ND	ND	ND	ND	ND	ND	ND	ND
36035	2014-03-09T10:00:00	ND	ND	ND	ND	ND	ND	ND	ND	ND	ND	ND	ND
36036	2014-03-09T11:00:00	ND	ND	ND	ND	ND	ND	ND	ND	ND	ND	ND	ND
36037	2014-03-09T12:00:00	ND	ND	ND	ND	ND	ND	ND	ND	ND	ND	ND	ND
36038	2014-03-09T13:00:00	ND	ND	ND	ND	ND	ND	ND	ND	ND	ND	ND	ND
36039	2014-03-09T14:00:00	ND	ND	ND	ND	ND	ND	ND	ND	ND	ND	ND	ND
36040	2014-03-09T15:00:00	ND	ND	ND	ND	ND	ND	ND	ND	ND	ND	ND	ND
36041	2014-03-09T16:00:00	ND	ND	ND	ND	ND	ND	ND	ND	ND	ND	ND	ND
36042	2014-03-09T17:00:00	ND	ND	ND	ND	ND	ND	ND	ND	ND	ND	ND	ND
36043	2014-03-09T18:00:00	ND	ND	ND	ND	ND	ND	ND	ND	ND	ND	ND	ND
36044	2014-03-09T19:00:00	ND	ND	ND	ND	ND	ND	ND	ND	ND	ND	ND	ND
36045	2014-03-09T20:00:00	ND	ND	ND	ND	ND	ND	ND	ND	ND	ND	ND	ND
36046	2014-03-09T21:00:00	ND	ND	ND	ND	ND	ND	ND	ND	ND	ND	ND	ND
36047	2014-03-09T22:00:00	ND	ND	ND	ND	ND	ND	ND	ND	ND	ND	ND	ND
36048	2014-03-09T23:00:00	ND	ND	ND	ND	ND	ND	ND	ND	ND	ND	ND	ND
36049	2014-03-10T00:00:00	ND	ND	ND	ND	ND	ND	ND	ND	ND	ND	ND	ND
36050	2014-03-10T01:00:00	ND	ND	ND	ND	ND	ND	ND	ND	ND	ND	ND	ND
36051	2014-03-10T02:00:00	ND	ND	ND	ND	ND	ND	ND	ND	ND	ND	ND	ND
36052	2014-03-10T03:00:00	ND	ND	ND	ND	ND	ND	ND	ND	ND	ND	ND	ND
36053	2014-03-10T04:00:00	ND	ND	ND	ND	ND	ND	ND	ND	ND	ND	ND	ND
36054	2014-03-10T05:00:00	ND	ND	ND	ND	ND	ND	ND	ND	ND	ND	ND	ND
36055	2014-03-10T06:00:00	ND	ND	ND	ND	ND	ND	ND	ND	ND	ND	ND	ND
36056	2014-03-10T07:00:00	ND	ND	ND	ND	ND	ND	ND	ND	ND	ND	ND	ND
36057	2014-03-10T08:00:00	ND	ND	ND	ND	ND	ND	ND	ND	ND	ND	ND	ND
36058	2014-03-10T09:00:00	ND	ND	ND	ND	ND	ND	ND	ND	ND	ND	ND	ND
36059	2014-03-10T10:00:00	ND	ND	ND	ND	ND	ND	ND	ND	ND	ND	ND	ND
36060	2014-03-10T11:00:00	ND	ND	ND	ND	ND	ND	ND	ND	ND	ND	ND	ND
36061	2014-03-10T12:00:00	ND	ND	ND	ND	ND	ND	ND	ND	ND	ND	ND	ND
36062	2014-03-10T13:00:00	ND	ND	ND	ND	ND	ND	ND	ND	ND	ND	ND	ND
36063	2014-03-10T14:00:00	ND	ND	ND	ND	ND	ND	ND	ND	ND	ND	ND	ND
36064	2014-03-10T15:00:00	ND	ND	ND	ND	ND	ND	ND	ND	ND	ND	ND	ND
36065	2014-03-10T16:00:00	ND	ND	ND	ND	ND	ND	ND	ND	ND	ND	ND	ND
36066	2014-03-10T17:00:00	ND	ND	ND	ND	ND	ND	ND	ND	ND	ND	ND	ND
36067	2014-03-10T18:00:00	ND	ND	ND	ND	ND	ND	ND	ND	ND	ND	ND	ND
36068	2014-03-10T19:00:00	ND	ND	ND	ND	ND	ND	ND	ND	ND	ND	ND	ND
36069	2014-03-10T20:00:00	ND	ND	ND	ND	ND	ND	ND	ND	ND	ND	ND	ND
36070	2014-03-10T21:00:00	ND	ND	ND	ND	ND	ND	ND	ND	ND	ND	ND	ND
36071	2014-03-10T22:00:00	ND	ND	ND	ND	ND	ND	ND	ND	ND	ND	ND	ND
36072	2014-03-10T23:00:00	ND	ND	ND	ND	ND	ND	ND	ND	ND	ND	ND	ND
36073	2014-03-11T00:00:00	ND	ND	ND	ND	ND	ND	ND	ND	ND	ND	ND	ND
36074	2014-03-11T01:00:00	ND	ND	ND	ND	ND	ND	ND	ND	ND	ND	ND	ND
36075	2014-03-11T02:00:00	ND	ND	ND	ND	ND	ND	ND	ND	ND	ND	ND	ND
36076	2014-03-11T03:00:00	ND	ND	ND	ND	ND	ND	ND	ND	ND	ND	ND	ND
36077	2014-03-11T04:00:00	ND	ND	ND	ND	ND	ND	ND	ND	ND	ND	ND	ND
36078	2014-03-11T05:00:00	ND	ND	ND	ND	ND	ND	ND	ND	ND	ND	ND	ND
36079	2014-03-11T06:00:00	ND	ND	ND	ND	ND	ND	ND	ND	ND	ND	ND	ND
36080	2014-03-11T07:00:00	ND	ND	ND	ND	ND	ND	ND	ND	ND	ND	ND	ND
36081	2014-03-11T08:00:00	ND	ND	ND	ND	ND	ND	ND	ND	ND	ND	ND	ND
36082	2014-03-11T09:00:00	ND	ND	ND	ND	ND	ND	ND	ND	ND	ND	ND	ND
36083	2014-03-11T10:00:00	ND	ND	ND	ND	ND	ND	ND	ND	ND	ND	ND	ND
36084	2014-03-11T11:00:00	ND	ND	ND	ND	ND	ND	ND	147.3	25.9	63.1	805.7	0
36085	2014-03-11T12:00:00	ND	ND	ND	ND	ND	ND	ND	148.3	27.4	55.9	838.2	0
36086	2014-03-11T13:00:00	ND	ND	ND	ND	ND	ND	ND	145.8	28.9	49.3	930.5	0
36087	2014-03-11T14:00:00	ND	ND	ND	ND	ND	ND	ND	169.2	29.3	47.5	704.4	0
36088	2014-03-11T15:00:00	ND	ND	ND	ND	ND	ND	ND	178.5	28.7	48.5	433.6	0
36089	2014-03-11T16:00:00	ND	ND	ND	ND	ND	ND	ND	174.6	27.6	51.3	217.4	0
36090	2014-03-11T17:00:00	ND	ND	ND	ND	ND	ND	ND	176.7	27.1	52.5	99.9	0
36091	2014-03-11T18:00:00	ND	ND	ND	ND	ND	ND	ND	165.7	26.4	54.8	19.2	0
36092	2014-03-11T19:00:00	ND	ND	ND	ND	ND	ND	ND	171.2	25.8	56.7	0	0
36093	2014-03-11T20:00:00	ND	ND	ND	ND	ND	ND	ND	165.5	25.4	59.3	0	0
36094	2014-03-11T21:00:00	ND	ND	ND	ND	ND	ND	ND	180	25.3	57.5	0	0
36095	2014-03-11T22:00:00	ND	ND	ND	ND	ND	ND	ND	164.1	25	60	0	0
36096	2014-03-11T23:00:00	ND	ND	ND	ND	ND	ND	ND	145.1	23.8	75.2	0	0
36097	2014-03-12T00:00:00	ND	ND	ND	ND	ND	ND	ND	138.1	23.2	78.6	0	0
36098	2014-03-12T01:00:00	ND	ND	ND	ND	ND	ND	ND	157.7	23.2	76.8	0	0
36099	2014-03-12T02:00:00	ND	ND	ND	ND	ND	ND	ND	127.3	23.4	74.8	0	0
36100	2014-03-12T03:00:00	ND	ND	ND	ND	ND	ND	ND	151.7	23	76	0	0
36101	2014-03-12T04:00:00	ND	ND	ND	ND	ND	ND	ND	75.9	22.2	80	0	0
36102	2014-03-12T05:00:00	ND	ND	ND	ND	ND	ND	ND	122.5	21.6	85.8	0	2.03
36103	2014-03-12T06:00:00	ND	ND	ND	ND	ND	ND	ND	199.5	21.3	88.9	0	1.27
36104	2014-03-12T07:00:00	ND	ND	ND	ND	ND	ND	ND	196.8	21.8	85.2	20.1	0.25
36105	2014-03-12T08:00:00	ND	ND	ND	ND	ND	ND	ND	76.5	22.8	81.6	91.2	0
36106	2014-03-12T09:00:00	ND	ND	ND	ND	ND	ND	ND	129.5	23.1	82.5	140.8	0
36107	2014-03-12T10:00:00	ND	ND	ND	ND	ND	ND	ND	132.8	23.7	77.9	311	0
36108	2014-03-12T11:00:00	ND	ND	ND	ND	ND	ND	ND	119.2	25.2	68.3	335.5	0
36109	2014-03-12T12:00:00	ND	ND	ND	ND	ND	ND	ND	140.6	26.7	61.8	530.6	0
36110	2014-03-12T13:00:00	ND	ND	ND	ND	ND	ND	ND	152	26.8	60.9	341.9	0
36111	2014-03-12T14:00:00	ND	ND	ND	ND	ND	ND	ND	156.9	28.1	51.5	582.2	0
36112	2014-03-12T15:00:00	ND	ND	ND	ND	ND	ND	ND	97.6	19.4	63.9	26.7	159.51
36113	2014-03-12T16:00:00	ND	ND	ND	ND	ND	ND	ND	131.8	ND	ND	ND	72.9
36114	2014-03-12T17:00:00	ND	ND	ND	ND	ND	ND	ND	115.6	ND	ND	ND	0.51
36115	2014-03-12T18:00:00	ND	ND	ND	ND	ND	ND	ND	333.3	ND	ND	ND	0
36116	2014-03-12T19:00:00	ND	ND	ND	ND	ND	ND	ND	7	ND	ND	ND	0
36117	2014-03-12T20:00:00	ND	ND	ND	ND	ND	ND	ND	62.5	ND	ND	ND	0
36118	2014-03-12T21:00:00	ND	ND	ND	ND	ND	ND	ND	3.8	ND	ND	ND	0.25
36119	2014-03-12T22:00:00	ND	ND	ND	ND	ND	ND	ND	17.9	ND	ND	ND	0.51
36120	2014-03-12T23:00:00	ND	ND	ND	ND	ND	ND	ND	122.9	ND	ND	ND	0.25
36121	2014-03-13T00:00:00	ND	ND	ND	ND	ND	ND	ND	127.3	ND	ND	ND	0.25
36122	2014-03-13T01:00:00	ND	ND	ND	ND	ND	ND	ND	115	ND	ND	ND	0
36123	2014-03-13T02:00:00	ND	ND	ND	ND	ND	ND	ND	156.4	ND	ND	ND	0
36124	2014-03-13T03:00:00	ND	ND	ND	ND	ND	ND	ND	319.2	ND	ND	ND	0
36125	2014-03-13T04:00:00	ND	ND	ND	ND	ND	ND	ND	71.2	ND	ND	ND	0
36126	2014-03-13T05:00:00	ND	ND	ND	ND	ND	ND	ND	91.9	ND	ND	ND	0
36127	2014-03-13T06:00:00	ND	ND	ND	ND	ND	ND	ND	11	ND	ND	ND	0
36128	2014-03-13T07:00:00	ND	ND	ND	ND	ND	ND	ND	235.8	ND	ND	ND	0
36129	2014-03-13T08:00:00	ND	ND	ND	ND	ND	ND	ND	124.5	ND	ND	ND	0
36130	2014-03-13T09:00:00	ND	ND	ND	ND	ND	ND	ND	102.9	ND	ND	ND	0.25
36131	2014-03-13T10:00:00	ND	ND	ND	ND	ND	ND	ND	50.3	ND	ND	ND	0
36132	2014-03-13T11:00:00	ND	ND	ND	ND	ND	ND	ND	13.6	ND	ND	ND	0
36133	2014-03-13T12:00:00	ND	ND	ND	ND	ND	ND	ND	61.8	ND	ND	ND	0
36134	2014-03-13T13:00:00	ND	ND	ND	ND	ND	ND	ND	347.9	ND	ND	ND	0
36135	2014-03-13T14:00:00	ND	ND	ND	ND	ND	ND	ND	357.6	ND	ND	ND	0
36136	2014-03-13T15:00:00	ND	ND	ND	ND	ND	ND	ND	355.4	ND	ND	ND	2.79
36137	2014-03-13T16:00:00	ND	ND	ND	ND	ND	ND	ND	353.2	ND	ND	ND	0.51
36138	2014-03-13T17:00:00	ND	ND	ND	ND	ND	ND	ND	297.6	ND	ND	ND	0
36139	2014-03-13T18:00:00	ND	ND	ND	ND	ND	ND	ND	145	ND	ND	ND	0
36140	2014-03-13T19:00:00	ND	ND	ND	ND	ND	ND	ND	110.9	ND	ND	ND	0
36141	2014-03-13T20:00:00	ND	ND	ND	ND	ND	ND	ND	60.2	ND	ND	ND	0
36142	2014-03-13T21:00:00	ND	ND	ND	ND	ND	ND	ND	120.9	ND	ND	ND	0
36143	2014-03-13T22:00:00	ND	ND	ND	ND	ND	ND	ND	8.2	ND	ND	ND	0
36144	2014-03-13T23:00:00	ND	ND	ND	ND	ND	ND	ND	31.7	ND	ND	ND	0
36145	2014-03-14T00:00:00	ND	ND	ND	ND	ND	ND	ND	68.6	ND	ND	ND	0
36146	2014-03-14T01:00:00	ND	ND	ND	ND	ND	ND	ND	96.9	ND	ND	ND	0
36147	2014-03-14T02:00:00	ND	ND	ND	ND	ND	ND	ND	140.5	ND	ND	ND	0
36148	2014-03-14T03:00:00	ND	ND	ND	ND	ND	ND	ND	89	ND	ND	ND	0
36149	2014-03-14T04:00:00	ND	ND	ND	ND	ND	ND	ND	313.7	ND	ND	ND	0
36150	2014-03-14T05:00:00	ND	ND	ND	ND	ND	ND	ND	3.1	ND	ND	ND	0
36151	2014-03-14T06:00:00	ND	ND	ND	ND	ND	ND	ND	54.4	ND	ND	ND	0
36152	2014-03-14T07:00:00	ND	ND	ND	ND	ND	ND	ND	4	ND	ND	ND	0
36153	2014-03-14T08:00:00	ND	ND	ND	ND	ND	ND	ND	47.5	ND	ND	ND	0
36154	2014-03-14T09:00:00	ND	ND	ND	ND	ND	ND	ND	40.4	ND	ND	ND	0
36155	2014-03-14T10:00:00	ND	ND	ND	ND	ND	ND	ND	17.1	ND	ND	ND	0
36156	2014-03-14T11:00:00	ND	ND	ND	ND	ND	ND	ND	11.9	ND	ND	ND	0
36157	2014-03-14T12:00:00	ND	ND	ND	ND	ND	ND	ND	50.2	ND	ND	ND	0
36158	2014-03-14T13:00:00	ND	ND	ND	ND	ND	ND	ND	38.4	ND	ND	ND	0
36159	2014-03-14T14:00:00	ND	ND	ND	ND	ND	ND	ND	17.5	ND	ND	ND	0
36160	2014-03-14T15:00:00	ND	ND	ND	ND	ND	ND	ND	49.2	ND	ND	ND	0
36161	2014-03-14T16:00:00	ND	ND	ND	ND	ND	ND	ND	76.8	ND	ND	ND	0
36162	2014-03-14T17:00:00	ND	ND	ND	ND	ND	ND	ND	139	ND	ND	ND	0
36163	2014-03-14T18:00:00	ND	ND	ND	ND	ND	ND	ND	157.3	ND	ND	ND	0
36164	2014-03-14T19:00:00	ND	ND	ND	ND	ND	ND	ND	158.1	ND	ND	ND	0
36165	2014-03-14T20:00:00	ND	ND	ND	ND	ND	ND	ND	157.8	ND	ND	ND	0
36166	2014-03-14T21:00:00	ND	ND	ND	ND	ND	ND	ND	182.1	ND	ND	ND	0
36167	2014-03-14T22:00:00	ND	ND	ND	ND	ND	ND	ND	162.7	ND	ND	ND	0
36168	2014-03-14T23:00:00	ND	ND	ND	ND	ND	ND	ND	105.9	ND	ND	ND	0
36169	2014-03-15T00:00:00	ND	ND	ND	ND	ND	ND	ND	61.1	ND	ND	ND	0
36170	2014-03-15T01:00:00	ND	ND	ND	ND	ND	ND	ND	41.9	ND	ND	ND	0
36171	2014-03-15T02:00:00	ND	ND	ND	ND	ND	ND	ND	87.8	ND	ND	ND	0
36172	2014-03-15T03:00:00	ND	ND	ND	ND	ND	ND	ND	75.2	ND	ND	ND	0
36173	2014-03-15T04:00:00	ND	ND	ND	ND	ND	ND	ND	92	ND	ND	ND	0
36174	2014-03-15T05:00:00	ND	ND	ND	ND	ND	ND	ND	4.3	ND	ND	ND	0
36175	2014-03-15T06:00:00	ND	ND	ND	ND	ND	ND	ND	98.5	ND	ND	ND	0
36176	2014-03-15T07:00:00	ND	ND	ND	ND	ND	ND	ND	112.4	ND	ND	ND	0
36177	2014-03-15T08:00:00	ND	ND	ND	ND	ND	ND	ND	42.5	ND	ND	ND	0
36178	2014-03-15T09:00:00	ND	ND	ND	ND	ND	ND	ND	52.9	ND	ND	ND	0
36179	2014-03-15T10:00:00	ND	ND	ND	ND	ND	ND	ND	52.7	ND	ND	ND	0
36180	2014-03-15T11:00:00	ND	ND	ND	ND	ND	ND	ND	66.9	ND	ND	ND	0
36181	2014-03-15T12:00:00	ND	ND	ND	ND	ND	ND	ND	55.1	ND	ND	ND	0
36182	2014-03-15T13:00:00	ND	ND	ND	ND	ND	ND	ND	137.8	ND	ND	ND	0
36183	2014-03-15T14:00:00	ND	ND	ND	ND	ND	ND	ND	8.6	ND	ND	ND	0
36184	2014-03-15T15:00:00	ND	ND	ND	ND	ND	ND	ND	168.3	ND	ND	ND	0
36185	2014-03-15T16:00:00	ND	ND	ND	ND	ND	ND	ND	159.5	ND	ND	ND	0
36186	2014-03-15T17:00:00	ND	ND	ND	ND	ND	ND	ND	165.1	ND	ND	ND	0
36187	2014-03-15T18:00:00	ND	ND	ND	ND	ND	ND	ND	14.1	ND	ND	ND	0
36188	2014-03-15T19:00:00	ND	ND	ND	ND	ND	ND	ND	352.2	ND	ND	ND	0
36189	2014-03-15T20:00:00	ND	ND	ND	ND	ND	ND	ND	336.4	ND	ND	ND	0.76
36190	2014-03-15T21:00:00	ND	ND	ND	ND	ND	ND	ND	158	ND	ND	ND	6.35
36191	2014-03-15T22:00:00	ND	ND	ND	ND	ND	ND	ND	30.9	ND	ND	ND	5.59
36192	2014-03-15T23:00:00	ND	ND	ND	ND	ND	ND	ND	56.5	ND	ND	ND	0
36193	2014-03-16T00:00:00	ND	ND	ND	ND	ND	ND	ND	113.1	ND	ND	ND	0
36194	2014-03-16T01:00:00	ND	ND	ND	ND	ND	ND	ND	102	ND	ND	ND	0
36195	2014-03-16T02:00:00	ND	ND	ND	ND	ND	ND	ND	293.5	ND	ND	ND	0
36196	2014-03-16T03:00:00	ND	ND	ND	ND	ND	ND	ND	222.4	ND	ND	ND	0.25
36197	2014-03-16T04:00:00	ND	ND	ND	ND	ND	ND	ND	258.9	ND	ND	ND	0
36198	2014-03-16T05:00:00	ND	ND	ND	ND	ND	ND	ND	133.4	ND	ND	ND	0
36199	2014-03-16T06:00:00	ND	ND	ND	ND	ND	ND	ND	63.1	ND	ND	ND	0
36200	2014-03-16T07:00:00	ND	ND	ND	ND	ND	ND	ND	183.6	ND	ND	ND	0
36201	2014-03-16T08:00:00	ND	ND	ND	ND	ND	ND	ND	31.5	ND	ND	ND	0
36202	2014-03-16T09:00:00	ND	ND	ND	ND	ND	ND	ND	11.7	ND	ND	ND	0
36203	2014-03-16T10:00:00	ND	ND	ND	ND	ND	ND	ND	40.8	ND	ND	ND	0
36204	2014-03-16T11:00:00	ND	ND	ND	ND	ND	ND	ND	45.2	ND	ND	ND	0
36205	2014-03-16T12:00:00	ND	ND	ND	ND	ND	ND	ND	35.5	ND	ND	ND	0
36206	2014-03-16T13:00:00	ND	ND	ND	ND	ND	ND	ND	39.8	ND	ND	ND	0
36207	2014-03-16T14:00:00	ND	ND	ND	ND	ND	ND	ND	352.9	ND	ND	ND	0
36208	2014-03-16T15:00:00	ND	ND	ND	ND	ND	ND	ND	190.9	ND	ND	ND	0
36209	2014-03-16T16:00:00	ND	ND	ND	ND	ND	ND	ND	166.3	ND	ND	ND	0
36210	2014-03-16T17:00:00	ND	ND	ND	ND	ND	ND	ND	163.9	ND	ND	ND	0
36211	2014-03-16T18:00:00	ND	ND	ND	ND	ND	ND	ND	169.5	ND	ND	ND	0
36212	2014-03-16T19:00:00	ND	ND	ND	ND	ND	ND	ND	170.8	ND	ND	ND	0
36213	2014-03-16T20:00:00	ND	ND	ND	ND	ND	ND	ND	171.7	ND	ND	ND	0
36214	2014-03-16T21:00:00	ND	ND	ND	ND	ND	ND	ND	111.2	ND	ND	ND	0
36215	2014-03-16T22:00:00	ND	ND	ND	ND	ND	ND	ND	93.1	ND	ND	ND	0
36216	2014-03-16T23:00:00	ND	ND	ND	ND	ND	ND	ND	47.4	ND	ND	ND	0
36217	2014-03-17T00:00:00	ND	ND	ND	ND	ND	ND	ND	38.3	ND	ND	ND	0
36218	2014-03-17T01:00:00	ND	ND	ND	ND	ND	ND	ND	25.5	ND	ND	ND	0
36219	2014-03-17T02:00:00	ND	ND	ND	ND	ND	ND	ND	0.6	ND	ND	ND	0
36220	2014-03-17T03:00:00	ND	ND	ND	ND	ND	ND	ND	34.5	ND	ND	ND	0
36221	2014-03-17T04:00:00	ND	ND	ND	ND	ND	ND	ND	69.9	ND	ND	ND	0
36222	2014-03-17T05:00:00	ND	ND	ND	ND	ND	ND	ND	355.9	ND	ND	ND	0
36223	2014-03-17T06:00:00	ND	ND	ND	ND	ND	ND	ND	338.1	ND	ND	ND	0
36224	2014-03-17T07:00:00	ND	ND	ND	ND	ND	ND	ND	345	ND	ND	ND	0
36225	2014-03-17T08:00:00	ND	ND	ND	ND	ND	ND	ND	3.3	ND	ND	ND	0
36226	2014-03-17T09:00:00	ND	ND	ND	ND	ND	ND	ND	348.8	ND	ND	ND	0
36227	2014-03-17T10:00:00	ND	ND	ND	ND	ND	ND	ND	0	ND	ND	ND	0
36228	2014-03-17T11:00:00	ND	ND	ND	ND	ND	ND	ND	11.4	ND	ND	ND	0
36229	2014-03-17T12:00:00	ND	ND	ND	ND	ND	ND	ND	25.3	ND	ND	ND	0
36230	2014-03-17T13:00:00	ND	ND	ND	ND	ND	ND	ND	6.9	ND	ND	ND	0
36231	2014-03-17T14:00:00	ND	ND	ND	ND	ND	ND	ND	197.4	ND	ND	ND	0
36232	2014-03-17T15:00:00	ND	ND	ND	ND	ND	ND	ND	165.8	ND	ND	ND	0
36233	2014-03-17T16:00:00	ND	ND	ND	ND	ND	ND	ND	166.8	ND	ND	ND	0
36234	2014-03-17T17:00:00	ND	ND	ND	ND	ND	ND	ND	173.2	ND	ND	ND	0
36235	2014-03-17T18:00:00	ND	ND	ND	ND	ND	ND	ND	164.6	ND	ND	ND	0
36236	2014-03-17T19:00:00	ND	ND	ND	ND	ND	ND	ND	172.1	ND	ND	ND	0
36237	2014-03-17T20:00:00	ND	ND	ND	ND	ND	ND	ND	153.3	ND	ND	ND	0
36238	2014-03-17T21:00:00	ND	ND	ND	ND	ND	ND	ND	141.5	ND	ND	ND	0
36239	2014-03-17T22:00:00	ND	ND	ND	ND	ND	ND	ND	150.5	ND	ND	ND	0
36240	2014-03-17T23:00:00	ND	ND	ND	ND	ND	ND	ND	149.2	ND	ND	ND	0
36241	2014-03-18T00:00:00	ND	ND	ND	ND	ND	ND	ND	5.5	ND	ND	ND	0
36242	2014-03-18T01:00:00	ND	ND	ND	ND	ND	ND	ND	5	ND	ND	ND	0
36243	2014-03-18T02:00:00	ND	ND	ND	ND	ND	ND	ND	5	ND	ND	ND	0
36244	2014-03-18T03:00:00	ND	ND	ND	ND	ND	ND	ND	6.5	ND	ND	ND	0
36245	2014-03-18T04:00:00	ND	ND	ND	ND	ND	ND	ND	0.5	ND	ND	ND	0
36246	2014-03-18T05:00:00	ND	ND	ND	ND	ND	ND	ND	63.4	ND	ND	ND	0
36247	2014-03-18T06:00:00	ND	ND	ND	ND	ND	ND	ND	45.2	ND	ND	ND	0
36248	2014-03-18T07:00:00	ND	ND	ND	ND	ND	ND	ND	5.7	ND	ND	ND	0
36249	2014-03-18T08:00:00	ND	ND	ND	ND	ND	ND	ND	33.5	ND	ND	ND	0
36250	2014-03-18T09:00:00	ND	ND	ND	ND	ND	ND	ND	25	ND	ND	ND	0
36251	2014-03-18T10:00:00	ND	ND	ND	ND	ND	ND	ND	19.9	ND	ND	ND	0
36252	2014-03-18T11:00:00	ND	ND	ND	ND	ND	ND	ND	12.9	ND	ND	ND	0
36253	2014-03-18T12:00:00	ND	ND	ND	ND	ND	ND	ND	14.3	ND	ND	ND	0
36254	2014-03-18T13:00:00	ND	ND	ND	ND	ND	ND	ND	11.9	ND	ND	ND	0
36255	2014-03-18T14:00:00	ND	ND	ND	ND	ND	ND	ND	188.8	ND	ND	ND	0
36256	2014-03-18T15:00:00	ND	ND	ND	ND	ND	ND	ND	166.7	ND	ND	ND	0
36257	2014-03-18T16:00:00	ND	ND	ND	ND	ND	ND	ND	164.3	ND	ND	ND	0
36258	2014-03-18T17:00:00	ND	ND	ND	ND	ND	ND	ND	171.8	ND	ND	ND	0
36259	2014-03-18T18:00:00	ND	ND	ND	ND	ND	ND	ND	172.4	ND	ND	ND	0
36260	2014-03-18T19:00:00	ND	ND	ND	ND	ND	ND	ND	176.5	ND	ND	ND	0
36261	2014-03-18T20:00:00	ND	ND	ND	ND	ND	ND	ND	114.8	ND	ND	ND	0
36262	2014-03-18T21:00:00	ND	ND	ND	ND	ND	ND	ND	82	ND	ND	ND	0
36263	2014-03-18T22:00:00	ND	ND	ND	ND	ND	ND	ND	163.5	ND	ND	ND	0
36264	2014-03-18T23:00:00	ND	ND	ND	ND	ND	ND	ND	151.3	ND	ND	ND	0
36265	2014-03-19T00:00:00	ND	ND	ND	ND	ND	ND	ND	160.3	ND	ND	ND	0
36266	2014-03-19T01:00:00	ND	ND	ND	ND	ND	ND	ND	171.5	ND	ND	ND	0
36267	2014-03-19T02:00:00	ND	ND	ND	ND	ND	ND	ND	2.9	ND	ND	ND	0
36268	2014-03-19T03:00:00	ND	ND	ND	ND	ND	ND	ND	356.8	ND	ND	ND	0
36269	2014-03-19T04:00:00	ND	ND	ND	ND	ND	ND	ND	243.1	ND	ND	ND	0
36270	2014-03-19T05:00:00	ND	ND	ND	ND	ND	ND	ND	53.2	ND	ND	ND	0
36271	2014-03-19T06:00:00	ND	ND	ND	ND	ND	ND	ND	148.4	ND	ND	ND	0
36272	2014-03-19T07:00:00	ND	ND	ND	ND	ND	ND	ND	61.7	ND	ND	ND	0
36273	2014-03-19T08:00:00	ND	ND	ND	ND	ND	ND	ND	62.3	ND	ND	ND	0
36274	2014-03-19T09:00:00	ND	ND	ND	ND	ND	ND	ND	60.3	ND	ND	ND	0
36275	2014-03-19T10:00:00	ND	ND	ND	ND	ND	ND	ND	37.4	ND	ND	ND	0
36276	2014-03-19T11:00:00	ND	ND	ND	ND	ND	ND	ND	21.8	ND	ND	ND	0
36277	2014-03-19T12:00:00	ND	ND	ND	ND	ND	ND	ND	18.4	ND	ND	ND	0
36278	2014-03-19T13:00:00	ND	ND	ND	ND	ND	ND	ND	19.1	ND	ND	ND	0
36279	2014-03-19T14:00:00	ND	ND	ND	ND	ND	ND	ND	11.5	ND	ND	ND	0
36280	2014-03-19T15:00:00	ND	ND	ND	ND	ND	ND	ND	6.1	ND	ND	ND	0
36281	2014-03-19T16:00:00	ND	ND	ND	ND	ND	ND	ND	19.1	ND	ND	ND	0
36282	2014-03-19T17:00:00	ND	ND	ND	ND	ND	ND	ND	161.4	ND	ND	ND	0
36283	2014-03-19T18:00:00	ND	ND	ND	ND	ND	ND	ND	154.1	ND	ND	ND	0
36284	2014-03-19T19:00:00	ND	ND	ND	ND	ND	ND	ND	157.4	ND	ND	ND	0
36285	2014-03-19T20:00:00	ND	ND	ND	ND	ND	ND	ND	152.8	ND	ND	ND	0
36286	2014-03-19T21:00:00	ND	ND	ND	ND	ND	ND	ND	160.2	ND	ND	ND	0
36287	2014-03-19T22:00:00	ND	ND	ND	ND	ND	ND	ND	12.4	ND	ND	ND	0
36288	2014-03-19T23:00:00	ND	ND	ND	ND	ND	ND	ND	117.4	ND	ND	ND	0
36289	2014-03-20T00:00:00	ND	ND	ND	ND	ND	ND	ND	106.4	ND	ND	ND	0
36290	2014-03-20T01:00:00	ND	ND	ND	ND	ND	ND	ND	83.5	ND	ND	ND	0
36291	2014-03-20T02:00:00	ND	ND	ND	ND	ND	ND	ND	58.1	ND	ND	ND	0
36292	2014-03-20T03:00:00	ND	ND	ND	ND	ND	ND	ND	48.5	ND	ND	ND	0
36293	2014-03-20T04:00:00	ND	ND	ND	ND	ND	ND	ND	1.8	ND	ND	ND	0
36294	2014-03-20T05:00:00	ND	ND	ND	ND	ND	ND	ND	28.6	ND	ND	ND	0
36295	2014-03-20T06:00:00	ND	ND	ND	ND	ND	ND	ND	63.7	ND	ND	ND	0
36296	2014-03-20T07:00:00	ND	ND	ND	ND	ND	ND	ND	27.7	ND	ND	ND	0
36297	2014-03-20T08:00:00	ND	ND	ND	ND	ND	ND	ND	358.9	ND	ND	ND	0
36298	2014-03-20T09:00:00	8.5	ND	ND	ND	ND	ND	ND	18.4	ND	ND	ND	0
36299	2014-03-20T10:00:00	9.8	ND	ND	ND	ND	ND	ND	52.8	ND	ND	ND	0
36300	2014-03-20T11:00:00	11.6	ND	ND	ND	ND	ND	ND	33.2	ND	ND	ND	0
36301	2014-03-20T12:00:00	7.7	ND	ND	ND	ND	ND	ND	9.5	ND	ND	ND	0
36302	2014-03-20T13:00:00	8	ND	ND	ND	ND	ND	ND	3.5	ND	ND	ND	0
36303	2014-03-20T14:00:00	6.2	ND	ND	ND	ND	ND	ND	147.3	ND	ND	ND	0
36304	2014-03-20T15:00:00	4.7	ND	ND	ND	ND	ND	ND	177.9	ND	ND	ND	0
36305	2014-03-20T16:00:00	ND	ND	ND	ND	ND	ND	ND	159.2	ND	ND	ND	0
36306	2014-03-20T17:00:00	3.7	ND	ND	ND	ND	ND	ND	169.1	ND	ND	ND	0
36307	2014-03-20T18:00:00	3.7	ND	ND	ND	ND	ND	ND	175.1	ND	ND	ND	0
36308	2014-03-20T19:00:00	2.4	ND	ND	ND	ND	ND	ND	161.6	ND	ND	ND	0
36309	2014-03-20T20:00:00	3.2	ND	ND	ND	ND	ND	ND	160.1	ND	ND	ND	0
36310	2014-03-20T21:00:00	2.7	ND	ND	ND	ND	ND	ND	106.4	ND	ND	ND	0
36311	2014-03-20T22:00:00	2.5	ND	ND	ND	ND	ND	ND	204.6	ND	ND	ND	0
36312	2014-03-20T23:00:00	24.8	ND	ND	ND	ND	ND	ND	25.7	ND	ND	ND	0
36313	2014-03-21T00:00:00	15.2	ND	ND	ND	ND	ND	ND	49.2	ND	ND	ND	0
36314	2014-03-21T01:00:00	9.6	ND	ND	ND	ND	ND	ND	30.3	ND	ND	ND	0
36315	2014-03-21T02:00:00	23.1	ND	ND	ND	ND	ND	ND	61.6	ND	ND	ND	0
36316	2014-03-21T03:00:00	13.8	ND	ND	ND	ND	ND	ND	38.1	ND	ND	ND	0
36317	2014-03-21T04:00:00	25.2	ND	ND	ND	ND	ND	ND	69.6	ND	ND	ND	0
36318	2014-03-21T05:00:00	14.3	ND	ND	ND	ND	ND	ND	98.9	ND	ND	ND	0
36319	2014-03-21T06:00:00	31.5	ND	ND	ND	ND	ND	ND	3.5	ND	ND	ND	0
36320	2014-03-21T07:00:00	52	ND	ND	ND	ND	ND	ND	30.4	ND	ND	ND	0
36321	2014-03-21T08:00:00	83.1	ND	ND	ND	ND	ND	ND	23.8	ND	ND	ND	0
36322	2014-03-21T09:00:00	54.9	ND	ND	ND	ND	ND	ND	37	ND	ND	ND	0
36323	2014-03-21T10:00:00	39.5	ND	ND	ND	ND	ND	ND	56.3	ND	ND	ND	0
36324	2014-03-21T11:00:00	20.8	ND	ND	ND	ND	ND	ND	37	ND	ND	ND	0
36325	2014-03-21T12:00:00	17.4	ND	ND	ND	ND	ND	ND	21.5	ND	ND	ND	0
36326	2014-03-21T13:00:00	10.7	ND	ND	ND	ND	ND	ND	30.6	ND	ND	ND	0
36327	2014-03-21T14:00:00	18.2	ND	ND	ND	ND	ND	ND	168.9	ND	ND	ND	0
36328	2014-03-21T15:00:00	9.1	ND	ND	ND	ND	ND	ND	170.1	ND	ND	ND	0
36329	2014-03-21T16:00:00	4.5	ND	ND	ND	ND	ND	ND	168.4	ND	ND	ND	0
36330	2014-03-21T17:00:00	3.3	ND	ND	ND	ND	ND	ND	166.5	ND	ND	ND	0
36331	2014-03-21T18:00:00	13.7	ND	ND	ND	ND	ND	ND	168.7	ND	ND	ND	0
36332	2014-03-21T19:00:00	9.9	ND	ND	ND	ND	ND	ND	157.5	ND	ND	ND	0
36333	2014-03-21T20:00:00	10.5	ND	ND	ND	ND	ND	ND	162	ND	ND	ND	0
36334	2014-03-21T21:00:00	6.4	ND	ND	ND	ND	ND	ND	80.6	ND	ND	ND	0
36335	2014-03-21T22:00:00	17.9	ND	ND	ND	ND	ND	ND	140.7	ND	ND	ND	0
36336	2014-03-21T23:00:00	10.2	ND	ND	ND	ND	ND	ND	144.6	ND	ND	ND	0
36337	2014-03-22T00:00:00	9.4	ND	ND	ND	ND	ND	ND	75.3	ND	ND	ND	0
36338	2014-03-22T01:00:00	17.3	ND	ND	ND	ND	ND	ND	78.2	ND	ND	ND	0
36339	2014-03-22T02:00:00	39.8	ND	ND	ND	ND	ND	ND	65.8	ND	ND	ND	0
36340	2014-03-22T03:00:00	20.7	ND	ND	ND	ND	ND	ND	99.1	ND	ND	ND	0
36341	2014-03-22T04:00:00	14.5	ND	ND	ND	ND	ND	ND	142.1	ND	ND	ND	0
36342	2014-03-22T05:00:00	7.9	ND	ND	ND	ND	ND	ND	165.1	ND	ND	ND	0
36343	2014-03-22T06:00:00	ND	ND	ND	ND	ND	ND	ND	162.7	ND	ND	ND	0
36344	2014-03-22T07:00:00	ND	ND	ND	ND	ND	ND	ND	3.6	ND	ND	ND	0
36345	2014-03-22T08:00:00	ND	ND	ND	ND	ND	ND	ND	36.6	ND	ND	ND	0
36346	2014-03-22T09:00:00	ND	ND	ND	ND	ND	ND	ND	35.5	ND	ND	ND	0
36347	2014-03-22T10:00:00	ND	ND	ND	ND	ND	ND	ND	51.2	ND	ND	ND	0
36348	2014-03-22T11:00:00	ND	ND	ND	ND	ND	ND	ND	30.5	ND	ND	ND	0
36349	2014-03-22T12:00:00	ND	ND	ND	ND	ND	ND	ND	41.2	ND	ND	ND	0
36350	2014-03-22T13:00:00	ND	ND	ND	ND	ND	ND	ND	44.3	ND	ND	ND	0
36351	2014-03-22T14:00:00	ND	ND	ND	ND	ND	ND	ND	19.3	ND	ND	ND	0
36352	2014-03-22T15:00:00	95.5	ND	ND	ND	ND	ND	ND	27.4	ND	ND	ND	0
36353	2014-03-22T16:00:00	56.6	ND	ND	ND	ND	ND	ND	185.4	ND	ND	ND	0
36354	2014-03-22T17:00:00	29.1	ND	ND	ND	ND	ND	ND	164.8	ND	ND	ND	0
36355	2014-03-22T18:00:00	15.5	ND	ND	ND	ND	ND	ND	157.8	ND	ND	ND	0
36356	2014-03-22T19:00:00	9.9	ND	ND	ND	ND	ND	ND	159	ND	ND	ND	0
36357	2014-03-22T20:00:00	17.4	ND	ND	ND	ND	ND	ND	161.5	ND	ND	ND	0
36358	2014-03-22T21:00:00	9.7	ND	ND	ND	ND	ND	ND	159.9	ND	ND	ND	0
36359	2014-03-22T22:00:00	12.8	ND	ND	ND	ND	ND	ND	139.1	ND	ND	ND	0
36360	2014-03-22T23:00:00	7.7	ND	ND	ND	ND	ND	ND	133.1	ND	ND	ND	0
36361	2014-03-23T00:00:00	24.3	ND	ND	ND	ND	ND	ND	13.4	ND	ND	ND	0
36362	2014-03-23T01:00:00	33.2	ND	ND	ND	ND	ND	ND	31.7	ND	ND	ND	0
36363	2014-03-23T02:00:00	49.7	ND	ND	ND	ND	ND	ND	42.6	ND	ND	ND	0
36364	2014-03-23T03:00:00	34.5	ND	ND	ND	ND	ND	ND	53.6	ND	ND	ND	0
36365	2014-03-23T04:00:00	17.9	ND	ND	ND	ND	ND	ND	112.1	ND	ND	ND	0
36366	2014-03-23T05:00:00	28.8	ND	ND	ND	ND	ND	ND	41.9	ND	ND	ND	0
36367	2014-03-23T06:00:00	32.6	ND	ND	ND	ND	ND	ND	8.1	ND	ND	ND	0
36368	2014-03-23T07:00:00	32.1	ND	ND	ND	ND	ND	ND	33.1	ND	ND	ND	0
36369	2014-03-23T08:00:00	33.6	ND	ND	ND	ND	ND	ND	96.1	ND	ND	ND	0
36370	2014-03-23T09:00:00	35.9	ND	ND	ND	ND	ND	ND	26.1	ND	ND	ND	0
36371	2014-03-23T10:00:00	50	ND	ND	ND	ND	ND	ND	3.9	ND	ND	ND	0
36372	2014-03-23T11:00:00	26.3	ND	ND	ND	ND	ND	ND	15.2	ND	ND	ND	0
36373	2014-03-23T12:00:00	21.4	ND	ND	ND	ND	ND	ND	13.4	ND	ND	ND	0
36374	2014-03-23T13:00:00	12.8	ND	ND	ND	ND	ND	ND	9.2	ND	ND	ND	0
36375	2014-03-23T14:00:00	7.1	ND	ND	ND	ND	ND	ND	230.7	ND	ND	ND	0
36376	2014-03-23T15:00:00	5.6	ND	ND	ND	ND	ND	ND	4.6	ND	ND	ND	0
36377	2014-03-23T16:00:00	5.7	ND	ND	ND	ND	ND	ND	160.7	ND	ND	ND	0
36378	2014-03-23T17:00:00	3.8	ND	ND	ND	ND	ND	ND	163.9	ND	ND	ND	0
36379	2014-03-23T18:00:00	2.3	ND	ND	ND	ND	ND	ND	164.3	ND	ND	ND	0
36380	2014-03-23T19:00:00	2.2	ND	ND	ND	ND	ND	ND	143.2	ND	ND	ND	0
36381	2014-03-23T20:00:00	ND	ND	ND	ND	ND	ND	ND	130	ND	ND	ND	0
36382	2014-03-23T21:00:00	ND	ND	ND	ND	ND	ND	ND	38.5	ND	ND	ND	0
36383	2014-03-23T22:00:00	ND	ND	ND	ND	ND	ND	ND	3.9	ND	ND	ND	0
36384	2014-03-23T23:00:00	103.1	ND	ND	ND	ND	ND	ND	15	ND	ND	ND	0
36385	2014-03-24T00:00:00	59.3	ND	ND	ND	ND	ND	ND	86.3	ND	ND	ND	0
36386	2014-03-24T01:00:00	30.2	ND	ND	ND	ND	ND	ND	87.7	ND	ND	ND	0
36387	2014-03-24T02:00:00	43.1	ND	ND	ND	ND	ND	ND	50.9	ND	ND	ND	0.76
36388	2014-03-24T03:00:00	32.3	ND	ND	ND	ND	ND	ND	50.7	ND	ND	ND	0
36389	2014-03-24T04:00:00	45.9	ND	ND	ND	ND	ND	ND	302	ND	ND	ND	0
36390	2014-03-24T05:00:00	24	ND	ND	ND	ND	ND	ND	25.5	ND	ND	ND	1.78
36391	2014-03-24T06:00:00	25.9	ND	ND	ND	ND	ND	ND	113.7	ND	ND	ND	12.45
36392	2014-03-24T07:00:00	14.9	ND	ND	ND	ND	ND	ND	67.9	ND	ND	ND	0.25
36393	2014-03-24T08:00:00	ND	ND	ND	ND	ND	ND	ND	58.6	ND	ND	ND	0
36394	2014-03-24T09:00:00	ND	ND	ND	ND	ND	ND	ND	29.4	ND	ND	ND	0
36395	2014-03-24T10:00:00	ND	ND	ND	ND	ND	ND	ND	17.8	ND	ND	ND	0.25
36396	2014-03-24T11:00:00	ND	ND	ND	ND	ND	ND	ND	354.4	ND	ND	ND	0
36397	2014-03-24T12:00:00	ND	ND	ND	ND	ND	ND	ND	55.2	ND	ND	ND	0
36398	2014-03-24T13:00:00	ND	ND	ND	ND	ND	ND	ND	195.4	ND	ND	ND	0
36399	2014-03-24T14:00:00	ND	ND	ND	ND	ND	ND	ND	182.8	ND	ND	ND	0
36400	2014-03-24T15:00:00	ND	ND	ND	ND	ND	ND	ND	168.6	ND	ND	ND	0
36401	2014-03-24T16:00:00	89.8	ND	ND	ND	ND	ND	ND	167.8	ND	ND	ND	0
36402	2014-03-24T17:00:00	46.3	ND	ND	ND	ND	ND	ND	154.2	ND	ND	ND	0
36403	2014-03-24T18:00:00	125	ND	ND	ND	ND	ND	ND	152.7	ND	ND	ND	0
36404	2014-03-24T19:00:00	62.5	ND	ND	ND	ND	ND	ND	82.8	ND	ND	ND	0
36405	2014-03-24T20:00:00	36.6	ND	ND	ND	ND	ND	ND	359.9	ND	ND	ND	0
36406	2014-03-24T21:00:00	19.1	ND	ND	ND	ND	ND	ND	205.7	ND	ND	ND	0
36407	2014-03-24T22:00:00	22.2	ND	ND	ND	ND	ND	ND	132.3	ND	ND	ND	0
36408	2014-03-24T23:00:00	16.2	ND	ND	ND	ND	ND	ND	83.1	ND	ND	ND	0
36409	2014-03-25T00:00:00	19.3	ND	ND	ND	ND	ND	ND	60.5	ND	ND	ND	0
36410	2014-03-25T01:00:00	11.1	ND	ND	ND	ND	ND	ND	62.3	ND	ND	ND	0
36411	2014-03-25T02:00:00	7.5	ND	ND	ND	ND	ND	ND	26.2	ND	ND	ND	0
36412	2014-03-25T03:00:00	5.2	ND	ND	ND	ND	ND	ND	32.9	ND	ND	ND	0
36413	2014-03-25T04:00:00	16.2	ND	ND	ND	ND	ND	ND	5.1	ND	ND	ND	0
36414	2014-03-25T05:00:00	21.5	ND	ND	ND	ND	ND	ND	357.2	ND	ND	ND	0
36415	2014-03-25T06:00:00	24.1	ND	ND	ND	ND	ND	ND	1.9	ND	ND	ND	0
36416	2014-03-25T07:00:00	21.6	ND	ND	ND	ND	ND	ND	5.2	ND	ND	ND	0
36417	2014-03-25T08:00:00	58.6	ND	ND	ND	ND	ND	ND	350.6	ND	ND	ND	0
36418	2014-03-25T09:00:00	62.9	ND	ND	ND	ND	ND	ND	37.5	ND	ND	ND	0
36419	2014-03-25T10:00:00	74.7	ND	ND	ND	ND	ND	ND	54.1	ND	ND	ND	0
36420	2014-03-25T11:00:00	56.4	ND	ND	ND	ND	ND	ND	30.9	ND	ND	ND	0
36421	2014-03-25T12:00:00	41.1	ND	ND	ND	ND	ND	ND	29.9	ND	ND	ND	0
36422	2014-03-25T13:00:00	22.8	ND	ND	ND	ND	ND	ND	47.2	ND	ND	ND	0
36423	2014-03-25T14:00:00	44.5	ND	ND	ND	ND	ND	ND	40.5	ND	ND	ND	0
36424	2014-03-25T15:00:00	37.4	ND	ND	ND	ND	ND	ND	16.1	ND	ND	ND	0
36425	2014-03-25T16:00:00	52.6	ND	ND	ND	ND	ND	ND	345.8	ND	ND	ND	0
36426	2014-03-25T17:00:00	44.2	ND	ND	ND	ND	ND	ND	183.1	ND	ND	ND	0
36427	2014-03-25T18:00:00	34.5	ND	ND	ND	ND	ND	ND	159	ND	ND	ND	0
36428	2014-03-25T19:00:00	18.7	ND	ND	ND	ND	ND	ND	154.9	ND	ND	ND	0
36429	2014-03-25T20:00:00	10.2	ND	ND	ND	ND	ND	ND	152.8	ND	ND	ND	0
36430	2014-03-25T21:00:00	8.4	ND	ND	ND	ND	ND	ND	82.9	ND	ND	ND	0
36431	2014-03-25T22:00:00	11.8	ND	ND	ND	ND	ND	ND	89	ND	ND	ND	0.51
36432	2014-03-25T23:00:00	7.3	ND	ND	ND	ND	ND	ND	68	ND	ND	ND	1.27
36433	2014-03-26T00:00:00	7.1	ND	ND	ND	ND	ND	ND	126.7	ND	ND	ND	0.25
36434	2014-03-26T01:00:00	5.6	ND	ND	ND	ND	ND	ND	2.4	ND	ND	ND	0
36435	2014-03-26T02:00:00	4.7	ND	ND	ND	ND	ND	ND	50.8	ND	ND	ND	0
36436	2014-03-26T03:00:00	3.6	ND	ND	ND	ND	ND	ND	25.5	ND	ND	ND	0
36437	2014-03-26T04:00:00	11.4	ND	ND	ND	ND	ND	ND	65.3	ND	ND	ND	0
36438	2014-03-26T05:00:00	7.7	ND	ND	ND	ND	ND	ND	61.3	ND	ND	ND	0
36439	2014-03-26T06:00:00	ND	ND	ND	ND	ND	ND	ND	4.8	ND	ND	ND	0
36440	2014-03-26T07:00:00	ND	ND	ND	ND	ND	ND	ND	5.8	ND	ND	ND	0
36441	2014-03-26T08:00:00	ND	ND	ND	ND	ND	ND	ND	3.6	ND	ND	ND	0
36442	2014-03-26T09:00:00	ND	ND	ND	ND	ND	ND	ND	6.5	ND	ND	ND	0
36443	2014-03-26T10:00:00	ND	ND	ND	ND	ND	ND	ND	35.9	ND	ND	ND	8.38
36444	2014-03-26T11:00:00	116.9	ND	ND	ND	ND	ND	ND	84.5	ND	ND	ND	2.29
36445	2014-03-26T12:00:00	70.3	ND	ND	ND	ND	ND	ND	41.9	ND	ND	ND	0
36446	2014-03-26T13:00:00	36.1	ND	ND	ND	ND	ND	ND	297.6	ND	ND	ND	0
36447	2014-03-26T14:00:00	34.8	ND	ND	ND	ND	ND	ND	4	ND	ND	ND	0
36448	2014-03-26T15:00:00	22.4	ND	ND	ND	ND	ND	ND	4.8	ND	ND	ND	0.51
36449	2014-03-26T16:00:00	29.4	ND	ND	ND	ND	ND	ND	14.9	ND	ND	ND	4.32
36450	2014-03-26T17:00:00	15.6	ND	ND	ND	ND	ND	ND	78.7	ND	ND	ND	0
36451	2014-03-26T18:00:00	9.8	ND	ND	ND	ND	ND	ND	89.3	ND	ND	ND	0
36452	2014-03-26T19:00:00	5.9	ND	ND	ND	ND	ND	ND	66.9	ND	ND	ND	0.25
36453	2014-03-26T20:00:00	42.8	ND	ND	ND	ND	ND	ND	16.2	ND	ND	ND	0
36454	2014-03-26T21:00:00	33.4	ND	ND	ND	ND	ND	ND	350.9	ND	ND	ND	0
36455	2014-03-26T22:00:00	55.5	ND	ND	ND	ND	ND	ND	46.1	ND	ND	ND	0
36456	2014-03-26T23:00:00	35.2	ND	ND	ND	ND	ND	ND	33.9	ND	ND	ND	0
36457	2014-03-27T00:00:00	39	ND	ND	ND	ND	ND	ND	3.5	ND	ND	ND	0
36458	2014-03-27T01:00:00	37.1	ND	ND	ND	ND	ND	ND	170	ND	ND	ND	0
36459	2014-03-27T02:00:00	42.6	ND	ND	ND	ND	ND	ND	35.3	ND	ND	ND	0
36460	2014-03-27T03:00:00	40.2	ND	ND	ND	ND	ND	ND	36	ND	ND	ND	0
36461	2014-03-27T04:00:00	30	ND	ND	ND	ND	ND	ND	83.5	ND	ND	ND	0
36462	2014-03-27T05:00:00	32	ND	ND	ND	ND	ND	ND	35.8	ND	ND	ND	0
36463	2014-03-27T06:00:00	53.2	ND	ND	ND	ND	ND	ND	54.7	ND	ND	ND	0
36464	2014-03-27T07:00:00	39.9	ND	ND	ND	ND	ND	ND	109.2	ND	ND	ND	0
36465	2014-03-27T08:00:00	83	ND	ND	ND	ND	ND	ND	4.2	ND	ND	ND	0
36466	2014-03-27T09:00:00	92.7	ND	ND	ND	ND	ND	ND	51.4	ND	ND	ND	0
36467	2014-03-27T10:00:00	72.8	ND	ND	ND	ND	ND	ND	33	ND	ND	ND	0
36468	2014-03-27T11:00:00	50.4	ND	ND	ND	ND	ND	ND	40.5	ND	ND	ND	0
36469	2014-03-27T12:00:00	44.8	ND	ND	ND	ND	ND	ND	31.8	ND	ND	ND	0
36470	2014-03-27T13:00:00	48.2	ND	ND	ND	ND	ND	ND	19.1	ND	ND	ND	0
36471	2014-03-27T14:00:00	32.4	ND	ND	ND	ND	ND	ND	13.5	ND	ND	ND	0
36472	2014-03-27T15:00:00	36.2	ND	ND	ND	ND	ND	ND	13.6	ND	ND	ND	0
36473	2014-03-27T16:00:00	41.8	ND	ND	ND	ND	ND	ND	6.4	ND	ND	ND	0
36474	2014-03-27T17:00:00	ND	ND	ND	ND	ND	ND	ND	6.1	ND	ND	ND	0
36475	2014-03-27T18:00:00	ND	ND	ND	ND	ND	ND	ND	4.2	ND	ND	ND	0
36476	2014-03-27T19:00:00	ND	ND	ND	ND	ND	ND	ND	156.1	ND	ND	ND	0
36477	2014-03-27T20:00:00	ND	ND	ND	ND	ND	ND	ND	159.2	ND	ND	ND	0
36478	2014-03-27T21:00:00	138.6	ND	ND	ND	ND	ND	ND	157.6	ND	ND	ND	0
36479	2014-03-27T22:00:00	83	ND	ND	ND	ND	ND	ND	166.7	ND	ND	ND	0
36480	2014-03-27T23:00:00	76.7	ND	ND	ND	ND	ND	ND	74.9	ND	ND	ND	0
36481	2014-03-28T00:00:00	115.7	ND	ND	ND	ND	ND	ND	61.2	ND	ND	ND	0
36482	2014-03-28T01:00:00	63.2	ND	ND	ND	ND	ND	ND	80.9	ND	ND	ND	0
36483	2014-03-28T02:00:00	50.9	ND	ND	ND	ND	ND	ND	137.1	ND	ND	ND	0
36484	2014-03-28T03:00:00	30.5	ND	ND	ND	ND	ND	ND	150.1	ND	ND	ND	0
36485	2014-03-28T04:00:00	35.5	ND	ND	ND	ND	ND	ND	8.7	ND	ND	ND	0
36486	2014-03-28T05:00:00	45.7	ND	ND	ND	ND	ND	ND	6.2	ND	ND	ND	0
36487	2014-03-28T06:00:00	ND	ND	ND	ND	ND	ND	ND	356.8	ND	ND	ND	0
36488	2014-03-28T07:00:00	ND	ND	ND	ND	ND	ND	ND	358.9	ND	ND	ND	0
36489	2014-03-28T08:00:00	ND	ND	ND	ND	ND	ND	ND	1.8	ND	ND	ND	0
36490	2014-03-28T09:00:00	ND	ND	ND	ND	ND	ND	ND	7.4	ND	ND	ND	0
36491	2014-03-28T10:00:00	ND	ND	ND	ND	ND	ND	ND	16.7	ND	ND	ND	0
36492	2014-03-28T11:00:00	ND	ND	ND	ND	ND	ND	ND	28	ND	ND	ND	0
36493	2014-03-28T12:00:00	ND	ND	ND	ND	ND	ND	ND	27.2	ND	ND	ND	0
36494	2014-03-28T13:00:00	ND	ND	ND	ND	ND	ND	ND	18.1	ND	ND	ND	0
36495	2014-03-28T14:00:00	ND	ND	ND	ND	ND	ND	ND	25.4	ND	ND	ND	0
36496	2014-03-28T15:00:00	ND	ND	ND	ND	ND	ND	ND	95.1	ND	ND	ND	0
36497	2014-03-28T16:00:00	ND	ND	ND	ND	ND	ND	ND	165.7	ND	ND	ND	0
36498	2014-03-28T17:00:00	130.9	ND	ND	ND	ND	ND	ND	167.4	ND	ND	ND	0
36499	2014-03-28T18:00:00	87.7	ND	ND	ND	ND	ND	ND	160.8	ND	ND	ND	0
36500	2014-03-28T19:00:00	45.9	ND	ND	ND	ND	ND	ND	157.5	ND	ND	ND	0
36501	2014-03-28T20:00:00	30.9	ND	ND	ND	ND	ND	ND	175	ND	ND	ND	0
36502	2014-03-28T21:00:00	17	ND	ND	ND	ND	ND	ND	185.5	ND	ND	ND	0
36503	2014-03-28T22:00:00	9.2	ND	ND	ND	ND	ND	ND	157.6	ND	ND	ND	0
36504	2014-03-28T23:00:00	6.1	ND	ND	ND	ND	ND	ND	151	ND	ND	ND	0
36505	2014-03-29T00:00:00	14	ND	ND	ND	ND	ND	ND	128.5	ND	ND	ND	0
36506	2014-03-29T01:00:00	14.3	ND	ND	ND	ND	ND	ND	88.3	ND	ND	ND	0
36507	2014-03-29T02:00:00	22.1	ND	ND	ND	ND	ND	ND	358.6	ND	ND	ND	0
36508	2014-03-29T03:00:00	15.4	ND	ND	ND	ND	ND	ND	141.6	ND	ND	ND	0
36509	2014-03-29T04:00:00	35.8	ND	ND	ND	ND	ND	ND	59.3	ND	ND	ND	0
36510	2014-03-29T05:00:00	20.5	ND	ND	ND	ND	ND	ND	54.6	ND	ND	ND	0
36511	2014-03-29T06:00:00	29.8	ND	ND	ND	ND	ND	ND	42.4	ND	ND	ND	0
36512	2014-03-29T07:00:00	34.4	ND	ND	ND	ND	ND	ND	113.2	ND	ND	ND	0
36513	2014-03-29T08:00:00	36.6	ND	ND	ND	ND	ND	ND	86	ND	ND	ND	0
36514	2014-03-29T09:00:00	29.4	ND	ND	ND	ND	ND	ND	84.2	ND	ND	ND	0
36515	2014-03-29T10:00:00	25	ND	ND	ND	ND	ND	ND	29.9	ND	ND	ND	0
36516	2014-03-29T11:00:00	25.4	ND	ND	ND	ND	ND	ND	12.8	ND	ND	ND	0
36517	2014-03-29T12:00:00	34	ND	ND	ND	ND	ND	ND	48.4	ND	ND	ND	0
36518	2014-03-29T13:00:00	21	ND	ND	ND	ND	ND	ND	25.4	ND	ND	ND	0
36519	2014-03-29T14:00:00	37.2	ND	ND	ND	ND	ND	ND	154.3	ND	ND	ND	0
36520	2014-03-29T15:00:00	18.6	ND	ND	ND	ND	ND	ND	165.2	ND	ND	ND	0
36521	2014-03-29T16:00:00	9.3	ND	ND	ND	ND	ND	ND	166.5	ND	ND	ND	0
36522	2014-03-29T17:00:00	ND	ND	ND	ND	ND	ND	ND	165.6	ND	ND	ND	0
36523	2014-03-29T18:00:00	ND	ND	ND	ND	ND	ND	ND	155	ND	ND	ND	0
36524	2014-03-29T19:00:00	ND	ND	ND	ND	ND	ND	ND	159.4	ND	ND	ND	0
36525	2014-03-29T20:00:00	ND	ND	ND	ND	ND	ND	ND	160.1	ND	ND	ND	0
36526	2014-03-29T21:00:00	ND	ND	ND	ND	ND	ND	ND	153.2	ND	ND	ND	0
36527	2014-03-29T22:00:00	ND	ND	ND	ND	ND	ND	ND	156.8	ND	ND	ND	0
36528	2014-03-29T23:00:00	ND	ND	ND	ND	ND	ND	ND	162.2	ND	ND	ND	0
36529	2014-03-30T00:00:00	ND	ND	ND	ND	ND	ND	ND	93.2	ND	ND	ND	0
36530	2014-03-30T01:00:00	188.1	ND	ND	ND	ND	ND	ND	126	ND	ND	ND	0
36531	2014-03-30T02:00:00	123.8	ND	ND	ND	ND	ND	ND	14.5	ND	ND	ND	0
36532	2014-03-30T03:00:00	63.6	ND	ND	ND	ND	ND	ND	30.3	ND	ND	ND	0
36533	2014-03-30T04:00:00	54.4	ND	ND	ND	ND	ND	ND	39.7	ND	ND	ND	0
36534	2014-03-30T05:00:00	48.6	ND	ND	ND	ND	ND	ND	26	ND	ND	ND	0
36535	2014-03-30T06:00:00	42.4	ND	ND	ND	ND	ND	ND	322.9	ND	ND	ND	0
36536	2014-03-30T07:00:00	29.2	ND	ND	ND	ND	ND	ND	155.9	ND	ND	ND	0
36537	2014-03-30T08:00:00	38	ND	ND	ND	ND	ND	ND	74.1	ND	ND	ND	0
36538	2014-03-30T09:00:00	38.8	ND	ND	ND	ND	ND	ND	20.2	ND	ND	ND	0
36539	2014-03-30T10:00:00	58.5	ND	ND	ND	ND	ND	ND	231.2	ND	ND	ND	0
36540	2014-03-30T11:00:00	31	ND	ND	ND	ND	ND	ND	20	ND	ND	ND	0
36541	2014-03-30T12:00:00	24.1	ND	ND	ND	ND	ND	ND	353.5	ND	ND	ND	0
36542	2014-03-30T13:00:00	14.2	ND	ND	ND	ND	ND	ND	351.3	ND	ND	ND	0
36543	2014-03-30T14:00:00	10.1	ND	ND	ND	ND	ND	ND	183.4	ND	ND	ND	0
36544	2014-03-30T15:00:00	6.8	ND	ND	ND	ND	ND	ND	185.3	ND	ND	ND	0
36545	2014-03-30T16:00:00	4.5	ND	ND	ND	ND	ND	ND	180.8	ND	ND	ND	0
36546	2014-03-30T17:00:00	4.3	ND	ND	ND	ND	ND	ND	166.7	ND	ND	ND	0
36547	2014-03-30T18:00:00	23.4	ND	ND	ND	ND	ND	ND	125.4	ND	ND	ND	0
36548	2014-03-30T19:00:00	12.3	ND	ND	ND	ND	ND	ND	142.8	ND	ND	ND	0
36549	2014-03-30T20:00:00	8.3	ND	ND	ND	ND	ND	ND	147.5	ND	ND	ND	0
36550	2014-03-30T21:00:00	11.4	ND	ND	ND	ND	ND	ND	122.5	ND	ND	ND	0
36551	2014-03-30T22:00:00	6.5	ND	ND	ND	ND	ND	ND	165.4	ND	ND	ND	0
36552	2014-03-30T23:00:00	15.5	ND	ND	ND	ND	ND	ND	113	ND	ND	ND	0
36553	2014-03-31T00:00:00	12.3	ND	ND	ND	ND	ND	ND	42.8	ND	ND	ND	0
36554	2014-03-31T01:00:00	7.2	ND	ND	ND	ND	ND	ND	46.4	ND	ND	ND	0
36555	2014-03-31T02:00:00	4.7	ND	ND	ND	ND	ND	ND	125.3	ND	ND	ND	0
36556	2014-03-31T03:00:00	3	ND	ND	ND	ND	ND	ND	124.9	ND	ND	ND	0
36557	2014-03-31T04:00:00	2.3	ND	ND	ND	ND	ND	ND	162.3	ND	ND	ND	0
36558	2014-03-31T05:00:00	25.2	ND	ND	ND	ND	ND	ND	4.9	ND	ND	ND	0
36559	2014-03-31T06:00:00	25.4	ND	ND	ND	ND	ND	ND	87.8	ND	ND	ND	0
36560	2014-03-31T07:00:00	25.8	ND	ND	ND	ND	ND	ND	167.3	ND	ND	ND	0
36561	2014-03-31T08:00:00	61.2	ND	ND	ND	ND	ND	ND	354.7	ND	ND	ND	0
36562	2014-03-31T09:00:00	66.9	ND	ND	ND	ND	ND	ND	13.2	ND	ND	ND	0
36563	2014-03-31T10:00:00	54.3	ND	ND	ND	ND	ND	ND	27	ND	ND	ND	0
36564	2014-03-31T11:00:00	29	ND	ND	ND	ND	ND	ND	61.6	ND	ND	ND	0
36565	2014-03-31T12:00:00	41.2	ND	ND	ND	ND	ND	ND	15	ND	ND	ND	0
36566	2014-03-31T13:00:00	56.5	ND	ND	ND	ND	ND	ND	10.6	ND	ND	ND	0
36567	2014-03-31T14:00:00	35.8	ND	ND	ND	ND	ND	ND	14.4	ND	ND	ND	0
36568	2014-03-31T15:00:00	18.4	ND	ND	ND	ND	ND	ND	39.1	ND	ND	ND	0
36569	2014-03-31T16:00:00	30	ND	ND	ND	ND	ND	ND	162.9	ND	ND	ND	0
36570	2014-03-31T17:00:00	26.6	ND	ND	ND	ND	ND	ND	163.9	ND	ND	ND	0
36571	2014-03-31T18:00:00	34.1	ND	ND	ND	ND	ND	ND	165.4	ND	ND	ND	0
36572	2014-03-31T19:00:00	29	ND	ND	ND	ND	ND	ND	157.3	ND	ND	ND	0
36573	2014-03-31T20:00:00	32.5	ND	ND	ND	ND	ND	ND	160.4	ND	ND	ND	0
36574	2014-03-31T21:00:00	18.4	ND	ND	ND	ND	ND	ND	179.5	ND	ND	ND	0
36575	2014-03-31T22:00:00	15.8	ND	ND	ND	ND	ND	ND	155.7	ND	ND	ND	0
36576	2014-03-31T23:00:00	15.2	ND	ND	ND	ND	ND	ND	5.4	ND	ND	ND	0
36577	2014-04-01T00:00:00	57.9	ND	ND	ND	ND	ND	ND	58.3	ND	ND	ND	0
36578	2014-04-01T01:00:00	30.5	ND	ND	ND	ND	ND	ND	79.6	ND	ND	ND	0
36579	2014-04-01T02:00:00	43.2	ND	ND	ND	ND	ND	ND	49.6	ND	ND	ND	0
36580	2014-04-01T03:00:00	55.9	ND	ND	ND	ND	ND	ND	116.8	ND	ND	ND	0
36581	2014-04-01T04:00:00	36.1	ND	ND	ND	ND	ND	ND	101.7	ND	ND	ND	0
36582	2014-04-01T05:00:00	30.5	ND	ND	ND	ND	ND	ND	166.1	ND	ND	ND	0
36583	2014-04-01T06:00:00	56.8	ND	ND	ND	ND	ND	ND	341.5	ND	ND	ND	0
36584	2014-04-01T07:00:00	42.4	ND	ND	ND	ND	ND	ND	52.1	ND	ND	ND	0
36585	2014-04-01T08:00:00	72.6	ND	ND	ND	ND	ND	ND	59.3	ND	ND	ND	0
36586	2014-04-01T09:00:00	60.5	ND	ND	ND	ND	ND	ND	63	ND	ND	ND	0
36587	2014-04-01T10:00:00	73.5	ND	ND	ND	ND	ND	ND	43.5	ND	ND	ND	0
36588	2014-04-01T11:00:00	60.1	ND	ND	ND	ND	ND	ND	41.6	ND	ND	ND	0
36589	2014-04-01T12:00:00	54.3	ND	ND	ND	ND	ND	ND	7	ND	ND	ND	0
36590	2014-04-01T13:00:00	42.9	ND	ND	ND	ND	ND	ND	38.2	ND	ND	ND	0
36591	2014-04-01T14:00:00	59.5	ND	ND	ND	ND	ND	ND	18.3	ND	ND	ND	0
36592	2014-04-01T15:00:00	30.8	ND	ND	ND	ND	ND	ND	11.1	ND	ND	ND	0
36593	2014-04-01T16:00:00	61.8	ND	ND	ND	ND	ND	ND	5.9	ND	ND	ND	0
36594	2014-04-01T17:00:00	35.4	ND	ND	ND	ND	ND	ND	168.5	ND	ND	ND	0
36595	2014-04-01T18:00:00	55.2	ND	ND	ND	ND	ND	ND	169.2	ND	ND	ND	0
36596	2014-04-01T19:00:00	50	ND	ND	ND	ND	ND	ND	170.6	ND	ND	ND	0
36597	2014-04-01T20:00:00	36.1	ND	ND	ND	ND	ND	ND	156.4	ND	ND	ND	0
36598	2014-04-01T21:00:00	19.4	ND	ND	ND	ND	ND	ND	170	ND	ND	ND	0
36599	2014-04-01T22:00:00	27.2	ND	ND	ND	ND	ND	ND	98.2	ND	ND	ND	0
36600	2014-04-01T23:00:00	36.7	ND	ND	ND	ND	ND	ND	78.5	ND	ND	ND	0
36601	2014-04-02T00:00:00	37.5	ND	ND	ND	ND	ND	ND	80.8	ND	ND	ND	0
36602	2014-04-02T01:00:00	37.1	ND	ND	ND	ND	ND	ND	75.1	ND	ND	ND	0
36603	2014-04-02T02:00:00	54.8	ND	ND	ND	ND	ND	ND	119.7	ND	ND	ND	0
36604	2014-04-02T03:00:00	37.7	ND	ND	ND	ND	ND	ND	38.3	ND	ND	ND	0
36605	2014-04-02T04:00:00	59.9	ND	ND	ND	ND	ND	ND	9.6	ND	ND	ND	0
36606	2014-04-02T05:00:00	34.7	ND	ND	ND	ND	ND	ND	27.9	ND	ND	ND	0
36607	2014-04-02T06:00:00	60.8	ND	ND	ND	ND	ND	ND	78.8	ND	ND	ND	0
36608	2014-04-02T07:00:00	73.1	ND	ND	ND	ND	ND	ND	12.2	ND	ND	ND	0
36609	2014-04-02T08:00:00	88.2	ND	ND	ND	ND	ND	ND	141.8	ND	ND	ND	0
36610	2014-04-02T09:00:00	108.5	ND	ND	ND	ND	ND	ND	15.2	ND	ND	ND	0
36611	2014-04-02T10:00:00	90.9	ND	ND	ND	ND	ND	ND	65.2	ND	ND	ND	0
36612	2014-04-02T11:00:00	67.9	ND	ND	ND	ND	ND	ND	53.6	ND	ND	ND	0
36613	2014-04-02T12:00:00	82.8	ND	ND	ND	ND	ND	ND	53.3	ND	ND	ND	0
36614	2014-04-02T13:00:00	51	ND	ND	ND	ND	ND	ND	31.7	ND	ND	ND	0
36615	2014-04-02T14:00:00	ND	ND	ND	ND	ND	ND	ND	11	ND	ND	ND	0
36616	2014-04-02T15:00:00	ND	ND	ND	ND	ND	ND	ND	158	ND	ND	ND	0
36617	2014-04-02T16:00:00	ND	ND	ND	ND	ND	ND	ND	168.3	ND	ND	ND	0
36618	2014-04-02T17:00:00	ND	ND	ND	ND	ND	ND	ND	173.4	ND	ND	ND	0
36619	2014-04-02T18:00:00	ND	ND	ND	ND	ND	ND	ND	165.3	ND	ND	ND	0
36620	2014-04-02T19:00:00	ND	ND	ND	ND	ND	ND	ND	157.8	ND	ND	ND	0
36621	2014-04-02T20:00:00	ND	ND	ND	ND	ND	ND	ND	158.7	ND	ND	ND	0
36622	2014-04-02T21:00:00	ND	ND	ND	ND	ND	ND	ND	163	ND	ND	ND	0
36623	2014-04-02T22:00:00	ND	ND	ND	ND	ND	ND	ND	129.5	ND	ND	ND	0
36624	2014-04-02T23:00:00	ND	ND	ND	ND	ND	ND	ND	127.5	ND	ND	ND	0
36625	2014-04-03T00:00:00	ND	ND	ND	ND	ND	ND	ND	52.6	ND	ND	ND	0
36626	2014-04-03T01:00:00	ND	ND	ND	ND	ND	ND	ND	50.1	ND	ND	ND	0
36627	2014-04-03T02:00:00	87.7	ND	ND	ND	ND	ND	ND	58.5	ND	ND	ND	0
36628	2014-04-03T03:00:00	45.7	ND	ND	ND	ND	ND	ND	106.9	ND	ND	ND	0
36629	2014-04-03T04:00:00	31.3	ND	ND	ND	ND	ND	ND	4.3	ND	ND	ND	0
36630	2014-04-03T05:00:00	31.1	ND	ND	ND	ND	ND	ND	25	ND	ND	ND	0
36631	2014-04-03T06:00:00	32.6	ND	ND	ND	ND	ND	ND	60.8	ND	ND	ND	0
36632	2014-04-03T07:00:00	26.8	ND	ND	ND	ND	ND	ND	32.1	ND	ND	ND	0
36633	2014-04-03T08:00:00	63.6	ND	ND	ND	ND	ND	ND	4.3	ND	ND	ND	0
36634	2014-04-03T09:00:00	ND	ND	ND	ND	ND	ND	ND	0.3	ND	ND	ND	0
36635	2014-04-03T10:00:00	ND	ND	ND	ND	ND	ND	ND	356.9	ND	ND	ND	0
36636	2014-04-03T11:00:00	ND	ND	ND	ND	ND	ND	ND	8.7	ND	ND	ND	0
36637	2014-04-03T12:00:00	ND	ND	ND	ND	ND	ND	ND	8.6	ND	ND	ND	0
36638	2014-04-03T13:00:00	ND	ND	ND	ND	ND	ND	ND	22.2	ND	ND	ND	0
36639	2014-04-03T14:00:00	ND	ND	ND	ND	ND	ND	ND	41	ND	ND	ND	0
36640	2014-04-03T15:00:00	ND	ND	ND	ND	ND	ND	ND	39.2	ND	ND	ND	0
36641	2014-04-03T16:00:00	ND	ND	ND	ND	ND	ND	ND	111.6	ND	ND	ND	0
36642	2014-04-03T17:00:00	ND	ND	ND	ND	ND	ND	ND	159.9	ND	ND	ND	0
36643	2014-04-03T18:00:00	ND	ND	ND	ND	ND	ND	ND	358.8	ND	ND	ND	0
36644	2014-04-03T19:00:00	ND	ND	ND	ND	ND	ND	ND	0.6	ND	ND	ND	0
36645	2014-04-03T20:00:00	143.4	ND	ND	ND	ND	ND	ND	126.4	ND	ND	ND	0
36646	2014-04-03T21:00:00	73.1	ND	ND	ND	ND	ND	ND	139.9	ND	ND	ND	0
36647	2014-04-03T22:00:00	66.9	ND	ND	ND	ND	ND	ND	42.4	ND	ND	ND	0
36648	2014-04-03T23:00:00	53.4	ND	ND	ND	ND	ND	ND	4.1	ND	ND	ND	0
36649	2014-04-04T00:00:00	57.1	ND	ND	ND	ND	ND	ND	67.3	ND	ND	ND	0
36650	2014-04-04T01:00:00	41.7	ND	ND	ND	ND	ND	ND	82.7	ND	ND	ND	0
36651	2014-04-04T02:00:00	27.4	ND	ND	ND	ND	ND	ND	146.1	ND	ND	ND	0
36652	2014-04-04T03:00:00	15.7	ND	ND	ND	ND	ND	ND	150.6	ND	ND	ND	0
36653	2014-04-04T04:00:00	11	ND	ND	ND	ND	ND	ND	155.6	ND	ND	ND	0
36654	2014-04-04T05:00:00	13	ND	ND	ND	ND	ND	ND	4.7	ND	ND	ND	0
36655	2014-04-04T06:00:00	48.6	ND	ND	ND	ND	ND	ND	5.2	ND	ND	ND	0
36656	2014-04-04T07:00:00	56.1	ND	ND	ND	ND	ND	ND	90.5	ND	ND	ND	0
36657	2014-04-04T08:00:00	43	ND	ND	ND	ND	ND	ND	101.4	ND	ND	ND	0
36658	2014-04-04T09:00:00	45.8	ND	ND	ND	ND	ND	ND	8.5	ND	ND	ND	0
36659	2014-04-04T10:00:00	ND	ND	ND	ND	ND	ND	ND	70.8	ND	ND	ND	0
36660	2014-04-04T11:00:00	ND	ND	ND	ND	ND	ND	ND	35.7	ND	ND	ND	0
36661	2014-04-04T12:00:00	ND	ND	ND	ND	ND	ND	ND	13	ND	ND	ND	0
36662	2014-04-04T13:00:00	ND	ND	ND	ND	ND	ND	ND	16	ND	ND	ND	0
36663	2014-04-04T14:00:00	ND	ND	ND	ND	ND	ND	ND	6.2	ND	ND	ND	0
36664	2014-04-04T15:00:00	ND	ND	ND	ND	ND	ND	ND	173.2	ND	ND	ND	0
36665	2014-04-04T16:00:00	ND	ND	ND	ND	ND	ND	ND	162.8	ND	ND	ND	0
36666	2014-04-04T17:00:00	ND	ND	ND	ND	ND	ND	ND	158.5	ND	ND	ND	0
36667	2014-04-04T18:00:00	ND	ND	ND	ND	ND	ND	ND	161.8	ND	ND	ND	0
36668	2014-04-04T19:00:00	ND	ND	ND	ND	ND	ND	ND	154.1	ND	ND	ND	0
36669	2014-04-04T20:00:00	ND	ND	ND	ND	ND	ND	ND	126.2	ND	ND	ND	0
36670	2014-04-04T21:00:00	ND	ND	ND	ND	ND	ND	ND	50.1	ND	ND	ND	0
36671	2014-04-04T22:00:00	ND	ND	ND	ND	ND	ND	ND	118.9	ND	ND	ND	0
36672	2014-04-04T23:00:00	ND	ND	ND	ND	ND	ND	ND	145.8	ND	ND	ND	0
36673	2014-04-05T00:00:00	96.1	ND	ND	ND	ND	ND	ND	136.2	ND	ND	ND	0
36674	2014-04-05T01:00:00	51	ND	ND	ND	ND	ND	ND	41.5	ND	ND	ND	0
36675	2014-04-05T02:00:00	54.4	ND	ND	ND	ND	ND	ND	73.6	ND	ND	ND	0
36676	2014-04-05T03:00:00	ND	ND	ND	ND	ND	ND	ND	110.3	ND	ND	ND	0
36677	2014-04-05T04:00:00	ND	ND	ND	ND	ND	ND	ND	22.4	ND	ND	ND	0
36678	2014-04-05T05:00:00	ND	ND	ND	ND	ND	ND	ND	ND	ND	ND	ND	0
36679	2014-04-05T06:00:00	ND	ND	ND	ND	ND	ND	ND	11.4	ND	ND	ND	0
36680	2014-04-05T07:00:00	ND	ND	ND	ND	ND	ND	ND	358.8	ND	ND	ND	0
36681	2014-04-05T08:00:00	ND	ND	ND	ND	ND	ND	ND	10.5	ND	ND	ND	0
36682	2014-04-05T09:00:00	ND	ND	ND	ND	ND	ND	ND	28.3	ND	ND	ND	0
36683	2014-04-05T10:00:00	ND	ND	ND	ND	ND	ND	ND	27.6	ND	ND	ND	0
36684	2014-04-05T11:00:00	ND	ND	ND	ND	ND	ND	ND	24.9	ND	ND	ND	0
36685	2014-04-05T12:00:00	ND	ND	ND	ND	ND	ND	ND	67.3	ND	ND	ND	0
36686	2014-04-05T13:00:00	ND	ND	ND	ND	ND	ND	ND	44.5	ND	ND	ND	0
36687	2014-04-05T14:00:00	ND	ND	ND	ND	ND	ND	ND	19.5	ND	ND	ND	0
36688	2014-04-05T15:00:00	ND	ND	ND	ND	ND	ND	ND	176.3	ND	ND	ND	0
36689	2014-04-05T16:00:00	144	ND	ND	ND	ND	ND	ND	163.8	ND	ND	ND	0
36690	2014-04-05T17:00:00	73.8	ND	ND	ND	ND	ND	ND	173.5	ND	ND	ND	0
36691	2014-04-05T18:00:00	52.8	ND	ND	ND	ND	ND	ND	167.7	ND	ND	ND	0
36692	2014-04-05T19:00:00	27.6	ND	ND	ND	ND	ND	ND	158.4	ND	ND	ND	0
36693	2014-04-05T20:00:00	21.4	ND	ND	ND	ND	ND	ND	138.1	ND	ND	ND	0
36694	2014-04-05T21:00:00	12.1	ND	ND	ND	ND	ND	ND	132.1	ND	ND	ND	0
36695	2014-04-05T22:00:00	11.6	ND	ND	ND	ND	ND	ND	90.4	ND	ND	ND	0
36696	2014-04-05T23:00:00	8.6	ND	ND	ND	ND	ND	ND	18.2	ND	ND	ND	0
36697	2014-04-06T00:00:00	33.1	ND	ND	ND	ND	ND	ND	355.7	ND	ND	ND	0
36698	2014-04-06T01:00:00	22.8	ND	ND	ND	ND	ND	ND	4.8	ND	ND	ND	0
36699	2014-04-06T02:00:00	39.7	ND	ND	ND	ND	ND	ND	60.5	ND	ND	ND	0
36700	2014-04-06T03:00:00	27.5	ND	ND	ND	ND	ND	ND	41.7	ND	ND	ND	0
36701	2014-04-06T04:00:00	24.2	ND	ND	ND	ND	ND	ND	8.9	ND	ND	ND	0
36702	2014-04-06T05:00:00	30.7	ND	ND	ND	ND	ND	ND	53.1	ND	ND	ND	0
36703	2014-04-06T06:00:00	32.2	ND	ND	ND	ND	ND	ND	25.3	ND	ND	ND	0
36704	2014-04-06T07:00:00	33.6	ND	ND	ND	ND	ND	ND	64.4	ND	ND	ND	0
36705	2014-04-06T08:00:00	32.2	ND	ND	ND	ND	ND	ND	94.7	ND	ND	ND	0
36706	2014-04-06T09:00:00	19.5	ND	ND	ND	ND	ND	ND	55.9	ND	ND	ND	0
36707	2014-04-06T10:00:00	32.8	ND	ND	ND	ND	ND	ND	51.9	ND	ND	ND	0
36708	2014-04-06T11:00:00	17.9	ND	ND	ND	ND	ND	ND	18.6	ND	ND	ND	0
36709	2014-04-06T12:00:00	16.1	ND	ND	ND	ND	ND	ND	50.6	ND	ND	ND	0
36710	2014-04-06T13:00:00	15.7	ND	ND	ND	ND	ND	ND	32.1	ND	ND	ND	0
36711	2014-04-06T14:00:00	16.4	ND	ND	ND	ND	ND	ND	8.7	ND	ND	ND	0
36712	2014-04-06T15:00:00	9.6	ND	ND	ND	ND	ND	ND	29.5	ND	ND	ND	0
36713	2014-04-06T16:00:00	7.5	ND	ND	ND	ND	ND	ND	167	ND	ND	ND	0
36714	2014-04-06T17:00:00	4.9	ND	ND	ND	ND	ND	ND	168.3	ND	ND	ND	0
36715	2014-04-06T18:00:00	9.9	ND	ND	ND	ND	ND	ND	166.9	ND	ND	ND	0
36716	2014-04-06T19:00:00	10.1	ND	ND	ND	ND	ND	ND	162	ND	ND	ND	0
36717	2014-04-06T20:00:00	6.9	ND	ND	ND	ND	ND	ND	165.5	ND	ND	ND	0
36718	2014-04-06T21:00:00	4.6	ND	ND	ND	ND	ND	ND	165.9	ND	ND	ND	0
36719	2014-04-06T22:00:00	4.4	ND	ND	ND	ND	ND	ND	161.7	ND	ND	ND	0
36720	2014-04-06T23:00:00	3.3	ND	ND	ND	ND	ND	ND	138.4	ND	ND	ND	0
36721	2014-04-07T00:00:00	3.2	ND	ND	ND	ND	ND	ND	151.8	ND	ND	ND	0
36722	2014-04-07T01:00:00	3.2	ND	ND	ND	ND	ND	ND	141.1	ND	ND	ND	0
36723	2014-04-07T02:00:00	5.6	ND	ND	ND	ND	ND	ND	15.3	ND	ND	ND	0
36724	2014-04-07T03:00:00	15.7	ND	ND	ND	ND	ND	ND	21.6	ND	ND	ND	0
36725	2014-04-07T04:00:00	22	ND	ND	ND	ND	ND	ND	39.4	ND	ND	ND	0
36726	2014-04-07T05:00:00	18.1	ND	ND	ND	ND	ND	ND	46.8	ND	ND	ND	0
36727	2014-04-07T06:00:00	30.6	ND	ND	ND	ND	ND	ND	82.2	ND	ND	ND	4.57
36728	2014-04-07T07:00:00	16.3	ND	ND	ND	ND	ND	ND	336.2	ND	ND	ND	55.88
36729	2014-04-07T08:00:00	10.2	ND	ND	ND	ND	ND	ND	100	ND	ND	ND	0
36730	2014-04-07T09:00:00	9.5	ND	ND	ND	ND	ND	ND	69.3	ND	ND	ND	0
36731	2014-04-07T10:00:00	29.9	ND	ND	ND	ND	ND	ND	48	ND	ND	ND	0
36732	2014-04-07T11:00:00	15.9	ND	ND	ND	ND	ND	ND	29	ND	ND	ND	0
36733	2014-04-07T12:00:00	9.7	ND	ND	ND	ND	ND	ND	22.4	ND	ND	ND	0
36734	2014-04-07T13:00:00	9.7	ND	ND	ND	ND	ND	ND	57.6	ND	ND	ND	0
36735	2014-04-07T14:00:00	21.2	ND	ND	ND	ND	ND	ND	45.5	ND	ND	ND	0
36736	2014-04-07T15:00:00	13.4	ND	ND	ND	ND	ND	ND	214.7	ND	ND	ND	0
36737	2014-04-07T16:00:00	13.2	ND	ND	ND	ND	ND	ND	178.4	ND	ND	ND	0
36738	2014-04-07T17:00:00	7.5	ND	ND	ND	ND	ND	ND	169.1	ND	ND	ND	0
36739	2014-04-07T18:00:00	9.7	ND	ND	ND	ND	ND	ND	ND	ND	ND	ND	0
36740	2014-04-07T19:00:00	5.8	ND	ND	ND	ND	ND	ND	ND	ND	ND	ND	0
36741	2014-04-07T20:00:00	16.7	ND	ND	ND	ND	ND	ND	ND	ND	ND	ND	0
36742	2014-04-07T21:00:00	9.6	ND	ND	ND	ND	ND	ND	ND	ND	ND	ND	0
36743	2014-04-07T22:00:00	22.3	ND	ND	ND	ND	ND	ND	ND	ND	ND	ND	0
36744	2014-04-07T23:00:00	19.8	ND	ND	ND	ND	ND	ND	ND	ND	ND	ND	0
36745	2014-04-08T00:00:00	26.8	ND	ND	ND	ND	ND	ND	ND	ND	ND	ND	0
36746	2014-04-08T01:00:00	16.4	ND	ND	ND	ND	ND	ND	ND	ND	ND	ND	0
36747	2014-04-08T02:00:00	18.4	ND	ND	ND	ND	ND	ND	ND	ND	ND	ND	0
36748	2014-04-08T03:00:00	12.8	ND	ND	ND	ND	ND	ND	ND	ND	ND	ND	0
36749	2014-04-08T04:00:00	14.8	ND	ND	ND	ND	ND	ND	ND	ND	ND	ND	0
36750	2014-04-08T05:00:00	8.3	ND	ND	ND	ND	ND	ND	ND	ND	ND	ND	0
36751	2014-04-08T06:00:00	38.5	ND	ND	ND	ND	ND	ND	ND	ND	ND	ND	0
36752	2014-04-08T07:00:00	56.9	ND	ND	ND	ND	ND	ND	ND	ND	ND	ND	0
36753	2014-04-08T08:00:00	80.5	ND	ND	ND	ND	ND	ND	ND	ND	ND	ND	0
36754	2014-04-08T09:00:00	63.4	ND	ND	ND	ND	ND	ND	ND	ND	ND	ND	0
36755	2014-04-08T10:00:00	62.1	ND	ND	ND	ND	ND	ND	ND	ND	ND	ND	0
36756	2014-04-08T11:00:00	56.4	ND	ND	ND	ND	ND	ND	ND	ND	ND	ND	0
36757	2014-04-08T12:00:00	53.1	ND	ND	ND	ND	ND	ND	ND	ND	ND	ND	0
36758	2014-04-08T13:00:00	ND	ND	ND	ND	ND	ND	ND	ND	ND	ND	ND	0
36759	2014-04-08T14:00:00	ND	ND	ND	ND	ND	ND	ND	ND	ND	ND	ND	0
36760	2014-04-08T15:00:00	106.9	ND	ND	ND	ND	ND	ND	ND	ND	ND	ND	0
36761	2014-04-08T16:00:00	93.8	ND	ND	ND	ND	ND	ND	ND	ND	ND	ND	8.64
36762	2014-04-08T17:00:00	51.9	ND	ND	ND	ND	ND	ND	ND	ND	ND	ND	9.14
36763	2014-04-08T18:00:00	62	ND	ND	ND	ND	ND	ND	ND	ND	ND	ND	0.25
36764	2014-04-08T19:00:00	42.5	ND	ND	ND	ND	ND	ND	ND	ND	ND	ND	0
36765	2014-04-08T20:00:00	41.8	ND	ND	ND	ND	ND	ND	ND	ND	ND	ND	0
36766	2014-04-08T21:00:00	35.7	ND	ND	ND	ND	ND	ND	ND	ND	ND	ND	0
36767	2014-04-08T22:00:00	54.7	ND	ND	ND	ND	ND	ND	ND	ND	ND	ND	0
36768	2014-04-08T23:00:00	60.5	ND	ND	ND	ND	ND	ND	ND	ND	ND	ND	0
36769	2014-04-09T00:00:00	62.2	ND	ND	ND	ND	ND	ND	ND	ND	ND	ND	0
36770	2014-04-09T01:00:00	35.6	ND	ND	ND	ND	ND	ND	ND	ND	ND	ND	0
36771	2014-04-09T02:00:00	41.9	ND	ND	ND	ND	ND	ND	ND	ND	ND	ND	0
36772	2014-04-09T03:00:00	21.4	ND	ND	ND	ND	ND	ND	ND	ND	ND	ND	0
36773	2014-04-09T04:00:00	34.5	ND	ND	ND	ND	ND	ND	ND	ND	ND	ND	0
36774	2014-04-09T05:00:00	38.2	ND	ND	ND	ND	ND	ND	ND	ND	ND	ND	0
36775	2014-04-09T06:00:00	51.3	ND	ND	ND	ND	ND	ND	ND	ND	ND	ND	0
36776	2014-04-09T07:00:00	40.4	ND	ND	ND	ND	ND	ND	ND	ND	ND	ND	0
36777	2014-04-09T08:00:00	88.7	ND	ND	ND	ND	ND	ND	ND	ND	ND	ND	0
36778	2014-04-09T09:00:00	88.9	ND	ND	ND	ND	ND	ND	ND	ND	ND	ND	0
36779	2014-04-09T10:00:00	65	ND	ND	ND	ND	ND	ND	ND	ND	ND	ND	0
36780	2014-04-09T11:00:00	73.3	ND	ND	ND	ND	ND	ND	ND	ND	ND	ND	0
36781	2014-04-09T12:00:00	52	ND	ND	ND	ND	ND	ND	ND	ND	ND	ND	0
36782	2014-04-09T13:00:00	37.6	ND	ND	ND	ND	ND	ND	ND	ND	ND	ND	0
36783	2014-04-09T14:00:00	44.1	ND	ND	ND	ND	ND	ND	ND	ND	ND	ND	0
36784	2014-04-09T15:00:00	29.7	ND	ND	ND	ND	ND	ND	ND	ND	ND	ND	0
36785	2014-04-09T16:00:00	25.9	ND	ND	ND	ND	ND	ND	ND	ND	ND	ND	0
36786	2014-04-09T17:00:00	21	ND	ND	ND	ND	ND	ND	ND	ND	ND	ND	0
36787	2014-04-09T18:00:00	28.6	ND	ND	ND	ND	ND	ND	ND	ND	ND	ND	0
36788	2014-04-09T19:00:00	15.4	ND	ND	ND	ND	ND	ND	ND	ND	ND	ND	0
36789	2014-04-09T20:00:00	21	ND	ND	ND	ND	ND	ND	ND	ND	ND	ND	0
36790	2014-04-09T21:00:00	17.5	ND	ND	ND	ND	ND	ND	ND	ND	ND	ND	0
36791	2014-04-09T22:00:00	36.2	ND	ND	ND	ND	ND	ND	ND	ND	ND	ND	0
36792	2014-04-09T23:00:00	22.9	ND	ND	ND	ND	ND	ND	ND	ND	ND	ND	0
36793	2014-04-10T00:00:00	13.5	ND	ND	ND	ND	ND	ND	ND	ND	ND	ND	0
36794	2014-04-10T01:00:00	9.6	ND	ND	ND	ND	ND	ND	ND	ND	ND	ND	0
36795	2014-04-10T02:00:00	19.1	ND	ND	ND	ND	ND	ND	ND	ND	ND	ND	0
36796	2014-04-10T03:00:00	11	ND	ND	ND	ND	ND	ND	ND	ND	ND	ND	0
36797	2014-04-10T04:00:00	22.5	ND	ND	ND	ND	ND	ND	ND	ND	ND	ND	0
36798	2014-04-10T05:00:00	22	ND	ND	ND	ND	ND	ND	ND	ND	ND	ND	0
36799	2014-04-10T06:00:00	33.2	ND	ND	ND	ND	ND	ND	ND	ND	ND	ND	0
36800	2014-04-10T07:00:00	40.9	ND	ND	ND	ND	ND	ND	ND	ND	ND	ND	0
36801	2014-04-10T08:00:00	42.9	ND	ND	ND	ND	ND	ND	ND	ND	ND	ND	0
36802	2014-04-10T09:00:00	25.8	ND	ND	ND	ND	ND	ND	ND	ND	ND	ND	0
36803	2014-04-10T10:00:00	23.8	ND	ND	ND	ND	ND	ND	ND	ND	ND	ND	0
36804	2014-04-10T11:00:00	23.4	ND	ND	ND	ND	ND	ND	ND	ND	ND	ND	0
36805	2014-04-10T12:00:00	33.1	ND	ND	ND	ND	ND	ND	ND	ND	ND	ND	0
36806	2014-04-10T13:00:00	20.1	ND	ND	ND	ND	ND	ND	ND	ND	ND	ND	0
36807	2014-04-10T14:00:00	14.6	ND	ND	ND	ND	ND	ND	ND	ND	ND	ND	0
36808	2014-04-10T15:00:00	19.9	ND	ND	ND	ND	ND	ND	ND	ND	ND	ND	0
36809	2014-04-10T16:00:00	45.5	ND	ND	ND	ND	ND	ND	ND	ND	ND	ND	0
36810	2014-04-10T17:00:00	23.9	ND	ND	ND	ND	ND	ND	ND	ND	ND	ND	0
36811	2014-04-10T18:00:00	18.3	ND	ND	ND	ND	ND	ND	ND	ND	ND	ND	0
36812	2014-04-10T19:00:00	10.4	ND	ND	ND	ND	ND	ND	ND	ND	ND	ND	0
36813	2014-04-10T20:00:00	5.2	ND	ND	ND	ND	ND	ND	ND	ND	ND	ND	0
36814	2014-04-10T21:00:00	4.1	ND	ND	ND	ND	ND	ND	ND	ND	ND	ND	0
36815	2014-04-10T22:00:00	3.8	ND	ND	ND	ND	ND	ND	ND	ND	ND	ND	0
36816	2014-04-10T23:00:00	3.8	ND	ND	ND	ND	ND	ND	ND	ND	ND	ND	0
36817	2014-04-11T00:00:00	12.8	ND	ND	ND	ND	ND	ND	ND	ND	ND	ND	0
36818	2014-04-11T01:00:00	18.3	ND	ND	ND	ND	ND	ND	ND	ND	ND	ND	0
36819	2014-04-11T02:00:00	36.3	ND	ND	ND	ND	ND	ND	ND	ND	ND	ND	0
36820	2014-04-11T03:00:00	36.5	ND	ND	ND	ND	ND	ND	ND	ND	ND	ND	0
36821	2014-04-11T04:00:00	40.1	ND	ND	ND	ND	ND	ND	ND	ND	ND	ND	0
36822	2014-04-11T05:00:00	22.4	ND	ND	ND	ND	ND	ND	ND	ND	ND	ND	0
36823	2014-04-11T06:00:00	33.3	ND	ND	ND	ND	ND	ND	ND	ND	ND	ND	0
36824	2014-04-11T07:00:00	28.4	ND	ND	ND	ND	ND	ND	ND	ND	ND	ND	0
36825	2014-04-11T08:00:00	52.7	ND	ND	ND	ND	ND	ND	ND	ND	ND	ND	0
36826	2014-04-11T09:00:00	81.3	ND	ND	ND	ND	ND	ND	ND	ND	ND	ND	0
36827	2014-04-11T10:00:00	71.7	ND	ND	ND	ND	ND	ND	ND	ND	ND	ND	0
36828	2014-04-11T11:00:00	44.4	ND	ND	ND	ND	ND	ND	ND	ND	ND	ND	0
36829	2014-04-11T12:00:00	55.6	ND	ND	ND	ND	ND	ND	ND	ND	ND	ND	0
36830	2014-04-11T13:00:00	28.4	ND	ND	ND	ND	ND	ND	ND	ND	ND	ND	0
36831	2014-04-11T14:00:00	35.5	ND	ND	ND	ND	ND	ND	ND	ND	ND	ND	0
36832	2014-04-11T15:00:00	29.2	ND	ND	ND	ND	ND	ND	ND	ND	ND	ND	0
36833	2014-04-11T16:00:00	30.7	ND	ND	ND	ND	ND	ND	ND	ND	ND	ND	0
36834	2014-04-11T17:00:00	17.6	ND	ND	ND	ND	ND	ND	ND	ND	ND	ND	0
36835	2014-04-11T18:00:00	16.9	ND	ND	ND	ND	ND	ND	ND	ND	ND	ND	0
36836	2014-04-11T19:00:00	15.9	ND	ND	ND	ND	ND	ND	ND	ND	ND	ND	0
36837	2014-04-11T20:00:00	21.4	ND	ND	ND	ND	ND	ND	ND	ND	ND	ND	0
36838	2014-04-11T21:00:00	11.7	ND	ND	ND	ND	ND	ND	ND	ND	ND	ND	0
36839	2014-04-11T22:00:00	7.2	ND	ND	ND	ND	ND	ND	ND	ND	ND	ND	0
36840	2014-04-11T23:00:00	5.8	ND	ND	ND	ND	ND	ND	ND	ND	ND	ND	0
36841	2014-04-12T00:00:00	22.4	ND	ND	ND	ND	ND	ND	ND	ND	ND	ND	0
36842	2014-04-12T01:00:00	47.6	ND	ND	ND	ND	ND	ND	ND	ND	ND	ND	0
36843	2014-04-12T02:00:00	45.3	ND	ND	ND	ND	ND	ND	ND	ND	ND	ND	0
36844	2014-04-12T03:00:00	37.5	ND	ND	ND	ND	ND	ND	ND	ND	ND	ND	0
36845	2014-04-12T04:00:00	33.7	ND	ND	ND	ND	ND	ND	ND	ND	ND	ND	0
36846	2014-04-12T05:00:00	26.4	ND	ND	ND	ND	ND	ND	ND	ND	ND	ND	0
36847	2014-04-12T06:00:00	48	ND	ND	ND	ND	ND	ND	ND	ND	ND	ND	0
36848	2014-04-12T07:00:00	64	ND	ND	ND	ND	ND	ND	ND	ND	ND	ND	0
36849	2014-04-12T08:00:00	80.9	ND	ND	ND	ND	ND	ND	ND	ND	ND	ND	0
36850	2014-04-12T09:00:00	80.5	ND	ND	ND	ND	ND	ND	ND	ND	ND	ND	0
36851	2014-04-12T10:00:00	88.9	ND	ND	ND	ND	ND	ND	ND	ND	ND	ND	0
36852	2014-04-12T11:00:00	51.3	ND	ND	ND	ND	ND	ND	ND	ND	ND	ND	0
36853	2014-04-12T12:00:00	55.6	ND	ND	ND	ND	ND	ND	ND	ND	ND	ND	0
36854	2014-04-12T13:00:00	29	ND	ND	ND	ND	ND	ND	ND	ND	ND	ND	0
36855	2014-04-12T14:00:00	19.7	ND	ND	ND	ND	ND	ND	ND	ND	ND	ND	0
36856	2014-04-12T15:00:00	26.8	ND	ND	ND	ND	ND	ND	ND	ND	ND	ND	8.38
36857	2014-04-12T16:00:00	15.2	ND	ND	ND	ND	ND	ND	ND	ND	ND	ND	21.08
36858	2014-04-12T17:00:00	12.7	ND	ND	ND	ND	ND	ND	ND	ND	ND	ND	0
36859	2014-04-12T18:00:00	8	ND	ND	ND	ND	ND	ND	ND	ND	ND	ND	0
36860	2014-04-12T19:00:00	6.9	ND	ND	ND	ND	ND	ND	ND	ND	ND	ND	0
36861	2014-04-12T20:00:00	8.8	ND	ND	ND	ND	ND	ND	ND	ND	ND	ND	0
36862	2014-04-12T21:00:00	16.7	ND	ND	ND	ND	ND	ND	ND	ND	ND	ND	0
36863	2014-04-12T22:00:00	34.9	ND	ND	ND	ND	ND	ND	ND	ND	ND	ND	0
36864	2014-04-12T23:00:00	25.7	ND	ND	ND	ND	ND	ND	ND	ND	ND	ND	0
36865	2014-04-13T00:00:00	13.7	ND	ND	ND	ND	ND	ND	ND	ND	ND	ND	0
36866	2014-04-13T01:00:00	10.3	ND	ND	ND	ND	ND	ND	ND	ND	ND	ND	0
36867	2014-04-13T02:00:00	36.3	ND	ND	ND	ND	ND	ND	ND	ND	ND	ND	0
36868	2014-04-13T03:00:00	19.9	ND	ND	ND	ND	ND	ND	ND	ND	ND	ND	0
36869	2014-04-13T04:00:00	21	ND	ND	ND	ND	ND	ND	ND	ND	ND	ND	0
36870	2014-04-13T05:00:00	24.1	ND	ND	ND	ND	ND	ND	ND	ND	ND	ND	0
36871	2014-04-13T06:00:00	58.7	ND	ND	ND	ND	ND	ND	ND	ND	ND	ND	0
36872	2014-04-13T07:00:00	58.4	ND	ND	ND	ND	ND	ND	ND	ND	ND	ND	0
36873	2014-04-13T08:00:00	57.8	ND	ND	ND	ND	ND	ND	ND	ND	ND	ND	0
36874	2014-04-13T09:00:00	41.8	ND	ND	ND	ND	ND	ND	ND	ND	ND	ND	0
36875	2014-04-13T10:00:00	41.5	ND	ND	ND	ND	ND	ND	ND	ND	ND	ND	0
36876	2014-04-13T11:00:00	39.7	ND	ND	ND	ND	ND	ND	ND	ND	ND	ND	0
36877	2014-04-13T12:00:00	43	ND	ND	ND	ND	ND	ND	ND	ND	ND	ND	0
36878	2014-04-13T13:00:00	22.5	ND	ND	ND	ND	ND	ND	ND	ND	ND	ND	0
36879	2014-04-13T14:00:00	21.4	ND	ND	ND	ND	ND	ND	ND	ND	ND	ND	0
36880	2014-04-13T15:00:00	10.7	ND	ND	ND	ND	ND	ND	ND	ND	ND	ND	0
36881	2014-04-13T16:00:00	5.3	ND	ND	ND	ND	ND	ND	ND	ND	ND	ND	0
36882	2014-04-13T17:00:00	10.8	ND	ND	ND	ND	ND	ND	ND	ND	ND	ND	0
36883	2014-04-13T18:00:00	15.9	ND	ND	ND	ND	ND	ND	ND	ND	ND	ND	0
36884	2014-04-13T19:00:00	8.6	ND	ND	ND	ND	ND	ND	ND	ND	ND	ND	0
36885	2014-04-13T20:00:00	5.4	ND	ND	ND	ND	ND	ND	ND	ND	ND	ND	0
36886	2014-04-13T21:00:00	3.3	ND	ND	ND	ND	ND	ND	ND	ND	ND	ND	0
36887	2014-04-13T22:00:00	3.8	ND	ND	ND	ND	ND	ND	ND	ND	ND	ND	0
36888	2014-04-13T23:00:00	2.5	ND	ND	ND	ND	ND	ND	ND	ND	ND	ND	0
36889	2014-04-14T00:00:00	25.8	ND	ND	ND	ND	ND	ND	ND	ND	ND	ND	0
36890	2014-04-14T01:00:00	20.6	ND	ND	ND	ND	ND	ND	ND	ND	ND	ND	0
36891	2014-04-14T02:00:00	17	ND	ND	ND	ND	ND	ND	ND	ND	ND	ND	0
36892	2014-04-14T03:00:00	9.9	ND	ND	ND	ND	ND	ND	ND	ND	ND	ND	0
36893	2014-04-14T04:00:00	19.8	ND	ND	ND	ND	ND	ND	ND	ND	ND	ND	0
36894	2014-04-14T05:00:00	28.5	ND	ND	ND	ND	ND	ND	ND	ND	ND	ND	0
36895	2014-04-14T06:00:00	59.6	ND	ND	ND	ND	ND	ND	ND	ND	ND	ND	0
36896	2014-04-14T07:00:00	43.5	ND	ND	ND	ND	ND	ND	ND	ND	ND	ND	0
36897	2014-04-14T08:00:00	63.5	ND	ND	ND	ND	ND	ND	ND	ND	ND	ND	0
36898	2014-04-14T09:00:00	58.6	ND	ND	ND	ND	ND	ND	ND	ND	ND	ND	0
36899	2014-04-14T10:00:00	55.4	ND	ND	ND	ND	ND	ND	ND	ND	ND	ND	0
36900	2014-04-14T11:00:00	39.5	ND	ND	ND	ND	ND	ND	ND	ND	ND	ND	0
36901	2014-04-14T12:00:00	36.8	ND	ND	ND	ND	ND	ND	ND	ND	ND	ND	0
36902	2014-04-14T13:00:00	34.6	ND	ND	ND	ND	ND	ND	ND	ND	ND	ND	0
36903	2014-04-14T14:00:00	39.7	ND	ND	ND	ND	ND	ND	ND	ND	ND	ND	0
36904	2014-04-14T15:00:00	20.5	ND	ND	ND	ND	ND	ND	ND	ND	ND	ND	0
36905	2014-04-14T16:00:00	36.1	ND	ND	ND	ND	ND	ND	ND	ND	ND	ND	0
36906	2014-04-14T17:00:00	19.4	ND	ND	ND	ND	ND	ND	ND	ND	ND	ND	0
36907	2014-04-14T18:00:00	10.5	ND	ND	ND	ND	ND	ND	ND	ND	ND	ND	0
36908	2014-04-14T19:00:00	5.7	ND	ND	ND	ND	ND	ND	ND	ND	ND	ND	0
36909	2014-04-14T20:00:00	23	ND	ND	ND	ND	ND	ND	ND	ND	ND	ND	0
36910	2014-04-14T21:00:00	15.7	ND	ND	ND	ND	ND	ND	ND	ND	ND	ND	0
36911	2014-04-14T22:00:00	13.3	ND	ND	ND	ND	ND	ND	ND	ND	ND	ND	0
36912	2014-04-14T23:00:00	7.4	ND	ND	ND	ND	ND	ND	ND	ND	ND	ND	0
36913	2014-04-15T00:00:00	37	ND	ND	ND	ND	ND	ND	ND	ND	ND	ND	0
36914	2014-04-15T01:00:00	18.5	ND	ND	ND	ND	ND	ND	ND	ND	ND	ND	0
36915	2014-04-15T02:00:00	9.3	ND	ND	ND	ND	ND	ND	ND	ND	ND	ND	0
36916	2014-04-15T03:00:00	16.5	ND	ND	ND	ND	ND	ND	ND	ND	ND	ND	0
36917	2014-04-15T04:00:00	26.7	ND	ND	ND	ND	ND	ND	ND	ND	ND	ND	0
36918	2014-04-15T05:00:00	14.6	ND	ND	ND	ND	ND	ND	ND	ND	ND	ND	19.3
36919	2014-04-15T06:00:00	26.1	ND	ND	ND	ND	ND	ND	ND	ND	ND	ND	49.78
36920	2014-04-15T07:00:00	14.6	ND	ND	ND	ND	ND	ND	ND	ND	ND	ND	20.32
36921	2014-04-15T08:00:00	16	ND	ND	ND	ND	ND	ND	ND	ND	ND	ND	1.52
36922	2014-04-15T09:00:00	10.2	ND	ND	ND	ND	ND	ND	ND	ND	ND	ND	0.25
36923	2014-04-15T10:00:00	19.6	ND	ND	ND	ND	ND	ND	ND	ND	ND	ND	9.14
36924	2014-04-15T11:00:00	10.5	ND	ND	ND	ND	ND	ND	ND	ND	ND	ND	8.38
36925	2014-04-15T12:00:00	18.8	ND	ND	ND	ND	ND	ND	ND	ND	ND	ND	0
36926	2014-04-15T13:00:00	10.8	ND	ND	ND	ND	ND	ND	ND	ND	ND	ND	0
36927	2014-04-15T14:00:00	6.9	ND	ND	ND	ND	ND	ND	ND	ND	ND	ND	0
36928	2014-04-15T15:00:00	5.4	ND	ND	ND	ND	ND	ND	ND	ND	ND	ND	0
36929	2014-04-15T16:00:00	17.9	ND	ND	ND	ND	ND	ND	ND	ND	ND	ND	0
36930	2014-04-15T17:00:00	40.8	ND	ND	ND	ND	ND	ND	ND	ND	ND	ND	0
36931	2014-04-15T18:00:00	50.6	ND	ND	ND	ND	ND	ND	ND	ND	ND	ND	1.02
36932	2014-04-15T19:00:00	29.7	ND	ND	ND	ND	ND	ND	ND	ND	ND	ND	4.06
36933	2014-04-15T20:00:00	22	ND	ND	ND	ND	ND	ND	ND	ND	ND	ND	7.37
36934	2014-04-15T21:00:00	13	ND	ND	ND	ND	ND	ND	ND	ND	ND	ND	2.29
36935	2014-04-15T22:00:00	8.4	ND	ND	ND	ND	ND	ND	ND	ND	ND	ND	0.76
36936	2014-04-15T23:00:00	4.2	ND	ND	ND	ND	ND	ND	ND	ND	ND	ND	0
36937	2014-04-16T00:00:00	2.1	ND	ND	ND	ND	ND	ND	ND	ND	ND	ND	0.76
36938	2014-04-16T01:00:00	2.1	ND	ND	ND	ND	ND	ND	ND	ND	ND	ND	0.25
36939	2014-04-16T02:00:00	1.7	ND	ND	ND	ND	ND	ND	ND	ND	ND	ND	0
36940	2014-04-16T03:00:00	3	ND	ND	ND	ND	ND	ND	ND	ND	ND	ND	0.25
36941	2014-04-16T04:00:00	2.5	ND	ND	ND	ND	ND	ND	ND	ND	ND	ND	0
36942	2014-04-16T05:00:00	3.2	ND	ND	ND	ND	ND	ND	ND	ND	ND	ND	0.25
36943	2014-04-16T06:00:00	7.1	ND	ND	ND	ND	ND	ND	ND	ND	ND	ND	0
36944	2014-04-16T07:00:00	13	ND	ND	ND	ND	ND	ND	ND	ND	ND	ND	0
36945	2014-04-16T08:00:00	28.9	ND	ND	ND	ND	ND	ND	ND	ND	ND	ND	0
36946	2014-04-16T09:00:00	23.6	ND	ND	ND	ND	ND	ND	ND	ND	ND	ND	0
36947	2014-04-16T10:00:00	35.2	ND	ND	ND	ND	ND	ND	ND	ND	ND	ND	0
36948	2014-04-16T11:00:00	42.5	ND	ND	ND	ND	ND	ND	ND	ND	ND	ND	0
36949	2014-04-16T12:00:00	44.6	ND	ND	ND	ND	ND	ND	ND	ND	ND	ND	0
36950	2014-04-16T13:00:00	29.9	ND	ND	ND	ND	ND	ND	ND	ND	ND	ND	0
36951	2014-04-16T14:00:00	45	ND	ND	ND	ND	ND	ND	ND	ND	ND	ND	0
36952	2014-04-16T15:00:00	23.9	ND	ND	ND	ND	ND	ND	ND	ND	ND	ND	0
36953	2014-04-16T16:00:00	13	ND	ND	ND	ND	ND	ND	ND	ND	ND	ND	0
36954	2014-04-16T17:00:00	9	ND	ND	ND	ND	ND	ND	ND	ND	ND	ND	0
36955	2014-04-16T18:00:00	35.4	ND	ND	ND	ND	ND	ND	ND	ND	ND	ND	0
36956	2014-04-16T19:00:00	36.1	ND	ND	ND	ND	ND	ND	ND	ND	ND	ND	0
36957	2014-04-16T20:00:00	18.9	ND	ND	ND	ND	ND	ND	ND	ND	ND	ND	0
36958	2014-04-16T21:00:00	16.6	ND	ND	ND	ND	ND	ND	ND	ND	ND	ND	0
36959	2014-04-16T22:00:00	18.9	ND	ND	ND	ND	ND	ND	ND	ND	ND	ND	0
36960	2014-04-16T23:00:00	21.1	ND	ND	ND	ND	ND	ND	ND	ND	ND	ND	0
36961	2014-04-17T00:00:00	36	ND	ND	ND	ND	ND	ND	ND	ND	ND	ND	0
36962	2014-04-17T01:00:00	36.3	ND	ND	ND	ND	ND	ND	ND	ND	ND	ND	0
36963	2014-04-17T02:00:00	35	ND	ND	ND	ND	ND	ND	ND	ND	ND	ND	0
36964	2014-04-17T03:00:00	19.4	ND	ND	ND	ND	ND	ND	ND	ND	ND	ND	0
36965	2014-04-17T04:00:00	41	ND	ND	ND	ND	ND	ND	ND	ND	ND	ND	0
36966	2014-04-17T05:00:00	21.4	ND	ND	ND	ND	ND	ND	ND	ND	ND	ND	0
36967	2014-04-17T06:00:00	23.5	ND	ND	ND	ND	ND	ND	ND	ND	ND	ND	0
36968	2014-04-17T07:00:00	24.2	ND	ND	ND	ND	ND	ND	ND	ND	ND	ND	0
36969	2014-04-17T08:00:00	23.7	ND	ND	ND	ND	ND	ND	ND	ND	ND	ND	0
36970	2014-04-17T09:00:00	26.3	ND	ND	ND	ND	ND	ND	ND	ND	ND	ND	0
36971	2014-04-17T10:00:00	23.1	ND	ND	ND	ND	ND	ND	ND	ND	ND	ND	0
36972	2014-04-17T11:00:00	11.6	ND	ND	ND	ND	ND	ND	ND	ND	ND	ND	0
36973	2014-04-17T12:00:00	5.8	ND	ND	ND	ND	ND	ND	ND	ND	ND	ND	0
36974	2014-04-17T13:00:00	3.5	ND	ND	ND	ND	ND	ND	ND	ND	ND	ND	0
36975	2014-04-17T14:00:00	13.3	ND	ND	ND	ND	ND	ND	ND	ND	ND	ND	0
36976	2014-04-17T15:00:00	8.4	ND	ND	ND	ND	ND	ND	ND	ND	ND	ND	0
36977	2014-04-17T16:00:00	23.9	ND	ND	ND	ND	ND	ND	ND	ND	ND	ND	0
36978	2014-04-17T17:00:00	12.6	ND	ND	ND	ND	ND	ND	ND	ND	ND	ND	0
36979	2014-04-17T18:00:00	8.3	ND	ND	ND	ND	ND	ND	ND	ND	ND	ND	0
36980	2014-04-17T19:00:00	6.1	ND	ND	ND	ND	ND	ND	ND	ND	ND	ND	0
36981	2014-04-17T20:00:00	10	ND	ND	ND	ND	ND	ND	ND	ND	ND	ND	0
36982	2014-04-17T21:00:00	6.4	ND	ND	ND	ND	ND	ND	ND	ND	ND	ND	0
36983	2014-04-17T22:00:00	4.2	ND	ND	ND	ND	ND	ND	ND	ND	ND	ND	0
36984	2014-04-17T23:00:00	3.4	ND	ND	ND	ND	ND	ND	ND	ND	ND	ND	0
36985	2014-04-18T00:00:00	12.5	ND	ND	ND	ND	ND	ND	ND	ND	ND	ND	0
36986	2014-04-18T01:00:00	25.2	ND	ND	ND	ND	ND	ND	ND	ND	ND	ND	0
36987	2014-04-18T02:00:00	26.2	ND	ND	ND	ND	ND	ND	ND	ND	ND	ND	0
36988	2014-04-18T03:00:00	14.9	ND	ND	ND	ND	ND	ND	ND	ND	ND	ND	0
36989	2014-04-18T04:00:00	8.3	ND	ND	ND	ND	ND	ND	ND	ND	ND	ND	0
36990	2014-04-18T05:00:00	8.1	ND	ND	ND	ND	ND	ND	ND	ND	ND	ND	0
36991	2014-04-18T06:00:00	10.2	ND	ND	ND	ND	ND	ND	ND	ND	ND	ND	0
36992	2014-04-18T07:00:00	12.6	ND	ND	ND	ND	ND	ND	ND	ND	ND	ND	0
36993	2014-04-18T08:00:00	43.5	ND	ND	ND	ND	ND	ND	ND	ND	ND	ND	0
36994	2014-04-18T09:00:00	29.3	ND	ND	ND	ND	ND	ND	ND	ND	ND	ND	0
36995	2014-04-18T10:00:00	32.6	ND	ND	ND	ND	ND	ND	ND	ND	ND	ND	0
36996	2014-04-18T11:00:00	17.7	ND	ND	ND	ND	ND	ND	ND	ND	ND	ND	0
36997	2014-04-18T12:00:00	8.9	ND	ND	ND	ND	ND	ND	ND	ND	ND	ND	0
36998	2014-04-18T13:00:00	5.2	ND	ND	ND	ND	ND	ND	ND	ND	ND	ND	0
36999	2014-04-18T14:00:00	3.3	ND	ND	ND	ND	ND	ND	ND	ND	ND	ND	0
37000	2014-04-18T15:00:00	3.6	ND	ND	ND	ND	ND	ND	ND	ND	ND	ND	0
37001	2014-04-18T16:00:00	3	ND	ND	ND	ND	ND	ND	ND	ND	ND	ND	0
37002	2014-04-18T17:00:00	3	ND	ND	ND	ND	ND	ND	ND	ND	ND	ND	0
37003	2014-04-18T18:00:00	9.6	ND	ND	ND	ND	ND	ND	ND	ND	ND	ND	0
37004	2014-04-18T19:00:00	6.9	ND	ND	ND	ND	ND	ND	ND	ND	ND	ND	2.03
37005	2014-04-18T20:00:00	21.1	ND	ND	ND	ND	ND	ND	ND	ND	ND	ND	0.25
37006	2014-04-18T21:00:00	22	ND	ND	ND	ND	ND	ND	ND	ND	ND	ND	0
37007	2014-04-18T22:00:00	22.2	ND	ND	ND	ND	ND	ND	ND	ND	ND	ND	0
37008	2014-04-18T23:00:00	12.5	ND	ND	ND	ND	ND	ND	ND	ND	ND	ND	0
37009	2014-04-19T00:00:00	11.9	ND	ND	ND	ND	ND	ND	ND	ND	ND	ND	0
37010	2014-04-19T01:00:00	9.8	ND	ND	ND	ND	ND	ND	ND	ND	ND	ND	0
37011	2014-04-19T02:00:00	10.9	ND	ND	ND	ND	ND	ND	ND	ND	ND	ND	0
37012	2014-04-19T03:00:00	6.6	ND	ND	ND	ND	ND	ND	ND	ND	ND	ND	0
37013	2014-04-19T04:00:00	4.1	ND	ND	ND	ND	ND	ND	ND	ND	ND	ND	0
37014	2014-04-19T05:00:00	5.2	ND	ND	ND	ND	ND	ND	ND	ND	ND	ND	0
37015	2014-04-19T06:00:00	22.6	ND	ND	ND	ND	ND	ND	ND	ND	ND	ND	0
37016	2014-04-19T07:00:00	37	ND	ND	ND	ND	ND	ND	ND	ND	ND	ND	0
37017	2014-04-19T08:00:00	51.7	ND	ND	ND	ND	ND	ND	ND	ND	ND	ND	0
37018	2014-04-19T09:00:00	36.4	ND	ND	ND	ND	ND	ND	ND	ND	ND	ND	0
37019	2014-04-19T10:00:00	58.7	ND	ND	ND	ND	ND	ND	ND	ND	ND	ND	0
37020	2014-04-19T11:00:00	31	ND	ND	ND	ND	ND	ND	ND	ND	ND	ND	0
37021	2014-04-19T12:00:00	34.8	ND	ND	ND	ND	ND	ND	ND	ND	ND	ND	0
37022	2014-04-19T13:00:00	32.3	ND	ND	ND	ND	ND	ND	ND	ND	ND	ND	0
37023	2014-04-19T14:00:00	22.3	ND	ND	ND	ND	ND	ND	ND	ND	ND	ND	0
37024	2014-04-19T15:00:00	12.2	ND	ND	ND	ND	ND	ND	ND	ND	ND	ND	0
37025	2014-04-19T16:00:00	6.7	ND	ND	ND	ND	ND	ND	ND	ND	ND	ND	0
37026	2014-04-19T17:00:00	4.3	ND	ND	ND	ND	ND	ND	ND	ND	ND	ND	0
37027	2014-04-19T18:00:00	12.7	ND	ND	ND	ND	ND	ND	ND	ND	ND	ND	0
37028	2014-04-19T19:00:00	7.3	ND	ND	ND	ND	ND	ND	ND	ND	ND	ND	0
37029	2014-04-19T20:00:00	20.1	ND	ND	ND	ND	ND	ND	ND	ND	ND	ND	0
37030	2014-04-19T21:00:00	21.9	ND	ND	ND	ND	ND	ND	ND	ND	ND	ND	0
37031	2014-04-19T22:00:00	42.9	ND	ND	ND	ND	ND	ND	ND	ND	ND	ND	0
37032	2014-04-19T23:00:00	29.8	ND	ND	ND	ND	ND	ND	ND	ND	ND	ND	0
37033	2014-04-20T00:00:00	36.2	ND	ND	ND	ND	ND	ND	ND	ND	ND	ND	0
37034	2014-04-20T01:00:00	39.8	ND	ND	ND	ND	ND	ND	ND	ND	ND	ND	0
37035	2014-04-20T02:00:00	48.1	ND	ND	ND	ND	ND	ND	ND	ND	ND	ND	0
37036	2014-04-20T03:00:00	25.8	ND	ND	ND	ND	ND	ND	ND	ND	ND	ND	0
37037	2014-04-20T04:00:00	30	ND	ND	ND	ND	ND	ND	ND	ND	ND	ND	0
37038	2014-04-20T05:00:00	28.7	ND	ND	ND	ND	ND	ND	ND	ND	ND	ND	0
37039	2014-04-20T06:00:00	25.6	ND	ND	ND	ND	ND	ND	ND	ND	ND	ND	0
37040	2014-04-20T07:00:00	37.1	ND	ND	ND	ND	ND	ND	ND	ND	ND	ND	0
37041	2014-04-20T08:00:00	20.3	ND	ND	ND	ND	ND	ND	ND	ND	ND	ND	0
37042	2014-04-20T09:00:00	11.1	ND	ND	ND	ND	ND	ND	ND	ND	ND	ND	0
37043	2014-04-20T10:00:00	16.9	ND	ND	ND	ND	ND	ND	ND	ND	ND	ND	0
37044	2014-04-20T11:00:00	18.2	ND	ND	ND	ND	ND	ND	ND	ND	ND	ND	0
37045	2014-04-20T12:00:00	10.1	ND	ND	ND	ND	ND	ND	ND	ND	ND	ND	0
37046	2014-04-20T13:00:00	6.2	ND	ND	ND	ND	ND	ND	ND	ND	ND	ND	0
37047	2014-04-20T14:00:00	14.4	ND	ND	ND	ND	ND	ND	ND	ND	ND	ND	0
37048	2014-04-20T15:00:00	8.4	ND	ND	ND	ND	ND	ND	ND	ND	ND	ND	0
37049	2014-04-20T16:00:00	28.5	ND	ND	ND	ND	ND	ND	ND	ND	ND	ND	0
37050	2014-04-20T17:00:00	18.9	ND	ND	ND	ND	ND	ND	ND	ND	ND	ND	0
37051	2014-04-20T18:00:00	10.9	ND	ND	ND	ND	ND	ND	ND	ND	ND	ND	0
37052	2014-04-20T19:00:00	6.2	ND	ND	ND	ND	ND	ND	ND	ND	ND	ND	0
37053	2014-04-20T20:00:00	4.5	ND	ND	ND	ND	ND	ND	ND	ND	ND	ND	0
37054	2014-04-20T21:00:00	3	ND	ND	ND	ND	ND	ND	ND	ND	ND	ND	0
37055	2014-04-20T22:00:00	17.2	ND	ND	ND	ND	ND	ND	ND	ND	ND	ND	0
37056	2014-04-20T23:00:00	9.4	ND	ND	ND	ND	ND	ND	ND	ND	ND	ND	0
37057	2014-04-21T00:00:00	13.4	ND	ND	ND	ND	ND	ND	ND	ND	ND	ND	0
37058	2014-04-21T01:00:00	8.4	ND	ND	ND	ND	ND	ND	ND	ND	ND	ND	0
37059	2014-04-21T02:00:00	23.1	ND	ND	ND	ND	ND	ND	ND	ND	ND	ND	0
37060	2014-04-21T03:00:00	12.3	ND	ND	ND	ND	ND	ND	ND	ND	ND	ND	0
37061	2014-04-21T04:00:00	23.6	ND	ND	ND	ND	ND	ND	ND	ND	ND	ND	0
37062	2014-04-21T05:00:00	13.8	ND	ND	ND	ND	ND	ND	ND	ND	ND	ND	0
37063	2014-04-21T06:00:00	21.8	ND	ND	ND	ND	ND	ND	ND	ND	ND	ND	0
37064	2014-04-21T07:00:00	19.2	ND	ND	ND	ND	ND	ND	ND	ND	ND	ND	0
37065	2014-04-21T08:00:00	37.7	ND	ND	ND	ND	ND	ND	ND	ND	ND	ND	0
37066	2014-04-21T09:00:00	20.2	ND	ND	ND	ND	ND	ND	ND	ND	ND	ND	0
37067	2014-04-21T10:00:00	16.1	ND	ND	ND	ND	ND	ND	ND	ND	ND	ND	0
37068	2014-04-21T11:00:00	19.8	ND	ND	ND	ND	ND	ND	ND	ND	ND	ND	0
37069	2014-04-21T12:00:00	19.8	ND	ND	ND	ND	ND	ND	ND	ND	ND	ND	0
37070	2014-04-21T13:00:00	ND	ND	ND	ND	ND	ND	ND	ND	ND	ND	ND	0
37071	2014-04-21T14:00:00	95.3	ND	ND	ND	ND	ND	ND	ND	ND	ND	ND	0
37072	2014-04-21T15:00:00	95.3	ND	ND	ND	ND	ND	ND	ND	ND	ND	ND	0
37073	2014-04-21T16:00:00	ND	ND	ND	ND	ND	ND	ND	ND	ND	ND	ND	0
37074	2014-04-21T17:00:00	ND	ND	ND	ND	ND	ND	ND	ND	ND	ND	ND	0
37075	2014-04-21T18:00:00	1.5	ND	ND	ND	ND	ND	ND	ND	ND	ND	ND	0
37076	2014-04-21T19:00:00	5.2	ND	ND	ND	ND	ND	ND	ND	ND	ND	ND	0
37077	2014-04-21T20:00:00	4	ND	ND	ND	ND	ND	ND	ND	ND	ND	ND	0
37078	2014-04-21T21:00:00	6.9	ND	ND	ND	ND	ND	ND	ND	ND	ND	ND	0
37079	2014-04-21T22:00:00	6.7	ND	ND	ND	ND	ND	ND	ND	ND	ND	ND	0
37080	2014-04-21T23:00:00	4	ND	ND	ND	ND	ND	ND	ND	ND	ND	ND	0
37081	2014-04-22T00:00:00	3.1	ND	ND	ND	ND	ND	ND	ND	ND	ND	ND	0
37082	2014-04-22T01:00:00	2.2	ND	ND	ND	ND	ND	ND	ND	ND	ND	ND	0
37083	2014-04-22T02:00:00	5.7	ND	ND	ND	ND	ND	ND	ND	ND	ND	ND	0
37084	2014-04-22T03:00:00	3.4	ND	ND	ND	ND	ND	ND	ND	ND	ND	ND	0
37085	2014-04-22T04:00:00	1.7	ND	ND	ND	ND	ND	ND	ND	ND	ND	ND	0
37086	2014-04-22T05:00:00	2.7	ND	ND	ND	ND	ND	ND	ND	ND	ND	ND	0.25
37087	2014-04-22T06:00:00	2.1	ND	ND	ND	ND	ND	ND	ND	ND	ND	ND	0.51
37088	2014-04-22T07:00:00	3	ND	ND	ND	ND	ND	ND	ND	ND	ND	ND	0
37089	2014-04-22T08:00:00	18.1	ND	ND	ND	ND	ND	ND	ND	ND	ND	ND	0
37090	2014-04-22T09:00:00	10.5	ND	ND	ND	ND	ND	ND	ND	ND	ND	ND	0
37091	2014-04-22T10:00:00	22.9	ND	ND	ND	ND	ND	ND	ND	ND	ND	ND	0
37092	2014-04-22T11:00:00	13.7	ND	ND	ND	ND	ND	ND	ND	ND	ND	ND	0
37093	2014-04-22T12:00:00	37.4	ND	ND	ND	ND	ND	ND	ND	ND	ND	ND	0
37094	2014-04-22T13:00:00	29.4	ND	ND	ND	ND	ND	ND	ND	ND	ND	ND	0
37095	2014-04-22T14:00:00	29.4	ND	ND	ND	ND	ND	ND	ND	ND	ND	ND	0
37096	2014-04-22T15:00:00	ND	ND	ND	ND	ND	ND	ND	ND	ND	ND	ND	0
37097	2014-04-22T16:00:00	8.7	ND	ND	ND	ND	ND	ND	ND	ND	ND	ND	0
37098	2014-04-22T17:00:00	18.2	ND	ND	ND	ND	ND	ND	ND	ND	ND	ND	0
37099	2014-04-22T18:00:00	20.8	ND	ND	ND	ND	ND	ND	ND	ND	ND	ND	0
37100	2014-04-22T19:00:00	23.6	ND	ND	ND	ND	ND	ND	ND	ND	ND	ND	0
37101	2014-04-22T20:00:00	36.1	ND	ND	ND	ND	ND	ND	ND	ND	ND	ND	0
37102	2014-04-22T21:00:00	20.4	ND	ND	ND	ND	ND	ND	ND	ND	ND	ND	0
37103	2014-04-22T22:00:00	24	ND	ND	ND	ND	ND	ND	ND	ND	ND	ND	0
37104	2014-04-22T23:00:00	13.9	ND	ND	ND	ND	ND	ND	ND	ND	ND	ND	0
37105	2014-04-23T00:00:00	52.2	ND	ND	ND	ND	ND	ND	ND	ND	ND	ND	0
37106	2014-04-23T01:00:00	39.7	ND	ND	ND	ND	ND	ND	ND	ND	ND	ND	0
37107	2014-04-23T02:00:00	31	ND	ND	ND	ND	ND	ND	ND	ND	ND	ND	0
37108	2014-04-23T03:00:00	31.4	ND	ND	ND	ND	ND	ND	ND	ND	ND	ND	0
37109	2014-04-23T04:00:00	24	ND	ND	ND	ND	ND	ND	ND	ND	ND	ND	1.78
37110	2014-04-23T05:00:00	12	ND	ND	ND	ND	ND	ND	ND	ND	ND	ND	29.21
37111	2014-04-23T06:00:00	7.3	ND	ND	ND	ND	ND	ND	ND	ND	ND	ND	0.51
37112	2014-04-23T07:00:00	4.9	ND	ND	ND	ND	ND	ND	ND	ND	ND	ND	0
37113	2014-04-23T08:00:00	15.4	ND	ND	ND	ND	ND	ND	ND	ND	ND	ND	1.02
37114	2014-04-23T09:00:00	8.4	ND	ND	ND	ND	ND	ND	ND	ND	ND	ND	0
37115	2014-04-23T10:00:00	5.3	ND	ND	ND	ND	ND	ND	ND	ND	ND	ND	0
37116	2014-04-23T11:00:00	4.8	ND	ND	ND	ND	ND	ND	ND	ND	ND	ND	0
37117	2014-04-23T12:00:00	15.9	ND	ND	ND	ND	ND	ND	ND	ND	ND	ND	0
37118	2014-04-23T13:00:00	8	ND	ND	ND	ND	ND	ND	ND	ND	ND	ND	0
37119	2014-04-23T14:00:00	8	ND	ND	ND	ND	ND	ND	ND	ND	ND	ND	0
37120	2014-04-23T15:00:00	2.4	ND	ND	ND	ND	ND	ND	ND	ND	ND	ND	6.6
37121	2014-04-23T16:00:00	5.3	ND	ND	ND	ND	ND	ND	ND	ND	ND	ND	0
37122	2014-04-23T17:00:00	2.6	ND	ND	ND	ND	ND	ND	ND	ND	ND	ND	0.25
37123	2014-04-23T18:00:00	12.9	ND	ND	ND	ND	ND	ND	ND	ND	ND	ND	0
37124	2014-04-23T19:00:00	14.1	ND	ND	ND	ND	ND	ND	ND	ND	ND	ND	0
37125	2014-04-23T20:00:00	19.3	ND	ND	ND	ND	ND	ND	ND	ND	ND	ND	0
37126	2014-04-23T21:00:00	32.6	ND	ND	ND	ND	ND	ND	ND	ND	ND	ND	0
37127	2014-04-23T22:00:00	40.4	ND	ND	ND	ND	ND	ND	ND	ND	ND	ND	0
37128	2014-04-23T23:00:00	21.1	ND	ND	ND	ND	ND	ND	ND	ND	ND	ND	0
37129	2014-04-24T00:00:00	23.3	ND	ND	ND	ND	ND	ND	ND	ND	ND	ND	0
37130	2014-04-24T01:00:00	13.9	ND	ND	ND	ND	ND	ND	ND	ND	ND	ND	0
37131	2014-04-24T02:00:00	13.7	ND	ND	ND	ND	ND	ND	ND	ND	ND	ND	0
37132	2014-04-24T03:00:00	16.1	ND	ND	ND	ND	ND	ND	ND	ND	ND	ND	0.25
37133	2014-04-24T04:00:00	25.7	ND	ND	ND	ND	ND	ND	ND	ND	ND	ND	0
37134	2014-04-24T05:00:00	38.8	ND	ND	ND	ND	ND	ND	ND	ND	ND	ND	0
37135	2014-04-24T06:00:00	32.8	ND	ND	ND	ND	ND	ND	ND	ND	ND	ND	0
37136	2014-04-24T07:00:00	34	ND	ND	ND	ND	ND	ND	ND	ND	ND	ND	0.76
37137	2014-04-24T08:00:00	46.2	ND	ND	ND	ND	ND	ND	ND	ND	ND	ND	0.51
37138	2014-04-24T09:00:00	24.3	ND	ND	ND	ND	ND	ND	ND	ND	ND	ND	0.25
37139	2014-04-24T10:00:00	21.8	ND	ND	ND	ND	ND	ND	ND	ND	ND	ND	0.25
37140	2014-04-24T11:00:00	17.6	ND	ND	ND	ND	ND	ND	ND	ND	ND	ND	0.25
37141	2014-04-24T12:00:00	18.5	ND	ND	ND	ND	ND	ND	ND	ND	ND	ND	0
37142	2014-04-24T13:00:00	9.8	ND	ND	ND	ND	ND	ND	ND	ND	ND	ND	0.25
37143	2014-04-24T14:00:00	7.1	ND	ND	ND	ND	ND	ND	ND	ND	ND	ND	0
37144	2014-04-24T15:00:00	5.5	ND	ND	ND	ND	ND	ND	ND	ND	ND	ND	0
37145	2014-04-24T16:00:00	17.9	ND	ND	ND	ND	ND	ND	ND	ND	ND	ND	0
37146	2014-04-24T17:00:00	10.9	ND	ND	ND	ND	ND	ND	ND	ND	ND	ND	0
37147	2014-04-24T18:00:00	48.9	ND	ND	ND	ND	ND	ND	ND	ND	ND	ND	0
37148	2014-04-24T19:00:00	45.4	ND	ND	ND	ND	ND	ND	ND	ND	ND	ND	0
37149	2014-04-24T20:00:00	61.3	ND	ND	ND	ND	ND	ND	ND	ND	ND	ND	0
37150	2014-04-24T21:00:00	52.4	ND	ND	ND	ND	ND	ND	ND	ND	ND	ND	0
37151	2014-04-24T22:00:00	59.7	ND	ND	ND	ND	ND	ND	ND	ND	ND	ND	0
37152	2014-04-24T23:00:00	32.5	ND	ND	ND	ND	ND	ND	ND	ND	ND	ND	0
37153	2014-04-25T00:00:00	33.1	ND	ND	ND	ND	ND	ND	ND	ND	ND	ND	0
37154	2014-04-25T01:00:00	41.1	ND	ND	ND	ND	ND	ND	ND	ND	ND	ND	0
37155	2014-04-25T02:00:00	43.9	ND	ND	ND	ND	ND	ND	ND	ND	ND	ND	0
37156	2014-04-25T03:00:00	34.8	ND	ND	ND	ND	ND	ND	ND	ND	ND	ND	0
37157	2014-04-25T04:00:00	18.5	ND	ND	ND	ND	ND	ND	ND	ND	ND	ND	0
37158	2014-04-25T05:00:00	9.8	ND	ND	ND	ND	ND	ND	ND	ND	ND	ND	0
37159	2014-04-25T06:00:00	31.8	ND	ND	ND	ND	ND	ND	ND	ND	ND	ND	0
37160	2014-04-25T07:00:00	76.3	ND	ND	ND	ND	ND	ND	ND	ND	ND	ND	0
37161	2014-04-25T08:00:00	100.1	ND	ND	ND	ND	ND	ND	ND	ND	ND	ND	0
37162	2014-04-25T09:00:00	71.2	ND	ND	ND	ND	ND	ND	ND	ND	ND	ND	0
37163	2014-04-25T10:00:00	74.6	ND	ND	ND	ND	ND	ND	ND	ND	ND	ND	0
37164	2014-04-25T11:00:00	61.6	ND	ND	ND	ND	ND	ND	ND	ND	ND	ND	0
37165	2014-04-25T12:00:00	46.5	ND	ND	ND	ND	ND	ND	ND	ND	ND	ND	0
37166	2014-04-25T13:00:00	23.9	ND	ND	ND	ND	ND	ND	ND	ND	ND	ND	0
37167	2014-04-25T14:00:00	33.2	ND	ND	ND	ND	ND	ND	ND	ND	ND	ND	0
37168	2014-04-25T15:00:00	31.3	ND	ND	ND	ND	ND	ND	ND	ND	ND	ND	0
37169	2014-04-25T16:00:00	31.3	ND	ND	ND	ND	ND	ND	ND	ND	ND	ND	0
37170	2014-04-25T17:00:00	ND	ND	ND	ND	ND	ND	ND	ND	ND	ND	ND	0
37171	2014-04-25T18:00:00	ND	ND	ND	ND	ND	ND	ND	ND	ND	ND	ND	0
37172	2014-04-25T19:00:00	5.5	ND	ND	ND	ND	ND	ND	ND	ND	ND	ND	0
37173	2014-04-25T20:00:00	2.8	ND	ND	ND	ND	ND	ND	ND	ND	ND	ND	0
37174	2014-04-25T21:00:00	3.5	ND	ND	ND	ND	ND	ND	ND	ND	ND	ND	0.51
37175	2014-04-25T22:00:00	1.8	ND	ND	ND	ND	ND	ND	ND	ND	ND	ND	15.75
37176	2014-04-25T23:00:00	2.8	ND	ND	ND	ND	ND	ND	ND	ND	ND	ND	0.25
37177	2014-04-26T00:00:00	1.4	ND	ND	ND	ND	ND	ND	ND	ND	ND	ND	15.24
37178	2014-04-26T01:00:00	0.7	ND	ND	ND	ND	ND	ND	ND	ND	ND	ND	32.51
37179	2014-04-26T02:00:00	8.9	ND	ND	ND	ND	ND	ND	ND	ND	ND	ND	7.37
37180	2014-04-26T03:00:00	5.2	ND	ND	ND	ND	ND	ND	ND	ND	ND	ND	1.78
37181	2014-04-26T04:00:00	4.4	ND	ND	ND	ND	ND	ND	ND	ND	ND	ND	9.4
37182	2014-04-26T05:00:00	3.5	ND	ND	ND	ND	ND	ND	ND	ND	ND	ND	2.54
37183	2014-04-26T06:00:00	3.6	ND	ND	ND	ND	ND	ND	ND	ND	ND	ND	0
37184	2014-04-26T07:00:00	20.7	ND	ND	ND	ND	ND	ND	ND	ND	ND	ND	0
37185	2014-04-26T08:00:00	12.2	ND	ND	ND	ND	ND	ND	ND	ND	ND	ND	0.51
37186	2014-04-26T09:00:00	8.2	ND	ND	ND	ND	ND	ND	ND	ND	ND	ND	0
37187	2014-04-26T10:00:00	37.6	ND	ND	ND	ND	ND	ND	ND	ND	ND	ND	0
37188	2014-04-26T11:00:00	21.2	ND	ND	ND	ND	ND	ND	ND	ND	ND	ND	0
37189	2014-04-26T12:00:00	12	ND	ND	ND	ND	ND	ND	ND	ND	ND	ND	0
37190	2014-04-26T13:00:00	15.5	ND	ND	ND	ND	ND	ND	ND	ND	ND	ND	0
37191	2014-04-26T14:00:00	30.2	ND	ND	ND	ND	ND	ND	ND	ND	ND	ND	0
37192	2014-04-26T15:00:00	16	ND	ND	ND	ND	ND	ND	ND	ND	ND	ND	0
37193	2014-04-26T16:00:00	16	ND	ND	ND	ND	ND	ND	ND	ND	ND	ND	0
37194	2014-04-26T17:00:00	7.9	ND	ND	ND	ND	ND	ND	ND	ND	ND	ND	0
37195	2014-04-26T18:00:00	7.9	ND	ND	ND	ND	ND	ND	ND	ND	ND	ND	0
37196	2014-04-26T19:00:00	1.4	ND	ND	ND	ND	ND	ND	ND	ND	ND	ND	0
37197	2014-04-26T20:00:00	2.6	ND	ND	ND	ND	ND	ND	ND	ND	ND	ND	0
37198	2014-04-26T21:00:00	3.2	ND	ND	ND	ND	ND	ND	ND	ND	ND	ND	0
37199	2014-04-26T22:00:00	2.9	ND	ND	ND	ND	ND	ND	ND	ND	ND	ND	0
37200	2014-04-26T23:00:00	3.2	ND	ND	ND	ND	ND	ND	ND	ND	ND	ND	0
37201	2014-04-27T00:00:00	27.9	ND	ND	ND	ND	ND	ND	ND	ND	ND	ND	0
37202	2014-04-27T01:00:00	15.3	ND	ND	ND	ND	ND	ND	ND	ND	ND	ND	0
37203	2014-04-27T02:00:00	11.1	ND	ND	ND	ND	ND	ND	ND	ND	ND	ND	0
37204	2014-04-27T03:00:00	6.3	ND	ND	ND	ND	ND	ND	ND	ND	ND	ND	0
37205	2014-04-27T04:00:00	5	ND	ND	ND	ND	ND	ND	ND	ND	ND	ND	0
37206	2014-04-27T05:00:00	4	ND	ND	ND	ND	ND	ND	ND	ND	ND	ND	0
37207	2014-04-27T06:00:00	4	ND	ND	ND	ND	ND	ND	ND	ND	ND	ND	0.51
37208	2014-04-27T07:00:00	4.1	ND	ND	ND	ND	ND	ND	ND	ND	ND	ND	0.25
37209	2014-04-27T08:00:00	3.6	ND	ND	ND	ND	ND	ND	ND	ND	ND	ND	0
37210	2014-04-27T09:00:00	3.5	ND	ND	ND	ND	ND	ND	ND	ND	ND	ND	0
37211	2014-04-27T10:00:00	2.9	ND	ND	ND	ND	ND	ND	ND	ND	ND	ND	0
37212	2014-04-27T11:00:00	3.7	ND	ND	ND	ND	ND	ND	ND	ND	ND	ND	0
37213	2014-04-27T12:00:00	2.6	ND	ND	ND	ND	ND	ND	ND	ND	ND	ND	0
37214	2014-04-27T13:00:00	3	ND	ND	ND	ND	ND	ND	ND	ND	ND	ND	0
37215	2014-04-27T14:00:00	3.3	ND	ND	ND	ND	ND	ND	ND	ND	ND	ND	0
37216	2014-04-27T15:00:00	2.4	ND	ND	ND	ND	ND	ND	ND	ND	ND	ND	0
37217	2014-04-27T16:00:00	3.3	ND	ND	ND	ND	ND	ND	ND	ND	ND	ND	0
37218	2014-04-27T17:00:00	1.6	ND	ND	ND	ND	ND	ND	ND	ND	ND	ND	0
37219	2014-04-27T18:00:00	1.6	ND	ND	ND	ND	ND	ND	ND	ND	ND	ND	0
37220	2014-04-27T19:00:00	ND	ND	ND	ND	ND	ND	ND	ND	ND	ND	ND	0
37221	2014-04-27T20:00:00	ND	ND	ND	ND	ND	ND	ND	ND	ND	ND	ND	0
37222	2014-04-27T21:00:00	1.5	ND	ND	ND	ND	ND	ND	ND	ND	ND	ND	0
37223	2014-04-27T22:00:00	1.5	ND	ND	ND	ND	ND	ND	ND	ND	ND	ND	0
37224	2014-04-27T23:00:00	1.8	ND	ND	ND	ND	ND	ND	ND	ND	ND	ND	0
37225	2014-04-28T00:00:00	16.9	ND	ND	ND	ND	ND	ND	ND	ND	ND	ND	0
37226	2014-04-28T01:00:00	9.7	ND	ND	ND	ND	ND	ND	ND	ND	ND	ND	0
37227	2014-04-28T02:00:00	4.8	ND	ND	ND	ND	ND	ND	ND	ND	ND	ND	0
37228	2014-04-28T03:00:00	3.5	ND	ND	ND	ND	ND	ND	ND	ND	ND	ND	0
37229	2014-04-28T04:00:00	2.8	ND	ND	ND	ND	ND	ND	ND	ND	ND	ND	0
37230	2014-04-28T05:00:00	2.1	ND	ND	ND	ND	ND	ND	ND	ND	ND	ND	0
37231	2014-04-28T06:00:00	11.4	ND	ND	ND	ND	ND	ND	ND	ND	ND	ND	0
37232	2014-04-28T07:00:00	24.4	ND	ND	ND	ND	ND	ND	ND	ND	ND	ND	0
37233	2014-04-28T08:00:00	71.8	ND	ND	ND	ND	ND	ND	ND	ND	ND	ND	0
37234	2014-04-28T09:00:00	73.9	ND	ND	ND	ND	ND	ND	ND	ND	ND	ND	0
37235	2014-04-28T10:00:00	48.2	ND	ND	ND	ND	ND	ND	ND	ND	ND	ND	0
37236	2014-04-28T11:00:00	26.3	ND	ND	ND	ND	ND	ND	ND	ND	ND	ND	0
37237	2014-04-28T12:00:00	27	ND	ND	ND	ND	ND	ND	ND	ND	ND	ND	0
37238	2014-04-28T13:00:00	13.5	ND	ND	ND	ND	ND	ND	ND	ND	ND	ND	0
37239	2014-04-28T14:00:00	13.5	ND	ND	ND	ND	ND	ND	ND	ND	ND	ND	0
37240	2014-04-28T15:00:00	ND	ND	ND	ND	ND	ND	ND	ND	ND	ND	ND	0
37241	2014-04-28T16:00:00	ND	ND	ND	ND	ND	ND	ND	ND	ND	ND	ND	0
37242	2014-04-28T17:00:00	ND	ND	ND	ND	ND	ND	ND	ND	ND	ND	ND	0
37243	2014-04-28T18:00:00	2.3	ND	ND	ND	ND	ND	ND	ND	ND	ND	ND	0
37244	2014-04-28T19:00:00	1.9	ND	ND	ND	ND	ND	ND	ND	ND	ND	ND	24.89
37245	2014-04-28T20:00:00	0.9	ND	ND	ND	ND	ND	ND	ND	ND	ND	ND	23.37
37246	2014-04-28T21:00:00	2.4	ND	ND	ND	ND	ND	ND	ND	ND	ND	ND	0
37247	2014-04-28T22:00:00	7.6	ND	ND	ND	ND	ND	ND	ND	ND	ND	ND	0.25
37248	2014-04-28T23:00:00	10.5	ND	ND	ND	ND	ND	ND	ND	ND	ND	ND	0
37249	2014-04-29T00:00:00	5.8	ND	ND	ND	ND	ND	ND	ND	ND	ND	ND	0
37250	2014-04-29T01:00:00	2.9	ND	ND	ND	ND	ND	ND	ND	ND	ND	ND	0
37251	2014-04-29T02:00:00	1.5	ND	ND	ND	ND	ND	ND	ND	ND	ND	ND	0.25
37252	2014-04-29T03:00:00	1.8	ND	ND	ND	ND	ND	ND	ND	ND	ND	ND	0
37253	2014-04-29T04:00:00	2.8	ND	ND	ND	ND	ND	ND	ND	ND	ND	ND	0
37254	2014-04-29T05:00:00	2.4	ND	ND	ND	ND	ND	ND	ND	ND	ND	ND	0
37255	2014-04-29T06:00:00	6.3	ND	ND	ND	ND	ND	ND	ND	ND	ND	ND	0.25
37256	2014-04-29T07:00:00	5.3	ND	ND	ND	ND	ND	ND	ND	ND	ND	ND	0.51
37257	2014-04-29T08:00:00	16.1	ND	ND	ND	ND	ND	ND	ND	ND	ND	ND	0.25
37258	2014-04-29T09:00:00	9.6	ND	ND	ND	ND	ND	ND	ND	ND	ND	ND	0
37259	2014-04-29T10:00:00	7.1	ND	ND	ND	ND	ND	ND	ND	ND	ND	ND	0
37260	2014-04-29T11:00:00	4.9	ND	ND	ND	ND	ND	ND	ND	ND	ND	ND	0
37261	2014-04-29T12:00:00	14.2	ND	ND	ND	ND	ND	ND	ND	ND	ND	ND	0
37262	2014-04-29T13:00:00	9.8	ND	ND	ND	ND	ND	ND	ND	ND	ND	ND	0
37263	2014-04-29T14:00:00	19.8	ND	ND	ND	ND	ND	ND	ND	ND	ND	ND	0
37264	2014-04-29T15:00:00	ND	ND	ND	ND	ND	ND	ND	ND	ND	ND	ND	ND
37265	2014-04-29T16:00:00	ND	ND	ND	ND	ND	ND	ND	ND	ND	ND	ND	ND
37266	2014-04-29T17:00:00	ND	ND	ND	ND	ND	ND	ND	ND	ND	ND	ND	0
37267	2014-04-29T18:00:00	ND	ND	ND	ND	ND	ND	ND	ND	ND	ND	ND	0
37268	2014-04-29T19:00:00	0.7	ND	ND	ND	ND	ND	ND	ND	ND	ND	ND	0
37269	2014-04-29T20:00:00	4.1	ND	ND	ND	ND	ND	ND	ND	ND	ND	ND	0
37270	2014-04-29T21:00:00	4	ND	ND	ND	ND	ND	ND	ND	ND	ND	ND	0
37271	2014-04-29T22:00:00	6	ND	ND	ND	ND	ND	ND	ND	ND	ND	ND	0
37272	2014-04-29T23:00:00	8.4	ND	ND	ND	ND	ND	ND	ND	ND	ND	ND	0
37273	2014-04-30T00:00:00	17.7	ND	ND	ND	ND	ND	ND	ND	ND	ND	ND	0
37274	2014-04-30T01:00:00	10.8	ND	ND	ND	ND	ND	ND	ND	ND	ND	ND	0
37275	2014-04-30T02:00:00	20.6	ND	ND	ND	ND	ND	ND	ND	ND	ND	ND	0
37276	2014-04-30T03:00:00	11.6	ND	ND	ND	ND	ND	ND	ND	ND	ND	ND	0
37277	2014-04-30T04:00:00	18.5	ND	ND	ND	ND	ND	ND	ND	ND	ND	ND	0
37278	2014-04-30T05:00:00	10.8	ND	ND	ND	ND	ND	ND	ND	ND	ND	ND	0
37279	2014-04-30T06:00:00	5.4	ND	ND	ND	ND	ND	ND	ND	ND	ND	ND	0
37280	2014-04-30T07:00:00	3.6	ND	ND	ND	ND	ND	ND	ND	ND	ND	ND	0
37281	2014-04-30T08:00:00	31.3	ND	ND	ND	ND	ND	ND	ND	ND	ND	ND	0
37282	2014-04-30T09:00:00	38.1	ND	ND	ND	ND	ND	ND	ND	ND	ND	ND	0
37283	2014-04-30T10:00:00	22.7	ND	ND	ND	ND	ND	ND	ND	ND	ND	ND	0
37284	2014-04-30T11:00:00	22.9	ND	ND	ND	ND	ND	ND	ND	ND	ND	ND	0
37285	2014-04-30T12:00:00	24.2	ND	ND	ND	ND	ND	ND	ND	ND	ND	ND	0
37286	2014-04-30T13:00:00	18.1	ND	ND	ND	ND	ND	ND	ND	ND	ND	ND	0
37287	2014-04-30T14:00:00	22.8	ND	ND	ND	ND	ND	ND	ND	ND	ND	ND	0
37288	2014-04-30T15:00:00	11.9	ND	ND	ND	ND	ND	ND	ND	ND	ND	ND	0
37289	2014-04-30T16:00:00	21.4	ND	ND	ND	ND	ND	ND	ND	ND	ND	ND	0
37290	2014-04-30T17:00:00	12.2	ND	ND	ND	ND	ND	ND	ND	ND	ND	ND	0
37291	2014-04-30T18:00:00	27.7	ND	ND	ND	ND	ND	ND	ND	ND	ND	ND	0
37292	2014-04-30T19:00:00	18.9	ND	ND	ND	ND	ND	ND	ND	ND	ND	ND	0
37293	2014-04-30T20:00:00	19.9	ND	ND	ND	ND	ND	ND	ND	ND	ND	ND	0
37294	2014-04-30T21:00:00	39.4	ND	ND	ND	ND	ND	ND	ND	ND	ND	ND	0
37295	2014-04-30T22:00:00	83.3	ND	ND	ND	ND	ND	ND	ND	ND	ND	ND	0
37296	2014-04-30T23:00:00	67.2	ND	ND	ND	ND	ND	ND	ND	ND	ND	ND	0
37297	2014-05-01T00:00:00	115.4	ND	ND	ND	ND	ND	ND	ND	ND	ND	ND	0
37298	2014-05-01T01:00:00	83.1	ND	ND	ND	ND	ND	ND	ND	ND	ND	ND	0
37299	2014-05-01T02:00:00	76.2	ND	ND	ND	ND	ND	ND	ND	ND	ND	ND	0
37300	2014-05-01T03:00:00	77.3	ND	ND	ND	ND	ND	ND	ND	ND	ND	ND	0
37301	2014-05-01T04:00:00	45.7	ND	ND	ND	ND	ND	ND	ND	ND	ND	ND	0
37302	2014-05-01T05:00:00	48.4	ND	ND	ND	ND	ND	ND	ND	ND	ND	ND	0
37303	2014-05-01T06:00:00	60.7	ND	ND	ND	ND	ND	ND	ND	ND	ND	ND	0
37304	2014-05-01T07:00:00	49.2	ND	ND	ND	ND	ND	ND	ND	ND	ND	ND	0
37305	2014-05-01T08:00:00	47.5	ND	ND	ND	ND	ND	ND	ND	ND	ND	ND	0
37306	2014-05-01T09:00:00	24.5	ND	ND	ND	ND	ND	ND	ND	ND	ND	ND	0
37307	2014-05-01T10:00:00	16.5	ND	ND	ND	ND	ND	ND	ND	ND	ND	ND	0
37308	2014-05-01T11:00:00	9.5	ND	ND	ND	ND	ND	ND	ND	ND	ND	ND	0
37309	2014-05-01T12:00:00	9.3	ND	ND	ND	ND	ND	ND	ND	ND	ND	ND	0
37310	2014-05-01T13:00:00	ND	ND	ND	ND	ND	ND	ND	ND	ND	ND	ND	0
37311	2014-05-01T14:00:00	ND	ND	ND	ND	ND	ND	ND	ND	ND	ND	ND	0
37312	2014-05-01T15:00:00	ND	ND	ND	ND	ND	ND	ND	ND	ND	ND	ND	0
37313	2014-05-01T16:00:00	ND	ND	ND	ND	ND	ND	ND	ND	ND	ND	ND	0
37314	2014-05-01T17:00:00	ND	ND	ND	ND	ND	ND	ND	ND	ND	ND	ND	0
37315	2014-05-01T18:00:00	ND	ND	ND	ND	ND	ND	ND	ND	ND	ND	ND	0
37316	2014-05-01T19:00:00	ND	ND	ND	ND	ND	ND	ND	ND	ND	ND	ND	0
37317	2014-05-01T20:00:00	ND	ND	ND	ND	ND	ND	ND	ND	ND	ND	ND	4.32
37318	2014-05-01T21:00:00	ND	ND	ND	ND	ND	ND	ND	ND	ND	ND	ND	0.51
37319	2014-05-01T22:00:00	98.8	ND	ND	ND	ND	ND	ND	ND	ND	ND	ND	0
37320	2014-05-01T23:00:00	50.3	ND	ND	ND	ND	ND	ND	ND	ND	ND	ND	0
37321	2014-05-02T00:00:00	34.1	ND	ND	ND	ND	ND	ND	ND	ND	ND	ND	4.83
37322	2014-05-02T01:00:00	18.9	ND	ND	ND	ND	ND	ND	ND	ND	ND	ND	0.51
37323	2014-05-02T02:00:00	10.1	ND	ND	ND	ND	ND	ND	ND	ND	ND	ND	0
37324	2014-05-02T03:00:00	7.1	ND	ND	ND	ND	ND	ND	ND	ND	ND	ND	0.25
37325	2014-05-02T04:00:00	5.4	ND	ND	ND	ND	ND	ND	ND	ND	ND	ND	0
37326	2014-05-02T05:00:00	15.9	ND	ND	ND	ND	ND	ND	ND	ND	ND	ND	0
37327	2014-05-02T06:00:00	26.1	ND	ND	ND	ND	ND	ND	ND	ND	ND	ND	0
37328	2014-05-02T07:00:00	13.7	ND	ND	ND	ND	ND	ND	ND	ND	ND	ND	0
37329	2014-05-02T08:00:00	21	ND	ND	ND	ND	ND	ND	ND	ND	ND	ND	0
37330	2014-05-02T09:00:00	25.6	ND	ND	ND	ND	ND	ND	ND	ND	ND	ND	0
37331	2014-05-02T10:00:00	24.1	ND	ND	ND	ND	ND	ND	ND	ND	ND	ND	0
37332	2014-05-02T11:00:00	13.4	ND	ND	ND	ND	ND	ND	ND	ND	ND	ND	0
37333	2014-05-02T12:00:00	21.7	ND	ND	ND	ND	ND	ND	ND	ND	ND	ND	0
37334	2014-05-02T13:00:00	12.7	ND	ND	ND	ND	ND	ND	ND	ND	ND	ND	0
37335	2014-05-02T14:00:00	28.5	ND	ND	ND	ND	ND	ND	ND	ND	ND	ND	0
37336	2014-05-02T15:00:00	15.8	ND	ND	ND	ND	ND	ND	ND	ND	ND	ND	5.84
37337	2014-05-02T16:00:00	8.9	ND	ND	ND	ND	ND	ND	ND	ND	ND	ND	1.78
37338	2014-05-02T17:00:00	10.4	ND	ND	ND	ND	ND	ND	ND	ND	ND	ND	0.25
37339	2014-05-02T18:00:00	27.2	ND	ND	ND	ND	ND	ND	ND	ND	ND	ND	0
37340	2014-05-02T19:00:00	14.9	ND	ND	ND	ND	ND	ND	ND	ND	ND	ND	0
37341	2014-05-02T20:00:00	38.3	ND	ND	ND	ND	ND	ND	ND	ND	ND	ND	0
37342	2014-05-02T21:00:00	27.4	ND	ND	ND	ND	ND	ND	ND	ND	ND	ND	0
37343	2014-05-02T22:00:00	45.5	ND	ND	ND	ND	ND	ND	ND	ND	ND	ND	0
37344	2014-05-02T23:00:00	39.8	ND	ND	ND	ND	ND	ND	ND	ND	ND	ND	0
37345	2014-05-03T00:00:00	22.5	ND	ND	ND	ND	ND	ND	ND	ND	ND	ND	0
37346	2014-05-03T01:00:00	18.9	ND	ND	ND	ND	ND	ND	ND	ND	ND	ND	0
37347	2014-05-03T02:00:00	13.3	ND	ND	ND	ND	ND	ND	ND	ND	ND	ND	0
37348	2014-05-03T03:00:00	8.8	ND	ND	ND	ND	ND	ND	ND	ND	ND	ND	0
37349	2014-05-03T04:00:00	6	ND	ND	ND	ND	ND	ND	ND	ND	ND	ND	0
37350	2014-05-03T05:00:00	3.9	ND	ND	ND	ND	ND	ND	ND	ND	ND	ND	0
37351	2014-05-03T06:00:00	5.7	ND	ND	ND	ND	ND	ND	ND	ND	ND	ND	0
37352	2014-05-03T07:00:00	24.8	ND	ND	ND	ND	ND	ND	ND	ND	ND	ND	0
37353	2014-05-03T08:00:00	31.5	ND	ND	ND	ND	ND	ND	ND	ND	ND	ND	0
37354	2014-05-03T09:00:00	25.2	ND	ND	ND	ND	ND	ND	ND	ND	ND	ND	0
37355	2014-05-03T10:00:00	35.5	ND	ND	ND	ND	ND	ND	ND	ND	ND	ND	0
37356	2014-05-03T11:00:00	19.7	ND	ND	ND	ND	ND	ND	ND	ND	ND	ND	0
37357	2014-05-03T12:00:00	11.5	ND	ND	ND	ND	ND	ND	ND	ND	ND	ND	0
37358	2014-05-03T13:00:00	12.5	ND	ND	ND	ND	ND	ND	ND	ND	ND	ND	0
37359	2014-05-03T14:00:00	16.2	ND	ND	ND	ND	ND	ND	ND	ND	ND	ND	0
37360	2014-05-03T15:00:00	15.9	ND	ND	ND	ND	ND	ND	ND	ND	ND	ND	0
37361	2014-05-03T16:00:00	34.3	ND	ND	ND	ND	ND	ND	ND	ND	ND	ND	0
37362	2014-05-03T17:00:00	17.9	ND	ND	ND	ND	ND	ND	ND	ND	ND	ND	0
37363	2014-05-03T18:00:00	8.9	ND	ND	ND	ND	ND	ND	ND	ND	ND	ND	0
37364	2014-05-03T19:00:00	5.7	ND	ND	ND	ND	ND	ND	ND	ND	ND	ND	0
37365	2014-05-03T20:00:00	3.7	ND	ND	ND	ND	ND	ND	ND	ND	ND	ND	0
37366	2014-05-03T21:00:00	2.5	ND	ND	ND	ND	ND	ND	ND	ND	ND	ND	0
37367	2014-05-03T22:00:00	2.8	ND	ND	ND	ND	ND	ND	ND	ND	ND	ND	0
37368	2014-05-03T23:00:00	9	ND	ND	ND	ND	ND	ND	ND	ND	ND	ND	0
37369	2014-05-04T00:00:00	8.7	ND	ND	ND	ND	ND	ND	ND	ND	ND	ND	0
37370	2014-05-04T01:00:00	12.7	ND	ND	ND	ND	ND	ND	ND	ND	ND	ND	0
37371	2014-05-04T02:00:00	8.1	ND	ND	ND	ND	ND	ND	ND	ND	ND	ND	0
37372	2014-05-04T03:00:00	13.6	ND	ND	ND	ND	ND	ND	ND	ND	ND	ND	0
37373	2014-05-04T04:00:00	8.3	ND	ND	ND	ND	ND	ND	ND	ND	ND	ND	0
37374	2014-05-04T05:00:00	5.3	ND	ND	ND	ND	ND	ND	ND	ND	ND	ND	0
37375	2014-05-04T06:00:00	ND	ND	ND	ND	ND	ND	ND	ND	ND	ND	ND	0
37376	2014-05-04T07:00:00	ND	ND	ND	ND	ND	ND	ND	ND	ND	ND	ND	0
37377	2014-05-04T08:00:00	ND	ND	ND	ND	ND	ND	ND	ND	ND	ND	ND	0
37378	2014-05-04T09:00:00	ND	ND	ND	ND	ND	ND	ND	ND	ND	ND	ND	0
37379	2014-05-04T10:00:00	ND	ND	ND	ND	ND	ND	ND	ND	ND	ND	ND	0
37380	2014-05-04T11:00:00	125	ND	ND	ND	ND	ND	ND	ND	ND	ND	ND	0
37381	2014-05-04T12:00:00	74.2	ND	ND	ND	ND	ND	ND	ND	ND	ND	ND	0
37382	2014-05-04T13:00:00	39.7	ND	ND	ND	ND	ND	ND	ND	ND	ND	ND	0
37383	2014-05-04T14:00:00	36.1	ND	ND	ND	ND	ND	ND	ND	ND	ND	ND	0
37384	2014-05-04T15:00:00	19.3	ND	ND	ND	ND	ND	ND	ND	ND	ND	ND	0
37385	2014-05-04T16:00:00	ND	ND	ND	ND	ND	ND	ND	ND	ND	ND	ND	0
37386	2014-05-04T17:00:00	ND	ND	ND	ND	ND	ND	ND	ND	ND	ND	ND	0
37387	2014-05-04T18:00:00	ND	ND	ND	ND	ND	ND	ND	ND	ND	ND	ND	0
37388	2014-05-04T19:00:00	ND	ND	ND	ND	ND	ND	ND	ND	ND	ND	ND	0
37389	2014-05-04T20:00:00	ND	ND	ND	ND	ND	ND	ND	ND	ND	ND	ND	0
37390	2014-05-04T21:00:00	168.7	ND	ND	ND	ND	ND	ND	ND	ND	ND	ND	0
37391	2014-05-04T22:00:00	103.2	ND	ND	ND	ND	ND	ND	ND	ND	ND	ND	0
37392	2014-05-04T23:00:00	52.8	ND	ND	ND	ND	ND	ND	ND	ND	ND	ND	0
37393	2014-05-05T00:00:00	28.4	ND	ND	ND	ND	ND	ND	ND	ND	ND	ND	0
37394	2014-05-05T01:00:00	16.1	ND	ND	ND	ND	ND	ND	ND	ND	ND	ND	0
37395	2014-05-05T02:00:00	10.3	ND	ND	ND	ND	ND	ND	ND	ND	ND	ND	0
37396	2014-05-05T03:00:00	5.8	ND	ND	ND	ND	ND	ND	ND	ND	ND	ND	0
37397	2014-05-05T04:00:00	18.1	ND	ND	ND	ND	ND	ND	ND	ND	ND	ND	0
37398	2014-05-05T05:00:00	37.9	ND	ND	ND	ND	ND	ND	ND	ND	ND	ND	0
37399	2014-05-05T06:00:00	42.2	ND	ND	ND	ND	ND	ND	ND	ND	ND	ND	0
37400	2014-05-05T07:00:00	28.2	ND	ND	ND	ND	ND	ND	ND	ND	ND	ND	0
37401	2014-05-05T08:00:00	48.4	ND	ND	ND	ND	ND	ND	ND	ND	ND	ND	0
37402	2014-05-05T09:00:00	61.8	ND	ND	ND	ND	ND	ND	ND	ND	ND	ND	0
37403	2014-05-05T10:00:00	70.3	ND	ND	ND	ND	ND	ND	ND	ND	ND	ND	0
37404	2014-05-05T11:00:00	48.9	ND	ND	ND	ND	ND	ND	ND	ND	ND	ND	0
37405	2014-05-05T12:00:00	53.1	ND	ND	ND	ND	ND	ND	ND	ND	ND	ND	0
37406	2014-05-05T13:00:00	36.4	ND	ND	ND	ND	ND	ND	ND	ND	ND	ND	0
37407	2014-05-05T14:00:00	48.2	ND	ND	ND	ND	ND	ND	ND	ND	ND	ND	0
37408	2014-05-05T15:00:00	34.1	ND	ND	ND	ND	ND	ND	ND	ND	ND	ND	0
37409	2014-05-05T16:00:00	19.2	ND	ND	ND	ND	ND	ND	ND	ND	ND	ND	0
37410	2014-05-05T17:00:00	11.9	ND	ND	ND	ND	ND	ND	ND	ND	ND	ND	0
37411	2014-05-05T18:00:00	ND	ND	ND	ND	ND	ND	ND	ND	ND	ND	ND	0
37412	2014-05-05T19:00:00	ND	ND	ND	ND	ND	ND	ND	ND	ND	ND	ND	0
37413	2014-05-05T20:00:00	ND	ND	ND	ND	ND	ND	ND	ND	ND	ND	ND	0
37414	2014-05-05T21:00:00	ND	ND	ND	ND	ND	ND	ND	ND	ND	ND	ND	0
37415	2014-05-05T22:00:00	ND	ND	ND	ND	ND	ND	ND	ND	ND	ND	ND	0
37416	2014-05-05T23:00:00	ND	ND	ND	ND	ND	ND	ND	ND	ND	ND	ND	0
37417	2014-05-06T00:00:00	ND	ND	ND	ND	ND	ND	ND	ND	ND	ND	ND	0
37418	2014-05-06T01:00:00	141.5	ND	ND	ND	ND	ND	ND	ND	ND	ND	ND	0
37419	2014-05-06T02:00:00	91.1	ND	ND	ND	ND	ND	ND	ND	ND	ND	ND	0
37420	2014-05-06T03:00:00	50.3	ND	ND	ND	ND	ND	ND	ND	ND	ND	ND	0
37421	2014-05-06T04:00:00	37.4	ND	ND	ND	ND	ND	ND	ND	ND	ND	ND	0
37422	2014-05-06T05:00:00	26	ND	ND	ND	ND	ND	ND	ND	ND	ND	ND	0
37423	2014-05-06T06:00:00	39.7	ND	ND	ND	ND	ND	ND	ND	ND	ND	ND	0
37424	2014-05-06T07:00:00	42.2	ND	ND	ND	ND	ND	ND	ND	ND	ND	ND	0
37425	2014-05-06T08:00:00	89.1	ND	ND	ND	ND	ND	ND	ND	ND	ND	ND	0
37426	2014-05-06T09:00:00	109.5	ND	ND	ND	ND	ND	ND	ND	ND	ND	ND	0
37427	2014-05-06T10:00:00	93.6	ND	ND	ND	ND	ND	ND	ND	ND	ND	ND	0
37428	2014-05-06T11:00:00	59.2	ND	ND	ND	ND	ND	ND	ND	ND	ND	ND	0
37429	2014-05-06T12:00:00	65.9	ND	ND	ND	ND	ND	ND	ND	ND	ND	ND	0
37430	2014-05-06T13:00:00	35.1	ND	ND	ND	ND	ND	ND	ND	ND	ND	ND	0
37431	2014-05-06T14:00:00	49.1	ND	ND	ND	ND	ND	ND	ND	ND	ND	ND	7.11
37432	2014-05-06T15:00:00	26	ND	ND	ND	ND	ND	ND	ND	ND	ND	ND	0.25
37433	2014-05-06T16:00:00	44.1	ND	ND	ND	ND	ND	ND	ND	ND	ND	ND	0
37434	2014-05-06T17:00:00	26.6	ND	ND	ND	ND	ND	ND	ND	ND	ND	ND	0
37435	2014-05-06T18:00:00	40.6	ND	ND	ND	ND	ND	ND	ND	ND	ND	ND	0.25
37436	2014-05-06T19:00:00	21.8	ND	ND	ND	ND	ND	ND	ND	ND	ND	ND	0
37437	2014-05-06T20:00:00	34.9	ND	ND	ND	ND	ND	ND	ND	ND	ND	ND	0
37438	2014-05-06T21:00:00	24.9	ND	ND	ND	ND	ND	ND	ND	ND	ND	ND	0
37439	2014-05-06T22:00:00	51.5	ND	ND	ND	ND	ND	ND	ND	ND	ND	ND	0
37440	2014-05-06T23:00:00	30.4	ND	ND	ND	ND	ND	ND	ND	ND	ND	ND	0
37441	2014-05-07T00:00:00	52.8	ND	ND	ND	ND	ND	ND	ND	ND	ND	ND	0
37442	2014-05-07T01:00:00	27.8	ND	ND	ND	ND	ND	ND	ND	ND	ND	ND	0
37443	2014-05-07T02:00:00	35.4	ND	ND	ND	ND	ND	ND	ND	ND	ND	ND	0
37444	2014-05-07T03:00:00	26.3	ND	ND	ND	ND	ND	ND	ND	ND	ND	ND	0
37445	2014-05-07T04:00:00	36	ND	ND	ND	ND	ND	ND	ND	ND	ND	ND	0
37446	2014-05-07T05:00:00	23.5	ND	ND	ND	ND	ND	ND	ND	ND	ND	ND	0
37447	2014-05-07T06:00:00	38.8	ND	ND	ND	ND	ND	ND	ND	ND	ND	ND	0
37448	2014-05-07T07:00:00	22.3	ND	ND	ND	ND	ND	ND	ND	ND	ND	ND	11.94
37449	2014-05-07T08:00:00	20.7	ND	ND	ND	ND	ND	ND	ND	ND	ND	ND	19.3
37450	2014-05-07T09:00:00	11.4	ND	ND	ND	ND	ND	ND	ND	ND	ND	ND	6.6
37451	2014-05-07T10:00:00	14.1	ND	ND	ND	ND	ND	ND	ND	ND	ND	ND	0.76
37452	2014-05-07T11:00:00	7.5	ND	ND	ND	ND	ND	ND	ND	ND	ND	ND	0
37453	2014-05-07T12:00:00	5.1	ND	ND	ND	ND	ND	ND	ND	ND	ND	ND	0
37454	2014-05-07T13:00:00	3.9	ND	ND	ND	ND	ND	ND	ND	ND	ND	ND	0
37455	2014-05-07T14:00:00	13	ND	ND	ND	ND	ND	ND	ND	ND	ND	ND	0
37456	2014-05-07T15:00:00	7.2	ND	ND	ND	ND	ND	ND	ND	ND	ND	ND	0
37457	2014-05-07T16:00:00	14.6	ND	ND	ND	ND	ND	ND	ND	ND	ND	ND	0
37458	2014-05-07T17:00:00	8.8	ND	ND	ND	ND	ND	ND	ND	ND	ND	ND	12.19
37459	2014-05-07T18:00:00	30.6	ND	ND	ND	ND	ND	ND	ND	ND	ND	ND	12.45
37460	2014-05-07T19:00:00	17.2	ND	ND	ND	ND	ND	ND	ND	ND	ND	ND	0.25
37461	2014-05-07T20:00:00	26.5	ND	ND	ND	ND	ND	ND	ND	ND	ND	ND	0
37462	2014-05-07T21:00:00	49.4	ND	ND	ND	ND	ND	ND	ND	ND	ND	ND	0.25
37463	2014-05-07T22:00:00	68.6	ND	ND	ND	ND	ND	ND	ND	ND	ND	ND	0
37464	2014-05-07T23:00:00	48.1	ND	ND	ND	ND	ND	ND	ND	ND	ND	ND	0
37465	2014-05-08T00:00:00	36.4	ND	ND	ND	ND	ND	ND	ND	ND	ND	ND	0
37466	2014-05-08T01:00:00	28.9	ND	ND	ND	ND	ND	ND	ND	ND	ND	ND	0
37467	2014-05-08T02:00:00	46.8	ND	ND	ND	ND	ND	ND	ND	ND	ND	ND	0
37468	2014-05-08T03:00:00	24.7	ND	ND	ND	ND	ND	ND	ND	ND	ND	ND	0
37469	2014-05-08T04:00:00	14.8	ND	ND	ND	ND	ND	ND	ND	ND	ND	ND	0
37470	2014-05-08T05:00:00	8	ND	ND	ND	ND	ND	ND	ND	ND	ND	ND	0
37471	2014-05-08T06:00:00	14.2	ND	ND	ND	ND	ND	ND	ND	ND	ND	ND	0
37472	2014-05-08T07:00:00	25	ND	ND	ND	ND	ND	ND	ND	ND	ND	ND	0
37473	2014-05-08T08:00:00	132.1	ND	ND	ND	ND	ND	ND	ND	ND	ND	ND	0
37474	2014-05-08T09:00:00	89.3	ND	ND	ND	ND	ND	ND	ND	ND	ND	ND	0
37475	2014-05-08T10:00:00	78.3	ND	ND	ND	ND	ND	ND	ND	ND	ND	ND	0
37476	2014-05-08T11:00:00	60.9	ND	ND	ND	ND	ND	ND	ND	ND	ND	ND	0
37477	2014-05-08T12:00:00	41.6	ND	ND	ND	ND	ND	ND	ND	ND	ND	ND	0
37478	2014-05-08T13:00:00	22.5	ND	ND	ND	ND	ND	ND	ND	ND	ND	ND	0
37479	2014-05-08T14:00:00	15.4	ND	ND	ND	ND	ND	ND	ND	ND	ND	ND	0
37480	2014-05-08T15:00:00	9.6	ND	ND	ND	ND	ND	ND	ND	ND	ND	ND	0
37481	2014-05-08T16:00:00	6.5	ND	ND	ND	ND	ND	ND	ND	ND	ND	ND	0
37482	2014-05-08T17:00:00	25.1	ND	ND	ND	ND	ND	ND	ND	ND	ND	ND	0
37483	2014-05-08T18:00:00	25	ND	ND	ND	ND	ND	ND	ND	ND	ND	ND	0
37484	2014-05-08T19:00:00	28.3	ND	ND	ND	ND	ND	ND	ND	ND	ND	ND	0
37485	2014-05-08T20:00:00	16.1	ND	ND	ND	ND	ND	ND	ND	ND	ND	ND	0
37486	2014-05-08T21:00:00	9.1	ND	ND	ND	ND	ND	ND	ND	ND	ND	ND	0
37487	2014-05-08T22:00:00	12.6	ND	ND	ND	ND	ND	ND	ND	ND	ND	ND	0
37488	2014-05-08T23:00:00	7.3	ND	ND	ND	ND	ND	ND	ND	ND	ND	ND	0
37489	2014-05-09T00:00:00	3.7	ND	ND	ND	ND	ND	ND	ND	ND	ND	ND	0
37490	2014-05-09T01:00:00	3	ND	ND	ND	ND	ND	ND	ND	ND	ND	ND	16.51
37491	2014-05-09T02:00:00	3.5	ND	ND	ND	ND	ND	ND	ND	ND	ND	ND	36.83
37492	2014-05-09T03:00:00	1.7	ND	ND	ND	ND	ND	ND	ND	ND	ND	ND	14.22
37493	2014-05-09T04:00:00	0.9	ND	ND	ND	ND	ND	ND	ND	ND	ND	ND	6.35
37494	2014-05-09T05:00:00	0.4	ND	ND	ND	ND	ND	ND	ND	ND	ND	ND	4.32
37495	2014-05-09T06:00:00	0.2	ND	ND	ND	ND	ND	ND	ND	ND	ND	ND	1.52
37496	2014-05-09T07:00:00	2.2	ND	ND	ND	ND	ND	ND	ND	ND	ND	ND	1.27
37497	2014-05-09T08:00:00	57.5	ND	ND	ND	ND	ND	ND	ND	ND	ND	ND	0.25
37498	2014-05-09T09:00:00	30.8	ND	ND	ND	ND	ND	ND	ND	ND	ND	ND	0
37499	2014-05-09T10:00:00	24.4	ND	ND	ND	ND	ND	ND	ND	ND	ND	ND	0
37500	2014-05-09T11:00:00	14.1	ND	ND	ND	ND	ND	ND	ND	ND	ND	ND	0
37501	2014-05-09T12:00:00	14.2	ND	ND	ND	ND	ND	ND	ND	ND	ND	ND	0
37502	2014-05-09T13:00:00	8.8	ND	ND	ND	ND	ND	ND	ND	ND	ND	ND	0
37503	2014-05-09T14:00:00	26.7	ND	ND	ND	ND	ND	ND	ND	ND	ND	ND	0
37504	2014-05-09T15:00:00	15	ND	ND	ND	ND	ND	ND	ND	ND	ND	ND	0
37505	2014-05-09T16:00:00	9.1	ND	ND	ND	ND	ND	ND	ND	ND	ND	ND	0
37506	2014-05-09T17:00:00	6	ND	ND	ND	ND	ND	ND	ND	ND	ND	ND	0
37507	2014-05-09T18:00:00	4.8	ND	ND	ND	ND	ND	ND	ND	ND	ND	ND	0
37508	2014-05-09T19:00:00	3.2	ND	ND	ND	ND	ND	ND	ND	ND	ND	ND	0
37509	2014-05-09T20:00:00	18.9	ND	ND	ND	ND	ND	ND	ND	ND	ND	ND	25.65
37510	2014-05-09T21:00:00	10.2	ND	ND	ND	ND	ND	ND	ND	ND	ND	ND	10.92
37511	2014-05-09T22:00:00	6.6	ND	ND	ND	ND	ND	ND	ND	ND	ND	ND	11.94
37512	2014-05-09T23:00:00	3.3	ND	ND	ND	ND	ND	ND	ND	ND	ND	ND	0.25
37513	2014-05-10T00:00:00	1.6	ND	ND	ND	ND	ND	ND	ND	ND	ND	ND	0.25
37514	2014-05-10T01:00:00	2.6	ND	ND	ND	ND	ND	ND	ND	ND	ND	ND	0
37515	2014-05-10T02:00:00	1.3	ND	ND	ND	ND	ND	ND	ND	ND	ND	ND	0
37516	2014-05-10T03:00:00	2.7	ND	ND	ND	ND	ND	ND	ND	ND	ND	ND	0
37517	2014-05-10T04:00:00	7.2	ND	ND	ND	ND	ND	ND	ND	ND	ND	ND	0
37518	2014-05-10T05:00:00	4.9	ND	ND	ND	ND	ND	ND	ND	ND	ND	ND	0
37519	2014-05-10T06:00:00	10.4	ND	ND	ND	ND	ND	ND	ND	ND	ND	ND	0
37520	2014-05-10T07:00:00	11.2	ND	ND	ND	ND	ND	ND	ND	ND	ND	ND	0
37521	2014-05-10T08:00:00	27.1	ND	ND	ND	ND	ND	ND	ND	ND	ND	ND	0
37522	2014-05-10T09:00:00	14.1	ND	ND	ND	ND	ND	ND	ND	ND	ND	ND	0
37523	2014-05-10T10:00:00	29.2	ND	ND	ND	ND	ND	ND	ND	ND	ND	ND	0
37524	2014-05-10T11:00:00	31.1	ND	ND	ND	ND	ND	ND	ND	ND	ND	ND	0
37525	2014-05-10T12:00:00	34.1	ND	ND	ND	ND	ND	ND	ND	ND	ND	ND	0
37526	2014-05-10T13:00:00	ND	ND	ND	ND	ND	ND	ND	ND	ND	ND	ND	0
37527	2014-05-10T14:00:00	ND	ND	ND	ND	ND	ND	ND	ND	ND	ND	ND	0
37528	2014-05-10T15:00:00	ND	ND	ND	ND	ND	ND	ND	ND	ND	ND	ND	0
37529	2014-05-10T16:00:00	ND	ND	ND	ND	ND	ND	ND	ND	ND	ND	ND	0
37530	2014-05-10T17:00:00	ND	ND	ND	ND	ND	ND	ND	ND	ND	ND	ND	0
37531	2014-05-10T18:00:00	84.7	ND	ND	ND	ND	ND	ND	ND	ND	ND	ND	0
37532	2014-05-10T19:00:00	43.4	ND	ND	ND	ND	ND	ND	ND	ND	ND	ND	0
37533	2014-05-10T20:00:00	29	ND	ND	ND	ND	ND	ND	ND	ND	ND	ND	0
37534	2014-05-10T21:00:00	15.7	ND	ND	ND	ND	ND	ND	ND	ND	ND	ND	0
37535	2014-05-10T22:00:00	11.1	ND	ND	ND	ND	ND	ND	ND	ND	ND	ND	0
37536	2014-05-10T23:00:00	7.4	ND	ND	ND	ND	ND	ND	ND	ND	ND	ND	0
37537	2014-05-11T00:00:00	5	ND	ND	ND	ND	ND	ND	ND	ND	ND	ND	2.03
37538	2014-05-11T01:00:00	3.9	ND	ND	ND	ND	ND	ND	ND	ND	ND	ND	9.14
37539	2014-05-11T02:00:00	4.7	ND	ND	ND	ND	ND	ND	ND	ND	ND	ND	0.25
37540	2014-05-11T03:00:00	4.4	ND	ND	ND	ND	ND	ND	ND	ND	ND	ND	0
37541	2014-05-11T04:00:00	4.8	ND	ND	ND	ND	ND	ND	ND	ND	ND	ND	0
37542	2014-05-11T05:00:00	4.6	ND	ND	ND	ND	ND	ND	ND	ND	ND	ND	0
37543	2014-05-11T06:00:00	4.2	ND	ND	ND	ND	ND	ND	ND	ND	ND	ND	4.06
37544	2014-05-11T07:00:00	3.1	ND	ND	ND	ND	ND	ND	ND	ND	ND	ND	9.65
37545	2014-05-11T08:00:00	3.6	ND	ND	ND	ND	ND	ND	ND	ND	ND	ND	0.25
37546	2014-05-11T09:00:00	4	ND	ND	ND	ND	ND	ND	ND	ND	ND	ND	0
37547	2014-05-11T10:00:00	2	ND	ND	ND	ND	ND	ND	ND	ND	ND	ND	0
37548	2014-05-11T11:00:00	2.5	ND	ND	ND	ND	ND	ND	ND	ND	ND	ND	0
37549	2014-05-11T12:00:00	1.2	ND	ND	ND	ND	ND	ND	ND	ND	ND	ND	0
37550	2014-05-11T13:00:00	0.6	ND	ND	ND	ND	ND	ND	ND	ND	ND	ND	0
37551	2014-05-11T14:00:00	1.7	ND	ND	ND	ND	ND	ND	ND	ND	ND	ND	0
37552	2014-05-11T15:00:00	0.8	ND	ND	ND	ND	ND	ND	ND	ND	ND	ND	0
37553	2014-05-11T16:00:00	0.4	ND	ND	ND	ND	ND	ND	ND	ND	ND	ND	0
37554	2014-05-11T17:00:00	0.2	ND	ND	ND	ND	ND	ND	ND	ND	ND	ND	0
37555	2014-05-11T18:00:00	0.1	ND	ND	ND	ND	ND	ND	ND	ND	ND	ND	0
37556	2014-05-11T19:00:00	ND	ND	ND	ND	ND	ND	ND	ND	ND	ND	ND	ND
37557	2014-05-11T20:00:00	ND	ND	ND	ND	ND	ND	ND	ND	ND	ND	ND	ND
37558	2014-05-11T21:00:00	ND	ND	ND	ND	ND	ND	ND	ND	ND	ND	ND	ND
37559	2014-05-11T22:00:00	ND	ND	ND	ND	ND	ND	ND	ND	ND	ND	ND	ND
37560	2014-05-11T23:00:00	ND	ND	ND	ND	ND	ND	ND	ND	ND	ND	ND	ND
37561	2014-05-12T00:00:00	ND	ND	ND	ND	ND	ND	ND	ND	ND	ND	ND	ND
37562	2014-05-12T01:00:00	ND	ND	ND	ND	ND	ND	ND	ND	ND	ND	ND	ND
37563	2014-05-12T02:00:00	ND	ND	ND	ND	ND	ND	ND	ND	ND	ND	ND	ND
37564	2014-05-12T03:00:00	ND	ND	ND	ND	ND	ND	ND	ND	ND	ND	ND	ND
37565	2014-05-12T04:00:00	ND	ND	ND	ND	ND	ND	ND	ND	ND	ND	ND	ND
37566	2014-05-12T05:00:00	ND	ND	ND	ND	ND	ND	ND	ND	ND	ND	ND	ND
37567	2014-05-12T06:00:00	ND	ND	ND	ND	ND	ND	ND	ND	ND	ND	ND	ND
37568	2014-05-12T07:00:00	ND	ND	ND	ND	ND	ND	ND	ND	ND	ND	ND	ND
37569	2014-05-12T08:00:00	ND	ND	ND	ND	ND	ND	ND	ND	ND	ND	ND	ND
37570	2014-05-12T09:00:00	ND	ND	ND	ND	ND	ND	ND	ND	ND	ND	ND	ND
37571	2014-05-12T10:00:00	ND	ND	ND	ND	ND	ND	ND	ND	ND	ND	ND	ND
37572	2014-05-12T11:00:00	ND	ND	ND	ND	ND	ND	ND	ND	ND	ND	ND	ND
37573	2014-05-12T12:00:00	ND	ND	ND	ND	ND	ND	ND	ND	ND	ND	ND	ND
37574	2014-05-12T13:00:00	7.7	ND	ND	ND	ND	ND	ND	ND	ND	ND	ND	ND
37575	2014-05-12T14:00:00	12	ND	ND	ND	ND	ND	ND	ND	ND	ND	ND	0
37576	2014-05-12T15:00:00	21.3	ND	ND	ND	ND	ND	ND	ND	ND	ND	ND	0
37577	2014-05-12T16:00:00	15.6	ND	ND	ND	ND	ND	ND	ND	ND	ND	ND	0
37578	2014-05-12T17:00:00	8.6	ND	ND	ND	ND	ND	ND	ND	ND	ND	ND	0
37579	2014-05-12T18:00:00	19	ND	ND	ND	ND	ND	ND	ND	ND	ND	ND	0
37580	2014-05-12T19:00:00	10.4	ND	ND	ND	ND	ND	ND	ND	ND	ND	ND	0
37581	2014-05-12T20:00:00	33.2	ND	ND	ND	ND	ND	ND	ND	ND	ND	ND	0
37582	2014-05-12T21:00:00	17.5	ND	ND	ND	ND	ND	ND	ND	ND	ND	ND	0
37583	2014-05-12T22:00:00	25.9	ND	ND	ND	ND	ND	ND	ND	ND	ND	ND	0
37584	2014-05-12T23:00:00	14.7	ND	ND	ND	ND	ND	ND	ND	ND	ND	ND	0
37585	2014-05-13T00:00:00	8.2	ND	ND	ND	ND	ND	ND	ND	ND	ND	ND	0
37586	2014-05-13T01:00:00	ND	ND	ND	ND	ND	ND	ND	ND	ND	ND	ND	0
37587	2014-05-13T02:00:00	ND	ND	ND	ND	ND	ND	ND	ND	ND	ND	ND	0
37588	2014-05-13T03:00:00	ND	ND	ND	ND	ND	ND	ND	ND	ND	ND	ND	0
37589	2014-05-13T04:00:00	ND	ND	ND	ND	ND	ND	ND	ND	ND	ND	ND	0
37590	2014-05-13T05:00:00	ND	ND	ND	ND	ND	ND	ND	ND	ND	ND	ND	0
37591	2014-05-13T06:00:00	ND	ND	ND	ND	ND	ND	ND	ND	ND	ND	ND	0
37592	2014-05-13T07:00:00	ND	ND	ND	ND	ND	ND	ND	ND	ND	ND	ND	0
37593	2014-05-13T08:00:00	ND	ND	ND	ND	ND	ND	ND	ND	ND	ND	ND	0
37594	2014-05-13T09:00:00	ND	ND	ND	ND	ND	ND	ND	ND	ND	ND	ND	0
37595	2014-05-13T10:00:00	160.7	ND	ND	ND	ND	ND	ND	ND	ND	ND	ND	0
37596	2014-05-13T11:00:00	85.9	ND	ND	ND	ND	ND	ND	ND	ND	ND	ND	0
37597	2014-05-13T12:00:00	55.7	ND	ND	ND	ND	ND	ND	ND	ND	ND	ND	0
37598	2014-05-13T13:00:00	37.5	ND	ND	ND	ND	ND	ND	ND	ND	ND	ND	0
37599	2014-05-13T14:00:00	ND	ND	ND	ND	ND	ND	ND	ND	ND	ND	ND	0
37600	2014-05-13T15:00:00	ND	ND	ND	ND	ND	ND	ND	ND	ND	ND	ND	0
37601	2014-05-13T16:00:00	ND	ND	ND	ND	ND	ND	ND	ND	ND	ND	ND	0
37602	2014-05-13T17:00:00	ND	ND	ND	ND	ND	ND	ND	ND	ND	ND	ND	0
37603	2014-05-13T18:00:00	ND	ND	ND	ND	ND	ND	ND	ND	ND	ND	ND	0
37604	2014-05-13T19:00:00	ND	ND	ND	ND	ND	ND	ND	ND	ND	ND	ND	0
37605	2014-05-13T20:00:00	ND	ND	ND	ND	ND	ND	ND	ND	ND	ND	ND	0
37606	2014-05-13T21:00:00	ND	ND	ND	ND	ND	ND	ND	ND	ND	ND	ND	0
37607	2014-05-13T22:00:00	ND	ND	ND	ND	ND	ND	ND	ND	ND	ND	ND	0
37608	2014-05-13T23:00:00	87.3	ND	ND	ND	ND	ND	ND	ND	ND	ND	ND	0
37609	2014-05-14T00:00:00	49	ND	ND	ND	ND	ND	ND	ND	ND	ND	ND	0
37610	2014-05-14T01:00:00	25.5	ND	ND	ND	ND	ND	ND	ND	ND	ND	ND	0
37611	2014-05-14T02:00:00	27.5	ND	ND	ND	ND	ND	ND	ND	ND	ND	ND	0
37612	2014-05-14T03:00:00	14.6	ND	ND	ND	ND	ND	ND	ND	ND	ND	ND	0
37613	2014-05-14T04:00:00	14.4	ND	ND	ND	ND	ND	ND	ND	ND	ND	ND	0
37614	2014-05-14T05:00:00	18.4	ND	ND	ND	ND	ND	ND	ND	ND	ND	ND	0
37615	2014-05-14T06:00:00	30	ND	ND	ND	ND	ND	ND	ND	ND	ND	ND	0
37616	2014-05-14T07:00:00	42.3	ND	ND	ND	ND	ND	ND	ND	ND	ND	ND	0
37617	2014-05-14T08:00:00	66.6	ND	ND	ND	ND	ND	ND	ND	ND	ND	ND	2.29
37618	2014-05-14T09:00:00	62.9	ND	ND	ND	ND	ND	ND	ND	ND	ND	ND	0
37619	2014-05-14T10:00:00	50.4	ND	ND	ND	ND	ND	ND	ND	ND	ND	ND	0
37620	2014-05-14T11:00:00	51.6	ND	ND	ND	ND	ND	ND	ND	ND	ND	ND	0
37621	2014-05-14T12:00:00	58.2	ND	ND	ND	ND	ND	ND	ND	ND	ND	ND	0
37622	2014-05-14T13:00:00	49	ND	ND	ND	ND	ND	ND	ND	ND	ND	ND	0
37623	2014-05-14T14:00:00	69.2	ND	ND	ND	ND	ND	ND	ND	ND	ND	ND	0
37624	2014-05-14T15:00:00	52.5	ND	ND	ND	ND	ND	ND	ND	ND	ND	ND	0
37625	2014-05-14T16:00:00	27.9	ND	ND	ND	ND	ND	ND	ND	ND	ND	ND	0
37626	2014-05-14T17:00:00	15.7	ND	ND	ND	ND	ND	ND	ND	ND	ND	ND	0
37627	2014-05-14T18:00:00	11	ND	ND	ND	ND	ND	ND	ND	ND	ND	ND	0
37628	2014-05-14T19:00:00	7.5	ND	ND	ND	ND	ND	ND	ND	ND	ND	ND	0
37629	2014-05-14T20:00:00	5.3	ND	ND	ND	ND	ND	ND	ND	ND	ND	ND	0
37630	2014-05-14T21:00:00	4.7	ND	ND	ND	ND	ND	ND	ND	ND	ND	ND	0
37631	2014-05-14T22:00:00	22.7	ND	ND	ND	ND	ND	ND	ND	ND	ND	ND	0
37632	2014-05-14T23:00:00	11.8	ND	ND	ND	ND	ND	ND	ND	ND	ND	ND	0
37633	2014-05-15T00:00:00	8.1	ND	ND	ND	ND	ND	ND	ND	ND	ND	ND	0
37634	2014-05-15T01:00:00	16.4	ND	ND	ND	ND	ND	ND	ND	ND	ND	ND	0
37635	2014-05-15T02:00:00	13.9	ND	ND	ND	ND	ND	ND	ND	ND	ND	ND	0
37636	2014-05-15T03:00:00	8.7	ND	ND	ND	ND	ND	ND	ND	ND	ND	ND	0
37637	2014-05-15T04:00:00	14.8	ND	ND	ND	ND	ND	ND	ND	ND	ND	ND	0
37638	2014-05-15T05:00:00	12.8	ND	ND	ND	ND	ND	ND	ND	ND	ND	ND	0
37639	2014-05-15T06:00:00	14.9	ND	ND	ND	ND	ND	ND	ND	ND	ND	ND	0
37640	2014-05-15T07:00:00	27.7	ND	ND	ND	ND	ND	ND	ND	ND	ND	ND	0
37641	2014-05-15T08:00:00	54.3	ND	ND	ND	ND	ND	ND	ND	ND	ND	ND	0
37642	2014-05-15T09:00:00	47.6	ND	ND	ND	ND	ND	ND	ND	ND	ND	ND	0
37643	2014-05-15T10:00:00	55.1	ND	ND	ND	ND	ND	ND	ND	ND	ND	ND	0
37644	2014-05-15T11:00:00	42.5	ND	ND	ND	ND	ND	ND	ND	ND	ND	ND	0
37645	2014-05-15T12:00:00	35.8	ND	ND	ND	ND	ND	ND	ND	ND	ND	ND	0
37646	2014-05-15T13:00:00	40.3	ND	ND	ND	ND	ND	ND	ND	ND	ND	ND	0
37647	2014-05-15T14:00:00	33.2	ND	ND	ND	ND	ND	ND	ND	ND	ND	ND	0
37648	2014-05-15T15:00:00	18.5	ND	ND	ND	ND	ND	ND	ND	ND	ND	ND	0
37649	2014-05-15T16:00:00	10.3	ND	ND	ND	ND	ND	ND	ND	ND	ND	ND	0
37650	2014-05-15T17:00:00	6	ND	ND	ND	ND	ND	ND	ND	ND	ND	ND	0
37651	2014-05-15T18:00:00	3	ND	ND	ND	ND	ND	ND	ND	ND	ND	ND	0
37652	2014-05-15T19:00:00	2.5	ND	ND	ND	ND	ND	ND	ND	ND	ND	ND	0
37653	2014-05-15T20:00:00	ND	ND	ND	ND	ND	ND	ND	ND	ND	ND	ND	0
37654	2014-05-15T21:00:00	ND	ND	ND	ND	ND	ND	ND	ND	ND	ND	ND	0
37655	2014-05-15T22:00:00	ND	ND	ND	ND	ND	ND	ND	ND	ND	ND	ND	0
37656	2014-05-15T23:00:00	ND	ND	ND	ND	ND	ND	ND	ND	ND	ND	ND	0
37657	2014-05-16T00:00:00	ND	ND	ND	ND	ND	ND	ND	ND	ND	ND	ND	0
37658	2014-05-16T01:00:00	ND	ND	ND	ND	ND	ND	ND	ND	ND	ND	ND	0
37659	2014-05-16T02:00:00	ND	ND	ND	ND	ND	ND	ND	ND	ND	ND	ND	0
37660	2014-05-16T03:00:00	71.6	ND	ND	ND	ND	ND	ND	ND	ND	ND	ND	0
37661	2014-05-16T04:00:00	37.6	ND	ND	ND	ND	ND	ND	ND	ND	ND	ND	0
37662	2014-05-16T05:00:00	21.5	ND	ND	ND	ND	ND	ND	ND	ND	ND	ND	0
37663	2014-05-16T06:00:00	45.5	ND	ND	ND	ND	ND	ND	ND	ND	ND	ND	0
37664	2014-05-16T07:00:00	51	ND	ND	ND	ND	ND	ND	ND	ND	ND	ND	0
37665	2014-05-16T08:00:00	42.2	ND	ND	ND	ND	ND	ND	ND	ND	ND	ND	0
37666	2014-05-16T09:00:00	71.6	ND	ND	ND	ND	ND	ND	ND	ND	ND	ND	0
37667	2014-05-16T10:00:00	61.9	ND	ND	ND	ND	ND	ND	ND	ND	ND	ND	0
37668	2014-05-16T11:00:00	49.2	ND	ND	ND	ND	ND	ND	ND	ND	ND	ND	0
37669	2014-05-16T12:00:00	44.5	ND	ND	ND	ND	ND	ND	ND	ND	ND	ND	0
37670	2014-05-16T13:00:00	24.5	ND	ND	ND	ND	ND	ND	ND	ND	ND	ND	0
37671	2014-05-16T14:00:00	18.2	ND	ND	ND	ND	ND	ND	ND	ND	ND	ND	0
37672	2014-05-16T15:00:00	18.4	ND	ND	ND	ND	ND	ND	ND	ND	ND	ND	0
37673	2014-05-16T16:00:00	24.2	ND	ND	ND	ND	ND	ND	ND	ND	ND	ND	0
37674	2014-05-16T17:00:00	21.1	ND	ND	ND	ND	ND	ND	ND	ND	ND	ND	0
37675	2014-05-16T18:00:00	13.4	ND	ND	ND	ND	ND	ND	ND	ND	ND	ND	0
37676	2014-05-16T19:00:00	7.3	ND	ND	ND	ND	ND	ND	ND	ND	ND	ND	0
37677	2014-05-16T20:00:00	4.9	ND	ND	ND	ND	ND	ND	ND	ND	ND	ND	0
37678	2014-05-16T21:00:00	7.6	ND	ND	ND	ND	ND	ND	ND	ND	ND	ND	0
37679	2014-05-16T22:00:00	24.1	ND	ND	ND	ND	ND	ND	ND	ND	ND	ND	0
37680	2014-05-16T23:00:00	13.7	ND	ND	ND	ND	ND	ND	ND	ND	ND	ND	0
37681	2014-05-17T00:00:00	12.3	ND	ND	ND	ND	ND	ND	ND	ND	ND	ND	0
37682	2014-05-17T01:00:00	8.3	ND	ND	ND	ND	ND	ND	ND	ND	ND	ND	0
37683	2014-05-17T02:00:00	20.3	ND	ND	ND	ND	ND	ND	ND	ND	ND	ND	0
37684	2014-05-17T03:00:00	11.2	ND	ND	ND	ND	ND	ND	ND	ND	ND	ND	0.25
37685	2014-05-17T04:00:00	8.7	ND	ND	ND	ND	ND	ND	ND	ND	ND	ND	0.25
37686	2014-05-17T05:00:00	5.5	ND	ND	ND	ND	ND	ND	ND	ND	ND	ND	0
37687	2014-05-17T06:00:00	4.8	ND	ND	ND	ND	ND	ND	ND	ND	ND	ND	0
37688	2014-05-17T07:00:00	6.1	ND	ND	ND	ND	ND	ND	ND	ND	ND	ND	0
37689	2014-05-17T08:00:00	43.2	ND	ND	ND	ND	ND	ND	ND	ND	ND	ND	0
37690	2014-05-17T09:00:00	46.4	ND	ND	ND	ND	ND	ND	ND	ND	ND	ND	0
37691	2014-05-17T10:00:00	82.2	ND	ND	ND	ND	ND	ND	ND	ND	ND	ND	0
37692	2014-05-17T11:00:00	57	ND	ND	ND	ND	ND	ND	ND	ND	ND	ND	0
37693	2014-05-17T12:00:00	40.6	ND	ND	ND	ND	ND	ND	ND	ND	ND	ND	0
37694	2014-05-17T13:00:00	21.9	ND	ND	ND	ND	ND	ND	ND	ND	ND	ND	0
37695	2014-05-17T14:00:00	45.8	ND	ND	ND	ND	ND	ND	ND	ND	ND	ND	0
37696	2014-05-17T15:00:00	24.5	ND	ND	ND	ND	ND	ND	ND	ND	ND	ND	0
37697	2014-05-17T16:00:00	ND	ND	ND	ND	ND	ND	ND	ND	ND	ND	ND	0
37698	2014-05-17T17:00:00	ND	ND	ND	ND	ND	ND	ND	ND	ND	ND	ND	0
37699	2014-05-17T18:00:00	ND	ND	ND	ND	ND	ND	ND	ND	ND	ND	ND	0
37700	2014-05-17T19:00:00	ND	ND	ND	ND	ND	ND	ND	ND	ND	ND	ND	0
37701	2014-05-17T20:00:00	ND	ND	ND	ND	ND	ND	ND	ND	ND	ND	ND	0
37702	2014-05-17T21:00:00	ND	ND	ND	ND	ND	ND	ND	ND	ND	ND	ND	0
37703	2014-05-17T22:00:00	ND	ND	ND	ND	ND	ND	ND	ND	ND	ND	ND	1.02
37704	2014-05-17T23:00:00	ND	ND	ND	ND	ND	ND	ND	ND	ND	ND	ND	0
37705	2014-05-18T00:00:00	88	ND	ND	ND	ND	ND	ND	ND	ND	ND	ND	0
37706	2014-05-18T01:00:00	45	ND	ND	ND	ND	ND	ND	ND	ND	ND	ND	0
37707	2014-05-18T02:00:00	28.6	ND	ND	ND	ND	ND	ND	ND	ND	ND	ND	0
37708	2014-05-18T03:00:00	16.2	ND	ND	ND	ND	ND	ND	ND	ND	ND	ND	0
37709	2014-05-18T04:00:00	9.2	ND	ND	ND	ND	ND	ND	ND	ND	ND	ND	0
37710	2014-05-18T05:00:00	5.7	ND	ND	ND	ND	ND	ND	ND	ND	ND	ND	0
37711	2014-05-18T06:00:00	22.7	ND	ND	ND	ND	ND	ND	ND	ND	ND	ND	0
37712	2014-05-18T07:00:00	15.8	ND	ND	ND	ND	ND	ND	ND	ND	ND	ND	0
37713	2014-05-18T08:00:00	8.7	ND	ND	ND	ND	ND	ND	ND	ND	ND	ND	0
37714	2014-05-18T09:00:00	5.2	ND	ND	ND	ND	ND	ND	ND	ND	ND	ND	0
37715	2014-05-18T10:00:00	26.1	ND	ND	ND	ND	ND	ND	ND	ND	ND	ND	0
37716	2014-05-18T11:00:00	23.1	ND	ND	ND	ND	ND	ND	ND	ND	ND	ND	0
37717	2014-05-18T12:00:00	20.5	ND	ND	ND	ND	ND	ND	ND	ND	ND	ND	0
37718	2014-05-18T13:00:00	12.7	ND	ND	ND	ND	ND	ND	ND	ND	ND	ND	0
37719	2014-05-18T14:00:00	16.8	ND	ND	ND	ND	ND	ND	ND	ND	ND	ND	0
37720	2014-05-18T15:00:00	11.9	ND	ND	ND	ND	ND	ND	ND	ND	ND	ND	0
37721	2014-05-18T16:00:00	24.4	ND	ND	ND	ND	ND	ND	ND	ND	ND	ND	0
37722	2014-05-18T17:00:00	13.5	ND	ND	ND	ND	ND	ND	ND	ND	ND	ND	0
37723	2014-05-18T18:00:00	11.7	ND	ND	ND	ND	ND	ND	ND	ND	ND	ND	0
37724	2014-05-18T19:00:00	6.7	ND	ND	ND	ND	ND	ND	ND	ND	ND	ND	0
37725	2014-05-18T20:00:00	4.4	ND	ND	ND	ND	ND	ND	ND	ND	ND	ND	0
37726	2014-05-18T21:00:00	17.1	ND	ND	ND	ND	ND	ND	ND	ND	ND	ND	0
37727	2014-05-18T22:00:00	34.1	ND	ND	ND	ND	ND	ND	ND	ND	ND	ND	0
37728	2014-05-18T23:00:00	23.7	ND	ND	ND	ND	ND	ND	ND	ND	ND	ND	0
37729	2014-05-19T00:00:00	36.7	ND	ND	ND	ND	ND	ND	ND	ND	ND	ND	0
37730	2014-05-19T01:00:00	18.3	ND	ND	ND	ND	ND	ND	ND	ND	ND	ND	0
37731	2014-05-19T02:00:00	9.2	ND	ND	ND	ND	ND	ND	ND	ND	ND	ND	0
37732	2014-05-19T03:00:00	6.8	ND	ND	ND	ND	ND	ND	ND	ND	ND	ND	0
37733	2014-05-19T04:00:00	31.2	ND	ND	ND	ND	ND	ND	ND	ND	ND	ND	0
37734	2014-05-19T05:00:00	25.6	ND	ND	ND	ND	ND	ND	ND	ND	ND	ND	0
37735	2014-05-19T06:00:00	34.2	ND	ND	ND	ND	ND	ND	ND	ND	ND	ND	0
37736	2014-05-19T07:00:00	25.2	ND	ND	ND	ND	ND	ND	ND	ND	ND	ND	0
37737	2014-05-19T08:00:00	60.2	ND	ND	ND	ND	ND	ND	ND	ND	ND	ND	0
37738	2014-05-19T09:00:00	32.7	ND	ND	ND	ND	ND	ND	ND	ND	ND	ND	0
37739	2014-05-19T10:00:00	56.1	ND	ND	ND	ND	ND	ND	ND	ND	ND	ND	0
37740	2014-05-19T11:00:00	52.5	ND	ND	ND	ND	ND	ND	ND	ND	ND	ND	0
37741	2014-05-19T12:00:00	56.7	ND	ND	ND	ND	ND	ND	ND	ND	ND	ND	0
37742	2014-05-19T13:00:00	34.2	ND	ND	ND	ND	ND	ND	ND	ND	ND	ND	0
37743	2014-05-19T14:00:00	26.1	ND	ND	ND	ND	ND	ND	ND	ND	ND	ND	0
37744	2014-05-19T15:00:00	13.8	ND	ND	ND	ND	ND	ND	ND	ND	ND	ND	0
37745	2014-05-19T16:00:00	ND	ND	ND	ND	ND	ND	ND	ND	ND	ND	ND	0
37746	2014-05-19T17:00:00	ND	ND	ND	ND	ND	ND	ND	ND	ND	ND	ND	0
37747	2014-05-19T18:00:00	ND	ND	ND	ND	ND	ND	ND	ND	ND	ND	ND	74.17
37748	2014-05-19T19:00:00	ND	ND	ND	ND	ND	ND	ND	ND	ND	ND	ND	0
37749	2014-05-19T20:00:00	ND	ND	ND	ND	ND	ND	ND	ND	ND	ND	ND	0
37750	2014-05-19T21:00:00	ND	ND	ND	ND	ND	ND	ND	ND	ND	ND	ND	0
37751	2014-05-19T22:00:00	ND	ND	ND	ND	ND	ND	ND	ND	ND	ND	ND	0
37752	2014-05-19T23:00:00	102.1	ND	ND	ND	ND	ND	ND	ND	ND	ND	ND	0
37753	2014-05-20T00:00:00	93.7	ND	ND	ND	ND	ND	ND	ND	ND	ND	ND	0
37754	2014-05-20T01:00:00	47.7	ND	ND	ND	ND	ND	ND	ND	ND	ND	ND	0
37755	2014-05-20T02:00:00	25.1	ND	ND	ND	ND	ND	ND	ND	ND	ND	ND	0
37756	2014-05-20T03:00:00	14.2	ND	ND	ND	ND	ND	ND	ND	ND	ND	ND	0
37757	2014-05-20T04:00:00	8.5	ND	ND	ND	ND	ND	ND	ND	ND	ND	ND	0
37758	2014-05-20T05:00:00	22.1	ND	ND	ND	ND	ND	ND	ND	ND	ND	ND	0.25
37759	2014-05-20T06:00:00	21.9	ND	ND	ND	ND	ND	ND	ND	ND	ND	ND	0
37760	2014-05-20T07:00:00	12.5	ND	ND	ND	ND	ND	ND	ND	ND	ND	ND	0
37761	2014-05-20T08:00:00	41.9	ND	ND	ND	ND	ND	ND	ND	ND	ND	ND	0
37762	2014-05-20T09:00:00	75.2	ND	ND	ND	ND	ND	ND	ND	ND	ND	ND	0
37763	2014-05-20T10:00:00	63.5	ND	ND	ND	ND	ND	ND	ND	ND	ND	ND	0
37764	2014-05-20T11:00:00	37.5	ND	ND	ND	ND	ND	ND	ND	ND	ND	ND	0
37765	2014-05-20T12:00:00	27.7	ND	ND	ND	ND	ND	ND	ND	ND	ND	ND	0
37766	2014-05-20T13:00:00	16.1	ND	ND	ND	ND	ND	ND	ND	ND	ND	ND	0
37767	2014-05-20T14:00:00	28.3	ND	ND	ND	ND	ND	ND	ND	ND	ND	ND	0
37768	2014-05-20T15:00:00	23.4	ND	ND	ND	ND	ND	ND	ND	ND	ND	ND	0
37769	2014-05-20T16:00:00	43.4	ND	ND	ND	ND	ND	ND	ND	ND	ND	ND	0
37770	2014-05-20T17:00:00	28.7	ND	ND	ND	ND	ND	ND	ND	ND	ND	ND	0
37771	2014-05-20T18:00:00	24.5	ND	ND	ND	ND	ND	ND	ND	ND	ND	ND	0
37772	2014-05-20T19:00:00	14.1	ND	ND	ND	ND	ND	ND	ND	ND	ND	ND	0
37773	2014-05-20T20:00:00	21.8	ND	ND	ND	ND	ND	ND	ND	ND	ND	ND	0
37774	2014-05-20T21:00:00	12.9	ND	ND	ND	ND	ND	ND	ND	ND	ND	ND	0
37775	2014-05-20T22:00:00	11.1	ND	ND	ND	ND	ND	ND	ND	ND	ND	ND	0
37776	2014-05-20T23:00:00	7.3	ND	ND	ND	ND	ND	ND	ND	ND	ND	ND	0
37777	2014-05-21T00:00:00	5.9	ND	ND	ND	ND	ND	ND	ND	ND	ND	ND	0
37778	2014-05-21T01:00:00	5.7	ND	ND	ND	ND	ND	ND	ND	ND	ND	ND	0
37779	2014-05-21T02:00:00	6.1	ND	ND	ND	ND	ND	ND	ND	ND	ND	ND	0
37780	2014-05-21T03:00:00	5	ND	ND	ND	ND	ND	ND	ND	ND	ND	ND	0
37781	2014-05-21T04:00:00	4.1	ND	ND	ND	ND	ND	ND	ND	ND	ND	ND	0
37782	2014-05-21T05:00:00	3.1	ND	ND	ND	ND	ND	ND	ND	ND	ND	ND	0
37783	2014-05-21T06:00:00	14.7	ND	ND	ND	ND	ND	ND	ND	ND	ND	ND	0
37784	2014-05-21T07:00:00	14.3	ND	ND	ND	ND	ND	ND	ND	ND	ND	ND	0
37785	2014-05-21T08:00:00	47.5	ND	ND	ND	ND	ND	ND	ND	ND	ND	ND	0
37786	2014-05-21T09:00:00	32.5	ND	ND	ND	ND	ND	ND	ND	ND	ND	ND	0
37787	2014-05-21T10:00:00	61.4	ND	ND	ND	ND	ND	ND	ND	ND	ND	ND	0
37788	2014-05-21T11:00:00	40.6	ND	ND	ND	ND	ND	ND	ND	ND	ND	ND	0
37789	2014-05-21T12:00:00	54.7	ND	ND	ND	ND	ND	ND	ND	ND	ND	ND	0
37790	2014-05-21T13:00:00	36.1	ND	ND	ND	ND	ND	ND	ND	ND	ND	ND	0
37791	2014-05-21T14:00:00	39.3	ND	ND	ND	ND	ND	ND	ND	ND	ND	ND	0
37792	2014-05-21T15:00:00	20.9	ND	ND	ND	ND	ND	ND	ND	ND	ND	ND	0
37793	2014-05-21T16:00:00	46	ND	ND	ND	ND	ND	ND	ND	ND	ND	ND	0
37794	2014-05-21T17:00:00	24.2	ND	ND	ND	ND	ND	ND	ND	ND	ND	ND	0
37795	2014-05-21T18:00:00	40.8	ND	ND	ND	ND	ND	ND	ND	ND	ND	ND	0
37796	2014-05-21T19:00:00	22.5	ND	ND	ND	ND	ND	ND	ND	ND	ND	ND	0
37797	2014-05-21T20:00:00	30.9	ND	ND	ND	ND	ND	ND	ND	ND	ND	ND	0
37798	2014-05-21T21:00:00	17.2	ND	ND	ND	ND	ND	ND	ND	ND	ND	ND	0
37799	2014-05-21T22:00:00	33.2	ND	ND	ND	ND	ND	ND	ND	ND	ND	ND	0
37800	2014-05-21T23:00:00	19.4	ND	ND	ND	ND	ND	ND	ND	ND	ND	ND	0
37801	2014-05-22T00:00:00	ND	ND	ND	ND	ND	ND	ND	ND	ND	ND	ND	0
37802	2014-05-22T01:00:00	ND	ND	ND	ND	ND	ND	ND	ND	ND	ND	ND	0
37803	2014-05-22T02:00:00	ND	ND	ND	ND	ND	ND	ND	ND	ND	ND	ND	0
37804	2014-05-22T03:00:00	ND	ND	ND	ND	ND	ND	ND	ND	ND	ND	ND	0
37805	2014-05-22T04:00:00	ND	ND	ND	ND	ND	ND	ND	ND	ND	ND	ND	0
37806	2014-05-22T05:00:00	ND	ND	ND	ND	ND	ND	ND	ND	ND	ND	ND	0
37807	2014-05-22T06:00:00	ND	ND	ND	ND	ND	ND	ND	ND	ND	ND	ND	0
37808	2014-05-22T07:00:00	ND	ND	ND	ND	ND	ND	ND	ND	ND	ND	ND	0
37809	2014-05-22T08:00:00	ND	ND	ND	ND	ND	ND	ND	ND	ND	ND	ND	0
37810	2014-05-22T09:00:00	150.5	ND	ND	ND	ND	ND	ND	ND	ND	ND	ND	0
37811	2014-05-22T10:00:00	104.8	ND	ND	ND	ND	ND	ND	ND	ND	ND	ND	0
37812	2014-05-22T11:00:00	56	ND	ND	ND	ND	ND	ND	ND	ND	ND	ND	0
37813	2014-05-22T12:00:00	61	ND	ND	ND	ND	ND	ND	ND	ND	ND	ND	0
37814	2014-05-22T13:00:00	42.5	ND	ND	ND	ND	ND	ND	ND	ND	ND	ND	0
37815	2014-05-22T14:00:00	35.4	ND	ND	ND	ND	ND	ND	ND	ND	ND	ND	0
37816	2014-05-22T15:00:00	21.2	ND	ND	ND	ND	ND	ND	ND	ND	ND	ND	0
37817	2014-05-22T16:00:00	18	ND	ND	ND	ND	ND	ND	ND	ND	ND	ND	0
37818	2014-05-22T17:00:00	10.8	ND	ND	ND	ND	ND	ND	ND	ND	ND	ND	0
37819	2014-05-22T18:00:00	10.5	ND	ND	ND	ND	ND	ND	ND	ND	ND	ND	0
37820	2014-05-22T19:00:00	6.7	ND	ND	ND	ND	ND	ND	ND	ND	ND	ND	0
37821	2014-05-22T20:00:00	29.4	ND	ND	ND	ND	ND	ND	ND	ND	ND	ND	0
37822	2014-05-22T21:00:00	28.8	ND	ND	ND	ND	ND	ND	ND	ND	ND	ND	0
37823	2014-05-22T22:00:00	15.8	ND	ND	ND	ND	ND	ND	ND	ND	ND	ND	0
37824	2014-05-22T23:00:00	9.2	ND	ND	ND	ND	ND	ND	ND	ND	ND	ND	0
37825	2014-05-23T00:00:00	22.5	ND	ND	ND	ND	ND	ND	ND	ND	ND	ND	0
37826	2014-05-23T01:00:00	24	ND	ND	ND	ND	ND	ND	ND	ND	ND	ND	0
37827	2014-05-23T02:00:00	62.6	ND	ND	ND	ND	ND	ND	ND	ND	ND	ND	0
37828	2014-05-23T03:00:00	53.4	ND	ND	ND	ND	ND	ND	ND	ND	ND	ND	0
37829	2014-05-23T04:00:00	39.6	ND	ND	ND	ND	ND	ND	ND	ND	ND	ND	0
37830	2014-05-23T05:00:00	34.1	ND	ND	ND	ND	ND	ND	ND	ND	ND	ND	0
37831	2014-05-23T06:00:00	26.7	ND	ND	ND	ND	ND	ND	ND	ND	ND	ND	0
37832	2014-05-23T07:00:00	30.9	ND	ND	ND	ND	ND	ND	ND	ND	ND	ND	0
37833	2014-05-23T08:00:00	47.5	ND	ND	ND	ND	ND	ND	ND	ND	ND	ND	0
37834	2014-05-23T09:00:00	49	ND	ND	ND	ND	ND	ND	ND	ND	ND	ND	0
37835	2014-05-23T10:00:00	55.3	ND	ND	ND	ND	ND	ND	ND	ND	ND	ND	0
37836	2014-05-23T11:00:00	35.1	ND	ND	ND	ND	ND	ND	ND	ND	ND	ND	0
37837	2014-05-23T12:00:00	51.2	ND	ND	ND	ND	ND	ND	ND	ND	ND	ND	0
37838	2014-05-23T13:00:00	43.8	ND	ND	ND	ND	ND	ND	ND	ND	ND	ND	0
37839	2014-05-23T14:00:00	49.7	ND	ND	ND	ND	ND	ND	ND	ND	ND	ND	0
37840	2014-05-23T15:00:00	47.4	ND	ND	ND	ND	ND	ND	ND	ND	ND	ND	0
37841	2014-05-23T16:00:00	52.7	ND	ND	ND	ND	ND	ND	ND	ND	ND	ND	0
37842	2014-05-23T17:00:00	28.7	ND	ND	ND	ND	ND	ND	ND	ND	ND	ND	0
37843	2014-05-23T18:00:00	39.2	ND	ND	ND	ND	ND	ND	ND	ND	ND	ND	0
37844	2014-05-23T19:00:00	ND	ND	ND	ND	ND	ND	ND	ND	ND	ND	ND	0
37845	2014-05-23T20:00:00	ND	ND	ND	ND	ND	ND	ND	ND	ND	ND	ND	0
37846	2014-05-23T21:00:00	ND	ND	ND	ND	ND	ND	ND	ND	ND	ND	ND	0
37847	2014-05-23T22:00:00	ND	ND	ND	ND	ND	ND	ND	ND	ND	ND	ND	0
37848	2014-05-23T23:00:00	ND	ND	ND	ND	ND	ND	ND	ND	ND	ND	ND	0
37849	2014-05-24T00:00:00	ND	ND	ND	ND	ND	ND	ND	ND	ND	ND	ND	0
37850	2014-05-24T01:00:00	ND	ND	ND	ND	ND	ND	ND	ND	ND	ND	ND	0
37851	2014-05-24T02:00:00	ND	ND	ND	ND	ND	ND	ND	ND	ND	ND	ND	0
37852	2014-05-24T03:00:00	ND	ND	ND	ND	ND	ND	ND	ND	ND	ND	ND	0
37853	2014-05-24T04:00:00	110.8	ND	ND	ND	ND	ND	ND	ND	ND	ND	ND	0
37854	2014-05-24T05:00:00	60.2	ND	ND	ND	ND	ND	ND	ND	ND	ND	ND	0
37855	2014-05-24T06:00:00	41.4	ND	ND	ND	ND	ND	ND	ND	ND	ND	ND	0
37856	2014-05-24T07:00:00	22.2	ND	ND	ND	ND	ND	ND	ND	ND	ND	ND	0
37857	2014-05-24T08:00:00	42.2	ND	ND	ND	ND	ND	ND	ND	ND	ND	ND	0
37858	2014-05-24T09:00:00	32.2	ND	ND	ND	ND	ND	ND	ND	ND	ND	ND	0
37859	2014-05-24T10:00:00	17.2	ND	ND	ND	ND	ND	ND	ND	ND	ND	ND	0
37860	2014-05-24T11:00:00	9.3	ND	ND	ND	ND	ND	ND	ND	ND	ND	ND	0
37861	2014-05-24T12:00:00	21	ND	ND	ND	ND	ND	ND	ND	ND	ND	ND	0
37862	2014-05-24T13:00:00	11.3	ND	ND	ND	ND	ND	ND	ND	ND	ND	ND	0
37863	2014-05-24T14:00:00	30.2	ND	ND	ND	ND	ND	ND	ND	ND	ND	ND	0
37864	2014-05-24T15:00:00	17.9	ND	ND	ND	ND	ND	ND	ND	ND	ND	ND	0
37865	2014-05-24T16:00:00	20.4	ND	ND	ND	ND	ND	ND	ND	ND	ND	ND	0
37866	2014-05-24T17:00:00	11.6	ND	ND	ND	ND	ND	ND	ND	ND	ND	ND	0
37867	2014-05-24T18:00:00	11.3	ND	ND	ND	ND	ND	ND	ND	ND	ND	ND	0
37868	2014-05-24T19:00:00	7.9	ND	ND	ND	ND	ND	ND	ND	ND	ND	ND	0
37869	2014-05-24T20:00:00	ND	ND	ND	ND	ND	ND	ND	ND	ND	ND	ND	0
37870	2014-05-24T21:00:00	ND	ND	ND	ND	ND	ND	ND	ND	ND	ND	ND	0
37871	2014-05-24T22:00:00	ND	ND	ND	ND	ND	ND	ND	ND	ND	ND	ND	0
37872	2014-05-24T23:00:00	69.3	ND	ND	ND	ND	ND	ND	ND	ND	ND	ND	0
37873	2014-05-25T00:00:00	36.2	ND	ND	ND	ND	ND	ND	ND	ND	ND	ND	0
37874	2014-05-25T01:00:00	35.8	ND	ND	ND	ND	ND	ND	ND	ND	ND	ND	0
37875	2014-05-25T02:00:00	32.5	ND	ND	ND	ND	ND	ND	ND	ND	ND	ND	0
37876	2014-05-25T03:00:00	20.4	ND	ND	ND	ND	ND	ND	ND	ND	ND	ND	0
37877	2014-05-25T04:00:00	23.4	ND	ND	ND	ND	ND	ND	ND	ND	ND	ND	0
37878	2014-05-25T05:00:00	14.5	ND	ND	ND	ND	ND	ND	ND	ND	ND	ND	0
37879	2014-05-25T06:00:00	16.5	ND	ND	ND	ND	ND	ND	ND	ND	ND	ND	0
37880	2014-05-25T07:00:00	18.1	ND	ND	ND	ND	ND	ND	ND	ND	ND	ND	0
37881	2014-05-25T08:00:00	37.2	ND	ND	ND	ND	ND	ND	ND	ND	ND	ND	0
37882	2014-05-25T09:00:00	23	ND	ND	ND	ND	ND	ND	ND	ND	ND	ND	0
37883	2014-05-25T10:00:00	35.4	ND	ND	ND	ND	ND	ND	ND	ND	ND	ND	0
37884	2014-05-25T11:00:00	18.7	ND	ND	ND	ND	ND	ND	ND	ND	ND	ND	0
37885	2014-05-25T12:00:00	15.7	ND	ND	ND	ND	ND	ND	ND	ND	ND	ND	0
37886	2014-05-25T13:00:00	11	ND	ND	ND	ND	ND	ND	ND	ND	ND	ND	0
37887	2014-05-25T14:00:00	29.7	ND	ND	ND	ND	ND	ND	ND	ND	ND	ND	0
37888	2014-05-25T15:00:00	16.5	ND	ND	ND	ND	ND	ND	ND	ND	ND	ND	0
37889	2014-05-25T16:00:00	9.7	ND	ND	ND	ND	ND	ND	ND	ND	ND	ND	0
37890	2014-05-25T17:00:00	7	ND	ND	ND	ND	ND	ND	ND	ND	ND	ND	0
37891	2014-05-25T18:00:00	5.3	ND	ND	ND	ND	ND	ND	ND	ND	ND	ND	0
37892	2014-05-25T19:00:00	4.5	ND	ND	ND	ND	ND	ND	ND	ND	ND	ND	0
37893	2014-05-25T20:00:00	4.4	ND	ND	ND	ND	ND	ND	ND	ND	ND	ND	0
37894	2014-05-25T21:00:00	3	ND	ND	ND	ND	ND	ND	ND	ND	ND	ND	0
37895	2014-05-25T22:00:00	3.2	ND	ND	ND	ND	ND	ND	ND	ND	ND	ND	0
37896	2014-05-25T23:00:00	13.9	ND	ND	ND	ND	ND	ND	ND	ND	ND	ND	0
37897	2014-05-26T00:00:00	8.4	ND	ND	ND	ND	ND	ND	ND	ND	ND	ND	0
37898	2014-05-26T01:00:00	5.9	ND	ND	ND	ND	ND	ND	ND	ND	ND	ND	0
37899	2014-05-26T02:00:00	20.2	ND	ND	ND	ND	ND	ND	ND	ND	ND	ND	0
37900	2014-05-26T03:00:00	11.6	ND	ND	ND	ND	ND	ND	ND	ND	ND	ND	0
37901	2014-05-26T04:00:00	13.1	ND	ND	ND	ND	ND	ND	ND	ND	ND	ND	0
37902	2014-05-26T05:00:00	11.7	ND	ND	ND	ND	ND	ND	ND	ND	ND	ND	0
37903	2014-05-26T06:00:00	26.7	ND	ND	ND	ND	ND	ND	ND	ND	ND	ND	0
37904	2014-05-26T07:00:00	13.9	ND	ND	ND	ND	ND	ND	ND	ND	ND	ND	0
37905	2014-05-26T08:00:00	53.4	ND	ND	ND	ND	ND	ND	ND	ND	ND	ND	0
37906	2014-05-26T09:00:00	60.7	ND	ND	ND	ND	ND	ND	ND	ND	ND	ND	0
37907	2014-05-26T10:00:00	69.4	ND	ND	ND	ND	ND	ND	ND	ND	ND	ND	0
37908	2014-05-26T11:00:00	60.4	ND	ND	ND	ND	ND	ND	ND	ND	ND	ND	0
37909	2014-05-26T12:00:00	62.7	ND	ND	ND	ND	ND	ND	ND	ND	ND	ND	0
37910	2014-05-26T13:00:00	45.5	ND	ND	ND	ND	ND	ND	ND	ND	ND	ND	0
37911	2014-05-26T14:00:00	83	ND	ND	ND	ND	ND	ND	ND	ND	ND	ND	0
37912	2014-05-26T15:00:00	53.9	ND	ND	ND	ND	ND	ND	ND	ND	ND	ND	0
37913	2014-05-26T16:00:00	55.4	ND	ND	ND	ND	ND	ND	ND	ND	ND	ND	0
37914	2014-05-26T17:00:00	43.2	ND	ND	ND	ND	ND	ND	ND	ND	ND	ND	0
37915	2014-05-26T18:00:00	42.1	ND	ND	ND	ND	ND	ND	ND	ND	ND	ND	0
37916	2014-05-26T19:00:00	22.8	ND	ND	ND	ND	ND	ND	ND	ND	ND	ND	0
37917	2014-05-26T20:00:00	14.7	ND	ND	ND	ND	ND	ND	ND	ND	ND	ND	0
37918	2014-05-26T21:00:00	8.2	ND	ND	ND	ND	ND	ND	ND	ND	ND	ND	0
37919	2014-05-26T22:00:00	5.5	ND	ND	ND	ND	ND	ND	ND	ND	ND	ND	0
37920	2014-05-26T23:00:00	7.8	ND	ND	ND	ND	ND	ND	ND	ND	ND	ND	0
37921	2014-05-27T00:00:00	4.5	ND	ND	ND	ND	ND	ND	ND	ND	ND	ND	0
37922	2014-05-27T01:00:00	17	ND	ND	ND	ND	ND	ND	ND	ND	ND	ND	0
37923	2014-05-27T02:00:00	23.3	ND	ND	ND	ND	ND	ND	ND	ND	ND	ND	0
37924	2014-05-27T03:00:00	47.4	ND	ND	ND	ND	ND	ND	ND	ND	ND	ND	0
37925	2014-05-27T04:00:00	44.6	ND	ND	ND	ND	ND	ND	ND	ND	ND	ND	0
37926	2014-05-27T05:00:00	42.3	ND	ND	ND	ND	ND	ND	ND	ND	ND	ND	0
37927	2014-05-27T06:00:00	67.8	ND	ND	ND	ND	ND	ND	ND	ND	ND	ND	0
37928	2014-05-27T07:00:00	56.9	ND	ND	ND	ND	ND	ND	ND	ND	ND	ND	0
37929	2014-05-27T08:00:00	63.5	ND	ND	ND	ND	ND	ND	ND	ND	ND	ND	0
37930	2014-05-27T09:00:00	61.6	ND	ND	ND	ND	ND	ND	ND	ND	ND	ND	0
37931	2014-05-27T10:00:00	59	ND	ND	ND	ND	ND	ND	ND	ND	ND	ND	0
37932	2014-05-27T11:00:00	42.9	ND	ND	ND	ND	ND	ND	ND	ND	ND	ND	0
37933	2014-05-27T12:00:00	60.1	ND	ND	ND	ND	ND	ND	ND	ND	ND	ND	0
37934	2014-05-27T13:00:00	48.8	ND	ND	ND	ND	ND	ND	ND	ND	ND	ND	0
37935	2014-05-27T14:00:00	50.9	ND	ND	ND	ND	ND	ND	ND	ND	ND	ND	0
37936	2014-05-27T15:00:00	36.6	ND	ND	ND	ND	ND	ND	ND	ND	ND	ND	0
37937	2014-05-27T16:00:00	71.5	ND	ND	ND	ND	ND	ND	ND	ND	ND	ND	0
37938	2014-05-27T17:00:00	41.1	ND	ND	ND	ND	ND	ND	ND	ND	ND	ND	0
37939	2014-05-27T18:00:00	46.7	ND	ND	ND	ND	ND	ND	ND	ND	ND	ND	0
37940	2014-05-27T19:00:00	25.3	ND	ND	ND	ND	ND	ND	ND	ND	ND	ND	0
37941	2014-05-27T20:00:00	91.9	ND	ND	ND	ND	ND	ND	ND	ND	ND	ND	0
37942	2014-05-27T21:00:00	47	ND	ND	ND	ND	ND	ND	ND	ND	ND	ND	0
37943	2014-05-27T22:00:00	42.6	ND	ND	ND	ND	ND	ND	ND	ND	ND	ND	0
37944	2014-05-27T23:00:00	41.3	ND	ND	ND	ND	ND	ND	ND	ND	ND	ND	0
37945	2014-05-28T00:00:00	41.3	ND	ND	ND	ND	ND	ND	ND	ND	ND	ND	0
37946	2014-05-28T01:00:00	31.5	ND	ND	ND	ND	ND	ND	ND	ND	ND	ND	0
37947	2014-05-28T02:00:00	46.5	ND	ND	ND	ND	ND	ND	ND	ND	ND	ND	0
37948	2014-05-28T03:00:00	25.1	ND	ND	ND	ND	ND	ND	ND	ND	ND	ND	0
37949	2014-05-28T04:00:00	24.9	ND	ND	ND	ND	ND	ND	ND	ND	ND	ND	0
37950	2014-05-28T05:00:00	13.6	ND	ND	ND	ND	ND	ND	ND	ND	ND	ND	0
37951	2014-05-28T06:00:00	28.4	ND	ND	ND	ND	ND	ND	ND	ND	ND	ND	0
37952	2014-05-28T07:00:00	25.9	ND	ND	ND	ND	ND	ND	ND	ND	ND	ND	0
37953	2014-05-28T08:00:00	46	ND	ND	ND	ND	ND	ND	ND	ND	ND	ND	0
37954	2014-05-28T09:00:00	42.5	ND	ND	ND	ND	ND	ND	ND	ND	ND	ND	0
37955	2014-05-28T10:00:00	ND	ND	ND	ND	ND	ND	ND	ND	ND	ND	ND	0
37956	2014-05-28T11:00:00	ND	ND	ND	ND	ND	ND	ND	ND	ND	ND	ND	0
37957	2014-05-28T12:00:00	ND	ND	ND	ND	ND	ND	ND	ND	ND	ND	ND	0
37958	2014-05-28T13:00:00	ND	ND	ND	ND	ND	ND	ND	ND	ND	ND	ND	0
37959	2014-05-28T14:00:00	ND	ND	ND	ND	ND	ND	ND	ND	ND	ND	ND	0
37960	2014-05-28T15:00:00	ND	ND	ND	ND	ND	ND	ND	ND	ND	ND	ND	0
37961	2014-05-28T16:00:00	ND	ND	ND	ND	ND	ND	ND	ND	ND	ND	ND	0
37962	2014-05-28T17:00:00	ND	ND	ND	ND	ND	ND	ND	ND	ND	ND	ND	0
37963	2014-05-28T18:00:00	97.3	ND	ND	ND	ND	ND	ND	ND	ND	ND	ND	0
37964	2014-05-28T19:00:00	53.5	ND	ND	ND	ND	ND	ND	ND	ND	ND	ND	0
37965	2014-05-28T20:00:00	44.3	ND	ND	ND	ND	ND	ND	ND	ND	ND	ND	0
37966	2014-05-28T21:00:00	24.3	ND	ND	ND	ND	ND	ND	ND	ND	ND	ND	0
37967	2014-05-28T22:00:00	23	ND	ND	ND	ND	ND	ND	ND	ND	ND	ND	0
37968	2014-05-28T23:00:00	13.4	ND	ND	ND	ND	ND	ND	ND	ND	ND	ND	0
37969	2014-05-29T00:00:00	9.2	ND	ND	ND	ND	ND	ND	ND	ND	ND	ND	0
37970	2014-05-29T01:00:00	6.8	ND	ND	ND	ND	ND	ND	ND	ND	ND	ND	0
37971	2014-05-29T02:00:00	4.2	ND	ND	ND	ND	ND	ND	ND	ND	ND	ND	0
37972	2014-05-29T03:00:00	2.1	ND	ND	ND	ND	ND	ND	ND	ND	ND	ND	0
37973	2014-05-29T04:00:00	1	ND	ND	ND	ND	ND	ND	ND	ND	ND	ND	0
37974	2014-05-29T05:00:00	10.9	ND	ND	ND	ND	ND	ND	ND	ND	ND	ND	10.41
37975	2014-05-29T06:00:00	7.2	ND	ND	ND	ND	ND	ND	ND	ND	ND	ND	41.66
37976	2014-05-29T07:00:00	5.2	ND	ND	ND	ND	ND	ND	ND	ND	ND	ND	1.78
37977	2014-05-29T08:00:00	14	ND	ND	ND	ND	ND	ND	ND	ND	ND	ND	0.76
37978	2014-05-29T09:00:00	23.9	ND	ND	ND	ND	ND	ND	ND	ND	ND	ND	2.03
37979	2014-05-29T10:00:00	27.6	ND	ND	ND	ND	ND	ND	ND	ND	ND	ND	3.3
37980	2014-05-29T11:00:00	15.6	ND	ND	ND	ND	ND	ND	ND	ND	ND	ND	0.51
37981	2014-05-29T12:00:00	8.8	ND	ND	ND	ND	ND	ND	ND	ND	ND	ND	0
37982	2014-05-29T13:00:00	6.2	ND	ND	ND	ND	ND	ND	ND	ND	ND	ND	0
37983	2014-05-29T14:00:00	4.2	ND	ND	ND	ND	ND	ND	ND	ND	ND	ND	0
37984	2014-05-29T15:00:00	4.2	ND	ND	ND	ND	ND	ND	ND	ND	ND	ND	0
37985	2014-05-29T16:00:00	17.7	ND	ND	ND	ND	ND	ND	ND	ND	ND	ND	0
37986	2014-05-29T17:00:00	10.7	ND	ND	ND	ND	ND	ND	ND	ND	ND	ND	0
37987	2014-05-29T18:00:00	21.1	ND	ND	ND	ND	ND	ND	ND	ND	ND	ND	0
37988	2014-05-29T19:00:00	16	ND	ND	ND	ND	ND	ND	ND	ND	ND	ND	0
37989	2014-05-29T20:00:00	18.6	ND	ND	ND	ND	ND	ND	ND	ND	ND	ND	0
37990	2014-05-29T21:00:00	10.3	ND	ND	ND	ND	ND	ND	ND	ND	ND	ND	0
37991	2014-05-29T22:00:00	12.8	ND	ND	ND	ND	ND	ND	ND	ND	ND	ND	0
37992	2014-05-29T23:00:00	8.6	ND	ND	ND	ND	ND	ND	ND	ND	ND	ND	0
37993	2014-05-30T00:00:00	5.5	ND	ND	ND	ND	ND	ND	ND	ND	ND	ND	0
37994	2014-05-30T01:00:00	3.8	ND	ND	ND	ND	ND	ND	ND	ND	ND	ND	0
37995	2014-05-30T02:00:00	11.8	ND	ND	ND	ND	ND	ND	ND	ND	ND	ND	0
37996	2014-05-30T03:00:00	16	ND	ND	ND	ND	ND	ND	ND	ND	ND	ND	0
37997	2014-05-30T04:00:00	20.8	ND	ND	ND	ND	ND	ND	ND	ND	ND	ND	0
37998	2014-05-30T05:00:00	11.3	ND	ND	ND	ND	ND	ND	ND	ND	ND	ND	0
37999	2014-05-30T06:00:00	37.6	ND	ND	ND	ND	ND	ND	ND	ND	ND	ND	0
38000	2014-05-30T07:00:00	64.3	ND	ND	ND	ND	ND	ND	ND	ND	ND	ND	0
38001	2014-05-30T08:00:00	68.7	ND	ND	ND	ND	ND	ND	ND	ND	ND	ND	0
38002	2014-05-30T09:00:00	77.4	ND	ND	ND	ND	ND	ND	ND	ND	ND	ND	0
38003	2014-05-30T10:00:00	ND	ND	ND	ND	ND	ND	ND	ND	ND	ND	ND	0
38004	2014-05-30T11:00:00	ND	ND	ND	ND	ND	ND	ND	ND	ND	ND	ND	0
38005	2014-05-30T12:00:00	ND	ND	ND	ND	ND	ND	ND	ND	ND	ND	ND	0
38006	2014-05-30T13:00:00	ND	ND	ND	ND	ND	ND	ND	ND	ND	ND	ND	0
38007	2014-05-30T14:00:00	ND	ND	ND	ND	ND	ND	ND	ND	ND	ND	ND	0
38008	2014-05-30T15:00:00	ND	ND	ND	ND	ND	ND	ND	ND	ND	ND	ND	0
38009	2014-05-30T16:00:00	ND	ND	ND	ND	ND	ND	ND	ND	ND	ND	ND	0
38010	2014-05-30T17:00:00	ND	ND	ND	ND	ND	ND	ND	ND	ND	ND	ND	0
38011	2014-05-30T18:00:00	ND	ND	ND	ND	ND	ND	ND	ND	ND	ND	ND	0
38012	2014-05-30T19:00:00	ND	ND	ND	ND	ND	ND	ND	ND	ND	ND	ND	0
38013	2014-05-30T20:00:00	ND	ND	ND	ND	ND	ND	ND	ND	ND	ND	ND	0
38014	2014-05-30T21:00:00	ND	ND	ND	ND	ND	ND	ND	ND	ND	ND	ND	0
38015	2014-05-30T22:00:00	ND	ND	ND	ND	ND	ND	ND	ND	ND	ND	ND	0
38016	2014-05-30T23:00:00	ND	ND	ND	ND	ND	ND	ND	ND	ND	ND	ND	0
38017	2014-05-31T00:00:00	ND	ND	ND	ND	ND	ND	ND	ND	ND	ND	ND	0
38018	2014-05-31T01:00:00	ND	ND	ND	ND	ND	ND	ND	ND	ND	ND	ND	3.56
38019	2014-05-31T02:00:00	121.6	ND	ND	ND	ND	ND	ND	ND	ND	ND	ND	1.52
38020	2014-05-31T03:00:00	73.2	ND	ND	ND	ND	ND	ND	ND	ND	ND	ND	0.25
38021	2014-05-31T04:00:00	38.1	ND	ND	ND	ND	ND	ND	ND	ND	ND	ND	0.25
38022	2014-05-31T05:00:00	20.6	ND	ND	ND	ND	ND	ND	ND	ND	ND	ND	0
38023	2014-05-31T06:00:00	11.4	ND	ND	ND	ND	ND	ND	ND	ND	ND	ND	0
38024	2014-05-31T07:00:00	30	ND	ND	ND	ND	ND	ND	ND	ND	ND	ND	0
38025	2014-05-31T08:00:00	40.1	ND	ND	ND	ND	ND	ND	ND	ND	ND	ND	0
38026	2014-05-31T09:00:00	31.8	ND	ND	ND	ND	ND	ND	ND	ND	ND	ND	0
38027	2014-05-31T10:00:00	34.2	ND	ND	ND	ND	ND	ND	ND	ND	ND	ND	0
38028	2014-05-31T11:00:00	31.3	ND	ND	ND	ND	ND	ND	ND	ND	ND	ND	0
38029	2014-05-31T12:00:00	34.4	ND	ND	ND	ND	ND	ND	ND	ND	ND	ND	0
38030	2014-05-31T13:00:00	46.3	ND	ND	ND	ND	ND	ND	ND	ND	ND	ND	0
38031	2014-05-31T14:00:00	32.4	ND	ND	ND	ND	ND	ND	ND	ND	ND	ND	0
38032	2014-05-31T15:00:00	27.2	ND	ND	ND	ND	ND	ND	ND	ND	ND	ND	0
38033	2014-05-31T16:00:00	15.9	ND	ND	ND	ND	ND	ND	ND	ND	ND	ND	0
38034	2014-05-31T17:00:00	ND	ND	ND	ND	ND	ND	ND	ND	ND	ND	ND	0
38035	2014-05-31T18:00:00	ND	ND	ND	ND	ND	ND	ND	ND	ND	ND	ND	0
38036	2014-05-31T19:00:00	ND	ND	ND	ND	ND	ND	ND	ND	ND	ND	ND	0
38037	2014-05-31T20:00:00	ND	ND	ND	ND	ND	ND	ND	ND	ND	ND	ND	0
38038	2014-05-31T21:00:00	97	ND	ND	ND	ND	ND	ND	ND	ND	ND	ND	0
38039	2014-05-31T22:00:00	50.3	ND	ND	ND	ND	ND	ND	ND	ND	ND	ND	0
38040	2014-05-31T23:00:00	44.6	ND	ND	ND	ND	ND	ND	ND	ND	ND	ND	0
38041	2014-06-01T00:00:00	24.1	ND	ND	ND	ND	ND	ND	ND	ND	ND	ND	0
38042	2014-06-01T01:00:00	15.8	ND	ND	ND	ND	ND	ND	ND	ND	ND	ND	0
38043	2014-06-01T02:00:00	9.5	ND	ND	ND	ND	ND	ND	ND	ND	ND	ND	0
38044	2014-06-01T03:00:00	12.6	ND	ND	ND	ND	ND	ND	ND	ND	ND	ND	0
38045	2014-06-01T04:00:00	21.8	ND	ND	ND	ND	ND	ND	ND	ND	ND	ND	0
38046	2014-06-01T05:00:00	13.6	ND	ND	ND	ND	ND	ND	ND	ND	ND	ND	0
38047	2014-06-01T06:00:00	19.6	ND	ND	ND	ND	ND	ND	ND	ND	ND	ND	0
38048	2014-06-01T07:00:00	28.9	ND	ND	ND	ND	ND	ND	ND	ND	ND	ND	0
38049	2014-06-01T08:00:00	20.2	ND	ND	ND	ND	ND	ND	ND	ND	ND	ND	0
38050	2014-06-01T09:00:00	37	ND	ND	ND	ND	ND	ND	ND	ND	ND	ND	0
38051	2014-06-01T10:00:00	27.2	ND	ND	ND	ND	ND	ND	ND	ND	ND	ND	0
38052	2014-06-01T11:00:00	36.5	ND	ND	ND	ND	ND	ND	ND	ND	ND	ND	0
38053	2014-06-01T12:00:00	20.4	ND	ND	ND	ND	ND	ND	ND	ND	ND	ND	0
38054	2014-06-01T13:00:00	22.1	ND	ND	ND	ND	ND	ND	ND	ND	ND	ND	0
38055	2014-06-01T14:00:00	12.4	ND	ND	ND	ND	ND	ND	ND	ND	ND	ND	0
38056	2014-06-01T15:00:00	7.6	ND	ND	ND	ND	ND	ND	ND	ND	ND	ND	0
38057	2014-06-01T16:00:00	5.9	ND	ND	ND	ND	ND	ND	ND	ND	ND	ND	0
38058	2014-06-01T17:00:00	3.5	ND	ND	ND	ND	ND	ND	ND	ND	ND	ND	0
38059	2014-06-01T18:00:00	2.7	ND	ND	ND	ND	ND	ND	ND	ND	ND	ND	0
38060	2014-06-01T19:00:00	1.4	ND	ND	ND	ND	ND	ND	ND	ND	ND	ND	0
38061	2014-06-01T20:00:00	2.1	ND	ND	ND	ND	ND	ND	ND	ND	ND	ND	0
38062	2014-06-01T21:00:00	2.5	ND	ND	ND	ND	ND	ND	ND	ND	ND	ND	0
38063	2014-06-01T22:00:00	7.6	ND	ND	ND	ND	ND	ND	ND	ND	ND	ND	0
38064	2014-06-01T23:00:00	19	ND	ND	ND	ND	ND	ND	ND	ND	ND	ND	0
38065	2014-06-02T00:00:00	14.9	ND	ND	ND	ND	ND	ND	ND	ND	ND	ND	0
38066	2014-06-02T01:00:00	29.1	ND	ND	ND	ND	ND	ND	ND	ND	ND	ND	0
38067	2014-06-02T02:00:00	15.7	ND	ND	ND	ND	ND	ND	ND	ND	ND	ND	0
38068	2014-06-02T03:00:00	24.2	ND	ND	ND	ND	ND	ND	ND	ND	ND	ND	0
38069	2014-06-02T04:00:00	13.6	ND	ND	ND	ND	ND	ND	ND	ND	ND	ND	0
38070	2014-06-02T05:00:00	31.9	ND	ND	ND	ND	ND	ND	ND	ND	ND	ND	0
38071	2014-06-02T06:00:00	18.3	ND	ND	ND	ND	ND	ND	ND	ND	ND	ND	2.54
38072	2014-06-02T07:00:00	11.1	ND	ND	ND	ND	ND	ND	ND	ND	ND	ND	36.83
38073	2014-06-02T08:00:00	7.9	ND	ND	ND	ND	ND	ND	ND	ND	ND	ND	19.81
38074	2014-06-02T09:00:00	5.6	ND	ND	ND	ND	ND	ND	ND	ND	ND	ND	1.52
38075	2014-06-02T10:00:00	4.9	ND	ND	ND	ND	ND	ND	ND	ND	ND	ND	0
38076	2014-06-02T11:00:00	2.4	ND	ND	ND	ND	ND	ND	ND	ND	ND	ND	0
38077	2014-06-02T12:00:00	2.2	ND	ND	ND	ND	ND	ND	ND	ND	ND	ND	0
38078	2014-06-02T13:00:00	4.3	ND	ND	ND	ND	ND	ND	ND	ND	ND	ND	0
38079	2014-06-02T14:00:00	2.2	ND	ND	ND	ND	ND	ND	ND	ND	ND	ND	0
38080	2014-06-02T15:00:00	1.1	ND	ND	ND	ND	ND	ND	ND	ND	ND	ND	0
38081	2014-06-02T16:00:00	2.9	ND	ND	ND	ND	ND	ND	ND	ND	ND	ND	0
38082	2014-06-02T17:00:00	3.2	ND	ND	ND	ND	ND	ND	ND	ND	ND	ND	0
38083	2014-06-02T18:00:00	3	ND	ND	ND	ND	ND	ND	ND	ND	ND	ND	0
38084	2014-06-02T19:00:00	1.5	ND	ND	ND	ND	ND	ND	ND	ND	ND	ND	0
38085	2014-06-02T20:00:00	1.7	ND	ND	ND	ND	ND	ND	ND	ND	ND	ND	1.78
38086	2014-06-02T21:00:00	3.8	ND	ND	ND	ND	ND	ND	ND	ND	ND	ND	0
38087	2014-06-02T22:00:00	3.5	ND	ND	ND	ND	ND	ND	ND	ND	ND	ND	0
38088	2014-06-02T23:00:00	12.9	ND	ND	ND	ND	ND	ND	ND	ND	ND	ND	0
38089	2014-06-03T00:00:00	7.3	ND	ND	ND	ND	ND	ND	ND	ND	ND	ND	0
38090	2014-06-03T01:00:00	5.5	ND	ND	ND	ND	ND	ND	ND	ND	ND	ND	0
38091	2014-06-03T02:00:00	4.1	ND	ND	ND	ND	ND	ND	ND	ND	ND	ND	0
38092	2014-06-03T03:00:00	14.9	ND	ND	ND	ND	ND	ND	ND	ND	ND	ND	0
38093	2014-06-03T04:00:00	9.3	ND	ND	ND	ND	ND	ND	ND	ND	ND	ND	0
38094	2014-06-03T05:00:00	17.3	ND	ND	ND	ND	ND	ND	ND	ND	ND	ND	0
38095	2014-06-03T06:00:00	9.3	ND	ND	ND	ND	ND	ND	ND	ND	ND	ND	0
38096	2014-06-03T07:00:00	47.1	ND	ND	ND	ND	ND	ND	ND	ND	ND	ND	0
38097	2014-06-03T08:00:00	26.6	ND	ND	ND	ND	ND	ND	ND	ND	ND	ND	0
38098	2014-06-03T09:00:00	56.4	ND	ND	ND	ND	ND	ND	ND	ND	ND	ND	0
38099	2014-06-03T10:00:00	57.4	ND	ND	ND	ND	ND	ND	ND	ND	ND	ND	0
38100	2014-06-03T11:00:00	49.1	ND	ND	ND	ND	ND	ND	ND	ND	ND	ND	0
38101	2014-06-03T12:00:00	26.4	ND	ND	ND	ND	ND	ND	ND	ND	ND	ND	0
38102	2014-06-03T13:00:00	39.7	ND	ND	ND	ND	ND	ND	ND	ND	ND	ND	0
38103	2014-06-03T14:00:00	37.2	ND	ND	ND	ND	ND	ND	ND	ND	ND	ND	0
38104	2014-06-03T15:00:00	29.4	ND	ND	ND	ND	ND	ND	ND	ND	ND	ND	0
38105	2014-06-03T16:00:00	16.3	ND	ND	ND	ND	ND	ND	ND	ND	ND	ND	0
38106	2014-06-03T17:00:00	9.2	ND	ND	ND	ND	ND	ND	ND	ND	ND	ND	0
38107	2014-06-03T18:00:00	6.2	ND	ND	ND	ND	ND	ND	ND	ND	ND	ND	0
38108	2014-06-03T19:00:00	10	ND	ND	ND	ND	ND	ND	ND	ND	ND	ND	0
38109	2014-06-03T20:00:00	6.1	ND	ND	ND	ND	ND	ND	ND	ND	ND	ND	0
38110	2014-06-03T21:00:00	4.6	ND	ND	ND	ND	ND	ND	ND	ND	ND	ND	0
38111	2014-06-03T22:00:00	4.6	ND	ND	ND	ND	ND	ND	ND	ND	ND	ND	0
38112	2014-06-03T23:00:00	3.5	ND	ND	ND	ND	ND	ND	ND	ND	ND	ND	0
38113	2014-06-04T00:00:00	4	ND	ND	ND	ND	ND	ND	ND	ND	ND	ND	0
38114	2014-06-04T01:00:00	3.1	ND	ND	ND	ND	ND	ND	ND	ND	ND	ND	0
38115	2014-06-04T02:00:00	2.2	ND	ND	ND	ND	ND	ND	ND	ND	ND	ND	0
38116	2014-06-04T03:00:00	11.4	ND	ND	ND	ND	ND	ND	ND	ND	ND	ND	0
38117	2014-06-04T04:00:00	8	ND	ND	ND	ND	ND	ND	ND	ND	ND	ND	0
38118	2014-06-04T05:00:00	5.9	ND	ND	ND	ND	ND	ND	ND	ND	ND	ND	0
38119	2014-06-04T06:00:00	4	ND	ND	ND	ND	ND	ND	ND	ND	ND	ND	0
38120	2014-06-04T07:00:00	13.1	ND	ND	ND	ND	ND	ND	ND	ND	ND	ND	0
38121	2014-06-04T08:00:00	20.3	ND	ND	ND	ND	ND	ND	ND	ND	ND	ND	0
38122	2014-06-04T09:00:00	43.1	ND	ND	ND	ND	ND	ND	ND	ND	ND	ND	0
38123	2014-06-04T10:00:00	33.1	ND	ND	ND	ND	ND	ND	ND	ND	ND	ND	0
38124	2014-06-04T11:00:00	49.7	ND	ND	ND	ND	ND	ND	ND	ND	ND	ND	0
38125	2014-06-04T12:00:00	106.5	ND	ND	ND	ND	ND	ND	ND	ND	ND	ND	0
38126	2014-06-04T13:00:00	54.5	ND	ND	ND	ND	ND	ND	ND	ND	ND	ND	0
38127	2014-06-04T14:00:00	40.6	ND	ND	ND	ND	ND	ND	ND	ND	ND	ND	0
38128	2014-06-04T15:00:00	52.5	ND	ND	ND	ND	ND	ND	ND	ND	ND	ND	0
38129	2014-06-04T16:00:00	38.1	ND	ND	ND	ND	ND	ND	ND	ND	ND	ND	0
38130	2014-06-04T17:00:00	37.9	ND	ND	ND	ND	ND	ND	ND	ND	ND	ND	0
38131	2014-06-04T18:00:00	20	ND	ND	ND	ND	ND	ND	ND	ND	ND	ND	0
38132	2014-06-04T19:00:00	15.1	ND	ND	ND	ND	ND	ND	ND	ND	ND	ND	0
38133	2014-06-04T20:00:00	8.6	ND	ND	ND	ND	ND	ND	ND	ND	ND	ND	0
38134	2014-06-04T21:00:00	8.3	ND	ND	ND	ND	ND	ND	ND	ND	ND	ND	0
38135	2014-06-04T22:00:00	4.1	ND	ND	ND	ND	ND	ND	ND	ND	ND	ND	0
38136	2014-06-04T23:00:00	ND	ND	ND	ND	ND	ND	ND	ND	ND	ND	ND	0
38137	2014-06-05T00:00:00	ND	ND	ND	ND	ND	ND	ND	ND	ND	ND	ND	0
38138	2014-06-05T01:00:00	ND	ND	ND	ND	ND	ND	ND	ND	ND	ND	ND	0
38139	2014-06-05T02:00:00	ND	ND	ND	ND	ND	ND	ND	ND	ND	ND	ND	0
38140	2014-06-05T03:00:00	ND	ND	ND	ND	ND	ND	ND	ND	ND	ND	ND	0
38141	2014-06-05T04:00:00	ND	ND	ND	ND	ND	ND	ND	ND	ND	ND	ND	0
38142	2014-06-05T05:00:00	ND	ND	ND	ND	ND	ND	ND	ND	ND	ND	ND	0
38143	2014-06-05T06:00:00	ND	ND	ND	ND	ND	ND	ND	ND	ND	ND	ND	0
38144	2014-06-05T07:00:00	ND	ND	ND	ND	ND	ND	ND	ND	ND	ND	ND	0
38145	2014-06-05T08:00:00	ND	ND	ND	ND	ND	ND	ND	ND	ND	ND	ND	0
38146	2014-06-05T09:00:00	ND	ND	ND	ND	ND	ND	ND	ND	ND	ND	ND	0
38147	2014-06-05T10:00:00	ND	ND	ND	ND	ND	ND	ND	ND	ND	ND	ND	0
38148	2014-06-05T11:00:00	ND	ND	ND	ND	ND	ND	ND	ND	ND	ND	ND	0
38149	2014-06-05T12:00:00	105.4	ND	ND	ND	ND	ND	ND	ND	ND	ND	ND	0
38150	2014-06-05T13:00:00	88.7	ND	ND	ND	ND	ND	ND	ND	ND	ND	ND	0
38151	2014-06-05T14:00:00	47.8	ND	ND	ND	ND	ND	ND	ND	ND	ND	ND	0
38152	2014-06-05T15:00:00	55	ND	ND	ND	ND	ND	ND	ND	ND	ND	ND	0
38153	2014-06-05T16:00:00	ND	ND	ND	ND	ND	ND	ND	ND	ND	ND	ND	0
38154	2014-06-05T17:00:00	ND	ND	ND	ND	ND	ND	ND	ND	ND	ND	ND	0
38155	2014-06-05T18:00:00	ND	ND	ND	ND	ND	ND	ND	ND	ND	ND	ND	0
38156	2014-06-05T19:00:00	ND	ND	ND	ND	ND	ND	ND	ND	ND	ND	ND	0
38157	2014-06-05T20:00:00	ND	ND	ND	ND	ND	ND	ND	ND	ND	ND	ND	0
38158	2014-06-05T21:00:00	ND	ND	ND	ND	ND	ND	ND	ND	ND	ND	ND	0
38159	2014-06-05T22:00:00	ND	ND	ND	ND	ND	ND	ND	ND	ND	ND	ND	0
38160	2014-06-05T23:00:00	ND	ND	ND	ND	ND	ND	ND	ND	ND	ND	ND	0
38161	2014-06-06T00:00:00	ND	ND	ND	ND	ND	ND	ND	ND	ND	ND	ND	0
38162	2014-06-06T01:00:00	120.6	ND	ND	ND	ND	ND	ND	ND	ND	ND	ND	0
38163	2014-06-06T02:00:00	62	ND	ND	ND	ND	ND	ND	ND	ND	ND	ND	0
38164	2014-06-06T03:00:00	59.3	ND	ND	ND	ND	ND	ND	ND	ND	ND	ND	0
38165	2014-06-06T04:00:00	53.1	ND	ND	ND	ND	ND	ND	ND	ND	ND	ND	0
38166	2014-06-06T05:00:00	34.3	ND	ND	ND	ND	ND	ND	ND	ND	ND	ND	0
38167	2014-06-06T06:00:00	17.9	ND	ND	ND	ND	ND	ND	ND	ND	ND	ND	0
38168	2014-06-06T07:00:00	33.7	ND	ND	ND	ND	ND	ND	ND	ND	ND	ND	0
38169	2014-06-06T08:00:00	18	ND	ND	ND	ND	ND	ND	ND	ND	ND	ND	0
38170	2014-06-06T09:00:00	61.1	ND	ND	ND	ND	ND	ND	ND	ND	ND	ND	0
38171	2014-06-06T10:00:00	73.3	ND	ND	ND	ND	ND	ND	ND	ND	ND	ND	0
38172	2014-06-06T11:00:00	75.3	ND	ND	ND	ND	ND	ND	ND	ND	ND	ND	0
38173	2014-06-06T12:00:00	38.6	ND	ND	ND	ND	ND	ND	ND	ND	ND	ND	0
38174	2014-06-06T13:00:00	39.3	ND	ND	ND	ND	ND	ND	ND	ND	ND	ND	0
38175	2014-06-06T14:00:00	27.3	ND	ND	ND	ND	ND	ND	ND	ND	ND	ND	0
38176	2014-06-06T15:00:00	ND	ND	ND	ND	ND	ND	ND	ND	ND	ND	ND	0
38177	2014-06-06T16:00:00	158.2	ND	ND	ND	ND	ND	ND	ND	ND	ND	ND	0
38178	2014-06-06T17:00:00	ND	ND	ND	ND	ND	ND	ND	ND	ND	ND	ND	0
38179	2014-06-06T18:00:00	ND	ND	ND	ND	ND	ND	ND	ND	ND	ND	ND	7.37
38180	2014-06-06T19:00:00	ND	ND	ND	ND	ND	ND	ND	ND	ND	ND	ND	0
38181	2014-06-06T20:00:00	ND	ND	ND	ND	ND	ND	ND	ND	ND	ND	ND	0
38182	2014-06-06T21:00:00	111.9	ND	ND	ND	ND	ND	ND	ND	ND	ND	ND	0
38183	2014-06-06T22:00:00	77.9	ND	ND	ND	ND	ND	ND	ND	ND	ND	ND	0
38184	2014-06-06T23:00:00	39.5	ND	ND	ND	ND	ND	ND	ND	ND	ND	ND	0
38185	2014-06-07T00:00:00	42.7	ND	ND	ND	ND	ND	ND	ND	ND	ND	ND	0
38186	2014-06-07T01:00:00	29.7	ND	ND	ND	ND	ND	ND	ND	ND	ND	ND	0
38187	2014-06-07T02:00:00	18.8	ND	ND	ND	ND	ND	ND	ND	ND	ND	ND	0
38188	2014-06-07T03:00:00	30.5	ND	ND	ND	ND	ND	ND	ND	ND	ND	ND	0
38189	2014-06-07T04:00:00	17.3	ND	ND	ND	ND	ND	ND	ND	ND	ND	ND	0
38190	2014-06-07T05:00:00	16.9	ND	ND	ND	ND	ND	ND	ND	ND	ND	ND	0
38191	2014-06-07T06:00:00	9.9	ND	ND	ND	ND	ND	ND	ND	ND	ND	ND	0
38192	2014-06-07T07:00:00	20	ND	ND	ND	ND	ND	ND	ND	ND	ND	ND	0
38193	2014-06-07T08:00:00	11	ND	ND	ND	ND	ND	ND	ND	ND	ND	ND	0
38194	2014-06-07T09:00:00	30.9	ND	ND	ND	ND	ND	ND	ND	ND	ND	ND	0
38195	2014-06-07T10:00:00	17.2	ND	ND	ND	ND	ND	ND	ND	ND	ND	ND	0
38196	2014-06-07T11:00:00	24.6	ND	ND	ND	ND	ND	ND	ND	ND	ND	ND	0
38197	2014-06-07T12:00:00	13.6	ND	ND	ND	ND	ND	ND	ND	ND	ND	ND	0
38198	2014-06-07T13:00:00	15.6	ND	ND	ND	ND	ND	ND	ND	ND	ND	ND	0
38199	2014-06-07T14:00:00	11.2	ND	ND	ND	ND	ND	ND	ND	ND	ND	ND	0
38200	2014-06-07T15:00:00	29.8	ND	ND	ND	ND	ND	ND	ND	ND	ND	ND	0
38201	2014-06-07T16:00:00	21	ND	ND	ND	ND	ND	ND	ND	ND	ND	ND	0
38202	2014-06-07T17:00:00	25.2	ND	ND	ND	ND	ND	ND	ND	ND	ND	ND	0
38203	2014-06-07T18:00:00	ND	ND	ND	ND	ND	ND	ND	ND	ND	ND	ND	0
38204	2014-06-07T19:00:00	ND	ND	ND	ND	ND	ND	ND	ND	ND	ND	ND	1.02
38205	2014-06-07T20:00:00	ND	ND	ND	ND	ND	ND	ND	ND	ND	ND	ND	0.51
38206	2014-06-07T21:00:00	ND	ND	ND	ND	ND	ND	ND	ND	ND	ND	ND	0.25
38207	2014-06-07T22:00:00	ND	ND	ND	ND	ND	ND	ND	ND	ND	ND	ND	0
38208	2014-06-07T23:00:00	ND	ND	ND	ND	ND	ND	ND	ND	ND	ND	ND	0
38209	2014-06-08T00:00:00	ND	ND	ND	ND	ND	ND	ND	ND	ND	ND	ND	0
38210	2014-06-08T01:00:00	ND	ND	ND	ND	ND	ND	ND	ND	ND	ND	ND	0
38211	2014-06-08T02:00:00	ND	ND	ND	ND	ND	ND	ND	ND	ND	ND	ND	0
38212	2014-06-08T03:00:00	105.9	ND	ND	ND	ND	ND	ND	ND	ND	ND	ND	0
38213	2014-06-08T04:00:00	54.5	ND	ND	ND	ND	ND	ND	ND	ND	ND	ND	0
38214	2014-06-08T05:00:00	70.4	ND	ND	ND	ND	ND	ND	ND	ND	ND	ND	0
38215	2014-06-08T06:00:00	35.9	ND	ND	ND	ND	ND	ND	ND	ND	ND	ND	0
38216	2014-06-08T07:00:00	25.8	ND	ND	ND	ND	ND	ND	ND	ND	ND	ND	0
38217	2014-06-08T08:00:00	13.8	ND	ND	ND	ND	ND	ND	ND	ND	ND	ND	0
38218	2014-06-08T09:00:00	7.7	ND	ND	ND	ND	ND	ND	ND	ND	ND	ND	0
38219	2014-06-08T10:00:00	6.3	ND	ND	ND	ND	ND	ND	ND	ND	ND	ND	0
38220	2014-06-08T11:00:00	4.1	ND	ND	ND	ND	ND	ND	ND	ND	ND	ND	0
38221	2014-06-08T12:00:00	2	ND	ND	ND	ND	ND	ND	ND	ND	ND	ND	0
38222	2014-06-08T13:00:00	ND	ND	ND	ND	ND	ND	ND	ND	ND	ND	ND	0
38223	2014-06-08T14:00:00	ND	ND	ND	ND	ND	ND	ND	ND	ND	ND	ND	0
38224	2014-06-08T15:00:00	ND	ND	ND	ND	ND	ND	ND	ND	ND	ND	ND	0
38225	2014-06-08T16:00:00	ND	ND	ND	ND	ND	ND	ND	ND	ND	ND	ND	0
38226	2014-06-08T17:00:00	ND	ND	ND	ND	ND	ND	ND	ND	ND	ND	ND	0
38227	2014-06-08T18:00:00	ND	ND	ND	ND	ND	ND	ND	ND	ND	ND	ND	0
38228	2014-06-08T19:00:00	ND	ND	ND	ND	ND	ND	ND	ND	ND	ND	ND	0
38229	2014-06-08T20:00:00	ND	ND	ND	ND	ND	ND	ND	ND	ND	ND	ND	0
38230	2014-06-08T21:00:00	128.5	ND	ND	ND	ND	ND	ND	ND	ND	ND	ND	0
38231	2014-06-08T22:00:00	66	ND	ND	ND	ND	ND	ND	ND	ND	ND	ND	0
38232	2014-06-08T23:00:00	39.7	ND	ND	ND	ND	ND	ND	ND	ND	ND	ND	0
38233	2014-06-09T00:00:00	20.9	ND	ND	ND	ND	ND	ND	ND	ND	ND	ND	0
38234	2014-06-09T01:00:00	26.3	ND	ND	ND	ND	ND	ND	ND	ND	ND	ND	0
38235	2014-06-09T02:00:00	14.1	ND	ND	ND	ND	ND	ND	ND	ND	ND	ND	0
38236	2014-06-09T03:00:00	9	ND	ND	ND	ND	ND	ND	ND	ND	ND	ND	6.6
38237	2014-06-09T04:00:00	6.2	ND	ND	ND	ND	ND	ND	ND	ND	ND	ND	0.25
38238	2014-06-09T05:00:00	12.5	ND	ND	ND	ND	ND	ND	ND	ND	ND	ND	0
38239	2014-06-09T06:00:00	7.7	ND	ND	ND	ND	ND	ND	ND	ND	ND	ND	0
38240	2014-06-09T07:00:00	10.4	ND	ND	ND	ND	ND	ND	ND	ND	ND	ND	0
38241	2014-06-09T08:00:00	20.3	ND	ND	ND	ND	ND	ND	ND	ND	ND	ND	0
38242	2014-06-09T09:00:00	36.6	ND	ND	ND	ND	ND	ND	ND	ND	ND	ND	0
38243	2014-06-09T10:00:00	34.6	ND	ND	ND	ND	ND	ND	ND	ND	ND	ND	0
38244	2014-06-09T11:00:00	37.4	ND	ND	ND	ND	ND	ND	ND	ND	ND	ND	0
38245	2014-06-09T12:00:00	29.2	ND	ND	ND	ND	ND	ND	ND	ND	ND	ND	0
38246	2014-06-09T13:00:00	27.6	ND	ND	ND	ND	ND	ND	ND	ND	ND	ND	0
38247	2014-06-09T14:00:00	15.8	ND	ND	ND	ND	ND	ND	ND	ND	ND	ND	0
38248	2014-06-09T15:00:00	21.5	ND	ND	ND	ND	ND	ND	ND	ND	ND	ND	0
38249	2014-06-09T16:00:00	12.8	ND	ND	ND	ND	ND	ND	ND	ND	ND	ND	0
38250	2014-06-09T17:00:00	13.9	ND	ND	ND	ND	ND	ND	ND	ND	ND	ND	0
38251	2014-06-09T18:00:00	7.5	ND	ND	ND	ND	ND	ND	ND	ND	ND	ND	0
38252	2014-06-09T19:00:00	4.7	ND	ND	ND	ND	ND	ND	ND	ND	ND	ND	0
38253	2014-06-09T20:00:00	3.1	ND	ND	ND	ND	ND	ND	ND	ND	ND	ND	0
38254	2014-06-09T21:00:00	2.2	ND	ND	ND	ND	ND	ND	ND	ND	ND	ND	0
38255	2014-06-09T22:00:00	1.1	ND	ND	ND	ND	ND	ND	ND	ND	ND	ND	0
38256	2014-06-09T23:00:00	6.1	ND	ND	ND	ND	ND	ND	ND	ND	ND	ND	0
38257	2014-06-10T00:00:00	20.9	ND	ND	ND	ND	ND	ND	ND	ND	ND	ND	0
38258	2014-06-10T01:00:00	26.2	ND	ND	ND	ND	ND	ND	ND	ND	ND	ND	0
38259	2014-06-10T02:00:00	14.2	ND	ND	ND	ND	ND	ND	ND	ND	ND	ND	0
38260	2014-06-10T03:00:00	21.6	ND	ND	ND	ND	ND	ND	ND	ND	ND	ND	0
38261	2014-06-10T04:00:00	11.8	ND	ND	ND	ND	ND	ND	ND	ND	ND	ND	0
38262	2014-06-10T05:00:00	10.2	ND	ND	ND	ND	ND	ND	ND	ND	ND	ND	0
38263	2014-06-10T06:00:00	7.4	ND	ND	ND	ND	ND	ND	ND	ND	ND	ND	0
38264	2014-06-10T07:00:00	15	ND	ND	ND	ND	ND	ND	ND	ND	ND	ND	0
38265	2014-06-10T08:00:00	27.5	ND	ND	ND	ND	ND	ND	ND	ND	ND	ND	0
38266	2014-06-10T09:00:00	30	ND	ND	ND	ND	ND	ND	ND	ND	ND	ND	0
38267	2014-06-10T10:00:00	22.9	ND	ND	ND	ND	ND	ND	ND	ND	ND	ND	0
38268	2014-06-10T11:00:00	44	ND	ND	ND	ND	ND	ND	ND	ND	ND	ND	0
38269	2014-06-10T12:00:00	26	ND	ND	ND	ND	ND	ND	ND	ND	ND	ND	0
38270	2014-06-10T13:00:00	44.3	ND	ND	ND	ND	ND	ND	ND	ND	ND	ND	0
38271	2014-06-10T14:00:00	35.9	ND	ND	ND	ND	ND	ND	ND	ND	ND	ND	0
38272	2014-06-10T15:00:00	ND	ND	ND	ND	ND	ND	ND	ND	ND	ND	ND	0
38273	2014-06-10T16:00:00	ND	ND	ND	ND	ND	ND	ND	ND	ND	ND	ND	0
38274	2014-06-10T17:00:00	ND	ND	ND	ND	ND	ND	ND	ND	ND	ND	ND	0
38275	2014-06-10T18:00:00	ND	ND	ND	ND	ND	ND	ND	ND	ND	ND	ND	0
38276	2014-06-10T19:00:00	ND	ND	ND	ND	ND	ND	ND	ND	ND	ND	ND	0
38277	2014-06-10T20:00:00	ND	ND	ND	ND	ND	ND	ND	ND	ND	ND	ND	0
38278	2014-06-10T21:00:00	ND	ND	ND	ND	ND	ND	ND	ND	ND	ND	ND	0
38279	2014-06-10T22:00:00	ND	ND	ND	ND	ND	ND	ND	ND	ND	ND	ND	0
38280	2014-06-10T23:00:00	ND	ND	ND	ND	ND	ND	ND	ND	ND	ND	ND	0
38281	2014-06-11T00:00:00	ND	ND	ND	ND	ND	ND	ND	ND	ND	ND	ND	0
38282	2014-06-11T01:00:00	ND	ND	ND	ND	ND	ND	ND	ND	ND	ND	ND	0
38283	2014-06-11T02:00:00	ND	ND	ND	ND	ND	ND	ND	ND	ND	ND	ND	0
38284	2014-06-11T03:00:00	ND	ND	ND	ND	ND	ND	ND	ND	ND	ND	ND	0
38285	2014-06-11T04:00:00	ND	ND	ND	ND	ND	ND	ND	ND	ND	ND	ND	0
38286	2014-06-11T05:00:00	ND	ND	ND	ND	ND	ND	ND	ND	ND	ND	ND	0
38287	2014-06-11T06:00:00	102	ND	ND	ND	ND	ND	ND	ND	ND	ND	ND	0
38288	2014-06-11T07:00:00	72.4	ND	ND	ND	ND	ND	ND	ND	ND	ND	ND	0
38289	2014-06-11T08:00:00	43	ND	ND	ND	ND	ND	ND	ND	ND	ND	ND	0
38290	2014-06-11T09:00:00	39.4	ND	ND	ND	ND	ND	ND	ND	ND	ND	ND	0
38291	2014-06-11T10:00:00	34	ND	ND	ND	ND	ND	ND	ND	ND	ND	ND	0
38292	2014-06-11T11:00:00	50.2	ND	ND	ND	ND	ND	ND	ND	ND	ND	ND	0
38293	2014-06-11T12:00:00	43.2	ND	ND	ND	ND	ND	ND	ND	ND	ND	ND	0
38294	2014-06-11T13:00:00	48.9	ND	ND	ND	ND	ND	ND	ND	ND	ND	ND	0
38295	2014-06-11T14:00:00	40.6	ND	ND	ND	ND	ND	ND	ND	ND	ND	ND	0
38296	2014-06-11T15:00:00	46.9	ND	ND	ND	ND	ND	ND	ND	ND	ND	ND	0
38297	2014-06-11T16:00:00	45.6	ND	ND	ND	ND	ND	ND	ND	ND	ND	ND	0
38298	2014-06-11T17:00:00	32.2	ND	ND	ND	ND	ND	ND	ND	ND	ND	ND	0
38299	2014-06-11T18:00:00	16.7	ND	ND	ND	ND	ND	ND	ND	ND	ND	ND	0
38300	2014-06-11T19:00:00	28.4	ND	ND	ND	ND	ND	ND	ND	ND	ND	ND	0
38301	2014-06-11T20:00:00	15.4	ND	ND	ND	ND	ND	ND	ND	ND	ND	ND	0
38302	2014-06-11T21:00:00	8.9	ND	ND	ND	ND	ND	ND	ND	ND	ND	ND	0
38303	2014-06-11T22:00:00	20.1	ND	ND	ND	ND	ND	ND	ND	ND	ND	ND	0
38304	2014-06-11T23:00:00	16.7	ND	ND	ND	ND	ND	ND	ND	ND	ND	ND	0
38305	2014-06-12T00:00:00	10.2	ND	ND	ND	ND	ND	ND	ND	ND	ND	ND	0
38306	2014-06-12T01:00:00	40.4	ND	ND	ND	ND	ND	ND	ND	ND	ND	ND	0
38307	2014-06-12T02:00:00	22.6	ND	ND	ND	ND	ND	ND	ND	ND	ND	ND	0
38308	2014-06-12T03:00:00	23.7	ND	ND	ND	ND	ND	ND	ND	ND	ND	ND	0
38309	2014-06-12T04:00:00	12.9	ND	ND	ND	ND	ND	ND	ND	ND	ND	ND	0
38310	2014-06-12T05:00:00	7.1	ND	ND	ND	ND	ND	ND	ND	ND	ND	ND	0
38311	2014-06-12T06:00:00	4.6	ND	ND	ND	ND	ND	ND	ND	ND	ND	ND	0
38312	2014-06-12T07:00:00	25.4	ND	ND	ND	ND	ND	ND	ND	ND	ND	ND	0
38313	2014-06-12T08:00:00	62.5	ND	ND	ND	ND	ND	ND	ND	ND	ND	ND	0
38314	2014-06-12T09:00:00	68.4	ND	ND	ND	ND	ND	ND	ND	ND	ND	ND	0
38315	2014-06-12T10:00:00	47.3	ND	ND	ND	ND	ND	ND	ND	ND	ND	ND	0
38316	2014-06-12T11:00:00	48.5	ND	ND	ND	ND	ND	ND	ND	ND	ND	ND	0
38317	2014-06-12T12:00:00	31.5	ND	ND	ND	ND	ND	ND	ND	ND	ND	ND	0
38318	2014-06-12T13:00:00	21.2	ND	ND	ND	ND	ND	ND	ND	ND	ND	ND	0
38319	2014-06-12T14:00:00	21.4	ND	ND	ND	ND	ND	ND	ND	ND	ND	ND	0
38320	2014-06-12T15:00:00	16.5	ND	ND	ND	ND	ND	ND	ND	ND	ND	ND	0
38321	2014-06-12T16:00:00	9.5	ND	ND	ND	ND	ND	ND	ND	ND	ND	ND	0
38322	2014-06-12T17:00:00	9.5	ND	ND	ND	ND	ND	ND	ND	ND	ND	ND	0
38323	2014-06-12T18:00:00	6.3	ND	ND	ND	ND	ND	ND	ND	ND	ND	ND	0
38324	2014-06-12T19:00:00	19.9	ND	ND	ND	ND	ND	ND	ND	ND	ND	ND	0
38325	2014-06-12T20:00:00	11.9	ND	ND	ND	ND	ND	ND	ND	ND	ND	ND	0
38326	2014-06-12T21:00:00	17.6	ND	ND	ND	ND	ND	ND	ND	ND	ND	ND	0
38327	2014-06-12T22:00:00	12.4	ND	ND	ND	ND	ND	ND	ND	ND	ND	ND	0
38328	2014-06-12T23:00:00	15.4	ND	ND	ND	ND	ND	ND	ND	ND	ND	ND	0
38329	2014-06-13T00:00:00	8.3	ND	ND	ND	ND	ND	ND	ND	ND	ND	ND	0
38330	2014-06-13T01:00:00	37.4	ND	ND	ND	ND	ND	ND	ND	ND	ND	ND	0
38331	2014-06-13T02:00:00	21	ND	ND	ND	ND	ND	ND	ND	ND	ND	ND	0
38332	2014-06-13T03:00:00	12.2	ND	ND	ND	ND	ND	ND	ND	ND	ND	ND	0
38333	2014-06-13T04:00:00	7.4	ND	ND	ND	ND	ND	ND	ND	ND	ND	ND	0
38334	2014-06-13T05:00:00	8.3	ND	ND	ND	ND	ND	ND	ND	ND	ND	ND	0
38335	2014-06-13T06:00:00	6.3	ND	ND	ND	ND	ND	ND	ND	ND	ND	ND	0
38336	2014-06-13T07:00:00	25	ND	ND	ND	ND	ND	ND	ND	ND	ND	ND	0
38337	2014-06-13T08:00:00	49.4	ND	ND	ND	ND	ND	ND	ND	ND	ND	ND	0
38338	2014-06-13T09:00:00	ND	ND	ND	ND	ND	ND	ND	ND	ND	ND	ND	0
38339	2014-06-13T10:00:00	ND	ND	ND	ND	ND	ND	ND	ND	ND	ND	ND	0
38340	2014-06-13T11:00:00	ND	ND	ND	ND	ND	ND	ND	ND	ND	ND	ND	0
38341	2014-06-13T12:00:00	ND	ND	ND	ND	ND	ND	ND	ND	ND	ND	ND	0
38342	2014-06-13T13:00:00	ND	ND	ND	ND	ND	ND	ND	ND	ND	ND	ND	0
38343	2014-06-13T14:00:00	ND	ND	ND	ND	ND	ND	ND	ND	ND	ND	ND	0
38344	2014-06-13T15:00:00	107.1	ND	ND	ND	ND	ND	ND	ND	ND	ND	ND	0
38345	2014-06-13T16:00:00	59.4	ND	ND	ND	ND	ND	ND	ND	ND	ND	ND	0
38346	2014-06-13T17:00:00	55.5	ND	ND	ND	ND	ND	ND	ND	ND	ND	ND	0
38347	2014-06-13T18:00:00	33	ND	ND	ND	ND	ND	ND	ND	ND	ND	ND	0
38348	2014-06-13T19:00:00	31.4	ND	ND	ND	ND	ND	ND	ND	ND	ND	ND	0
38349	2014-06-13T20:00:00	17.1	ND	ND	ND	ND	ND	ND	ND	ND	ND	ND	0
38350	2014-06-13T21:00:00	9.7	ND	ND	ND	ND	ND	ND	ND	ND	ND	ND	0
38351	2014-06-13T22:00:00	30.2	ND	ND	ND	ND	ND	ND	ND	ND	ND	ND	0
38352	2014-06-13T23:00:00	19	ND	ND	ND	ND	ND	ND	ND	ND	ND	ND	0
38353	2014-06-14T00:00:00	10.1	ND	ND	ND	ND	ND	ND	ND	ND	ND	ND	0
38354	2014-06-14T01:00:00	12.8	ND	ND	ND	ND	ND	ND	ND	ND	ND	ND	0
38355	2014-06-14T02:00:00	51.7	ND	ND	ND	ND	ND	ND	ND	ND	ND	ND	0
38356	2014-06-14T03:00:00	33.5	ND	ND	ND	ND	ND	ND	ND	ND	ND	ND	0
38357	2014-06-14T04:00:00	17.6	ND	ND	ND	ND	ND	ND	ND	ND	ND	ND	0
38358	2014-06-14T05:00:00	35.9	ND	ND	ND	ND	ND	ND	ND	ND	ND	ND	0
38359	2014-06-14T06:00:00	27.7	ND	ND	ND	ND	ND	ND	ND	ND	ND	ND	0
38360	2014-06-14T07:00:00	40.9	ND	ND	ND	ND	ND	ND	ND	ND	ND	ND	0
38361	2014-06-14T08:00:00	37.6	ND	ND	ND	ND	ND	ND	ND	ND	ND	ND	0
38362	2014-06-14T09:00:00	66.9	ND	ND	ND	ND	ND	ND	ND	ND	ND	ND	0
38363	2014-06-14T10:00:00	50.7	ND	ND	ND	ND	ND	ND	ND	ND	ND	ND	0
38364	2014-06-14T11:00:00	58	ND	ND	ND	ND	ND	ND	ND	ND	ND	ND	0
38365	2014-06-14T12:00:00	42.1	ND	ND	ND	ND	ND	ND	ND	ND	ND	ND	0
38366	2014-06-14T13:00:00	43	ND	ND	ND	ND	ND	ND	ND	ND	ND	ND	0
38367	2014-06-14T14:00:00	34.2	ND	ND	ND	ND	ND	ND	ND	ND	ND	ND	0
38368	2014-06-14T15:00:00	51.2	ND	ND	ND	ND	ND	ND	ND	ND	ND	ND	0
38369	2014-06-14T16:00:00	27.3	ND	ND	ND	ND	ND	ND	ND	ND	ND	ND	0
38370	2014-06-14T17:00:00	15.5	ND	ND	ND	ND	ND	ND	ND	ND	ND	ND	23.62
38371	2014-06-14T18:00:00	21.4	ND	ND	ND	ND	ND	ND	ND	ND	ND	ND	1.27
38372	2014-06-14T19:00:00	20.6	ND	ND	ND	ND	ND	ND	ND	ND	ND	ND	0.76
38373	2014-06-14T20:00:00	12.3	ND	ND	ND	ND	ND	ND	ND	ND	ND	ND	0
38374	2014-06-14T21:00:00	9.1	ND	ND	ND	ND	ND	ND	ND	ND	ND	ND	0
38375	2014-06-14T22:00:00	11.3	ND	ND	ND	ND	ND	ND	ND	ND	ND	ND	0
38376	2014-06-14T23:00:00	26.6	ND	ND	ND	ND	ND	ND	ND	ND	ND	ND	0
38377	2014-06-15T00:00:00	18.9	ND	ND	ND	ND	ND	ND	ND	ND	ND	ND	0
38378	2014-06-15T01:00:00	33.8	ND	ND	ND	ND	ND	ND	ND	ND	ND	ND	0
38379	2014-06-15T02:00:00	19.5	ND	ND	ND	ND	ND	ND	ND	ND	ND	ND	0
38380	2014-06-15T03:00:00	21.7	ND	ND	ND	ND	ND	ND	ND	ND	ND	ND	0
38381	2014-06-15T04:00:00	12.7	ND	ND	ND	ND	ND	ND	ND	ND	ND	ND	0
38382	2014-06-15T05:00:00	7	ND	ND	ND	ND	ND	ND	ND	ND	ND	ND	0
38383	2014-06-15T06:00:00	11.5	ND	ND	ND	ND	ND	ND	ND	ND	ND	ND	0
38384	2014-06-15T07:00:00	8.5	ND	ND	ND	ND	ND	ND	ND	ND	ND	ND	0
38385	2014-06-15T08:00:00	5.4	ND	ND	ND	ND	ND	ND	ND	ND	ND	ND	0
38386	2014-06-15T09:00:00	17	ND	ND	ND	ND	ND	ND	ND	ND	ND	ND	0
38387	2014-06-15T10:00:00	10.7	ND	ND	ND	ND	ND	ND	ND	ND	ND	ND	0
38388	2014-06-15T11:00:00	7.8	ND	ND	ND	ND	ND	ND	ND	ND	ND	ND	0
38389	2014-06-15T12:00:00	8.3	ND	ND	ND	ND	ND	ND	ND	ND	ND	ND	0
38390	2014-06-15T13:00:00	15.1	ND	ND	ND	ND	ND	ND	ND	ND	ND	ND	0
38391	2014-06-15T14:00:00	9.1	ND	ND	ND	ND	ND	ND	ND	ND	ND	ND	0
38392	2014-06-15T15:00:00	14.7	ND	ND	ND	ND	ND	ND	ND	ND	ND	ND	0
38393	2014-06-15T16:00:00	8.1	ND	ND	ND	ND	ND	ND	ND	ND	ND	ND	0
38394	2014-06-15T17:00:00	10.7	ND	ND	ND	ND	ND	ND	ND	ND	ND	ND	0
38395	2014-06-15T18:00:00	7.3	ND	ND	ND	ND	ND	ND	ND	ND	ND	ND	0
38396	2014-06-15T19:00:00	3.7	ND	ND	ND	ND	ND	ND	ND	ND	ND	ND	0
38397	2014-06-15T20:00:00	3.1	ND	ND	ND	ND	ND	ND	ND	ND	ND	ND	0
38398	2014-06-15T21:00:00	3.4	ND	ND	ND	ND	ND	ND	ND	ND	ND	ND	0
38399	2014-06-15T22:00:00	3.8	ND	ND	ND	ND	ND	ND	ND	ND	ND	ND	0
38400	2014-06-15T23:00:00	4.1	ND	ND	ND	ND	ND	ND	ND	ND	ND	ND	0
38401	2014-06-16T00:00:00	3	ND	ND	ND	ND	ND	ND	ND	ND	ND	ND	0
38402	2014-06-16T01:00:00	3.3	ND	ND	ND	ND	ND	ND	ND	ND	ND	ND	0
38403	2014-06-16T02:00:00	22.7	ND	ND	ND	ND	ND	ND	ND	ND	ND	ND	0
38404	2014-06-16T03:00:00	17.4	ND	ND	ND	ND	ND	ND	ND	ND	ND	ND	0
38405	2014-06-16T04:00:00	10.4	ND	ND	ND	ND	ND	ND	ND	ND	ND	ND	0
38406	2014-06-16T05:00:00	29.4	ND	ND	ND	ND	ND	ND	ND	ND	ND	ND	0
38407	2014-06-16T06:00:00	16.8	ND	ND	ND	ND	ND	ND	ND	ND	ND	ND	0
38408	2014-06-16T07:00:00	32.7	ND	ND	ND	ND	ND	ND	ND	ND	ND	ND	0
38409	2014-06-16T08:00:00	34.3	ND	ND	ND	ND	ND	ND	ND	ND	ND	ND	0
38410	2014-06-16T09:00:00	48.7	ND	ND	ND	ND	ND	ND	ND	ND	ND	ND	0
38411	2014-06-16T10:00:00	54	ND	ND	ND	ND	ND	ND	ND	ND	ND	ND	0
38412	2014-06-16T11:00:00	44.6	ND	ND	ND	ND	ND	ND	ND	ND	ND	ND	0
38413	2014-06-16T12:00:00	24.1	ND	ND	ND	ND	ND	ND	ND	ND	ND	ND	0
38414	2014-06-16T13:00:00	34	ND	ND	ND	ND	ND	ND	ND	ND	ND	ND	0
38415	2014-06-16T14:00:00	18.2	ND	ND	ND	ND	ND	ND	ND	ND	ND	ND	0
38416	2014-06-16T15:00:00	34.3	ND	ND	ND	ND	ND	ND	ND	ND	ND	ND	0
38417	2014-06-16T16:00:00	20.5	ND	ND	ND	ND	ND	ND	ND	ND	ND	ND	0
38418	2014-06-16T17:00:00	47.9	ND	ND	ND	ND	ND	ND	ND	ND	ND	ND	0
38419	2014-06-16T18:00:00	25.3	ND	ND	ND	ND	ND	ND	ND	ND	ND	ND	0
38420	2014-06-16T19:00:00	21.7	ND	ND	ND	ND	ND	ND	ND	ND	ND	ND	0
38421	2014-06-16T20:00:00	12	ND	ND	ND	ND	ND	ND	ND	ND	ND	ND	0
38422	2014-06-16T21:00:00	15.5	ND	ND	ND	ND	ND	ND	ND	ND	ND	ND	0
38423	2014-06-16T22:00:00	8.4	ND	ND	ND	ND	ND	ND	ND	ND	ND	ND	0
38424	2014-06-16T23:00:00	9.2	ND	ND	ND	ND	ND	ND	ND	ND	ND	ND	0
38425	2014-06-17T00:00:00	15.8	ND	ND	ND	ND	ND	ND	ND	ND	ND	ND	0
38426	2014-06-17T01:00:00	32.4	ND	ND	ND	ND	ND	ND	ND	ND	ND	ND	0
38427	2014-06-17T02:00:00	17.9	ND	ND	ND	ND	ND	ND	ND	ND	ND	ND	0
38428	2014-06-17T03:00:00	16.7	ND	ND	ND	ND	ND	ND	ND	ND	ND	ND	0
38429	2014-06-17T04:00:00	9.1	ND	ND	ND	ND	ND	ND	ND	ND	ND	ND	0
38430	2014-06-17T05:00:00	30.7	ND	ND	ND	ND	ND	ND	ND	ND	ND	ND	0
38431	2014-06-17T06:00:00	32.9	ND	ND	ND	ND	ND	ND	ND	ND	ND	ND	0
38432	2014-06-17T07:00:00	52.4	ND	ND	ND	ND	ND	ND	ND	ND	ND	ND	0
38433	2014-06-17T08:00:00	59.9	ND	ND	ND	ND	ND	ND	ND	ND	ND	ND	0
38434	2014-06-17T09:00:00	58.5	ND	ND	ND	ND	ND	ND	ND	ND	ND	ND	0
38435	2014-06-17T10:00:00	41.2	ND	ND	ND	ND	ND	ND	ND	ND	ND	ND	0
38436	2014-06-17T11:00:00	64.1	ND	ND	ND	ND	ND	ND	ND	ND	ND	ND	0
38437	2014-06-17T12:00:00	46.7	ND	ND	ND	ND	ND	ND	ND	ND	ND	ND	0
38438	2014-06-17T13:00:00	59.5	ND	ND	ND	ND	ND	ND	ND	ND	ND	ND	0
38439	2014-06-17T14:00:00	38.8	ND	ND	ND	ND	ND	ND	ND	ND	ND	ND	0
38440	2014-06-17T15:00:00	23.1	ND	ND	ND	ND	ND	ND	ND	ND	ND	ND	0
38441	2014-06-17T16:00:00	12.6	ND	ND	ND	ND	ND	ND	ND	ND	ND	ND	0
38442	2014-06-17T17:00:00	22.3	ND	ND	ND	ND	ND	ND	ND	ND	ND	ND	0
38443	2014-06-17T18:00:00	30.4	ND	ND	ND	ND	ND	ND	ND	ND	ND	ND	0
38444	2014-06-17T19:00:00	57.3	ND	ND	ND	ND	ND	ND	ND	ND	ND	ND	0
38445	2014-06-17T20:00:00	44.9	ND	ND	ND	ND	ND	ND	ND	ND	ND	ND	0
38446	2014-06-17T21:00:00	48.8	ND	ND	ND	ND	ND	ND	ND	ND	ND	ND	0
38447	2014-06-17T22:00:00	25.6	ND	ND	ND	ND	ND	ND	ND	ND	ND	ND	0
38448	2014-06-17T23:00:00	13.7	ND	ND	ND	ND	ND	ND	ND	ND	ND	ND	0
38449	2014-06-18T00:00:00	7.9	ND	ND	ND	ND	ND	ND	ND	ND	ND	ND	0
38450	2014-06-18T01:00:00	19.5	ND	ND	ND	ND	ND	ND	ND	ND	ND	ND	0
38451	2014-06-18T02:00:00	ND	ND	ND	ND	ND	ND	ND	ND	ND	ND	ND	0
38452	2014-06-18T03:00:00	ND	ND	ND	ND	ND	ND	ND	ND	ND	ND	ND	0
38453	2014-06-18T04:00:00	ND	ND	ND	ND	ND	ND	ND	ND	ND	ND	ND	0
38454	2014-06-18T05:00:00	ND	ND	ND	ND	ND	ND	ND	ND	ND	ND	ND	0
38455	2014-06-18T06:00:00	ND	ND	ND	ND	ND	ND	ND	ND	ND	ND	ND	0
38456	2014-06-18T07:00:00	ND	ND	ND	ND	ND	ND	ND	ND	ND	ND	ND	0
38457	2014-06-18T08:00:00	ND	ND	ND	ND	ND	ND	ND	ND	ND	ND	ND	0
38458	2014-06-18T09:00:00	ND	ND	ND	ND	ND	ND	ND	ND	ND	ND	ND	0
38459	2014-06-18T10:00:00	ND	ND	ND	ND	ND	ND	ND	ND	ND	ND	ND	0
38460	2014-06-18T11:00:00	ND	ND	ND	ND	ND	ND	ND	ND	ND	ND	ND	0
38461	2014-06-18T12:00:00	ND	ND	ND	ND	ND	ND	ND	ND	ND	ND	ND	0
38462	2014-06-18T13:00:00	ND	ND	ND	ND	ND	ND	ND	ND	ND	ND	ND	0
38463	2014-06-18T14:00:00	ND	ND	ND	ND	ND	ND	ND	ND	ND	ND	ND	0
38464	2014-06-18T15:00:00	ND	ND	ND	ND	ND	ND	ND	ND	ND	ND	ND	0
38465	2014-06-18T16:00:00	ND	ND	ND	ND	ND	ND	ND	ND	ND	ND	ND	0
38466	2014-06-18T17:00:00	ND	ND	ND	ND	ND	ND	ND	ND	ND	ND	ND	0
38467	2014-06-18T18:00:00	ND	ND	ND	ND	ND	ND	ND	ND	ND	ND	ND	0
38468	2014-06-18T19:00:00	114.2	ND	ND	ND	ND	ND	ND	ND	ND	ND	ND	0
38469	2014-06-18T20:00:00	84	ND	ND	ND	ND	ND	ND	ND	ND	ND	ND	0
38470	2014-06-18T21:00:00	69.5	ND	ND	ND	ND	ND	ND	ND	ND	ND	ND	0
38471	2014-06-18T22:00:00	34.7	ND	ND	ND	ND	ND	ND	ND	ND	ND	ND	0
38472	2014-06-18T23:00:00	19.4	ND	ND	ND	ND	ND	ND	ND	ND	ND	ND	0
38473	2014-06-19T00:00:00	10.9	ND	ND	ND	ND	ND	ND	ND	ND	ND	ND	0
38474	2014-06-19T01:00:00	14.8	ND	ND	ND	ND	ND	ND	ND	ND	ND	ND	0
38475	2014-06-19T02:00:00	36.7	ND	ND	ND	ND	ND	ND	ND	ND	ND	ND	0
38476	2014-06-19T03:00:00	46.4	ND	ND	ND	ND	ND	ND	ND	ND	ND	ND	0
38477	2014-06-19T04:00:00	63.7	ND	ND	ND	ND	ND	ND	ND	ND	ND	ND	0
38478	2014-06-19T05:00:00	47.4	ND	ND	ND	ND	ND	ND	ND	ND	ND	ND	0
38479	2014-06-19T06:00:00	60.9	ND	ND	ND	ND	ND	ND	ND	ND	ND	ND	0
38480	2014-06-19T07:00:00	73.3	ND	ND	ND	ND	ND	ND	ND	ND	ND	ND	0
38481	2014-06-19T08:00:00	82.4	ND	ND	ND	ND	ND	ND	ND	ND	ND	ND	0
38482	2014-06-19T09:00:00	112.6	ND	ND	ND	ND	ND	ND	ND	ND	ND	ND	0
38483	2014-06-19T10:00:00	94.4	ND	ND	ND	ND	ND	ND	ND	ND	ND	ND	0
38484	2014-06-19T11:00:00	76.2	ND	ND	ND	ND	ND	ND	ND	ND	ND	ND	0
38485	2014-06-19T12:00:00	59.9	ND	ND	ND	ND	ND	ND	ND	ND	ND	ND	0
38486	2014-06-19T13:00:00	44.6	ND	ND	ND	ND	ND	ND	ND	ND	ND	ND	0
38487	2014-06-19T14:00:00	23.9	ND	ND	ND	ND	ND	ND	ND	ND	ND	ND	0
38488	2014-06-19T15:00:00	34.5	ND	ND	ND	ND	ND	ND	ND	ND	ND	ND	0
38489	2014-06-19T16:00:00	43.6	ND	ND	ND	ND	ND	ND	ND	ND	ND	ND	0
38490	2014-06-19T17:00:00	30.3	ND	ND	ND	ND	ND	ND	ND	ND	ND	ND	0
38491	2014-06-19T18:00:00	15.9	ND	ND	ND	ND	ND	ND	ND	ND	ND	ND	0
38492	2014-06-19T19:00:00	ND	ND	ND	ND	ND	ND	ND	ND	ND	ND	ND	0
38493	2014-06-19T20:00:00	ND	ND	ND	ND	ND	ND	ND	ND	ND	ND	ND	0
38494	2014-06-19T21:00:00	ND	ND	ND	ND	ND	ND	ND	ND	ND	ND	ND	0
38495	2014-06-19T22:00:00	116	ND	ND	ND	ND	ND	ND	ND	ND	ND	ND	0
38496	2014-06-19T23:00:00	76.1	ND	ND	ND	ND	ND	ND	ND	ND	ND	ND	0
38497	2014-06-20T00:00:00	44.4	ND	ND	ND	ND	ND	ND	ND	ND	ND	ND	0
38498	2014-06-20T01:00:00	42.4	ND	ND	ND	ND	ND	ND	ND	ND	ND	ND	0
38499	2014-06-20T02:00:00	32.2	ND	ND	ND	ND	ND	ND	ND	ND	ND	ND	0
38500	2014-06-20T03:00:00	40.9	ND	ND	ND	ND	ND	ND	ND	ND	ND	ND	0
38501	2014-06-20T04:00:00	27.4	ND	ND	ND	ND	ND	ND	ND	ND	ND	ND	0
38502	2014-06-20T05:00:00	32	ND	ND	ND	ND	ND	ND	ND	ND	ND	ND	0
38503	2014-06-20T06:00:00	49.9	ND	ND	ND	ND	ND	ND	ND	ND	ND	ND	0
38504	2014-06-20T07:00:00	33.6	ND	ND	ND	ND	ND	ND	ND	ND	ND	ND	0
38505	2014-06-20T08:00:00	65.2	ND	ND	ND	ND	ND	ND	ND	ND	ND	ND	0
38506	2014-06-20T09:00:00	90.3	ND	ND	ND	ND	ND	ND	ND	ND	ND	ND	0
38507	2014-06-20T10:00:00	46.8	ND	ND	ND	ND	ND	ND	ND	ND	ND	ND	0
38508	2014-06-20T11:00:00	73.6	ND	ND	ND	ND	ND	ND	ND	ND	ND	ND	0
38509	2014-06-20T12:00:00	38.5	ND	ND	ND	ND	ND	ND	ND	ND	ND	ND	0
38510	2014-06-20T13:00:00	20.4	ND	ND	ND	ND	ND	ND	ND	ND	ND	ND	0
38511	2014-06-20T14:00:00	35.2	ND	ND	ND	ND	ND	ND	ND	ND	ND	ND	0
38512	2014-06-20T15:00:00	24.2	ND	ND	ND	ND	ND	ND	ND	ND	ND	ND	0
38513	2014-06-20T16:00:00	13.4	ND	ND	ND	ND	ND	ND	ND	ND	ND	ND	0
38514	2014-06-20T17:00:00	34.2	ND	ND	ND	ND	ND	ND	ND	ND	ND	ND	0
38515	2014-06-20T18:00:00	46.9	ND	ND	ND	ND	ND	ND	ND	ND	ND	ND	0
38516	2014-06-20T19:00:00	ND	ND	ND	ND	ND	ND	ND	ND	ND	ND	ND	0
38517	2014-06-20T20:00:00	ND	ND	ND	ND	ND	ND	ND	ND	ND	ND	ND	0
38518	2014-06-20T21:00:00	73.8	ND	ND	ND	ND	ND	ND	ND	ND	ND	ND	0
38519	2014-06-20T22:00:00	38	ND	ND	ND	ND	ND	ND	ND	ND	ND	ND	0
38520	2014-06-20T23:00:00	29.4	ND	ND	ND	ND	ND	ND	ND	ND	ND	ND	0
38521	2014-06-21T00:00:00	31.5	ND	ND	ND	ND	ND	ND	ND	ND	ND	ND	0
38522	2014-06-21T01:00:00	71.7	ND	ND	ND	ND	ND	ND	ND	ND	ND	ND	0
38523	2014-06-21T02:00:00	36.9	ND	ND	ND	ND	ND	ND	ND	ND	ND	ND	0
38524	2014-06-21T03:00:00	47.3	ND	ND	ND	ND	ND	ND	ND	ND	ND	ND	0
38525	2014-06-21T04:00:00	25.6	ND	ND	ND	ND	ND	ND	ND	ND	ND	ND	0
38526	2014-06-21T05:00:00	36.5	ND	ND	ND	ND	ND	ND	ND	ND	ND	ND	0
38527	2014-06-21T06:00:00	19.5	ND	ND	ND	ND	ND	ND	ND	ND	ND	ND	0
38528	2014-06-21T07:00:00	48.5	ND	ND	ND	ND	ND	ND	ND	ND	ND	ND	0
38529	2014-06-21T08:00:00	25.8	ND	ND	ND	ND	ND	ND	ND	ND	ND	ND	0
38530	2014-06-21T09:00:00	45.2	ND	ND	ND	ND	ND	ND	ND	ND	ND	ND	0
38531	2014-06-21T10:00:00	55.6	ND	ND	ND	ND	ND	ND	ND	ND	ND	ND	0
38532	2014-06-21T11:00:00	32.5	ND	ND	ND	ND	ND	ND	ND	ND	ND	ND	0
38533	2014-06-21T12:00:00	17.4	ND	ND	ND	ND	ND	ND	ND	ND	ND	ND	0
38534	2014-06-21T13:00:00	24.5	ND	ND	ND	ND	ND	ND	ND	ND	ND	ND	0
38535	2014-06-21T14:00:00	14.3	ND	ND	ND	ND	ND	ND	ND	ND	ND	ND	0
38536	2014-06-21T15:00:00	28.3	ND	ND	ND	ND	ND	ND	ND	ND	ND	ND	0
38537	2014-06-21T16:00:00	19.5	ND	ND	ND	ND	ND	ND	ND	ND	ND	ND	0
38538	2014-06-21T17:00:00	40.7	ND	ND	ND	ND	ND	ND	ND	ND	ND	ND	0
38539	2014-06-21T18:00:00	42	ND	ND	ND	ND	ND	ND	ND	ND	ND	ND	0
38540	2014-06-21T19:00:00	63.5	ND	ND	ND	ND	ND	ND	ND	ND	ND	ND	0
38541	2014-06-21T20:00:00	45.5	ND	ND	ND	ND	ND	ND	ND	ND	ND	ND	0
38542	2014-06-21T21:00:00	33.6	ND	ND	ND	ND	ND	ND	ND	ND	ND	ND	0
38543	2014-06-21T22:00:00	30.5	ND	ND	ND	ND	ND	ND	ND	ND	ND	ND	0
38544	2014-06-21T23:00:00	32.7	ND	ND	ND	ND	ND	ND	ND	ND	ND	ND	0
38545	2014-06-22T00:00:00	18.4	ND	ND	ND	ND	ND	ND	ND	ND	ND	ND	0
38546	2014-06-22T01:00:00	30.4	ND	ND	ND	ND	ND	ND	ND	ND	ND	ND	0
38547	2014-06-22T02:00:00	31.5	ND	ND	ND	ND	ND	ND	ND	ND	ND	ND	0
38548	2014-06-22T03:00:00	70.3	ND	ND	ND	ND	ND	ND	ND	ND	ND	ND	0
38549	2014-06-22T04:00:00	55.1	ND	ND	ND	ND	ND	ND	ND	ND	ND	ND	0
38550	2014-06-22T05:00:00	54.8	ND	ND	ND	ND	ND	ND	ND	ND	ND	ND	0
38551	2014-06-22T06:00:00	40.5	ND	ND	ND	ND	ND	ND	ND	ND	ND	ND	0
38552	2014-06-22T07:00:00	53.4	ND	ND	ND	ND	ND	ND	ND	ND	ND	ND	0
38553	2014-06-22T08:00:00	37.6	ND	ND	ND	ND	ND	ND	ND	ND	ND	ND	0
38554	2014-06-22T09:00:00	45.7	ND	ND	ND	ND	ND	ND	ND	ND	ND	ND	0
38555	2014-06-22T10:00:00	ND	ND	ND	ND	ND	ND	ND	ND	ND	ND	ND	0
38556	2014-06-22T11:00:00	ND	ND	ND	ND	ND	ND	ND	ND	ND	ND	ND	0
38557	2014-06-22T12:00:00	ND	ND	ND	ND	ND	ND	ND	ND	ND	ND	ND	0
38558	2014-06-22T13:00:00	ND	ND	ND	ND	ND	ND	ND	ND	ND	ND	ND	0
38559	2014-06-22T14:00:00	ND	ND	ND	ND	ND	ND	ND	ND	ND	ND	ND	0
38560	2014-06-22T15:00:00	ND	ND	ND	ND	ND	ND	ND	ND	ND	ND	ND	0
38561	2014-06-22T16:00:00	ND	ND	ND	ND	ND	ND	ND	ND	ND	ND	ND	0
38562	2014-06-22T17:00:00	ND	ND	ND	ND	ND	ND	ND	ND	ND	ND	ND	0
38563	2014-06-22T18:00:00	ND	ND	ND	ND	ND	ND	ND	ND	ND	ND	ND	0
38564	2014-06-22T19:00:00	92.2	ND	ND	ND	ND	ND	ND	ND	ND	ND	ND	0
38565	2014-06-22T20:00:00	47.6	ND	ND	ND	ND	ND	ND	ND	ND	ND	ND	0
38566	2014-06-22T21:00:00	30	ND	ND	ND	ND	ND	ND	ND	ND	ND	ND	0
38567	2014-06-22T22:00:00	17.7	ND	ND	ND	ND	ND	ND	ND	ND	ND	ND	0
38568	2014-06-22T23:00:00	9.4	ND	ND	ND	ND	ND	ND	ND	ND	ND	ND	0
38569	2014-06-23T00:00:00	6.7	ND	ND	ND	ND	ND	ND	ND	ND	ND	ND	0
38570	2014-06-23T01:00:00	4.4	ND	ND	ND	ND	ND	ND	ND	ND	ND	ND	0
38571	2014-06-23T02:00:00	ND	ND	ND	ND	ND	ND	ND	ND	ND	ND	ND	0
38572	2014-06-23T03:00:00	ND	ND	ND	ND	ND	ND	ND	ND	ND	ND	ND	0
38573	2014-06-23T04:00:00	ND	ND	ND	ND	ND	ND	ND	ND	ND	ND	ND	0
38574	2014-06-23T05:00:00	ND	ND	ND	ND	ND	ND	ND	ND	ND	ND	ND	0
38575	2014-06-23T06:00:00	ND	ND	ND	ND	ND	ND	ND	ND	ND	ND	ND	0
38576	2014-06-23T07:00:00	ND	ND	ND	ND	ND	ND	ND	ND	ND	ND	ND	0
38577	2014-06-23T08:00:00	ND	ND	ND	ND	ND	ND	ND	ND	ND	ND	ND	0
38578	2014-06-23T09:00:00	ND	ND	ND	ND	ND	ND	ND	ND	ND	ND	ND	0
38579	2014-06-23T10:00:00	ND	ND	ND	ND	ND	ND	ND	ND	ND	ND	ND	0
38580	2014-06-23T11:00:00	ND	ND	ND	ND	ND	ND	ND	ND	ND	ND	ND	0
38581	2014-06-23T12:00:00	ND	ND	ND	ND	ND	ND	ND	ND	ND	ND	ND	0
38582	2014-06-23T13:00:00	ND	ND	ND	ND	ND	ND	ND	ND	ND	ND	ND	0
38583	2014-06-23T14:00:00	ND	ND	ND	ND	ND	ND	ND	ND	ND	ND	ND	0
38584	2014-06-23T15:00:00	ND	ND	ND	ND	ND	ND	ND	ND	ND	ND	ND	0
38585	2014-06-23T16:00:00	ND	ND	ND	ND	ND	ND	ND	ND	ND	ND	ND	0
38586	2014-06-23T17:00:00	ND	ND	ND	ND	ND	ND	ND	ND	ND	ND	ND	0
38587	2014-06-23T18:00:00	ND	ND	ND	ND	ND	ND	ND	ND	ND	ND	ND	0
38588	2014-06-23T19:00:00	ND	ND	ND	ND	ND	ND	ND	ND	ND	ND	ND	0
38589	2014-06-23T20:00:00	ND	ND	ND	ND	ND	ND	ND	ND	ND	ND	ND	0
38590	2014-06-23T21:00:00	ND	ND	ND	ND	ND	ND	ND	ND	ND	ND	ND	0
38591	2014-06-23T22:00:00	ND	ND	ND	ND	ND	ND	ND	ND	ND	ND	ND	0
38592	2014-06-23T23:00:00	ND	ND	ND	ND	ND	ND	ND	ND	ND	ND	ND	0
38593	2014-06-24T00:00:00	ND	ND	ND	ND	ND	ND	ND	ND	ND	ND	ND	0
38594	2014-06-24T01:00:00	ND	ND	ND	ND	ND	ND	ND	ND	ND	ND	ND	0
38595	2014-06-24T02:00:00	ND	ND	ND	ND	ND	ND	ND	ND	ND	ND	ND	0
38596	2014-06-24T03:00:00	ND	ND	ND	ND	ND	ND	ND	ND	ND	ND	ND	0
38597	2014-06-24T04:00:00	ND	ND	ND	ND	ND	ND	ND	ND	ND	ND	ND	0
38598	2014-06-24T05:00:00	ND	ND	ND	ND	ND	ND	ND	ND	ND	ND	ND	0
38599	2014-06-24T06:00:00	ND	ND	ND	ND	ND	ND	ND	ND	ND	ND	ND	0
38600	2014-06-24T07:00:00	ND	ND	ND	ND	ND	ND	ND	ND	ND	ND	ND	0
38601	2014-06-24T08:00:00	ND	ND	ND	ND	ND	ND	ND	ND	ND	ND	ND	0
38602	2014-06-24T09:00:00	ND	ND	ND	ND	ND	ND	ND	ND	ND	ND	ND	0
38603	2014-06-24T10:00:00	ND	ND	ND	ND	ND	ND	ND	ND	ND	ND	ND	0
38604	2014-06-24T11:00:00	ND	ND	ND	ND	ND	ND	ND	ND	ND	ND	ND	0
38605	2014-06-24T12:00:00	ND	ND	ND	ND	ND	ND	ND	ND	ND	ND	ND	0
38606	2014-06-24T13:00:00	ND	ND	ND	ND	ND	ND	ND	ND	ND	ND	ND	0
38607	2014-06-24T14:00:00	ND	ND	ND	ND	ND	ND	ND	ND	ND	ND	ND	0
38608	2014-06-24T15:00:00	ND	ND	ND	ND	ND	ND	ND	ND	ND	ND	ND	0
38609	2014-06-24T16:00:00	ND	ND	ND	ND	ND	ND	ND	ND	ND	ND	ND	7.11
38610	2014-06-24T17:00:00	ND	ND	ND	ND	ND	ND	ND	ND	ND	ND	ND	0.25
38611	2014-06-24T18:00:00	ND	ND	ND	ND	ND	ND	ND	ND	ND	ND	ND	0.51
38612	2014-06-24T19:00:00	ND	ND	ND	ND	ND	ND	ND	ND	ND	ND	ND	15.49
38613	2014-06-24T20:00:00	ND	ND	ND	ND	ND	ND	ND	ND	ND	ND	ND	9.91
38614	2014-06-24T21:00:00	ND	ND	ND	ND	ND	ND	ND	ND	ND	ND	ND	4.83
38615	2014-06-24T22:00:00	ND	ND	ND	ND	ND	ND	ND	ND	ND	ND	ND	19.56
38616	2014-06-24T23:00:00	ND	ND	ND	ND	ND	ND	ND	ND	ND	ND	ND	1.78
38617	2014-06-25T00:00:00	ND	ND	ND	ND	ND	ND	ND	ND	ND	ND	ND	0
38618	2014-06-25T01:00:00	ND	ND	ND	ND	ND	ND	ND	ND	ND	ND	ND	0.25
38619	2014-06-25T02:00:00	ND	ND	ND	ND	ND	ND	ND	ND	ND	ND	ND	0
38620	2014-06-25T03:00:00	ND	ND	ND	ND	ND	ND	ND	ND	ND	ND	ND	0
38621	2014-06-25T04:00:00	ND	ND	ND	ND	ND	ND	ND	ND	ND	ND	ND	0
38622	2014-06-25T05:00:00	ND	ND	ND	ND	ND	ND	ND	ND	ND	ND	ND	0
38623	2014-06-25T06:00:00	ND	ND	ND	ND	ND	ND	ND	ND	ND	ND	ND	0
38624	2014-06-25T07:00:00	ND	ND	ND	ND	ND	ND	ND	ND	ND	ND	ND	0
38625	2014-06-25T08:00:00	ND	ND	ND	ND	ND	ND	ND	ND	ND	ND	ND	0
38626	2014-06-25T09:00:00	ND	ND	ND	ND	ND	ND	ND	ND	ND	ND	ND	0
38627	2014-06-25T10:00:00	ND	ND	ND	ND	ND	ND	ND	ND	ND	ND	ND	0
38628	2014-06-25T11:00:00	ND	ND	ND	ND	ND	ND	ND	ND	ND	ND	ND	0
38629	2014-06-25T12:00:00	ND	ND	ND	ND	ND	ND	ND	ND	ND	ND	ND	0
38630	2014-06-25T13:00:00	ND	ND	ND	ND	ND	ND	ND	ND	ND	ND	ND	0
38631	2014-06-25T14:00:00	ND	ND	ND	ND	ND	ND	ND	ND	ND	ND	ND	0
38632	2014-06-25T15:00:00	ND	ND	ND	ND	ND	ND	ND	ND	ND	ND	ND	0
38633	2014-06-25T16:00:00	ND	ND	ND	ND	ND	ND	ND	ND	ND	ND	ND	0
38634	2014-06-25T17:00:00	ND	ND	ND	ND	ND	ND	ND	ND	ND	ND	ND	0
38635	2014-06-25T18:00:00	ND	ND	ND	ND	ND	ND	ND	ND	ND	ND	ND	0
38636	2014-06-25T19:00:00	ND	ND	ND	ND	ND	ND	ND	ND	ND	ND	ND	0
38637	2014-06-25T20:00:00	ND	ND	ND	ND	ND	ND	ND	ND	ND	ND	ND	0
38638	2014-06-25T21:00:00	ND	ND	ND	ND	ND	ND	ND	ND	ND	ND	ND	0
38639	2014-06-25T22:00:00	ND	ND	ND	ND	ND	ND	ND	ND	ND	ND	ND	0
38640	2014-06-25T23:00:00	ND	ND	ND	ND	ND	ND	ND	ND	ND	ND	ND	0
38641	2014-06-26T00:00:00	ND	ND	ND	ND	ND	ND	ND	ND	ND	ND	ND	0
38642	2014-06-26T01:00:00	ND	ND	ND	ND	ND	ND	ND	ND	ND	ND	ND	0
38643	2014-06-26T02:00:00	ND	ND	ND	ND	ND	ND	ND	ND	ND	ND	ND	0
38644	2014-06-26T03:00:00	ND	ND	ND	ND	ND	ND	ND	ND	ND	ND	ND	0
38645	2014-06-26T04:00:00	ND	ND	ND	ND	ND	ND	ND	ND	ND	ND	ND	0
38646	2014-06-26T05:00:00	ND	ND	ND	ND	ND	ND	ND	ND	ND	ND	ND	0
38647	2014-06-26T06:00:00	ND	ND	ND	ND	ND	ND	ND	ND	ND	ND	ND	0
38648	2014-06-26T07:00:00	ND	ND	ND	ND	ND	ND	ND	ND	ND	ND	ND	0
38649	2014-06-26T08:00:00	ND	ND	ND	ND	ND	ND	ND	ND	ND	ND	ND	0
38650	2014-06-26T09:00:00	ND	ND	ND	ND	ND	ND	ND	ND	ND	ND	ND	0
38651	2014-06-26T10:00:00	ND	ND	ND	ND	ND	ND	ND	ND	ND	ND	ND	0
38652	2014-06-26T11:00:00	ND	ND	ND	ND	ND	ND	ND	ND	ND	ND	ND	0
38653	2014-06-26T12:00:00	ND	ND	ND	ND	ND	ND	ND	ND	ND	ND	ND	0
38654	2014-06-26T13:00:00	ND	ND	ND	ND	ND	ND	ND	ND	ND	ND	ND	0
38655	2014-06-26T14:00:00	ND	ND	ND	ND	ND	ND	ND	ND	ND	ND	ND	0
38656	2014-06-26T15:00:00	ND	ND	ND	ND	ND	ND	ND	ND	ND	ND	ND	0
38657	2014-06-26T16:00:00	ND	ND	ND	ND	ND	ND	ND	ND	ND	ND	ND	0
38658	2014-06-26T17:00:00	ND	ND	ND	ND	ND	ND	ND	ND	ND	ND	ND	0
38659	2014-06-26T18:00:00	ND	ND	ND	ND	ND	ND	ND	ND	ND	ND	ND	0
38660	2014-06-26T19:00:00	ND	ND	ND	ND	ND	ND	ND	ND	ND	ND	ND	0
38661	2014-06-26T20:00:00	ND	ND	ND	ND	ND	ND	ND	ND	ND	ND	ND	0
38662	2014-06-26T21:00:00	ND	ND	ND	ND	ND	ND	ND	ND	ND	ND	ND	0
38663	2014-06-26T22:00:00	ND	ND	ND	ND	ND	ND	ND	ND	ND	ND	ND	0
38664	2014-06-26T23:00:00	ND	ND	ND	ND	ND	ND	ND	ND	ND	ND	ND	0
38665	2014-06-27T00:00:00	ND	ND	ND	ND	ND	ND	ND	ND	ND	ND	ND	0
38666	2014-06-27T01:00:00	ND	ND	ND	ND	ND	ND	ND	ND	ND	ND	ND	0
38667	2014-06-27T02:00:00	ND	ND	ND	ND	ND	ND	ND	ND	ND	ND	ND	0
38668	2014-06-27T03:00:00	ND	ND	ND	ND	ND	ND	ND	ND	ND	ND	ND	0
38669	2014-06-27T04:00:00	ND	ND	ND	ND	ND	ND	ND	ND	ND	ND	ND	0
38670	2014-06-27T05:00:00	ND	ND	ND	ND	ND	ND	ND	ND	ND	ND	ND	0
38671	2014-06-27T06:00:00	ND	ND	ND	ND	ND	ND	ND	ND	ND	ND	ND	0
38672	2014-06-27T07:00:00	ND	ND	ND	ND	ND	ND	ND	ND	ND	ND	ND	0
38673	2014-06-27T08:00:00	ND	ND	ND	ND	ND	ND	ND	ND	ND	ND	ND	0
38674	2014-06-27T09:00:00	ND	ND	ND	ND	ND	ND	ND	ND	ND	ND	ND	0
38675	2014-06-27T10:00:00	ND	ND	ND	ND	ND	ND	ND	ND	ND	ND	ND	0
38676	2014-06-27T11:00:00	ND	ND	ND	ND	ND	ND	ND	ND	ND	ND	ND	0
38677	2014-06-27T12:00:00	ND	ND	ND	ND	ND	ND	ND	ND	ND	ND	ND	0
38678	2014-06-27T13:00:00	ND	ND	ND	ND	ND	ND	ND	ND	ND	ND	ND	0
38679	2014-06-27T14:00:00	ND	ND	ND	ND	ND	ND	ND	ND	ND	ND	ND	0
38680	2014-06-27T15:00:00	ND	ND	ND	ND	ND	ND	ND	ND	ND	ND	ND	0
38681	2014-06-27T16:00:00	ND	ND	ND	ND	ND	ND	ND	ND	ND	ND	ND	0
38682	2014-06-27T17:00:00	ND	ND	ND	ND	ND	ND	ND	ND	ND	ND	ND	0
38683	2014-06-27T18:00:00	ND	ND	ND	ND	ND	ND	ND	ND	ND	ND	ND	0
38684	2014-06-27T19:00:00	ND	ND	ND	ND	ND	ND	ND	ND	ND	ND	ND	0
38685	2014-06-27T20:00:00	ND	ND	ND	ND	ND	ND	ND	ND	ND	ND	ND	0
38686	2014-06-27T21:00:00	ND	ND	ND	ND	ND	ND	ND	ND	ND	ND	ND	0
38687	2014-06-27T22:00:00	ND	ND	ND	ND	ND	ND	ND	ND	ND	ND	ND	0
38688	2014-06-27T23:00:00	ND	ND	ND	ND	ND	ND	ND	ND	ND	ND	ND	0
38689	2014-06-28T00:00:00	ND	ND	ND	ND	ND	ND	ND	ND	ND	ND	ND	0
38690	2014-06-28T01:00:00	ND	ND	ND	ND	ND	ND	ND	ND	ND	ND	ND	0
38691	2014-06-28T02:00:00	ND	ND	ND	ND	ND	ND	ND	ND	ND	ND	ND	0
38692	2014-06-28T03:00:00	ND	ND	ND	ND	ND	ND	ND	ND	ND	ND	ND	0
38693	2014-06-28T04:00:00	ND	ND	ND	ND	ND	ND	ND	ND	ND	ND	ND	0
38694	2014-06-28T05:00:00	ND	ND	ND	ND	ND	ND	ND	ND	ND	ND	ND	0
38695	2014-06-28T06:00:00	ND	ND	ND	ND	ND	ND	ND	ND	ND	ND	ND	0
38696	2014-06-28T07:00:00	ND	ND	ND	ND	ND	ND	ND	ND	ND	ND	ND	0
38697	2014-06-28T08:00:00	ND	ND	ND	ND	ND	ND	ND	ND	ND	ND	ND	0
38698	2014-06-28T09:00:00	ND	ND	ND	ND	ND	ND	ND	ND	ND	ND	ND	0
38699	2014-06-28T10:00:00	ND	ND	ND	ND	ND	ND	ND	ND	ND	ND	ND	0
38700	2014-06-28T11:00:00	ND	ND	ND	ND	ND	ND	ND	ND	ND	ND	ND	0
38701	2014-06-28T12:00:00	ND	ND	ND	ND	ND	ND	ND	ND	ND	ND	ND	0
38702	2014-06-28T13:00:00	ND	ND	ND	ND	ND	ND	ND	ND	ND	ND	ND	0
38703	2014-06-28T14:00:00	ND	ND	ND	ND	ND	ND	ND	ND	ND	ND	ND	0
38704	2014-06-28T15:00:00	ND	ND	ND	ND	ND	ND	ND	ND	ND	ND	ND	0
38705	2014-06-28T16:00:00	ND	ND	ND	ND	ND	ND	ND	ND	ND	ND	ND	0
38706	2014-06-28T17:00:00	ND	ND	ND	ND	ND	ND	ND	ND	ND	ND	ND	0
38707	2014-06-28T18:00:00	ND	ND	ND	ND	ND	ND	ND	ND	ND	ND	ND	0
38708	2014-06-28T19:00:00	ND	ND	ND	ND	ND	ND	ND	ND	ND	ND	ND	0
38709	2014-06-28T20:00:00	ND	ND	ND	ND	ND	ND	ND	ND	ND	ND	ND	0
38710	2014-06-28T21:00:00	ND	ND	ND	ND	ND	ND	ND	ND	ND	ND	ND	0
38711	2014-06-28T22:00:00	ND	ND	ND	ND	ND	ND	ND	ND	ND	ND	ND	0
38712	2014-06-28T23:00:00	ND	ND	ND	ND	ND	ND	ND	ND	ND	ND	ND	0
38713	2014-06-29T00:00:00	ND	ND	ND	ND	ND	ND	ND	ND	ND	ND	ND	0
38714	2014-06-29T01:00:00	ND	ND	ND	ND	ND	ND	ND	ND	ND	ND	ND	0
38715	2014-06-29T02:00:00	ND	ND	ND	ND	ND	ND	ND	ND	ND	ND	ND	0
38716	2014-06-29T03:00:00	ND	ND	ND	ND	ND	ND	ND	ND	ND	ND	ND	0
38717	2014-06-29T04:00:00	ND	ND	ND	ND	ND	ND	ND	ND	ND	ND	ND	0
38718	2014-06-29T05:00:00	ND	ND	ND	ND	ND	ND	ND	ND	ND	ND	ND	0
38719	2014-06-29T06:00:00	ND	ND	ND	ND	ND	ND	ND	ND	ND	ND	ND	0
38720	2014-06-29T07:00:00	ND	ND	ND	ND	ND	ND	ND	ND	ND	ND	ND	0
38721	2014-06-29T08:00:00	ND	ND	ND	ND	ND	ND	ND	ND	ND	ND	ND	0
38722	2014-06-29T09:00:00	ND	ND	ND	ND	ND	ND	ND	ND	ND	ND	ND	0
38723	2014-06-29T10:00:00	ND	ND	ND	ND	ND	ND	ND	ND	ND	ND	ND	0
38724	2014-06-29T11:00:00	ND	ND	ND	ND	ND	ND	ND	ND	ND	ND	ND	0
38725	2014-06-29T12:00:00	ND	ND	ND	ND	ND	ND	ND	ND	ND	ND	ND	0
38726	2014-06-29T13:00:00	ND	ND	ND	ND	ND	ND	ND	ND	ND	ND	ND	0
38727	2014-06-29T14:00:00	ND	ND	ND	ND	ND	ND	ND	ND	ND	ND	ND	0
38728	2014-06-29T15:00:00	ND	ND	ND	ND	ND	ND	ND	ND	ND	ND	ND	0
38729	2014-06-29T16:00:00	ND	ND	ND	ND	ND	ND	ND	ND	ND	ND	ND	0
38730	2014-06-29T17:00:00	ND	ND	ND	ND	ND	ND	ND	ND	ND	ND	ND	0
38731	2014-06-29T18:00:00	ND	ND	ND	ND	ND	ND	ND	ND	ND	ND	ND	0
38732	2014-06-29T19:00:00	ND	ND	ND	ND	ND	ND	ND	ND	ND	ND	ND	0
38733	2014-06-29T20:00:00	ND	ND	ND	ND	ND	ND	ND	ND	ND	ND	ND	0
38734	2014-06-29T21:00:00	ND	ND	ND	ND	ND	ND	ND	ND	ND	ND	ND	0
38735	2014-06-29T22:00:00	ND	ND	ND	ND	ND	ND	ND	ND	ND	ND	ND	0
38736	2014-06-29T23:00:00	ND	ND	ND	ND	ND	ND	ND	ND	ND	ND	ND	0
38737	2014-06-30T00:00:00	ND	ND	ND	ND	ND	ND	ND	ND	ND	ND	ND	0
38738	2014-06-30T01:00:00	ND	ND	ND	ND	ND	ND	ND	ND	ND	ND	ND	0
38739	2014-06-30T02:00:00	ND	ND	ND	ND	ND	ND	ND	ND	ND	ND	ND	0
38740	2014-06-30T03:00:00	ND	ND	ND	ND	ND	ND	ND	ND	ND	ND	ND	6.6
38741	2014-06-30T04:00:00	ND	ND	ND	ND	ND	ND	ND	ND	ND	ND	ND	0
38742	2014-06-30T05:00:00	ND	ND	ND	ND	ND	ND	ND	ND	ND	ND	ND	0.25
38743	2014-06-30T06:00:00	ND	ND	ND	ND	ND	ND	ND	ND	ND	ND	ND	0
38744	2014-06-30T07:00:00	ND	ND	ND	ND	ND	ND	ND	ND	ND	ND	ND	0
38745	2014-06-30T08:00:00	ND	ND	ND	ND	ND	ND	ND	ND	ND	ND	ND	0
38746	2014-06-30T09:00:00	ND	ND	ND	ND	ND	ND	ND	ND	ND	ND	ND	0
38747	2014-06-30T10:00:00	ND	ND	ND	ND	ND	ND	ND	ND	ND	ND	ND	0
38748	2014-06-30T11:00:00	ND	ND	ND	ND	ND	ND	ND	ND	ND	ND	ND	0
38749	2014-06-30T12:00:00	ND	ND	ND	ND	ND	ND	ND	ND	ND	ND	ND	0
38750	2014-06-30T13:00:00	ND	ND	ND	ND	ND	ND	ND	ND	ND	ND	ND	0
38751	2014-06-30T14:00:00	ND	ND	ND	ND	ND	ND	ND	ND	ND	ND	ND	0
38752	2014-06-30T15:00:00	ND	ND	ND	ND	ND	ND	ND	ND	ND	ND	ND	0
38753	2014-06-30T16:00:00	ND	ND	ND	ND	ND	ND	ND	ND	ND	ND	ND	0
38754	2014-06-30T17:00:00	ND	ND	ND	ND	ND	ND	ND	ND	ND	ND	ND	0
38755	2014-06-30T18:00:00	ND	ND	ND	ND	ND	ND	ND	ND	ND	ND	ND	0
38756	2014-06-30T19:00:00	ND	ND	ND	ND	ND	ND	ND	ND	ND	ND	ND	0
38757	2014-06-30T20:00:00	ND	ND	ND	ND	ND	ND	ND	ND	ND	ND	ND	0
38758	2014-06-30T21:00:00	ND	ND	ND	ND	ND	ND	ND	ND	ND	ND	ND	0
38759	2014-06-30T22:00:00	ND	ND	ND	ND	ND	ND	ND	ND	ND	ND	ND	0
38760	2014-06-30T23:00:00	ND	ND	ND	ND	ND	ND	ND	ND	ND	ND	ND	0
38761	2014-07-01T00:00:00	ND	ND	ND	ND	ND	ND	ND	ND	ND	ND	ND	0
38762	2014-07-01T01:00:00	ND	ND	ND	ND	ND	ND	ND	ND	ND	ND	ND	0
38763	2014-07-01T02:00:00	ND	ND	ND	ND	ND	ND	ND	ND	ND	ND	ND	0
38764	2014-07-01T03:00:00	ND	ND	ND	ND	ND	ND	ND	ND	ND	ND	ND	0
38765	2014-07-01T04:00:00	ND	ND	ND	ND	ND	ND	ND	ND	ND	ND	ND	0
38766	2014-07-01T05:00:00	ND	ND	ND	ND	ND	ND	ND	ND	ND	ND	ND	0
38767	2014-07-01T06:00:00	ND	ND	ND	ND	ND	ND	ND	ND	ND	ND	ND	0
38768	2014-07-01T07:00:00	ND	ND	ND	ND	ND	ND	ND	ND	ND	ND	ND	0
38769	2014-07-01T08:00:00	ND	ND	ND	ND	ND	ND	ND	ND	ND	ND	ND	0
38770	2014-07-01T09:00:00	ND	ND	ND	ND	ND	ND	ND	ND	ND	ND	ND	0
38771	2014-07-01T10:00:00	ND	ND	ND	ND	ND	ND	ND	ND	ND	ND	ND	0
38772	2014-07-01T11:00:00	ND	ND	ND	ND	ND	ND	ND	ND	ND	ND	ND	0
38773	2014-07-01T12:00:00	ND	ND	ND	ND	ND	ND	ND	ND	ND	ND	ND	0
38774	2014-07-01T13:00:00	ND	ND	ND	ND	ND	ND	ND	ND	ND	ND	ND	0
38775	2014-07-01T14:00:00	ND	ND	ND	ND	ND	ND	ND	ND	ND	ND	ND	0
38776	2014-07-01T15:00:00	ND	ND	ND	ND	ND	ND	ND	ND	ND	ND	ND	0
38777	2014-07-01T16:00:00	ND	ND	ND	ND	ND	ND	ND	ND	ND	ND	ND	0
38778	2014-07-01T17:00:00	ND	ND	ND	ND	ND	ND	ND	ND	ND	ND	ND	0
38779	2014-07-01T18:00:00	ND	ND	ND	ND	ND	ND	ND	ND	ND	ND	ND	0
38780	2014-07-01T19:00:00	ND	ND	ND	ND	ND	ND	ND	ND	ND	ND	ND	0
38781	2014-07-01T20:00:00	ND	ND	ND	ND	ND	ND	ND	ND	ND	ND	ND	0
38782	2014-07-01T21:00:00	ND	ND	ND	ND	ND	ND	ND	ND	ND	ND	ND	0
38783	2014-07-01T22:00:00	ND	ND	ND	ND	ND	ND	ND	ND	ND	ND	ND	0
38784	2014-07-01T23:00:00	ND	ND	ND	ND	ND	ND	ND	ND	ND	ND	ND	0
38785	2014-07-02T00:00:00	ND	ND	ND	ND	ND	ND	ND	ND	ND	ND	ND	0
38786	2014-07-02T01:00:00	ND	ND	ND	ND	ND	ND	ND	ND	ND	ND	ND	0
38787	2014-07-02T02:00:00	ND	ND	ND	ND	ND	ND	ND	ND	ND	ND	ND	3.05
38788	2014-07-02T03:00:00	ND	ND	ND	ND	ND	ND	ND	ND	ND	ND	ND	1.02
38789	2014-07-02T04:00:00	ND	ND	ND	ND	ND	ND	ND	ND	ND	ND	ND	0.25
38790	2014-07-02T05:00:00	ND	ND	ND	ND	ND	ND	ND	ND	ND	ND	ND	0
38791	2014-07-02T06:00:00	ND	ND	ND	ND	ND	ND	ND	ND	ND	ND	ND	0.25
38792	2014-07-02T07:00:00	ND	ND	ND	ND	ND	ND	ND	ND	ND	ND	ND	0.25
38793	2014-07-02T08:00:00	ND	ND	ND	ND	ND	ND	ND	ND	ND	ND	ND	0
38794	2014-07-02T09:00:00	ND	ND	ND	ND	ND	ND	ND	ND	ND	ND	ND	0
38795	2014-07-02T10:00:00	ND	ND	ND	ND	ND	ND	ND	ND	ND	ND	ND	0
38796	2014-07-02T11:00:00	ND	ND	ND	ND	ND	ND	ND	ND	ND	ND	ND	0
38797	2014-07-02T12:00:00	ND	ND	ND	ND	ND	ND	ND	ND	ND	ND	ND	ND
38798	2014-07-02T13:00:00	ND	ND	ND	ND	ND	ND	ND	ND	ND	ND	ND	ND
38799	2014-07-02T14:00:00	ND	ND	ND	ND	ND	ND	ND	ND	ND	ND	ND	ND
38800	2014-07-02T15:00:00	ND	ND	ND	ND	ND	ND	ND	ND	ND	ND	ND	ND
38801	2014-07-02T16:00:00	ND	ND	ND	ND	ND	ND	ND	ND	ND	ND	ND	ND
38802	2014-07-02T17:00:00	ND	ND	ND	ND	ND	ND	ND	ND	ND	ND	ND	ND
38803	2014-07-02T18:00:00	ND	ND	ND	ND	ND	ND	ND	ND	ND	ND	ND	ND
38804	2014-07-02T19:00:00	ND	ND	ND	ND	ND	ND	ND	ND	ND	ND	ND	ND
38805	2014-07-02T20:00:00	ND	ND	ND	ND	ND	ND	ND	ND	ND	ND	ND	ND
38806	2014-07-02T21:00:00	ND	ND	ND	ND	ND	ND	ND	ND	ND	ND	ND	ND
38807	2014-07-02T22:00:00	ND	ND	ND	ND	ND	ND	ND	ND	ND	ND	ND	ND
38808	2014-07-02T23:00:00	ND	ND	ND	ND	ND	ND	ND	ND	ND	ND	ND	ND
38809	2014-07-03T00:00:00	ND	ND	ND	ND	ND	ND	ND	ND	ND	ND	ND	ND
38810	2014-07-03T01:00:00	ND	ND	ND	ND	ND	ND	ND	ND	ND	ND	ND	ND
38811	2014-07-03T02:00:00	ND	ND	ND	ND	ND	ND	ND	ND	ND	ND	ND	ND
38812	2014-07-03T03:00:00	ND	ND	ND	ND	ND	ND	ND	ND	ND	ND	ND	ND
38813	2014-07-03T04:00:00	ND	ND	ND	ND	ND	ND	ND	ND	ND	ND	ND	ND
38814	2014-07-03T05:00:00	ND	ND	ND	ND	ND	ND	ND	ND	ND	ND	ND	ND
38815	2014-07-03T06:00:00	ND	ND	ND	ND	ND	ND	ND	ND	ND	ND	ND	ND
38816	2014-07-03T07:00:00	ND	ND	ND	ND	ND	ND	ND	ND	ND	ND	ND	ND
38817	2014-07-03T08:00:00	ND	ND	ND	ND	ND	ND	ND	ND	ND	ND	ND	ND
38818	2014-07-03T09:00:00	ND	ND	ND	ND	ND	ND	ND	ND	ND	ND	ND	ND
38819	2014-07-03T10:00:00	ND	ND	ND	ND	ND	ND	ND	ND	ND	ND	ND	ND
38820	2014-07-03T11:00:00	ND	ND	ND	ND	ND	ND	ND	ND	ND	ND	ND	ND
38821	2014-07-03T12:00:00	ND	ND	ND	ND	ND	ND	ND	ND	ND	ND	ND	ND
38822	2014-07-03T13:00:00	ND	ND	ND	ND	ND	ND	ND	ND	ND	ND	ND	ND
38823	2014-07-03T14:00:00	ND	ND	ND	ND	ND	ND	ND	ND	ND	ND	ND	ND
38824	2014-07-03T15:00:00	ND	ND	ND	ND	ND	ND	ND	ND	ND	ND	ND	ND
38825	2014-07-03T16:00:00	ND	ND	ND	ND	ND	ND	ND	ND	ND	ND	ND	ND
38826	2014-07-03T17:00:00	ND	ND	ND	ND	ND	ND	ND	ND	ND	ND	ND	ND
38827	2014-07-03T18:00:00	ND	ND	ND	ND	ND	ND	ND	ND	ND	ND	ND	ND
38828	2014-07-03T19:00:00	ND	ND	ND	ND	ND	ND	ND	ND	ND	ND	ND	ND
38829	2014-07-03T20:00:00	ND	ND	ND	ND	ND	ND	ND	ND	ND	ND	ND	ND
38830	2014-07-03T21:00:00	ND	ND	ND	ND	ND	ND	ND	ND	ND	ND	ND	ND
38831	2014-07-03T22:00:00	ND	ND	ND	ND	ND	ND	ND	ND	ND	ND	ND	ND
38832	2014-07-03T23:00:00	ND	ND	ND	ND	ND	ND	ND	ND	ND	ND	ND	ND
38833	2014-07-04T00:00:00	ND	ND	ND	ND	ND	ND	ND	ND	ND	ND	ND	ND
38834	2014-07-04T01:00:00	ND	ND	ND	ND	ND	ND	ND	ND	ND	ND	ND	ND
38835	2014-07-04T02:00:00	ND	ND	ND	ND	ND	ND	ND	ND	ND	ND	ND	ND
38836	2014-07-04T03:00:00	ND	ND	ND	ND	ND	ND	ND	ND	ND	ND	ND	ND
38837	2014-07-04T04:00:00	ND	ND	ND	ND	ND	ND	ND	ND	ND	ND	ND	ND
38838	2014-07-04T05:00:00	ND	ND	ND	ND	ND	ND	ND	ND	ND	ND	ND	ND
38839	2014-07-04T06:00:00	ND	ND	ND	ND	ND	ND	ND	ND	ND	ND	ND	ND
38840	2014-07-04T07:00:00	ND	ND	ND	ND	ND	ND	ND	ND	ND	ND	ND	ND
38841	2014-07-04T08:00:00	ND	ND	ND	ND	ND	ND	ND	ND	ND	ND	ND	ND
38842	2014-07-04T09:00:00	ND	ND	ND	ND	ND	ND	ND	ND	ND	ND	ND	ND
38843	2014-07-04T10:00:00	40.6	ND	ND	ND	ND	ND	ND	ND	ND	ND	ND	ND
38844	2014-07-04T11:00:00	47.7	ND	ND	ND	ND	ND	ND	ND	ND	ND	ND	0
38845	2014-07-04T12:00:00	25.1	ND	ND	ND	ND	ND	ND	ND	ND	ND	ND	0
38846	2014-07-04T13:00:00	28	ND	ND	ND	ND	ND	ND	ND	ND	ND	ND	0
38847	2014-07-04T14:00:00	15.8	ND	ND	ND	ND	ND	ND	ND	ND	ND	ND	0
38848	2014-07-04T15:00:00	46.7	ND	ND	ND	ND	ND	ND	ND	ND	ND	ND	0
38849	2014-07-04T16:00:00	25.1	ND	ND	ND	ND	ND	ND	ND	ND	ND	ND	0
38850	2014-07-04T17:00:00	13.3	ND	ND	ND	ND	ND	ND	ND	ND	ND	ND	0
38851	2014-07-04T18:00:00	6.7	ND	ND	ND	ND	ND	ND	ND	ND	ND	ND	0
38852	2014-07-04T19:00:00	3.3	ND	ND	ND	ND	ND	ND	ND	ND	ND	ND	0
38853	2014-07-04T20:00:00	1.7	ND	ND	ND	ND	ND	ND	ND	ND	ND	ND	0
38854	2014-07-04T21:00:00	0.8	ND	ND	ND	ND	ND	ND	ND	ND	ND	ND	0
38855	2014-07-04T22:00:00	20.4	ND	ND	ND	ND	ND	ND	ND	ND	ND	ND	0.25
38856	2014-07-04T23:00:00	10.8	ND	ND	ND	ND	ND	ND	ND	ND	ND	ND	0
38857	2014-07-05T00:00:00	6.7	ND	ND	ND	ND	ND	ND	ND	ND	ND	ND	0
38858	2014-07-05T01:00:00	3.3	ND	ND	ND	ND	ND	ND	ND	ND	ND	ND	0.25
38859	2014-07-05T02:00:00	2.4	ND	ND	ND	ND	ND	ND	ND	ND	ND	ND	0
38860	2014-07-05T03:00:00	2.1	ND	ND	ND	ND	ND	ND	ND	ND	ND	ND	0
38861	2014-07-05T04:00:00	2	ND	ND	ND	ND	ND	ND	ND	ND	ND	ND	0
38862	2014-07-05T05:00:00	22.9	ND	ND	ND	ND	ND	ND	ND	ND	ND	ND	0
38863	2014-07-05T06:00:00	ND	ND	ND	ND	ND	ND	ND	ND	ND	ND	ND	0
38864	2014-07-05T07:00:00	ND	ND	ND	ND	ND	ND	ND	ND	ND	ND	ND	0
38865	2014-07-05T08:00:00	ND	ND	ND	ND	ND	ND	ND	ND	ND	ND	ND	0
38866	2014-07-05T09:00:00	ND	ND	ND	ND	ND	ND	ND	ND	ND	ND	ND	0
38867	2014-07-05T10:00:00	ND	ND	ND	ND	ND	ND	ND	ND	ND	ND	ND	0
38868	2014-07-05T11:00:00	ND	ND	ND	ND	ND	ND	ND	ND	ND	ND	ND	0
38869	2014-07-05T12:00:00	ND	ND	ND	ND	ND	ND	ND	ND	ND	ND	ND	0
38870	2014-07-05T13:00:00	141	ND	ND	ND	ND	ND	ND	ND	ND	ND	ND	0
38871	2014-07-05T14:00:00	86.6	ND	ND	ND	ND	ND	ND	ND	ND	ND	ND	0
38872	2014-07-05T15:00:00	68.8	ND	ND	ND	ND	ND	ND	ND	ND	ND	ND	0
38873	2014-07-05T16:00:00	47.7	ND	ND	ND	ND	ND	ND	ND	ND	ND	ND	0
38874	2014-07-05T17:00:00	27.2	ND	ND	ND	ND	ND	ND	ND	ND	ND	ND	0
38875	2014-07-05T18:00:00	22.1	ND	ND	ND	ND	ND	ND	ND	ND	ND	ND	0
38876	2014-07-05T19:00:00	11.4	ND	ND	ND	ND	ND	ND	ND	ND	ND	ND	0
38877	2014-07-05T20:00:00	6.5	ND	ND	ND	ND	ND	ND	ND	ND	ND	ND	0
38878	2014-07-05T21:00:00	4.1	ND	ND	ND	ND	ND	ND	ND	ND	ND	ND	0
38879	2014-07-05T22:00:00	11.8	ND	ND	ND	ND	ND	ND	ND	ND	ND	ND	0
38880	2014-07-05T23:00:00	38.8	ND	ND	ND	ND	ND	ND	ND	ND	ND	ND	0
38881	2014-07-06T00:00:00	20.1	ND	ND	ND	ND	ND	ND	ND	ND	ND	ND	0
38882	2014-07-06T01:00:00	20.4	ND	ND	ND	ND	ND	ND	ND	ND	ND	ND	0
38883	2014-07-06T02:00:00	10.9	ND	ND	ND	ND	ND	ND	ND	ND	ND	ND	0
38884	2014-07-06T03:00:00	6.9	ND	ND	ND	ND	ND	ND	ND	ND	ND	ND	0
38885	2014-07-06T04:00:00	3.4	ND	ND	ND	ND	ND	ND	ND	ND	ND	ND	0
38886	2014-07-06T05:00:00	2.5	ND	ND	ND	ND	ND	ND	ND	ND	ND	ND	0
38887	2014-07-06T06:00:00	2	ND	ND	ND	ND	ND	ND	ND	ND	ND	ND	0
38888	2014-07-06T07:00:00	23.3	ND	ND	ND	ND	ND	ND	ND	ND	ND	ND	0
38889	2014-07-06T08:00:00	12.7	ND	ND	ND	ND	ND	ND	ND	ND	ND	ND	0
38890	2014-07-06T09:00:00	38.8	ND	ND	ND	ND	ND	ND	ND	ND	ND	ND	0
38891	2014-07-06T10:00:00	20.6	ND	ND	ND	ND	ND	ND	ND	ND	ND	ND	0.25
38892	2014-07-06T11:00:00	21.6	ND	ND	ND	ND	ND	ND	ND	ND	ND	ND	0
38893	2014-07-06T12:00:00	10.8	ND	ND	ND	ND	ND	ND	ND	ND	ND	ND	0
38894	2014-07-06T13:00:00	5.4	ND	ND	ND	ND	ND	ND	ND	ND	ND	ND	0
38895	2014-07-06T14:00:00	4.1	ND	ND	ND	ND	ND	ND	ND	ND	ND	ND	0
38896	2014-07-06T15:00:00	3.7	ND	ND	ND	ND	ND	ND	ND	ND	ND	ND	0
38897	2014-07-06T16:00:00	3.7	ND	ND	ND	ND	ND	ND	ND	ND	ND	ND	0
38898	2014-07-06T17:00:00	3.7	ND	ND	ND	ND	ND	ND	ND	ND	ND	ND	0
38899	2014-07-06T18:00:00	1.9	ND	ND	ND	ND	ND	ND	ND	ND	ND	ND	0
38900	2014-07-06T19:00:00	0.9	ND	ND	ND	ND	ND	ND	ND	ND	ND	ND	0
38901	2014-07-06T20:00:00	1.6	ND	ND	ND	ND	ND	ND	ND	ND	ND	ND	0
38902	2014-07-06T21:00:00	1.9	ND	ND	ND	ND	ND	ND	ND	ND	ND	ND	0
38903	2014-07-06T22:00:00	11.3	ND	ND	ND	ND	ND	ND	ND	ND	ND	ND	0
38904	2014-07-06T23:00:00	7.3	ND	ND	ND	ND	ND	ND	ND	ND	ND	ND	0
38905	2014-07-07T00:00:00	29	ND	ND	ND	ND	ND	ND	ND	ND	ND	ND	0
38906	2014-07-07T01:00:00	27.2	ND	ND	ND	ND	ND	ND	ND	ND	ND	ND	0
38907	2014-07-07T02:00:00	14.2	ND	ND	ND	ND	ND	ND	ND	ND	ND	ND	0
38908	2014-07-07T03:00:00	9.1	ND	ND	ND	ND	ND	ND	ND	ND	ND	ND	0
38909	2014-07-07T04:00:00	5.2	ND	ND	ND	ND	ND	ND	ND	ND	ND	ND	0
38910	2014-07-07T05:00:00	10.5	ND	ND	ND	ND	ND	ND	ND	ND	ND	ND	0
38911	2014-07-07T06:00:00	13.7	ND	ND	ND	ND	ND	ND	ND	ND	ND	ND	0
38912	2014-07-07T07:00:00	29.7	ND	ND	ND	ND	ND	ND	ND	ND	ND	ND	0
38913	2014-07-07T08:00:00	35.6	ND	ND	ND	ND	ND	ND	ND	ND	ND	ND	0
38914	2014-07-07T09:00:00	44.5	ND	ND	ND	ND	ND	ND	ND	ND	ND	ND	0
38915	2014-07-07T10:00:00	34.9	ND	ND	ND	ND	ND	ND	ND	ND	ND	ND	0
38916	2014-07-07T11:00:00	35	ND	ND	ND	ND	ND	ND	ND	ND	ND	ND	0
38917	2014-07-07T12:00:00	18.9	ND	ND	ND	ND	ND	ND	ND	ND	ND	ND	0
38918	2014-07-07T13:00:00	37	ND	ND	ND	ND	ND	ND	ND	ND	ND	ND	0
38919	2014-07-07T14:00:00	19.5	ND	ND	ND	ND	ND	ND	ND	ND	ND	ND	0
38920	2014-07-07T15:00:00	41.4	ND	ND	ND	ND	ND	ND	ND	ND	ND	ND	0
38921	2014-07-07T16:00:00	38.8	ND	ND	ND	ND	ND	ND	ND	ND	ND	ND	0
38922	2014-07-07T17:00:00	29.1	ND	ND	ND	ND	ND	ND	ND	ND	ND	ND	0
38923	2014-07-07T18:00:00	16.2	ND	ND	ND	ND	ND	ND	ND	ND	ND	ND	0
38924	2014-07-07T19:00:00	14.7	ND	ND	ND	ND	ND	ND	ND	ND	ND	ND	0
38925	2014-07-07T20:00:00	8.4	ND	ND	ND	ND	ND	ND	ND	ND	ND	ND	0
38926	2014-07-07T21:00:00	8.8	ND	ND	ND	ND	ND	ND	ND	ND	ND	ND	0
38927	2014-07-07T22:00:00	5	ND	ND	ND	ND	ND	ND	ND	ND	ND	ND	0
38928	2014-07-07T23:00:00	16.5	ND	ND	ND	ND	ND	ND	ND	ND	ND	ND	1.27
38929	2014-07-08T00:00:00	11.2	ND	ND	ND	ND	ND	ND	ND	ND	ND	ND	0.25
38930	2014-07-08T01:00:00	11	ND	ND	ND	ND	ND	ND	ND	ND	ND	ND	0
38931	2014-07-08T02:00:00	13.3	ND	ND	ND	ND	ND	ND	ND	ND	ND	ND	0
38932	2014-07-08T03:00:00	29.6	ND	ND	ND	ND	ND	ND	ND	ND	ND	ND	0
38933	2014-07-08T04:00:00	20.7	ND	ND	ND	ND	ND	ND	ND	ND	ND	ND	0
38934	2014-07-08T05:00:00	29.7	ND	ND	ND	ND	ND	ND	ND	ND	ND	ND	0
38935	2014-07-08T06:00:00	16.7	ND	ND	ND	ND	ND	ND	ND	ND	ND	ND	0
38936	2014-07-08T07:00:00	31.6	ND	ND	ND	ND	ND	ND	ND	ND	ND	ND	0
38937	2014-07-08T08:00:00	51.1	ND	ND	ND	ND	ND	ND	ND	ND	ND	ND	0
38938	2014-07-08T09:00:00	61.2	ND	ND	ND	ND	ND	ND	ND	ND	ND	ND	0
38939	2014-07-08T10:00:00	36.7	ND	ND	ND	ND	ND	ND	ND	ND	ND	ND	0
38940	2014-07-08T11:00:00	42.6	ND	ND	ND	ND	ND	ND	ND	ND	ND	ND	0
38941	2014-07-08T12:00:00	29	ND	ND	ND	ND	ND	ND	ND	ND	ND	ND	0
38942	2014-07-08T13:00:00	26	ND	ND	ND	ND	ND	ND	ND	ND	ND	ND	0
38943	2014-07-08T14:00:00	27.2	ND	ND	ND	ND	ND	ND	ND	ND	ND	ND	0
38944	2014-07-08T15:00:00	26.5	ND	ND	ND	ND	ND	ND	ND	ND	ND	ND	0
38945	2014-07-08T16:00:00	13.8	ND	ND	ND	ND	ND	ND	ND	ND	ND	ND	0
38946	2014-07-08T17:00:00	34.1	ND	ND	ND	ND	ND	ND	ND	ND	ND	ND	0
38947	2014-07-08T18:00:00	32.3	ND	ND	ND	ND	ND	ND	ND	ND	ND	ND	0
38948	2014-07-08T19:00:00	28.4	ND	ND	ND	ND	ND	ND	ND	ND	ND	ND	0
38949	2014-07-08T20:00:00	15.9	ND	ND	ND	ND	ND	ND	ND	ND	ND	ND	0
38950	2014-07-08T21:00:00	11.1	ND	ND	ND	ND	ND	ND	ND	ND	ND	ND	0
38951	2014-07-08T22:00:00	6.9	ND	ND	ND	ND	ND	ND	ND	ND	ND	ND	0
38952	2014-07-08T23:00:00	4.5	ND	ND	ND	ND	ND	ND	ND	ND	ND	ND	0
38953	2014-07-09T00:00:00	3.1	ND	ND	ND	ND	ND	ND	ND	ND	ND	ND	0
38954	2014-07-09T01:00:00	9.1	ND	ND	ND	ND	ND	ND	ND	ND	ND	ND	0
38955	2014-07-09T02:00:00	5.4	ND	ND	ND	ND	ND	ND	ND	ND	ND	ND	0
38956	2014-07-09T03:00:00	3.9	ND	ND	ND	ND	ND	ND	ND	ND	ND	ND	0
38957	2014-07-09T04:00:00	3.3	ND	ND	ND	ND	ND	ND	ND	ND	ND	ND	0
38958	2014-07-09T05:00:00	34.5	ND	ND	ND	ND	ND	ND	ND	ND	ND	ND	0
38959	2014-07-09T06:00:00	40.8	ND	ND	ND	ND	ND	ND	ND	ND	ND	ND	0
38960	2014-07-09T07:00:00	43.5	ND	ND	ND	ND	ND	ND	ND	ND	ND	ND	0
38961	2014-07-09T08:00:00	54.6	ND	ND	ND	ND	ND	ND	ND	ND	ND	ND	0
38962	2014-07-09T09:00:00	75.6	ND	ND	ND	ND	ND	ND	ND	ND	ND	ND	0
38963	2014-07-09T10:00:00	41.2	ND	ND	ND	ND	ND	ND	ND	ND	ND	ND	0
38964	2014-07-09T11:00:00	69.2	ND	ND	ND	ND	ND	ND	ND	ND	ND	ND	0
38965	2014-07-09T12:00:00	49.9	ND	ND	ND	ND	ND	ND	ND	ND	ND	ND	0
38966	2014-07-09T13:00:00	51.8	ND	ND	ND	ND	ND	ND	ND	ND	ND	ND	0
38967	2014-07-09T14:00:00	40.5	ND	ND	ND	ND	ND	ND	ND	ND	ND	ND	0
38968	2014-07-09T15:00:00	39	ND	ND	ND	ND	ND	ND	ND	ND	ND	ND	0
38969	2014-07-09T16:00:00	20.2	ND	ND	ND	ND	ND	ND	ND	ND	ND	ND	0
38970	2014-07-09T17:00:00	19.5	ND	ND	ND	ND	ND	ND	ND	ND	ND	ND	0
38971	2014-07-09T18:00:00	10.3	ND	ND	ND	ND	ND	ND	ND	ND	ND	ND	0
38972	2014-07-09T19:00:00	20.8	ND	ND	ND	ND	ND	ND	ND	ND	ND	ND	0
38973	2014-07-09T20:00:00	27.3	ND	ND	ND	ND	ND	ND	ND	ND	ND	ND	0
38974	2014-07-09T21:00:00	15.3	ND	ND	ND	ND	ND	ND	ND	ND	ND	ND	0
38975	2014-07-09T22:00:00	9.1	ND	ND	ND	ND	ND	ND	ND	ND	ND	ND	0
38976	2014-07-09T23:00:00	7.7	ND	ND	ND	ND	ND	ND	ND	ND	ND	ND	0
38977	2014-07-10T00:00:00	11.8	ND	ND	ND	ND	ND	ND	ND	ND	ND	ND	0
38978	2014-07-10T01:00:00	52.5	ND	ND	ND	ND	ND	ND	ND	ND	ND	ND	0
38979	2014-07-10T02:00:00	27.8	ND	ND	ND	ND	ND	ND	ND	ND	ND	ND	0
38980	2014-07-10T03:00:00	37.2	ND	ND	ND	ND	ND	ND	ND	ND	ND	ND	0
38981	2014-07-10T04:00:00	19.9	ND	ND	ND	ND	ND	ND	ND	ND	ND	ND	0
38982	2014-07-10T05:00:00	16.3	ND	ND	ND	ND	ND	ND	ND	ND	ND	ND	0
38983	2014-07-10T06:00:00	28.9	ND	ND	ND	ND	ND	ND	ND	ND	ND	ND	0
38984	2014-07-10T07:00:00	66.1	ND	ND	ND	ND	ND	ND	ND	ND	ND	ND	0
38985	2014-07-10T08:00:00	60.5	ND	ND	ND	ND	ND	ND	ND	ND	ND	ND	0
38986	2014-07-10T09:00:00	98.2	ND	ND	ND	ND	ND	ND	ND	ND	ND	ND	0
38987	2014-07-10T10:00:00	72.5	ND	ND	ND	ND	ND	ND	ND	ND	ND	ND	0
38988	2014-07-10T11:00:00	75.6	ND	ND	ND	ND	ND	ND	ND	ND	ND	ND	0
38989	2014-07-10T12:00:00	43.3	ND	ND	ND	ND	ND	ND	ND	ND	ND	ND	0
38990	2014-07-10T13:00:00	43.1	ND	ND	ND	ND	ND	ND	ND	ND	ND	ND	0
38991	2014-07-10T14:00:00	48.8	ND	ND	ND	ND	ND	ND	ND	ND	ND	ND	0
38992	2014-07-10T15:00:00	40.1	ND	ND	ND	ND	ND	ND	ND	ND	ND	ND	0
38993	2014-07-10T16:00:00	56.4	ND	ND	ND	ND	ND	ND	ND	ND	ND	ND	0
38994	2014-07-10T17:00:00	60.9	ND	ND	ND	ND	ND	ND	ND	ND	ND	ND	0
38995	2014-07-10T18:00:00	35.8	ND	ND	ND	ND	ND	ND	ND	ND	ND	ND	0
38996	2014-07-10T19:00:00	43.5	ND	ND	ND	ND	ND	ND	ND	ND	ND	ND	0
38997	2014-07-10T20:00:00	23.7	ND	ND	ND	ND	ND	ND	ND	ND	ND	ND	0
38998	2014-07-10T21:00:00	27.3	ND	ND	ND	ND	ND	ND	ND	ND	ND	ND	0
38999	2014-07-10T22:00:00	14.7	ND	ND	ND	ND	ND	ND	ND	ND	ND	ND	0
39000	2014-07-10T23:00:00	30.3	ND	ND	ND	ND	ND	ND	ND	ND	ND	ND	0
39001	2014-07-11T00:00:00	20	ND	ND	ND	ND	ND	ND	ND	ND	ND	ND	0
39002	2014-07-11T01:00:00	58.2	ND	ND	ND	ND	ND	ND	ND	ND	ND	ND	0
39003	2014-07-11T02:00:00	29.6	ND	ND	ND	ND	ND	ND	ND	ND	ND	ND	0
39004	2014-07-11T03:00:00	45.4	ND	ND	ND	ND	ND	ND	ND	ND	ND	ND	0
39005	2014-07-11T04:00:00	28	ND	ND	ND	ND	ND	ND	ND	ND	ND	ND	0
39006	2014-07-11T05:00:00	52.4	ND	ND	ND	ND	ND	ND	ND	ND	ND	ND	0
39007	2014-07-11T06:00:00	37.8	ND	ND	ND	ND	ND	ND	ND	ND	ND	ND	0
39008	2014-07-11T07:00:00	39.6	ND	ND	ND	ND	ND	ND	ND	ND	ND	ND	0
39009	2014-07-11T08:00:00	20.7	ND	ND	ND	ND	ND	ND	ND	ND	ND	ND	0
39010	2014-07-11T09:00:00	35.5	ND	ND	ND	ND	ND	ND	ND	ND	ND	ND	0
39011	2014-07-11T10:00:00	49.9	ND	ND	ND	ND	ND	ND	ND	ND	ND	ND	0
39012	2014-07-11T11:00:00	52.1	ND	ND	ND	ND	ND	ND	ND	ND	ND	ND	0
39013	2014-07-11T12:00:00	27.7	ND	ND	ND	ND	ND	ND	ND	ND	ND	ND	0
39014	2014-07-11T13:00:00	47.1	ND	ND	ND	ND	ND	ND	ND	ND	ND	ND	0
39015	2014-07-11T14:00:00	33	ND	ND	ND	ND	ND	ND	ND	ND	ND	ND	0
39016	2014-07-11T15:00:00	46.4	ND	ND	ND	ND	ND	ND	ND	ND	ND	ND	0
39017	2014-07-11T16:00:00	26.2	ND	ND	ND	ND	ND	ND	ND	ND	ND	ND	0
39018	2014-07-11T17:00:00	40.2	ND	ND	ND	ND	ND	ND	ND	ND	ND	ND	0
39019	2014-07-11T18:00:00	38.1	ND	ND	ND	ND	ND	ND	ND	ND	ND	ND	0
39020	2014-07-11T19:00:00	63.4	ND	ND	ND	ND	ND	ND	ND	ND	ND	ND	0
39021	2014-07-11T20:00:00	55.2	ND	ND	ND	ND	ND	ND	ND	ND	ND	ND	0
39022	2014-07-11T21:00:00	41.9	ND	ND	ND	ND	ND	ND	ND	ND	ND	ND	0
39023	2014-07-11T22:00:00	21.9	ND	ND	ND	ND	ND	ND	ND	ND	ND	ND	0
39024	2014-07-11T23:00:00	32.3	ND	ND	ND	ND	ND	ND	ND	ND	ND	ND	0
39025	2014-07-12T00:00:00	40.2	ND	ND	ND	ND	ND	ND	ND	ND	ND	ND	0
39026	2014-07-12T01:00:00	26.8	ND	ND	ND	ND	ND	ND	ND	ND	ND	ND	0
39027	2014-07-12T02:00:00	15.2	ND	ND	ND	ND	ND	ND	ND	ND	ND	ND	0
39028	2014-07-12T03:00:00	27.8	ND	ND	ND	ND	ND	ND	ND	ND	ND	ND	0
39029	2014-07-12T04:00:00	15.6	ND	ND	ND	ND	ND	ND	ND	ND	ND	ND	0
39030	2014-07-12T05:00:00	39.7	ND	ND	ND	ND	ND	ND	ND	ND	ND	ND	0
39031	2014-07-12T06:00:00	21.9	ND	ND	ND	ND	ND	ND	ND	ND	ND	ND	0
39032	2014-07-12T07:00:00	12.6	ND	ND	ND	ND	ND	ND	ND	ND	ND	ND	0
39033	2014-07-12T08:00:00	7	ND	ND	ND	ND	ND	ND	ND	ND	ND	ND	0
39034	2014-07-12T09:00:00	37.5	ND	ND	ND	ND	ND	ND	ND	ND	ND	ND	0
39035	2014-07-12T10:00:00	20.4	ND	ND	ND	ND	ND	ND	ND	ND	ND	ND	0
39036	2014-07-12T11:00:00	41.2	ND	ND	ND	ND	ND	ND	ND	ND	ND	ND	0
39037	2014-07-12T12:00:00	21.2	ND	ND	ND	ND	ND	ND	ND	ND	ND	ND	0
39038	2014-07-12T13:00:00	12.8	ND	ND	ND	ND	ND	ND	ND	ND	ND	ND	0
39039	2014-07-12T14:00:00	7.3	ND	ND	ND	ND	ND	ND	ND	ND	ND	ND	0
39040	2014-07-12T15:00:00	17.2	ND	ND	ND	ND	ND	ND	ND	ND	ND	ND	0
39041	2014-07-12T16:00:00	9.3	ND	ND	ND	ND	ND	ND	ND	ND	ND	ND	0
39042	2014-07-12T17:00:00	24.6	ND	ND	ND	ND	ND	ND	ND	ND	ND	ND	0
39043	2014-07-12T18:00:00	13.1	ND	ND	ND	ND	ND	ND	ND	ND	ND	ND	0
39044	2014-07-12T19:00:00	43.1	ND	ND	ND	ND	ND	ND	ND	ND	ND	ND	0
39045	2014-07-12T20:00:00	36.5	ND	ND	ND	ND	ND	ND	ND	ND	ND	ND	0
39046	2014-07-12T21:00:00	18.8	ND	ND	ND	ND	ND	ND	ND	ND	ND	ND	0
39047	2014-07-12T22:00:00	10.6	ND	ND	ND	ND	ND	ND	ND	ND	ND	ND	0
39048	2014-07-12T23:00:00	14.6	ND	ND	ND	ND	ND	ND	ND	ND	ND	ND	0
39049	2014-07-13T00:00:00	19.7	ND	ND	ND	ND	ND	ND	ND	ND	ND	ND	0
39050	2014-07-13T01:00:00	19.9	ND	ND	ND	ND	ND	ND	ND	ND	ND	ND	0
39051	2014-07-13T02:00:00	16.2	ND	ND	ND	ND	ND	ND	ND	ND	ND	ND	0
39052	2014-07-13T03:00:00	9.4	ND	ND	ND	ND	ND	ND	ND	ND	ND	ND	0
39053	2014-07-13T04:00:00	5.3	ND	ND	ND	ND	ND	ND	ND	ND	ND	ND	0
39054	2014-07-13T05:00:00	21	ND	ND	ND	ND	ND	ND	ND	ND	ND	ND	0
39055	2014-07-13T06:00:00	26.7	ND	ND	ND	ND	ND	ND	ND	ND	ND	ND	0
39056	2014-07-13T07:00:00	27.4	ND	ND	ND	ND	ND	ND	ND	ND	ND	ND	0
39057	2014-07-13T08:00:00	15.8	ND	ND	ND	ND	ND	ND	ND	ND	ND	ND	0
39058	2014-07-13T09:00:00	17.4	ND	ND	ND	ND	ND	ND	ND	ND	ND	ND	0
39059	2014-07-13T10:00:00	9.9	ND	ND	ND	ND	ND	ND	ND	ND	ND	ND	0
39060	2014-07-13T11:00:00	5.8	ND	ND	ND	ND	ND	ND	ND	ND	ND	ND	0
39061	2014-07-13T12:00:00	4.8	ND	ND	ND	ND	ND	ND	ND	ND	ND	ND	0
39062	2014-07-13T13:00:00	10.3	ND	ND	ND	ND	ND	ND	ND	ND	ND	ND	0
39063	2014-07-13T14:00:00	12.4	ND	ND	ND	ND	ND	ND	ND	ND	ND	ND	0
39064	2014-07-13T15:00:00	10	ND	ND	ND	ND	ND	ND	ND	ND	ND	ND	0
39065	2014-07-13T16:00:00	6.2	ND	ND	ND	ND	ND	ND	ND	ND	ND	ND	0
39066	2014-07-13T17:00:00	20.5	ND	ND	ND	ND	ND	ND	ND	ND	ND	ND	0
39067	2014-07-13T18:00:00	12.7	ND	ND	ND	ND	ND	ND	ND	ND	ND	ND	0
39068	2014-07-13T19:00:00	16.6	ND	ND	ND	ND	ND	ND	ND	ND	ND	ND	0
39069	2014-07-13T20:00:00	17.9	ND	ND	ND	ND	ND	ND	ND	ND	ND	ND	0
39070	2014-07-13T21:00:00	21.2	ND	ND	ND	ND	ND	ND	ND	ND	ND	ND	0
39071	2014-07-13T22:00:00	14.8	ND	ND	ND	ND	ND	ND	ND	ND	ND	ND	0
39072	2014-07-13T23:00:00	7.4	ND	ND	ND	ND	ND	ND	ND	ND	ND	ND	0
39073	2014-07-14T00:00:00	3.7	ND	ND	ND	ND	ND	ND	ND	ND	ND	ND	0
39074	2014-07-14T01:00:00	11	ND	ND	ND	ND	ND	ND	ND	ND	ND	ND	0
39075	2014-07-14T02:00:00	13.2	ND	ND	ND	ND	ND	ND	ND	ND	ND	ND	0
39076	2014-07-14T03:00:00	42.2	ND	ND	ND	ND	ND	ND	ND	ND	ND	ND	0
39077	2014-07-14T04:00:00	22.1	ND	ND	ND	ND	ND	ND	ND	ND	ND	ND	0
39078	2014-07-14T05:00:00	36.4	ND	ND	ND	ND	ND	ND	ND	ND	ND	ND	0
39079	2014-07-14T06:00:00	28.1	ND	ND	ND	ND	ND	ND	ND	ND	ND	ND	0
39080	2014-07-14T07:00:00	59.3	ND	ND	ND	ND	ND	ND	ND	ND	ND	ND	0
39081	2014-07-14T08:00:00	50.2	ND	ND	ND	ND	ND	ND	ND	ND	ND	ND	0
39082	2014-07-14T09:00:00	54.5	ND	ND	ND	ND	ND	ND	ND	ND	ND	ND	0
39083	2014-07-14T10:00:00	29.3	ND	ND	ND	ND	ND	ND	ND	ND	ND	ND	0
39084	2014-07-14T11:00:00	38.7	ND	ND	ND	ND	ND	ND	ND	ND	ND	ND	0
39085	2014-07-14T12:00:00	21	ND	ND	ND	ND	ND	ND	ND	ND	ND	ND	0
39086	2014-07-14T13:00:00	29.1	ND	ND	ND	ND	ND	ND	ND	ND	ND	ND	0
39087	2014-07-14T14:00:00	15.9	ND	ND	ND	ND	ND	ND	ND	ND	ND	ND	0
39088	2014-07-14T15:00:00	21.6	ND	ND	ND	ND	ND	ND	ND	ND	ND	ND	0
39089	2014-07-14T16:00:00	38.9	ND	ND	ND	ND	ND	ND	ND	ND	ND	ND	0
39090	2014-07-14T17:00:00	56.3	ND	ND	ND	ND	ND	ND	ND	ND	ND	ND	0
39091	2014-07-14T18:00:00	31.5	ND	ND	ND	ND	ND	ND	ND	ND	ND	ND	0
39092	2014-07-14T19:00:00	28.7	ND	ND	ND	ND	ND	ND	ND	ND	ND	ND	0
39093	2014-07-14T20:00:00	15.8	ND	ND	ND	ND	ND	ND	ND	ND	ND	ND	0
39094	2014-07-14T21:00:00	9	ND	ND	ND	ND	ND	ND	ND	ND	ND	ND	0
39095	2014-07-14T22:00:00	5.6	ND	ND	ND	ND	ND	ND	ND	ND	ND	ND	0
39096	2014-07-14T23:00:00	3.9	ND	ND	ND	ND	ND	ND	ND	ND	ND	ND	0
39097	2014-07-15T00:00:00	3.7	ND	ND	ND	ND	ND	ND	ND	ND	ND	ND	0
39098	2014-07-15T01:00:00	4.8	ND	ND	ND	ND	ND	ND	ND	ND	ND	ND	0
39099	2014-07-15T02:00:00	2.9	ND	ND	ND	ND	ND	ND	ND	ND	ND	ND	0
39100	2014-07-15T03:00:00	11.6	ND	ND	ND	ND	ND	ND	ND	ND	ND	ND	0
39101	2014-07-15T04:00:00	7.9	ND	ND	ND	ND	ND	ND	ND	ND	ND	ND	0
39102	2014-07-15T05:00:00	11.5	ND	ND	ND	ND	ND	ND	ND	ND	ND	ND	0
39103	2014-07-15T06:00:00	32.4	ND	ND	ND	ND	ND	ND	ND	ND	ND	ND	0
39104	2014-07-15T07:00:00	32.2	ND	ND	ND	ND	ND	ND	ND	ND	ND	ND	0
39105	2014-07-15T08:00:00	39.3	ND	ND	ND	ND	ND	ND	ND	ND	ND	ND	0
39106	2014-07-15T09:00:00	64.6	ND	ND	ND	ND	ND	ND	ND	ND	ND	ND	0
39107	2014-07-15T10:00:00	36	ND	ND	ND	ND	ND	ND	ND	ND	ND	ND	0
39108	2014-07-15T11:00:00	38.7	ND	ND	ND	ND	ND	ND	ND	ND	ND	ND	0
39109	2014-07-15T12:00:00	31.7	ND	ND	ND	ND	ND	ND	ND	ND	ND	ND	0
39110	2014-07-15T13:00:00	47	ND	ND	ND	ND	ND	ND	ND	ND	ND	ND	0
39111	2014-07-15T14:00:00	27.9	ND	ND	ND	ND	ND	ND	ND	ND	ND	ND	0
39112	2014-07-15T15:00:00	52.3	ND	ND	ND	ND	ND	ND	ND	ND	ND	ND	0
39113	2014-07-15T16:00:00	41.4	ND	ND	ND	ND	ND	ND	ND	ND	ND	ND	0
39114	2014-07-15T17:00:00	37.8	ND	ND	ND	ND	ND	ND	ND	ND	ND	ND	0
39115	2014-07-15T18:00:00	20.5	ND	ND	ND	ND	ND	ND	ND	ND	ND	ND	0
39116	2014-07-15T19:00:00	13.3	ND	ND	ND	ND	ND	ND	ND	ND	ND	ND	0
39117	2014-07-15T20:00:00	8.6	ND	ND	ND	ND	ND	ND	ND	ND	ND	ND	0
39118	2014-07-15T21:00:00	6.1	ND	ND	ND	ND	ND	ND	ND	ND	ND	ND	0
39119	2014-07-15T22:00:00	4.1	ND	ND	ND	ND	ND	ND	ND	ND	ND	ND	0
39120	2014-07-15T23:00:00	3.4	ND	ND	ND	ND	ND	ND	ND	ND	ND	ND	0
39121	2014-07-16T00:00:00	16.2	ND	ND	ND	ND	ND	ND	ND	ND	ND	ND	0
39122	2014-07-16T01:00:00	10.3	ND	ND	ND	ND	ND	ND	ND	ND	ND	ND	0
39123	2014-07-16T02:00:00	16.9	ND	ND	ND	ND	ND	ND	ND	ND	ND	ND	0
39124	2014-07-16T03:00:00	30.8	ND	ND	ND	ND	ND	ND	ND	ND	ND	ND	0
39125	2014-07-16T04:00:00	17	ND	ND	ND	ND	ND	ND	ND	ND	ND	ND	0
39126	2014-07-16T05:00:00	23.2	ND	ND	ND	ND	ND	ND	ND	ND	ND	ND	0
39127	2014-07-16T06:00:00	25.7	ND	ND	ND	ND	ND	ND	ND	ND	ND	ND	0
39128	2014-07-16T07:00:00	47.1	ND	ND	ND	ND	ND	ND	ND	ND	ND	ND	0
39129	2014-07-16T08:00:00	24.5	ND	ND	ND	ND	ND	ND	ND	ND	ND	ND	0
39130	2014-07-16T09:00:00	44.6	ND	ND	ND	ND	ND	ND	ND	ND	ND	ND	0
39131	2014-07-16T10:00:00	63.2	ND	ND	ND	ND	ND	ND	ND	ND	ND	ND	0
39132	2014-07-16T11:00:00	64.2	ND	ND	ND	ND	ND	ND	ND	ND	ND	ND	0
39133	2014-07-16T12:00:00	37.7	ND	ND	ND	ND	ND	ND	ND	ND	ND	ND	0
39134	2014-07-16T13:00:00	41.9	ND	ND	ND	ND	ND	ND	ND	ND	ND	ND	0
39135	2014-07-16T14:00:00	24	ND	ND	ND	ND	ND	ND	ND	ND	ND	ND	0
39136	2014-07-16T15:00:00	36.3	ND	ND	ND	ND	ND	ND	ND	ND	ND	ND	0
39137	2014-07-16T16:00:00	47.8	ND	ND	ND	ND	ND	ND	ND	ND	ND	ND	0
39138	2014-07-16T17:00:00	41.5	ND	ND	ND	ND	ND	ND	ND	ND	ND	ND	0
39139	2014-07-16T18:00:00	21.7	ND	ND	ND	ND	ND	ND	ND	ND	ND	ND	0
39140	2014-07-16T19:00:00	49.1	ND	ND	ND	ND	ND	ND	ND	ND	ND	ND	0
39141	2014-07-16T20:00:00	25.4	ND	ND	ND	ND	ND	ND	ND	ND	ND	ND	0
39142	2014-07-16T21:00:00	13.3	ND	ND	ND	ND	ND	ND	ND	ND	ND	ND	0
39143	2014-07-16T22:00:00	6.7	ND	ND	ND	ND	ND	ND	ND	ND	ND	ND	0
39144	2014-07-16T23:00:00	3.3	ND	ND	ND	ND	ND	ND	ND	ND	ND	ND	0
39145	2014-07-17T00:00:00	3.3	ND	ND	ND	ND	ND	ND	ND	ND	ND	ND	0
39146	2014-07-17T01:00:00	3.2	ND	ND	ND	ND	ND	ND	ND	ND	ND	ND	0
39147	2014-07-17T02:00:00	2.6	ND	ND	ND	ND	ND	ND	ND	ND	ND	ND	0
39148	2014-07-17T03:00:00	23.2	ND	ND	ND	ND	ND	ND	ND	ND	ND	ND	0
39149	2014-07-17T04:00:00	15.4	ND	ND	ND	ND	ND	ND	ND	ND	ND	ND	0
39150	2014-07-17T05:00:00	20	ND	ND	ND	ND	ND	ND	ND	ND	ND	ND	0
39151	2014-07-17T06:00:00	21.3	ND	ND	ND	ND	ND	ND	ND	ND	ND	ND	0
39152	2014-07-17T07:00:00	39.2	ND	ND	ND	ND	ND	ND	ND	ND	ND	ND	0
39153	2014-07-17T08:00:00	46.6	ND	ND	ND	ND	ND	ND	ND	ND	ND	ND	0
39154	2014-07-17T09:00:00	80.8	ND	ND	ND	ND	ND	ND	ND	ND	ND	ND	0
39155	2014-07-17T10:00:00	62.6	ND	ND	ND	ND	ND	ND	ND	ND	ND	ND	0
39156	2014-07-17T11:00:00	63.8	ND	ND	ND	ND	ND	ND	ND	ND	ND	ND	0
39157	2014-07-17T12:00:00	46.6	ND	ND	ND	ND	ND	ND	ND	ND	ND	ND	0
39158	2014-07-17T13:00:00	53.7	ND	ND	ND	ND	ND	ND	ND	ND	ND	ND	0
39159	2014-07-17T14:00:00	29.5	ND	ND	ND	ND	ND	ND	ND	ND	ND	ND	0
39160	2014-07-17T15:00:00	46.2	ND	ND	ND	ND	ND	ND	ND	ND	ND	ND	0
39161	2014-07-17T16:00:00	29.4	ND	ND	ND	ND	ND	ND	ND	ND	ND	ND	0
39162	2014-07-17T17:00:00	48.3	ND	ND	ND	ND	ND	ND	ND	ND	ND	ND	0
39163	2014-07-17T18:00:00	25.9	ND	ND	ND	ND	ND	ND	ND	ND	ND	ND	0
39164	2014-07-17T19:00:00	35.7	ND	ND	ND	ND	ND	ND	ND	ND	ND	ND	0
39165	2014-07-17T20:00:00	19.7	ND	ND	ND	ND	ND	ND	ND	ND	ND	ND	0
39166	2014-07-17T21:00:00	18.2	ND	ND	ND	ND	ND	ND	ND	ND	ND	ND	0
39167	2014-07-17T22:00:00	10.7	ND	ND	ND	ND	ND	ND	ND	ND	ND	ND	0
39168	2014-07-17T23:00:00	6.2	ND	ND	ND	ND	ND	ND	ND	ND	ND	ND	0
39169	2014-07-18T00:00:00	3.9	ND	ND	ND	ND	ND	ND	ND	ND	ND	ND	0
39170	2014-07-18T01:00:00	19.6	ND	ND	ND	ND	ND	ND	ND	ND	ND	ND	0
39171	2014-07-18T02:00:00	14.5	ND	ND	ND	ND	ND	ND	ND	ND	ND	ND	0
39172	2014-07-18T03:00:00	35.4	ND	ND	ND	ND	ND	ND	ND	ND	ND	ND	0
39173	2014-07-18T04:00:00	24	ND	ND	ND	ND	ND	ND	ND	ND	ND	ND	0
39174	2014-07-18T05:00:00	41.5	ND	ND	ND	ND	ND	ND	ND	ND	ND	ND	0.25
39175	2014-07-18T06:00:00	42.9	ND	ND	ND	ND	ND	ND	ND	ND	ND	ND	0
39176	2014-07-18T07:00:00	61.7	ND	ND	ND	ND	ND	ND	ND	ND	ND	ND	0
39177	2014-07-18T08:00:00	48.7	ND	ND	ND	ND	ND	ND	ND	ND	ND	ND	0
39178	2014-07-18T09:00:00	68.6	ND	ND	ND	ND	ND	ND	ND	ND	ND	ND	0
39179	2014-07-18T10:00:00	35.5	ND	ND	ND	ND	ND	ND	ND	ND	ND	ND	0
39180	2014-07-18T11:00:00	41.7	ND	ND	ND	ND	ND	ND	ND	ND	ND	ND	0
39181	2014-07-18T12:00:00	24.2	ND	ND	ND	ND	ND	ND	ND	ND	ND	ND	0
39182	2014-07-18T13:00:00	51.7	ND	ND	ND	ND	ND	ND	ND	ND	ND	ND	0
39183	2014-07-18T14:00:00	26.4	ND	ND	ND	ND	ND	ND	ND	ND	ND	ND	0
39184	2014-07-18T15:00:00	13.9	ND	ND	ND	ND	ND	ND	ND	ND	ND	ND	0
39185	2014-07-18T16:00:00	6.9	ND	ND	ND	ND	ND	ND	ND	ND	ND	ND	0
39186	2014-07-18T17:00:00	3.5	ND	ND	ND	ND	ND	ND	ND	ND	ND	ND	0
39187	2014-07-18T18:00:00	3.8	ND	ND	ND	ND	ND	ND	ND	ND	ND	ND	0
39188	2014-07-18T19:00:00	20.1	ND	ND	ND	ND	ND	ND	ND	ND	ND	ND	0
39189	2014-07-18T20:00:00	21.7	ND	ND	ND	ND	ND	ND	ND	ND	ND	ND	0
39190	2014-07-18T21:00:00	11.8	ND	ND	ND	ND	ND	ND	ND	ND	ND	ND	0
39191	2014-07-18T22:00:00	7.3	ND	ND	ND	ND	ND	ND	ND	ND	ND	ND	0
39192	2014-07-18T23:00:00	10.8	ND	ND	ND	ND	ND	ND	ND	ND	ND	ND	0
39193	2014-07-19T00:00:00	7.2	ND	ND	ND	ND	ND	ND	ND	ND	ND	ND	0
39194	2014-07-19T01:00:00	38.2	ND	ND	ND	ND	ND	ND	ND	ND	ND	ND	0
39195	2014-07-19T02:00:00	42.4	ND	ND	ND	ND	ND	ND	ND	ND	ND	ND	0
39196	2014-07-19T03:00:00	39.6	ND	ND	ND	ND	ND	ND	ND	ND	ND	ND	0
39197	2014-07-19T04:00:00	41.2	ND	ND	ND	ND	ND	ND	ND	ND	ND	ND	0
39198	2014-07-19T05:00:00	40.5	ND	ND	ND	ND	ND	ND	ND	ND	ND	ND	0
39199	2014-07-19T06:00:00	21	ND	ND	ND	ND	ND	ND	ND	ND	ND	ND	0
39200	2014-07-19T07:00:00	37.9	ND	ND	ND	ND	ND	ND	ND	ND	ND	ND	0
39201	2014-07-19T08:00:00	45.8	ND	ND	ND	ND	ND	ND	ND	ND	ND	ND	0
39202	2014-07-19T09:00:00	64.3	ND	ND	ND	ND	ND	ND	ND	ND	ND	ND	0
39203	2014-07-19T10:00:00	49.8	ND	ND	ND	ND	ND	ND	ND	ND	ND	ND	0
39204	2014-07-19T11:00:00	60.3	ND	ND	ND	ND	ND	ND	ND	ND	ND	ND	0
39205	2014-07-19T12:00:00	36.7	ND	ND	ND	ND	ND	ND	ND	ND	ND	ND	0
39206	2014-07-19T13:00:00	51.5	ND	ND	ND	ND	ND	ND	ND	ND	ND	ND	0
39207	2014-07-19T14:00:00	25.7	ND	ND	ND	ND	ND	ND	ND	ND	ND	ND	0
39208	2014-07-19T15:00:00	21	ND	ND	ND	ND	ND	ND	ND	ND	ND	ND	0
39209	2014-07-19T16:00:00	11.1	ND	ND	ND	ND	ND	ND	ND	ND	ND	ND	0
39210	2014-07-19T17:00:00	7.8	ND	ND	ND	ND	ND	ND	ND	ND	ND	ND	0
39211	2014-07-19T18:00:00	4.9	ND	ND	ND	ND	ND	ND	ND	ND	ND	ND	0
39212	2014-07-19T19:00:00	30.5	ND	ND	ND	ND	ND	ND	ND	ND	ND	ND	0
39213	2014-07-19T20:00:00	16	ND	ND	ND	ND	ND	ND	ND	ND	ND	ND	0
39214	2014-07-19T21:00:00	9	ND	ND	ND	ND	ND	ND	ND	ND	ND	ND	0
39215	2014-07-19T22:00:00	5.5	ND	ND	ND	ND	ND	ND	ND	ND	ND	ND	0
39216	2014-07-19T23:00:00	3.9	ND	ND	ND	ND	ND	ND	ND	ND	ND	ND	0
39217	2014-07-20T00:00:00	3.4	ND	ND	ND	ND	ND	ND	ND	ND	ND	ND	0
39218	2014-07-20T01:00:00	23.3	ND	ND	ND	ND	ND	ND	ND	ND	ND	ND	0
39219	2014-07-20T02:00:00	13.8	ND	ND	ND	ND	ND	ND	ND	ND	ND	ND	0
39220	2014-07-20T03:00:00	45.6	ND	ND	ND	ND	ND	ND	ND	ND	ND	ND	0
39221	2014-07-20T04:00:00	24.5	ND	ND	ND	ND	ND	ND	ND	ND	ND	ND	0
39222	2014-07-20T05:00:00	29.6	ND	ND	ND	ND	ND	ND	ND	ND	ND	ND	0
39223	2014-07-20T06:00:00	15.6	ND	ND	ND	ND	ND	ND	ND	ND	ND	ND	0
39224	2014-07-20T07:00:00	32.8	ND	ND	ND	ND	ND	ND	ND	ND	ND	ND	0
39225	2014-07-20T08:00:00	17.9	ND	ND	ND	ND	ND	ND	ND	ND	ND	ND	0
39226	2014-07-20T09:00:00	10.8	ND	ND	ND	ND	ND	ND	ND	ND	ND	ND	0
39227	2014-07-20T10:00:00	15.6	ND	ND	ND	ND	ND	ND	ND	ND	ND	ND	0
39228	2014-07-20T11:00:00	35.1	ND	ND	ND	ND	ND	ND	ND	ND	ND	ND	0
39229	2014-07-20T12:00:00	19.4	ND	ND	ND	ND	ND	ND	ND	ND	ND	ND	0
39230	2014-07-20T13:00:00	14.5	ND	ND	ND	ND	ND	ND	ND	ND	ND	ND	0
39231	2014-07-20T14:00:00	12.9	ND	ND	ND	ND	ND	ND	ND	ND	ND	ND	0
39232	2014-07-20T15:00:00	24.9	ND	ND	ND	ND	ND	ND	ND	ND	ND	ND	0
39233	2014-07-20T16:00:00	13.3	ND	ND	ND	ND	ND	ND	ND	ND	ND	ND	0
39234	2014-07-20T17:00:00	8.1	ND	ND	ND	ND	ND	ND	ND	ND	ND	ND	0
39235	2014-07-20T18:00:00	5.3	ND	ND	ND	ND	ND	ND	ND	ND	ND	ND	0
39236	2014-07-20T19:00:00	3.6	ND	ND	ND	ND	ND	ND	ND	ND	ND	ND	0
39237	2014-07-20T20:00:00	3.3	ND	ND	ND	ND	ND	ND	ND	ND	ND	ND	0
39238	2014-07-20T21:00:00	3.4	ND	ND	ND	ND	ND	ND	ND	ND	ND	ND	0
39239	2014-07-20T22:00:00	2.6	ND	ND	ND	ND	ND	ND	ND	ND	ND	ND	0
39240	2014-07-20T23:00:00	3.2	ND	ND	ND	ND	ND	ND	ND	ND	ND	ND	0
39241	2014-07-21T00:00:00	3.1	ND	ND	ND	ND	ND	ND	ND	ND	ND	ND	0
39242	2014-07-21T01:00:00	3.2	ND	ND	ND	ND	ND	ND	ND	ND	ND	ND	0
39243	2014-07-21T02:00:00	2.4	ND	ND	ND	ND	ND	ND	ND	ND	ND	ND	0
39244	2014-07-21T03:00:00	3.1	ND	ND	ND	ND	ND	ND	ND	ND	ND	ND	0
39245	2014-07-21T04:00:00	2.7	ND	ND	ND	ND	ND	ND	ND	ND	ND	ND	0
39246	2014-07-21T05:00:00	34.8	ND	ND	ND	ND	ND	ND	ND	ND	ND	ND	0
39247	2014-07-21T06:00:00	18.7	ND	ND	ND	ND	ND	ND	ND	ND	ND	ND	0
39248	2014-07-21T07:00:00	44.5	ND	ND	ND	ND	ND	ND	ND	ND	ND	ND	0
39249	2014-07-21T08:00:00	37.3	ND	ND	ND	ND	ND	ND	ND	ND	ND	ND	0
39250	2014-07-21T09:00:00	58.2	ND	ND	ND	ND	ND	ND	ND	ND	ND	ND	0
39251	2014-07-21T10:00:00	41.1	ND	ND	ND	ND	ND	ND	ND	ND	ND	ND	0
39252	2014-07-21T11:00:00	40	ND	ND	ND	ND	ND	ND	ND	ND	ND	ND	0
39253	2014-07-21T12:00:00	22.8	ND	ND	ND	ND	ND	ND	ND	ND	ND	ND	0
39254	2014-07-21T13:00:00	21.1	ND	ND	ND	ND	ND	ND	ND	ND	ND	ND	0
39255	2014-07-21T14:00:00	32.7	ND	ND	ND	ND	ND	ND	ND	ND	ND	ND	0
39256	2014-07-21T15:00:00	26.3	ND	ND	ND	ND	ND	ND	ND	ND	ND	ND	0
39257	2014-07-21T16:00:00	24.6	ND	ND	ND	ND	ND	ND	ND	ND	ND	ND	0
39258	2014-07-21T17:00:00	37.1	ND	ND	ND	ND	ND	ND	ND	ND	ND	ND	0
39259	2014-07-21T18:00:00	20.1	ND	ND	ND	ND	ND	ND	ND	ND	ND	ND	0
39260	2014-07-21T19:00:00	24.2	ND	ND	ND	ND	ND	ND	ND	ND	ND	ND	0
39261	2014-07-21T20:00:00	13.7	ND	ND	ND	ND	ND	ND	ND	ND	ND	ND	0
39262	2014-07-21T21:00:00	14.9	ND	ND	ND	ND	ND	ND	ND	ND	ND	ND	0
39263	2014-07-21T22:00:00	8.5	ND	ND	ND	ND	ND	ND	ND	ND	ND	ND	0
39264	2014-07-21T23:00:00	5	ND	ND	ND	ND	ND	ND	ND	ND	ND	ND	0
39265	2014-07-22T00:00:00	3.1	ND	ND	ND	ND	ND	ND	ND	ND	ND	ND	0
39266	2014-07-22T01:00:00	20.6	ND	ND	ND	ND	ND	ND	ND	ND	ND	ND	0
39267	2014-07-22T02:00:00	12.7	ND	ND	ND	ND	ND	ND	ND	ND	ND	ND	0
39268	2014-07-22T03:00:00	35.8	ND	ND	ND	ND	ND	ND	ND	ND	ND	ND	0
39269	2014-07-22T04:00:00	45.1	ND	ND	ND	ND	ND	ND	ND	ND	ND	ND	0
39270	2014-07-22T05:00:00	37	ND	ND	ND	ND	ND	ND	ND	ND	ND	ND	0
39271	2014-07-22T06:00:00	19	ND	ND	ND	ND	ND	ND	ND	ND	ND	ND	0
39272	2014-07-22T07:00:00	25	ND	ND	ND	ND	ND	ND	ND	ND	ND	ND	0
39273	2014-07-22T08:00:00	13.4	ND	ND	ND	ND	ND	ND	ND	ND	ND	ND	0
39274	2014-07-22T09:00:00	25.1	ND	ND	ND	ND	ND	ND	ND	ND	ND	ND	0
39275	2014-07-22T10:00:00	33.4	ND	ND	ND	ND	ND	ND	ND	ND	ND	ND	0
39276	2014-07-22T11:00:00	37.6	ND	ND	ND	ND	ND	ND	ND	ND	ND	ND	0
39277	2014-07-22T12:00:00	20.4	ND	ND	ND	ND	ND	ND	ND	ND	ND	ND	0
39278	2014-07-22T13:00:00	25.3	ND	ND	ND	ND	ND	ND	ND	ND	ND	ND	0
39279	2014-07-22T14:00:00	13.4	ND	ND	ND	ND	ND	ND	ND	ND	ND	ND	0
39280	2014-07-22T15:00:00	7.2	ND	ND	ND	ND	ND	ND	ND	ND	ND	ND	0
39281	2014-07-22T16:00:00	13.9	ND	ND	ND	ND	ND	ND	ND	ND	ND	ND	0
39282	2014-07-22T17:00:00	33.3	ND	ND	ND	ND	ND	ND	ND	ND	ND	ND	0
39283	2014-07-22T18:00:00	18	ND	ND	ND	ND	ND	ND	ND	ND	ND	ND	0
39284	2014-07-22T19:00:00	30.7	ND	ND	ND	ND	ND	ND	ND	ND	ND	ND	0
39285	2014-07-22T20:00:00	16.4	ND	ND	ND	ND	ND	ND	ND	ND	ND	ND	0
39286	2014-07-22T21:00:00	10.9	ND	ND	ND	ND	ND	ND	ND	ND	ND	ND	0
39287	2014-07-22T22:00:00	10.1	ND	ND	ND	ND	ND	ND	ND	ND	ND	ND	0
39288	2014-07-22T23:00:00	5.9	ND	ND	ND	ND	ND	ND	ND	ND	ND	ND	0
39289	2014-07-23T00:00:00	4.5	ND	ND	ND	ND	ND	ND	ND	ND	ND	ND	0
39290	2014-07-23T01:00:00	5.2	ND	ND	ND	ND	ND	ND	ND	ND	ND	ND	0
39291	2014-07-23T02:00:00	2.6	ND	ND	ND	ND	ND	ND	ND	ND	ND	ND	0
39292	2014-07-23T03:00:00	18.6	ND	ND	ND	ND	ND	ND	ND	ND	ND	ND	0
39293	2014-07-23T04:00:00	20.2	ND	ND	ND	ND	ND	ND	ND	ND	ND	ND	0
39294	2014-07-23T05:00:00	23.1	ND	ND	ND	ND	ND	ND	ND	ND	ND	ND	0
39295	2014-07-23T06:00:00	26	ND	ND	ND	ND	ND	ND	ND	ND	ND	ND	0
39296	2014-07-23T07:00:00	31.6	ND	ND	ND	ND	ND	ND	ND	ND	ND	ND	0
39297	2014-07-23T08:00:00	69.4	ND	ND	ND	ND	ND	ND	ND	ND	ND	ND	0
39298	2014-07-23T09:00:00	89.9	ND	ND	ND	ND	ND	ND	ND	ND	ND	ND	0
39299	2014-07-23T10:00:00	63.1	ND	ND	ND	ND	ND	ND	ND	ND	ND	ND	0
39300	2014-07-23T11:00:00	71.6	ND	ND	ND	ND	ND	ND	ND	ND	ND	ND	0
39301	2014-07-23T12:00:00	36.9	ND	ND	ND	ND	ND	ND	ND	ND	ND	ND	0
39302	2014-07-23T13:00:00	37.3	ND	ND	ND	ND	ND	ND	ND	ND	ND	ND	0
39303	2014-07-23T14:00:00	27.8	ND	ND	ND	ND	ND	ND	ND	ND	ND	ND	0
39304	2014-07-23T15:00:00	47.2	ND	ND	ND	ND	ND	ND	ND	ND	ND	ND	0
39305	2014-07-23T16:00:00	25.7	ND	ND	ND	ND	ND	ND	ND	ND	ND	ND	0
39306	2014-07-23T17:00:00	38.3	ND	ND	ND	ND	ND	ND	ND	ND	ND	ND	0
39307	2014-07-23T18:00:00	27.8	ND	ND	ND	ND	ND	ND	ND	ND	ND	ND	0
39308	2014-07-23T19:00:00	25.9	ND	ND	ND	ND	ND	ND	ND	ND	ND	ND	0
39309	2014-07-23T20:00:00	14.3	ND	ND	ND	ND	ND	ND	ND	ND	ND	ND	0
39310	2014-07-23T21:00:00	9.9	ND	ND	ND	ND	ND	ND	ND	ND	ND	ND	0
39311	2014-07-23T22:00:00	5	ND	ND	ND	ND	ND	ND	ND	ND	ND	ND	0
39312	2014-07-23T23:00:00	2.5	ND	ND	ND	ND	ND	ND	ND	ND	ND	ND	0
39313	2014-07-24T00:00:00	2.6	ND	ND	ND	ND	ND	ND	ND	ND	ND	ND	0
39314	2014-07-24T01:00:00	41	ND	ND	ND	ND	ND	ND	ND	ND	ND	ND	0
39315	2014-07-24T02:00:00	33.5	ND	ND	ND	ND	ND	ND	ND	ND	ND	ND	0
39316	2014-07-24T03:00:00	48.9	ND	ND	ND	ND	ND	ND	ND	ND	ND	ND	0
39317	2014-07-24T04:00:00	26.5	ND	ND	ND	ND	ND	ND	ND	ND	ND	ND	0
39318	2014-07-24T05:00:00	36.9	ND	ND	ND	ND	ND	ND	ND	ND	ND	ND	0
39319	2014-07-24T06:00:00	20.1	ND	ND	ND	ND	ND	ND	ND	ND	ND	ND	0
39320	2014-07-24T07:00:00	28.5	ND	ND	ND	ND	ND	ND	ND	ND	ND	ND	0
39321	2014-07-24T08:00:00	17.3	ND	ND	ND	ND	ND	ND	ND	ND	ND	ND	0
39322	2014-07-24T09:00:00	57.5	ND	ND	ND	ND	ND	ND	ND	ND	ND	ND	0
39323	2014-07-24T10:00:00	30.6	ND	ND	ND	ND	ND	ND	ND	ND	ND	ND	0
39324	2014-07-24T11:00:00	42.5	ND	ND	ND	ND	ND	ND	ND	ND	ND	ND	0
39325	2014-07-24T12:00:00	22	ND	ND	ND	ND	ND	ND	ND	ND	ND	ND	0
39326	2014-07-24T13:00:00	48.8	ND	ND	ND	ND	ND	ND	ND	ND	ND	ND	0
39327	2014-07-24T14:00:00	31	ND	ND	ND	ND	ND	ND	ND	ND	ND	ND	0
39328	2014-07-24T15:00:00	52.1	ND	ND	ND	ND	ND	ND	ND	ND	ND	ND	0
39329	2014-07-24T16:00:00	36.3	ND	ND	ND	ND	ND	ND	ND	ND	ND	ND	0
39330	2014-07-24T17:00:00	32.6	ND	ND	ND	ND	ND	ND	ND	ND	ND	ND	0
39331	2014-07-24T18:00:00	29.9	ND	ND	ND	ND	ND	ND	ND	ND	ND	ND	0
39332	2014-07-24T19:00:00	34.8	ND	ND	ND	ND	ND	ND	ND	ND	ND	ND	0
39333	2014-07-24T20:00:00	24	ND	ND	ND	ND	ND	ND	ND	ND	ND	ND	0
39334	2014-07-24T21:00:00	28.7	ND	ND	ND	ND	ND	ND	ND	ND	ND	ND	0
39335	2014-07-24T22:00:00	25	ND	ND	ND	ND	ND	ND	ND	ND	ND	ND	0
39336	2014-07-24T23:00:00	17	ND	ND	ND	ND	ND	ND	ND	ND	ND	ND	0
39337	2014-07-25T00:00:00	14.3	ND	ND	ND	ND	ND	ND	ND	ND	ND	ND	0
39338	2014-07-25T01:00:00	50.6	ND	ND	ND	ND	ND	ND	ND	ND	ND	ND	0
39339	2014-07-25T02:00:00	41.3	ND	ND	ND	ND	ND	ND	ND	ND	ND	ND	0
39340	2014-07-25T03:00:00	53.4	ND	ND	ND	ND	ND	ND	ND	ND	ND	ND	0
39341	2014-07-25T04:00:00	57.5	ND	ND	ND	ND	ND	ND	ND	ND	ND	ND	0
39342	2014-07-25T05:00:00	38	ND	ND	ND	ND	ND	ND	ND	ND	ND	ND	0
39343	2014-07-25T06:00:00	20.1	ND	ND	ND	ND	ND	ND	ND	ND	ND	ND	0
39344	2014-07-25T07:00:00	31.5	ND	ND	ND	ND	ND	ND	ND	ND	ND	ND	0
39345	2014-07-25T08:00:00	37.5	ND	ND	ND	ND	ND	ND	ND	ND	ND	ND	0
39346	2014-07-25T09:00:00	28	ND	ND	ND	ND	ND	ND	ND	ND	ND	ND	0
39347	2014-07-25T10:00:00	28.5	ND	ND	ND	ND	ND	ND	ND	ND	ND	ND	0
39348	2014-07-25T11:00:00	51.5	ND	ND	ND	ND	ND	ND	ND	ND	ND	ND	0
39349	2014-07-25T12:00:00	27.3	ND	ND	ND	ND	ND	ND	ND	ND	ND	ND	0
39350	2014-07-25T13:00:00	37.3	ND	ND	ND	ND	ND	ND	ND	ND	ND	ND	0
39351	2014-07-25T14:00:00	30.7	ND	ND	ND	ND	ND	ND	ND	ND	ND	ND	0
39352	2014-07-25T15:00:00	27.3	ND	ND	ND	ND	ND	ND	ND	ND	ND	ND	0
39353	2014-07-25T16:00:00	15.2	ND	ND	ND	ND	ND	ND	ND	ND	ND	ND	0
39354	2014-07-25T17:00:00	8.2	ND	ND	ND	ND	ND	ND	ND	ND	ND	ND	0
39355	2014-07-25T18:00:00	7.8	ND	ND	ND	ND	ND	ND	ND	ND	ND	ND	0
39356	2014-07-25T19:00:00	29.1	ND	ND	ND	ND	ND	ND	ND	ND	ND	ND	0
39357	2014-07-25T20:00:00	20.2	ND	ND	ND	ND	ND	ND	ND	ND	ND	ND	0
39358	2014-07-25T21:00:00	11.6	ND	ND	ND	ND	ND	ND	ND	ND	ND	ND	0
39359	2014-07-25T22:00:00	6.8	ND	ND	ND	ND	ND	ND	ND	ND	ND	ND	0
39360	2014-07-25T23:00:00	4.7	ND	ND	ND	ND	ND	ND	ND	ND	ND	ND	0
39361	2014-07-26T00:00:00	3.4	ND	ND	ND	ND	ND	ND	ND	ND	ND	ND	0
39362	2014-07-26T01:00:00	3.3	ND	ND	ND	ND	ND	ND	ND	ND	ND	ND	0
39363	2014-07-26T02:00:00	1.6	ND	ND	ND	ND	ND	ND	ND	ND	ND	ND	0
39364	2014-07-26T03:00:00	15.3	ND	ND	ND	ND	ND	ND	ND	ND	ND	ND	0
39365	2014-07-26T04:00:00	9.6	ND	ND	ND	ND	ND	ND	ND	ND	ND	ND	0
39366	2014-07-26T05:00:00	34	ND	ND	ND	ND	ND	ND	ND	ND	ND	ND	0
39367	2014-07-26T06:00:00	27	ND	ND	ND	ND	ND	ND	ND	ND	ND	ND	0
39368	2014-07-26T07:00:00	38.8	ND	ND	ND	ND	ND	ND	ND	ND	ND	ND	0
39369	2014-07-26T08:00:00	21.4	ND	ND	ND	ND	ND	ND	ND	ND	ND	ND	0
39370	2014-07-26T09:00:00	35.9	ND	ND	ND	ND	ND	ND	ND	ND	ND	ND	0
39371	2014-07-26T10:00:00	26.2	ND	ND	ND	ND	ND	ND	ND	ND	ND	ND	0
39372	2014-07-26T11:00:00	39.5	ND	ND	ND	ND	ND	ND	ND	ND	ND	ND	0
39373	2014-07-26T12:00:00	29.8	ND	ND	ND	ND	ND	ND	ND	ND	ND	ND	0
39374	2014-07-26T13:00:00	31.3	ND	ND	ND	ND	ND	ND	ND	ND	ND	ND	0
39375	2014-07-26T14:00:00	19.2	ND	ND	ND	ND	ND	ND	ND	ND	ND	ND	0
39376	2014-07-26T15:00:00	45.6	ND	ND	ND	ND	ND	ND	ND	ND	ND	ND	0
39377	2014-07-26T16:00:00	22.8	ND	ND	ND	ND	ND	ND	ND	ND	ND	ND	0
39378	2014-07-26T17:00:00	11.4	ND	ND	ND	ND	ND	ND	ND	ND	ND	ND	0
39379	2014-07-26T18:00:00	7.5	ND	ND	ND	ND	ND	ND	ND	ND	ND	ND	0
39380	2014-07-26T19:00:00	4.2	ND	ND	ND	ND	ND	ND	ND	ND	ND	ND	0
39381	2014-07-26T20:00:00	4.2	ND	ND	ND	ND	ND	ND	ND	ND	ND	ND	0
39382	2014-07-26T21:00:00	6	ND	ND	ND	ND	ND	ND	ND	ND	ND	ND	0
39383	2014-07-26T22:00:00	4.1	ND	ND	ND	ND	ND	ND	ND	ND	ND	ND	0
39384	2014-07-26T23:00:00	2.6	ND	ND	ND	ND	ND	ND	ND	ND	ND	ND	0
39385	2014-07-27T00:00:00	3.1	ND	ND	ND	ND	ND	ND	ND	ND	ND	ND	0
39386	2014-07-27T01:00:00	10	ND	ND	ND	ND	ND	ND	ND	ND	ND	ND	0
39387	2014-07-27T02:00:00	6.2	ND	ND	ND	ND	ND	ND	ND	ND	ND	ND	0
39388	2014-07-27T03:00:00	31.1	ND	ND	ND	ND	ND	ND	ND	ND	ND	ND	0
39389	2014-07-27T04:00:00	19.7	ND	ND	ND	ND	ND	ND	ND	ND	ND	ND	0
39390	2014-07-27T05:00:00	42	ND	ND	ND	ND	ND	ND	ND	ND	ND	ND	0.25
39391	2014-07-27T06:00:00	21.7	ND	ND	ND	ND	ND	ND	ND	ND	ND	ND	0
39392	2014-07-27T07:00:00	23.3	ND	ND	ND	ND	ND	ND	ND	ND	ND	ND	0
39393	2014-07-27T08:00:00	18.9	ND	ND	ND	ND	ND	ND	ND	ND	ND	ND	0
39394	2014-07-27T09:00:00	38.9	ND	ND	ND	ND	ND	ND	ND	ND	ND	ND	0
39395	2014-07-27T10:00:00	41.1	ND	ND	ND	ND	ND	ND	ND	ND	ND	ND	0
39396	2014-07-27T11:00:00	22.1	ND	ND	ND	ND	ND	ND	ND	ND	ND	ND	0
39397	2014-07-27T12:00:00	11	ND	ND	ND	ND	ND	ND	ND	ND	ND	ND	0
39398	2014-07-27T13:00:00	5.5	ND	ND	ND	ND	ND	ND	ND	ND	ND	ND	0
39399	2014-07-27T14:00:00	14.9	ND	ND	ND	ND	ND	ND	ND	ND	ND	ND	0
39400	2014-07-27T15:00:00	13.9	ND	ND	ND	ND	ND	ND	ND	ND	ND	ND	0
39401	2014-07-27T16:00:00	9	ND	ND	ND	ND	ND	ND	ND	ND	ND	ND	0
39402	2014-07-27T17:00:00	4.5	ND	ND	ND	ND	ND	ND	ND	ND	ND	ND	0
39403	2014-07-27T18:00:00	3.1	ND	ND	ND	ND	ND	ND	ND	ND	ND	ND	0
39404	2014-07-27T19:00:00	2.2	ND	ND	ND	ND	ND	ND	ND	ND	ND	ND	0
39405	2014-07-27T20:00:00	3.3	ND	ND	ND	ND	ND	ND	ND	ND	ND	ND	0
39406	2014-07-27T21:00:00	5.8	ND	ND	ND	ND	ND	ND	ND	ND	ND	ND	0
39407	2014-07-27T22:00:00	4.6	ND	ND	ND	ND	ND	ND	ND	ND	ND	ND	0
39408	2014-07-27T23:00:00	4.2	ND	ND	ND	ND	ND	ND	ND	ND	ND	ND	0
39409	2014-07-28T00:00:00	4	ND	ND	ND	ND	ND	ND	ND	ND	ND	ND	0
39410	2014-07-28T01:00:00	16.1	ND	ND	ND	ND	ND	ND	ND	ND	ND	ND	0
39411	2014-07-28T02:00:00	9.5	ND	ND	ND	ND	ND	ND	ND	ND	ND	ND	0
39412	2014-07-28T03:00:00	12.8	ND	ND	ND	ND	ND	ND	ND	ND	ND	ND	0
39413	2014-07-28T04:00:00	7.9	ND	ND	ND	ND	ND	ND	ND	ND	ND	ND	0
39414	2014-07-28T05:00:00	5.3	ND	ND	ND	ND	ND	ND	ND	ND	ND	ND	0
39415	2014-07-28T06:00:00	8.3	ND	ND	ND	ND	ND	ND	ND	ND	ND	ND	0
39416	2014-07-28T07:00:00	21.1	ND	ND	ND	ND	ND	ND	ND	ND	ND	ND	0
39417	2014-07-28T08:00:00	25.5	ND	ND	ND	ND	ND	ND	ND	ND	ND	ND	0
39418	2014-07-28T09:00:00	75	ND	ND	ND	ND	ND	ND	ND	ND	ND	ND	0
39419	2014-07-28T10:00:00	69.5	ND	ND	ND	ND	ND	ND	ND	ND	ND	ND	0
39420	2014-07-28T11:00:00	57.9	ND	ND	ND	ND	ND	ND	ND	ND	ND	ND	0
39421	2014-07-28T12:00:00	32.7	ND	ND	ND	ND	ND	ND	ND	ND	ND	ND	0
39422	2014-07-28T13:00:00	37.8	ND	ND	ND	ND	ND	ND	ND	ND	ND	ND	0
39423	2014-07-28T14:00:00	27.4	ND	ND	ND	ND	ND	ND	ND	ND	ND	ND	0
39424	2014-07-28T15:00:00	26.3	ND	ND	ND	ND	ND	ND	ND	ND	ND	ND	0
39425	2014-07-28T16:00:00	14.8	ND	ND	ND	ND	ND	ND	ND	ND	ND	ND	0
39426	2014-07-28T17:00:00	9.4	ND	ND	ND	ND	ND	ND	ND	ND	ND	ND	0
39427	2014-07-28T18:00:00	17.7	ND	ND	ND	ND	ND	ND	ND	ND	ND	ND	0
39428	2014-07-28T19:00:00	31.7	ND	ND	ND	ND	ND	ND	ND	ND	ND	ND	0
39429	2014-07-28T20:00:00	17	ND	ND	ND	ND	ND	ND	ND	ND	ND	ND	0
39430	2014-07-28T21:00:00	10.2	ND	ND	ND	ND	ND	ND	ND	ND	ND	ND	0
39431	2014-07-28T22:00:00	6.7	ND	ND	ND	ND	ND	ND	ND	ND	ND	ND	0
39432	2014-07-28T23:00:00	5	ND	ND	ND	ND	ND	ND	ND	ND	ND	ND	0
39433	2014-07-29T00:00:00	8.5	ND	ND	ND	ND	ND	ND	ND	ND	ND	ND	0
39434	2014-07-29T01:00:00	29.6	ND	ND	ND	ND	ND	ND	ND	ND	ND	ND	0
39435	2014-07-29T02:00:00	28.3	ND	ND	ND	ND	ND	ND	ND	ND	ND	ND	0
39436	2014-07-29T03:00:00	49.2	ND	ND	ND	ND	ND	ND	ND	ND	ND	ND	0
39437	2014-07-29T04:00:00	25.4	ND	ND	ND	ND	ND	ND	ND	ND	ND	ND	0
39438	2014-07-29T05:00:00	13.5	ND	ND	ND	ND	ND	ND	ND	ND	ND	ND	0
39439	2014-07-29T06:00:00	7.7	ND	ND	ND	ND	ND	ND	ND	ND	ND	ND	0
39440	2014-07-29T07:00:00	21.2	ND	ND	ND	ND	ND	ND	ND	ND	ND	ND	0
39441	2014-07-29T08:00:00	31.1	ND	ND	ND	ND	ND	ND	ND	ND	ND	ND	0
39442	2014-07-29T09:00:00	66.6	ND	ND	ND	ND	ND	ND	ND	ND	ND	ND	0
39443	2014-07-29T10:00:00	41	ND	ND	ND	ND	ND	ND	ND	ND	ND	ND	0
39444	2014-07-29T11:00:00	39.7	ND	ND	ND	ND	ND	ND	ND	ND	ND	ND	0
39445	2014-07-29T12:00:00	24.5	ND	ND	ND	ND	ND	ND	ND	ND	ND	ND	0
39446	2014-07-29T13:00:00	37.5	ND	ND	ND	ND	ND	ND	ND	ND	ND	ND	0
39447	2014-07-29T14:00:00	33.1	ND	ND	ND	ND	ND	ND	ND	ND	ND	ND	0
39448	2014-07-29T15:00:00	32.5	ND	ND	ND	ND	ND	ND	ND	ND	ND	ND	0
39449	2014-07-29T16:00:00	33.6	ND	ND	ND	ND	ND	ND	ND	ND	ND	ND	0
39450	2014-07-29T17:00:00	31.7	ND	ND	ND	ND	ND	ND	ND	ND	ND	ND	0
39451	2014-07-29T18:00:00	24.9	ND	ND	ND	ND	ND	ND	ND	ND	ND	ND	0
39452	2014-07-29T19:00:00	23.3	ND	ND	ND	ND	ND	ND	ND	ND	ND	ND	0
39453	2014-07-29T20:00:00	14.1	ND	ND	ND	ND	ND	ND	ND	ND	ND	ND	0
39454	2014-07-29T21:00:00	30.4	ND	ND	ND	ND	ND	ND	ND	ND	ND	ND	0
39455	2014-07-29T22:00:00	16.9	ND	ND	ND	ND	ND	ND	ND	ND	ND	ND	0
39456	2014-07-29T23:00:00	13.4	ND	ND	ND	ND	ND	ND	ND	ND	ND	ND	0
39457	2014-07-30T00:00:00	14	ND	ND	ND	ND	ND	ND	ND	ND	ND	ND	0
39458	2014-07-30T01:00:00	10.5	ND	ND	ND	ND	ND	ND	ND	ND	ND	ND	0
39459	2014-07-30T02:00:00	6.6	ND	ND	ND	ND	ND	ND	ND	ND	ND	ND	0
39460	2014-07-30T03:00:00	20.1	ND	ND	ND	ND	ND	ND	ND	ND	ND	ND	0
39461	2014-07-30T04:00:00	10.6	ND	ND	ND	ND	ND	ND	ND	ND	ND	ND	0
39462	2014-07-30T05:00:00	20.8	ND	ND	ND	ND	ND	ND	ND	ND	ND	ND	0
39463	2014-07-30T06:00:00	16.4	ND	ND	ND	ND	ND	ND	ND	ND	ND	ND	0
39464	2014-07-30T07:00:00	34.3	ND	ND	ND	ND	ND	ND	ND	ND	ND	ND	0
39465	2014-07-30T08:00:00	25.5	ND	ND	ND	ND	ND	ND	ND	ND	ND	ND	0
39466	2014-07-30T09:00:00	51.1	ND	ND	ND	ND	ND	ND	ND	ND	ND	ND	0
39467	2014-07-30T10:00:00	35.7	ND	ND	ND	ND	ND	ND	ND	ND	ND	ND	0
39468	2014-07-30T11:00:00	48.9	ND	ND	ND	ND	ND	ND	ND	ND	ND	ND	0
39469	2014-07-30T12:00:00	26.5	ND	ND	ND	ND	ND	ND	ND	ND	ND	ND	0
39470	2014-07-30T13:00:00	45.5	ND	ND	ND	ND	ND	ND	ND	ND	ND	ND	0
39471	2014-07-30T14:00:00	32.8	ND	ND	ND	ND	ND	ND	ND	ND	ND	ND	0
39472	2014-07-30T15:00:00	17.3	ND	ND	ND	ND	ND	ND	ND	ND	ND	ND	0
39473	2014-07-30T16:00:00	45	ND	ND	ND	ND	ND	ND	ND	ND	ND	ND	0
39474	2014-07-30T17:00:00	52.2	ND	ND	ND	ND	ND	ND	ND	ND	ND	ND	0
39475	2014-07-30T18:00:00	27.6	ND	ND	ND	ND	ND	ND	ND	ND	ND	ND	0
39476	2014-07-30T19:00:00	36.2	ND	ND	ND	ND	ND	ND	ND	ND	ND	ND	0
39477	2014-07-30T20:00:00	19.8	ND	ND	ND	ND	ND	ND	ND	ND	ND	ND	0
39478	2014-07-30T21:00:00	11.1	ND	ND	ND	ND	ND	ND	ND	ND	ND	ND	0
39479	2014-07-30T22:00:00	6.6	ND	ND	ND	ND	ND	ND	ND	ND	ND	ND	0
39480	2014-07-30T23:00:00	4.7	ND	ND	ND	ND	ND	ND	ND	ND	ND	ND	0
39481	2014-07-31T00:00:00	3	ND	ND	ND	ND	ND	ND	ND	ND	ND	ND	0
39482	2014-07-31T01:00:00	21	ND	ND	ND	ND	ND	ND	ND	ND	ND	ND	0
39483	2014-07-31T02:00:00	11.6	ND	ND	ND	ND	ND	ND	ND	ND	ND	ND	0
39484	2014-07-31T03:00:00	16.2	ND	ND	ND	ND	ND	ND	ND	ND	ND	ND	0
39485	2014-07-31T04:00:00	13.1	ND	ND	ND	ND	ND	ND	ND	ND	ND	ND	0
39486	2014-07-31T05:00:00	39.5	ND	ND	ND	ND	ND	ND	ND	ND	ND	ND	0
39487	2014-07-31T06:00:00	26.2	ND	ND	ND	ND	ND	ND	ND	ND	ND	ND	0
39488	2014-07-31T07:00:00	37.8	ND	ND	ND	ND	ND	ND	ND	ND	ND	ND	0
39489	2014-07-31T08:00:00	39	ND	ND	ND	ND	ND	ND	ND	ND	ND	ND	0
39490	2014-07-31T09:00:00	95.5	ND	ND	ND	ND	ND	ND	ND	ND	ND	ND	0
39491	2014-07-31T10:00:00	67.6	ND	ND	ND	ND	ND	ND	ND	ND	ND	ND	0
39492	2014-07-31T11:00:00	74	ND	ND	ND	ND	ND	ND	ND	ND	ND	ND	0
39493	2014-07-31T12:00:00	39.5	ND	ND	ND	ND	ND	ND	ND	ND	ND	ND	0
39494	2014-07-31T13:00:00	41.3	ND	ND	ND	ND	ND	ND	ND	ND	ND	ND	0
39495	2014-07-31T14:00:00	34.1	ND	ND	ND	ND	ND	ND	ND	ND	ND	ND	0
39496	2014-07-31T15:00:00	27	ND	ND	ND	ND	ND	ND	ND	ND	ND	ND	0
39497	2014-07-31T16:00:00	14.9	ND	ND	ND	ND	ND	ND	ND	ND	ND	ND	0
39498	2014-07-31T17:00:00	34.4	ND	ND	ND	ND	ND	ND	ND	ND	ND	ND	0
39499	2014-07-31T18:00:00	33.9	ND	ND	ND	ND	ND	ND	ND	ND	ND	ND	0
39500	2014-07-31T19:00:00	25.8	ND	ND	ND	ND	ND	ND	ND	ND	ND	ND	0
39501	2014-07-31T20:00:00	13.9	ND	ND	ND	ND	ND	ND	ND	ND	ND	ND	0
39502	2014-07-31T21:00:00	18.3	ND	ND	ND	ND	ND	ND	ND	ND	ND	ND	0
39503	2014-07-31T22:00:00	28.1	ND	ND	ND	ND	ND	ND	ND	ND	ND	ND	0
39504	2014-07-31T23:00:00	36.5	ND	ND	ND	ND	ND	ND	ND	ND	ND	ND	0
39505	2014-08-01T00:00:00	26.5	ND	ND	ND	ND	ND	ND	ND	ND	ND	ND	0
39506	2014-08-01T01:00:00	13.8	ND	ND	ND	ND	ND	ND	ND	ND	ND	ND	0
39507	2014-08-01T02:00:00	23.4	ND	ND	ND	ND	ND	ND	ND	ND	ND	ND	0
39508	2014-08-01T03:00:00	13.2	ND	ND	ND	ND	ND	ND	ND	ND	ND	ND	0
39509	2014-08-01T04:00:00	8.4	ND	ND	ND	ND	ND	ND	ND	ND	ND	ND	0
39510	2014-08-01T05:00:00	62.4	ND	ND	ND	ND	ND	ND	ND	ND	ND	ND	0
39511	2014-08-01T06:00:00	55.2	ND	ND	ND	ND	ND	ND	ND	ND	ND	ND	0
39512	2014-08-01T07:00:00	82.3	ND	ND	ND	ND	ND	ND	ND	ND	ND	ND	0
39513	2014-08-01T08:00:00	58.7	ND	ND	ND	ND	ND	ND	ND	ND	ND	ND	0
39514	2014-08-01T09:00:00	79.1	ND	ND	ND	ND	ND	ND	ND	ND	ND	ND	0
39515	2014-08-01T10:00:00	81.2	ND	ND	ND	ND	ND	ND	ND	ND	ND	ND	0
39516	2014-08-01T11:00:00	110.1	ND	ND	ND	ND	ND	ND	ND	ND	ND	ND	0
39517	2014-08-01T12:00:00	67.8	ND	ND	ND	ND	ND	ND	ND	ND	ND	ND	0
39518	2014-08-01T13:00:00	56.7	ND	ND	ND	ND	ND	ND	ND	ND	ND	ND	0
39519	2014-08-01T14:00:00	40	ND	ND	ND	ND	ND	ND	ND	ND	ND	ND	0
39520	2014-08-01T15:00:00	ND	ND	ND	ND	ND	ND	ND	ND	ND	ND	ND	0
39521	2014-08-01T16:00:00	ND	ND	ND	ND	ND	ND	ND	ND	ND	ND	ND	0
39522	2014-08-01T17:00:00	ND	ND	ND	ND	ND	ND	ND	ND	ND	ND	ND	0
39523	2014-08-01T18:00:00	ND	ND	ND	ND	ND	ND	ND	ND	ND	ND	ND	0
39524	2014-08-01T19:00:00	ND	ND	ND	ND	ND	ND	ND	ND	ND	ND	ND	0
39525	2014-08-01T20:00:00	ND	ND	ND	ND	ND	ND	ND	ND	ND	ND	ND	0
39526	2014-08-01T21:00:00	ND	ND	ND	ND	ND	ND	ND	ND	ND	ND	ND	0
39527	2014-08-01T22:00:00	ND	ND	ND	ND	ND	ND	ND	ND	ND	ND	ND	0
39528	2014-08-01T23:00:00	ND	ND	ND	ND	ND	ND	ND	ND	ND	ND	ND	0
39529	2014-08-02T00:00:00	82.5	ND	ND	ND	ND	ND	ND	ND	ND	ND	ND	0
39530	2014-08-02T01:00:00	42.4	ND	ND	ND	ND	ND	ND	ND	ND	ND	ND	0
39531	2014-08-02T02:00:00	45.6	ND	ND	ND	ND	ND	ND	ND	ND	ND	ND	0
39532	2014-08-02T03:00:00	45.2	ND	ND	ND	ND	ND	ND	ND	ND	ND	ND	0
39533	2014-08-02T04:00:00	36.9	ND	ND	ND	ND	ND	ND	ND	ND	ND	ND	0
39534	2014-08-02T05:00:00	60.4	ND	ND	ND	ND	ND	ND	ND	ND	ND	ND	0
39535	2014-08-02T06:00:00	46.6	ND	ND	ND	ND	ND	ND	ND	ND	ND	ND	0
39536	2014-08-02T07:00:00	60.7	ND	ND	ND	ND	ND	ND	ND	ND	ND	ND	0
39537	2014-08-02T08:00:00	50.8	ND	ND	ND	ND	ND	ND	ND	ND	ND	ND	0
39538	2014-08-02T09:00:00	85.4	ND	ND	ND	ND	ND	ND	ND	ND	ND	ND	0
39539	2014-08-02T10:00:00	71.4	ND	ND	ND	ND	ND	ND	ND	ND	ND	ND	0
39540	2014-08-02T11:00:00	105.4	ND	ND	ND	ND	ND	ND	ND	ND	ND	ND	0
39541	2014-08-02T12:00:00	70.9	ND	ND	ND	ND	ND	ND	ND	ND	ND	ND	0
39542	2014-08-02T13:00:00	90.8	ND	ND	ND	ND	ND	ND	ND	ND	ND	ND	0
39543	2014-08-02T14:00:00	55.1	ND	ND	ND	ND	ND	ND	ND	ND	ND	ND	0
39544	2014-08-02T15:00:00	69.9	ND	ND	ND	ND	ND	ND	ND	ND	ND	ND	0
39545	2014-08-02T16:00:00	41.2	ND	ND	ND	ND	ND	ND	ND	ND	ND	ND	0
39546	2014-08-02T17:00:00	61.9	ND	ND	ND	ND	ND	ND	ND	ND	ND	ND	0
39547	2014-08-02T18:00:00	46.6	ND	ND	ND	ND	ND	ND	ND	ND	ND	ND	0
39548	2014-08-02T19:00:00	36.6	ND	ND	ND	ND	ND	ND	ND	ND	ND	ND	0
39549	2014-08-02T20:00:00	19.6	ND	ND	ND	ND	ND	ND	ND	ND	ND	ND	0
39550	2014-08-02T21:00:00	25.7	ND	ND	ND	ND	ND	ND	ND	ND	ND	ND	0
39551	2014-08-02T22:00:00	14.9	ND	ND	ND	ND	ND	ND	ND	ND	ND	ND	0
39552	2014-08-02T23:00:00	10.4	ND	ND	ND	ND	ND	ND	ND	ND	ND	ND	0
39553	2014-08-03T00:00:00	6.2	ND	ND	ND	ND	ND	ND	ND	ND	ND	ND	0
39554	2014-08-03T01:00:00	5.4	ND	ND	ND	ND	ND	ND	ND	ND	ND	ND	0
39555	2014-08-03T02:00:00	30.1	ND	ND	ND	ND	ND	ND	ND	ND	ND	ND	0
39556	2014-08-03T03:00:00	40.6	ND	ND	ND	ND	ND	ND	ND	ND	ND	ND	0
39557	2014-08-03T04:00:00	28.7	ND	ND	ND	ND	ND	ND	ND	ND	ND	ND	0
39558	2014-08-03T05:00:00	39.4	ND	ND	ND	ND	ND	ND	ND	ND	ND	ND	0
39559	2014-08-03T06:00:00	32.9	ND	ND	ND	ND	ND	ND	ND	ND	ND	ND	0
39560	2014-08-03T07:00:00	33.5	ND	ND	ND	ND	ND	ND	ND	ND	ND	ND	0
39561	2014-08-03T08:00:00	51.2	ND	ND	ND	ND	ND	ND	ND	ND	ND	ND	0
39562	2014-08-03T09:00:00	55.7	ND	ND	ND	ND	ND	ND	ND	ND	ND	ND	0
39563	2014-08-03T10:00:00	43.2	ND	ND	ND	ND	ND	ND	ND	ND	ND	ND	0
39564	2014-08-03T11:00:00	32.1	ND	ND	ND	ND	ND	ND	ND	ND	ND	ND	0
39565	2014-08-03T12:00:00	19.2	ND	ND	ND	ND	ND	ND	ND	ND	ND	ND	0
39566	2014-08-03T13:00:00	26.6	ND	ND	ND	ND	ND	ND	ND	ND	ND	ND	0
39567	2014-08-03T14:00:00	16	ND	ND	ND	ND	ND	ND	ND	ND	ND	ND	0
39568	2014-08-03T15:00:00	8	ND	ND	ND	ND	ND	ND	ND	ND	ND	ND	0
39569	2014-08-03T16:00:00	5.8	ND	ND	ND	ND	ND	ND	ND	ND	ND	ND	0
39570	2014-08-03T17:00:00	4.1	ND	ND	ND	ND	ND	ND	ND	ND	ND	ND	0
39571	2014-08-03T18:00:00	2.5	ND	ND	ND	ND	ND	ND	ND	ND	ND	ND	0
39572	2014-08-03T19:00:00	2.2	ND	ND	ND	ND	ND	ND	ND	ND	ND	ND	0
39573	2014-08-03T20:00:00	2.2	ND	ND	ND	ND	ND	ND	ND	ND	ND	ND	0
39574	2014-08-03T21:00:00	21.6	ND	ND	ND	ND	ND	ND	ND	ND	ND	ND	0
39575	2014-08-03T22:00:00	12.3	ND	ND	ND	ND	ND	ND	ND	ND	ND	ND	0
39576	2014-08-03T23:00:00	9	ND	ND	ND	ND	ND	ND	ND	ND	ND	ND	0
39577	2014-08-04T00:00:00	5.3	ND	ND	ND	ND	ND	ND	ND	ND	ND	ND	0
39578	2014-08-04T01:00:00	12.2	ND	ND	ND	ND	ND	ND	ND	ND	ND	ND	0
39579	2014-08-04T02:00:00	19.2	ND	ND	ND	ND	ND	ND	ND	ND	ND	ND	0
39580	2014-08-04T03:00:00	39.9	ND	ND	ND	ND	ND	ND	ND	ND	ND	ND	0
39581	2014-08-04T04:00:00	20.6	ND	ND	ND	ND	ND	ND	ND	ND	ND	ND	0
39582	2014-08-04T05:00:00	11.5	ND	ND	ND	ND	ND	ND	ND	ND	ND	ND	0
39583	2014-08-04T06:00:00	6.7	ND	ND	ND	ND	ND	ND	ND	ND	ND	ND	0
39584	2014-08-04T07:00:00	47.7	ND	ND	ND	ND	ND	ND	ND	ND	ND	ND	0
39585	2014-08-04T08:00:00	48.1	ND	ND	ND	ND	ND	ND	ND	ND	ND	ND	0
39586	2014-08-04T09:00:00	77.6	ND	ND	ND	ND	ND	ND	ND	ND	ND	ND	0
39587	2014-08-04T10:00:00	75.2	ND	ND	ND	ND	ND	ND	ND	ND	ND	ND	0
39588	2014-08-04T11:00:00	41.8	ND	ND	ND	ND	ND	ND	ND	ND	ND	ND	0
39589	2014-08-04T12:00:00	23.1	ND	ND	ND	ND	ND	ND	ND	ND	ND	ND	0
39590	2014-08-04T13:00:00	27	ND	ND	ND	ND	ND	ND	ND	ND	ND	ND	0
39591	2014-08-04T14:00:00	24.7	ND	ND	ND	ND	ND	ND	ND	ND	ND	ND	0
39592	2014-08-04T15:00:00	42.8	ND	ND	ND	ND	ND	ND	ND	ND	ND	ND	0
39593	2014-08-04T16:00:00	29	ND	ND	ND	ND	ND	ND	ND	ND	ND	ND	0
39594	2014-08-04T17:00:00	24.2	ND	ND	ND	ND	ND	ND	ND	ND	ND	ND	0
39595	2014-08-04T18:00:00	14.2	ND	ND	ND	ND	ND	ND	ND	ND	ND	ND	0
39596	2014-08-04T19:00:00	28.9	ND	ND	ND	ND	ND	ND	ND	ND	ND	ND	0
39597	2014-08-04T20:00:00	15.5	ND	ND	ND	ND	ND	ND	ND	ND	ND	ND	0
39598	2014-08-04T21:00:00	23.8	ND	ND	ND	ND	ND	ND	ND	ND	ND	ND	0
39599	2014-08-04T22:00:00	13.6	ND	ND	ND	ND	ND	ND	ND	ND	ND	ND	0
39600	2014-08-04T23:00:00	8.3	ND	ND	ND	ND	ND	ND	ND	ND	ND	ND	0
39601	2014-08-05T00:00:00	6.2	ND	ND	ND	ND	ND	ND	ND	ND	ND	ND	0
39602	2014-08-05T01:00:00	13.9	ND	ND	ND	ND	ND	ND	ND	ND	ND	ND	0
39603	2014-08-05T02:00:00	7.9	ND	ND	ND	ND	ND	ND	ND	ND	ND	ND	0
39604	2014-08-05T03:00:00	10.1	ND	ND	ND	ND	ND	ND	ND	ND	ND	ND	0
39605	2014-08-05T04:00:00	12.9	ND	ND	ND	ND	ND	ND	ND	ND	ND	ND	0
39606	2014-08-05T05:00:00	25.7	ND	ND	ND	ND	ND	ND	ND	ND	ND	ND	0
39607	2014-08-05T06:00:00	18.2	ND	ND	ND	ND	ND	ND	ND	ND	ND	ND	0
39608	2014-08-05T07:00:00	30.8	ND	ND	ND	ND	ND	ND	ND	ND	ND	ND	0
39609	2014-08-05T08:00:00	30.6	ND	ND	ND	ND	ND	ND	ND	ND	ND	ND	0
39610	2014-08-05T09:00:00	50.7	ND	ND	ND	ND	ND	ND	ND	ND	ND	ND	0
39611	2014-08-05T10:00:00	42.1	ND	ND	ND	ND	ND	ND	ND	ND	ND	ND	0
39612	2014-08-05T11:00:00	38.4	ND	ND	ND	ND	ND	ND	ND	ND	ND	ND	0
39613	2014-08-05T12:00:00	29.2	ND	ND	ND	ND	ND	ND	ND	ND	ND	ND	0
39614	2014-08-05T13:00:00	35.5	ND	ND	ND	ND	ND	ND	ND	ND	ND	ND	0
39615	2014-08-05T14:00:00	33.9	ND	ND	ND	ND	ND	ND	ND	ND	ND	ND	0
39616	2014-08-05T15:00:00	51.3	ND	ND	ND	ND	ND	ND	ND	ND	ND	ND	0
39617	2014-08-05T16:00:00	36	ND	ND	ND	ND	ND	ND	ND	ND	ND	ND	0
39618	2014-08-05T17:00:00	58.3	ND	ND	ND	ND	ND	ND	ND	ND	ND	ND	0
39619	2014-08-05T18:00:00	52.1	ND	ND	ND	ND	ND	ND	ND	ND	ND	ND	0
39620	2014-08-05T19:00:00	41.4	ND	ND	ND	ND	ND	ND	ND	ND	ND	ND	0
39621	2014-08-05T20:00:00	28.4	ND	ND	ND	ND	ND	ND	ND	ND	ND	ND	0
39622	2014-08-05T21:00:00	15.1	ND	ND	ND	ND	ND	ND	ND	ND	ND	ND	0
39623	2014-08-05T22:00:00	10.3	ND	ND	ND	ND	ND	ND	ND	ND	ND	ND	0
39624	2014-08-05T23:00:00	11.7	ND	ND	ND	ND	ND	ND	ND	ND	ND	ND	0
39625	2014-08-06T00:00:00	6.4	ND	ND	ND	ND	ND	ND	ND	ND	ND	ND	0
39626	2014-08-06T01:00:00	23.5	ND	ND	ND	ND	ND	ND	ND	ND	ND	ND	0
39627	2014-08-06T02:00:00	34.2	ND	ND	ND	ND	ND	ND	ND	ND	ND	ND	0
39628	2014-08-06T03:00:00	42.8	ND	ND	ND	ND	ND	ND	ND	ND	ND	ND	0
39629	2014-08-06T04:00:00	22.7	ND	ND	ND	ND	ND	ND	ND	ND	ND	ND	0
39630	2014-08-06T05:00:00	41.1	ND	ND	ND	ND	ND	ND	ND	ND	ND	ND	0
39631	2014-08-06T06:00:00	26.2	ND	ND	ND	ND	ND	ND	ND	ND	ND	ND	0
39632	2014-08-06T07:00:00	50.1	ND	ND	ND	ND	ND	ND	ND	ND	ND	ND	0
39633	2014-08-06T08:00:00	61.8	ND	ND	ND	ND	ND	ND	ND	ND	ND	ND	0
39634	2014-08-06T09:00:00	72	ND	ND	ND	ND	ND	ND	ND	ND	ND	ND	0
39635	2014-08-06T10:00:00	66.3	ND	ND	ND	ND	ND	ND	ND	ND	ND	ND	0
39636	2014-08-06T11:00:00	54.8	ND	ND	ND	ND	ND	ND	ND	ND	ND	ND	0
39637	2014-08-06T12:00:00	37.1	ND	ND	ND	ND	ND	ND	ND	ND	ND	ND	0
39638	2014-08-06T13:00:00	46.8	ND	ND	ND	ND	ND	ND	ND	ND	ND	ND	0
39639	2014-08-06T14:00:00	27.3	ND	ND	ND	ND	ND	ND	ND	ND	ND	ND	0
39640	2014-08-06T15:00:00	56	ND	ND	ND	ND	ND	ND	ND	ND	ND	ND	0
39641	2014-08-06T16:00:00	28.8	ND	ND	ND	ND	ND	ND	ND	ND	ND	ND	0
39642	2014-08-06T17:00:00	16.3	ND	ND	ND	ND	ND	ND	ND	ND	ND	ND	0
39643	2014-08-06T18:00:00	15.3	ND	ND	ND	ND	ND	ND	ND	ND	ND	ND	0
39644	2014-08-06T19:00:00	15.9	ND	ND	ND	ND	ND	ND	ND	ND	ND	ND	0
39645	2014-08-06T20:00:00	9.3	ND	ND	ND	ND	ND	ND	ND	ND	ND	ND	0
39646	2014-08-06T21:00:00	8	ND	ND	ND	ND	ND	ND	ND	ND	ND	ND	0
39647	2014-08-06T22:00:00	4	ND	ND	ND	ND	ND	ND	ND	ND	ND	ND	0
39648	2014-08-06T23:00:00	2	ND	ND	ND	ND	ND	ND	ND	ND	ND	ND	0
39649	2014-08-07T00:00:00	1	ND	ND	ND	ND	ND	ND	ND	ND	ND	ND	0
39650	2014-08-07T01:00:00	0.5	ND	ND	ND	ND	ND	ND	ND	ND	ND	ND	0
39651	2014-08-07T02:00:00	1.8	ND	ND	ND	ND	ND	ND	ND	ND	ND	ND	0.25
39652	2014-08-07T03:00:00	20.4	ND	ND	ND	ND	ND	ND	ND	ND	ND	ND	9.65
39653	2014-08-07T04:00:00	ND	ND	ND	ND	ND	ND	ND	ND	ND	ND	ND	2.79
39654	2014-08-07T05:00:00	ND	ND	ND	ND	ND	ND	ND	ND	ND	ND	ND	0.25
39655	2014-08-07T06:00:00	ND	ND	ND	ND	ND	ND	ND	ND	ND	ND	ND	0
39656	2014-08-07T07:00:00	ND	ND	ND	ND	ND	ND	ND	ND	ND	ND	ND	0
39657	2014-08-07T08:00:00	ND	ND	ND	ND	ND	ND	ND	ND	ND	ND	ND	0
39658	2014-08-07T09:00:00	ND	ND	ND	ND	ND	ND	ND	ND	ND	ND	ND	0
39659	2014-08-07T10:00:00	ND	ND	ND	ND	ND	ND	ND	ND	ND	ND	ND	0
39660	2014-08-07T11:00:00	ND	ND	ND	ND	ND	ND	ND	ND	ND	ND	ND	0
39661	2014-08-07T12:00:00	ND	ND	ND	ND	ND	ND	ND	ND	ND	ND	ND	0
39662	2014-08-07T13:00:00	ND	ND	ND	ND	ND	ND	ND	ND	ND	ND	ND	ND
39663	2014-08-07T14:00:00	ND	ND	ND	ND	ND	ND	ND	ND	ND	ND	ND	ND
39664	2014-08-07T15:00:00	ND	ND	ND	ND	ND	ND	ND	ND	ND	ND	ND	ND
39665	2014-08-07T16:00:00	ND	ND	ND	ND	ND	ND	ND	ND	ND	ND	ND	ND
39666	2014-08-07T17:00:00	ND	ND	ND	ND	ND	ND	ND	ND	ND	ND	ND	ND
39667	2014-08-07T18:00:00	ND	ND	ND	ND	ND	ND	ND	ND	ND	ND	ND	ND
39668	2014-08-07T19:00:00	ND	ND	ND	ND	ND	ND	ND	ND	ND	ND	ND	ND
39669	2014-08-07T20:00:00	ND	ND	ND	ND	ND	ND	ND	ND	ND	ND	ND	ND
39670	2014-08-07T21:00:00	ND	ND	ND	ND	ND	ND	ND	ND	ND	ND	ND	ND
39671	2014-08-07T22:00:00	ND	ND	ND	ND	ND	ND	ND	ND	ND	ND	ND	ND
39672	2014-08-07T23:00:00	ND	ND	ND	ND	ND	ND	ND	ND	ND	ND	ND	ND
39673	2014-08-08T00:00:00	ND	ND	ND	ND	ND	ND	ND	ND	ND	ND	ND	ND
39674	2014-08-08T01:00:00	ND	ND	ND	ND	ND	ND	ND	ND	ND	ND	ND	ND
39675	2014-08-08T02:00:00	ND	ND	ND	ND	ND	ND	ND	ND	ND	ND	ND	ND
39676	2014-08-08T03:00:00	ND	ND	ND	ND	ND	ND	ND	ND	ND	ND	ND	ND
39677	2014-08-08T04:00:00	ND	ND	ND	ND	ND	ND	ND	ND	ND	ND	ND	ND
39678	2014-08-08T05:00:00	ND	ND	ND	ND	ND	ND	ND	ND	ND	ND	ND	ND
39679	2014-08-08T06:00:00	ND	ND	ND	ND	ND	ND	ND	ND	ND	ND	ND	ND
39680	2014-08-08T07:00:00	ND	ND	ND	ND	ND	ND	ND	ND	ND	ND	ND	ND
39681	2014-08-08T08:00:00	ND	ND	ND	ND	ND	ND	ND	ND	ND	ND	ND	ND
39682	2014-08-08T09:00:00	ND	ND	ND	ND	ND	ND	ND	ND	ND	ND	ND	ND
39683	2014-08-08T10:00:00	ND	ND	ND	ND	ND	ND	ND	ND	ND	ND	ND	ND
39684	2014-08-08T11:00:00	ND	ND	ND	ND	ND	ND	ND	ND	ND	ND	ND	ND
39685	2014-08-08T12:00:00	ND	ND	ND	ND	ND	ND	ND	ND	ND	ND	ND	ND
39686	2014-08-08T13:00:00	ND	ND	ND	ND	ND	ND	ND	ND	ND	ND	ND	ND
39687	2014-08-08T14:00:00	ND	ND	ND	ND	ND	ND	ND	ND	ND	ND	ND	ND
39688	2014-08-08T15:00:00	ND	ND	ND	ND	ND	ND	ND	ND	ND	ND	ND	ND
39689	2014-08-08T16:00:00	ND	ND	ND	ND	ND	ND	ND	ND	ND	ND	ND	ND
39690	2014-08-08T17:00:00	ND	ND	ND	ND	ND	ND	ND	ND	ND	ND	ND	ND
39691	2014-08-08T18:00:00	ND	ND	ND	ND	ND	ND	ND	ND	ND	ND	ND	ND
39692	2014-08-08T19:00:00	ND	ND	ND	ND	ND	ND	ND	ND	ND	ND	ND	ND
39693	2014-08-08T20:00:00	ND	ND	ND	ND	ND	ND	ND	ND	ND	ND	ND	ND
39694	2014-08-08T21:00:00	ND	ND	ND	ND	ND	ND	ND	ND	ND	ND	ND	ND
39695	2014-08-08T22:00:00	ND	ND	ND	ND	ND	ND	ND	ND	ND	ND	ND	ND
39696	2014-08-08T23:00:00	ND	ND	ND	ND	ND	ND	ND	ND	ND	ND	ND	ND
39697	2014-08-09T00:00:00	ND	ND	ND	ND	ND	ND	ND	ND	ND	ND	ND	ND
39698	2014-08-09T01:00:00	ND	ND	ND	ND	ND	ND	ND	ND	ND	ND	ND	ND
39699	2014-08-09T02:00:00	ND	ND	ND	ND	ND	ND	ND	ND	ND	ND	ND	ND
39700	2014-08-09T03:00:00	ND	ND	ND	ND	ND	ND	ND	ND	ND	ND	ND	ND
39701	2014-08-09T04:00:00	ND	ND	ND	ND	ND	ND	ND	ND	ND	ND	ND	ND
39702	2014-08-09T05:00:00	ND	ND	ND	ND	ND	ND	ND	ND	ND	ND	ND	ND
39703	2014-08-09T06:00:00	ND	ND	ND	ND	ND	ND	ND	ND	ND	ND	ND	ND
39704	2014-08-09T07:00:00	ND	ND	ND	ND	ND	ND	ND	ND	ND	ND	ND	ND
39705	2014-08-09T08:00:00	ND	ND	ND	ND	ND	ND	ND	ND	ND	ND	ND	ND
39706	2014-08-09T09:00:00	ND	ND	ND	ND	ND	ND	ND	ND	ND	ND	ND	ND
39707	2014-08-09T10:00:00	ND	ND	ND	ND	ND	ND	ND	ND	ND	ND	ND	ND
39708	2014-08-09T11:00:00	ND	ND	ND	ND	ND	ND	ND	ND	ND	ND	ND	ND
39709	2014-08-09T12:00:00	ND	ND	ND	ND	ND	ND	ND	ND	ND	ND	ND	ND
39710	2014-08-09T13:00:00	ND	ND	ND	ND	ND	ND	ND	ND	ND	ND	ND	ND
39711	2014-08-09T14:00:00	ND	ND	ND	ND	ND	ND	ND	ND	ND	ND	ND	ND
39712	2014-08-09T15:00:00	ND	ND	ND	ND	ND	ND	ND	ND	ND	ND	ND	ND
39713	2014-08-09T16:00:00	ND	ND	ND	ND	ND	ND	ND	ND	ND	ND	ND	ND
39714	2014-08-09T17:00:00	ND	ND	ND	ND	ND	ND	ND	ND	ND	ND	ND	ND
39715	2014-08-09T18:00:00	ND	ND	ND	ND	ND	ND	ND	ND	ND	ND	ND	ND
39716	2014-08-09T19:00:00	ND	ND	ND	ND	ND	ND	ND	ND	ND	ND	ND	ND
39717	2014-08-09T20:00:00	ND	ND	ND	ND	ND	ND	ND	ND	ND	ND	ND	ND
39718	2014-08-09T21:00:00	ND	ND	ND	ND	ND	ND	ND	ND	ND	ND	ND	ND
39719	2014-08-09T22:00:00	ND	ND	ND	ND	ND	ND	ND	ND	ND	ND	ND	ND
39720	2014-08-09T23:00:00	ND	ND	ND	ND	ND	ND	ND	ND	ND	ND	ND	ND
39721	2014-08-10T00:00:00	ND	ND	ND	ND	ND	ND	ND	ND	ND	ND	ND	ND
39722	2014-08-10T01:00:00	ND	ND	ND	ND	ND	ND	ND	ND	ND	ND	ND	ND
39723	2014-08-10T02:00:00	ND	ND	ND	ND	ND	ND	ND	ND	ND	ND	ND	ND
39724	2014-08-10T03:00:00	ND	ND	ND	ND	ND	ND	ND	ND	ND	ND	ND	ND
39725	2014-08-10T04:00:00	ND	ND	ND	ND	ND	ND	ND	ND	ND	ND	ND	ND
39726	2014-08-10T05:00:00	ND	ND	ND	ND	ND	ND	ND	ND	ND	ND	ND	ND
39727	2014-08-10T06:00:00	ND	ND	ND	ND	ND	ND	ND	ND	ND	ND	ND	ND
39728	2014-08-10T07:00:00	ND	ND	ND	ND	ND	ND	ND	ND	ND	ND	ND	ND
39729	2014-08-10T08:00:00	ND	ND	ND	ND	ND	ND	ND	ND	ND	ND	ND	ND
39730	2014-08-10T09:00:00	ND	ND	ND	ND	ND	ND	ND	ND	ND	ND	ND	ND
39731	2014-08-10T10:00:00	ND	ND	ND	ND	ND	ND	ND	ND	ND	ND	ND	ND
39732	2014-08-10T11:00:00	ND	ND	ND	ND	ND	ND	ND	ND	ND	ND	ND	ND
39733	2014-08-10T12:00:00	ND	ND	ND	ND	ND	ND	ND	ND	ND	ND	ND	ND
39734	2014-08-10T13:00:00	ND	ND	ND	ND	ND	ND	ND	ND	ND	ND	ND	ND
39735	2014-08-10T14:00:00	ND	ND	ND	ND	ND	ND	ND	ND	ND	ND	ND	ND
39736	2014-08-10T15:00:00	ND	ND	ND	ND	ND	ND	ND	ND	ND	ND	ND	ND
39737	2014-08-10T16:00:00	ND	ND	ND	ND	ND	ND	ND	ND	ND	ND	ND	ND
39738	2014-08-10T17:00:00	ND	ND	ND	ND	ND	ND	ND	ND	ND	ND	ND	ND
39739	2014-08-10T18:00:00	ND	ND	ND	ND	ND	ND	ND	ND	ND	ND	ND	ND
39740	2014-08-10T19:00:00	ND	ND	ND	ND	ND	ND	ND	ND	ND	ND	ND	ND
39741	2014-08-10T20:00:00	ND	ND	ND	ND	ND	ND	ND	ND	ND	ND	ND	ND
39742	2014-08-10T21:00:00	ND	ND	ND	ND	ND	ND	ND	ND	ND	ND	ND	ND
39743	2014-08-10T22:00:00	ND	ND	ND	ND	ND	ND	ND	ND	ND	ND	ND	ND
39744	2014-08-10T23:00:00	ND	ND	ND	ND	ND	ND	ND	ND	ND	ND	ND	ND
39745	2014-08-11T00:00:00	ND	ND	ND	ND	ND	ND	ND	ND	ND	ND	ND	ND
39746	2014-08-11T01:00:00	ND	ND	ND	ND	ND	ND	ND	ND	ND	ND	ND	ND
39747	2014-08-11T02:00:00	ND	ND	ND	ND	ND	ND	ND	ND	ND	ND	ND	ND
39748	2014-08-11T03:00:00	ND	ND	ND	ND	ND	ND	ND	ND	ND	ND	ND	ND
39749	2014-08-11T04:00:00	ND	ND	ND	ND	ND	ND	ND	ND	ND	ND	ND	ND
39750	2014-08-11T05:00:00	ND	ND	ND	ND	ND	ND	ND	ND	ND	ND	ND	ND
39751	2014-08-11T06:00:00	ND	ND	ND	ND	ND	ND	ND	ND	ND	ND	ND	ND
39752	2014-08-11T07:00:00	ND	ND	ND	ND	ND	ND	ND	ND	ND	ND	ND	ND
39753	2014-08-11T08:00:00	ND	ND	ND	ND	ND	ND	ND	ND	ND	ND	ND	ND
39754	2014-08-11T09:00:00	ND	ND	ND	ND	ND	ND	ND	ND	ND	ND	ND	ND
39755	2014-08-11T10:00:00	13.1	ND	ND	ND	ND	ND	ND	ND	ND	ND	ND	ND
39756	2014-08-11T11:00:00	7.7	ND	ND	ND	ND	ND	ND	ND	ND	ND	ND	0
39757	2014-08-11T12:00:00	5.6	ND	ND	ND	ND	ND	ND	ND	ND	ND	ND	0
39758	2014-08-11T13:00:00	4.7	ND	ND	ND	ND	ND	ND	ND	ND	ND	ND	0
39759	2014-08-11T14:00:00	2.3	ND	ND	ND	ND	ND	ND	ND	ND	ND	ND	0
39760	2014-08-11T15:00:00	3.3	ND	ND	ND	ND	ND	ND	ND	ND	ND	ND	0
39761	2014-08-11T16:00:00	2.7	ND	ND	ND	ND	ND	ND	ND	ND	ND	ND	0
39762	2014-08-11T17:00:00	3.1	ND	ND	ND	ND	ND	ND	ND	ND	ND	ND	0
39763	2014-08-11T18:00:00	2.6	ND	ND	ND	ND	ND	ND	ND	ND	ND	ND	0
39764	2014-08-11T19:00:00	1.9	ND	ND	ND	ND	ND	ND	ND	ND	ND	ND	0
39765	2014-08-11T20:00:00	2.8	ND	ND	ND	ND	ND	ND	ND	ND	ND	ND	0
39766	2014-08-11T21:00:00	2.6	ND	ND	ND	ND	ND	ND	ND	ND	ND	ND	0
39767	2014-08-11T22:00:00	5.2	ND	ND	ND	ND	ND	ND	ND	ND	ND	ND	0
39768	2014-08-11T23:00:00	7.7	ND	ND	ND	ND	ND	ND	ND	ND	ND	ND	0
39769	2014-08-12T00:00:00	5.1	ND	ND	ND	ND	ND	ND	ND	ND	ND	ND	0
39770	2014-08-12T01:00:00	18.1	ND	ND	ND	ND	ND	ND	ND	ND	ND	ND	0
39771	2014-08-12T02:00:00	10	ND	ND	ND	ND	ND	ND	ND	ND	ND	ND	0
39772	2014-08-12T03:00:00	9	ND	ND	ND	ND	ND	ND	ND	ND	ND	ND	0
39773	2014-08-12T04:00:00	5.1	ND	ND	ND	ND	ND	ND	ND	ND	ND	ND	0
39774	2014-08-12T05:00:00	3.8	ND	ND	ND	ND	ND	ND	ND	ND	ND	ND	0
39775	2014-08-12T06:00:00	7.8	ND	ND	ND	ND	ND	ND	ND	ND	ND	ND	0
39776	2014-08-12T07:00:00	20.8	ND	ND	ND	ND	ND	ND	ND	ND	ND	ND	0
39777	2014-08-12T08:00:00	32	ND	ND	ND	ND	ND	ND	ND	ND	ND	ND	0
39778	2014-08-12T09:00:00	60.3	ND	ND	ND	ND	ND	ND	ND	ND	ND	ND	0
39779	2014-08-12T10:00:00	44.4	ND	ND	ND	ND	ND	ND	ND	ND	ND	ND	0
39780	2014-08-12T11:00:00	33.2	ND	ND	ND	ND	ND	ND	ND	ND	ND	ND	0
39781	2014-08-12T12:00:00	16.6	ND	ND	ND	ND	ND	ND	ND	ND	ND	ND	0
39782	2014-08-12T13:00:00	13.4	ND	ND	ND	ND	ND	ND	ND	ND	ND	ND	0
39783	2014-08-12T14:00:00	31	ND	ND	ND	ND	ND	ND	ND	ND	ND	ND	0
39784	2014-08-12T15:00:00	26.6	ND	ND	ND	ND	ND	ND	ND	ND	ND	ND	0
39785	2014-08-12T16:00:00	25.8	ND	ND	ND	ND	ND	ND	ND	ND	ND	ND	0
39786	2014-08-12T17:00:00	14.1	ND	ND	ND	ND	ND	ND	ND	ND	ND	ND	0
39787	2014-08-12T18:00:00	7.8	ND	ND	ND	ND	ND	ND	ND	ND	ND	ND	0
39788	2014-08-12T19:00:00	15.6	ND	ND	ND	ND	ND	ND	ND	ND	ND	ND	0
39789	2014-08-12T20:00:00	11.9	ND	ND	ND	ND	ND	ND	ND	ND	ND	ND	0
39790	2014-08-12T21:00:00	15.2	ND	ND	ND	ND	ND	ND	ND	ND	ND	ND	0
39791	2014-08-12T22:00:00	16.2	ND	ND	ND	ND	ND	ND	ND	ND	ND	ND	0
39792	2014-08-12T23:00:00	21.5	ND	ND	ND	ND	ND	ND	ND	ND	ND	ND	0
39793	2014-08-13T00:00:00	12.4	ND	ND	ND	ND	ND	ND	ND	ND	ND	ND	0
39794	2014-08-13T01:00:00	33.5	ND	ND	ND	ND	ND	ND	ND	ND	ND	ND	0
39795	2014-08-13T02:00:00	18.4	ND	ND	ND	ND	ND	ND	ND	ND	ND	ND	0
39796	2014-08-13T03:00:00	9.7	ND	ND	ND	ND	ND	ND	ND	ND	ND	ND	0
39797	2014-08-13T04:00:00	6.2	ND	ND	ND	ND	ND	ND	ND	ND	ND	ND	0
39798	2014-08-13T05:00:00	16.7	ND	ND	ND	ND	ND	ND	ND	ND	ND	ND	0
39799	2014-08-13T06:00:00	9.8	ND	ND	ND	ND	ND	ND	ND	ND	ND	ND	0
39800	2014-08-13T07:00:00	24.6	ND	ND	ND	ND	ND	ND	ND	ND	ND	ND	0
39801	2014-08-13T08:00:00	45.9	ND	ND	ND	ND	ND	ND	ND	ND	ND	ND	0
39802	2014-08-13T09:00:00	60.2	ND	ND	ND	ND	ND	ND	ND	ND	ND	ND	0
39803	2014-08-13T10:00:00	45.9	ND	ND	ND	ND	ND	ND	ND	ND	ND	ND	0
39804	2014-08-13T11:00:00	51.6	ND	ND	ND	ND	ND	ND	ND	ND	ND	ND	0
39805	2014-08-13T12:00:00	27.1	ND	ND	ND	ND	ND	ND	ND	ND	ND	ND	0
39806	2014-08-13T13:00:00	29.8	ND	ND	ND	ND	ND	ND	ND	ND	ND	ND	0
39807	2014-08-13T14:00:00	15.5	ND	ND	ND	ND	ND	ND	ND	ND	ND	ND	0
39808	2014-08-13T15:00:00	29.8	ND	ND	ND	ND	ND	ND	ND	ND	ND	ND	0
39809	2014-08-13T16:00:00	43.6	ND	ND	ND	ND	ND	ND	ND	ND	ND	ND	0
39810	2014-08-13T17:00:00	38.6	ND	ND	ND	ND	ND	ND	ND	ND	ND	ND	0
39811	2014-08-13T18:00:00	21.4	ND	ND	ND	ND	ND	ND	ND	ND	ND	ND	0
39812	2014-08-13T19:00:00	ND	ND	ND	ND	ND	ND	ND	ND	ND	ND	ND	0
39813	2014-08-13T20:00:00	ND	ND	ND	ND	ND	ND	ND	ND	ND	ND	ND	0
39814	2014-08-13T21:00:00	ND	ND	ND	ND	ND	ND	ND	ND	ND	ND	ND	0
39815	2014-08-13T22:00:00	ND	ND	ND	ND	ND	ND	ND	ND	ND	ND	ND	0
39816	2014-08-13T23:00:00	104.9	ND	ND	ND	ND	ND	ND	ND	ND	ND	ND	0
39817	2014-08-14T00:00:00	59.3	ND	ND	ND	ND	ND	ND	ND	ND	ND	ND	0
39818	2014-08-14T01:00:00	32.6	ND	ND	ND	ND	ND	ND	ND	ND	ND	ND	0
39819	2014-08-14T02:00:00	27.2	ND	ND	ND	ND	ND	ND	ND	ND	ND	ND	0
39820	2014-08-14T03:00:00	14.4	ND	ND	ND	ND	ND	ND	ND	ND	ND	ND	0
39821	2014-08-14T04:00:00	16	ND	ND	ND	ND	ND	ND	ND	ND	ND	ND	0
39822	2014-08-14T05:00:00	9.3	ND	ND	ND	ND	ND	ND	ND	ND	ND	ND	0
39823	2014-08-14T06:00:00	5.8	ND	ND	ND	ND	ND	ND	ND	ND	ND	ND	0
39824	2014-08-14T07:00:00	9.8	ND	ND	ND	ND	ND	ND	ND	ND	ND	ND	0
39825	2014-08-14T08:00:00	22.5	ND	ND	ND	ND	ND	ND	ND	ND	ND	ND	0
39826	2014-08-14T09:00:00	28.2	ND	ND	ND	ND	ND	ND	ND	ND	ND	ND	0
39827	2014-08-14T10:00:00	15.8	ND	ND	ND	ND	ND	ND	ND	ND	ND	ND	0
39828	2014-08-14T11:00:00	22.8	ND	ND	ND	ND	ND	ND	ND	ND	ND	ND	0
39829	2014-08-14T12:00:00	21.3	ND	ND	ND	ND	ND	ND	ND	ND	ND	ND	0
39830	2014-08-14T13:00:00	23.8	ND	ND	ND	ND	ND	ND	ND	ND	ND	ND	0
39831	2014-08-14T14:00:00	12.5	ND	ND	ND	ND	ND	ND	ND	ND	ND	ND	0
39832	2014-08-14T15:00:00	16.9	ND	ND	ND	ND	ND	ND	ND	ND	ND	ND	0
39833	2014-08-14T16:00:00	14.7	ND	ND	ND	ND	ND	ND	ND	ND	ND	ND	0
39834	2014-08-14T17:00:00	12.7	ND	ND	ND	ND	ND	ND	ND	ND	ND	ND	0
39835	2014-08-14T18:00:00	6.9	ND	ND	ND	ND	ND	ND	ND	ND	ND	ND	0
39836	2014-08-14T19:00:00	13.4	ND	ND	ND	ND	ND	ND	ND	ND	ND	ND	0
39837	2014-08-14T20:00:00	7.5	ND	ND	ND	ND	ND	ND	ND	ND	ND	ND	0
39838	2014-08-14T21:00:00	12.7	ND	ND	ND	ND	ND	ND	ND	ND	ND	ND	0
39839	2014-08-14T22:00:00	7.7	ND	ND	ND	ND	ND	ND	ND	ND	ND	ND	0
39840	2014-08-14T23:00:00	13	ND	ND	ND	ND	ND	ND	ND	ND	ND	ND	0
39841	2014-08-15T00:00:00	12.1	ND	ND	ND	ND	ND	ND	ND	ND	ND	ND	0
39842	2014-08-15T01:00:00	47.5	ND	ND	ND	ND	ND	ND	ND	ND	ND	ND	0
39843	2014-08-15T02:00:00	47.1	ND	ND	ND	ND	ND	ND	ND	ND	ND	ND	0
39844	2014-08-15T03:00:00	36.9	ND	ND	ND	ND	ND	ND	ND	ND	ND	ND	0
39845	2014-08-15T04:00:00	26.6	ND	ND	ND	ND	ND	ND	ND	ND	ND	ND	0
39846	2014-08-15T05:00:00	43.9	ND	ND	ND	ND	ND	ND	ND	ND	ND	ND	0
39847	2014-08-15T06:00:00	35.4	ND	ND	ND	ND	ND	ND	ND	ND	ND	ND	0
39848	2014-08-15T07:00:00	49.6	ND	ND	ND	ND	ND	ND	ND	ND	ND	ND	0
39849	2014-08-15T08:00:00	44.7	ND	ND	ND	ND	ND	ND	ND	ND	ND	ND	0
39850	2014-08-15T09:00:00	ND	ND	ND	ND	ND	ND	ND	ND	ND	ND	ND	0
39851	2014-08-15T10:00:00	ND	ND	ND	ND	ND	ND	ND	ND	ND	ND	ND	0
39852	2014-08-15T11:00:00	ND	ND	ND	ND	ND	ND	ND	ND	ND	ND	ND	0
39853	2014-08-15T12:00:00	ND	ND	ND	ND	ND	ND	ND	ND	ND	ND	ND	0
39854	2014-08-15T13:00:00	ND	ND	ND	ND	ND	ND	ND	ND	ND	ND	ND	0
39855	2014-08-15T14:00:00	ND	ND	ND	ND	ND	ND	ND	ND	ND	ND	ND	0
39856	2014-08-15T15:00:00	ND	ND	ND	ND	ND	ND	ND	ND	ND	ND	ND	0
39857	2014-08-15T16:00:00	ND	ND	ND	ND	ND	ND	ND	ND	ND	ND	ND	0
39858	2014-08-15T17:00:00	ND	ND	ND	ND	ND	ND	ND	ND	ND	ND	ND	0
39859	2014-08-15T18:00:00	ND	ND	ND	ND	ND	ND	ND	ND	ND	ND	ND	0
39860	2014-08-15T19:00:00	ND	ND	ND	ND	ND	ND	ND	ND	ND	ND	ND	0
39861	2014-08-15T20:00:00	ND	ND	ND	ND	ND	ND	ND	ND	ND	ND	ND	0
39862	2014-08-15T21:00:00	ND	ND	ND	ND	ND	ND	ND	ND	ND	ND	ND	0
39863	2014-08-15T22:00:00	ND	ND	ND	ND	ND	ND	ND	ND	ND	ND	ND	0
39864	2014-08-15T23:00:00	ND	ND	ND	ND	ND	ND	ND	ND	ND	ND	ND	0
39865	2014-08-16T00:00:00	ND	ND	ND	ND	ND	ND	ND	ND	ND	ND	ND	0
39866	2014-08-16T01:00:00	ND	ND	ND	ND	ND	ND	ND	ND	ND	ND	ND	0
39867	2014-08-16T02:00:00	ND	ND	ND	ND	ND	ND	ND	ND	ND	ND	ND	0
39868	2014-08-16T03:00:00	123	ND	ND	ND	ND	ND	ND	ND	ND	ND	ND	0
39869	2014-08-16T04:00:00	62.6	ND	ND	ND	ND	ND	ND	ND	ND	ND	ND	0
39870	2014-08-16T05:00:00	67.1	ND	ND	ND	ND	ND	ND	ND	ND	ND	ND	0
39871	2014-08-16T06:00:00	56.8	ND	ND	ND	ND	ND	ND	ND	ND	ND	ND	0
39872	2014-08-16T07:00:00	66.1	ND	ND	ND	ND	ND	ND	ND	ND	ND	ND	0
39873	2014-08-16T08:00:00	83.6	ND	ND	ND	ND	ND	ND	ND	ND	ND	ND	0
39874	2014-08-16T09:00:00	101.6	ND	ND	ND	ND	ND	ND	ND	ND	ND	ND	0
39875	2014-08-16T10:00:00	86.5	ND	ND	ND	ND	ND	ND	ND	ND	ND	ND	0
39876	2014-08-16T11:00:00	98.4	ND	ND	ND	ND	ND	ND	ND	ND	ND	ND	0
39877	2014-08-16T12:00:00	63.1	ND	ND	ND	ND	ND	ND	ND	ND	ND	ND	0
39878	2014-08-16T13:00:00	54.5	ND	ND	ND	ND	ND	ND	ND	ND	ND	ND	0
39879	2014-08-16T14:00:00	43.7	ND	ND	ND	ND	ND	ND	ND	ND	ND	ND	0
39880	2014-08-16T15:00:00	29.4	ND	ND	ND	ND	ND	ND	ND	ND	ND	ND	0
39881	2014-08-16T16:00:00	16.3	ND	ND	ND	ND	ND	ND	ND	ND	ND	ND	0
39882	2014-08-16T17:00:00	24.3	ND	ND	ND	ND	ND	ND	ND	ND	ND	ND	0
39883	2014-08-16T18:00:00	15.6	ND	ND	ND	ND	ND	ND	ND	ND	ND	ND	0
39884	2014-08-16T19:00:00	19.6	ND	ND	ND	ND	ND	ND	ND	ND	ND	ND	0
39885	2014-08-16T20:00:00	ND	ND	ND	ND	ND	ND	ND	ND	ND	ND	ND	ND
39886	2014-08-16T21:00:00	ND	ND	ND	ND	ND	ND	ND	ND	ND	ND	ND	ND
39887	2014-08-16T22:00:00	ND	ND	ND	ND	ND	ND	ND	ND	ND	ND	ND	ND
39888	2014-08-16T23:00:00	ND	ND	ND	ND	ND	ND	ND	ND	ND	ND	ND	ND
39889	2014-08-17T00:00:00	ND	ND	ND	ND	ND	ND	ND	ND	ND	ND	ND	ND
39890	2014-08-17T01:00:00	ND	ND	ND	ND	ND	ND	ND	ND	ND	ND	ND	ND
39891	2014-08-17T02:00:00	ND	ND	ND	ND	ND	ND	ND	ND	ND	ND	ND	ND
39892	2014-08-17T03:00:00	ND	ND	ND	ND	ND	ND	ND	ND	ND	ND	ND	ND
39893	2014-08-17T04:00:00	ND	ND	ND	ND	ND	ND	ND	ND	ND	ND	ND	ND
39894	2014-08-17T05:00:00	ND	ND	ND	ND	ND	ND	ND	ND	ND	ND	ND	ND
39895	2014-08-17T06:00:00	ND	ND	ND	ND	ND	ND	ND	ND	ND	ND	ND	ND
39896	2014-08-17T07:00:00	ND	ND	ND	ND	ND	ND	ND	ND	ND	ND	ND	ND
39897	2014-08-17T08:00:00	ND	ND	ND	ND	ND	ND	ND	ND	ND	ND	ND	ND
39898	2014-08-17T09:00:00	ND	ND	ND	ND	ND	ND	ND	ND	ND	ND	ND	ND
39899	2014-08-17T10:00:00	ND	ND	ND	ND	ND	ND	ND	ND	ND	ND	ND	ND
39900	2014-08-17T11:00:00	ND	ND	ND	ND	ND	ND	ND	ND	ND	ND	ND	ND
39901	2014-08-17T12:00:00	ND	ND	ND	ND	ND	ND	ND	ND	ND	ND	ND	ND
39902	2014-08-17T13:00:00	ND	ND	ND	ND	ND	ND	ND	ND	ND	ND	ND	ND
39903	2014-08-17T14:00:00	ND	ND	ND	ND	ND	ND	ND	ND	ND	ND	ND	ND
39904	2014-08-17T15:00:00	ND	ND	ND	ND	ND	ND	ND	ND	ND	ND	ND	ND
39905	2014-08-17T16:00:00	ND	ND	ND	ND	ND	ND	ND	ND	ND	ND	ND	ND
39906	2014-08-17T17:00:00	ND	ND	ND	ND	ND	ND	ND	ND	ND	ND	ND	ND
39907	2014-08-17T18:00:00	ND	ND	ND	ND	ND	ND	ND	ND	ND	ND	ND	ND
39908	2014-08-17T19:00:00	ND	ND	ND	ND	ND	ND	ND	ND	ND	ND	ND	ND
39909	2014-08-17T20:00:00	ND	ND	ND	ND	ND	ND	ND	ND	ND	ND	ND	ND
39910	2014-08-17T21:00:00	ND	ND	ND	ND	ND	ND	ND	ND	ND	ND	ND	ND
39911	2014-08-17T22:00:00	ND	ND	ND	ND	ND	ND	ND	ND	ND	ND	ND	ND
39912	2014-08-17T23:00:00	ND	ND	ND	ND	ND	ND	ND	ND	ND	ND	ND	ND
39913	2014-08-18T00:00:00	ND	ND	ND	ND	ND	ND	ND	ND	ND	ND	ND	ND
39914	2014-08-18T01:00:00	ND	ND	ND	ND	ND	ND	ND	ND	ND	ND	ND	ND
39915	2014-08-18T02:00:00	ND	ND	ND	ND	ND	ND	ND	ND	ND	ND	ND	ND
39916	2014-08-18T03:00:00	ND	ND	ND	ND	ND	ND	ND	ND	ND	ND	ND	ND
39917	2014-08-18T04:00:00	ND	ND	ND	ND	ND	ND	ND	ND	ND	ND	ND	ND
39918	2014-08-18T05:00:00	ND	ND	ND	ND	ND	ND	ND	ND	ND	ND	ND	ND
39919	2014-08-18T06:00:00	ND	ND	ND	ND	ND	ND	ND	ND	ND	ND	ND	ND
39920	2014-08-18T07:00:00	ND	ND	ND	ND	ND	ND	ND	ND	ND	ND	ND	ND
39921	2014-08-18T08:00:00	ND	ND	ND	ND	ND	ND	ND	ND	ND	ND	ND	ND
39922	2014-08-18T09:00:00	ND	ND	ND	ND	ND	ND	ND	ND	ND	ND	ND	ND
39923	2014-08-18T10:00:00	ND	ND	ND	ND	ND	ND	ND	ND	ND	ND	ND	ND
39924	2014-08-18T11:00:00	ND	ND	ND	ND	ND	ND	ND	ND	ND	ND	ND	ND
39925	2014-08-18T12:00:00	ND	ND	ND	ND	ND	ND	ND	ND	ND	ND	ND	ND
39926	2014-08-18T13:00:00	ND	ND	ND	ND	ND	ND	ND	ND	ND	ND	ND	ND
39927	2014-08-18T14:00:00	ND	ND	ND	ND	ND	ND	ND	ND	ND	ND	ND	ND
39928	2014-08-18T15:00:00	ND	ND	ND	ND	ND	ND	ND	ND	ND	ND	ND	ND
39929	2014-08-18T16:00:00	ND	ND	ND	ND	ND	ND	ND	ND	ND	ND	ND	ND
39930	2014-08-18T17:00:00	ND	ND	ND	ND	ND	ND	ND	ND	ND	ND	ND	ND
39931	2014-08-18T18:00:00	ND	ND	ND	ND	ND	ND	ND	ND	ND	ND	ND	ND
39932	2014-08-18T19:00:00	ND	ND	ND	ND	ND	ND	ND	ND	ND	ND	ND	ND
39933	2014-08-18T20:00:00	ND	ND	ND	ND	ND	ND	ND	ND	ND	ND	ND	ND
39934	2014-08-18T21:00:00	ND	ND	ND	ND	ND	ND	ND	ND	ND	ND	ND	ND
39935	2014-08-18T22:00:00	ND	ND	ND	ND	ND	ND	ND	ND	ND	ND	ND	ND
39936	2014-08-18T23:00:00	ND	ND	ND	ND	ND	ND	ND	ND	ND	ND	ND	ND
39937	2014-08-19T00:00:00	ND	ND	ND	ND	ND	ND	ND	ND	ND	ND	ND	ND
39938	2014-08-19T01:00:00	ND	ND	ND	ND	ND	ND	ND	ND	ND	ND	ND	ND
39939	2014-08-19T02:00:00	ND	ND	ND	ND	ND	ND	ND	ND	ND	ND	ND	ND
39940	2014-08-19T03:00:00	ND	ND	ND	ND	ND	ND	ND	ND	ND	ND	ND	ND
39941	2014-08-19T04:00:00	ND	ND	ND	ND	ND	ND	ND	ND	ND	ND	ND	ND
39942	2014-08-19T05:00:00	ND	ND	ND	ND	ND	ND	ND	ND	ND	ND	ND	ND
39943	2014-08-19T06:00:00	ND	ND	ND	ND	ND	ND	ND	ND	ND	ND	ND	ND
39944	2014-08-19T07:00:00	ND	ND	ND	ND	ND	ND	ND	ND	ND	ND	ND	ND
39945	2014-08-19T08:00:00	ND	ND	ND	ND	ND	ND	ND	ND	ND	ND	ND	ND
39946	2014-08-19T09:00:00	ND	ND	ND	ND	ND	ND	ND	ND	ND	ND	ND	ND
39947	2014-08-19T10:00:00	ND	ND	ND	ND	ND	ND	ND	ND	ND	ND	ND	ND
39948	2014-08-19T11:00:00	ND	ND	ND	ND	ND	ND	ND	ND	ND	ND	ND	ND
39949	2014-08-19T12:00:00	ND	ND	ND	ND	ND	ND	ND	ND	ND	ND	ND	ND
39950	2014-08-19T13:00:00	ND	ND	ND	ND	ND	ND	ND	ND	ND	ND	ND	ND
39951	2014-08-19T14:00:00	ND	ND	ND	ND	ND	ND	ND	ND	ND	ND	ND	ND
39952	2014-08-19T15:00:00	3	ND	ND	ND	ND	ND	ND	ND	ND	ND	ND	ND
39953	2014-08-19T16:00:00	2.3	ND	ND	ND	ND	ND	ND	ND	ND	ND	ND	0
39954	2014-08-19T17:00:00	17.1	ND	ND	ND	ND	ND	ND	ND	ND	ND	ND	0
39955	2014-08-19T18:00:00	32	ND	ND	ND	ND	ND	ND	ND	ND	ND	ND	0
39956	2014-08-19T19:00:00	25.5	ND	ND	ND	ND	ND	ND	ND	ND	ND	ND	0
39957	2014-08-19T20:00:00	14.4	ND	ND	ND	ND	ND	ND	ND	ND	ND	ND	0
39958	2014-08-19T21:00:00	8.8	ND	ND	ND	ND	ND	ND	ND	ND	ND	ND	0
39959	2014-08-19T22:00:00	6.1	ND	ND	ND	ND	ND	ND	ND	ND	ND	ND	0
39960	2014-08-19T23:00:00	4.7	ND	ND	ND	ND	ND	ND	ND	ND	ND	ND	0
39961	2014-08-20T00:00:00	4	ND	ND	ND	ND	ND	ND	ND	ND	ND	ND	0
39962	2014-08-20T01:00:00	17.2	ND	ND	ND	ND	ND	ND	ND	ND	ND	ND	0
39963	2014-08-20T02:00:00	9.6	ND	ND	ND	ND	ND	ND	ND	ND	ND	ND	0
39964	2014-08-20T03:00:00	12.5	ND	ND	ND	ND	ND	ND	ND	ND	ND	ND	0
39965	2014-08-20T04:00:00	9.1	ND	ND	ND	ND	ND	ND	ND	ND	ND	ND	0
39966	2014-08-20T05:00:00	24.8	ND	ND	ND	ND	ND	ND	ND	ND	ND	ND	0
39967	2014-08-20T06:00:00	13.6	ND	ND	ND	ND	ND	ND	ND	ND	ND	ND	0
39968	2014-08-20T07:00:00	20.9	ND	ND	ND	ND	ND	ND	ND	ND	ND	ND	0
39969	2014-08-20T08:00:00	12.6	ND	ND	ND	ND	ND	ND	ND	ND	ND	ND	0
39970	2014-08-20T09:00:00	33.8	ND	ND	ND	ND	ND	ND	ND	ND	ND	ND	0
39971	2014-08-20T10:00:00	18	ND	ND	ND	ND	ND	ND	ND	ND	ND	ND	0
39972	2014-08-20T11:00:00	21.2	ND	ND	ND	ND	ND	ND	ND	ND	ND	ND	0
39973	2014-08-20T12:00:00	11.4	ND	ND	ND	ND	ND	ND	ND	ND	ND	ND	0
39974	2014-08-20T13:00:00	22.1	ND	ND	ND	ND	ND	ND	ND	ND	ND	ND	0
39975	2014-08-20T14:00:00	14.8	ND	ND	ND	ND	ND	ND	ND	ND	ND	ND	0
39976	2014-08-20T15:00:00	24.7	ND	ND	ND	ND	ND	ND	ND	ND	ND	ND	0
39977	2014-08-20T16:00:00	15.3	ND	ND	ND	ND	ND	ND	ND	ND	ND	ND	0
39978	2014-08-20T17:00:00	30.3	ND	ND	ND	ND	ND	ND	ND	ND	ND	ND	0
39979	2014-08-20T18:00:00	34.3	ND	ND	ND	ND	ND	ND	ND	ND	ND	ND	0
39980	2014-08-20T19:00:00	44.7	ND	ND	ND	ND	ND	ND	ND	ND	ND	ND	0
39981	2014-08-20T20:00:00	31.5	ND	ND	ND	ND	ND	ND	ND	ND	ND	ND	0
39982	2014-08-20T21:00:00	16.4	ND	ND	ND	ND	ND	ND	ND	ND	ND	ND	0
39983	2014-08-20T22:00:00	9.6	ND	ND	ND	ND	ND	ND	ND	ND	ND	ND	0
39984	2014-08-20T23:00:00	6.2	ND	ND	ND	ND	ND	ND	ND	ND	ND	ND	0
39985	2014-08-21T00:00:00	7.3	ND	ND	ND	ND	ND	ND	ND	ND	ND	ND	0
39986	2014-08-21T01:00:00	12.9	ND	ND	ND	ND	ND	ND	ND	ND	ND	ND	0
39987	2014-08-21T02:00:00	10.6	ND	ND	ND	ND	ND	ND	ND	ND	ND	ND	0
39988	2014-08-21T03:00:00	14.6	ND	ND	ND	ND	ND	ND	ND	ND	ND	ND	0
39989	2014-08-21T04:00:00	7.8	ND	ND	ND	ND	ND	ND	ND	ND	ND	ND	0
39990	2014-08-21T05:00:00	25.8	ND	ND	ND	ND	ND	ND	ND	ND	ND	ND	0
39991	2014-08-21T06:00:00	13.9	ND	ND	ND	ND	ND	ND	ND	ND	ND	ND	0
39992	2014-08-21T07:00:00	32.4	ND	ND	ND	ND	ND	ND	ND	ND	ND	ND	0
39993	2014-08-21T08:00:00	49.2	ND	ND	ND	ND	ND	ND	ND	ND	ND	ND	0
39994	2014-08-21T09:00:00	80.2	ND	ND	ND	ND	ND	ND	ND	ND	ND	ND	0
39995	2014-08-21T10:00:00	52	ND	ND	ND	ND	ND	ND	ND	ND	ND	ND	0
39996	2014-08-21T11:00:00	38.3	ND	ND	ND	ND	ND	ND	ND	ND	ND	ND	0
39997	2014-08-21T12:00:00	20.4	ND	ND	ND	ND	ND	ND	ND	ND	ND	ND	0
39998	2014-08-21T13:00:00	27.3	ND	ND	ND	ND	ND	ND	ND	ND	ND	ND	0
39999	2014-08-21T14:00:00	15.7	ND	ND	ND	ND	ND	ND	ND	ND	ND	ND	0
40000	2014-08-21T15:00:00	38.2	ND	ND	ND	ND	ND	ND	ND	ND	ND	ND	0
40001	2014-08-21T16:00:00	46.2	ND	ND	ND	ND	ND	ND	ND	ND	ND	ND	0
40002	2014-08-21T17:00:00	43.9	ND	ND	ND	ND	ND	ND	ND	ND	ND	ND	0
40003	2014-08-21T18:00:00	26.8	ND	ND	ND	ND	ND	ND	ND	ND	ND	ND	0
40004	2014-08-21T19:00:00	19	ND	ND	ND	ND	ND	ND	ND	ND	ND	ND	0
40005	2014-08-21T20:00:00	11.1	ND	ND	ND	ND	ND	ND	ND	ND	ND	ND	0
40006	2014-08-21T21:00:00	7.4	ND	ND	ND	ND	ND	ND	ND	ND	ND	ND	0
40007	2014-08-21T22:00:00	5.9	ND	ND	ND	ND	ND	ND	ND	ND	ND	ND	0
40008	2014-08-21T23:00:00	4.5	ND	ND	ND	ND	ND	ND	ND	ND	ND	ND	0
40009	2014-08-22T00:00:00	3.2	ND	ND	ND	ND	ND	ND	ND	ND	ND	ND	0
40010	2014-08-22T01:00:00	21.1	ND	ND	ND	ND	ND	ND	ND	ND	ND	ND	0
40011	2014-08-22T02:00:00	30.9	ND	ND	ND	ND	ND	ND	ND	ND	ND	ND	0
40012	2014-08-22T03:00:00	29.1	ND	ND	ND	ND	ND	ND	ND	ND	ND	ND	0
40013	2014-08-22T04:00:00	24.9	ND	ND	ND	ND	ND	ND	ND	ND	ND	ND	0
40014	2014-08-22T05:00:00	72.4	ND	ND	ND	ND	ND	ND	ND	ND	ND	ND	0
40015	2014-08-22T06:00:00	38.6	ND	ND	ND	ND	ND	ND	ND	ND	ND	ND	0
40016	2014-08-22T07:00:00	53.8	ND	ND	ND	ND	ND	ND	ND	ND	ND	ND	0
40017	2014-08-22T08:00:00	56.2	ND	ND	ND	ND	ND	ND	ND	ND	ND	ND	0
40018	2014-08-22T09:00:00	82.8	ND	ND	ND	ND	ND	ND	ND	ND	ND	ND	0
40019	2014-08-22T10:00:00	90	ND	ND	ND	ND	ND	ND	ND	ND	ND	ND	0
40020	2014-08-22T11:00:00	87.3	ND	ND	ND	ND	ND	ND	ND	ND	ND	ND	0
40021	2014-08-22T12:00:00	50.4	ND	ND	ND	ND	ND	ND	ND	ND	ND	ND	0
40022	2014-08-22T13:00:00	67.8	ND	ND	ND	ND	ND	ND	ND	ND	ND	ND	0
40023	2014-08-22T14:00:00	35.7	ND	ND	ND	ND	ND	ND	ND	ND	ND	ND	0
40024	2014-08-22T15:00:00	ND	ND	ND	ND	ND	ND	ND	ND	ND	ND	ND	0
40025	2014-08-22T16:00:00	ND	ND	ND	ND	ND	ND	ND	ND	ND	ND	ND	0
40026	2014-08-22T17:00:00	ND	ND	ND	ND	ND	ND	ND	ND	ND	ND	ND	0
40027	2014-08-22T18:00:00	ND	ND	ND	ND	ND	ND	ND	ND	ND	ND	ND	0
40028	2014-08-22T19:00:00	ND	ND	ND	ND	ND	ND	ND	ND	ND	ND	ND	0
40029	2014-08-22T20:00:00	ND	ND	ND	ND	ND	ND	ND	ND	ND	ND	ND	0
40030	2014-08-22T21:00:00	ND	ND	ND	ND	ND	ND	ND	ND	ND	ND	ND	0
40031	2014-08-22T22:00:00	ND	ND	ND	ND	ND	ND	ND	ND	ND	ND	ND	0
40032	2014-08-22T23:00:00	ND	ND	ND	ND	ND	ND	ND	ND	ND	ND	ND	0
40033	2014-08-23T00:00:00	79	ND	ND	ND	ND	ND	ND	ND	ND	ND	ND	0
40034	2014-08-23T01:00:00	39.5	ND	ND	ND	ND	ND	ND	ND	ND	ND	ND	0
40035	2014-08-23T02:00:00	20.4	ND	ND	ND	ND	ND	ND	ND	ND	ND	ND	0
40036	2014-08-23T03:00:00	28.1	ND	ND	ND	ND	ND	ND	ND	ND	ND	ND	0
40037	2014-08-23T04:00:00	15.4	ND	ND	ND	ND	ND	ND	ND	ND	ND	ND	0
40038	2014-08-23T05:00:00	26	ND	ND	ND	ND	ND	ND	ND	ND	ND	ND	0
40039	2014-08-23T06:00:00	27.6	ND	ND	ND	ND	ND	ND	ND	ND	ND	ND	0
40040	2014-08-23T07:00:00	29.9	ND	ND	ND	ND	ND	ND	ND	ND	ND	ND	0
40041	2014-08-23T08:00:00	20.6	ND	ND	ND	ND	ND	ND	ND	ND	ND	ND	0
40042	2014-08-23T09:00:00	58.6	ND	ND	ND	ND	ND	ND	ND	ND	ND	ND	0
40043	2014-08-23T10:00:00	41.1	ND	ND	ND	ND	ND	ND	ND	ND	ND	ND	0
40044	2014-08-23T11:00:00	46.5	ND	ND	ND	ND	ND	ND	ND	ND	ND	ND	0
40045	2014-08-23T12:00:00	31.5	ND	ND	ND	ND	ND	ND	ND	ND	ND	ND	0
40046	2014-08-23T13:00:00	33.8	ND	ND	ND	ND	ND	ND	ND	ND	ND	ND	0
40047	2014-08-23T14:00:00	19	ND	ND	ND	ND	ND	ND	ND	ND	ND	ND	0
40048	2014-08-23T15:00:00	37.9	ND	ND	ND	ND	ND	ND	ND	ND	ND	ND	0
40049	2014-08-23T16:00:00	24.8	ND	ND	ND	ND	ND	ND	ND	ND	ND	ND	0
40050	2014-08-23T17:00:00	38.2	ND	ND	ND	ND	ND	ND	ND	ND	ND	ND	0
40051	2014-08-23T18:00:00	27.3	ND	ND	ND	ND	ND	ND	ND	ND	ND	ND	0
40052	2014-08-23T19:00:00	14.1	ND	ND	ND	ND	ND	ND	ND	ND	ND	ND	0
40053	2014-08-23T20:00:00	ND	ND	ND	ND	ND	ND	ND	ND	ND	ND	ND	0
40054	2014-08-23T21:00:00	ND	ND	ND	ND	ND	ND	ND	ND	ND	ND	ND	0
40055	2014-08-23T22:00:00	ND	ND	ND	ND	ND	ND	ND	ND	ND	ND	ND	0
40056	2014-08-23T23:00:00	ND	ND	ND	ND	ND	ND	ND	ND	ND	ND	ND	0
40057	2014-08-24T00:00:00	ND	ND	ND	ND	ND	ND	ND	ND	ND	ND	ND	0
40058	2014-08-24T01:00:00	ND	ND	ND	ND	ND	ND	ND	ND	ND	ND	ND	0
40059	2014-08-24T02:00:00	89.8	ND	ND	ND	ND	ND	ND	ND	ND	ND	ND	0
40060	2014-08-24T03:00:00	71.5	ND	ND	ND	ND	ND	ND	ND	ND	ND	ND	0
40061	2014-08-24T04:00:00	37.7	ND	ND	ND	ND	ND	ND	ND	ND	ND	ND	0
40062	2014-08-24T05:00:00	44.9	ND	ND	ND	ND	ND	ND	ND	ND	ND	ND	0
40063	2014-08-24T06:00:00	31.3	ND	ND	ND	ND	ND	ND	ND	ND	ND	ND	0
40064	2014-08-24T07:00:00	40.7	ND	ND	ND	ND	ND	ND	ND	ND	ND	ND	0
40065	2014-08-24T08:00:00	30.1	ND	ND	ND	ND	ND	ND	ND	ND	ND	ND	0
40066	2014-08-24T09:00:00	28.8	ND	ND	ND	ND	ND	ND	ND	ND	ND	ND	0
40067	2014-08-24T10:00:00	29.8	ND	ND	ND	ND	ND	ND	ND	ND	ND	ND	0
40068	2014-08-24T11:00:00	25.8	ND	ND	ND	ND	ND	ND	ND	ND	ND	ND	0
40069	2014-08-24T12:00:00	23.2	ND	ND	ND	ND	ND	ND	ND	ND	ND	ND	0
40070	2014-08-24T13:00:00	27	ND	ND	ND	ND	ND	ND	ND	ND	ND	ND	0
40071	2014-08-24T14:00:00	14	ND	ND	ND	ND	ND	ND	ND	ND	ND	ND	0
40072	2014-08-24T15:00:00	12.9	ND	ND	ND	ND	ND	ND	ND	ND	ND	ND	0
40073	2014-08-24T16:00:00	8.2	ND	ND	ND	ND	ND	ND	ND	ND	ND	ND	0
40074	2014-08-24T17:00:00	4.8	ND	ND	ND	ND	ND	ND	ND	ND	ND	ND	0
40075	2014-08-24T18:00:00	4.3	ND	ND	ND	ND	ND	ND	ND	ND	ND	ND	0
40076	2014-08-24T19:00:00	7	ND	ND	ND	ND	ND	ND	ND	ND	ND	ND	0
40077	2014-08-24T20:00:00	4.6	ND	ND	ND	ND	ND	ND	ND	ND	ND	ND	0
40078	2014-08-24T21:00:00	6.6	ND	ND	ND	ND	ND	ND	ND	ND	ND	ND	0
40079	2014-08-24T22:00:00	3.9	ND	ND	ND	ND	ND	ND	ND	ND	ND	ND	0
40080	2014-08-24T23:00:00	3.7	ND	ND	ND	ND	ND	ND	ND	ND	ND	ND	0
40081	2014-08-25T00:00:00	3.6	ND	ND	ND	ND	ND	ND	ND	ND	ND	ND	0
40082	2014-08-25T01:00:00	2.9	ND	ND	ND	ND	ND	ND	ND	ND	ND	ND	0
40083	2014-08-25T02:00:00	2.6	ND	ND	ND	ND	ND	ND	ND	ND	ND	ND	0
40084	2014-08-25T03:00:00	9.2	ND	ND	ND	ND	ND	ND	ND	ND	ND	ND	0
40085	2014-08-25T04:00:00	9.8	ND	ND	ND	ND	ND	ND	ND	ND	ND	ND	0
40086	2014-08-25T05:00:00	17.6	ND	ND	ND	ND	ND	ND	ND	ND	ND	ND	0
40087	2014-08-25T06:00:00	20.2	ND	ND	ND	ND	ND	ND	ND	ND	ND	ND	0
40088	2014-08-25T07:00:00	46.7	ND	ND	ND	ND	ND	ND	ND	ND	ND	ND	0
40089	2014-08-25T08:00:00	43.4	ND	ND	ND	ND	ND	ND	ND	ND	ND	ND	0
40090	2014-08-25T09:00:00	72.7	ND	ND	ND	ND	ND	ND	ND	ND	ND	ND	2.29
40091	2014-08-25T10:00:00	52.7	ND	ND	ND	ND	ND	ND	ND	ND	ND	ND	0
40092	2014-08-25T11:00:00	39.1	ND	ND	ND	ND	ND	ND	ND	ND	ND	ND	0
40093	2014-08-25T12:00:00	30.3	ND	ND	ND	ND	ND	ND	ND	ND	ND	ND	0
40094	2014-08-25T13:00:00	54.2	ND	ND	ND	ND	ND	ND	ND	ND	ND	ND	0
40095	2014-08-25T14:00:00	41.6	ND	ND	ND	ND	ND	ND	ND	ND	ND	ND	0
40096	2014-08-25T15:00:00	33.8	ND	ND	ND	ND	ND	ND	ND	ND	ND	ND	0
40097	2014-08-25T16:00:00	18.6	ND	ND	ND	ND	ND	ND	ND	ND	ND	ND	0
40098	2014-08-25T17:00:00	11.2	ND	ND	ND	ND	ND	ND	ND	ND	ND	ND	0
40099	2014-08-25T18:00:00	6.1	ND	ND	ND	ND	ND	ND	ND	ND	ND	ND	0
40100	2014-08-25T19:00:00	22.4	ND	ND	ND	ND	ND	ND	ND	ND	ND	ND	0
40101	2014-08-25T20:00:00	15.4	ND	ND	ND	ND	ND	ND	ND	ND	ND	ND	0
40102	2014-08-25T21:00:00	24.1	ND	ND	ND	ND	ND	ND	ND	ND	ND	ND	0
40103	2014-08-25T22:00:00	13.7	ND	ND	ND	ND	ND	ND	ND	ND	ND	ND	0
40104	2014-08-25T23:00:00	23.9	ND	ND	ND	ND	ND	ND	ND	ND	ND	ND	0
40105	2014-08-26T00:00:00	16.7	ND	ND	ND	ND	ND	ND	ND	ND	ND	ND	0
40106	2014-08-26T01:00:00	ND	ND	ND	ND	ND	ND	ND	ND	ND	ND	ND	0
40107	2014-08-26T02:00:00	ND	ND	ND	ND	ND	ND	ND	ND	ND	ND	ND	0
40108	2014-08-26T03:00:00	ND	ND	ND	ND	ND	ND	ND	ND	ND	ND	ND	0
40109	2014-08-26T04:00:00	ND	ND	ND	ND	ND	ND	ND	ND	ND	ND	ND	0
40110	2014-08-26T05:00:00	ND	ND	ND	ND	ND	ND	ND	ND	ND	ND	ND	0
40111	2014-08-26T06:00:00	ND	ND	ND	ND	ND	ND	ND	ND	ND	ND	ND	0
40112	2014-08-26T07:00:00	ND	ND	ND	ND	ND	ND	ND	ND	ND	ND	ND	0
40113	2014-08-26T08:00:00	ND	ND	ND	ND	ND	ND	ND	ND	ND	ND	ND	0
40114	2014-08-26T09:00:00	ND	ND	ND	ND	ND	ND	ND	ND	ND	ND	ND	0
40115	2014-08-26T10:00:00	ND	ND	ND	ND	ND	ND	ND	ND	ND	ND	ND	0
40116	2014-08-26T11:00:00	ND	ND	ND	ND	ND	ND	ND	ND	ND	ND	ND	0
40117	2014-08-26T12:00:00	ND	ND	ND	ND	ND	ND	ND	ND	ND	ND	ND	0
40118	2014-08-26T13:00:00	ND	ND	ND	ND	ND	ND	ND	ND	ND	ND	ND	0
40119	2014-08-26T14:00:00	62.2	ND	ND	ND	ND	ND	ND	ND	ND	ND	ND	0
40120	2014-08-26T15:00:00	32.1	ND	ND	ND	ND	ND	ND	ND	ND	ND	ND	0
40121	2014-08-26T16:00:00	18	ND	ND	ND	ND	ND	ND	ND	ND	ND	ND	0
40122	2014-08-26T17:00:00	10.7	ND	ND	ND	ND	ND	ND	ND	ND	ND	ND	0
40123	2014-08-26T18:00:00	6.2	ND	ND	ND	ND	ND	ND	ND	ND	ND	ND	0
40124	2014-08-26T19:00:00	9.1	ND	ND	ND	ND	ND	ND	ND	ND	ND	ND	0
40125	2014-08-26T20:00:00	5.3	ND	ND	ND	ND	ND	ND	ND	ND	ND	ND	0
40126	2014-08-26T21:00:00	4.8	ND	ND	ND	ND	ND	ND	ND	ND	ND	ND	0
40127	2014-08-26T22:00:00	2.4	ND	ND	ND	ND	ND	ND	ND	ND	ND	ND	2.03
40128	2014-08-26T23:00:00	1.2	ND	ND	ND	ND	ND	ND	ND	ND	ND	ND	1.52
40129	2014-08-27T00:00:00	5.2	ND	ND	ND	ND	ND	ND	ND	ND	ND	ND	0.25
40130	2014-08-27T01:00:00	4.4	ND	ND	ND	ND	ND	ND	ND	ND	ND	ND	0
40131	2014-08-27T02:00:00	3.6	ND	ND	ND	ND	ND	ND	ND	ND	ND	ND	0.25
40132	2014-08-27T03:00:00	2.6	ND	ND	ND	ND	ND	ND	ND	ND	ND	ND	0
40133	2014-08-27T04:00:00	2.7	ND	ND	ND	ND	ND	ND	ND	ND	ND	ND	0
40134	2014-08-27T05:00:00	ND	ND	ND	ND	ND	ND	ND	ND	ND	ND	ND	0
40135	2014-08-27T06:00:00	ND	ND	ND	ND	ND	ND	ND	ND	ND	ND	ND	0
40136	2014-08-27T07:00:00	ND	ND	ND	ND	ND	ND	ND	ND	ND	ND	ND	0
40137	2014-08-27T08:00:00	ND	ND	ND	ND	ND	ND	ND	ND	ND	ND	ND	0
40138	2014-08-27T09:00:00	ND	ND	ND	ND	ND	ND	ND	ND	ND	ND	ND	0
40139	2014-08-27T10:00:00	ND	ND	ND	ND	ND	ND	ND	ND	ND	ND	ND	0
40140	2014-08-27T11:00:00	ND	ND	ND	ND	ND	ND	ND	ND	ND	ND	ND	0
40141	2014-08-27T12:00:00	ND	ND	ND	ND	ND	ND	ND	ND	ND	ND	ND	0
40142	2014-08-27T13:00:00	ND	ND	ND	ND	ND	ND	ND	ND	ND	ND	ND	0
40143	2014-08-27T14:00:00	ND	ND	ND	ND	ND	ND	ND	ND	ND	ND	ND	0
40144	2014-08-27T15:00:00	ND	ND	ND	ND	ND	ND	ND	ND	ND	ND	ND	0
40145	2014-08-27T16:00:00	ND	ND	ND	ND	ND	ND	ND	ND	ND	ND	ND	0
40146	2014-08-27T17:00:00	ND	ND	ND	ND	ND	ND	ND	ND	ND	ND	ND	0
40147	2014-08-27T18:00:00	ND	ND	ND	ND	ND	ND	ND	ND	ND	ND	ND	0
40148	2014-08-27T19:00:00	ND	ND	ND	ND	ND	ND	ND	ND	ND	ND	ND	0
40149	2014-08-27T20:00:00	ND	ND	ND	ND	ND	ND	ND	ND	ND	ND	ND	0
40150	2014-08-27T21:00:00	ND	ND	ND	ND	ND	ND	ND	ND	ND	ND	ND	0
40151	2014-08-27T22:00:00	ND	ND	ND	ND	ND	ND	ND	ND	ND	ND	ND	0
40152	2014-08-27T23:00:00	ND	ND	ND	ND	ND	ND	ND	ND	ND	ND	ND	0
40153	2014-08-28T00:00:00	ND	ND	ND	ND	ND	ND	ND	ND	ND	ND	ND	0
40154	2014-08-28T01:00:00	95.5	ND	ND	ND	ND	ND	ND	ND	ND	ND	ND	0
40155	2014-08-28T02:00:00	49	ND	ND	ND	ND	ND	ND	ND	ND	ND	ND	0
40156	2014-08-28T03:00:00	46.4	ND	ND	ND	ND	ND	ND	ND	ND	ND	ND	0
40157	2014-08-28T04:00:00	25.3	ND	ND	ND	ND	ND	ND	ND	ND	ND	ND	0
40158	2014-08-28T05:00:00	24.9	ND	ND	ND	ND	ND	ND	ND	ND	ND	ND	0
40159	2014-08-28T06:00:00	13	ND	ND	ND	ND	ND	ND	ND	ND	ND	ND	0
40160	2014-08-28T07:00:00	8.3	ND	ND	ND	ND	ND	ND	ND	ND	ND	ND	0
40161	2014-08-28T08:00:00	13.2	ND	ND	ND	ND	ND	ND	ND	ND	ND	ND	0
40162	2014-08-28T09:00:00	48.8	ND	ND	ND	ND	ND	ND	ND	ND	ND	ND	0
40163	2014-08-28T10:00:00	26.6	ND	ND	ND	ND	ND	ND	ND	ND	ND	ND	0
40164	2014-08-28T11:00:00	41.5	ND	ND	ND	ND	ND	ND	ND	ND	ND	ND	0
40165	2014-08-28T12:00:00	21.7	ND	ND	ND	ND	ND	ND	ND	ND	ND	ND	0
40166	2014-08-28T13:00:00	39.3	ND	ND	ND	ND	ND	ND	ND	ND	ND	ND	0
40167	2014-08-28T14:00:00	26.8	ND	ND	ND	ND	ND	ND	ND	ND	ND	ND	0
40168	2014-08-28T15:00:00	38.1	ND	ND	ND	ND	ND	ND	ND	ND	ND	ND	0
40169	2014-08-28T16:00:00	36.7	ND	ND	ND	ND	ND	ND	ND	ND	ND	ND	0
40170	2014-08-28T17:00:00	41.3	ND	ND	ND	ND	ND	ND	ND	ND	ND	ND	0
40171	2014-08-28T18:00:00	26.7	ND	ND	ND	ND	ND	ND	ND	ND	ND	ND	0.76
40172	2014-08-28T19:00:00	32.7	ND	ND	ND	ND	ND	ND	ND	ND	ND	ND	0
40173	2014-08-28T20:00:00	31.2	ND	ND	ND	ND	ND	ND	ND	ND	ND	ND	0
40174	2014-08-28T21:00:00	46.8	ND	ND	ND	ND	ND	ND	ND	ND	ND	ND	0
40175	2014-08-28T22:00:00	34	ND	ND	ND	ND	ND	ND	ND	ND	ND	ND	0
40176	2014-08-28T23:00:00	55.6	ND	ND	ND	ND	ND	ND	ND	ND	ND	ND	0
40177	2014-08-29T00:00:00	53.3	ND	ND	ND	ND	ND	ND	ND	ND	ND	ND	0
40178	2014-08-29T01:00:00	47.3	ND	ND	ND	ND	ND	ND	ND	ND	ND	ND	0
40179	2014-08-29T02:00:00	87.8	ND	ND	ND	ND	ND	ND	ND	ND	ND	ND	0
40180	2014-08-29T03:00:00	50.6	ND	ND	ND	ND	ND	ND	ND	ND	ND	ND	0
40181	2014-08-29T04:00:00	26.1	ND	ND	ND	ND	ND	ND	ND	ND	ND	ND	0
40182	2014-08-29T05:00:00	53.9	ND	ND	ND	ND	ND	ND	ND	ND	ND	ND	0
40183	2014-08-29T06:00:00	32.9	ND	ND	ND	ND	ND	ND	ND	ND	ND	ND	0
40184	2014-08-29T07:00:00	81.2	ND	ND	ND	ND	ND	ND	ND	ND	ND	ND	0
40185	2014-08-29T08:00:00	65.5	ND	ND	ND	ND	ND	ND	ND	ND	ND	ND	0
40186	2014-08-29T09:00:00	82	ND	ND	ND	ND	ND	ND	ND	ND	ND	ND	0
40187	2014-08-29T10:00:00	58.1	ND	ND	ND	ND	ND	ND	ND	ND	ND	ND	0
40188	2014-08-29T11:00:00	55.4	ND	ND	ND	ND	ND	ND	ND	ND	ND	ND	0
40189	2014-08-29T12:00:00	27.7	ND	ND	ND	ND	ND	ND	ND	ND	ND	ND	0
40190	2014-08-29T13:00:00	16.1	ND	ND	ND	ND	ND	ND	ND	ND	ND	ND	0
40191	2014-08-29T14:00:00	19.1	ND	ND	ND	ND	ND	ND	ND	ND	ND	ND	0
40192	2014-08-29T15:00:00	10.6	ND	ND	ND	ND	ND	ND	ND	ND	ND	ND	0
40193	2014-08-29T16:00:00	12.6	ND	ND	ND	ND	ND	ND	ND	ND	ND	ND	0
40194	2014-08-29T17:00:00	18.8	ND	ND	ND	ND	ND	ND	ND	ND	ND	ND	0
40195	2014-08-29T18:00:00	10.5	ND	ND	ND	ND	ND	ND	ND	ND	ND	ND	0
40196	2014-08-29T19:00:00	26.6	ND	ND	ND	ND	ND	ND	ND	ND	ND	ND	0
40197	2014-08-29T20:00:00	15.3	ND	ND	ND	ND	ND	ND	ND	ND	ND	ND	0
40198	2014-08-29T21:00:00	9.5	ND	ND	ND	ND	ND	ND	ND	ND	ND	ND	0
40199	2014-08-29T22:00:00	4.7	ND	ND	ND	ND	ND	ND	ND	ND	ND	ND	0
40200	2014-08-29T23:00:00	2.4	ND	ND	ND	ND	ND	ND	ND	ND	ND	ND	0
40201	2014-08-30T00:00:00	4.1	ND	ND	ND	ND	ND	ND	ND	ND	ND	ND	0
40202	2014-08-30T01:00:00	35.7	ND	ND	ND	ND	ND	ND	ND	ND	ND	ND	0
40203	2014-08-30T02:00:00	110.6	ND	ND	ND	ND	ND	ND	ND	ND	ND	ND	0
40204	2014-08-30T03:00:00	67.5	ND	ND	ND	ND	ND	ND	ND	ND	ND	ND	0
40205	2014-08-30T04:00:00	54.1	ND	ND	ND	ND	ND	ND	ND	ND	ND	ND	0
40206	2014-08-30T05:00:00	48	ND	ND	ND	ND	ND	ND	ND	ND	ND	ND	0
40207	2014-08-30T06:00:00	30.4	ND	ND	ND	ND	ND	ND	ND	ND	ND	ND	0
40208	2014-08-30T07:00:00	44.1	ND	ND	ND	ND	ND	ND	ND	ND	ND	ND	0
40209	2014-08-30T08:00:00	60.9	ND	ND	ND	ND	ND	ND	ND	ND	ND	ND	0
40210	2014-08-30T09:00:00	82.2	ND	ND	ND	ND	ND	ND	ND	ND	ND	ND	0
40211	2014-08-30T10:00:00	68.1	ND	ND	ND	ND	ND	ND	ND	ND	ND	ND	0
40212	2014-08-30T11:00:00	58.5	ND	ND	ND	ND	ND	ND	ND	ND	ND	ND	0
40213	2014-08-30T12:00:00	31.1	ND	ND	ND	ND	ND	ND	ND	ND	ND	ND	0
40214	2014-08-30T13:00:00	31	ND	ND	ND	ND	ND	ND	ND	ND	ND	ND	0
40215	2014-08-30T14:00:00	17.5	ND	ND	ND	ND	ND	ND	ND	ND	ND	ND	0
40216	2014-08-30T15:00:00	13.1	ND	ND	ND	ND	ND	ND	ND	ND	ND	ND	0
40217	2014-08-30T16:00:00	8.7	ND	ND	ND	ND	ND	ND	ND	ND	ND	ND	0
40218	2014-08-30T17:00:00	6.1	ND	ND	ND	ND	ND	ND	ND	ND	ND	ND	0
40219	2014-08-30T18:00:00	3.8	ND	ND	ND	ND	ND	ND	ND	ND	ND	ND	0
40220	2014-08-30T19:00:00	19.4	ND	ND	ND	ND	ND	ND	ND	ND	ND	ND	0
40221	2014-08-30T20:00:00	13.4	ND	ND	ND	ND	ND	ND	ND	ND	ND	ND	0
40222	2014-08-30T21:00:00	7.7	ND	ND	ND	ND	ND	ND	ND	ND	ND	ND	0
40223	2014-08-30T22:00:00	5.2	ND	ND	ND	ND	ND	ND	ND	ND	ND	ND	0
40224	2014-08-30T23:00:00	2.6	ND	ND	ND	ND	ND	ND	ND	ND	ND	ND	0
40225	2014-08-31T00:00:00	4.8	ND	ND	ND	ND	ND	ND	ND	ND	ND	ND	0
40226	2014-08-31T01:00:00	25.9	ND	ND	ND	ND	ND	ND	ND	ND	ND	ND	0
40227	2014-08-31T02:00:00	22.1	ND	ND	ND	ND	ND	ND	ND	ND	ND	ND	0
40228	2014-08-31T03:00:00	49.8	ND	ND	ND	ND	ND	ND	ND	ND	ND	ND	0
40229	2014-08-31T04:00:00	39	ND	ND	ND	ND	ND	ND	ND	ND	ND	ND	0
40230	2014-08-31T05:00:00	39.5	ND	ND	ND	ND	ND	ND	ND	ND	ND	ND	0
40231	2014-08-31T06:00:00	21.6	ND	ND	ND	ND	ND	ND	ND	ND	ND	ND	0
40232	2014-08-31T07:00:00	29.4	ND	ND	ND	ND	ND	ND	ND	ND	ND	ND	0
40233	2014-08-31T08:00:00	16.5	ND	ND	ND	ND	ND	ND	ND	ND	ND	ND	0
40234	2014-08-31T09:00:00	36.2	ND	ND	ND	ND	ND	ND	ND	ND	ND	ND	0
40235	2014-08-31T10:00:00	23.4	ND	ND	ND	ND	ND	ND	ND	ND	ND	ND	0
40236	2014-08-31T11:00:00	39.7	ND	ND	ND	ND	ND	ND	ND	ND	ND	ND	0
40237	2014-08-31T12:00:00	21.8	ND	ND	ND	ND	ND	ND	ND	ND	ND	ND	0
40238	2014-08-31T13:00:00	15.1	ND	ND	ND	ND	ND	ND	ND	ND	ND	ND	0
40239	2014-08-31T14:00:00	8.7	ND	ND	ND	ND	ND	ND	ND	ND	ND	ND	0
40240	2014-08-31T15:00:00	5.5	ND	ND	ND	ND	ND	ND	ND	ND	ND	ND	0
40241	2014-08-31T16:00:00	3.3	ND	ND	ND	ND	ND	ND	ND	ND	ND	ND	0
40242	2014-08-31T17:00:00	2.9	ND	ND	ND	ND	ND	ND	ND	ND	ND	ND	0
40243	2014-08-31T18:00:00	2.2	ND	ND	ND	ND	ND	ND	ND	ND	ND	ND	0
40244	2014-08-31T19:00:00	14.4	ND	ND	ND	ND	ND	ND	ND	ND	ND	ND	0
40245	2014-08-31T20:00:00	8.6	ND	ND	ND	ND	ND	ND	ND	ND	ND	ND	0
40246	2014-08-31T21:00:00	15.5	ND	ND	ND	ND	ND	ND	ND	ND	ND	ND	0
40247	2014-08-31T22:00:00	9.3	ND	ND	ND	ND	ND	ND	ND	ND	ND	ND	0
40248	2014-08-31T23:00:00	23.7	ND	ND	ND	ND	ND	ND	ND	ND	ND	ND	0
40249	2014-09-01T00:00:00	19.4	ND	ND	ND	ND	ND	ND	ND	ND	ND	ND	0
40250	2014-09-01T01:00:00	44.6	ND	ND	ND	ND	ND	ND	ND	ND	ND	ND	0
40251	2014-09-01T02:00:00	23	ND	ND	ND	ND	ND	ND	ND	ND	ND	ND	0
40252	2014-09-01T03:00:00	33.7	ND	ND	ND	ND	ND	ND	ND	ND	ND	ND	0
40253	2014-09-01T04:00:00	38.9	ND	ND	ND	ND	ND	ND	ND	ND	ND	ND	0
40254	2014-09-01T05:00:00	34	ND	ND	ND	ND	ND	ND	ND	ND	ND	ND	0
40255	2014-09-01T06:00:00	31.3	ND	ND	ND	ND	ND	ND	ND	ND	ND	ND	0
40256	2014-09-01T07:00:00	62.2	ND	ND	ND	ND	ND	ND	ND	ND	ND	ND	0
40257	2014-09-01T08:00:00	67.8	ND	ND	ND	ND	ND	ND	ND	ND	ND	ND	0
40258	2014-09-01T09:00:00	85.9	ND	ND	ND	ND	ND	ND	ND	ND	ND	ND	0
40259	2014-09-01T10:00:00	51.6	ND	ND	ND	ND	ND	ND	ND	ND	ND	ND	0
40260	2014-09-01T11:00:00	52.8	ND	ND	ND	ND	ND	ND	ND	ND	ND	ND	0
40261	2014-09-01T12:00:00	29.3	ND	ND	ND	ND	ND	ND	ND	ND	ND	ND	0
40262	2014-09-01T13:00:00	50.5	ND	ND	ND	ND	ND	ND	ND	ND	ND	ND	0
40263	2014-09-01T14:00:00	51.6	ND	ND	ND	ND	ND	ND	ND	ND	ND	ND	0
40264	2014-09-01T15:00:00	38.3	ND	ND	ND	ND	ND	ND	ND	ND	ND	ND	0
40265	2014-09-01T16:00:00	19.9	ND	ND	ND	ND	ND	ND	ND	ND	ND	ND	0
40266	2014-09-01T17:00:00	10.5	ND	ND	ND	ND	ND	ND	ND	ND	ND	ND	0
40267	2014-09-01T18:00:00	6.4	ND	ND	ND	ND	ND	ND	ND	ND	ND	ND	0
40268	2014-09-01T19:00:00	22.9	ND	ND	ND	ND	ND	ND	ND	ND	ND	ND	0
40269	2014-09-01T20:00:00	12.6	ND	ND	ND	ND	ND	ND	ND	ND	ND	ND	0
40270	2014-09-01T21:00:00	8.3	ND	ND	ND	ND	ND	ND	ND	ND	ND	ND	0
40271	2014-09-01T22:00:00	6	ND	ND	ND	ND	ND	ND	ND	ND	ND	ND	0
40272	2014-09-01T23:00:00	4.4	ND	ND	ND	ND	ND	ND	ND	ND	ND	ND	0
40273	2014-09-02T00:00:00	2.8	ND	ND	ND	ND	ND	ND	ND	ND	ND	ND	0
40274	2014-09-02T01:00:00	3.2	ND	ND	ND	ND	ND	ND	ND	ND	ND	ND	0
40275	2014-09-02T02:00:00	4.5	ND	ND	ND	ND	ND	ND	ND	ND	ND	ND	0
40276	2014-09-02T03:00:00	12.8	ND	ND	ND	ND	ND	ND	ND	ND	ND	ND	0
40277	2014-09-02T04:00:00	14.8	ND	ND	ND	ND	ND	ND	ND	ND	ND	ND	0
40278	2014-09-02T05:00:00	26.7	ND	ND	ND	ND	ND	ND	ND	ND	ND	ND	0
40279	2014-09-02T06:00:00	16.5	ND	ND	ND	ND	ND	ND	ND	ND	ND	ND	0
40280	2014-09-02T07:00:00	45.7	ND	ND	ND	ND	ND	ND	ND	ND	ND	ND	0
40281	2014-09-02T08:00:00	44.4	ND	ND	ND	ND	ND	ND	ND	ND	ND	ND	0
40282	2014-09-02T09:00:00	68.9	ND	ND	ND	ND	ND	ND	ND	ND	ND	ND	0
40283	2014-09-02T10:00:00	41.3	ND	ND	ND	ND	ND	ND	ND	ND	ND	ND	0
40284	2014-09-02T11:00:00	49	ND	ND	ND	ND	ND	ND	ND	ND	ND	ND	0
40285	2014-09-02T12:00:00	36.9	ND	ND	ND	ND	ND	ND	ND	ND	ND	ND	0
40286	2014-09-02T13:00:00	43	ND	ND	ND	ND	ND	ND	ND	ND	ND	ND	0
40287	2014-09-02T14:00:00	22.2	ND	ND	ND	ND	ND	ND	ND	ND	ND	ND	0
40288	2014-09-02T15:00:00	ND	ND	ND	ND	ND	ND	ND	ND	ND	ND	ND	ND
40289	2014-09-02T16:00:00	ND	ND	ND	ND	ND	ND	ND	ND	ND	ND	ND	ND
40290	2014-09-02T17:00:00	14.4	ND	ND	ND	ND	ND	ND	ND	ND	ND	ND	0.25
40291	2014-09-02T18:00:00	7.9	ND	ND	ND	ND	ND	ND	ND	ND	ND	ND	0
40292	2014-09-02T19:00:00	ND	ND	ND	ND	ND	ND	ND	ND	ND	ND	ND	ND
40293	2014-09-02T20:00:00	ND	ND	ND	ND	ND	ND	ND	ND	ND	ND	ND	ND
40294	2014-09-02T21:00:00	ND	ND	ND	ND	ND	ND	ND	ND	ND	ND	ND	ND
40295	2014-09-02T22:00:00	ND	ND	ND	ND	ND	ND	ND	ND	ND	ND	ND	ND
40296	2014-09-02T23:00:00	ND	ND	ND	ND	ND	ND	ND	ND	ND	ND	ND	ND
40297	2014-09-03T00:00:00	ND	ND	ND	ND	ND	ND	ND	ND	ND	ND	ND	ND
40298	2014-09-03T01:00:00	ND	ND	ND	ND	ND	ND	ND	ND	ND	ND	ND	ND
40299	2014-09-03T02:00:00	ND	ND	ND	ND	ND	ND	ND	ND	ND	ND	ND	ND
40300	2014-09-03T03:00:00	ND	ND	ND	ND	ND	ND	ND	ND	ND	ND	ND	ND
40301	2014-09-03T04:00:00	ND	ND	ND	ND	ND	ND	ND	ND	ND	ND	ND	ND
40302	2014-09-03T05:00:00	ND	ND	ND	ND	ND	ND	ND	ND	ND	ND	ND	ND
40303	2014-09-03T06:00:00	ND	ND	ND	ND	ND	ND	ND	ND	ND	ND	ND	ND
40304	2014-09-03T07:00:00	ND	ND	ND	ND	ND	ND	ND	ND	ND	ND	ND	ND
40305	2014-09-03T08:00:00	ND	ND	ND	ND	ND	ND	ND	ND	ND	ND	ND	ND
40306	2014-09-03T09:00:00	ND	ND	ND	ND	ND	ND	ND	ND	ND	ND	ND	ND
40307	2014-09-03T10:00:00	ND	ND	ND	ND	ND	ND	ND	ND	ND	ND	ND	ND
40308	2014-09-03T11:00:00	ND	ND	ND	ND	ND	ND	ND	ND	ND	ND	ND	ND
40309	2014-09-03T12:00:00	ND	ND	ND	ND	ND	ND	ND	ND	ND	ND	ND	ND
40310	2014-09-03T13:00:00	ND	ND	ND	ND	ND	ND	ND	ND	ND	ND	ND	ND
40311	2014-09-03T14:00:00	ND	ND	ND	ND	ND	ND	ND	ND	ND	ND	ND	ND
40312	2014-09-03T15:00:00	ND	ND	ND	ND	ND	ND	ND	ND	ND	ND	ND	ND
40313	2014-09-03T16:00:00	ND	ND	ND	ND	ND	ND	ND	ND	ND	ND	ND	ND
40314	2014-09-03T17:00:00	ND	ND	ND	ND	ND	ND	ND	ND	ND	ND	ND	ND
40315	2014-09-03T18:00:00	ND	ND	ND	ND	ND	ND	ND	ND	ND	ND	ND	ND
40316	2014-09-03T19:00:00	ND	ND	ND	ND	ND	ND	ND	ND	ND	ND	ND	ND
40317	2014-09-03T20:00:00	ND	ND	ND	ND	ND	ND	ND	ND	ND	ND	ND	ND
40318	2014-09-03T21:00:00	ND	ND	ND	ND	ND	ND	ND	ND	ND	ND	ND	ND
40319	2014-09-03T22:00:00	ND	ND	ND	ND	ND	ND	ND	ND	ND	ND	ND	ND
40320	2014-09-03T23:00:00	ND	ND	ND	ND	ND	ND	ND	ND	ND	ND	ND	ND
40321	2014-09-04T00:00:00	ND	ND	ND	ND	ND	ND	ND	ND	ND	ND	ND	ND
40322	2014-09-04T01:00:00	ND	ND	ND	ND	ND	ND	ND	ND	ND	ND	ND	ND
40323	2014-09-04T02:00:00	ND	ND	ND	ND	ND	ND	ND	ND	ND	ND	ND	ND
40324	2014-09-04T03:00:00	ND	ND	ND	ND	ND	ND	ND	ND	ND	ND	ND	ND
40325	2014-09-04T04:00:00	ND	ND	ND	ND	ND	ND	ND	ND	ND	ND	ND	ND
40326	2014-09-04T05:00:00	ND	ND	ND	ND	ND	ND	ND	ND	ND	ND	ND	ND
40327	2014-09-04T06:00:00	ND	ND	ND	ND	ND	ND	ND	ND	ND	ND	ND	ND
40328	2014-09-04T07:00:00	ND	ND	ND	ND	ND	ND	ND	ND	ND	ND	ND	ND
40329	2014-09-04T08:00:00	ND	ND	ND	ND	ND	ND	ND	ND	ND	ND	ND	ND
40330	2014-09-04T09:00:00	ND	ND	ND	ND	ND	ND	ND	ND	ND	ND	ND	ND
40331	2014-09-04T10:00:00	ND	ND	ND	ND	ND	ND	ND	ND	ND	ND	ND	ND
40332	2014-09-04T11:00:00	ND	ND	ND	ND	ND	ND	ND	ND	ND	ND	ND	ND
40333	2014-09-04T12:00:00	ND	ND	ND	ND	ND	ND	ND	ND	ND	ND	ND	ND
40334	2014-09-04T13:00:00	ND	ND	ND	ND	ND	ND	ND	ND	ND	ND	ND	ND
40335	2014-09-04T14:00:00	ND	ND	ND	ND	ND	ND	ND	ND	ND	ND	ND	ND
40336	2014-09-04T15:00:00	ND	ND	ND	ND	ND	ND	ND	ND	ND	ND	ND	ND
40337	2014-09-04T16:00:00	ND	ND	ND	ND	ND	ND	ND	ND	ND	ND	ND	ND
40338	2014-09-04T17:00:00	ND	ND	ND	ND	ND	ND	ND	ND	ND	ND	ND	ND
40339	2014-09-04T18:00:00	ND	ND	ND	ND	ND	ND	ND	ND	ND	ND	ND	ND
40340	2014-09-04T19:00:00	ND	ND	ND	ND	ND	ND	ND	ND	ND	ND	ND	ND
40341	2014-09-04T20:00:00	ND	ND	ND	ND	ND	ND	ND	ND	ND	ND	ND	ND
40342	2014-09-04T21:00:00	ND	ND	ND	ND	ND	ND	ND	ND	ND	ND	ND	ND
40343	2014-09-04T22:00:00	ND	ND	ND	ND	ND	ND	ND	ND	ND	ND	ND	ND
40344	2014-09-04T23:00:00	ND	ND	ND	ND	ND	ND	ND	ND	ND	ND	ND	ND
40345	2014-09-05T00:00:00	ND	ND	ND	ND	ND	ND	ND	ND	ND	ND	ND	ND
40346	2014-09-05T01:00:00	ND	ND	ND	ND	ND	ND	ND	ND	ND	ND	ND	ND
40347	2014-09-05T02:00:00	ND	ND	ND	ND	ND	ND	ND	ND	ND	ND	ND	ND
40348	2014-09-05T03:00:00	ND	ND	ND	ND	ND	ND	ND	ND	ND	ND	ND	ND
40349	2014-09-05T04:00:00	ND	ND	ND	ND	ND	ND	ND	ND	ND	ND	ND	ND
40350	2014-09-05T05:00:00	ND	ND	ND	ND	ND	ND	ND	ND	ND	ND	ND	ND
40351	2014-09-05T06:00:00	ND	ND	ND	ND	ND	ND	ND	ND	ND	ND	ND	ND
40352	2014-09-05T07:00:00	ND	ND	ND	ND	ND	ND	ND	ND	ND	ND	ND	ND
40353	2014-09-05T08:00:00	ND	ND	ND	ND	ND	ND	ND	ND	ND	ND	ND	ND
40354	2014-09-05T09:00:00	ND	ND	ND	ND	ND	ND	ND	ND	ND	ND	ND	ND
40355	2014-09-05T10:00:00	ND	ND	ND	ND	ND	ND	ND	ND	ND	ND	ND	ND
40356	2014-09-05T11:00:00	ND	ND	ND	ND	ND	ND	ND	ND	ND	ND	ND	ND
40357	2014-09-05T12:00:00	ND	ND	ND	ND	ND	ND	ND	ND	ND	ND	ND	ND
40358	2014-09-05T13:00:00	ND	ND	ND	ND	ND	ND	ND	ND	ND	ND	ND	ND
40359	2014-09-05T14:00:00	ND	ND	ND	ND	ND	ND	ND	ND	ND	ND	ND	ND
40360	2014-09-05T15:00:00	ND	ND	ND	ND	ND	ND	ND	ND	ND	ND	ND	ND
40361	2014-09-05T16:00:00	ND	ND	ND	ND	ND	ND	ND	ND	ND	ND	ND	ND
40362	2014-09-05T17:00:00	ND	ND	ND	ND	ND	ND	ND	ND	ND	ND	ND	ND
40363	2014-09-05T18:00:00	ND	ND	ND	ND	ND	ND	ND	ND	ND	ND	ND	ND
40364	2014-09-05T19:00:00	ND	ND	ND	ND	ND	ND	ND	ND	ND	ND	ND	ND
40365	2014-09-05T20:00:00	ND	ND	ND	ND	ND	ND	ND	ND	ND	ND	ND	ND
40366	2014-09-05T21:00:00	ND	ND	ND	ND	ND	ND	ND	ND	ND	ND	ND	ND
40367	2014-09-05T22:00:00	ND	ND	ND	ND	ND	ND	ND	ND	ND	ND	ND	ND
40368	2014-09-05T23:00:00	ND	ND	ND	ND	ND	ND	ND	ND	ND	ND	ND	ND
40369	2014-09-06T00:00:00	ND	ND	ND	ND	ND	ND	ND	ND	ND	ND	ND	ND
40370	2014-09-06T01:00:00	ND	ND	ND	ND	ND	ND	ND	ND	ND	ND	ND	ND
40371	2014-09-06T02:00:00	ND	ND	ND	ND	ND	ND	ND	ND	ND	ND	ND	ND
40372	2014-09-06T03:00:00	ND	ND	ND	ND	ND	ND	ND	ND	ND	ND	ND	ND
40373	2014-09-06T04:00:00	ND	ND	ND	ND	ND	ND	ND	ND	ND	ND	ND	ND
40374	2014-09-06T05:00:00	ND	ND	ND	ND	ND	ND	ND	ND	ND	ND	ND	ND
40375	2014-09-06T06:00:00	ND	ND	ND	ND	ND	ND	ND	ND	ND	ND	ND	ND
40376	2014-09-06T07:00:00	ND	ND	ND	ND	ND	ND	ND	ND	ND	ND	ND	ND
40377	2014-09-06T08:00:00	ND	ND	ND	ND	ND	ND	ND	ND	ND	ND	ND	ND
40378	2014-09-06T09:00:00	ND	ND	ND	ND	ND	ND	ND	ND	ND	ND	ND	ND
40379	2014-09-06T10:00:00	ND	ND	ND	ND	ND	ND	ND	ND	ND	ND	ND	ND
40380	2014-09-06T11:00:00	ND	ND	ND	ND	ND	ND	ND	ND	ND	ND	ND	ND
40381	2014-09-06T12:00:00	ND	ND	ND	ND	ND	ND	ND	ND	ND	ND	ND	ND
40382	2014-09-06T13:00:00	ND	ND	ND	ND	ND	ND	ND	ND	ND	ND	ND	ND
40383	2014-09-06T14:00:00	ND	ND	ND	ND	ND	ND	ND	ND	ND	ND	ND	ND
40384	2014-09-06T15:00:00	ND	ND	ND	ND	ND	ND	ND	ND	ND	ND	ND	ND
40385	2014-09-06T16:00:00	ND	ND	ND	ND	ND	ND	ND	ND	ND	ND	ND	ND
40386	2014-09-06T17:00:00	ND	ND	ND	ND	ND	ND	ND	ND	ND	ND	ND	ND
40387	2014-09-06T18:00:00	ND	ND	ND	ND	ND	ND	ND	ND	ND	ND	ND	ND
40388	2014-09-06T19:00:00	ND	ND	ND	ND	ND	ND	ND	ND	ND	ND	ND	ND
40389	2014-09-06T20:00:00	ND	ND	ND	ND	ND	ND	ND	ND	ND	ND	ND	ND
40390	2014-09-06T21:00:00	ND	ND	ND	ND	ND	ND	ND	ND	ND	ND	ND	ND
40391	2014-09-06T22:00:00	ND	ND	ND	ND	ND	ND	ND	ND	ND	ND	ND	ND
40392	2014-09-06T23:00:00	ND	ND	ND	ND	ND	ND	ND	ND	ND	ND	ND	ND
40393	2014-09-07T00:00:00	ND	ND	ND	ND	ND	ND	ND	ND	ND	ND	ND	ND
40394	2014-09-07T01:00:00	ND	ND	ND	ND	ND	ND	ND	ND	ND	ND	ND	ND
40395	2014-09-07T02:00:00	ND	ND	ND	ND	ND	ND	ND	ND	ND	ND	ND	ND
40396	2014-09-07T03:00:00	ND	ND	ND	ND	ND	ND	ND	ND	ND	ND	ND	ND
40397	2014-09-07T04:00:00	ND	ND	ND	ND	ND	ND	ND	ND	ND	ND	ND	ND
40398	2014-09-07T05:00:00	ND	ND	ND	ND	ND	ND	ND	ND	ND	ND	ND	ND
40399	2014-09-07T06:00:00	ND	ND	ND	ND	ND	ND	ND	ND	ND	ND	ND	ND
40400	2014-09-07T07:00:00	ND	ND	ND	ND	ND	ND	ND	ND	ND	ND	ND	ND
40401	2014-09-07T08:00:00	ND	ND	ND	ND	ND	ND	ND	ND	ND	ND	ND	ND
40402	2014-09-07T09:00:00	ND	ND	ND	ND	ND	ND	ND	ND	ND	ND	ND	ND
40403	2014-09-07T10:00:00	ND	ND	ND	ND	ND	ND	ND	ND	ND	ND	ND	ND
40404	2014-09-07T11:00:00	ND	ND	ND	ND	ND	ND	ND	ND	ND	ND	ND	ND
40405	2014-09-07T12:00:00	ND	ND	ND	ND	ND	ND	ND	ND	ND	ND	ND	ND
40406	2014-09-07T13:00:00	ND	ND	ND	ND	ND	ND	ND	ND	ND	ND	ND	ND
40407	2014-09-07T14:00:00	ND	ND	ND	ND	ND	ND	ND	ND	ND	ND	ND	ND
40408	2014-09-07T15:00:00	ND	ND	ND	ND	ND	ND	ND	ND	ND	ND	ND	ND
40409	2014-09-07T16:00:00	ND	ND	ND	ND	ND	ND	ND	ND	ND	ND	ND	ND
40410	2014-09-07T17:00:00	ND	ND	ND	ND	ND	ND	ND	ND	ND	ND	ND	ND
40411	2014-09-07T18:00:00	ND	ND	ND	ND	ND	ND	ND	ND	ND	ND	ND	ND
40412	2014-09-07T19:00:00	ND	ND	ND	ND	ND	ND	ND	ND	ND	ND	ND	ND
40413	2014-09-07T20:00:00	ND	ND	ND	ND	ND	ND	ND	ND	ND	ND	ND	ND
40414	2014-09-07T21:00:00	ND	ND	ND	ND	ND	ND	ND	ND	ND	ND	ND	ND
40415	2014-09-07T22:00:00	ND	ND	ND	ND	ND	ND	ND	ND	ND	ND	ND	ND
40416	2014-09-07T23:00:00	ND	ND	ND	ND	ND	ND	ND	ND	ND	ND	ND	ND
40417	2014-09-08T00:00:00	ND	ND	ND	ND	ND	ND	ND	ND	ND	ND	ND	ND
40418	2014-09-08T01:00:00	ND	ND	ND	ND	ND	ND	ND	ND	ND	ND	ND	ND
40419	2014-09-08T02:00:00	ND	ND	ND	ND	ND	ND	ND	ND	ND	ND	ND	ND
40420	2014-09-08T03:00:00	ND	ND	ND	ND	ND	ND	ND	ND	ND	ND	ND	ND
40421	2014-09-08T04:00:00	ND	ND	ND	ND	ND	ND	ND	ND	ND	ND	ND	ND
40422	2014-09-08T05:00:00	ND	ND	ND	ND	ND	ND	ND	ND	ND	ND	ND	ND
40423	2014-09-08T06:00:00	ND	ND	ND	ND	ND	ND	ND	ND	ND	ND	ND	ND
40424	2014-09-08T07:00:00	ND	ND	ND	ND	ND	ND	ND	ND	ND	ND	ND	ND
40425	2014-09-08T08:00:00	ND	ND	ND	ND	ND	ND	ND	ND	ND	ND	ND	ND
40426	2014-09-08T09:00:00	ND	ND	ND	ND	ND	ND	ND	ND	ND	ND	ND	ND
40427	2014-09-08T10:00:00	ND	ND	ND	ND	ND	ND	ND	ND	ND	ND	ND	ND
40428	2014-09-08T11:00:00	ND	ND	ND	ND	ND	ND	ND	ND	ND	ND	ND	ND
40429	2014-09-08T12:00:00	ND	ND	ND	ND	ND	ND	ND	ND	ND	ND	ND	ND
40430	2014-09-08T13:00:00	ND	ND	ND	ND	ND	ND	ND	ND	ND	ND	ND	ND
40431	2014-09-08T14:00:00	ND	ND	ND	ND	ND	ND	ND	ND	ND	ND	ND	ND
40432	2014-09-08T15:00:00	ND	ND	ND	ND	ND	ND	ND	ND	ND	ND	ND	ND
40433	2014-09-08T16:00:00	ND	ND	ND	ND	ND	ND	ND	ND	ND	ND	ND	ND
40434	2014-09-08T17:00:00	ND	ND	ND	ND	ND	ND	ND	ND	ND	ND	ND	ND
40435	2014-09-08T18:00:00	ND	ND	ND	ND	ND	ND	ND	ND	ND	ND	ND	ND
40436	2014-09-08T19:00:00	ND	ND	ND	ND	ND	ND	ND	ND	ND	ND	ND	ND
40437	2014-09-08T20:00:00	ND	ND	ND	ND	ND	ND	ND	ND	ND	ND	ND	ND
40438	2014-09-08T21:00:00	ND	ND	ND	ND	ND	ND	ND	ND	ND	ND	ND	ND
40439	2014-09-08T22:00:00	ND	ND	ND	ND	ND	ND	ND	ND	ND	ND	ND	ND
40440	2014-09-08T23:00:00	ND	ND	ND	ND	ND	ND	ND	ND	ND	ND	ND	ND
40441	2014-09-09T00:00:00	ND	ND	ND	ND	ND	ND	ND	ND	ND	ND	ND	ND
40442	2014-09-09T01:00:00	ND	ND	ND	ND	ND	ND	ND	ND	ND	ND	ND	ND
40443	2014-09-09T02:00:00	ND	ND	ND	ND	ND	ND	ND	ND	ND	ND	ND	ND
40444	2014-09-09T03:00:00	ND	ND	ND	ND	ND	ND	ND	ND	ND	ND	ND	ND
40445	2014-09-09T04:00:00	ND	ND	ND	ND	ND	ND	ND	ND	ND	ND	ND	ND
40446	2014-09-09T05:00:00	ND	ND	ND	ND	ND	ND	ND	ND	ND	ND	ND	ND
40447	2014-09-09T06:00:00	ND	ND	ND	ND	ND	ND	ND	ND	ND	ND	ND	ND
40448	2014-09-09T07:00:00	ND	ND	ND	ND	ND	ND	ND	ND	ND	ND	ND	ND
40449	2014-09-09T08:00:00	ND	ND	ND	ND	ND	ND	ND	ND	ND	ND	ND	ND
40450	2014-09-09T09:00:00	ND	ND	ND	ND	ND	ND	ND	ND	ND	ND	ND	ND
40451	2014-09-09T10:00:00	ND	ND	ND	ND	ND	ND	ND	ND	ND	ND	ND	ND
40452	2014-09-09T11:00:00	ND	ND	ND	ND	ND	ND	ND	ND	ND	ND	ND	ND
40453	2014-09-09T12:00:00	ND	ND	ND	ND	ND	ND	ND	ND	ND	ND	ND	ND
40454	2014-09-09T13:00:00	ND	ND	ND	ND	ND	ND	ND	ND	ND	ND	ND	ND
40455	2014-09-09T14:00:00	ND	ND	ND	ND	ND	ND	ND	ND	ND	ND	ND	ND
40456	2014-09-09T15:00:00	ND	ND	ND	ND	ND	ND	ND	ND	ND	ND	ND	ND
40457	2014-09-09T16:00:00	ND	ND	ND	ND	ND	ND	ND	ND	ND	ND	ND	ND
40458	2014-09-09T17:00:00	ND	ND	ND	ND	ND	ND	ND	ND	ND	ND	ND	ND
40459	2014-09-09T18:00:00	ND	ND	ND	ND	ND	ND	ND	ND	ND	ND	ND	ND
40460	2014-09-09T19:00:00	ND	ND	ND	ND	ND	ND	ND	ND	ND	ND	ND	ND
40461	2014-09-09T20:00:00	ND	ND	ND	ND	ND	ND	ND	ND	ND	ND	ND	ND
40462	2014-09-09T21:00:00	ND	ND	ND	ND	ND	ND	ND	ND	ND	ND	ND	ND
40463	2014-09-09T22:00:00	ND	ND	ND	ND	ND	ND	ND	ND	ND	ND	ND	ND
40464	2014-09-09T23:00:00	ND	ND	ND	ND	ND	ND	ND	ND	ND	ND	ND	ND
40465	2014-09-10T00:00:00	ND	ND	ND	ND	ND	ND	ND	ND	ND	ND	ND	ND
40466	2014-09-10T01:00:00	ND	ND	ND	ND	ND	ND	ND	ND	ND	ND	ND	ND
40467	2014-09-10T02:00:00	ND	ND	ND	ND	ND	ND	ND	ND	ND	ND	ND	ND
40468	2014-09-10T03:00:00	ND	ND	ND	ND	ND	ND	ND	ND	ND	ND	ND	ND
40469	2014-09-10T04:00:00	ND	ND	ND	ND	ND	ND	ND	ND	ND	ND	ND	ND
40470	2014-09-10T05:00:00	ND	ND	ND	ND	ND	ND	ND	ND	ND	ND	ND	ND
40471	2014-09-10T06:00:00	ND	ND	ND	ND	ND	ND	ND	ND	ND	ND	ND	ND
40472	2014-09-10T07:00:00	ND	ND	ND	ND	ND	ND	ND	ND	ND	ND	ND	ND
40473	2014-09-10T08:00:00	ND	ND	ND	ND	ND	ND	ND	ND	ND	ND	ND	ND
40474	2014-09-10T09:00:00	ND	ND	ND	ND	ND	ND	ND	ND	ND	ND	ND	ND
40475	2014-09-10T10:00:00	ND	ND	ND	ND	ND	ND	ND	ND	ND	ND	ND	ND
40476	2014-09-10T11:00:00	ND	ND	ND	ND	ND	ND	ND	ND	ND	ND	ND	ND
40477	2014-09-10T12:00:00	ND	ND	ND	ND	ND	ND	ND	ND	ND	ND	ND	ND
40478	2014-09-10T13:00:00	ND	ND	ND	ND	ND	ND	ND	ND	ND	ND	ND	ND
40479	2014-09-10T14:00:00	ND	ND	ND	ND	ND	ND	ND	ND	ND	ND	ND	ND
40480	2014-09-10T15:00:00	ND	ND	ND	ND	ND	ND	ND	ND	ND	ND	ND	ND
40481	2014-09-10T16:00:00	ND	ND	ND	ND	ND	ND	ND	ND	ND	ND	ND	ND
40482	2014-09-10T17:00:00	ND	ND	ND	ND	ND	ND	ND	ND	ND	ND	ND	ND
40483	2014-09-10T18:00:00	ND	ND	ND	ND	ND	ND	ND	ND	ND	ND	ND	ND
40484	2014-09-10T19:00:00	ND	ND	ND	ND	ND	ND	ND	ND	ND	ND	ND	ND
40485	2014-09-10T20:00:00	ND	ND	ND	ND	ND	ND	ND	ND	ND	ND	ND	ND
40486	2014-09-10T21:00:00	ND	ND	ND	ND	ND	ND	ND	ND	ND	ND	ND	ND
40487	2014-09-10T22:00:00	ND	ND	ND	ND	ND	ND	ND	ND	ND	ND	ND	ND
40488	2014-09-10T23:00:00	ND	ND	ND	ND	ND	ND	ND	ND	ND	ND	ND	ND
40489	2014-09-11T00:00:00	ND	ND	ND	ND	ND	ND	ND	ND	ND	ND	ND	ND
40490	2014-09-11T01:00:00	ND	ND	ND	ND	ND	ND	ND	ND	ND	ND	ND	ND
40491	2014-09-11T02:00:00	ND	ND	ND	ND	ND	ND	ND	ND	ND	ND	ND	ND
40492	2014-09-11T03:00:00	ND	ND	ND	ND	ND	ND	ND	ND	ND	ND	ND	ND
40493	2014-09-11T04:00:00	ND	ND	ND	ND	ND	ND	ND	ND	ND	ND	ND	ND
40494	2014-09-11T05:00:00	ND	ND	ND	ND	ND	ND	ND	ND	ND	ND	ND	ND
40495	2014-09-11T06:00:00	ND	ND	ND	ND	ND	ND	ND	ND	ND	ND	ND	ND
40496	2014-09-11T07:00:00	ND	ND	ND	ND	ND	ND	ND	ND	ND	ND	ND	ND
40497	2014-09-11T08:00:00	ND	ND	ND	ND	ND	ND	ND	ND	ND	ND	ND	ND
40498	2014-09-11T09:00:00	ND	ND	ND	ND	ND	ND	ND	ND	ND	ND	ND	ND
40499	2014-09-11T10:00:00	ND	ND	ND	ND	ND	ND	ND	ND	ND	ND	ND	ND
40500	2014-09-11T11:00:00	ND	ND	ND	ND	ND	ND	ND	ND	ND	ND	ND	ND
40501	2014-09-11T12:00:00	ND	ND	ND	ND	ND	ND	ND	ND	ND	ND	ND	ND
40502	2014-09-11T13:00:00	ND	ND	ND	ND	ND	ND	ND	ND	ND	ND	ND	ND
40503	2014-09-11T14:00:00	ND	ND	ND	ND	ND	ND	ND	ND	ND	ND	ND	ND
40504	2014-09-11T15:00:00	ND	ND	ND	ND	ND	ND	ND	ND	ND	ND	ND	ND
40505	2014-09-11T16:00:00	ND	ND	ND	ND	ND	ND	ND	ND	ND	ND	ND	ND
40506	2014-09-11T17:00:00	ND	ND	ND	ND	ND	ND	ND	ND	ND	ND	ND	ND
40507	2014-09-11T18:00:00	ND	ND	ND	ND	ND	ND	ND	ND	ND	ND	ND	ND
40508	2014-09-11T19:00:00	ND	ND	ND	ND	ND	ND	ND	ND	ND	ND	ND	ND
40509	2014-09-11T20:00:00	ND	ND	ND	ND	ND	ND	ND	ND	ND	ND	ND	ND
40510	2014-09-11T21:00:00	ND	ND	ND	ND	ND	ND	ND	ND	ND	ND	ND	ND
40511	2014-09-11T22:00:00	ND	ND	ND	ND	ND	ND	ND	ND	ND	ND	ND	ND
40512	2014-09-11T23:00:00	ND	ND	ND	ND	ND	ND	ND	ND	ND	ND	ND	ND
40513	2014-09-12T00:00:00	ND	ND	ND	ND	ND	ND	ND	ND	ND	ND	ND	ND
40514	2014-09-12T01:00:00	ND	ND	ND	ND	ND	ND	ND	ND	ND	ND	ND	ND
40515	2014-09-12T02:00:00	ND	ND	ND	ND	ND	ND	ND	ND	ND	ND	ND	ND
40516	2014-09-12T03:00:00	ND	ND	ND	ND	ND	ND	ND	ND	ND	ND	ND	ND
40517	2014-09-12T04:00:00	ND	ND	ND	ND	ND	ND	ND	ND	ND	ND	ND	ND
40518	2014-09-12T05:00:00	ND	ND	ND	ND	ND	ND	ND	ND	ND	ND	ND	ND
40519	2014-09-12T06:00:00	ND	ND	ND	ND	ND	ND	ND	ND	ND	ND	ND	ND
40520	2014-09-12T07:00:00	ND	ND	ND	ND	ND	ND	ND	ND	ND	ND	ND	ND
40521	2014-09-12T08:00:00	ND	ND	ND	ND	ND	ND	ND	ND	ND	ND	ND	ND
40522	2014-09-12T09:00:00	ND	ND	ND	ND	ND	ND	ND	ND	ND	ND	ND	ND
40523	2014-09-12T10:00:00	ND	ND	ND	ND	ND	ND	ND	ND	ND	ND	ND	ND
40524	2014-09-12T11:00:00	ND	ND	ND	ND	ND	ND	ND	ND	ND	ND	ND	ND
40525	2014-09-12T12:00:00	ND	ND	ND	ND	ND	ND	ND	ND	ND	ND	ND	ND
40526	2014-09-12T13:00:00	ND	ND	ND	ND	ND	ND	ND	ND	ND	ND	ND	ND
40527	2014-09-12T14:00:00	ND	ND	ND	ND	ND	ND	ND	ND	ND	ND	ND	ND
40528	2014-09-12T15:00:00	ND	ND	ND	ND	ND	ND	ND	ND	ND	ND	ND	ND
40529	2014-09-12T16:00:00	ND	ND	ND	ND	ND	ND	ND	ND	ND	ND	ND	ND
40530	2014-09-12T17:00:00	ND	ND	ND	ND	ND	ND	ND	ND	ND	ND	ND	ND
40531	2014-09-12T18:00:00	ND	ND	ND	ND	ND	ND	ND	ND	ND	ND	ND	ND
40532	2014-09-12T19:00:00	ND	ND	ND	ND	ND	ND	ND	ND	ND	ND	ND	ND
40533	2014-09-12T20:00:00	ND	ND	ND	ND	ND	ND	ND	ND	ND	ND	ND	ND
40534	2014-09-12T21:00:00	ND	ND	ND	ND	ND	ND	ND	ND	ND	ND	ND	ND
40535	2014-09-12T22:00:00	ND	ND	ND	ND	ND	ND	ND	ND	ND	ND	ND	ND
40536	2014-09-12T23:00:00	ND	ND	ND	ND	ND	ND	ND	ND	ND	ND	ND	ND
40537	2014-09-13T00:00:00	ND	ND	ND	ND	ND	ND	ND	ND	ND	ND	ND	ND
40538	2014-09-13T01:00:00	ND	ND	ND	ND	ND	ND	ND	ND	ND	ND	ND	ND
40539	2014-09-13T02:00:00	ND	ND	ND	ND	ND	ND	ND	ND	ND	ND	ND	ND
40540	2014-09-13T03:00:00	ND	ND	ND	ND	ND	ND	ND	ND	ND	ND	ND	ND
40541	2014-09-13T04:00:00	ND	ND	ND	ND	ND	ND	ND	ND	ND	ND	ND	ND
40542	2014-09-13T05:00:00	ND	ND	ND	ND	ND	ND	ND	ND	ND	ND	ND	ND
40543	2014-09-13T06:00:00	ND	ND	ND	ND	ND	ND	ND	ND	ND	ND	ND	ND
40544	2014-09-13T07:00:00	ND	ND	ND	ND	ND	ND	ND	ND	ND	ND	ND	ND
40545	2014-09-13T08:00:00	ND	ND	ND	ND	ND	ND	ND	ND	ND	ND	ND	ND
40546	2014-09-13T09:00:00	ND	ND	ND	ND	ND	ND	ND	ND	ND	ND	ND	ND
40547	2014-09-13T10:00:00	ND	ND	ND	ND	ND	ND	ND	ND	ND	ND	ND	ND
40548	2014-09-13T11:00:00	ND	ND	ND	ND	ND	ND	ND	ND	ND	ND	ND	ND
40549	2014-09-13T12:00:00	ND	ND	ND	ND	ND	ND	ND	ND	ND	ND	ND	ND
40550	2014-09-13T13:00:00	ND	ND	ND	ND	ND	ND	ND	ND	ND	ND	ND	ND
40551	2014-09-13T14:00:00	ND	ND	ND	ND	ND	ND	ND	ND	ND	ND	ND	ND
40552	2014-09-13T15:00:00	ND	ND	ND	ND	ND	ND	ND	ND	ND	ND	ND	ND
40553	2014-09-13T16:00:00	ND	ND	ND	ND	ND	ND	ND	ND	ND	ND	ND	ND
40554	2014-09-13T17:00:00	ND	ND	ND	ND	ND	ND	ND	ND	ND	ND	ND	ND
40555	2014-09-13T18:00:00	ND	ND	ND	ND	ND	ND	ND	ND	ND	ND	ND	ND
40556	2014-09-13T19:00:00	ND	ND	ND	ND	ND	ND	ND	ND	ND	ND	ND	ND
40557	2014-09-13T20:00:00	ND	ND	ND	ND	ND	ND	ND	ND	ND	ND	ND	ND
40558	2014-09-13T21:00:00	ND	ND	ND	ND	ND	ND	ND	ND	ND	ND	ND	ND
40559	2014-09-13T22:00:00	ND	ND	ND	ND	ND	ND	ND	ND	ND	ND	ND	ND
40560	2014-09-13T23:00:00	ND	ND	ND	ND	ND	ND	ND	ND	ND	ND	ND	ND
40561	2014-09-14T00:00:00	ND	ND	ND	ND	ND	ND	ND	ND	ND	ND	ND	ND
40562	2014-09-14T01:00:00	ND	ND	ND	ND	ND	ND	ND	ND	ND	ND	ND	ND
40563	2014-09-14T02:00:00	ND	ND	ND	ND	ND	ND	ND	ND	ND	ND	ND	ND
40564	2014-09-14T03:00:00	ND	ND	ND	ND	ND	ND	ND	ND	ND	ND	ND	ND
40565	2014-09-14T04:00:00	ND	ND	ND	ND	ND	ND	ND	ND	ND	ND	ND	ND
40566	2014-09-14T05:00:00	ND	ND	ND	ND	ND	ND	ND	ND	ND	ND	ND	ND
40567	2014-09-14T06:00:00	ND	ND	ND	ND	ND	ND	ND	ND	ND	ND	ND	ND
40568	2014-09-14T07:00:00	ND	ND	ND	ND	ND	ND	ND	ND	ND	ND	ND	ND
40569	2014-09-14T08:00:00	ND	ND	ND	ND	ND	ND	ND	ND	ND	ND	ND	ND
40570	2014-09-14T09:00:00	ND	ND	ND	ND	ND	ND	ND	ND	ND	ND	ND	ND
40571	2014-09-14T10:00:00	ND	ND	ND	ND	ND	ND	ND	ND	ND	ND	ND	ND
40572	2014-09-14T11:00:00	ND	ND	ND	ND	ND	ND	ND	ND	ND	ND	ND	ND
40573	2014-09-14T12:00:00	ND	ND	ND	ND	ND	ND	ND	ND	ND	ND	ND	ND
40574	2014-09-14T13:00:00	ND	ND	ND	ND	ND	ND	ND	ND	ND	ND	ND	ND
40575	2014-09-14T14:00:00	ND	ND	ND	ND	ND	ND	ND	ND	ND	ND	ND	ND
40576	2014-09-14T15:00:00	ND	ND	ND	ND	ND	ND	ND	ND	ND	ND	ND	ND
40577	2014-09-14T16:00:00	ND	ND	ND	ND	ND	ND	ND	ND	ND	ND	ND	ND
40578	2014-09-14T17:00:00	ND	ND	ND	ND	ND	ND	ND	ND	ND	ND	ND	ND
40579	2014-09-14T18:00:00	ND	ND	ND	ND	ND	ND	ND	ND	ND	ND	ND	ND
40580	2014-09-14T19:00:00	ND	ND	ND	ND	ND	ND	ND	ND	ND	ND	ND	ND
40581	2014-09-14T20:00:00	ND	ND	ND	ND	ND	ND	ND	ND	ND	ND	ND	ND
40582	2014-09-14T21:00:00	ND	ND	ND	ND	ND	ND	ND	ND	ND	ND	ND	ND
40583	2014-09-14T22:00:00	ND	ND	ND	ND	ND	ND	ND	ND	ND	ND	ND	ND
40584	2014-09-14T23:00:00	ND	ND	ND	ND	ND	ND	ND	ND	ND	ND	ND	ND
40585	2014-09-15T00:00:00	ND	ND	ND	ND	ND	ND	ND	ND	ND	ND	ND	ND
40586	2014-09-15T01:00:00	ND	ND	ND	ND	ND	ND	ND	ND	ND	ND	ND	ND
40587	2014-09-15T02:00:00	ND	ND	ND	ND	ND	ND	ND	ND	ND	ND	ND	ND
40588	2014-09-15T03:00:00	ND	ND	ND	ND	ND	ND	ND	ND	ND	ND	ND	ND
40589	2014-09-15T04:00:00	ND	ND	ND	ND	ND	ND	ND	ND	ND	ND	ND	ND
40590	2014-09-15T05:00:00	ND	ND	ND	ND	ND	ND	ND	ND	ND	ND	ND	ND
40591	2014-09-15T06:00:00	ND	ND	ND	ND	ND	ND	ND	ND	ND	ND	ND	ND
40592	2014-09-15T07:00:00	ND	ND	ND	ND	ND	ND	ND	ND	ND	ND	ND	ND
40593	2014-09-15T08:00:00	ND	ND	ND	ND	ND	ND	ND	ND	ND	ND	ND	ND
40594	2014-09-15T09:00:00	ND	ND	ND	ND	ND	ND	ND	ND	ND	ND	ND	ND
40595	2014-09-15T10:00:00	ND	ND	ND	ND	ND	ND	ND	ND	ND	ND	ND	ND
40596	2014-09-15T11:00:00	ND	ND	ND	ND	ND	ND	ND	ND	ND	ND	ND	ND
40597	2014-09-15T12:00:00	ND	ND	ND	ND	ND	ND	ND	ND	ND	ND	ND	ND
40598	2014-09-15T13:00:00	ND	ND	ND	ND	ND	ND	ND	ND	ND	ND	ND	ND
40599	2014-09-15T14:00:00	ND	ND	ND	ND	ND	ND	ND	ND	ND	ND	ND	ND
40600	2014-09-15T15:00:00	ND	ND	ND	ND	ND	ND	ND	ND	ND	ND	ND	ND
40601	2014-09-15T16:00:00	ND	ND	ND	ND	ND	ND	ND	ND	ND	ND	ND	ND
40602	2014-09-15T17:00:00	ND	ND	ND	ND	ND	ND	ND	ND	ND	ND	ND	ND
40603	2014-09-15T18:00:00	ND	ND	ND	ND	ND	ND	ND	ND	ND	ND	ND	ND
40604	2014-09-15T19:00:00	ND	ND	ND	ND	ND	ND	ND	ND	ND	ND	ND	ND
40605	2014-09-15T20:00:00	ND	ND	ND	ND	ND	ND	ND	ND	ND	ND	ND	ND
40606	2014-09-15T21:00:00	ND	ND	ND	ND	ND	ND	ND	ND	ND	ND	ND	ND
40607	2014-09-15T22:00:00	ND	ND	ND	ND	ND	ND	ND	ND	ND	ND	ND	ND
40608	2014-09-15T23:00:00	ND	ND	ND	ND	ND	ND	ND	ND	ND	ND	ND	ND
40609	2014-09-16T00:00:00	ND	ND	ND	ND	ND	ND	ND	ND	ND	ND	ND	ND
40610	2014-09-16T01:00:00	ND	ND	ND	ND	ND	ND	ND	ND	ND	ND	ND	ND
40611	2014-09-16T02:00:00	ND	ND	ND	ND	ND	ND	ND	ND	ND	ND	ND	ND
40612	2014-09-16T03:00:00	ND	ND	ND	ND	ND	ND	ND	ND	ND	ND	ND	ND
40613	2014-09-16T04:00:00	ND	ND	ND	ND	ND	ND	ND	ND	ND	ND	ND	ND
40614	2014-09-16T05:00:00	ND	ND	ND	ND	ND	ND	ND	ND	ND	ND	ND	ND
40615	2014-09-16T06:00:00	ND	ND	ND	ND	ND	ND	ND	ND	ND	ND	ND	ND
40616	2014-09-16T07:00:00	ND	ND	ND	ND	ND	ND	ND	ND	ND	ND	ND	ND
40617	2014-09-16T08:00:00	ND	ND	ND	ND	ND	ND	ND	ND	ND	ND	ND	ND
40618	2014-09-16T09:00:00	ND	ND	ND	ND	ND	ND	ND	ND	ND	ND	ND	ND
40619	2014-09-16T10:00:00	ND	ND	ND	ND	ND	ND	ND	ND	ND	ND	ND	ND
40620	2014-09-16T11:00:00	ND	ND	ND	ND	ND	ND	ND	ND	ND	ND	ND	ND
40621	2014-09-16T12:00:00	ND	ND	ND	ND	ND	ND	ND	ND	ND	ND	ND	ND
40622	2014-09-16T13:00:00	ND	ND	ND	ND	ND	ND	ND	ND	ND	ND	ND	ND
40623	2014-09-16T14:00:00	ND	ND	ND	ND	ND	ND	ND	ND	ND	ND	ND	ND
40624	2014-09-16T15:00:00	ND	ND	ND	ND	ND	ND	ND	ND	ND	ND	ND	ND
40625	2014-09-16T16:00:00	ND	ND	ND	ND	ND	ND	ND	ND	ND	ND	ND	ND
40626	2014-09-16T17:00:00	ND	ND	ND	ND	ND	ND	ND	ND	ND	ND	ND	ND
40627	2014-09-16T18:00:00	ND	ND	ND	ND	ND	ND	ND	ND	ND	ND	ND	ND
40628	2014-09-16T19:00:00	ND	ND	ND	ND	ND	ND	ND	ND	ND	ND	ND	ND
40629	2014-09-16T20:00:00	ND	ND	ND	ND	ND	ND	ND	ND	ND	ND	ND	ND
40630	2014-09-16T21:00:00	ND	ND	ND	ND	ND	ND	ND	ND	ND	ND	ND	ND
40631	2014-09-16T22:00:00	ND	ND	ND	ND	ND	ND	ND	ND	ND	ND	ND	ND
40632	2014-09-16T23:00:00	ND	ND	ND	ND	ND	ND	ND	ND	ND	ND	ND	ND
40633	2014-09-17T00:00:00	ND	ND	ND	ND	ND	ND	ND	ND	ND	ND	ND	ND
40634	2014-09-17T01:00:00	ND	ND	ND	ND	ND	ND	ND	ND	ND	ND	ND	ND
40635	2014-09-17T02:00:00	ND	ND	ND	ND	ND	ND	ND	ND	ND	ND	ND	ND
40636	2014-09-17T03:00:00	ND	ND	ND	ND	ND	ND	ND	ND	ND	ND	ND	ND
40637	2014-09-17T04:00:00	ND	ND	ND	ND	ND	ND	ND	ND	ND	ND	ND	ND
40638	2014-09-17T05:00:00	ND	ND	ND	ND	ND	ND	ND	ND	ND	ND	ND	ND
40639	2014-09-17T06:00:00	ND	ND	ND	ND	ND	ND	ND	ND	ND	ND	ND	ND
40640	2014-09-17T07:00:00	ND	ND	ND	ND	ND	ND	ND	ND	ND	ND	ND	ND
40641	2014-09-17T08:00:00	ND	ND	ND	ND	ND	ND	ND	ND	ND	ND	ND	ND
40642	2014-09-17T09:00:00	ND	ND	ND	ND	ND	ND	ND	ND	ND	ND	ND	ND
40643	2014-09-17T10:00:00	ND	ND	ND	ND	ND	ND	ND	ND	ND	ND	ND	ND
40644	2014-09-17T11:00:00	ND	ND	ND	ND	ND	ND	ND	ND	ND	ND	ND	ND
40645	2014-09-17T12:00:00	ND	ND	ND	ND	ND	ND	ND	ND	ND	ND	ND	ND
40646	2014-09-17T13:00:00	ND	ND	ND	ND	ND	ND	ND	ND	ND	ND	ND	ND
40647	2014-09-17T14:00:00	ND	ND	ND	ND	ND	ND	ND	ND	ND	ND	ND	ND
40648	2014-09-17T15:00:00	ND	ND	ND	ND	ND	ND	ND	ND	ND	ND	ND	ND
40649	2014-09-17T16:00:00	ND	ND	ND	ND	ND	ND	ND	ND	ND	ND	ND	ND
40650	2014-09-17T17:00:00	ND	ND	ND	ND	ND	ND	ND	ND	ND	ND	ND	ND
40651	2014-09-17T18:00:00	ND	ND	ND	ND	ND	ND	ND	ND	ND	ND	ND	ND
40652	2014-09-17T19:00:00	ND	ND	ND	ND	ND	ND	ND	ND	ND	ND	ND	ND
40653	2014-09-17T20:00:00	ND	ND	ND	ND	ND	ND	ND	ND	ND	ND	ND	ND
40654	2014-09-17T21:00:00	ND	ND	ND	ND	ND	ND	ND	ND	ND	ND	ND	ND
40655	2014-09-17T22:00:00	ND	ND	ND	ND	ND	ND	ND	ND	ND	ND	ND	ND
40656	2014-09-17T23:00:00	ND	ND	ND	ND	ND	ND	ND	ND	ND	ND	ND	ND
40657	2014-09-18T00:00:00	ND	ND	ND	ND	ND	ND	ND	ND	ND	ND	ND	ND
40658	2014-09-18T01:00:00	ND	ND	ND	ND	ND	ND	ND	ND	ND	ND	ND	ND
40659	2014-09-18T02:00:00	ND	ND	ND	ND	ND	ND	ND	ND	ND	ND	ND	ND
40660	2014-09-18T03:00:00	ND	ND	ND	ND	ND	ND	ND	ND	ND	ND	ND	ND
40661	2014-09-18T04:00:00	ND	ND	ND	ND	ND	ND	ND	ND	ND	ND	ND	ND
40662	2014-09-18T05:00:00	ND	ND	ND	ND	ND	ND	ND	ND	ND	ND	ND	ND
40663	2014-09-18T06:00:00	ND	ND	ND	ND	ND	ND	ND	ND	ND	ND	ND	ND
40664	2014-09-18T07:00:00	ND	ND	ND	ND	ND	ND	ND	ND	ND	ND	ND	ND
40665	2014-09-18T08:00:00	ND	ND	ND	ND	ND	ND	ND	ND	ND	ND	ND	ND
40666	2014-09-18T09:00:00	ND	ND	ND	ND	ND	ND	ND	ND	ND	ND	ND	ND
40667	2014-09-18T10:00:00	ND	ND	ND	ND	ND	ND	ND	ND	ND	ND	ND	ND
40668	2014-09-18T11:00:00	ND	ND	ND	ND	ND	ND	ND	ND	ND	ND	ND	ND
40669	2014-09-18T12:00:00	ND	ND	ND	ND	ND	ND	ND	ND	ND	ND	ND	ND
40670	2014-09-18T13:00:00	ND	ND	ND	ND	ND	ND	ND	ND	ND	ND	ND	ND
40671	2014-09-18T14:00:00	ND	ND	ND	ND	ND	ND	ND	ND	ND	ND	ND	ND
40672	2014-09-18T15:00:00	ND	ND	ND	ND	ND	ND	ND	ND	ND	ND	ND	ND
40673	2014-09-18T16:00:00	ND	ND	ND	ND	ND	ND	ND	ND	ND	ND	ND	ND
40674	2014-09-18T17:00:00	ND	ND	ND	ND	ND	ND	ND	ND	ND	ND	ND	ND
40675	2014-09-18T18:00:00	ND	ND	ND	ND	ND	ND	ND	ND	ND	ND	ND	ND
40676	2014-09-18T19:00:00	ND	ND	ND	ND	ND	ND	ND	ND	ND	ND	ND	ND
40677	2014-09-18T20:00:00	ND	ND	ND	ND	ND	ND	ND	ND	ND	ND	ND	ND
40678	2014-09-18T21:00:00	ND	ND	ND	ND	ND	ND	ND	ND	ND	ND	ND	ND
40679	2014-09-18T22:00:00	ND	ND	ND	ND	ND	ND	ND	ND	ND	ND	ND	ND
40680	2014-09-18T23:00:00	ND	ND	ND	ND	ND	ND	ND	ND	ND	ND	ND	ND
40681	2014-09-19T00:00:00	ND	ND	ND	ND	ND	ND	ND	ND	ND	ND	ND	ND
40682	2014-09-19T01:00:00	ND	ND	ND	ND	ND	ND	ND	ND	ND	ND	ND	ND
40683	2014-09-19T02:00:00	ND	ND	ND	ND	ND	ND	ND	ND	ND	ND	ND	ND
40684	2014-09-19T03:00:00	ND	ND	ND	ND	ND	ND	ND	ND	ND	ND	ND	ND
40685	2014-09-19T04:00:00	ND	ND	ND	ND	ND	ND	ND	ND	ND	ND	ND	ND
40686	2014-09-19T05:00:00	ND	ND	ND	ND	ND	ND	ND	ND	ND	ND	ND	ND
40687	2014-09-19T06:00:00	ND	ND	ND	ND	ND	ND	ND	ND	ND	ND	ND	ND
40688	2014-09-19T07:00:00	ND	ND	ND	ND	ND	ND	ND	ND	ND	ND	ND	ND
40689	2014-09-19T08:00:00	ND	ND	ND	ND	ND	ND	ND	ND	ND	ND	ND	ND
40690	2014-09-19T09:00:00	ND	ND	ND	ND	ND	ND	ND	ND	ND	ND	ND	ND
40691	2014-09-19T10:00:00	ND	ND	ND	ND	ND	ND	ND	ND	ND	ND	ND	ND
40692	2014-09-19T11:00:00	ND	ND	ND	ND	ND	ND	ND	ND	ND	ND	ND	ND
40693	2014-09-19T12:00:00	ND	ND	ND	ND	ND	ND	ND	ND	ND	ND	ND	ND
40694	2014-09-19T13:00:00	ND	ND	ND	ND	ND	ND	ND	ND	ND	ND	ND	ND
40695	2014-09-19T14:00:00	ND	ND	ND	ND	ND	ND	ND	ND	ND	ND	ND	ND
40696	2014-09-19T15:00:00	ND	ND	ND	ND	ND	ND	ND	ND	ND	ND	ND	ND
40697	2014-09-19T16:00:00	ND	ND	ND	ND	ND	ND	ND	ND	ND	ND	ND	ND
40698	2014-09-19T17:00:00	ND	ND	ND	ND	ND	ND	ND	ND	ND	ND	ND	ND
40699	2014-09-19T18:00:00	ND	ND	ND	ND	ND	ND	ND	ND	ND	ND	ND	ND
40700	2014-09-19T19:00:00	ND	ND	ND	ND	ND	ND	ND	ND	ND	ND	ND	ND
40701	2014-09-19T20:00:00	ND	ND	ND	ND	ND	ND	ND	ND	ND	ND	ND	ND
40702	2014-09-19T21:00:00	ND	ND	ND	ND	ND	ND	ND	ND	ND	ND	ND	ND
40703	2014-09-19T22:00:00	ND	ND	ND	ND	ND	ND	ND	ND	ND	ND	ND	ND
40704	2014-09-19T23:00:00	ND	ND	ND	ND	ND	ND	ND	ND	ND	ND	ND	ND
40705	2014-09-20T00:00:00	ND	ND	ND	ND	ND	ND	ND	ND	ND	ND	ND	ND
40706	2014-09-20T01:00:00	ND	ND	ND	ND	ND	ND	ND	ND	ND	ND	ND	ND
40707	2014-09-20T02:00:00	ND	ND	ND	ND	ND	ND	ND	ND	ND	ND	ND	ND
40708	2014-09-20T03:00:00	ND	ND	ND	ND	ND	ND	ND	ND	ND	ND	ND	ND
40709	2014-09-20T04:00:00	ND	ND	ND	ND	ND	ND	ND	ND	ND	ND	ND	ND
40710	2014-09-20T05:00:00	ND	ND	ND	ND	ND	ND	ND	ND	ND	ND	ND	ND
40711	2014-09-20T06:00:00	ND	ND	ND	ND	ND	ND	ND	ND	ND	ND	ND	ND
40712	2014-09-20T07:00:00	ND	ND	ND	ND	ND	ND	ND	ND	ND	ND	ND	ND
40713	2014-09-20T08:00:00	ND	ND	ND	ND	ND	ND	ND	ND	ND	ND	ND	ND
40714	2014-09-20T09:00:00	ND	ND	ND	ND	ND	ND	ND	ND	ND	ND	ND	ND
40715	2014-09-20T10:00:00	ND	ND	ND	ND	ND	ND	ND	ND	ND	ND	ND	ND
40716	2014-09-20T11:00:00	ND	ND	ND	ND	ND	ND	ND	ND	ND	ND	ND	ND
40717	2014-09-20T12:00:00	ND	ND	ND	ND	ND	ND	ND	ND	ND	ND	ND	ND
40718	2014-09-20T13:00:00	ND	ND	ND	ND	ND	ND	ND	ND	ND	ND	ND	ND
40719	2014-09-20T14:00:00	ND	ND	ND	ND	ND	ND	ND	ND	ND	ND	ND	ND
40720	2014-09-20T15:00:00	ND	ND	ND	ND	ND	ND	ND	ND	ND	ND	ND	ND
40721	2014-09-20T16:00:00	ND	ND	ND	ND	ND	ND	ND	ND	ND	ND	ND	ND
40722	2014-09-20T17:00:00	ND	ND	ND	ND	ND	ND	ND	ND	ND	ND	ND	ND
40723	2014-09-20T18:00:00	ND	ND	ND	ND	ND	ND	ND	ND	ND	ND	ND	ND
40724	2014-09-20T19:00:00	ND	ND	ND	ND	ND	ND	ND	ND	ND	ND	ND	ND
40725	2014-09-20T20:00:00	ND	ND	ND	ND	ND	ND	ND	ND	ND	ND	ND	ND
40726	2014-09-20T21:00:00	ND	ND	ND	ND	ND	ND	ND	ND	ND	ND	ND	ND
40727	2014-09-20T22:00:00	ND	ND	ND	ND	ND	ND	ND	ND	ND	ND	ND	ND
40728	2014-09-20T23:00:00	ND	ND	ND	ND	ND	ND	ND	ND	ND	ND	ND	ND
40729	2014-09-21T00:00:00	ND	ND	ND	ND	ND	ND	ND	ND	ND	ND	ND	ND
40730	2014-09-21T01:00:00	ND	ND	ND	ND	ND	ND	ND	ND	ND	ND	ND	ND
40731	2014-09-21T02:00:00	ND	ND	ND	ND	ND	ND	ND	ND	ND	ND	ND	ND
40732	2014-09-21T03:00:00	ND	ND	ND	ND	ND	ND	ND	ND	ND	ND	ND	ND
40733	2014-09-21T04:00:00	ND	ND	ND	ND	ND	ND	ND	ND	ND	ND	ND	ND
40734	2014-09-21T05:00:00	ND	ND	ND	ND	ND	ND	ND	ND	ND	ND	ND	ND
40735	2014-09-21T06:00:00	ND	ND	ND	ND	ND	ND	ND	ND	ND	ND	ND	ND
40736	2014-09-21T07:00:00	ND	ND	ND	ND	ND	ND	ND	ND	ND	ND	ND	ND
40737	2014-09-21T08:00:00	ND	ND	ND	ND	ND	ND	ND	ND	ND	ND	ND	ND
40738	2014-09-21T09:00:00	ND	ND	ND	ND	ND	ND	ND	ND	ND	ND	ND	ND
40739	2014-09-21T10:00:00	ND	ND	ND	ND	ND	ND	ND	ND	ND	ND	ND	ND
40740	2014-09-21T11:00:00	ND	ND	ND	ND	ND	ND	ND	ND	ND	ND	ND	ND
40741	2014-09-21T12:00:00	ND	ND	ND	ND	ND	ND	ND	ND	ND	ND	ND	ND
40742	2014-09-21T13:00:00	ND	ND	ND	ND	ND	ND	ND	ND	ND	ND	ND	ND
40743	2014-09-21T14:00:00	ND	ND	ND	ND	ND	ND	ND	ND	ND	ND	ND	ND
40744	2014-09-21T15:00:00	ND	ND	ND	ND	ND	ND	ND	ND	ND	ND	ND	ND
40745	2014-09-21T16:00:00	ND	ND	ND	ND	ND	ND	ND	ND	ND	ND	ND	ND
40746	2014-09-21T17:00:00	ND	ND	ND	ND	ND	ND	ND	ND	ND	ND	ND	ND
40747	2014-09-21T18:00:00	ND	ND	ND	ND	ND	ND	ND	ND	ND	ND	ND	ND
40748	2014-09-21T19:00:00	ND	ND	ND	ND	ND	ND	ND	ND	ND	ND	ND	ND
40749	2014-09-21T20:00:00	ND	ND	ND	ND	ND	ND	ND	ND	ND	ND	ND	ND
40750	2014-09-21T21:00:00	ND	ND	ND	ND	ND	ND	ND	ND	ND	ND	ND	ND
40751	2014-09-21T22:00:00	ND	ND	ND	ND	ND	ND	ND	ND	ND	ND	ND	ND
40752	2014-09-21T23:00:00	ND	ND	ND	ND	ND	ND	ND	ND	ND	ND	ND	ND
40753	2014-09-22T00:00:00	ND	ND	ND	ND	ND	ND	ND	ND	ND	ND	ND	ND
40754	2014-09-22T01:00:00	ND	ND	ND	ND	ND	ND	ND	ND	ND	ND	ND	ND
40755	2014-09-22T02:00:00	ND	ND	ND	ND	ND	ND	ND	ND	ND	ND	ND	ND
40756	2014-09-22T03:00:00	ND	ND	ND	ND	ND	ND	ND	ND	ND	ND	ND	ND
40757	2014-09-22T04:00:00	ND	ND	ND	ND	ND	ND	ND	ND	ND	ND	ND	ND
40758	2014-09-22T05:00:00	ND	ND	ND	ND	ND	ND	ND	ND	ND	ND	ND	ND
40759	2014-09-22T06:00:00	ND	ND	ND	ND	ND	ND	ND	ND	ND	ND	ND	ND
40760	2014-09-22T07:00:00	ND	ND	ND	ND	ND	ND	ND	ND	ND	ND	ND	ND
40761	2014-09-22T08:00:00	ND	ND	ND	ND	ND	ND	ND	ND	ND	ND	ND	ND
40762	2014-09-22T09:00:00	ND	ND	ND	ND	ND	ND	ND	ND	ND	ND	ND	ND
40763	2014-09-22T10:00:00	ND	ND	ND	ND	ND	ND	ND	ND	ND	ND	ND	ND
40764	2014-09-22T11:00:00	ND	ND	ND	ND	ND	ND	ND	ND	ND	ND	ND	ND
40765	2014-09-22T12:00:00	ND	ND	ND	ND	ND	ND	ND	ND	ND	ND	ND	ND
40766	2014-09-22T13:00:00	ND	ND	ND	ND	ND	ND	ND	ND	ND	ND	ND	ND
40767	2014-09-22T14:00:00	ND	ND	ND	ND	ND	ND	ND	ND	ND	ND	ND	ND
40768	2014-09-22T15:00:00	ND	ND	ND	ND	ND	ND	ND	ND	ND	ND	ND	ND
40769	2014-09-22T16:00:00	ND	ND	ND	ND	ND	ND	ND	ND	ND	ND	ND	ND
40770	2014-09-22T17:00:00	ND	ND	ND	ND	ND	ND	ND	ND	ND	ND	ND	ND
40771	2014-09-22T18:00:00	ND	ND	ND	ND	ND	ND	ND	ND	ND	ND	ND	ND
40772	2014-09-22T19:00:00	ND	ND	ND	ND	ND	ND	ND	ND	ND	ND	ND	ND
40773	2014-09-22T20:00:00	ND	ND	ND	ND	ND	ND	ND	ND	ND	ND	ND	ND
40774	2014-09-22T21:00:00	ND	ND	ND	ND	ND	ND	ND	ND	ND	ND	ND	ND
40775	2014-09-22T22:00:00	ND	ND	ND	ND	ND	ND	ND	ND	ND	ND	ND	ND
40776	2014-09-22T23:00:00	ND	ND	ND	ND	ND	ND	ND	ND	ND	ND	ND	ND
40777	2014-09-23T00:00:00	ND	ND	ND	ND	ND	ND	ND	ND	ND	ND	ND	ND
40778	2014-09-23T01:00:00	ND	ND	ND	ND	ND	ND	ND	ND	ND	ND	ND	ND
40779	2014-09-23T02:00:00	ND	ND	ND	ND	ND	ND	ND	ND	ND	ND	ND	ND
40780	2014-09-23T03:00:00	ND	ND	ND	ND	ND	ND	ND	ND	ND	ND	ND	ND
40781	2014-09-23T04:00:00	ND	ND	ND	ND	ND	ND	ND	ND	ND	ND	ND	ND
40782	2014-09-23T05:00:00	ND	ND	ND	ND	ND	ND	ND	ND	ND	ND	ND	ND
40783	2014-09-23T06:00:00	ND	ND	ND	ND	ND	ND	ND	ND	ND	ND	ND	ND
40784	2014-09-23T07:00:00	ND	ND	ND	ND	ND	ND	ND	ND	ND	ND	ND	ND
40785	2014-09-23T08:00:00	ND	ND	ND	ND	ND	ND	ND	ND	ND	ND	ND	ND
40786	2014-09-23T09:00:00	ND	ND	ND	ND	ND	ND	ND	ND	ND	ND	ND	ND
40787	2014-09-23T10:00:00	ND	ND	ND	ND	ND	ND	ND	ND	ND	ND	ND	ND
40788	2014-09-23T11:00:00	ND	ND	ND	ND	ND	ND	ND	ND	ND	ND	ND	ND
40789	2014-09-23T12:00:00	ND	ND	ND	ND	ND	ND	ND	ND	ND	ND	ND	ND
40790	2014-09-23T13:00:00	ND	ND	ND	ND	ND	ND	ND	ND	ND	ND	ND	ND
40791	2014-09-23T14:00:00	ND	ND	ND	ND	ND	ND	ND	ND	ND	ND	ND	ND
40792	2014-09-23T15:00:00	ND	ND	ND	ND	ND	ND	ND	ND	ND	ND	ND	ND
40793	2014-09-23T16:00:00	ND	ND	ND	ND	ND	ND	ND	ND	ND	ND	ND	ND
40794	2014-09-23T17:00:00	ND	ND	ND	ND	ND	ND	ND	ND	ND	ND	ND	ND
40795	2014-09-23T18:00:00	ND	ND	ND	ND	ND	ND	ND	ND	ND	ND	ND	ND
40796	2014-09-23T19:00:00	ND	ND	ND	ND	ND	ND	ND	ND	ND	ND	ND	ND
40797	2014-09-23T20:00:00	ND	ND	ND	ND	ND	ND	ND	ND	ND	ND	ND	ND
40798	2014-09-23T21:00:00	ND	ND	ND	ND	ND	ND	ND	ND	ND	ND	ND	ND
40799	2014-09-23T22:00:00	ND	ND	ND	ND	ND	ND	ND	ND	ND	ND	ND	ND
40800	2014-09-23T23:00:00	ND	ND	ND	ND	ND	ND	ND	ND	ND	ND	ND	ND
40801	2014-09-24T00:00:00	ND	ND	ND	ND	ND	ND	ND	ND	ND	ND	ND	ND
40802	2014-09-24T01:00:00	ND	ND	ND	ND	ND	ND	ND	ND	ND	ND	ND	ND
40803	2014-09-24T02:00:00	ND	ND	ND	ND	ND	ND	ND	ND	ND	ND	ND	ND
40804	2014-09-24T03:00:00	ND	ND	ND	ND	ND	ND	ND	ND	ND	ND	ND	ND
40805	2014-09-24T04:00:00	ND	ND	ND	ND	ND	ND	ND	ND	ND	ND	ND	ND
40806	2014-09-24T05:00:00	ND	ND	ND	ND	ND	ND	ND	ND	ND	ND	ND	ND
40807	2014-09-24T06:00:00	ND	ND	ND	ND	ND	ND	ND	ND	ND	ND	ND	ND
40808	2014-09-24T07:00:00	ND	ND	ND	ND	ND	ND	ND	ND	ND	ND	ND	ND
40809	2014-09-24T08:00:00	ND	ND	ND	ND	ND	ND	ND	ND	ND	ND	ND	ND
40810	2014-09-24T09:00:00	ND	ND	ND	ND	ND	ND	ND	ND	ND	ND	ND	ND
40811	2014-09-24T10:00:00	ND	ND	ND	ND	ND	ND	ND	ND	ND	ND	ND	ND
40812	2014-09-24T11:00:00	ND	ND	ND	ND	ND	ND	ND	ND	ND	ND	ND	ND
40813	2014-09-24T12:00:00	ND	ND	ND	ND	ND	ND	ND	ND	ND	ND	ND	ND
40814	2014-09-24T13:00:00	ND	ND	ND	ND	ND	ND	ND	ND	ND	ND	ND	ND
40815	2014-09-24T14:00:00	ND	ND	ND	ND	ND	ND	ND	ND	ND	ND	ND	ND
40816	2014-09-24T15:00:00	ND	ND	ND	ND	ND	ND	ND	ND	ND	ND	ND	ND
40817	2014-09-24T16:00:00	ND	ND	ND	ND	ND	ND	ND	ND	ND	ND	ND	ND
40818	2014-09-24T17:00:00	ND	ND	ND	ND	ND	ND	ND	ND	ND	ND	ND	ND
40819	2014-09-24T18:00:00	ND	ND	ND	ND	ND	ND	ND	ND	ND	ND	ND	ND
40820	2014-09-24T19:00:00	ND	ND	ND	ND	ND	ND	ND	ND	ND	ND	ND	ND
40821	2014-09-24T20:00:00	ND	ND	ND	ND	ND	ND	ND	ND	ND	ND	ND	ND
40822	2014-09-24T21:00:00	ND	ND	ND	ND	ND	ND	ND	ND	ND	ND	ND	ND
40823	2014-09-24T22:00:00	ND	ND	ND	ND	ND	ND	ND	ND	ND	ND	ND	ND
40824	2014-09-24T23:00:00	ND	ND	ND	ND	ND	ND	ND	ND	ND	ND	ND	ND
40825	2014-09-25T00:00:00	ND	ND	ND	ND	ND	ND	ND	ND	ND	ND	ND	ND
40826	2014-09-25T01:00:00	ND	ND	ND	ND	ND	ND	ND	ND	ND	ND	ND	ND
40827	2014-09-25T02:00:00	ND	ND	ND	ND	ND	ND	ND	ND	ND	ND	ND	ND
40828	2014-09-25T03:00:00	ND	ND	ND	ND	ND	ND	ND	ND	ND	ND	ND	ND
40829	2014-09-25T04:00:00	ND	ND	ND	ND	ND	ND	ND	ND	ND	ND	ND	ND
40830	2014-09-25T05:00:00	ND	ND	ND	ND	ND	ND	ND	ND	ND	ND	ND	ND
40831	2014-09-25T06:00:00	ND	ND	ND	ND	ND	ND	ND	ND	ND	ND	ND	ND
40832	2014-09-25T07:00:00	ND	ND	ND	ND	ND	ND	ND	ND	ND	ND	ND	ND
40833	2014-09-25T08:00:00	ND	ND	ND	ND	ND	ND	ND	ND	ND	ND	ND	ND
40834	2014-09-25T09:00:00	ND	ND	ND	ND	ND	ND	ND	ND	ND	ND	ND	ND
40835	2014-09-25T10:00:00	ND	ND	ND	ND	ND	ND	ND	ND	ND	ND	ND	ND
40836	2014-09-25T11:00:00	ND	ND	ND	ND	ND	ND	ND	ND	ND	ND	ND	ND
40837	2014-09-25T12:00:00	ND	ND	ND	ND	ND	ND	ND	ND	ND	ND	ND	ND
40838	2014-09-25T13:00:00	ND	ND	ND	ND	ND	ND	ND	ND	ND	ND	ND	ND
40839	2014-09-25T14:00:00	ND	ND	ND	ND	ND	ND	ND	ND	ND	ND	ND	ND
40840	2014-09-25T15:00:00	ND	ND	ND	ND	ND	ND	ND	ND	ND	ND	ND	ND
40841	2014-09-25T16:00:00	ND	ND	ND	ND	ND	ND	ND	ND	ND	ND	ND	ND
40842	2014-09-25T17:00:00	ND	ND	ND	ND	ND	ND	ND	ND	ND	ND	ND	ND
40843	2014-09-25T18:00:00	ND	ND	ND	ND	ND	ND	ND	ND	ND	ND	ND	ND
40844	2014-09-25T19:00:00	ND	ND	ND	ND	ND	ND	ND	ND	ND	ND	ND	ND
40845	2014-09-25T20:00:00	ND	ND	ND	ND	ND	ND	ND	ND	ND	ND	ND	ND
40846	2014-09-25T21:00:00	ND	ND	ND	ND	ND	ND	ND	ND	ND	ND	ND	ND
40847	2014-09-25T22:00:00	ND	ND	ND	ND	ND	ND	ND	ND	ND	ND	ND	ND
40848	2014-09-25T23:00:00	ND	ND	ND	ND	ND	ND	ND	ND	ND	ND	ND	ND
40849	2014-09-26T00:00:00	ND	ND	ND	ND	ND	ND	ND	ND	ND	ND	ND	ND
40850	2014-09-26T01:00:00	ND	ND	ND	ND	ND	ND	ND	ND	ND	ND	ND	ND
40851	2014-09-26T02:00:00	ND	ND	ND	ND	ND	ND	ND	ND	ND	ND	ND	ND
40852	2014-09-26T03:00:00	ND	ND	ND	ND	ND	ND	ND	ND	ND	ND	ND	ND
40853	2014-09-26T04:00:00	ND	ND	ND	ND	ND	ND	ND	ND	ND	ND	ND	ND
40854	2014-09-26T05:00:00	ND	ND	ND	ND	ND	ND	ND	ND	ND	ND	ND	ND
40855	2014-09-26T06:00:00	ND	ND	ND	ND	ND	ND	ND	ND	ND	ND	ND	ND
40856	2014-09-26T07:00:00	ND	ND	ND	ND	ND	ND	ND	ND	ND	ND	ND	ND
40857	2014-09-26T08:00:00	ND	ND	ND	ND	ND	ND	ND	ND	ND	ND	ND	ND
40858	2014-09-26T09:00:00	ND	ND	ND	ND	ND	ND	ND	ND	ND	ND	ND	ND
40859	2014-09-26T10:00:00	ND	ND	ND	ND	ND	ND	ND	ND	ND	ND	ND	ND
40860	2014-09-26T11:00:00	ND	ND	ND	ND	ND	ND	ND	ND	ND	ND	ND	ND
40861	2014-09-26T12:00:00	ND	ND	ND	ND	ND	ND	ND	ND	ND	ND	ND	ND
40862	2014-09-26T13:00:00	ND	ND	ND	ND	ND	ND	ND	ND	ND	ND	ND	ND
40863	2014-09-26T14:00:00	ND	ND	ND	ND	ND	ND	ND	ND	ND	ND	ND	ND
40864	2014-09-26T15:00:00	ND	ND	ND	ND	ND	ND	ND	ND	ND	ND	ND	ND
40865	2014-09-26T16:00:00	ND	ND	ND	ND	ND	ND	ND	ND	ND	ND	ND	ND
40866	2014-09-26T17:00:00	ND	ND	ND	ND	ND	ND	ND	ND	ND	ND	ND	ND
40867	2014-09-26T18:00:00	ND	ND	ND	ND	ND	ND	ND	ND	ND	ND	ND	ND
40868	2014-09-26T19:00:00	ND	ND	ND	ND	ND	ND	ND	ND	ND	ND	ND	ND
40869	2014-09-26T20:00:00	ND	ND	ND	ND	ND	ND	ND	ND	ND	ND	ND	ND
40870	2014-09-26T21:00:00	ND	ND	ND	ND	ND	ND	ND	ND	ND	ND	ND	ND
40871	2014-09-26T22:00:00	ND	ND	ND	ND	ND	ND	ND	ND	ND	ND	ND	ND
40872	2014-09-26T23:00:00	ND	ND	ND	ND	ND	ND	ND	ND	ND	ND	ND	ND
40873	2014-09-27T00:00:00	ND	ND	ND	ND	ND	ND	ND	ND	ND	ND	ND	ND
40874	2014-09-27T01:00:00	ND	ND	ND	ND	ND	ND	ND	ND	ND	ND	ND	ND
40875	2014-09-27T02:00:00	ND	ND	ND	ND	ND	ND	ND	ND	ND	ND	ND	ND
40876	2014-09-27T03:00:00	ND	ND	ND	ND	ND	ND	ND	ND	ND	ND	ND	ND
40877	2014-09-27T04:00:00	ND	ND	ND	ND	ND	ND	ND	ND	ND	ND	ND	ND
40878	2014-09-27T05:00:00	ND	ND	ND	ND	ND	ND	ND	ND	ND	ND	ND	ND
40879	2014-09-27T06:00:00	ND	ND	ND	ND	ND	ND	ND	ND	ND	ND	ND	ND
40880	2014-09-27T07:00:00	ND	ND	ND	ND	ND	ND	ND	ND	ND	ND	ND	ND
40881	2014-09-27T08:00:00	ND	ND	ND	ND	ND	ND	ND	ND	ND	ND	ND	ND
40882	2014-09-27T09:00:00	ND	ND	ND	ND	ND	ND	ND	ND	ND	ND	ND	ND
40883	2014-09-27T10:00:00	ND	ND	ND	ND	ND	ND	ND	ND	ND	ND	ND	ND
40884	2014-09-27T11:00:00	ND	ND	ND	ND	ND	ND	ND	ND	ND	ND	ND	ND
40885	2014-09-27T12:00:00	ND	ND	ND	ND	ND	ND	ND	ND	ND	ND	ND	ND
40886	2014-09-27T13:00:00	ND	ND	ND	ND	ND	ND	ND	ND	ND	ND	ND	ND
40887	2014-09-27T14:00:00	ND	ND	ND	ND	ND	ND	ND	ND	ND	ND	ND	ND
40888	2014-09-27T15:00:00	ND	ND	ND	ND	ND	ND	ND	ND	ND	ND	ND	ND
40889	2014-09-27T16:00:00	ND	ND	ND	ND	ND	ND	ND	ND	ND	ND	ND	ND
40890	2014-09-27T17:00:00	ND	ND	ND	ND	ND	ND	ND	ND	ND	ND	ND	ND
40891	2014-09-27T18:00:00	ND	ND	ND	ND	ND	ND	ND	ND	ND	ND	ND	ND
40892	2014-09-27T19:00:00	ND	ND	ND	ND	ND	ND	ND	ND	ND	ND	ND	ND
40893	2014-09-27T20:00:00	ND	ND	ND	ND	ND	ND	ND	ND	ND	ND	ND	ND
40894	2014-09-27T21:00:00	ND	ND	ND	ND	ND	ND	ND	ND	ND	ND	ND	ND
40895	2014-09-27T22:00:00	ND	ND	ND	ND	ND	ND	ND	ND	ND	ND	ND	ND
40896	2014-09-27T23:00:00	ND	ND	ND	ND	ND	ND	ND	ND	ND	ND	ND	ND
40897	2014-09-28T00:00:00	ND	ND	ND	ND	ND	ND	ND	ND	ND	ND	ND	ND
40898	2014-09-28T01:00:00	ND	ND	ND	ND	ND	ND	ND	ND	ND	ND	ND	ND
40899	2014-09-28T02:00:00	ND	ND	ND	ND	ND	ND	ND	ND	ND	ND	ND	ND
40900	2014-09-28T03:00:00	ND	ND	ND	ND	ND	ND	ND	ND	ND	ND	ND	ND
40901	2014-09-28T04:00:00	ND	ND	ND	ND	ND	ND	ND	ND	ND	ND	ND	ND
40902	2014-09-28T05:00:00	ND	ND	ND	ND	ND	ND	ND	ND	ND	ND	ND	ND
40903	2014-09-28T06:00:00	ND	ND	ND	ND	ND	ND	ND	ND	ND	ND	ND	ND
40904	2014-09-28T07:00:00	ND	ND	ND	ND	ND	ND	ND	ND	ND	ND	ND	ND
40905	2014-09-28T08:00:00	ND	ND	ND	ND	ND	ND	ND	ND	ND	ND	ND	ND
40906	2014-09-28T09:00:00	ND	ND	ND	ND	ND	ND	ND	ND	ND	ND	ND	ND
40907	2014-09-28T10:00:00	ND	ND	ND	ND	ND	ND	ND	ND	ND	ND	ND	ND
40908	2014-09-28T11:00:00	ND	ND	ND	ND	ND	ND	ND	ND	ND	ND	ND	ND
40909	2014-09-28T12:00:00	ND	ND	ND	ND	ND	ND	ND	ND	ND	ND	ND	ND
40910	2014-09-28T13:00:00	ND	ND	ND	ND	ND	ND	ND	ND	ND	ND	ND	ND
40911	2014-09-28T14:00:00	ND	ND	ND	ND	ND	ND	ND	ND	ND	ND	ND	ND
40912	2014-09-28T15:00:00	ND	ND	ND	ND	ND	ND	ND	ND	ND	ND	ND	ND
40913	2014-09-28T16:00:00	ND	ND	ND	ND	ND	ND	ND	ND	ND	ND	ND	ND
40914	2014-09-28T17:00:00	ND	ND	ND	ND	ND	ND	ND	ND	ND	ND	ND	ND
40915	2014-09-28T18:00:00	ND	ND	ND	ND	ND	ND	ND	ND	ND	ND	ND	ND
40916	2014-09-28T19:00:00	ND	ND	ND	ND	ND	ND	ND	ND	ND	ND	ND	ND
40917	2014-09-28T20:00:00	ND	ND	ND	ND	ND	ND	ND	ND	ND	ND	ND	ND
40918	2014-09-28T21:00:00	ND	ND	ND	ND	ND	ND	ND	ND	ND	ND	ND	ND
40919	2014-09-28T22:00:00	ND	ND	ND	ND	ND	ND	ND	ND	ND	ND	ND	ND
40920	2014-09-28T23:00:00	ND	ND	ND	ND	ND	ND	ND	ND	ND	ND	ND	ND
40921	2014-09-29T00:00:00	ND	ND	ND	ND	ND	ND	ND	ND	ND	ND	ND	ND
40922	2014-09-29T01:00:00	ND	ND	ND	ND	ND	ND	ND	ND	ND	ND	ND	ND
40923	2014-09-29T02:00:00	ND	ND	ND	ND	ND	ND	ND	ND	ND	ND	ND	ND
40924	2014-09-29T03:00:00	ND	ND	ND	ND	ND	ND	ND	ND	ND	ND	ND	ND
40925	2014-09-29T04:00:00	ND	ND	ND	ND	ND	ND	ND	ND	ND	ND	ND	ND
40926	2014-09-29T05:00:00	ND	ND	ND	ND	ND	ND	ND	ND	ND	ND	ND	ND
40927	2014-09-29T06:00:00	ND	ND	ND	ND	ND	ND	ND	ND	ND	ND	ND	ND
40928	2014-09-29T07:00:00	ND	ND	ND	ND	ND	ND	ND	ND	ND	ND	ND	ND
40929	2014-09-29T08:00:00	ND	ND	ND	ND	ND	ND	ND	ND	ND	ND	ND	ND
40930	2014-09-29T09:00:00	ND	ND	ND	ND	ND	ND	ND	ND	ND	ND	ND	ND
40931	2014-09-29T10:00:00	ND	ND	ND	ND	ND	ND	ND	ND	ND	ND	ND	ND
40932	2014-09-29T11:00:00	ND	ND	ND	ND	ND	ND	ND	ND	ND	ND	ND	ND
40933	2014-09-29T12:00:00	ND	ND	ND	ND	ND	ND	ND	ND	ND	ND	ND	ND
40934	2014-09-29T13:00:00	ND	ND	ND	ND	ND	ND	ND	ND	ND	ND	ND	ND
40935	2014-09-29T14:00:00	ND	ND	ND	ND	ND	ND	ND	ND	ND	ND	ND	ND
40936	2014-09-29T15:00:00	ND	ND	ND	ND	ND	ND	ND	ND	ND	ND	ND	ND
40937	2014-09-29T16:00:00	ND	ND	ND	ND	ND	ND	ND	ND	ND	ND	ND	ND
40938	2014-09-29T17:00:00	ND	ND	ND	ND	ND	ND	ND	ND	ND	ND	ND	ND
40939	2014-09-29T18:00:00	ND	ND	ND	ND	ND	ND	ND	ND	ND	ND	ND	ND
40940	2014-09-29T19:00:00	ND	ND	ND	ND	ND	ND	ND	ND	ND	ND	ND	ND
40941	2014-09-29T20:00:00	ND	ND	ND	ND	ND	ND	ND	ND	ND	ND	ND	ND
40942	2014-09-29T21:00:00	ND	ND	ND	ND	ND	ND	ND	ND	ND	ND	ND	ND
40943	2014-09-29T22:00:00	ND	ND	ND	ND	ND	ND	ND	ND	ND	ND	ND	ND
40944	2014-09-29T23:00:00	ND	ND	ND	ND	ND	ND	ND	ND	ND	ND	ND	ND
40945	2014-09-30T00:00:00	ND	ND	ND	ND	ND	ND	ND	ND	ND	ND	ND	ND
40946	2014-09-30T01:00:00	ND	ND	ND	ND	ND	ND	ND	ND	ND	ND	ND	ND
40947	2014-09-30T02:00:00	ND	ND	ND	ND	ND	ND	ND	ND	ND	ND	ND	ND
40948	2014-09-30T03:00:00	ND	ND	ND	ND	ND	ND	ND	ND	ND	ND	ND	ND
40949	2014-09-30T04:00:00	ND	ND	ND	ND	ND	ND	ND	ND	ND	ND	ND	ND
40950	2014-09-30T05:00:00	ND	ND	ND	ND	ND	ND	ND	ND	ND	ND	ND	ND
40951	2014-09-30T06:00:00	ND	ND	ND	ND	ND	ND	ND	ND	ND	ND	ND	ND
40952	2014-09-30T07:00:00	ND	ND	ND	ND	ND	ND	ND	ND	ND	ND	ND	ND
40953	2014-09-30T08:00:00	ND	ND	ND	ND	ND	ND	ND	ND	ND	ND	ND	ND
40954	2014-09-30T09:00:00	ND	ND	ND	ND	ND	ND	ND	ND	ND	ND	ND	ND
40955	2014-09-30T10:00:00	ND	ND	ND	ND	ND	ND	ND	ND	ND	ND	ND	ND
40956	2014-09-30T11:00:00	ND	ND	ND	ND	ND	ND	ND	ND	ND	ND	ND	ND
40957	2014-09-30T12:00:00	ND	ND	ND	ND	ND	ND	ND	ND	ND	ND	ND	ND
40958	2014-09-30T13:00:00	ND	ND	ND	ND	ND	ND	ND	ND	ND	ND	ND	ND
40959	2014-09-30T14:00:00	ND	ND	ND	ND	ND	ND	ND	ND	ND	ND	ND	ND
40960	2014-09-30T15:00:00	ND	ND	ND	ND	ND	ND	ND	ND	ND	ND	ND	ND
40961	2014-09-30T16:00:00	ND	ND	ND	ND	ND	ND	ND	ND	ND	ND	ND	ND
40962	2014-09-30T17:00:00	ND	ND	ND	ND	ND	ND	ND	ND	ND	ND	ND	ND
40963	2014-09-30T18:00:00	ND	ND	ND	ND	ND	ND	ND	ND	ND	ND	ND	ND
40964	2014-09-30T19:00:00	ND	ND	ND	ND	ND	ND	ND	ND	ND	ND	ND	ND
40965	2014-09-30T20:00:00	ND	ND	ND	ND	ND	ND	ND	ND	ND	ND	ND	ND
40966	2014-09-30T21:00:00	ND	ND	ND	ND	ND	ND	ND	ND	ND	ND	ND	ND
40967	2014-09-30T22:00:00	ND	ND	ND	ND	ND	ND	ND	ND	ND	ND	ND	ND
40968	2014-09-30T23:00:00	ND	ND	ND	ND	ND	ND	ND	ND	ND	ND	ND	ND
40969	2014-10-01T00:00:00	ND	ND	ND	ND	ND	ND	ND	ND	ND	ND	ND	ND
40970	2014-10-01T01:00:00	ND	ND	ND	ND	ND	ND	ND	ND	ND	ND	ND	ND
40971	2014-10-01T02:00:00	ND	ND	ND	ND	ND	ND	ND	ND	ND	ND	ND	ND
40972	2014-10-01T03:00:00	ND	ND	ND	ND	ND	ND	ND	ND	ND	ND	ND	ND
40973	2014-10-01T04:00:00	ND	ND	ND	ND	ND	ND	ND	ND	ND	ND	ND	ND
40974	2014-10-01T05:00:00	ND	ND	ND	ND	ND	ND	ND	ND	ND	ND	ND	ND
40975	2014-10-01T06:00:00	ND	ND	ND	ND	ND	ND	ND	ND	ND	ND	ND	ND
40976	2014-10-01T07:00:00	ND	ND	ND	ND	ND	ND	ND	ND	ND	ND	ND	ND
40977	2014-10-01T08:00:00	ND	ND	ND	ND	ND	ND	ND	ND	ND	ND	ND	ND
40978	2014-10-01T09:00:00	ND	ND	ND	ND	ND	ND	ND	ND	ND	ND	ND	ND
40979	2014-10-01T10:00:00	ND	ND	ND	ND	ND	ND	ND	ND	ND	ND	ND	ND
40980	2014-10-01T11:00:00	ND	ND	ND	ND	ND	ND	ND	ND	ND	ND	ND	ND
40981	2014-10-01T12:00:00	ND	ND	ND	ND	ND	ND	ND	ND	ND	ND	ND	ND
40982	2014-10-01T13:00:00	ND	ND	ND	ND	ND	ND	ND	ND	ND	ND	ND	ND
40983	2014-10-01T14:00:00	ND	ND	ND	ND	ND	ND	ND	ND	ND	ND	ND	ND
40984	2014-10-01T15:00:00	ND	ND	ND	ND	ND	ND	ND	ND	ND	ND	ND	ND
40985	2014-10-01T16:00:00	ND	ND	ND	ND	ND	ND	ND	ND	ND	ND	ND	ND
40986	2014-10-01T17:00:00	ND	ND	ND	ND	ND	ND	ND	ND	ND	ND	ND	ND
40987	2014-10-01T18:00:00	ND	ND	ND	ND	ND	ND	ND	ND	ND	ND	ND	ND
40988	2014-10-01T19:00:00	ND	ND	ND	ND	ND	ND	ND	ND	ND	ND	ND	ND
40989	2014-10-01T20:00:00	ND	ND	ND	ND	ND	ND	ND	ND	ND	ND	ND	ND
40990	2014-10-01T21:00:00	ND	ND	ND	ND	ND	ND	ND	ND	ND	ND	ND	ND
40991	2014-10-01T22:00:00	ND	ND	ND	ND	ND	ND	ND	ND	ND	ND	ND	ND
40992	2014-10-01T23:00:00	ND	ND	ND	ND	ND	ND	ND	ND	ND	ND	ND	ND
40993	2014-10-02T00:00:00	ND	ND	ND	ND	ND	ND	ND	ND	ND	ND	ND	ND
40994	2014-10-02T01:00:00	ND	ND	ND	ND	ND	ND	ND	ND	ND	ND	ND	ND
40995	2014-10-02T02:00:00	ND	ND	ND	ND	ND	ND	ND	ND	ND	ND	ND	ND
40996	2014-10-02T03:00:00	ND	ND	ND	ND	ND	ND	ND	ND	ND	ND	ND	ND
40997	2014-10-02T04:00:00	ND	ND	ND	ND	ND	ND	ND	ND	ND	ND	ND	ND
40998	2014-10-02T05:00:00	ND	ND	ND	ND	ND	ND	ND	ND	ND	ND	ND	ND
40999	2014-10-02T06:00:00	ND	ND	ND	ND	ND	ND	ND	ND	ND	ND	ND	ND
41000	2014-10-02T07:00:00	ND	ND	ND	ND	ND	ND	ND	ND	ND	ND	ND	ND
41001	2014-10-02T08:00:00	ND	ND	ND	ND	ND	ND	ND	ND	ND	ND	ND	ND
41002	2014-10-02T09:00:00	ND	ND	ND	ND	ND	ND	ND	ND	ND	ND	ND	ND
41003	2014-10-02T10:00:00	ND	ND	ND	ND	ND	ND	ND	ND	ND	ND	ND	ND
41004	2014-10-02T11:00:00	ND	ND	ND	ND	ND	ND	ND	ND	ND	ND	ND	ND
41005	2014-10-02T12:00:00	ND	ND	ND	ND	ND	ND	ND	ND	ND	ND	ND	ND
41006	2014-10-02T13:00:00	ND	ND	ND	ND	ND	ND	ND	ND	ND	ND	ND	ND
41007	2014-10-02T14:00:00	ND	ND	ND	ND	ND	ND	ND	ND	ND	ND	ND	ND
41008	2014-10-02T15:00:00	ND	ND	ND	ND	ND	ND	ND	ND	ND	ND	ND	ND
41009	2014-10-02T16:00:00	ND	ND	ND	ND	ND	ND	ND	ND	ND	ND	ND	ND
41010	2014-10-02T17:00:00	ND	ND	ND	ND	ND	ND	ND	ND	ND	ND	ND	ND
41011	2014-10-02T18:00:00	ND	ND	ND	ND	ND	ND	ND	ND	ND	ND	ND	ND
41012	2014-10-02T19:00:00	ND	ND	ND	ND	ND	ND	ND	ND	ND	ND	ND	ND
41013	2014-10-02T20:00:00	ND	ND	ND	ND	ND	ND	ND	ND	ND	ND	ND	ND
41014	2014-10-02T21:00:00	ND	ND	ND	ND	ND	ND	ND	ND	ND	ND	ND	ND
41015	2014-10-02T22:00:00	ND	ND	ND	ND	ND	ND	ND	ND	ND	ND	ND	ND
41016	2014-10-02T23:00:00	ND	ND	ND	ND	ND	ND	ND	ND	ND	ND	ND	ND
41017	2014-10-03T00:00:00	ND	ND	ND	ND	ND	ND	ND	ND	ND	ND	ND	ND
41018	2014-10-03T01:00:00	ND	ND	ND	ND	ND	ND	ND	ND	ND	ND	ND	ND
41019	2014-10-03T02:00:00	ND	ND	ND	ND	ND	ND	ND	ND	ND	ND	ND	ND
41020	2014-10-03T03:00:00	ND	ND	ND	ND	ND	ND	ND	ND	ND	ND	ND	ND
41021	2014-10-03T04:00:00	ND	ND	ND	ND	ND	ND	ND	ND	ND	ND	ND	ND
41022	2014-10-03T05:00:00	ND	ND	ND	ND	ND	ND	ND	ND	ND	ND	ND	ND
41023	2014-10-03T06:00:00	ND	ND	ND	ND	ND	ND	ND	ND	ND	ND	ND	ND
41024	2014-10-03T07:00:00	ND	ND	ND	ND	ND	ND	ND	ND	ND	ND	ND	ND
41025	2014-10-03T08:00:00	ND	ND	ND	ND	ND	ND	ND	ND	ND	ND	ND	ND
41026	2014-10-03T09:00:00	ND	ND	ND	ND	ND	ND	ND	ND	ND	ND	ND	ND
41027	2014-10-03T10:00:00	ND	ND	ND	ND	ND	ND	ND	ND	ND	ND	ND	ND
41028	2014-10-03T11:00:00	ND	ND	ND	ND	ND	ND	ND	ND	ND	ND	ND	ND
41029	2014-10-03T12:00:00	ND	ND	ND	ND	ND	ND	ND	ND	ND	ND	ND	ND
41030	2014-10-03T13:00:00	ND	ND	ND	ND	ND	ND	ND	ND	ND	ND	ND	ND
41031	2014-10-03T14:00:00	ND	ND	ND	ND	ND	ND	ND	ND	ND	ND	ND	ND
41032	2014-10-03T15:00:00	ND	ND	ND	ND	ND	ND	ND	ND	ND	ND	ND	ND
41033	2014-10-03T16:00:00	ND	ND	ND	ND	ND	ND	ND	ND	ND	ND	ND	ND
41034	2014-10-03T17:00:00	ND	ND	ND	ND	ND	ND	ND	ND	ND	ND	ND	ND
41035	2014-10-03T18:00:00	ND	ND	ND	ND	ND	ND	ND	ND	ND	ND	ND	ND
41036	2014-10-03T19:00:00	ND	ND	ND	ND	ND	ND	ND	ND	ND	ND	ND	ND
41037	2014-10-03T20:00:00	ND	ND	ND	ND	ND	ND	ND	ND	ND	ND	ND	ND
41038	2014-10-03T21:00:00	ND	ND	ND	ND	ND	ND	ND	ND	ND	ND	ND	ND
41039	2014-10-03T22:00:00	ND	ND	ND	ND	ND	ND	ND	ND	ND	ND	ND	ND
41040	2014-10-03T23:00:00	ND	ND	ND	ND	ND	ND	ND	ND	ND	ND	ND	ND
41041	2014-10-04T00:00:00	ND	ND	ND	ND	ND	ND	ND	ND	ND	ND	ND	ND
41042	2014-10-04T01:00:00	ND	ND	ND	ND	ND	ND	ND	ND	ND	ND	ND	ND
41043	2014-10-04T02:00:00	ND	ND	ND	ND	ND	ND	ND	ND	ND	ND	ND	ND
41044	2014-10-04T03:00:00	ND	ND	ND	ND	ND	ND	ND	ND	ND	ND	ND	ND
41045	2014-10-04T04:00:00	ND	ND	ND	ND	ND	ND	ND	ND	ND	ND	ND	ND
41046	2014-10-04T05:00:00	ND	ND	ND	ND	ND	ND	ND	ND	ND	ND	ND	ND
41047	2014-10-04T06:00:00	ND	ND	ND	ND	ND	ND	ND	ND	ND	ND	ND	ND
41048	2014-10-04T07:00:00	ND	ND	ND	ND	ND	ND	ND	ND	ND	ND	ND	ND
41049	2014-10-04T08:00:00	ND	ND	ND	ND	ND	ND	ND	ND	ND	ND	ND	ND
41050	2014-10-04T09:00:00	ND	ND	ND	ND	ND	ND	ND	ND	ND	ND	ND	ND
41051	2014-10-04T10:00:00	ND	ND	ND	ND	ND	ND	ND	ND	ND	ND	ND	ND
41052	2014-10-04T11:00:00	ND	ND	ND	ND	ND	ND	ND	ND	ND	ND	ND	ND
41053	2014-10-04T12:00:00	ND	ND	ND	ND	ND	ND	ND	ND	ND	ND	ND	ND
41054	2014-10-04T13:00:00	ND	ND	ND	ND	ND	ND	ND	ND	ND	ND	ND	ND
41055	2014-10-04T14:00:00	ND	ND	ND	ND	ND	ND	ND	ND	ND	ND	ND	ND
41056	2014-10-04T15:00:00	ND	ND	ND	ND	ND	ND	ND	ND	ND	ND	ND	ND
41057	2014-10-04T16:00:00	ND	ND	ND	ND	ND	ND	ND	ND	ND	ND	ND	ND
41058	2014-10-04T17:00:00	ND	ND	ND	ND	ND	ND	ND	ND	ND	ND	ND	ND
41059	2014-10-04T18:00:00	ND	ND	ND	ND	ND	ND	ND	ND	ND	ND	ND	ND
41060	2014-10-04T19:00:00	ND	ND	ND	ND	ND	ND	ND	ND	ND	ND	ND	ND
41061	2014-10-04T20:00:00	ND	ND	ND	ND	ND	ND	ND	ND	ND	ND	ND	ND
41062	2014-10-04T21:00:00	ND	ND	ND	ND	ND	ND	ND	ND	ND	ND	ND	ND
41063	2014-10-04T22:00:00	ND	ND	ND	ND	ND	ND	ND	ND	ND	ND	ND	ND
41064	2014-10-04T23:00:00	ND	ND	ND	ND	ND	ND	ND	ND	ND	ND	ND	ND
41065	2014-10-05T00:00:00	ND	ND	ND	ND	ND	ND	ND	ND	ND	ND	ND	ND
41066	2014-10-05T01:00:00	ND	ND	ND	ND	ND	ND	ND	ND	ND	ND	ND	ND
41067	2014-10-05T02:00:00	ND	ND	ND	ND	ND	ND	ND	ND	ND	ND	ND	ND
41068	2014-10-05T03:00:00	ND	ND	ND	ND	ND	ND	ND	ND	ND	ND	ND	ND
41069	2014-10-05T04:00:00	ND	ND	ND	ND	ND	ND	ND	ND	ND	ND	ND	ND
41070	2014-10-05T05:00:00	ND	ND	ND	ND	ND	ND	ND	ND	ND	ND	ND	ND
41071	2014-10-05T06:00:00	ND	ND	ND	ND	ND	ND	ND	ND	ND	ND	ND	ND
41072	2014-10-05T07:00:00	ND	ND	ND	ND	ND	ND	ND	ND	ND	ND	ND	ND
41073	2014-10-05T08:00:00	ND	ND	ND	ND	ND	ND	ND	ND	ND	ND	ND	ND
41074	2014-10-05T09:00:00	ND	ND	ND	ND	ND	ND	ND	ND	ND	ND	ND	ND
41075	2014-10-05T10:00:00	ND	ND	ND	ND	ND	ND	ND	ND	ND	ND	ND	ND
41076	2014-10-05T11:00:00	ND	ND	ND	ND	ND	ND	ND	ND	ND	ND	ND	ND
41077	2014-10-05T12:00:00	ND	ND	ND	ND	ND	ND	ND	ND	ND	ND	ND	ND
41078	2014-10-05T13:00:00	ND	ND	ND	ND	ND	ND	ND	ND	ND	ND	ND	ND
41079	2014-10-05T14:00:00	ND	ND	ND	ND	ND	ND	ND	ND	ND	ND	ND	ND
41080	2014-10-05T15:00:00	ND	ND	ND	ND	ND	ND	ND	ND	ND	ND	ND	ND
41081	2014-10-05T16:00:00	ND	ND	ND	ND	ND	ND	ND	ND	ND	ND	ND	ND
41082	2014-10-05T17:00:00	ND	ND	ND	ND	ND	ND	ND	ND	ND	ND	ND	ND
41083	2014-10-05T18:00:00	ND	ND	ND	ND	ND	ND	ND	ND	ND	ND	ND	ND
41084	2014-10-05T19:00:00	ND	ND	ND	ND	ND	ND	ND	ND	ND	ND	ND	ND
41085	2014-10-05T20:00:00	ND	ND	ND	ND	ND	ND	ND	ND	ND	ND	ND	ND
41086	2014-10-05T21:00:00	ND	ND	ND	ND	ND	ND	ND	ND	ND	ND	ND	ND
41087	2014-10-05T22:00:00	ND	ND	ND	ND	ND	ND	ND	ND	ND	ND	ND	ND
41088	2014-10-05T23:00:00	ND	ND	ND	ND	ND	ND	ND	ND	ND	ND	ND	ND
41089	2014-10-06T00:00:00	ND	ND	ND	ND	ND	ND	ND	ND	ND	ND	ND	ND
41090	2014-10-06T01:00:00	ND	ND	ND	ND	ND	ND	ND	ND	ND	ND	ND	ND
41091	2014-10-06T02:00:00	ND	ND	ND	ND	ND	ND	ND	ND	ND	ND	ND	ND
41092	2014-10-06T03:00:00	ND	ND	ND	ND	ND	ND	ND	ND	ND	ND	ND	ND
41093	2014-10-06T04:00:00	ND	ND	ND	ND	ND	ND	ND	ND	ND	ND	ND	ND
41094	2014-10-06T05:00:00	ND	ND	ND	ND	ND	ND	ND	ND	ND	ND	ND	ND
41095	2014-10-06T06:00:00	ND	ND	ND	ND	ND	ND	ND	ND	ND	ND	ND	ND
41096	2014-10-06T07:00:00	ND	ND	ND	ND	ND	ND	ND	ND	ND	ND	ND	ND
41097	2014-10-06T08:00:00	ND	ND	ND	ND	ND	ND	ND	ND	ND	ND	ND	ND
41098	2014-10-06T09:00:00	ND	ND	ND	ND	ND	ND	ND	ND	ND	ND	ND	ND
41099	2014-10-06T10:00:00	ND	ND	ND	ND	ND	ND	ND	ND	ND	ND	ND	ND
41100	2014-10-06T11:00:00	ND	ND	ND	ND	ND	ND	ND	ND	ND	ND	ND	ND
41101	2014-10-06T12:00:00	ND	ND	ND	ND	ND	ND	ND	ND	ND	ND	ND	ND
41102	2014-10-06T13:00:00	ND	ND	ND	ND	ND	ND	ND	ND	ND	ND	ND	ND
41103	2014-10-06T14:00:00	ND	ND	ND	ND	ND	ND	ND	ND	ND	ND	ND	ND
41104	2014-10-06T15:00:00	ND	ND	ND	ND	ND	ND	ND	ND	ND	ND	ND	ND
41105	2014-10-06T16:00:00	ND	ND	ND	ND	ND	ND	ND	ND	ND	ND	ND	ND
41106	2014-10-06T17:00:00	ND	ND	ND	ND	ND	ND	ND	ND	ND	ND	ND	ND
41107	2014-10-06T18:00:00	ND	ND	ND	ND	ND	ND	ND	ND	ND	ND	ND	ND
41108	2014-10-06T19:00:00	ND	ND	ND	ND	ND	ND	ND	ND	ND	ND	ND	ND
41109	2014-10-06T20:00:00	ND	ND	ND	ND	ND	ND	ND	ND	ND	ND	ND	ND
41110	2014-10-06T21:00:00	ND	ND	ND	ND	ND	ND	ND	ND	ND	ND	ND	ND
41111	2014-10-06T22:00:00	ND	ND	ND	ND	ND	ND	ND	ND	ND	ND	ND	ND
41112	2014-10-06T23:00:00	ND	ND	ND	ND	ND	ND	ND	ND	ND	ND	ND	ND
41113	2014-10-07T00:00:00	ND	ND	ND	ND	ND	ND	ND	ND	ND	ND	ND	ND
41114	2014-10-07T01:00:00	ND	ND	ND	ND	ND	ND	ND	ND	ND	ND	ND	ND
41115	2014-10-07T02:00:00	ND	ND	ND	ND	ND	ND	ND	ND	ND	ND	ND	ND
41116	2014-10-07T03:00:00	ND	ND	ND	ND	ND	ND	ND	ND	ND	ND	ND	ND
41117	2014-10-07T04:00:00	ND	ND	ND	ND	ND	ND	ND	ND	ND	ND	ND	ND
41118	2014-10-07T05:00:00	ND	ND	ND	ND	ND	ND	ND	ND	ND	ND	ND	ND
41119	2014-10-07T06:00:00	ND	ND	ND	ND	ND	ND	ND	ND	ND	ND	ND	ND
41120	2014-10-07T07:00:00	ND	ND	ND	ND	ND	ND	ND	ND	ND	ND	ND	ND
41121	2014-10-07T08:00:00	ND	ND	ND	ND	ND	ND	ND	ND	ND	ND	ND	ND
41122	2014-10-07T09:00:00	ND	ND	ND	ND	ND	ND	ND	ND	ND	ND	ND	ND
41123	2014-10-07T10:00:00	ND	ND	ND	ND	ND	ND	ND	ND	ND	ND	ND	ND
41124	2014-10-07T11:00:00	ND	ND	ND	ND	ND	ND	ND	ND	ND	ND	ND	ND
41125	2014-10-07T12:00:00	ND	ND	ND	ND	ND	ND	ND	ND	ND	ND	ND	ND
41126	2014-10-07T13:00:00	ND	ND	ND	ND	ND	ND	ND	ND	ND	ND	ND	ND
41127	2014-10-07T14:00:00	ND	ND	ND	ND	ND	ND	ND	ND	ND	ND	ND	ND
41128	2014-10-07T15:00:00	ND	ND	ND	ND	ND	ND	ND	ND	ND	ND	ND	ND
41129	2014-10-07T16:00:00	ND	ND	ND	ND	ND	ND	ND	ND	ND	ND	ND	ND
41130	2014-10-07T17:00:00	ND	ND	ND	ND	ND	ND	ND	ND	ND	ND	ND	ND
41131	2014-10-07T18:00:00	ND	ND	ND	ND	ND	ND	ND	ND	ND	ND	ND	ND
41132	2014-10-07T19:00:00	ND	ND	ND	ND	ND	ND	ND	ND	ND	ND	ND	ND
41133	2014-10-07T20:00:00	ND	ND	ND	ND	ND	ND	ND	ND	ND	ND	ND	ND
41134	2014-10-07T21:00:00	ND	ND	ND	ND	ND	ND	ND	ND	ND	ND	ND	ND
41135	2014-10-07T22:00:00	ND	ND	ND	ND	ND	ND	ND	ND	ND	ND	ND	ND
41136	2014-10-07T23:00:00	ND	ND	ND	ND	ND	ND	ND	ND	ND	ND	ND	ND
41137	2014-10-08T00:00:00	ND	ND	ND	ND	ND	ND	ND	ND	ND	ND	ND	ND
41138	2014-10-08T01:00:00	ND	ND	ND	ND	ND	ND	ND	ND	ND	ND	ND	ND
41139	2014-10-08T02:00:00	ND	ND	ND	ND	ND	ND	ND	ND	ND	ND	ND	ND
41140	2014-10-08T03:00:00	ND	ND	ND	ND	ND	ND	ND	ND	ND	ND	ND	ND
41141	2014-10-08T04:00:00	ND	ND	ND	ND	ND	ND	ND	ND	ND	ND	ND	ND
41142	2014-10-08T05:00:00	ND	ND	ND	ND	ND	ND	ND	ND	ND	ND	ND	ND
41143	2014-10-08T06:00:00	ND	ND	ND	ND	ND	ND	ND	ND	ND	ND	ND	ND
41144	2014-10-08T07:00:00	ND	ND	ND	ND	ND	ND	ND	ND	ND	ND	ND	ND
41145	2014-10-08T08:00:00	ND	ND	ND	ND	ND	ND	ND	ND	ND	ND	ND	ND
41146	2014-10-08T09:00:00	ND	ND	ND	ND	ND	ND	ND	ND	ND	ND	ND	ND
41147	2014-10-08T10:00:00	ND	ND	ND	ND	ND	ND	ND	ND	ND	ND	ND	ND
41148	2014-10-08T11:00:00	ND	ND	ND	ND	ND	ND	ND	ND	ND	ND	ND	ND
41149	2014-10-08T12:00:00	ND	ND	ND	ND	ND	ND	ND	ND	ND	ND	ND	ND
41150	2014-10-08T13:00:00	ND	ND	ND	ND	ND	ND	ND	ND	ND	ND	ND	ND
41151	2014-10-08T14:00:00	ND	ND	ND	ND	ND	ND	ND	ND	ND	ND	ND	ND
41152	2014-10-08T15:00:00	ND	ND	ND	ND	ND	ND	ND	ND	ND	ND	ND	ND
41153	2014-10-08T16:00:00	ND	ND	ND	ND	ND	ND	ND	ND	ND	ND	ND	ND
41154	2014-10-08T17:00:00	ND	ND	ND	ND	ND	ND	ND	ND	ND	ND	ND	ND
41155	2014-10-08T18:00:00	ND	ND	ND	ND	ND	ND	ND	ND	ND	ND	ND	ND
41156	2014-10-08T19:00:00	ND	ND	ND	ND	ND	ND	ND	ND	ND	ND	ND	ND
41157	2014-10-08T20:00:00	ND	ND	ND	ND	ND	ND	ND	ND	ND	ND	ND	ND
41158	2014-10-08T21:00:00	ND	ND	ND	ND	ND	ND	ND	ND	ND	ND	ND	ND
41159	2014-10-08T22:00:00	ND	ND	ND	ND	ND	ND	ND	ND	ND	ND	ND	ND
41160	2014-10-08T23:00:00	ND	ND	ND	ND	ND	ND	ND	ND	ND	ND	ND	ND
41161	2014-10-09T00:00:00	ND	ND	ND	ND	ND	ND	ND	ND	ND	ND	ND	ND
41162	2014-10-09T01:00:00	ND	ND	ND	ND	ND	ND	ND	ND	ND	ND	ND	ND
41163	2014-10-09T02:00:00	ND	ND	ND	ND	ND	ND	ND	ND	ND	ND	ND	ND
41164	2014-10-09T03:00:00	ND	ND	ND	ND	ND	ND	ND	ND	ND	ND	ND	ND
41165	2014-10-09T04:00:00	ND	ND	ND	ND	ND	ND	ND	ND	ND	ND	ND	ND
41166	2014-10-09T05:00:00	ND	ND	ND	ND	ND	ND	ND	ND	ND	ND	ND	ND
41167	2014-10-09T06:00:00	ND	ND	ND	ND	ND	ND	ND	ND	ND	ND	ND	ND
41168	2014-10-09T07:00:00	ND	ND	ND	ND	ND	ND	ND	ND	ND	ND	ND	ND
41169	2014-10-09T08:00:00	ND	ND	ND	ND	ND	ND	ND	ND	ND	ND	ND	ND
41170	2014-10-09T09:00:00	ND	ND	ND	ND	ND	ND	ND	ND	ND	ND	ND	ND
41171	2014-10-09T10:00:00	ND	ND	ND	ND	ND	ND	ND	ND	ND	ND	ND	ND
41172	2014-10-09T11:00:00	ND	ND	ND	ND	ND	ND	ND	ND	ND	ND	ND	ND
41173	2014-10-09T12:00:00	ND	ND	ND	ND	ND	ND	ND	ND	ND	ND	ND	ND
41174	2014-10-09T13:00:00	ND	ND	ND	ND	ND	ND	ND	ND	ND	ND	ND	ND
41175	2014-10-09T14:00:00	ND	ND	ND	ND	ND	ND	ND	ND	ND	ND	ND	ND
41176	2014-10-09T15:00:00	ND	ND	ND	ND	ND	ND	ND	ND	ND	ND	ND	ND
41177	2014-10-09T16:00:00	ND	ND	ND	ND	ND	ND	ND	ND	ND	ND	ND	ND
41178	2014-10-09T17:00:00	ND	ND	ND	ND	ND	ND	ND	ND	ND	ND	ND	ND
41179	2014-10-09T18:00:00	ND	ND	ND	ND	ND	ND	ND	ND	ND	ND	ND	ND
41180	2014-10-09T19:00:00	ND	ND	ND	ND	ND	ND	ND	ND	ND	ND	ND	ND
41181	2014-10-09T20:00:00	ND	ND	ND	ND	ND	ND	ND	ND	ND	ND	ND	ND
41182	2014-10-09T21:00:00	ND	ND	ND	ND	ND	ND	ND	ND	ND	ND	ND	ND
41183	2014-10-09T22:00:00	ND	ND	ND	ND	ND	ND	ND	ND	ND	ND	ND	ND
41184	2014-10-09T23:00:00	ND	ND	ND	ND	ND	ND	ND	ND	ND	ND	ND	ND
41185	2014-10-10T00:00:00	ND	ND	ND	ND	ND	ND	ND	ND	ND	ND	ND	ND
41186	2014-10-10T01:00:00	ND	ND	ND	ND	ND	ND	ND	ND	ND	ND	ND	ND
41187	2014-10-10T02:00:00	ND	ND	ND	ND	ND	ND	ND	ND	ND	ND	ND	ND
41188	2014-10-10T03:00:00	ND	ND	ND	ND	ND	ND	ND	ND	ND	ND	ND	ND
41189	2014-10-10T04:00:00	ND	ND	ND	ND	ND	ND	ND	ND	ND	ND	ND	ND
41190	2014-10-10T05:00:00	ND	ND	ND	ND	ND	ND	ND	ND	ND	ND	ND	ND
41191	2014-10-10T06:00:00	ND	ND	ND	ND	ND	ND	ND	ND	ND	ND	ND	ND
41192	2014-10-10T07:00:00	ND	ND	ND	ND	ND	ND	ND	ND	ND	ND	ND	ND
41193	2014-10-10T08:00:00	ND	ND	ND	ND	ND	ND	ND	ND	ND	ND	ND	ND
41194	2014-10-10T09:00:00	ND	ND	ND	ND	ND	ND	ND	ND	ND	ND	ND	ND
41195	2014-10-10T10:00:00	ND	ND	ND	ND	ND	ND	ND	ND	ND	ND	ND	ND
41196	2014-10-10T11:00:00	ND	ND	ND	ND	ND	ND	ND	ND	ND	ND	ND	ND
41197	2014-10-10T12:00:00	ND	ND	ND	ND	ND	ND	ND	ND	ND	ND	ND	ND
41198	2014-10-10T13:00:00	ND	ND	ND	ND	ND	ND	ND	ND	ND	ND	ND	ND
41199	2014-10-10T14:00:00	ND	ND	ND	ND	ND	ND	ND	ND	ND	ND	ND	ND
41200	2014-10-10T15:00:00	ND	ND	ND	ND	ND	ND	ND	ND	ND	ND	ND	ND
41201	2014-10-10T16:00:00	ND	ND	ND	ND	ND	ND	ND	ND	ND	ND	ND	ND
41202	2014-10-10T17:00:00	ND	ND	ND	ND	ND	ND	ND	ND	ND	ND	ND	ND
41203	2014-10-10T18:00:00	ND	ND	ND	ND	ND	ND	ND	ND	ND	ND	ND	ND
41204	2014-10-10T19:00:00	ND	ND	ND	ND	ND	ND	ND	ND	ND	ND	ND	ND
41205	2014-10-10T20:00:00	ND	ND	ND	ND	ND	ND	ND	ND	ND	ND	ND	ND
41206	2014-10-10T21:00:00	ND	ND	ND	ND	ND	ND	ND	ND	ND	ND	ND	ND
41207	2014-10-10T22:00:00	ND	ND	ND	ND	ND	ND	ND	ND	ND	ND	ND	ND
41208	2014-10-10T23:00:00	ND	ND	ND	ND	ND	ND	ND	ND	ND	ND	ND	ND
41209	2014-10-11T00:00:00	ND	ND	ND	ND	ND	ND	ND	ND	ND	ND	ND	ND
41210	2014-10-11T01:00:00	ND	ND	ND	ND	ND	ND	ND	ND	ND	ND	ND	ND
41211	2014-10-11T02:00:00	ND	ND	ND	ND	ND	ND	ND	ND	ND	ND	ND	ND
41212	2014-10-11T03:00:00	ND	ND	ND	ND	ND	ND	ND	ND	ND	ND	ND	ND
41213	2014-10-11T04:00:00	ND	ND	ND	ND	ND	ND	ND	ND	ND	ND	ND	ND
41214	2014-10-11T05:00:00	ND	ND	ND	ND	ND	ND	ND	ND	ND	ND	ND	ND
41215	2014-10-11T06:00:00	ND	ND	ND	ND	ND	ND	ND	ND	ND	ND	ND	ND
41216	2014-10-11T07:00:00	ND	ND	ND	ND	ND	ND	ND	ND	ND	ND	ND	ND
41217	2014-10-11T08:00:00	ND	ND	ND	ND	ND	ND	ND	ND	ND	ND	ND	ND
41218	2014-10-11T09:00:00	ND	ND	ND	ND	ND	ND	ND	ND	ND	ND	ND	ND
41219	2014-10-11T10:00:00	ND	ND	ND	ND	ND	ND	ND	ND	ND	ND	ND	ND
41220	2014-10-11T11:00:00	ND	ND	ND	ND	ND	ND	ND	ND	ND	ND	ND	ND
41221	2014-10-11T12:00:00	ND	ND	ND	ND	ND	ND	ND	ND	ND	ND	ND	ND
41222	2014-10-11T13:00:00	ND	ND	ND	ND	ND	ND	ND	ND	ND	ND	ND	ND
41223	2014-10-11T14:00:00	ND	ND	ND	ND	ND	ND	ND	ND	ND	ND	ND	ND
41224	2014-10-11T15:00:00	ND	ND	ND	ND	ND	ND	ND	ND	ND	ND	ND	ND
41225	2014-10-11T16:00:00	ND	ND	ND	ND	ND	ND	ND	ND	ND	ND	ND	ND
41226	2014-10-11T17:00:00	ND	ND	ND	ND	ND	ND	ND	ND	ND	ND	ND	ND
41227	2014-10-11T18:00:00	ND	ND	ND	ND	ND	ND	ND	ND	ND	ND	ND	ND
41228	2014-10-11T19:00:00	ND	ND	ND	ND	ND	ND	ND	ND	ND	ND	ND	ND
41229	2014-10-11T20:00:00	ND	ND	ND	ND	ND	ND	ND	ND	ND	ND	ND	ND
41230	2014-10-11T21:00:00	ND	ND	ND	ND	ND	ND	ND	ND	ND	ND	ND	ND
41231	2014-10-11T22:00:00	ND	ND	ND	ND	ND	ND	ND	ND	ND	ND	ND	ND
41232	2014-10-11T23:00:00	ND	ND	ND	ND	ND	ND	ND	ND	ND	ND	ND	ND
41233	2014-10-12T00:00:00	ND	ND	ND	ND	ND	ND	ND	ND	ND	ND	ND	ND
41234	2014-10-12T01:00:00	ND	ND	ND	ND	ND	ND	ND	ND	ND	ND	ND	ND
41235	2014-10-12T02:00:00	ND	ND	ND	ND	ND	ND	ND	ND	ND	ND	ND	ND
41236	2014-10-12T03:00:00	ND	ND	ND	ND	ND	ND	ND	ND	ND	ND	ND	ND
41237	2014-10-12T04:00:00	ND	ND	ND	ND	ND	ND	ND	ND	ND	ND	ND	ND
41238	2014-10-12T05:00:00	ND	ND	ND	ND	ND	ND	ND	ND	ND	ND	ND	ND
41239	2014-10-12T06:00:00	ND	ND	ND	ND	ND	ND	ND	ND	ND	ND	ND	ND
41240	2014-10-12T07:00:00	ND	ND	ND	ND	ND	ND	ND	ND	ND	ND	ND	ND
41241	2014-10-12T08:00:00	ND	ND	ND	ND	ND	ND	ND	ND	ND	ND	ND	ND
41242	2014-10-12T09:00:00	ND	ND	ND	ND	ND	ND	ND	ND	ND	ND	ND	ND
41243	2014-10-12T10:00:00	ND	ND	ND	ND	ND	ND	ND	ND	ND	ND	ND	ND
41244	2014-10-12T11:00:00	ND	ND	ND	ND	ND	ND	ND	ND	ND	ND	ND	ND
41245	2014-10-12T12:00:00	ND	ND	ND	ND	ND	ND	ND	ND	ND	ND	ND	ND
41246	2014-10-12T13:00:00	ND	ND	ND	ND	ND	ND	ND	ND	ND	ND	ND	ND
41247	2014-10-12T14:00:00	ND	ND	ND	ND	ND	ND	ND	ND	ND	ND	ND	ND
41248	2014-10-12T15:00:00	ND	ND	ND	ND	ND	ND	ND	ND	ND	ND	ND	ND
41249	2014-10-12T16:00:00	ND	ND	ND	ND	ND	ND	ND	ND	ND	ND	ND	ND
41250	2014-10-12T17:00:00	ND	ND	ND	ND	ND	ND	ND	ND	ND	ND	ND	ND
41251	2014-10-12T18:00:00	ND	ND	ND	ND	ND	ND	ND	ND	ND	ND	ND	ND
41252	2014-10-12T19:00:00	ND	ND	ND	ND	ND	ND	ND	ND	ND	ND	ND	ND
41253	2014-10-12T20:00:00	ND	ND	ND	ND	ND	ND	ND	ND	ND	ND	ND	ND
41254	2014-10-12T21:00:00	ND	ND	ND	ND	ND	ND	ND	ND	ND	ND	ND	ND
41255	2014-10-12T22:00:00	ND	ND	ND	ND	ND	ND	ND	ND	ND	ND	ND	ND
41256	2014-10-12T23:00:00	ND	ND	ND	ND	ND	ND	ND	ND	ND	ND	ND	ND
41257	2014-10-13T00:00:00	ND	ND	ND	ND	ND	ND	ND	ND	ND	ND	ND	ND
41258	2014-10-13T01:00:00	ND	ND	ND	ND	ND	ND	ND	ND	ND	ND	ND	ND
41259	2014-10-13T02:00:00	ND	ND	ND	ND	ND	ND	ND	ND	ND	ND	ND	ND
41260	2014-10-13T03:00:00	ND	ND	ND	ND	ND	ND	ND	ND	ND	ND	ND	ND
41261	2014-10-13T04:00:00	ND	ND	ND	ND	ND	ND	ND	ND	ND	ND	ND	ND
41262	2014-10-13T05:00:00	ND	ND	ND	ND	ND	ND	ND	ND	ND	ND	ND	ND
41263	2014-10-13T06:00:00	ND	ND	ND	ND	ND	ND	ND	ND	ND	ND	ND	ND
41264	2014-10-13T07:00:00	ND	ND	ND	ND	ND	ND	ND	ND	ND	ND	ND	ND
41265	2014-10-13T08:00:00	ND	ND	ND	ND	ND	ND	ND	ND	ND	ND	ND	ND
41266	2014-10-13T09:00:00	ND	ND	ND	ND	ND	ND	ND	ND	ND	ND	ND	ND
41267	2014-10-13T10:00:00	ND	ND	ND	ND	ND	ND	ND	ND	ND	ND	ND	ND
41268	2014-10-13T11:00:00	ND	ND	ND	ND	ND	ND	ND	ND	ND	ND	ND	ND
41269	2014-10-13T12:00:00	ND	ND	ND	ND	ND	ND	ND	ND	ND	ND	ND	ND
41270	2014-10-13T13:00:00	ND	ND	ND	ND	ND	ND	ND	ND	ND	ND	ND	ND
41271	2014-10-13T14:00:00	ND	ND	ND	ND	ND	ND	ND	ND	ND	ND	ND	ND
41272	2014-10-13T15:00:00	ND	ND	ND	ND	ND	ND	ND	ND	ND	ND	ND	ND
41273	2014-10-13T16:00:00	ND	ND	ND	ND	ND	ND	ND	ND	ND	ND	ND	ND
41274	2014-10-13T17:00:00	ND	ND	ND	ND	ND	ND	ND	ND	ND	ND	ND	ND
41275	2014-10-13T18:00:00	ND	ND	ND	ND	ND	ND	ND	ND	ND	ND	ND	ND
41276	2014-10-13T19:00:00	ND	ND	ND	ND	ND	ND	ND	ND	ND	ND	ND	ND
41277	2014-10-13T20:00:00	ND	ND	ND	ND	ND	ND	ND	ND	ND	ND	ND	ND
41278	2014-10-13T21:00:00	ND	ND	ND	ND	ND	ND	ND	ND	ND	ND	ND	ND
41279	2014-10-13T22:00:00	ND	ND	ND	ND	ND	ND	ND	ND	ND	ND	ND	ND
41280	2014-10-13T23:00:00	ND	ND	ND	ND	ND	ND	ND	ND	ND	ND	ND	ND
41281	2014-10-14T00:00:00	ND	ND	ND	ND	ND	ND	ND	ND	ND	ND	ND	ND
41282	2014-10-14T01:00:00	ND	ND	ND	ND	ND	ND	ND	ND	ND	ND	ND	ND
41283	2014-10-14T02:00:00	ND	ND	ND	ND	ND	ND	ND	ND	ND	ND	ND	ND
41284	2014-10-14T03:00:00	ND	ND	ND	ND	ND	ND	ND	ND	ND	ND	ND	ND
41285	2014-10-14T04:00:00	ND	ND	ND	ND	ND	ND	ND	ND	ND	ND	ND	ND
41286	2014-10-14T05:00:00	ND	ND	ND	ND	ND	ND	ND	ND	ND	ND	ND	ND
41287	2014-10-14T06:00:00	ND	ND	ND	ND	ND	ND	ND	ND	ND	ND	ND	ND
41288	2014-10-14T07:00:00	ND	ND	ND	ND	ND	ND	ND	ND	ND	ND	ND	ND
41289	2014-10-14T08:00:00	ND	ND	ND	ND	ND	ND	ND	ND	ND	ND	ND	ND
41290	2014-10-14T09:00:00	ND	ND	ND	ND	ND	ND	ND	ND	ND	ND	ND	ND
41291	2014-10-14T10:00:00	ND	ND	ND	ND	ND	ND	ND	ND	ND	ND	ND	ND
41292	2014-10-14T11:00:00	ND	ND	ND	ND	ND	ND	ND	ND	ND	ND	ND	ND
41293	2014-10-14T12:00:00	ND	ND	ND	ND	ND	ND	ND	ND	ND	ND	ND	ND
41294	2014-10-14T13:00:00	ND	ND	ND	ND	ND	ND	ND	ND	ND	ND	ND	ND
41295	2014-10-14T14:00:00	ND	ND	ND	ND	ND	ND	ND	ND	ND	ND	ND	ND
41296	2014-10-14T15:00:00	ND	ND	ND	ND	ND	ND	ND	ND	ND	ND	ND	ND
41297	2014-10-14T16:00:00	ND	ND	ND	ND	ND	ND	ND	ND	ND	ND	ND	ND
41298	2014-10-14T17:00:00	ND	ND	ND	ND	ND	ND	ND	ND	ND	ND	ND	ND
41299	2014-10-14T18:00:00	ND	ND	ND	ND	ND	ND	ND	ND	ND	ND	ND	ND
41300	2014-10-14T19:00:00	ND	ND	ND	ND	ND	ND	ND	ND	ND	ND	ND	ND
41301	2014-10-14T20:00:00	ND	ND	ND	ND	ND	ND	ND	ND	ND	ND	ND	ND
41302	2014-10-14T21:00:00	ND	ND	ND	ND	ND	ND	ND	ND	ND	ND	ND	ND
41303	2014-10-14T22:00:00	ND	ND	ND	ND	ND	ND	ND	ND	ND	ND	ND	ND
41304	2014-10-14T23:00:00	ND	ND	ND	ND	ND	ND	ND	ND	ND	ND	ND	ND
41305	2014-10-15T00:00:00	ND	ND	ND	ND	ND	ND	ND	ND	ND	ND	ND	ND
41306	2014-10-15T01:00:00	ND	ND	ND	ND	ND	ND	ND	ND	ND	ND	ND	ND
41307	2014-10-15T02:00:00	ND	ND	ND	ND	ND	ND	ND	ND	ND	ND	ND	ND
41308	2014-10-15T03:00:00	ND	ND	ND	ND	ND	ND	ND	ND	ND	ND	ND	ND
41309	2014-10-15T04:00:00	ND	ND	ND	ND	ND	ND	ND	ND	ND	ND	ND	ND
41310	2014-10-15T05:00:00	ND	ND	ND	ND	ND	ND	ND	ND	ND	ND	ND	ND
41311	2014-10-15T06:00:00	ND	ND	ND	ND	ND	ND	ND	ND	ND	ND	ND	ND
41312	2014-10-15T07:00:00	ND	ND	ND	ND	ND	ND	ND	ND	ND	ND	ND	ND
41313	2014-10-15T08:00:00	ND	ND	ND	ND	ND	ND	ND	ND	ND	ND	ND	ND
41314	2014-10-15T09:00:00	ND	ND	ND	ND	ND	ND	ND	ND	ND	ND	ND	ND
41315	2014-10-15T10:00:00	ND	ND	ND	ND	ND	ND	ND	ND	ND	ND	ND	ND
41316	2014-10-15T11:00:00	ND	ND	ND	ND	ND	ND	ND	ND	ND	ND	ND	ND
41317	2014-10-15T12:00:00	ND	ND	ND	ND	ND	ND	ND	ND	ND	ND	ND	ND
41318	2014-10-15T13:00:00	ND	ND	ND	ND	ND	ND	ND	ND	ND	ND	ND	ND
41319	2014-10-15T14:00:00	ND	ND	ND	ND	ND	ND	ND	ND	ND	ND	ND	ND
41320	2014-10-15T15:00:00	ND	ND	ND	ND	ND	ND	ND	ND	ND	ND	ND	ND
41321	2014-10-15T16:00:00	ND	ND	ND	ND	ND	ND	ND	ND	ND	ND	ND	ND
41322	2014-10-15T17:00:00	ND	ND	ND	ND	ND	ND	ND	ND	ND	ND	ND	ND
41323	2014-10-15T18:00:00	ND	ND	ND	ND	ND	ND	ND	ND	ND	ND	ND	ND
41324	2014-10-15T19:00:00	ND	ND	ND	ND	ND	ND	ND	ND	ND	ND	ND	ND
41325	2014-10-15T20:00:00	ND	ND	ND	ND	ND	ND	ND	ND	ND	ND	ND	ND
41326	2014-10-15T21:00:00	ND	ND	ND	ND	ND	ND	ND	ND	ND	ND	ND	ND
41327	2014-10-15T22:00:00	ND	ND	ND	ND	ND	ND	ND	ND	ND	ND	ND	ND
41328	2014-10-15T23:00:00	ND	ND	ND	ND	ND	ND	ND	ND	ND	ND	ND	ND
41329	2014-10-16T00:00:00	ND	ND	ND	ND	ND	ND	ND	ND	ND	ND	ND	ND
41330	2014-10-16T01:00:00	ND	ND	ND	ND	ND	ND	ND	ND	ND	ND	ND	ND
41331	2014-10-16T02:00:00	ND	ND	ND	ND	ND	ND	ND	ND	ND	ND	ND	ND
41332	2014-10-16T03:00:00	ND	ND	ND	ND	ND	ND	ND	ND	ND	ND	ND	ND
41333	2014-10-16T04:00:00	ND	ND	ND	ND	ND	ND	ND	ND	ND	ND	ND	ND
41334	2014-10-16T05:00:00	ND	ND	ND	ND	ND	ND	ND	ND	ND	ND	ND	ND
41335	2014-10-16T06:00:00	ND	ND	ND	ND	ND	ND	ND	ND	ND	ND	ND	ND
41336	2014-10-16T07:00:00	ND	ND	ND	ND	ND	ND	ND	ND	ND	ND	ND	ND
41337	2014-10-16T08:00:00	ND	ND	ND	ND	ND	ND	ND	ND	ND	ND	ND	ND
41338	2014-10-16T09:00:00	ND	ND	ND	ND	ND	ND	ND	ND	ND	ND	ND	ND
41339	2014-10-16T10:00:00	ND	ND	ND	ND	ND	ND	ND	ND	ND	ND	ND	ND
41340	2014-10-16T11:00:00	ND	ND	ND	ND	ND	ND	ND	ND	ND	ND	ND	ND
41341	2014-10-16T12:00:00	ND	ND	ND	ND	ND	ND	ND	ND	ND	ND	ND	ND
41342	2014-10-16T13:00:00	ND	ND	ND	ND	ND	ND	ND	ND	ND	ND	ND	ND
41343	2014-10-16T14:00:00	ND	ND	ND	ND	ND	ND	ND	ND	ND	ND	ND	ND
41344	2014-10-16T15:00:00	ND	ND	ND	ND	ND	ND	ND	ND	ND	ND	ND	ND
41345	2014-10-16T16:00:00	ND	ND	ND	ND	ND	ND	ND	ND	ND	ND	ND	ND
41346	2014-10-16T17:00:00	ND	ND	ND	ND	ND	ND	ND	ND	ND	ND	ND	ND
41347	2014-10-16T18:00:00	ND	ND	ND	ND	ND	ND	ND	ND	ND	ND	ND	ND
41348	2014-10-16T19:00:00	ND	ND	ND	ND	ND	ND	ND	ND	ND	ND	ND	ND
41349	2014-10-16T20:00:00	ND	ND	ND	ND	ND	ND	ND	ND	ND	ND	ND	ND
41350	2014-10-16T21:00:00	ND	ND	ND	ND	ND	ND	ND	ND	ND	ND	ND	ND
41351	2014-10-16T22:00:00	ND	ND	ND	ND	ND	ND	ND	ND	ND	ND	ND	ND
41352	2014-10-16T23:00:00	ND	ND	ND	ND	ND	ND	ND	ND	ND	ND	ND	ND
41353	2014-10-17T00:00:00	ND	ND	ND	ND	ND	ND	ND	ND	ND	ND	ND	ND
41354	2014-10-17T01:00:00	ND	ND	ND	ND	ND	ND	ND	ND	ND	ND	ND	ND
41355	2014-10-17T02:00:00	ND	ND	ND	ND	ND	ND	ND	ND	ND	ND	ND	ND
41356	2014-10-17T03:00:00	ND	ND	ND	ND	ND	ND	ND	ND	ND	ND	ND	ND
41357	2014-10-17T04:00:00	ND	ND	ND	ND	ND	ND	ND	ND	ND	ND	ND	ND
41358	2014-10-17T05:00:00	ND	ND	ND	ND	ND	ND	ND	ND	ND	ND	ND	ND
41359	2014-10-17T06:00:00	ND	ND	ND	ND	ND	ND	ND	ND	ND	ND	ND	ND
41360	2014-10-17T07:00:00	ND	ND	ND	ND	ND	ND	ND	ND	ND	ND	ND	ND
41361	2014-10-17T08:00:00	ND	ND	ND	ND	ND	ND	ND	ND	ND	ND	ND	ND
41362	2014-10-17T09:00:00	ND	ND	ND	ND	ND	ND	ND	ND	ND	ND	ND	ND
41363	2014-10-17T10:00:00	ND	ND	ND	ND	ND	ND	ND	ND	ND	ND	ND	ND
41364	2014-10-17T11:00:00	ND	ND	ND	ND	ND	ND	ND	ND	ND	ND	ND	ND
41365	2014-10-17T12:00:00	ND	ND	ND	ND	ND	ND	ND	ND	ND	ND	ND	ND
41366	2014-10-17T13:00:00	ND	ND	ND	ND	ND	ND	ND	ND	ND	ND	ND	ND
41367	2014-10-17T14:00:00	ND	ND	ND	ND	ND	ND	ND	ND	ND	ND	ND	ND
41368	2014-10-17T15:00:00	ND	ND	ND	ND	ND	ND	ND	ND	ND	ND	ND	ND
41369	2014-10-17T16:00:00	ND	ND	ND	ND	ND	ND	ND	ND	ND	ND	ND	ND
41370	2014-10-17T17:00:00	ND	ND	ND	ND	ND	ND	ND	ND	ND	ND	ND	ND
41371	2014-10-17T18:00:00	ND	ND	ND	ND	ND	ND	ND	ND	ND	ND	ND	ND
41372	2014-10-17T19:00:00	ND	ND	ND	ND	ND	ND	ND	ND	ND	ND	ND	ND
41373	2014-10-17T20:00:00	ND	ND	ND	ND	ND	ND	ND	ND	ND	ND	ND	ND
41374	2014-10-17T21:00:00	ND	ND	ND	ND	ND	ND	ND	ND	ND	ND	ND	ND
41375	2014-10-17T22:00:00	ND	ND	ND	ND	ND	ND	ND	ND	ND	ND	ND	ND
41376	2014-10-17T23:00:00	ND	ND	ND	ND	ND	ND	ND	ND	ND	ND	ND	ND
41377	2014-10-18T00:00:00	ND	ND	ND	ND	ND	ND	ND	ND	ND	ND	ND	ND
41378	2014-10-18T01:00:00	ND	ND	ND	ND	ND	ND	ND	ND	ND	ND	ND	ND
41379	2014-10-18T02:00:00	ND	ND	ND	ND	ND	ND	ND	ND	ND	ND	ND	ND
41380	2014-10-18T03:00:00	ND	ND	ND	ND	ND	ND	ND	ND	ND	ND	ND	ND
41381	2014-10-18T04:00:00	ND	ND	ND	ND	ND	ND	ND	ND	ND	ND	ND	ND
41382	2014-10-18T05:00:00	ND	ND	ND	ND	ND	ND	ND	ND	ND	ND	ND	ND
41383	2014-10-18T06:00:00	ND	ND	ND	ND	ND	ND	ND	ND	ND	ND	ND	ND
41384	2014-10-18T07:00:00	ND	ND	ND	ND	ND	ND	ND	ND	ND	ND	ND	ND
41385	2014-10-18T08:00:00	ND	ND	ND	ND	ND	ND	ND	ND	ND	ND	ND	ND
41386	2014-10-18T09:00:00	ND	ND	ND	ND	ND	ND	ND	ND	ND	ND	ND	ND
41387	2014-10-18T10:00:00	ND	ND	ND	ND	ND	ND	ND	ND	ND	ND	ND	ND
41388	2014-10-18T11:00:00	ND	ND	ND	ND	ND	ND	ND	ND	ND	ND	ND	ND
41389	2014-10-18T12:00:00	ND	ND	ND	ND	ND	ND	ND	ND	ND	ND	ND	ND
41390	2014-10-18T13:00:00	ND	ND	ND	ND	ND	ND	ND	ND	ND	ND	ND	ND
41391	2014-10-18T14:00:00	ND	ND	ND	ND	ND	ND	ND	ND	ND	ND	ND	ND
41392	2014-10-18T15:00:00	ND	ND	ND	ND	ND	ND	ND	ND	ND	ND	ND	ND
41393	2014-10-18T16:00:00	ND	ND	ND	ND	ND	ND	ND	ND	ND	ND	ND	ND
41394	2014-10-18T17:00:00	ND	ND	ND	ND	ND	ND	ND	ND	ND	ND	ND	ND
41395	2014-10-18T18:00:00	ND	ND	ND	ND	ND	ND	ND	ND	ND	ND	ND	ND
41396	2014-10-18T19:00:00	ND	ND	ND	ND	ND	ND	ND	ND	ND	ND	ND	ND
41397	2014-10-18T20:00:00	ND	ND	ND	ND	ND	ND	ND	ND	ND	ND	ND	ND
41398	2014-10-18T21:00:00	ND	ND	ND	ND	ND	ND	ND	ND	ND	ND	ND	ND
41399	2014-10-18T22:00:00	ND	ND	ND	ND	ND	ND	ND	ND	ND	ND	ND	ND
41400	2014-10-18T23:00:00	ND	ND	ND	ND	ND	ND	ND	ND	ND	ND	ND	ND
41401	2014-10-19T00:00:00	ND	ND	ND	ND	ND	ND	ND	ND	ND	ND	ND	ND
41402	2014-10-19T01:00:00	ND	ND	ND	ND	ND	ND	ND	ND	ND	ND	ND	ND
41403	2014-10-19T02:00:00	ND	ND	ND	ND	ND	ND	ND	ND	ND	ND	ND	ND
41404	2014-10-19T03:00:00	ND	ND	ND	ND	ND	ND	ND	ND	ND	ND	ND	ND
41405	2014-10-19T04:00:00	ND	ND	ND	ND	ND	ND	ND	ND	ND	ND	ND	ND
41406	2014-10-19T05:00:00	ND	ND	ND	ND	ND	ND	ND	ND	ND	ND	ND	ND
41407	2014-10-19T06:00:00	ND	ND	ND	ND	ND	ND	ND	ND	ND	ND	ND	ND
41408	2014-10-19T07:00:00	ND	ND	ND	ND	ND	ND	ND	ND	ND	ND	ND	ND
41409	2014-10-19T08:00:00	ND	ND	ND	ND	ND	ND	ND	ND	ND	ND	ND	ND
41410	2014-10-19T09:00:00	ND	ND	ND	ND	ND	ND	ND	ND	ND	ND	ND	ND
41411	2014-10-19T10:00:00	ND	ND	ND	ND	ND	ND	ND	ND	ND	ND	ND	ND
41412	2014-10-19T11:00:00	ND	ND	ND	ND	ND	ND	ND	ND	ND	ND	ND	ND
41413	2014-10-19T12:00:00	ND	ND	ND	ND	ND	ND	ND	ND	ND	ND	ND	ND
41414	2014-10-19T13:00:00	ND	ND	ND	ND	ND	ND	ND	ND	ND	ND	ND	ND
41415	2014-10-19T14:00:00	ND	ND	ND	ND	ND	ND	ND	ND	ND	ND	ND	ND
41416	2014-10-19T15:00:00	ND	ND	ND	ND	ND	ND	ND	ND	ND	ND	ND	ND
41417	2014-10-19T16:00:00	ND	ND	ND	ND	ND	ND	ND	ND	ND	ND	ND	ND
41418	2014-10-19T17:00:00	ND	ND	ND	ND	ND	ND	ND	ND	ND	ND	ND	ND
41419	2014-10-19T18:00:00	ND	ND	ND	ND	ND	ND	ND	ND	ND	ND	ND	ND
41420	2014-10-19T19:00:00	ND	ND	ND	ND	ND	ND	ND	ND	ND	ND	ND	ND
41421	2014-10-19T20:00:00	ND	ND	ND	ND	ND	ND	ND	ND	ND	ND	ND	ND
41422	2014-10-19T21:00:00	ND	ND	ND	ND	ND	ND	ND	ND	ND	ND	ND	ND
41423	2014-10-19T22:00:00	ND	ND	ND	ND	ND	ND	ND	ND	ND	ND	ND	ND
41424	2014-10-19T23:00:00	ND	ND	ND	ND	ND	ND	ND	ND	ND	ND	ND	ND
41425	2014-10-20T00:00:00	ND	ND	ND	ND	ND	ND	ND	ND	ND	ND	ND	ND
41426	2014-10-20T01:00:00	ND	ND	ND	ND	ND	ND	ND	ND	ND	ND	ND	ND
41427	2014-10-20T02:00:00	ND	ND	ND	ND	ND	ND	ND	ND	ND	ND	ND	ND
41428	2014-10-20T03:00:00	ND	ND	ND	ND	ND	ND	ND	ND	ND	ND	ND	ND
41429	2014-10-20T04:00:00	ND	ND	ND	ND	ND	ND	ND	ND	ND	ND	ND	ND
41430	2014-10-20T05:00:00	ND	ND	ND	ND	ND	ND	ND	ND	ND	ND	ND	ND
41431	2014-10-20T06:00:00	ND	ND	ND	ND	ND	ND	ND	ND	ND	ND	ND	ND
41432	2014-10-20T07:00:00	ND	ND	ND	ND	ND	ND	ND	ND	ND	ND	ND	ND
41433	2014-10-20T08:00:00	ND	ND	ND	ND	ND	ND	ND	ND	ND	ND	ND	ND
41434	2014-10-20T09:00:00	ND	ND	ND	ND	ND	ND	ND	ND	ND	ND	ND	ND
41435	2014-10-20T10:00:00	ND	ND	ND	ND	ND	ND	ND	ND	ND	ND	ND	ND
41436	2014-10-20T11:00:00	ND	ND	ND	ND	ND	ND	ND	ND	ND	ND	ND	ND
41437	2014-10-20T12:00:00	ND	ND	ND	ND	ND	ND	ND	ND	ND	ND	ND	ND
41438	2014-10-20T13:00:00	ND	ND	ND	ND	ND	ND	ND	ND	ND	ND	ND	ND
41439	2014-10-20T14:00:00	ND	ND	ND	ND	ND	ND	ND	ND	ND	ND	ND	ND
41440	2014-10-20T15:00:00	ND	ND	ND	ND	ND	ND	ND	ND	ND	ND	ND	ND
41441	2014-10-20T16:00:00	ND	ND	ND	ND	ND	ND	ND	ND	ND	ND	ND	ND
41442	2014-10-20T17:00:00	ND	ND	ND	ND	ND	ND	ND	ND	ND	ND	ND	ND
41443	2014-10-20T18:00:00	ND	ND	ND	ND	ND	ND	ND	ND	ND	ND	ND	ND
41444	2014-10-20T19:00:00	ND	ND	ND	ND	ND	ND	ND	ND	ND	ND	ND	ND
41445	2014-10-20T20:00:00	ND	ND	ND	ND	ND	ND	ND	ND	ND	ND	ND	ND
41446	2014-10-20T21:00:00	ND	ND	ND	ND	ND	ND	ND	ND	ND	ND	ND	ND
41447	2014-10-20T22:00:00	ND	ND	ND	ND	ND	ND	ND	ND	ND	ND	ND	ND
41448	2014-10-20T23:00:00	ND	ND	ND	ND	ND	ND	ND	ND	ND	ND	ND	ND
41449	2014-10-21T00:00:00	ND	ND	ND	ND	ND	ND	ND	ND	ND	ND	ND	ND
41450	2014-10-21T01:00:00	ND	ND	ND	ND	ND	ND	ND	ND	ND	ND	ND	ND
41451	2014-10-21T02:00:00	ND	ND	ND	ND	ND	ND	ND	ND	ND	ND	ND	ND
41452	2014-10-21T03:00:00	ND	ND	ND	ND	ND	ND	ND	ND	ND	ND	ND	ND
41453	2014-10-21T04:00:00	ND	ND	ND	ND	ND	ND	ND	ND	ND	ND	ND	ND
41454	2014-10-21T05:00:00	ND	ND	ND	ND	ND	ND	ND	ND	ND	ND	ND	ND
41455	2014-10-21T06:00:00	ND	ND	ND	ND	ND	ND	ND	ND	ND	ND	ND	ND
41456	2014-10-21T07:00:00	ND	ND	ND	ND	ND	ND	ND	ND	ND	ND	ND	ND
41457	2014-10-21T08:00:00	ND	ND	ND	ND	ND	ND	ND	ND	ND	ND	ND	ND
41458	2014-10-21T09:00:00	ND	ND	ND	ND	ND	ND	ND	ND	ND	ND	ND	ND
41459	2014-10-21T10:00:00	ND	ND	ND	ND	ND	ND	ND	ND	ND	ND	ND	ND
41460	2014-10-21T11:00:00	ND	ND	ND	ND	ND	ND	ND	ND	ND	ND	ND	ND
41461	2014-10-21T12:00:00	ND	ND	ND	ND	ND	ND	ND	ND	ND	ND	ND	ND
41462	2014-10-21T13:00:00	ND	ND	ND	ND	ND	ND	ND	ND	ND	ND	ND	ND
41463	2014-10-21T14:00:00	ND	ND	ND	ND	ND	ND	ND	ND	ND	ND	ND	ND
41464	2014-10-21T15:00:00	ND	ND	ND	ND	ND	ND	ND	ND	ND	ND	ND	ND
41465	2014-10-21T16:00:00	ND	ND	ND	ND	ND	ND	ND	ND	ND	ND	ND	ND
41466	2014-10-21T17:00:00	ND	ND	ND	ND	ND	ND	ND	ND	ND	ND	ND	ND
41467	2014-10-21T18:00:00	ND	ND	ND	ND	ND	ND	ND	ND	ND	ND	ND	ND
41468	2014-10-21T19:00:00	ND	ND	ND	ND	ND	ND	ND	ND	ND	ND	ND	ND
41469	2014-10-21T20:00:00	ND	ND	ND	ND	ND	ND	ND	ND	ND	ND	ND	ND
41470	2014-10-21T21:00:00	ND	ND	ND	ND	ND	ND	ND	ND	ND	ND	ND	ND
41471	2014-10-21T22:00:00	ND	ND	ND	ND	ND	ND	ND	ND	ND	ND	ND	ND
41472	2014-10-21T23:00:00	ND	ND	ND	ND	ND	ND	ND	ND	ND	ND	ND	ND
41473	2014-10-22T00:00:00	ND	ND	ND	ND	ND	ND	ND	ND	ND	ND	ND	ND
41474	2014-10-22T01:00:00	ND	ND	ND	ND	ND	ND	ND	ND	ND	ND	ND	ND
41475	2014-10-22T02:00:00	ND	ND	ND	ND	ND	ND	ND	ND	ND	ND	ND	ND
41476	2014-10-22T03:00:00	ND	ND	ND	ND	ND	ND	ND	ND	ND	ND	ND	ND
41477	2014-10-22T04:00:00	ND	ND	ND	ND	ND	ND	ND	ND	ND	ND	ND	ND
41478	2014-10-22T05:00:00	ND	ND	ND	ND	ND	ND	ND	ND	ND	ND	ND	ND
41479	2014-10-22T06:00:00	ND	ND	ND	ND	ND	ND	ND	ND	ND	ND	ND	ND
41480	2014-10-22T07:00:00	ND	ND	ND	ND	ND	ND	ND	ND	ND	ND	ND	ND
41481	2014-10-22T08:00:00	ND	ND	ND	ND	ND	ND	ND	ND	ND	ND	ND	ND
41482	2014-10-22T09:00:00	ND	ND	ND	ND	ND	ND	ND	ND	ND	ND	ND	ND
41483	2014-10-22T10:00:00	ND	ND	ND	ND	ND	ND	ND	ND	ND	ND	ND	ND
41484	2014-10-22T11:00:00	ND	ND	ND	ND	ND	ND	ND	ND	ND	ND	ND	ND
41485	2014-10-22T12:00:00	ND	ND	ND	ND	ND	ND	ND	ND	ND	ND	ND	ND
41486	2014-10-22T13:00:00	ND	ND	ND	ND	ND	ND	ND	ND	ND	ND	ND	ND
41487	2014-10-22T14:00:00	ND	ND	ND	ND	ND	ND	ND	ND	ND	ND	ND	ND
41488	2014-10-22T15:00:00	ND	ND	ND	ND	ND	ND	ND	ND	ND	ND	ND	ND
41489	2014-10-22T16:00:00	ND	ND	ND	ND	ND	ND	ND	ND	ND	ND	ND	ND
41490	2014-10-22T17:00:00	ND	ND	ND	ND	ND	ND	ND	ND	ND	ND	ND	ND
41491	2014-10-22T18:00:00	ND	ND	ND	ND	ND	ND	ND	ND	ND	ND	ND	ND
41492	2014-10-22T19:00:00	ND	ND	ND	ND	ND	ND	ND	ND	ND	ND	ND	ND
41493	2014-10-22T20:00:00	ND	ND	ND	ND	ND	ND	ND	ND	ND	ND	ND	ND
41494	2014-10-22T21:00:00	ND	ND	ND	ND	ND	ND	ND	ND	ND	ND	ND	ND
41495	2014-10-22T22:00:00	ND	ND	ND	ND	ND	ND	ND	ND	ND	ND	ND	ND
41496	2014-10-22T23:00:00	ND	ND	ND	ND	ND	ND	ND	ND	ND	ND	ND	ND
41497	2014-10-23T00:00:00	ND	ND	ND	ND	ND	ND	ND	ND	ND	ND	ND	ND
41498	2014-10-23T01:00:00	ND	ND	ND	ND	ND	ND	ND	ND	ND	ND	ND	ND
41499	2014-10-23T02:00:00	ND	ND	ND	ND	ND	ND	ND	ND	ND	ND	ND	ND
41500	2014-10-23T03:00:00	ND	ND	ND	ND	ND	ND	ND	ND	ND	ND	ND	ND
41501	2014-10-23T04:00:00	ND	ND	ND	ND	ND	ND	ND	ND	ND	ND	ND	ND
41502	2014-10-23T05:00:00	ND	ND	ND	ND	ND	ND	ND	ND	ND	ND	ND	ND
41503	2014-10-23T06:00:00	ND	ND	ND	ND	ND	ND	ND	ND	ND	ND	ND	ND
41504	2014-10-23T07:00:00	ND	ND	ND	ND	ND	ND	ND	ND	ND	ND	ND	ND
41505	2014-10-23T08:00:00	ND	ND	ND	ND	ND	ND	ND	ND	ND	ND	ND	ND
41506	2014-10-23T09:00:00	ND	ND	ND	ND	ND	ND	ND	ND	ND	ND	ND	ND
41507	2014-10-23T10:00:00	ND	ND	ND	ND	ND	ND	ND	ND	ND	ND	ND	ND
41508	2014-10-23T11:00:00	ND	ND	ND	ND	ND	ND	ND	ND	ND	ND	ND	ND
41509	2014-10-23T12:00:00	ND	ND	ND	ND	ND	ND	ND	ND	ND	ND	ND	ND
41510	2014-10-23T13:00:00	ND	ND	ND	ND	ND	ND	ND	ND	ND	ND	ND	ND
41511	2014-10-23T14:00:00	ND	ND	ND	ND	ND	ND	ND	ND	ND	ND	ND	ND
41512	2014-10-23T15:00:00	ND	ND	ND	ND	ND	ND	ND	ND	ND	ND	ND	ND
41513	2014-10-23T16:00:00	ND	ND	ND	ND	ND	ND	ND	ND	ND	ND	ND	ND
41514	2014-10-23T17:00:00	ND	ND	ND	ND	ND	ND	ND	ND	ND	ND	ND	ND
41515	2014-10-23T18:00:00	ND	ND	ND	ND	ND	ND	ND	ND	ND	ND	ND	ND
41516	2014-10-23T19:00:00	ND	ND	ND	ND	ND	ND	ND	ND	ND	ND	ND	ND
41517	2014-10-23T20:00:00	ND	ND	ND	ND	ND	ND	ND	ND	ND	ND	ND	ND
41518	2014-10-23T21:00:00	ND	ND	ND	ND	ND	ND	ND	ND	ND	ND	ND	ND
41519	2014-10-23T22:00:00	ND	ND	ND	ND	ND	ND	ND	ND	ND	ND	ND	ND
41520	2014-10-23T23:00:00	ND	ND	ND	ND	ND	ND	ND	ND	ND	ND	ND	ND
41521	2014-10-24T00:00:00	ND	ND	ND	ND	ND	ND	ND	ND	ND	ND	ND	ND
41522	2014-10-24T01:00:00	ND	ND	ND	ND	ND	ND	ND	ND	ND	ND	ND	ND
41523	2014-10-24T02:00:00	ND	ND	ND	ND	ND	ND	ND	ND	ND	ND	ND	ND
41524	2014-10-24T03:00:00	ND	ND	ND	ND	ND	ND	ND	ND	ND	ND	ND	ND
41525	2014-10-24T04:00:00	ND	ND	ND	ND	ND	ND	ND	ND	ND	ND	ND	ND
41526	2014-10-24T05:00:00	ND	ND	ND	ND	ND	ND	ND	ND	ND	ND	ND	ND
41527	2014-10-24T06:00:00	ND	ND	ND	ND	ND	ND	ND	ND	ND	ND	ND	ND
41528	2014-10-24T07:00:00	ND	ND	ND	ND	ND	ND	ND	ND	ND	ND	ND	ND
41529	2014-10-24T08:00:00	ND	ND	ND	ND	ND	ND	ND	ND	ND	ND	ND	ND
41530	2014-10-24T09:00:00	ND	ND	ND	ND	ND	ND	ND	ND	ND	ND	ND	ND
41531	2014-10-24T10:00:00	ND	ND	ND	ND	ND	ND	ND	ND	ND	ND	ND	ND
41532	2014-10-24T11:00:00	ND	ND	ND	ND	ND	ND	ND	ND	ND	ND	ND	ND
41533	2014-10-24T12:00:00	ND	ND	ND	ND	ND	ND	ND	ND	ND	ND	ND	ND
41534	2014-10-24T13:00:00	ND	ND	ND	ND	ND	ND	ND	ND	ND	ND	ND	ND
41535	2014-10-24T14:00:00	ND	ND	ND	ND	ND	ND	ND	ND	ND	ND	ND	ND
41536	2014-10-24T15:00:00	ND	ND	ND	ND	ND	ND	ND	ND	ND	ND	ND	ND
41537	2014-10-24T16:00:00	ND	ND	ND	ND	ND	ND	ND	ND	ND	ND	ND	ND
41538	2014-10-24T17:00:00	ND	ND	ND	ND	ND	ND	ND	ND	ND	ND	ND	ND
41539	2014-10-24T18:00:00	ND	ND	ND	ND	ND	ND	ND	ND	ND	ND	ND	ND
41540	2014-10-24T19:00:00	ND	ND	ND	ND	ND	ND	ND	ND	ND	ND	ND	ND
41541	2014-10-24T20:00:00	ND	ND	ND	ND	ND	ND	ND	ND	ND	ND	ND	ND
41542	2014-10-24T21:00:00	ND	ND	ND	ND	ND	ND	ND	ND	ND	ND	ND	ND
41543	2014-10-24T22:00:00	ND	ND	ND	ND	ND	ND	ND	ND	ND	ND	ND	ND
41544	2014-10-24T23:00:00	ND	ND	ND	ND	ND	ND	ND	ND	ND	ND	ND	ND
41545	2014-10-25T00:00:00	ND	ND	ND	ND	ND	ND	ND	ND	ND	ND	ND	ND
41546	2014-10-25T01:00:00	ND	ND	ND	ND	ND	ND	ND	ND	ND	ND	ND	ND
41547	2014-10-25T02:00:00	ND	ND	ND	ND	ND	ND	ND	ND	ND	ND	ND	ND
41548	2014-10-25T03:00:00	ND	ND	ND	ND	ND	ND	ND	ND	ND	ND	ND	ND
41549	2014-10-25T04:00:00	ND	ND	ND	ND	ND	ND	ND	ND	ND	ND	ND	ND
41550	2014-10-25T05:00:00	ND	ND	ND	ND	ND	ND	ND	ND	ND	ND	ND	ND
41551	2014-10-25T06:00:00	ND	ND	ND	ND	ND	ND	ND	ND	ND	ND	ND	ND
41552	2014-10-25T07:00:00	ND	ND	ND	ND	ND	ND	ND	ND	ND	ND	ND	ND
41553	2014-10-25T08:00:00	ND	ND	ND	ND	ND	ND	ND	ND	ND	ND	ND	ND
41554	2014-10-25T09:00:00	ND	ND	ND	ND	ND	ND	ND	ND	ND	ND	ND	ND
41555	2014-10-25T10:00:00	ND	ND	ND	ND	ND	ND	ND	ND	ND	ND	ND	ND
41556	2014-10-25T11:00:00	ND	ND	ND	ND	ND	ND	ND	ND	ND	ND	ND	ND
41557	2014-10-25T12:00:00	ND	ND	ND	ND	ND	ND	ND	ND	ND	ND	ND	ND
41558	2014-10-25T13:00:00	ND	ND	ND	ND	ND	ND	ND	ND	ND	ND	ND	ND
41559	2014-10-25T14:00:00	ND	ND	ND	ND	ND	ND	ND	ND	ND	ND	ND	ND
41560	2014-10-25T15:00:00	ND	ND	ND	ND	ND	ND	ND	ND	ND	ND	ND	ND
41561	2014-10-25T16:00:00	ND	ND	ND	ND	ND	ND	ND	ND	ND	ND	ND	ND
41562	2014-10-25T17:00:00	ND	ND	ND	ND	ND	ND	ND	ND	ND	ND	ND	ND
41563	2014-10-25T18:00:00	ND	ND	ND	ND	ND	ND	ND	ND	ND	ND	ND	ND
41564	2014-10-25T19:00:00	ND	ND	ND	ND	ND	ND	ND	ND	ND	ND	ND	ND
41565	2014-10-25T20:00:00	ND	ND	ND	ND	ND	ND	ND	ND	ND	ND	ND	ND
41566	2014-10-25T21:00:00	ND	ND	ND	ND	ND	ND	ND	ND	ND	ND	ND	ND
41567	2014-10-25T22:00:00	ND	ND	ND	ND	ND	ND	ND	ND	ND	ND	ND	ND
41568	2014-10-25T23:00:00	ND	ND	ND	ND	ND	ND	ND	ND	ND	ND	ND	ND
41569	2014-10-26T00:00:00	ND	ND	ND	ND	ND	ND	ND	ND	ND	ND	ND	ND
41570	2014-10-26T01:00:00	ND	ND	ND	ND	ND	ND	ND	ND	ND	ND	ND	ND
41571	2014-10-26T02:00:00	ND	ND	ND	ND	ND	ND	ND	ND	ND	ND	ND	ND
41572	2014-10-26T03:00:00	ND	ND	ND	ND	ND	ND	ND	ND	ND	ND	ND	ND
41573	2014-10-26T04:00:00	ND	ND	ND	ND	ND	ND	ND	ND	ND	ND	ND	ND
41574	2014-10-26T05:00:00	ND	ND	ND	ND	ND	ND	ND	ND	ND	ND	ND	ND
41575	2014-10-26T06:00:00	ND	ND	ND	ND	ND	ND	ND	ND	ND	ND	ND	ND
41576	2014-10-26T07:00:00	ND	ND	ND	ND	ND	ND	ND	ND	ND	ND	ND	ND
41577	2014-10-26T08:00:00	ND	ND	ND	ND	ND	ND	ND	ND	ND	ND	ND	ND
41578	2014-10-26T09:00:00	ND	ND	ND	ND	ND	ND	ND	ND	ND	ND	ND	ND
41579	2014-10-26T10:00:00	ND	ND	ND	ND	ND	ND	ND	ND	ND	ND	ND	ND
41580	2014-10-26T11:00:00	ND	ND	ND	ND	ND	ND	ND	ND	ND	ND	ND	ND
41581	2014-10-26T12:00:00	ND	ND	ND	ND	ND	ND	ND	ND	ND	ND	ND	ND
41582	2014-10-26T13:00:00	ND	ND	ND	ND	ND	ND	ND	ND	ND	ND	ND	ND
41583	2014-10-26T14:00:00	ND	ND	ND	ND	ND	ND	ND	ND	ND	ND	ND	ND
41584	2014-10-26T15:00:00	ND	ND	ND	ND	ND	ND	ND	ND	ND	ND	ND	ND
41585	2014-10-26T16:00:00	ND	ND	ND	ND	ND	ND	ND	ND	ND	ND	ND	ND
41586	2014-10-26T17:00:00	ND	ND	ND	ND	ND	ND	ND	ND	ND	ND	ND	ND
41587	2014-10-26T18:00:00	ND	ND	ND	ND	ND	ND	ND	ND	ND	ND	ND	ND
41588	2014-10-26T19:00:00	ND	ND	ND	ND	ND	ND	ND	ND	ND	ND	ND	ND
41589	2014-10-26T20:00:00	ND	ND	ND	ND	ND	ND	ND	ND	ND	ND	ND	ND
41590	2014-10-26T21:00:00	ND	ND	ND	ND	ND	ND	ND	ND	ND	ND	ND	ND
41591	2014-10-26T22:00:00	ND	ND	ND	ND	ND	ND	ND	ND	ND	ND	ND	ND
41592	2014-10-26T23:00:00	ND	ND	ND	ND	ND	ND	ND	ND	ND	ND	ND	ND
41593	2014-10-27T00:00:00	ND	ND	ND	ND	ND	ND	ND	ND	ND	ND	ND	ND
41594	2014-10-27T01:00:00	ND	ND	ND	ND	ND	ND	ND	ND	ND	ND	ND	ND
41595	2014-10-27T02:00:00	ND	ND	ND	ND	ND	ND	ND	ND	ND	ND	ND	ND
41596	2014-10-27T03:00:00	ND	ND	ND	ND	ND	ND	ND	ND	ND	ND	ND	ND
41597	2014-10-27T04:00:00	ND	ND	ND	ND	ND	ND	ND	ND	ND	ND	ND	ND
41598	2014-10-27T05:00:00	ND	ND	ND	ND	ND	ND	ND	ND	ND	ND	ND	ND
41599	2014-10-27T06:00:00	ND	ND	ND	ND	ND	ND	ND	ND	ND	ND	ND	ND
41600	2014-10-27T07:00:00	ND	ND	ND	ND	ND	ND	ND	ND	ND	ND	ND	ND
41601	2014-10-27T08:00:00	ND	ND	ND	ND	ND	ND	ND	ND	ND	ND	ND	ND
41602	2014-10-27T09:00:00	ND	ND	ND	ND	ND	ND	ND	ND	ND	ND	ND	ND
41603	2014-10-27T10:00:00	ND	ND	ND	ND	ND	ND	ND	ND	ND	ND	ND	ND
41604	2014-10-27T11:00:00	ND	ND	ND	ND	ND	ND	ND	ND	ND	ND	ND	ND
41605	2014-10-27T12:00:00	ND	ND	ND	ND	ND	ND	ND	ND	ND	ND	ND	ND
41606	2014-10-27T13:00:00	ND	ND	ND	ND	ND	ND	ND	ND	ND	ND	ND	ND
41607	2014-10-27T14:00:00	ND	ND	ND	ND	ND	ND	ND	ND	ND	ND	ND	ND
41608	2014-10-27T15:00:00	ND	ND	ND	ND	ND	ND	ND	ND	ND	ND	ND	ND
41609	2014-10-27T16:00:00	ND	ND	ND	ND	ND	ND	ND	ND	ND	ND	ND	ND
41610	2014-10-27T17:00:00	ND	ND	ND	ND	ND	ND	ND	ND	ND	ND	ND	ND
41611	2014-10-27T18:00:00	ND	ND	ND	ND	ND	ND	ND	ND	ND	ND	ND	ND
41612	2014-10-27T19:00:00	ND	ND	ND	ND	ND	ND	ND	ND	ND	ND	ND	ND
41613	2014-10-27T20:00:00	ND	ND	ND	ND	ND	ND	ND	ND	ND	ND	ND	ND
41614	2014-10-27T21:00:00	ND	ND	ND	ND	ND	ND	ND	ND	ND	ND	ND	ND
41615	2014-10-27T22:00:00	ND	ND	ND	ND	ND	ND	ND	ND	ND	ND	ND	ND
41616	2014-10-27T23:00:00	ND	ND	ND	ND	ND	ND	ND	ND	ND	ND	ND	ND
41617	2014-10-28T00:00:00	ND	ND	ND	ND	ND	ND	ND	ND	ND	ND	ND	ND
41618	2014-10-28T01:00:00	ND	ND	ND	ND	ND	ND	ND	ND	ND	ND	ND	ND
41619	2014-10-28T02:00:00	ND	ND	ND	ND	ND	ND	ND	ND	ND	ND	ND	ND
41620	2014-10-28T03:00:00	ND	ND	ND	ND	ND	ND	ND	ND	ND	ND	ND	ND
41621	2014-10-28T04:00:00	ND	ND	ND	ND	ND	ND	ND	ND	ND	ND	ND	ND
41622	2014-10-28T05:00:00	ND	ND	ND	ND	ND	ND	ND	ND	ND	ND	ND	ND
41623	2014-10-28T06:00:00	ND	ND	ND	ND	ND	ND	ND	ND	ND	ND	ND	ND
41624	2014-10-28T07:00:00	ND	ND	ND	ND	ND	ND	ND	ND	ND	ND	ND	ND
41625	2014-10-28T08:00:00	ND	ND	ND	ND	ND	ND	ND	ND	ND	ND	ND	ND
41626	2014-10-28T09:00:00	ND	ND	ND	ND	ND	ND	ND	ND	ND	ND	ND	ND
41627	2014-10-28T10:00:00	ND	ND	ND	ND	ND	ND	ND	ND	ND	ND	ND	ND
41628	2014-10-28T11:00:00	ND	ND	ND	ND	ND	ND	ND	ND	ND	ND	ND	ND
41629	2014-10-28T12:00:00	ND	ND	ND	ND	ND	ND	ND	ND	ND	ND	ND	ND
41630	2014-10-28T13:00:00	ND	ND	ND	ND	ND	ND	ND	ND	ND	ND	ND	ND
41631	2014-10-28T14:00:00	ND	ND	ND	ND	ND	ND	ND	ND	ND	ND	ND	ND
41632	2014-10-28T15:00:00	ND	ND	ND	ND	ND	ND	ND	ND	ND	ND	ND	ND
41633	2014-10-28T16:00:00	ND	ND	ND	ND	ND	ND	ND	ND	ND	ND	ND	ND
41634	2014-10-28T17:00:00	ND	ND	ND	ND	ND	ND	ND	ND	ND	ND	ND	ND
41635	2014-10-28T18:00:00	ND	ND	ND	ND	ND	ND	ND	ND	ND	ND	ND	ND
41636	2014-10-28T19:00:00	ND	ND	ND	ND	ND	ND	ND	ND	ND	ND	ND	ND
41637	2014-10-28T20:00:00	ND	ND	ND	ND	ND	ND	ND	ND	ND	ND	ND	ND
41638	2014-10-28T21:00:00	ND	ND	ND	ND	ND	ND	ND	ND	ND	ND	ND	ND
41639	2014-10-28T22:00:00	ND	ND	ND	ND	ND	ND	ND	ND	ND	ND	ND	ND
41640	2014-10-28T23:00:00	ND	ND	ND	ND	ND	ND	ND	ND	ND	ND	ND	ND
41641	2014-10-29T00:00:00	ND	ND	ND	ND	ND	ND	ND	ND	ND	ND	ND	ND
41642	2014-10-29T01:00:00	ND	ND	ND	ND	ND	ND	ND	ND	ND	ND	ND	ND
41643	2014-10-29T02:00:00	ND	ND	ND	ND	ND	ND	ND	ND	ND	ND	ND	ND
41644	2014-10-29T03:00:00	ND	ND	ND	ND	ND	ND	ND	ND	ND	ND	ND	ND
41645	2014-10-29T04:00:00	ND	ND	ND	ND	ND	ND	ND	ND	ND	ND	ND	ND
41646	2014-10-29T05:00:00	ND	ND	ND	ND	ND	ND	ND	ND	ND	ND	ND	ND
41647	2014-10-29T06:00:00	ND	ND	ND	ND	ND	ND	ND	ND	ND	ND	ND	ND
41648	2014-10-29T07:00:00	ND	ND	ND	ND	ND	ND	ND	ND	ND	ND	ND	ND
41649	2014-10-29T08:00:00	ND	ND	ND	ND	ND	ND	ND	ND	ND	ND	ND	ND
41650	2014-10-29T09:00:00	ND	ND	ND	ND	ND	ND	ND	ND	ND	ND	ND	ND
41651	2014-10-29T10:00:00	ND	ND	ND	ND	ND	ND	ND	ND	ND	ND	ND	ND
41652	2014-10-29T11:00:00	ND	ND	ND	ND	ND	ND	ND	ND	ND	ND	ND	ND
41653	2014-10-29T12:00:00	ND	ND	ND	ND	ND	ND	ND	ND	ND	ND	ND	ND
41654	2014-10-29T13:00:00	ND	ND	ND	ND	ND	ND	ND	ND	ND	ND	ND	ND
41655	2014-10-29T14:00:00	ND	ND	ND	ND	ND	ND	ND	ND	ND	ND	ND	ND
41656	2014-10-29T15:00:00	ND	ND	ND	ND	ND	ND	ND	ND	ND	ND	ND	ND
41657	2014-10-29T16:00:00	ND	ND	ND	ND	ND	ND	ND	ND	ND	ND	ND	ND
41658	2014-10-29T17:00:00	ND	ND	ND	ND	ND	ND	ND	ND	ND	ND	ND	ND
41659	2014-10-29T18:00:00	ND	ND	ND	ND	ND	ND	ND	ND	ND	ND	ND	ND
41660	2014-10-29T19:00:00	ND	ND	ND	ND	ND	ND	ND	ND	ND	ND	ND	ND
41661	2014-10-29T20:00:00	ND	ND	ND	ND	ND	ND	ND	ND	ND	ND	ND	ND
41662	2014-10-29T21:00:00	ND	ND	ND	ND	ND	ND	ND	ND	ND	ND	ND	ND
41663	2014-10-29T22:00:00	ND	ND	ND	ND	ND	ND	ND	ND	ND	ND	ND	ND
41664	2014-10-29T23:00:00	ND	ND	ND	ND	ND	ND	ND	ND	ND	ND	ND	ND
41665	2014-10-30T00:00:00	ND	ND	ND	ND	ND	ND	ND	ND	ND	ND	ND	ND
41666	2014-10-30T01:00:00	ND	ND	ND	ND	ND	ND	ND	ND	ND	ND	ND	ND
41667	2014-10-30T02:00:00	ND	ND	ND	ND	ND	ND	ND	ND	ND	ND	ND	ND
41668	2014-10-30T03:00:00	ND	ND	ND	ND	ND	ND	ND	ND	ND	ND	ND	ND
41669	2014-10-30T04:00:00	ND	ND	ND	ND	ND	ND	ND	ND	ND	ND	ND	ND
41670	2014-10-30T05:00:00	ND	ND	ND	ND	ND	ND	ND	ND	ND	ND	ND	ND
41671	2014-10-30T06:00:00	ND	ND	ND	ND	ND	ND	ND	ND	ND	ND	ND	ND
41672	2014-10-30T07:00:00	ND	ND	ND	ND	ND	ND	ND	ND	ND	ND	ND	ND
41673	2014-10-30T08:00:00	ND	ND	ND	ND	ND	ND	ND	ND	ND	ND	ND	ND
41674	2014-10-30T09:00:00	ND	ND	ND	ND	ND	ND	ND	ND	ND	ND	ND	ND
41675	2014-10-30T10:00:00	ND	ND	ND	ND	ND	ND	ND	ND	ND	ND	ND	ND
41676	2014-10-30T11:00:00	ND	ND	ND	ND	ND	ND	ND	ND	ND	ND	ND	ND
41677	2014-10-30T12:00:00	ND	ND	ND	ND	ND	ND	ND	ND	ND	ND	ND	ND
41678	2014-10-30T13:00:00	ND	ND	ND	ND	ND	ND	ND	ND	ND	ND	ND	ND
41679	2014-10-30T14:00:00	ND	ND	ND	ND	ND	ND	ND	ND	ND	ND	ND	ND
41680	2014-10-30T15:00:00	ND	ND	ND	ND	ND	ND	ND	ND	ND	ND	ND	ND
41681	2014-10-30T16:00:00	ND	ND	ND	ND	ND	ND	ND	ND	ND	ND	ND	ND
41682	2014-10-30T17:00:00	ND	ND	ND	ND	ND	ND	ND	ND	ND	ND	ND	ND
41683	2014-10-30T18:00:00	ND	ND	ND	ND	ND	ND	ND	ND	ND	ND	ND	ND
41684	2014-10-30T19:00:00	ND	ND	ND	ND	ND	ND	ND	ND	ND	ND	ND	ND
41685	2014-10-30T20:00:00	ND	ND	ND	ND	ND	ND	ND	ND	ND	ND	ND	ND
41686	2014-10-30T21:00:00	ND	ND	ND	ND	ND	ND	ND	ND	ND	ND	ND	ND
41687	2014-10-30T22:00:00	ND	ND	ND	ND	ND	ND	ND	ND	ND	ND	ND	ND
41688	2014-10-30T23:00:00	ND	ND	ND	ND	ND	ND	ND	ND	ND	ND	ND	ND
41689	2014-10-31T00:00:00	ND	ND	ND	ND	ND	ND	ND	ND	ND	ND	ND	ND
41690	2014-10-31T01:00:00	ND	ND	ND	ND	ND	ND	ND	ND	ND	ND	ND	ND
41691	2014-10-31T02:00:00	ND	ND	ND	ND	ND	ND	ND	ND	ND	ND	ND	ND
41692	2014-10-31T03:00:00	ND	ND	ND	ND	ND	ND	ND	ND	ND	ND	ND	ND
41693	2014-10-31T04:00:00	ND	ND	ND	ND	ND	ND	ND	ND	ND	ND	ND	ND
41694	2014-10-31T05:00:00	ND	ND	ND	ND	ND	ND	ND	ND	ND	ND	ND	ND
41695	2014-10-31T06:00:00	ND	ND	ND	ND	ND	ND	ND	ND	ND	ND	ND	ND
41696	2014-10-31T07:00:00	ND	ND	ND	ND	ND	ND	ND	ND	ND	ND	ND	ND
41697	2014-10-31T08:00:00	ND	ND	ND	ND	ND	ND	ND	ND	ND	ND	ND	ND
41698	2014-10-31T09:00:00	ND	ND	ND	ND	ND	ND	ND	ND	ND	ND	ND	ND
41699	2014-10-31T10:00:00	ND	ND	ND	ND	ND	ND	ND	ND	ND	ND	ND	ND
41700	2014-10-31T11:00:00	ND	ND	ND	ND	ND	ND	ND	ND	ND	ND	ND	ND
41701	2014-10-31T12:00:00	ND	ND	ND	ND	ND	ND	ND	ND	ND	ND	ND	ND
41702	2014-10-31T13:00:00	ND	ND	ND	ND	ND	ND	ND	ND	ND	ND	ND	ND
41703	2014-10-31T14:00:00	ND	ND	ND	ND	ND	ND	ND	ND	ND	ND	ND	ND
41704	2014-10-31T15:00:00	ND	ND	ND	ND	ND	ND	ND	ND	ND	ND	ND	ND
41705	2014-10-31T16:00:00	ND	ND	ND	ND	ND	ND	ND	ND	ND	ND	ND	ND
41706	2014-10-31T17:00:00	ND	ND	ND	ND	ND	ND	ND	ND	ND	ND	ND	ND
41707	2014-10-31T18:00:00	ND	ND	ND	ND	ND	ND	ND	ND	ND	ND	ND	ND
41708	2014-10-31T19:00:00	ND	ND	ND	ND	ND	ND	ND	ND	ND	ND	ND	ND
41709	2014-10-31T20:00:00	ND	ND	ND	ND	ND	ND	ND	ND	ND	ND	ND	ND
41710	2014-10-31T21:00:00	ND	ND	ND	ND	ND	ND	ND	ND	ND	ND	ND	ND
41711	2014-10-31T22:00:00	ND	ND	ND	ND	ND	ND	ND	ND	ND	ND	ND	ND
41712	2014-10-31T23:00:00	ND	ND	ND	ND	ND	ND	ND	ND	ND	ND	ND	ND
41713	2014-11-01T00:00:00	ND	ND	ND	ND	ND	ND	ND	ND	ND	ND	ND	ND
41714	2014-11-01T01:00:00	ND	ND	ND	ND	ND	ND	ND	ND	ND	ND	ND	ND
41715	2014-11-01T02:00:00	ND	ND	ND	ND	ND	ND	ND	ND	ND	ND	ND	ND
41716	2014-11-01T03:00:00	ND	ND	ND	ND	ND	ND	ND	ND	ND	ND	ND	ND
41717	2014-11-01T04:00:00	ND	ND	ND	ND	ND	ND	ND	ND	ND	ND	ND	ND
41718	2014-11-01T05:00:00	ND	ND	ND	ND	ND	ND	ND	ND	ND	ND	ND	ND
41719	2014-11-01T06:00:00	ND	ND	ND	ND	ND	ND	ND	ND	ND	ND	ND	ND
41720	2014-11-01T07:00:00	ND	ND	ND	ND	ND	ND	ND	ND	ND	ND	ND	ND
41721	2014-11-01T08:00:00	ND	ND	ND	ND	ND	ND	ND	ND	ND	ND	ND	ND
41722	2014-11-01T09:00:00	ND	ND	ND	ND	ND	ND	ND	ND	ND	ND	ND	ND
41723	2014-11-01T10:00:00	ND	ND	ND	ND	ND	ND	ND	ND	ND	ND	ND	ND
41724	2014-11-01T11:00:00	ND	ND	ND	ND	ND	ND	ND	ND	ND	ND	ND	ND
41725	2014-11-01T12:00:00	ND	ND	ND	ND	ND	ND	ND	ND	ND	ND	ND	ND
41726	2014-11-01T13:00:00	ND	ND	ND	ND	ND	ND	ND	ND	ND	ND	ND	ND
41727	2014-11-01T14:00:00	ND	ND	ND	ND	ND	ND	ND	ND	ND	ND	ND	ND
41728	2014-11-01T15:00:00	ND	ND	ND	ND	ND	ND	ND	ND	ND	ND	ND	ND
41729	2014-11-01T16:00:00	ND	ND	ND	ND	ND	ND	ND	ND	ND	ND	ND	ND
41730	2014-11-01T17:00:00	ND	ND	ND	ND	ND	ND	ND	ND	ND	ND	ND	ND
41731	2014-11-01T18:00:00	ND	ND	ND	ND	ND	ND	ND	ND	ND	ND	ND	ND
41732	2014-11-01T19:00:00	ND	ND	ND	ND	ND	ND	ND	ND	ND	ND	ND	ND
41733	2014-11-01T20:00:00	ND	ND	ND	ND	ND	ND	ND	ND	ND	ND	ND	ND
41734	2014-11-01T21:00:00	ND	ND	ND	ND	ND	ND	ND	ND	ND	ND	ND	ND
41735	2014-11-01T22:00:00	ND	ND	ND	ND	ND	ND	ND	ND	ND	ND	ND	ND
41736	2014-11-01T23:00:00	ND	ND	ND	ND	ND	ND	ND	ND	ND	ND	ND	ND
41737	2014-11-02T00:00:00	ND	ND	ND	ND	ND	ND	ND	ND	ND	ND	ND	ND
41738	2014-11-02T01:00:00	ND	ND	ND	ND	ND	ND	ND	ND	ND	ND	ND	ND
41739	2014-11-02T02:00:00	ND	ND	ND	ND	ND	ND	ND	ND	ND	ND	ND	ND
41740	2014-11-02T03:00:00	ND	ND	ND	ND	ND	ND	ND	ND	ND	ND	ND	ND
41741	2014-11-02T04:00:00	ND	ND	ND	ND	ND	ND	ND	ND	ND	ND	ND	ND
41742	2014-11-02T05:00:00	ND	ND	ND	ND	ND	ND	ND	ND	ND	ND	ND	ND
41743	2014-11-02T06:00:00	ND	ND	ND	ND	ND	ND	ND	ND	ND	ND	ND	ND
41744	2014-11-02T07:00:00	ND	ND	ND	ND	ND	ND	ND	ND	ND	ND	ND	ND
41745	2014-11-02T08:00:00	ND	ND	ND	ND	ND	ND	ND	ND	ND	ND	ND	ND
41746	2014-11-02T09:00:00	ND	ND	ND	ND	ND	ND	ND	ND	ND	ND	ND	ND
41747	2014-11-02T10:00:00	ND	ND	ND	ND	ND	ND	ND	ND	ND	ND	ND	ND
41748	2014-11-02T11:00:00	ND	ND	ND	ND	ND	ND	ND	ND	ND	ND	ND	ND
41749	2014-11-02T12:00:00	ND	ND	ND	ND	ND	ND	ND	ND	ND	ND	ND	ND
41750	2014-11-02T13:00:00	ND	ND	ND	ND	ND	ND	ND	ND	ND	ND	ND	ND
41751	2014-11-02T14:00:00	ND	ND	ND	ND	ND	ND	ND	ND	ND	ND	ND	ND
41752	2014-11-02T15:00:00	ND	ND	ND	ND	ND	ND	ND	ND	ND	ND	ND	ND
41753	2014-11-02T16:00:00	ND	ND	ND	ND	ND	ND	ND	ND	ND	ND	ND	ND
41754	2014-11-02T17:00:00	ND	ND	ND	ND	ND	ND	ND	ND	ND	ND	ND	ND
41755	2014-11-02T18:00:00	ND	ND	ND	ND	ND	ND	ND	ND	ND	ND	ND	ND
41756	2014-11-02T19:00:00	ND	ND	ND	ND	ND	ND	ND	ND	ND	ND	ND	ND
41757	2014-11-02T20:00:00	ND	ND	ND	ND	ND	ND	ND	ND	ND	ND	ND	ND
41758	2014-11-02T21:00:00	ND	ND	ND	ND	ND	ND	ND	ND	ND	ND	ND	ND
41759	2014-11-02T22:00:00	ND	ND	ND	ND	ND	ND	ND	ND	ND	ND	ND	ND
41760	2014-11-02T23:00:00	ND	ND	ND	ND	ND	ND	ND	ND	ND	ND	ND	ND
41761	2014-11-03T00:00:00	ND	ND	ND	ND	ND	ND	ND	ND	ND	ND	ND	ND
41762	2014-11-03T01:00:00	ND	ND	ND	ND	ND	ND	ND	ND	ND	ND	ND	ND
41763	2014-11-03T02:00:00	ND	ND	ND	ND	ND	ND	ND	ND	ND	ND	ND	ND
41764	2014-11-03T03:00:00	ND	ND	ND	ND	ND	ND	ND	ND	ND	ND	ND	ND
41765	2014-11-03T04:00:00	ND	ND	ND	ND	ND	ND	ND	ND	ND	ND	ND	ND
41766	2014-11-03T05:00:00	ND	ND	ND	ND	ND	ND	ND	ND	ND	ND	ND	ND
41767	2014-11-03T06:00:00	ND	ND	ND	ND	ND	ND	ND	ND	ND	ND	ND	ND
41768	2014-11-03T07:00:00	ND	ND	ND	ND	ND	ND	ND	ND	ND	ND	ND	ND
41769	2014-11-03T08:00:00	ND	ND	ND	ND	ND	ND	ND	ND	ND	ND	ND	ND
41770	2014-11-03T09:00:00	ND	ND	ND	ND	ND	ND	ND	ND	ND	ND	ND	ND
41771	2014-11-03T10:00:00	ND	ND	ND	ND	ND	ND	ND	ND	ND	ND	ND	ND
41772	2014-11-03T11:00:00	ND	ND	ND	ND	ND	ND	ND	ND	ND	ND	ND	ND
41773	2014-11-03T12:00:00	ND	ND	ND	ND	ND	ND	ND	ND	ND	ND	ND	ND
41774	2014-11-03T13:00:00	ND	ND	ND	ND	ND	ND	ND	ND	ND	ND	ND	ND
41775	2014-11-03T14:00:00	ND	ND	ND	ND	ND	ND	ND	ND	ND	ND	ND	ND
41776	2014-11-03T15:00:00	ND	ND	ND	ND	ND	ND	ND	ND	ND	ND	ND	ND
41777	2014-11-03T16:00:00	ND	ND	ND	ND	ND	ND	ND	ND	ND	ND	ND	ND
41778	2014-11-03T17:00:00	ND	ND	ND	ND	ND	ND	ND	ND	ND	ND	ND	ND
41779	2014-11-03T18:00:00	ND	ND	ND	ND	ND	ND	ND	ND	ND	ND	ND	ND
41780	2014-11-03T19:00:00	ND	ND	ND	ND	ND	ND	ND	ND	ND	ND	ND	ND
41781	2014-11-03T20:00:00	ND	ND	ND	ND	ND	ND	ND	ND	ND	ND	ND	ND
41782	2014-11-03T21:00:00	ND	ND	ND	ND	ND	ND	ND	ND	ND	ND	ND	ND
41783	2014-11-03T22:00:00	ND	ND	ND	ND	ND	ND	ND	ND	ND	ND	ND	ND
41784	2014-11-03T23:00:00	ND	ND	ND	ND	ND	ND	ND	ND	ND	ND	ND	ND
41785	2014-11-04T00:00:00	ND	ND	ND	ND	ND	ND	ND	ND	ND	ND	ND	ND
41786	2014-11-04T01:00:00	ND	ND	ND	ND	ND	ND	ND	ND	ND	ND	ND	ND
41787	2014-11-04T02:00:00	ND	ND	ND	ND	ND	ND	ND	ND	ND	ND	ND	ND
41788	2014-11-04T03:00:00	ND	ND	ND	ND	ND	ND	ND	ND	ND	ND	ND	ND
41789	2014-11-04T04:00:00	ND	ND	ND	ND	ND	ND	ND	ND	ND	ND	ND	ND
41790	2014-11-04T05:00:00	ND	ND	ND	ND	ND	ND	ND	ND	ND	ND	ND	ND
41791	2014-11-04T06:00:00	ND	ND	ND	ND	ND	ND	ND	ND	ND	ND	ND	ND
41792	2014-11-04T07:00:00	ND	ND	ND	ND	ND	ND	ND	ND	ND	ND	ND	ND
41793	2014-11-04T08:00:00	ND	ND	ND	ND	ND	ND	ND	ND	ND	ND	ND	ND
41794	2014-11-04T09:00:00	ND	ND	ND	ND	ND	ND	ND	ND	ND	ND	ND	ND
41795	2014-11-04T10:00:00	ND	ND	ND	ND	ND	ND	ND	ND	ND	ND	ND	ND
41796	2014-11-04T11:00:00	ND	ND	ND	ND	ND	ND	ND	ND	ND	ND	ND	ND
41797	2014-11-04T12:00:00	ND	ND	ND	ND	ND	ND	ND	ND	ND	ND	ND	ND
41798	2014-11-04T13:00:00	ND	ND	ND	ND	ND	ND	ND	ND	ND	ND	ND	ND
41799	2014-11-04T14:00:00	ND	ND	ND	ND	ND	ND	ND	ND	ND	ND	ND	ND
41800	2014-11-04T15:00:00	ND	ND	ND	ND	ND	ND	ND	ND	ND	ND	ND	ND
41801	2014-11-04T16:00:00	ND	ND	ND	ND	ND	ND	ND	ND	ND	ND	ND	ND
41802	2014-11-04T17:00:00	ND	ND	ND	ND	ND	ND	ND	ND	ND	ND	ND	ND
41803	2014-11-04T18:00:00	ND	ND	ND	ND	ND	ND	ND	ND	ND	ND	ND	ND
41804	2014-11-04T19:00:00	ND	ND	ND	ND	ND	ND	ND	ND	ND	ND	ND	ND
41805	2014-11-04T20:00:00	ND	ND	ND	ND	ND	ND	ND	ND	ND	ND	ND	ND
41806	2014-11-04T21:00:00	ND	ND	ND	ND	ND	ND	ND	ND	ND	ND	ND	ND
41807	2014-11-04T22:00:00	ND	ND	ND	ND	ND	ND	ND	ND	ND	ND	ND	ND
41808	2014-11-04T23:00:00	ND	ND	ND	ND	ND	ND	ND	ND	ND	ND	ND	ND
41809	2014-11-05T00:00:00	ND	ND	ND	ND	ND	ND	ND	ND	ND	ND	ND	ND
41810	2014-11-05T01:00:00	ND	ND	ND	ND	ND	ND	ND	ND	ND	ND	ND	ND
41811	2014-11-05T02:00:00	ND	ND	ND	ND	ND	ND	ND	ND	ND	ND	ND	ND
41812	2014-11-05T03:00:00	ND	ND	ND	ND	ND	ND	ND	ND	ND	ND	ND	ND
41813	2014-11-05T04:00:00	ND	ND	ND	ND	ND	ND	ND	ND	ND	ND	ND	ND
41814	2014-11-05T05:00:00	ND	ND	ND	ND	ND	ND	ND	ND	ND	ND	ND	ND
41815	2014-11-05T06:00:00	ND	ND	ND	ND	ND	ND	ND	ND	ND	ND	ND	ND
41816	2014-11-05T07:00:00	ND	ND	ND	ND	ND	ND	ND	ND	ND	ND	ND	ND
41817	2014-11-05T08:00:00	ND	ND	ND	ND	ND	ND	ND	ND	ND	ND	ND	ND
41818	2014-11-05T09:00:00	ND	ND	ND	ND	ND	ND	ND	ND	ND	ND	ND	ND
41819	2014-11-05T10:00:00	ND	ND	ND	ND	ND	ND	ND	ND	ND	ND	ND	ND
41820	2014-11-05T11:00:00	ND	ND	ND	ND	ND	ND	ND	ND	ND	ND	ND	ND
41821	2014-11-05T12:00:00	ND	ND	ND	ND	ND	ND	ND	ND	ND	ND	ND	ND
41822	2014-11-05T13:00:00	ND	ND	ND	ND	ND	ND	ND	ND	ND	ND	ND	ND
41823	2014-11-05T14:00:00	ND	ND	ND	ND	ND	ND	ND	ND	ND	ND	ND	ND
41824	2014-11-05T15:00:00	ND	ND	ND	ND	ND	ND	ND	ND	ND	ND	ND	ND
41825	2014-11-05T16:00:00	ND	ND	ND	ND	ND	ND	ND	ND	ND	ND	ND	ND
41826	2014-11-05T17:00:00	ND	ND	ND	ND	ND	ND	ND	ND	ND	ND	ND	ND
41827	2014-11-05T18:00:00	ND	ND	ND	ND	ND	ND	ND	ND	ND	ND	ND	ND
41828	2014-11-05T19:00:00	ND	ND	ND	ND	ND	ND	ND	ND	ND	ND	ND	ND
41829	2014-11-05T20:00:00	ND	ND	ND	ND	ND	ND	ND	ND	ND	ND	ND	ND
41830	2014-11-05T21:00:00	ND	ND	ND	ND	ND	ND	ND	ND	ND	ND	ND	ND
41831	2014-11-05T22:00:00	ND	ND	ND	ND	ND	ND	ND	ND	ND	ND	ND	ND
41832	2014-11-05T23:00:00	ND	ND	ND	ND	ND	ND	ND	ND	ND	ND	ND	ND
41833	2014-11-06T00:00:00	ND	ND	ND	ND	ND	ND	ND	ND	ND	ND	ND	ND
41834	2014-11-06T01:00:00	ND	ND	ND	ND	ND	ND	ND	ND	ND	ND	ND	ND
41835	2014-11-06T02:00:00	ND	ND	ND	ND	ND	ND	ND	ND	ND	ND	ND	ND
41836	2014-11-06T03:00:00	ND	ND	ND	ND	ND	ND	ND	ND	ND	ND	ND	ND
41837	2014-11-06T04:00:00	ND	ND	ND	ND	ND	ND	ND	ND	ND	ND	ND	ND
41838	2014-11-06T05:00:00	ND	ND	ND	ND	ND	ND	ND	ND	ND	ND	ND	ND
41839	2014-11-06T06:00:00	ND	ND	ND	ND	ND	ND	ND	ND	ND	ND	ND	ND
41840	2014-11-06T07:00:00	ND	ND	ND	ND	ND	ND	ND	ND	ND	ND	ND	ND
41841	2014-11-06T08:00:00	ND	ND	ND	ND	ND	ND	ND	ND	ND	ND	ND	ND
41842	2014-11-06T09:00:00	ND	ND	ND	ND	ND	ND	ND	ND	ND	ND	ND	ND
41843	2014-11-06T10:00:00	ND	ND	ND	ND	ND	ND	ND	ND	ND	ND	ND	ND
41844	2014-11-06T11:00:00	ND	ND	ND	ND	ND	ND	ND	ND	ND	ND	ND	ND
41845	2014-11-06T12:00:00	ND	ND	ND	ND	ND	ND	ND	ND	ND	ND	ND	ND
41846	2014-11-06T13:00:00	ND	ND	ND	ND	ND	ND	ND	ND	ND	ND	ND	ND
41847	2014-11-06T14:00:00	ND	ND	ND	ND	ND	ND	ND	ND	ND	ND	ND	ND
41848	2014-11-06T15:00:00	ND	ND	ND	ND	ND	ND	ND	ND	ND	ND	ND	ND
41849	2014-11-06T16:00:00	ND	ND	ND	ND	ND	ND	ND	ND	ND	ND	ND	ND
41850	2014-11-06T17:00:00	ND	ND	ND	ND	ND	ND	ND	ND	ND	ND	ND	ND
41851	2014-11-06T18:00:00	ND	ND	ND	ND	ND	ND	ND	ND	ND	ND	ND	ND
41852	2014-11-06T19:00:00	ND	ND	ND	ND	ND	ND	ND	ND	ND	ND	ND	ND
41853	2014-11-06T20:00:00	ND	ND	ND	ND	ND	ND	ND	ND	ND	ND	ND	ND
41854	2014-11-06T21:00:00	ND	ND	ND	ND	ND	ND	ND	ND	ND	ND	ND	ND
41855	2014-11-06T22:00:00	ND	ND	ND	ND	ND	ND	ND	ND	ND	ND	ND	ND
41856	2014-11-06T23:00:00	ND	ND	ND	ND	ND	ND	ND	ND	ND	ND	ND	ND
41857	2014-11-07T00:00:00	ND	ND	ND	ND	ND	ND	ND	ND	ND	ND	ND	ND
41858	2014-11-07T01:00:00	ND	ND	ND	ND	ND	ND	ND	ND	ND	ND	ND	ND
41859	2014-11-07T02:00:00	ND	ND	ND	ND	ND	ND	ND	ND	ND	ND	ND	ND
41860	2014-11-07T03:00:00	ND	ND	ND	ND	ND	ND	ND	ND	ND	ND	ND	ND
41861	2014-11-07T04:00:00	ND	ND	ND	ND	ND	ND	ND	ND	ND	ND	ND	ND
41862	2014-11-07T05:00:00	ND	ND	ND	ND	ND	ND	ND	ND	ND	ND	ND	ND
41863	2014-11-07T06:00:00	ND	ND	ND	ND	ND	ND	ND	ND	ND	ND	ND	ND
41864	2014-11-07T07:00:00	ND	ND	ND	ND	ND	ND	ND	ND	ND	ND	ND	ND
41865	2014-11-07T08:00:00	ND	ND	ND	ND	ND	ND	ND	ND	ND	ND	ND	ND
41866	2014-11-07T09:00:00	ND	ND	ND	ND	ND	ND	ND	ND	ND	ND	ND	ND
41867	2014-11-07T10:00:00	ND	ND	ND	ND	ND	ND	ND	ND	ND	ND	ND	ND
41868	2014-11-07T11:00:00	ND	ND	ND	ND	ND	ND	ND	ND	ND	ND	ND	ND
41869	2014-11-07T12:00:00	ND	ND	ND	ND	ND	ND	ND	ND	ND	ND	ND	ND
41870	2014-11-07T13:00:00	ND	ND	ND	ND	ND	ND	ND	ND	ND	ND	ND	ND
41871	2014-11-07T14:00:00	ND	ND	ND	ND	ND	ND	ND	ND	ND	ND	ND	ND
41872	2014-11-07T15:00:00	ND	ND	ND	ND	ND	ND	ND	ND	ND	ND	ND	ND
41873	2014-11-07T16:00:00	ND	ND	ND	ND	ND	ND	ND	ND	ND	ND	ND	ND
41874	2014-11-07T17:00:00	ND	ND	ND	ND	ND	ND	ND	ND	ND	ND	ND	ND
41875	2014-11-07T18:00:00	ND	ND	ND	ND	ND	ND	ND	ND	ND	ND	ND	ND
41876	2014-11-07T19:00:00	ND	ND	ND	ND	ND	ND	ND	ND	ND	ND	ND	ND
41877	2014-11-07T20:00:00	ND	ND	ND	ND	ND	ND	ND	ND	ND	ND	ND	ND
41878	2014-11-07T21:00:00	ND	ND	ND	ND	ND	ND	ND	ND	ND	ND	ND	ND
41879	2014-11-07T22:00:00	ND	ND	ND	ND	ND	ND	ND	ND	ND	ND	ND	ND
41880	2014-11-07T23:00:00	ND	ND	ND	ND	ND	ND	ND	ND	ND	ND	ND	ND
41881	2014-11-08T00:00:00	ND	ND	ND	ND	ND	ND	ND	ND	ND	ND	ND	ND
41882	2014-11-08T01:00:00	ND	ND	ND	ND	ND	ND	ND	ND	ND	ND	ND	ND
41883	2014-11-08T02:00:00	ND	ND	ND	ND	ND	ND	ND	ND	ND	ND	ND	ND
41884	2014-11-08T03:00:00	ND	ND	ND	ND	ND	ND	ND	ND	ND	ND	ND	ND
41885	2014-11-08T04:00:00	ND	ND	ND	ND	ND	ND	ND	ND	ND	ND	ND	ND
41886	2014-11-08T05:00:00	ND	ND	ND	ND	ND	ND	ND	ND	ND	ND	ND	ND
41887	2014-11-08T06:00:00	ND	ND	ND	ND	ND	ND	ND	ND	ND	ND	ND	ND
41888	2014-11-08T07:00:00	ND	ND	ND	ND	ND	ND	ND	ND	ND	ND	ND	ND
41889	2014-11-08T08:00:00	ND	ND	ND	ND	ND	ND	ND	ND	ND	ND	ND	ND
41890	2014-11-08T09:00:00	ND	ND	ND	ND	ND	ND	ND	ND	ND	ND	ND	ND
41891	2014-11-08T10:00:00	ND	ND	ND	ND	ND	ND	ND	ND	ND	ND	ND	ND
41892	2014-11-08T11:00:00	ND	ND	ND	ND	ND	ND	ND	ND	ND	ND	ND	ND
41893	2014-11-08T12:00:00	ND	ND	ND	ND	ND	ND	ND	ND	ND	ND	ND	ND
41894	2014-11-08T13:00:00	ND	ND	ND	ND	ND	ND	ND	ND	ND	ND	ND	ND
41895	2014-11-08T14:00:00	ND	ND	ND	ND	ND	ND	ND	ND	ND	ND	ND	ND
41896	2014-11-08T15:00:00	ND	ND	ND	ND	ND	ND	ND	ND	ND	ND	ND	ND
41897	2014-11-08T16:00:00	ND	ND	ND	ND	ND	ND	ND	ND	ND	ND	ND	ND
41898	2014-11-08T17:00:00	ND	ND	ND	ND	ND	ND	ND	ND	ND	ND	ND	ND
41899	2014-11-08T18:00:00	ND	ND	ND	ND	ND	ND	ND	ND	ND	ND	ND	ND
41900	2014-11-08T19:00:00	ND	ND	ND	ND	ND	ND	ND	ND	ND	ND	ND	ND
41901	2014-11-08T20:00:00	ND	ND	ND	ND	ND	ND	ND	ND	ND	ND	ND	ND
41902	2014-11-08T21:00:00	ND	ND	ND	ND	ND	ND	ND	ND	ND	ND	ND	ND
41903	2014-11-08T22:00:00	ND	ND	ND	ND	ND	ND	ND	ND	ND	ND	ND	ND
41904	2014-11-08T23:00:00	ND	ND	ND	ND	ND	ND	ND	ND	ND	ND	ND	ND
41905	2014-11-09T00:00:00	ND	ND	ND	ND	ND	ND	ND	ND	ND	ND	ND	ND
41906	2014-11-09T01:00:00	ND	ND	ND	ND	ND	ND	ND	ND	ND	ND	ND	ND
41907	2014-11-09T02:00:00	ND	ND	ND	ND	ND	ND	ND	ND	ND	ND	ND	ND
41908	2014-11-09T03:00:00	ND	ND	ND	ND	ND	ND	ND	ND	ND	ND	ND	ND
41909	2014-11-09T04:00:00	ND	ND	ND	ND	ND	ND	ND	ND	ND	ND	ND	ND
41910	2014-11-09T05:00:00	ND	ND	ND	ND	ND	ND	ND	ND	ND	ND	ND	ND
41911	2014-11-09T06:00:00	ND	ND	ND	ND	ND	ND	ND	ND	ND	ND	ND	ND
41912	2014-11-09T07:00:00	ND	ND	ND	ND	ND	ND	ND	ND	ND	ND	ND	ND
41913	2014-11-09T08:00:00	ND	ND	ND	ND	ND	ND	ND	ND	ND	ND	ND	ND
41914	2014-11-09T09:00:00	ND	ND	ND	ND	ND	ND	ND	ND	ND	ND	ND	ND
41915	2014-11-09T10:00:00	ND	ND	ND	ND	ND	ND	ND	ND	ND	ND	ND	ND
41916	2014-11-09T11:00:00	ND	ND	ND	ND	ND	ND	ND	ND	ND	ND	ND	ND
41917	2014-11-09T12:00:00	ND	ND	ND	ND	ND	ND	ND	ND	ND	ND	ND	ND
41918	2014-11-09T13:00:00	ND	ND	ND	ND	ND	ND	ND	ND	ND	ND	ND	ND
41919	2014-11-09T14:00:00	ND	ND	ND	ND	ND	ND	ND	ND	ND	ND	ND	ND
41920	2014-11-09T15:00:00	ND	ND	ND	ND	ND	ND	ND	ND	ND	ND	ND	ND
41921	2014-11-09T16:00:00	ND	ND	ND	ND	ND	ND	ND	ND	ND	ND	ND	ND
41922	2014-11-09T17:00:00	ND	ND	ND	ND	ND	ND	ND	ND	ND	ND	ND	ND
41923	2014-11-09T18:00:00	ND	ND	ND	ND	ND	ND	ND	ND	ND	ND	ND	ND
41924	2014-11-09T19:00:00	ND	ND	ND	ND	ND	ND	ND	ND	ND	ND	ND	ND
41925	2014-11-09T20:00:00	ND	ND	ND	ND	ND	ND	ND	ND	ND	ND	ND	ND
41926	2014-11-09T21:00:00	ND	ND	ND	ND	ND	ND	ND	ND	ND	ND	ND	ND
41927	2014-11-09T22:00:00	ND	ND	ND	ND	ND	ND	ND	ND	ND	ND	ND	ND
41928	2014-11-09T23:00:00	ND	ND	ND	ND	ND	ND	ND	ND	ND	ND	ND	ND
41929	2014-11-10T00:00:00	ND	ND	ND	ND	ND	ND	ND	ND	ND	ND	ND	ND
41930	2014-11-10T01:00:00	ND	ND	ND	ND	ND	ND	ND	ND	ND	ND	ND	ND
41931	2014-11-10T02:00:00	ND	ND	ND	ND	ND	ND	ND	ND	ND	ND	ND	ND
41932	2014-11-10T03:00:00	ND	ND	ND	ND	ND	ND	ND	ND	ND	ND	ND	ND
41933	2014-11-10T04:00:00	ND	ND	ND	ND	ND	ND	ND	ND	ND	ND	ND	ND
41934	2014-11-10T05:00:00	ND	ND	ND	ND	ND	ND	ND	ND	ND	ND	ND	ND
41935	2014-11-10T06:00:00	ND	ND	ND	ND	ND	ND	ND	ND	ND	ND	ND	ND
41936	2014-11-10T07:00:00	ND	ND	ND	ND	ND	ND	ND	ND	ND	ND	ND	ND
41937	2014-11-10T08:00:00	ND	ND	ND	ND	ND	ND	ND	ND	ND	ND	ND	ND
41938	2014-11-10T09:00:00	ND	ND	ND	ND	ND	ND	ND	ND	ND	ND	ND	ND
41939	2014-11-10T10:00:00	ND	ND	ND	ND	ND	ND	ND	ND	ND	ND	ND	ND
41940	2014-11-10T11:00:00	ND	ND	ND	ND	ND	ND	ND	ND	ND	ND	ND	ND
41941	2014-11-10T12:00:00	ND	ND	ND	ND	ND	ND	ND	ND	ND	ND	ND	ND
41942	2014-11-10T13:00:00	ND	ND	ND	ND	ND	ND	ND	ND	ND	ND	ND	ND
41943	2014-11-10T14:00:00	ND	ND	ND	ND	ND	ND	ND	ND	ND	ND	ND	ND
41944	2014-11-10T15:00:00	ND	ND	ND	ND	ND	ND	ND	ND	ND	ND	ND	ND
41945	2014-11-10T16:00:00	ND	ND	ND	ND	ND	ND	ND	ND	ND	ND	ND	ND
41946	2014-11-10T17:00:00	ND	ND	ND	ND	ND	ND	ND	ND	ND	ND	ND	ND
41947	2014-11-10T18:00:00	ND	ND	ND	ND	ND	ND	ND	ND	ND	ND	ND	ND
41948	2014-11-10T19:00:00	ND	ND	ND	ND	ND	ND	ND	ND	ND	ND	ND	ND
41949	2014-11-10T20:00:00	ND	ND	ND	ND	ND	ND	ND	ND	ND	ND	ND	ND
41950	2014-11-10T21:00:00	ND	ND	ND	ND	ND	ND	ND	ND	ND	ND	ND	ND
41951	2014-11-10T22:00:00	ND	ND	ND	ND	ND	ND	ND	ND	ND	ND	ND	ND
41952	2014-11-10T23:00:00	ND	ND	ND	ND	ND	ND	ND	ND	ND	ND	ND	ND
41953	2014-11-11T00:00:00	ND	ND	ND	ND	ND	ND	ND	ND	ND	ND	ND	ND
41954	2014-11-11T01:00:00	ND	ND	ND	ND	ND	ND	ND	ND	ND	ND	ND	ND
41955	2014-11-11T02:00:00	ND	ND	ND	ND	ND	ND	ND	ND	ND	ND	ND	ND
41956	2014-11-11T03:00:00	ND	ND	ND	ND	ND	ND	ND	ND	ND	ND	ND	ND
41957	2014-11-11T04:00:00	ND	ND	ND	ND	ND	ND	ND	ND	ND	ND	ND	ND
41958	2014-11-11T05:00:00	ND	ND	ND	ND	ND	ND	ND	ND	ND	ND	ND	ND
41959	2014-11-11T06:00:00	ND	ND	ND	ND	ND	ND	ND	ND	ND	ND	ND	ND
41960	2014-11-11T07:00:00	ND	ND	ND	ND	ND	ND	ND	ND	ND	ND	ND	ND
41961	2014-11-11T08:00:00	ND	ND	ND	ND	ND	ND	ND	ND	ND	ND	ND	ND
41962	2014-11-11T09:00:00	ND	ND	ND	ND	ND	ND	ND	ND	ND	ND	ND	ND
41963	2014-11-11T10:00:00	ND	ND	ND	ND	ND	ND	ND	ND	ND	ND	ND	ND
41964	2014-11-11T11:00:00	ND	ND	ND	ND	ND	ND	ND	ND	ND	ND	ND	ND
41965	2014-11-11T12:00:00	ND	ND	ND	ND	ND	ND	ND	ND	ND	ND	ND	ND
41966	2014-11-11T13:00:00	ND	ND	ND	ND	ND	ND	ND	ND	ND	ND	ND	ND
41967	2014-11-11T14:00:00	ND	ND	ND	ND	ND	ND	ND	ND	ND	ND	ND	ND
41968	2014-11-11T15:00:00	ND	ND	ND	ND	ND	ND	ND	ND	ND	ND	ND	ND
41969	2014-11-11T16:00:00	ND	ND	ND	ND	ND	ND	ND	ND	ND	ND	ND	ND
41970	2014-11-11T17:00:00	ND	ND	ND	ND	ND	ND	ND	ND	ND	ND	ND	ND
41971	2014-11-11T18:00:00	ND	ND	ND	ND	ND	ND	ND	ND	ND	ND	ND	ND
41972	2014-11-11T19:00:00	ND	ND	ND	ND	ND	ND	ND	ND	ND	ND	ND	ND
41973	2014-11-11T20:00:00	ND	ND	ND	ND	ND	ND	ND	ND	ND	ND	ND	ND
41974	2014-11-11T21:00:00	ND	ND	ND	ND	ND	ND	ND	ND	ND	ND	ND	ND
41975	2014-11-11T22:00:00	ND	ND	ND	ND	ND	ND	ND	ND	ND	ND	ND	ND
41976	2014-11-11T23:00:00	ND	ND	ND	ND	ND	ND	ND	ND	ND	ND	ND	ND
41977	2014-11-12T00:00:00	ND	ND	ND	ND	ND	ND	ND	ND	ND	ND	ND	ND
41978	2014-11-12T01:00:00	ND	ND	ND	ND	ND	ND	ND	ND	ND	ND	ND	ND
41979	2014-11-12T02:00:00	ND	ND	ND	ND	ND	ND	ND	ND	ND	ND	ND	ND
41980	2014-11-12T03:00:00	ND	ND	ND	ND	ND	ND	ND	ND	ND	ND	ND	ND
41981	2014-11-12T04:00:00	ND	ND	ND	ND	ND	ND	ND	ND	ND	ND	ND	ND
41982	2014-11-12T05:00:00	ND	ND	ND	ND	ND	ND	ND	ND	ND	ND	ND	ND
41983	2014-11-12T06:00:00	ND	ND	ND	ND	ND	ND	ND	ND	ND	ND	ND	ND
41984	2014-11-12T07:00:00	ND	ND	ND	ND	ND	ND	ND	ND	ND	ND	ND	ND
41985	2014-11-12T08:00:00	ND	ND	ND	ND	ND	ND	ND	ND	ND	ND	ND	ND
41986	2014-11-12T09:00:00	ND	ND	ND	ND	ND	ND	ND	ND	ND	ND	ND	ND
41987	2014-11-12T10:00:00	ND	ND	ND	ND	ND	ND	ND	ND	ND	ND	ND	ND
41988	2014-11-12T11:00:00	ND	ND	ND	ND	ND	ND	ND	ND	ND	ND	ND	ND
41989	2014-11-12T12:00:00	ND	ND	ND	ND	ND	ND	ND	ND	ND	ND	ND	ND
41990	2014-11-12T13:00:00	ND	ND	ND	ND	ND	ND	ND	ND	ND	ND	ND	ND
41991	2014-11-12T14:00:00	ND	ND	ND	ND	ND	ND	ND	ND	ND	ND	ND	ND
41992	2014-11-12T15:00:00	ND	ND	ND	ND	ND	ND	ND	ND	ND	ND	ND	ND
41993	2014-11-12T16:00:00	ND	ND	ND	ND	ND	ND	ND	ND	ND	ND	ND	ND
41994	2014-11-12T17:00:00	ND	ND	ND	ND	ND	ND	ND	ND	ND	ND	ND	ND
41995	2014-11-12T18:00:00	ND	ND	ND	ND	ND	ND	ND	ND	ND	ND	ND	ND
41996	2014-11-12T19:00:00	ND	ND	ND	ND	ND	ND	ND	ND	ND	ND	ND	ND
41997	2014-11-12T20:00:00	ND	ND	ND	ND	ND	ND	ND	ND	ND	ND	ND	ND
41998	2014-11-12T21:00:00	ND	ND	ND	ND	ND	ND	ND	ND	ND	ND	ND	ND
41999	2014-11-12T22:00:00	ND	ND	ND	ND	ND	ND	ND	ND	ND	ND	ND	ND
42000	2014-11-12T23:00:00	ND	ND	ND	ND	ND	ND	ND	ND	ND	ND	ND	ND
42001	2014-11-13T00:00:00	ND	ND	ND	ND	ND	ND	ND	ND	ND	ND	ND	ND
42002	2014-11-13T01:00:00	ND	ND	ND	ND	ND	ND	ND	ND	ND	ND	ND	ND
42003	2014-11-13T02:00:00	ND	ND	ND	ND	ND	ND	ND	ND	ND	ND	ND	ND
42004	2014-11-13T03:00:00	ND	ND	ND	ND	ND	ND	ND	ND	ND	ND	ND	ND
42005	2014-11-13T04:00:00	ND	ND	ND	ND	ND	ND	ND	ND	ND	ND	ND	ND
42006	2014-11-13T05:00:00	ND	ND	ND	ND	ND	ND	ND	ND	ND	ND	ND	ND
42007	2014-11-13T06:00:00	ND	ND	ND	ND	ND	ND	ND	ND	ND	ND	ND	ND
42008	2014-11-13T07:00:00	ND	ND	ND	ND	ND	ND	ND	ND	ND	ND	ND	ND
42009	2014-11-13T08:00:00	ND	ND	ND	ND	ND	ND	ND	ND	ND	ND	ND	ND
42010	2014-11-13T09:00:00	ND	ND	ND	ND	ND	ND	ND	ND	ND	ND	ND	ND
42011	2014-11-13T10:00:00	ND	ND	ND	ND	ND	ND	ND	ND	ND	ND	ND	ND
42012	2014-11-13T11:00:00	ND	ND	ND	ND	ND	ND	ND	ND	ND	ND	ND	ND
42013	2014-11-13T12:00:00	ND	ND	ND	ND	ND	ND	ND	ND	ND	ND	ND	ND
42014	2014-11-13T13:00:00	ND	ND	ND	ND	ND	ND	ND	ND	ND	ND	ND	ND
42015	2014-11-13T14:00:00	ND	ND	ND	ND	ND	ND	ND	ND	ND	ND	ND	ND
42016	2014-11-13T15:00:00	ND	ND	ND	ND	ND	ND	ND	ND	ND	ND	ND	ND
42017	2014-11-13T16:00:00	ND	ND	ND	ND	ND	ND	ND	ND	ND	ND	ND	ND
42018	2014-11-13T17:00:00	ND	ND	ND	ND	ND	ND	ND	ND	ND	ND	ND	ND
42019	2014-11-13T18:00:00	ND	ND	ND	ND	ND	ND	ND	ND	ND	ND	ND	ND
42020	2014-11-13T19:00:00	ND	ND	ND	ND	ND	ND	ND	ND	ND	ND	ND	ND
42021	2014-11-13T20:00:00	ND	ND	ND	ND	ND	ND	ND	ND	ND	ND	ND	ND
42022	2014-11-13T21:00:00	ND	ND	ND	ND	ND	ND	ND	ND	ND	ND	ND	ND
42023	2014-11-13T22:00:00	ND	ND	ND	ND	ND	ND	ND	ND	ND	ND	ND	ND
42024	2014-11-13T23:00:00	ND	ND	ND	ND	ND	ND	ND	ND	ND	ND	ND	ND
42025	2014-11-14T00:00:00	ND	ND	ND	ND	ND	ND	ND	ND	ND	ND	ND	ND
42026	2014-11-14T01:00:00	ND	ND	ND	ND	ND	ND	ND	ND	ND	ND	ND	ND
42027	2014-11-14T02:00:00	ND	ND	ND	ND	ND	ND	ND	ND	ND	ND	ND	ND
42028	2014-11-14T03:00:00	ND	ND	ND	ND	ND	ND	ND	ND	ND	ND	ND	ND
42029	2014-11-14T04:00:00	ND	ND	ND	ND	ND	ND	ND	ND	ND	ND	ND	ND
42030	2014-11-14T05:00:00	ND	ND	ND	ND	ND	ND	ND	ND	ND	ND	ND	ND
42031	2014-11-14T06:00:00	ND	ND	ND	ND	ND	ND	ND	ND	ND	ND	ND	ND
42032	2014-11-14T07:00:00	ND	ND	ND	ND	ND	ND	ND	ND	ND	ND	ND	ND
42033	2014-11-14T08:00:00	ND	ND	ND	ND	ND	ND	ND	ND	ND	ND	ND	ND
42034	2014-11-14T09:00:00	ND	ND	ND	ND	ND	ND	ND	ND	ND	ND	ND	ND
42035	2014-11-14T10:00:00	ND	ND	ND	ND	ND	ND	ND	ND	ND	ND	ND	ND
42036	2014-11-14T11:00:00	ND	ND	ND	ND	ND	ND	ND	ND	ND	ND	ND	ND
42037	2014-11-14T12:00:00	ND	ND	ND	ND	ND	ND	ND	ND	ND	ND	ND	ND
42038	2014-11-14T13:00:00	ND	ND	ND	ND	ND	ND	ND	ND	ND	ND	ND	ND
42039	2014-11-14T14:00:00	ND	ND	ND	ND	ND	ND	ND	ND	ND	ND	ND	ND
42040	2014-11-14T15:00:00	ND	ND	ND	ND	ND	ND	ND	ND	ND	ND	ND	ND
42041	2014-11-14T16:00:00	ND	ND	ND	ND	ND	ND	ND	ND	ND	ND	ND	ND
42042	2014-11-14T17:00:00	ND	ND	ND	ND	ND	ND	ND	ND	ND	ND	ND	ND
42043	2014-11-14T18:00:00	ND	ND	ND	ND	ND	ND	ND	ND	ND	ND	ND	ND
42044	2014-11-14T19:00:00	ND	ND	ND	ND	ND	ND	ND	ND	ND	ND	ND	ND
42045	2014-11-14T20:00:00	ND	ND	ND	ND	ND	ND	ND	ND	ND	ND	ND	ND
42046	2014-11-14T21:00:00	ND	ND	ND	ND	ND	ND	ND	ND	ND	ND	ND	ND
42047	2014-11-14T22:00:00	ND	ND	ND	ND	ND	ND	ND	ND	ND	ND	ND	ND
42048	2014-11-14T23:00:00	ND	ND	ND	ND	ND	ND	ND	ND	ND	ND	ND	ND
42049	2014-11-15T00:00:00	ND	ND	ND	ND	ND	ND	ND	ND	ND	ND	ND	ND
42050	2014-11-15T01:00:00	ND	ND	ND	ND	ND	ND	ND	ND	ND	ND	ND	ND
42051	2014-11-15T02:00:00	ND	ND	ND	ND	ND	ND	ND	ND	ND	ND	ND	ND
42052	2014-11-15T03:00:00	ND	ND	ND	ND	ND	ND	ND	ND	ND	ND	ND	ND
42053	2014-11-15T04:00:00	ND	ND	ND	ND	ND	ND	ND	ND	ND	ND	ND	ND
42054	2014-11-15T05:00:00	ND	ND	ND	ND	ND	ND	ND	ND	ND	ND	ND	ND
42055	2014-11-15T06:00:00	ND	ND	ND	ND	ND	ND	ND	ND	ND	ND	ND	ND
42056	2014-11-15T07:00:00	ND	ND	ND	ND	ND	ND	ND	ND	ND	ND	ND	ND
42057	2014-11-15T08:00:00	ND	ND	ND	ND	ND	ND	ND	ND	ND	ND	ND	ND
42058	2014-11-15T09:00:00	ND	ND	ND	ND	ND	ND	ND	ND	ND	ND	ND	ND
42059	2014-11-15T10:00:00	ND	ND	ND	ND	ND	ND	ND	ND	ND	ND	ND	ND
42060	2014-11-15T11:00:00	ND	ND	ND	ND	ND	ND	ND	ND	ND	ND	ND	ND
42061	2014-11-15T12:00:00	ND	ND	ND	ND	ND	ND	ND	ND	ND	ND	ND	ND
42062	2014-11-15T13:00:00	ND	ND	ND	ND	ND	ND	ND	ND	ND	ND	ND	ND
42063	2014-11-15T14:00:00	ND	ND	ND	ND	ND	ND	ND	ND	ND	ND	ND	ND
42064	2014-11-15T15:00:00	ND	ND	ND	ND	ND	ND	ND	ND	ND	ND	ND	ND
42065	2014-11-15T16:00:00	ND	ND	ND	ND	ND	ND	ND	ND	ND	ND	ND	ND
42066	2014-11-15T17:00:00	ND	ND	ND	ND	ND	ND	ND	ND	ND	ND	ND	ND
42067	2014-11-15T18:00:00	ND	ND	ND	ND	ND	ND	ND	ND	ND	ND	ND	ND
42068	2014-11-15T19:00:00	ND	ND	ND	ND	ND	ND	ND	ND	ND	ND	ND	ND
42069	2014-11-15T20:00:00	ND	ND	ND	ND	ND	ND	ND	ND	ND	ND	ND	ND
42070	2014-11-15T21:00:00	ND	ND	ND	ND	ND	ND	ND	ND	ND	ND	ND	ND
42071	2014-11-15T22:00:00	ND	ND	ND	ND	ND	ND	ND	ND	ND	ND	ND	ND
42072	2014-11-15T23:00:00	ND	ND	ND	ND	ND	ND	ND	ND	ND	ND	ND	ND
42073	2014-11-16T00:00:00	ND	ND	ND	ND	ND	ND	ND	ND	ND	ND	ND	ND
42074	2014-11-16T01:00:00	ND	ND	ND	ND	ND	ND	ND	ND	ND	ND	ND	ND
42075	2014-11-16T02:00:00	ND	ND	ND	ND	ND	ND	ND	ND	ND	ND	ND	ND
42076	2014-11-16T03:00:00	ND	ND	ND	ND	ND	ND	ND	ND	ND	ND	ND	ND
42077	2014-11-16T04:00:00	ND	ND	ND	ND	ND	ND	ND	ND	ND	ND	ND	ND
42078	2014-11-16T05:00:00	ND	ND	ND	ND	ND	ND	ND	ND	ND	ND	ND	ND
42079	2014-11-16T06:00:00	ND	ND	ND	ND	ND	ND	ND	ND	ND	ND	ND	ND
42080	2014-11-16T07:00:00	ND	ND	ND	ND	ND	ND	ND	ND	ND	ND	ND	ND
42081	2014-11-16T08:00:00	ND	ND	ND	ND	ND	ND	ND	ND	ND	ND	ND	ND
42082	2014-11-16T09:00:00	ND	ND	ND	ND	ND	ND	ND	ND	ND	ND	ND	ND
42083	2014-11-16T10:00:00	ND	ND	ND	ND	ND	ND	ND	ND	ND	ND	ND	ND
42084	2014-11-16T11:00:00	ND	ND	ND	ND	ND	ND	ND	ND	ND	ND	ND	ND
42085	2014-11-16T12:00:00	ND	ND	ND	ND	ND	ND	ND	ND	ND	ND	ND	ND
42086	2014-11-16T13:00:00	ND	ND	ND	ND	ND	ND	ND	ND	ND	ND	ND	ND
42087	2014-11-16T14:00:00	ND	ND	ND	ND	ND	ND	ND	ND	ND	ND	ND	ND
42088	2014-11-16T15:00:00	ND	ND	ND	ND	ND	ND	ND	ND	ND	ND	ND	ND
42089	2014-11-16T16:00:00	ND	ND	ND	ND	ND	ND	ND	ND	ND	ND	ND	ND
42090	2014-11-16T17:00:00	ND	ND	ND	ND	ND	ND	ND	ND	ND	ND	ND	ND
42091	2014-11-16T18:00:00	ND	ND	ND	ND	ND	ND	ND	ND	ND	ND	ND	ND
42092	2014-11-16T19:00:00	ND	ND	ND	ND	ND	ND	ND	ND	ND	ND	ND	ND
42093	2014-11-16T20:00:00	ND	ND	ND	ND	ND	ND	ND	ND	ND	ND	ND	ND
42094	2014-11-16T21:00:00	ND	ND	ND	ND	ND	ND	ND	ND	ND	ND	ND	ND
42095	2014-11-16T22:00:00	ND	ND	ND	ND	ND	ND	ND	ND	ND	ND	ND	ND
42096	2014-11-16T23:00:00	ND	ND	ND	ND	ND	ND	ND	ND	ND	ND	ND	ND
42097	2014-11-17T00:00:00	ND	ND	ND	ND	ND	ND	ND	ND	ND	ND	ND	ND
42098	2014-11-17T01:00:00	ND	ND	ND	ND	ND	ND	ND	ND	ND	ND	ND	ND
42099	2014-11-17T02:00:00	ND	ND	ND	ND	ND	ND	ND	ND	ND	ND	ND	ND
42100	2014-11-17T03:00:00	ND	ND	ND	ND	ND	ND	ND	ND	ND	ND	ND	ND
42101	2014-11-17T04:00:00	ND	ND	ND	ND	ND	ND	ND	ND	ND	ND	ND	ND
42102	2014-11-17T05:00:00	ND	ND	ND	ND	ND	ND	ND	ND	ND	ND	ND	ND
42103	2014-11-17T06:00:00	ND	ND	ND	ND	ND	ND	ND	ND	ND	ND	ND	ND
42104	2014-11-17T07:00:00	ND	ND	ND	ND	ND	ND	ND	ND	ND	ND	ND	ND
42105	2014-11-17T08:00:00	ND	ND	ND	ND	ND	ND	ND	ND	ND	ND	ND	ND
42106	2014-11-17T09:00:00	ND	ND	ND	ND	ND	ND	ND	ND	ND	ND	ND	ND
42107	2014-11-17T10:00:00	ND	ND	ND	ND	ND	ND	ND	ND	ND	ND	ND	ND
42108	2014-11-17T11:00:00	ND	ND	ND	ND	ND	ND	ND	ND	ND	ND	ND	ND
42109	2014-11-17T12:00:00	ND	ND	ND	ND	ND	ND	ND	ND	ND	ND	ND	ND
42110	2014-11-17T13:00:00	ND	ND	ND	ND	ND	ND	ND	ND	ND	ND	ND	ND
42111	2014-11-17T14:00:00	ND	ND	ND	ND	ND	ND	ND	ND	ND	ND	ND	ND
42112	2014-11-17T15:00:00	ND	ND	ND	ND	ND	ND	ND	ND	ND	ND	ND	ND
42113	2014-11-17T16:00:00	ND	ND	ND	ND	ND	ND	ND	ND	ND	ND	ND	ND
42114	2014-11-17T17:00:00	ND	ND	ND	ND	ND	ND	ND	ND	ND	ND	ND	ND
42115	2014-11-17T18:00:00	ND	ND	ND	ND	ND	ND	ND	ND	ND	ND	ND	ND
42116	2014-11-17T19:00:00	ND	ND	ND	ND	ND	ND	ND	ND	ND	ND	ND	ND
42117	2014-11-17T20:00:00	ND	ND	ND	ND	ND	ND	ND	ND	ND	ND	ND	ND
42118	2014-11-17T21:00:00	ND	ND	ND	ND	ND	ND	ND	ND	ND	ND	ND	ND
42119	2014-11-17T22:00:00	ND	ND	ND	ND	ND	ND	ND	ND	ND	ND	ND	ND
42120	2014-11-17T23:00:00	ND	ND	ND	ND	ND	ND	ND	ND	ND	ND	ND	ND
42121	2014-11-18T00:00:00	ND	ND	ND	ND	ND	ND	ND	ND	ND	ND	ND	ND
42122	2014-11-18T01:00:00	ND	ND	ND	ND	ND	ND	ND	ND	ND	ND	ND	ND
42123	2014-11-18T02:00:00	ND	ND	ND	ND	ND	ND	ND	ND	ND	ND	ND	ND
42124	2014-11-18T03:00:00	ND	ND	ND	ND	ND	ND	ND	ND	ND	ND	ND	ND
42125	2014-11-18T04:00:00	ND	ND	ND	ND	ND	ND	ND	ND	ND	ND	ND	ND
42126	2014-11-18T05:00:00	ND	ND	ND	ND	ND	ND	ND	ND	ND	ND	ND	ND
42127	2014-11-18T06:00:00	ND	ND	ND	ND	ND	ND	ND	ND	ND	ND	ND	ND
42128	2014-11-18T07:00:00	ND	ND	ND	ND	ND	ND	ND	ND	ND	ND	ND	ND
42129	2014-11-18T08:00:00	ND	ND	ND	ND	ND	ND	ND	ND	ND	ND	ND	ND
42130	2014-11-18T09:00:00	ND	ND	ND	ND	ND	ND	ND	ND	ND	ND	ND	ND
42131	2014-11-18T10:00:00	ND	ND	ND	ND	ND	ND	ND	ND	ND	ND	ND	ND
42132	2014-11-18T11:00:00	ND	ND	ND	ND	ND	ND	ND	ND	ND	ND	ND	ND
42133	2014-11-18T12:00:00	ND	ND	ND	ND	ND	ND	ND	ND	ND	ND	ND	ND
42134	2014-11-18T13:00:00	ND	ND	ND	ND	ND	ND	ND	ND	ND	ND	ND	ND
42135	2014-11-18T14:00:00	ND	ND	ND	ND	ND	ND	ND	ND	ND	ND	ND	ND
42136	2014-11-18T15:00:00	ND	ND	ND	ND	ND	ND	ND	ND	ND	ND	ND	ND
42137	2014-11-18T16:00:00	ND	ND	ND	ND	ND	ND	ND	ND	ND	ND	ND	ND
42138	2014-11-18T17:00:00	ND	ND	ND	ND	ND	ND	ND	ND	ND	ND	ND	ND
42139	2014-11-18T18:00:00	ND	ND	ND	ND	ND	ND	ND	ND	ND	ND	ND	ND
42140	2014-11-18T19:00:00	ND	ND	ND	ND	ND	ND	ND	ND	ND	ND	ND	ND
42141	2014-11-18T20:00:00	ND	ND	ND	ND	ND	ND	ND	ND	ND	ND	ND	ND
42142	2014-11-18T21:00:00	ND	ND	ND	ND	ND	ND	ND	ND	ND	ND	ND	ND
42143	2014-11-18T22:00:00	ND	ND	ND	ND	ND	ND	ND	ND	ND	ND	ND	ND
42144	2014-11-18T23:00:00	ND	ND	ND	ND	ND	ND	ND	ND	ND	ND	ND	ND
42145	2014-11-19T00:00:00	ND	ND	ND	ND	ND	ND	ND	ND	ND	ND	ND	ND
42146	2014-11-19T01:00:00	ND	ND	ND	ND	ND	ND	ND	ND	ND	ND	ND	ND
42147	2014-11-19T02:00:00	ND	ND	ND	ND	ND	ND	ND	ND	ND	ND	ND	ND
42148	2014-11-19T03:00:00	ND	ND	ND	ND	ND	ND	ND	ND	ND	ND	ND	ND
42149	2014-11-19T04:00:00	ND	ND	ND	ND	ND	ND	ND	ND	ND	ND	ND	ND
42150	2014-11-19T05:00:00	ND	ND	ND	ND	ND	ND	ND	ND	ND	ND	ND	ND
42151	2014-11-19T06:00:00	ND	ND	ND	ND	ND	ND	ND	ND	ND	ND	ND	ND
42152	2014-11-19T07:00:00	ND	ND	ND	ND	ND	ND	ND	ND	ND	ND	ND	ND
42153	2014-11-19T08:00:00	ND	ND	ND	ND	ND	ND	ND	ND	ND	ND	ND	ND
42154	2014-11-19T09:00:00	ND	ND	ND	ND	ND	ND	ND	ND	ND	ND	ND	ND
42155	2014-11-19T10:00:00	ND	ND	ND	ND	ND	ND	ND	ND	ND	ND	ND	ND
42156	2014-11-19T11:00:00	ND	ND	ND	ND	ND	ND	ND	ND	ND	ND	ND	ND
42157	2014-11-19T12:00:00	ND	ND	ND	ND	ND	ND	ND	ND	ND	ND	ND	ND
42158	2014-11-19T13:00:00	ND	ND	ND	ND	ND	ND	ND	ND	ND	ND	ND	ND
42159	2014-11-19T14:00:00	ND	ND	ND	ND	ND	ND	ND	ND	ND	ND	ND	ND
42160	2014-11-19T15:00:00	ND	ND	ND	ND	ND	ND	ND	ND	ND	ND	ND	ND
42161	2014-11-19T16:00:00	ND	ND	ND	ND	ND	ND	ND	ND	ND	ND	ND	ND
42162	2014-11-19T17:00:00	ND	ND	ND	ND	ND	ND	ND	ND	ND	ND	ND	ND
42163	2014-11-19T18:00:00	ND	ND	ND	ND	ND	ND	ND	ND	ND	ND	ND	ND
42164	2014-11-19T19:00:00	ND	ND	ND	ND	ND	ND	ND	ND	ND	ND	ND	ND
42165	2014-11-19T20:00:00	ND	ND	ND	ND	ND	ND	ND	ND	ND	ND	ND	ND
42166	2014-11-19T21:00:00	ND	ND	ND	ND	ND	ND	ND	ND	ND	ND	ND	ND
42167	2014-11-19T22:00:00	ND	ND	ND	ND	ND	ND	ND	ND	ND	ND	ND	ND
42168	2014-11-19T23:00:00	ND	ND	ND	ND	ND	ND	ND	ND	ND	ND	ND	ND
42169	2014-11-20T00:00:00	ND	ND	ND	ND	ND	ND	ND	ND	ND	ND	ND	ND
42170	2014-11-20T01:00:00	ND	ND	ND	ND	ND	ND	ND	ND	ND	ND	ND	ND
42171	2014-11-20T02:00:00	ND	ND	ND	ND	ND	ND	ND	ND	ND	ND	ND	ND
42172	2014-11-20T03:00:00	ND	ND	ND	ND	ND	ND	ND	ND	ND	ND	ND	ND
42173	2014-11-20T04:00:00	ND	ND	ND	ND	ND	ND	ND	ND	ND	ND	ND	ND
42174	2014-11-20T05:00:00	ND	ND	ND	ND	ND	ND	ND	ND	ND	ND	ND	ND
42175	2014-11-20T06:00:00	ND	ND	ND	ND	ND	ND	ND	ND	ND	ND	ND	ND
42176	2014-11-20T07:00:00	ND	ND	ND	ND	ND	ND	ND	ND	ND	ND	ND	ND
42177	2014-11-20T08:00:00	ND	ND	ND	ND	ND	ND	ND	ND	ND	ND	ND	ND
42178	2014-11-20T09:00:00	ND	ND	ND	ND	ND	ND	ND	ND	ND	ND	ND	ND
42179	2014-11-20T10:00:00	ND	ND	ND	ND	ND	ND	ND	ND	ND	ND	ND	ND
42180	2014-11-20T11:00:00	ND	ND	ND	ND	ND	ND	ND	ND	ND	ND	ND	ND
42181	2014-11-20T12:00:00	ND	ND	ND	ND	ND	ND	ND	ND	ND	ND	ND	ND
42182	2014-11-20T13:00:00	ND	ND	ND	ND	ND	ND	ND	ND	ND	ND	ND	ND
42183	2014-11-20T14:00:00	ND	ND	ND	ND	ND	ND	ND	ND	ND	ND	ND	ND
42184	2014-11-20T15:00:00	ND	ND	ND	ND	ND	ND	ND	ND	ND	ND	ND	ND
42185	2014-11-20T16:00:00	ND	ND	ND	ND	ND	ND	ND	ND	ND	ND	ND	ND
42186	2014-11-20T17:00:00	ND	ND	ND	ND	ND	ND	ND	ND	ND	ND	ND	ND
42187	2014-11-20T18:00:00	ND	ND	ND	ND	ND	ND	ND	ND	ND	ND	ND	ND
42188	2014-11-20T19:00:00	ND	ND	ND	ND	ND	ND	ND	ND	ND	ND	ND	ND
42189	2014-11-20T20:00:00	ND	ND	ND	ND	ND	ND	ND	ND	ND	ND	ND	ND
42190	2014-11-20T21:00:00	ND	ND	ND	ND	ND	ND	ND	ND	ND	ND	ND	ND
42191	2014-11-20T22:00:00	ND	ND	ND	ND	ND	ND	ND	ND	ND	ND	ND	ND
42192	2014-11-20T23:00:00	ND	ND	ND	ND	ND	ND	ND	ND	ND	ND	ND	ND
42193	2014-11-21T00:00:00	ND	ND	ND	ND	ND	ND	ND	ND	ND	ND	ND	ND
42194	2014-11-21T01:00:00	ND	ND	ND	ND	ND	ND	ND	ND	ND	ND	ND	ND
42195	2014-11-21T02:00:00	ND	ND	ND	ND	ND	ND	ND	ND	ND	ND	ND	ND
42196	2014-11-21T03:00:00	ND	ND	ND	ND	ND	ND	ND	ND	ND	ND	ND	ND
42197	2014-11-21T04:00:00	ND	ND	ND	ND	ND	ND	ND	ND	ND	ND	ND	ND
42198	2014-11-21T05:00:00	ND	ND	ND	ND	ND	ND	ND	ND	ND	ND	ND	ND
42199	2014-11-21T06:00:00	ND	ND	ND	ND	ND	ND	ND	ND	ND	ND	ND	ND
42200	2014-11-21T07:00:00	ND	ND	ND	ND	ND	ND	ND	ND	ND	ND	ND	ND
42201	2014-11-21T08:00:00	ND	ND	ND	ND	ND	ND	ND	ND	ND	ND	ND	ND
42202	2014-11-21T09:00:00	ND	ND	ND	ND	ND	ND	ND	ND	ND	ND	ND	ND
42203	2014-11-21T10:00:00	ND	ND	ND	ND	ND	ND	ND	ND	ND	ND	ND	ND
42204	2014-11-21T11:00:00	ND	ND	ND	ND	ND	ND	ND	ND	ND	ND	ND	ND
42205	2014-11-21T12:00:00	ND	ND	ND	ND	ND	ND	ND	ND	ND	ND	ND	ND
42206	2014-11-21T13:00:00	ND	ND	ND	ND	ND	ND	ND	ND	ND	ND	ND	ND
42207	2014-11-21T14:00:00	ND	ND	ND	ND	ND	ND	ND	ND	ND	ND	ND	ND
42208	2014-11-21T15:00:00	ND	ND	ND	ND	ND	ND	ND	ND	ND	ND	ND	ND
42209	2014-11-21T16:00:00	ND	ND	ND	ND	ND	ND	ND	ND	ND	ND	ND	ND
42210	2014-11-21T17:00:00	ND	ND	ND	ND	ND	ND	ND	ND	ND	ND	ND	ND
42211	2014-11-21T18:00:00	ND	ND	ND	ND	ND	ND	ND	ND	ND	ND	ND	ND
42212	2014-11-21T19:00:00	ND	ND	ND	ND	ND	ND	ND	ND	ND	ND	ND	ND
42213	2014-11-21T20:00:00	ND	ND	ND	ND	ND	ND	ND	ND	ND	ND	ND	ND
42214	2014-11-21T21:00:00	ND	ND	ND	ND	ND	ND	ND	ND	ND	ND	ND	ND
42215	2014-11-21T22:00:00	ND	ND	ND	ND	ND	ND	ND	ND	ND	ND	ND	ND
42216	2014-11-21T23:00:00	ND	ND	ND	ND	ND	ND	ND	ND	ND	ND	ND	ND
42217	2014-11-22T00:00:00	ND	ND	ND	ND	ND	ND	ND	ND	ND	ND	ND	ND
42218	2014-11-22T01:00:00	ND	ND	ND	ND	ND	ND	ND	ND	ND	ND	ND	ND
42219	2014-11-22T02:00:00	ND	ND	ND	ND	ND	ND	ND	ND	ND	ND	ND	ND
42220	2014-11-22T03:00:00	ND	ND	ND	ND	ND	ND	ND	ND	ND	ND	ND	ND
42221	2014-11-22T04:00:00	ND	ND	ND	ND	ND	ND	ND	ND	ND	ND	ND	ND
42222	2014-11-22T05:00:00	ND	ND	ND	ND	ND	ND	ND	ND	ND	ND	ND	ND
42223	2014-11-22T06:00:00	ND	ND	ND	ND	ND	ND	ND	ND	ND	ND	ND	ND
42224	2014-11-22T07:00:00	ND	ND	ND	ND	ND	ND	ND	ND	ND	ND	ND	ND
42225	2014-11-22T08:00:00	ND	ND	ND	ND	ND	ND	ND	ND	ND	ND	ND	ND
42226	2014-11-22T09:00:00	ND	ND	ND	ND	ND	ND	ND	ND	ND	ND	ND	ND
42227	2014-11-22T10:00:00	ND	ND	ND	ND	ND	ND	ND	ND	ND	ND	ND	ND
42228	2014-11-22T11:00:00	ND	ND	ND	ND	ND	ND	ND	ND	ND	ND	ND	ND
42229	2014-11-22T12:00:00	ND	ND	ND	ND	ND	ND	ND	ND	ND	ND	ND	ND
42230	2014-11-22T13:00:00	ND	ND	ND	ND	ND	ND	ND	ND	ND	ND	ND	ND
42231	2014-11-22T14:00:00	ND	ND	ND	ND	ND	ND	ND	ND	ND	ND	ND	ND
42232	2014-11-22T15:00:00	ND	ND	ND	ND	ND	ND	ND	ND	ND	ND	ND	ND
42233	2014-11-22T16:00:00	ND	ND	ND	ND	ND	ND	ND	ND	ND	ND	ND	ND
42234	2014-11-22T17:00:00	ND	ND	ND	ND	ND	ND	ND	ND	ND	ND	ND	ND
42235	2014-11-22T18:00:00	ND	ND	ND	ND	ND	ND	ND	ND	ND	ND	ND	ND
42236	2014-11-22T19:00:00	ND	ND	ND	ND	ND	ND	ND	ND	ND	ND	ND	ND
42237	2014-11-22T20:00:00	ND	ND	ND	ND	ND	ND	ND	ND	ND	ND	ND	ND
42238	2014-11-22T21:00:00	ND	ND	ND	ND	ND	ND	ND	ND	ND	ND	ND	ND
42239	2014-11-22T22:00:00	ND	ND	ND	ND	ND	ND	ND	ND	ND	ND	ND	ND
42240	2014-11-22T23:00:00	ND	ND	ND	ND	ND	ND	ND	ND	ND	ND	ND	ND
42241	2014-11-23T00:00:00	ND	ND	ND	ND	ND	ND	ND	ND	ND	ND	ND	ND
42242	2014-11-23T01:00:00	ND	ND	ND	ND	ND	ND	ND	ND	ND	ND	ND	ND
42243	2014-11-23T02:00:00	ND	ND	ND	ND	ND	ND	ND	ND	ND	ND	ND	ND
42244	2014-11-23T03:00:00	ND	ND	ND	ND	ND	ND	ND	ND	ND	ND	ND	ND
42245	2014-11-23T04:00:00	ND	ND	ND	ND	ND	ND	ND	ND	ND	ND	ND	ND
42246	2014-11-23T05:00:00	ND	ND	ND	ND	ND	ND	ND	ND	ND	ND	ND	ND
42247	2014-11-23T06:00:00	ND	ND	ND	ND	ND	ND	ND	ND	ND	ND	ND	ND
42248	2014-11-23T07:00:00	ND	ND	ND	ND	ND	ND	ND	ND	ND	ND	ND	ND
42249	2014-11-23T08:00:00	ND	ND	ND	ND	ND	ND	ND	ND	ND	ND	ND	ND
42250	2014-11-23T09:00:00	ND	ND	ND	ND	ND	ND	ND	ND	ND	ND	ND	ND
42251	2014-11-23T10:00:00	ND	ND	ND	ND	ND	ND	ND	ND	ND	ND	ND	ND
42252	2014-11-23T11:00:00	ND	ND	ND	ND	ND	ND	ND	ND	ND	ND	ND	ND
42253	2014-11-23T12:00:00	ND	ND	ND	ND	ND	ND	ND	ND	ND	ND	ND	ND
42254	2014-11-23T13:00:00	ND	ND	ND	ND	ND	ND	ND	ND	ND	ND	ND	ND
42255	2014-11-23T14:00:00	ND	ND	ND	ND	ND	ND	ND	ND	ND	ND	ND	ND
42256	2014-11-23T15:00:00	ND	ND	ND	ND	ND	ND	ND	ND	ND	ND	ND	ND
42257	2014-11-23T16:00:00	ND	ND	ND	ND	ND	ND	ND	ND	ND	ND	ND	ND
42258	2014-11-23T17:00:00	ND	ND	ND	ND	ND	ND	ND	ND	ND	ND	ND	ND
42259	2014-11-23T18:00:00	ND	ND	ND	ND	ND	ND	ND	ND	ND	ND	ND	ND
42260	2014-11-23T19:00:00	ND	ND	ND	ND	ND	ND	ND	ND	ND	ND	ND	ND
42261	2014-11-23T20:00:00	ND	ND	ND	ND	ND	ND	ND	ND	ND	ND	ND	ND
42262	2014-11-23T21:00:00	ND	ND	ND	ND	ND	ND	ND	ND	ND	ND	ND	ND
42263	2014-11-23T22:00:00	ND	ND	ND	ND	ND	ND	ND	ND	ND	ND	ND	ND
42264	2014-11-23T23:00:00	ND	ND	ND	ND	ND	ND	ND	ND	ND	ND	ND	ND
42265	2014-11-24T00:00:00	ND	ND	ND	ND	ND	ND	ND	ND	ND	ND	ND	ND
42266	2014-11-24T01:00:00	ND	ND	ND	ND	ND	ND	ND	ND	ND	ND	ND	ND
42267	2014-11-24T02:00:00	ND	ND	ND	ND	ND	ND	ND	ND	ND	ND	ND	ND
42268	2014-11-24T03:00:00	ND	ND	ND	ND	ND	ND	ND	ND	ND	ND	ND	ND
42269	2014-11-24T04:00:00	ND	ND	ND	ND	ND	ND	ND	ND	ND	ND	ND	ND
42270	2014-11-24T05:00:00	ND	ND	ND	ND	ND	ND	ND	ND	ND	ND	ND	ND
42271	2014-11-24T06:00:00	ND	ND	ND	ND	ND	ND	ND	ND	ND	ND	ND	ND
42272	2014-11-24T07:00:00	ND	ND	ND	ND	ND	ND	ND	ND	ND	ND	ND	ND
42273	2014-11-24T08:00:00	ND	ND	ND	ND	ND	ND	ND	ND	ND	ND	ND	ND
42274	2014-11-24T09:00:00	ND	ND	ND	ND	ND	ND	ND	ND	ND	ND	ND	ND
42275	2014-11-24T10:00:00	ND	ND	ND	ND	ND	ND	ND	ND	ND	ND	ND	ND
42276	2014-11-24T11:00:00	ND	ND	ND	ND	ND	ND	ND	ND	ND	ND	ND	ND
42277	2014-11-24T12:00:00	ND	ND	ND	ND	ND	ND	ND	ND	ND	ND	ND	ND
42278	2014-11-24T13:00:00	ND	ND	ND	ND	ND	ND	ND	ND	ND	ND	ND	ND
42279	2014-11-24T14:00:00	ND	ND	ND	ND	ND	ND	ND	ND	ND	ND	ND	ND
42280	2014-11-24T15:00:00	ND	ND	ND	ND	ND	ND	ND	ND	ND	ND	ND	ND
42281	2014-11-24T16:00:00	ND	ND	ND	ND	ND	ND	ND	ND	ND	ND	ND	ND
42282	2014-11-24T17:00:00	ND	ND	ND	ND	ND	ND	ND	ND	ND	ND	ND	ND
42283	2014-11-24T18:00:00	ND	ND	ND	ND	ND	ND	ND	ND	ND	ND	ND	ND
42284	2014-11-24T19:00:00	ND	ND	ND	ND	ND	ND	ND	ND	ND	ND	ND	ND
42285	2014-11-24T20:00:00	ND	ND	ND	ND	ND	ND	ND	ND	ND	ND	ND	ND
42286	2014-11-24T21:00:00	ND	ND	ND	ND	ND	ND	ND	ND	ND	ND	ND	ND
42287	2014-11-24T22:00:00	ND	ND	ND	ND	ND	ND	ND	ND	ND	ND	ND	ND
42288	2014-11-24T23:00:00	ND	ND	ND	ND	ND	ND	ND	ND	ND	ND	ND	ND
42289	2014-11-25T00:00:00	ND	ND	ND	ND	ND	ND	ND	ND	ND	ND	ND	ND
42290	2014-11-25T01:00:00	ND	ND	ND	ND	ND	ND	ND	ND	ND	ND	ND	ND
42291	2014-11-25T02:00:00	ND	ND	ND	ND	ND	ND	ND	ND	ND	ND	ND	ND
42292	2014-11-25T03:00:00	ND	ND	ND	ND	ND	ND	ND	ND	ND	ND	ND	ND
42293	2014-11-25T04:00:00	ND	ND	ND	ND	ND	ND	ND	ND	ND	ND	ND	ND
42294	2014-11-25T05:00:00	ND	ND	ND	ND	ND	ND	ND	ND	ND	ND	ND	ND
42295	2014-11-25T06:00:00	ND	ND	ND	ND	ND	ND	ND	ND	ND	ND	ND	ND
42296	2014-11-25T07:00:00	ND	ND	ND	ND	ND	ND	ND	ND	ND	ND	ND	ND
42297	2014-11-25T08:00:00	ND	ND	ND	ND	ND	ND	ND	ND	ND	ND	ND	ND
42298	2014-11-25T09:00:00	ND	ND	ND	ND	ND	ND	ND	ND	ND	ND	ND	ND
42299	2014-11-25T10:00:00	ND	ND	ND	ND	ND	ND	ND	ND	ND	ND	ND	ND
42300	2014-11-25T11:00:00	ND	ND	ND	ND	ND	ND	ND	ND	ND	ND	ND	ND
42301	2014-11-25T12:00:00	ND	ND	ND	ND	ND	ND	ND	ND	ND	ND	ND	ND
42302	2014-11-25T13:00:00	ND	ND	ND	ND	ND	ND	ND	ND	ND	ND	ND	ND
42303	2014-11-25T14:00:00	ND	ND	ND	ND	ND	ND	ND	ND	ND	ND	ND	ND
42304	2014-11-25T15:00:00	ND	ND	ND	ND	ND	ND	ND	ND	ND	ND	ND	ND
42305	2014-11-25T16:00:00	ND	ND	ND	ND	ND	ND	ND	ND	ND	ND	ND	ND
42306	2014-11-25T17:00:00	ND	ND	ND	ND	ND	ND	ND	ND	ND	ND	ND	ND
42307	2014-11-25T18:00:00	ND	ND	ND	ND	ND	ND	ND	ND	ND	ND	ND	ND
42308	2014-11-25T19:00:00	ND	ND	ND	ND	ND	ND	ND	ND	ND	ND	ND	ND
42309	2014-11-25T20:00:00	ND	ND	ND	ND	ND	ND	ND	ND	ND	ND	ND	ND
42310	2014-11-25T21:00:00	ND	ND	ND	ND	ND	ND	ND	ND	ND	ND	ND	ND
42311	2014-11-25T22:00:00	ND	ND	ND	ND	ND	ND	ND	ND	ND	ND	ND	ND
42312	2014-11-25T23:00:00	ND	ND	ND	ND	ND	ND	ND	ND	ND	ND	ND	ND
42313	2014-11-26T00:00:00	ND	ND	ND	ND	ND	ND	ND	ND	ND	ND	ND	ND
42314	2014-11-26T01:00:00	ND	ND	ND	ND	ND	ND	ND	ND	ND	ND	ND	ND
42315	2014-11-26T02:00:00	ND	ND	ND	ND	ND	ND	ND	ND	ND	ND	ND	ND
42316	2014-11-26T03:00:00	ND	ND	ND	ND	ND	ND	ND	ND	ND	ND	ND	ND
42317	2014-11-26T04:00:00	ND	ND	ND	ND	ND	ND	ND	ND	ND	ND	ND	ND
42318	2014-11-26T05:00:00	ND	ND	ND	ND	ND	ND	ND	ND	ND	ND	ND	ND
42319	2014-11-26T06:00:00	ND	ND	ND	ND	ND	ND	ND	ND	ND	ND	ND	ND
42320	2014-11-26T07:00:00	ND	ND	ND	ND	ND	ND	ND	ND	ND	ND	ND	ND
42321	2014-11-26T08:00:00	ND	ND	ND	ND	ND	ND	ND	ND	ND	ND	ND	ND
42322	2014-11-26T09:00:00	ND	ND	ND	ND	ND	ND	ND	ND	ND	ND	ND	ND
42323	2014-11-26T10:00:00	ND	ND	ND	ND	ND	ND	ND	ND	ND	ND	ND	ND
42324	2014-11-26T11:00:00	ND	ND	ND	ND	ND	ND	ND	ND	ND	ND	ND	ND
42325	2014-11-26T12:00:00	ND	ND	ND	ND	ND	ND	ND	ND	ND	ND	ND	ND
42326	2014-11-26T13:00:00	ND	ND	ND	ND	ND	ND	ND	ND	ND	ND	ND	ND
42327	2014-11-26T14:00:00	ND	ND	ND	ND	ND	ND	ND	ND	ND	ND	ND	ND
42328	2014-11-26T15:00:00	ND	ND	ND	ND	ND	ND	ND	ND	ND	ND	ND	ND
42329	2014-11-26T16:00:00	ND	ND	ND	ND	ND	ND	ND	ND	ND	ND	ND	ND
42330	2014-11-26T17:00:00	ND	ND	ND	ND	ND	ND	ND	ND	ND	ND	ND	ND
42331	2014-11-26T18:00:00	ND	ND	ND	ND	ND	ND	ND	ND	ND	ND	ND	ND
42332	2014-11-26T19:00:00	ND	ND	ND	ND	ND	ND	ND	ND	ND	ND	ND	ND
42333	2014-11-26T20:00:00	ND	ND	ND	ND	ND	ND	ND	ND	ND	ND	ND	ND
42334	2014-11-26T21:00:00	ND	ND	ND	ND	ND	ND	ND	ND	ND	ND	ND	ND
42335	2014-11-26T22:00:00	ND	ND	ND	ND	ND	ND	ND	ND	ND	ND	ND	ND
42336	2014-11-26T23:00:00	ND	ND	ND	ND	ND	ND	ND	ND	ND	ND	ND	ND
42337	2014-11-27T00:00:00	ND	ND	ND	ND	ND	ND	ND	ND	ND	ND	ND	ND
42338	2014-11-27T01:00:00	ND	ND	ND	ND	ND	ND	ND	ND	ND	ND	ND	ND
42339	2014-11-27T02:00:00	ND	ND	ND	ND	ND	ND	ND	ND	ND	ND	ND	ND
42340	2014-11-27T03:00:00	ND	ND	ND	ND	ND	ND	ND	ND	ND	ND	ND	ND
42341	2014-11-27T04:00:00	ND	ND	ND	ND	ND	ND	ND	ND	ND	ND	ND	ND
42342	2014-11-27T05:00:00	ND	ND	ND	ND	ND	ND	ND	ND	ND	ND	ND	ND
42343	2014-11-27T06:00:00	ND	ND	ND	ND	ND	ND	ND	ND	ND	ND	ND	ND
42344	2014-11-27T07:00:00	ND	ND	ND	ND	ND	ND	ND	ND	ND	ND	ND	ND
42345	2014-11-27T08:00:00	ND	ND	ND	ND	ND	ND	ND	ND	ND	ND	ND	ND
42346	2014-11-27T09:00:00	ND	ND	ND	ND	ND	ND	ND	ND	ND	ND	ND	ND
42347	2014-11-27T10:00:00	ND	ND	ND	ND	ND	ND	ND	ND	ND	ND	ND	ND
42348	2014-11-27T11:00:00	ND	ND	ND	ND	ND	ND	ND	ND	ND	ND	ND	ND
42349	2014-11-27T12:00:00	ND	ND	ND	ND	ND	ND	ND	ND	ND	ND	ND	ND
42350	2014-11-27T13:00:00	ND	ND	ND	ND	ND	ND	ND	ND	ND	ND	ND	ND
42351	2014-11-27T14:00:00	ND	ND	ND	ND	ND	ND	ND	ND	ND	ND	ND	ND
42352	2014-11-27T15:00:00	ND	ND	ND	ND	ND	ND	ND	ND	ND	ND	ND	ND
42353	2014-11-27T16:00:00	ND	ND	ND	ND	ND	ND	ND	ND	ND	ND	ND	ND
42354	2014-11-27T17:00:00	ND	ND	ND	ND	ND	ND	ND	ND	ND	ND	ND	ND
42355	2014-11-27T18:00:00	ND	ND	ND	ND	ND	ND	ND	ND	ND	ND	ND	ND
42356	2014-11-27T19:00:00	ND	ND	ND	ND	ND	ND	ND	ND	ND	ND	ND	ND
42357	2014-11-27T20:00:00	ND	ND	ND	ND	ND	ND	ND	ND	ND	ND	ND	ND
42358	2014-11-27T21:00:00	ND	ND	ND	ND	ND	ND	ND	ND	ND	ND	ND	ND
42359	2014-11-27T22:00:00	ND	ND	ND	ND	ND	ND	ND	ND	ND	ND	ND	ND
42360	2014-11-27T23:00:00	ND	ND	ND	ND	ND	ND	ND	ND	ND	ND	ND	ND
42361	2014-11-28T00:00:00	ND	ND	ND	ND	ND	ND	ND	ND	ND	ND	ND	ND
42362	2014-11-28T01:00:00	ND	ND	ND	ND	ND	ND	ND	ND	ND	ND	ND	ND
42363	2014-11-28T02:00:00	ND	ND	ND	ND	ND	ND	ND	ND	ND	ND	ND	ND
42364	2014-11-28T03:00:00	ND	ND	ND	ND	ND	ND	ND	ND	ND	ND	ND	ND
42365	2014-11-28T04:00:00	ND	ND	ND	ND	ND	ND	ND	ND	ND	ND	ND	ND
42366	2014-11-28T05:00:00	ND	ND	ND	ND	ND	ND	ND	ND	ND	ND	ND	ND
42367	2014-11-28T06:00:00	ND	ND	ND	ND	ND	ND	ND	ND	ND	ND	ND	ND
42368	2014-11-28T07:00:00	ND	ND	ND	ND	ND	ND	ND	ND	ND	ND	ND	ND
42369	2014-11-28T08:00:00	ND	ND	ND	ND	ND	ND	ND	ND	ND	ND	ND	ND
42370	2014-11-28T09:00:00	ND	ND	ND	ND	ND	ND	ND	ND	ND	ND	ND	ND
42371	2014-11-28T10:00:00	ND	ND	ND	ND	ND	ND	ND	ND	ND	ND	ND	ND
42372	2014-11-28T11:00:00	ND	ND	ND	ND	ND	ND	ND	ND	ND	ND	ND	ND
42373	2014-11-28T12:00:00	ND	ND	ND	ND	ND	ND	ND	ND	ND	ND	ND	ND
42374	2014-11-28T13:00:00	ND	ND	ND	ND	ND	ND	ND	ND	ND	ND	ND	ND
42375	2014-11-28T14:00:00	ND	ND	ND	ND	ND	ND	ND	ND	ND	ND	ND	ND
42376	2014-11-28T15:00:00	ND	ND	ND	ND	ND	ND	ND	ND	ND	ND	ND	ND
42377	2014-11-28T16:00:00	ND	ND	ND	ND	ND	ND	ND	ND	ND	ND	ND	ND
42378	2014-11-28T17:00:00	ND	ND	ND	ND	ND	ND	ND	ND	ND	ND	ND	ND
42379	2014-11-28T18:00:00	ND	ND	ND	ND	ND	ND	ND	ND	ND	ND	ND	ND
42380	2014-11-28T19:00:00	ND	ND	ND	ND	ND	ND	ND	ND	ND	ND	ND	ND
42381	2014-11-28T20:00:00	ND	ND	ND	ND	ND	ND	ND	ND	ND	ND	ND	ND
42382	2014-11-28T21:00:00	ND	ND	ND	ND	ND	ND	ND	ND	ND	ND	ND	ND
42383	2014-11-28T22:00:00	ND	ND	ND	ND	ND	ND	ND	ND	ND	ND	ND	ND
42384	2014-11-28T23:00:00	ND	ND	ND	ND	ND	ND	ND	ND	ND	ND	ND	ND
42385	2014-11-29T00:00:00	ND	ND	ND	ND	ND	ND	ND	ND	ND	ND	ND	ND
42386	2014-11-29T01:00:00	ND	ND	ND	ND	ND	ND	ND	ND	ND	ND	ND	ND
42387	2014-11-29T02:00:00	ND	ND	ND	ND	ND	ND	ND	ND	ND	ND	ND	ND
42388	2014-11-29T03:00:00	ND	ND	ND	ND	ND	ND	ND	ND	ND	ND	ND	ND
42389	2014-11-29T04:00:00	ND	ND	ND	ND	ND	ND	ND	ND	ND	ND	ND	ND
42390	2014-11-29T05:00:00	ND	ND	ND	ND	ND	ND	ND	ND	ND	ND	ND	ND
42391	2014-11-29T06:00:00	ND	ND	ND	ND	ND	ND	ND	ND	ND	ND	ND	ND
42392	2014-11-29T07:00:00	ND	ND	ND	ND	ND	ND	ND	ND	ND	ND	ND	ND
42393	2014-11-29T08:00:00	ND	ND	ND	ND	ND	ND	ND	ND	ND	ND	ND	ND
42394	2014-11-29T09:00:00	ND	ND	ND	ND	ND	ND	ND	ND	ND	ND	ND	ND
42395	2014-11-29T10:00:00	ND	ND	ND	ND	ND	ND	ND	ND	ND	ND	ND	ND
42396	2014-11-29T11:00:00	ND	ND	ND	ND	ND	ND	ND	ND	ND	ND	ND	ND
42397	2014-11-29T12:00:00	ND	ND	ND	ND	ND	ND	ND	ND	ND	ND	ND	ND
42398	2014-11-29T13:00:00	ND	ND	ND	ND	ND	ND	ND	ND	ND	ND	ND	ND
42399	2014-11-29T14:00:00	ND	ND	ND	ND	ND	ND	ND	ND	ND	ND	ND	ND
42400	2014-11-29T15:00:00	ND	ND	ND	ND	ND	ND	ND	ND	ND	ND	ND	ND
42401	2014-11-29T16:00:00	ND	ND	ND	ND	ND	ND	ND	ND	ND	ND	ND	ND
42402	2014-11-29T17:00:00	ND	ND	ND	ND	ND	ND	ND	ND	ND	ND	ND	ND
42403	2014-11-29T18:00:00	ND	ND	ND	ND	ND	ND	ND	ND	ND	ND	ND	ND
42404	2014-11-29T19:00:00	ND	ND	ND	ND	ND	ND	ND	ND	ND	ND	ND	ND
42405	2014-11-29T20:00:00	ND	ND	ND	ND	ND	ND	ND	ND	ND	ND	ND	ND
42406	2014-11-29T21:00:00	ND	ND	ND	ND	ND	ND	ND	ND	ND	ND	ND	ND
42407	2014-11-29T22:00:00	ND	ND	ND	ND	ND	ND	ND	ND	ND	ND	ND	ND
42408	2014-11-29T23:00:00	ND	ND	ND	ND	ND	ND	ND	ND	ND	ND	ND	ND
42409	2014-11-30T00:00:00	ND	ND	ND	ND	ND	ND	ND	ND	ND	ND	ND	ND
42410	2014-11-30T01:00:00	ND	ND	ND	ND	ND	ND	ND	ND	ND	ND	ND	ND
42411	2014-11-30T02:00:00	ND	ND	ND	ND	ND	ND	ND	ND	ND	ND	ND	ND
42412	2014-11-30T03:00:00	ND	ND	ND	ND	ND	ND	ND	ND	ND	ND	ND	ND
42413	2014-11-30T04:00:00	ND	ND	ND	ND	ND	ND	ND	ND	ND	ND	ND	ND
42414	2014-11-30T05:00:00	ND	ND	ND	ND	ND	ND	ND	ND	ND	ND	ND	ND
42415	2014-11-30T06:00:00	ND	ND	ND	ND	ND	ND	ND	ND	ND	ND	ND	ND
42416	2014-11-30T07:00:00	ND	ND	ND	ND	ND	ND	ND	ND	ND	ND	ND	ND
42417	2014-11-30T08:00:00	ND	ND	ND	ND	ND	ND	ND	ND	ND	ND	ND	ND
42418	2014-11-30T09:00:00	ND	ND	ND	ND	ND	ND	ND	ND	ND	ND	ND	ND
42419	2014-11-30T10:00:00	ND	ND	ND	ND	ND	ND	ND	ND	ND	ND	ND	ND
42420	2014-11-30T11:00:00	ND	ND	ND	ND	ND	ND	ND	ND	ND	ND	ND	ND
42421	2014-11-30T12:00:00	ND	ND	ND	ND	ND	ND	ND	ND	ND	ND	ND	ND
42422	2014-11-30T13:00:00	ND	ND	ND	ND	ND	ND	ND	ND	ND	ND	ND	ND
42423	2014-11-30T14:00:00	ND	ND	ND	ND	ND	ND	ND	ND	ND	ND	ND	ND
42424	2014-11-30T15:00:00	ND	ND	ND	ND	ND	ND	ND	ND	ND	ND	ND	ND
42425	2014-11-30T16:00:00	ND	ND	ND	ND	ND	ND	ND	ND	ND	ND	ND	ND
42426	2014-11-30T17:00:00	ND	ND	ND	ND	ND	ND	ND	ND	ND	ND	ND	ND
42427	2014-11-30T18:00:00	ND	ND	ND	ND	ND	ND	ND	ND	ND	ND	ND	ND
42428	2014-11-30T19:00:00	ND	ND	ND	ND	ND	ND	ND	ND	ND	ND	ND	ND
42429	2014-11-30T20:00:00	ND	ND	ND	ND	ND	ND	ND	ND	ND	ND	ND	ND
42430	2014-11-30T21:00:00	ND	ND	ND	ND	ND	ND	ND	ND	ND	ND	ND	ND
42431	2014-11-30T22:00:00	ND	ND	ND	ND	ND	ND	ND	ND	ND	ND	ND	ND
42432	2014-11-30T23:00:00	ND	ND	ND	ND	ND	ND	ND	ND	ND	ND	ND	ND
42433	2014-12-01T00:00:00	ND	ND	ND	ND	ND	ND	ND	ND	ND	ND	ND	ND
42434	2014-12-01T01:00:00	ND	ND	ND	ND	ND	ND	ND	ND	ND	ND	ND	ND
42435	2014-12-01T02:00:00	ND	ND	ND	ND	ND	ND	ND	ND	ND	ND	ND	ND
42436	2014-12-01T03:00:00	ND	ND	ND	ND	ND	ND	ND	ND	ND	ND	ND	ND
42437	2014-12-01T04:00:00	ND	ND	ND	ND	ND	ND	ND	ND	ND	ND	ND	ND
42438	2014-12-01T05:00:00	ND	ND	ND	ND	ND	ND	ND	ND	ND	ND	ND	ND
42439	2014-12-01T06:00:00	ND	ND	ND	ND	ND	ND	ND	ND	ND	ND	ND	ND
42440	2014-12-01T07:00:00	ND	ND	ND	ND	ND	ND	ND	ND	ND	ND	ND	ND
42441	2014-12-01T08:00:00	ND	ND	ND	ND	ND	ND	ND	ND	ND	ND	ND	ND
42442	2014-12-01T09:00:00	ND	ND	ND	ND	ND	ND	ND	ND	ND	ND	ND	ND
42443	2014-12-01T10:00:00	ND	ND	ND	ND	ND	ND	ND	ND	ND	ND	ND	ND
42444	2014-12-01T11:00:00	ND	ND	ND	ND	ND	ND	ND	ND	ND	ND	ND	ND
42445	2014-12-01T12:00:00	ND	ND	ND	ND	ND	ND	ND	ND	ND	ND	ND	ND
42446	2014-12-01T13:00:00	ND	ND	ND	ND	ND	ND	ND	ND	ND	ND	ND	ND
42447	2014-12-01T14:00:00	ND	ND	ND	ND	ND	ND	ND	ND	ND	ND	ND	ND
42448	2014-12-01T15:00:00	ND	ND	ND	ND	ND	ND	ND	ND	ND	ND	ND	ND
42449	2014-12-01T16:00:00	ND	ND	ND	ND	ND	ND	ND	ND	ND	ND	ND	ND
42450	2014-12-01T17:00:00	ND	ND	ND	ND	ND	ND	ND	ND	ND	ND	ND	ND
42451	2014-12-01T18:00:00	ND	ND	ND	ND	ND	ND	ND	ND	ND	ND	ND	ND
42452	2014-12-01T19:00:00	ND	ND	ND	ND	ND	ND	ND	ND	ND	ND	ND	ND
42453	2014-12-01T20:00:00	ND	ND	ND	ND	ND	ND	ND	ND	ND	ND	ND	ND
42454	2014-12-01T21:00:00	ND	ND	ND	ND	ND	ND	ND	ND	ND	ND	ND	ND
42455	2014-12-01T22:00:00	ND	ND	ND	ND	ND	ND	ND	ND	ND	ND	ND	ND
42456	2014-12-01T23:00:00	ND	ND	ND	ND	ND	ND	ND	ND	ND	ND	ND	ND
42457	2014-12-02T00:00:00	ND	ND	ND	ND	ND	ND	ND	ND	ND	ND	ND	ND
42458	2014-12-02T01:00:00	ND	ND	ND	ND	ND	ND	ND	ND	ND	ND	ND	ND
42459	2014-12-02T02:00:00	ND	ND	ND	ND	ND	ND	ND	ND	ND	ND	ND	ND
42460	2014-12-02T03:00:00	ND	ND	ND	ND	ND	ND	ND	ND	ND	ND	ND	ND
42461	2014-12-02T04:00:00	ND	ND	ND	ND	ND	ND	ND	ND	ND	ND	ND	ND
42462	2014-12-02T05:00:00	ND	ND	ND	ND	ND	ND	ND	ND	ND	ND	ND	ND
42463	2014-12-02T06:00:00	ND	ND	ND	ND	ND	ND	ND	ND	ND	ND	ND	ND
42464	2014-12-02T07:00:00	ND	ND	ND	ND	ND	ND	ND	ND	ND	ND	ND	ND
42465	2014-12-02T08:00:00	ND	ND	ND	ND	ND	ND	ND	ND	ND	ND	ND	ND
42466	2014-12-02T09:00:00	ND	ND	ND	ND	ND	ND	ND	ND	ND	ND	ND	ND
42467	2014-12-02T10:00:00	ND	ND	ND	ND	ND	ND	ND	ND	ND	ND	ND	ND
42468	2014-12-02T11:00:00	ND	ND	ND	ND	ND	ND	ND	ND	ND	ND	ND	ND
42469	2014-12-02T12:00:00	ND	ND	ND	ND	ND	ND	ND	ND	ND	ND	ND	ND
42470	2014-12-02T13:00:00	ND	ND	ND	ND	ND	ND	ND	ND	ND	ND	ND	ND
42471	2014-12-02T14:00:00	ND	ND	ND	ND	ND	ND	ND	ND	ND	ND	ND	ND
42472	2014-12-02T15:00:00	ND	ND	ND	ND	ND	ND	ND	ND	ND	ND	ND	ND
42473	2014-12-02T16:00:00	ND	ND	ND	ND	ND	ND	ND	ND	ND	ND	ND	ND
42474	2014-12-02T17:00:00	ND	ND	ND	ND	ND	ND	ND	ND	ND	ND	ND	ND
42475	2014-12-02T18:00:00	ND	ND	ND	ND	ND	ND	ND	ND	ND	ND	ND	ND
42476	2014-12-02T19:00:00	ND	ND	ND	ND	ND	ND	ND	ND	ND	ND	ND	ND
42477	2014-12-02T20:00:00	ND	ND	ND	ND	ND	ND	ND	ND	ND	ND	ND	ND
42478	2014-12-02T21:00:00	ND	ND	ND	ND	ND	ND	ND	ND	ND	ND	ND	ND
42479	2014-12-02T22:00:00	ND	ND	ND	ND	ND	ND	ND	ND	ND	ND	ND	ND
42480	2014-12-02T23:00:00	ND	ND	ND	ND	ND	ND	ND	ND	ND	ND	ND	ND
42481	2014-12-03T00:00:00	ND	ND	ND	ND	ND	ND	ND	ND	ND	ND	ND	ND
42482	2014-12-03T01:00:00	ND	ND	ND	ND	ND	ND	ND	ND	ND	ND	ND	ND
42483	2014-12-03T02:00:00	ND	ND	ND	ND	ND	ND	ND	ND	ND	ND	ND	ND
42484	2014-12-03T03:00:00	ND	ND	ND	ND	ND	ND	ND	ND	ND	ND	ND	ND
42485	2014-12-03T04:00:00	ND	ND	ND	ND	ND	ND	ND	ND	ND	ND	ND	ND
42486	2014-12-03T05:00:00	ND	ND	ND	ND	ND	ND	ND	ND	ND	ND	ND	ND
42487	2014-12-03T06:00:00	ND	ND	ND	ND	ND	ND	ND	ND	ND	ND	ND	ND
42488	2014-12-03T07:00:00	ND	ND	ND	ND	ND	ND	ND	ND	ND	ND	ND	ND
42489	2014-12-03T08:00:00	ND	ND	ND	ND	ND	ND	ND	ND	ND	ND	ND	ND
42490	2014-12-03T09:00:00	ND	ND	ND	ND	ND	ND	ND	ND	ND	ND	ND	ND
42491	2014-12-03T10:00:00	ND	ND	ND	ND	ND	ND	ND	ND	ND	ND	ND	ND
42492	2014-12-03T11:00:00	ND	ND	ND	ND	ND	ND	ND	ND	ND	ND	ND	ND
42493	2014-12-03T12:00:00	ND	ND	ND	ND	ND	ND	ND	ND	ND	ND	ND	ND
42494	2014-12-03T13:00:00	ND	ND	ND	ND	ND	ND	ND	ND	ND	ND	ND	ND
42495	2014-12-03T14:00:00	ND	ND	ND	ND	ND	ND	ND	ND	ND	ND	ND	ND
42496	2014-12-03T15:00:00	ND	ND	ND	ND	ND	ND	ND	ND	ND	ND	ND	ND
42497	2014-12-03T16:00:00	ND	ND	ND	ND	ND	ND	ND	ND	ND	ND	ND	ND
42498	2014-12-03T17:00:00	ND	ND	ND	ND	ND	ND	ND	ND	ND	ND	ND	ND
42499	2014-12-03T18:00:00	ND	ND	ND	ND	ND	ND	ND	ND	ND	ND	ND	ND
42500	2014-12-03T19:00:00	ND	ND	ND	ND	ND	ND	ND	ND	ND	ND	ND	ND
42501	2014-12-03T20:00:00	ND	ND	ND	ND	ND	ND	ND	ND	ND	ND	ND	ND
42502	2014-12-03T21:00:00	ND	ND	ND	ND	ND	ND	ND	ND	ND	ND	ND	ND
42503	2014-12-03T22:00:00	ND	ND	ND	ND	ND	ND	ND	ND	ND	ND	ND	ND
42504	2014-12-03T23:00:00	ND	ND	ND	ND	ND	ND	ND	ND	ND	ND	ND	ND
42505	2014-12-04T00:00:00	ND	ND	ND	ND	ND	ND	ND	ND	ND	ND	ND	ND
42506	2014-12-04T01:00:00	ND	ND	ND	ND	ND	ND	ND	ND	ND	ND	ND	ND
42507	2014-12-04T02:00:00	ND	ND	ND	ND	ND	ND	ND	ND	ND	ND	ND	ND
42508	2014-12-04T03:00:00	ND	ND	ND	ND	ND	ND	ND	ND	ND	ND	ND	ND
42509	2014-12-04T04:00:00	ND	ND	ND	ND	ND	ND	ND	ND	ND	ND	ND	ND
42510	2014-12-04T05:00:00	ND	ND	ND	ND	ND	ND	ND	ND	ND	ND	ND	ND
42511	2014-12-04T06:00:00	ND	ND	ND	ND	ND	ND	ND	ND	ND	ND	ND	ND
42512	2014-12-04T07:00:00	ND	ND	ND	ND	ND	ND	ND	ND	ND	ND	ND	ND
42513	2014-12-04T08:00:00	ND	ND	ND	ND	ND	ND	ND	ND	ND	ND	ND	ND
42514	2014-12-04T09:00:00	ND	ND	ND	ND	ND	ND	ND	ND	ND	ND	ND	ND
42515	2014-12-04T10:00:00	ND	ND	ND	ND	ND	ND	ND	ND	ND	ND	ND	ND
42516	2014-12-04T11:00:00	ND	ND	ND	ND	ND	ND	ND	ND	ND	ND	ND	ND
42517	2014-12-04T12:00:00	ND	ND	ND	ND	ND	ND	ND	ND	ND	ND	ND	ND
42518	2014-12-04T13:00:00	ND	ND	ND	ND	ND	ND	ND	ND	ND	ND	ND	ND
42519	2014-12-04T14:00:00	ND	ND	ND	ND	ND	ND	ND	ND	ND	ND	ND	ND
42520	2014-12-04T15:00:00	ND	ND	ND	ND	ND	ND	ND	ND	ND	ND	ND	ND
42521	2014-12-04T16:00:00	ND	ND	ND	ND	ND	ND	ND	ND	ND	ND	ND	ND
42522	2014-12-04T17:00:00	ND	ND	ND	ND	ND	ND	ND	ND	ND	ND	ND	ND
42523	2014-12-04T18:00:00	ND	ND	ND	ND	ND	ND	ND	ND	ND	ND	ND	ND
42524	2014-12-04T19:00:00	ND	ND	ND	ND	ND	ND	ND	ND	ND	ND	ND	ND
42525	2014-12-04T20:00:00	ND	ND	ND	ND	ND	ND	ND	ND	ND	ND	ND	ND
42526	2014-12-04T21:00:00	ND	ND	ND	ND	ND	ND	ND	ND	ND	ND	ND	ND
42527	2014-12-04T22:00:00	ND	ND	ND	ND	ND	ND	ND	ND	ND	ND	ND	ND
42528	2014-12-04T23:00:00	ND	ND	ND	ND	ND	ND	ND	ND	ND	ND	ND	ND
42529	2014-12-05T00:00:00	ND	ND	ND	ND	ND	ND	ND	ND	ND	ND	ND	ND
42530	2014-12-05T01:00:00	ND	ND	ND	ND	ND	ND	ND	ND	ND	ND	ND	ND
42531	2014-12-05T02:00:00	ND	ND	ND	ND	ND	ND	ND	ND	ND	ND	ND	ND
42532	2014-12-05T03:00:00	ND	ND	ND	ND	ND	ND	ND	ND	ND	ND	ND	ND
42533	2014-12-05T04:00:00	ND	ND	ND	ND	ND	ND	ND	ND	ND	ND	ND	ND
42534	2014-12-05T05:00:00	ND	ND	ND	ND	ND	ND	ND	ND	ND	ND	ND	ND
42535	2014-12-05T06:00:00	ND	ND	ND	ND	ND	ND	ND	ND	ND	ND	ND	ND
42536	2014-12-05T07:00:00	ND	ND	ND	ND	ND	ND	ND	ND	ND	ND	ND	ND
42537	2014-12-05T08:00:00	ND	ND	ND	ND	ND	ND	ND	ND	ND	ND	ND	ND
42538	2014-12-05T09:00:00	ND	ND	ND	ND	ND	ND	ND	ND	ND	ND	ND	ND
42539	2014-12-05T10:00:00	ND	ND	ND	ND	ND	ND	ND	ND	ND	ND	ND	ND
42540	2014-12-05T11:00:00	ND	ND	ND	ND	ND	ND	ND	ND	ND	ND	ND	ND
42541	2014-12-05T12:00:00	ND	ND	ND	ND	ND	ND	ND	ND	ND	ND	ND	ND
42542	2014-12-05T13:00:00	ND	ND	ND	ND	ND	ND	ND	ND	ND	ND	ND	ND
42543	2014-12-05T14:00:00	ND	ND	ND	ND	ND	ND	ND	ND	ND	ND	ND	ND
42544	2014-12-05T15:00:00	ND	ND	ND	ND	ND	ND	ND	ND	ND	ND	ND	ND
42545	2014-12-05T16:00:00	ND	ND	ND	ND	ND	ND	ND	ND	ND	ND	ND	ND
42546	2014-12-05T17:00:00	ND	ND	ND	ND	ND	ND	ND	ND	ND	ND	ND	ND
42547	2014-12-05T18:00:00	ND	ND	ND	ND	ND	ND	ND	ND	ND	ND	ND	ND
42548	2014-12-05T19:00:00	ND	ND	ND	ND	ND	ND	ND	ND	ND	ND	ND	ND
42549	2014-12-05T20:00:00	ND	ND	ND	ND	ND	ND	ND	ND	ND	ND	ND	ND
42550	2014-12-05T21:00:00	ND	ND	ND	ND	ND	ND	ND	ND	ND	ND	ND	ND
42551	2014-12-05T22:00:00	ND	ND	ND	ND	ND	ND	ND	ND	ND	ND	ND	ND
42552	2014-12-05T23:00:00	ND	ND	ND	ND	ND	ND	ND	ND	ND	ND	ND	ND
42553	2014-12-06T00:00:00	ND	ND	ND	ND	ND	ND	ND	ND	ND	ND	ND	ND
42554	2014-12-06T01:00:00	ND	ND	ND	ND	ND	ND	ND	ND	ND	ND	ND	ND
42555	2014-12-06T02:00:00	ND	ND	ND	ND	ND	ND	ND	ND	ND	ND	ND	ND
42556	2014-12-06T03:00:00	ND	ND	ND	ND	ND	ND	ND	ND	ND	ND	ND	ND
42557	2014-12-06T04:00:00	ND	ND	ND	ND	ND	ND	ND	ND	ND	ND	ND	ND
42558	2014-12-06T05:00:00	ND	ND	ND	ND	ND	ND	ND	ND	ND	ND	ND	ND
42559	2014-12-06T06:00:00	ND	ND	ND	ND	ND	ND	ND	ND	ND	ND	ND	ND
42560	2014-12-06T07:00:00	ND	ND	ND	ND	ND	ND	ND	ND	ND	ND	ND	ND
42561	2014-12-06T08:00:00	ND	ND	ND	ND	ND	ND	ND	ND	ND	ND	ND	ND
42562	2014-12-06T09:00:00	ND	ND	ND	ND	ND	ND	ND	ND	ND	ND	ND	ND
42563	2014-12-06T10:00:00	ND	ND	ND	ND	ND	ND	ND	ND	ND	ND	ND	ND
42564	2014-12-06T11:00:00	ND	ND	ND	ND	ND	ND	ND	ND	ND	ND	ND	ND
42565	2014-12-06T12:00:00	ND	ND	ND	ND	ND	ND	ND	ND	ND	ND	ND	ND
42566	2014-12-06T13:00:00	ND	ND	ND	ND	ND	ND	ND	ND	ND	ND	ND	ND
42567	2014-12-06T14:00:00	ND	ND	ND	ND	ND	ND	ND	ND	ND	ND	ND	ND
42568	2014-12-06T15:00:00	ND	ND	ND	ND	ND	ND	ND	ND	ND	ND	ND	ND
42569	2014-12-06T16:00:00	ND	ND	ND	ND	ND	ND	ND	ND	ND	ND	ND	ND
42570	2014-12-06T17:00:00	ND	ND	ND	ND	ND	ND	ND	ND	ND	ND	ND	ND
42571	2014-12-06T18:00:00	ND	ND	ND	ND	ND	ND	ND	ND	ND	ND	ND	ND
42572	2014-12-06T19:00:00	ND	ND	ND	ND	ND	ND	ND	ND	ND	ND	ND	ND
42573	2014-12-06T20:00:00	ND	ND	ND	ND	ND	ND	ND	ND	ND	ND	ND	ND
42574	2014-12-06T21:00:00	ND	ND	ND	ND	ND	ND	ND	ND	ND	ND	ND	ND
42575	2014-12-06T22:00:00	ND	ND	ND	ND	ND	ND	ND	ND	ND	ND	ND	ND
42576	2014-12-06T23:00:00	ND	ND	ND	ND	ND	ND	ND	ND	ND	ND	ND	ND
42577	2014-12-07T00:00:00	ND	ND	ND	ND	ND	ND	ND	ND	ND	ND	ND	ND
42578	2014-12-07T01:00:00	ND	ND	ND	ND	ND	ND	ND	ND	ND	ND	ND	ND
42579	2014-12-07T02:00:00	ND	ND	ND	ND	ND	ND	ND	ND	ND	ND	ND	ND
42580	2014-12-07T03:00:00	ND	ND	ND	ND	ND	ND	ND	ND	ND	ND	ND	ND
42581	2014-12-07T04:00:00	ND	ND	ND	ND	ND	ND	ND	ND	ND	ND	ND	ND
42582	2014-12-07T05:00:00	ND	ND	ND	ND	ND	ND	ND	ND	ND	ND	ND	ND
42583	2014-12-07T06:00:00	ND	ND	ND	ND	ND	ND	ND	ND	ND	ND	ND	ND
42584	2014-12-07T07:00:00	ND	ND	ND	ND	ND	ND	ND	ND	ND	ND	ND	ND
42585	2014-12-07T08:00:00	ND	ND	ND	ND	ND	ND	ND	ND	ND	ND	ND	ND
42586	2014-12-07T09:00:00	ND	ND	ND	ND	ND	ND	ND	ND	ND	ND	ND	ND
42587	2014-12-07T10:00:00	ND	ND	ND	ND	ND	ND	ND	ND	ND	ND	ND	ND
42588	2014-12-07T11:00:00	ND	ND	ND	ND	ND	ND	ND	ND	ND	ND	ND	ND
42589	2014-12-07T12:00:00	ND	ND	ND	ND	ND	ND	ND	ND	ND	ND	ND	ND
42590	2014-12-07T13:00:00	ND	ND	ND	ND	ND	ND	ND	ND	ND	ND	ND	ND
42591	2014-12-07T14:00:00	ND	ND	ND	ND	ND	ND	ND	ND	ND	ND	ND	ND
42592	2014-12-07T15:00:00	ND	ND	ND	ND	ND	ND	ND	ND	ND	ND	ND	ND
42593	2014-12-07T16:00:00	ND	ND	ND	ND	ND	ND	ND	ND	ND	ND	ND	ND
42594	2014-12-07T17:00:00	ND	ND	ND	ND	ND	ND	ND	ND	ND	ND	ND	ND
42595	2014-12-07T18:00:00	ND	ND	ND	ND	ND	ND	ND	ND	ND	ND	ND	ND
42596	2014-12-07T19:00:00	ND	ND	ND	ND	ND	ND	ND	ND	ND	ND	ND	ND
42597	2014-12-07T20:00:00	ND	ND	ND	ND	ND	ND	ND	ND	ND	ND	ND	ND
42598	2014-12-07T21:00:00	ND	ND	ND	ND	ND	ND	ND	ND	ND	ND	ND	ND
42599	2014-12-07T22:00:00	ND	ND	ND	ND	ND	ND	ND	ND	ND	ND	ND	ND
42600	2014-12-07T23:00:00	ND	ND	ND	ND	ND	ND	ND	ND	ND	ND	ND	ND
42601	2014-12-08T00:00:00	ND	ND	ND	ND	ND	ND	ND	ND	ND	ND	ND	ND
42602	2014-12-08T01:00:00	ND	ND	ND	ND	ND	ND	ND	ND	ND	ND	ND	ND
42603	2014-12-08T02:00:00	ND	ND	ND	ND	ND	ND	ND	ND	ND	ND	ND	ND
42604	2014-12-08T03:00:00	ND	ND	ND	ND	ND	ND	ND	ND	ND	ND	ND	ND
42605	2014-12-08T04:00:00	ND	ND	ND	ND	ND	ND	ND	ND	ND	ND	ND	ND
42606	2014-12-08T05:00:00	ND	ND	ND	ND	ND	ND	ND	ND	ND	ND	ND	ND
42607	2014-12-08T06:00:00	ND	ND	ND	ND	ND	ND	ND	ND	ND	ND	ND	ND
42608	2014-12-08T07:00:00	ND	ND	ND	ND	ND	ND	ND	ND	ND	ND	ND	ND
42609	2014-12-08T08:00:00	ND	ND	ND	ND	ND	ND	ND	ND	ND	ND	ND	ND
42610	2014-12-08T09:00:00	ND	ND	ND	ND	ND	ND	ND	ND	ND	ND	ND	ND
42611	2014-12-08T10:00:00	ND	ND	ND	ND	ND	ND	ND	ND	ND	ND	ND	ND
42612	2014-12-08T11:00:00	ND	ND	ND	ND	ND	ND	ND	ND	ND	ND	ND	ND
42613	2014-12-08T12:00:00	ND	ND	ND	ND	ND	ND	ND	ND	ND	ND	ND	ND
42614	2014-12-08T13:00:00	ND	ND	ND	ND	ND	ND	ND	ND	ND	ND	ND	ND
42615	2014-12-08T14:00:00	ND	ND	ND	ND	ND	ND	ND	ND	ND	ND	ND	ND
42616	2014-12-08T15:00:00	ND	ND	ND	ND	ND	ND	ND	ND	ND	ND	ND	ND
42617	2014-12-08T16:00:00	ND	ND	ND	ND	ND	ND	ND	ND	ND	ND	ND	ND
42618	2014-12-08T17:00:00	ND	ND	ND	ND	ND	ND	ND	ND	ND	ND	ND	ND
42619	2014-12-08T18:00:00	ND	ND	ND	ND	ND	ND	ND	ND	ND	ND	ND	ND
42620	2014-12-08T19:00:00	ND	ND	ND	ND	ND	ND	ND	ND	ND	ND	ND	ND
42621	2014-12-08T20:00:00	ND	ND	ND	ND	ND	ND	ND	ND	ND	ND	ND	ND
42622	2014-12-08T21:00:00	ND	ND	ND	ND	ND	ND	ND	ND	ND	ND	ND	ND
42623	2014-12-08T22:00:00	ND	ND	ND	ND	ND	ND	ND	ND	ND	ND	ND	ND
42624	2014-12-08T23:00:00	ND	ND	ND	ND	ND	ND	ND	ND	ND	ND	ND	ND
42625	2014-12-09T00:00:00	ND	ND	ND	ND	ND	ND	ND	ND	ND	ND	ND	ND
42626	2014-12-09T01:00:00	ND	ND	ND	ND	ND	ND	ND	ND	ND	ND	ND	ND
42627	2014-12-09T02:00:00	ND	ND	ND	ND	ND	ND	ND	ND	ND	ND	ND	ND
42628	2014-12-09T03:00:00	ND	ND	ND	ND	ND	ND	ND	ND	ND	ND	ND	ND
42629	2014-12-09T04:00:00	ND	ND	ND	ND	ND	ND	ND	ND	ND	ND	ND	ND
42630	2014-12-09T05:00:00	ND	ND	ND	ND	ND	ND	ND	ND	ND	ND	ND	ND
42631	2014-12-09T06:00:00	ND	ND	ND	ND	ND	ND	ND	ND	ND	ND	ND	ND
42632	2014-12-09T07:00:00	ND	ND	ND	ND	ND	ND	ND	ND	ND	ND	ND	ND
42633	2014-12-09T08:00:00	ND	ND	ND	ND	ND	ND	ND	ND	ND	ND	ND	ND
42634	2014-12-09T09:00:00	ND	ND	ND	ND	ND	ND	ND	ND	ND	ND	ND	ND
42635	2014-12-09T10:00:00	ND	ND	ND	ND	ND	ND	ND	ND	ND	ND	ND	ND
42636	2014-12-09T11:00:00	ND	ND	ND	ND	ND	ND	ND	ND	ND	ND	ND	ND
42637	2014-12-09T12:00:00	ND	ND	ND	ND	ND	ND	ND	ND	ND	ND	ND	ND
42638	2014-12-09T13:00:00	ND	ND	ND	ND	ND	ND	ND	ND	ND	ND	ND	ND
42639	2014-12-09T14:00:00	ND	ND	ND	ND	ND	ND	ND	ND	ND	ND	ND	ND
42640	2014-12-09T15:00:00	ND	ND	ND	ND	ND	ND	ND	ND	ND	ND	ND	ND
42641	2014-12-09T16:00:00	ND	ND	ND	ND	ND	ND	ND	ND	ND	ND	ND	ND
42642	2014-12-09T17:00:00	ND	ND	ND	ND	ND	ND	ND	ND	ND	ND	ND	ND
42643	2014-12-09T18:00:00	ND	ND	ND	ND	ND	ND	ND	ND	ND	ND	ND	ND
42644	2014-12-09T19:00:00	ND	ND	ND	ND	ND	ND	ND	ND	ND	ND	ND	ND
42645	2014-12-09T20:00:00	ND	ND	ND	ND	ND	ND	ND	ND	ND	ND	ND	ND
42646	2014-12-09T21:00:00	ND	ND	ND	ND	ND	ND	ND	ND	ND	ND	ND	ND
42647	2014-12-09T22:00:00	ND	ND	ND	ND	ND	ND	ND	ND	ND	ND	ND	ND
42648	2014-12-09T23:00:00	ND	ND	ND	ND	ND	ND	ND	ND	ND	ND	ND	ND
42649	2014-12-10T00:00:00	ND	ND	ND	ND	ND	ND	ND	ND	ND	ND	ND	ND
42650	2014-12-10T01:00:00	ND	ND	ND	ND	ND	ND	ND	ND	ND	ND	ND	ND
42651	2014-12-10T02:00:00	ND	ND	ND	ND	ND	ND	ND	ND	ND	ND	ND	ND
42652	2014-12-10T03:00:00	ND	ND	ND	ND	ND	ND	ND	ND	ND	ND	ND	ND
42653	2014-12-10T04:00:00	ND	ND	ND	ND	ND	ND	ND	ND	ND	ND	ND	ND
42654	2014-12-10T05:00:00	ND	ND	ND	ND	ND	ND	ND	ND	ND	ND	ND	ND
42655	2014-12-10T06:00:00	ND	ND	ND	ND	ND	ND	ND	ND	ND	ND	ND	ND
42656	2014-12-10T07:00:00	ND	ND	ND	ND	ND	ND	ND	ND	ND	ND	ND	ND
42657	2014-12-10T08:00:00	ND	ND	ND	ND	ND	ND	ND	ND	ND	ND	ND	ND
42658	2014-12-10T09:00:00	ND	ND	ND	ND	ND	ND	ND	ND	ND	ND	ND	ND
42659	2014-12-10T10:00:00	ND	ND	ND	ND	ND	ND	ND	ND	ND	ND	ND	ND
42660	2014-12-10T11:00:00	ND	ND	ND	ND	ND	ND	ND	ND	ND	ND	ND	ND
42661	2014-12-10T12:00:00	ND	ND	ND	ND	ND	ND	ND	ND	ND	ND	ND	ND
42662	2014-12-10T13:00:00	ND	ND	ND	ND	ND	ND	ND	ND	ND	ND	ND	ND
42663	2014-12-10T14:00:00	ND	ND	ND	ND	ND	ND	ND	ND	ND	ND	ND	ND
42664	2014-12-10T15:00:00	ND	ND	ND	ND	ND	ND	ND	ND	ND	ND	ND	ND
42665	2014-12-10T16:00:00	ND	ND	ND	ND	ND	ND	ND	ND	ND	ND	ND	ND
42666	2014-12-10T17:00:00	ND	ND	ND	ND	ND	ND	ND	ND	ND	ND	ND	ND
42667	2014-12-10T18:00:00	ND	ND	ND	ND	ND	ND	ND	ND	ND	ND	ND	ND
42668	2014-12-10T19:00:00	ND	ND	ND	ND	ND	ND	ND	ND	ND	ND	ND	ND
42669	2014-12-10T20:00:00	ND	ND	ND	ND	ND	ND	ND	ND	ND	ND	ND	ND
42670	2014-12-10T21:00:00	ND	ND	ND	ND	ND	ND	ND	ND	ND	ND	ND	ND
42671	2014-12-10T22:00:00	ND	ND	ND	ND	ND	ND	ND	ND	ND	ND	ND	ND
42672	2014-12-10T23:00:00	ND	ND	ND	ND	ND	ND	ND	ND	ND	ND	ND	ND
42673	2014-12-11T00:00:00	ND	ND	ND	ND	ND	ND	ND	ND	ND	ND	ND	ND
42674	2014-12-11T01:00:00	ND	ND	ND	ND	ND	ND	ND	ND	ND	ND	ND	ND
42675	2014-12-11T02:00:00	ND	ND	ND	ND	ND	ND	ND	ND	ND	ND	ND	ND
42676	2014-12-11T03:00:00	ND	ND	ND	ND	ND	ND	ND	ND	ND	ND	ND	ND
42677	2014-12-11T04:00:00	ND	ND	ND	ND	ND	ND	ND	ND	ND	ND	ND	ND
42678	2014-12-11T05:00:00	ND	ND	ND	ND	ND	ND	ND	ND	ND	ND	ND	ND
42679	2014-12-11T06:00:00	ND	ND	ND	ND	ND	ND	ND	ND	ND	ND	ND	ND
42680	2014-12-11T07:00:00	ND	ND	ND	ND	ND	ND	ND	ND	ND	ND	ND	ND
42681	2014-12-11T08:00:00	ND	ND	ND	ND	ND	ND	ND	ND	ND	ND	ND	ND
42682	2014-12-11T09:00:00	ND	ND	ND	ND	ND	ND	ND	ND	ND	ND	ND	ND
42683	2014-12-11T10:00:00	ND	ND	ND	ND	ND	ND	ND	ND	ND	ND	ND	ND
42684	2014-12-11T11:00:00	ND	ND	ND	ND	ND	ND	ND	ND	ND	ND	ND	ND
42685	2014-12-11T12:00:00	ND	ND	ND	ND	ND	ND	ND	ND	ND	ND	ND	ND
42686	2014-12-11T13:00:00	ND	ND	ND	ND	ND	ND	ND	ND	ND	ND	ND	ND
42687	2014-12-11T14:00:00	ND	ND	ND	ND	ND	ND	ND	ND	ND	ND	ND	ND
42688	2014-12-11T15:00:00	ND	ND	ND	ND	ND	ND	ND	ND	ND	ND	ND	ND
42689	2014-12-11T16:00:00	ND	ND	ND	ND	ND	ND	ND	ND	ND	ND	ND	ND
42690	2014-12-11T17:00:00	ND	ND	ND	ND	ND	ND	ND	ND	ND	ND	ND	ND
42691	2014-12-11T18:00:00	ND	ND	ND	ND	ND	ND	ND	ND	ND	ND	ND	ND
42692	2014-12-11T19:00:00	ND	ND	ND	ND	ND	ND	ND	ND	ND	ND	ND	ND
42693	2014-12-11T20:00:00	ND	ND	ND	ND	ND	ND	ND	ND	ND	ND	ND	ND
42694	2014-12-11T21:00:00	ND	ND	ND	ND	ND	ND	ND	ND	ND	ND	ND	ND
42695	2014-12-11T22:00:00	ND	ND	ND	ND	ND	ND	ND	ND	ND	ND	ND	ND
42696	2014-12-11T23:00:00	ND	ND	ND	ND	ND	ND	ND	ND	ND	ND	ND	ND
42697	2014-12-12T00:00:00	ND	ND	ND	ND	ND	ND	ND	ND	ND	ND	ND	ND
42698	2014-12-12T01:00:00	ND	ND	ND	ND	ND	ND	ND	ND	ND	ND	ND	ND
42699	2014-12-12T02:00:00	ND	ND	ND	ND	ND	ND	ND	ND	ND	ND	ND	ND
42700	2014-12-12T03:00:00	ND	ND	ND	ND	ND	ND	ND	ND	ND	ND	ND	ND
42701	2014-12-12T04:00:00	ND	ND	ND	ND	ND	ND	ND	ND	ND	ND	ND	ND
42702	2014-12-12T05:00:00	ND	ND	ND	ND	ND	ND	ND	ND	ND	ND	ND	ND
42703	2014-12-12T06:00:00	ND	ND	ND	ND	ND	ND	ND	ND	ND	ND	ND	ND
42704	2014-12-12T07:00:00	ND	ND	ND	ND	ND	ND	ND	ND	ND	ND	ND	ND
42705	2014-12-12T08:00:00	ND	ND	ND	ND	ND	ND	ND	ND	ND	ND	ND	ND
42706	2014-12-12T09:00:00	ND	ND	ND	ND	ND	ND	ND	ND	ND	ND	ND	ND
42707	2014-12-12T10:00:00	ND	ND	ND	ND	ND	ND	ND	ND	ND	ND	ND	ND
42708	2014-12-12T11:00:00	ND	ND	ND	ND	ND	ND	ND	ND	ND	ND	ND	ND
42709	2014-12-12T12:00:00	ND	ND	ND	ND	ND	ND	ND	ND	ND	ND	ND	ND
42710	2014-12-12T13:00:00	ND	ND	ND	ND	ND	ND	ND	ND	ND	ND	ND	ND
42711	2014-12-12T14:00:00	ND	ND	ND	ND	ND	ND	ND	ND	ND	ND	ND	ND
42712	2014-12-12T15:00:00	ND	ND	ND	ND	ND	ND	ND	ND	ND	ND	ND	ND
42713	2014-12-12T16:00:00	ND	ND	ND	ND	ND	ND	ND	ND	ND	ND	ND	ND
42714	2014-12-12T17:00:00	ND	ND	ND	ND	ND	ND	ND	ND	ND	ND	ND	ND
42715	2014-12-12T18:00:00	ND	ND	ND	ND	ND	ND	ND	ND	ND	ND	ND	ND
42716	2014-12-12T19:00:00	ND	ND	ND	ND	ND	ND	ND	ND	ND	ND	ND	ND
42717	2014-12-12T20:00:00	ND	ND	ND	ND	ND	ND	ND	ND	ND	ND	ND	ND
42718	2014-12-12T21:00:00	ND	ND	ND	ND	ND	ND	ND	ND	ND	ND	ND	ND
42719	2014-12-12T22:00:00	ND	ND	ND	ND	ND	ND	ND	ND	ND	ND	ND	ND
42720	2014-12-12T23:00:00	ND	ND	ND	ND	ND	ND	ND	ND	ND	ND	ND	ND
42721	2014-12-13T00:00:00	ND	ND	ND	ND	ND	ND	ND	ND	ND	ND	ND	ND
42722	2014-12-13T01:00:00	ND	ND	ND	ND	ND	ND	ND	ND	ND	ND	ND	ND
42723	2014-12-13T02:00:00	ND	ND	ND	ND	ND	ND	ND	ND	ND	ND	ND	ND
42724	2014-12-13T03:00:00	ND	ND	ND	ND	ND	ND	ND	ND	ND	ND	ND	ND
42725	2014-12-13T04:00:00	ND	ND	ND	ND	ND	ND	ND	ND	ND	ND	ND	ND
42726	2014-12-13T05:00:00	ND	ND	ND	ND	ND	ND	ND	ND	ND	ND	ND	ND
42727	2014-12-13T06:00:00	ND	ND	ND	ND	ND	ND	ND	ND	ND	ND	ND	ND
42728	2014-12-13T07:00:00	ND	ND	ND	ND	ND	ND	ND	ND	ND	ND	ND	ND
42729	2014-12-13T08:00:00	ND	ND	ND	ND	ND	ND	ND	ND	ND	ND	ND	ND
42730	2014-12-13T09:00:00	ND	ND	ND	ND	ND	ND	ND	ND	ND	ND	ND	ND
42731	2014-12-13T10:00:00	ND	ND	ND	ND	ND	ND	ND	ND	ND	ND	ND	ND
42732	2014-12-13T11:00:00	ND	ND	ND	ND	ND	ND	ND	ND	ND	ND	ND	ND
42733	2014-12-13T12:00:00	ND	ND	ND	ND	ND	ND	ND	ND	ND	ND	ND	ND
42734	2014-12-13T13:00:00	ND	ND	ND	ND	ND	ND	ND	ND	ND	ND	ND	ND
42735	2014-12-13T14:00:00	ND	ND	ND	ND	ND	ND	ND	ND	ND	ND	ND	ND
42736	2014-12-13T15:00:00	ND	ND	ND	ND	ND	ND	ND	ND	ND	ND	ND	ND
42737	2014-12-13T16:00:00	ND	ND	ND	ND	ND	ND	ND	ND	ND	ND	ND	ND
42738	2014-12-13T17:00:00	ND	ND	ND	ND	ND	ND	ND	ND	ND	ND	ND	ND
42739	2014-12-13T18:00:00	ND	ND	ND	ND	ND	ND	ND	ND	ND	ND	ND	ND
42740	2014-12-13T19:00:00	ND	ND	ND	ND	ND	ND	ND	ND	ND	ND	ND	ND
42741	2014-12-13T20:00:00	ND	ND	ND	ND	ND	ND	ND	ND	ND	ND	ND	ND
42742	2014-12-13T21:00:00	ND	ND	ND	ND	ND	ND	ND	ND	ND	ND	ND	ND
42743	2014-12-13T22:00:00	ND	ND	ND	ND	ND	ND	ND	ND	ND	ND	ND	ND
42744	2014-12-13T23:00:00	ND	ND	ND	ND	ND	ND	ND	ND	ND	ND	ND	ND
42745	2014-12-14T00:00:00	ND	ND	ND	ND	ND	ND	ND	ND	ND	ND	ND	ND
42746	2014-12-14T01:00:00	ND	ND	ND	ND	ND	ND	ND	ND	ND	ND	ND	ND
42747	2014-12-14T02:00:00	ND	ND	ND	ND	ND	ND	ND	ND	ND	ND	ND	ND
42748	2014-12-14T03:00:00	ND	ND	ND	ND	ND	ND	ND	ND	ND	ND	ND	ND
42749	2014-12-14T04:00:00	ND	ND	ND	ND	ND	ND	ND	ND	ND	ND	ND	ND
42750	2014-12-14T05:00:00	ND	ND	ND	ND	ND	ND	ND	ND	ND	ND	ND	ND
42751	2014-12-14T06:00:00	ND	ND	ND	ND	ND	ND	ND	ND	ND	ND	ND	ND
42752	2014-12-14T07:00:00	ND	ND	ND	ND	ND	ND	ND	ND	ND	ND	ND	ND
42753	2014-12-14T08:00:00	ND	ND	ND	ND	ND	ND	ND	ND	ND	ND	ND	ND
42754	2014-12-14T09:00:00	ND	ND	ND	ND	ND	ND	ND	ND	ND	ND	ND	ND
42755	2014-12-14T10:00:00	ND	ND	ND	ND	ND	ND	ND	ND	ND	ND	ND	ND
42756	2014-12-14T11:00:00	ND	ND	ND	ND	ND	ND	ND	ND	ND	ND	ND	ND
42757	2014-12-14T12:00:00	ND	ND	ND	ND	ND	ND	ND	ND	ND	ND	ND	ND
42758	2014-12-14T13:00:00	ND	ND	ND	ND	ND	ND	ND	ND	ND	ND	ND	ND
42759	2014-12-14T14:00:00	ND	ND	ND	ND	ND	ND	ND	ND	ND	ND	ND	ND
42760	2014-12-14T15:00:00	ND	ND	ND	ND	ND	ND	ND	ND	ND	ND	ND	ND
42761	2014-12-14T16:00:00	ND	ND	ND	ND	ND	ND	ND	ND	ND	ND	ND	ND
42762	2014-12-14T17:00:00	ND	ND	ND	ND	ND	ND	ND	ND	ND	ND	ND	ND
42763	2014-12-14T18:00:00	ND	ND	ND	ND	ND	ND	ND	ND	ND	ND	ND	ND
42764	2014-12-14T19:00:00	ND	ND	ND	ND	ND	ND	ND	ND	ND	ND	ND	ND
42765	2014-12-14T20:00:00	ND	ND	ND	ND	ND	ND	ND	ND	ND	ND	ND	ND
42766	2014-12-14T21:00:00	ND	ND	ND	ND	ND	ND	ND	ND	ND	ND	ND	ND
42767	2014-12-14T22:00:00	ND	ND	ND	ND	ND	ND	ND	ND	ND	ND	ND	ND
42768	2014-12-14T23:00:00	ND	ND	ND	ND	ND	ND	ND	ND	ND	ND	ND	ND
42769	2014-12-15T00:00:00	ND	ND	ND	ND	ND	ND	ND	ND	ND	ND	ND	ND
42770	2014-12-15T01:00:00	ND	ND	ND	ND	ND	ND	ND	ND	ND	ND	ND	ND
42771	2014-12-15T02:00:00	ND	ND	ND	ND	ND	ND	ND	ND	ND	ND	ND	ND
42772	2014-12-15T03:00:00	ND	ND	ND	ND	ND	ND	ND	ND	ND	ND	ND	ND
42773	2014-12-15T04:00:00	ND	ND	ND	ND	ND	ND	ND	ND	ND	ND	ND	ND
42774	2014-12-15T05:00:00	ND	ND	ND	ND	ND	ND	ND	ND	ND	ND	ND	ND
42775	2014-12-15T06:00:00	ND	ND	ND	ND	ND	ND	ND	ND	ND	ND	ND	ND
42776	2014-12-15T07:00:00	ND	ND	ND	ND	ND	ND	ND	ND	ND	ND	ND	ND
42777	2014-12-15T08:00:00	ND	ND	ND	ND	ND	ND	ND	ND	ND	ND	ND	ND
42778	2014-12-15T09:00:00	ND	ND	ND	ND	ND	ND	ND	ND	ND	ND	ND	ND
42779	2014-12-15T10:00:00	ND	ND	ND	ND	ND	ND	ND	ND	ND	ND	ND	ND
42780	2014-12-15T11:00:00	ND	ND	ND	ND	ND	ND	ND	ND	ND	ND	ND	ND
42781	2014-12-15T12:00:00	ND	ND	ND	ND	ND	ND	ND	ND	ND	ND	ND	ND
42782	2014-12-15T13:00:00	ND	ND	ND	ND	ND	ND	ND	ND	ND	ND	ND	ND
42783	2014-12-15T14:00:00	ND	ND	ND	ND	ND	ND	ND	ND	ND	ND	ND	ND
42784	2014-12-15T15:00:00	ND	ND	ND	ND	ND	ND	ND	ND	ND	ND	ND	ND
42785	2014-12-15T16:00:00	ND	ND	ND	ND	ND	ND	ND	ND	ND	ND	ND	ND
42786	2014-12-15T17:00:00	ND	ND	ND	ND	ND	ND	ND	ND	ND	ND	ND	ND
42787	2014-12-15T18:00:00	ND	ND	ND	ND	ND	ND	ND	ND	ND	ND	ND	ND
42788	2014-12-15T19:00:00	ND	ND	ND	ND	ND	ND	ND	ND	ND	ND	ND	ND
42789	2014-12-15T20:00:00	ND	ND	ND	ND	ND	ND	ND	ND	ND	ND	ND	ND
42790	2014-12-15T21:00:00	ND	ND	ND	ND	ND	ND	ND	ND	ND	ND	ND	ND
42791	2014-12-15T22:00:00	ND	ND	ND	ND	ND	ND	ND	ND	ND	ND	ND	ND
42792	2014-12-15T23:00:00	ND	ND	ND	ND	ND	ND	ND	ND	ND	ND	ND	ND
42793	2014-12-16T00:00:00	ND	ND	ND	ND	ND	ND	ND	ND	ND	ND	ND	ND
42794	2014-12-16T01:00:00	ND	ND	ND	ND	ND	ND	ND	ND	ND	ND	ND	ND
42795	2014-12-16T02:00:00	ND	ND	ND	ND	ND	ND	ND	ND	ND	ND	ND	ND
42796	2014-12-16T03:00:00	ND	ND	ND	ND	ND	ND	ND	ND	ND	ND	ND	ND
42797	2014-12-16T04:00:00	ND	ND	ND	ND	ND	ND	ND	ND	ND	ND	ND	ND
42798	2014-12-16T05:00:00	ND	ND	ND	ND	ND	ND	ND	ND	ND	ND	ND	ND
42799	2014-12-16T06:00:00	ND	ND	ND	ND	ND	ND	ND	ND	ND	ND	ND	ND
42800	2014-12-16T07:00:00	ND	ND	ND	ND	ND	ND	ND	ND	ND	ND	ND	ND
42801	2014-12-16T08:00:00	ND	ND	ND	ND	ND	ND	ND	ND	ND	ND	ND	ND
42802	2014-12-16T09:00:00	ND	ND	ND	ND	ND	ND	ND	ND	ND	ND	ND	ND
42803	2014-12-16T10:00:00	ND	ND	ND	ND	ND	ND	ND	ND	ND	ND	ND	ND
42804	2014-12-16T11:00:00	ND	ND	ND	ND	ND	ND	ND	ND	ND	ND	ND	ND
42805	2014-12-16T12:00:00	ND	ND	ND	ND	ND	ND	ND	ND	ND	ND	ND	ND
42806	2014-12-16T13:00:00	ND	ND	ND	ND	ND	ND	ND	ND	ND	ND	ND	ND
42807	2014-12-16T14:00:00	ND	ND	ND	ND	ND	ND	ND	ND	ND	ND	ND	ND
42808	2014-12-16T15:00:00	ND	ND	ND	ND	ND	ND	ND	ND	ND	ND	ND	ND
42809	2014-12-16T16:00:00	ND	ND	ND	ND	ND	ND	ND	ND	ND	ND	ND	ND
42810	2014-12-16T17:00:00	ND	ND	ND	ND	ND	ND	ND	ND	ND	ND	ND	ND
42811	2014-12-16T18:00:00	ND	ND	ND	ND	ND	ND	ND	ND	ND	ND	ND	ND
42812	2014-12-16T19:00:00	ND	ND	ND	ND	ND	ND	ND	ND	ND	ND	ND	ND
42813	2014-12-16T20:00:00	ND	ND	ND	ND	ND	ND	ND	ND	ND	ND	ND	ND
42814	2014-12-16T21:00:00	ND	ND	ND	ND	ND	ND	ND	ND	ND	ND	ND	ND
42815	2014-12-16T22:00:00	ND	ND	ND	ND	ND	ND	ND	ND	ND	ND	ND	ND
42816	2014-12-16T23:00:00	ND	ND	ND	ND	ND	ND	ND	ND	ND	ND	ND	ND
42817	2014-12-17T00:00:00	ND	ND	ND	ND	ND	ND	ND	ND	ND	ND	ND	ND
42818	2014-12-17T01:00:00	ND	ND	ND	ND	ND	ND	ND	ND	ND	ND	ND	ND
42819	2014-12-17T02:00:00	ND	ND	ND	ND	ND	ND	ND	ND	ND	ND	ND	ND
42820	2014-12-17T03:00:00	ND	ND	ND	ND	ND	ND	ND	ND	ND	ND	ND	ND
42821	2014-12-17T04:00:00	ND	ND	ND	ND	ND	ND	ND	ND	ND	ND	ND	ND
42822	2014-12-17T05:00:00	ND	ND	ND	ND	ND	ND	ND	ND	ND	ND	ND	ND
42823	2014-12-17T06:00:00	ND	ND	ND	ND	ND	ND	ND	ND	ND	ND	ND	ND
42824	2014-12-17T07:00:00	ND	ND	ND	ND	ND	ND	ND	ND	ND	ND	ND	ND
42825	2014-12-17T08:00:00	ND	ND	ND	ND	ND	ND	ND	ND	ND	ND	ND	ND
42826	2014-12-17T09:00:00	ND	ND	ND	ND	ND	ND	ND	ND	ND	ND	ND	ND
42827	2014-12-17T10:00:00	ND	ND	ND	ND	ND	ND	ND	ND	ND	ND	ND	ND
42828	2014-12-17T11:00:00	ND	ND	ND	ND	ND	ND	ND	ND	ND	ND	ND	ND
42829	2014-12-17T12:00:00	ND	ND	ND	ND	ND	ND	ND	ND	ND	ND	ND	ND
42830	2014-12-17T13:00:00	ND	ND	ND	ND	ND	ND	ND	ND	ND	ND	ND	ND
42831	2014-12-17T14:00:00	ND	ND	ND	ND	ND	ND	ND	ND	ND	ND	ND	ND
42832	2014-12-17T15:00:00	ND	ND	ND	ND	ND	ND	ND	ND	ND	ND	ND	ND
42833	2014-12-17T16:00:00	ND	ND	ND	ND	ND	ND	ND	ND	ND	ND	ND	ND
42834	2014-12-17T17:00:00	ND	ND	ND	ND	ND	ND	ND	ND	ND	ND	ND	ND
42835	2014-12-17T18:00:00	ND	ND	ND	ND	ND	ND	ND	ND	ND	ND	ND	ND
42836	2014-12-17T19:00:00	ND	ND	ND	ND	ND	ND	ND	ND	ND	ND	ND	ND
42837	2014-12-17T20:00:00	ND	ND	ND	ND	ND	ND	ND	ND	ND	ND	ND	ND
42838	2014-12-17T21:00:00	ND	ND	ND	ND	ND	ND	ND	ND	ND	ND	ND	ND
42839	2014-12-17T22:00:00	ND	ND	ND	ND	ND	ND	ND	ND	ND	ND	ND	ND
42840	2014-12-17T23:00:00	ND	ND	ND	ND	ND	ND	ND	ND	ND	ND	ND	ND
42841	2014-12-18T00:00:00	ND	ND	ND	ND	ND	ND	ND	ND	ND	ND	ND	ND
42842	2014-12-18T01:00:00	ND	ND	ND	ND	ND	ND	ND	ND	ND	ND	ND	ND
42843	2014-12-18T02:00:00	ND	ND	ND	ND	ND	ND	ND	ND	ND	ND	ND	ND
42844	2014-12-18T03:00:00	ND	ND	ND	ND	ND	ND	ND	ND	ND	ND	ND	ND
42845	2014-12-18T04:00:00	ND	ND	ND	ND	ND	ND	ND	ND	ND	ND	ND	ND
42846	2014-12-18T05:00:00	ND	ND	ND	ND	ND	ND	ND	ND	ND	ND	ND	ND
42847	2014-12-18T06:00:00	ND	ND	ND	ND	ND	ND	ND	ND	ND	ND	ND	ND
42848	2014-12-18T07:00:00	ND	ND	ND	ND	ND	ND	ND	ND	ND	ND	ND	ND
42849	2014-12-18T08:00:00	ND	ND	ND	ND	ND	ND	ND	ND	ND	ND	ND	ND
42850	2014-12-18T09:00:00	ND	ND	ND	ND	ND	ND	ND	ND	ND	ND	ND	ND
42851	2014-12-18T10:00:00	ND	ND	ND	ND	ND	ND	ND	ND	ND	ND	ND	ND
42852	2014-12-18T11:00:00	ND	ND	ND	ND	ND	ND	ND	ND	ND	ND	ND	ND
42853	2014-12-18T12:00:00	ND	ND	ND	ND	ND	ND	ND	ND	ND	ND	ND	ND
42854	2014-12-18T13:00:00	ND	ND	ND	ND	ND	ND	ND	ND	ND	ND	ND	ND
42855	2014-12-18T14:00:00	ND	ND	ND	ND	ND	ND	ND	ND	ND	ND	ND	ND
42856	2014-12-18T15:00:00	ND	ND	ND	ND	ND	ND	ND	ND	ND	ND	ND	ND
42857	2014-12-18T16:00:00	ND	ND	ND	ND	ND	ND	ND	ND	ND	ND	ND	ND
42858	2014-12-18T17:00:00	ND	ND	ND	ND	ND	ND	ND	ND	ND	ND	ND	ND
42859	2014-12-18T18:00:00	ND	ND	ND	ND	ND	ND	ND	ND	ND	ND	ND	ND
42860	2014-12-18T19:00:00	ND	ND	ND	ND	ND	ND	ND	ND	ND	ND	ND	ND
42861	2014-12-18T20:00:00	ND	ND	ND	ND	ND	ND	ND	ND	ND	ND	ND	ND
42862	2014-12-18T21:00:00	ND	ND	ND	ND	ND	ND	ND	ND	ND	ND	ND	ND
42863	2014-12-18T22:00:00	ND	ND	ND	ND	ND	ND	ND	ND	ND	ND	ND	ND
42864	2014-12-18T23:00:00	ND	ND	ND	ND	ND	ND	ND	ND	ND	ND	ND	ND
42865	2014-12-19T00:00:00	ND	ND	ND	ND	ND	ND	ND	ND	ND	ND	ND	ND
42866	2014-12-19T01:00:00	ND	ND	ND	ND	ND	ND	ND	ND	ND	ND	ND	ND
42867	2014-12-19T02:00:00	ND	ND	ND	ND	ND	ND	ND	ND	ND	ND	ND	ND
42868	2014-12-19T03:00:00	ND	ND	ND	ND	ND	ND	ND	ND	ND	ND	ND	ND
42869	2014-12-19T04:00:00	ND	ND	ND	ND	ND	ND	ND	ND	ND	ND	ND	ND
42870	2014-12-19T05:00:00	ND	ND	ND	ND	ND	ND	ND	ND	ND	ND	ND	ND
42871	2014-12-19T06:00:00	ND	ND	ND	ND	ND	ND	ND	ND	ND	ND	ND	ND
42872	2014-12-19T07:00:00	ND	ND	ND	ND	ND	ND	ND	ND	ND	ND	ND	ND
42873	2014-12-19T08:00:00	ND	ND	ND	ND	ND	ND	ND	ND	ND	ND	ND	ND
42874	2014-12-19T09:00:00	ND	ND	ND	ND	ND	ND	ND	ND	ND	ND	ND	ND
42875	2014-12-19T10:00:00	ND	ND	ND	ND	ND	ND	ND	ND	ND	ND	ND	ND
42876	2014-12-19T11:00:00	ND	ND	ND	ND	ND	ND	ND	ND	ND	ND	ND	ND
42877	2014-12-19T12:00:00	ND	ND	ND	ND	ND	ND	ND	ND	ND	ND	ND	ND
42878	2014-12-19T13:00:00	ND	ND	ND	ND	ND	ND	ND	ND	ND	ND	ND	ND
42879	2014-12-19T14:00:00	ND	ND	ND	ND	ND	ND	ND	ND	ND	ND	ND	ND
42880	2014-12-19T15:00:00	ND	ND	ND	ND	ND	ND	ND	ND	ND	ND	ND	ND
42881	2014-12-19T16:00:00	ND	ND	ND	ND	ND	ND	ND	ND	ND	ND	ND	ND
42882	2014-12-19T17:00:00	ND	ND	ND	ND	ND	ND	ND	ND	ND	ND	ND	ND
42883	2014-12-19T18:00:00	ND	ND	ND	ND	ND	ND	ND	ND	ND	ND	ND	ND
42884	2014-12-19T19:00:00	ND	ND	ND	ND	ND	ND	ND	ND	ND	ND	ND	ND
42885	2014-12-19T20:00:00	ND	ND	ND	ND	ND	ND	ND	ND	ND	ND	ND	ND
42886	2014-12-19T21:00:00	ND	ND	ND	ND	ND	ND	ND	ND	ND	ND	ND	ND
42887	2014-12-19T22:00:00	ND	ND	ND	ND	ND	ND	ND	ND	ND	ND	ND	ND
42888	2014-12-19T23:00:00	ND	ND	ND	ND	ND	ND	ND	ND	ND	ND	ND	ND
42889	2014-12-20T00:00:00	ND	ND	ND	ND	ND	ND	ND	ND	ND	ND	ND	ND
42890	2014-12-20T01:00:00	ND	ND	ND	ND	ND	ND	ND	ND	ND	ND	ND	ND
42891	2014-12-20T02:00:00	ND	ND	ND	ND	ND	ND	ND	ND	ND	ND	ND	ND
42892	2014-12-20T03:00:00	ND	ND	ND	ND	ND	ND	ND	ND	ND	ND	ND	ND
42893	2014-12-20T04:00:00	ND	ND	ND	ND	ND	ND	ND	ND	ND	ND	ND	ND
42894	2014-12-20T05:00:00	ND	ND	ND	ND	ND	ND	ND	ND	ND	ND	ND	ND
42895	2014-12-20T06:00:00	ND	ND	ND	ND	ND	ND	ND	ND	ND	ND	ND	ND
42896	2014-12-20T07:00:00	ND	ND	ND	ND	ND	ND	ND	ND	ND	ND	ND	ND
42897	2014-12-20T08:00:00	ND	ND	ND	ND	ND	ND	ND	ND	ND	ND	ND	ND
42898	2014-12-20T09:00:00	ND	ND	ND	ND	ND	ND	ND	ND	ND	ND	ND	ND
42899	2014-12-20T10:00:00	ND	ND	ND	ND	ND	ND	ND	ND	ND	ND	ND	ND
42900	2014-12-20T11:00:00	ND	ND	ND	ND	ND	ND	ND	ND	ND	ND	ND	ND
42901	2014-12-20T12:00:00	ND	ND	ND	ND	ND	ND	ND	ND	ND	ND	ND	ND
42902	2014-12-20T13:00:00	ND	ND	ND	ND	ND	ND	ND	ND	ND	ND	ND	ND
42903	2014-12-20T14:00:00	ND	ND	ND	ND	ND	ND	ND	ND	ND	ND	ND	ND
42904	2014-12-20T15:00:00	ND	ND	ND	ND	ND	ND	ND	ND	ND	ND	ND	ND
42905	2014-12-20T16:00:00	ND	ND	ND	ND	ND	ND	ND	ND	ND	ND	ND	ND
42906	2014-12-20T17:00:00	ND	ND	ND	ND	ND	ND	ND	ND	ND	ND	ND	ND
42907	2014-12-20T18:00:00	ND	ND	ND	ND	ND	ND	ND	ND	ND	ND	ND	ND
42908	2014-12-20T19:00:00	ND	ND	ND	ND	ND	ND	ND	ND	ND	ND	ND	ND
42909	2014-12-20T20:00:00	ND	ND	ND	ND	ND	ND	ND	ND	ND	ND	ND	ND
42910	2014-12-20T21:00:00	ND	ND	ND	ND	ND	ND	ND	ND	ND	ND	ND	ND
42911	2014-12-20T22:00:00	ND	ND	ND	ND	ND	ND	ND	ND	ND	ND	ND	ND
42912	2014-12-20T23:00:00	ND	ND	ND	ND	ND	ND	ND	ND	ND	ND	ND	ND
42913	2014-12-21T00:00:00	ND	ND	ND	ND	ND	ND	ND	ND	ND	ND	ND	ND
42914	2014-12-21T01:00:00	ND	ND	ND	ND	ND	ND	ND	ND	ND	ND	ND	ND
42915	2014-12-21T02:00:00	ND	ND	ND	ND	ND	ND	ND	ND	ND	ND	ND	ND
42916	2014-12-21T03:00:00	ND	ND	ND	ND	ND	ND	ND	ND	ND	ND	ND	ND
42917	2014-12-21T04:00:00	ND	ND	ND	ND	ND	ND	ND	ND	ND	ND	ND	ND
42918	2014-12-21T05:00:00	ND	ND	ND	ND	ND	ND	ND	ND	ND	ND	ND	ND
42919	2014-12-21T06:00:00	ND	ND	ND	ND	ND	ND	ND	ND	ND	ND	ND	ND
42920	2014-12-21T07:00:00	ND	ND	ND	ND	ND	ND	ND	ND	ND	ND	ND	ND
42921	2014-12-21T08:00:00	ND	ND	ND	ND	ND	ND	ND	ND	ND	ND	ND	ND
42922	2014-12-21T09:00:00	ND	ND	ND	ND	ND	ND	ND	ND	ND	ND	ND	ND
42923	2014-12-21T10:00:00	ND	ND	ND	ND	ND	ND	ND	ND	ND	ND	ND	ND
42924	2014-12-21T11:00:00	ND	ND	ND	ND	ND	ND	ND	ND	ND	ND	ND	ND
42925	2014-12-21T12:00:00	ND	ND	ND	ND	ND	ND	ND	ND	ND	ND	ND	ND
42926	2014-12-21T13:00:00	ND	ND	ND	ND	ND	ND	ND	ND	ND	ND	ND	ND
42927	2014-12-21T14:00:00	ND	ND	ND	ND	ND	ND	ND	ND	ND	ND	ND	ND
42928	2014-12-21T15:00:00	ND	ND	ND	ND	ND	ND	ND	ND	ND	ND	ND	ND
42929	2014-12-21T16:00:00	ND	ND	ND	ND	ND	ND	ND	ND	ND	ND	ND	ND
42930	2014-12-21T17:00:00	ND	ND	ND	ND	ND	ND	ND	ND	ND	ND	ND	ND
42931	2014-12-21T18:00:00	ND	ND	ND	ND	ND	ND	ND	ND	ND	ND	ND	ND
42932	2014-12-21T19:00:00	ND	ND	ND	ND	ND	ND	ND	ND	ND	ND	ND	ND
42933	2014-12-21T20:00:00	ND	ND	ND	ND	ND	ND	ND	ND	ND	ND	ND	ND
42934	2014-12-21T21:00:00	ND	ND	ND	ND	ND	ND	ND	ND	ND	ND	ND	ND
42935	2014-12-21T22:00:00	ND	ND	ND	ND	ND	ND	ND	ND	ND	ND	ND	ND
42936	2014-12-21T23:00:00	ND	ND	ND	ND	ND	ND	ND	ND	ND	ND	ND	ND
42937	2014-12-22T00:00:00	ND	ND	ND	ND	ND	ND	ND	ND	ND	ND	ND	ND
42938	2014-12-22T01:00:00	ND	ND	ND	ND	ND	ND	ND	ND	ND	ND	ND	ND
42939	2014-12-22T02:00:00	ND	ND	ND	ND	ND	ND	ND	ND	ND	ND	ND	ND
42940	2014-12-22T03:00:00	ND	ND	ND	ND	ND	ND	ND	ND	ND	ND	ND	ND
42941	2014-12-22T04:00:00	ND	ND	ND	ND	ND	ND	ND	ND	ND	ND	ND	ND
42942	2014-12-22T05:00:00	ND	ND	ND	ND	ND	ND	ND	ND	ND	ND	ND	ND
42943	2014-12-22T06:00:00	ND	ND	ND	ND	ND	ND	ND	ND	ND	ND	ND	ND
42944	2014-12-22T07:00:00	ND	ND	ND	ND	ND	ND	ND	ND	ND	ND	ND	ND
42945	2014-12-22T08:00:00	ND	ND	ND	ND	ND	ND	ND	ND	ND	ND	ND	ND
42946	2014-12-22T09:00:00	ND	ND	ND	ND	ND	ND	ND	ND	ND	ND	ND	ND
42947	2014-12-22T10:00:00	ND	ND	ND	ND	ND	ND	ND	ND	ND	ND	ND	ND
42948	2014-12-22T11:00:00	ND	ND	ND	ND	ND	ND	ND	ND	ND	ND	ND	ND
42949	2014-12-22T12:00:00	ND	ND	ND	ND	ND	ND	ND	ND	ND	ND	ND	ND
42950	2014-12-22T13:00:00	ND	ND	ND	ND	ND	ND	ND	ND	ND	ND	ND	ND
42951	2014-12-22T14:00:00	ND	ND	ND	ND	ND	ND	ND	ND	ND	ND	ND	ND
42952	2014-12-22T15:00:00	ND	ND	ND	ND	ND	ND	ND	ND	ND	ND	ND	ND
42953	2014-12-22T16:00:00	ND	ND	ND	ND	ND	ND	ND	ND	ND	ND	ND	ND
42954	2014-12-22T17:00:00	ND	ND	ND	ND	ND	ND	ND	ND	ND	ND	ND	ND
42955	2014-12-22T18:00:00	ND	ND	ND	ND	ND	ND	ND	ND	ND	ND	ND	ND
42956	2014-12-22T19:00:00	ND	ND	ND	ND	ND	ND	ND	ND	ND	ND	ND	ND
42957	2014-12-22T20:00:00	ND	ND	ND	ND	ND	ND	ND	ND	ND	ND	ND	ND
42958	2014-12-22T21:00:00	ND	ND	ND	ND	ND	ND	ND	ND	ND	ND	ND	ND
42959	2014-12-22T22:00:00	ND	ND	ND	ND	ND	ND	ND	ND	ND	ND	ND	ND
42960	2014-12-22T23:00:00	ND	ND	ND	ND	ND	ND	ND	ND	ND	ND	ND	ND
42961	2014-12-23T00:00:00	ND	ND	ND	ND	ND	ND	ND	ND	ND	ND	ND	ND
42962	2014-12-23T01:00:00	ND	ND	ND	ND	ND	ND	ND	ND	ND	ND	ND	ND
42963	2014-12-23T02:00:00	ND	ND	ND	ND	ND	ND	ND	ND	ND	ND	ND	ND
42964	2014-12-23T03:00:00	ND	ND	ND	ND	ND	ND	ND	ND	ND	ND	ND	ND
42965	2014-12-23T04:00:00	ND	ND	ND	ND	ND	ND	ND	ND	ND	ND	ND	ND
42966	2014-12-23T05:00:00	ND	ND	ND	ND	ND	ND	ND	ND	ND	ND	ND	ND
42967	2014-12-23T06:00:00	ND	ND	ND	ND	ND	ND	ND	ND	ND	ND	ND	ND
42968	2014-12-23T07:00:00	ND	ND	ND	ND	ND	ND	ND	ND	ND	ND	ND	ND
42969	2014-12-23T08:00:00	ND	ND	ND	ND	ND	ND	ND	ND	ND	ND	ND	ND
42970	2014-12-23T09:00:00	ND	ND	ND	ND	ND	ND	ND	ND	ND	ND	ND	ND
42971	2014-12-23T10:00:00	ND	ND	ND	ND	ND	ND	ND	ND	ND	ND	ND	ND
42972	2014-12-23T11:00:00	ND	ND	ND	ND	ND	ND	ND	ND	ND	ND	ND	ND
42973	2014-12-23T12:00:00	ND	ND	ND	ND	ND	ND	ND	ND	ND	ND	ND	ND
42974	2014-12-23T13:00:00	ND	ND	ND	ND	ND	ND	ND	ND	ND	ND	ND	ND
42975	2014-12-23T14:00:00	ND	ND	ND	ND	ND	ND	ND	ND	ND	ND	ND	ND
42976	2014-12-23T15:00:00	ND	ND	ND	ND	ND	ND	ND	ND	ND	ND	ND	ND
42977	2014-12-23T16:00:00	ND	ND	ND	ND	ND	ND	ND	ND	ND	ND	ND	ND
42978	2014-12-23T17:00:00	ND	ND	ND	ND	ND	ND	ND	ND	ND	ND	ND	ND
42979	2014-12-23T18:00:00	ND	ND	ND	ND	ND	ND	ND	ND	ND	ND	ND	ND
42980	2014-12-23T19:00:00	ND	ND	ND	ND	ND	ND	ND	ND	ND	ND	ND	ND
42981	2014-12-23T20:00:00	ND	ND	ND	ND	ND	ND	ND	ND	ND	ND	ND	ND
42982	2014-12-23T21:00:00	ND	ND	ND	ND	ND	ND	ND	ND	ND	ND	ND	ND
42983	2014-12-23T22:00:00	ND	ND	ND	ND	ND	ND	ND	ND	ND	ND	ND	ND
42984	2014-12-23T23:00:00	ND	ND	ND	ND	ND	ND	ND	ND	ND	ND	ND	ND
42985	2014-12-24T00:00:00	ND	ND	ND	ND	ND	ND	ND	ND	ND	ND	ND	ND
42986	2014-12-24T01:00:00	ND	ND	ND	ND	ND	ND	ND	ND	ND	ND	ND	ND
42987	2014-12-24T02:00:00	ND	ND	ND	ND	ND	ND	ND	ND	ND	ND	ND	ND
42988	2014-12-24T03:00:00	ND	ND	ND	ND	ND	ND	ND	ND	ND	ND	ND	ND
42989	2014-12-24T04:00:00	ND	ND	ND	ND	ND	ND	ND	ND	ND	ND	ND	ND
42990	2014-12-24T05:00:00	ND	ND	ND	ND	ND	ND	ND	ND	ND	ND	ND	ND
42991	2014-12-24T06:00:00	ND	ND	ND	ND	ND	ND	ND	ND	ND	ND	ND	ND
42992	2014-12-24T07:00:00	ND	ND	ND	ND	ND	ND	ND	ND	ND	ND	ND	ND
42993	2014-12-24T08:00:00	ND	ND	ND	ND	ND	ND	ND	ND	ND	ND	ND	ND
42994	2014-12-24T09:00:00	ND	ND	ND	ND	ND	ND	ND	ND	ND	ND	ND	ND
42995	2014-12-24T10:00:00	ND	ND	ND	ND	ND	ND	ND	ND	ND	ND	ND	ND
42996	2014-12-24T11:00:00	ND	ND	ND	ND	ND	ND	ND	ND	ND	ND	ND	ND
42997	2014-12-24T12:00:00	ND	ND	ND	ND	ND	ND	ND	ND	ND	ND	ND	ND
42998	2014-12-24T13:00:00	ND	ND	ND	ND	ND	ND	ND	ND	ND	ND	ND	ND
42999	2014-12-24T14:00:00	ND	ND	ND	ND	ND	ND	ND	ND	ND	ND	ND	ND
43000	2014-12-24T15:00:00	ND	ND	ND	ND	ND	ND	ND	ND	ND	ND	ND	ND
43001	2014-12-24T16:00:00	ND	ND	ND	ND	ND	ND	ND	ND	ND	ND	ND	ND
43002	2014-12-24T17:00:00	ND	ND	ND	ND	ND	ND	ND	ND	ND	ND	ND	ND
43003	2014-12-24T18:00:00	ND	ND	ND	ND	ND	ND	ND	ND	ND	ND	ND	ND
43004	2014-12-24T19:00:00	ND	ND	ND	ND	ND	ND	ND	ND	ND	ND	ND	ND
43005	2014-12-24T20:00:00	ND	ND	ND	ND	ND	ND	ND	ND	ND	ND	ND	ND
43006	2014-12-24T21:00:00	ND	ND	ND	ND	ND	ND	ND	ND	ND	ND	ND	ND
43007	2014-12-24T22:00:00	ND	ND	ND	ND	ND	ND	ND	ND	ND	ND	ND	ND
43008	2014-12-24T23:00:00	ND	ND	ND	ND	ND	ND	ND	ND	ND	ND	ND	ND
43009	2014-12-25T00:00:00	ND	ND	ND	ND	ND	ND	ND	ND	ND	ND	ND	ND
43010	2014-12-25T01:00:00	ND	ND	ND	ND	ND	ND	ND	ND	ND	ND	ND	ND
43011	2014-12-25T02:00:00	ND	ND	ND	ND	ND	ND	ND	ND	ND	ND	ND	ND
43012	2014-12-25T03:00:00	ND	ND	ND	ND	ND	ND	ND	ND	ND	ND	ND	ND
43013	2014-12-25T04:00:00	ND	ND	ND	ND	ND	ND	ND	ND	ND	ND	ND	ND
43014	2014-12-25T05:00:00	ND	ND	ND	ND	ND	ND	ND	ND	ND	ND	ND	ND
43015	2014-12-25T06:00:00	ND	ND	ND	ND	ND	ND	ND	ND	ND	ND	ND	ND
43016	2014-12-25T07:00:00	ND	ND	ND	ND	ND	ND	ND	ND	ND	ND	ND	ND
43017	2014-12-25T08:00:00	ND	ND	ND	ND	ND	ND	ND	ND	ND	ND	ND	ND
43018	2014-12-25T09:00:00	ND	ND	ND	ND	ND	ND	ND	ND	ND	ND	ND	ND
43019	2014-12-25T10:00:00	ND	ND	ND	ND	ND	ND	ND	ND	ND	ND	ND	ND
43020	2014-12-25T11:00:00	ND	ND	ND	ND	ND	ND	ND	ND	ND	ND	ND	ND
43021	2014-12-25T12:00:00	ND	ND	ND	ND	ND	ND	ND	ND	ND	ND	ND	ND
43022	2014-12-25T13:00:00	ND	ND	ND	ND	ND	ND	ND	ND	ND	ND	ND	ND
43023	2014-12-25T14:00:00	ND	ND	ND	ND	ND	ND	ND	ND	ND	ND	ND	ND
43024	2014-12-25T15:00:00	ND	ND	ND	ND	ND	ND	ND	ND	ND	ND	ND	ND
43025	2014-12-25T16:00:00	ND	ND	ND	ND	ND	ND	ND	ND	ND	ND	ND	ND
43026	2014-12-25T17:00:00	ND	ND	ND	ND	ND	ND	ND	ND	ND	ND	ND	ND
43027	2014-12-25T18:00:00	ND	ND	ND	ND	ND	ND	ND	ND	ND	ND	ND	ND
43028	2014-12-25T19:00:00	ND	ND	ND	ND	ND	ND	ND	ND	ND	ND	ND	ND
43029	2014-12-25T20:00:00	ND	ND	ND	ND	ND	ND	ND	ND	ND	ND	ND	ND
43030	2014-12-25T21:00:00	ND	ND	ND	ND	ND	ND	ND	ND	ND	ND	ND	ND
43031	2014-12-25T22:00:00	ND	ND	ND	ND	ND	ND	ND	ND	ND	ND	ND	ND
43032	2014-12-25T23:00:00	ND	ND	ND	ND	ND	ND	ND	ND	ND	ND	ND	ND
43033	2014-12-26T00:00:00	ND	ND	ND	ND	ND	ND	ND	ND	ND	ND	ND	ND
43034	2014-12-26T01:00:00	ND	ND	ND	ND	ND	ND	ND	ND	ND	ND	ND	ND
43035	2014-12-26T02:00:00	ND	ND	ND	ND	ND	ND	ND	ND	ND	ND	ND	ND
43036	2014-12-26T03:00:00	ND	ND	ND	ND	ND	ND	ND	ND	ND	ND	ND	ND
43037	2014-12-26T04:00:00	ND	ND	ND	ND	ND	ND	ND	ND	ND	ND	ND	ND
43038	2014-12-26T05:00:00	ND	ND	ND	ND	ND	ND	ND	ND	ND	ND	ND	ND
43039	2014-12-26T06:00:00	ND	ND	ND	ND	ND	ND	ND	ND	ND	ND	ND	ND
43040	2014-12-26T07:00:00	ND	ND	ND	ND	ND	ND	ND	ND	ND	ND	ND	ND
43041	2014-12-26T08:00:00	ND	ND	ND	ND	ND	ND	ND	ND	ND	ND	ND	ND
43042	2014-12-26T09:00:00	ND	ND	ND	ND	ND	ND	ND	ND	ND	ND	ND	ND
43043	2014-12-26T10:00:00	ND	ND	ND	ND	ND	ND	ND	ND	ND	ND	ND	ND
43044	2014-12-26T11:00:00	ND	ND	ND	ND	ND	ND	ND	ND	ND	ND	ND	ND
43045	2014-12-26T12:00:00	ND	ND	ND	ND	ND	ND	ND	ND	ND	ND	ND	ND
43046	2014-12-26T13:00:00	ND	ND	ND	ND	ND	ND	ND	ND	ND	ND	ND	ND
43047	2014-12-26T14:00:00	ND	ND	ND	ND	ND	ND	ND	ND	ND	ND	ND	ND
43048	2014-12-26T15:00:00	ND	ND	ND	ND	ND	ND	ND	ND	ND	ND	ND	ND
43049	2014-12-26T16:00:00	ND	ND	ND	ND	ND	ND	ND	ND	ND	ND	ND	ND
43050	2014-12-26T17:00:00	ND	ND	ND	ND	ND	ND	ND	ND	ND	ND	ND	ND
43051	2014-12-26T18:00:00	ND	ND	ND	ND	ND	ND	ND	ND	ND	ND	ND	ND
43052	2014-12-26T19:00:00	ND	ND	ND	ND	ND	ND	ND	ND	ND	ND	ND	ND
43053	2014-12-26T20:00:00	ND	ND	ND	ND	ND	ND	ND	ND	ND	ND	ND	ND
43054	2014-12-26T21:00:00	ND	ND	ND	ND	ND	ND	ND	ND	ND	ND	ND	ND
43055	2014-12-26T22:00:00	ND	ND	ND	ND	ND	ND	ND	ND	ND	ND	ND	ND
43056	2014-12-26T23:00:00	ND	ND	ND	ND	ND	ND	ND	ND	ND	ND	ND	ND
43057	2014-12-27T00:00:00	ND	ND	ND	ND	ND	ND	ND	ND	ND	ND	ND	ND
43058	2014-12-27T01:00:00	ND	ND	ND	ND	ND	ND	ND	ND	ND	ND	ND	ND
43059	2014-12-27T02:00:00	ND	ND	ND	ND	ND	ND	ND	ND	ND	ND	ND	ND
43060	2014-12-27T03:00:00	ND	ND	ND	ND	ND	ND	ND	ND	ND	ND	ND	ND
43061	2014-12-27T04:00:00	ND	ND	ND	ND	ND	ND	ND	ND	ND	ND	ND	ND
43062	2014-12-27T05:00:00	ND	ND	ND	ND	ND	ND	ND	ND	ND	ND	ND	ND
43063	2014-12-27T06:00:00	ND	ND	ND	ND	ND	ND	ND	ND	ND	ND	ND	ND
43064	2014-12-27T07:00:00	ND	ND	ND	ND	ND	ND	ND	ND	ND	ND	ND	ND
43065	2014-12-27T08:00:00	ND	ND	ND	ND	ND	ND	ND	ND	ND	ND	ND	ND
43066	2014-12-27T09:00:00	ND	ND	ND	ND	ND	ND	ND	ND	ND	ND	ND	ND
43067	2014-12-27T10:00:00	ND	ND	ND	ND	ND	ND	ND	ND	ND	ND	ND	ND
43068	2014-12-27T11:00:00	ND	ND	ND	ND	ND	ND	ND	ND	ND	ND	ND	ND
43069	2014-12-27T12:00:00	ND	ND	ND	ND	ND	ND	ND	ND	ND	ND	ND	ND
43070	2014-12-27T13:00:00	ND	ND	ND	ND	ND	ND	ND	ND	ND	ND	ND	ND
43071	2014-12-27T14:00:00	ND	ND	ND	ND	ND	ND	ND	ND	ND	ND	ND	ND
43072	2014-12-27T15:00:00	ND	ND	ND	ND	ND	ND	ND	ND	ND	ND	ND	ND
43073	2014-12-27T16:00:00	ND	ND	ND	ND	ND	ND	ND	ND	ND	ND	ND	ND
43074	2014-12-27T17:00:00	ND	ND	ND	ND	ND	ND	ND	ND	ND	ND	ND	ND
43075	2014-12-27T18:00:00	ND	ND	ND	ND	ND	ND	ND	ND	ND	ND	ND	ND
43076	2014-12-27T19:00:00	ND	ND	ND	ND	ND	ND	ND	ND	ND	ND	ND	ND
43077	2014-12-27T20:00:00	ND	ND	ND	ND	ND	ND	ND	ND	ND	ND	ND	ND
43078	2014-12-27T21:00:00	ND	ND	ND	ND	ND	ND	ND	ND	ND	ND	ND	ND
43079	2014-12-27T22:00:00	ND	ND	ND	ND	ND	ND	ND	ND	ND	ND	ND	ND
43080	2014-12-27T23:00:00	ND	ND	ND	ND	ND	ND	ND	ND	ND	ND	ND	ND
43081	2014-12-28T00:00:00	ND	ND	ND	ND	ND	ND	ND	ND	ND	ND	ND	ND
43082	2014-12-28T01:00:00	ND	ND	ND	ND	ND	ND	ND	ND	ND	ND	ND	ND
43083	2014-12-28T02:00:00	ND	ND	ND	ND	ND	ND	ND	ND	ND	ND	ND	ND
43084	2014-12-28T03:00:00	ND	ND	ND	ND	ND	ND	ND	ND	ND	ND	ND	ND
43085	2014-12-28T04:00:00	ND	ND	ND	ND	ND	ND	ND	ND	ND	ND	ND	ND
43086	2014-12-28T05:00:00	ND	ND	ND	ND	ND	ND	ND	ND	ND	ND	ND	ND
43087	2014-12-28T06:00:00	ND	ND	ND	ND	ND	ND	ND	ND	ND	ND	ND	ND
43088	2014-12-28T07:00:00	ND	ND	ND	ND	ND	ND	ND	ND	ND	ND	ND	ND
43089	2014-12-28T08:00:00	ND	ND	ND	ND	ND	ND	ND	ND	ND	ND	ND	ND
43090	2014-12-28T09:00:00	ND	ND	ND	ND	ND	ND	ND	ND	ND	ND	ND	ND
43091	2014-12-28T10:00:00	ND	ND	ND	ND	ND	ND	ND	ND	ND	ND	ND	ND
43092	2014-12-28T11:00:00	ND	ND	ND	ND	ND	ND	ND	ND	ND	ND	ND	ND
43093	2014-12-28T12:00:00	ND	ND	ND	ND	ND	ND	ND	ND	ND	ND	ND	ND
43094	2014-12-28T13:00:00	ND	ND	ND	ND	ND	ND	ND	ND	ND	ND	ND	ND
43095	2014-12-28T14:00:00	ND	ND	ND	ND	ND	ND	ND	ND	ND	ND	ND	ND
43096	2014-12-28T15:00:00	ND	ND	ND	ND	ND	ND	ND	ND	ND	ND	ND	ND
43097	2014-12-28T16:00:00	ND	ND	ND	ND	ND	ND	ND	ND	ND	ND	ND	ND
43098	2014-12-28T17:00:00	ND	ND	ND	ND	ND	ND	ND	ND	ND	ND	ND	ND
43099	2014-12-28T18:00:00	ND	ND	ND	ND	ND	ND	ND	ND	ND	ND	ND	ND
43100	2014-12-28T19:00:00	ND	ND	ND	ND	ND	ND	ND	ND	ND	ND	ND	ND
43101	2014-12-28T20:00:00	ND	ND	ND	ND	ND	ND	ND	ND	ND	ND	ND	ND
43102	2014-12-28T21:00:00	ND	ND	ND	ND	ND	ND	ND	ND	ND	ND	ND	ND
43103	2014-12-28T22:00:00	ND	ND	ND	ND	ND	ND	ND	ND	ND	ND	ND	ND
43104	2014-12-28T23:00:00	ND	ND	ND	ND	ND	ND	ND	ND	ND	ND	ND	ND
43105	2014-12-29T00:00:00	ND	ND	ND	ND	ND	ND	ND	ND	ND	ND	ND	ND
43106	2014-12-29T01:00:00	ND	ND	ND	ND	ND	ND	ND	ND	ND	ND	ND	ND
43107	2014-12-29T02:00:00	ND	ND	ND	ND	ND	ND	ND	ND	ND	ND	ND	ND
43108	2014-12-29T03:00:00	ND	ND	ND	ND	ND	ND	ND	ND	ND	ND	ND	ND
43109	2014-12-29T04:00:00	ND	ND	ND	ND	ND	ND	ND	ND	ND	ND	ND	ND
43110	2014-12-29T05:00:00	ND	ND	ND	ND	ND	ND	ND	ND	ND	ND	ND	ND
43111	2014-12-29T06:00:00	ND	ND	ND	ND	ND	ND	ND	ND	ND	ND	ND	ND
43112	2014-12-29T07:00:00	ND	ND	ND	ND	ND	ND	ND	ND	ND	ND	ND	ND
43113	2014-12-29T08:00:00	ND	ND	ND	ND	ND	ND	ND	ND	ND	ND	ND	ND
43114	2014-12-29T09:00:00	ND	ND	ND	ND	ND	ND	ND	ND	ND	ND	ND	ND
43115	2014-12-29T10:00:00	ND	ND	ND	ND	ND	ND	ND	ND	ND	ND	ND	ND
43116	2014-12-29T11:00:00	ND	ND	ND	ND	ND	ND	ND	ND	ND	ND	ND	ND
43117	2014-12-29T12:00:00	ND	ND	ND	ND	ND	ND	ND	ND	ND	ND	ND	ND
43118	2014-12-29T13:00:00	ND	ND	ND	ND	ND	ND	ND	ND	ND	ND	ND	ND
43119	2014-12-29T14:00:00	ND	ND	ND	ND	ND	ND	ND	ND	ND	ND	ND	ND
43120	2014-12-29T15:00:00	ND	ND	ND	ND	ND	ND	ND	ND	ND	ND	ND	ND
43121	2014-12-29T16:00:00	ND	ND	ND	ND	ND	ND	ND	ND	ND	ND	ND	ND
43122	2014-12-29T17:00:00	ND	ND	ND	ND	ND	ND	ND	ND	ND	ND	ND	ND
43123	2014-12-29T18:00:00	ND	ND	ND	ND	ND	ND	ND	ND	ND	ND	ND	ND
43124	2014-12-29T19:00:00	ND	ND	ND	ND	ND	ND	ND	ND	ND	ND	ND	ND
43125	2014-12-29T20:00:00	ND	ND	ND	ND	ND	ND	ND	ND	ND	ND	ND	ND
43126	2014-12-29T21:00:00	ND	ND	ND	ND	ND	ND	ND	ND	ND	ND	ND	ND
43127	2014-12-29T22:00:00	ND	ND	ND	ND	ND	ND	ND	ND	ND	ND	ND	ND
43128	2014-12-29T23:00:00	ND	ND	ND	ND	ND	ND	ND	ND	ND	ND	ND	ND
43129	2014-12-30T00:00:00	ND	ND	ND	ND	ND	ND	ND	ND	ND	ND	ND	ND
43130	2014-12-30T01:00:00	ND	ND	ND	ND	ND	ND	ND	ND	ND	ND	ND	ND
43131	2014-12-30T02:00:00	ND	ND	ND	ND	ND	ND	ND	ND	ND	ND	ND	ND
43132	2014-12-30T03:00:00	ND	ND	ND	ND	ND	ND	ND	ND	ND	ND	ND	ND
43133	2014-12-30T04:00:00	ND	ND	ND	ND	ND	ND	ND	ND	ND	ND	ND	ND
43134	2014-12-30T05:00:00	ND	ND	ND	ND	ND	ND	ND	ND	ND	ND	ND	ND
43135	2014-12-30T06:00:00	ND	ND	ND	ND	ND	ND	ND	ND	ND	ND	ND	ND
43136	2014-12-30T07:00:00	ND	ND	ND	ND	ND	ND	ND	ND	ND	ND	ND	ND
43137	2014-12-30T08:00:00	ND	ND	ND	ND	ND	ND	ND	ND	ND	ND	ND	ND
43138	2014-12-30T09:00:00	ND	ND	ND	ND	ND	ND	ND	ND	ND	ND	ND	ND
43139	2014-12-30T10:00:00	ND	ND	ND	ND	ND	ND	ND	ND	ND	ND	ND	ND
43140	2014-12-30T11:00:00	ND	ND	ND	ND	ND	ND	ND	ND	ND	ND	ND	ND
43141	2014-12-30T12:00:00	ND	ND	ND	ND	ND	ND	ND	ND	ND	ND	ND	ND
43142	2014-12-30T13:00:00	ND	ND	ND	ND	ND	ND	ND	ND	ND	ND	ND	ND
43143	2014-12-30T14:00:00	ND	ND	ND	ND	ND	ND	ND	ND	ND	ND	ND	ND
43144	2014-12-30T15:00:00	ND	ND	ND	ND	ND	ND	ND	ND	ND	ND	ND	ND
43145	2014-12-30T16:00:00	ND	ND	ND	ND	ND	ND	ND	ND	ND	ND	ND	ND
43146	2014-12-30T17:00:00	ND	ND	ND	ND	ND	ND	ND	ND	ND	ND	ND	ND
43147	2014-12-30T18:00:00	ND	ND	ND	ND	ND	ND	ND	ND	ND	ND	ND	ND
43148	2014-12-30T19:00:00	ND	ND	ND	ND	ND	ND	ND	ND	ND	ND	ND	ND
43149	2014-12-30T20:00:00	ND	ND	ND	ND	ND	ND	ND	ND	ND	ND	ND	ND
43150	2014-12-30T21:00:00	ND	ND	ND	ND	ND	ND	ND	ND	ND	ND	ND	ND
43151	2014-12-30T22:00:00	ND	ND	ND	ND	ND	ND	ND	ND	ND	ND	ND	ND
43152	2014-12-30T23:00:00	ND	ND	ND	ND	ND	ND	ND	ND	ND	ND	ND	ND
43153	2014-12-31T00:00:00	ND	ND	ND	ND	ND	ND	ND	ND	ND	ND	ND	ND
43154	2014-12-31T01:00:00	ND	ND	ND	ND	ND	ND	ND	ND	ND	ND	ND	ND
43155	2014-12-31T02:00:00	ND	ND	ND	ND	ND	ND	ND	ND	ND	ND	ND	ND
43156	2014-12-31T03:00:00	ND	ND	ND	ND	ND	ND	ND	ND	ND	ND	ND	ND
43157	2014-12-31T04:00:00	ND	ND	ND	ND	ND	ND	ND	ND	ND	ND	ND	ND
43158	2014-12-31T05:00:00	ND	ND	ND	ND	ND	ND	ND	ND	ND	ND	ND	ND
43159	2014-12-31T06:00:00	ND	ND	ND	ND	ND	ND	ND	ND	ND	ND	ND	ND
43160	2014-12-31T07:00:00	ND	ND	ND	ND	ND	ND	ND	ND	ND	ND	ND	ND
43161	2014-12-31T08:00:00	ND	ND	ND	ND	ND	ND	ND	ND	ND	ND	ND	ND
43162	2014-12-31T09:00:00	ND	ND	ND	ND	ND	ND	ND	ND	ND	ND	ND	ND
43163	2014-12-31T10:00:00	ND	ND	ND	ND	ND	ND	ND	ND	ND	ND	ND	ND
43164	2014-12-31T11:00:00	ND	ND	ND	ND	ND	ND	ND	ND	ND	ND	ND	ND
43165	2014-12-31T12:00:00	ND	ND	ND	ND	ND	ND	ND	ND	ND	ND	ND	ND
43166	2014-12-31T13:00:00	ND	ND	ND	ND	ND	ND	ND	ND	ND	ND	ND	ND
43167	2014-12-31T14:00:00	ND	ND	ND	ND	ND	ND	ND	ND	ND	ND	ND	ND
43168	2014-12-31T15:00:00	ND	ND	ND	ND	ND	ND	ND	ND	ND	ND	ND	ND
43169	2014-12-31T16:00:00	ND	ND	ND	ND	ND	ND	ND	ND	ND	ND	ND	ND
43170	2014-12-31T17:00:00	ND	ND	ND	ND	ND	ND	ND	ND	ND	ND	ND	ND
43171	2014-12-31T18:00:00	ND	ND	ND	ND	ND	ND	ND	ND	ND	ND	ND	ND
43172	2014-12-31T19:00:00	ND	ND	ND	ND	ND	ND	ND	ND	ND	ND	ND	ND
43173	2014-12-31T20:00:00	ND	ND	ND	ND	ND	ND	ND	ND	ND	ND	ND	ND
43174	2014-12-31T21:00:00	ND	ND	ND	ND	ND	ND	ND	ND	ND	ND	ND	ND
43175	2014-12-31T22:00:00	ND	ND	ND	ND	ND	ND	ND	ND	ND	ND	ND	ND
43176	2014-12-31T23:00:00	ND	ND	ND	ND	ND	ND	ND	ND	ND	ND	ND	ND
43177	2015-01-01T00:00:00	ND	ND	ND	ND	ND	ND	ND	ND	ND	ND	ND	ND
43178	2015-01-01T01:00:00	ND	ND	ND	ND	ND	ND	ND	ND	ND	ND	ND	0
43179	2015-01-01T02:00:00	ND	ND	ND	ND	ND	ND	ND	ND	ND	ND	ND	0
43180	2015-01-01T03:00:00	ND	ND	ND	ND	ND	ND	ND	ND	ND	ND	ND	0
43181	2015-01-01T04:00:00	ND	ND	ND	ND	ND	ND	ND	ND	ND	ND	ND	0
43182	2015-01-01T05:00:00	ND	ND	ND	ND	ND	ND	ND	ND	ND	ND	ND	0
43183	2015-01-01T06:00:00	ND	ND	ND	ND	ND	ND	ND	ND	ND	ND	ND	0
43184	2015-01-01T07:00:00	ND	ND	ND	ND	ND	ND	ND	ND	ND	ND	ND	0
43185	2015-01-01T08:00:00	ND	ND	ND	ND	ND	ND	ND	ND	ND	ND	ND	0
43186	2015-01-01T09:00:00	ND	ND	ND	ND	ND	ND	ND	ND	ND	ND	ND	0
43187	2015-01-01T10:00:00	ND	ND	ND	ND	ND	ND	ND	ND	ND	ND	ND	0
43188	2015-01-01T11:00:00	ND	ND	ND	ND	ND	ND	ND	ND	ND	ND	ND	0
43189	2015-01-01T12:00:00	ND	ND	ND	ND	ND	ND	ND	ND	ND	ND	ND	0
43190	2015-01-01T13:00:00	ND	ND	ND	ND	ND	ND	ND	ND	ND	ND	ND	0
43191	2015-01-01T14:00:00	ND	ND	ND	ND	ND	ND	ND	ND	ND	ND	ND	0
43192	2015-01-01T15:00:00	ND	ND	ND	ND	ND	ND	ND	ND	ND	ND	ND	0
43193	2015-01-01T16:00:00	ND	ND	ND	ND	ND	ND	ND	ND	ND	ND	ND	0
43194	2015-01-01T17:00:00	ND	ND	ND	ND	ND	ND	ND	ND	ND	ND	ND	0
43195	2015-01-01T18:00:00	ND	ND	ND	ND	ND	ND	ND	ND	ND	ND	ND	0
43196	2015-01-01T19:00:00	ND	ND	ND	ND	ND	ND	ND	ND	ND	ND	ND	0
43197	2015-01-01T20:00:00	ND	ND	ND	ND	ND	ND	ND	ND	ND	ND	ND	0
43198	2015-01-01T21:00:00	ND	ND	ND	ND	ND	ND	ND	ND	ND	ND	ND	0
43199	2015-01-01T22:00:00	ND	ND	ND	ND	ND	ND	ND	ND	ND	ND	ND	0
43200	2015-01-01T23:00:00	ND	ND	ND	ND	ND	ND	ND	ND	ND	ND	ND	0
43201	2015-01-02T00:00:00	ND	ND	ND	ND	ND	ND	ND	ND	ND	ND	ND	0
43202	2015-01-02T01:00:00	ND	ND	ND	ND	ND	ND	ND	ND	ND	ND	ND	0
43203	2015-01-02T02:00:00	ND	ND	ND	ND	ND	ND	ND	ND	ND	ND	ND	0
43204	2015-01-02T03:00:00	ND	ND	ND	ND	ND	ND	ND	ND	ND	ND	ND	0
43205	2015-01-02T04:00:00	ND	ND	ND	ND	ND	ND	ND	ND	ND	ND	ND	0
43206	2015-01-02T05:00:00	ND	ND	ND	ND	ND	ND	ND	ND	ND	ND	ND	0
43207	2015-01-02T06:00:00	ND	ND	ND	ND	ND	ND	ND	ND	ND	ND	ND	0
43208	2015-01-02T07:00:00	ND	ND	ND	ND	ND	ND	ND	ND	ND	ND	ND	0
43209	2015-01-02T08:00:00	ND	ND	ND	ND	ND	ND	ND	ND	ND	ND	ND	0
43210	2015-01-02T09:00:00	ND	ND	ND	ND	ND	ND	ND	ND	ND	ND	ND	0
43211	2015-01-02T10:00:00	ND	ND	ND	ND	ND	ND	ND	ND	ND	ND	ND	0
43212	2015-01-02T11:00:00	ND	ND	ND	ND	ND	ND	ND	ND	ND	ND	ND	0
43213	2015-01-02T12:00:00	ND	ND	ND	ND	ND	ND	ND	ND	ND	ND	ND	0
43214	2015-01-02T13:00:00	ND	ND	ND	ND	ND	ND	ND	ND	ND	ND	ND	0
43215	2015-01-02T14:00:00	ND	ND	ND	ND	ND	ND	ND	ND	ND	ND	ND	0
43216	2015-01-02T15:00:00	ND	ND	ND	ND	ND	ND	ND	ND	ND	ND	ND	0
43217	2015-01-02T16:00:00	ND	ND	ND	ND	ND	ND	ND	ND	ND	ND	ND	0
43218	2015-01-02T17:00:00	ND	ND	ND	ND	ND	ND	ND	ND	ND	ND	ND	0
43219	2015-01-02T18:00:00	ND	ND	ND	ND	ND	ND	ND	ND	ND	ND	ND	0
43220	2015-01-02T19:00:00	ND	ND	ND	ND	ND	ND	ND	ND	ND	ND	ND	0
43221	2015-01-02T20:00:00	ND	ND	ND	ND	ND	ND	ND	ND	ND	ND	ND	0
43222	2015-01-02T21:00:00	ND	ND	ND	ND	ND	ND	ND	ND	ND	ND	ND	0
43223	2015-01-02T22:00:00	ND	ND	ND	ND	ND	ND	ND	ND	ND	ND	ND	0
43224	2015-01-02T23:00:00	ND	ND	ND	ND	ND	ND	ND	ND	ND	ND	ND	0
43225	2015-01-03T00:00:00	ND	ND	ND	ND	ND	ND	ND	ND	ND	ND	ND	0
43226	2015-01-03T01:00:00	ND	ND	ND	ND	ND	ND	ND	ND	ND	ND	ND	0
43227	2015-01-03T02:00:00	ND	ND	ND	ND	ND	ND	ND	ND	ND	ND	ND	0
43228	2015-01-03T03:00:00	ND	ND	ND	ND	ND	ND	ND	ND	ND	ND	ND	0
43229	2015-01-03T04:00:00	ND	ND	ND	ND	ND	ND	ND	ND	ND	ND	ND	0
43230	2015-01-03T05:00:00	ND	ND	ND	ND	ND	ND	ND	ND	ND	ND	ND	0
43231	2015-01-03T06:00:00	ND	ND	ND	ND	ND	ND	ND	ND	ND	ND	ND	0
43232	2015-01-03T07:00:00	ND	ND	ND	ND	ND	ND	ND	ND	ND	ND	ND	0
43233	2015-01-03T08:00:00	ND	ND	ND	ND	ND	ND	ND	ND	ND	ND	ND	0
43234	2015-01-03T09:00:00	ND	ND	ND	ND	ND	ND	ND	ND	ND	ND	ND	0
43235	2015-01-03T10:00:00	ND	ND	ND	ND	ND	ND	ND	ND	ND	ND	ND	0
43236	2015-01-03T11:00:00	ND	ND	ND	ND	ND	ND	ND	ND	ND	ND	ND	0
43237	2015-01-03T12:00:00	ND	ND	ND	ND	ND	ND	ND	ND	ND	ND	ND	0
43238	2015-01-03T13:00:00	ND	ND	ND	ND	ND	ND	ND	ND	ND	ND	ND	0
43239	2015-01-03T14:00:00	ND	ND	ND	ND	ND	ND	ND	ND	ND	ND	ND	0
43240	2015-01-03T15:00:00	ND	ND	ND	ND	ND	ND	ND	ND	ND	ND	ND	0
43241	2015-01-03T16:00:00	ND	ND	ND	ND	ND	ND	ND	ND	ND	ND	ND	0
43242	2015-01-03T17:00:00	ND	ND	ND	ND	ND	ND	ND	ND	ND	ND	ND	0
43243	2015-01-03T18:00:00	ND	ND	ND	ND	ND	ND	ND	ND	ND	ND	ND	0
43244	2015-01-03T19:00:00	ND	ND	ND	ND	ND	ND	ND	ND	ND	ND	ND	0
43245	2015-01-03T20:00:00	ND	ND	ND	ND	ND	ND	ND	ND	ND	ND	ND	0
43246	2015-01-03T21:00:00	ND	ND	ND	ND	ND	ND	ND	ND	ND	ND	ND	0
43247	2015-01-03T22:00:00	ND	ND	ND	ND	ND	ND	ND	ND	ND	ND	ND	0
43248	2015-01-03T23:00:00	ND	ND	ND	ND	ND	ND	ND	ND	ND	ND	ND	0
43249	2015-01-04T00:00:00	ND	ND	ND	ND	ND	ND	ND	ND	ND	ND	ND	0
43250	2015-01-04T01:00:00	ND	ND	ND	ND	ND	ND	ND	ND	ND	ND	ND	0
43251	2015-01-04T02:00:00	ND	ND	ND	ND	ND	ND	ND	ND	ND	ND	ND	0
43252	2015-01-04T03:00:00	ND	ND	ND	ND	ND	ND	ND	ND	ND	ND	ND	0
43253	2015-01-04T04:00:00	ND	ND	ND	ND	ND	ND	ND	ND	ND	ND	ND	0
43254	2015-01-04T05:00:00	ND	ND	ND	ND	ND	ND	ND	ND	ND	ND	ND	0
43255	2015-01-04T06:00:00	ND	ND	ND	ND	ND	ND	ND	ND	ND	ND	ND	0
43256	2015-01-04T07:00:00	ND	ND	ND	ND	ND	ND	ND	ND	ND	ND	ND	0
43257	2015-01-04T08:00:00	ND	ND	ND	ND	ND	ND	ND	ND	ND	ND	ND	0
43258	2015-01-04T09:00:00	ND	ND	ND	ND	ND	ND	ND	ND	ND	ND	ND	0
43259	2015-01-04T10:00:00	ND	ND	ND	ND	ND	ND	ND	ND	ND	ND	ND	0
43260	2015-01-04T11:00:00	ND	ND	ND	ND	ND	ND	ND	ND	ND	ND	ND	0
43261	2015-01-04T12:00:00	ND	ND	ND	ND	ND	ND	ND	ND	ND	ND	ND	0
43262	2015-01-04T13:00:00	ND	ND	ND	ND	ND	ND	ND	ND	ND	ND	ND	0
43263	2015-01-04T14:00:00	ND	ND	ND	ND	ND	ND	ND	ND	ND	ND	ND	0
43264	2015-01-04T15:00:00	ND	ND	ND	ND	ND	ND	ND	ND	ND	ND	ND	0
43265	2015-01-04T16:00:00	ND	ND	ND	ND	ND	ND	ND	ND	ND	ND	ND	0
43266	2015-01-04T17:00:00	ND	ND	ND	ND	ND	ND	ND	ND	ND	ND	ND	0
43267	2015-01-04T18:00:00	ND	ND	ND	ND	ND	ND	ND	ND	ND	ND	ND	0
43268	2015-01-04T19:00:00	ND	ND	ND	ND	ND	ND	ND	ND	ND	ND	ND	0
43269	2015-01-04T20:00:00	ND	ND	ND	ND	ND	ND	ND	ND	ND	ND	ND	0
43270	2015-01-04T21:00:00	ND	ND	ND	ND	ND	ND	ND	ND	ND	ND	ND	0
43271	2015-01-04T22:00:00	ND	ND	ND	ND	ND	ND	ND	ND	ND	ND	ND	0
43272	2015-01-04T23:00:00	ND	ND	ND	ND	ND	ND	ND	ND	ND	ND	ND	0
43273	2015-01-05T00:00:00	ND	ND	ND	ND	ND	ND	ND	ND	ND	ND	ND	0
43274	2015-01-05T01:00:00	ND	ND	ND	ND	ND	ND	ND	ND	ND	ND	ND	0
43275	2015-01-05T02:00:00	ND	ND	ND	ND	ND	ND	ND	ND	ND	ND	ND	0
43276	2015-01-05T03:00:00	ND	ND	ND	ND	ND	ND	ND	ND	ND	ND	ND	0
43277	2015-01-05T04:00:00	ND	ND	ND	ND	ND	ND	ND	ND	ND	ND	ND	0
43278	2015-01-05T05:00:00	ND	ND	ND	ND	ND	ND	ND	ND	ND	ND	ND	0
43279	2015-01-05T06:00:00	ND	ND	ND	ND	ND	ND	ND	ND	ND	ND	ND	0
43280	2015-01-05T07:00:00	ND	ND	ND	ND	ND	ND	ND	ND	ND	ND	ND	0
43281	2015-01-05T08:00:00	ND	ND	ND	ND	ND	ND	ND	ND	ND	ND	ND	0
43282	2015-01-05T09:00:00	ND	ND	ND	ND	ND	ND	ND	ND	ND	ND	ND	0
43283	2015-01-05T10:00:00	ND	ND	ND	ND	ND	ND	ND	ND	ND	ND	ND	0
43284	2015-01-05T11:00:00	ND	ND	ND	ND	ND	ND	ND	ND	ND	ND	ND	0
43285	2015-01-05T12:00:00	ND	ND	ND	ND	ND	ND	ND	ND	ND	ND	ND	0
43286	2015-01-05T13:00:00	ND	ND	ND	ND	ND	ND	ND	ND	ND	ND	ND	0
43287	2015-01-05T14:00:00	ND	ND	ND	ND	ND	ND	ND	ND	ND	ND	ND	0
43288	2015-01-05T15:00:00	ND	ND	ND	ND	ND	ND	ND	ND	ND	ND	ND	0
43289	2015-01-05T16:00:00	ND	ND	ND	ND	ND	ND	ND	ND	ND	ND	ND	0
43290	2015-01-05T17:00:00	ND	ND	ND	ND	ND	ND	ND	ND	ND	ND	ND	0
43291	2015-01-05T18:00:00	ND	ND	ND	ND	ND	ND	ND	ND	ND	ND	ND	0
43292	2015-01-05T19:00:00	ND	ND	ND	ND	ND	ND	ND	ND	ND	ND	ND	0
43293	2015-01-05T20:00:00	ND	ND	ND	ND	ND	ND	ND	ND	ND	ND	ND	0
43294	2015-01-05T21:00:00	ND	ND	ND	ND	ND	ND	ND	ND	ND	ND	ND	0
43295	2015-01-05T22:00:00	ND	ND	ND	ND	ND	ND	ND	ND	ND	ND	ND	0
43296	2015-01-05T23:00:00	ND	ND	ND	ND	ND	ND	ND	ND	ND	ND	ND	0
43297	2015-01-06T00:00:00	ND	ND	ND	ND	ND	ND	ND	ND	ND	ND	ND	0
43298	2015-01-06T01:00:00	ND	ND	ND	ND	ND	ND	ND	ND	ND	ND	ND	0
43299	2015-01-06T02:00:00	ND	ND	ND	ND	ND	ND	ND	ND	ND	ND	ND	0
43300	2015-01-06T03:00:00	ND	ND	ND	ND	ND	ND	ND	ND	ND	ND	ND	0
43301	2015-01-06T04:00:00	ND	ND	ND	ND	ND	ND	ND	ND	ND	ND	ND	0
43302	2015-01-06T05:00:00	ND	ND	ND	ND	ND	ND	ND	ND	ND	ND	ND	0
43303	2015-01-06T06:00:00	ND	ND	ND	ND	ND	ND	ND	ND	ND	ND	ND	0
43304	2015-01-06T07:00:00	ND	ND	ND	ND	ND	ND	ND	ND	ND	ND	ND	0
43305	2015-01-06T08:00:00	ND	ND	ND	ND	ND	ND	ND	ND	ND	ND	ND	0
43306	2015-01-06T09:00:00	ND	ND	ND	ND	ND	ND	ND	ND	ND	ND	ND	0
43307	2015-01-06T10:00:00	ND	ND	ND	ND	ND	ND	ND	ND	ND	ND	ND	0
43308	2015-01-06T11:00:00	ND	ND	ND	ND	ND	ND	ND	ND	ND	ND	ND	0
43309	2015-01-06T12:00:00	ND	ND	ND	ND	ND	ND	ND	ND	ND	ND	ND	0
43310	2015-01-06T13:00:00	ND	ND	ND	ND	ND	ND	ND	ND	ND	ND	ND	0
43311	2015-01-06T14:00:00	ND	ND	ND	ND	ND	ND	ND	ND	ND	ND	ND	0
43312	2015-01-06T15:00:00	ND	ND	ND	ND	ND	ND	ND	ND	ND	ND	ND	0
43313	2015-01-06T16:00:00	ND	ND	ND	ND	ND	ND	ND	ND	ND	ND	ND	0
43314	2015-01-06T17:00:00	ND	ND	ND	ND	ND	ND	ND	ND	ND	ND	ND	0
43315	2015-01-06T18:00:00	ND	ND	ND	ND	ND	ND	ND	ND	ND	ND	ND	0
43316	2015-01-06T19:00:00	ND	ND	ND	ND	ND	ND	ND	ND	ND	ND	ND	0
43317	2015-01-06T20:00:00	ND	ND	ND	ND	ND	ND	ND	ND	ND	ND	ND	0
43318	2015-01-06T21:00:00	ND	ND	ND	ND	ND	ND	ND	ND	ND	ND	ND	0
43319	2015-01-06T22:00:00	ND	ND	ND	ND	ND	ND	ND	ND	ND	ND	ND	0
43320	2015-01-06T23:00:00	ND	ND	ND	ND	ND	ND	ND	ND	ND	ND	ND	0
43321	2015-01-07T00:00:00	ND	ND	ND	ND	ND	ND	ND	ND	ND	ND	ND	0
43322	2015-01-07T01:00:00	ND	ND	ND	ND	ND	ND	ND	ND	ND	ND	ND	0
43323	2015-01-07T02:00:00	ND	ND	ND	ND	ND	ND	ND	ND	ND	ND	ND	0
43324	2015-01-07T03:00:00	ND	ND	ND	ND	ND	ND	ND	ND	ND	ND	ND	0
43325	2015-01-07T04:00:00	ND	ND	ND	ND	ND	ND	ND	ND	ND	ND	ND	0
43326	2015-01-07T05:00:00	ND	ND	ND	ND	ND	ND	ND	ND	ND	ND	ND	0
43327	2015-01-07T06:00:00	ND	ND	ND	ND	ND	ND	ND	ND	ND	ND	ND	0
43328	2015-01-07T07:00:00	ND	ND	ND	ND	ND	ND	ND	ND	ND	ND	ND	0
43329	2015-01-07T08:00:00	ND	ND	ND	ND	ND	ND	ND	ND	ND	ND	ND	0
43330	2015-01-07T09:00:00	ND	ND	ND	ND	ND	ND	ND	ND	ND	ND	ND	0
43331	2015-01-07T10:00:00	ND	ND	ND	ND	ND	ND	ND	ND	ND	ND	ND	0
43332	2015-01-07T11:00:00	ND	ND	ND	ND	ND	ND	ND	ND	ND	ND	ND	0
43333	2015-01-07T12:00:00	ND	ND	ND	ND	ND	ND	ND	ND	ND	ND	ND	0
43334	2015-01-07T13:00:00	ND	ND	ND	ND	ND	ND	ND	ND	ND	ND	ND	0
43335	2015-01-07T14:00:00	ND	ND	ND	ND	ND	ND	ND	ND	ND	ND	ND	0
43336	2015-01-07T15:00:00	ND	ND	ND	ND	ND	ND	ND	ND	ND	ND	ND	0
43337	2015-01-07T16:00:00	ND	ND	ND	ND	ND	ND	ND	ND	ND	ND	ND	0
43338	2015-01-07T17:00:00	ND	ND	ND	ND	ND	ND	ND	ND	ND	ND	ND	0
43339	2015-01-07T18:00:00	ND	ND	ND	ND	ND	ND	ND	ND	ND	ND	ND	0
43340	2015-01-07T19:00:00	ND	ND	ND	ND	ND	ND	ND	ND	ND	ND	ND	0
43341	2015-01-07T20:00:00	ND	ND	ND	ND	ND	ND	ND	ND	ND	ND	ND	0
43342	2015-01-07T21:00:00	ND	ND	ND	ND	ND	ND	ND	ND	ND	ND	ND	0
43343	2015-01-07T22:00:00	ND	ND	ND	ND	ND	ND	ND	ND	ND	ND	ND	0
43344	2015-01-07T23:00:00	ND	ND	ND	ND	ND	ND	ND	ND	ND	ND	ND	0
43345	2015-01-08T00:00:00	ND	ND	ND	ND	ND	ND	ND	ND	ND	ND	ND	0
43346	2015-01-08T01:00:00	ND	ND	ND	ND	ND	ND	ND	ND	ND	ND	ND	0
43347	2015-01-08T02:00:00	ND	ND	ND	ND	ND	ND	ND	ND	ND	ND	ND	0
43348	2015-01-08T03:00:00	ND	ND	ND	ND	ND	ND	ND	ND	ND	ND	ND	0
43349	2015-01-08T04:00:00	ND	ND	ND	ND	ND	ND	ND	ND	ND	ND	ND	0
43350	2015-01-08T05:00:00	ND	ND	ND	ND	ND	ND	ND	ND	ND	ND	ND	0
43351	2015-01-08T06:00:00	ND	ND	ND	ND	ND	ND	ND	ND	ND	ND	ND	0
43352	2015-01-08T07:00:00	ND	ND	ND	ND	ND	ND	ND	ND	ND	ND	ND	0
43353	2015-01-08T08:00:00	ND	ND	ND	ND	ND	ND	ND	ND	ND	ND	ND	0
43354	2015-01-08T09:00:00	ND	ND	ND	ND	ND	ND	ND	ND	ND	ND	ND	0
43355	2015-01-08T10:00:00	ND	ND	ND	ND	ND	ND	ND	ND	ND	ND	ND	0
43356	2015-01-08T11:00:00	ND	ND	ND	ND	ND	ND	ND	ND	ND	ND	ND	0
43357	2015-01-08T12:00:00	ND	ND	ND	ND	ND	ND	ND	ND	ND	ND	ND	0
43358	2015-01-08T13:00:00	ND	ND	ND	ND	ND	ND	ND	ND	ND	ND	ND	0
43359	2015-01-08T14:00:00	ND	ND	ND	ND	ND	ND	ND	ND	ND	ND	ND	0
43360	2015-01-08T15:00:00	ND	ND	ND	ND	ND	ND	ND	ND	ND	ND	ND	0
43361	2015-01-08T16:00:00	ND	ND	ND	ND	ND	ND	ND	ND	ND	ND	ND	0
43362	2015-01-08T17:00:00	ND	ND	ND	ND	ND	ND	ND	ND	ND	ND	ND	0
43363	2015-01-08T18:00:00	ND	ND	ND	ND	ND	ND	ND	ND	ND	ND	ND	0
43364	2015-01-08T19:00:00	ND	ND	ND	ND	ND	ND	ND	ND	ND	ND	ND	0
43365	2015-01-08T20:00:00	ND	ND	ND	ND	ND	ND	ND	ND	ND	ND	ND	0
43366	2015-01-08T21:00:00	ND	ND	ND	ND	ND	ND	ND	ND	ND	ND	ND	0
43367	2015-01-08T22:00:00	ND	ND	ND	ND	ND	ND	ND	ND	ND	ND	ND	0
43368	2015-01-08T23:00:00	ND	ND	ND	ND	ND	ND	ND	ND	ND	ND	ND	0
43369	2015-01-09T00:00:00	ND	ND	ND	ND	ND	ND	ND	ND	ND	ND	ND	0
43370	2015-01-09T01:00:00	ND	ND	ND	ND	ND	ND	ND	ND	ND	ND	ND	0
43371	2015-01-09T02:00:00	ND	ND	ND	ND	ND	ND	ND	ND	ND	ND	ND	0
43372	2015-01-09T03:00:00	ND	ND	ND	ND	ND	ND	ND	ND	ND	ND	ND	0
43373	2015-01-09T04:00:00	ND	ND	ND	ND	ND	ND	ND	ND	ND	ND	ND	0
43374	2015-01-09T05:00:00	ND	ND	ND	ND	ND	ND	ND	ND	ND	ND	ND	0
43375	2015-01-09T06:00:00	ND	ND	ND	ND	ND	ND	ND	ND	ND	ND	ND	0
43376	2015-01-09T07:00:00	ND	ND	ND	ND	ND	ND	ND	ND	ND	ND	ND	0
43377	2015-01-09T08:00:00	ND	ND	ND	ND	ND	ND	ND	ND	ND	ND	ND	0
43378	2015-01-09T09:00:00	ND	ND	ND	ND	ND	ND	ND	ND	ND	ND	ND	0
43379	2015-01-09T10:00:00	ND	ND	ND	ND	ND	ND	ND	ND	ND	ND	ND	0
43380	2015-01-09T11:00:00	ND	ND	ND	ND	ND	ND	ND	ND	ND	ND	ND	0
43381	2015-01-09T12:00:00	ND	ND	ND	ND	ND	ND	ND	ND	ND	ND	ND	0
43382	2015-01-09T13:00:00	ND	ND	ND	ND	ND	ND	ND	ND	ND	ND	ND	0
43383	2015-01-09T14:00:00	ND	ND	ND	ND	ND	ND	ND	ND	ND	ND	ND	0
43384	2015-01-09T15:00:00	ND	ND	ND	ND	ND	ND	ND	ND	ND	ND	ND	0
43385	2015-01-09T16:00:00	ND	ND	ND	ND	ND	ND	ND	ND	ND	ND	ND	0
43386	2015-01-09T17:00:00	ND	ND	ND	ND	ND	ND	ND	ND	ND	ND	ND	0
43387	2015-01-09T18:00:00	ND	ND	ND	ND	ND	ND	ND	ND	ND	ND	ND	0
43388	2015-01-09T19:00:00	ND	ND	ND	ND	ND	ND	ND	ND	ND	ND	ND	0
43389	2015-01-09T20:00:00	ND	ND	ND	ND	ND	ND	ND	ND	ND	ND	ND	0
43390	2015-01-09T21:00:00	ND	ND	ND	ND	ND	ND	ND	ND	ND	ND	ND	0
43391	2015-01-09T22:00:00	ND	ND	ND	ND	ND	ND	ND	ND	ND	ND	ND	0
43392	2015-01-09T23:00:00	ND	ND	ND	ND	ND	ND	ND	ND	ND	ND	ND	0
43393	2015-01-10T00:00:00	ND	ND	ND	ND	ND	ND	ND	ND	ND	ND	ND	0
43394	2015-01-10T01:00:00	ND	ND	ND	ND	ND	ND	ND	ND	ND	ND	ND	0
43395	2015-01-10T02:00:00	ND	ND	ND	ND	ND	ND	ND	ND	ND	ND	ND	0
43396	2015-01-10T03:00:00	ND	ND	ND	ND	ND	ND	ND	ND	ND	ND	ND	0
43397	2015-01-10T04:00:00	ND	ND	ND	ND	ND	ND	ND	ND	ND	ND	ND	0.25
43398	2015-01-10T05:00:00	ND	ND	ND	ND	ND	ND	ND	ND	ND	ND	ND	0.25
43399	2015-01-10T06:00:00	ND	ND	ND	ND	ND	ND	ND	ND	ND	ND	ND	0
43400	2015-01-10T07:00:00	ND	ND	ND	ND	ND	ND	ND	ND	ND	ND	ND	0
43401	2015-01-10T08:00:00	ND	ND	ND	ND	ND	ND	ND	ND	ND	ND	ND	0
43402	2015-01-10T09:00:00	ND	ND	ND	ND	ND	ND	ND	ND	ND	ND	ND	0
43403	2015-01-10T10:00:00	ND	ND	ND	ND	ND	ND	ND	ND	ND	ND	ND	0
43404	2015-01-10T11:00:00	ND	ND	ND	ND	ND	ND	ND	ND	ND	ND	ND	0
43405	2015-01-10T12:00:00	ND	ND	ND	ND	ND	ND	ND	ND	ND	ND	ND	0
43406	2015-01-10T13:00:00	ND	ND	ND	ND	ND	ND	ND	ND	ND	ND	ND	0
43407	2015-01-10T14:00:00	ND	ND	ND	ND	ND	ND	ND	ND	ND	ND	ND	0
43408	2015-01-10T15:00:00	ND	ND	ND	ND	ND	ND	ND	ND	ND	ND	ND	0
43409	2015-01-10T16:00:00	ND	ND	ND	ND	ND	ND	ND	ND	ND	ND	ND	0
43410	2015-01-10T17:00:00	ND	ND	ND	ND	ND	ND	ND	ND	ND	ND	ND	0
43411	2015-01-10T18:00:00	ND	ND	ND	ND	ND	ND	ND	ND	ND	ND	ND	0
43412	2015-01-10T19:00:00	ND	ND	ND	ND	ND	ND	ND	ND	ND	ND	ND	0
43413	2015-01-10T20:00:00	ND	ND	ND	ND	ND	ND	ND	ND	ND	ND	ND	0
43414	2015-01-10T21:00:00	ND	ND	ND	ND	ND	ND	ND	ND	ND	ND	ND	0
43415	2015-01-10T22:00:00	ND	ND	ND	ND	ND	ND	ND	ND	ND	ND	ND	0
43416	2015-01-10T23:00:00	ND	ND	ND	ND	ND	ND	ND	ND	ND	ND	ND	0
43417	2015-01-11T00:00:00	ND	ND	ND	ND	ND	ND	ND	ND	ND	ND	ND	0
43418	2015-01-11T01:00:00	ND	ND	ND	ND	ND	ND	ND	ND	ND	ND	ND	0
43419	2015-01-11T02:00:00	ND	ND	ND	ND	ND	ND	ND	ND	ND	ND	ND	0
43420	2015-01-11T03:00:00	ND	ND	ND	ND	ND	ND	ND	ND	ND	ND	ND	0
43421	2015-01-11T04:00:00	ND	ND	ND	ND	ND	ND	ND	ND	ND	ND	ND	0
43422	2015-01-11T05:00:00	ND	ND	ND	ND	ND	ND	ND	ND	ND	ND	ND	0
43423	2015-01-11T06:00:00	ND	ND	ND	ND	ND	ND	ND	ND	ND	ND	ND	0
43424	2015-01-11T07:00:00	ND	ND	ND	ND	ND	ND	ND	ND	ND	ND	ND	0
43425	2015-01-11T08:00:00	ND	ND	ND	ND	ND	ND	ND	ND	ND	ND	ND	0
43426	2015-01-11T09:00:00	ND	ND	ND	ND	ND	ND	ND	ND	ND	ND	ND	0
43427	2015-01-11T10:00:00	ND	ND	ND	ND	ND	ND	ND	ND	ND	ND	ND	0
43428	2015-01-11T11:00:00	ND	ND	ND	ND	ND	ND	ND	ND	ND	ND	ND	0
43429	2015-01-11T12:00:00	ND	ND	ND	ND	ND	ND	ND	ND	ND	ND	ND	0
43430	2015-01-11T13:00:00	ND	ND	ND	ND	ND	ND	ND	ND	ND	ND	ND	0
43431	2015-01-11T14:00:00	ND	ND	ND	ND	ND	ND	ND	ND	ND	ND	ND	0
43432	2015-01-11T15:00:00	ND	ND	ND	ND	ND	ND	ND	ND	ND	ND	ND	0
43433	2015-01-11T16:00:00	ND	ND	ND	ND	ND	ND	ND	ND	ND	ND	ND	0
43434	2015-01-11T17:00:00	ND	ND	ND	ND	ND	ND	ND	ND	ND	ND	ND	0
43435	2015-01-11T18:00:00	ND	ND	ND	ND	ND	ND	ND	ND	ND	ND	ND	0
43436	2015-01-11T19:00:00	ND	ND	ND	ND	ND	ND	ND	ND	ND	ND	ND	0
43437	2015-01-11T20:00:00	ND	ND	ND	ND	ND	ND	ND	ND	ND	ND	ND	0
43438	2015-01-11T21:00:00	ND	ND	ND	ND	ND	ND	ND	ND	ND	ND	ND	0
43439	2015-01-11T22:00:00	ND	ND	ND	ND	ND	ND	ND	ND	ND	ND	ND	0
43440	2015-01-11T23:00:00	ND	ND	ND	ND	ND	ND	ND	ND	ND	ND	ND	0
43441	2015-01-12T00:00:00	ND	ND	ND	ND	ND	ND	ND	ND	ND	ND	ND	0
43442	2015-01-12T01:00:00	ND	ND	ND	ND	ND	ND	ND	ND	ND	ND	ND	0
43443	2015-01-12T02:00:00	ND	ND	ND	ND	ND	ND	ND	ND	ND	ND	ND	0
43444	2015-01-12T03:00:00	ND	ND	ND	ND	ND	ND	ND	ND	ND	ND	ND	0
43445	2015-01-12T04:00:00	ND	ND	ND	ND	ND	ND	ND	ND	ND	ND	ND	0
43446	2015-01-12T05:00:00	ND	ND	ND	ND	ND	ND	ND	ND	ND	ND	ND	0
43447	2015-01-12T06:00:00	ND	ND	ND	ND	ND	ND	ND	ND	ND	ND	ND	0
43448	2015-01-12T07:00:00	ND	ND	ND	ND	ND	ND	ND	ND	ND	ND	ND	0
43449	2015-01-12T08:00:00	ND	ND	ND	ND	ND	ND	ND	ND	ND	ND	ND	0
43450	2015-01-12T09:00:00	ND	ND	ND	ND	ND	ND	ND	ND	ND	ND	ND	0
43451	2015-01-12T10:00:00	ND	ND	ND	ND	ND	ND	ND	ND	ND	ND	ND	0
43452	2015-01-12T11:00:00	ND	ND	ND	ND	ND	ND	ND	ND	ND	ND	ND	0
43453	2015-01-12T12:00:00	ND	ND	ND	ND	ND	ND	ND	ND	ND	ND	ND	0
43454	2015-01-12T13:00:00	ND	ND	ND	ND	ND	ND	ND	ND	ND	ND	ND	0
43455	2015-01-12T14:00:00	ND	ND	ND	ND	ND	ND	ND	ND	ND	ND	ND	0
43456	2015-01-12T15:00:00	ND	ND	ND	ND	ND	ND	ND	ND	ND	ND	ND	0
43457	2015-01-12T16:00:00	ND	ND	ND	ND	ND	ND	ND	ND	ND	ND	ND	0
43458	2015-01-12T17:00:00	ND	ND	ND	ND	ND	ND	ND	ND	ND	ND	ND	0
43459	2015-01-12T18:00:00	ND	ND	ND	ND	ND	ND	ND	ND	ND	ND	ND	0
43460	2015-01-12T19:00:00	ND	ND	ND	ND	ND	ND	ND	ND	ND	ND	ND	0
43461	2015-01-12T20:00:00	ND	ND	ND	ND	ND	ND	ND	ND	ND	ND	ND	0
43462	2015-01-12T21:00:00	ND	ND	ND	ND	ND	ND	ND	ND	ND	ND	ND	0
43463	2015-01-12T22:00:00	ND	ND	ND	ND	ND	ND	ND	ND	ND	ND	ND	0
43464	2015-01-12T23:00:00	ND	ND	ND	ND	ND	ND	ND	ND	ND	ND	ND	0
43465	2015-01-13T00:00:00	ND	ND	ND	ND	ND	ND	ND	ND	ND	ND	ND	0
43466	2015-01-13T01:00:00	ND	ND	ND	ND	ND	ND	ND	ND	ND	ND	ND	0
43467	2015-01-13T02:00:00	ND	ND	ND	ND	ND	ND	ND	ND	ND	ND	ND	0
43468	2015-01-13T03:00:00	ND	ND	ND	ND	ND	ND	ND	ND	ND	ND	ND	0
43469	2015-01-13T04:00:00	ND	ND	ND	ND	ND	ND	ND	ND	ND	ND	ND	0
43470	2015-01-13T05:00:00	ND	ND	ND	ND	ND	ND	ND	ND	ND	ND	ND	0
43471	2015-01-13T06:00:00	ND	ND	ND	ND	ND	ND	ND	ND	ND	ND	ND	0
43472	2015-01-13T07:00:00	ND	ND	ND	ND	ND	ND	ND	ND	ND	ND	ND	0
43473	2015-01-13T08:00:00	ND	ND	ND	ND	ND	ND	ND	ND	ND	ND	ND	0
43474	2015-01-13T09:00:00	ND	ND	ND	ND	ND	ND	ND	ND	ND	ND	ND	0
43475	2015-01-13T10:00:00	ND	ND	ND	ND	ND	ND	ND	ND	ND	ND	ND	0
43476	2015-01-13T11:00:00	ND	ND	ND	ND	ND	ND	ND	ND	ND	ND	ND	0
43477	2015-01-13T12:00:00	ND	ND	ND	ND	ND	ND	ND	ND	ND	ND	ND	0
43478	2015-01-13T13:00:00	ND	ND	ND	ND	ND	ND	ND	ND	ND	ND	ND	0
43479	2015-01-13T14:00:00	ND	ND	ND	ND	ND	ND	ND	ND	ND	ND	ND	0
43480	2015-01-13T15:00:00	ND	ND	ND	ND	ND	ND	ND	ND	ND	ND	ND	0
43481	2015-01-13T16:00:00	ND	ND	ND	ND	ND	ND	ND	ND	ND	ND	ND	0
43482	2015-01-13T17:00:00	ND	ND	ND	ND	ND	ND	ND	ND	ND	ND	ND	0
43483	2015-01-13T18:00:00	ND	ND	ND	ND	ND	ND	ND	ND	ND	ND	ND	0
43484	2015-01-13T19:00:00	ND	ND	ND	ND	ND	ND	ND	ND	ND	ND	ND	0
43485	2015-01-13T20:00:00	ND	ND	ND	ND	ND	ND	ND	ND	ND	ND	ND	0
43486	2015-01-13T21:00:00	ND	ND	ND	ND	ND	ND	ND	ND	ND	ND	ND	0
43487	2015-01-13T22:00:00	ND	ND	ND	ND	ND	ND	ND	ND	ND	ND	ND	0
43488	2015-01-13T23:00:00	ND	ND	ND	ND	ND	ND	ND	ND	ND	ND	ND	0
43489	2015-01-14T00:00:00	ND	ND	ND	ND	ND	ND	ND	ND	ND	ND	ND	0
43490	2015-01-14T01:00:00	ND	ND	ND	ND	ND	ND	ND	ND	ND	ND	ND	0
43491	2015-01-14T02:00:00	ND	ND	ND	ND	ND	ND	ND	ND	ND	ND	ND	0
43492	2015-01-14T03:00:00	ND	ND	ND	ND	ND	ND	ND	ND	ND	ND	ND	0
43493	2015-01-14T04:00:00	ND	ND	ND	ND	ND	ND	ND	ND	ND	ND	ND	0
43494	2015-01-14T05:00:00	ND	ND	ND	ND	ND	ND	ND	ND	ND	ND	ND	0
43495	2015-01-14T06:00:00	ND	ND	ND	ND	ND	ND	ND	ND	ND	ND	ND	0
43496	2015-01-14T07:00:00	ND	ND	ND	ND	ND	ND	ND	ND	ND	ND	ND	0
43497	2015-01-14T08:00:00	ND	ND	ND	ND	ND	ND	ND	ND	ND	ND	ND	2.29
43498	2015-01-14T09:00:00	ND	ND	ND	ND	ND	ND	ND	ND	ND	ND	ND	22.35
43499	2015-01-14T10:00:00	ND	ND	ND	ND	ND	ND	ND	ND	ND	ND	ND	0.25
43500	2015-01-14T11:00:00	ND	ND	ND	ND	ND	ND	ND	ND	ND	ND	ND	0
43501	2015-01-14T12:00:00	ND	ND	ND	ND	ND	ND	ND	ND	ND	ND	ND	0
43502	2015-01-14T13:00:00	ND	ND	ND	ND	ND	ND	ND	ND	ND	ND	ND	0
43503	2015-01-14T14:00:00	ND	ND	ND	ND	ND	ND	ND	ND	ND	ND	ND	0
43504	2015-01-14T15:00:00	ND	ND	ND	ND	ND	ND	ND	ND	ND	ND	ND	0
43505	2015-01-14T16:00:00	ND	ND	ND	ND	ND	ND	ND	ND	ND	ND	ND	0
43506	2015-01-14T17:00:00	ND	ND	ND	ND	ND	ND	ND	ND	ND	ND	ND	0
43507	2015-01-14T18:00:00	ND	ND	ND	ND	ND	ND	ND	ND	ND	ND	ND	0
43508	2015-01-14T19:00:00	ND	ND	ND	ND	ND	ND	ND	ND	ND	ND	ND	0
43509	2015-01-14T20:00:00	ND	ND	ND	ND	ND	ND	ND	ND	ND	ND	ND	0
43510	2015-01-14T21:00:00	ND	ND	ND	ND	ND	ND	ND	ND	ND	ND	ND	0
43511	2015-01-14T22:00:00	ND	ND	ND	ND	ND	ND	ND	ND	ND	ND	ND	0
43512	2015-01-14T23:00:00	ND	ND	ND	ND	ND	ND	ND	ND	ND	ND	ND	0
43513	2015-01-15T00:00:00	ND	ND	ND	ND	ND	ND	ND	ND	ND	ND	ND	0
43514	2015-01-15T01:00:00	ND	ND	ND	ND	ND	ND	ND	ND	ND	ND	ND	0
43515	2015-01-15T02:00:00	ND	ND	ND	ND	ND	ND	ND	ND	ND	ND	ND	5.33
43516	2015-01-15T03:00:00	ND	ND	ND	ND	ND	ND	ND	ND	ND	ND	ND	22.35
43517	2015-01-15T04:00:00	ND	ND	ND	ND	ND	ND	ND	ND	ND	ND	ND	35.05
43518	2015-01-15T05:00:00	ND	ND	ND	ND	ND	ND	ND	ND	ND	ND	ND	1.27
43519	2015-01-15T06:00:00	ND	ND	ND	ND	ND	ND	ND	ND	ND	ND	ND	27.69
43520	2015-01-15T07:00:00	ND	ND	ND	ND	ND	ND	ND	ND	ND	ND	ND	0.76
43521	2015-01-15T08:00:00	ND	ND	ND	ND	ND	ND	ND	ND	ND	ND	ND	0.76
43522	2015-01-15T09:00:00	ND	ND	ND	ND	ND	ND	ND	ND	ND	ND	ND	0.51
43523	2015-01-15T10:00:00	ND	ND	ND	ND	ND	ND	ND	ND	ND	ND	ND	0.25
43524	2015-01-15T11:00:00	ND	ND	ND	ND	ND	ND	ND	ND	ND	ND	ND	0
43525	2015-01-15T12:00:00	ND	ND	ND	ND	ND	ND	ND	ND	ND	ND	ND	0
43526	2015-01-15T13:00:00	ND	ND	ND	ND	ND	ND	ND	ND	ND	ND	ND	0
43527	2015-01-15T14:00:00	ND	ND	ND	ND	ND	ND	ND	ND	ND	ND	ND	0
43528	2015-01-15T15:00:00	ND	ND	ND	ND	ND	ND	ND	ND	ND	ND	ND	0
43529	2015-01-15T16:00:00	ND	ND	ND	ND	ND	ND	ND	ND	ND	ND	ND	0
43530	2015-01-15T17:00:00	ND	ND	ND	ND	ND	ND	ND	ND	ND	ND	ND	0
43531	2015-01-15T18:00:00	ND	ND	ND	ND	ND	ND	ND	ND	ND	ND	ND	0
43532	2015-01-15T19:00:00	ND	ND	ND	ND	ND	ND	ND	ND	ND	ND	ND	0
43533	2015-01-15T20:00:00	ND	ND	ND	ND	ND	ND	ND	ND	ND	ND	ND	0
43534	2015-01-15T21:00:00	ND	ND	ND	ND	ND	ND	ND	ND	ND	ND	ND	0
43535	2015-01-15T22:00:00	ND	ND	ND	ND	ND	ND	ND	ND	ND	ND	ND	0
43536	2015-01-15T23:00:00	ND	ND	ND	ND	ND	ND	ND	ND	ND	ND	ND	0
43537	2015-01-16T00:00:00	ND	ND	ND	ND	ND	ND	ND	ND	ND	ND	ND	0
43538	2015-01-16T01:00:00	ND	ND	ND	ND	ND	ND	ND	ND	ND	ND	ND	0
43539	2015-01-16T02:00:00	ND	ND	ND	ND	ND	ND	ND	ND	ND	ND	ND	0
43540	2015-01-16T03:00:00	ND	ND	ND	ND	ND	ND	ND	ND	ND	ND	ND	0
43541	2015-01-16T04:00:00	ND	ND	ND	ND	ND	ND	ND	ND	ND	ND	ND	0
43542	2015-01-16T05:00:00	ND	ND	ND	ND	ND	ND	ND	ND	ND	ND	ND	0
43543	2015-01-16T06:00:00	ND	ND	ND	ND	ND	ND	ND	ND	ND	ND	ND	0
43544	2015-01-16T07:00:00	ND	ND	ND	ND	ND	ND	ND	ND	ND	ND	ND	0
43545	2015-01-16T08:00:00	ND	ND	ND	ND	ND	ND	ND	ND	ND	ND	ND	0
43546	2015-01-16T09:00:00	ND	ND	ND	ND	ND	ND	ND	ND	ND	ND	ND	0
43547	2015-01-16T10:00:00	ND	ND	ND	ND	ND	ND	ND	ND	ND	ND	ND	0
43548	2015-01-16T11:00:00	ND	ND	ND	ND	ND	ND	ND	ND	ND	ND	ND	0
43549	2015-01-16T12:00:00	ND	ND	ND	ND	ND	ND	ND	ND	ND	ND	ND	0
43550	2015-01-16T13:00:00	ND	ND	ND	ND	ND	ND	ND	ND	ND	ND	ND	0
43551	2015-01-16T14:00:00	ND	ND	ND	ND	ND	ND	ND	ND	ND	ND	ND	0
43552	2015-01-16T15:00:00	ND	ND	ND	ND	ND	ND	ND	ND	ND	ND	ND	0
43553	2015-01-16T16:00:00	ND	ND	ND	ND	ND	ND	ND	ND	ND	ND	ND	0
43554	2015-01-16T17:00:00	ND	ND	ND	ND	ND	ND	ND	ND	ND	ND	ND	0
43555	2015-01-16T18:00:00	ND	ND	ND	ND	ND	ND	ND	ND	ND	ND	ND	0
43556	2015-01-16T19:00:00	ND	ND	ND	ND	ND	ND	ND	ND	ND	ND	ND	0
43557	2015-01-16T20:00:00	ND	ND	ND	ND	ND	ND	ND	ND	ND	ND	ND	0
43558	2015-01-16T21:00:00	ND	ND	ND	ND	ND	ND	ND	ND	ND	ND	ND	0
43559	2015-01-16T22:00:00	ND	ND	ND	ND	ND	ND	ND	ND	ND	ND	ND	0
43560	2015-01-16T23:00:00	ND	ND	ND	ND	ND	ND	ND	ND	ND	ND	ND	0
43561	2015-01-17T00:00:00	ND	ND	ND	ND	ND	ND	ND	ND	ND	ND	ND	0
43562	2015-01-17T01:00:00	ND	ND	ND	ND	ND	ND	ND	ND	ND	ND	ND	0
43563	2015-01-17T02:00:00	ND	ND	ND	ND	ND	ND	ND	ND	ND	ND	ND	0
43564	2015-01-17T03:00:00	ND	ND	ND	ND	ND	ND	ND	ND	ND	ND	ND	0
43565	2015-01-17T04:00:00	ND	ND	ND	ND	ND	ND	ND	ND	ND	ND	ND	0
43566	2015-01-17T05:00:00	ND	ND	ND	ND	ND	ND	ND	ND	ND	ND	ND	0
43567	2015-01-17T06:00:00	ND	ND	ND	ND	ND	ND	ND	ND	ND	ND	ND	0
43568	2015-01-17T07:00:00	ND	ND	ND	ND	ND	ND	ND	ND	ND	ND	ND	0
43569	2015-01-17T08:00:00	ND	ND	ND	ND	ND	ND	ND	ND	ND	ND	ND	0
43570	2015-01-17T09:00:00	ND	ND	ND	ND	ND	ND	ND	ND	ND	ND	ND	0
43571	2015-01-17T10:00:00	ND	ND	ND	ND	ND	ND	ND	ND	ND	ND	ND	0
43572	2015-01-17T11:00:00	ND	ND	ND	ND	ND	ND	ND	ND	ND	ND	ND	0
43573	2015-01-17T12:00:00	ND	ND	ND	ND	ND	ND	ND	ND	ND	ND	ND	0
43574	2015-01-17T13:00:00	ND	ND	ND	ND	ND	ND	ND	ND	ND	ND	ND	0
43575	2015-01-17T14:00:00	ND	ND	ND	ND	ND	ND	ND	ND	ND	ND	ND	0
43576	2015-01-17T15:00:00	ND	ND	ND	ND	ND	ND	ND	ND	ND	ND	ND	0
43577	2015-01-17T16:00:00	ND	ND	ND	ND	ND	ND	ND	ND	ND	ND	ND	0
43578	2015-01-17T17:00:00	ND	ND	ND	ND	ND	ND	ND	ND	ND	ND	ND	0
43579	2015-01-17T18:00:00	ND	ND	ND	ND	ND	ND	ND	ND	ND	ND	ND	0
43580	2015-01-17T19:00:00	ND	ND	ND	ND	ND	ND	ND	ND	ND	ND	ND	0
43581	2015-01-17T20:00:00	ND	ND	ND	ND	ND	ND	ND	ND	ND	ND	ND	0
43582	2015-01-17T21:00:00	ND	ND	ND	ND	ND	ND	ND	ND	ND	ND	ND	15.75
43583	2015-01-17T22:00:00	ND	ND	ND	ND	ND	ND	ND	ND	ND	ND	ND	13.21
43584	2015-01-17T23:00:00	ND	ND	ND	ND	ND	ND	ND	ND	ND	ND	ND	6.86
43585	2015-01-18T00:00:00	ND	ND	ND	ND	ND	ND	ND	ND	ND	ND	ND	7.11
43586	2015-01-18T01:00:00	ND	ND	ND	ND	ND	ND	ND	ND	ND	ND	ND	4.57
43587	2015-01-18T02:00:00	ND	ND	ND	ND	ND	ND	ND	ND	ND	ND	ND	0.76
43588	2015-01-18T03:00:00	ND	ND	ND	ND	ND	ND	ND	ND	ND	ND	ND	0.25
43589	2015-01-18T04:00:00	ND	ND	ND	ND	ND	ND	ND	ND	ND	ND	ND	0
43590	2015-01-18T05:00:00	ND	ND	ND	ND	ND	ND	ND	ND	ND	ND	ND	0
43591	2015-01-18T06:00:00	ND	ND	ND	ND	ND	ND	ND	ND	ND	ND	ND	0
43592	2015-01-18T07:00:00	ND	ND	ND	ND	ND	ND	ND	ND	ND	ND	ND	0.25
43593	2015-01-18T08:00:00	ND	ND	ND	ND	ND	ND	ND	ND	ND	ND	ND	0
43594	2015-01-18T09:00:00	ND	ND	ND	ND	ND	ND	ND	ND	ND	ND	ND	0
43595	2015-01-18T10:00:00	ND	ND	ND	ND	ND	ND	ND	ND	ND	ND	ND	0
43596	2015-01-18T11:00:00	ND	ND	ND	ND	ND	ND	ND	ND	ND	ND	ND	0
43597	2015-01-18T12:00:00	ND	ND	ND	ND	ND	ND	ND	ND	ND	ND	ND	0
43598	2015-01-18T13:00:00	ND	ND	ND	ND	ND	ND	ND	ND	ND	ND	ND	0
43599	2015-01-18T14:00:00	ND	ND	ND	ND	ND	ND	ND	ND	ND	ND	ND	0
43600	2015-01-18T15:00:00	ND	ND	ND	ND	ND	ND	ND	ND	ND	ND	ND	0
43601	2015-01-18T16:00:00	ND	ND	ND	ND	ND	ND	ND	ND	ND	ND	ND	0
43602	2015-01-18T17:00:00	ND	ND	ND	ND	ND	ND	ND	ND	ND	ND	ND	0
43603	2015-01-18T18:00:00	ND	ND	ND	ND	ND	ND	ND	ND	ND	ND	ND	0
43604	2015-01-18T19:00:00	ND	ND	ND	ND	ND	ND	ND	ND	ND	ND	ND	0
43605	2015-01-18T20:00:00	ND	ND	ND	ND	ND	ND	ND	ND	ND	ND	ND	1.02
43606	2015-01-18T21:00:00	ND	ND	ND	ND	ND	ND	ND	ND	ND	ND	ND	0
43607	2015-01-18T22:00:00	ND	ND	ND	ND	ND	ND	ND	ND	ND	ND	ND	0
43608	2015-01-18T23:00:00	ND	ND	ND	ND	ND	ND	ND	ND	ND	ND	ND	0.25
43609	2015-01-19T00:00:00	ND	ND	ND	ND	ND	ND	ND	ND	ND	ND	ND	0
43610	2015-01-19T01:00:00	ND	ND	ND	ND	ND	ND	ND	ND	ND	ND	ND	0
43611	2015-01-19T02:00:00	ND	ND	ND	ND	ND	ND	ND	ND	ND	ND	ND	0
43612	2015-01-19T03:00:00	ND	ND	ND	ND	ND	ND	ND	ND	ND	ND	ND	0
43613	2015-01-19T04:00:00	ND	ND	ND	ND	ND	ND	ND	ND	ND	ND	ND	0
43614	2015-01-19T05:00:00	ND	ND	ND	ND	ND	ND	ND	ND	ND	ND	ND	0
43615	2015-01-19T06:00:00	ND	ND	ND	ND	ND	ND	ND	ND	ND	ND	ND	0
43616	2015-01-19T07:00:00	ND	ND	ND	ND	ND	ND	ND	ND	ND	ND	ND	0
43617	2015-01-19T08:00:00	ND	ND	ND	ND	ND	ND	ND	ND	ND	ND	ND	0
43618	2015-01-19T09:00:00	ND	ND	ND	ND	ND	ND	ND	ND	ND	ND	ND	0
43619	2015-01-19T10:00:00	ND	ND	ND	ND	ND	ND	ND	ND	ND	ND	ND	0
43620	2015-01-19T11:00:00	ND	ND	ND	ND	ND	ND	ND	ND	ND	ND	ND	0
43621	2015-01-19T12:00:00	ND	ND	ND	ND	ND	ND	ND	ND	ND	ND	ND	0
43622	2015-01-19T13:00:00	ND	ND	ND	ND	ND	ND	ND	ND	ND	ND	ND	0
43623	2015-01-19T14:00:00	ND	ND	ND	ND	ND	ND	ND	ND	ND	ND	ND	0
43624	2015-01-19T15:00:00	ND	ND	ND	ND	ND	ND	ND	ND	ND	ND	ND	0
43625	2015-01-19T16:00:00	ND	ND	ND	ND	ND	ND	ND	ND	ND	ND	ND	0
43626	2015-01-19T17:00:00	ND	ND	ND	ND	ND	ND	ND	ND	ND	ND	ND	0
43627	2015-01-19T18:00:00	ND	ND	ND	ND	ND	ND	ND	ND	ND	ND	ND	0
43628	2015-01-19T19:00:00	ND	ND	ND	ND	ND	ND	ND	ND	ND	ND	ND	0
43629	2015-01-19T20:00:00	ND	ND	ND	ND	ND	ND	ND	ND	ND	ND	ND	0
43630	2015-01-19T21:00:00	ND	ND	ND	ND	ND	ND	ND	ND	ND	ND	ND	0
43631	2015-01-19T22:00:00	ND	ND	ND	ND	ND	ND	ND	ND	ND	ND	ND	0
43632	2015-01-19T23:00:00	ND	ND	ND	ND	ND	ND	ND	ND	ND	ND	ND	0
43633	2015-01-20T00:00:00	ND	ND	ND	ND	ND	ND	ND	ND	ND	ND	ND	0
43634	2015-01-20T01:00:00	ND	ND	ND	ND	ND	ND	ND	ND	ND	ND	ND	0
43635	2015-01-20T02:00:00	ND	ND	ND	ND	ND	ND	ND	ND	ND	ND	ND	0
43636	2015-01-20T03:00:00	ND	ND	ND	ND	ND	ND	ND	ND	ND	ND	ND	0
43637	2015-01-20T04:00:00	ND	ND	ND	ND	ND	ND	ND	ND	ND	ND	ND	0
43638	2015-01-20T05:00:00	ND	ND	ND	ND	ND	ND	ND	ND	ND	ND	ND	0
43639	2015-01-20T06:00:00	ND	ND	ND	ND	ND	ND	ND	ND	ND	ND	ND	0
43640	2015-01-20T07:00:00	ND	ND	ND	ND	ND	ND	ND	ND	ND	ND	ND	0
43641	2015-01-20T08:00:00	ND	ND	ND	ND	ND	ND	ND	ND	ND	ND	ND	0
43642	2015-01-20T09:00:00	ND	ND	ND	ND	ND	ND	ND	ND	ND	ND	ND	0
43643	2015-01-20T10:00:00	ND	ND	ND	ND	ND	ND	ND	ND	ND	ND	ND	0
43644	2015-01-20T11:00:00	ND	ND	ND	ND	ND	ND	ND	ND	ND	ND	ND	0
43645	2015-01-20T12:00:00	ND	ND	ND	ND	ND	ND	ND	ND	ND	ND	ND	0
43646	2015-01-20T13:00:00	ND	ND	ND	ND	ND	ND	ND	ND	ND	ND	ND	0
43647	2015-01-20T14:00:00	ND	ND	ND	ND	ND	ND	ND	ND	ND	ND	ND	0
43648	2015-01-20T15:00:00	ND	ND	ND	ND	ND	ND	ND	ND	ND	ND	ND	0
43649	2015-01-20T16:00:00	ND	ND	ND	ND	ND	ND	ND	ND	ND	ND	ND	0
43650	2015-01-20T17:00:00	ND	ND	ND	ND	ND	ND	ND	ND	ND	ND	ND	0
43651	2015-01-20T18:00:00	ND	ND	ND	ND	ND	ND	ND	ND	ND	ND	ND	0
43652	2015-01-20T19:00:00	ND	ND	ND	ND	ND	ND	ND	ND	ND	ND	ND	0
43653	2015-01-20T20:00:00	ND	ND	ND	ND	ND	ND	ND	ND	ND	ND	ND	0
43654	2015-01-20T21:00:00	ND	ND	ND	ND	ND	ND	ND	ND	ND	ND	ND	0
43655	2015-01-20T22:00:00	ND	ND	ND	ND	ND	ND	ND	ND	ND	ND	ND	0
43656	2015-01-20T23:00:00	ND	ND	ND	ND	ND	ND	ND	ND	ND	ND	ND	0
43657	2015-01-21T00:00:00	ND	ND	ND	ND	ND	ND	ND	ND	ND	ND	ND	0
43658	2015-01-21T01:00:00	ND	ND	ND	ND	ND	ND	ND	ND	ND	ND	ND	0
43659	2015-01-21T02:00:00	ND	ND	ND	ND	ND	ND	ND	ND	ND	ND	ND	0
43660	2015-01-21T03:00:00	ND	ND	ND	ND	ND	ND	ND	ND	ND	ND	ND	0
43661	2015-01-21T04:00:00	ND	ND	ND	ND	ND	ND	ND	ND	ND	ND	ND	0
43662	2015-01-21T05:00:00	ND	ND	ND	ND	ND	ND	ND	ND	ND	ND	ND	0
43663	2015-01-21T06:00:00	ND	ND	ND	ND	ND	ND	ND	ND	ND	ND	ND	0
43664	2015-01-21T07:00:00	ND	ND	ND	ND	ND	ND	ND	ND	ND	ND	ND	0
43665	2015-01-21T08:00:00	ND	ND	ND	ND	ND	ND	ND	ND	ND	ND	ND	0
43666	2015-01-21T09:00:00	ND	ND	ND	ND	ND	ND	ND	ND	ND	ND	ND	0
43667	2015-01-21T10:00:00	ND	ND	ND	ND	ND	ND	ND	ND	ND	ND	ND	0
43668	2015-01-21T11:00:00	ND	ND	ND	ND	ND	ND	ND	ND	ND	ND	ND	0
43669	2015-01-21T12:00:00	ND	ND	ND	ND	ND	ND	ND	ND	ND	ND	ND	0
43670	2015-01-21T13:00:00	ND	ND	ND	ND	ND	ND	ND	ND	ND	ND	ND	0
43671	2015-01-21T14:00:00	ND	ND	ND	ND	ND	ND	ND	ND	ND	ND	ND	0
43672	2015-01-21T15:00:00	ND	ND	ND	ND	ND	ND	ND	ND	ND	ND	ND	0
43673	2015-01-21T16:00:00	ND	ND	ND	ND	ND	ND	ND	ND	ND	ND	ND	0
43674	2015-01-21T17:00:00	ND	ND	ND	ND	ND	ND	ND	ND	ND	ND	ND	0
43675	2015-01-21T18:00:00	ND	ND	ND	ND	ND	ND	ND	ND	ND	ND	ND	0
43676	2015-01-21T19:00:00	ND	ND	ND	ND	ND	ND	ND	ND	ND	ND	ND	0
43677	2015-01-21T20:00:00	ND	ND	ND	ND	ND	ND	ND	ND	ND	ND	ND	0
43678	2015-01-21T21:00:00	ND	ND	ND	ND	ND	ND	ND	ND	ND	ND	ND	0
43679	2015-01-21T22:00:00	ND	ND	ND	ND	ND	ND	ND	ND	ND	ND	ND	0
43680	2015-01-21T23:00:00	ND	ND	ND	ND	ND	ND	ND	ND	ND	ND	ND	0
43681	2015-01-22T00:00:00	ND	ND	ND	ND	ND	ND	ND	ND	ND	ND	ND	0
43682	2015-01-22T01:00:00	ND	ND	ND	ND	ND	ND	ND	ND	ND	ND	ND	0
43683	2015-01-22T02:00:00	ND	ND	ND	ND	ND	ND	ND	ND	ND	ND	ND	0
43684	2015-01-22T03:00:00	ND	ND	ND	ND	ND	ND	ND	ND	ND	ND	ND	0
43685	2015-01-22T04:00:00	ND	ND	ND	ND	ND	ND	ND	ND	ND	ND	ND	1.02
43686	2015-01-22T05:00:00	ND	ND	ND	ND	ND	ND	ND	ND	ND	ND	ND	1.02
43687	2015-01-22T06:00:00	ND	ND	ND	ND	ND	ND	ND	ND	ND	ND	ND	1.52
43688	2015-01-22T07:00:00	ND	ND	ND	ND	ND	ND	ND	ND	ND	ND	ND	6.6
43689	2015-01-22T08:00:00	ND	ND	ND	ND	ND	ND	ND	ND	ND	ND	ND	11.68
43690	2015-01-22T09:00:00	ND	ND	ND	ND	ND	ND	ND	ND	ND	ND	ND	0.76
43691	2015-01-22T10:00:00	ND	ND	ND	ND	ND	ND	ND	ND	ND	ND	ND	0.25
43692	2015-01-22T11:00:00	ND	ND	ND	ND	ND	ND	ND	ND	ND	ND	ND	0
43693	2015-01-22T12:00:00	ND	ND	ND	ND	ND	ND	ND	ND	ND	ND	ND	0
43694	2015-01-22T13:00:00	ND	ND	ND	ND	ND	ND	ND	ND	ND	ND	ND	0
43695	2015-01-22T14:00:00	ND	ND	ND	ND	ND	ND	ND	ND	ND	ND	ND	0
43696	2015-01-22T15:00:00	ND	ND	ND	ND	ND	ND	ND	ND	ND	ND	ND	0
43697	2015-01-22T16:00:00	ND	ND	ND	ND	ND	ND	ND	ND	ND	ND	ND	0
43698	2015-01-22T17:00:00	ND	ND	ND	ND	ND	ND	ND	ND	ND	ND	ND	0
43699	2015-01-22T18:00:00	ND	ND	ND	ND	ND	ND	ND	ND	ND	ND	ND	0
43700	2015-01-22T19:00:00	ND	ND	ND	ND	ND	ND	ND	ND	ND	ND	ND	0
43701	2015-01-22T20:00:00	ND	ND	ND	ND	ND	ND	ND	ND	ND	ND	ND	0
43702	2015-01-22T21:00:00	ND	ND	ND	ND	ND	ND	ND	ND	ND	ND	ND	0
43703	2015-01-22T22:00:00	ND	ND	ND	ND	ND	ND	ND	ND	ND	ND	ND	0
43704	2015-01-22T23:00:00	ND	ND	ND	ND	ND	ND	ND	ND	ND	ND	ND	0
43705	2015-01-23T00:00:00	ND	ND	ND	ND	ND	ND	ND	ND	ND	ND	ND	0
43706	2015-01-23T01:00:00	ND	ND	ND	ND	ND	ND	ND	ND	ND	ND	ND	0
43707	2015-01-23T02:00:00	ND	ND	ND	ND	ND	ND	ND	ND	ND	ND	ND	0
43708	2015-01-23T03:00:00	ND	ND	ND	ND	ND	ND	ND	ND	ND	ND	ND	0
43709	2015-01-23T04:00:00	ND	ND	ND	ND	ND	ND	ND	ND	ND	ND	ND	0
43710	2015-01-23T05:00:00	ND	ND	ND	ND	ND	ND	ND	ND	ND	ND	ND	0
43711	2015-01-23T06:00:00	ND	ND	ND	ND	ND	ND	ND	ND	ND	ND	ND	0
43712	2015-01-23T07:00:00	ND	ND	ND	ND	ND	ND	ND	ND	ND	ND	ND	0
43713	2015-01-23T08:00:00	ND	ND	ND	ND	ND	ND	ND	ND	ND	ND	ND	0
43714	2015-01-23T09:00:00	ND	ND	ND	ND	ND	ND	ND	ND	ND	ND	ND	0
43715	2015-01-23T10:00:00	ND	ND	ND	ND	ND	ND	ND	ND	ND	ND	ND	0
43716	2015-01-23T11:00:00	ND	ND	ND	ND	ND	ND	ND	ND	ND	ND	ND	0
43717	2015-01-23T12:00:00	ND	ND	ND	ND	ND	ND	ND	ND	ND	ND	ND	0
43718	2015-01-23T13:00:00	ND	ND	ND	ND	ND	ND	ND	ND	ND	ND	ND	0
43719	2015-01-23T14:00:00	ND	ND	ND	ND	ND	ND	ND	ND	ND	ND	ND	0
43720	2015-01-23T15:00:00	ND	ND	ND	ND	ND	ND	ND	ND	ND	ND	ND	0
43721	2015-01-23T16:00:00	ND	ND	ND	ND	ND	ND	ND	ND	ND	ND	ND	0
43722	2015-01-23T17:00:00	ND	ND	ND	ND	ND	ND	ND	ND	ND	ND	ND	0
43723	2015-01-23T18:00:00	ND	ND	ND	ND	ND	ND	ND	ND	ND	ND	ND	0
43724	2015-01-23T19:00:00	ND	ND	ND	ND	ND	ND	ND	ND	ND	ND	ND	0
43725	2015-01-23T20:00:00	ND	ND	ND	ND	ND	ND	ND	ND	ND	ND	ND	0
43726	2015-01-23T21:00:00	ND	ND	ND	ND	ND	ND	ND	ND	ND	ND	ND	0
43727	2015-01-23T22:00:00	ND	ND	ND	ND	ND	ND	ND	ND	ND	ND	ND	0
43728	2015-01-23T23:00:00	ND	ND	ND	ND	ND	ND	ND	ND	ND	ND	ND	0
43729	2015-01-24T00:00:00	ND	ND	ND	ND	ND	ND	ND	ND	ND	ND	ND	0
43730	2015-01-24T01:00:00	ND	ND	ND	ND	ND	ND	ND	ND	ND	ND	ND	0
43731	2015-01-24T02:00:00	ND	ND	ND	ND	ND	ND	ND	ND	ND	ND	ND	0
43732	2015-01-24T03:00:00	ND	ND	ND	ND	ND	ND	ND	ND	ND	ND	ND	0
43733	2015-01-24T04:00:00	ND	ND	ND	ND	ND	ND	ND	ND	ND	ND	ND	0
43734	2015-01-24T05:00:00	ND	ND	ND	ND	ND	ND	ND	ND	ND	ND	ND	0
43735	2015-01-24T06:00:00	ND	ND	ND	ND	ND	ND	ND	ND	ND	ND	ND	0
43736	2015-01-24T07:00:00	ND	ND	ND	ND	ND	ND	ND	ND	ND	ND	ND	0
43737	2015-01-24T08:00:00	ND	ND	ND	ND	ND	ND	ND	ND	ND	ND	ND	0
43738	2015-01-24T09:00:00	ND	ND	ND	ND	ND	ND	ND	ND	ND	ND	ND	0
43739	2015-01-24T10:00:00	ND	ND	ND	ND	ND	ND	ND	ND	ND	ND	ND	0
43740	2015-01-24T11:00:00	ND	ND	ND	ND	ND	ND	ND	ND	ND	ND	ND	0
43741	2015-01-24T12:00:00	ND	ND	ND	ND	ND	ND	ND	ND	ND	ND	ND	0
43742	2015-01-24T13:00:00	ND	ND	ND	ND	ND	ND	ND	ND	ND	ND	ND	0
43743	2015-01-24T14:00:00	ND	ND	ND	ND	ND	ND	ND	ND	ND	ND	ND	0
43744	2015-01-24T15:00:00	ND	ND	ND	ND	ND	ND	ND	ND	ND	ND	ND	0
43745	2015-01-24T16:00:00	ND	ND	ND	ND	ND	ND	ND	ND	ND	ND	ND	0
43746	2015-01-24T17:00:00	ND	ND	ND	ND	ND	ND	ND	ND	ND	ND	ND	0
43747	2015-01-24T18:00:00	ND	ND	ND	ND	ND	ND	ND	ND	ND	ND	ND	0
43748	2015-01-24T19:00:00	ND	ND	ND	ND	ND	ND	ND	ND	ND	ND	ND	0
43749	2015-01-24T20:00:00	ND	ND	ND	ND	ND	ND	ND	ND	ND	ND	ND	0
43750	2015-01-24T21:00:00	ND	ND	ND	ND	ND	ND	ND	ND	ND	ND	ND	0
43751	2015-01-24T22:00:00	ND	ND	ND	ND	ND	ND	ND	ND	ND	ND	ND	0
43752	2015-01-24T23:00:00	ND	ND	ND	ND	ND	ND	ND	ND	ND	ND	ND	0
43753	2015-01-25T00:00:00	ND	ND	ND	ND	ND	ND	ND	ND	ND	ND	ND	0
43754	2015-01-25T01:00:00	ND	ND	ND	ND	ND	ND	ND	ND	ND	ND	ND	0
43755	2015-01-25T02:00:00	ND	ND	ND	ND	ND	ND	ND	ND	ND	ND	ND	0
43756	2015-01-25T03:00:00	ND	ND	ND	ND	ND	ND	ND	ND	ND	ND	ND	0
43757	2015-01-25T04:00:00	ND	ND	ND	ND	ND	ND	ND	ND	ND	ND	ND	0
43758	2015-01-25T05:00:00	ND	ND	ND	ND	ND	ND	ND	ND	ND	ND	ND	0
43759	2015-01-25T06:00:00	ND	ND	ND	ND	ND	ND	ND	ND	ND	ND	ND	0
43760	2015-01-25T07:00:00	ND	ND	ND	ND	ND	ND	ND	ND	ND	ND	ND	0
43761	2015-01-25T08:00:00	ND	ND	ND	ND	ND	ND	ND	ND	ND	ND	ND	0
43762	2015-01-25T09:00:00	ND	ND	ND	ND	ND	ND	ND	ND	ND	ND	ND	0
43763	2015-01-25T10:00:00	ND	ND	ND	ND	ND	ND	ND	ND	ND	ND	ND	0
43764	2015-01-25T11:00:00	ND	ND	ND	ND	ND	ND	ND	ND	ND	ND	ND	0
43765	2015-01-25T12:00:00	ND	ND	ND	ND	ND	ND	ND	ND	ND	ND	ND	0
43766	2015-01-25T13:00:00	ND	ND	ND	ND	ND	ND	ND	ND	ND	ND	ND	0
43767	2015-01-25T14:00:00	ND	ND	ND	ND	ND	ND	ND	ND	ND	ND	ND	0
43768	2015-01-25T15:00:00	ND	ND	ND	ND	ND	ND	ND	ND	ND	ND	ND	0
43769	2015-01-25T16:00:00	ND	ND	ND	ND	ND	ND	ND	ND	ND	ND	ND	0
43770	2015-01-25T17:00:00	ND	ND	ND	ND	ND	ND	ND	ND	ND	ND	ND	0
43771	2015-01-25T18:00:00	ND	ND	ND	ND	ND	ND	ND	ND	ND	ND	ND	0
43772	2015-01-25T19:00:00	ND	ND	ND	ND	ND	ND	ND	ND	ND	ND	ND	0
43773	2015-01-25T20:00:00	ND	ND	ND	ND	ND	ND	ND	ND	ND	ND	ND	0
43774	2015-01-25T21:00:00	ND	ND	ND	ND	ND	ND	ND	ND	ND	ND	ND	0
43775	2015-01-25T22:00:00	ND	ND	ND	ND	ND	ND	ND	ND	ND	ND	ND	0
43776	2015-01-25T23:00:00	ND	ND	ND	ND	ND	ND	ND	ND	ND	ND	ND	0
43777	2015-01-26T00:00:00	ND	ND	ND	ND	ND	ND	ND	ND	ND	ND	ND	0
43778	2015-01-26T01:00:00	ND	ND	ND	ND	ND	ND	ND	ND	ND	ND	ND	0
43779	2015-01-26T02:00:00	ND	ND	ND	ND	ND	ND	ND	ND	ND	ND	ND	0
43780	2015-01-26T03:00:00	ND	ND	ND	ND	ND	ND	ND	ND	ND	ND	ND	0
43781	2015-01-26T04:00:00	ND	ND	ND	ND	ND	ND	ND	ND	ND	ND	ND	0
43782	2015-01-26T05:00:00	ND	ND	ND	ND	ND	ND	ND	ND	ND	ND	ND	0
43783	2015-01-26T06:00:00	ND	ND	ND	ND	ND	ND	ND	ND	ND	ND	ND	0
43784	2015-01-26T07:00:00	ND	ND	ND	ND	ND	ND	ND	ND	ND	ND	ND	0
43785	2015-01-26T08:00:00	ND	ND	ND	ND	ND	ND	ND	ND	ND	ND	ND	0
43786	2015-01-26T09:00:00	ND	ND	ND	ND	ND	ND	ND	ND	ND	ND	ND	0
43787	2015-01-26T10:00:00	ND	ND	ND	ND	ND	ND	ND	ND	ND	ND	ND	0
43788	2015-01-26T11:00:00	ND	ND	ND	ND	ND	ND	ND	ND	ND	ND	ND	0
43789	2015-01-26T12:00:00	ND	ND	ND	ND	ND	ND	ND	ND	ND	ND	ND	0
43790	2015-01-26T13:00:00	ND	ND	ND	ND	ND	ND	ND	ND	ND	ND	ND	0
43791	2015-01-26T14:00:00	ND	ND	ND	ND	ND	ND	ND	ND	ND	ND	ND	0
43792	2015-01-26T15:00:00	ND	ND	ND	ND	ND	ND	ND	ND	ND	ND	ND	0
43793	2015-01-26T16:00:00	ND	ND	ND	ND	ND	ND	ND	ND	ND	ND	ND	0
43794	2015-01-26T17:00:00	ND	ND	ND	ND	ND	ND	ND	ND	ND	ND	ND	0
43795	2015-01-26T18:00:00	ND	ND	ND	ND	ND	ND	ND	ND	ND	ND	ND	0
43796	2015-01-26T19:00:00	ND	ND	ND	ND	ND	ND	ND	ND	ND	ND	ND	0
43797	2015-01-26T20:00:00	ND	ND	ND	ND	ND	ND	ND	ND	ND	ND	ND	0
43798	2015-01-26T21:00:00	ND	ND	ND	ND	ND	ND	ND	ND	ND	ND	ND	0
43799	2015-01-26T22:00:00	ND	ND	ND	ND	ND	ND	ND	ND	ND	ND	ND	0
43800	2015-01-26T23:00:00	ND	ND	ND	ND	ND	ND	ND	ND	ND	ND	ND	0
43801	2015-01-27T00:00:00	ND	ND	ND	ND	ND	ND	ND	ND	ND	ND	ND	0
43802	2015-01-27T01:00:00	ND	ND	ND	ND	ND	ND	ND	ND	ND	ND	ND	0
43803	2015-01-27T02:00:00	ND	ND	ND	ND	ND	ND	ND	ND	ND	ND	ND	0
43804	2015-01-27T03:00:00	ND	ND	ND	ND	ND	ND	ND	ND	ND	ND	ND	0
43805	2015-01-27T04:00:00	ND	ND	ND	ND	ND	ND	ND	ND	ND	ND	ND	0
43806	2015-01-27T05:00:00	ND	ND	ND	ND	ND	ND	ND	ND	ND	ND	ND	0
43807	2015-01-27T06:00:00	ND	ND	ND	ND	ND	ND	ND	ND	ND	ND	ND	0
43808	2015-01-27T07:00:00	ND	ND	ND	ND	ND	ND	ND	ND	ND	ND	ND	0
43809	2015-01-27T08:00:00	ND	ND	ND	ND	ND	ND	ND	ND	ND	ND	ND	0
43810	2015-01-27T09:00:00	ND	ND	ND	ND	ND	ND	ND	ND	ND	ND	ND	0
43811	2015-01-27T10:00:00	ND	ND	ND	ND	ND	ND	ND	ND	ND	ND	ND	0
43812	2015-01-27T11:00:00	ND	ND	ND	ND	ND	ND	ND	ND	ND	ND	ND	0
43813	2015-01-27T12:00:00	ND	ND	ND	ND	ND	ND	ND	ND	ND	ND	ND	0
43814	2015-01-27T13:00:00	ND	ND	ND	ND	ND	ND	ND	ND	ND	ND	ND	0
43815	2015-01-27T14:00:00	ND	ND	ND	ND	ND	ND	ND	ND	ND	ND	ND	0
43816	2015-01-27T15:00:00	ND	ND	ND	ND	ND	ND	ND	ND	ND	ND	ND	0
43817	2015-01-27T16:00:00	ND	ND	ND	ND	ND	ND	ND	ND	ND	ND	ND	0
43818	2015-01-27T17:00:00	ND	ND	ND	ND	ND	ND	ND	ND	ND	ND	ND	0
43819	2015-01-27T18:00:00	ND	ND	ND	ND	ND	ND	ND	ND	ND	ND	ND	0
43820	2015-01-27T19:00:00	ND	ND	ND	ND	ND	ND	ND	ND	ND	ND	ND	0
43821	2015-01-27T20:00:00	ND	ND	ND	ND	ND	ND	ND	ND	ND	ND	ND	0
43822	2015-01-27T21:00:00	ND	ND	ND	ND	ND	ND	ND	ND	ND	ND	ND	0
43823	2015-01-27T22:00:00	ND	ND	ND	ND	ND	ND	ND	ND	ND	ND	ND	0
43824	2015-01-27T23:00:00	ND	ND	ND	ND	ND	ND	ND	ND	ND	ND	ND	0
43825	2015-01-28T00:00:00	ND	ND	ND	ND	ND	ND	ND	ND	ND	ND	ND	0
43826	2015-01-28T01:00:00	ND	ND	ND	ND	ND	ND	ND	ND	ND	ND	ND	0
43827	2015-01-28T02:00:00	ND	ND	ND	ND	ND	ND	ND	ND	ND	ND	ND	0
43828	2015-01-28T03:00:00	ND	ND	ND	ND	ND	ND	ND	ND	ND	ND	ND	0
43829	2015-01-28T04:00:00	ND	ND	ND	ND	ND	ND	ND	ND	ND	ND	ND	0
43830	2015-01-28T05:00:00	ND	ND	ND	ND	ND	ND	ND	ND	ND	ND	ND	0
43831	2015-01-28T06:00:00	ND	ND	ND	ND	ND	ND	ND	ND	ND	ND	ND	0
43832	2015-01-28T07:00:00	ND	ND	ND	ND	ND	ND	ND	ND	ND	ND	ND	0
43833	2015-01-28T08:00:00	ND	ND	ND	ND	ND	ND	ND	ND	ND	ND	ND	0
43834	2015-01-28T09:00:00	ND	ND	ND	ND	ND	ND	ND	ND	ND	ND	ND	0
43835	2015-01-28T10:00:00	ND	ND	ND	ND	ND	ND	ND	ND	ND	ND	ND	0
43836	2015-01-28T11:00:00	ND	ND	ND	ND	ND	ND	ND	ND	ND	ND	ND	0
43837	2015-01-28T12:00:00	ND	ND	ND	ND	ND	ND	ND	ND	ND	ND	ND	0
43838	2015-01-28T13:00:00	ND	ND	ND	ND	ND	ND	ND	ND	ND	ND	ND	0
43839	2015-01-28T14:00:00	ND	ND	ND	ND	ND	ND	ND	ND	ND	ND	ND	0
43840	2015-01-28T15:00:00	ND	ND	ND	ND	ND	ND	ND	ND	ND	ND	ND	0
43841	2015-01-28T16:00:00	ND	ND	ND	ND	ND	ND	ND	ND	ND	ND	ND	0
43842	2015-01-28T17:00:00	ND	ND	ND	ND	ND	ND	ND	ND	ND	ND	ND	0
43843	2015-01-28T18:00:00	ND	ND	ND	ND	ND	ND	ND	ND	ND	ND	ND	0
43844	2015-01-28T19:00:00	ND	ND	ND	ND	ND	ND	ND	ND	ND	ND	ND	0
43845	2015-01-28T20:00:00	ND	ND	ND	ND	ND	ND	ND	ND	ND	ND	ND	0
43846	2015-01-28T21:00:00	ND	ND	ND	ND	ND	ND	ND	ND	ND	ND	ND	0
43847	2015-01-28T22:00:00	ND	ND	ND	ND	ND	ND	ND	ND	ND	ND	ND	0
43848	2015-01-28T23:00:00	ND	ND	ND	ND	ND	ND	ND	ND	ND	ND	ND	0
43849	2015-01-29T00:00:00	ND	ND	ND	ND	ND	ND	ND	ND	ND	ND	ND	0
43850	2015-01-29T01:00:00	ND	ND	ND	ND	ND	ND	ND	ND	ND	ND	ND	0
43851	2015-01-29T02:00:00	ND	ND	ND	ND	ND	ND	ND	ND	ND	ND	ND	0
43852	2015-01-29T03:00:00	ND	ND	ND	ND	ND	ND	ND	ND	ND	ND	ND	0
43853	2015-01-29T04:00:00	ND	ND	ND	ND	ND	ND	ND	ND	ND	ND	ND	0
43854	2015-01-29T05:00:00	ND	ND	ND	ND	ND	ND	ND	ND	ND	ND	ND	0
43855	2015-01-29T06:00:00	ND	ND	ND	ND	ND	ND	ND	ND	ND	ND	ND	0
43856	2015-01-29T07:00:00	ND	ND	ND	ND	ND	ND	ND	ND	ND	ND	ND	0
43857	2015-01-29T08:00:00	ND	ND	ND	ND	ND	ND	ND	ND	ND	ND	ND	0
43858	2015-01-29T09:00:00	ND	ND	ND	ND	ND	ND	ND	ND	ND	ND	ND	0
43859	2015-01-29T10:00:00	ND	ND	ND	ND	ND	ND	ND	ND	ND	ND	ND	0
43860	2015-01-29T11:00:00	ND	ND	ND	ND	ND	ND	ND	ND	ND	ND	ND	0
43861	2015-01-29T12:00:00	ND	ND	ND	ND	ND	ND	ND	ND	ND	ND	ND	0
43862	2015-01-29T13:00:00	ND	ND	ND	ND	ND	ND	ND	ND	ND	ND	ND	0
43863	2015-01-29T14:00:00	ND	ND	ND	ND	ND	ND	ND	ND	ND	ND	ND	0
43864	2015-01-29T15:00:00	ND	ND	ND	ND	ND	ND	ND	ND	ND	ND	ND	0
43865	2015-01-29T16:00:00	ND	ND	ND	ND	ND	ND	ND	ND	ND	ND	ND	0
43866	2015-01-29T17:00:00	ND	ND	ND	ND	ND	ND	ND	ND	ND	ND	ND	0
43867	2015-01-29T18:00:00	ND	ND	ND	ND	ND	ND	ND	ND	ND	ND	ND	0
43868	2015-01-29T19:00:00	ND	ND	ND	ND	ND	ND	ND	ND	ND	ND	ND	0
43869	2015-01-29T20:00:00	ND	ND	ND	ND	ND	ND	ND	ND	ND	ND	ND	0
43870	2015-01-29T21:00:00	ND	ND	ND	ND	ND	ND	ND	ND	ND	ND	ND	0
43871	2015-01-29T22:00:00	ND	ND	ND	ND	ND	ND	ND	ND	ND	ND	ND	0
43872	2015-01-29T23:00:00	ND	ND	ND	ND	ND	ND	ND	ND	ND	ND	ND	0
43873	2015-01-30T00:00:00	ND	ND	ND	ND	ND	ND	ND	ND	ND	ND	ND	0
43874	2015-01-30T01:00:00	ND	ND	ND	ND	ND	ND	ND	ND	ND	ND	ND	0
43875	2015-01-30T02:00:00	ND	ND	ND	ND	ND	ND	ND	ND	ND	ND	ND	0
43876	2015-01-30T03:00:00	ND	ND	ND	ND	ND	ND	ND	ND	ND	ND	ND	0
43877	2015-01-30T04:00:00	ND	ND	ND	ND	ND	ND	ND	ND	ND	ND	ND	0
43878	2015-01-30T05:00:00	ND	ND	ND	ND	ND	ND	ND	ND	ND	ND	ND	0
43879	2015-01-30T06:00:00	ND	ND	ND	ND	ND	ND	ND	ND	ND	ND	ND	0
43880	2015-01-30T07:00:00	ND	ND	ND	ND	ND	ND	ND	ND	ND	ND	ND	0
43881	2015-01-30T08:00:00	ND	ND	ND	ND	ND	ND	ND	ND	ND	ND	ND	0
43882	2015-01-30T09:00:00	ND	ND	ND	ND	ND	ND	ND	ND	ND	ND	ND	0
43883	2015-01-30T10:00:00	ND	ND	ND	ND	ND	ND	ND	ND	ND	ND	ND	0
43884	2015-01-30T11:00:00	ND	ND	ND	ND	ND	ND	ND	ND	ND	ND	ND	0
43885	2015-01-30T12:00:00	ND	ND	ND	ND	ND	ND	ND	ND	ND	ND	ND	0
43886	2015-01-30T13:00:00	ND	ND	ND	ND	ND	ND	ND	ND	ND	ND	ND	0
43887	2015-01-30T14:00:00	ND	ND	ND	ND	ND	ND	ND	ND	ND	ND	ND	0
43888	2015-01-30T15:00:00	ND	ND	ND	ND	ND	ND	ND	ND	ND	ND	ND	0
43889	2015-01-30T16:00:00	ND	ND	ND	ND	ND	ND	ND	ND	ND	ND	ND	0
43890	2015-01-30T17:00:00	ND	ND	ND	ND	ND	ND	ND	ND	ND	ND	ND	0
43891	2015-01-30T18:00:00	ND	ND	ND	ND	ND	ND	ND	ND	ND	ND	ND	0
43892	2015-01-30T19:00:00	ND	ND	ND	ND	ND	ND	ND	ND	ND	ND	ND	0
43893	2015-01-30T20:00:00	ND	ND	ND	ND	ND	ND	ND	ND	ND	ND	ND	0
43894	2015-01-30T21:00:00	ND	ND	ND	ND	ND	ND	ND	ND	ND	ND	ND	0
43895	2015-01-30T22:00:00	ND	ND	ND	ND	ND	ND	ND	ND	ND	ND	ND	0
43896	2015-01-30T23:00:00	ND	ND	ND	ND	ND	ND	ND	ND	ND	ND	ND	0
43897	2015-01-31T00:00:00	ND	ND	ND	ND	ND	ND	ND	ND	ND	ND	ND	0
43898	2015-01-31T01:00:00	ND	ND	ND	ND	ND	ND	ND	ND	ND	ND	ND	0
43899	2015-01-31T02:00:00	ND	ND	ND	ND	ND	ND	ND	ND	ND	ND	ND	0
43900	2015-01-31T03:00:00	ND	ND	ND	ND	ND	ND	ND	ND	ND	ND	ND	0
43901	2015-01-31T04:00:00	ND	ND	ND	ND	ND	ND	ND	ND	ND	ND	ND	9.4
43902	2015-01-31T05:00:00	ND	ND	ND	ND	ND	ND	ND	ND	ND	ND	ND	0.25
43903	2015-01-31T06:00:00	ND	ND	ND	ND	ND	ND	ND	ND	ND	ND	ND	1.27
43904	2015-01-31T07:00:00	ND	ND	ND	ND	ND	ND	ND	ND	ND	ND	ND	0
43905	2015-01-31T08:00:00	ND	ND	ND	ND	ND	ND	ND	ND	ND	ND	ND	0
43906	2015-01-31T09:00:00	ND	ND	ND	ND	ND	ND	ND	ND	ND	ND	ND	0
43907	2015-01-31T10:00:00	ND	ND	ND	ND	ND	ND	ND	ND	ND	ND	ND	0
43908	2015-01-31T11:00:00	ND	ND	ND	ND	ND	ND	ND	ND	ND	ND	ND	0
43909	2015-01-31T12:00:00	ND	ND	ND	ND	ND	ND	ND	ND	ND	ND	ND	0
43910	2015-01-31T13:00:00	ND	ND	ND	ND	ND	ND	ND	ND	ND	ND	ND	0
43911	2015-01-31T14:00:00	ND	ND	ND	ND	ND	ND	ND	ND	ND	ND	ND	0
43912	2015-01-31T15:00:00	ND	ND	ND	ND	ND	ND	ND	ND	ND	ND	ND	0
43913	2015-01-31T16:00:00	ND	ND	ND	ND	ND	ND	ND	ND	ND	ND	ND	0
43914	2015-01-31T17:00:00	ND	ND	ND	ND	ND	ND	ND	ND	ND	ND	ND	0
43915	2015-01-31T18:00:00	ND	ND	ND	ND	ND	ND	ND	ND	ND	ND	ND	0
43916	2015-01-31T19:00:00	ND	ND	ND	ND	ND	ND	ND	ND	ND	ND	ND	0
43917	2015-01-31T20:00:00	ND	ND	ND	ND	ND	ND	ND	ND	ND	ND	ND	0
43918	2015-01-31T21:00:00	ND	ND	ND	ND	ND	ND	ND	ND	ND	ND	ND	0
43919	2015-01-31T22:00:00	ND	ND	ND	ND	ND	ND	ND	ND	ND	ND	ND	0
43920	2015-01-31T23:00:00	ND	ND	ND	ND	ND	ND	ND	ND	ND	ND	ND	0
43921	2015-02-01T00:00:00	ND	ND	ND	ND	ND	ND	ND	ND	ND	ND	ND	0
43922	2015-02-01T01:00:00	ND	ND	ND	ND	ND	ND	ND	ND	ND	ND	ND	0
43923	2015-02-01T02:00:00	ND	ND	ND	ND	ND	ND	ND	ND	ND	ND	ND	0
43924	2015-02-01T03:00:00	ND	ND	ND	ND	ND	ND	ND	ND	ND	ND	ND	0
43925	2015-02-01T04:00:00	ND	ND	ND	ND	ND	ND	ND	ND	ND	ND	ND	0
43926	2015-02-01T05:00:00	ND	ND	ND	ND	ND	ND	ND	ND	ND	ND	ND	0
43927	2015-02-01T06:00:00	ND	ND	ND	ND	ND	ND	ND	ND	ND	ND	ND	0
43928	2015-02-01T07:00:00	ND	ND	ND	ND	ND	ND	ND	ND	ND	ND	ND	0
43929	2015-02-01T08:00:00	ND	ND	ND	ND	ND	ND	ND	ND	ND	ND	ND	0
43930	2015-02-01T09:00:00	ND	ND	ND	ND	ND	ND	ND	ND	ND	ND	ND	0
43931	2015-02-01T10:00:00	ND	ND	ND	ND	ND	ND	ND	ND	ND	ND	ND	0
43932	2015-02-01T11:00:00	ND	ND	ND	ND	ND	ND	ND	ND	ND	ND	ND	0
43933	2015-02-01T12:00:00	ND	ND	ND	ND	ND	ND	ND	ND	ND	ND	ND	0
43934	2015-02-01T13:00:00	ND	ND	ND	ND	ND	ND	ND	ND	ND	ND	ND	0
43935	2015-02-01T14:00:00	ND	ND	ND	ND	ND	ND	ND	ND	ND	ND	ND	0
43936	2015-02-01T15:00:00	ND	ND	ND	ND	ND	ND	ND	ND	ND	ND	ND	0
43937	2015-02-01T16:00:00	ND	ND	ND	ND	ND	ND	ND	ND	ND	ND	ND	0
43938	2015-02-01T17:00:00	ND	ND	ND	ND	ND	ND	ND	ND	ND	ND	ND	0
43939	2015-02-01T18:00:00	ND	ND	ND	ND	ND	ND	ND	ND	ND	ND	ND	0
43940	2015-02-01T19:00:00	ND	ND	ND	ND	ND	ND	ND	ND	ND	ND	ND	0
43941	2015-02-01T20:00:00	ND	ND	ND	ND	ND	ND	ND	ND	ND	ND	ND	0
43942	2015-02-01T21:00:00	ND	ND	ND	ND	ND	ND	ND	ND	ND	ND	ND	0
43943	2015-02-01T22:00:00	ND	ND	ND	ND	ND	ND	ND	ND	ND	ND	ND	0
43944	2015-02-01T23:00:00	ND	ND	ND	ND	ND	ND	ND	ND	ND	ND	ND	0
43945	2015-02-02T00:00:00	ND	ND	ND	ND	ND	ND	ND	ND	ND	ND	ND	0
43946	2015-02-02T01:00:00	ND	ND	ND	ND	ND	ND	ND	ND	ND	ND	ND	0
43947	2015-02-02T02:00:00	ND	ND	ND	ND	ND	ND	ND	ND	ND	ND	ND	0
43948	2015-02-02T03:00:00	ND	ND	ND	ND	ND	ND	ND	ND	ND	ND	ND	0
43949	2015-02-02T04:00:00	ND	ND	ND	ND	ND	ND	ND	ND	ND	ND	ND	0
43950	2015-02-02T05:00:00	ND	ND	ND	ND	ND	ND	ND	ND	ND	ND	ND	0
43951	2015-02-02T06:00:00	ND	ND	ND	ND	ND	ND	ND	ND	ND	ND	ND	0
43952	2015-02-02T07:00:00	ND	ND	ND	ND	ND	ND	ND	ND	ND	ND	ND	0
43953	2015-02-02T08:00:00	ND	ND	ND	ND	ND	ND	ND	ND	ND	ND	ND	0
43954	2015-02-02T09:00:00	ND	ND	ND	ND	ND	ND	ND	ND	ND	ND	ND	0
43955	2015-02-02T10:00:00	ND	ND	ND	ND	ND	ND	ND	ND	ND	ND	ND	0
43956	2015-02-02T11:00:00	ND	ND	ND	ND	ND	ND	ND	ND	ND	ND	ND	0
43957	2015-02-02T12:00:00	ND	ND	ND	ND	ND	ND	ND	ND	ND	ND	ND	0
43958	2015-02-02T13:00:00	ND	ND	ND	ND	ND	ND	ND	ND	ND	ND	ND	0
43959	2015-02-02T14:00:00	ND	ND	ND	ND	ND	ND	ND	ND	ND	ND	ND	0
43960	2015-02-02T15:00:00	ND	ND	ND	ND	ND	ND	ND	ND	ND	ND	ND	0
43961	2015-02-02T16:00:00	ND	ND	ND	ND	ND	ND	ND	ND	ND	ND	ND	0
43962	2015-02-02T17:00:00	ND	ND	ND	ND	ND	ND	ND	ND	ND	ND	ND	0
43963	2015-02-02T18:00:00	ND	ND	ND	ND	ND	ND	ND	ND	ND	ND	ND	0
43964	2015-02-02T19:00:00	ND	ND	ND	ND	ND	ND	ND	ND	ND	ND	ND	0
43965	2015-02-02T20:00:00	ND	ND	ND	ND	ND	ND	ND	ND	ND	ND	ND	0
43966	2015-02-02T21:00:00	ND	ND	ND	ND	ND	ND	ND	ND	ND	ND	ND	0
43967	2015-02-02T22:00:00	ND	ND	ND	ND	ND	ND	ND	ND	ND	ND	ND	0
43968	2015-02-02T23:00:00	ND	ND	ND	ND	ND	ND	ND	ND	ND	ND	ND	0
43969	2015-02-03T00:00:00	ND	ND	ND	ND	ND	ND	ND	ND	ND	ND	ND	0
43970	2015-02-03T01:00:00	ND	ND	ND	ND	ND	ND	ND	ND	ND	ND	ND	0
43971	2015-02-03T02:00:00	ND	ND	ND	ND	ND	ND	ND	ND	ND	ND	ND	0
43972	2015-02-03T03:00:00	ND	ND	ND	ND	ND	ND	ND	ND	ND	ND	ND	0
43973	2015-02-03T04:00:00	ND	ND	ND	ND	ND	ND	ND	ND	ND	ND	ND	0
43974	2015-02-03T05:00:00	ND	ND	ND	ND	ND	ND	ND	ND	ND	ND	ND	0
43975	2015-02-03T06:00:00	ND	ND	ND	ND	ND	ND	ND	ND	ND	ND	ND	0
43976	2015-02-03T07:00:00	ND	ND	ND	ND	ND	ND	ND	ND	ND	ND	ND	0
43977	2015-02-03T08:00:00	ND	ND	ND	ND	ND	ND	ND	ND	ND	ND	ND	0
43978	2015-02-03T09:00:00	ND	ND	ND	ND	ND	ND	ND	ND	ND	ND	ND	0
43979	2015-02-03T10:00:00	ND	ND	ND	ND	ND	ND	ND	ND	ND	ND	ND	0
43980	2015-02-03T11:00:00	ND	ND	ND	ND	ND	ND	ND	ND	ND	ND	ND	0
43981	2015-02-03T12:00:00	ND	ND	ND	ND	ND	ND	ND	ND	ND	ND	ND	0
43982	2015-02-03T13:00:00	ND	ND	ND	ND	ND	ND	ND	ND	ND	ND	ND	0
43983	2015-02-03T14:00:00	ND	ND	ND	ND	ND	ND	ND	ND	ND	ND	ND	0
43984	2015-02-03T15:00:00	ND	ND	ND	ND	ND	ND	ND	ND	ND	ND	ND	0
43985	2015-02-03T16:00:00	ND	ND	ND	ND	ND	ND	ND	ND	ND	ND	ND	0
43986	2015-02-03T17:00:00	ND	ND	ND	ND	ND	ND	ND	ND	ND	ND	ND	0
43987	2015-02-03T18:00:00	ND	ND	ND	ND	ND	ND	ND	ND	ND	ND	ND	0
43988	2015-02-03T19:00:00	ND	ND	ND	ND	ND	ND	ND	ND	ND	ND	ND	0
43989	2015-02-03T20:00:00	ND	ND	ND	ND	ND	ND	ND	ND	ND	ND	ND	0
43990	2015-02-03T21:00:00	ND	ND	ND	ND	ND	ND	ND	ND	ND	ND	ND	0
43991	2015-02-03T22:00:00	ND	ND	ND	ND	ND	ND	ND	ND	ND	ND	ND	0
43992	2015-02-03T23:00:00	ND	ND	ND	ND	ND	ND	ND	ND	ND	ND	ND	0
43993	2015-02-04T00:00:00	ND	ND	ND	ND	ND	ND	ND	ND	ND	ND	ND	0
43994	2015-02-04T01:00:00	ND	ND	ND	ND	ND	ND	ND	ND	ND	ND	ND	0
43995	2015-02-04T02:00:00	ND	ND	ND	ND	ND	ND	ND	ND	ND	ND	ND	0
43996	2015-02-04T03:00:00	ND	ND	ND	ND	ND	ND	ND	ND	ND	ND	ND	0
43997	2015-02-04T04:00:00	ND	ND	ND	ND	ND	ND	ND	ND	ND	ND	ND	0
43998	2015-02-04T05:00:00	ND	ND	ND	ND	ND	ND	ND	ND	ND	ND	ND	0
43999	2015-02-04T06:00:00	ND	ND	ND	ND	ND	ND	ND	ND	ND	ND	ND	0
44000	2015-02-04T07:00:00	ND	ND	ND	ND	ND	ND	ND	ND	ND	ND	ND	0
44001	2015-02-04T08:00:00	ND	ND	ND	ND	ND	ND	ND	ND	ND	ND	ND	0
44002	2015-02-04T09:00:00	ND	ND	ND	ND	ND	ND	ND	ND	ND	ND	ND	0
44003	2015-02-04T10:00:00	ND	ND	ND	ND	ND	ND	ND	ND	ND	ND	ND	0
44004	2015-02-04T11:00:00	ND	ND	ND	ND	ND	ND	ND	ND	ND	ND	ND	0
44005	2015-02-04T12:00:00	ND	ND	ND	ND	ND	ND	ND	ND	ND	ND	ND	0
44006	2015-02-04T13:00:00	ND	ND	ND	ND	ND	ND	ND	ND	ND	ND	ND	0
44007	2015-02-04T14:00:00	ND	ND	ND	ND	ND	ND	ND	ND	ND	ND	ND	0
44008	2015-02-04T15:00:00	ND	ND	ND	ND	ND	ND	ND	ND	ND	ND	ND	0
44009	2015-02-04T16:00:00	ND	ND	ND	ND	ND	ND	ND	ND	ND	ND	ND	0
44010	2015-02-04T17:00:00	ND	ND	ND	ND	ND	ND	ND	ND	ND	ND	ND	0
44011	2015-02-04T18:00:00	ND	ND	ND	ND	ND	ND	ND	ND	ND	ND	ND	0
44012	2015-02-04T19:00:00	ND	ND	ND	ND	ND	ND	ND	ND	ND	ND	ND	0
44013	2015-02-04T20:00:00	ND	ND	ND	ND	ND	ND	ND	ND	ND	ND	ND	0
44014	2015-02-04T21:00:00	ND	ND	ND	ND	ND	ND	ND	ND	ND	ND	ND	0
44015	2015-02-04T22:00:00	ND	ND	ND	ND	ND	ND	ND	ND	ND	ND	ND	0
44016	2015-02-04T23:00:00	ND	ND	ND	ND	ND	ND	ND	ND	ND	ND	ND	0
44017	2015-02-05T00:00:00	ND	ND	ND	ND	ND	ND	ND	ND	ND	ND	ND	0
44018	2015-02-05T01:00:00	ND	ND	ND	ND	ND	ND	ND	ND	ND	ND	ND	0
44019	2015-02-05T02:00:00	ND	ND	ND	ND	ND	ND	ND	ND	ND	ND	ND	0
44020	2015-02-05T03:00:00	ND	ND	ND	ND	ND	ND	ND	ND	ND	ND	ND	0
44021	2015-02-05T04:00:00	ND	ND	ND	ND	ND	ND	ND	ND	ND	ND	ND	0
44022	2015-02-05T05:00:00	ND	ND	ND	ND	ND	ND	ND	ND	ND	ND	ND	0
44023	2015-02-05T06:00:00	ND	ND	ND	ND	ND	ND	ND	ND	ND	ND	ND	0
44024	2015-02-05T07:00:00	ND	ND	ND	ND	ND	ND	ND	ND	ND	ND	ND	0
44025	2015-02-05T08:00:00	ND	ND	ND	ND	ND	ND	ND	ND	ND	ND	ND	0
44026	2015-02-05T09:00:00	ND	ND	ND	ND	ND	ND	ND	ND	ND	ND	ND	0.25
44027	2015-02-05T10:00:00	ND	ND	ND	ND	ND	ND	ND	ND	ND	ND	ND	0
44028	2015-02-05T11:00:00	ND	ND	ND	ND	ND	ND	ND	ND	ND	ND	ND	0
44029	2015-02-05T12:00:00	ND	ND	ND	ND	ND	ND	ND	ND	ND	ND	ND	0
44030	2015-02-05T13:00:00	ND	ND	ND	ND	ND	ND	ND	ND	ND	ND	ND	0
44031	2015-02-05T14:00:00	ND	ND	ND	ND	ND	ND	ND	ND	ND	ND	ND	0
44032	2015-02-05T15:00:00	ND	ND	ND	ND	ND	ND	ND	ND	ND	ND	ND	0
44033	2015-02-05T16:00:00	ND	ND	ND	ND	ND	ND	ND	ND	ND	ND	ND	0
44034	2015-02-05T17:00:00	ND	ND	ND	ND	ND	ND	ND	ND	ND	ND	ND	0
44035	2015-02-05T18:00:00	ND	ND	ND	ND	ND	ND	ND	ND	ND	ND	ND	0
44036	2015-02-05T19:00:00	ND	ND	ND	ND	ND	ND	ND	ND	ND	ND	ND	0
44037	2015-02-05T20:00:00	ND	ND	ND	ND	ND	ND	ND	ND	ND	ND	ND	0
44038	2015-02-05T21:00:00	ND	ND	ND	ND	ND	ND	ND	ND	ND	ND	ND	0
44039	2015-02-05T22:00:00	ND	ND	ND	ND	ND	ND	ND	ND	ND	ND	ND	0
44040	2015-02-05T23:00:00	ND	ND	ND	ND	ND	ND	ND	ND	ND	ND	ND	0
44041	2015-02-06T00:00:00	ND	ND	ND	ND	ND	ND	ND	ND	ND	ND	ND	0
44042	2015-02-06T01:00:00	ND	ND	ND	ND	ND	ND	ND	ND	ND	ND	ND	0
44043	2015-02-06T02:00:00	ND	ND	ND	ND	ND	ND	ND	ND	ND	ND	ND	0
44044	2015-02-06T03:00:00	ND	ND	ND	ND	ND	ND	ND	ND	ND	ND	ND	0
44045	2015-02-06T04:00:00	ND	ND	ND	ND	ND	ND	ND	ND	ND	ND	ND	0
44046	2015-02-06T05:00:00	ND	ND	ND	ND	ND	ND	ND	ND	ND	ND	ND	0
44047	2015-02-06T06:00:00	ND	ND	ND	ND	ND	ND	ND	ND	ND	ND	ND	0
44048	2015-02-06T07:00:00	ND	ND	ND	ND	ND	ND	ND	ND	ND	ND	ND	0
44049	2015-02-06T08:00:00	ND	ND	ND	ND	ND	ND	ND	ND	ND	ND	ND	0
44050	2015-02-06T09:00:00	ND	ND	ND	ND	ND	ND	ND	ND	ND	ND	ND	0
44051	2015-02-06T10:00:00	ND	ND	ND	ND	ND	ND	ND	ND	ND	ND	ND	0
44052	2015-02-06T11:00:00	ND	ND	ND	ND	ND	ND	ND	ND	ND	ND	ND	0
44053	2015-02-06T12:00:00	ND	ND	ND	ND	ND	ND	ND	ND	ND	ND	ND	0
44054	2015-02-06T13:00:00	ND	ND	ND	ND	ND	ND	ND	ND	ND	ND	ND	0
44055	2015-02-06T14:00:00	ND	ND	ND	ND	ND	ND	ND	ND	ND	ND	ND	0
44056	2015-02-06T15:00:00	ND	ND	ND	ND	ND	ND	ND	ND	ND	ND	ND	0
44057	2015-02-06T16:00:00	ND	ND	ND	ND	ND	ND	ND	ND	ND	ND	ND	0
44058	2015-02-06T17:00:00	ND	ND	ND	ND	ND	ND	ND	ND	ND	ND	ND	0
44059	2015-02-06T18:00:00	ND	ND	ND	ND	ND	ND	ND	ND	ND	ND	ND	0
44060	2015-02-06T19:00:00	ND	ND	ND	ND	ND	ND	ND	ND	ND	ND	ND	2.79
44061	2015-02-06T20:00:00	ND	ND	ND	ND	ND	ND	ND	ND	ND	ND	ND	0
44062	2015-02-06T21:00:00	ND	ND	ND	ND	ND	ND	ND	ND	ND	ND	ND	0
44063	2015-02-06T22:00:00	ND	ND	ND	ND	ND	ND	ND	ND	ND	ND	ND	0
44064	2015-02-06T23:00:00	ND	ND	ND	ND	ND	ND	ND	ND	ND	ND	ND	0
44065	2015-02-07T00:00:00	ND	ND	ND	ND	ND	ND	ND	ND	ND	ND	ND	0.25
44066	2015-02-07T01:00:00	ND	ND	ND	ND	ND	ND	ND	ND	ND	ND	ND	0
44067	2015-02-07T02:00:00	ND	ND	ND	ND	ND	ND	ND	ND	ND	ND	ND	0
44068	2015-02-07T03:00:00	ND	ND	ND	ND	ND	ND	ND	ND	ND	ND	ND	0
44069	2015-02-07T04:00:00	ND	ND	ND	ND	ND	ND	ND	ND	ND	ND	ND	0
44070	2015-02-07T05:00:00	ND	ND	ND	ND	ND	ND	ND	ND	ND	ND	ND	0
44071	2015-02-07T06:00:00	ND	ND	ND	ND	ND	ND	ND	ND	ND	ND	ND	0
44072	2015-02-07T07:00:00	ND	ND	ND	ND	ND	ND	ND	ND	ND	ND	ND	0
44073	2015-02-07T08:00:00	ND	ND	ND	ND	ND	ND	ND	ND	ND	ND	ND	16.51
44074	2015-02-07T09:00:00	ND	ND	ND	ND	ND	ND	ND	ND	ND	ND	ND	14.73
44075	2015-02-07T10:00:00	ND	ND	ND	ND	ND	ND	ND	ND	ND	ND	ND	2.79
44076	2015-02-07T11:00:00	ND	ND	ND	ND	ND	ND	ND	ND	ND	ND	ND	0
44077	2015-02-07T12:00:00	ND	ND	ND	ND	ND	ND	ND	ND	ND	ND	ND	0
44078	2015-02-07T13:00:00	ND	ND	ND	ND	ND	ND	ND	ND	ND	ND	ND	0
44079	2015-02-07T14:00:00	ND	ND	ND	ND	ND	ND	ND	ND	ND	ND	ND	12.7
44080	2015-02-07T15:00:00	ND	ND	ND	ND	ND	ND	ND	ND	ND	ND	ND	14.73
44081	2015-02-07T16:00:00	ND	ND	ND	ND	ND	ND	ND	ND	ND	ND	ND	0.25
44082	2015-02-07T17:00:00	ND	ND	ND	ND	ND	ND	ND	ND	ND	ND	ND	0
44083	2015-02-07T18:00:00	ND	ND	ND	ND	ND	ND	ND	ND	ND	ND	ND	0
44084	2015-02-07T19:00:00	ND	ND	ND	ND	ND	ND	ND	ND	ND	ND	ND	0
44085	2015-02-07T20:00:00	ND	ND	ND	ND	ND	ND	ND	ND	ND	ND	ND	0
44086	2015-02-07T21:00:00	ND	ND	ND	ND	ND	ND	ND	ND	ND	ND	ND	0
44087	2015-02-07T22:00:00	ND	ND	ND	ND	ND	ND	ND	ND	ND	ND	ND	0
44088	2015-02-07T23:00:00	ND	ND	ND	ND	ND	ND	ND	ND	ND	ND	ND	0
44089	2015-02-08T00:00:00	ND	ND	ND	ND	ND	ND	ND	ND	ND	ND	ND	0
44090	2015-02-08T01:00:00	ND	ND	ND	ND	ND	ND	ND	ND	ND	ND	ND	0
44091	2015-02-08T02:00:00	ND	ND	ND	ND	ND	ND	ND	ND	ND	ND	ND	0
44092	2015-02-08T03:00:00	ND	ND	ND	ND	ND	ND	ND	ND	ND	ND	ND	1.02
44093	2015-02-08T04:00:00	ND	ND	ND	ND	ND	ND	ND	ND	ND	ND	ND	12.7
44094	2015-02-08T05:00:00	ND	ND	ND	ND	ND	ND	ND	ND	ND	ND	ND	1.02
44095	2015-02-08T06:00:00	ND	ND	ND	ND	ND	ND	ND	ND	ND	ND	ND	0.25
44096	2015-02-08T07:00:00	ND	ND	ND	ND	ND	ND	ND	ND	ND	ND	ND	0.25
44097	2015-02-08T08:00:00	ND	ND	ND	ND	ND	ND	ND	ND	ND	ND	ND	1.02
44098	2015-02-08T09:00:00	ND	ND	ND	ND	ND	ND	ND	ND	ND	ND	ND	0
44099	2015-02-08T10:00:00	ND	ND	ND	ND	ND	ND	ND	ND	ND	ND	ND	0
44100	2015-02-08T11:00:00	ND	ND	ND	ND	ND	ND	ND	ND	ND	ND	ND	0.25
44101	2015-02-08T12:00:00	ND	ND	ND	ND	ND	ND	ND	ND	ND	ND	ND	0
44102	2015-02-08T13:00:00	ND	ND	ND	ND	ND	ND	ND	ND	ND	ND	ND	0
44103	2015-02-08T14:00:00	ND	ND	ND	ND	ND	ND	ND	ND	ND	ND	ND	0
44104	2015-02-08T15:00:00	ND	ND	ND	ND	ND	ND	ND	ND	ND	ND	ND	0
44105	2015-02-08T16:00:00	ND	ND	ND	ND	ND	ND	ND	ND	ND	ND	ND	0
44106	2015-02-08T17:00:00	ND	ND	ND	ND	ND	ND	ND	ND	ND	ND	ND	0
44107	2015-02-08T18:00:00	ND	ND	ND	ND	ND	ND	ND	ND	ND	ND	ND	0
44108	2015-02-08T19:00:00	ND	ND	ND	ND	ND	ND	ND	ND	ND	ND	ND	1.02
44109	2015-02-08T20:00:00	ND	ND	ND	ND	ND	ND	ND	ND	ND	ND	ND	0.76
44110	2015-02-08T21:00:00	ND	ND	ND	ND	ND	ND	ND	ND	ND	ND	ND	0.25
44111	2015-02-08T22:00:00	ND	ND	ND	ND	ND	ND	ND	ND	ND	ND	ND	0
44112	2015-02-08T23:00:00	ND	ND	ND	ND	ND	ND	ND	ND	ND	ND	ND	0
44113	2015-02-09T00:00:00	ND	ND	ND	ND	ND	ND	ND	ND	ND	ND	ND	0
44114	2015-02-09T01:00:00	ND	ND	ND	ND	ND	ND	ND	ND	ND	ND	ND	11.43
44115	2015-02-09T02:00:00	ND	ND	ND	ND	ND	ND	ND	ND	ND	ND	ND	12.7
44116	2015-02-09T03:00:00	ND	ND	ND	ND	ND	ND	ND	ND	ND	ND	ND	8.13
44117	2015-02-09T04:00:00	ND	ND	ND	ND	ND	ND	ND	ND	ND	ND	ND	0.25
44118	2015-02-09T05:00:00	ND	ND	ND	ND	ND	ND	ND	ND	ND	ND	ND	2.54
44119	2015-02-09T06:00:00	ND	ND	ND	ND	ND	ND	ND	ND	ND	ND	ND	26.42
44120	2015-02-09T07:00:00	ND	ND	ND	ND	ND	ND	ND	ND	ND	ND	ND	6.1
44121	2015-02-09T08:00:00	ND	ND	ND	ND	ND	ND	ND	ND	ND	ND	ND	0.76
44122	2015-02-09T09:00:00	ND	ND	ND	ND	ND	ND	ND	ND	ND	ND	ND	0.25
44123	2015-02-09T10:00:00	ND	ND	ND	ND	ND	ND	ND	ND	ND	ND	ND	0
44124	2015-02-09T11:00:00	ND	ND	ND	ND	ND	ND	ND	ND	ND	ND	ND	0
44125	2015-02-09T12:00:00	ND	ND	ND	ND	ND	ND	ND	ND	ND	ND	ND	0
44126	2015-02-09T13:00:00	ND	ND	ND	ND	ND	ND	ND	ND	ND	ND	ND	0
44127	2015-02-09T14:00:00	ND	ND	ND	ND	ND	ND	ND	ND	ND	ND	ND	0
44128	2015-02-09T15:00:00	ND	ND	ND	ND	ND	ND	ND	ND	ND	ND	ND	6.6
44129	2015-02-09T16:00:00	ND	ND	ND	ND	ND	ND	ND	ND	ND	ND	ND	0.25
44130	2015-02-09T17:00:00	ND	ND	ND	ND	ND	ND	ND	ND	ND	ND	ND	0
44131	2015-02-09T18:00:00	ND	ND	ND	ND	ND	ND	ND	ND	ND	ND	ND	0
44132	2015-02-09T19:00:00	ND	ND	ND	ND	ND	ND	ND	ND	ND	ND	ND	0
44133	2015-02-09T20:00:00	ND	ND	ND	ND	ND	ND	ND	ND	ND	ND	ND	0
44134	2015-02-09T21:00:00	ND	ND	ND	ND	ND	ND	ND	ND	ND	ND	ND	0
44135	2015-02-09T22:00:00	ND	ND	ND	ND	ND	ND	ND	ND	ND	ND	ND	0
44136	2015-02-09T23:00:00	ND	ND	ND	ND	ND	ND	ND	ND	ND	ND	ND	0
44137	2015-02-10T00:00:00	ND	ND	ND	ND	ND	ND	ND	ND	ND	ND	ND	0
44138	2015-02-10T01:00:00	ND	ND	ND	ND	ND	ND	ND	ND	ND	ND	ND	2.79
44139	2015-02-10T02:00:00	ND	ND	ND	ND	ND	ND	ND	ND	ND	ND	ND	5.59
44140	2015-02-10T03:00:00	ND	ND	ND	ND	ND	ND	ND	ND	ND	ND	ND	2.29
44141	2015-02-10T04:00:00	ND	ND	ND	ND	ND	ND	ND	ND	ND	ND	ND	0.25
44142	2015-02-10T05:00:00	ND	ND	ND	ND	ND	ND	ND	ND	ND	ND	ND	0
44143	2015-02-10T06:00:00	ND	ND	ND	ND	ND	ND	ND	ND	ND	ND	ND	0
44144	2015-02-10T07:00:00	ND	ND	ND	ND	ND	ND	ND	ND	ND	ND	ND	0
44145	2015-02-10T08:00:00	ND	ND	ND	ND	ND	ND	ND	ND	ND	ND	ND	0.25
44146	2015-02-10T09:00:00	ND	ND	ND	ND	ND	ND	ND	ND	ND	ND	ND	0
44147	2015-02-10T10:00:00	ND	ND	ND	ND	ND	ND	ND	ND	ND	ND	ND	0
44148	2015-02-10T11:00:00	ND	ND	ND	ND	ND	ND	ND	ND	ND	ND	ND	0
44149	2015-02-10T12:00:00	ND	ND	ND	ND	ND	ND	ND	ND	ND	ND	ND	0
44150	2015-02-10T13:00:00	ND	ND	ND	ND	ND	ND	ND	ND	ND	ND	ND	0
44151	2015-02-10T14:00:00	ND	ND	ND	ND	ND	ND	ND	ND	ND	ND	ND	0
44152	2015-02-10T15:00:00	ND	ND	ND	ND	ND	ND	ND	ND	ND	ND	ND	0
44153	2015-02-10T16:00:00	ND	ND	ND	ND	ND	ND	ND	ND	ND	ND	ND	0
44154	2015-02-10T17:00:00	ND	ND	ND	ND	ND	ND	ND	ND	ND	ND	ND	0
44155	2015-02-10T18:00:00	ND	ND	ND	ND	ND	ND	ND	ND	ND	ND	ND	0
44156	2015-02-10T19:00:00	ND	ND	ND	ND	ND	ND	ND	ND	ND	ND	ND	0
44157	2015-02-10T20:00:00	ND	ND	ND	ND	ND	ND	ND	ND	ND	ND	ND	0
44158	2015-02-10T21:00:00	ND	ND	ND	ND	ND	ND	ND	ND	ND	ND	ND	0
44159	2015-02-10T22:00:00	ND	ND	ND	ND	ND	ND	ND	ND	ND	ND	ND	0
44160	2015-02-10T23:00:00	ND	ND	ND	ND	ND	ND	ND	ND	ND	ND	ND	0
44161	2015-02-11T00:00:00	ND	ND	ND	ND	ND	ND	ND	ND	ND	ND	ND	0
44162	2015-02-11T01:00:00	ND	ND	ND	ND	ND	ND	ND	ND	ND	ND	ND	0
44163	2015-02-11T02:00:00	ND	ND	ND	ND	ND	ND	ND	ND	ND	ND	ND	0
44164	2015-02-11T03:00:00	ND	ND	ND	ND	ND	ND	ND	ND	ND	ND	ND	0
44165	2015-02-11T04:00:00	ND	ND	ND	ND	ND	ND	ND	ND	ND	ND	ND	0
44166	2015-02-11T05:00:00	ND	ND	ND	ND	ND	ND	ND	ND	ND	ND	ND	0
44167	2015-02-11T06:00:00	ND	ND	ND	ND	ND	ND	ND	ND	ND	ND	ND	0
44168	2015-02-11T07:00:00	ND	ND	ND	ND	ND	ND	ND	ND	ND	ND	ND	0
44169	2015-02-11T08:00:00	ND	ND	ND	ND	ND	ND	ND	ND	ND	ND	ND	0
44170	2015-02-11T09:00:00	ND	ND	ND	ND	ND	ND	ND	ND	ND	ND	ND	0
44171	2015-02-11T10:00:00	ND	ND	ND	ND	ND	ND	ND	ND	ND	ND	ND	0
44172	2015-02-11T11:00:00	ND	ND	ND	ND	ND	ND	ND	ND	ND	ND	ND	0
44173	2015-02-11T12:00:00	ND	ND	ND	ND	ND	ND	ND	ND	ND	ND	ND	0
44174	2015-02-11T13:00:00	ND	ND	ND	ND	ND	ND	ND	ND	ND	ND	ND	0
44175	2015-02-11T14:00:00	ND	ND	ND	ND	ND	ND	ND	ND	ND	ND	ND	0
44176	2015-02-11T15:00:00	ND	ND	ND	ND	ND	ND	ND	ND	ND	ND	ND	0
44177	2015-02-11T16:00:00	ND	ND	ND	ND	ND	ND	ND	ND	ND	ND	ND	0
44178	2015-02-11T17:00:00	ND	ND	ND	ND	ND	ND	ND	ND	ND	ND	ND	0
44179	2015-02-11T18:00:00	ND	ND	ND	ND	ND	ND	ND	ND	ND	ND	ND	0
44180	2015-02-11T19:00:00	ND	ND	ND	ND	ND	ND	ND	ND	ND	ND	ND	0
44181	2015-02-11T20:00:00	ND	ND	ND	ND	ND	ND	ND	ND	ND	ND	ND	0
44182	2015-02-11T21:00:00	ND	ND	ND	ND	ND	ND	ND	ND	ND	ND	ND	0
44183	2015-02-11T22:00:00	ND	ND	ND	ND	ND	ND	ND	ND	ND	ND	ND	0
44184	2015-02-11T23:00:00	ND	ND	ND	ND	ND	ND	ND	ND	ND	ND	ND	0
44185	2015-02-12T00:00:00	ND	ND	ND	ND	ND	ND	ND	ND	ND	ND	ND	0
44186	2015-02-12T01:00:00	ND	ND	ND	ND	ND	ND	ND	ND	ND	ND	ND	0
44187	2015-02-12T02:00:00	ND	ND	ND	ND	ND	ND	ND	ND	ND	ND	ND	0
44188	2015-02-12T03:00:00	ND	ND	ND	ND	ND	ND	ND	ND	ND	ND	ND	0
44189	2015-02-12T04:00:00	ND	ND	ND	ND	ND	ND	ND	ND	ND	ND	ND	0
44190	2015-02-12T05:00:00	ND	ND	ND	ND	ND	ND	ND	ND	ND	ND	ND	0
44191	2015-02-12T06:00:00	ND	ND	ND	ND	ND	ND	ND	ND	ND	ND	ND	0
44192	2015-02-12T07:00:00	ND	ND	ND	ND	ND	ND	ND	ND	ND	ND	ND	0
44193	2015-02-12T08:00:00	ND	ND	ND	ND	ND	ND	ND	ND	ND	ND	ND	0
44194	2015-02-12T09:00:00	ND	ND	ND	ND	ND	ND	ND	ND	ND	ND	ND	0
44195	2015-02-12T10:00:00	ND	ND	ND	ND	ND	ND	ND	ND	ND	ND	ND	0
44196	2015-02-12T11:00:00	ND	ND	ND	ND	ND	ND	ND	ND	ND	ND	ND	0
44197	2015-02-12T12:00:00	ND	ND	ND	ND	ND	ND	ND	ND	ND	ND	ND	0
44198	2015-02-12T13:00:00	ND	ND	ND	ND	ND	ND	ND	ND	ND	ND	ND	0
44199	2015-02-12T14:00:00	ND	ND	ND	ND	ND	ND	ND	ND	ND	ND	ND	0
44200	2015-02-12T15:00:00	ND	ND	ND	ND	ND	ND	ND	ND	ND	ND	ND	0
44201	2015-02-12T16:00:00	ND	ND	ND	ND	ND	ND	ND	ND	ND	ND	ND	0
44202	2015-02-12T17:00:00	ND	ND	ND	ND	ND	ND	ND	ND	ND	ND	ND	1.02
44203	2015-02-12T18:00:00	ND	ND	ND	ND	ND	ND	ND	ND	ND	ND	ND	0
44204	2015-02-12T19:00:00	ND	ND	ND	ND	ND	ND	ND	ND	ND	ND	ND	0
44205	2015-02-12T20:00:00	ND	ND	ND	ND	ND	ND	ND	ND	ND	ND	ND	0
44206	2015-02-12T21:00:00	ND	ND	ND	ND	ND	ND	ND	ND	ND	ND	ND	0
44207	2015-02-12T22:00:00	ND	ND	ND	ND	ND	ND	ND	ND	ND	ND	ND	0
44208	2015-02-12T23:00:00	ND	ND	ND	ND	ND	ND	ND	ND	ND	ND	ND	0
44209	2015-02-13T00:00:00	ND	ND	ND	ND	ND	ND	ND	ND	ND	ND	ND	0
44210	2015-02-13T01:00:00	ND	ND	ND	ND	ND	ND	ND	ND	ND	ND	ND	0
44211	2015-02-13T02:00:00	ND	ND	ND	ND	ND	ND	ND	ND	ND	ND	ND	0
44212	2015-02-13T03:00:00	ND	ND	ND	ND	ND	ND	ND	ND	ND	ND	ND	0
44213	2015-02-13T04:00:00	ND	ND	ND	ND	ND	ND	ND	ND	ND	ND	ND	0
44214	2015-02-13T05:00:00	ND	ND	ND	ND	ND	ND	ND	ND	ND	ND	ND	0
44215	2015-02-13T06:00:00	ND	ND	ND	ND	ND	ND	ND	ND	ND	ND	ND	0
44216	2015-02-13T07:00:00	ND	ND	ND	ND	ND	ND	ND	ND	ND	ND	ND	0
44217	2015-02-13T08:00:00	ND	ND	ND	ND	ND	ND	ND	ND	ND	ND	ND	0
44218	2015-02-13T09:00:00	ND	ND	ND	ND	ND	ND	ND	ND	ND	ND	ND	0
44219	2015-02-13T10:00:00	ND	ND	ND	ND	ND	ND	ND	ND	ND	ND	ND	0
44220	2015-02-13T11:00:00	ND	ND	ND	ND	ND	ND	ND	ND	ND	ND	ND	0
44221	2015-02-13T12:00:00	ND	ND	ND	ND	ND	ND	ND	ND	ND	ND	ND	0
44222	2015-02-13T13:00:00	ND	ND	ND	ND	ND	ND	ND	ND	ND	ND	ND	0
44223	2015-02-13T14:00:00	ND	ND	ND	ND	ND	ND	ND	ND	ND	ND	ND	0
44224	2015-02-13T15:00:00	ND	ND	ND	ND	ND	ND	ND	ND	ND	ND	ND	0
44225	2015-02-13T16:00:00	ND	ND	ND	ND	ND	ND	ND	ND	ND	ND	ND	0
44226	2015-02-13T17:00:00	ND	ND	ND	ND	ND	ND	ND	ND	ND	ND	ND	0
44227	2015-02-13T18:00:00	ND	ND	ND	ND	ND	ND	ND	ND	ND	ND	ND	0
44228	2015-02-13T19:00:00	ND	ND	ND	ND	ND	ND	ND	ND	ND	ND	ND	0
44229	2015-02-13T20:00:00	ND	ND	ND	ND	ND	ND	ND	ND	ND	ND	ND	0
44230	2015-02-13T21:00:00	ND	ND	ND	ND	ND	ND	ND	ND	ND	ND	ND	0
44231	2015-02-13T22:00:00	ND	ND	ND	ND	ND	ND	ND	ND	ND	ND	ND	0
44232	2015-02-13T23:00:00	ND	ND	ND	ND	ND	ND	ND	ND	ND	ND	ND	0
44233	2015-02-14T00:00:00	ND	ND	ND	ND	ND	ND	ND	ND	ND	ND	ND	0
44234	2015-02-14T01:00:00	ND	ND	ND	ND	ND	ND	ND	ND	ND	ND	ND	0
44235	2015-02-14T02:00:00	ND	ND	ND	ND	ND	ND	ND	ND	ND	ND	ND	0
44236	2015-02-14T03:00:00	ND	ND	ND	ND	ND	ND	ND	ND	ND	ND	ND	0
44237	2015-02-14T04:00:00	ND	ND	ND	ND	ND	ND	ND	ND	ND	ND	ND	0
44238	2015-02-14T05:00:00	ND	ND	ND	ND	ND	ND	ND	ND	ND	ND	ND	0
44239	2015-02-14T06:00:00	ND	ND	ND	ND	ND	ND	ND	ND	ND	ND	ND	0
44240	2015-02-14T07:00:00	ND	ND	ND	ND	ND	ND	ND	ND	ND	ND	ND	0
44241	2015-02-14T08:00:00	ND	ND	ND	ND	ND	ND	ND	ND	ND	ND	ND	0
44242	2015-02-14T09:00:00	ND	ND	ND	ND	ND	ND	ND	ND	ND	ND	ND	0
44243	2015-02-14T10:00:00	ND	ND	ND	ND	ND	ND	ND	ND	ND	ND	ND	0
44244	2015-02-14T11:00:00	ND	ND	ND	ND	ND	ND	ND	ND	ND	ND	ND	0
44245	2015-02-14T12:00:00	ND	ND	ND	ND	ND	ND	ND	ND	ND	ND	ND	0
44246	2015-02-14T13:00:00	ND	ND	ND	ND	ND	ND	ND	ND	ND	ND	ND	0
44247	2015-02-14T14:00:00	ND	ND	ND	ND	ND	ND	ND	ND	ND	ND	ND	0
44248	2015-02-14T15:00:00	ND	ND	ND	ND	ND	ND	ND	ND	ND	ND	ND	0
44249	2015-02-14T16:00:00	ND	ND	ND	ND	ND	ND	ND	ND	ND	ND	ND	0
44250	2015-02-14T17:00:00	ND	ND	ND	ND	ND	ND	ND	ND	ND	ND	ND	0
44251	2015-02-14T18:00:00	ND	ND	ND	ND	ND	ND	ND	ND	ND	ND	ND	0
44252	2015-02-14T19:00:00	ND	ND	ND	ND	ND	ND	ND	ND	ND	ND	ND	0
44253	2015-02-14T20:00:00	ND	ND	ND	ND	ND	ND	ND	ND	ND	ND	ND	0
44254	2015-02-14T21:00:00	ND	ND	ND	ND	ND	ND	ND	ND	ND	ND	ND	0
44255	2015-02-14T22:00:00	ND	ND	ND	ND	ND	ND	ND	ND	ND	ND	ND	0
44256	2015-02-14T23:00:00	ND	ND	ND	ND	ND	ND	ND	ND	ND	ND	ND	0
44257	2015-02-15T00:00:00	ND	ND	ND	ND	ND	ND	ND	ND	ND	ND	ND	0
44258	2015-02-15T01:00:00	ND	ND	ND	ND	ND	ND	ND	ND	ND	ND	ND	0
44259	2015-02-15T02:00:00	ND	ND	ND	ND	ND	ND	ND	ND	ND	ND	ND	0
44260	2015-02-15T03:00:00	ND	ND	ND	ND	ND	ND	ND	ND	ND	ND	ND	0
44261	2015-02-15T04:00:00	ND	ND	ND	ND	ND	ND	ND	ND	ND	ND	ND	0
44262	2015-02-15T05:00:00	ND	ND	ND	ND	ND	ND	ND	ND	ND	ND	ND	0
44263	2015-02-15T06:00:00	ND	ND	ND	ND	ND	ND	ND	ND	ND	ND	ND	0
44264	2015-02-15T07:00:00	ND	ND	ND	ND	ND	ND	ND	ND	ND	ND	ND	0
44265	2015-02-15T08:00:00	ND	ND	ND	ND	ND	ND	ND	ND	ND	ND	ND	0
44266	2015-02-15T09:00:00	ND	ND	ND	ND	ND	ND	ND	ND	ND	ND	ND	0
44267	2015-02-15T10:00:00	ND	ND	ND	ND	ND	ND	ND	ND	ND	ND	ND	0
44268	2015-02-15T11:00:00	ND	ND	ND	ND	ND	ND	ND	ND	ND	ND	ND	0
44269	2015-02-15T12:00:00	ND	ND	ND	ND	ND	ND	ND	ND	ND	ND	ND	0
44270	2015-02-15T13:00:00	ND	ND	ND	ND	ND	ND	ND	ND	ND	ND	ND	0
44271	2015-02-15T14:00:00	ND	ND	ND	ND	ND	ND	ND	ND	ND	ND	ND	0
44272	2015-02-15T15:00:00	ND	ND	ND	ND	ND	ND	ND	ND	ND	ND	ND	0
44273	2015-02-15T16:00:00	ND	ND	ND	ND	ND	ND	ND	ND	ND	ND	ND	0
44274	2015-02-15T17:00:00	ND	ND	ND	ND	ND	ND	ND	ND	ND	ND	ND	0
44275	2015-02-15T18:00:00	ND	ND	ND	ND	ND	ND	ND	ND	ND	ND	ND	0
44276	2015-02-15T19:00:00	ND	ND	ND	ND	ND	ND	ND	ND	ND	ND	ND	0
44277	2015-02-15T20:00:00	ND	ND	ND	ND	ND	ND	ND	ND	ND	ND	ND	0
44278	2015-02-15T21:00:00	ND	ND	ND	ND	ND	ND	ND	ND	ND	ND	ND	0
44279	2015-02-15T22:00:00	ND	ND	ND	ND	ND	ND	ND	ND	ND	ND	ND	0
44280	2015-02-15T23:00:00	ND	ND	ND	ND	ND	ND	ND	ND	ND	ND	ND	0
44281	2015-02-16T00:00:00	ND	ND	ND	ND	ND	ND	ND	ND	ND	ND	ND	0
44282	2015-02-16T01:00:00	ND	ND	ND	ND	ND	ND	ND	ND	ND	ND	ND	0
44283	2015-02-16T02:00:00	ND	ND	ND	ND	ND	ND	ND	ND	ND	ND	ND	0
44284	2015-02-16T03:00:00	ND	ND	ND	ND	ND	ND	ND	ND	ND	ND	ND	0
44285	2015-02-16T04:00:00	ND	ND	ND	ND	ND	ND	ND	ND	ND	ND	ND	0
44286	2015-02-16T05:00:00	ND	ND	ND	ND	ND	ND	ND	ND	ND	ND	ND	0
44287	2015-02-16T06:00:00	ND	ND	ND	ND	ND	ND	ND	ND	ND	ND	ND	0
44288	2015-02-16T07:00:00	ND	ND	ND	ND	ND	ND	ND	ND	ND	ND	ND	0
44289	2015-02-16T08:00:00	ND	ND	ND	ND	ND	ND	ND	ND	ND	ND	ND	0
44290	2015-02-16T09:00:00	ND	ND	ND	ND	ND	ND	ND	ND	ND	ND	ND	0
44291	2015-02-16T10:00:00	ND	ND	ND	ND	ND	ND	ND	ND	ND	ND	ND	0
44292	2015-02-16T11:00:00	ND	ND	ND	ND	ND	ND	ND	ND	ND	ND	ND	0
44293	2015-02-16T12:00:00	ND	ND	ND	ND	ND	ND	ND	ND	ND	ND	ND	0
44294	2015-02-16T13:00:00	ND	ND	ND	ND	ND	ND	ND	ND	ND	ND	ND	0
44295	2015-02-16T14:00:00	ND	ND	ND	ND	ND	ND	ND	ND	ND	ND	ND	0
44296	2015-02-16T15:00:00	ND	ND	ND	ND	ND	ND	ND	ND	ND	ND	ND	0
44297	2015-02-16T16:00:00	ND	ND	ND	ND	ND	ND	ND	ND	ND	ND	ND	0
44298	2015-02-16T17:00:00	ND	ND	ND	ND	ND	ND	ND	ND	ND	ND	ND	0
44299	2015-02-16T18:00:00	ND	ND	ND	ND	ND	ND	ND	ND	ND	ND	ND	0
44300	2015-02-16T19:00:00	ND	ND	ND	ND	ND	ND	ND	ND	ND	ND	ND	0
44301	2015-02-16T20:00:00	ND	ND	ND	ND	ND	ND	ND	ND	ND	ND	ND	0
44302	2015-02-16T21:00:00	ND	ND	ND	ND	ND	ND	ND	ND	ND	ND	ND	0
44303	2015-02-16T22:00:00	ND	ND	ND	ND	ND	ND	ND	ND	ND	ND	ND	0
44304	2015-02-16T23:00:00	ND	ND	ND	ND	ND	ND	ND	ND	ND	ND	ND	0
44305	2015-02-17T00:00:00	ND	ND	ND	ND	ND	ND	ND	ND	ND	ND	ND	0
44306	2015-02-17T01:00:00	ND	ND	ND	ND	ND	ND	ND	ND	ND	ND	ND	0
44307	2015-02-17T02:00:00	ND	ND	ND	ND	ND	ND	ND	ND	ND	ND	ND	0
44308	2015-02-17T03:00:00	ND	ND	ND	ND	ND	ND	ND	ND	ND	ND	ND	0
44309	2015-02-17T04:00:00	ND	ND	ND	ND	ND	ND	ND	ND	ND	ND	ND	0
44310	2015-02-17T05:00:00	ND	ND	ND	ND	ND	ND	ND	ND	ND	ND	ND	0
44311	2015-02-17T06:00:00	ND	ND	ND	ND	ND	ND	ND	ND	ND	ND	ND	0
44312	2015-02-17T07:00:00	ND	ND	ND	ND	ND	ND	ND	ND	ND	ND	ND	0
44313	2015-02-17T08:00:00	ND	ND	ND	ND	ND	ND	ND	ND	ND	ND	ND	0
44314	2015-02-17T09:00:00	ND	ND	ND	ND	ND	ND	ND	ND	ND	ND	ND	0
44315	2015-02-17T10:00:00	ND	ND	ND	ND	ND	ND	ND	ND	ND	ND	ND	0
44316	2015-02-17T11:00:00	ND	ND	ND	ND	ND	ND	ND	ND	ND	ND	ND	0
44317	2015-02-17T12:00:00	ND	ND	ND	ND	ND	ND	ND	ND	ND	ND	ND	0
44318	2015-02-17T13:00:00	ND	ND	ND	ND	ND	ND	ND	ND	ND	ND	ND	0
44319	2015-02-17T14:00:00	ND	ND	ND	ND	ND	ND	ND	ND	ND	ND	ND	0
44320	2015-02-17T15:00:00	ND	ND	ND	ND	ND	ND	ND	ND	ND	ND	ND	0
44321	2015-02-17T16:00:00	ND	ND	ND	ND	ND	ND	ND	ND	ND	ND	ND	0
44322	2015-02-17T17:00:00	ND	ND	ND	ND	ND	ND	ND	ND	ND	ND	ND	0
44323	2015-02-17T18:00:00	ND	ND	ND	ND	ND	ND	ND	ND	ND	ND	ND	0
44324	2015-02-17T19:00:00	ND	ND	ND	ND	ND	ND	ND	ND	ND	ND	ND	0
44325	2015-02-17T20:00:00	ND	ND	ND	ND	ND	ND	ND	ND	ND	ND	ND	0
44326	2015-02-17T21:00:00	ND	ND	ND	ND	ND	ND	ND	ND	ND	ND	ND	0
44327	2015-02-17T22:00:00	ND	ND	ND	ND	ND	ND	ND	ND	ND	ND	ND	0
44328	2015-02-17T23:00:00	ND	ND	ND	ND	ND	ND	ND	ND	ND	ND	ND	0
44329	2015-02-18T00:00:00	ND	ND	ND	ND	ND	ND	ND	ND	ND	ND	ND	0
44330	2015-02-18T01:00:00	ND	ND	ND	ND	ND	ND	ND	ND	ND	ND	ND	0
44331	2015-02-18T02:00:00	ND	ND	ND	ND	ND	ND	ND	ND	ND	ND	ND	0
44332	2015-02-18T03:00:00	ND	ND	ND	ND	ND	ND	ND	ND	ND	ND	ND	0
44333	2015-02-18T04:00:00	ND	ND	ND	ND	ND	ND	ND	ND	ND	ND	ND	0
44334	2015-02-18T05:00:00	ND	ND	ND	ND	ND	ND	ND	ND	ND	ND	ND	0
44335	2015-02-18T06:00:00	ND	ND	ND	ND	ND	ND	ND	ND	ND	ND	ND	0
44336	2015-02-18T07:00:00	ND	ND	ND	ND	ND	ND	ND	ND	ND	ND	ND	0
44337	2015-02-18T08:00:00	ND	ND	ND	ND	ND	ND	ND	ND	ND	ND	ND	0
44338	2015-02-18T09:00:00	ND	ND	ND	ND	ND	ND	ND	ND	ND	ND	ND	0
44339	2015-02-18T10:00:00	ND	ND	ND	ND	ND	ND	ND	ND	ND	ND	ND	0
44340	2015-02-18T11:00:00	ND	ND	ND	ND	ND	ND	ND	ND	ND	ND	ND	0
44341	2015-02-18T12:00:00	ND	ND	ND	ND	ND	ND	ND	ND	ND	ND	ND	0
44342	2015-02-18T13:00:00	ND	ND	ND	ND	ND	ND	ND	ND	ND	ND	ND	0
44343	2015-02-18T14:00:00	ND	ND	ND	ND	ND	ND	ND	ND	ND	ND	ND	0
44344	2015-02-18T15:00:00	ND	ND	ND	ND	ND	ND	ND	ND	ND	ND	ND	0
44345	2015-02-18T16:00:00	ND	ND	ND	ND	ND	ND	ND	ND	ND	ND	ND	0
44346	2015-02-18T17:00:00	ND	ND	ND	ND	ND	ND	ND	ND	ND	ND	ND	0
44347	2015-02-18T18:00:00	ND	ND	ND	ND	ND	ND	ND	ND	ND	ND	ND	0
44348	2015-02-18T19:00:00	ND	ND	ND	ND	ND	ND	ND	ND	ND	ND	ND	0
44349	2015-02-18T20:00:00	ND	ND	ND	ND	ND	ND	ND	ND	ND	ND	ND	0
44350	2015-02-18T21:00:00	ND	ND	ND	ND	ND	ND	ND	ND	ND	ND	ND	0
44351	2015-02-18T22:00:00	ND	ND	ND	ND	ND	ND	ND	ND	ND	ND	ND	0
44352	2015-02-18T23:00:00	ND	ND	ND	ND	ND	ND	ND	ND	ND	ND	ND	0
44353	2015-02-19T00:00:00	ND	ND	ND	ND	ND	ND	ND	ND	ND	ND	ND	0
44354	2015-02-19T01:00:00	ND	ND	ND	ND	ND	ND	ND	ND	ND	ND	ND	0
44355	2015-02-19T02:00:00	ND	ND	ND	ND	ND	ND	ND	ND	ND	ND	ND	0
44356	2015-02-19T03:00:00	ND	ND	ND	ND	ND	ND	ND	ND	ND	ND	ND	0
44357	2015-02-19T04:00:00	ND	ND	ND	ND	ND	ND	ND	ND	ND	ND	ND	0
44358	2015-02-19T05:00:00	ND	ND	ND	ND	ND	ND	ND	ND	ND	ND	ND	0
44359	2015-02-19T06:00:00	ND	ND	ND	ND	ND	ND	ND	ND	ND	ND	ND	0
44360	2015-02-19T07:00:00	ND	ND	ND	ND	ND	ND	ND	ND	ND	ND	ND	0
44361	2015-02-19T08:00:00	ND	ND	ND	ND	ND	ND	ND	ND	ND	ND	ND	0
44362	2015-02-19T09:00:00	ND	ND	ND	ND	ND	ND	ND	ND	ND	ND	ND	0
44363	2015-02-19T10:00:00	ND	ND	ND	ND	ND	ND	ND	ND	ND	ND	ND	0
44364	2015-02-19T11:00:00	ND	ND	ND	ND	ND	ND	ND	ND	ND	ND	ND	0
44365	2015-02-19T12:00:00	ND	ND	ND	ND	ND	ND	ND	ND	ND	ND	ND	0
44366	2015-02-19T13:00:00	ND	ND	ND	ND	ND	ND	ND	ND	ND	ND	ND	0
44367	2015-02-19T14:00:00	ND	ND	ND	ND	ND	ND	ND	ND	ND	ND	ND	0
44368	2015-02-19T15:00:00	ND	ND	ND	ND	ND	ND	ND	ND	ND	ND	ND	0
44369	2015-02-19T16:00:00	ND	ND	ND	ND	ND	ND	ND	ND	ND	ND	ND	0
44370	2015-02-19T17:00:00	ND	ND	ND	ND	ND	ND	ND	ND	ND	ND	ND	0
44371	2015-02-19T18:00:00	ND	ND	ND	ND	ND	ND	ND	ND	ND	ND	ND	0
44372	2015-02-19T19:00:00	ND	ND	ND	ND	ND	ND	ND	ND	ND	ND	ND	0
44373	2015-02-19T20:00:00	ND	ND	ND	ND	ND	ND	ND	ND	ND	ND	ND	0
44374	2015-02-19T21:00:00	ND	ND	ND	ND	ND	ND	ND	ND	ND	ND	ND	0
44375	2015-02-19T22:00:00	ND	ND	ND	ND	ND	ND	ND	ND	ND	ND	ND	0
44376	2015-02-19T23:00:00	ND	ND	ND	ND	ND	ND	ND	ND	ND	ND	ND	0
44377	2015-02-20T00:00:00	ND	ND	ND	ND	ND	ND	ND	ND	ND	ND	ND	0
44378	2015-02-20T01:00:00	ND	ND	ND	ND	ND	ND	ND	ND	ND	ND	ND	0
44379	2015-02-20T02:00:00	ND	ND	ND	ND	ND	ND	ND	ND	ND	ND	ND	0
44380	2015-02-20T03:00:00	ND	ND	ND	ND	ND	ND	ND	ND	ND	ND	ND	0
44381	2015-02-20T04:00:00	ND	ND	ND	ND	ND	ND	ND	ND	ND	ND	ND	0
44382	2015-02-20T05:00:00	ND	ND	ND	ND	ND	ND	ND	ND	ND	ND	ND	0
44383	2015-02-20T06:00:00	ND	ND	ND	ND	ND	ND	ND	ND	ND	ND	ND	0
44384	2015-02-20T07:00:00	ND	ND	ND	ND	ND	ND	ND	ND	ND	ND	ND	0
44385	2015-02-20T08:00:00	ND	ND	ND	ND	ND	ND	ND	ND	ND	ND	ND	0
44386	2015-02-20T09:00:00	ND	ND	ND	ND	ND	ND	ND	ND	ND	ND	ND	0
44387	2015-02-20T10:00:00	ND	ND	ND	ND	ND	ND	ND	ND	ND	ND	ND	0
44388	2015-02-20T11:00:00	ND	ND	ND	ND	ND	ND	ND	ND	ND	ND	ND	0
44389	2015-02-20T12:00:00	ND	ND	ND	ND	ND	ND	ND	ND	ND	ND	ND	0
44390	2015-02-20T13:00:00	ND	ND	ND	ND	ND	ND	ND	ND	ND	ND	ND	0
44391	2015-02-20T14:00:00	ND	ND	ND	ND	ND	ND	ND	ND	ND	ND	ND	0
44392	2015-02-20T15:00:00	ND	ND	ND	ND	ND	ND	ND	ND	ND	ND	ND	0
44393	2015-02-20T16:00:00	ND	ND	ND	ND	ND	ND	ND	ND	ND	ND	ND	0
44394	2015-02-20T17:00:00	ND	ND	ND	ND	ND	ND	ND	ND	ND	ND	ND	0
44395	2015-02-20T18:00:00	ND	ND	ND	ND	ND	ND	ND	ND	ND	ND	ND	2.54
44396	2015-02-20T19:00:00	ND	ND	ND	ND	ND	ND	ND	ND	ND	ND	ND	0
44397	2015-02-20T20:00:00	ND	ND	ND	ND	ND	ND	ND	ND	ND	ND	ND	0
44398	2015-02-20T21:00:00	ND	ND	ND	ND	ND	ND	ND	ND	ND	ND	ND	0
44399	2015-02-20T22:00:00	ND	ND	ND	ND	ND	ND	ND	ND	ND	ND	ND	0
44400	2015-02-20T23:00:00	ND	ND	ND	ND	ND	ND	ND	ND	ND	ND	ND	0
44401	2015-02-21T00:00:00	ND	ND	ND	ND	ND	ND	ND	ND	ND	ND	ND	0
44402	2015-02-21T01:00:00	ND	ND	ND	ND	ND	ND	ND	ND	ND	ND	ND	0
44403	2015-02-21T02:00:00	ND	ND	ND	ND	ND	ND	ND	ND	ND	ND	ND	0
44404	2015-02-21T03:00:00	ND	ND	ND	ND	ND	ND	ND	ND	ND	ND	ND	0
44405	2015-02-21T04:00:00	ND	ND	ND	ND	ND	ND	ND	ND	ND	ND	ND	0
44406	2015-02-21T05:00:00	ND	ND	ND	ND	ND	ND	ND	ND	ND	ND	ND	0
44407	2015-02-21T06:00:00	ND	ND	ND	ND	ND	ND	ND	ND	ND	ND	ND	0
44408	2015-02-21T07:00:00	ND	ND	ND	ND	ND	ND	ND	ND	ND	ND	ND	0
44409	2015-02-21T08:00:00	ND	ND	ND	ND	ND	ND	ND	ND	ND	ND	ND	0
44410	2015-02-21T09:00:00	ND	ND	ND	ND	ND	ND	ND	ND	ND	ND	ND	0
44411	2015-02-21T10:00:00	ND	ND	ND	ND	ND	ND	ND	ND	ND	ND	ND	0
44412	2015-02-21T11:00:00	ND	ND	ND	ND	ND	ND	ND	ND	ND	ND	ND	0
44413	2015-02-21T12:00:00	ND	ND	ND	ND	ND	ND	ND	ND	ND	ND	ND	0
44414	2015-02-21T13:00:00	ND	ND	ND	ND	ND	ND	ND	ND	ND	ND	ND	0
44415	2015-02-21T14:00:00	ND	ND	ND	ND	ND	ND	ND	ND	ND	ND	ND	0
44416	2015-02-21T15:00:00	ND	ND	ND	ND	ND	ND	ND	ND	ND	ND	ND	0
44417	2015-02-21T16:00:00	ND	ND	ND	ND	ND	ND	ND	ND	ND	ND	ND	0
44418	2015-02-21T17:00:00	ND	ND	ND	ND	ND	ND	ND	ND	ND	ND	ND	0
44419	2015-02-21T18:00:00	ND	ND	ND	ND	ND	ND	ND	ND	ND	ND	ND	0
44420	2015-02-21T19:00:00	ND	ND	ND	ND	ND	ND	ND	ND	ND	ND	ND	0
44421	2015-02-21T20:00:00	ND	ND	ND	ND	ND	ND	ND	ND	ND	ND	ND	0
44422	2015-02-21T21:00:00	ND	ND	ND	ND	ND	ND	ND	ND	ND	ND	ND	0
44423	2015-02-21T22:00:00	ND	ND	ND	ND	ND	ND	ND	ND	ND	ND	ND	0
44424	2015-02-21T23:00:00	ND	ND	ND	ND	ND	ND	ND	ND	ND	ND	ND	0
44425	2015-02-22T00:00:00	ND	ND	ND	ND	ND	ND	ND	ND	ND	ND	ND	0
44426	2015-02-22T01:00:00	ND	ND	ND	ND	ND	ND	ND	ND	ND	ND	ND	0
44427	2015-02-22T02:00:00	ND	ND	ND	ND	ND	ND	ND	ND	ND	ND	ND	0
44428	2015-02-22T03:00:00	ND	ND	ND	ND	ND	ND	ND	ND	ND	ND	ND	0
44429	2015-02-22T04:00:00	ND	ND	ND	ND	ND	ND	ND	ND	ND	ND	ND	0
44430	2015-02-22T05:00:00	ND	ND	ND	ND	ND	ND	ND	ND	ND	ND	ND	0
44431	2015-02-22T06:00:00	ND	ND	ND	ND	ND	ND	ND	ND	ND	ND	ND	0
44432	2015-02-22T07:00:00	ND	ND	ND	ND	ND	ND	ND	ND	ND	ND	ND	0
44433	2015-02-22T08:00:00	ND	ND	ND	ND	ND	ND	ND	ND	ND	ND	ND	0
44434	2015-02-22T09:00:00	ND	ND	ND	ND	ND	ND	ND	ND	ND	ND	ND	0
44435	2015-02-22T10:00:00	ND	ND	ND	ND	ND	ND	ND	ND	ND	ND	ND	0
44436	2015-02-22T11:00:00	ND	ND	ND	ND	ND	ND	ND	ND	ND	ND	ND	0
44437	2015-02-22T12:00:00	ND	ND	ND	ND	ND	ND	ND	ND	ND	ND	ND	0
44438	2015-02-22T13:00:00	ND	ND	ND	ND	ND	ND	ND	ND	ND	ND	ND	0
44439	2015-02-22T14:00:00	ND	ND	ND	ND	ND	ND	ND	ND	ND	ND	ND	0
44440	2015-02-22T15:00:00	ND	ND	ND	ND	ND	ND	ND	ND	ND	ND	ND	0
44441	2015-02-22T16:00:00	ND	ND	ND	ND	ND	ND	ND	ND	ND	ND	ND	0
44442	2015-02-22T17:00:00	ND	ND	ND	ND	ND	ND	ND	ND	ND	ND	ND	0
44443	2015-02-22T18:00:00	ND	ND	ND	ND	ND	ND	ND	ND	ND	ND	ND	0
44444	2015-02-22T19:00:00	ND	ND	ND	ND	ND	ND	ND	ND	ND	ND	ND	0
44445	2015-02-22T20:00:00	ND	ND	ND	ND	ND	ND	ND	ND	ND	ND	ND	0
44446	2015-02-22T21:00:00	ND	ND	ND	ND	ND	ND	ND	ND	ND	ND	ND	0
44447	2015-02-22T22:00:00	ND	ND	ND	ND	ND	ND	ND	ND	ND	ND	ND	0
44448	2015-02-22T23:00:00	ND	ND	ND	ND	ND	ND	ND	ND	ND	ND	ND	0
44449	2015-02-23T00:00:00	ND	ND	ND	ND	ND	ND	ND	ND	ND	ND	ND	0
44450	2015-02-23T01:00:00	ND	ND	ND	ND	ND	ND	ND	ND	ND	ND	ND	0
44451	2015-02-23T02:00:00	ND	ND	ND	ND	ND	ND	ND	ND	ND	ND	ND	0
44452	2015-02-23T03:00:00	ND	ND	ND	ND	ND	ND	ND	ND	ND	ND	ND	0
44453	2015-02-23T04:00:00	ND	ND	ND	ND	ND	ND	ND	ND	ND	ND	ND	0
44454	2015-02-23T05:00:00	ND	ND	ND	ND	ND	ND	ND	ND	ND	ND	ND	0
44455	2015-02-23T06:00:00	ND	ND	ND	ND	ND	ND	ND	ND	ND	ND	ND	0
44456	2015-02-23T07:00:00	ND	ND	ND	ND	ND	ND	ND	ND	ND	ND	ND	0
44457	2015-02-23T08:00:00	ND	ND	ND	ND	ND	ND	ND	ND	ND	ND	ND	0
44458	2015-02-23T09:00:00	ND	ND	ND	ND	ND	ND	ND	ND	ND	ND	ND	0
44459	2015-02-23T10:00:00	ND	ND	ND	ND	ND	ND	ND	ND	ND	ND	ND	0
44460	2015-02-23T11:00:00	ND	ND	ND	ND	ND	ND	ND	ND	ND	ND	ND	0
44461	2015-02-23T12:00:00	ND	ND	ND	ND	ND	ND	ND	ND	ND	ND	ND	0
44462	2015-02-23T13:00:00	ND	ND	ND	ND	ND	ND	ND	ND	ND	ND	ND	0
44463	2015-02-23T14:00:00	ND	ND	ND	ND	ND	ND	ND	ND	ND	ND	ND	0
44464	2015-02-23T15:00:00	ND	ND	ND	ND	ND	ND	ND	ND	ND	ND	ND	0
44465	2015-02-23T16:00:00	ND	ND	ND	ND	ND	ND	ND	ND	ND	ND	ND	0
44466	2015-02-23T17:00:00	ND	ND	ND	ND	ND	ND	ND	ND	ND	ND	ND	0
44467	2015-02-23T18:00:00	ND	ND	ND	ND	ND	ND	ND	ND	ND	ND	ND	0
44468	2015-02-23T19:00:00	ND	ND	ND	ND	ND	ND	ND	ND	ND	ND	ND	0
44469	2015-02-23T20:00:00	ND	ND	ND	ND	ND	ND	ND	ND	ND	ND	ND	0
44470	2015-02-23T21:00:00	ND	ND	ND	ND	ND	ND	ND	ND	ND	ND	ND	0
44471	2015-02-23T22:00:00	ND	ND	ND	ND	ND	ND	ND	ND	ND	ND	ND	0
44472	2015-02-23T23:00:00	ND	ND	ND	ND	ND	ND	ND	ND	ND	ND	ND	0
44473	2015-02-24T00:00:00	ND	ND	ND	ND	ND	ND	ND	ND	ND	ND	ND	0
44474	2015-02-24T01:00:00	ND	ND	ND	ND	ND	ND	ND	ND	ND	ND	ND	0
44475	2015-02-24T02:00:00	ND	ND	ND	ND	ND	ND	ND	ND	ND	ND	ND	0
44476	2015-02-24T03:00:00	ND	ND	ND	ND	ND	ND	ND	ND	ND	ND	ND	0
44477	2015-02-24T04:00:00	ND	ND	ND	ND	ND	ND	ND	ND	ND	ND	ND	0
44478	2015-02-24T05:00:00	ND	ND	ND	ND	ND	ND	ND	ND	ND	ND	ND	0
44479	2015-02-24T06:00:00	ND	ND	ND	ND	ND	ND	ND	ND	ND	ND	ND	0
44480	2015-02-24T07:00:00	ND	ND	ND	ND	ND	ND	ND	ND	ND	ND	ND	0
44481	2015-02-24T08:00:00	ND	ND	ND	ND	ND	ND	ND	ND	ND	ND	ND	0
44482	2015-02-24T09:00:00	ND	ND	ND	ND	ND	ND	ND	ND	ND	ND	ND	0
44483	2015-02-24T10:00:00	ND	ND	ND	ND	ND	ND	ND	ND	ND	ND	ND	0
44484	2015-02-24T11:00:00	ND	ND	ND	ND	ND	ND	ND	ND	ND	ND	ND	0
44485	2015-02-24T12:00:00	ND	ND	ND	ND	ND	ND	ND	ND	ND	ND	ND	0
44486	2015-02-24T13:00:00	ND	ND	ND	ND	ND	ND	ND	ND	ND	ND	ND	0
44487	2015-02-24T14:00:00	ND	ND	ND	ND	ND	ND	ND	ND	ND	ND	ND	0
44488	2015-02-24T15:00:00	ND	ND	ND	ND	ND	ND	ND	ND	ND	ND	ND	0
44489	2015-02-24T16:00:00	ND	ND	ND	ND	ND	ND	ND	ND	ND	ND	ND	0
44490	2015-02-24T17:00:00	ND	ND	ND	ND	ND	ND	ND	ND	ND	ND	ND	0
44491	2015-02-24T18:00:00	ND	ND	ND	ND	ND	ND	ND	ND	ND	ND	ND	0
44492	2015-02-24T19:00:00	ND	ND	ND	ND	ND	ND	ND	ND	ND	ND	ND	0
44493	2015-02-24T20:00:00	ND	ND	ND	ND	ND	ND	ND	ND	ND	ND	ND	0
44494	2015-02-24T21:00:00	ND	ND	ND	ND	ND	ND	ND	ND	ND	ND	ND	0
44495	2015-02-24T22:00:00	ND	ND	ND	ND	ND	ND	ND	ND	ND	ND	ND	0
44496	2015-02-24T23:00:00	ND	ND	ND	ND	ND	ND	ND	ND	ND	ND	ND	0
44497	2015-02-25T00:00:00	ND	ND	ND	ND	ND	ND	ND	ND	ND	ND	ND	0
44498	2015-02-25T01:00:00	ND	ND	ND	ND	ND	ND	ND	ND	ND	ND	ND	0
44499	2015-02-25T02:00:00	ND	ND	ND	ND	ND	ND	ND	ND	ND	ND	ND	0
44500	2015-02-25T03:00:00	ND	ND	ND	ND	ND	ND	ND	ND	ND	ND	ND	0
44501	2015-02-25T04:00:00	ND	ND	ND	ND	ND	ND	ND	ND	ND	ND	ND	0
44502	2015-02-25T05:00:00	ND	ND	ND	ND	ND	ND	ND	ND	ND	ND	ND	0
44503	2015-02-25T06:00:00	ND	ND	ND	ND	ND	ND	ND	ND	ND	ND	ND	0
44504	2015-02-25T07:00:00	ND	ND	ND	ND	ND	ND	ND	ND	ND	ND	ND	0
44505	2015-02-25T08:00:00	ND	ND	ND	ND	ND	ND	ND	ND	ND	ND	ND	0
44506	2015-02-25T09:00:00	ND	ND	ND	ND	ND	ND	ND	ND	ND	ND	ND	0
44507	2015-02-25T10:00:00	ND	ND	ND	ND	ND	ND	ND	ND	ND	ND	ND	0
44508	2015-02-25T11:00:00	ND	ND	ND	ND	ND	ND	ND	ND	ND	ND	ND	0
44509	2015-02-25T12:00:00	ND	ND	ND	ND	ND	ND	ND	ND	ND	ND	ND	0
44510	2015-02-25T13:00:00	ND	ND	ND	ND	ND	ND	ND	ND	ND	ND	ND	0
44511	2015-02-25T14:00:00	ND	ND	ND	ND	ND	ND	ND	ND	ND	ND	ND	0
44512	2015-02-25T15:00:00	ND	ND	ND	ND	ND	ND	ND	ND	ND	ND	ND	0
44513	2015-02-25T16:00:00	ND	ND	ND	ND	ND	ND	ND	ND	ND	ND	ND	0
44514	2015-02-25T17:00:00	ND	ND	ND	ND	ND	ND	ND	ND	ND	ND	ND	0
44515	2015-02-25T18:00:00	ND	ND	ND	ND	ND	ND	ND	ND	ND	ND	ND	0
44516	2015-02-25T19:00:00	ND	ND	ND	ND	ND	ND	ND	ND	ND	ND	ND	0
44517	2015-02-25T20:00:00	ND	ND	ND	ND	ND	ND	ND	ND	ND	ND	ND	0
44518	2015-02-25T21:00:00	ND	ND	ND	ND	ND	ND	ND	ND	ND	ND	ND	0
44519	2015-02-25T22:00:00	ND	ND	ND	ND	ND	ND	ND	ND	ND	ND	ND	0
44520	2015-02-25T23:00:00	ND	ND	ND	ND	ND	ND	ND	ND	ND	ND	ND	0
44521	2015-02-26T00:00:00	ND	ND	ND	ND	ND	ND	ND	ND	ND	ND	ND	0
44522	2015-02-26T01:00:00	ND	ND	ND	ND	ND	ND	ND	ND	ND	ND	ND	0
44523	2015-02-26T02:00:00	ND	ND	ND	ND	ND	ND	ND	ND	ND	ND	ND	0
44524	2015-02-26T03:00:00	ND	ND	ND	ND	ND	ND	ND	ND	ND	ND	ND	0
44525	2015-02-26T04:00:00	ND	ND	ND	ND	ND	ND	ND	ND	ND	ND	ND	0
44526	2015-02-26T05:00:00	ND	ND	ND	ND	ND	ND	ND	ND	ND	ND	ND	0
44527	2015-02-26T06:00:00	ND	ND	ND	ND	ND	ND	ND	ND	ND	ND	ND	0
44528	2015-02-26T07:00:00	ND	ND	ND	ND	ND	ND	ND	ND	ND	ND	ND	0
44529	2015-02-26T08:00:00	ND	ND	ND	ND	ND	ND	ND	ND	ND	ND	ND	0
44530	2015-02-26T09:00:00	ND	ND	ND	ND	ND	ND	ND	ND	ND	ND	ND	0
44531	2015-02-26T10:00:00	ND	ND	ND	ND	ND	ND	ND	ND	ND	ND	ND	0
44532	2015-02-26T11:00:00	ND	ND	ND	ND	ND	ND	ND	ND	ND	ND	ND	0
44533	2015-02-26T12:00:00	ND	ND	ND	ND	ND	ND	ND	ND	ND	ND	ND	0
44534	2015-02-26T13:00:00	ND	ND	ND	ND	ND	ND	ND	ND	ND	ND	ND	0
44535	2015-02-26T14:00:00	ND	ND	ND	ND	ND	ND	ND	ND	ND	ND	ND	0
44536	2015-02-26T15:00:00	ND	ND	ND	ND	ND	ND	ND	ND	ND	ND	ND	0
44537	2015-02-26T16:00:00	ND	ND	ND	ND	ND	ND	ND	ND	ND	ND	ND	0
44538	2015-02-26T17:00:00	ND	ND	ND	ND	ND	ND	ND	ND	ND	ND	ND	0
44539	2015-02-26T18:00:00	ND	ND	ND	ND	ND	ND	ND	ND	ND	ND	ND	0
44540	2015-02-26T19:00:00	ND	ND	ND	ND	ND	ND	ND	ND	ND	ND	ND	0
44541	2015-02-26T20:00:00	ND	ND	ND	ND	ND	ND	ND	ND	ND	ND	ND	0
44542	2015-02-26T21:00:00	ND	ND	ND	ND	ND	ND	ND	ND	ND	ND	ND	0
44543	2015-02-26T22:00:00	ND	ND	ND	ND	ND	ND	ND	ND	ND	ND	ND	0
44544	2015-02-26T23:00:00	ND	ND	ND	ND	ND	ND	ND	ND	ND	ND	ND	0
44545	2015-02-27T00:00:00	ND	ND	ND	ND	ND	ND	ND	ND	ND	ND	ND	0
44546	2015-02-27T01:00:00	ND	ND	ND	ND	ND	ND	ND	ND	ND	ND	ND	0.76
44547	2015-02-27T02:00:00	ND	ND	ND	ND	ND	ND	ND	ND	ND	ND	ND	2.03
44548	2015-02-27T03:00:00	ND	ND	ND	ND	ND	ND	ND	ND	ND	ND	ND	2.79
44549	2015-02-27T04:00:00	ND	ND	ND	ND	ND	ND	ND	ND	ND	ND	ND	0.25
44550	2015-02-27T05:00:00	ND	ND	ND	ND	ND	ND	ND	ND	ND	ND	ND	0.25
44551	2015-02-27T06:00:00	ND	ND	ND	ND	ND	ND	ND	ND	ND	ND	ND	0
44552	2015-02-27T07:00:00	ND	ND	ND	ND	ND	ND	ND	ND	ND	ND	ND	0
44553	2015-02-27T08:00:00	ND	ND	ND	ND	ND	ND	ND	ND	ND	ND	ND	0
44554	2015-02-27T09:00:00	ND	ND	ND	ND	ND	ND	ND	ND	ND	ND	ND	0
44555	2015-02-27T10:00:00	ND	ND	ND	ND	ND	ND	ND	ND	ND	ND	ND	0
44556	2015-02-27T11:00:00	ND	ND	ND	ND	ND	ND	ND	ND	ND	ND	ND	0
44557	2015-02-27T12:00:00	ND	ND	ND	ND	ND	ND	ND	ND	ND	ND	ND	0
44558	2015-02-27T13:00:00	ND	ND	ND	ND	ND	ND	ND	ND	ND	ND	ND	0
44559	2015-02-27T14:00:00	ND	ND	ND	ND	ND	ND	ND	ND	ND	ND	ND	0
44560	2015-02-27T15:00:00	ND	ND	ND	ND	ND	ND	ND	ND	ND	ND	ND	0
44561	2015-02-27T16:00:00	ND	ND	ND	ND	ND	ND	ND	ND	ND	ND	ND	0
44562	2015-02-27T17:00:00	ND	ND	ND	ND	ND	ND	ND	ND	ND	ND	ND	0
44563	2015-02-27T18:00:00	ND	ND	ND	ND	ND	ND	ND	ND	ND	ND	ND	0
44564	2015-02-27T19:00:00	ND	ND	ND	ND	ND	ND	ND	ND	ND	ND	ND	0
44565	2015-02-27T20:00:00	ND	ND	ND	ND	ND	ND	ND	ND	ND	ND	ND	0
44566	2015-02-27T21:00:00	ND	ND	ND	ND	ND	ND	ND	ND	ND	ND	ND	0
44567	2015-02-27T22:00:00	ND	ND	ND	ND	ND	ND	ND	ND	ND	ND	ND	0
44568	2015-02-27T23:00:00	ND	ND	ND	ND	ND	ND	ND	ND	ND	ND	ND	0
44569	2015-02-28T00:00:00	ND	ND	ND	ND	ND	ND	ND	ND	ND	ND	ND	0
44570	2015-02-28T01:00:00	ND	ND	ND	ND	ND	ND	ND	ND	ND	ND	ND	0
44571	2015-02-28T02:00:00	ND	ND	ND	ND	ND	ND	ND	ND	ND	ND	ND	0
44572	2015-02-28T03:00:00	ND	ND	ND	ND	ND	ND	ND	ND	ND	ND	ND	0
44573	2015-02-28T04:00:00	ND	ND	ND	ND	ND	ND	ND	ND	ND	ND	ND	0
44574	2015-02-28T05:00:00	ND	ND	ND	ND	ND	ND	ND	ND	ND	ND	ND	0
44575	2015-02-28T06:00:00	ND	ND	ND	ND	ND	ND	ND	ND	ND	ND	ND	0
44576	2015-02-28T07:00:00	ND	ND	ND	ND	ND	ND	ND	ND	ND	ND	ND	0
44577	2015-02-28T08:00:00	ND	ND	ND	ND	ND	ND	ND	ND	ND	ND	ND	0
44578	2015-02-28T09:00:00	ND	ND	ND	ND	ND	ND	ND	ND	ND	ND	ND	0
44579	2015-02-28T10:00:00	ND	ND	ND	ND	ND	ND	ND	ND	ND	ND	ND	0
44580	2015-02-28T11:00:00	ND	ND	ND	ND	ND	ND	ND	ND	ND	ND	ND	0
44581	2015-02-28T12:00:00	ND	ND	ND	ND	ND	ND	ND	ND	ND	ND	ND	0
44582	2015-02-28T13:00:00	ND	ND	ND	ND	ND	ND	ND	ND	ND	ND	ND	0
44583	2015-02-28T14:00:00	ND	ND	ND	ND	ND	ND	ND	ND	ND	ND	ND	0
44584	2015-02-28T15:00:00	ND	ND	ND	ND	ND	ND	ND	ND	ND	ND	ND	0
44585	2015-02-28T16:00:00	ND	ND	ND	ND	ND	ND	ND	ND	ND	ND	ND	0
44586	2015-02-28T17:00:00	ND	ND	ND	ND	ND	ND	ND	ND	ND	ND	ND	0
44587	2015-02-28T18:00:00	ND	ND	ND	ND	ND	ND	ND	ND	ND	ND	ND	0
44588	2015-02-28T19:00:00	ND	ND	ND	ND	ND	ND	ND	ND	ND	ND	ND	0
44589	2015-02-28T20:00:00	ND	ND	ND	ND	ND	ND	ND	ND	ND	ND	ND	0
44590	2015-02-28T21:00:00	ND	ND	ND	ND	ND	ND	ND	ND	ND	ND	ND	0
44591	2015-02-28T22:00:00	ND	ND	ND	ND	ND	ND	ND	ND	ND	ND	ND	0
44592	2015-02-28T23:00:00	ND	ND	ND	ND	ND	ND	ND	ND	ND	ND	ND	0
44593	2015-03-01T00:00:00	ND	ND	ND	ND	ND	ND	ND	ND	ND	ND	ND	0
44594	2015-03-01T01:00:00	ND	ND	ND	ND	ND	ND	ND	ND	ND	ND	ND	0
44595	2015-03-01T02:00:00	ND	ND	ND	ND	ND	ND	ND	ND	ND	ND	ND	0
44596	2015-03-01T03:00:00	ND	ND	ND	ND	ND	ND	ND	ND	ND	ND	ND	0
44597	2015-03-01T04:00:00	ND	ND	ND	ND	ND	ND	ND	ND	ND	ND	ND	0
44598	2015-03-01T05:00:00	ND	ND	ND	ND	ND	ND	ND	ND	ND	ND	ND	0
44599	2015-03-01T06:00:00	ND	ND	ND	ND	ND	ND	ND	ND	ND	ND	ND	27.94
44600	2015-03-01T07:00:00	ND	ND	ND	ND	ND	ND	ND	ND	ND	ND	ND	33.78
44601	2015-03-01T08:00:00	ND	ND	ND	ND	ND	ND	ND	ND	ND	ND	ND	5.84
44602	2015-03-01T09:00:00	ND	ND	ND	ND	ND	ND	ND	ND	ND	ND	ND	0
44603	2015-03-01T10:00:00	ND	ND	ND	ND	ND	ND	ND	ND	ND	ND	ND	0
44604	2015-03-01T11:00:00	ND	ND	ND	ND	ND	ND	ND	ND	ND	ND	ND	0
44605	2015-03-01T12:00:00	ND	ND	ND	ND	ND	ND	ND	ND	ND	ND	ND	0
44606	2015-03-01T13:00:00	ND	ND	ND	ND	ND	ND	ND	ND	ND	ND	ND	0
44607	2015-03-01T14:00:00	ND	ND	ND	ND	ND	ND	ND	ND	ND	ND	ND	0
44608	2015-03-01T15:00:00	ND	ND	ND	ND	ND	ND	ND	ND	ND	ND	ND	0
44609	2015-03-01T16:00:00	ND	ND	ND	ND	ND	ND	ND	ND	ND	ND	ND	0
44610	2015-03-01T17:00:00	ND	ND	ND	ND	ND	ND	ND	ND	ND	ND	ND	0
44611	2015-03-01T18:00:00	ND	ND	ND	ND	ND	ND	ND	ND	ND	ND	ND	0
44612	2015-03-01T19:00:00	ND	ND	ND	ND	ND	ND	ND	ND	ND	ND	ND	3.56
44613	2015-03-01T20:00:00	ND	ND	ND	ND	ND	ND	ND	ND	ND	ND	ND	6.1
44614	2015-03-01T21:00:00	ND	ND	ND	ND	ND	ND	ND	ND	ND	ND	ND	3.05
44615	2015-03-01T22:00:00	ND	ND	ND	ND	ND	ND	ND	ND	ND	ND	ND	0.51
44616	2015-03-01T23:00:00	ND	ND	ND	ND	ND	ND	ND	ND	ND	ND	ND	0
44617	2015-03-02T00:00:00	ND	ND	ND	ND	ND	ND	ND	ND	ND	ND	ND	0
44618	2015-03-02T01:00:00	ND	ND	ND	ND	ND	ND	ND	ND	ND	ND	ND	0.25
44619	2015-03-02T02:00:00	ND	ND	ND	ND	ND	ND	ND	ND	ND	ND	ND	0
44620	2015-03-02T03:00:00	ND	ND	ND	ND	ND	ND	ND	ND	ND	ND	ND	0
44621	2015-03-02T04:00:00	ND	ND	ND	ND	ND	ND	ND	ND	ND	ND	ND	0
44622	2015-03-02T05:00:00	ND	ND	ND	ND	ND	ND	ND	ND	ND	ND	ND	0
44623	2015-03-02T06:00:00	ND	ND	ND	ND	ND	ND	ND	ND	ND	ND	ND	0
44624	2015-03-02T07:00:00	ND	ND	ND	ND	ND	ND	ND	ND	ND	ND	ND	0
44625	2015-03-02T08:00:00	ND	ND	ND	ND	ND	ND	ND	ND	ND	ND	ND	0
44626	2015-03-02T09:00:00	ND	ND	ND	ND	ND	ND	ND	ND	ND	ND	ND	0
44627	2015-03-02T10:00:00	ND	ND	ND	ND	ND	ND	ND	ND	ND	ND	ND	0
44628	2015-03-02T11:00:00	ND	ND	ND	ND	ND	ND	ND	ND	ND	ND	ND	0
44629	2015-03-02T12:00:00	ND	ND	ND	ND	ND	ND	ND	ND	ND	ND	ND	0
44630	2015-03-02T13:00:00	ND	ND	ND	ND	ND	ND	ND	ND	ND	ND	ND	0
44631	2015-03-02T14:00:00	ND	ND	ND	ND	ND	ND	ND	ND	ND	ND	ND	0
44632	2015-03-02T15:00:00	ND	ND	ND	ND	ND	ND	ND	ND	ND	ND	ND	0
44633	2015-03-02T16:00:00	ND	ND	ND	ND	ND	ND	ND	ND	ND	ND	ND	0
44634	2015-03-02T17:00:00	ND	ND	ND	ND	ND	ND	ND	ND	ND	ND	ND	0
44635	2015-03-02T18:00:00	ND	ND	ND	ND	ND	ND	ND	ND	ND	ND	ND	0
44636	2015-03-02T19:00:00	ND	ND	ND	ND	ND	ND	ND	ND	ND	ND	ND	0
44637	2015-03-02T20:00:00	ND	ND	ND	ND	ND	ND	ND	ND	ND	ND	ND	0
44638	2015-03-02T21:00:00	ND	ND	ND	ND	ND	ND	ND	ND	ND	ND	ND	0
44639	2015-03-02T22:00:00	ND	ND	ND	ND	ND	ND	ND	ND	ND	ND	ND	0
44640	2015-03-02T23:00:00	ND	ND	ND	ND	ND	ND	ND	ND	ND	ND	ND	0
44641	2015-03-03T00:00:00	ND	ND	ND	ND	ND	ND	ND	ND	ND	ND	ND	0
44642	2015-03-03T01:00:00	ND	ND	ND	ND	ND	ND	ND	ND	ND	ND	ND	0
44643	2015-03-03T02:00:00	ND	ND	ND	ND	ND	ND	ND	ND	ND	ND	ND	0
44644	2015-03-03T03:00:00	ND	ND	ND	ND	ND	ND	ND	ND	ND	ND	ND	0
44645	2015-03-03T04:00:00	ND	ND	ND	ND	ND	ND	ND	ND	ND	ND	ND	0
44646	2015-03-03T05:00:00	ND	ND	ND	ND	ND	ND	ND	ND	ND	ND	ND	0
44647	2015-03-03T06:00:00	ND	ND	ND	ND	ND	ND	ND	ND	ND	ND	ND	0
44648	2015-03-03T07:00:00	ND	ND	ND	ND	ND	ND	ND	ND	ND	ND	ND	0.25
44649	2015-03-03T08:00:00	ND	ND	ND	ND	ND	ND	ND	ND	ND	ND	ND	0
44650	2015-03-03T09:00:00	ND	ND	ND	ND	ND	ND	ND	ND	ND	ND	ND	0
44651	2015-03-03T10:00:00	ND	ND	ND	ND	ND	ND	ND	ND	ND	ND	ND	0
44652	2015-03-03T11:00:00	ND	ND	ND	ND	ND	ND	ND	ND	ND	ND	ND	0
44653	2015-03-03T12:00:00	ND	ND	ND	ND	ND	ND	ND	ND	ND	ND	ND	0
44654	2015-03-03T13:00:00	ND	ND	ND	ND	ND	ND	ND	ND	ND	ND	ND	0
44655	2015-03-03T14:00:00	ND	ND	ND	ND	ND	ND	ND	ND	ND	ND	ND	0
44656	2015-03-03T15:00:00	ND	ND	ND	ND	ND	ND	ND	ND	ND	ND	ND	0
44657	2015-03-03T16:00:00	ND	ND	ND	ND	ND	ND	ND	ND	ND	ND	ND	0
44658	2015-03-03T17:00:00	ND	ND	ND	ND	ND	ND	ND	ND	ND	ND	ND	0
44659	2015-03-03T18:00:00	ND	ND	ND	ND	ND	ND	ND	ND	ND	ND	ND	0
44660	2015-03-03T19:00:00	ND	ND	ND	ND	ND	ND	ND	ND	ND	ND	ND	0
44661	2015-03-03T20:00:00	ND	ND	ND	ND	ND	ND	ND	ND	ND	ND	ND	0
44662	2015-03-03T21:00:00	ND	ND	ND	ND	ND	ND	ND	ND	ND	ND	ND	0
44663	2015-03-03T22:00:00	ND	ND	ND	ND	ND	ND	ND	ND	ND	ND	ND	0
44664	2015-03-03T23:00:00	ND	ND	ND	ND	ND	ND	ND	ND	ND	ND	ND	0
44665	2015-03-04T00:00:00	ND	ND	ND	ND	ND	ND	ND	ND	ND	ND	ND	0
44666	2015-03-04T01:00:00	ND	ND	ND	ND	ND	ND	ND	ND	ND	ND	ND	0
44667	2015-03-04T02:00:00	ND	ND	ND	ND	ND	ND	ND	ND	ND	ND	ND	0
44668	2015-03-04T03:00:00	ND	ND	ND	ND	ND	ND	ND	ND	ND	ND	ND	0
44669	2015-03-04T04:00:00	ND	ND	ND	ND	ND	ND	ND	ND	ND	ND	ND	0
44670	2015-03-04T05:00:00	ND	ND	ND	ND	ND	ND	ND	ND	ND	ND	ND	0
44671	2015-03-04T06:00:00	ND	ND	ND	ND	ND	ND	ND	ND	ND	ND	ND	0
44672	2015-03-04T07:00:00	ND	ND	ND	ND	ND	ND	ND	ND	ND	ND	ND	0
44673	2015-03-04T08:00:00	ND	ND	ND	ND	ND	ND	ND	ND	ND	ND	ND	10.41
44674	2015-03-04T09:00:00	ND	ND	ND	ND	ND	ND	ND	ND	ND	ND	ND	2.29
44675	2015-03-04T10:00:00	ND	ND	ND	ND	ND	ND	ND	ND	ND	ND	ND	0.25
44676	2015-03-04T11:00:00	ND	ND	ND	ND	ND	ND	ND	ND	ND	ND	ND	0
44677	2015-03-04T12:00:00	ND	ND	ND	ND	ND	ND	ND	ND	ND	ND	ND	0
44678	2015-03-04T13:00:00	ND	ND	ND	ND	ND	ND	ND	ND	ND	ND	ND	0
44679	2015-03-04T14:00:00	ND	ND	ND	ND	ND	ND	ND	ND	ND	ND	ND	0
44680	2015-03-04T15:00:00	ND	ND	ND	ND	ND	ND	ND	ND	ND	ND	ND	0
44681	2015-03-04T16:00:00	ND	ND	ND	ND	ND	ND	ND	ND	ND	ND	ND	0
44682	2015-03-04T17:00:00	ND	ND	ND	ND	ND	ND	ND	ND	ND	ND	ND	0
44683	2015-03-04T18:00:00	ND	ND	ND	ND	ND	ND	ND	ND	ND	ND	ND	0
44684	2015-03-04T19:00:00	ND	ND	ND	ND	ND	ND	ND	ND	ND	ND	ND	0
44685	2015-03-04T20:00:00	ND	ND	ND	ND	ND	ND	ND	ND	ND	ND	ND	0
44686	2015-03-04T21:00:00	ND	ND	ND	ND	ND	ND	ND	ND	ND	ND	ND	0
44687	2015-03-04T22:00:00	ND	ND	ND	ND	ND	ND	ND	ND	ND	ND	ND	0
44688	2015-03-04T23:00:00	ND	ND	ND	ND	ND	ND	ND	ND	ND	ND	ND	0
44689	2015-03-05T00:00:00	ND	ND	ND	ND	ND	ND	ND	ND	ND	ND	ND	0
44690	2015-03-05T01:00:00	ND	ND	ND	ND	ND	ND	ND	ND	ND	ND	ND	0
44691	2015-03-05T02:00:00	ND	ND	ND	ND	ND	ND	ND	ND	ND	ND	ND	0
44692	2015-03-05T03:00:00	ND	ND	ND	ND	ND	ND	ND	ND	ND	ND	ND	0
44693	2015-03-05T04:00:00	ND	ND	ND	ND	ND	ND	ND	ND	ND	ND	ND	0
44694	2015-03-05T05:00:00	ND	ND	ND	ND	ND	ND	ND	ND	ND	ND	ND	0
44695	2015-03-05T06:00:00	ND	ND	ND	ND	ND	ND	ND	ND	ND	ND	ND	0
44696	2015-03-05T07:00:00	ND	ND	ND	ND	ND	ND	ND	ND	ND	ND	ND	0
44697	2015-03-05T08:00:00	ND	ND	ND	ND	ND	ND	ND	ND	ND	ND	ND	0
44698	2015-03-05T09:00:00	ND	ND	ND	ND	ND	ND	ND	ND	ND	ND	ND	0
44699	2015-03-05T10:00:00	ND	ND	ND	ND	ND	ND	ND	ND	ND	ND	ND	0
44700	2015-03-05T11:00:00	ND	ND	ND	ND	ND	ND	ND	ND	ND	ND	ND	0
44701	2015-03-05T12:00:00	ND	ND	ND	ND	ND	ND	ND	ND	ND	ND	ND	0
44702	2015-03-05T13:00:00	ND	ND	ND	ND	ND	ND	ND	ND	ND	ND	ND	0
44703	2015-03-05T14:00:00	ND	ND	ND	ND	ND	ND	ND	ND	ND	ND	ND	0
44704	2015-03-05T15:00:00	ND	ND	ND	ND	ND	ND	ND	ND	ND	ND	ND	0
44705	2015-03-05T16:00:00	ND	ND	ND	ND	ND	ND	ND	ND	ND	ND	ND	0
44706	2015-03-05T17:00:00	ND	ND	ND	ND	ND	ND	ND	ND	ND	ND	ND	0
44707	2015-03-05T18:00:00	ND	ND	ND	ND	ND	ND	ND	ND	ND	ND	ND	0
44708	2015-03-05T19:00:00	ND	ND	ND	ND	ND	ND	ND	ND	ND	ND	ND	0
44709	2015-03-05T20:00:00	ND	ND	ND	ND	ND	ND	ND	ND	ND	ND	ND	0
44710	2015-03-05T21:00:00	ND	ND	ND	ND	ND	ND	ND	ND	ND	ND	ND	0
44711	2015-03-05T22:00:00	ND	ND	ND	ND	ND	ND	ND	ND	ND	ND	ND	0
44712	2015-03-05T23:00:00	ND	ND	ND	ND	ND	ND	ND	ND	ND	ND	ND	0
44713	2015-03-06T00:00:00	ND	ND	ND	ND	ND	ND	ND	ND	ND	ND	ND	0
44714	2015-03-06T01:00:00	ND	ND	ND	ND	ND	ND	ND	ND	ND	ND	ND	0
44715	2015-03-06T02:00:00	ND	ND	ND	ND	ND	ND	ND	ND	ND	ND	ND	0
44716	2015-03-06T03:00:00	ND	ND	ND	ND	ND	ND	ND	ND	ND	ND	ND	0
44717	2015-03-06T04:00:00	ND	ND	ND	ND	ND	ND	ND	ND	ND	ND	ND	0
44718	2015-03-06T05:00:00	ND	ND	ND	ND	ND	ND	ND	ND	ND	ND	ND	0
44719	2015-03-06T06:00:00	ND	ND	ND	ND	ND	ND	ND	ND	ND	ND	ND	0
44720	2015-03-06T07:00:00	ND	ND	ND	ND	ND	ND	ND	ND	ND	ND	ND	0
44721	2015-03-06T08:00:00	ND	ND	ND	ND	ND	ND	ND	ND	ND	ND	ND	0
44722	2015-03-06T09:00:00	ND	ND	ND	ND	ND	ND	ND	ND	ND	ND	ND	0
44723	2015-03-06T10:00:00	ND	ND	ND	ND	ND	ND	ND	ND	ND	ND	ND	0
44724	2015-03-06T11:00:00	ND	ND	ND	ND	ND	ND	ND	ND	ND	ND	ND	0
44725	2015-03-06T12:00:00	ND	ND	ND	ND	ND	ND	ND	ND	ND	ND	ND	0
44726	2015-03-06T13:00:00	ND	ND	ND	ND	ND	ND	ND	ND	ND	ND	ND	0
44727	2015-03-06T14:00:00	ND	ND	ND	ND	ND	ND	ND	ND	ND	ND	ND	0
44728	2015-03-06T15:00:00	ND	ND	ND	ND	ND	ND	ND	ND	ND	ND	ND	0
44729	2015-03-06T16:00:00	ND	ND	ND	ND	ND	ND	ND	ND	ND	ND	ND	0
44730	2015-03-06T17:00:00	ND	ND	ND	ND	ND	ND	ND	ND	ND	ND	ND	0
44731	2015-03-06T18:00:00	ND	ND	ND	ND	ND	ND	ND	ND	ND	ND	ND	0
44732	2015-03-06T19:00:00	ND	ND	ND	ND	ND	ND	ND	ND	ND	ND	ND	4.06
44733	2015-03-06T20:00:00	ND	ND	ND	ND	ND	ND	ND	ND	ND	ND	ND	9.91
44734	2015-03-06T21:00:00	ND	ND	ND	ND	ND	ND	ND	ND	ND	ND	ND	1.27
44735	2015-03-06T22:00:00	ND	ND	ND	ND	ND	ND	ND	ND	ND	ND	ND	0
44736	2015-03-06T23:00:00	ND	ND	ND	ND	ND	ND	ND	ND	ND	ND	ND	0.25
44737	2015-03-07T00:00:00	ND	ND	ND	ND	ND	ND	ND	ND	ND	ND	ND	0
44738	2015-03-07T01:00:00	ND	ND	ND	ND	ND	ND	ND	ND	ND	ND	ND	0
44739	2015-03-07T02:00:00	ND	ND	ND	ND	ND	ND	ND	ND	ND	ND	ND	0
44740	2015-03-07T03:00:00	ND	ND	ND	ND	ND	ND	ND	ND	ND	ND	ND	0
44741	2015-03-07T04:00:00	ND	ND	ND	ND	ND	ND	ND	ND	ND	ND	ND	0
44742	2015-03-07T05:00:00	ND	ND	ND	ND	ND	ND	ND	ND	ND	ND	ND	0
44743	2015-03-07T06:00:00	ND	ND	ND	ND	ND	ND	ND	ND	ND	ND	ND	0
44744	2015-03-07T07:00:00	ND	ND	ND	ND	ND	ND	ND	ND	ND	ND	ND	0
44745	2015-03-07T08:00:00	ND	ND	ND	ND	ND	ND	ND	ND	ND	ND	ND	0
44746	2015-03-07T09:00:00	ND	ND	ND	ND	ND	ND	ND	ND	ND	ND	ND	0
44747	2015-03-07T10:00:00	ND	ND	ND	ND	ND	ND	ND	ND	ND	ND	ND	0
44748	2015-03-07T11:00:00	ND	ND	ND	ND	ND	ND	ND	ND	ND	ND	ND	0
44749	2015-03-07T12:00:00	ND	ND	ND	ND	ND	ND	ND	ND	ND	ND	ND	0
44750	2015-03-07T13:00:00	ND	ND	ND	ND	ND	ND	ND	ND	ND	ND	ND	0
44751	2015-03-07T14:00:00	ND	ND	ND	ND	ND	ND	ND	ND	ND	ND	ND	0
44752	2015-03-07T15:00:00	ND	ND	ND	ND	ND	ND	ND	ND	ND	ND	ND	0
44753	2015-03-07T16:00:00	ND	ND	ND	ND	ND	ND	ND	ND	ND	ND	ND	0
44754	2015-03-07T17:00:00	ND	ND	ND	ND	ND	ND	ND	ND	ND	ND	ND	0
44755	2015-03-07T18:00:00	ND	ND	ND	ND	ND	ND	ND	ND	ND	ND	ND	0
44756	2015-03-07T19:00:00	ND	ND	ND	ND	ND	ND	ND	ND	ND	ND	ND	0
44757	2015-03-07T20:00:00	ND	ND	ND	ND	ND	ND	ND	ND	ND	ND	ND	0
44758	2015-03-07T21:00:00	ND	ND	ND	ND	ND	ND	ND	ND	ND	ND	ND	0
44759	2015-03-07T22:00:00	ND	ND	ND	ND	ND	ND	ND	ND	ND	ND	ND	0
44760	2015-03-07T23:00:00	ND	ND	ND	ND	ND	ND	ND	ND	ND	ND	ND	0
44761	2015-03-08T00:00:00	ND	ND	ND	ND	ND	ND	ND	ND	ND	ND	ND	0
44762	2015-03-08T01:00:00	ND	ND	ND	ND	ND	ND	ND	ND	ND	ND	ND	0
44763	2015-03-08T02:00:00	ND	ND	ND	ND	ND	ND	ND	ND	ND	ND	ND	0
44764	2015-03-08T03:00:00	ND	ND	ND	ND	ND	ND	ND	ND	ND	ND	ND	0
44765	2015-03-08T04:00:00	ND	ND	ND	ND	ND	ND	ND	ND	ND	ND	ND	0
44766	2015-03-08T05:00:00	ND	ND	ND	ND	ND	ND	ND	ND	ND	ND	ND	0
44767	2015-03-08T06:00:00	ND	ND	ND	ND	ND	ND	ND	ND	ND	ND	ND	0
44768	2015-03-08T07:00:00	ND	ND	ND	ND	ND	ND	ND	ND	ND	ND	ND	0
44769	2015-03-08T08:00:00	ND	ND	ND	ND	ND	ND	ND	ND	ND	ND	ND	0
44770	2015-03-08T09:00:00	ND	ND	ND	ND	ND	ND	ND	ND	ND	ND	ND	0
44771	2015-03-08T10:00:00	ND	ND	ND	ND	ND	ND	ND	ND	ND	ND	ND	0
44772	2015-03-08T11:00:00	ND	ND	ND	ND	ND	ND	ND	ND	ND	ND	ND	0
44773	2015-03-08T12:00:00	ND	ND	ND	ND	ND	ND	ND	ND	ND	ND	ND	0
44774	2015-03-08T13:00:00	ND	ND	ND	ND	ND	ND	ND	ND	ND	ND	ND	0
44775	2015-03-08T14:00:00	ND	ND	ND	ND	ND	ND	ND	ND	ND	ND	ND	0
44776	2015-03-08T15:00:00	ND	ND	ND	ND	ND	ND	ND	ND	ND	ND	ND	0
44777	2015-03-08T16:00:00	ND	ND	ND	ND	ND	ND	ND	ND	ND	ND	ND	0
44778	2015-03-08T17:00:00	ND	ND	ND	ND	ND	ND	ND	ND	ND	ND	ND	0
44779	2015-03-08T18:00:00	ND	ND	ND	ND	ND	ND	ND	ND	ND	ND	ND	0
44780	2015-03-08T19:00:00	ND	ND	ND	ND	ND	ND	ND	ND	ND	ND	ND	0
44781	2015-03-08T20:00:00	ND	ND	ND	ND	ND	ND	ND	ND	ND	ND	ND	0
44782	2015-03-08T21:00:00	ND	ND	ND	ND	ND	ND	ND	ND	ND	ND	ND	0
44783	2015-03-08T22:00:00	ND	ND	ND	ND	ND	ND	ND	ND	ND	ND	ND	0
44784	2015-03-08T23:00:00	ND	ND	ND	ND	ND	ND	ND	ND	ND	ND	ND	0
44785	2015-03-09T00:00:00	ND	ND	ND	ND	ND	ND	ND	ND	ND	ND	ND	0
44786	2015-03-09T01:00:00	ND	ND	ND	ND	ND	ND	ND	ND	ND	ND	ND	0
44787	2015-03-09T02:00:00	ND	ND	ND	ND	ND	ND	ND	ND	ND	ND	ND	0
44788	2015-03-09T03:00:00	ND	ND	ND	ND	ND	ND	ND	ND	ND	ND	ND	0
44789	2015-03-09T04:00:00	ND	ND	ND	ND	ND	ND	ND	ND	ND	ND	ND	0
44790	2015-03-09T05:00:00	ND	ND	ND	ND	ND	ND	ND	ND	ND	ND	ND	0
44791	2015-03-09T06:00:00	ND	ND	ND	ND	ND	ND	ND	ND	ND	ND	ND	0
44792	2015-03-09T07:00:00	ND	ND	ND	ND	ND	ND	ND	ND	ND	ND	ND	0
44793	2015-03-09T08:00:00	ND	ND	ND	ND	ND	ND	ND	ND	ND	ND	ND	0
44794	2015-03-09T09:00:00	ND	ND	ND	ND	ND	ND	ND	ND	ND	ND	ND	0
44795	2015-03-09T10:00:00	ND	ND	ND	ND	ND	ND	ND	ND	ND	ND	ND	0
44796	2015-03-09T11:00:00	ND	ND	ND	ND	ND	ND	ND	ND	ND	ND	ND	0
44797	2015-03-09T12:00:00	ND	ND	ND	ND	ND	ND	ND	ND	ND	ND	ND	0
44798	2015-03-09T13:00:00	ND	ND	ND	ND	ND	ND	ND	ND	ND	ND	ND	0
44799	2015-03-09T14:00:00	ND	ND	ND	ND	ND	ND	ND	ND	ND	ND	ND	0
44800	2015-03-09T15:00:00	ND	ND	ND	ND	ND	ND	ND	ND	ND	ND	ND	0
44801	2015-03-09T16:00:00	ND	ND	ND	ND	ND	ND	ND	ND	ND	ND	ND	0
44802	2015-03-09T17:00:00	ND	ND	ND	ND	ND	ND	ND	ND	ND	ND	ND	0
44803	2015-03-09T18:00:00	ND	ND	ND	ND	ND	ND	ND	ND	ND	ND	ND	0
44804	2015-03-09T19:00:00	ND	ND	ND	ND	ND	ND	ND	ND	ND	ND	ND	0
44805	2015-03-09T20:00:00	ND	ND	ND	ND	ND	ND	ND	ND	ND	ND	ND	0
44806	2015-03-09T21:00:00	ND	ND	ND	ND	ND	ND	ND	ND	ND	ND	ND	0
44807	2015-03-09T22:00:00	ND	ND	ND	ND	ND	ND	ND	ND	ND	ND	ND	0
44808	2015-03-09T23:00:00	ND	ND	ND	ND	ND	ND	ND	ND	ND	ND	ND	0
44809	2015-03-10T00:00:00	ND	ND	ND	ND	ND	ND	ND	ND	ND	ND	ND	0
44810	2015-03-10T01:00:00	ND	ND	ND	ND	ND	ND	ND	ND	ND	ND	ND	0
44811	2015-03-10T02:00:00	ND	ND	ND	ND	ND	ND	ND	ND	ND	ND	ND	0
44812	2015-03-10T03:00:00	ND	ND	ND	ND	ND	ND	ND	ND	ND	ND	ND	0
44813	2015-03-10T04:00:00	ND	ND	ND	ND	ND	ND	ND	ND	ND	ND	ND	0
44814	2015-03-10T05:00:00	ND	ND	ND	ND	ND	ND	ND	ND	ND	ND	ND	0
44815	2015-03-10T06:00:00	ND	ND	ND	ND	ND	ND	ND	ND	ND	ND	ND	0
44816	2015-03-10T07:00:00	ND	ND	ND	ND	ND	ND	ND	ND	ND	ND	ND	0
44817	2015-03-10T08:00:00	ND	ND	ND	ND	ND	ND	ND	ND	ND	ND	ND	0
44818	2015-03-10T09:00:00	ND	ND	ND	ND	ND	ND	ND	ND	ND	ND	ND	0
44819	2015-03-10T10:00:00	ND	ND	ND	ND	ND	ND	ND	ND	ND	ND	ND	0
44820	2015-03-10T11:00:00	ND	ND	ND	ND	ND	ND	ND	ND	ND	ND	ND	0
44821	2015-03-10T12:00:00	ND	ND	ND	ND	ND	ND	ND	ND	ND	ND	ND	0
44822	2015-03-10T13:00:00	ND	ND	ND	ND	ND	ND	ND	ND	ND	ND	ND	0
44823	2015-03-10T14:00:00	ND	ND	ND	ND	ND	ND	ND	ND	ND	ND	ND	0
44824	2015-03-10T15:00:00	ND	ND	ND	ND	ND	ND	ND	ND	ND	ND	ND	0
44825	2015-03-10T16:00:00	ND	ND	ND	ND	ND	ND	ND	ND	ND	ND	ND	0
44826	2015-03-10T17:00:00	ND	ND	ND	ND	ND	ND	ND	ND	ND	ND	ND	0
44827	2015-03-10T18:00:00	ND	ND	ND	ND	ND	ND	ND	ND	ND	ND	ND	0
44828	2015-03-10T19:00:00	ND	ND	ND	ND	ND	ND	ND	ND	ND	ND	ND	0
44829	2015-03-10T20:00:00	ND	ND	ND	ND	ND	ND	ND	ND	ND	ND	ND	0
44830	2015-03-10T21:00:00	ND	ND	ND	ND	ND	ND	ND	ND	ND	ND	ND	0
44831	2015-03-10T22:00:00	ND	ND	ND	ND	ND	ND	ND	ND	ND	ND	ND	0
44832	2015-03-10T23:00:00	ND	ND	ND	ND	ND	ND	ND	ND	ND	ND	ND	0
44833	2015-03-11T00:00:00	ND	ND	ND	ND	ND	ND	ND	ND	ND	ND	ND	0
44834	2015-03-11T01:00:00	ND	ND	ND	ND	ND	ND	ND	ND	ND	ND	ND	0
44835	2015-03-11T02:00:00	ND	ND	ND	ND	ND	ND	ND	ND	ND	ND	ND	0
44836	2015-03-11T03:00:00	ND	ND	ND	ND	ND	ND	ND	ND	ND	ND	ND	0
44837	2015-03-11T04:00:00	ND	ND	ND	ND	ND	ND	ND	ND	ND	ND	ND	0
44838	2015-03-11T05:00:00	ND	ND	ND	ND	ND	ND	ND	ND	ND	ND	ND	0
44839	2015-03-11T06:00:00	ND	ND	ND	ND	ND	ND	ND	ND	ND	ND	ND	0
44840	2015-03-11T07:00:00	ND	ND	ND	ND	ND	ND	ND	ND	ND	ND	ND	0
44841	2015-03-11T08:00:00	ND	ND	ND	ND	ND	ND	ND	ND	ND	ND	ND	0
44842	2015-03-11T09:00:00	ND	ND	ND	ND	ND	ND	ND	ND	ND	ND	ND	0
44843	2015-03-11T10:00:00	ND	ND	ND	ND	ND	ND	ND	ND	ND	ND	ND	0
44844	2015-03-11T11:00:00	ND	ND	ND	ND	ND	ND	ND	ND	ND	ND	ND	0
44845	2015-03-11T12:00:00	ND	ND	ND	ND	ND	ND	ND	ND	ND	ND	ND	0
44846	2015-03-11T13:00:00	ND	ND	ND	ND	ND	ND	ND	ND	ND	ND	ND	0
44847	2015-03-11T14:00:00	ND	ND	ND	ND	ND	ND	ND	ND	ND	ND	ND	0
44848	2015-03-11T15:00:00	ND	ND	ND	ND	ND	ND	ND	ND	ND	ND	ND	0
44849	2015-03-11T16:00:00	ND	ND	ND	ND	ND	ND	ND	ND	ND	ND	ND	0
44850	2015-03-11T17:00:00	ND	ND	ND	ND	ND	ND	ND	ND	ND	ND	ND	0
44851	2015-03-11T18:00:00	ND	ND	ND	ND	ND	ND	ND	ND	ND	ND	ND	0
44852	2015-03-11T19:00:00	ND	ND	ND	ND	ND	ND	ND	ND	ND	ND	ND	0
44853	2015-03-11T20:00:00	ND	ND	ND	ND	ND	ND	ND	ND	ND	ND	ND	0
44854	2015-03-11T21:00:00	ND	ND	ND	ND	ND	ND	ND	ND	ND	ND	ND	0
44855	2015-03-11T22:00:00	ND	ND	ND	ND	ND	ND	ND	ND	ND	ND	ND	0
44856	2015-03-11T23:00:00	ND	ND	ND	ND	ND	ND	ND	ND	ND	ND	ND	0
44857	2015-03-12T00:00:00	ND	ND	ND	ND	ND	ND	ND	ND	ND	ND	ND	0
44858	2015-03-12T01:00:00	ND	ND	ND	ND	ND	ND	ND	ND	ND	ND	ND	0
44859	2015-03-12T02:00:00	ND	ND	ND	ND	ND	ND	ND	ND	ND	ND	ND	0
44860	2015-03-12T03:00:00	ND	ND	ND	ND	ND	ND	ND	ND	ND	ND	ND	0
44861	2015-03-12T04:00:00	ND	ND	ND	ND	ND	ND	ND	ND	ND	ND	ND	0
44862	2015-03-12T05:00:00	ND	ND	ND	ND	ND	ND	ND	ND	ND	ND	ND	0
44863	2015-03-12T06:00:00	ND	ND	ND	ND	ND	ND	ND	ND	ND	ND	ND	0
44864	2015-03-12T07:00:00	ND	ND	ND	ND	ND	ND	ND	ND	ND	ND	ND	0
44865	2015-03-12T08:00:00	ND	ND	ND	ND	ND	ND	ND	ND	ND	ND	ND	0
44866	2015-03-12T09:00:00	ND	ND	ND	ND	ND	ND	ND	ND	ND	ND	ND	0
44867	2015-03-12T10:00:00	ND	ND	ND	ND	ND	ND	ND	ND	ND	ND	ND	0
44868	2015-03-12T11:00:00	ND	ND	ND	ND	ND	ND	ND	ND	ND	ND	ND	0
44869	2015-03-12T12:00:00	ND	ND	ND	ND	ND	ND	ND	ND	ND	ND	ND	0
44870	2015-03-12T13:00:00	ND	ND	ND	ND	ND	ND	ND	ND	ND	ND	ND	0
44871	2015-03-12T14:00:00	ND	ND	ND	ND	ND	ND	ND	ND	ND	ND	ND	0
44872	2015-03-12T15:00:00	ND	ND	ND	ND	ND	ND	ND	ND	ND	ND	ND	0
44873	2015-03-12T16:00:00	ND	ND	ND	ND	ND	ND	ND	ND	ND	ND	ND	0
44874	2015-03-12T17:00:00	ND	ND	ND	ND	ND	ND	ND	ND	ND	ND	ND	0
44875	2015-03-12T18:00:00	ND	ND	ND	ND	ND	ND	ND	ND	ND	ND	ND	0
44876	2015-03-12T19:00:00	ND	ND	ND	ND	ND	ND	ND	ND	ND	ND	ND	0
44877	2015-03-12T20:00:00	ND	ND	ND	ND	ND	ND	ND	ND	ND	ND	ND	0
44878	2015-03-12T21:00:00	ND	ND	ND	ND	ND	ND	ND	ND	ND	ND	ND	0
44879	2015-03-12T22:00:00	ND	ND	ND	ND	ND	ND	ND	ND	ND	ND	ND	0
44880	2015-03-12T23:00:00	ND	ND	ND	ND	ND	ND	ND	ND	ND	ND	ND	0
44881	2015-03-13T00:00:00	ND	ND	ND	ND	ND	ND	ND	ND	ND	ND	ND	0
44882	2015-03-13T01:00:00	ND	ND	ND	ND	ND	ND	ND	ND	ND	ND	ND	0
44883	2015-03-13T02:00:00	ND	ND	ND	ND	ND	ND	ND	ND	ND	ND	ND	0
44884	2015-03-13T03:00:00	ND	ND	ND	ND	ND	ND	ND	ND	ND	ND	ND	0
44885	2015-03-13T04:00:00	ND	ND	ND	ND	ND	ND	ND	ND	ND	ND	ND	0
44886	2015-03-13T05:00:00	ND	ND	ND	ND	ND	ND	ND	ND	ND	ND	ND	0
44887	2015-03-13T06:00:00	ND	ND	ND	ND	ND	ND	ND	ND	ND	ND	ND	0
44888	2015-03-13T07:00:00	ND	ND	ND	ND	ND	ND	ND	ND	ND	ND	ND	0
44889	2015-03-13T08:00:00	ND	ND	ND	ND	ND	ND	ND	ND	ND	ND	ND	0
44890	2015-03-13T09:00:00	ND	ND	ND	ND	ND	ND	ND	ND	ND	ND	ND	0
44891	2015-03-13T10:00:00	ND	ND	ND	ND	ND	ND	ND	ND	ND	ND	ND	0
44892	2015-03-13T11:00:00	ND	ND	ND	ND	ND	ND	ND	ND	ND	ND	ND	0
44893	2015-03-13T12:00:00	ND	ND	ND	ND	ND	ND	ND	ND	ND	ND	ND	0
44894	2015-03-13T13:00:00	ND	ND	ND	ND	ND	ND	ND	ND	ND	ND	ND	0
44895	2015-03-13T14:00:00	ND	ND	ND	ND	ND	ND	ND	ND	ND	ND	ND	0
44896	2015-03-13T15:00:00	ND	ND	ND	ND	ND	ND	ND	ND	ND	ND	ND	0
44897	2015-03-13T16:00:00	ND	ND	ND	ND	ND	ND	ND	ND	ND	ND	ND	0
44898	2015-03-13T17:00:00	ND	ND	ND	ND	ND	ND	ND	ND	ND	ND	ND	0
44899	2015-03-13T18:00:00	ND	ND	ND	ND	ND	ND	ND	ND	ND	ND	ND	0
44900	2015-03-13T19:00:00	ND	ND	ND	ND	ND	ND	ND	ND	ND	ND	ND	0
44901	2015-03-13T20:00:00	ND	ND	ND	ND	ND	ND	ND	ND	ND	ND	ND	0
44902	2015-03-13T21:00:00	ND	ND	ND	ND	ND	ND	ND	ND	ND	ND	ND	3.81
44903	2015-03-13T22:00:00	ND	ND	ND	ND	ND	ND	ND	ND	ND	ND	ND	3.05
44904	2015-03-13T23:00:00	ND	ND	ND	ND	ND	ND	ND	ND	ND	ND	ND	1.27
44905	2015-03-14T00:00:00	ND	ND	ND	ND	ND	ND	ND	ND	ND	ND	ND	4.06
44906	2015-03-14T01:00:00	ND	ND	ND	ND	ND	ND	ND	ND	ND	ND	ND	1.02
44907	2015-03-14T02:00:00	ND	ND	ND	ND	ND	ND	ND	ND	ND	ND	ND	1.02
44908	2015-03-14T03:00:00	ND	ND	ND	ND	ND	ND	ND	ND	ND	ND	ND	0
44909	2015-03-14T04:00:00	ND	ND	ND	ND	ND	ND	ND	ND	ND	ND	ND	0
44910	2015-03-14T05:00:00	ND	ND	ND	ND	ND	ND	ND	ND	ND	ND	ND	0
44911	2015-03-14T06:00:00	ND	ND	ND	ND	ND	ND	ND	ND	ND	ND	ND	0
44912	2015-03-14T07:00:00	ND	ND	ND	ND	ND	ND	ND	ND	ND	ND	ND	0
44913	2015-03-14T08:00:00	ND	ND	ND	ND	ND	ND	ND	ND	ND	ND	ND	0
44914	2015-03-14T09:00:00	ND	ND	ND	ND	ND	ND	ND	ND	ND	ND	ND	0
44915	2015-03-14T10:00:00	ND	ND	ND	ND	ND	ND	ND	ND	ND	ND	ND	0
44916	2015-03-14T11:00:00	ND	ND	ND	ND	ND	ND	ND	ND	ND	ND	ND	0
44917	2015-03-14T12:00:00	ND	ND	ND	ND	ND	ND	ND	ND	ND	ND	ND	0
44918	2015-03-14T13:00:00	ND	ND	ND	ND	ND	ND	ND	ND	ND	ND	ND	0
44919	2015-03-14T14:00:00	ND	ND	ND	ND	ND	ND	ND	ND	ND	ND	ND	0
44920	2015-03-14T15:00:00	ND	ND	ND	ND	ND	ND	ND	ND	ND	ND	ND	0
44921	2015-03-14T16:00:00	ND	ND	ND	ND	ND	ND	ND	ND	ND	ND	ND	24.38
44922	2015-03-14T17:00:00	ND	ND	ND	ND	ND	ND	ND	ND	ND	ND	ND	0.25
44923	2015-03-14T18:00:00	ND	ND	ND	ND	ND	ND	ND	ND	ND	ND	ND	0
44924	2015-03-14T19:00:00	ND	ND	ND	ND	ND	ND	ND	ND	ND	ND	ND	0
44925	2015-03-14T20:00:00	ND	ND	ND	ND	ND	ND	ND	ND	ND	ND	ND	0
44926	2015-03-14T21:00:00	ND	ND	ND	ND	ND	ND	ND	ND	ND	ND	ND	0
44927	2015-03-14T22:00:00	ND	ND	ND	ND	ND	ND	ND	ND	ND	ND	ND	0
44928	2015-03-14T23:00:00	ND	ND	ND	ND	ND	ND	ND	ND	ND	ND	ND	0
44929	2015-03-15T00:00:00	ND	ND	ND	ND	ND	ND	ND	ND	ND	ND	ND	0
44930	2015-03-15T01:00:00	ND	ND	ND	ND	ND	ND	ND	ND	ND	ND	ND	0
44931	2015-03-15T02:00:00	ND	ND	ND	ND	ND	ND	ND	ND	ND	ND	ND	0
44932	2015-03-15T03:00:00	ND	ND	ND	ND	ND	ND	ND	ND	ND	ND	ND	0
44933	2015-03-15T04:00:00	ND	ND	ND	ND	ND	ND	ND	ND	ND	ND	ND	0
44934	2015-03-15T05:00:00	ND	ND	ND	ND	ND	ND	ND	ND	ND	ND	ND	0
44935	2015-03-15T06:00:00	ND	ND	ND	ND	ND	ND	ND	ND	ND	ND	ND	0
44936	2015-03-15T07:00:00	ND	ND	ND	ND	ND	ND	ND	ND	ND	ND	ND	0
44937	2015-03-15T08:00:00	ND	ND	ND	ND	ND	ND	ND	ND	ND	ND	ND	0
44938	2015-03-15T09:00:00	ND	ND	ND	ND	ND	ND	ND	ND	ND	ND	ND	0
44939	2015-03-15T10:00:00	ND	ND	ND	ND	ND	ND	ND	ND	ND	ND	ND	0
44940	2015-03-15T11:00:00	ND	ND	ND	ND	ND	ND	ND	ND	ND	ND	ND	0
44941	2015-03-15T12:00:00	ND	ND	ND	ND	ND	ND	ND	ND	ND	ND	ND	0
44942	2015-03-15T13:00:00	ND	ND	ND	ND	ND	ND	ND	ND	ND	ND	ND	0
44943	2015-03-15T14:00:00	ND	ND	ND	ND	ND	ND	ND	ND	ND	ND	ND	0
44944	2015-03-15T15:00:00	ND	ND	ND	ND	ND	ND	ND	ND	ND	ND	ND	0
44945	2015-03-15T16:00:00	ND	ND	ND	ND	ND	ND	ND	ND	ND	ND	ND	0
44946	2015-03-15T17:00:00	ND	ND	ND	ND	ND	ND	ND	ND	ND	ND	ND	0
44947	2015-03-15T18:00:00	ND	ND	ND	ND	ND	ND	ND	ND	ND	ND	ND	0
44948	2015-03-15T19:00:00	ND	ND	ND	ND	ND	ND	ND	ND	ND	ND	ND	0
44949	2015-03-15T20:00:00	ND	ND	ND	ND	ND	ND	ND	ND	ND	ND	ND	0
44950	2015-03-15T21:00:00	ND	ND	ND	ND	ND	ND	ND	ND	ND	ND	ND	0
44951	2015-03-15T22:00:00	ND	ND	ND	ND	ND	ND	ND	ND	ND	ND	ND	0
44952	2015-03-15T23:00:00	ND	ND	ND	ND	ND	ND	ND	ND	ND	ND	ND	0
44953	2015-03-16T00:00:00	ND	ND	ND	ND	ND	ND	ND	ND	ND	ND	ND	2.29
44954	2015-03-16T01:00:00	ND	ND	ND	ND	ND	ND	ND	ND	ND	ND	ND	0.25
44955	2015-03-16T02:00:00	ND	ND	ND	ND	ND	ND	ND	ND	ND	ND	ND	0
44956	2015-03-16T03:00:00	ND	ND	ND	ND	ND	ND	ND	ND	ND	ND	ND	0
44957	2015-03-16T04:00:00	ND	ND	ND	ND	ND	ND	ND	ND	ND	ND	ND	0.51
44958	2015-03-16T05:00:00	ND	ND	ND	ND	ND	ND	ND	ND	ND	ND	ND	1.78
44959	2015-03-16T06:00:00	ND	ND	ND	ND	ND	ND	ND	ND	ND	ND	ND	0.25
44960	2015-03-16T07:00:00	ND	ND	ND	ND	ND	ND	ND	ND	ND	ND	ND	7.62
44961	2015-03-16T08:00:00	ND	ND	ND	ND	ND	ND	ND	ND	ND	ND	ND	2.54
44962	2015-03-16T09:00:00	ND	ND	ND	ND	ND	ND	ND	ND	ND	ND	ND	0.51
44963	2015-03-16T10:00:00	ND	ND	ND	ND	ND	ND	ND	ND	ND	ND	ND	0
44964	2015-03-16T11:00:00	ND	ND	ND	ND	ND	ND	ND	ND	ND	ND	ND	0
44965	2015-03-16T12:00:00	ND	ND	ND	ND	ND	ND	ND	ND	ND	ND	ND	0
44966	2015-03-16T13:00:00	ND	ND	ND	ND	ND	ND	ND	ND	ND	ND	ND	0
44967	2015-03-16T14:00:00	ND	ND	ND	ND	ND	ND	ND	ND	ND	ND	ND	0
44968	2015-03-16T15:00:00	ND	ND	ND	ND	ND	ND	ND	ND	ND	ND	ND	0
44969	2015-03-16T16:00:00	ND	ND	ND	ND	ND	ND	ND	ND	ND	ND	ND	0
44970	2015-03-16T17:00:00	ND	ND	ND	ND	ND	ND	ND	ND	ND	ND	ND	0
44971	2015-03-16T18:00:00	ND	ND	ND	ND	ND	ND	ND	ND	ND	ND	ND	0
44972	2015-03-16T19:00:00	ND	ND	ND	ND	ND	ND	ND	ND	ND	ND	ND	0
44973	2015-03-16T20:00:00	ND	ND	ND	ND	ND	ND	ND	ND	ND	ND	ND	0
44974	2015-03-16T21:00:00	ND	ND	ND	ND	ND	ND	ND	ND	ND	ND	ND	0
44975	2015-03-16T22:00:00	ND	ND	ND	ND	ND	ND	ND	ND	ND	ND	ND	0
44976	2015-03-16T23:00:00	ND	ND	ND	ND	ND	ND	ND	ND	ND	ND	ND	0
44977	2015-03-17T00:00:00	ND	ND	ND	ND	ND	ND	ND	ND	ND	ND	ND	0
44978	2015-03-17T01:00:00	ND	ND	ND	ND	ND	ND	ND	ND	ND	ND	ND	0
44979	2015-03-17T02:00:00	ND	ND	ND	ND	ND	ND	ND	ND	ND	ND	ND	0
44980	2015-03-17T03:00:00	ND	ND	ND	ND	ND	ND	ND	ND	ND	ND	ND	0
44981	2015-03-17T04:00:00	ND	ND	ND	ND	ND	ND	ND	ND	ND	ND	ND	0
44982	2015-03-17T05:00:00	ND	ND	ND	ND	ND	ND	ND	ND	ND	ND	ND	1.27
44983	2015-03-17T06:00:00	ND	ND	ND	ND	ND	ND	ND	ND	ND	ND	ND	0.25
44984	2015-03-17T07:00:00	ND	ND	ND	ND	ND	ND	ND	ND	ND	ND	ND	0
44985	2015-03-17T08:00:00	ND	ND	ND	ND	ND	ND	ND	ND	ND	ND	ND	0
44986	2015-03-17T09:00:00	ND	ND	ND	ND	ND	ND	ND	ND	ND	ND	ND	0
44987	2015-03-17T10:00:00	ND	ND	ND	ND	ND	ND	ND	ND	ND	ND	ND	0
44988	2015-03-17T11:00:00	ND	ND	ND	ND	ND	ND	ND	ND	ND	ND	ND	0
44989	2015-03-17T12:00:00	ND	ND	ND	ND	ND	ND	ND	ND	ND	ND	ND	0
44990	2015-03-17T13:00:00	ND	ND	ND	ND	ND	ND	ND	ND	ND	ND	ND	0
44991	2015-03-17T14:00:00	ND	ND	ND	ND	ND	ND	ND	ND	ND	ND	ND	0
44992	2015-03-17T15:00:00	ND	ND	ND	ND	ND	ND	ND	ND	ND	ND	ND	0
44993	2015-03-17T16:00:00	ND	ND	ND	ND	ND	ND	ND	ND	ND	ND	ND	0
44994	2015-03-17T17:00:00	ND	ND	ND	ND	ND	ND	ND	ND	ND	ND	ND	0
44995	2015-03-17T18:00:00	ND	ND	ND	ND	ND	ND	ND	ND	ND	ND	ND	0
44996	2015-03-17T19:00:00	ND	ND	ND	ND	ND	ND	ND	ND	ND	ND	ND	0
44997	2015-03-17T20:00:00	ND	ND	ND	ND	ND	ND	ND	ND	ND	ND	ND	0
44998	2015-03-17T21:00:00	ND	ND	ND	ND	ND	ND	ND	ND	ND	ND	ND	0
44999	2015-03-17T22:00:00	ND	ND	ND	ND	ND	ND	ND	ND	ND	ND	ND	0
45000	2015-03-17T23:00:00	ND	ND	ND	ND	ND	ND	ND	ND	ND	ND	ND	3.3
45001	2015-03-18T00:00:00	ND	ND	ND	ND	ND	ND	ND	ND	ND	ND	ND	3.56
45002	2015-03-18T01:00:00	ND	ND	ND	ND	ND	ND	ND	ND	ND	ND	ND	4.57
45003	2015-03-18T02:00:00	ND	ND	ND	ND	ND	ND	ND	ND	ND	ND	ND	4.06
45004	2015-03-18T03:00:00	ND	ND	ND	ND	ND	ND	ND	ND	ND	ND	ND	0.51
45005	2015-03-18T04:00:00	ND	ND	ND	ND	ND	ND	ND	ND	ND	ND	ND	0
45006	2015-03-18T05:00:00	ND	ND	ND	ND	ND	ND	ND	ND	ND	ND	ND	0
45007	2015-03-18T06:00:00	ND	ND	ND	ND	ND	ND	ND	ND	ND	ND	ND	0
45008	2015-03-18T07:00:00	ND	ND	ND	ND	ND	ND	ND	ND	ND	ND	ND	0
45009	2015-03-18T08:00:00	ND	ND	ND	ND	ND	ND	ND	ND	ND	ND	ND	0
45010	2015-03-18T09:00:00	ND	ND	ND	ND	ND	ND	ND	ND	ND	ND	ND	0.25
45011	2015-03-18T10:00:00	ND	ND	ND	ND	ND	ND	ND	ND	ND	ND	ND	0
45012	2015-03-18T11:00:00	ND	ND	ND	ND	ND	ND	ND	ND	ND	ND	ND	0
45013	2015-03-18T12:00:00	ND	ND	ND	ND	ND	ND	ND	ND	ND	ND	ND	0
45014	2015-03-18T13:00:00	ND	ND	ND	ND	ND	ND	ND	ND	ND	ND	ND	0
45015	2015-03-18T14:00:00	ND	ND	ND	ND	ND	ND	ND	ND	ND	ND	ND	0
45016	2015-03-18T15:00:00	ND	ND	ND	ND	ND	ND	ND	ND	ND	ND	ND	0
45017	2015-03-18T16:00:00	ND	ND	ND	ND	ND	ND	ND	ND	ND	ND	ND	0
45018	2015-03-18T17:00:00	ND	ND	ND	ND	ND	ND	ND	ND	ND	ND	ND	0
45019	2015-03-18T18:00:00	ND	ND	ND	ND	ND	ND	ND	ND	ND	ND	ND	0
45020	2015-03-18T19:00:00	ND	ND	ND	ND	ND	ND	ND	ND	ND	ND	ND	0
45021	2015-03-18T20:00:00	ND	ND	ND	ND	ND	ND	ND	ND	ND	ND	ND	0
45022	2015-03-18T21:00:00	ND	ND	ND	ND	ND	ND	ND	ND	ND	ND	ND	0
45023	2015-03-18T22:00:00	ND	ND	ND	ND	ND	ND	ND	ND	ND	ND	ND	0
45024	2015-03-18T23:00:00	ND	ND	ND	ND	ND	ND	ND	ND	ND	ND	ND	0
45025	2015-03-19T00:00:00	ND	ND	ND	ND	ND	ND	ND	ND	ND	ND	ND	0
45026	2015-03-19T01:00:00	ND	ND	ND	ND	ND	ND	ND	ND	ND	ND	ND	0
45027	2015-03-19T02:00:00	ND	ND	ND	ND	ND	ND	ND	ND	ND	ND	ND	0
45028	2015-03-19T03:00:00	ND	ND	ND	ND	ND	ND	ND	ND	ND	ND	ND	0
45029	2015-03-19T04:00:00	ND	ND	ND	ND	ND	ND	ND	ND	ND	ND	ND	0
45030	2015-03-19T05:00:00	ND	ND	ND	ND	ND	ND	ND	ND	ND	ND	ND	0
45031	2015-03-19T06:00:00	ND	ND	ND	ND	ND	ND	ND	ND	ND	ND	ND	0
45032	2015-03-19T07:00:00	ND	ND	ND	ND	ND	ND	ND	ND	ND	ND	ND	0
45033	2015-03-19T08:00:00	ND	ND	ND	ND	ND	ND	ND	ND	ND	ND	ND	0
45034	2015-03-19T09:00:00	ND	ND	ND	ND	ND	ND	ND	ND	ND	ND	ND	0
45035	2015-03-19T10:00:00	ND	ND	ND	ND	ND	ND	ND	ND	ND	ND	ND	0
45036	2015-03-19T11:00:00	ND	ND	ND	ND	ND	ND	ND	ND	ND	ND	ND	0
45037	2015-03-19T12:00:00	ND	ND	ND	ND	ND	ND	ND	ND	ND	ND	ND	0
45038	2015-03-19T13:00:00	ND	ND	ND	ND	ND	ND	ND	ND	ND	ND	ND	0
45039	2015-03-19T14:00:00	ND	ND	ND	ND	ND	ND	ND	ND	ND	ND	ND	0
45040	2015-03-19T15:00:00	ND	ND	ND	ND	ND	ND	ND	ND	ND	ND	ND	0
45041	2015-03-19T16:00:00	ND	ND	ND	ND	ND	ND	ND	ND	ND	ND	ND	0
45042	2015-03-19T17:00:00	ND	ND	ND	ND	ND	ND	ND	ND	ND	ND	ND	0
45043	2015-03-19T18:00:00	ND	ND	ND	ND	ND	ND	ND	ND	ND	ND	ND	0
45044	2015-03-19T19:00:00	ND	ND	ND	ND	ND	ND	ND	ND	ND	ND	ND	0
45045	2015-03-19T20:00:00	ND	ND	ND	ND	ND	ND	ND	ND	ND	ND	ND	0
45046	2015-03-19T21:00:00	ND	ND	ND	ND	ND	ND	ND	ND	ND	ND	ND	0
45047	2015-03-19T22:00:00	ND	ND	ND	ND	ND	ND	ND	ND	ND	ND	ND	0
45048	2015-03-19T23:00:00	ND	ND	ND	ND	ND	ND	ND	ND	ND	ND	ND	0
45049	2015-03-20T00:00:00	ND	ND	ND	ND	ND	ND	ND	ND	ND	ND	ND	0
45050	2015-03-20T01:00:00	ND	ND	ND	ND	ND	ND	ND	ND	ND	ND	ND	0
45051	2015-03-20T02:00:00	ND	ND	ND	ND	ND	ND	ND	ND	ND	ND	ND	0
45052	2015-03-20T03:00:00	ND	ND	ND	ND	ND	ND	ND	ND	ND	ND	ND	0
45053	2015-03-20T04:00:00	ND	ND	ND	ND	ND	ND	ND	ND	ND	ND	ND	0
45054	2015-03-20T05:00:00	ND	ND	ND	ND	ND	ND	ND	ND	ND	ND	ND	0
45055	2015-03-20T06:00:00	ND	ND	ND	ND	ND	ND	ND	ND	ND	ND	ND	0
45056	2015-03-20T07:00:00	ND	ND	ND	ND	ND	ND	ND	ND	ND	ND	ND	0
45057	2015-03-20T08:00:00	ND	ND	ND	ND	ND	ND	ND	ND	ND	ND	ND	0
45058	2015-03-20T09:00:00	ND	ND	ND	ND	ND	ND	ND	ND	ND	ND	ND	0
45059	2015-03-20T10:00:00	ND	ND	ND	ND	ND	ND	ND	ND	ND	ND	ND	0
45060	2015-03-20T11:00:00	ND	ND	ND	ND	ND	ND	ND	ND	ND	ND	ND	0
45061	2015-03-20T12:00:00	ND	ND	ND	ND	ND	ND	ND	ND	ND	ND	ND	0
45062	2015-03-20T13:00:00	ND	ND	ND	ND	ND	ND	ND	ND	ND	ND	ND	0
45063	2015-03-20T14:00:00	ND	ND	ND	ND	ND	ND	ND	ND	ND	ND	ND	0
45064	2015-03-20T15:00:00	ND	ND	ND	ND	ND	ND	ND	ND	ND	ND	ND	0
45065	2015-03-20T16:00:00	ND	ND	ND	ND	ND	ND	ND	ND	ND	ND	ND	0
45066	2015-03-20T17:00:00	ND	ND	ND	ND	ND	ND	ND	ND	ND	ND	ND	0
45067	2015-03-20T18:00:00	ND	ND	ND	ND	ND	ND	ND	ND	ND	ND	ND	0
45068	2015-03-20T19:00:00	ND	ND	ND	ND	ND	ND	ND	ND	ND	ND	ND	0
45069	2015-03-20T20:00:00	ND	ND	ND	ND	ND	ND	ND	ND	ND	ND	ND	0
45070	2015-03-20T21:00:00	ND	ND	ND	ND	ND	ND	ND	ND	ND	ND	ND	0
45071	2015-03-20T22:00:00	ND	ND	ND	ND	ND	ND	ND	ND	ND	ND	ND	0
45072	2015-03-20T23:00:00	ND	ND	ND	ND	ND	ND	ND	ND	ND	ND	ND	0
45073	2015-03-21T00:00:00	ND	ND	ND	ND	ND	ND	ND	ND	ND	ND	ND	0
45074	2015-03-21T01:00:00	ND	ND	ND	ND	ND	ND	ND	ND	ND	ND	ND	0
45075	2015-03-21T02:00:00	ND	ND	ND	ND	ND	ND	ND	ND	ND	ND	ND	0
45076	2015-03-21T03:00:00	ND	ND	ND	ND	ND	ND	ND	ND	ND	ND	ND	0
45077	2015-03-21T04:00:00	ND	ND	ND	ND	ND	ND	ND	ND	ND	ND	ND	0
45078	2015-03-21T05:00:00	ND	ND	ND	ND	ND	ND	ND	ND	ND	ND	ND	0
45079	2015-03-21T06:00:00	ND	ND	ND	ND	ND	ND	ND	ND	ND	ND	ND	0
45080	2015-03-21T07:00:00	ND	ND	ND	ND	ND	ND	ND	ND	ND	ND	ND	0
45081	2015-03-21T08:00:00	ND	ND	ND	ND	ND	ND	ND	ND	ND	ND	ND	0
45082	2015-03-21T09:00:00	ND	ND	ND	ND	ND	ND	ND	ND	ND	ND	ND	0
45083	2015-03-21T10:00:00	ND	ND	ND	ND	ND	ND	ND	ND	ND	ND	ND	0
45084	2015-03-21T11:00:00	ND	ND	ND	ND	ND	ND	ND	ND	ND	ND	ND	0
45085	2015-03-21T12:00:00	ND	ND	ND	ND	ND	ND	ND	ND	ND	ND	ND	0
45086	2015-03-21T13:00:00	ND	ND	ND	ND	ND	ND	ND	ND	ND	ND	ND	0
45087	2015-03-21T14:00:00	ND	ND	ND	ND	ND	ND	ND	ND	ND	ND	ND	0
45088	2015-03-21T15:00:00	ND	ND	ND	ND	ND	ND	ND	ND	ND	ND	ND	0
45089	2015-03-21T16:00:00	ND	ND	ND	ND	ND	ND	ND	ND	ND	ND	ND	0
45090	2015-03-21T17:00:00	ND	ND	ND	ND	ND	ND	ND	ND	ND	ND	ND	0
45091	2015-03-21T18:00:00	ND	ND	ND	ND	ND	ND	ND	ND	ND	ND	ND	0
45092	2015-03-21T19:00:00	ND	ND	ND	ND	ND	ND	ND	ND	ND	ND	ND	0
45093	2015-03-21T20:00:00	ND	ND	ND	ND	ND	ND	ND	ND	ND	ND	ND	0
45094	2015-03-21T21:00:00	ND	ND	ND	ND	ND	ND	ND	ND	ND	ND	ND	0
45095	2015-03-21T22:00:00	ND	ND	ND	ND	ND	ND	ND	ND	ND	ND	ND	0
45096	2015-03-21T23:00:00	ND	ND	ND	ND	ND	ND	ND	ND	ND	ND	ND	0
45097	2015-03-22T00:00:00	ND	ND	ND	ND	ND	ND	ND	ND	ND	ND	ND	0
45098	2015-03-22T01:00:00	ND	ND	ND	ND	ND	ND	ND	ND	ND	ND	ND	0
45099	2015-03-22T02:00:00	ND	ND	ND	ND	ND	ND	ND	ND	ND	ND	ND	0
45100	2015-03-22T03:00:00	ND	ND	ND	ND	ND	ND	ND	ND	ND	ND	ND	0
45101	2015-03-22T04:00:00	ND	ND	ND	ND	ND	ND	ND	ND	ND	ND	ND	0
45102	2015-03-22T05:00:00	ND	ND	ND	ND	ND	ND	ND	ND	ND	ND	ND	0
45103	2015-03-22T06:00:00	ND	ND	ND	ND	ND	ND	ND	ND	ND	ND	ND	0
45104	2015-03-22T07:00:00	ND	ND	ND	ND	ND	ND	ND	ND	ND	ND	ND	0
45105	2015-03-22T08:00:00	ND	ND	ND	ND	ND	ND	ND	ND	ND	ND	ND	0
45106	2015-03-22T09:00:00	ND	ND	ND	ND	ND	ND	ND	ND	ND	ND	ND	0
45107	2015-03-22T10:00:00	ND	ND	ND	ND	ND	ND	ND	ND	ND	ND	ND	0
45108	2015-03-22T11:00:00	ND	ND	ND	ND	ND	ND	ND	ND	ND	ND	ND	0
45109	2015-03-22T12:00:00	ND	ND	ND	ND	ND	ND	ND	ND	ND	ND	ND	0
45110	2015-03-22T13:00:00	ND	ND	ND	ND	ND	ND	ND	ND	ND	ND	ND	0
45111	2015-03-22T14:00:00	ND	ND	ND	ND	ND	ND	ND	ND	ND	ND	ND	0
45112	2015-03-22T15:00:00	ND	ND	ND	ND	ND	ND	ND	ND	ND	ND	ND	14.22
45113	2015-03-22T16:00:00	ND	ND	ND	ND	ND	ND	ND	ND	ND	ND	ND	0.25
45114	2015-03-22T17:00:00	ND	ND	ND	ND	ND	ND	ND	ND	ND	ND	ND	0
45115	2015-03-22T18:00:00	ND	ND	ND	ND	ND	ND	ND	ND	ND	ND	ND	0
45116	2015-03-22T19:00:00	ND	ND	ND	ND	ND	ND	ND	ND	ND	ND	ND	0
45117	2015-03-22T20:00:00	ND	ND	ND	ND	ND	ND	ND	ND	ND	ND	ND	0
45118	2015-03-22T21:00:00	ND	ND	ND	ND	ND	ND	ND	ND	ND	ND	ND	0
45119	2015-03-22T22:00:00	ND	ND	ND	ND	ND	ND	ND	ND	ND	ND	ND	0
45120	2015-03-22T23:00:00	ND	ND	ND	ND	ND	ND	ND	ND	ND	ND	ND	0
45121	2015-03-23T00:00:00	ND	ND	ND	ND	ND	ND	ND	ND	ND	ND	ND	0
45122	2015-03-23T01:00:00	ND	ND	ND	ND	ND	ND	ND	ND	ND	ND	ND	0
45123	2015-03-23T02:00:00	ND	ND	ND	ND	ND	ND	ND	ND	ND	ND	ND	0
45124	2015-03-23T03:00:00	ND	ND	ND	ND	ND	ND	ND	ND	ND	ND	ND	0
45125	2015-03-23T04:00:00	ND	ND	ND	ND	ND	ND	ND	ND	ND	ND	ND	0
45126	2015-03-23T05:00:00	ND	ND	ND	ND	ND	ND	ND	ND	ND	ND	ND	0
45127	2015-03-23T06:00:00	ND	ND	ND	ND	ND	ND	ND	ND	ND	ND	ND	0
45128	2015-03-23T07:00:00	ND	ND	ND	ND	ND	ND	ND	ND	ND	ND	ND	0
45129	2015-03-23T08:00:00	ND	ND	ND	ND	ND	ND	ND	ND	ND	ND	ND	0
45130	2015-03-23T09:00:00	ND	ND	ND	ND	ND	ND	ND	ND	ND	ND	ND	0
45131	2015-03-23T10:00:00	ND	ND	ND	ND	ND	ND	ND	ND	ND	ND	ND	0
45132	2015-03-23T11:00:00	ND	ND	ND	ND	ND	ND	ND	ND	ND	ND	ND	0
45133	2015-03-23T12:00:00	ND	ND	ND	ND	ND	ND	ND	ND	ND	ND	ND	0
45134	2015-03-23T13:00:00	ND	ND	ND	ND	ND	ND	ND	ND	ND	ND	ND	0
45135	2015-03-23T14:00:00	ND	ND	ND	ND	ND	ND	ND	ND	ND	ND	ND	0
45136	2015-03-23T15:00:00	ND	ND	ND	ND	ND	ND	ND	ND	ND	ND	ND	0
45137	2015-03-23T16:00:00	ND	ND	ND	ND	ND	ND	ND	ND	ND	ND	ND	0
45138	2015-03-23T17:00:00	ND	ND	ND	ND	ND	ND	ND	ND	ND	ND	ND	0
45139	2015-03-23T18:00:00	ND	ND	ND	ND	ND	ND	ND	ND	ND	ND	ND	0
45140	2015-03-23T19:00:00	ND	ND	ND	ND	ND	ND	ND	ND	ND	ND	ND	0
45141	2015-03-23T20:00:00	ND	ND	ND	ND	ND	ND	ND	ND	ND	ND	ND	0
45142	2015-03-23T21:00:00	ND	ND	ND	ND	ND	ND	ND	ND	ND	ND	ND	0
45143	2015-03-23T22:00:00	ND	ND	ND	ND	ND	ND	ND	ND	ND	ND	ND	0
45144	2015-03-23T23:00:00	ND	ND	ND	ND	ND	ND	ND	ND	ND	ND	ND	0
45145	2015-03-24T00:00:00	ND	ND	ND	ND	ND	ND	ND	ND	ND	ND	ND	0
45146	2015-03-24T01:00:00	ND	ND	ND	ND	ND	ND	ND	ND	ND	ND	ND	0
45147	2015-03-24T02:00:00	ND	ND	ND	ND	ND	ND	ND	ND	ND	ND	ND	0
45148	2015-03-24T03:00:00	ND	ND	ND	ND	ND	ND	ND	ND	ND	ND	ND	0
45149	2015-03-24T04:00:00	ND	ND	ND	ND	ND	ND	ND	ND	ND	ND	ND	0
45150	2015-03-24T05:00:00	ND	ND	ND	ND	ND	ND	ND	ND	ND	ND	ND	0
45151	2015-03-24T06:00:00	ND	ND	ND	ND	ND	ND	ND	ND	ND	ND	ND	0
45152	2015-03-24T07:00:00	ND	ND	ND	ND	ND	ND	ND	ND	ND	ND	ND	0
45153	2015-03-24T08:00:00	ND	ND	ND	ND	ND	ND	ND	ND	ND	ND	ND	0
45154	2015-03-24T09:00:00	ND	ND	ND	ND	ND	ND	ND	ND	ND	ND	ND	0
45155	2015-03-24T10:00:00	ND	ND	ND	ND	ND	ND	ND	ND	ND	ND	ND	0
45156	2015-03-24T11:00:00	ND	ND	ND	ND	ND	ND	ND	ND	ND	ND	ND	0
45157	2015-03-24T12:00:00	ND	ND	ND	ND	ND	ND	ND	ND	ND	ND	ND	0
45158	2015-03-24T13:00:00	ND	ND	ND	ND	ND	ND	ND	ND	ND	ND	ND	0
45159	2015-03-24T14:00:00	ND	ND	ND	ND	ND	ND	ND	ND	ND	ND	ND	0
45160	2015-03-24T15:00:00	ND	ND	ND	ND	ND	ND	ND	ND	ND	ND	ND	0
45161	2015-03-24T16:00:00	ND	ND	ND	ND	ND	ND	ND	ND	ND	ND	ND	0
45162	2015-03-24T17:00:00	ND	ND	ND	ND	ND	ND	ND	ND	ND	ND	ND	0
45163	2015-03-24T18:00:00	ND	ND	ND	ND	ND	ND	ND	ND	ND	ND	ND	0
45164	2015-03-24T19:00:00	ND	ND	ND	ND	ND	ND	ND	ND	ND	ND	ND	0
45165	2015-03-24T20:00:00	ND	ND	ND	ND	ND	ND	ND	ND	ND	ND	ND	0
45166	2015-03-24T21:00:00	ND	ND	ND	ND	ND	ND	ND	ND	ND	ND	ND	0
45167	2015-03-24T22:00:00	ND	ND	ND	ND	ND	ND	ND	ND	ND	ND	ND	0
45168	2015-03-24T23:00:00	ND	ND	ND	ND	ND	ND	ND	ND	ND	ND	ND	0
45169	2015-03-25T00:00:00	ND	ND	ND	ND	ND	ND	ND	ND	ND	ND	ND	0
45170	2015-03-25T01:00:00	ND	ND	ND	ND	ND	ND	ND	ND	ND	ND	ND	0
45171	2015-03-25T02:00:00	ND	ND	ND	ND	ND	ND	ND	ND	ND	ND	ND	0
45172	2015-03-25T03:00:00	ND	ND	ND	ND	ND	ND	ND	ND	ND	ND	ND	0
45173	2015-03-25T04:00:00	ND	ND	ND	ND	ND	ND	ND	ND	ND	ND	ND	0
45174	2015-03-25T05:00:00	ND	ND	ND	ND	ND	ND	ND	ND	ND	ND	ND	0
45175	2015-03-25T06:00:00	ND	ND	ND	ND	ND	ND	ND	ND	ND	ND	ND	0
45176	2015-03-25T07:00:00	ND	ND	ND	ND	ND	ND	ND	ND	ND	ND	ND	0
45177	2015-03-25T08:00:00	ND	ND	ND	ND	ND	ND	ND	ND	ND	ND	ND	0
45178	2015-03-25T09:00:00	ND	ND	ND	ND	ND	ND	ND	ND	ND	ND	ND	0
45179	2015-03-25T10:00:00	ND	ND	ND	ND	ND	ND	ND	ND	ND	ND	ND	0
45180	2015-03-25T11:00:00	ND	ND	ND	ND	ND	ND	ND	ND	ND	ND	ND	0
45181	2015-03-25T12:00:00	ND	ND	ND	ND	ND	ND	ND	ND	ND	ND	ND	0
45182	2015-03-25T13:00:00	ND	ND	ND	ND	ND	ND	ND	ND	ND	ND	ND	0
45183	2015-03-25T14:00:00	ND	ND	ND	ND	ND	ND	ND	ND	ND	ND	ND	0
45184	2015-03-25T15:00:00	ND	ND	ND	ND	ND	ND	ND	ND	ND	ND	ND	0
45185	2015-03-25T16:00:00	ND	ND	ND	ND	ND	ND	ND	ND	ND	ND	ND	0
45186	2015-03-25T17:00:00	ND	ND	ND	ND	ND	ND	ND	ND	ND	ND	ND	0
45187	2015-03-25T18:00:00	ND	ND	ND	ND	ND	ND	ND	ND	ND	ND	ND	0
45188	2015-03-25T19:00:00	ND	ND	ND	ND	ND	ND	ND	ND	ND	ND	ND	0
45189	2015-03-25T20:00:00	ND	ND	ND	ND	ND	ND	ND	ND	ND	ND	ND	11.43
45190	2015-03-25T21:00:00	ND	ND	ND	ND	ND	ND	ND	ND	ND	ND	ND	1.27
45191	2015-03-25T22:00:00	ND	ND	ND	ND	ND	ND	ND	ND	ND	ND	ND	0
45192	2015-03-25T23:00:00	ND	ND	ND	ND	ND	ND	ND	ND	ND	ND	ND	0
45193	2015-03-26T00:00:00	ND	ND	ND	ND	ND	ND	ND	ND	ND	ND	ND	0
45194	2015-03-26T01:00:00	ND	ND	ND	ND	ND	ND	ND	ND	ND	ND	ND	0
45195	2015-03-26T02:00:00	ND	ND	ND	ND	ND	ND	ND	ND	ND	ND	ND	0
45196	2015-03-26T03:00:00	ND	ND	ND	ND	ND	ND	ND	ND	ND	ND	ND	0
45197	2015-03-26T04:00:00	ND	ND	ND	ND	ND	ND	ND	ND	ND	ND	ND	0
45198	2015-03-26T05:00:00	ND	ND	ND	ND	ND	ND	ND	ND	ND	ND	ND	0
45199	2015-03-26T06:00:00	ND	ND	ND	ND	ND	ND	ND	ND	ND	ND	ND	0
45200	2015-03-26T07:00:00	ND	ND	ND	ND	ND	ND	ND	ND	ND	ND	ND	0
45201	2015-03-26T08:00:00	ND	ND	ND	ND	ND	ND	ND	ND	ND	ND	ND	0
45202	2015-03-26T09:00:00	ND	ND	ND	ND	ND	ND	ND	ND	ND	ND	ND	0
45203	2015-03-26T10:00:00	ND	ND	ND	ND	ND	ND	ND	ND	ND	ND	ND	0
45204	2015-03-26T11:00:00	ND	ND	ND	ND	ND	ND	ND	ND	ND	ND	ND	0
45205	2015-03-26T12:00:00	ND	ND	ND	ND	ND	ND	ND	ND	ND	ND	ND	0
45206	2015-03-26T13:00:00	ND	ND	ND	ND	ND	ND	ND	ND	ND	ND	ND	0
45207	2015-03-26T14:00:00	ND	ND	ND	ND	ND	ND	ND	ND	ND	ND	ND	0
45208	2015-03-26T15:00:00	ND	ND	ND	ND	ND	ND	ND	ND	ND	ND	ND	0
45209	2015-03-26T16:00:00	ND	ND	ND	ND	ND	ND	ND	ND	ND	ND	ND	0
45210	2015-03-26T17:00:00	ND	ND	ND	ND	ND	ND	ND	ND	ND	ND	ND	0
45211	2015-03-26T18:00:00	ND	ND	ND	ND	ND	ND	ND	ND	ND	ND	ND	0
45212	2015-03-26T19:00:00	ND	ND	ND	ND	ND	ND	ND	ND	ND	ND	ND	0
45213	2015-03-26T20:00:00	ND	ND	ND	ND	ND	ND	ND	ND	ND	ND	ND	0
45214	2015-03-26T21:00:00	ND	ND	ND	ND	ND	ND	ND	ND	ND	ND	ND	0
45215	2015-03-26T22:00:00	ND	ND	ND	ND	ND	ND	ND	ND	ND	ND	ND	0
45216	2015-03-26T23:00:00	ND	ND	ND	ND	ND	ND	ND	ND	ND	ND	ND	0
45217	2015-03-27T00:00:00	ND	ND	ND	ND	ND	ND	ND	ND	ND	ND	ND	0
45218	2015-03-27T01:00:00	ND	ND	ND	ND	ND	ND	ND	ND	ND	ND	ND	0
45219	2015-03-27T02:00:00	ND	ND	ND	ND	ND	ND	ND	ND	ND	ND	ND	0
45220	2015-03-27T03:00:00	ND	ND	ND	ND	ND	ND	ND	ND	ND	ND	ND	0
45221	2015-03-27T04:00:00	ND	ND	ND	ND	ND	ND	ND	ND	ND	ND	ND	0
45222	2015-03-27T05:00:00	ND	ND	ND	ND	ND	ND	ND	ND	ND	ND	ND	0
45223	2015-03-27T06:00:00	ND	ND	ND	ND	ND	ND	ND	ND	ND	ND	ND	0
45224	2015-03-27T07:00:00	ND	ND	ND	ND	ND	ND	ND	ND	ND	ND	ND	0
45225	2015-03-27T08:00:00	ND	ND	ND	ND	ND	ND	ND	ND	ND	ND	ND	0
45226	2015-03-27T09:00:00	ND	ND	ND	ND	ND	ND	ND	ND	ND	ND	ND	0
45227	2015-03-27T10:00:00	ND	ND	ND	ND	ND	ND	ND	ND	ND	ND	ND	0
45228	2015-03-27T11:00:00	ND	ND	ND	ND	ND	ND	ND	ND	ND	ND	ND	0
45229	2015-03-27T12:00:00	ND	ND	ND	ND	ND	ND	ND	ND	ND	ND	ND	0
45230	2015-03-27T13:00:00	ND	ND	ND	ND	ND	ND	ND	ND	ND	ND	ND	0
45231	2015-03-27T14:00:00	ND	ND	ND	ND	ND	ND	ND	ND	ND	ND	ND	0
45232	2015-03-27T15:00:00	ND	ND	ND	ND	ND	ND	ND	ND	ND	ND	ND	0
45233	2015-03-27T16:00:00	ND	ND	ND	ND	ND	ND	ND	ND	ND	ND	ND	0
45234	2015-03-27T17:00:00	ND	ND	ND	ND	ND	ND	ND	ND	ND	ND	ND	0
45235	2015-03-27T18:00:00	ND	ND	ND	ND	ND	ND	ND	ND	ND	ND	ND	0
45236	2015-03-27T19:00:00	ND	ND	ND	ND	ND	ND	ND	ND	ND	ND	ND	0
45237	2015-03-27T20:00:00	ND	ND	ND	ND	ND	ND	ND	ND	ND	ND	ND	0
45238	2015-03-27T21:00:00	ND	ND	ND	ND	ND	ND	ND	ND	ND	ND	ND	0
45239	2015-03-27T22:00:00	ND	ND	ND	ND	ND	ND	ND	ND	ND	ND	ND	0
45240	2015-03-27T23:00:00	ND	ND	ND	ND	ND	ND	ND	ND	ND	ND	ND	0
45241	2015-03-28T00:00:00	ND	ND	ND	ND	ND	ND	ND	ND	ND	ND	ND	0
45242	2015-03-28T01:00:00	ND	ND	ND	ND	ND	ND	ND	ND	ND	ND	ND	0
45243	2015-03-28T02:00:00	ND	ND	ND	ND	ND	ND	ND	ND	ND	ND	ND	0
45244	2015-03-28T03:00:00	ND	ND	ND	ND	ND	ND	ND	ND	ND	ND	ND	0
45245	2015-03-28T04:00:00	ND	ND	ND	ND	ND	ND	ND	ND	ND	ND	ND	0
45246	2015-03-28T05:00:00	ND	ND	ND	ND	ND	ND	ND	ND	ND	ND	ND	0
45247	2015-03-28T06:00:00	ND	ND	ND	ND	ND	ND	ND	ND	ND	ND	ND	0
45248	2015-03-28T07:00:00	ND	ND	ND	ND	ND	ND	ND	ND	ND	ND	ND	0
45249	2015-03-28T08:00:00	ND	ND	ND	ND	ND	ND	ND	ND	ND	ND	ND	0
45250	2015-03-28T09:00:00	ND	ND	ND	ND	ND	ND	ND	ND	ND	ND	ND	0
45251	2015-03-28T10:00:00	ND	ND	ND	ND	ND	ND	ND	ND	ND	ND	ND	0
45252	2015-03-28T11:00:00	ND	ND	ND	ND	ND	ND	ND	ND	ND	ND	ND	0
45253	2015-03-28T12:00:00	ND	ND	ND	ND	ND	ND	ND	ND	ND	ND	ND	0
45254	2015-03-28T13:00:00	ND	ND	ND	ND	ND	ND	ND	ND	ND	ND	ND	0
45255	2015-03-28T14:00:00	ND	ND	ND	ND	ND	ND	ND	ND	ND	ND	ND	0
45256	2015-03-28T15:00:00	ND	ND	ND	ND	ND	ND	ND	ND	ND	ND	ND	0
45257	2015-03-28T16:00:00	ND	ND	ND	ND	ND	ND	ND	ND	ND	ND	ND	0
45258	2015-03-28T17:00:00	ND	ND	ND	ND	ND	ND	ND	ND	ND	ND	ND	0
45259	2015-03-28T18:00:00	ND	ND	ND	ND	ND	ND	ND	ND	ND	ND	ND	0
45260	2015-03-28T19:00:00	ND	ND	ND	ND	ND	ND	ND	ND	ND	ND	ND	0
45261	2015-03-28T20:00:00	ND	ND	ND	ND	ND	ND	ND	ND	ND	ND	ND	0
45262	2015-03-28T21:00:00	ND	ND	ND	ND	ND	ND	ND	ND	ND	ND	ND	0
45263	2015-03-28T22:00:00	ND	ND	ND	ND	ND	ND	ND	ND	ND	ND	ND	0
45264	2015-03-28T23:00:00	ND	ND	ND	ND	ND	ND	ND	ND	ND	ND	ND	0
45265	2015-03-29T00:00:00	ND	ND	ND	ND	ND	ND	ND	ND	ND	ND	ND	0
45266	2015-03-29T01:00:00	ND	ND	ND	ND	ND	ND	ND	ND	ND	ND	ND	0
45267	2015-03-29T02:00:00	ND	ND	ND	ND	ND	ND	ND	ND	ND	ND	ND	0
45268	2015-03-29T03:00:00	ND	ND	ND	ND	ND	ND	ND	ND	ND	ND	ND	0
45269	2015-03-29T04:00:00	ND	ND	ND	ND	ND	ND	ND	ND	ND	ND	ND	0
45270	2015-03-29T05:00:00	ND	ND	ND	ND	ND	ND	ND	ND	ND	ND	ND	3.05
45271	2015-03-29T06:00:00	ND	ND	ND	ND	ND	ND	ND	ND	ND	ND	ND	1.52
45272	2015-03-29T07:00:00	ND	ND	ND	ND	ND	ND	ND	ND	ND	ND	ND	0.51
45273	2015-03-29T08:00:00	ND	ND	ND	ND	ND	ND	ND	ND	ND	ND	ND	0.76
45274	2015-03-29T09:00:00	ND	ND	ND	ND	ND	ND	ND	ND	ND	ND	ND	0.51
45275	2015-03-29T10:00:00	ND	ND	ND	ND	ND	ND	ND	ND	ND	ND	ND	0.51
45276	2015-03-29T11:00:00	ND	ND	ND	ND	ND	ND	ND	ND	ND	ND	ND	0.76
45277	2015-03-29T12:00:00	ND	ND	ND	ND	ND	ND	ND	ND	ND	ND	ND	0
45278	2015-03-29T13:00:00	ND	ND	ND	ND	ND	ND	ND	ND	ND	ND	ND	0.25
45279	2015-03-29T14:00:00	ND	ND	ND	ND	ND	ND	ND	ND	ND	ND	ND	0
45280	2015-03-29T15:00:00	ND	ND	ND	ND	ND	ND	ND	ND	ND	ND	ND	0
45281	2015-03-29T16:00:00	ND	ND	ND	ND	ND	ND	ND	ND	ND	ND	ND	0
45282	2015-03-29T17:00:00	ND	ND	ND	ND	ND	ND	ND	ND	ND	ND	ND	0
45283	2015-03-29T18:00:00	ND	ND	ND	ND	ND	ND	ND	ND	ND	ND	ND	0
45284	2015-03-29T19:00:00	ND	ND	ND	ND	ND	ND	ND	ND	ND	ND	ND	0
45285	2015-03-29T20:00:00	ND	ND	ND	ND	ND	ND	ND	ND	ND	ND	ND	0
45286	2015-03-29T21:00:00	ND	ND	ND	ND	ND	ND	ND	ND	ND	ND	ND	0
45287	2015-03-29T22:00:00	ND	ND	ND	ND	ND	ND	ND	ND	ND	ND	ND	0
45288	2015-03-29T23:00:00	ND	ND	ND	ND	ND	ND	ND	ND	ND	ND	ND	0
45289	2015-03-30T00:00:00	ND	ND	ND	ND	ND	ND	ND	ND	ND	ND	ND	0
45290	2015-03-30T01:00:00	ND	ND	ND	ND	ND	ND	ND	ND	ND	ND	ND	0
45291	2015-03-30T02:00:00	ND	ND	ND	ND	ND	ND	ND	ND	ND	ND	ND	0
45292	2015-03-30T03:00:00	ND	ND	ND	ND	ND	ND	ND	ND	ND	ND	ND	0
45293	2015-03-30T04:00:00	ND	ND	ND	ND	ND	ND	ND	ND	ND	ND	ND	0
45294	2015-03-30T05:00:00	ND	ND	ND	ND	ND	ND	ND	ND	ND	ND	ND	0
45295	2015-03-30T06:00:00	ND	ND	ND	ND	ND	ND	ND	ND	ND	ND	ND	0
45296	2015-03-30T07:00:00	ND	ND	ND	ND	ND	ND	ND	ND	ND	ND	ND	0
45297	2015-03-30T08:00:00	ND	ND	ND	ND	ND	ND	ND	ND	ND	ND	ND	0
45298	2015-03-30T09:00:00	ND	ND	ND	ND	ND	ND	ND	ND	ND	ND	ND	0
45299	2015-03-30T10:00:00	ND	ND	ND	ND	ND	ND	ND	ND	ND	ND	ND	0
45300	2015-03-30T11:00:00	ND	ND	ND	ND	ND	ND	ND	ND	ND	ND	ND	0
45301	2015-03-30T12:00:00	ND	ND	ND	ND	ND	ND	ND	ND	ND	ND	ND	0
45302	2015-03-30T13:00:00	ND	ND	ND	ND	ND	ND	ND	ND	ND	ND	ND	0
45303	2015-03-30T14:00:00	ND	ND	ND	ND	ND	ND	ND	ND	ND	ND	ND	0
45304	2015-03-30T15:00:00	ND	ND	ND	ND	ND	ND	ND	ND	ND	ND	ND	129.79
45305	2015-03-30T16:00:00	ND	ND	ND	ND	ND	ND	ND	ND	ND	ND	ND	2.03
45306	2015-03-30T17:00:00	ND	ND	ND	ND	ND	ND	ND	ND	ND	ND	ND	0.25
45307	2015-03-30T18:00:00	ND	ND	ND	ND	ND	ND	ND	ND	ND	ND	ND	0.76
45308	2015-03-30T19:00:00	ND	ND	ND	ND	ND	ND	ND	ND	ND	ND	ND	0
45309	2015-03-30T20:00:00	ND	ND	ND	ND	ND	ND	ND	ND	ND	ND	ND	0
45310	2015-03-30T21:00:00	ND	ND	ND	ND	ND	ND	ND	ND	ND	ND	ND	0
45311	2015-03-30T22:00:00	ND	ND	ND	ND	ND	ND	ND	ND	ND	ND	ND	0
45312	2015-03-30T23:00:00	ND	ND	ND	ND	ND	ND	ND	ND	ND	ND	ND	0
45313	2015-03-31T00:00:00	ND	ND	ND	ND	ND	ND	ND	ND	ND	ND	ND	0
45314	2015-03-31T01:00:00	ND	ND	ND	ND	ND	ND	ND	ND	ND	ND	ND	0
45315	2015-03-31T02:00:00	ND	ND	ND	ND	ND	ND	ND	ND	ND	ND	ND	0
45316	2015-03-31T03:00:00	ND	ND	ND	ND	ND	ND	ND	ND	ND	ND	ND	0
45317	2015-03-31T04:00:00	ND	ND	ND	ND	ND	ND	ND	ND	ND	ND	ND	0
45318	2015-03-31T05:00:00	ND	ND	ND	ND	ND	ND	ND	ND	ND	ND	ND	0
45319	2015-03-31T06:00:00	ND	ND	ND	ND	ND	ND	ND	ND	ND	ND	ND	0
45320	2015-03-31T07:00:00	ND	ND	ND	ND	ND	ND	ND	ND	ND	ND	ND	0
45321	2015-03-31T08:00:00	ND	ND	ND	ND	ND	ND	ND	ND	ND	ND	ND	0
45322	2015-03-31T09:00:00	ND	ND	ND	ND	ND	ND	ND	ND	ND	ND	ND	0
45323	2015-03-31T10:00:00	ND	ND	ND	ND	ND	ND	ND	ND	ND	ND	ND	0
45324	2015-03-31T11:00:00	ND	ND	ND	ND	ND	ND	ND	ND	ND	ND	ND	0
45325	2015-03-31T12:00:00	ND	ND	ND	ND	ND	ND	ND	ND	ND	ND	ND	0
45326	2015-03-31T13:00:00	ND	ND	ND	ND	ND	ND	ND	ND	ND	ND	ND	0
45327	2015-03-31T14:00:00	ND	ND	ND	ND	ND	ND	ND	ND	ND	ND	ND	0
45328	2015-03-31T15:00:00	ND	ND	ND	ND	ND	ND	ND	ND	ND	ND	ND	0
45329	2015-03-31T16:00:00	ND	ND	ND	ND	ND	ND	ND	ND	ND	ND	ND	0
45330	2015-03-31T17:00:00	ND	ND	ND	ND	ND	ND	ND	ND	ND	ND	ND	0
45331	2015-03-31T18:00:00	ND	ND	ND	ND	ND	ND	ND	ND	ND	ND	ND	0
45332	2015-03-31T19:00:00	ND	ND	ND	ND	ND	ND	ND	ND	ND	ND	ND	0
45333	2015-03-31T20:00:00	ND	ND	ND	ND	ND	ND	ND	ND	ND	ND	ND	0
45334	2015-03-31T21:00:00	ND	ND	ND	ND	ND	ND	ND	ND	ND	ND	ND	0
45335	2015-03-31T22:00:00	ND	ND	ND	ND	ND	ND	ND	ND	ND	ND	ND	0
45336	2015-03-31T23:00:00	ND	ND	ND	ND	ND	ND	ND	ND	ND	ND	ND	0
45337	2015-04-01T00:00:00	ND	ND	ND	ND	ND	ND	ND	ND	ND	ND	ND	0
45338	2015-04-01T01:00:00	ND	ND	ND	ND	ND	ND	ND	ND	ND	ND	ND	0
45339	2015-04-01T02:00:00	ND	ND	ND	ND	ND	ND	ND	ND	ND	ND	ND	0
45340	2015-04-01T03:00:00	ND	ND	ND	ND	ND	ND	ND	ND	ND	ND	ND	0
45341	2015-04-01T04:00:00	ND	ND	ND	ND	ND	ND	ND	ND	ND	ND	ND	0
45342	2015-04-01T05:00:00	ND	ND	ND	ND	ND	ND	ND	ND	ND	ND	ND	0
45343	2015-04-01T06:00:00	ND	ND	ND	ND	ND	ND	ND	ND	ND	ND	ND	0
45344	2015-04-01T07:00:00	ND	ND	ND	ND	ND	ND	ND	ND	ND	ND	ND	0
45345	2015-04-01T08:00:00	ND	ND	ND	ND	ND	ND	ND	ND	ND	ND	ND	0
45346	2015-04-01T09:00:00	ND	ND	ND	ND	ND	ND	ND	ND	ND	ND	ND	0
45347	2015-04-01T10:00:00	ND	ND	ND	ND	ND	ND	ND	ND	ND	ND	ND	0
45348	2015-04-01T11:00:00	ND	ND	ND	ND	ND	ND	ND	ND	ND	ND	ND	0
45349	2015-04-01T12:00:00	ND	ND	ND	ND	ND	ND	ND	ND	ND	ND	ND	0
45350	2015-04-01T13:00:00	ND	ND	ND	ND	ND	ND	ND	ND	ND	ND	ND	0
45351	2015-04-01T14:00:00	ND	ND	ND	ND	ND	ND	ND	ND	ND	ND	ND	0
45352	2015-04-01T15:00:00	ND	ND	ND	ND	ND	ND	ND	ND	ND	ND	ND	0
45353	2015-04-01T16:00:00	ND	ND	ND	ND	ND	ND	ND	ND	ND	ND	ND	0
45354	2015-04-01T17:00:00	ND	ND	ND	ND	ND	ND	ND	ND	ND	ND	ND	0
45355	2015-04-01T18:00:00	ND	ND	ND	ND	ND	ND	ND	ND	ND	ND	ND	0
45356	2015-04-01T19:00:00	ND	ND	ND	ND	ND	ND	ND	ND	ND	ND	ND	0
45357	2015-04-01T20:00:00	ND	ND	ND	ND	ND	ND	ND	ND	ND	ND	ND	0
45358	2015-04-01T21:00:00	ND	ND	ND	ND	ND	ND	ND	ND	ND	ND	ND	0
45359	2015-04-01T22:00:00	ND	ND	ND	ND	ND	ND	ND	ND	ND	ND	ND	0
45360	2015-04-01T23:00:00	ND	ND	ND	ND	ND	ND	ND	ND	ND	ND	ND	0
45361	2015-04-02T00:00:00	ND	ND	ND	ND	ND	ND	ND	ND	ND	ND	ND	0
45362	2015-04-02T01:00:00	ND	ND	ND	ND	ND	ND	ND	ND	ND	ND	ND	0
45363	2015-04-02T02:00:00	ND	ND	ND	ND	ND	ND	ND	ND	ND	ND	ND	0
45364	2015-04-02T03:00:00	ND	ND	ND	ND	ND	ND	ND	ND	ND	ND	ND	0
45365	2015-04-02T04:00:00	ND	ND	ND	ND	ND	ND	ND	ND	ND	ND	ND	0
45366	2015-04-02T05:00:00	ND	ND	ND	ND	ND	ND	ND	ND	ND	ND	ND	0
45367	2015-04-02T06:00:00	ND	ND	ND	ND	ND	ND	ND	ND	ND	ND	ND	0
45368	2015-04-02T07:00:00	ND	ND	ND	ND	ND	ND	ND	ND	ND	ND	ND	0
45369	2015-04-02T08:00:00	ND	ND	ND	ND	ND	ND	ND	ND	ND	ND	ND	0
45370	2015-04-02T09:00:00	ND	ND	ND	ND	ND	ND	ND	ND	ND	ND	ND	0
45371	2015-04-02T10:00:00	ND	ND	ND	ND	ND	ND	ND	ND	ND	ND	ND	0
45372	2015-04-02T11:00:00	ND	ND	ND	ND	ND	ND	ND	ND	ND	ND	ND	0
45373	2015-04-02T12:00:00	ND	ND	ND	ND	ND	ND	ND	ND	ND	ND	ND	0
45374	2015-04-02T13:00:00	ND	ND	ND	ND	ND	ND	ND	ND	ND	ND	ND	0
45375	2015-04-02T14:00:00	ND	ND	ND	ND	ND	ND	ND	ND	ND	ND	ND	0
45376	2015-04-02T15:00:00	ND	ND	ND	ND	ND	ND	ND	ND	ND	ND	ND	0
45377	2015-04-02T16:00:00	ND	ND	ND	ND	ND	ND	ND	ND	ND	ND	ND	0
45378	2015-04-02T17:00:00	ND	ND	ND	ND	ND	ND	ND	ND	ND	ND	ND	0
45379	2015-04-02T18:00:00	ND	ND	ND	ND	ND	ND	ND	ND	ND	ND	ND	0
45380	2015-04-02T19:00:00	ND	ND	ND	ND	ND	ND	ND	ND	ND	ND	ND	0
45381	2015-04-02T20:00:00	ND	ND	ND	ND	ND	ND	ND	ND	ND	ND	ND	0
45382	2015-04-02T21:00:00	ND	ND	ND	ND	ND	ND	ND	ND	ND	ND	ND	0
45383	2015-04-02T22:00:00	ND	ND	ND	ND	ND	ND	ND	ND	ND	ND	ND	0
45384	2015-04-02T23:00:00	ND	ND	ND	ND	ND	ND	ND	ND	ND	ND	ND	0
45385	2015-04-03T00:00:00	ND	ND	ND	ND	ND	ND	ND	ND	ND	ND	ND	0
45386	2015-04-03T01:00:00	ND	ND	ND	ND	ND	ND	ND	ND	ND	ND	ND	0
45387	2015-04-03T02:00:00	ND	ND	ND	ND	ND	ND	ND	ND	ND	ND	ND	0
45388	2015-04-03T03:00:00	ND	ND	ND	ND	ND	ND	ND	ND	ND	ND	ND	0
45389	2015-04-03T04:00:00	ND	ND	ND	ND	ND	ND	ND	ND	ND	ND	ND	0
45390	2015-04-03T05:00:00	ND	ND	ND	ND	ND	ND	ND	ND	ND	ND	ND	0
45391	2015-04-03T06:00:00	ND	ND	ND	ND	ND	ND	ND	ND	ND	ND	ND	0
45392	2015-04-03T07:00:00	ND	ND	ND	ND	ND	ND	ND	ND	ND	ND	ND	0
45393	2015-04-03T08:00:00	ND	ND	ND	ND	ND	ND	ND	ND	ND	ND	ND	0
45394	2015-04-03T09:00:00	ND	ND	ND	ND	ND	ND	ND	ND	ND	ND	ND	0
45395	2015-04-03T10:00:00	ND	ND	ND	ND	ND	ND	ND	ND	ND	ND	ND	0
45396	2015-04-03T11:00:00	ND	ND	ND	ND	ND	ND	ND	ND	ND	ND	ND	0
45397	2015-04-03T12:00:00	ND	ND	ND	ND	ND	ND	ND	ND	ND	ND	ND	0
45398	2015-04-03T13:00:00	ND	ND	ND	ND	ND	ND	ND	ND	ND	ND	ND	0
45399	2015-04-03T14:00:00	ND	ND	ND	ND	ND	ND	ND	ND	ND	ND	ND	0
45400	2015-04-03T15:00:00	ND	ND	ND	ND	ND	ND	ND	ND	ND	ND	ND	0
45401	2015-04-03T16:00:00	ND	ND	ND	ND	ND	ND	ND	ND	ND	ND	ND	0
45402	2015-04-03T17:00:00	ND	ND	ND	ND	ND	ND	ND	ND	ND	ND	ND	0
45403	2015-04-03T18:00:00	ND	ND	ND	ND	ND	ND	ND	ND	ND	ND	ND	0
45404	2015-04-03T19:00:00	ND	ND	ND	ND	ND	ND	ND	ND	ND	ND	ND	0.25
45405	2015-04-03T20:00:00	ND	ND	ND	ND	ND	ND	ND	ND	ND	ND	ND	1.78
45406	2015-04-03T21:00:00	ND	ND	ND	ND	ND	ND	ND	ND	ND	ND	ND	0.25
45407	2015-04-03T22:00:00	ND	ND	ND	ND	ND	ND	ND	ND	ND	ND	ND	0
45408	2015-04-03T23:00:00	ND	ND	ND	ND	ND	ND	ND	ND	ND	ND	ND	0
45409	2015-04-04T00:00:00	ND	ND	ND	ND	ND	ND	ND	ND	ND	ND	ND	0
45410	2015-04-04T01:00:00	ND	ND	ND	ND	ND	ND	ND	ND	ND	ND	ND	0
45411	2015-04-04T02:00:00	ND	ND	ND	ND	ND	ND	ND	ND	ND	ND	ND	0
45412	2015-04-04T03:00:00	ND	ND	ND	ND	ND	ND	ND	ND	ND	ND	ND	0
45413	2015-04-04T04:00:00	ND	ND	ND	ND	ND	ND	ND	ND	ND	ND	ND	0
45414	2015-04-04T05:00:00	ND	ND	ND	ND	ND	ND	ND	ND	ND	ND	ND	0
45415	2015-04-04T06:00:00	ND	ND	ND	ND	ND	ND	ND	ND	ND	ND	ND	0
45416	2015-04-04T07:00:00	ND	ND	ND	ND	ND	ND	ND	ND	ND	ND	ND	0
45417	2015-04-04T08:00:00	ND	ND	ND	ND	ND	ND	ND	ND	ND	ND	ND	0
45418	2015-04-04T09:00:00	ND	ND	ND	ND	ND	ND	ND	ND	ND	ND	ND	0
45419	2015-04-04T10:00:00	ND	ND	ND	ND	ND	ND	ND	ND	ND	ND	ND	0
45420	2015-04-04T11:00:00	ND	ND	ND	ND	ND	ND	ND	ND	ND	ND	ND	0
45421	2015-04-04T12:00:00	ND	ND	ND	ND	ND	ND	ND	ND	ND	ND	ND	0
45422	2015-04-04T13:00:00	ND	ND	ND	ND	ND	ND	ND	ND	ND	ND	ND	0
45423	2015-04-04T14:00:00	ND	ND	ND	ND	ND	ND	ND	ND	ND	ND	ND	0
45424	2015-04-04T15:00:00	ND	ND	ND	ND	ND	ND	ND	ND	ND	ND	ND	0
45425	2015-04-04T16:00:00	ND	ND	ND	ND	ND	ND	ND	ND	ND	ND	ND	0
45426	2015-04-04T17:00:00	ND	ND	ND	ND	ND	ND	ND	ND	ND	ND	ND	0
45427	2015-04-04T18:00:00	ND	ND	ND	ND	ND	ND	ND	ND	ND	ND	ND	0
45428	2015-04-04T19:00:00	ND	ND	ND	ND	ND	ND	ND	ND	ND	ND	ND	0
45429	2015-04-04T20:00:00	ND	ND	ND	ND	ND	ND	ND	ND	ND	ND	ND	0
45430	2015-04-04T21:00:00	ND	ND	ND	ND	ND	ND	ND	ND	ND	ND	ND	0
45431	2015-04-04T22:00:00	ND	ND	ND	ND	ND	ND	ND	ND	ND	ND	ND	0
45432	2015-04-04T23:00:00	ND	ND	ND	ND	ND	ND	ND	ND	ND	ND	ND	0
45433	2015-04-05T00:00:00	ND	ND	ND	ND	ND	ND	ND	ND	ND	ND	ND	0
45434	2015-04-05T01:00:00	ND	ND	ND	ND	ND	ND	ND	ND	ND	ND	ND	0
45435	2015-04-05T02:00:00	ND	ND	ND	ND	ND	ND	ND	ND	ND	ND	ND	0
45436	2015-04-05T03:00:00	ND	ND	ND	ND	ND	ND	ND	ND	ND	ND	ND	0
45437	2015-04-05T04:00:00	ND	ND	ND	ND	ND	ND	ND	ND	ND	ND	ND	0
45438	2015-04-05T05:00:00	ND	ND	ND	ND	ND	ND	ND	ND	ND	ND	ND	0
45439	2015-04-05T06:00:00	ND	ND	ND	ND	ND	ND	ND	ND	ND	ND	ND	0
45440	2015-04-05T07:00:00	ND	ND	ND	ND	ND	ND	ND	ND	ND	ND	ND	0
45441	2015-04-05T08:00:00	ND	ND	ND	ND	ND	ND	ND	ND	ND	ND	ND	0
45442	2015-04-05T09:00:00	ND	ND	ND	ND	ND	ND	ND	ND	ND	ND	ND	0
45443	2015-04-05T10:00:00	ND	ND	ND	ND	ND	ND	ND	ND	ND	ND	ND	0
45444	2015-04-05T11:00:00	ND	ND	ND	ND	ND	ND	ND	ND	ND	ND	ND	0
45445	2015-04-05T12:00:00	ND	ND	ND	ND	ND	ND	ND	ND	ND	ND	ND	0
45446	2015-04-05T13:00:00	ND	ND	ND	ND	ND	ND	ND	ND	ND	ND	ND	0
45447	2015-04-05T14:00:00	ND	ND	ND	ND	ND	ND	ND	ND	ND	ND	ND	0
45448	2015-04-05T15:00:00	ND	ND	ND	ND	ND	ND	ND	ND	ND	ND	ND	0
45449	2015-04-05T16:00:00	ND	ND	ND	ND	ND	ND	ND	ND	ND	ND	ND	0
45450	2015-04-05T17:00:00	ND	ND	ND	ND	ND	ND	ND	ND	ND	ND	ND	0
45451	2015-04-05T18:00:00	ND	ND	ND	ND	ND	ND	ND	ND	ND	ND	ND	0
45452	2015-04-05T19:00:00	ND	ND	ND	ND	ND	ND	ND	ND	ND	ND	ND	0
45453	2015-04-05T20:00:00	ND	ND	ND	ND	ND	ND	ND	ND	ND	ND	ND	0
45454	2015-04-05T21:00:00	ND	ND	ND	ND	ND	ND	ND	ND	ND	ND	ND	0
45455	2015-04-05T22:00:00	ND	ND	ND	ND	ND	ND	ND	ND	ND	ND	ND	0
45456	2015-04-05T23:00:00	ND	ND	ND	ND	ND	ND	ND	ND	ND	ND	ND	0
45457	2015-04-06T00:00:00	ND	ND	ND	ND	ND	ND	ND	ND	ND	ND	ND	0
45458	2015-04-06T01:00:00	ND	ND	ND	ND	ND	ND	ND	ND	ND	ND	ND	0
45459	2015-04-06T02:00:00	ND	ND	ND	ND	ND	ND	ND	ND	ND	ND	ND	0
45460	2015-04-06T03:00:00	ND	ND	ND	ND	ND	ND	ND	ND	ND	ND	ND	0
45461	2015-04-06T04:00:00	ND	ND	ND	ND	ND	ND	ND	ND	ND	ND	ND	0
45462	2015-04-06T05:00:00	ND	ND	ND	ND	ND	ND	ND	ND	ND	ND	ND	0
45463	2015-04-06T06:00:00	ND	ND	ND	ND	ND	ND	ND	ND	ND	ND	ND	0
45464	2015-04-06T07:00:00	ND	ND	ND	ND	ND	ND	ND	ND	ND	ND	ND	0
45465	2015-04-06T08:00:00	ND	ND	ND	ND	ND	ND	ND	ND	ND	ND	ND	0
45466	2015-04-06T09:00:00	ND	ND	ND	ND	ND	ND	ND	ND	ND	ND	ND	0
45467	2015-04-06T10:00:00	ND	ND	ND	ND	ND	ND	ND	ND	ND	ND	ND	0
45468	2015-04-06T11:00:00	ND	ND	ND	ND	ND	ND	ND	ND	ND	ND	ND	0
45469	2015-04-06T12:00:00	ND	ND	ND	ND	ND	ND	ND	ND	ND	ND	ND	0
45470	2015-04-06T13:00:00	ND	ND	ND	ND	ND	ND	ND	ND	ND	ND	ND	0
45471	2015-04-06T14:00:00	ND	ND	ND	ND	ND	ND	ND	ND	ND	ND	ND	0
45472	2015-04-06T15:00:00	ND	ND	ND	ND	ND	ND	ND	ND	ND	ND	ND	0
45473	2015-04-06T16:00:00	ND	ND	ND	ND	ND	ND	ND	ND	ND	ND	ND	0
45474	2015-04-06T17:00:00	ND	ND	ND	ND	ND	ND	ND	ND	ND	ND	ND	0
45475	2015-04-06T18:00:00	ND	ND	ND	ND	ND	ND	ND	ND	ND	ND	ND	0
45476	2015-04-06T19:00:00	ND	ND	ND	ND	ND	ND	ND	ND	ND	ND	ND	0
45477	2015-04-06T20:00:00	ND	ND	ND	ND	ND	ND	ND	ND	ND	ND	ND	0
45478	2015-04-06T21:00:00	ND	ND	ND	ND	ND	ND	ND	ND	ND	ND	ND	0
45479	2015-04-06T22:00:00	ND	ND	ND	ND	ND	ND	ND	ND	ND	ND	ND	0
45480	2015-04-06T23:00:00	ND	ND	ND	ND	ND	ND	ND	ND	ND	ND	ND	0
45481	2015-04-07T00:00:00	ND	ND	ND	ND	ND	ND	ND	ND	ND	ND	ND	0
45482	2015-04-07T01:00:00	ND	ND	ND	ND	ND	ND	ND	ND	ND	ND	ND	0
45483	2015-04-07T02:00:00	ND	ND	ND	ND	ND	ND	ND	ND	ND	ND	ND	0
45484	2015-04-07T03:00:00	ND	ND	ND	ND	ND	ND	ND	ND	ND	ND	ND	0
45485	2015-04-07T04:00:00	ND	ND	ND	ND	ND	ND	ND	ND	ND	ND	ND	0
45486	2015-04-07T05:00:00	ND	ND	ND	ND	ND	ND	ND	ND	ND	ND	ND	0
45487	2015-04-07T06:00:00	ND	ND	ND	ND	ND	ND	ND	ND	ND	ND	ND	0
45488	2015-04-07T07:00:00	ND	ND	ND	ND	ND	ND	ND	ND	ND	ND	ND	0
45489	2015-04-07T08:00:00	ND	ND	ND	ND	ND	ND	ND	ND	ND	ND	ND	0
45490	2015-04-07T09:00:00	ND	ND	ND	ND	ND	ND	ND	ND	ND	ND	ND	0
45491	2015-04-07T10:00:00	ND	ND	ND	ND	ND	ND	ND	ND	ND	ND	ND	0
45492	2015-04-07T11:00:00	ND	ND	ND	ND	ND	ND	ND	ND	ND	ND	ND	0
45493	2015-04-07T12:00:00	ND	ND	ND	ND	ND	ND	ND	ND	ND	ND	ND	0
45494	2015-04-07T13:00:00	ND	ND	ND	ND	ND	ND	ND	ND	ND	ND	ND	0
45495	2015-04-07T14:00:00	ND	ND	ND	ND	ND	ND	ND	ND	ND	ND	ND	0
45496	2015-04-07T15:00:00	ND	ND	ND	ND	ND	ND	ND	ND	ND	ND	ND	0
45497	2015-04-07T16:00:00	ND	ND	ND	ND	ND	ND	ND	ND	ND	ND	ND	0
45498	2015-04-07T17:00:00	ND	ND	ND	ND	ND	ND	ND	ND	ND	ND	ND	0
45499	2015-04-07T18:00:00	ND	ND	ND	ND	ND	ND	ND	ND	ND	ND	ND	0
45500	2015-04-07T19:00:00	ND	ND	ND	ND	ND	ND	ND	ND	ND	ND	ND	0
45501	2015-04-07T20:00:00	ND	ND	ND	ND	ND	ND	ND	ND	ND	ND	ND	10.92
45502	2015-04-07T21:00:00	ND	ND	ND	ND	ND	ND	ND	ND	ND	ND	ND	28.96
45503	2015-04-07T22:00:00	ND	ND	ND	ND	ND	ND	ND	ND	ND	ND	ND	0.51
45504	2015-04-07T23:00:00	ND	ND	ND	ND	ND	ND	ND	ND	ND	ND	ND	0
45505	2015-04-08T00:00:00	ND	ND	ND	ND	ND	ND	ND	ND	ND	ND	ND	0.25
45506	2015-04-08T01:00:00	ND	ND	ND	ND	ND	ND	ND	ND	ND	ND	ND	0
45507	2015-04-08T02:00:00	ND	ND	ND	ND	ND	ND	ND	ND	ND	ND	ND	0
45508	2015-04-08T03:00:00	ND	ND	ND	ND	ND	ND	ND	ND	ND	ND	ND	0
45509	2015-04-08T04:00:00	ND	ND	ND	ND	ND	ND	ND	ND	ND	ND	ND	0
45510	2015-04-08T05:00:00	ND	ND	ND	ND	ND	ND	ND	ND	ND	ND	ND	0
45511	2015-04-08T06:00:00	ND	ND	ND	ND	ND	ND	ND	ND	ND	ND	ND	0
45512	2015-04-08T07:00:00	ND	ND	ND	ND	ND	ND	ND	ND	ND	ND	ND	0
45513	2015-04-08T08:00:00	ND	ND	ND	ND	ND	ND	ND	ND	ND	ND	ND	0
45514	2015-04-08T09:00:00	ND	ND	ND	ND	ND	ND	ND	ND	ND	ND	ND	0
45515	2015-04-08T10:00:00	ND	ND	ND	ND	ND	ND	ND	ND	ND	ND	ND	0
45516	2015-04-08T11:00:00	ND	ND	ND	ND	ND	ND	ND	ND	ND	ND	ND	0
45517	2015-04-08T12:00:00	ND	ND	ND	ND	ND	ND	ND	ND	ND	ND	ND	0
45518	2015-04-08T13:00:00	ND	ND	ND	ND	ND	ND	ND	ND	ND	ND	ND	6.1
45519	2015-04-08T14:00:00	ND	ND	ND	ND	ND	ND	ND	ND	ND	ND	ND	21.59
45520	2015-04-08T15:00:00	ND	ND	ND	ND	ND	ND	ND	ND	ND	ND	ND	9.4
45521	2015-04-08T16:00:00	ND	ND	ND	ND	ND	ND	ND	ND	ND	ND	ND	0
45522	2015-04-08T17:00:00	ND	ND	ND	ND	ND	ND	ND	ND	ND	ND	ND	0
45523	2015-04-08T18:00:00	ND	ND	ND	ND	ND	ND	ND	ND	ND	ND	ND	0
45524	2015-04-08T19:00:00	ND	ND	ND	ND	ND	ND	ND	ND	ND	ND	ND	0
45525	2015-04-08T20:00:00	ND	ND	ND	ND	ND	ND	ND	ND	ND	ND	ND	0
45526	2015-04-08T21:00:00	ND	ND	ND	ND	ND	ND	ND	ND	ND	ND	ND	0
45527	2015-04-08T22:00:00	ND	ND	ND	ND	ND	ND	ND	ND	ND	ND	ND	0
45528	2015-04-08T23:00:00	ND	ND	ND	ND	ND	ND	ND	ND	ND	ND	ND	0
45529	2015-04-09T00:00:00	ND	ND	ND	ND	ND	ND	ND	ND	ND	ND	ND	0
45530	2015-04-09T01:00:00	ND	ND	ND	ND	ND	ND	ND	ND	ND	ND	ND	0
45531	2015-04-09T02:00:00	ND	ND	ND	ND	ND	ND	ND	ND	ND	ND	ND	0
45532	2015-04-09T03:00:00	ND	ND	ND	ND	ND	ND	ND	ND	ND	ND	ND	0
45533	2015-04-09T04:00:00	ND	ND	ND	ND	ND	ND	ND	ND	ND	ND	ND	0
45534	2015-04-09T05:00:00	ND	ND	ND	ND	ND	ND	ND	ND	ND	ND	ND	0
45535	2015-04-09T06:00:00	ND	ND	ND	ND	ND	ND	ND	ND	ND	ND	ND	0
45536	2015-04-09T07:00:00	ND	ND	ND	ND	ND	ND	ND	ND	ND	ND	ND	0
45537	2015-04-09T08:00:00	ND	ND	ND	ND	ND	ND	ND	ND	ND	ND	ND	0
45538	2015-04-09T09:00:00	ND	ND	ND	ND	ND	ND	ND	ND	ND	ND	ND	0
45539	2015-04-09T10:00:00	ND	ND	ND	ND	ND	ND	ND	ND	ND	ND	ND	0
45540	2015-04-09T11:00:00	ND	ND	ND	ND	ND	ND	ND	ND	ND	ND	ND	0
45541	2015-04-09T12:00:00	ND	ND	ND	ND	ND	ND	ND	ND	ND	ND	ND	0
45542	2015-04-09T13:00:00	ND	ND	ND	ND	ND	ND	ND	ND	ND	ND	ND	0
45543	2015-04-09T14:00:00	ND	ND	ND	ND	ND	ND	ND	ND	ND	ND	ND	0
45544	2015-04-09T15:00:00	ND	ND	ND	ND	ND	ND	ND	ND	ND	ND	ND	0
45545	2015-04-09T16:00:00	ND	ND	ND	ND	ND	ND	ND	ND	ND	ND	ND	0
45546	2015-04-09T17:00:00	ND	ND	ND	ND	ND	ND	ND	ND	ND	ND	ND	0
45547	2015-04-09T18:00:00	ND	ND	ND	ND	ND	ND	ND	ND	ND	ND	ND	0
45548	2015-04-09T19:00:00	ND	ND	ND	ND	ND	ND	ND	ND	ND	ND	ND	0
45549	2015-04-09T20:00:00	ND	ND	ND	ND	ND	ND	ND	ND	ND	ND	ND	0
45550	2015-04-09T21:00:00	ND	ND	ND	ND	ND	ND	ND	ND	ND	ND	ND	0
45551	2015-04-09T22:00:00	ND	ND	ND	ND	ND	ND	ND	ND	ND	ND	ND	0
45552	2015-04-09T23:00:00	ND	ND	ND	ND	ND	ND	ND	ND	ND	ND	ND	0
45553	2015-04-10T00:00:00	ND	ND	ND	ND	ND	ND	ND	ND	ND	ND	ND	0
45554	2015-04-10T01:00:00	ND	ND	ND	ND	ND	ND	ND	ND	ND	ND	ND	0
45555	2015-04-10T02:00:00	ND	ND	ND	ND	ND	ND	ND	ND	ND	ND	ND	0
45556	2015-04-10T03:00:00	ND	ND	ND	ND	ND	ND	ND	ND	ND	ND	ND	0
45557	2015-04-10T04:00:00	ND	ND	ND	ND	ND	ND	ND	ND	ND	ND	ND	0
45558	2015-04-10T05:00:00	ND	ND	ND	ND	ND	ND	ND	ND	ND	ND	ND	0
45559	2015-04-10T06:00:00	ND	ND	ND	ND	ND	ND	ND	ND	ND	ND	ND	0
45560	2015-04-10T07:00:00	ND	ND	ND	ND	ND	ND	ND	ND	ND	ND	ND	0
45561	2015-04-10T08:00:00	ND	ND	ND	ND	ND	ND	ND	ND	ND	ND	ND	0
45562	2015-04-10T09:00:00	ND	ND	ND	ND	ND	ND	ND	ND	ND	ND	ND	0
45563	2015-04-10T10:00:00	ND	ND	ND	ND	ND	ND	ND	ND	ND	ND	ND	0
45564	2015-04-10T11:00:00	ND	ND	ND	ND	ND	ND	ND	ND	ND	ND	ND	0
45565	2015-04-10T12:00:00	ND	ND	ND	ND	ND	ND	ND	ND	ND	ND	ND	0
45566	2015-04-10T13:00:00	ND	ND	ND	ND	ND	ND	ND	ND	ND	ND	ND	0
45567	2015-04-10T14:00:00	ND	ND	ND	ND	ND	ND	ND	ND	ND	ND	ND	0
45568	2015-04-10T15:00:00	ND	ND	ND	ND	ND	ND	ND	ND	ND	ND	ND	0
45569	2015-04-10T16:00:00	ND	ND	ND	ND	ND	ND	ND	ND	ND	ND	ND	0
45570	2015-04-10T17:00:00	ND	ND	ND	ND	ND	ND	ND	ND	ND	ND	ND	0
45571	2015-04-10T18:00:00	ND	ND	ND	ND	ND	ND	ND	ND	ND	ND	ND	0
45572	2015-04-10T19:00:00	ND	ND	ND	ND	ND	ND	ND	ND	ND	ND	ND	0
45573	2015-04-10T20:00:00	ND	ND	ND	ND	ND	ND	ND	ND	ND	ND	ND	0
45574	2015-04-10T21:00:00	ND	ND	ND	ND	ND	ND	ND	ND	ND	ND	ND	0
45575	2015-04-10T22:00:00	ND	ND	ND	ND	ND	ND	ND	ND	ND	ND	ND	0
45576	2015-04-10T23:00:00	ND	ND	ND	ND	ND	ND	ND	ND	ND	ND	ND	2.29
45577	2015-04-11T00:00:00	ND	ND	ND	ND	ND	ND	ND	ND	ND	ND	ND	3.3
45578	2015-04-11T01:00:00	ND	ND	ND	ND	ND	ND	ND	ND	ND	ND	ND	0
45579	2015-04-11T02:00:00	ND	ND	ND	ND	ND	ND	ND	ND	ND	ND	ND	0.25
45580	2015-04-11T03:00:00	ND	ND	ND	ND	ND	ND	ND	ND	ND	ND	ND	0
45581	2015-04-11T04:00:00	ND	ND	ND	ND	ND	ND	ND	ND	ND	ND	ND	0
45582	2015-04-11T05:00:00	ND	ND	ND	ND	ND	ND	ND	ND	ND	ND	ND	0
45583	2015-04-11T06:00:00	ND	ND	ND	ND	ND	ND	ND	ND	ND	ND	ND	0
45584	2015-04-11T07:00:00	ND	ND	ND	ND	ND	ND	ND	ND	ND	ND	ND	0
45585	2015-04-11T08:00:00	ND	ND	ND	ND	ND	ND	ND	ND	ND	ND	ND	0
45586	2015-04-11T09:00:00	ND	ND	ND	ND	ND	ND	ND	ND	ND	ND	ND	0
45587	2015-04-11T10:00:00	ND	ND	ND	ND	ND	ND	ND	ND	ND	ND	ND	0
45588	2015-04-11T11:00:00	ND	ND	ND	ND	ND	ND	ND	ND	ND	ND	ND	0
45589	2015-04-11T12:00:00	ND	ND	ND	ND	ND	ND	ND	ND	ND	ND	ND	0
45590	2015-04-11T13:00:00	ND	ND	ND	ND	ND	ND	ND	ND	ND	ND	ND	0
45591	2015-04-11T14:00:00	ND	ND	ND	ND	ND	ND	ND	ND	ND	ND	ND	0
45592	2015-04-11T15:00:00	ND	ND	ND	ND	ND	ND	ND	ND	ND	ND	ND	0
45593	2015-04-11T16:00:00	ND	ND	ND	ND	ND	ND	ND	ND	ND	ND	ND	0
45594	2015-04-11T17:00:00	ND	ND	ND	ND	ND	ND	ND	ND	ND	ND	ND	0
45595	2015-04-11T18:00:00	ND	ND	ND	ND	ND	ND	ND	ND	ND	ND	ND	0
45596	2015-04-11T19:00:00	ND	ND	ND	ND	ND	ND	ND	ND	ND	ND	ND	0
45597	2015-04-11T20:00:00	ND	ND	ND	ND	ND	ND	ND	ND	ND	ND	ND	0
45598	2015-04-11T21:00:00	ND	ND	ND	ND	ND	ND	ND	ND	ND	ND	ND	0
45599	2015-04-11T22:00:00	ND	ND	ND	ND	ND	ND	ND	ND	ND	ND	ND	0
45600	2015-04-11T23:00:00	ND	ND	ND	ND	ND	ND	ND	ND	ND	ND	ND	0
45601	2015-04-12T00:00:00	ND	ND	ND	ND	ND	ND	ND	ND	ND	ND	ND	0
45602	2015-04-12T01:00:00	ND	ND	ND	ND	ND	ND	ND	ND	ND	ND	ND	0
45603	2015-04-12T02:00:00	ND	ND	ND	ND	ND	ND	ND	ND	ND	ND	ND	0
45604	2015-04-12T03:00:00	ND	ND	ND	ND	ND	ND	ND	ND	ND	ND	ND	0
45605	2015-04-12T04:00:00	ND	ND	ND	ND	ND	ND	ND	ND	ND	ND	ND	0
45606	2015-04-12T05:00:00	ND	ND	ND	ND	ND	ND	ND	ND	ND	ND	ND	0
45607	2015-04-12T06:00:00	ND	ND	ND	ND	ND	ND	ND	ND	ND	ND	ND	0
45608	2015-04-12T07:00:00	ND	ND	ND	ND	ND	ND	ND	ND	ND	ND	ND	0
45609	2015-04-12T08:00:00	ND	ND	ND	ND	ND	ND	ND	ND	ND	ND	ND	0
45610	2015-04-12T09:00:00	ND	ND	ND	ND	ND	ND	ND	ND	ND	ND	ND	0
45611	2015-04-12T10:00:00	ND	ND	ND	ND	ND	ND	ND	ND	ND	ND	ND	0
45612	2015-04-12T11:00:00	ND	ND	ND	ND	ND	ND	ND	ND	ND	ND	ND	0
45613	2015-04-12T12:00:00	ND	ND	ND	ND	ND	ND	ND	ND	ND	ND	ND	0
45614	2015-04-12T13:00:00	ND	ND	ND	ND	ND	ND	ND	ND	ND	ND	ND	0
45615	2015-04-12T14:00:00	ND	ND	ND	ND	ND	ND	ND	ND	ND	ND	ND	0
45616	2015-04-12T15:00:00	ND	ND	ND	ND	ND	ND	ND	ND	ND	ND	ND	0
45617	2015-04-12T16:00:00	ND	ND	ND	ND	ND	ND	ND	ND	ND	ND	ND	0
45618	2015-04-12T17:00:00	ND	ND	ND	ND	ND	ND	ND	ND	ND	ND	ND	0
45619	2015-04-12T18:00:00	ND	ND	ND	ND	ND	ND	ND	ND	ND	ND	ND	0
45620	2015-04-12T19:00:00	ND	ND	ND	ND	ND	ND	ND	ND	ND	ND	ND	0
45621	2015-04-12T20:00:00	ND	ND	ND	ND	ND	ND	ND	ND	ND	ND	ND	0
45622	2015-04-12T21:00:00	ND	ND	ND	ND	ND	ND	ND	ND	ND	ND	ND	0
45623	2015-04-12T22:00:00	ND	ND	ND	ND	ND	ND	ND	ND	ND	ND	ND	0
45624	2015-04-12T23:00:00	ND	ND	ND	ND	ND	ND	ND	ND	ND	ND	ND	0
45625	2015-04-13T00:00:00	ND	ND	ND	ND	ND	ND	ND	ND	ND	ND	ND	0
45626	2015-04-13T01:00:00	ND	ND	ND	ND	ND	ND	ND	ND	ND	ND	ND	0
45627	2015-04-13T02:00:00	ND	ND	ND	ND	ND	ND	ND	ND	ND	ND	ND	0
45628	2015-04-13T03:00:00	ND	ND	ND	ND	ND	ND	ND	ND	ND	ND	ND	0
45629	2015-04-13T04:00:00	ND	ND	ND	ND	ND	ND	ND	ND	ND	ND	ND	0
45630	2015-04-13T05:00:00	ND	ND	ND	ND	ND	ND	ND	ND	ND	ND	ND	0
45631	2015-04-13T06:00:00	ND	ND	ND	ND	ND	ND	ND	ND	ND	ND	ND	0
45632	2015-04-13T07:00:00	ND	ND	ND	ND	ND	ND	ND	ND	ND	ND	ND	0
45633	2015-04-13T08:00:00	ND	ND	ND	ND	ND	ND	ND	ND	ND	ND	ND	0
45634	2015-04-13T09:00:00	ND	ND	ND	ND	ND	ND	ND	ND	ND	ND	ND	0
45635	2015-04-13T10:00:00	ND	ND	ND	ND	ND	ND	ND	ND	ND	ND	ND	0
45636	2015-04-13T11:00:00	ND	ND	ND	ND	ND	ND	ND	ND	ND	ND	ND	0
45637	2015-04-13T12:00:00	ND	ND	ND	ND	ND	ND	ND	ND	ND	ND	ND	0
45638	2015-04-13T13:00:00	ND	ND	ND	ND	ND	ND	ND	ND	ND	ND	ND	0
45639	2015-04-13T14:00:00	ND	ND	ND	ND	ND	ND	ND	ND	ND	ND	ND	0
45640	2015-04-13T15:00:00	ND	ND	ND	ND	ND	ND	ND	ND	ND	ND	ND	0
45641	2015-04-13T16:00:00	ND	ND	ND	ND	ND	ND	ND	ND	ND	ND	ND	0
45642	2015-04-13T17:00:00	ND	ND	ND	ND	ND	ND	ND	ND	ND	ND	ND	0
45643	2015-04-13T18:00:00	ND	ND	ND	ND	ND	ND	ND	ND	ND	ND	ND	0
45644	2015-04-13T19:00:00	ND	ND	ND	ND	ND	ND	ND	ND	ND	ND	ND	0
45645	2015-04-13T20:00:00	ND	ND	ND	ND	ND	ND	ND	ND	ND	ND	ND	0
45646	2015-04-13T21:00:00	ND	ND	ND	ND	ND	ND	ND	ND	ND	ND	ND	0
45647	2015-04-13T22:00:00	ND	ND	ND	ND	ND	ND	ND	ND	ND	ND	ND	0
45648	2015-04-13T23:00:00	ND	ND	ND	ND	ND	ND	ND	ND	ND	ND	ND	0
45649	2015-04-14T00:00:00	ND	ND	ND	ND	ND	ND	ND	ND	ND	ND	ND	0
45650	2015-04-14T01:00:00	ND	ND	ND	ND	ND	ND	ND	ND	ND	ND	ND	0
45651	2015-04-14T02:00:00	ND	ND	ND	ND	ND	ND	ND	ND	ND	ND	ND	0
45652	2015-04-14T03:00:00	ND	ND	ND	ND	ND	ND	ND	ND	ND	ND	ND	2.54
45653	2015-04-14T04:00:00	ND	ND	ND	ND	ND	ND	ND	ND	ND	ND	ND	1.52
45654	2015-04-14T05:00:00	ND	ND	ND	ND	ND	ND	ND	ND	ND	ND	ND	0
45655	2015-04-14T06:00:00	ND	ND	ND	ND	ND	ND	ND	ND	ND	ND	ND	0.51
45656	2015-04-14T07:00:00	ND	ND	ND	ND	ND	ND	ND	ND	ND	ND	ND	0
45657	2015-04-14T08:00:00	ND	ND	ND	ND	ND	ND	ND	ND	ND	ND	ND	0.25
45658	2015-04-14T09:00:00	ND	ND	ND	ND	ND	ND	ND	ND	ND	ND	ND	0
45659	2015-04-14T10:00:00	ND	ND	ND	ND	ND	ND	ND	ND	ND	ND	ND	0
45660	2015-04-14T11:00:00	ND	ND	ND	ND	ND	ND	ND	ND	ND	ND	ND	0
45661	2015-04-14T12:00:00	ND	ND	ND	ND	ND	ND	ND	ND	ND	ND	ND	ND
45662	2015-04-14T13:00:00	ND	ND	ND	ND	ND	ND	ND	ND	ND	ND	ND	0
45663	2015-04-14T14:00:00	ND	ND	ND	ND	ND	ND	ND	ND	ND	ND	ND	0
45664	2015-04-14T15:00:00	ND	ND	ND	ND	ND	ND	ND	ND	ND	ND	ND	0
45665	2015-04-14T16:00:00	ND	ND	ND	ND	ND	ND	ND	ND	ND	ND	ND	0
45666	2015-04-14T17:00:00	ND	ND	ND	ND	ND	ND	ND	ND	ND	ND	ND	0
45667	2015-04-14T18:00:00	ND	ND	ND	ND	ND	ND	ND	ND	ND	ND	ND	0
45668	2015-04-14T19:00:00	ND	ND	ND	ND	ND	ND	ND	ND	ND	ND	ND	0
45669	2015-04-14T20:00:00	ND	ND	ND	ND	ND	ND	ND	ND	ND	ND	ND	0
45670	2015-04-14T21:00:00	ND	ND	ND	ND	ND	ND	ND	ND	ND	ND	ND	0
45671	2015-04-14T22:00:00	ND	ND	ND	ND	ND	ND	ND	ND	ND	ND	ND	0
45672	2015-04-14T23:00:00	ND	ND	ND	ND	ND	ND	ND	ND	ND	ND	ND	0
45673	2015-04-15T00:00:00	ND	ND	ND	ND	ND	ND	ND	ND	ND	ND	ND	0
45674	2015-04-15T01:00:00	ND	ND	ND	ND	ND	ND	ND	ND	ND	ND	ND	0
45675	2015-04-15T02:00:00	ND	ND	ND	ND	ND	ND	ND	ND	ND	ND	ND	0
45676	2015-04-15T03:00:00	ND	ND	ND	ND	ND	ND	ND	ND	ND	ND	ND	0
45677	2015-04-15T04:00:00	ND	ND	ND	ND	ND	ND	ND	ND	ND	ND	ND	0
45678	2015-04-15T05:00:00	ND	ND	ND	ND	ND	ND	ND	ND	ND	ND	ND	0
45679	2015-04-15T06:00:00	ND	ND	ND	ND	ND	ND	ND	ND	ND	ND	ND	0
45680	2015-04-15T07:00:00	ND	ND	ND	ND	ND	ND	ND	ND	ND	ND	ND	0
45681	2015-04-15T08:00:00	ND	ND	ND	ND	ND	ND	ND	ND	ND	ND	ND	0
45682	2015-04-15T09:00:00	ND	ND	ND	ND	ND	ND	ND	ND	ND	ND	ND	0
45683	2015-04-15T10:00:00	ND	ND	ND	ND	ND	ND	ND	ND	ND	ND	ND	0
45684	2015-04-15T11:00:00	ND	ND	ND	ND	ND	ND	ND	ND	ND	ND	ND	0
45685	2015-04-15T12:00:00	ND	ND	ND	ND	ND	ND	ND	ND	ND	ND	ND	0
45686	2015-04-15T13:00:00	ND	ND	ND	ND	ND	ND	ND	ND	ND	ND	ND	0
45687	2015-04-15T14:00:00	ND	ND	ND	ND	ND	ND	ND	ND	ND	ND	ND	0
45688	2015-04-15T15:00:00	ND	ND	ND	ND	ND	ND	ND	ND	ND	ND	ND	0
45689	2015-04-15T16:00:00	ND	ND	ND	ND	ND	ND	ND	ND	ND	ND	ND	0
45690	2015-04-15T17:00:00	ND	ND	ND	ND	ND	ND	ND	ND	ND	ND	ND	0
45691	2015-04-15T18:00:00	ND	ND	ND	ND	ND	ND	ND	ND	ND	ND	ND	0
45692	2015-04-15T19:00:00	ND	ND	ND	ND	ND	ND	ND	ND	ND	ND	ND	8.13
45693	2015-04-15T20:00:00	ND	ND	ND	ND	ND	ND	ND	ND	ND	ND	ND	4.83
45694	2015-04-15T21:00:00	ND	ND	ND	ND	ND	ND	ND	ND	ND	ND	ND	0.51
45695	2015-04-15T22:00:00	ND	ND	ND	ND	ND	ND	ND	ND	ND	ND	ND	0.25
45696	2015-04-15T23:00:00	ND	ND	ND	ND	ND	ND	ND	ND	ND	ND	ND	0
45697	2015-04-16T00:00:00	ND	ND	ND	ND	ND	ND	ND	ND	ND	ND	ND	50.55
45698	2015-04-16T01:00:00	ND	ND	ND	ND	ND	ND	ND	ND	ND	ND	ND	14.99
45699	2015-04-16T02:00:00	ND	ND	ND	ND	ND	ND	ND	ND	ND	ND	ND	3.3
45700	2015-04-16T03:00:00	ND	ND	ND	ND	ND	ND	ND	ND	ND	ND	ND	1.52
45701	2015-04-16T04:00:00	ND	ND	ND	ND	ND	ND	ND	ND	ND	ND	ND	0.51
45702	2015-04-16T05:00:00	ND	ND	ND	ND	ND	ND	ND	ND	ND	ND	ND	1.02
45703	2015-04-16T06:00:00	ND	ND	ND	ND	ND	ND	ND	ND	ND	ND	ND	0
45704	2015-04-16T07:00:00	ND	ND	ND	ND	ND	ND	ND	ND	ND	ND	ND	0.25
45705	2015-04-16T08:00:00	ND	ND	ND	ND	ND	ND	ND	ND	ND	ND	ND	0.25
45706	2015-04-16T09:00:00	ND	ND	ND	ND	ND	ND	ND	ND	ND	ND	ND	0
45707	2015-04-16T10:00:00	ND	ND	ND	ND	ND	ND	ND	ND	ND	ND	ND	0
45708	2015-04-16T11:00:00	ND	ND	ND	ND	ND	ND	ND	ND	ND	ND	ND	0
45709	2015-04-16T12:00:00	ND	ND	ND	ND	ND	ND	ND	ND	ND	ND	ND	0
45710	2015-04-16T13:00:00	ND	ND	ND	ND	ND	ND	ND	ND	ND	ND	ND	0
45711	2015-04-16T14:00:00	ND	ND	ND	ND	ND	ND	ND	ND	ND	ND	ND	0
45712	2015-04-16T15:00:00	ND	ND	ND	ND	ND	ND	ND	ND	ND	ND	ND	0
45713	2015-04-16T16:00:00	ND	ND	ND	ND	ND	ND	ND	ND	ND	ND	ND	0
45714	2015-04-16T17:00:00	ND	ND	ND	ND	ND	ND	ND	ND	ND	ND	ND	0
45715	2015-04-16T18:00:00	ND	ND	ND	ND	ND	ND	ND	ND	ND	ND	ND	0
45716	2015-04-16T19:00:00	ND	ND	ND	ND	ND	ND	ND	ND	ND	ND	ND	0
45717	2015-04-16T20:00:00	ND	ND	ND	ND	ND	ND	ND	ND	ND	ND	ND	0
45718	2015-04-16T21:00:00	ND	ND	ND	ND	ND	ND	ND	ND	ND	ND	ND	0
45719	2015-04-16T22:00:00	ND	ND	ND	ND	ND	ND	ND	ND	ND	ND	ND	0
45720	2015-04-16T23:00:00	ND	ND	ND	ND	ND	ND	ND	ND	ND	ND	ND	0
45721	2015-04-17T00:00:00	ND	ND	ND	ND	ND	ND	ND	ND	ND	ND	ND	12.7
45722	2015-04-17T01:00:00	ND	ND	ND	ND	ND	ND	ND	ND	ND	ND	ND	0.25
45723	2015-04-17T02:00:00	ND	ND	ND	ND	ND	ND	ND	ND	ND	ND	ND	0.25
45724	2015-04-17T03:00:00	ND	ND	ND	ND	ND	ND	ND	ND	ND	ND	ND	31.24
45725	2015-04-17T04:00:00	ND	ND	ND	ND	ND	ND	ND	ND	ND	ND	ND	33.27
45726	2015-04-17T05:00:00	ND	ND	ND	ND	ND	ND	ND	ND	ND	ND	ND	15.49
45727	2015-04-17T06:00:00	ND	ND	ND	ND	ND	ND	ND	ND	ND	ND	ND	2.29
45728	2015-04-17T07:00:00	ND	ND	ND	ND	ND	ND	ND	ND	ND	ND	ND	0.76
45729	2015-04-17T08:00:00	ND	ND	ND	ND	ND	ND	ND	ND	ND	ND	ND	0.76
45730	2015-04-17T09:00:00	ND	ND	ND	ND	ND	ND	ND	ND	ND	ND	ND	0.25
45731	2015-04-17T10:00:00	ND	ND	ND	ND	ND	ND	ND	ND	ND	ND	ND	0
45732	2015-04-17T11:00:00	ND	ND	ND	ND	ND	ND	ND	ND	ND	ND	ND	0
45733	2015-04-17T12:00:00	ND	ND	ND	ND	ND	ND	ND	ND	ND	ND	ND	0
45734	2015-04-17T13:00:00	ND	ND	ND	ND	ND	ND	ND	ND	ND	ND	ND	0
45735	2015-04-17T14:00:00	ND	ND	ND	ND	ND	ND	ND	ND	ND	ND	ND	0
45736	2015-04-17T15:00:00	ND	ND	ND	ND	ND	ND	ND	ND	ND	ND	ND	0
45737	2015-04-17T16:00:00	ND	ND	ND	ND	ND	ND	ND	ND	ND	ND	ND	0
45738	2015-04-17T17:00:00	ND	ND	ND	ND	ND	ND	ND	ND	ND	ND	ND	0
45739	2015-04-17T18:00:00	ND	ND	ND	ND	ND	ND	ND	ND	ND	ND	ND	0
45740	2015-04-17T19:00:00	ND	ND	ND	ND	ND	ND	ND	ND	ND	ND	ND	0
45741	2015-04-17T20:00:00	ND	ND	ND	ND	ND	ND	ND	ND	ND	ND	ND	0
45742	2015-04-17T21:00:00	ND	ND	ND	ND	ND	ND	ND	ND	ND	ND	ND	0
45743	2015-04-17T22:00:00	ND	ND	ND	ND	ND	ND	ND	ND	ND	ND	ND	0
45744	2015-04-17T23:00:00	ND	ND	ND	ND	ND	ND	ND	ND	ND	ND	ND	0
45745	2015-04-18T00:00:00	ND	ND	ND	ND	ND	ND	ND	ND	ND	ND	ND	0
45746	2015-04-18T01:00:00	ND	ND	ND	ND	ND	ND	ND	ND	ND	ND	ND	0
45747	2015-04-18T02:00:00	ND	ND	ND	ND	ND	ND	ND	ND	ND	ND	ND	0
45748	2015-04-18T03:00:00	ND	ND	ND	ND	ND	ND	ND	ND	ND	ND	ND	0
45749	2015-04-18T04:00:00	ND	ND	ND	ND	ND	ND	ND	ND	ND	ND	ND	0
45750	2015-04-18T05:00:00	ND	ND	ND	ND	ND	ND	ND	ND	ND	ND	ND	0
45751	2015-04-18T06:00:00	ND	ND	ND	ND	ND	ND	ND	ND	ND	ND	ND	0
45752	2015-04-18T07:00:00	ND	ND	ND	ND	ND	ND	ND	ND	ND	ND	ND	0
45753	2015-04-18T08:00:00	ND	ND	ND	ND	ND	ND	ND	ND	ND	ND	ND	0
45754	2015-04-18T09:00:00	ND	ND	ND	ND	ND	ND	ND	ND	ND	ND	ND	0
45755	2015-04-18T10:00:00	ND	ND	ND	ND	ND	ND	ND	ND	ND	ND	ND	0
45756	2015-04-18T11:00:00	ND	ND	ND	ND	ND	ND	ND	ND	ND	ND	ND	0
45757	2015-04-18T12:00:00	ND	ND	ND	ND	ND	ND	ND	ND	ND	ND	ND	0
45758	2015-04-18T13:00:00	ND	ND	ND	ND	ND	ND	ND	ND	ND	ND	ND	0
45759	2015-04-18T14:00:00	ND	ND	ND	ND	ND	ND	ND	ND	ND	ND	ND	0
45760	2015-04-18T15:00:00	ND	ND	ND	ND	ND	ND	ND	ND	ND	ND	ND	0
45761	2015-04-18T16:00:00	ND	ND	ND	ND	ND	ND	ND	ND	ND	ND	ND	0
45762	2015-04-18T17:00:00	ND	ND	ND	ND	ND	ND	ND	ND	ND	ND	ND	0
45763	2015-04-18T18:00:00	ND	ND	ND	ND	ND	ND	ND	ND	ND	ND	ND	0
45764	2015-04-18T19:00:00	ND	ND	ND	ND	ND	ND	ND	ND	ND	ND	ND	0
45765	2015-04-18T20:00:00	ND	ND	ND	ND	ND	ND	ND	ND	ND	ND	ND	0
45766	2015-04-18T21:00:00	ND	ND	ND	ND	ND	ND	ND	ND	ND	ND	ND	0
45767	2015-04-18T22:00:00	ND	ND	ND	ND	ND	ND	ND	ND	ND	ND	ND	0
45768	2015-04-18T23:00:00	ND	ND	ND	ND	ND	ND	ND	ND	ND	ND	ND	0
45769	2015-04-19T00:00:00	ND	ND	ND	ND	ND	ND	ND	ND	ND	ND	ND	0
45770	2015-04-19T01:00:00	ND	ND	ND	ND	ND	ND	ND	ND	ND	ND	ND	18.29
45771	2015-04-19T02:00:00	ND	ND	ND	ND	ND	ND	ND	ND	ND	ND	ND	7.62
45772	2015-04-19T03:00:00	ND	ND	ND	ND	ND	ND	ND	ND	ND	ND	ND	6.1
45773	2015-04-19T04:00:00	ND	ND	ND	ND	ND	ND	ND	ND	ND	ND	ND	7.62
45774	2015-04-19T05:00:00	ND	ND	ND	ND	ND	ND	ND	ND	ND	ND	ND	8.64
45775	2015-04-19T06:00:00	ND	ND	ND	ND	ND	ND	ND	ND	ND	ND	ND	4.57
45776	2015-04-19T07:00:00	ND	ND	ND	ND	ND	ND	ND	ND	ND	ND	ND	1.27
45777	2015-04-19T08:00:00	ND	ND	ND	ND	ND	ND	ND	ND	ND	ND	ND	0.25
45778	2015-04-19T09:00:00	ND	ND	ND	ND	ND	ND	ND	ND	ND	ND	ND	0.25
45779	2015-04-19T10:00:00	ND	ND	ND	ND	ND	ND	ND	ND	ND	ND	ND	0
45780	2015-04-19T11:00:00	ND	ND	ND	ND	ND	ND	ND	ND	ND	ND	ND	0
45781	2015-04-19T12:00:00	ND	ND	ND	ND	ND	ND	ND	ND	ND	ND	ND	0
45782	2015-04-19T13:00:00	ND	ND	ND	ND	ND	ND	ND	ND	ND	ND	ND	0
45783	2015-04-19T14:00:00	ND	ND	ND	ND	ND	ND	ND	ND	ND	ND	ND	0
45784	2015-04-19T15:00:00	ND	ND	ND	ND	ND	ND	ND	ND	ND	ND	ND	0
45785	2015-04-19T16:00:00	ND	ND	ND	ND	ND	ND	ND	ND	ND	ND	ND	0
45786	2015-04-19T17:00:00	ND	ND	ND	ND	ND	ND	ND	ND	ND	ND	ND	0
45787	2015-04-19T18:00:00	ND	ND	ND	ND	ND	ND	ND	ND	ND	ND	ND	0
45788	2015-04-19T19:00:00	ND	ND	ND	ND	ND	ND	ND	ND	ND	ND	ND	0
45789	2015-04-19T20:00:00	ND	ND	ND	ND	ND	ND	ND	ND	ND	ND	ND	0
45790	2015-04-19T21:00:00	ND	ND	ND	ND	ND	ND	ND	ND	ND	ND	ND	0
45791	2015-04-19T22:00:00	ND	ND	ND	ND	ND	ND	ND	ND	ND	ND	ND	0
45792	2015-04-19T23:00:00	ND	ND	ND	ND	ND	ND	ND	ND	ND	ND	ND	0
45793	2015-04-20T00:00:00	ND	ND	ND	ND	ND	ND	ND	ND	ND	ND	ND	0
45794	2015-04-20T01:00:00	ND	ND	ND	ND	ND	ND	ND	ND	ND	ND	ND	0
45795	2015-04-20T02:00:00	ND	ND	ND	ND	ND	ND	ND	ND	ND	ND	ND	0
45796	2015-04-20T03:00:00	ND	ND	ND	ND	ND	ND	ND	ND	ND	ND	ND	0
45797	2015-04-20T04:00:00	ND	ND	ND	ND	ND	ND	ND	ND	ND	ND	ND	0
45798	2015-04-20T05:00:00	ND	ND	ND	ND	ND	ND	ND	ND	ND	ND	ND	0
45799	2015-04-20T06:00:00	ND	ND	ND	ND	ND	ND	ND	ND	ND	ND	ND	0
45800	2015-04-20T07:00:00	ND	ND	ND	ND	ND	ND	ND	ND	ND	ND	ND	0
45801	2015-04-20T08:00:00	ND	ND	ND	ND	ND	ND	ND	ND	ND	ND	ND	0
45802	2015-04-20T09:00:00	ND	ND	ND	ND	ND	ND	ND	ND	ND	ND	ND	0
45803	2015-04-20T10:00:00	ND	ND	ND	ND	ND	ND	ND	ND	ND	ND	ND	0
45804	2015-04-20T11:00:00	ND	ND	ND	ND	ND	ND	ND	ND	ND	ND	ND	0
45805	2015-04-20T12:00:00	ND	ND	ND	ND	ND	ND	ND	ND	ND	ND	ND	0
45806	2015-04-20T13:00:00	ND	ND	ND	ND	ND	ND	ND	ND	ND	ND	ND	0
45807	2015-04-20T14:00:00	ND	ND	ND	ND	ND	ND	ND	ND	ND	ND	ND	0
45808	2015-04-20T15:00:00	ND	ND	ND	ND	ND	ND	ND	ND	ND	ND	ND	0
45809	2015-04-20T16:00:00	ND	ND	ND	ND	ND	ND	ND	ND	ND	ND	ND	0
45810	2015-04-20T17:00:00	ND	ND	ND	ND	ND	ND	ND	ND	ND	ND	ND	0
45811	2015-04-20T18:00:00	ND	ND	ND	ND	ND	ND	ND	ND	ND	ND	ND	0
45812	2015-04-20T19:00:00	ND	ND	ND	ND	ND	ND	ND	ND	ND	ND	ND	0
45813	2015-04-20T20:00:00	ND	ND	ND	ND	ND	ND	ND	ND	ND	ND	ND	9.4
45814	2015-04-20T21:00:00	ND	ND	ND	ND	ND	ND	ND	ND	ND	ND	ND	3.56
45815	2015-04-20T22:00:00	ND	ND	ND	ND	ND	ND	ND	ND	ND	ND	ND	3.81
45816	2015-04-20T23:00:00	ND	ND	ND	ND	ND	ND	ND	ND	ND	ND	ND	8.89
45817	2015-04-21T00:00:00	ND	ND	ND	ND	ND	ND	ND	ND	ND	ND	ND	0.51
45818	2015-04-21T01:00:00	ND	ND	ND	ND	ND	ND	ND	ND	ND	ND	ND	1.02
45819	2015-04-21T02:00:00	ND	ND	ND	ND	ND	ND	ND	ND	ND	ND	ND	0.25
45820	2015-04-21T03:00:00	ND	ND	ND	ND	ND	ND	ND	ND	ND	ND	ND	0.25
45821	2015-04-21T04:00:00	ND	ND	ND	ND	ND	ND	ND	ND	ND	ND	ND	0
45822	2015-04-21T05:00:00	ND	ND	ND	ND	ND	ND	ND	ND	ND	ND	ND	0
45823	2015-04-21T06:00:00	ND	ND	ND	ND	ND	ND	ND	ND	ND	ND	ND	0
45824	2015-04-21T07:00:00	ND	ND	ND	ND	ND	ND	ND	ND	ND	ND	ND	0
45825	2015-04-21T08:00:00	ND	ND	ND	ND	ND	ND	ND	ND	ND	ND	ND	0
45826	2015-04-21T09:00:00	ND	ND	ND	ND	ND	ND	ND	ND	ND	ND	ND	0
45827	2015-04-21T10:00:00	ND	ND	ND	ND	ND	ND	ND	ND	ND	ND	ND	0
45828	2015-04-21T11:00:00	ND	ND	ND	ND	ND	ND	ND	ND	ND	ND	ND	0
45829	2015-04-21T12:00:00	ND	ND	ND	ND	ND	ND	ND	ND	ND	ND	ND	0
45830	2015-04-21T13:00:00	ND	ND	ND	ND	ND	ND	ND	ND	ND	ND	ND	0
45831	2015-04-21T14:00:00	ND	ND	ND	ND	ND	ND	ND	ND	ND	ND	ND	0
45832	2015-04-21T15:00:00	ND	ND	ND	ND	ND	ND	ND	ND	ND	ND	ND	0
45833	2015-04-21T16:00:00	ND	ND	ND	ND	ND	ND	ND	ND	ND	ND	ND	0
45834	2015-04-21T17:00:00	ND	ND	ND	ND	ND	ND	ND	ND	ND	ND	ND	0
45835	2015-04-21T18:00:00	ND	ND	ND	ND	ND	ND	ND	ND	ND	ND	ND	0
45836	2015-04-21T19:00:00	ND	ND	ND	ND	ND	ND	ND	ND	ND	ND	ND	0
45837	2015-04-21T20:00:00	ND	ND	ND	ND	ND	ND	ND	ND	ND	ND	ND	0
45838	2015-04-21T21:00:00	ND	ND	ND	ND	ND	ND	ND	ND	ND	ND	ND	0
45839	2015-04-21T22:00:00	ND	ND	ND	ND	ND	ND	ND	ND	ND	ND	ND	0
45840	2015-04-21T23:00:00	ND	ND	ND	ND	ND	ND	ND	ND	ND	ND	ND	0
45841	2015-04-22T00:00:00	ND	ND	ND	ND	ND	ND	ND	ND	ND	ND	ND	0
45842	2015-04-22T01:00:00	ND	ND	ND	ND	ND	ND	ND	ND	ND	ND	ND	0
45843	2015-04-22T02:00:00	ND	ND	ND	ND	ND	ND	ND	ND	ND	ND	ND	0
45844	2015-04-22T03:00:00	ND	ND	ND	ND	ND	ND	ND	ND	ND	ND	ND	0
45845	2015-04-22T04:00:00	ND	ND	ND	ND	ND	ND	ND	ND	ND	ND	ND	0
45846	2015-04-22T05:00:00	ND	ND	ND	ND	ND	ND	ND	ND	ND	ND	ND	0
45847	2015-04-22T06:00:00	ND	ND	ND	ND	ND	ND	ND	ND	ND	ND	ND	0
45848	2015-04-22T07:00:00	ND	ND	ND	ND	ND	ND	ND	ND	ND	ND	ND	0
45849	2015-04-22T08:00:00	ND	ND	ND	ND	ND	ND	ND	ND	ND	ND	ND	0
45850	2015-04-22T09:00:00	ND	ND	ND	ND	ND	ND	ND	ND	ND	ND	ND	0
45851	2015-04-22T10:00:00	ND	ND	ND	ND	ND	ND	ND	ND	ND	ND	ND	0
45852	2015-04-22T11:00:00	ND	ND	ND	ND	ND	ND	ND	ND	ND	ND	ND	0
45853	2015-04-22T12:00:00	ND	ND	ND	ND	ND	ND	ND	ND	ND	ND	ND	0
45854	2015-04-22T13:00:00	ND	ND	ND	ND	ND	ND	ND	ND	ND	ND	ND	0
45855	2015-04-22T14:00:00	ND	ND	ND	ND	ND	ND	ND	ND	ND	ND	ND	0
45856	2015-04-22T15:00:00	ND	ND	ND	ND	ND	ND	ND	ND	ND	ND	ND	0
45857	2015-04-22T16:00:00	ND	ND	ND	ND	ND	ND	ND	ND	ND	ND	ND	0
45858	2015-04-22T17:00:00	ND	ND	ND	ND	ND	ND	ND	ND	ND	ND	ND	0
45859	2015-04-22T18:00:00	ND	ND	ND	ND	ND	ND	ND	ND	ND	ND	ND	0
45860	2015-04-22T19:00:00	ND	ND	ND	ND	ND	ND	ND	ND	ND	ND	ND	0
45861	2015-04-22T20:00:00	ND	ND	ND	ND	ND	ND	ND	ND	ND	ND	ND	0
45862	2015-04-22T21:00:00	ND	ND	ND	ND	ND	ND	ND	ND	ND	ND	ND	0
45863	2015-04-22T22:00:00	ND	ND	ND	ND	ND	ND	ND	ND	ND	ND	ND	0
45864	2015-04-22T23:00:00	ND	ND	ND	ND	ND	ND	ND	ND	ND	ND	ND	0
45865	2015-04-23T00:00:00	ND	ND	ND	ND	ND	ND	ND	ND	ND	ND	ND	0
45866	2015-04-23T01:00:00	ND	ND	ND	ND	ND	ND	ND	ND	ND	ND	ND	0
45867	2015-04-23T02:00:00	ND	ND	ND	ND	ND	ND	ND	ND	ND	ND	ND	0
45868	2015-04-23T03:00:00	ND	ND	ND	ND	ND	ND	ND	ND	ND	ND	ND	0
45869	2015-04-23T04:00:00	ND	ND	ND	ND	ND	ND	ND	ND	ND	ND	ND	0
45870	2015-04-23T05:00:00	ND	ND	ND	ND	ND	ND	ND	ND	ND	ND	ND	0
45871	2015-04-23T06:00:00	ND	ND	ND	ND	ND	ND	ND	ND	ND	ND	ND	0
45872	2015-04-23T07:00:00	ND	ND	ND	ND	ND	ND	ND	ND	ND	ND	ND	0
45873	2015-04-23T08:00:00	ND	ND	ND	ND	ND	ND	ND	ND	ND	ND	ND	0
45874	2015-04-23T09:00:00	ND	ND	ND	ND	ND	ND	ND	ND	ND	ND	ND	0
45875	2015-04-23T10:00:00	ND	ND	ND	ND	ND	ND	ND	ND	ND	ND	ND	0
45876	2015-04-23T11:00:00	ND	ND	ND	ND	ND	ND	ND	ND	ND	ND	ND	0
45877	2015-04-23T12:00:00	ND	ND	ND	ND	ND	ND	ND	ND	ND	ND	ND	0
45878	2015-04-23T13:00:00	ND	ND	ND	ND	ND	ND	ND	ND	ND	ND	ND	0
45879	2015-04-23T14:00:00	ND	ND	ND	ND	ND	ND	ND	ND	ND	ND	ND	0
45880	2015-04-23T15:00:00	ND	ND	ND	ND	ND	ND	ND	ND	ND	ND	ND	0
45881	2015-04-23T16:00:00	ND	ND	ND	ND	ND	ND	ND	ND	ND	ND	ND	0
45882	2015-04-23T17:00:00	ND	ND	ND	ND	ND	ND	ND	ND	ND	ND	ND	0
45883	2015-04-23T18:00:00	ND	ND	ND	ND	ND	ND	ND	ND	ND	ND	ND	0
45884	2015-04-23T19:00:00	ND	ND	ND	ND	ND	ND	ND	ND	ND	ND	ND	0
45885	2015-04-23T20:00:00	ND	ND	ND	ND	ND	ND	ND	ND	ND	ND	ND	0
45886	2015-04-23T21:00:00	ND	ND	ND	ND	ND	ND	ND	ND	ND	ND	ND	0
45887	2015-04-23T22:00:00	ND	ND	ND	ND	ND	ND	ND	ND	ND	ND	ND	0
45888	2015-04-23T23:00:00	ND	ND	ND	ND	ND	ND	ND	ND	ND	ND	ND	0
45889	2015-04-24T00:00:00	ND	ND	ND	ND	ND	ND	ND	ND	ND	ND	ND	0
45890	2015-04-24T01:00:00	ND	ND	ND	ND	ND	ND	ND	ND	ND	ND	ND	0
45891	2015-04-24T02:00:00	ND	ND	ND	ND	ND	ND	ND	ND	ND	ND	ND	0
45892	2015-04-24T03:00:00	ND	ND	ND	ND	ND	ND	ND	ND	ND	ND	ND	0
45893	2015-04-24T04:00:00	ND	ND	ND	ND	ND	ND	ND	ND	ND	ND	ND	0
45894	2015-04-24T05:00:00	ND	ND	ND	ND	ND	ND	ND	ND	ND	ND	ND	0
45895	2015-04-24T06:00:00	ND	ND	ND	ND	ND	ND	ND	ND	ND	ND	ND	0
45896	2015-04-24T07:00:00	ND	ND	ND	ND	ND	ND	ND	ND	ND	ND	ND	0
45897	2015-04-24T08:00:00	ND	ND	ND	ND	ND	ND	ND	ND	ND	ND	ND	0
45898	2015-04-24T09:00:00	ND	ND	ND	ND	ND	ND	ND	ND	ND	ND	ND	0
45899	2015-04-24T10:00:00	ND	ND	ND	ND	ND	ND	ND	ND	ND	ND	ND	0
45900	2015-04-24T11:00:00	ND	ND	ND	ND	ND	ND	ND	ND	ND	ND	ND	0
45901	2015-04-24T12:00:00	ND	ND	ND	ND	ND	ND	ND	ND	ND	ND	ND	0
45902	2015-04-24T13:00:00	ND	ND	ND	ND	ND	ND	ND	ND	ND	ND	ND	0
45903	2015-04-24T14:00:00	ND	ND	ND	ND	ND	ND	ND	ND	ND	ND	ND	0
45904	2015-04-24T15:00:00	ND	ND	ND	ND	ND	ND	ND	ND	ND	ND	ND	0
45905	2015-04-24T16:00:00	ND	ND	ND	ND	ND	ND	ND	ND	ND	ND	ND	0
45906	2015-04-24T17:00:00	ND	ND	ND	ND	ND	ND	ND	ND	ND	ND	ND	0
45907	2015-04-24T18:00:00	ND	ND	ND	ND	ND	ND	ND	ND	ND	ND	ND	0
45908	2015-04-24T19:00:00	ND	ND	ND	ND	ND	ND	ND	ND	ND	ND	ND	0
45909	2015-04-24T20:00:00	ND	ND	ND	ND	ND	ND	ND	ND	ND	ND	ND	0
45910	2015-04-24T21:00:00	ND	ND	ND	ND	ND	ND	ND	ND	ND	ND	ND	0
45911	2015-04-24T22:00:00	ND	ND	ND	ND	ND	ND	ND	ND	ND	ND	ND	0
45912	2015-04-24T23:00:00	ND	ND	ND	ND	ND	ND	ND	ND	ND	ND	ND	0
45913	2015-04-25T00:00:00	ND	ND	ND	ND	ND	ND	ND	ND	ND	ND	ND	0
45914	2015-04-25T01:00:00	ND	ND	ND	ND	ND	ND	ND	ND	ND	ND	ND	0
45915	2015-04-25T02:00:00	ND	ND	ND	ND	ND	ND	ND	ND	ND	ND	ND	0
45916	2015-04-25T03:00:00	ND	ND	ND	ND	ND	ND	ND	ND	ND	ND	ND	0
45917	2015-04-25T04:00:00	ND	ND	ND	ND	ND	ND	ND	ND	ND	ND	ND	0
45918	2015-04-25T05:00:00	ND	ND	ND	ND	ND	ND	ND	ND	ND	ND	ND	0
45919	2015-04-25T06:00:00	ND	ND	ND	ND	ND	ND	ND	ND	ND	ND	ND	0
45920	2015-04-25T07:00:00	ND	ND	ND	ND	ND	ND	ND	ND	ND	ND	ND	0
45921	2015-04-25T08:00:00	ND	ND	ND	ND	ND	ND	ND	ND	ND	ND	ND	0
45922	2015-04-25T09:00:00	ND	ND	ND	ND	ND	ND	ND	ND	ND	ND	ND	0
45923	2015-04-25T10:00:00	ND	ND	ND	ND	ND	ND	ND	ND	ND	ND	ND	0
45924	2015-04-25T11:00:00	ND	ND	ND	ND	ND	ND	ND	ND	ND	ND	ND	0
45925	2015-04-25T12:00:00	ND	ND	ND	ND	ND	ND	ND	ND	ND	ND	ND	0
45926	2015-04-25T13:00:00	ND	ND	ND	ND	ND	ND	ND	ND	ND	ND	ND	0
45927	2015-04-25T14:00:00	ND	ND	ND	ND	ND	ND	ND	ND	ND	ND	ND	0
45928	2015-04-25T15:00:00	ND	ND	ND	ND	ND	ND	ND	ND	ND	ND	ND	0
45929	2015-04-25T16:00:00	ND	ND	ND	ND	ND	ND	ND	ND	ND	ND	ND	0
45930	2015-04-25T17:00:00	ND	ND	ND	ND	ND	ND	ND	ND	ND	ND	ND	0
45931	2015-04-25T18:00:00	ND	ND	ND	ND	ND	ND	ND	ND	ND	ND	ND	0
45932	2015-04-25T19:00:00	ND	ND	ND	ND	ND	ND	ND	ND	ND	ND	ND	0
45933	2015-04-25T20:00:00	ND	ND	ND	ND	ND	ND	ND	ND	ND	ND	ND	0
45934	2015-04-25T21:00:00	ND	ND	ND	ND	ND	ND	ND	ND	ND	ND	ND	0
45935	2015-04-25T22:00:00	ND	ND	ND	ND	ND	ND	ND	ND	ND	ND	ND	0
45936	2015-04-25T23:00:00	ND	ND	ND	ND	ND	ND	ND	ND	ND	ND	ND	ND
45937	2015-04-26T00:00:00	ND	ND	ND	ND	ND	ND	ND	ND	ND	ND	ND	0
45938	2015-04-26T01:00:00	ND	ND	ND	ND	ND	ND	ND	ND	ND	ND	ND	0
45939	2015-04-26T02:00:00	ND	ND	ND	ND	ND	ND	ND	ND	ND	ND	ND	0
45940	2015-04-26T03:00:00	ND	ND	ND	ND	ND	ND	ND	ND	ND	ND	ND	0
45941	2015-04-26T04:00:00	ND	ND	ND	ND	ND	ND	ND	ND	ND	ND	ND	0
45942	2015-04-26T05:00:00	ND	ND	ND	ND	ND	ND	ND	ND	ND	ND	ND	0
45943	2015-04-26T06:00:00	ND	ND	ND	ND	ND	ND	ND	ND	ND	ND	ND	0
45944	2015-04-26T07:00:00	ND	ND	ND	ND	ND	ND	ND	ND	ND	ND	ND	0
45945	2015-04-26T08:00:00	ND	ND	ND	ND	ND	ND	ND	ND	ND	ND	ND	0
45946	2015-04-26T09:00:00	ND	ND	ND	ND	ND	ND	ND	ND	ND	ND	ND	0
45947	2015-04-26T10:00:00	ND	ND	ND	ND	ND	ND	ND	ND	ND	ND	ND	0
45948	2015-04-26T11:00:00	ND	ND	ND	ND	ND	ND	ND	ND	ND	ND	ND	ND
45949	2015-04-26T12:00:00	ND	ND	ND	ND	ND	ND	ND	ND	ND	ND	ND	ND
45950	2015-04-26T13:00:00	ND	ND	ND	ND	ND	ND	ND	ND	ND	ND	ND	ND
45951	2015-04-26T14:00:00	ND	ND	ND	ND	ND	ND	ND	ND	ND	ND	ND	ND
45952	2015-04-26T15:00:00	ND	ND	ND	ND	ND	ND	ND	ND	ND	ND	ND	0
45953	2015-04-26T16:00:00	ND	ND	ND	ND	ND	ND	ND	ND	ND	ND	ND	0
45954	2015-04-26T17:00:00	ND	ND	ND	ND	ND	ND	ND	ND	ND	ND	ND	0
45955	2015-04-26T18:00:00	ND	ND	ND	ND	ND	ND	ND	ND	ND	ND	ND	0
45956	2015-04-26T19:00:00	ND	ND	ND	ND	ND	ND	ND	ND	ND	ND	ND	0
45957	2015-04-26T20:00:00	ND	ND	ND	ND	ND	ND	ND	ND	ND	ND	ND	0
45958	2015-04-26T21:00:00	ND	ND	ND	ND	ND	ND	ND	ND	ND	ND	ND	0
45959	2015-04-26T22:00:00	ND	ND	ND	ND	ND	ND	ND	ND	ND	ND	ND	0
45960	2015-04-26T23:00:00	ND	ND	ND	ND	ND	ND	ND	ND	ND	ND	ND	0
45961	2015-04-27T00:00:00	ND	ND	ND	ND	ND	ND	ND	ND	ND	ND	ND	0
45962	2015-04-27T01:00:00	ND	ND	ND	ND	ND	ND	ND	ND	ND	ND	ND	0
45963	2015-04-27T02:00:00	ND	ND	ND	ND	ND	ND	ND	ND	ND	ND	ND	0
45964	2015-04-27T03:00:00	ND	ND	ND	ND	ND	ND	ND	ND	ND	ND	ND	0
45965	2015-04-27T04:00:00	ND	ND	ND	ND	ND	ND	ND	ND	ND	ND	ND	0
45966	2015-04-27T05:00:00	ND	ND	ND	ND	ND	ND	ND	ND	ND	ND	ND	0
45967	2015-04-27T06:00:00	ND	ND	ND	ND	ND	ND	ND	ND	ND	ND	ND	0
45968	2015-04-27T07:00:00	ND	ND	ND	ND	ND	ND	ND	ND	ND	ND	ND	0
45969	2015-04-27T08:00:00	ND	ND	ND	ND	ND	ND	ND	ND	ND	ND	ND	0
45970	2015-04-27T09:00:00	ND	ND	ND	ND	ND	ND	ND	ND	ND	ND	ND	ND
45971	2015-04-27T10:00:00	ND	ND	ND	ND	ND	ND	ND	ND	ND	ND	ND	0
45972	2015-04-27T11:00:00	ND	ND	ND	ND	ND	ND	ND	ND	ND	ND	ND	0
45973	2015-04-27T12:00:00	ND	ND	ND	ND	ND	ND	ND	ND	ND	ND	ND	0
45974	2015-04-27T13:00:00	ND	ND	ND	ND	ND	ND	ND	ND	ND	ND	ND	0
45975	2015-04-27T14:00:00	ND	ND	ND	ND	ND	ND	ND	ND	ND	ND	ND	0
45976	2015-04-27T15:00:00	ND	ND	ND	ND	ND	ND	ND	ND	ND	ND	ND	0
45977	2015-04-27T16:00:00	ND	ND	ND	ND	ND	ND	ND	ND	ND	ND	ND	0
45978	2015-04-27T17:00:00	ND	ND	ND	ND	ND	ND	ND	ND	ND	ND	ND	0
45979	2015-04-27T18:00:00	ND	ND	ND	ND	ND	ND	ND	ND	ND	ND	ND	0
45980	2015-04-27T19:00:00	ND	ND	ND	ND	ND	ND	ND	ND	ND	ND	ND	0
45981	2015-04-27T20:00:00	ND	ND	ND	ND	ND	ND	ND	ND	ND	ND	ND	0
45982	2015-04-27T21:00:00	ND	ND	ND	ND	ND	ND	ND	ND	ND	ND	ND	0
45983	2015-04-27T22:00:00	ND	ND	ND	ND	ND	ND	ND	ND	ND	ND	ND	0
45984	2015-04-27T23:00:00	ND	ND	ND	ND	ND	ND	ND	ND	ND	ND	ND	0
45985	2015-04-28T00:00:00	ND	ND	ND	ND	ND	ND	ND	ND	ND	ND	ND	0
45986	2015-04-28T01:00:00	ND	ND	ND	ND	ND	ND	ND	ND	ND	ND	ND	0
45987	2015-04-28T02:00:00	ND	ND	ND	ND	ND	ND	ND	ND	ND	ND	ND	0
45988	2015-04-28T03:00:00	ND	ND	ND	ND	ND	ND	ND	ND	ND	ND	ND	0
45989	2015-04-28T04:00:00	ND	ND	ND	ND	ND	ND	ND	ND	ND	ND	ND	0
45990	2015-04-28T05:00:00	ND	ND	ND	ND	ND	ND	ND	ND	ND	ND	ND	0
45991	2015-04-28T06:00:00	ND	ND	ND	ND	ND	ND	ND	ND	ND	ND	ND	0
45992	2015-04-28T07:00:00	ND	ND	ND	ND	ND	ND	ND	ND	ND	ND	ND	0
45993	2015-04-28T08:00:00	ND	ND	ND	ND	ND	ND	ND	ND	ND	ND	ND	0
45994	2015-04-28T09:00:00	ND	ND	ND	ND	ND	ND	ND	ND	ND	ND	ND	0
45995	2015-04-28T10:00:00	ND	ND	ND	ND	ND	ND	ND	ND	ND	ND	ND	0
45996	2015-04-28T11:00:00	ND	ND	ND	ND	ND	ND	ND	ND	ND	ND	ND	0
45997	2015-04-28T12:00:00	ND	ND	ND	ND	ND	ND	ND	ND	ND	ND	ND	0
45998	2015-04-28T13:00:00	ND	ND	ND	ND	ND	ND	ND	ND	ND	ND	ND	0
45999	2015-04-28T14:00:00	ND	ND	ND	ND	ND	ND	ND	ND	ND	ND	ND	0
46000	2015-04-28T15:00:00	ND	ND	ND	ND	ND	ND	ND	ND	ND	ND	ND	0
46001	2015-04-28T16:00:00	ND	ND	ND	ND	ND	ND	ND	ND	ND	ND	ND	0
46002	2015-04-28T17:00:00	ND	ND	ND	ND	ND	ND	ND	ND	ND	ND	ND	0
46003	2015-04-28T18:00:00	ND	ND	ND	ND	ND	ND	ND	ND	ND	ND	ND	0
46004	2015-04-28T19:00:00	ND	ND	ND	ND	ND	ND	ND	ND	ND	ND	ND	0
46005	2015-04-28T20:00:00	ND	ND	ND	ND	ND	ND	ND	ND	ND	ND	ND	0
46006	2015-04-28T21:00:00	ND	ND	ND	ND	ND	ND	ND	ND	ND	ND	ND	0
46007	2015-04-28T22:00:00	ND	ND	ND	ND	ND	ND	ND	ND	ND	ND	ND	0
46008	2015-04-28T23:00:00	ND	ND	ND	ND	ND	ND	ND	ND	ND	ND	ND	0
46009	2015-04-29T00:00:00	ND	ND	ND	ND	ND	ND	ND	ND	ND	ND	ND	0
46010	2015-04-29T01:00:00	ND	ND	ND	ND	ND	ND	ND	ND	ND	ND	ND	0
46011	2015-04-29T02:00:00	ND	ND	ND	ND	ND	ND	ND	ND	ND	ND	ND	0
46012	2015-04-29T03:00:00	ND	ND	ND	ND	ND	ND	ND	ND	ND	ND	ND	0
46013	2015-04-29T04:00:00	ND	ND	ND	ND	ND	ND	ND	ND	ND	ND	ND	0
46014	2015-04-29T05:00:00	ND	ND	ND	ND	ND	ND	ND	ND	ND	ND	ND	0
46015	2015-04-29T06:00:00	ND	ND	ND	ND	ND	ND	ND	ND	ND	ND	ND	0
46016	2015-04-29T07:00:00	ND	ND	ND	ND	ND	ND	ND	ND	ND	ND	ND	0
46017	2015-04-29T08:00:00	ND	ND	ND	ND	ND	ND	ND	ND	ND	ND	ND	0
46018	2015-04-29T09:00:00	ND	ND	ND	ND	ND	ND	ND	ND	ND	ND	ND	0
46019	2015-04-29T10:00:00	ND	ND	ND	ND	ND	ND	ND	ND	ND	ND	ND	0
46020	2015-04-29T11:00:00	ND	ND	ND	ND	ND	ND	ND	ND	ND	ND	ND	0
46021	2015-04-29T12:00:00	ND	ND	ND	ND	ND	ND	ND	ND	ND	ND	ND	0
46022	2015-04-29T13:00:00	ND	ND	ND	ND	ND	ND	ND	ND	ND	ND	ND	0
46023	2015-04-29T14:00:00	ND	ND	ND	ND	ND	ND	ND	ND	ND	ND	ND	0
46024	2015-04-29T15:00:00	ND	ND	ND	ND	ND	ND	ND	ND	ND	ND	ND	0
46025	2015-04-29T16:00:00	ND	ND	ND	ND	ND	ND	ND	ND	ND	ND	ND	0
46026	2015-04-29T17:00:00	ND	ND	ND	ND	ND	ND	ND	ND	ND	ND	ND	0
46027	2015-04-29T18:00:00	ND	ND	ND	ND	ND	ND	ND	ND	ND	ND	ND	0
46028	2015-04-29T19:00:00	ND	ND	ND	ND	ND	ND	ND	ND	ND	ND	ND	0
46029	2015-04-29T20:00:00	ND	ND	ND	ND	ND	ND	ND	ND	ND	ND	ND	0
46030	2015-04-29T21:00:00	ND	ND	ND	ND	ND	ND	ND	ND	ND	ND	ND	0
46031	2015-04-29T22:00:00	ND	ND	ND	ND	ND	ND	ND	ND	ND	ND	ND	0
46032	2015-04-29T23:00:00	ND	ND	ND	ND	ND	ND	ND	ND	ND	ND	ND	0
46033	2015-04-30T00:00:00	ND	ND	ND	ND	ND	ND	ND	ND	ND	ND	ND	0
46034	2015-04-30T01:00:00	ND	ND	ND	ND	ND	ND	ND	ND	ND	ND	ND	0
46035	2015-04-30T02:00:00	ND	ND	ND	ND	ND	ND	ND	ND	ND	ND	ND	0
46036	2015-04-30T03:00:00	ND	ND	ND	ND	ND	ND	ND	ND	ND	ND	ND	0
46037	2015-04-30T04:00:00	ND	ND	ND	ND	ND	ND	ND	ND	ND	ND	ND	0
46038	2015-04-30T05:00:00	ND	ND	ND	ND	ND	ND	ND	ND	ND	ND	ND	0
46039	2015-04-30T06:00:00	ND	ND	ND	ND	ND	ND	ND	ND	ND	ND	ND	0
46040	2015-04-30T07:00:00	ND	ND	ND	ND	ND	ND	ND	ND	ND	ND	ND	0
46041	2015-04-30T08:00:00	ND	ND	ND	ND	ND	ND	ND	ND	ND	ND	ND	0
46042	2015-04-30T09:00:00	ND	ND	ND	ND	ND	ND	ND	ND	ND	ND	ND	0
46043	2015-04-30T10:00:00	ND	ND	ND	ND	ND	ND	ND	ND	ND	ND	ND	0
46044	2015-04-30T11:00:00	ND	ND	ND	ND	ND	ND	ND	ND	ND	ND	ND	0
46045	2015-04-30T12:00:00	ND	ND	ND	ND	ND	ND	ND	ND	ND	ND	ND	0
46046	2015-04-30T13:00:00	ND	ND	ND	ND	ND	ND	ND	ND	ND	ND	ND	0
46047	2015-04-30T14:00:00	ND	ND	ND	ND	ND	ND	ND	ND	ND	ND	ND	0
46048	2015-04-30T15:00:00	ND	ND	ND	ND	ND	ND	ND	ND	ND	ND	ND	0
46049	2015-04-30T16:00:00	ND	ND	ND	ND	ND	ND	ND	ND	ND	ND	ND	0
46050	2015-04-30T17:00:00	ND	ND	ND	ND	ND	ND	ND	ND	ND	ND	ND	0
46051	2015-04-30T18:00:00	ND	ND	ND	ND	ND	ND	ND	ND	ND	ND	ND	0
46052	2015-04-30T19:00:00	ND	ND	ND	ND	ND	ND	ND	ND	ND	ND	ND	0
46053	2015-04-30T20:00:00	ND	ND	ND	ND	ND	ND	ND	ND	ND	ND	ND	0
46054	2015-04-30T21:00:00	ND	ND	ND	ND	ND	ND	ND	ND	ND	ND	ND	0
46055	2015-04-30T22:00:00	ND	ND	ND	ND	ND	ND	ND	ND	ND	ND	ND	0
46056	2015-04-30T23:00:00	ND	ND	ND	ND	ND	ND	ND	ND	ND	ND	ND	0
46057	2015-05-01T00:00:00	ND	ND	ND	ND	ND	ND	ND	ND	ND	ND	ND	0
46058	2015-05-01T01:00:00	ND	ND	ND	ND	ND	ND	ND	ND	ND	ND	ND	0
46059	2015-05-01T02:00:00	ND	ND	ND	ND	ND	ND	ND	ND	ND	ND	ND	0
46060	2015-05-01T03:00:00	ND	ND	ND	ND	ND	ND	ND	ND	ND	ND	ND	0
46061	2015-05-01T04:00:00	ND	ND	ND	ND	ND	ND	ND	ND	ND	ND	ND	0
46062	2015-05-01T05:00:00	ND	ND	ND	ND	ND	ND	ND	ND	ND	ND	ND	0
46063	2015-05-01T06:00:00	ND	ND	ND	ND	ND	ND	ND	ND	ND	ND	ND	0
46064	2015-05-01T07:00:00	ND	ND	ND	ND	ND	ND	ND	ND	ND	ND	ND	0
46065	2015-05-01T08:00:00	ND	ND	ND	ND	ND	ND	ND	ND	ND	ND	ND	0
46066	2015-05-01T09:00:00	ND	ND	ND	ND	ND	ND	ND	ND	ND	ND	ND	0
46067	2015-05-01T10:00:00	ND	ND	ND	ND	ND	ND	ND	ND	ND	ND	ND	0
46068	2015-05-01T11:00:00	ND	ND	ND	ND	ND	ND	ND	ND	ND	ND	ND	0
46069	2015-05-01T12:00:00	ND	ND	ND	ND	ND	ND	ND	ND	ND	ND	ND	0
46070	2015-05-01T13:00:00	ND	ND	ND	ND	ND	ND	ND	ND	ND	ND	ND	0
46071	2015-05-01T14:00:00	ND	ND	ND	ND	ND	ND	ND	ND	ND	ND	ND	0
46072	2015-05-01T15:00:00	ND	ND	ND	ND	ND	ND	ND	ND	ND	ND	ND	0
46073	2015-05-01T16:00:00	ND	ND	ND	ND	ND	ND	ND	ND	ND	ND	ND	0
46074	2015-05-01T17:00:00	ND	ND	ND	ND	ND	ND	ND	ND	ND	ND	ND	0
46075	2015-05-01T18:00:00	ND	ND	ND	ND	ND	ND	ND	ND	ND	ND	ND	0
46076	2015-05-01T19:00:00	ND	ND	ND	ND	ND	ND	ND	ND	ND	ND	ND	0
46077	2015-05-01T20:00:00	ND	ND	ND	ND	ND	ND	ND	ND	ND	ND	ND	0
46078	2015-05-01T21:00:00	ND	ND	ND	ND	ND	ND	ND	ND	ND	ND	ND	0
46079	2015-05-01T22:00:00	ND	ND	ND	ND	ND	ND	ND	ND	ND	ND	ND	0
46080	2015-05-01T23:00:00	ND	ND	ND	ND	ND	ND	ND	ND	ND	ND	ND	0
46081	2015-05-02T00:00:00	ND	ND	ND	ND	ND	ND	ND	ND	ND	ND	ND	0
46082	2015-05-02T01:00:00	ND	ND	ND	ND	ND	ND	ND	ND	ND	ND	ND	0
46083	2015-05-02T02:00:00	ND	ND	ND	ND	ND	ND	ND	ND	ND	ND	ND	0
46084	2015-05-02T03:00:00	ND	ND	ND	ND	ND	ND	ND	ND	ND	ND	ND	0
46085	2015-05-02T04:00:00	ND	ND	ND	ND	ND	ND	ND	ND	ND	ND	ND	0
46086	2015-05-02T05:00:00	ND	ND	ND	ND	ND	ND	ND	ND	ND	ND	ND	0
46087	2015-05-02T06:00:00	ND	ND	ND	ND	ND	ND	ND	ND	ND	ND	ND	0
46088	2015-05-02T07:00:00	ND	ND	ND	ND	ND	ND	ND	ND	ND	ND	ND	0
46089	2015-05-02T08:00:00	ND	ND	ND	ND	ND	ND	ND	ND	ND	ND	ND	0
46090	2015-05-02T09:00:00	ND	ND	ND	ND	ND	ND	ND	ND	ND	ND	ND	0
46091	2015-05-02T10:00:00	ND	ND	ND	ND	ND	ND	ND	ND	ND	ND	ND	0
46092	2015-05-02T11:00:00	ND	ND	ND	ND	ND	ND	ND	ND	ND	ND	ND	0
46093	2015-05-02T12:00:00	ND	ND	ND	ND	ND	ND	ND	ND	ND	ND	ND	0
46094	2015-05-02T13:00:00	ND	ND	ND	ND	ND	ND	ND	ND	ND	ND	ND	0
46095	2015-05-02T14:00:00	ND	ND	ND	ND	ND	ND	ND	ND	ND	ND	ND	0
46096	2015-05-02T15:00:00	ND	ND	ND	ND	ND	ND	ND	ND	ND	ND	ND	0
46097	2015-05-02T16:00:00	ND	ND	ND	ND	ND	ND	ND	ND	ND	ND	ND	0
46098	2015-05-02T17:00:00	ND	ND	ND	ND	ND	ND	ND	ND	ND	ND	ND	0
46099	2015-05-02T18:00:00	ND	ND	ND	ND	ND	ND	ND	ND	ND	ND	ND	0
46100	2015-05-02T19:00:00	ND	ND	ND	ND	ND	ND	ND	ND	ND	ND	ND	0
46101	2015-05-02T20:00:00	ND	ND	ND	ND	ND	ND	ND	ND	ND	ND	ND	0
46102	2015-05-02T21:00:00	ND	ND	ND	ND	ND	ND	ND	ND	ND	ND	ND	0
46103	2015-05-02T22:00:00	ND	ND	ND	ND	ND	ND	ND	ND	ND	ND	ND	0
46104	2015-05-02T23:00:00	ND	ND	ND	ND	ND	ND	ND	ND	ND	ND	ND	0
46105	2015-05-03T00:00:00	ND	ND	ND	ND	ND	ND	ND	ND	ND	ND	ND	0
46106	2015-05-03T01:00:00	ND	ND	ND	ND	ND	ND	ND	ND	ND	ND	ND	0
46107	2015-05-03T02:00:00	ND	ND	ND	ND	ND	ND	ND	ND	ND	ND	ND	0
46108	2015-05-03T03:00:00	ND	ND	ND	ND	ND	ND	ND	ND	ND	ND	ND	0
46109	2015-05-03T04:00:00	ND	ND	ND	ND	ND	ND	ND	ND	ND	ND	ND	0.25
46110	2015-05-03T05:00:00	ND	ND	ND	ND	ND	ND	ND	ND	ND	ND	ND	0.25
46111	2015-05-03T06:00:00	ND	ND	ND	ND	ND	ND	ND	ND	ND	ND	ND	9.4
46112	2015-05-03T07:00:00	ND	ND	ND	ND	ND	ND	ND	ND	ND	ND	ND	25.15
46113	2015-05-03T08:00:00	ND	ND	ND	ND	ND	ND	ND	ND	ND	ND	ND	3.81
46114	2015-05-03T09:00:00	ND	ND	ND	ND	ND	ND	ND	ND	ND	ND	ND	0
46115	2015-05-03T10:00:00	ND	ND	ND	ND	ND	ND	ND	ND	ND	ND	ND	0.25
46116	2015-05-03T11:00:00	ND	ND	ND	ND	ND	ND	ND	ND	ND	ND	ND	0
46117	2015-05-03T12:00:00	ND	ND	ND	ND	ND	ND	ND	ND	ND	ND	ND	0
46118	2015-05-03T13:00:00	ND	ND	ND	ND	ND	ND	ND	ND	ND	ND	ND	0
46119	2015-05-03T14:00:00	ND	ND	ND	ND	ND	ND	ND	ND	ND	ND	ND	0
46120	2015-05-03T15:00:00	ND	ND	ND	ND	ND	ND	ND	ND	ND	ND	ND	0
46121	2015-05-03T16:00:00	ND	ND	ND	ND	ND	ND	ND	ND	ND	ND	ND	0
46122	2015-05-03T17:00:00	ND	ND	ND	ND	ND	ND	ND	ND	ND	ND	ND	0
46123	2015-05-03T18:00:00	ND	ND	ND	ND	ND	ND	ND	ND	ND	ND	ND	0
46124	2015-05-03T19:00:00	ND	ND	ND	ND	ND	ND	ND	ND	ND	ND	ND	0
46125	2015-05-03T20:00:00	ND	ND	ND	ND	ND	ND	ND	ND	ND	ND	ND	0
46126	2015-05-03T21:00:00	ND	ND	ND	ND	ND	ND	ND	ND	ND	ND	ND	0
46127	2015-05-03T22:00:00	ND	ND	ND	ND	ND	ND	ND	ND	ND	ND	ND	0
46128	2015-05-03T23:00:00	ND	ND	ND	ND	ND	ND	ND	ND	ND	ND	ND	0
46129	2015-05-04T00:00:00	ND	ND	ND	ND	ND	ND	ND	ND	ND	ND	ND	0
46130	2015-05-04T01:00:00	ND	ND	ND	ND	ND	ND	ND	ND	ND	ND	ND	0
46131	2015-05-04T02:00:00	ND	ND	ND	ND	ND	ND	ND	ND	ND	ND	ND	0
46132	2015-05-04T03:00:00	ND	ND	ND	ND	ND	ND	ND	ND	ND	ND	ND	0
46133	2015-05-04T04:00:00	ND	ND	ND	ND	ND	ND	ND	ND	ND	ND	ND	0
46134	2015-05-04T05:00:00	ND	ND	ND	ND	ND	ND	ND	ND	ND	ND	ND	0
46135	2015-05-04T06:00:00	ND	ND	ND	ND	ND	ND	ND	ND	ND	ND	ND	0
46136	2015-05-04T07:00:00	ND	ND	ND	ND	ND	ND	ND	ND	ND	ND	ND	0
46137	2015-05-04T08:00:00	ND	ND	ND	ND	ND	ND	ND	ND	ND	ND	ND	0
46138	2015-05-04T09:00:00	ND	ND	ND	ND	ND	ND	ND	ND	ND	ND	ND	0
46139	2015-05-04T10:00:00	ND	ND	ND	ND	ND	ND	ND	ND	ND	ND	ND	0
46140	2015-05-04T11:00:00	ND	ND	ND	ND	ND	ND	ND	ND	ND	ND	ND	0
46141	2015-05-04T12:00:00	ND	ND	ND	ND	ND	ND	ND	ND	ND	ND	ND	0
46142	2015-05-04T13:00:00	ND	ND	ND	ND	ND	ND	ND	ND	ND	ND	ND	0
46143	2015-05-04T14:00:00	ND	ND	ND	ND	ND	ND	ND	ND	ND	ND	ND	0
46144	2015-05-04T15:00:00	ND	ND	ND	ND	ND	ND	ND	ND	ND	ND	ND	0
46145	2015-05-04T16:00:00	ND	ND	ND	ND	ND	ND	ND	ND	ND	ND	ND	0
46146	2015-05-04T17:00:00	ND	ND	ND	ND	ND	ND	ND	ND	ND	ND	ND	0
46147	2015-05-04T18:00:00	ND	ND	ND	ND	ND	ND	ND	ND	ND	ND	ND	0
46148	2015-05-04T19:00:00	ND	ND	ND	ND	ND	ND	ND	ND	ND	ND	ND	0
46149	2015-05-04T20:00:00	ND	ND	ND	ND	ND	ND	ND	ND	ND	ND	ND	0
46150	2015-05-04T21:00:00	ND	ND	ND	ND	ND	ND	ND	ND	ND	ND	ND	0
46151	2015-05-04T22:00:00	ND	ND	ND	ND	ND	ND	ND	ND	ND	ND	ND	0
46152	2015-05-04T23:00:00	ND	ND	ND	ND	ND	ND	ND	ND	ND	ND	ND	0
46153	2015-05-05T00:00:00	ND	ND	ND	ND	ND	ND	ND	ND	ND	ND	ND	0
46154	2015-05-05T01:00:00	ND	ND	ND	ND	ND	ND	ND	ND	ND	ND	ND	0
46155	2015-05-05T02:00:00	ND	ND	ND	ND	ND	ND	ND	ND	ND	ND	ND	0
46156	2015-05-05T03:00:00	ND	ND	ND	ND	ND	ND	ND	ND	ND	ND	ND	0
46157	2015-05-05T04:00:00	ND	ND	ND	ND	ND	ND	ND	ND	ND	ND	ND	0
46158	2015-05-05T05:00:00	ND	ND	ND	ND	ND	ND	ND	ND	ND	ND	ND	0
46159	2015-05-05T06:00:00	ND	ND	ND	ND	ND	ND	ND	ND	ND	ND	ND	0
46160	2015-05-05T07:00:00	ND	ND	ND	ND	ND	ND	ND	ND	ND	ND	ND	0
46161	2015-05-05T08:00:00	ND	ND	ND	ND	ND	ND	ND	ND	ND	ND	ND	0
46162	2015-05-05T09:00:00	ND	ND	ND	ND	ND	ND	ND	ND	ND	ND	ND	0
46163	2015-05-05T10:00:00	ND	ND	ND	ND	ND	ND	ND	ND	ND	ND	ND	0
46164	2015-05-05T11:00:00	ND	ND	ND	ND	ND	ND	ND	ND	ND	ND	ND	0
46165	2015-05-05T12:00:00	ND	ND	ND	ND	ND	ND	ND	ND	ND	ND	ND	0
46166	2015-05-05T13:00:00	ND	ND	ND	ND	ND	ND	ND	ND	ND	ND	ND	0
46167	2015-05-05T14:00:00	ND	ND	ND	ND	ND	ND	ND	ND	ND	ND	ND	0
46168	2015-05-05T15:00:00	ND	ND	ND	ND	ND	ND	ND	ND	ND	ND	ND	0
46169	2015-05-05T16:00:00	ND	ND	ND	ND	ND	ND	ND	ND	ND	ND	ND	0
46170	2015-05-05T17:00:00	ND	ND	ND	ND	ND	ND	ND	ND	ND	ND	ND	0
46171	2015-05-05T18:00:00	ND	ND	ND	ND	ND	ND	ND	ND	ND	ND	ND	0
46172	2015-05-05T19:00:00	ND	ND	ND	ND	ND	ND	ND	ND	ND	ND	ND	0
46173	2015-05-05T20:00:00	ND	ND	ND	ND	ND	ND	ND	ND	ND	ND	ND	0
46174	2015-05-05T21:00:00	ND	ND	ND	ND	ND	ND	ND	ND	ND	ND	ND	0
46175	2015-05-05T22:00:00	ND	ND	ND	ND	ND	ND	ND	ND	ND	ND	ND	0
46176	2015-05-05T23:00:00	ND	ND	ND	ND	ND	ND	ND	ND	ND	ND	ND	0
46177	2015-05-06T00:00:00	ND	ND	ND	ND	ND	ND	ND	ND	ND	ND	ND	0
46178	2015-05-06T01:00:00	ND	ND	ND	ND	ND	ND	ND	ND	ND	ND	ND	0
46179	2015-05-06T02:00:00	ND	ND	ND	ND	ND	ND	ND	ND	ND	ND	ND	0
46180	2015-05-06T03:00:00	ND	ND	ND	ND	ND	ND	ND	ND	ND	ND	ND	0
46181	2015-05-06T04:00:00	ND	ND	ND	ND	ND	ND	ND	ND	ND	ND	ND	0
46182	2015-05-06T05:00:00	ND	ND	ND	ND	ND	ND	ND	ND	ND	ND	ND	0
46183	2015-05-06T06:00:00	ND	ND	ND	ND	ND	ND	ND	ND	ND	ND	ND	20.57
46184	2015-05-06T07:00:00	ND	ND	ND	ND	ND	ND	ND	ND	ND	ND	ND	31.24
46185	2015-05-06T08:00:00	ND	ND	ND	ND	ND	ND	ND	ND	ND	ND	ND	17.27
46186	2015-05-06T09:00:00	ND	ND	ND	ND	ND	ND	ND	ND	ND	ND	ND	0
46187	2015-05-06T10:00:00	ND	ND	ND	ND	ND	ND	ND	ND	ND	ND	ND	0
46188	2015-05-06T11:00:00	ND	ND	ND	ND	ND	ND	ND	ND	ND	ND	ND	0
46189	2015-05-06T12:00:00	ND	ND	ND	ND	ND	ND	ND	ND	ND	ND	ND	0
46190	2015-05-06T13:00:00	ND	ND	ND	ND	ND	ND	ND	ND	ND	ND	ND	0
46191	2015-05-06T14:00:00	ND	ND	ND	ND	ND	ND	ND	ND	ND	ND	ND	0
46192	2015-05-06T15:00:00	ND	ND	ND	ND	ND	ND	ND	ND	ND	ND	ND	0
46193	2015-05-06T16:00:00	ND	ND	ND	ND	ND	ND	ND	ND	ND	ND	ND	0
46194	2015-05-06T17:00:00	ND	ND	ND	ND	ND	ND	ND	ND	ND	ND	ND	0
46195	2015-05-06T18:00:00	ND	ND	ND	ND	ND	ND	ND	ND	ND	ND	ND	0
46196	2015-05-06T19:00:00	ND	ND	ND	ND	ND	ND	ND	ND	ND	ND	ND	0
46197	2015-05-06T20:00:00	ND	ND	ND	ND	ND	ND	ND	ND	ND	ND	ND	0
46198	2015-05-06T21:00:00	ND	ND	ND	ND	ND	ND	ND	ND	ND	ND	ND	0
46199	2015-05-06T22:00:00	ND	ND	ND	ND	ND	ND	ND	ND	ND	ND	ND	0
46200	2015-05-06T23:00:00	ND	ND	ND	ND	ND	ND	ND	ND	ND	ND	ND	0
46201	2015-05-07T00:00:00	ND	ND	ND	ND	ND	ND	ND	ND	ND	ND	ND	0
46202	2015-05-07T01:00:00	ND	ND	ND	ND	ND	ND	ND	ND	ND	ND	ND	0
46203	2015-05-07T02:00:00	ND	ND	ND	ND	ND	ND	ND	ND	ND	ND	ND	0
46204	2015-05-07T03:00:00	ND	ND	ND	ND	ND	ND	ND	ND	ND	ND	ND	0
46205	2015-05-07T04:00:00	ND	ND	ND	ND	ND	ND	ND	ND	ND	ND	ND	0
46206	2015-05-07T05:00:00	ND	ND	ND	ND	ND	ND	ND	ND	ND	ND	ND	0
46207	2015-05-07T06:00:00	ND	ND	ND	ND	ND	ND	ND	ND	ND	ND	ND	0
46208	2015-05-07T07:00:00	ND	ND	ND	ND	ND	ND	ND	ND	ND	ND	ND	0
46209	2015-05-07T08:00:00	ND	ND	ND	ND	ND	ND	ND	ND	ND	ND	ND	0
46210	2015-05-07T09:00:00	ND	ND	ND	ND	ND	ND	ND	ND	ND	ND	ND	0
46211	2015-05-07T10:00:00	ND	ND	ND	ND	ND	ND	ND	ND	ND	ND	ND	0
46212	2015-05-07T11:00:00	ND	ND	ND	ND	ND	ND	ND	ND	ND	ND	ND	0
46213	2015-05-07T12:00:00	ND	ND	ND	ND	ND	ND	ND	ND	ND	ND	ND	0
46214	2015-05-07T13:00:00	ND	ND	ND	ND	ND	ND	ND	ND	ND	ND	ND	0
46215	2015-05-07T14:00:00	ND	ND	ND	ND	ND	ND	ND	ND	ND	ND	ND	0
46216	2015-05-07T15:00:00	ND	ND	ND	ND	ND	ND	ND	ND	ND	ND	ND	0
46217	2015-05-07T16:00:00	ND	ND	ND	ND	ND	ND	ND	ND	ND	ND	ND	0
46218	2015-05-07T17:00:00	ND	ND	ND	ND	ND	ND	ND	ND	ND	ND	ND	0
46219	2015-05-07T18:00:00	ND	ND	ND	ND	ND	ND	ND	ND	ND	ND	ND	0
46220	2015-05-07T19:00:00	ND	ND	ND	ND	ND	ND	ND	ND	ND	ND	ND	0
46221	2015-05-07T20:00:00	ND	ND	ND	ND	ND	ND	ND	ND	ND	ND	ND	0
46222	2015-05-07T21:00:00	ND	ND	ND	ND	ND	ND	ND	ND	ND	ND	ND	0
46223	2015-05-07T22:00:00	ND	ND	ND	ND	ND	ND	ND	ND	ND	ND	ND	0
46224	2015-05-07T23:00:00	ND	ND	ND	ND	ND	ND	ND	ND	ND	ND	ND	0
46225	2015-05-08T00:00:00	ND	ND	ND	ND	ND	ND	ND	ND	ND	ND	ND	0
46226	2015-05-08T01:00:00	ND	ND	ND	ND	ND	ND	ND	ND	ND	ND	ND	0
46227	2015-05-08T02:00:00	ND	ND	ND	ND	ND	ND	ND	ND	ND	ND	ND	0
46228	2015-05-08T03:00:00	ND	ND	ND	ND	ND	ND	ND	ND	ND	ND	ND	0
46229	2015-05-08T04:00:00	ND	ND	ND	ND	ND	ND	ND	ND	ND	ND	ND	0
46230	2015-05-08T05:00:00	ND	ND	ND	ND	ND	ND	ND	ND	ND	ND	ND	0
46231	2015-05-08T06:00:00	ND	ND	ND	ND	ND	ND	ND	ND	ND	ND	ND	0
46232	2015-05-08T07:00:00	ND	ND	ND	ND	ND	ND	ND	ND	ND	ND	ND	0
46233	2015-05-08T08:00:00	ND	ND	ND	ND	ND	ND	ND	ND	ND	ND	ND	0
46234	2015-05-08T09:00:00	ND	ND	ND	ND	ND	ND	ND	ND	ND	ND	ND	0
46235	2015-05-08T10:00:00	ND	ND	ND	ND	ND	ND	ND	ND	ND	ND	ND	0
46236	2015-05-08T11:00:00	ND	ND	ND	ND	ND	ND	ND	ND	ND	ND	ND	0
46237	2015-05-08T12:00:00	ND	ND	ND	ND	ND	ND	ND	ND	ND	ND	ND	0
46238	2015-05-08T13:00:00	ND	ND	ND	ND	ND	ND	ND	ND	ND	ND	ND	0
46239	2015-05-08T14:00:00	ND	ND	ND	ND	ND	ND	ND	ND	ND	ND	ND	0
46240	2015-05-08T15:00:00	ND	ND	ND	ND	ND	ND	ND	ND	ND	ND	ND	0
46241	2015-05-08T16:00:00	ND	ND	ND	ND	ND	ND	ND	ND	ND	ND	ND	0
46242	2015-05-08T17:00:00	ND	ND	ND	ND	ND	ND	ND	ND	ND	ND	ND	0
46243	2015-05-08T18:00:00	ND	ND	ND	ND	ND	ND	ND	ND	ND	ND	ND	0
46244	2015-05-08T19:00:00	ND	ND	ND	ND	ND	ND	ND	ND	ND	ND	ND	0
46245	2015-05-08T20:00:00	ND	ND	ND	ND	ND	ND	ND	ND	ND	ND	ND	0
46246	2015-05-08T21:00:00	ND	ND	ND	ND	ND	ND	ND	ND	ND	ND	ND	0
46247	2015-05-08T22:00:00	ND	ND	ND	ND	ND	ND	ND	ND	ND	ND	ND	0
46248	2015-05-08T23:00:00	ND	ND	ND	ND	ND	ND	ND	ND	ND	ND	ND	0
46249	2015-05-09T00:00:00	ND	ND	ND	ND	ND	ND	ND	ND	ND	ND	ND	0
46250	2015-05-09T01:00:00	ND	ND	ND	ND	ND	ND	ND	ND	ND	ND	ND	0
46251	2015-05-09T02:00:00	ND	ND	ND	ND	ND	ND	ND	ND	ND	ND	ND	0
46252	2015-05-09T03:00:00	ND	ND	ND	ND	ND	ND	ND	ND	ND	ND	ND	0
46253	2015-05-09T04:00:00	ND	ND	ND	ND	ND	ND	ND	ND	ND	ND	ND	0
46254	2015-05-09T05:00:00	ND	ND	ND	ND	ND	ND	ND	ND	ND	ND	ND	0
46255	2015-05-09T06:00:00	ND	ND	ND	ND	ND	ND	ND	ND	ND	ND	ND	0
46256	2015-05-09T07:00:00	ND	ND	ND	ND	ND	ND	ND	ND	ND	ND	ND	0
46257	2015-05-09T08:00:00	ND	ND	ND	ND	ND	ND	ND	ND	ND	ND	ND	0
46258	2015-05-09T09:00:00	ND	ND	ND	ND	ND	ND	ND	ND	ND	ND	ND	0
46259	2015-05-09T10:00:00	ND	ND	ND	ND	ND	ND	ND	ND	ND	ND	ND	0
46260	2015-05-09T11:00:00	ND	ND	ND	ND	ND	ND	ND	ND	ND	ND	ND	0
46261	2015-05-09T12:00:00	ND	ND	ND	ND	ND	ND	ND	ND	ND	ND	ND	0
46262	2015-05-09T13:00:00	ND	ND	ND	ND	ND	ND	ND	ND	ND	ND	ND	0
46263	2015-05-09T14:00:00	ND	ND	ND	ND	ND	ND	ND	ND	ND	ND	ND	0
46264	2015-05-09T15:00:00	ND	ND	ND	ND	ND	ND	ND	ND	ND	ND	ND	0
46265	2015-05-09T16:00:00	ND	ND	ND	ND	ND	ND	ND	ND	ND	ND	ND	0
46266	2015-05-09T17:00:00	ND	ND	ND	ND	ND	ND	ND	ND	ND	ND	ND	0
46267	2015-05-09T18:00:00	ND	ND	ND	ND	ND	ND	ND	ND	ND	ND	ND	0
46268	2015-05-09T19:00:00	ND	ND	ND	ND	ND	ND	ND	ND	ND	ND	ND	0
46269	2015-05-09T20:00:00	ND	ND	ND	ND	ND	ND	ND	ND	ND	ND	ND	0
46270	2015-05-09T21:00:00	ND	ND	ND	ND	ND	ND	ND	ND	ND	ND	ND	0
46271	2015-05-09T22:00:00	ND	ND	ND	ND	ND	ND	ND	ND	ND	ND	ND	0
46272	2015-05-09T23:00:00	ND	ND	ND	ND	ND	ND	ND	ND	ND	ND	ND	0
46273	2015-05-10T00:00:00	ND	ND	ND	ND	ND	ND	ND	ND	ND	ND	ND	0
46274	2015-05-10T01:00:00	ND	ND	ND	ND	ND	ND	ND	ND	ND	ND	ND	0
46275	2015-05-10T02:00:00	ND	ND	ND	ND	ND	ND	ND	ND	ND	ND	ND	0
46276	2015-05-10T03:00:00	ND	ND	ND	ND	ND	ND	ND	ND	ND	ND	ND	0
46277	2015-05-10T04:00:00	ND	ND	ND	ND	ND	ND	ND	ND	ND	ND	ND	44.2
46278	2015-05-10T05:00:00	ND	ND	ND	ND	ND	ND	ND	ND	ND	ND	ND	0.25
46279	2015-05-10T06:00:00	ND	ND	ND	ND	ND	ND	ND	ND	ND	ND	ND	0
46280	2015-05-10T07:00:00	ND	ND	ND	ND	ND	ND	ND	ND	ND	ND	ND	0
46281	2015-05-10T08:00:00	ND	ND	ND	ND	ND	ND	ND	ND	ND	ND	ND	0.25
46282	2015-05-10T09:00:00	ND	ND	ND	ND	ND	ND	ND	ND	ND	ND	ND	0
46283	2015-05-10T10:00:00	ND	ND	ND	ND	ND	ND	ND	ND	ND	ND	ND	0
46284	2015-05-10T11:00:00	ND	ND	ND	ND	ND	ND	ND	ND	ND	ND	ND	0
46285	2015-05-10T12:00:00	ND	ND	ND	ND	ND	ND	ND	ND	ND	ND	ND	0
46286	2015-05-10T13:00:00	ND	ND	ND	ND	ND	ND	ND	ND	ND	ND	ND	0
46287	2015-05-10T14:00:00	ND	ND	ND	ND	ND	ND	ND	ND	ND	ND	ND	0
46288	2015-05-10T15:00:00	ND	ND	ND	ND	ND	ND	ND	ND	ND	ND	ND	0
46289	2015-05-10T16:00:00	ND	ND	ND	ND	ND	ND	ND	ND	ND	ND	ND	0
46290	2015-05-10T17:00:00	ND	ND	ND	ND	ND	ND	ND	ND	ND	ND	ND	0
46291	2015-05-10T18:00:00	ND	ND	ND	ND	ND	ND	ND	ND	ND	ND	ND	0
46292	2015-05-10T19:00:00	ND	ND	ND	ND	ND	ND	ND	ND	ND	ND	ND	0
46293	2015-05-10T20:00:00	ND	ND	ND	ND	ND	ND	ND	ND	ND	ND	ND	0
46294	2015-05-10T21:00:00	ND	ND	ND	ND	ND	ND	ND	ND	ND	ND	ND	0
46295	2015-05-10T22:00:00	ND	ND	ND	ND	ND	ND	ND	ND	ND	ND	ND	0
46296	2015-05-10T23:00:00	ND	ND	ND	ND	ND	ND	ND	ND	ND	ND	ND	0
46297	2015-05-11T00:00:00	ND	ND	ND	ND	ND	ND	ND	ND	ND	ND	ND	0
46298	2015-05-11T01:00:00	ND	ND	ND	ND	ND	ND	ND	ND	ND	ND	ND	0
46299	2015-05-11T02:00:00	ND	ND	ND	ND	ND	ND	ND	ND	ND	ND	ND	0
46300	2015-05-11T03:00:00	ND	ND	ND	ND	ND	ND	ND	ND	ND	ND	ND	0
46301	2015-05-11T04:00:00	ND	ND	ND	ND	ND	ND	ND	ND	ND	ND	ND	0
46302	2015-05-11T05:00:00	ND	ND	ND	ND	ND	ND	ND	ND	ND	ND	ND	0
46303	2015-05-11T06:00:00	ND	ND	ND	ND	ND	ND	ND	ND	ND	ND	ND	0
46304	2015-05-11T07:00:00	ND	ND	ND	ND	ND	ND	ND	ND	ND	ND	ND	0
46305	2015-05-11T08:00:00	ND	ND	ND	ND	ND	ND	ND	ND	ND	ND	ND	0
46306	2015-05-11T09:00:00	ND	ND	ND	ND	ND	ND	ND	ND	ND	ND	ND	0
46307	2015-05-11T10:00:00	ND	ND	ND	ND	ND	ND	ND	ND	ND	ND	ND	0
46308	2015-05-11T11:00:00	ND	ND	ND	ND	ND	ND	ND	ND	ND	ND	ND	0
46309	2015-05-11T12:00:00	ND	ND	ND	ND	ND	ND	ND	ND	ND	ND	ND	0
46310	2015-05-11T13:00:00	ND	ND	ND	ND	ND	ND	ND	ND	ND	ND	ND	0
46311	2015-05-11T14:00:00	ND	ND	ND	ND	ND	ND	ND	ND	ND	ND	ND	0
46312	2015-05-11T15:00:00	ND	ND	ND	ND	ND	ND	ND	ND	ND	ND	ND	0
46313	2015-05-11T16:00:00	ND	ND	ND	ND	ND	ND	ND	ND	ND	ND	ND	0
46314	2015-05-11T17:00:00	ND	ND	ND	ND	ND	ND	ND	ND	ND	ND	ND	0
46315	2015-05-11T18:00:00	ND	ND	ND	ND	ND	ND	ND	ND	ND	ND	ND	0
46316	2015-05-11T19:00:00	ND	ND	ND	ND	ND	ND	ND	ND	ND	ND	ND	0
46317	2015-05-11T20:00:00	ND	ND	ND	ND	ND	ND	ND	ND	ND	ND	ND	0
46318	2015-05-11T21:00:00	ND	ND	ND	ND	ND	ND	ND	ND	ND	ND	ND	0
46319	2015-05-11T22:00:00	ND	ND	ND	ND	ND	ND	ND	ND	ND	ND	ND	0
46320	2015-05-11T23:00:00	ND	ND	ND	ND	ND	ND	ND	ND	ND	ND	ND	0
46321	2015-05-12T00:00:00	ND	ND	ND	ND	ND	ND	ND	ND	ND	ND	ND	0
46322	2015-05-12T01:00:00	ND	ND	ND	ND	ND	ND	ND	ND	ND	ND	ND	0
46323	2015-05-12T02:00:00	ND	ND	ND	ND	ND	ND	ND	ND	ND	ND	ND	0
46324	2015-05-12T03:00:00	ND	ND	ND	ND	ND	ND	ND	ND	ND	ND	ND	0
46325	2015-05-12T04:00:00	ND	ND	ND	ND	ND	ND	ND	ND	ND	ND	ND	0
46326	2015-05-12T05:00:00	ND	ND	ND	ND	ND	ND	ND	ND	ND	ND	ND	0
46327	2015-05-12T06:00:00	ND	ND	ND	ND	ND	ND	ND	ND	ND	ND	ND	0
46328	2015-05-12T07:00:00	ND	ND	ND	ND	ND	ND	ND	ND	ND	ND	ND	0
46329	2015-05-12T08:00:00	ND	ND	ND	ND	ND	ND	ND	ND	ND	ND	ND	0
46330	2015-05-12T09:00:00	ND	ND	ND	ND	ND	ND	ND	ND	ND	ND	ND	0
46331	2015-05-12T10:00:00	ND	ND	ND	ND	ND	ND	ND	ND	ND	ND	ND	0
46332	2015-05-12T11:00:00	ND	ND	ND	ND	ND	ND	ND	ND	ND	ND	ND	0
46333	2015-05-12T12:00:00	ND	ND	ND	ND	ND	ND	ND	ND	ND	ND	ND	0
46334	2015-05-12T13:00:00	ND	ND	ND	ND	ND	ND	ND	ND	ND	ND	ND	0
46335	2015-05-12T14:00:00	ND	ND	ND	ND	ND	ND	ND	ND	ND	ND	ND	0
46336	2015-05-12T15:00:00	ND	ND	ND	ND	ND	ND	ND	ND	ND	ND	ND	0
46337	2015-05-12T16:00:00	ND	ND	ND	ND	ND	ND	ND	ND	ND	ND	ND	0
46338	2015-05-12T17:00:00	ND	ND	ND	ND	ND	ND	ND	ND	ND	ND	ND	0
46339	2015-05-12T18:00:00	ND	ND	ND	ND	ND	ND	ND	ND	ND	ND	ND	0
46340	2015-05-12T19:00:00	ND	ND	ND	ND	ND	ND	ND	ND	ND	ND	ND	0
46341	2015-05-12T20:00:00	ND	ND	ND	ND	ND	ND	ND	ND	ND	ND	ND	0
46342	2015-05-12T21:00:00	ND	ND	ND	ND	ND	ND	ND	ND	ND	ND	ND	0
46343	2015-05-12T22:00:00	ND	ND	ND	ND	ND	ND	ND	ND	ND	ND	ND	0
46344	2015-05-12T23:00:00	ND	ND	ND	ND	ND	ND	ND	ND	ND	ND	ND	0
46345	2015-05-13T00:00:00	ND	ND	ND	ND	ND	ND	ND	ND	ND	ND	ND	0
46346	2015-05-13T01:00:00	ND	ND	ND	ND	ND	ND	ND	ND	ND	ND	ND	0
46347	2015-05-13T02:00:00	ND	ND	ND	ND	ND	ND	ND	ND	ND	ND	ND	0
46348	2015-05-13T03:00:00	ND	ND	ND	ND	ND	ND	ND	ND	ND	ND	ND	0
46349	2015-05-13T04:00:00	ND	ND	ND	ND	ND	ND	ND	ND	ND	ND	ND	0
46350	2015-05-13T05:00:00	ND	ND	ND	ND	ND	ND	ND	ND	ND	ND	ND	0
46351	2015-05-13T06:00:00	ND	ND	ND	ND	ND	ND	ND	ND	ND	ND	ND	0
46352	2015-05-13T07:00:00	ND	ND	ND	ND	ND	ND	ND	ND	ND	ND	ND	0
46353	2015-05-13T08:00:00	ND	ND	ND	ND	ND	ND	ND	ND	ND	ND	ND	0
46354	2015-05-13T09:00:00	ND	ND	ND	ND	ND	ND	ND	ND	ND	ND	ND	0
46355	2015-05-13T10:00:00	ND	ND	ND	ND	ND	ND	ND	ND	ND	ND	ND	0
46356	2015-05-13T11:00:00	ND	ND	ND	ND	ND	ND	ND	ND	ND	ND	ND	ND
46357	2015-05-13T12:00:00	ND	ND	ND	ND	ND	ND	ND	ND	ND	ND	ND	0
46358	2015-05-13T13:00:00	ND	ND	ND	ND	ND	ND	ND	ND	ND	ND	ND	0
46359	2015-05-13T14:00:00	ND	ND	ND	ND	ND	ND	ND	ND	ND	ND	ND	0
46360	2015-05-13T15:00:00	ND	ND	ND	ND	ND	ND	ND	ND	ND	ND	ND	0
46361	2015-05-13T16:00:00	ND	ND	ND	ND	ND	ND	ND	ND	ND	ND	ND	0
46362	2015-05-13T17:00:00	ND	ND	ND	ND	ND	ND	ND	ND	ND	ND	ND	0
46363	2015-05-13T18:00:00	ND	ND	ND	ND	ND	ND	ND	ND	ND	ND	ND	0
46364	2015-05-13T19:00:00	ND	ND	ND	ND	ND	ND	ND	ND	ND	ND	ND	0
46365	2015-05-13T20:00:00	ND	ND	ND	ND	ND	ND	ND	ND	ND	ND	ND	0
46366	2015-05-13T21:00:00	ND	ND	ND	ND	ND	ND	ND	ND	ND	ND	ND	0
46367	2015-05-13T22:00:00	ND	ND	ND	ND	ND	ND	ND	ND	ND	ND	ND	0
46368	2015-05-13T23:00:00	ND	ND	ND	ND	ND	ND	ND	ND	ND	ND	ND	0
46369	2015-05-14T00:00:00	ND	ND	ND	ND	ND	ND	ND	ND	ND	ND	ND	0
46370	2015-05-14T01:00:00	ND	ND	ND	ND	ND	ND	ND	ND	ND	ND	ND	0
46371	2015-05-14T02:00:00	ND	ND	ND	ND	ND	ND	ND	ND	ND	ND	ND	0
46372	2015-05-14T03:00:00	ND	ND	ND	ND	ND	ND	ND	ND	ND	ND	ND	0
46373	2015-05-14T04:00:00	ND	ND	ND	ND	ND	ND	ND	ND	ND	ND	ND	0
46374	2015-05-14T05:00:00	ND	ND	ND	ND	ND	ND	ND	ND	ND	ND	ND	0
46375	2015-05-14T06:00:00	ND	ND	ND	ND	ND	ND	ND	ND	ND	ND	ND	0
46376	2015-05-14T07:00:00	ND	ND	ND	ND	ND	ND	ND	ND	ND	ND	ND	0
46377	2015-05-14T08:00:00	ND	ND	ND	ND	ND	ND	ND	ND	ND	ND	ND	0
46378	2015-05-14T09:00:00	ND	ND	ND	ND	ND	ND	ND	ND	ND	ND	ND	0
46379	2015-05-14T10:00:00	ND	ND	ND	ND	ND	ND	ND	ND	ND	ND	ND	0
46380	2015-05-14T11:00:00	35.5	ND	ND	ND	ND	ND	ND	ND	ND	ND	ND	0
46381	2015-05-14T12:00:00	ND	ND	ND	ND	ND	ND	ND	ND	ND	ND	ND	ND
46382	2015-05-14T13:00:00	95.6	ND	ND	ND	ND	ND	ND	ND	ND	ND	ND	0
46383	2015-05-14T14:00:00	87.2	ND	ND	ND	ND	ND	ND	ND	ND	ND	ND	0
46384	2015-05-14T15:00:00	70.8	ND	ND	ND	ND	ND	ND	ND	ND	ND	ND	0
46385	2015-05-14T16:00:00	34	ND	ND	ND	ND	ND	ND	ND	ND	ND	ND	0
46386	2015-05-14T17:00:00	38.7	ND	ND	ND	ND	ND	ND	ND	ND	ND	ND	0
46387	2015-05-14T18:00:00	40.3	ND	ND	ND	ND	ND	ND	ND	ND	ND	ND	0
46388	2015-05-14T19:00:00	44.4	ND	ND	ND	ND	ND	ND	ND	ND	ND	ND	0
46389	2015-05-14T20:00:00	49.7	ND	ND	ND	ND	ND	ND	ND	ND	ND	ND	0
46390	2015-05-14T21:00:00	48.2	ND	ND	ND	ND	ND	ND	ND	ND	ND	ND	0
46391	2015-05-14T22:00:00	26.5	ND	ND	ND	ND	ND	ND	ND	ND	ND	ND	0
46392	2015-05-14T23:00:00	11.5	ND	ND	ND	ND	ND	ND	ND	ND	ND	ND	0
46393	2015-05-15T00:00:00	30.6	ND	ND	ND	ND	ND	ND	ND	ND	ND	ND	2.03
46394	2015-05-15T01:00:00	17.5	ND	ND	ND	ND	ND	ND	ND	ND	ND	ND	11.43
46395	2015-05-15T02:00:00	11.7	ND	ND	ND	ND	ND	ND	ND	ND	ND	ND	0
46396	2015-05-15T03:00:00	17.1	ND	ND	ND	ND	ND	ND	ND	ND	ND	ND	0.25
46397	2015-05-15T04:00:00	23.8	ND	ND	ND	ND	ND	ND	ND	ND	ND	ND	0
46398	2015-05-15T05:00:00	42.1	ND	ND	ND	ND	ND	ND	ND	ND	ND	ND	0
46399	2015-05-15T06:00:00	40.6	ND	ND	ND	ND	ND	ND	ND	ND	ND	ND	0
46400	2015-05-15T07:00:00	46.7	ND	ND	ND	ND	ND	ND	ND	ND	ND	ND	0
46401	2015-05-15T08:00:00	68.1	ND	ND	ND	ND	ND	ND	ND	ND	ND	ND	0
46402	2015-05-15T09:00:00	79.7	ND	ND	ND	ND	ND	ND	ND	ND	ND	ND	0
46403	2015-05-15T10:00:00	85.8	ND	ND	ND	ND	ND	ND	ND	ND	ND	ND	0
46404	2015-05-15T11:00:00	75	ND	ND	ND	ND	ND	ND	ND	ND	ND	ND	0
46405	2015-05-15T12:00:00	58.1	ND	ND	ND	ND	ND	ND	ND	ND	ND	ND	0
46406	2015-05-15T13:00:00	53.2	ND	ND	ND	ND	ND	ND	ND	ND	ND	ND	0
46407	2015-05-15T14:00:00	58.8	ND	ND	ND	ND	ND	ND	ND	ND	ND	ND	0
46408	2015-05-15T15:00:00	54.9	ND	ND	ND	ND	ND	ND	ND	ND	ND	ND	0
46409	2015-05-15T16:00:00	51.2	ND	ND	ND	ND	ND	ND	ND	ND	ND	ND	0
46410	2015-05-15T17:00:00	33.4	ND	ND	ND	ND	ND	ND	ND	ND	ND	ND	0
46411	2015-05-15T18:00:00	31.8	ND	ND	ND	ND	ND	ND	ND	ND	ND	ND	0
46412	2015-05-15T19:00:00	36.5	ND	ND	ND	ND	ND	ND	ND	ND	ND	ND	0
46413	2015-05-15T20:00:00	34.5	ND	ND	ND	ND	ND	ND	ND	ND	ND	ND	0
46414	2015-05-15T21:00:00	37.1	ND	ND	ND	ND	ND	ND	ND	ND	ND	ND	0
46415	2015-05-15T22:00:00	25.2	ND	ND	ND	ND	ND	ND	ND	ND	ND	ND	0
46416	2015-05-15T23:00:00	48.2	ND	ND	ND	ND	ND	ND	ND	ND	ND	ND	0
46417	2015-05-16T00:00:00	46.8	ND	ND	ND	ND	ND	ND	ND	ND	ND	ND	0
46418	2015-05-16T01:00:00	58.6	ND	ND	ND	ND	ND	ND	ND	ND	ND	ND	0
46419	2015-05-16T02:00:00	48.5	ND	ND	ND	ND	ND	ND	ND	ND	ND	ND	0
46420	2015-05-16T03:00:00	48.7	ND	ND	ND	ND	ND	ND	ND	ND	ND	ND	0
46421	2015-05-16T04:00:00	45.3	ND	ND	ND	ND	ND	ND	ND	ND	ND	ND	0
46422	2015-05-16T05:00:00	39	ND	ND	ND	ND	ND	ND	ND	ND	ND	ND	0
46423	2015-05-16T06:00:00	37.5	ND	ND	ND	ND	ND	ND	ND	ND	ND	ND	0
46424	2015-05-16T07:00:00	40.5	ND	ND	ND	ND	ND	ND	ND	ND	ND	ND	0
46425	2015-05-16T08:00:00	49	ND	ND	ND	ND	ND	ND	ND	ND	ND	ND	0
46426	2015-05-16T09:00:00	64.1	ND	ND	ND	ND	ND	ND	ND	ND	ND	ND	0
46427	2015-05-16T10:00:00	68.1	ND	ND	ND	ND	ND	ND	ND	ND	ND	ND	0
46428	2015-05-16T11:00:00	66.9	ND	ND	ND	ND	ND	ND	ND	ND	ND	ND	0
46429	2015-05-16T12:00:00	63.6	ND	ND	ND	ND	ND	ND	ND	ND	ND	ND	0
46430	2015-05-16T13:00:00	70.7	ND	ND	ND	ND	ND	ND	ND	ND	ND	ND	0
46431	2015-05-16T14:00:00	71.2	ND	ND	ND	ND	ND	ND	ND	ND	ND	ND	0
46432	2015-05-16T15:00:00	83.5	ND	ND	ND	ND	ND	ND	ND	ND	ND	ND	0
46433	2015-05-16T16:00:00	48.1	ND	ND	ND	ND	ND	ND	ND	ND	ND	ND	0
46434	2015-05-16T17:00:00	21.3	ND	ND	ND	ND	ND	ND	ND	ND	ND	ND	0
46435	2015-05-16T18:00:00	21.1	ND	ND	ND	ND	ND	ND	ND	ND	ND	ND	0
46436	2015-05-16T19:00:00	23.4	ND	ND	ND	ND	ND	ND	ND	ND	ND	ND	0
46437	2015-05-16T20:00:00	19.1	ND	ND	ND	ND	ND	ND	ND	ND	ND	ND	0
46438	2015-05-16T21:00:00	19.7	ND	ND	ND	ND	ND	ND	ND	ND	ND	ND	0
46439	2015-05-16T22:00:00	33.5	ND	ND	ND	ND	ND	ND	ND	ND	ND	ND	0
46440	2015-05-16T23:00:00	33.8	ND	ND	ND	ND	ND	ND	ND	ND	ND	ND	0
46441	2015-05-17T00:00:00	32.7	ND	ND	ND	ND	ND	ND	ND	ND	ND	ND	0
46442	2015-05-17T01:00:00	30.9	ND	ND	ND	ND	ND	ND	ND	ND	ND	ND	0
46443	2015-05-17T02:00:00	47.8	ND	ND	ND	ND	ND	ND	ND	ND	ND	ND	0
46444	2015-05-17T03:00:00	48.3	ND	ND	ND	ND	ND	ND	ND	ND	ND	ND	1.52
46445	2015-05-17T04:00:00	26.6	ND	ND	ND	ND	ND	ND	ND	ND	ND	ND	0.25
46446	2015-05-17T05:00:00	10.6	ND	ND	ND	ND	ND	ND	ND	ND	ND	ND	0
46447	2015-05-17T06:00:00	18	ND	ND	ND	ND	ND	ND	ND	ND	ND	ND	0
46448	2015-05-17T07:00:00	24.7	ND	ND	ND	ND	ND	ND	ND	ND	ND	ND	1.02
46449	2015-05-17T08:00:00	22.3	ND	ND	ND	ND	ND	ND	ND	ND	ND	ND	1.02
46450	2015-05-17T09:00:00	29.8	ND	ND	ND	ND	ND	ND	ND	ND	ND	ND	0
46451	2015-05-17T10:00:00	37.8	ND	ND	ND	ND	ND	ND	ND	ND	ND	ND	0
46452	2015-05-17T11:00:00	36.6	ND	ND	ND	ND	ND	ND	ND	ND	ND	ND	0
46453	2015-05-17T12:00:00	33.4	ND	ND	ND	ND	ND	ND	ND	ND	ND	ND	0
46454	2015-05-17T13:00:00	36.7	ND	ND	ND	ND	ND	ND	ND	ND	ND	ND	0
46455	2015-05-17T14:00:00	29.3	ND	ND	ND	ND	ND	ND	ND	ND	ND	ND	0
46456	2015-05-17T15:00:00	33.2	ND	ND	ND	ND	ND	ND	ND	ND	ND	ND	0
46457	2015-05-17T16:00:00	17.1	ND	ND	ND	ND	ND	ND	ND	ND	ND	ND	0
46458	2015-05-17T17:00:00	17	ND	ND	ND	ND	ND	ND	ND	ND	ND	ND	0
46459	2015-05-17T18:00:00	16	ND	ND	ND	ND	ND	ND	ND	ND	ND	ND	0
46460	2015-05-17T19:00:00	18.3	ND	ND	ND	ND	ND	ND	ND	ND	ND	ND	0
46461	2015-05-17T20:00:00	20.1	ND	ND	ND	ND	ND	ND	ND	ND	ND	ND	0
46462	2015-05-17T21:00:00	16.8	ND	ND	ND	ND	ND	ND	ND	ND	ND	ND	0
46463	2015-05-17T22:00:00	18.1	ND	ND	ND	ND	ND	ND	ND	ND	ND	ND	0
46464	2015-05-17T23:00:00	20.4	ND	ND	ND	ND	ND	ND	ND	ND	ND	ND	0
46465	2015-05-18T00:00:00	23.8	ND	ND	ND	ND	ND	ND	ND	ND	ND	ND	0
46466	2015-05-18T01:00:00	26.1	ND	ND	ND	ND	ND	ND	ND	ND	ND	ND	0
46467	2015-05-18T02:00:00	33	ND	ND	ND	ND	ND	ND	ND	ND	ND	ND	0
46468	2015-05-18T03:00:00	38.3	ND	ND	ND	ND	ND	ND	ND	ND	ND	ND	0
46469	2015-05-18T04:00:00	34.1	ND	ND	ND	ND	ND	ND	ND	ND	ND	ND	0
46470	2015-05-18T05:00:00	37.4	ND	ND	ND	ND	ND	ND	ND	ND	ND	ND	0
46471	2015-05-18T06:00:00	28.2	ND	ND	ND	ND	ND	ND	ND	ND	ND	ND	0
46472	2015-05-18T07:00:00	35.9	ND	ND	ND	ND	ND	ND	ND	ND	ND	ND	0
46473	2015-05-18T08:00:00	45.9	ND	ND	ND	ND	ND	ND	ND	ND	ND	ND	0
46474	2015-05-18T09:00:00	56	ND	ND	ND	ND	ND	ND	ND	ND	ND	ND	0
46475	2015-05-18T10:00:00	72.6	ND	ND	ND	ND	ND	ND	ND	ND	ND	ND	0
46476	2015-05-18T11:00:00	43.6	ND	ND	ND	ND	ND	ND	ND	ND	ND	ND	0
46477	2015-05-18T12:00:00	33.5	ND	ND	ND	ND	ND	ND	ND	ND	ND	ND	0
46478	2015-05-18T13:00:00	30.7	ND	ND	ND	ND	ND	ND	ND	ND	ND	ND	0
46479	2015-05-18T14:00:00	31.2	ND	ND	ND	ND	ND	ND	ND	ND	ND	ND	0
46480	2015-05-18T15:00:00	33.9	ND	ND	ND	ND	ND	ND	ND	ND	ND	ND	0
46481	2015-05-18T16:00:00	38.1	ND	ND	ND	ND	ND	ND	ND	ND	ND	ND	0
46482	2015-05-18T17:00:00	25.4	ND	ND	ND	ND	ND	ND	ND	ND	ND	ND	0
46483	2015-05-18T18:00:00	24.1	ND	ND	ND	ND	ND	ND	ND	ND	ND	ND	0
46484	2015-05-18T19:00:00	30.5	ND	ND	ND	ND	ND	ND	ND	ND	ND	ND	0
46485	2015-05-18T20:00:00	24.7	ND	ND	ND	ND	ND	ND	ND	ND	ND	ND	0
46486	2015-05-18T21:00:00	38.9	ND	ND	ND	ND	ND	ND	ND	ND	ND	ND	0
46487	2015-05-18T22:00:00	35.3	ND	ND	ND	ND	ND	ND	ND	ND	ND	ND	0
46488	2015-05-18T23:00:00	34.3	ND	ND	ND	ND	ND	ND	ND	ND	ND	ND	0
46489	2015-05-19T00:00:00	33.2	ND	ND	ND	ND	ND	ND	ND	ND	ND	ND	0
46490	2015-05-19T01:00:00	35.7	ND	ND	ND	ND	ND	ND	ND	ND	ND	ND	0
46491	2015-05-19T02:00:00	29.4	ND	ND	ND	ND	ND	ND	ND	ND	ND	ND	0
46492	2015-05-19T03:00:00	25.6	ND	ND	ND	ND	ND	ND	ND	ND	ND	ND	0
46493	2015-05-19T04:00:00	18.8	ND	ND	ND	ND	ND	ND	ND	ND	ND	ND	0
46494	2015-05-19T05:00:00	27.1	ND	ND	ND	ND	ND	ND	ND	ND	ND	ND	0
46495	2015-05-19T06:00:00	42.7	ND	ND	ND	ND	ND	ND	ND	ND	ND	ND	0
46496	2015-05-19T07:00:00	69.5	ND	ND	ND	ND	ND	ND	ND	ND	ND	ND	0
46497	2015-05-19T08:00:00	84.4	ND	ND	ND	ND	ND	ND	ND	ND	ND	ND	0
46498	2015-05-19T09:00:00	74.6	ND	ND	ND	ND	ND	ND	ND	ND	ND	ND	0
46499	2015-05-19T10:00:00	68.8	ND	ND	ND	ND	ND	ND	ND	ND	ND	ND	0
46500	2015-05-19T11:00:00	63.7	ND	ND	ND	ND	ND	ND	ND	ND	ND	ND	0
46501	2015-05-19T12:00:00	45.4	ND	ND	ND	ND	ND	ND	ND	ND	ND	ND	0
46502	2015-05-19T13:00:00	51.8	ND	ND	ND	ND	ND	ND	ND	ND	ND	ND	0
46503	2015-05-19T14:00:00	57.5	ND	ND	ND	ND	ND	ND	ND	ND	ND	ND	0
46504	2015-05-19T15:00:00	58.3	ND	ND	ND	ND	ND	ND	ND	ND	ND	ND	0
46505	2015-05-19T16:00:00	39	ND	ND	ND	ND	ND	ND	ND	ND	ND	ND	0
46506	2015-05-19T17:00:00	25.9	ND	ND	ND	ND	ND	ND	ND	ND	ND	ND	0
46507	2015-05-19T18:00:00	24.8	ND	ND	ND	ND	ND	ND	ND	ND	ND	ND	0
46508	2015-05-19T19:00:00	26.3	ND	ND	ND	ND	ND	ND	ND	ND	ND	ND	0
46509	2015-05-19T20:00:00	22	ND	ND	ND	ND	ND	ND	ND	ND	ND	ND	0
46510	2015-05-19T21:00:00	20.7	ND	ND	ND	ND	ND	ND	ND	ND	ND	ND	0
46511	2015-05-19T22:00:00	21.6	ND	ND	ND	ND	ND	ND	ND	ND	ND	ND	0
46512	2015-05-19T23:00:00	51.4	ND	ND	ND	ND	ND	ND	ND	ND	ND	ND	0
46513	2015-05-20T00:00:00	50.7	ND	ND	ND	ND	ND	ND	ND	ND	ND	ND	0
46514	2015-05-20T01:00:00	41.9	ND	ND	ND	ND	ND	ND	ND	ND	ND	ND	0
46515	2015-05-20T02:00:00	38.4	ND	ND	ND	ND	ND	ND	ND	ND	ND	ND	0
46516	2015-05-20T03:00:00	35.7	ND	ND	ND	ND	ND	ND	ND	ND	ND	ND	0
46517	2015-05-20T04:00:00	24.6	ND	ND	ND	ND	ND	ND	ND	ND	ND	ND	0
46518	2015-05-20T05:00:00	31.8	ND	ND	ND	ND	ND	ND	ND	ND	ND	ND	0
46519	2015-05-20T06:00:00	40.4	ND	ND	ND	ND	ND	ND	ND	ND	ND	ND	0
46520	2015-05-20T07:00:00	47.4	ND	ND	ND	ND	ND	ND	ND	ND	ND	ND	0
46521	2015-05-20T08:00:00	58.5	ND	ND	ND	ND	ND	ND	ND	ND	ND	ND	12.19
46522	2015-05-20T09:00:00	40.4	ND	ND	ND	ND	ND	ND	ND	ND	ND	ND	1.78
46523	2015-05-20T10:00:00	15.8	ND	ND	ND	ND	ND	ND	ND	ND	ND	ND	0
46524	2015-05-20T11:00:00	28.5	ND	ND	ND	ND	ND	ND	ND	ND	ND	ND	0
46525	2015-05-20T12:00:00	41.3	ND	ND	ND	ND	ND	ND	ND	ND	ND	ND	0
46526	2015-05-20T13:00:00	53.6	ND	ND	ND	ND	ND	ND	ND	ND	ND	ND	0
46527	2015-05-20T14:00:00	43.4	ND	ND	ND	ND	ND	ND	ND	ND	ND	ND	0
46528	2015-05-20T15:00:00	42.1	ND	ND	ND	ND	ND	ND	ND	ND	ND	ND	0
46529	2015-05-20T16:00:00	29.9	ND	ND	ND	ND	ND	ND	ND	ND	ND	ND	0
46530	2015-05-20T17:00:00	29.3	ND	ND	ND	ND	ND	ND	ND	ND	ND	ND	0
46531	2015-05-20T18:00:00	32	ND	ND	ND	ND	ND	ND	ND	ND	ND	ND	0
46532	2015-05-20T19:00:00	41.2	ND	ND	ND	ND	ND	ND	ND	ND	ND	ND	0
46533	2015-05-20T20:00:00	33.1	ND	ND	ND	ND	ND	ND	ND	ND	ND	ND	0
46534	2015-05-20T21:00:00	28.1	ND	ND	ND	ND	ND	ND	ND	ND	ND	ND	0
46535	2015-05-20T22:00:00	38.8	ND	ND	ND	ND	ND	ND	ND	ND	ND	ND	0
46536	2015-05-20T23:00:00	23.9	ND	ND	ND	ND	ND	ND	ND	ND	ND	ND	0
46537	2015-05-21T00:00:00	12.1	ND	ND	ND	ND	ND	ND	ND	ND	ND	ND	0
46538	2015-05-21T01:00:00	16.4	ND	ND	ND	ND	ND	ND	ND	ND	ND	ND	0
46539	2015-05-21T02:00:00	42.5	ND	ND	ND	ND	ND	ND	ND	ND	ND	ND	0
46540	2015-05-21T03:00:00	22.8	ND	ND	ND	ND	ND	ND	ND	ND	ND	ND	0
46541	2015-05-21T04:00:00	15	ND	ND	ND	ND	ND	ND	ND	ND	ND	ND	0
46542	2015-05-21T05:00:00	18.8	ND	ND	ND	ND	ND	ND	ND	ND	ND	ND	0
46543	2015-05-21T06:00:00	22.1	ND	ND	ND	ND	ND	ND	ND	ND	ND	ND	0
46544	2015-05-21T07:00:00	41.6	ND	ND	ND	ND	ND	ND	ND	ND	ND	ND	0
46545	2015-05-21T08:00:00	56.2	ND	ND	ND	ND	ND	ND	ND	ND	ND	ND	0
46546	2015-05-21T09:00:00	71.1	ND	ND	ND	ND	ND	ND	ND	ND	ND	ND	0
46547	2015-05-21T10:00:00	65.6	ND	ND	ND	ND	ND	ND	ND	ND	ND	ND	0
46548	2015-05-21T11:00:00	52.2	ND	ND	ND	ND	ND	ND	ND	ND	ND	ND	0
46549	2015-05-21T12:00:00	40.6	ND	ND	ND	ND	ND	ND	ND	ND	ND	ND	0
46550	2015-05-21T13:00:00	26.6	ND	ND	ND	ND	ND	ND	ND	ND	ND	ND	0
46551	2015-05-21T14:00:00	25.1	ND	ND	ND	ND	ND	ND	ND	ND	ND	ND	0
46552	2015-05-21T15:00:00	24.7	ND	ND	ND	ND	ND	ND	ND	ND	ND	ND	3.81
46553	2015-05-21T16:00:00	28.7	ND	ND	ND	ND	ND	ND	ND	ND	ND	ND	0.76
46554	2015-05-21T17:00:00	30.7	ND	ND	ND	ND	ND	ND	ND	ND	ND	ND	0
46555	2015-05-21T18:00:00	35.2	ND	ND	ND	ND	ND	ND	ND	ND	ND	ND	0
46556	2015-05-21T19:00:00	64.4	ND	ND	ND	ND	ND	ND	ND	ND	ND	ND	0
46557	2015-05-21T20:00:00	75.5	ND	ND	ND	ND	ND	ND	ND	ND	ND	ND	0
46558	2015-05-21T21:00:00	58.7	ND	ND	ND	ND	ND	ND	ND	ND	ND	ND	0
46559	2015-05-21T22:00:00	34.2	ND	ND	ND	ND	ND	ND	ND	ND	ND	ND	0
46560	2015-05-21T23:00:00	21.1	ND	ND	ND	ND	ND	ND	ND	ND	ND	ND	0
46561	2015-05-22T00:00:00	25.4	ND	ND	ND	ND	ND	ND	ND	ND	ND	ND	0
46562	2015-05-22T01:00:00	30	ND	ND	ND	ND	ND	ND	ND	ND	ND	ND	0
46563	2015-05-22T02:00:00	22.7	ND	ND	ND	ND	ND	ND	ND	ND	ND	ND	0
46564	2015-05-22T03:00:00	20.6	ND	ND	ND	ND	ND	ND	ND	ND	ND	ND	0
46565	2015-05-22T04:00:00	18.4	ND	ND	ND	ND	ND	ND	ND	ND	ND	ND	0
46566	2015-05-22T05:00:00	31.1	ND	ND	ND	ND	ND	ND	ND	ND	ND	ND	0
46567	2015-05-22T06:00:00	46.2	ND	ND	ND	ND	ND	ND	ND	ND	ND	ND	0
46568	2015-05-22T07:00:00	65.8	ND	ND	ND	ND	ND	ND	ND	ND	ND	ND	0
46569	2015-05-22T08:00:00	64.3	ND	ND	ND	ND	ND	ND	ND	ND	ND	ND	0
46570	2015-05-22T09:00:00	59.8	ND	ND	ND	ND	ND	ND	ND	ND	ND	ND	0
46571	2015-05-22T10:00:00	56.3	ND	ND	ND	ND	ND	ND	ND	ND	ND	ND	0
46572	2015-05-22T11:00:00	58.8	ND	ND	ND	ND	ND	ND	ND	ND	ND	ND	0
46573	2015-05-22T12:00:00	57.6	ND	ND	ND	ND	ND	ND	ND	ND	ND	ND	0
46574	2015-05-22T13:00:00	48	ND	ND	ND	ND	ND	ND	ND	ND	ND	ND	0
46575	2015-05-22T14:00:00	48.4	ND	ND	ND	ND	ND	ND	ND	ND	ND	ND	0
46576	2015-05-22T15:00:00	46.2	ND	ND	ND	ND	ND	ND	ND	ND	ND	ND	0
46577	2015-05-22T16:00:00	50.6	ND	ND	ND	ND	ND	ND	ND	ND	ND	ND	0
46578	2015-05-22T17:00:00	41.1	ND	ND	ND	ND	ND	ND	ND	ND	ND	ND	0
46579	2015-05-22T18:00:00	59.1	ND	ND	ND	ND	ND	ND	ND	ND	ND	ND	0
46580	2015-05-22T19:00:00	80	ND	ND	ND	ND	ND	ND	ND	ND	ND	ND	0
46581	2015-05-22T20:00:00	64.6	ND	ND	ND	ND	ND	ND	ND	ND	ND	ND	0
46582	2015-05-22T21:00:00	44	ND	ND	ND	ND	ND	ND	ND	ND	ND	ND	0
46583	2015-05-22T22:00:00	30.4	ND	ND	ND	ND	ND	ND	ND	ND	ND	ND	0
46584	2015-05-22T23:00:00	41.3	ND	ND	ND	ND	ND	ND	ND	ND	ND	ND	0
46585	2015-05-23T00:00:00	61.3	ND	ND	ND	ND	ND	ND	ND	ND	ND	ND	0
46586	2015-05-23T01:00:00	42.5	ND	ND	ND	ND	ND	ND	ND	ND	ND	ND	0
46587	2015-05-23T02:00:00	36.5	ND	ND	ND	ND	ND	ND	ND	ND	ND	ND	0
46588	2015-05-23T03:00:00	71	ND	ND	ND	ND	ND	ND	ND	ND	ND	ND	0
46589	2015-05-23T04:00:00	78.2	ND	ND	ND	ND	ND	ND	ND	ND	ND	ND	0
46590	2015-05-23T05:00:00	62.9	ND	ND	ND	ND	ND	ND	ND	ND	ND	ND	0
46591	2015-05-23T06:00:00	33.5	ND	ND	ND	ND	ND	ND	ND	ND	ND	ND	0
46592	2015-05-23T07:00:00	35.9	ND	ND	ND	ND	ND	ND	ND	ND	ND	ND	0
46593	2015-05-23T08:00:00	59.5	ND	ND	ND	ND	ND	ND	ND	ND	ND	ND	0
46594	2015-05-23T09:00:00	101.7	ND	ND	ND	ND	ND	ND	ND	ND	ND	ND	0
46595	2015-05-23T10:00:00	124.6	ND	ND	ND	ND	ND	ND	ND	ND	ND	ND	0
46596	2015-05-23T11:00:00	99.5	ND	ND	ND	ND	ND	ND	ND	ND	ND	ND	0
46597	2015-05-23T12:00:00	78.3	ND	ND	ND	ND	ND	ND	ND	ND	ND	ND	0
46598	2015-05-23T13:00:00	66.6	ND	ND	ND	ND	ND	ND	ND	ND	ND	ND	0
46599	2015-05-23T14:00:00	60.9	ND	ND	ND	ND	ND	ND	ND	ND	ND	ND	0
46600	2015-05-23T15:00:00	74.6	ND	ND	ND	ND	ND	ND	ND	ND	ND	ND	0
46601	2015-05-23T16:00:00	74.4	ND	ND	ND	ND	ND	ND	ND	ND	ND	ND	0
46602	2015-05-23T17:00:00	36.1	ND	ND	ND	ND	ND	ND	ND	ND	ND	ND	0
46603	2015-05-23T18:00:00	41.9	ND	ND	ND	ND	ND	ND	ND	ND	ND	ND	0
46604	2015-05-23T19:00:00	51.3	ND	ND	ND	ND	ND	ND	ND	ND	ND	ND	0
46605	2015-05-23T20:00:00	23.5	ND	ND	ND	ND	ND	ND	ND	ND	ND	ND	0
46606	2015-05-23T21:00:00	22.1	ND	ND	ND	ND	ND	ND	ND	ND	ND	ND	0
46607	2015-05-23T22:00:00	33.1	ND	ND	ND	ND	ND	ND	ND	ND	ND	ND	0
46608	2015-05-23T23:00:00	69.7	ND	ND	ND	ND	ND	ND	ND	ND	ND	ND	0
46609	2015-05-24T00:00:00	54.7	ND	ND	ND	ND	ND	ND	ND	ND	ND	ND	0
46610	2015-05-24T01:00:00	40.7	ND	ND	ND	ND	ND	ND	ND	ND	ND	ND	0
46611	2015-05-24T02:00:00	36.2	ND	ND	ND	ND	ND	ND	ND	ND	ND	ND	0
46612	2015-05-24T03:00:00	37.6	ND	ND	ND	ND	ND	ND	ND	ND	ND	ND	0
46613	2015-05-24T04:00:00	37.6	ND	ND	ND	ND	ND	ND	ND	ND	ND	ND	0
46614	2015-05-24T05:00:00	52.9	ND	ND	ND	ND	ND	ND	ND	ND	ND	ND	0
46615	2015-05-24T06:00:00	40.2	ND	ND	ND	ND	ND	ND	ND	ND	ND	ND	0
46616	2015-05-24T07:00:00	42.2	ND	ND	ND	ND	ND	ND	ND	ND	ND	ND	0
46617	2015-05-24T08:00:00	39.3	ND	ND	ND	ND	ND	ND	ND	ND	ND	ND	0
46618	2015-05-24T09:00:00	45.9	ND	ND	ND	ND	ND	ND	ND	ND	ND	ND	0
46619	2015-05-24T10:00:00	47.5	ND	ND	ND	ND	ND	ND	ND	ND	ND	ND	0
46620	2015-05-24T11:00:00	39.6	ND	ND	ND	ND	ND	ND	ND	ND	ND	ND	0
46621	2015-05-24T12:00:00	33.5	ND	ND	ND	ND	ND	ND	ND	ND	ND	ND	0
46622	2015-05-24T13:00:00	34	ND	ND	ND	ND	ND	ND	ND	ND	ND	ND	0
46623	2015-05-24T14:00:00	21.5	ND	ND	ND	ND	ND	ND	ND	ND	ND	ND	0
46624	2015-05-24T15:00:00	17.4	ND	ND	ND	ND	ND	ND	ND	ND	ND	ND	0
46625	2015-05-24T16:00:00	14.4	ND	ND	ND	ND	ND	ND	ND	ND	ND	ND	0
46626	2015-05-24T17:00:00	21.1	ND	ND	ND	ND	ND	ND	ND	ND	ND	ND	0
46627	2015-05-24T18:00:00	15.1	ND	ND	ND	ND	ND	ND	ND	ND	ND	ND	0
46628	2015-05-24T19:00:00	16.6	ND	ND	ND	ND	ND	ND	ND	ND	ND	ND	0
46629	2015-05-24T20:00:00	15	ND	ND	ND	ND	ND	ND	ND	ND	ND	ND	0
46630	2015-05-24T21:00:00	10.2	ND	ND	ND	ND	ND	ND	ND	ND	ND	ND	0
46631	2015-05-24T22:00:00	7.2	ND	ND	ND	ND	ND	ND	ND	ND	ND	ND	0
46632	2015-05-24T23:00:00	9.5	ND	ND	ND	ND	ND	ND	ND	ND	ND	ND	0
46633	2015-05-25T00:00:00	13.4	ND	ND	ND	ND	ND	ND	ND	ND	ND	ND	0
46634	2015-05-25T01:00:00	39	ND	ND	ND	ND	ND	ND	ND	ND	ND	ND	0
46635	2015-05-25T02:00:00	27.5	ND	ND	ND	ND	ND	ND	ND	ND	ND	ND	0
46636	2015-05-25T03:00:00	17.6	ND	ND	ND	ND	ND	ND	ND	ND	ND	ND	0
46637	2015-05-25T04:00:00	23.3	ND	ND	ND	ND	ND	ND	ND	ND	ND	ND	0
46638	2015-05-25T05:00:00	15.8	ND	ND	ND	ND	ND	ND	ND	ND	ND	ND	0
46639	2015-05-25T06:00:00	14.9	ND	ND	ND	ND	ND	ND	ND	ND	ND	ND	3.56
46640	2015-05-25T07:00:00	26.5	ND	ND	ND	ND	ND	ND	ND	ND	ND	ND	21.84
46641	2015-05-25T08:00:00	30.9	ND	ND	ND	ND	ND	ND	ND	ND	ND	ND	1.52
46642	2015-05-25T09:00:00	19.5	ND	ND	ND	ND	ND	ND	ND	ND	ND	ND	0
46643	2015-05-25T10:00:00	35.2	ND	ND	ND	ND	ND	ND	ND	ND	ND	ND	0
46644	2015-05-25T11:00:00	39.7	ND	ND	ND	ND	ND	ND	ND	ND	ND	ND	0
46645	2015-05-25T12:00:00	34.2	ND	ND	ND	ND	ND	ND	ND	ND	ND	ND	0
46646	2015-05-25T13:00:00	37.1	ND	ND	ND	ND	ND	ND	ND	ND	ND	ND	0
46647	2015-05-25T14:00:00	48.6	ND	ND	ND	ND	ND	ND	ND	ND	ND	ND	0
46648	2015-05-25T15:00:00	45	ND	ND	ND	ND	ND	ND	ND	ND	ND	ND	0
46649	2015-05-25T16:00:00	35.8	ND	ND	ND	ND	ND	ND	ND	ND	ND	ND	0
46650	2015-05-25T17:00:00	35.1	ND	ND	ND	ND	ND	ND	ND	ND	ND	ND	0
46651	2015-05-25T18:00:00	30.1	ND	ND	ND	ND	ND	ND	ND	ND	ND	ND	0
46652	2015-05-25T19:00:00	32.5	ND	ND	ND	ND	ND	ND	ND	ND	ND	ND	0
46653	2015-05-25T20:00:00	30.4	ND	ND	ND	ND	ND	ND	ND	ND	ND	ND	0
46654	2015-05-25T21:00:00	18.5	ND	ND	ND	ND	ND	ND	ND	ND	ND	ND	0
46655	2015-05-25T22:00:00	13.6	ND	ND	ND	ND	ND	ND	ND	ND	ND	ND	0
46656	2015-05-25T23:00:00	27.2	ND	ND	ND	ND	ND	ND	ND	ND	ND	ND	0
46657	2015-05-26T00:00:00	23.8	ND	ND	ND	ND	ND	ND	ND	ND	ND	ND	0
46658	2015-05-26T01:00:00	20.9	ND	ND	ND	ND	ND	ND	ND	ND	ND	ND	0
46659	2015-05-26T02:00:00	20.5	ND	ND	ND	ND	ND	ND	ND	ND	ND	ND	0
46660	2015-05-26T03:00:00	29.4	ND	ND	ND	ND	ND	ND	ND	ND	ND	ND	0
46661	2015-05-26T04:00:00	64.1	ND	ND	ND	ND	ND	ND	ND	ND	ND	ND	0
46662	2015-05-26T05:00:00	61.6	ND	ND	ND	ND	ND	ND	ND	ND	ND	ND	0
46663	2015-05-26T06:00:00	54.2	ND	ND	ND	ND	ND	ND	ND	ND	ND	ND	0
46664	2015-05-26T07:00:00	40.9	ND	ND	ND	ND	ND	ND	ND	ND	ND	ND	0
46665	2015-05-26T08:00:00	72.1	ND	ND	ND	ND	ND	ND	ND	ND	ND	ND	0
46666	2015-05-26T09:00:00	62.3	ND	ND	ND	ND	ND	ND	ND	ND	ND	ND	0
46667	2015-05-26T10:00:00	67.5	ND	ND	ND	ND	ND	ND	ND	ND	ND	ND	0
46668	2015-05-26T11:00:00	51.5	ND	ND	ND	ND	ND	ND	ND	ND	ND	ND	0
46669	2015-05-26T12:00:00	38	ND	ND	ND	ND	ND	ND	ND	ND	ND	ND	0
46670	2015-05-26T13:00:00	49.5	ND	ND	ND	ND	ND	ND	ND	ND	ND	ND	0
46671	2015-05-26T14:00:00	64.4	ND	ND	ND	ND	ND	ND	ND	ND	ND	ND	0
46672	2015-05-26T15:00:00	65.1	ND	ND	ND	ND	ND	ND	ND	ND	ND	ND	0
46673	2015-05-26T16:00:00	60.2	ND	ND	ND	ND	ND	ND	ND	ND	ND	ND	0
46674	2015-05-26T17:00:00	48.6	ND	ND	ND	ND	ND	ND	ND	ND	ND	ND	0
46675	2015-05-26T18:00:00	34.9	ND	ND	ND	ND	ND	ND	ND	ND	ND	ND	0
46676	2015-05-26T19:00:00	27.2	ND	ND	ND	ND	ND	ND	ND	ND	ND	ND	0
46677	2015-05-26T20:00:00	23.3	ND	ND	ND	ND	ND	ND	ND	ND	ND	ND	0
46678	2015-05-26T21:00:00	17.1	ND	ND	ND	ND	ND	ND	ND	ND	ND	ND	0
46679	2015-05-26T22:00:00	48.3	ND	ND	ND	ND	ND	ND	ND	ND	ND	ND	0
46680	2015-05-26T23:00:00	46.3	ND	ND	ND	ND	ND	ND	ND	ND	ND	ND	0
46681	2015-05-27T00:00:00	40.1	ND	ND	ND	ND	ND	ND	ND	ND	ND	ND	0
46682	2015-05-27T01:00:00	24.8	ND	ND	ND	ND	ND	ND	ND	ND	ND	ND	0
46683	2015-05-27T02:00:00	24.5	ND	ND	ND	ND	ND	ND	ND	ND	ND	ND	0
46684	2015-05-27T03:00:00	18.3	ND	ND	ND	ND	ND	ND	ND	ND	ND	ND	0
46685	2015-05-27T04:00:00	15.2	ND	ND	ND	ND	ND	ND	ND	ND	ND	ND	0
46686	2015-05-27T05:00:00	20.1	ND	ND	ND	ND	ND	ND	ND	ND	ND	ND	0
46687	2015-05-27T06:00:00	34.2	ND	ND	ND	ND	ND	ND	ND	ND	ND	ND	0
46688	2015-05-27T07:00:00	47.3	ND	ND	ND	ND	ND	ND	ND	ND	ND	ND	0
46689	2015-05-27T08:00:00	61	ND	ND	ND	ND	ND	ND	ND	ND	ND	ND	0.51
46690	2015-05-27T09:00:00	75.5	ND	ND	ND	ND	ND	ND	ND	ND	ND	ND	0
46691	2015-05-27T10:00:00	64.4	ND	ND	ND	ND	ND	ND	ND	ND	ND	ND	0
46692	2015-05-27T11:00:00	40.7	ND	ND	ND	ND	ND	ND	ND	ND	ND	ND	0
46693	2015-05-27T12:00:00	33.9	ND	ND	ND	ND	ND	ND	ND	ND	ND	ND	0
46694	2015-05-27T13:00:00	41.5	ND	ND	ND	ND	ND	ND	ND	ND	ND	ND	0
46695	2015-05-27T14:00:00	40.5	ND	ND	ND	ND	ND	ND	ND	ND	ND	ND	0
46696	2015-05-27T15:00:00	49.7	ND	ND	ND	ND	ND	ND	ND	ND	ND	ND	0
46697	2015-05-27T16:00:00	53.2	ND	ND	ND	ND	ND	ND	ND	ND	ND	ND	0
46698	2015-05-27T17:00:00	40.4	ND	ND	ND	ND	ND	ND	ND	ND	ND	ND	0
46699	2015-05-27T18:00:00	32.8	ND	ND	ND	ND	ND	ND	ND	ND	ND	ND	0
46700	2015-05-27T19:00:00	42.8	ND	ND	ND	ND	ND	ND	ND	ND	ND	ND	17.02
46701	2015-05-27T20:00:00	28	ND	ND	ND	ND	ND	ND	ND	ND	ND	ND	2.03
46702	2015-05-27T21:00:00	18.4	ND	ND	ND	ND	ND	ND	ND	ND	ND	ND	0.25
46703	2015-05-27T22:00:00	28.7	ND	ND	ND	ND	ND	ND	ND	ND	ND	ND	0
46704	2015-05-27T23:00:00	28.9	ND	ND	ND	ND	ND	ND	ND	ND	ND	ND	0
46705	2015-05-28T00:00:00	25.7	ND	ND	ND	ND	ND	ND	ND	ND	ND	ND	0
46706	2015-05-28T01:00:00	29.8	ND	ND	ND	ND	ND	ND	ND	ND	ND	ND	0
46707	2015-05-28T02:00:00	30.3	ND	ND	ND	ND	ND	ND	ND	ND	ND	ND	0
46708	2015-05-28T03:00:00	35.2	ND	ND	ND	ND	ND	ND	ND	ND	ND	ND	3.05
46709	2015-05-28T04:00:00	21.7	ND	ND	ND	ND	ND	ND	ND	ND	ND	ND	0.25
46710	2015-05-28T05:00:00	18.8	ND	ND	ND	ND	ND	ND	ND	ND	ND	ND	0
46711	2015-05-28T06:00:00	24.5	ND	ND	ND	ND	ND	ND	ND	ND	ND	ND	0
46712	2015-05-28T07:00:00	48	ND	ND	ND	ND	ND	ND	ND	ND	ND	ND	1.52
46713	2015-05-28T08:00:00	44.1	ND	ND	ND	ND	ND	ND	ND	ND	ND	ND	2.54
46714	2015-05-28T09:00:00	33.5	ND	ND	ND	ND	ND	ND	ND	ND	ND	ND	0.76
46715	2015-05-28T10:00:00	39	ND	ND	ND	ND	ND	ND	ND	ND	ND	ND	0
46716	2015-05-28T11:00:00	30.5	ND	ND	ND	ND	ND	ND	ND	ND	ND	ND	0
46717	2015-05-28T12:00:00	33.2	ND	ND	ND	ND	ND	ND	ND	ND	ND	ND	0
46718	2015-05-28T13:00:00	35.3	ND	ND	ND	ND	ND	ND	ND	ND	ND	ND	0
46719	2015-05-28T14:00:00	29.6	ND	ND	ND	ND	ND	ND	ND	ND	ND	ND	0
46720	2015-05-28T15:00:00	40.4	ND	ND	ND	ND	ND	ND	ND	ND	ND	ND	0
46721	2015-05-28T16:00:00	32.8	ND	ND	ND	ND	ND	ND	ND	ND	ND	ND	0
46722	2015-05-28T17:00:00	23.4	ND	ND	ND	ND	ND	ND	ND	ND	ND	ND	0
46723	2015-05-28T18:00:00	28.1	ND	ND	ND	ND	ND	ND	ND	ND	ND	ND	0
46724	2015-05-28T19:00:00	27.6	ND	ND	ND	ND	ND	ND	ND	ND	ND	ND	0
46725	2015-05-28T20:00:00	23.9	ND	ND	ND	ND	ND	ND	ND	ND	ND	ND	0
46726	2015-05-28T21:00:00	11.7	ND	ND	ND	ND	ND	ND	ND	ND	ND	ND	0
46727	2015-05-28T22:00:00	9.3	ND	ND	ND	ND	ND	ND	ND	ND	ND	ND	0
46728	2015-05-28T23:00:00	34.3	ND	ND	ND	ND	ND	ND	ND	ND	ND	ND	0
46729	2015-05-29T00:00:00	33.1	ND	ND	ND	ND	ND	ND	ND	ND	ND	ND	0
46730	2015-05-29T01:00:00	29.4	ND	ND	ND	ND	ND	ND	ND	ND	ND	ND	0
46731	2015-05-29T02:00:00	30.3	ND	ND	ND	ND	ND	ND	ND	ND	ND	ND	0
46732	2015-05-29T03:00:00	25.3	ND	ND	ND	ND	ND	ND	ND	ND	ND	ND	0
46733	2015-05-29T04:00:00	23.1	ND	ND	ND	ND	ND	ND	ND	ND	ND	ND	0
46734	2015-05-29T05:00:00	28.8	ND	ND	ND	ND	ND	ND	ND	ND	ND	ND	0
46735	2015-05-29T06:00:00	30	ND	ND	ND	ND	ND	ND	ND	ND	ND	ND	0
46736	2015-05-29T07:00:00	50.3	ND	ND	ND	ND	ND	ND	ND	ND	ND	ND	0
46737	2015-05-29T08:00:00	84.3	ND	ND	ND	ND	ND	ND	ND	ND	ND	ND	0
46738	2015-05-29T09:00:00	60.4	ND	ND	ND	ND	ND	ND	ND	ND	ND	ND	3.3
46739	2015-05-29T10:00:00	51.3	ND	ND	ND	ND	ND	ND	ND	ND	ND	ND	0.76
46740	2015-05-29T11:00:00	35.4	ND	ND	ND	ND	ND	ND	ND	ND	ND	ND	0
46741	2015-05-29T12:00:00	26.5	ND	ND	ND	ND	ND	ND	ND	ND	ND	ND	0.25
46742	2015-05-29T13:00:00	37.2	ND	ND	ND	ND	ND	ND	ND	ND	ND	ND	0
46743	2015-05-29T14:00:00	37	ND	ND	ND	ND	ND	ND	ND	ND	ND	ND	0
46744	2015-05-29T15:00:00	38.1	ND	ND	ND	ND	ND	ND	ND	ND	ND	ND	0
46745	2015-05-29T16:00:00	45	ND	ND	ND	ND	ND	ND	ND	ND	ND	ND	0
46746	2015-05-29T17:00:00	60.8	ND	ND	ND	ND	ND	ND	ND	ND	ND	ND	0
46747	2015-05-29T18:00:00	77.5	ND	ND	ND	ND	ND	ND	ND	ND	ND	ND	0
46748	2015-05-29T19:00:00	87.4	ND	ND	ND	ND	ND	ND	ND	ND	ND	ND	0
46749	2015-05-29T20:00:00	72.6	ND	ND	ND	ND	ND	ND	ND	ND	ND	ND	0
46750	2015-05-29T21:00:00	61.8	ND	ND	ND	ND	ND	ND	ND	ND	ND	ND	0
46751	2015-05-29T22:00:00	59.3	ND	ND	ND	ND	ND	ND	ND	ND	ND	ND	0
46752	2015-05-29T23:00:00	55.2	ND	ND	ND	ND	ND	ND	ND	ND	ND	ND	0
46753	2015-05-30T00:00:00	55.3	ND	ND	ND	ND	ND	ND	ND	ND	ND	ND	0
46754	2015-05-30T01:00:00	63.3	ND	ND	ND	ND	ND	ND	ND	ND	ND	ND	0
46755	2015-05-30T02:00:00	76	ND	ND	ND	ND	ND	ND	ND	ND	ND	ND	0
46756	2015-05-30T03:00:00	67.3	ND	ND	ND	ND	ND	ND	ND	ND	ND	ND	0
46757	2015-05-30T04:00:00	52.7	ND	ND	ND	ND	ND	ND	ND	ND	ND	ND	0
46758	2015-05-30T05:00:00	41	ND	ND	ND	ND	ND	ND	ND	ND	ND	ND	0
46759	2015-05-30T06:00:00	38.3	ND	ND	ND	ND	ND	ND	ND	ND	ND	ND	0
46760	2015-05-30T07:00:00	55.8	ND	ND	ND	ND	ND	ND	ND	ND	ND	ND	0
46761	2015-05-30T08:00:00	72.2	ND	ND	ND	ND	ND	ND	ND	ND	ND	ND	0
46762	2015-05-30T09:00:00	91	ND	ND	ND	ND	ND	ND	ND	ND	ND	ND	0
46763	2015-05-30T10:00:00	68.9	ND	ND	ND	ND	ND	ND	ND	ND	ND	ND	0
46764	2015-05-30T11:00:00	50	ND	ND	ND	ND	ND	ND	ND	ND	ND	ND	0
46765	2015-05-30T12:00:00	40.4	ND	ND	ND	ND	ND	ND	ND	ND	ND	ND	0
46766	2015-05-30T13:00:00	46.9	ND	ND	ND	ND	ND	ND	ND	ND	ND	ND	0
46767	2015-05-30T14:00:00	57.8	ND	ND	ND	ND	ND	ND	ND	ND	ND	ND	0
46768	2015-05-30T15:00:00	77.3	ND	ND	ND	ND	ND	ND	ND	ND	ND	ND	0
46769	2015-05-30T16:00:00	62.4	ND	ND	ND	ND	ND	ND	ND	ND	ND	ND	0
46770	2015-05-30T17:00:00	34.4	ND	ND	ND	ND	ND	ND	ND	ND	ND	ND	0
46771	2015-05-30T18:00:00	21.6	ND	ND	ND	ND	ND	ND	ND	ND	ND	ND	0
46772	2015-05-30T19:00:00	14.7	ND	ND	ND	ND	ND	ND	ND	ND	ND	ND	0
46773	2015-05-30T20:00:00	21.1	ND	ND	ND	ND	ND	ND	ND	ND	ND	ND	0
46774	2015-05-30T21:00:00	18.3	ND	ND	ND	ND	ND	ND	ND	ND	ND	ND	0
46775	2015-05-30T22:00:00	24.1	ND	ND	ND	ND	ND	ND	ND	ND	ND	ND	0
46776	2015-05-30T23:00:00	28.2	ND	ND	ND	ND	ND	ND	ND	ND	ND	ND	0
46777	2015-05-31T00:00:00	21.7	ND	ND	ND	ND	ND	ND	ND	ND	ND	ND	0
46778	2015-05-31T01:00:00	32	ND	ND	ND	ND	ND	ND	ND	ND	ND	ND	0
46779	2015-05-31T02:00:00	24	ND	ND	ND	ND	ND	ND	ND	ND	ND	ND	0
46780	2015-05-31T03:00:00	50.4	ND	ND	ND	ND	ND	ND	ND	ND	ND	ND	0
46781	2015-05-31T04:00:00	42.5	ND	ND	ND	ND	ND	ND	ND	ND	ND	ND	0
46782	2015-05-31T05:00:00	44.3	ND	ND	ND	ND	ND	ND	ND	ND	ND	ND	0
46783	2015-05-31T06:00:00	41.5	ND	ND	ND	ND	ND	ND	ND	ND	ND	ND	0
46784	2015-05-31T07:00:00	31.6	ND	ND	ND	ND	ND	ND	ND	ND	ND	ND	0
46785	2015-05-31T08:00:00	44.7	ND	ND	ND	ND	ND	ND	ND	ND	ND	ND	0
46786	2015-05-31T09:00:00	47.8	ND	ND	ND	ND	ND	ND	ND	ND	ND	ND	0
46787	2015-05-31T10:00:00	45.7	ND	ND	ND	ND	ND	ND	ND	ND	ND	ND	0
46788	2015-05-31T11:00:00	28.7	ND	ND	ND	ND	ND	ND	ND	ND	ND	ND	0
46789	2015-05-31T12:00:00	31.2	ND	ND	ND	ND	ND	ND	ND	ND	ND	ND	0
46790	2015-05-31T13:00:00	33.6	ND	ND	ND	ND	ND	ND	ND	ND	ND	ND	0
46791	2015-05-31T14:00:00	35.2	ND	ND	ND	ND	ND	ND	ND	ND	ND	ND	0
46792	2015-05-31T15:00:00	41.1	ND	ND	ND	ND	ND	ND	ND	ND	ND	ND	0
46793	2015-05-31T16:00:00	32.8	ND	ND	ND	ND	ND	ND	ND	ND	ND	ND	0
46794	2015-05-31T17:00:00	15.2	ND	ND	ND	ND	ND	ND	ND	ND	ND	ND	0
46795	2015-05-31T18:00:00	16.9	ND	ND	ND	ND	ND	ND	ND	ND	ND	ND	0
46796	2015-05-31T19:00:00	15.2	ND	ND	ND	ND	ND	ND	ND	ND	ND	ND	0
46797	2015-05-31T20:00:00	13	ND	ND	ND	ND	ND	ND	ND	ND	ND	ND	0
46798	2015-05-31T21:00:00	14.1	ND	ND	ND	ND	ND	ND	ND	ND	ND	ND	0
46799	2015-05-31T22:00:00	19.8	ND	ND	ND	ND	ND	ND	ND	ND	ND	ND	0
46800	2015-05-31T23:00:00	26.4	ND	ND	ND	ND	ND	ND	ND	ND	ND	ND	0
46801	2015-06-01T00:00:00	28.6	ND	ND	ND	ND	ND	ND	ND	ND	ND	ND	0
46802	2015-06-01T01:00:00	24.5	ND	ND	ND	ND	ND	ND	ND	ND	ND	ND	0
46803	2015-06-01T02:00:00	15	ND	ND	ND	ND	ND	ND	ND	ND	ND	ND	0
46804	2015-06-01T03:00:00	18.3	ND	ND	ND	ND	ND	ND	ND	ND	ND	ND	0
46805	2015-06-01T04:00:00	30.6	ND	ND	ND	ND	ND	ND	ND	ND	ND	ND	0
46806	2015-06-01T05:00:00	35.2	ND	ND	ND	ND	ND	ND	ND	ND	ND	ND	0
46807	2015-06-01T06:00:00	33.1	ND	ND	ND	ND	ND	ND	ND	ND	ND	ND	0
46808	2015-06-01T07:00:00	54.5	ND	ND	ND	ND	ND	ND	ND	ND	ND	ND	0
46809	2015-06-01T08:00:00	75.6	ND	ND	ND	ND	ND	ND	ND	ND	ND	ND	0
46810	2015-06-01T09:00:00	79.3	ND	ND	ND	ND	ND	ND	ND	ND	ND	ND	0
46811	2015-06-01T10:00:00	86.7	ND	ND	ND	ND	ND	ND	ND	ND	ND	ND	0
46812	2015-06-01T11:00:00	81.4	ND	ND	ND	ND	ND	ND	ND	ND	ND	ND	0
46813	2015-06-01T12:00:00	66.4	ND	ND	ND	ND	ND	ND	ND	ND	ND	ND	0
46814	2015-06-01T13:00:00	63.2	ND	ND	ND	ND	ND	ND	ND	ND	ND	ND	0
46815	2015-06-01T14:00:00	55.7	ND	ND	ND	ND	ND	ND	ND	ND	ND	ND	0
46816	2015-06-01T15:00:00	58.1	ND	ND	ND	ND	ND	ND	ND	ND	ND	ND	0
46817	2015-06-01T16:00:00	53.2	ND	ND	ND	ND	ND	ND	ND	ND	ND	ND	0
46818	2015-06-01T17:00:00	64.3	ND	ND	ND	ND	ND	ND	ND	ND	ND	ND	0
46819	2015-06-01T18:00:00	64.7	ND	ND	ND	ND	ND	ND	ND	ND	ND	ND	0
46820	2015-06-01T19:00:00	66	ND	ND	ND	ND	ND	ND	ND	ND	ND	ND	0
46821	2015-06-01T20:00:00	39.1	ND	ND	ND	ND	ND	ND	ND	ND	ND	ND	0
46822	2015-06-01T21:00:00	24.5	ND	ND	ND	ND	ND	ND	ND	ND	ND	ND	0
46823	2015-06-01T22:00:00	18.9	ND	ND	ND	ND	ND	ND	ND	ND	ND	ND	0
46824	2015-06-01T23:00:00	35.8	ND	ND	ND	ND	ND	ND	ND	ND	ND	ND	0
46825	2015-06-02T00:00:00	46.9	ND	ND	ND	ND	ND	ND	ND	ND	ND	ND	0
46826	2015-06-02T01:00:00	43.9	ND	ND	ND	ND	ND	ND	ND	ND	ND	ND	0
46827	2015-06-02T02:00:00	25.4	ND	ND	ND	ND	ND	ND	ND	ND	ND	ND	0
46828	2015-06-02T03:00:00	36.6	ND	ND	ND	ND	ND	ND	ND	ND	ND	ND	0
46829	2015-06-02T04:00:00	41.4	ND	ND	ND	ND	ND	ND	ND	ND	ND	ND	0
46830	2015-06-02T05:00:00	61.9	ND	ND	ND	ND	ND	ND	ND	ND	ND	ND	0
46831	2015-06-02T06:00:00	49.6	ND	ND	ND	ND	ND	ND	ND	ND	ND	ND	0
46832	2015-06-02T07:00:00	80.2	ND	ND	ND	ND	ND	ND	ND	ND	ND	ND	0
46833	2015-06-02T08:00:00	113.3	ND	ND	ND	ND	ND	ND	ND	ND	ND	ND	0
46834	2015-06-02T09:00:00	101.2	ND	ND	ND	ND	ND	ND	ND	ND	ND	ND	0
46835	2015-06-02T10:00:00	84.8	ND	ND	ND	ND	ND	ND	ND	ND	ND	ND	0
46836	2015-06-02T11:00:00	73.1	ND	ND	ND	ND	ND	ND	ND	ND	ND	ND	0
46837	2015-06-02T12:00:00	73.2	ND	ND	ND	ND	ND	ND	ND	ND	ND	ND	0
46838	2015-06-02T13:00:00	73.9	ND	ND	ND	ND	ND	ND	ND	ND	ND	ND	0
46839	2015-06-02T14:00:00	57.3	ND	ND	ND	ND	ND	ND	ND	ND	ND	ND	0
46840	2015-06-02T15:00:00	36.7	ND	ND	ND	ND	ND	ND	ND	ND	ND	ND	0
46841	2015-06-02T16:00:00	29.8	ND	ND	ND	ND	ND	ND	ND	ND	ND	ND	0
46842	2015-06-02T17:00:00	38.4	ND	ND	ND	ND	ND	ND	ND	ND	ND	ND	0
46843	2015-06-02T18:00:00	29.8	ND	ND	ND	ND	ND	ND	ND	ND	ND	ND	0
46844	2015-06-02T19:00:00	27.6	ND	ND	ND	ND	ND	ND	ND	ND	ND	ND	0
46845	2015-06-02T20:00:00	21	ND	ND	ND	ND	ND	ND	ND	ND	ND	ND	0
46846	2015-06-02T21:00:00	18.7	ND	ND	ND	ND	ND	ND	ND	ND	ND	ND	0
46847	2015-06-02T22:00:00	13	ND	ND	ND	ND	ND	ND	ND	ND	ND	ND	0
46848	2015-06-02T23:00:00	11.7	ND	ND	ND	ND	ND	ND	ND	ND	ND	ND	0
46849	2015-06-03T00:00:00	12.2	ND	ND	ND	ND	ND	ND	ND	ND	ND	ND	0
46850	2015-06-03T01:00:00	38	ND	ND	ND	ND	ND	ND	ND	ND	ND	ND	0
46851	2015-06-03T02:00:00	53.4	ND	ND	ND	ND	ND	ND	ND	ND	ND	ND	0
46852	2015-06-03T03:00:00	49.4	ND	ND	ND	ND	ND	ND	ND	ND	ND	ND	0
46853	2015-06-03T04:00:00	40.7	ND	ND	ND	ND	ND	ND	ND	ND	ND	ND	0
46854	2015-06-03T05:00:00	39.8	ND	ND	ND	ND	ND	ND	ND	ND	ND	ND	0
46855	2015-06-03T06:00:00	37.6	ND	ND	ND	ND	ND	ND	ND	ND	ND	ND	0
46856	2015-06-03T07:00:00	49.2	ND	ND	ND	ND	ND	ND	ND	ND	ND	ND	0
46857	2015-06-03T08:00:00	49.1	ND	ND	ND	ND	ND	ND	ND	ND	ND	ND	0
46858	2015-06-03T09:00:00	50.9	ND	ND	ND	ND	ND	ND	ND	ND	ND	ND	0
46859	2015-06-03T10:00:00	55.8	ND	ND	ND	ND	ND	ND	ND	ND	ND	ND	0
46860	2015-06-03T11:00:00	50.2	ND	ND	ND	ND	ND	ND	ND	ND	ND	ND	0
46861	2015-06-03T12:00:00	67.7	ND	ND	ND	ND	ND	ND	ND	ND	ND	ND	0
46862	2015-06-03T13:00:00	65.9	ND	ND	ND	ND	ND	ND	ND	ND	ND	ND	0
46863	2015-06-03T14:00:00	63.3	ND	ND	ND	ND	ND	ND	ND	ND	ND	ND	0
46864	2015-06-03T15:00:00	70.6	ND	ND	ND	ND	ND	ND	ND	ND	ND	ND	0
46865	2015-06-03T16:00:00	77.5	ND	ND	ND	ND	ND	ND	ND	ND	ND	ND	0
46866	2015-06-03T17:00:00	71	ND	ND	ND	ND	ND	ND	ND	ND	ND	ND	0
46867	2015-06-03T18:00:00	48.9	ND	ND	ND	ND	ND	ND	ND	ND	ND	ND	0
46868	2015-06-03T19:00:00	30	ND	ND	ND	ND	ND	ND	ND	ND	ND	ND	0
46869	2015-06-03T20:00:00	21.2	ND	ND	ND	ND	ND	ND	ND	ND	ND	ND	0
46870	2015-06-03T21:00:00	13.3	ND	ND	ND	ND	ND	ND	ND	ND	ND	ND	0
46871	2015-06-03T22:00:00	19	ND	ND	ND	ND	ND	ND	ND	ND	ND	ND	0
46872	2015-06-03T23:00:00	49.3	ND	ND	ND	ND	ND	ND	ND	ND	ND	ND	0
46873	2015-06-04T00:00:00	21.2	ND	ND	ND	ND	ND	ND	ND	ND	ND	ND	0
46874	2015-06-04T01:00:00	14.9	ND	ND	ND	ND	ND	ND	ND	ND	ND	ND	0
46875	2015-06-04T02:00:00	44.5	ND	ND	ND	ND	ND	ND	ND	ND	ND	ND	0
46876	2015-06-04T03:00:00	43.2	ND	ND	ND	ND	ND	ND	ND	ND	ND	ND	0
46877	2015-06-04T04:00:00	41.7	ND	ND	ND	ND	ND	ND	ND	ND	ND	ND	2.03
46878	2015-06-04T05:00:00	35.7	ND	ND	ND	ND	ND	ND	ND	ND	ND	ND	0.25
46879	2015-06-04T06:00:00	28.1	ND	ND	ND	ND	ND	ND	ND	ND	ND	ND	1.02
46880	2015-06-04T07:00:00	45.4	ND	ND	ND	ND	ND	ND	ND	ND	ND	ND	0
46881	2015-06-04T08:00:00	49.3	ND	ND	ND	ND	ND	ND	ND	ND	ND	ND	0.25
46882	2015-06-04T09:00:00	56.8	ND	ND	ND	ND	ND	ND	ND	ND	ND	ND	0
46883	2015-06-04T10:00:00	80	ND	ND	ND	ND	ND	ND	ND	ND	ND	ND	0
46884	2015-06-04T11:00:00	75.9	ND	ND	ND	ND	ND	ND	ND	ND	ND	ND	0
46885	2015-06-04T12:00:00	60.7	ND	ND	ND	ND	ND	ND	ND	ND	ND	ND	0
46886	2015-06-04T13:00:00	61.5	ND	ND	ND	ND	ND	ND	ND	ND	ND	ND	0
46887	2015-06-04T14:00:00	61	ND	ND	ND	ND	ND	ND	ND	ND	ND	ND	0
46888	2015-06-04T15:00:00	62.4	ND	ND	ND	ND	ND	ND	ND	ND	ND	ND	0
46889	2015-06-04T16:00:00	60.7	ND	ND	ND	ND	ND	ND	ND	ND	ND	ND	0
46890	2015-06-04T17:00:00	39.8	ND	ND	ND	ND	ND	ND	ND	ND	ND	ND	0
46891	2015-06-04T18:00:00	36.3	ND	ND	ND	ND	ND	ND	ND	ND	ND	ND	0
46892	2015-06-04T19:00:00	28.9	ND	ND	ND	ND	ND	ND	ND	ND	ND	ND	0
46893	2015-06-04T20:00:00	17.2	ND	ND	ND	ND	ND	ND	ND	ND	ND	ND	0
46894	2015-06-04T21:00:00	15.5	ND	ND	ND	ND	ND	ND	ND	ND	ND	ND	0
46895	2015-06-04T22:00:00	15.9	ND	ND	ND	ND	ND	ND	ND	ND	ND	ND	0
46896	2015-06-04T23:00:00	11.1	ND	ND	ND	ND	ND	ND	ND	ND	ND	ND	0
46897	2015-06-05T00:00:00	13.8	ND	ND	ND	ND	ND	ND	ND	ND	ND	ND	0
46898	2015-06-05T01:00:00	34.9	ND	ND	ND	ND	ND	ND	ND	ND	ND	ND	0
46899	2015-06-05T02:00:00	44.9	ND	ND	ND	ND	ND	ND	ND	ND	ND	ND	0
46900	2015-06-05T03:00:00	42.9	ND	ND	ND	ND	ND	ND	ND	ND	ND	ND	0
46901	2015-06-05T04:00:00	38.8	ND	ND	ND	ND	ND	ND	ND	ND	ND	ND	0
46902	2015-06-05T05:00:00	30.3	ND	ND	ND	ND	ND	ND	ND	ND	ND	ND	0
46903	2015-06-05T06:00:00	32	ND	ND	ND	ND	ND	ND	ND	ND	ND	ND	4.32
46904	2015-06-05T07:00:00	35.7	ND	ND	ND	ND	ND	ND	ND	ND	ND	ND	0.25
46905	2015-06-05T08:00:00	47.6	ND	ND	ND	ND	ND	ND	ND	ND	ND	ND	0
46906	2015-06-05T09:00:00	48.5	ND	ND	ND	ND	ND	ND	ND	ND	ND	ND	0
46907	2015-06-05T10:00:00	58.7	ND	ND	ND	ND	ND	ND	ND	ND	ND	ND	0
46908	2015-06-05T11:00:00	61.6	ND	ND	ND	ND	ND	ND	ND	ND	ND	ND	0
46909	2015-06-05T12:00:00	55.7	ND	ND	ND	ND	ND	ND	ND	ND	ND	ND	0
46910	2015-06-05T13:00:00	54.8	ND	ND	ND	ND	ND	ND	ND	ND	ND	ND	0
46911	2015-06-05T14:00:00	55.2	ND	ND	ND	ND	ND	ND	ND	ND	ND	ND	0
46912	2015-06-05T15:00:00	56	ND	ND	ND	ND	ND	ND	ND	ND	ND	ND	0
46913	2015-06-05T16:00:00	78.3	ND	ND	ND	ND	ND	ND	ND	ND	ND	ND	0
46914	2015-06-05T17:00:00	49	ND	ND	ND	ND	ND	ND	ND	ND	ND	ND	0
46915	2015-06-05T18:00:00	35.6	ND	ND	ND	ND	ND	ND	ND	ND	ND	ND	0
46916	2015-06-05T19:00:00	34	ND	ND	ND	ND	ND	ND	ND	ND	ND	ND	0
46917	2015-06-05T20:00:00	27	ND	ND	ND	ND	ND	ND	ND	ND	ND	ND	0
46918	2015-06-05T21:00:00	12.2	ND	ND	ND	ND	ND	ND	ND	ND	ND	ND	0
46919	2015-06-05T22:00:00	11.9	ND	ND	ND	ND	ND	ND	ND	ND	ND	ND	0
46920	2015-06-05T23:00:00	18	ND	ND	ND	ND	ND	ND	ND	ND	ND	ND	0
46921	2015-06-06T00:00:00	19.3	ND	ND	ND	ND	ND	ND	ND	ND	ND	ND	0
46922	2015-06-06T01:00:00	19.7	ND	ND	ND	ND	ND	ND	ND	ND	ND	ND	0
46923	2015-06-06T02:00:00	24.2	ND	ND	ND	ND	ND	ND	ND	ND	ND	ND	0
46924	2015-06-06T03:00:00	33.1	ND	ND	ND	ND	ND	ND	ND	ND	ND	ND	0
46925	2015-06-06T04:00:00	33.2	ND	ND	ND	ND	ND	ND	ND	ND	ND	ND	2.03
46926	2015-06-06T05:00:00	24.8	ND	ND	ND	ND	ND	ND	ND	ND	ND	ND	4.83
46927	2015-06-06T06:00:00	28.8	ND	ND	ND	ND	ND	ND	ND	ND	ND	ND	0.25
46928	2015-06-06T07:00:00	42.3	ND	ND	ND	ND	ND	ND	ND	ND	ND	ND	0
46929	2015-06-06T08:00:00	42.3	ND	ND	ND	ND	ND	ND	ND	ND	ND	ND	0
46930	2015-06-06T09:00:00	51.9	ND	ND	ND	ND	ND	ND	ND	ND	ND	ND	0
46931	2015-06-06T10:00:00	53.4	ND	ND	ND	ND	ND	ND	ND	ND	ND	ND	0
46932	2015-06-06T11:00:00	53.3	ND	ND	ND	ND	ND	ND	ND	ND	ND	ND	0
46933	2015-06-06T12:00:00	46.5	ND	ND	ND	ND	ND	ND	ND	ND	ND	ND	0
46934	2015-06-06T13:00:00	46.4	ND	ND	ND	ND	ND	ND	ND	ND	ND	ND	0
46935	2015-06-06T14:00:00	49.3	ND	ND	ND	ND	ND	ND	ND	ND	ND	ND	0
46936	2015-06-06T15:00:00	47.9	ND	ND	ND	ND	ND	ND	ND	ND	ND	ND	0
46937	2015-06-06T16:00:00	47.4	ND	ND	ND	ND	ND	ND	ND	ND	ND	ND	0
46938	2015-06-06T17:00:00	25	ND	ND	ND	ND	ND	ND	ND	ND	ND	ND	0
46939	2015-06-06T18:00:00	19.2	ND	ND	ND	ND	ND	ND	ND	ND	ND	ND	0
46940	2015-06-06T19:00:00	22	ND	ND	ND	ND	ND	ND	ND	ND	ND	ND	0
46941	2015-06-06T20:00:00	15.7	ND	ND	ND	ND	ND	ND	ND	ND	ND	ND	0
46942	2015-06-06T21:00:00	13.9	ND	ND	ND	ND	ND	ND	ND	ND	ND	ND	0
46943	2015-06-06T22:00:00	11.7	ND	ND	ND	ND	ND	ND	ND	ND	ND	ND	0
46944	2015-06-06T23:00:00	16	ND	ND	ND	ND	ND	ND	ND	ND	ND	ND	0
46945	2015-06-07T00:00:00	12	ND	ND	ND	ND	ND	ND	ND	ND	ND	ND	0
46946	2015-06-07T01:00:00	27.5	ND	ND	ND	ND	ND	ND	ND	ND	ND	ND	0
46947	2015-06-07T02:00:00	37.9	ND	ND	ND	ND	ND	ND	ND	ND	ND	ND	0
46948	2015-06-07T03:00:00	33.2	ND	ND	ND	ND	ND	ND	ND	ND	ND	ND	0
46949	2015-06-07T04:00:00	40.3	ND	ND	ND	ND	ND	ND	ND	ND	ND	ND	0
46950	2015-06-07T05:00:00	36.5	ND	ND	ND	ND	ND	ND	ND	ND	ND	ND	0
46951	2015-06-07T06:00:00	27	ND	ND	ND	ND	ND	ND	ND	ND	ND	ND	0
46952	2015-06-07T07:00:00	34	ND	ND	ND	ND	ND	ND	ND	ND	ND	ND	0
46953	2015-06-07T08:00:00	53.4	ND	ND	ND	ND	ND	ND	ND	ND	ND	ND	0
46954	2015-06-07T09:00:00	45	ND	ND	ND	ND	ND	ND	ND	ND	ND	ND	0
46955	2015-06-07T10:00:00	60.6	ND	ND	ND	ND	ND	ND	ND	ND	ND	ND	0
46956	2015-06-07T11:00:00	54	ND	ND	ND	ND	ND	ND	ND	ND	ND	ND	0
46957	2015-06-07T12:00:00	49.4	ND	ND	ND	ND	ND	ND	ND	ND	ND	ND	0
46958	2015-06-07T13:00:00	43.8	ND	ND	ND	ND	ND	ND	ND	ND	ND	ND	0
46959	2015-06-07T14:00:00	36.8	ND	ND	ND	ND	ND	ND	ND	ND	ND	ND	0
46960	2015-06-07T15:00:00	29.8	ND	ND	ND	ND	ND	ND	ND	ND	ND	ND	0
46961	2015-06-07T16:00:00	17.9	ND	ND	ND	ND	ND	ND	ND	ND	ND	ND	0
46962	2015-06-07T17:00:00	14.2	ND	ND	ND	ND	ND	ND	ND	ND	ND	ND	0
46963	2015-06-07T18:00:00	13.9	ND	ND	ND	ND	ND	ND	ND	ND	ND	ND	0
46964	2015-06-07T19:00:00	17.2	ND	ND	ND	ND	ND	ND	ND	ND	ND	ND	0
46965	2015-06-07T20:00:00	13.9	ND	ND	ND	ND	ND	ND	ND	ND	ND	ND	0
46966	2015-06-07T21:00:00	10.8	ND	ND	ND	ND	ND	ND	ND	ND	ND	ND	0
46967	2015-06-07T22:00:00	12.5	ND	ND	ND	ND	ND	ND	ND	ND	ND	ND	0
46968	2015-06-07T23:00:00	12.4	ND	ND	ND	ND	ND	ND	ND	ND	ND	ND	0
46969	2015-06-08T00:00:00	16.9	ND	ND	ND	ND	ND	ND	ND	ND	ND	ND	0
46970	2015-06-08T01:00:00	16.5	ND	ND	ND	ND	ND	ND	ND	ND	ND	ND	0
46971	2015-06-08T02:00:00	18.9	ND	ND	ND	ND	ND	ND	ND	ND	ND	ND	0
46972	2015-06-08T03:00:00	18.1	ND	ND	ND	ND	ND	ND	ND	ND	ND	ND	0
46973	2015-06-08T04:00:00	12.2	ND	ND	ND	ND	ND	ND	ND	ND	ND	ND	0
46974	2015-06-08T05:00:00	15.6	ND	ND	ND	ND	ND	ND	ND	ND	ND	ND	0
46975	2015-06-08T06:00:00	18	ND	ND	ND	ND	ND	ND	ND	ND	ND	ND	0
46976	2015-06-08T07:00:00	27.9	ND	ND	ND	ND	ND	ND	ND	ND	ND	ND	0
46977	2015-06-08T08:00:00	29.7	ND	ND	ND	ND	ND	ND	ND	ND	ND	ND	0
46978	2015-06-08T09:00:00	28.5	ND	ND	ND	ND	ND	ND	ND	ND	ND	ND	0
46979	2015-06-08T10:00:00	25	ND	ND	ND	ND	ND	ND	ND	ND	ND	ND	0
46980	2015-06-08T11:00:00	25.7	ND	ND	ND	ND	ND	ND	ND	ND	ND	ND	0
46981	2015-06-08T12:00:00	28.6	ND	ND	ND	ND	ND	ND	ND	ND	ND	ND	0
46982	2015-06-08T13:00:00	32.7	ND	ND	ND	ND	ND	ND	ND	ND	ND	ND	0
46983	2015-06-08T14:00:00	29.5	ND	ND	ND	ND	ND	ND	ND	ND	ND	ND	27.69
46984	2015-06-08T15:00:00	19.7	ND	ND	ND	ND	ND	ND	ND	ND	ND	ND	15.24
46985	2015-06-08T16:00:00	10	ND	ND	ND	ND	ND	ND	ND	ND	ND	ND	0
46986	2015-06-08T17:00:00	8.5	ND	ND	ND	ND	ND	ND	ND	ND	ND	ND	0
46987	2015-06-08T18:00:00	10.6	ND	ND	ND	ND	ND	ND	ND	ND	ND	ND	0
46988	2015-06-08T19:00:00	14.5	ND	ND	ND	ND	ND	ND	ND	ND	ND	ND	0
46989	2015-06-08T20:00:00	7.6	ND	ND	ND	ND	ND	ND	ND	ND	ND	ND	0
46990	2015-06-08T21:00:00	16	ND	ND	ND	ND	ND	ND	ND	ND	ND	ND	0
46991	2015-06-08T22:00:00	7.3	ND	ND	ND	ND	ND	ND	ND	ND	ND	ND	0
46992	2015-06-08T23:00:00	25.9	ND	ND	ND	ND	ND	ND	ND	ND	ND	ND	0
46993	2015-06-09T00:00:00	27.9	ND	ND	ND	ND	ND	ND	ND	ND	ND	ND	0
46994	2015-06-09T01:00:00	33	ND	ND	ND	ND	ND	ND	ND	ND	ND	ND	0
46995	2015-06-09T02:00:00	28.2	ND	ND	ND	ND	ND	ND	ND	ND	ND	ND	0
46996	2015-06-09T03:00:00	32.1	ND	ND	ND	ND	ND	ND	ND	ND	ND	ND	0
46997	2015-06-09T04:00:00	22.6	ND	ND	ND	ND	ND	ND	ND	ND	ND	ND	0
46998	2015-06-09T05:00:00	23.5	ND	ND	ND	ND	ND	ND	ND	ND	ND	ND	0
46999	2015-06-09T06:00:00	26.7	ND	ND	ND	ND	ND	ND	ND	ND	ND	ND	0
47000	2015-06-09T07:00:00	37.4	ND	ND	ND	ND	ND	ND	ND	ND	ND	ND	0.25
47001	2015-06-09T08:00:00	41	ND	ND	ND	ND	ND	ND	ND	ND	ND	ND	0
47002	2015-06-09T09:00:00	53.3	ND	ND	ND	ND	ND	ND	ND	ND	ND	ND	0
47003	2015-06-09T10:00:00	77	ND	ND	ND	ND	ND	ND	ND	ND	ND	ND	0
47004	2015-06-09T11:00:00	60.6	ND	ND	ND	ND	ND	ND	ND	ND	ND	ND	0
47005	2015-06-09T12:00:00	58.5	ND	ND	ND	ND	ND	ND	ND	ND	ND	ND	0
47006	2015-06-09T13:00:00	60.7	ND	ND	ND	ND	ND	ND	ND	ND	ND	ND	0
47007	2015-06-09T14:00:00	49	ND	ND	ND	ND	ND	ND	ND	ND	ND	ND	0
47008	2015-06-09T15:00:00	47.9	ND	ND	ND	ND	ND	ND	ND	ND	ND	ND	0
47009	2015-06-09T16:00:00	44.9	ND	ND	ND	ND	ND	ND	ND	ND	ND	ND	0
47010	2015-06-09T17:00:00	35.7	ND	ND	ND	ND	ND	ND	ND	ND	ND	ND	0
47011	2015-06-09T18:00:00	38.8	ND	ND	ND	ND	ND	ND	ND	ND	ND	ND	0
47012	2015-06-09T19:00:00	24.5	ND	ND	ND	ND	ND	ND	ND	ND	ND	ND	0
47013	2015-06-09T20:00:00	35.2	ND	ND	ND	ND	ND	ND	ND	ND	ND	ND	0
47014	2015-06-09T21:00:00	19.5	ND	ND	ND	ND	ND	ND	ND	ND	ND	ND	0
47015	2015-06-09T22:00:00	15.4	ND	ND	ND	ND	ND	ND	ND	ND	ND	ND	0
47016	2015-06-09T23:00:00	7.5	ND	ND	ND	ND	ND	ND	ND	ND	ND	ND	0
47017	2015-06-10T00:00:00	23.3	ND	ND	ND	ND	ND	ND	ND	ND	ND	ND	0
47018	2015-06-10T01:00:00	10.8	ND	ND	ND	ND	ND	ND	ND	ND	ND	ND	0
47019	2015-06-10T02:00:00	20.8	ND	ND	ND	ND	ND	ND	ND	ND	ND	ND	0
47020	2015-06-10T03:00:00	22.3	ND	ND	ND	ND	ND	ND	ND	ND	ND	ND	0
47021	2015-06-10T04:00:00	18.7	ND	ND	ND	ND	ND	ND	ND	ND	ND	ND	0
47022	2015-06-10T05:00:00	18.8	ND	ND	ND	ND	ND	ND	ND	ND	ND	ND	0
47023	2015-06-10T06:00:00	17.2	ND	ND	ND	ND	ND	ND	ND	ND	ND	ND	0
47024	2015-06-10T07:00:00	22.9	ND	ND	ND	ND	ND	ND	ND	ND	ND	ND	0
47025	2015-06-10T08:00:00	31.5	ND	ND	ND	ND	ND	ND	ND	ND	ND	ND	0
47026	2015-06-10T09:00:00	47.2	ND	ND	ND	ND	ND	ND	ND	ND	ND	ND	0
47027	2015-06-10T10:00:00	63.2	ND	ND	ND	ND	ND	ND	ND	ND	ND	ND	0
47028	2015-06-10T11:00:00	53.4	ND	ND	ND	ND	ND	ND	ND	ND	ND	ND	0
47029	2015-06-10T12:00:00	50.1	ND	ND	ND	ND	ND	ND	ND	ND	ND	ND	0
47030	2015-06-10T13:00:00	53.7	ND	ND	ND	ND	ND	ND	ND	ND	ND	ND	0
47031	2015-06-10T14:00:00	46.4	ND	ND	ND	ND	ND	ND	ND	ND	ND	ND	0
47032	2015-06-10T15:00:00	37.4	ND	ND	ND	ND	ND	ND	ND	ND	ND	ND	0
47033	2015-06-10T16:00:00	49.7	ND	ND	ND	ND	ND	ND	ND	ND	ND	ND	0
47034	2015-06-10T17:00:00	50.5	ND	ND	ND	ND	ND	ND	ND	ND	ND	ND	0
47035	2015-06-10T18:00:00	57.7	ND	ND	ND	ND	ND	ND	ND	ND	ND	ND	0
47036	2015-06-10T19:00:00	52.7	ND	ND	ND	ND	ND	ND	ND	ND	ND	ND	0
47037	2015-06-10T20:00:00	49.4	ND	ND	ND	ND	ND	ND	ND	ND	ND	ND	0
47038	2015-06-10T21:00:00	22.5	ND	ND	ND	ND	ND	ND	ND	ND	ND	ND	0
47039	2015-06-10T22:00:00	11.1	ND	ND	ND	ND	ND	ND	ND	ND	ND	ND	0
47040	2015-06-10T23:00:00	7.9	ND	ND	ND	ND	ND	ND	ND	ND	ND	ND	0
47041	2015-06-11T00:00:00	28.5	ND	ND	ND	ND	ND	ND	ND	ND	ND	ND	0
47042	2015-06-11T01:00:00	29.7	ND	ND	ND	ND	ND	ND	ND	ND	ND	ND	0
47043	2015-06-11T02:00:00	29.7	ND	ND	ND	ND	ND	ND	ND	ND	ND	ND	0
47044	2015-06-11T03:00:00	31.7	ND	ND	ND	ND	ND	ND	ND	ND	ND	ND	0
47045	2015-06-11T04:00:00	26.6	ND	ND	ND	ND	ND	ND	ND	ND	ND	ND	0
47046	2015-06-11T05:00:00	32.9	ND	ND	ND	ND	ND	ND	ND	ND	ND	ND	0
47047	2015-06-11T06:00:00	34.6	ND	ND	ND	ND	ND	ND	ND	ND	ND	ND	0
47048	2015-06-11T07:00:00	25.8	ND	ND	ND	ND	ND	ND	ND	ND	ND	ND	0
47049	2015-06-11T08:00:00	55.4	ND	ND	ND	ND	ND	ND	ND	ND	ND	ND	0
47050	2015-06-11T09:00:00	53.2	ND	ND	ND	ND	ND	ND	ND	ND	ND	ND	0
47051	2015-06-11T10:00:00	57.8	ND	ND	ND	ND	ND	ND	ND	ND	ND	ND	0
47052	2015-06-11T11:00:00	52.7	ND	ND	ND	ND	ND	ND	ND	ND	ND	ND	0
47053	2015-06-11T12:00:00	44.3	ND	ND	ND	ND	ND	ND	ND	ND	ND	ND	0
47054	2015-06-11T13:00:00	38.5	ND	ND	ND	ND	ND	ND	ND	ND	ND	ND	0
47055	2015-06-11T14:00:00	51.3	ND	ND	ND	ND	ND	ND	ND	ND	ND	ND	0
47056	2015-06-11T15:00:00	55.2	ND	ND	ND	ND	ND	ND	ND	ND	ND	ND	0
47057	2015-06-11T16:00:00	46.3	ND	ND	ND	ND	ND	ND	ND	ND	ND	ND	0
47058	2015-06-11T17:00:00	65.5	ND	ND	ND	ND	ND	ND	ND	ND	ND	ND	0
47059	2015-06-11T18:00:00	63.9	ND	ND	ND	ND	ND	ND	ND	ND	ND	ND	0
47060	2015-06-11T19:00:00	43.4	ND	ND	ND	ND	ND	ND	ND	ND	ND	ND	0
47061	2015-06-11T20:00:00	32.4	ND	ND	ND	ND	ND	ND	ND	ND	ND	ND	0
47062	2015-06-11T21:00:00	24.3	ND	ND	ND	ND	ND	ND	ND	ND	ND	ND	0
47063	2015-06-11T22:00:00	15.8	ND	ND	ND	ND	ND	ND	ND	ND	ND	ND	0
47064	2015-06-11T23:00:00	17.1	ND	ND	ND	ND	ND	ND	ND	ND	ND	ND	0
47065	2015-06-12T00:00:00	24.9	ND	ND	ND	ND	ND	ND	ND	ND	ND	ND	0
47066	2015-06-12T01:00:00	56	ND	ND	ND	ND	ND	ND	ND	ND	ND	ND	0
47067	2015-06-12T02:00:00	26.6	ND	ND	ND	ND	ND	ND	ND	ND	ND	ND	0
47068	2015-06-12T03:00:00	26.8	ND	ND	ND	ND	ND	ND	ND	ND	ND	ND	0
47069	2015-06-12T04:00:00	45.6	ND	ND	ND	ND	ND	ND	ND	ND	ND	ND	0
47070	2015-06-12T05:00:00	58.3	ND	ND	ND	ND	ND	ND	ND	ND	ND	ND	0
47071	2015-06-12T06:00:00	74.7	ND	ND	ND	ND	ND	ND	ND	ND	ND	ND	0
47072	2015-06-12T07:00:00	88.8	ND	ND	ND	ND	ND	ND	ND	ND	ND	ND	0
47073	2015-06-12T08:00:00	82.9	ND	ND	ND	ND	ND	ND	ND	ND	ND	ND	0
47074	2015-06-12T09:00:00	103.6	ND	ND	ND	ND	ND	ND	ND	ND	ND	ND	0
47075	2015-06-12T10:00:00	81.5	ND	ND	ND	ND	ND	ND	ND	ND	ND	ND	0
47076	2015-06-12T11:00:00	65.1	ND	ND	ND	ND	ND	ND	ND	ND	ND	ND	0
47077	2015-06-12T12:00:00	47.8	ND	ND	ND	ND	ND	ND	ND	ND	ND	ND	0
47078	2015-06-12T13:00:00	51.6	ND	ND	ND	ND	ND	ND	ND	ND	ND	ND	0
47079	2015-06-12T14:00:00	46.5	ND	ND	ND	ND	ND	ND	ND	ND	ND	ND	0
47080	2015-06-12T15:00:00	42.2	ND	ND	ND	ND	ND	ND	ND	ND	ND	ND	0
47081	2015-06-12T16:00:00	32.5	ND	ND	ND	ND	ND	ND	ND	ND	ND	ND	0
47082	2015-06-12T17:00:00	29.1	ND	ND	ND	ND	ND	ND	ND	ND	ND	ND	0
47083	2015-06-12T18:00:00	29.6	ND	ND	ND	ND	ND	ND	ND	ND	ND	ND	0
47084	2015-06-12T19:00:00	21	ND	ND	ND	ND	ND	ND	ND	ND	ND	ND	0
47085	2015-06-12T20:00:00	24.7	ND	ND	ND	ND	ND	ND	ND	ND	ND	ND	0
47086	2015-06-12T21:00:00	16.8	ND	ND	ND	ND	ND	ND	ND	ND	ND	ND	0
47087	2015-06-12T22:00:00	22	ND	ND	ND	ND	ND	ND	ND	ND	ND	ND	0
47088	2015-06-12T23:00:00	43.4	ND	ND	ND	ND	ND	ND	ND	ND	ND	ND	0
47089	2015-06-13T00:00:00	28.2	ND	ND	ND	ND	ND	ND	ND	ND	ND	ND	0
47090	2015-06-13T01:00:00	25.5	ND	ND	ND	ND	ND	ND	ND	ND	ND	ND	0
47091	2015-06-13T02:00:00	28.4	ND	ND	ND	ND	ND	ND	ND	ND	ND	ND	0
47092	2015-06-13T03:00:00	30.2	ND	ND	ND	ND	ND	ND	ND	ND	ND	ND	0
47093	2015-06-13T04:00:00	31.6	ND	ND	ND	ND	ND	ND	ND	ND	ND	ND	0
47094	2015-06-13T05:00:00	63.1	ND	ND	ND	ND	ND	ND	ND	ND	ND	ND	0
47095	2015-06-13T06:00:00	66.7	ND	ND	ND	ND	ND	ND	ND	ND	ND	ND	0
47096	2015-06-13T07:00:00	87.3	ND	ND	ND	ND	ND	ND	ND	ND	ND	ND	0
47097	2015-06-13T08:00:00	66.8	ND	ND	ND	ND	ND	ND	ND	ND	ND	ND	0
47098	2015-06-13T09:00:00	94.1	ND	ND	ND	ND	ND	ND	ND	ND	ND	ND	0
47099	2015-06-13T10:00:00	113.2	ND	ND	ND	ND	ND	ND	ND	ND	ND	ND	0
47100	2015-06-13T11:00:00	101.3	ND	ND	ND	ND	ND	ND	ND	ND	ND	ND	0
47101	2015-06-13T12:00:00	89.9	ND	ND	ND	ND	ND	ND	ND	ND	ND	ND	0
47102	2015-06-13T13:00:00	70	ND	ND	ND	ND	ND	ND	ND	ND	ND	ND	0
47103	2015-06-13T14:00:00	61	ND	ND	ND	ND	ND	ND	ND	ND	ND	ND	0
47104	2015-06-13T15:00:00	64.8	ND	ND	ND	ND	ND	ND	ND	ND	ND	ND	0
47105	2015-06-13T16:00:00	73.3	ND	ND	ND	ND	ND	ND	ND	ND	ND	ND	0
47106	2015-06-13T17:00:00	75.3	ND	ND	ND	ND	ND	ND	ND	ND	ND	ND	0
47107	2015-06-13T18:00:00	74.8	ND	ND	ND	ND	ND	ND	ND	ND	ND	ND	0
47108	2015-06-13T19:00:00	76	ND	ND	ND	ND	ND	ND	ND	ND	ND	ND	0
47109	2015-06-13T20:00:00	66.3	ND	ND	ND	ND	ND	ND	ND	ND	ND	ND	0
47110	2015-06-13T21:00:00	31.3	ND	ND	ND	ND	ND	ND	ND	ND	ND	ND	0
47111	2015-06-13T22:00:00	12.9	ND	ND	ND	ND	ND	ND	ND	ND	ND	ND	0
47112	2015-06-13T23:00:00	45.7	ND	ND	ND	ND	ND	ND	ND	ND	ND	ND	0
47113	2015-06-14T00:00:00	82.8	ND	ND	ND	ND	ND	ND	ND	ND	ND	ND	0
47114	2015-06-14T01:00:00	79.2	ND	ND	ND	ND	ND	ND	ND	ND	ND	ND	0
47115	2015-06-14T02:00:00	58.1	ND	ND	ND	ND	ND	ND	ND	ND	ND	ND	0
47116	2015-06-14T03:00:00	64.9	ND	ND	ND	ND	ND	ND	ND	ND	ND	ND	0
47117	2015-06-14T04:00:00	56.1	ND	ND	ND	ND	ND	ND	ND	ND	ND	ND	0
47118	2015-06-14T05:00:00	45.6	ND	ND	ND	ND	ND	ND	ND	ND	ND	ND	0
47119	2015-06-14T06:00:00	44.1	ND	ND	ND	ND	ND	ND	ND	ND	ND	ND	0
47120	2015-06-14T07:00:00	59	ND	ND	ND	ND	ND	ND	ND	ND	ND	ND	0
47121	2015-06-14T08:00:00	73.2	ND	ND	ND	ND	ND	ND	ND	ND	ND	ND	0
47122	2015-06-14T09:00:00	74.9	ND	ND	ND	ND	ND	ND	ND	ND	ND	ND	0
47123	2015-06-14T10:00:00	50.3	ND	ND	ND	ND	ND	ND	ND	ND	ND	ND	0
47124	2015-06-14T11:00:00	48.2	ND	ND	ND	ND	ND	ND	ND	ND	ND	ND	0
47125	2015-06-14T12:00:00	57.6	ND	ND	ND	ND	ND	ND	ND	ND	ND	ND	0
47126	2015-06-14T13:00:00	52.8	ND	ND	ND	ND	ND	ND	ND	ND	ND	ND	0
47127	2015-06-14T14:00:00	50.8	ND	ND	ND	ND	ND	ND	ND	ND	ND	ND	0
47128	2015-06-14T15:00:00	53.9	ND	ND	ND	ND	ND	ND	ND	ND	ND	ND	0
47129	2015-06-14T16:00:00	44.5	ND	ND	ND	ND	ND	ND	ND	ND	ND	ND	0
47130	2015-06-14T17:00:00	36.8	ND	ND	ND	ND	ND	ND	ND	ND	ND	ND	0
47131	2015-06-14T18:00:00	16.1	ND	ND	ND	ND	ND	ND	ND	ND	ND	ND	0
47132	2015-06-14T19:00:00	4.9	ND	ND	ND	ND	ND	ND	ND	ND	ND	ND	0
47133	2015-06-14T20:00:00	20.7	ND	ND	ND	ND	ND	ND	ND	ND	ND	ND	0
47134	2015-06-14T21:00:00	8.9	ND	ND	ND	ND	ND	ND	ND	ND	ND	ND	0
47135	2015-06-14T22:00:00	11.6	ND	ND	ND	ND	ND	ND	ND	ND	ND	ND	0
47136	2015-06-14T23:00:00	28.5	ND	ND	ND	ND	ND	ND	ND	ND	ND	ND	0
47137	2015-06-15T00:00:00	32.7	ND	ND	ND	ND	ND	ND	ND	ND	ND	ND	0
47138	2015-06-15T01:00:00	30	ND	ND	ND	ND	ND	ND	ND	ND	ND	ND	0
47139	2015-06-15T02:00:00	50.6	ND	ND	ND	ND	ND	ND	ND	ND	ND	ND	0
47140	2015-06-15T03:00:00	35.2	ND	ND	ND	ND	ND	ND	ND	ND	ND	ND	0
47141	2015-06-15T04:00:00	46.8	ND	ND	ND	ND	ND	ND	ND	ND	ND	ND	0
47142	2015-06-15T05:00:00	35.4	ND	ND	ND	ND	ND	ND	ND	ND	ND	ND	0
47143	2015-06-15T06:00:00	45.6	ND	ND	ND	ND	ND	ND	ND	ND	ND	ND	0
47144	2015-06-15T07:00:00	42.2	ND	ND	ND	ND	ND	ND	ND	ND	ND	ND	0
47145	2015-06-15T08:00:00	54.9	ND	ND	ND	ND	ND	ND	ND	ND	ND	ND	0
47146	2015-06-15T09:00:00	57.9	ND	ND	ND	ND	ND	ND	ND	ND	ND	ND	0
47147	2015-06-15T10:00:00	57.9	ND	ND	ND	ND	ND	ND	ND	ND	ND	ND	0
47148	2015-06-15T11:00:00	52.6	ND	ND	ND	ND	ND	ND	ND	ND	ND	ND	0
47149	2015-06-15T12:00:00	49.7	ND	ND	ND	ND	ND	ND	ND	ND	ND	ND	0
47150	2015-06-15T13:00:00	38.2	ND	ND	ND	ND	ND	ND	ND	ND	ND	ND	0
47151	2015-06-15T14:00:00	43.4	ND	ND	ND	ND	ND	ND	ND	ND	ND	ND	0
47152	2015-06-15T15:00:00	42.9	ND	ND	ND	ND	ND	ND	ND	ND	ND	ND	0
47153	2015-06-15T16:00:00	40.3	ND	ND	ND	ND	ND	ND	ND	ND	ND	ND	0
47154	2015-06-15T17:00:00	33.5	ND	ND	ND	ND	ND	ND	ND	ND	ND	ND	0
47155	2015-06-15T18:00:00	26.7	ND	ND	ND	ND	ND	ND	ND	ND	ND	ND	0
47156	2015-06-15T19:00:00	23.8	ND	ND	ND	ND	ND	ND	ND	ND	ND	ND	0.51
47157	2015-06-15T20:00:00	28.2	ND	ND	ND	ND	ND	ND	ND	ND	ND	ND	0
47158	2015-06-15T21:00:00	36.5	ND	ND	ND	ND	ND	ND	ND	ND	ND	ND	0
47159	2015-06-15T22:00:00	38.4	ND	ND	ND	ND	ND	ND	ND	ND	ND	ND	0
47160	2015-06-15T23:00:00	36.4	ND	ND	ND	ND	ND	ND	ND	ND	ND	ND	0
47161	2015-06-16T00:00:00	42.2	ND	ND	ND	ND	ND	ND	ND	ND	ND	ND	0
47162	2015-06-16T01:00:00	64.1	ND	ND	ND	ND	ND	ND	ND	ND	ND	ND	0
47163	2015-06-16T02:00:00	41.4	ND	ND	ND	ND	ND	ND	ND	ND	ND	ND	0
47164	2015-06-16T03:00:00	56.3	ND	ND	ND	ND	ND	ND	ND	ND	ND	ND	0
47165	2015-06-16T04:00:00	68.4	ND	ND	ND	ND	ND	ND	ND	ND	ND	ND	0
47166	2015-06-16T05:00:00	46.1	ND	ND	ND	ND	ND	ND	ND	ND	ND	ND	0
47167	2015-06-16T06:00:00	42.7	ND	ND	ND	ND	ND	ND	ND	ND	ND	ND	0
47168	2015-06-16T07:00:00	60.4	ND	ND	ND	ND	ND	ND	ND	ND	ND	ND	0
47169	2015-06-16T08:00:00	75	ND	ND	ND	ND	ND	ND	ND	ND	ND	ND	0
47170	2015-06-16T09:00:00	95.7	ND	ND	ND	ND	ND	ND	ND	ND	ND	ND	0
47171	2015-06-16T10:00:00	68.1	ND	ND	ND	ND	ND	ND	ND	ND	ND	ND	0
47172	2015-06-16T11:00:00	61.7	ND	ND	ND	ND	ND	ND	ND	ND	ND	ND	0
47173	2015-06-16T12:00:00	68.2	ND	ND	ND	ND	ND	ND	ND	ND	ND	ND	0
47174	2015-06-16T13:00:00	57.2	ND	ND	ND	ND	ND	ND	ND	ND	ND	ND	0
47175	2015-06-16T14:00:00	52.5	ND	ND	ND	ND	ND	ND	ND	ND	ND	ND	0
47176	2015-06-16T15:00:00	36.1	ND	ND	ND	ND	ND	ND	ND	ND	ND	ND	0
47177	2015-06-16T16:00:00	33.6	ND	ND	ND	ND	ND	ND	ND	ND	ND	ND	0
47178	2015-06-16T17:00:00	37.5	ND	ND	ND	ND	ND	ND	ND	ND	ND	ND	0
47179	2015-06-16T18:00:00	27.9	ND	ND	ND	ND	ND	ND	ND	ND	ND	ND	0
47180	2015-06-16T19:00:00	33.6	ND	ND	ND	ND	ND	ND	ND	ND	ND	ND	0
47181	2015-06-16T20:00:00	13.5	ND	ND	ND	ND	ND	ND	ND	ND	ND	ND	0
47182	2015-06-16T21:00:00	1.5	ND	ND	ND	ND	ND	ND	ND	ND	ND	ND	0
47183	2015-06-16T22:00:00	7.5	ND	ND	ND	ND	ND	ND	ND	ND	ND	ND	0
47184	2015-06-16T23:00:00	10.6	ND	ND	ND	ND	ND	ND	ND	ND	ND	ND	0
47185	2015-06-17T00:00:00	38.5	ND	ND	ND	ND	ND	ND	ND	ND	ND	ND	0
47186	2015-06-17T01:00:00	43	ND	ND	ND	ND	ND	ND	ND	ND	ND	ND	0
47187	2015-06-17T02:00:00	42.1	ND	ND	ND	ND	ND	ND	ND	ND	ND	ND	0
47188	2015-06-17T03:00:00	36.5	ND	ND	ND	ND	ND	ND	ND	ND	ND	ND	0
47189	2015-06-17T04:00:00	50.4	ND	ND	ND	ND	ND	ND	ND	ND	ND	ND	0
47190	2015-06-17T05:00:00	39.8	ND	ND	ND	ND	ND	ND	ND	ND	ND	ND	0
47191	2015-06-17T06:00:00	50	ND	ND	ND	ND	ND	ND	ND	ND	ND	ND	0
47192	2015-06-17T07:00:00	41.7	ND	ND	ND	ND	ND	ND	ND	ND	ND	ND	0
47193	2015-06-17T08:00:00	70.7	ND	ND	ND	ND	ND	ND	ND	ND	ND	ND	0
47194	2015-06-17T09:00:00	114.6	ND	ND	ND	ND	ND	ND	ND	ND	ND	ND	0
47195	2015-06-17T10:00:00	116	ND	ND	ND	ND	ND	ND	ND	ND	ND	ND	0
47196	2015-06-17T11:00:00	68.2	ND	ND	ND	ND	ND	ND	ND	ND	ND	ND	0
47197	2015-06-17T12:00:00	52.9	ND	ND	ND	ND	ND	ND	ND	ND	ND	ND	0
47198	2015-06-17T13:00:00	52.6	ND	ND	ND	ND	ND	ND	ND	ND	ND	ND	0
47199	2015-06-17T14:00:00	44	ND	ND	ND	ND	ND	ND	ND	ND	ND	ND	0
47200	2015-06-17T15:00:00	49.8	ND	ND	ND	ND	ND	ND	ND	ND	ND	ND	0
47201	2015-06-17T16:00:00	44.1	ND	ND	ND	ND	ND	ND	ND	ND	ND	ND	0
47202	2015-06-17T17:00:00	49.8	ND	ND	ND	ND	ND	ND	ND	ND	ND	ND	0
47203	2015-06-17T18:00:00	33	ND	ND	ND	ND	ND	ND	ND	ND	ND	ND	0
47204	2015-06-17T19:00:00	27.6	ND	ND	ND	ND	ND	ND	ND	ND	ND	ND	0
47205	2015-06-17T20:00:00	24.1	ND	ND	ND	ND	ND	ND	ND	ND	ND	ND	0
47206	2015-06-17T21:00:00	20	ND	ND	ND	ND	ND	ND	ND	ND	ND	ND	0
47207	2015-06-17T22:00:00	24.5	ND	ND	ND	ND	ND	ND	ND	ND	ND	ND	0
47208	2015-06-17T23:00:00	10.7	ND	ND	ND	ND	ND	ND	ND	ND	ND	ND	0
47209	2015-06-18T00:00:00	30.8	ND	ND	ND	ND	ND	ND	ND	ND	ND	ND	0
47210	2015-06-18T01:00:00	48.1	ND	ND	ND	ND	ND	ND	ND	ND	ND	ND	0
47211	2015-06-18T02:00:00	61.9	ND	ND	ND	ND	ND	ND	ND	ND	ND	ND	0
47212	2015-06-18T03:00:00	79.3	ND	ND	ND	ND	ND	ND	ND	ND	ND	ND	0
47213	2015-06-18T04:00:00	74.6	ND	ND	ND	ND	ND	ND	ND	ND	ND	ND	0
47214	2015-06-18T05:00:00	69	ND	ND	ND	ND	ND	ND	ND	ND	ND	ND	0
47215	2015-06-18T06:00:00	51	ND	ND	ND	ND	ND	ND	ND	ND	ND	ND	0
47216	2015-06-18T07:00:00	63.7	ND	ND	ND	ND	ND	ND	ND	ND	ND	ND	0
47217	2015-06-18T08:00:00	60.1	ND	ND	ND	ND	ND	ND	ND	ND	ND	ND	0
47218	2015-06-18T09:00:00	ND	ND	ND	ND	ND	ND	ND	ND	ND	ND	ND	ND
47219	2015-06-18T10:00:00	ND	ND	ND	ND	ND	ND	ND	ND	ND	ND	ND	ND
47220	2015-06-18T11:00:00	ND	ND	ND	ND	ND	ND	ND	ND	ND	ND	ND	ND
47221	2015-06-18T12:00:00	ND	ND	ND	ND	ND	ND	ND	ND	ND	ND	ND	ND
47222	2015-06-18T13:00:00	ND	ND	ND	ND	ND	ND	ND	ND	ND	ND	ND	ND
47223	2015-06-18T14:00:00	ND	ND	ND	ND	ND	ND	ND	ND	ND	ND	ND	ND
47224	2015-06-18T15:00:00	ND	ND	ND	ND	ND	ND	ND	ND	ND	ND	ND	ND
47225	2015-06-18T16:00:00	ND	ND	ND	ND	ND	ND	ND	ND	ND	ND	ND	ND
47226	2015-06-18T17:00:00	ND	ND	ND	ND	ND	ND	ND	ND	ND	ND	ND	ND
47227	2015-06-18T18:00:00	ND	ND	ND	ND	ND	ND	ND	ND	ND	ND	ND	ND
47228	2015-06-18T19:00:00	ND	ND	ND	ND	ND	ND	ND	ND	ND	ND	ND	ND
47229	2015-06-18T20:00:00	ND	ND	ND	ND	ND	ND	ND	ND	ND	ND	ND	ND
47230	2015-06-18T21:00:00	ND	ND	ND	ND	ND	ND	ND	ND	ND	ND	ND	ND
47231	2015-06-18T22:00:00	ND	ND	ND	ND	ND	ND	ND	ND	ND	ND	ND	ND
47232	2015-06-18T23:00:00	ND	ND	ND	ND	ND	ND	ND	ND	ND	ND	ND	ND
47233	2015-06-19T00:00:00	ND	ND	ND	ND	ND	ND	ND	ND	ND	ND	ND	ND
47234	2015-06-19T01:00:00	ND	ND	ND	ND	ND	ND	ND	ND	ND	ND	ND	ND
47235	2015-06-19T02:00:00	ND	ND	ND	ND	ND	ND	ND	ND	ND	ND	ND	ND
47236	2015-06-19T03:00:00	ND	ND	ND	ND	ND	ND	ND	ND	ND	ND	ND	ND
47237	2015-06-19T04:00:00	ND	ND	ND	ND	ND	ND	ND	ND	ND	ND	ND	ND
47238	2015-06-19T05:00:00	ND	ND	ND	ND	ND	ND	ND	ND	ND	ND	ND	ND
47239	2015-06-19T06:00:00	ND	ND	ND	ND	ND	ND	ND	ND	ND	ND	ND	ND
47240	2015-06-19T07:00:00	ND	ND	ND	ND	ND	ND	ND	ND	ND	ND	ND	ND
47241	2015-06-19T08:00:00	ND	ND	ND	ND	ND	ND	ND	ND	ND	ND	ND	ND
47242	2015-06-19T09:00:00	ND	ND	ND	ND	ND	ND	ND	ND	ND	ND	ND	ND
47243	2015-06-19T10:00:00	ND	ND	ND	ND	ND	ND	ND	ND	ND	ND	ND	ND
47244	2015-06-19T11:00:00	ND	ND	ND	ND	ND	ND	ND	ND	ND	ND	ND	ND
47245	2015-06-19T12:00:00	ND	ND	ND	ND	ND	ND	ND	ND	ND	ND	ND	ND
47246	2015-06-19T13:00:00	ND	ND	ND	ND	ND	ND	ND	ND	ND	ND	ND	ND
47247	2015-06-19T14:00:00	ND	ND	ND	ND	ND	ND	ND	ND	ND	ND	ND	ND
47248	2015-06-19T15:00:00	ND	ND	ND	ND	ND	ND	ND	ND	ND	ND	ND	ND
47249	2015-06-19T16:00:00	ND	ND	ND	ND	ND	ND	ND	ND	ND	ND	ND	ND
47250	2015-06-19T17:00:00	ND	ND	ND	ND	ND	ND	ND	ND	ND	ND	ND	ND
47251	2015-06-19T18:00:00	ND	ND	ND	ND	ND	ND	ND	ND	ND	ND	ND	ND
47252	2015-06-19T19:00:00	ND	ND	ND	ND	ND	ND	ND	ND	ND	ND	ND	ND
47253	2015-06-19T20:00:00	ND	ND	ND	ND	ND	ND	ND	ND	ND	ND	ND	ND
47254	2015-06-19T21:00:00	ND	ND	ND	ND	ND	ND	ND	ND	ND	ND	ND	ND
47255	2015-06-19T22:00:00	ND	ND	ND	ND	ND	ND	ND	ND	ND	ND	ND	ND
47256	2015-06-19T23:00:00	ND	ND	ND	ND	ND	ND	ND	ND	ND	ND	ND	ND
47257	2015-06-20T00:00:00	ND	ND	ND	ND	ND	ND	ND	ND	ND	ND	ND	ND
47258	2015-06-20T01:00:00	ND	ND	ND	ND	ND	ND	ND	ND	ND	ND	ND	ND
47259	2015-06-20T02:00:00	ND	ND	ND	ND	ND	ND	ND	ND	ND	ND	ND	ND
47260	2015-06-20T03:00:00	ND	ND	ND	ND	ND	ND	ND	ND	ND	ND	ND	ND
47261	2015-06-20T04:00:00	ND	ND	ND	ND	ND	ND	ND	ND	ND	ND	ND	ND
47262	2015-06-20T05:00:00	ND	ND	ND	ND	ND	ND	ND	ND	ND	ND	ND	ND
47263	2015-06-20T06:00:00	ND	ND	ND	ND	ND	ND	ND	ND	ND	ND	ND	ND
47264	2015-06-20T07:00:00	ND	ND	ND	ND	ND	ND	ND	ND	ND	ND	ND	ND
47265	2015-06-20T08:00:00	ND	ND	ND	ND	ND	ND	ND	ND	ND	ND	ND	ND
47266	2015-06-20T09:00:00	ND	ND	ND	ND	ND	ND	ND	ND	ND	ND	ND	ND
47267	2015-06-20T10:00:00	ND	ND	ND	ND	ND	ND	ND	ND	ND	ND	ND	ND
47268	2015-06-20T11:00:00	ND	ND	ND	ND	ND	ND	ND	ND	ND	ND	ND	ND
47269	2015-06-20T12:00:00	ND	ND	ND	ND	ND	ND	ND	ND	ND	ND	ND	ND
47270	2015-06-20T13:00:00	ND	ND	ND	ND	ND	ND	ND	ND	ND	ND	ND	ND
47271	2015-06-20T14:00:00	ND	ND	ND	ND	ND	ND	ND	ND	ND	ND	ND	ND
47272	2015-06-20T15:00:00	ND	ND	ND	ND	ND	ND	ND	ND	ND	ND	ND	ND
47273	2015-06-20T16:00:00	ND	ND	ND	ND	ND	ND	ND	ND	ND	ND	ND	ND
47274	2015-06-20T17:00:00	ND	ND	ND	ND	ND	ND	ND	ND	ND	ND	ND	ND
47275	2015-06-20T18:00:00	ND	ND	ND	ND	ND	ND	ND	ND	ND	ND	ND	ND
47276	2015-06-20T19:00:00	ND	ND	ND	ND	ND	ND	ND	ND	ND	ND	ND	ND
47277	2015-06-20T20:00:00	ND	ND	ND	ND	ND	ND	ND	ND	ND	ND	ND	ND
47278	2015-06-20T21:00:00	ND	ND	ND	ND	ND	ND	ND	ND	ND	ND	ND	ND
47279	2015-06-20T22:00:00	ND	ND	ND	ND	ND	ND	ND	ND	ND	ND	ND	ND
47280	2015-06-20T23:00:00	ND	ND	ND	ND	ND	ND	ND	ND	ND	ND	ND	ND
47281	2015-06-21T00:00:00	ND	ND	ND	ND	ND	ND	ND	ND	ND	ND	ND	ND
47282	2015-06-21T01:00:00	ND	ND	ND	ND	ND	ND	ND	ND	ND	ND	ND	ND
47283	2015-06-21T02:00:00	ND	ND	ND	ND	ND	ND	ND	ND	ND	ND	ND	ND
47284	2015-06-21T03:00:00	ND	ND	ND	ND	ND	ND	ND	ND	ND	ND	ND	ND
47285	2015-06-21T04:00:00	ND	ND	ND	ND	ND	ND	ND	ND	ND	ND	ND	ND
47286	2015-06-21T05:00:00	ND	ND	ND	ND	ND	ND	ND	ND	ND	ND	ND	ND
47287	2015-06-21T06:00:00	ND	ND	ND	ND	ND	ND	ND	ND	ND	ND	ND	ND
47288	2015-06-21T07:00:00	ND	ND	ND	ND	ND	ND	ND	ND	ND	ND	ND	ND
47289	2015-06-21T08:00:00	ND	ND	ND	ND	ND	ND	ND	ND	ND	ND	ND	ND
47290	2015-06-21T09:00:00	ND	ND	ND	ND	ND	ND	ND	ND	ND	ND	ND	ND
47291	2015-06-21T10:00:00	ND	ND	ND	ND	ND	ND	ND	ND	ND	ND	ND	ND
47292	2015-06-21T11:00:00	ND	ND	ND	ND	ND	ND	ND	ND	ND	ND	ND	ND
47293	2015-06-21T12:00:00	ND	ND	ND	ND	ND	ND	ND	ND	ND	ND	ND	ND
47294	2015-06-21T13:00:00	ND	ND	ND	ND	ND	ND	ND	ND	ND	ND	ND	ND
47295	2015-06-21T14:00:00	ND	ND	ND	ND	ND	ND	ND	ND	ND	ND	ND	ND
47296	2015-06-21T15:00:00	ND	ND	ND	ND	ND	ND	ND	ND	ND	ND	ND	ND
47297	2015-06-21T16:00:00	ND	ND	ND	ND	ND	ND	ND	ND	ND	ND	ND	ND
47298	2015-06-21T17:00:00	ND	ND	ND	ND	ND	ND	ND	ND	ND	ND	ND	ND
47299	2015-06-21T18:00:00	ND	ND	ND	ND	ND	ND	ND	ND	ND	ND	ND	ND
47300	2015-06-21T19:00:00	ND	ND	ND	ND	ND	ND	ND	ND	ND	ND	ND	ND
47301	2015-06-21T20:00:00	ND	ND	ND	ND	ND	ND	ND	ND	ND	ND	ND	ND
47302	2015-06-21T21:00:00	ND	ND	ND	ND	ND	ND	ND	ND	ND	ND	ND	ND
47303	2015-06-21T22:00:00	ND	ND	ND	ND	ND	ND	ND	ND	ND	ND	ND	ND
47304	2015-06-21T23:00:00	ND	ND	ND	ND	ND	ND	ND	ND	ND	ND	ND	ND
47305	2015-06-22T00:00:00	ND	ND	ND	ND	ND	ND	ND	ND	ND	ND	ND	ND
47306	2015-06-22T01:00:00	ND	ND	ND	ND	ND	ND	ND	ND	ND	ND	ND	ND
47307	2015-06-22T02:00:00	ND	ND	ND	ND	ND	ND	ND	ND	ND	ND	ND	ND
47308	2015-06-22T03:00:00	ND	ND	ND	ND	ND	ND	ND	ND	ND	ND	ND	ND
47309	2015-06-22T04:00:00	ND	ND	ND	ND	ND	ND	ND	ND	ND	ND	ND	ND
47310	2015-06-22T05:00:00	ND	ND	ND	ND	ND	ND	ND	ND	ND	ND	ND	ND
47311	2015-06-22T06:00:00	ND	ND	ND	ND	ND	ND	ND	ND	ND	ND	ND	ND
47312	2015-06-22T07:00:00	ND	ND	ND	ND	ND	ND	ND	ND	ND	ND	ND	ND
47313	2015-06-22T08:00:00	ND	ND	ND	ND	ND	ND	ND	ND	ND	ND	ND	ND
47314	2015-06-22T09:00:00	ND	ND	ND	ND	ND	ND	ND	ND	ND	ND	ND	ND
47315	2015-06-22T10:00:00	ND	ND	ND	ND	ND	ND	ND	ND	ND	ND	ND	ND
47316	2015-06-22T11:00:00	ND	ND	ND	ND	ND	ND	ND	ND	ND	ND	ND	ND
47317	2015-06-22T12:00:00	ND	ND	ND	ND	ND	ND	ND	ND	ND	ND	ND	ND
47318	2015-06-22T13:00:00	ND	ND	ND	ND	ND	ND	ND	ND	ND	ND	ND	ND
47319	2015-06-22T14:00:00	ND	ND	ND	ND	ND	ND	ND	ND	ND	ND	ND	ND
47320	2015-06-22T15:00:00	ND	ND	ND	ND	ND	ND	ND	ND	ND	ND	ND	ND
47321	2015-06-22T16:00:00	ND	ND	ND	ND	ND	ND	ND	ND	ND	ND	ND	ND
47322	2015-06-22T17:00:00	ND	ND	ND	ND	ND	ND	ND	ND	ND	ND	ND	ND
47323	2015-06-22T18:00:00	ND	ND	ND	ND	ND	ND	ND	ND	ND	ND	ND	ND
47324	2015-06-22T19:00:00	ND	ND	ND	ND	ND	ND	ND	ND	ND	ND	ND	ND
47325	2015-06-22T20:00:00	ND	ND	ND	ND	ND	ND	ND	ND	ND	ND	ND	ND
47326	2015-06-22T21:00:00	ND	ND	ND	ND	ND	ND	ND	ND	ND	ND	ND	ND
47327	2015-06-22T22:00:00	ND	ND	ND	ND	ND	ND	ND	ND	ND	ND	ND	ND
47328	2015-06-22T23:00:00	ND	ND	ND	ND	ND	ND	ND	ND	ND	ND	ND	ND
47329	2015-06-23T00:00:00	ND	ND	ND	ND	ND	ND	ND	ND	ND	ND	ND	ND
47330	2015-06-23T01:00:00	ND	ND	ND	ND	ND	ND	ND	ND	ND	ND	ND	ND
47331	2015-06-23T02:00:00	ND	ND	ND	ND	ND	ND	ND	ND	ND	ND	ND	ND
47332	2015-06-23T03:00:00	ND	ND	ND	ND	ND	ND	ND	ND	ND	ND	ND	ND
47333	2015-06-23T04:00:00	ND	ND	ND	ND	ND	ND	ND	ND	ND	ND	ND	ND
47334	2015-06-23T05:00:00	ND	ND	ND	ND	ND	ND	ND	ND	ND	ND	ND	ND
47335	2015-06-23T06:00:00	ND	ND	ND	ND	ND	ND	ND	ND	ND	ND	ND	ND
47336	2015-06-23T07:00:00	ND	ND	ND	ND	ND	ND	ND	ND	ND	ND	ND	ND
47337	2015-06-23T08:00:00	ND	ND	ND	ND	ND	ND	ND	ND	ND	ND	ND	ND
47338	2015-06-23T09:00:00	ND	ND	ND	ND	ND	ND	ND	ND	ND	ND	ND	ND
47339	2015-06-23T10:00:00	ND	ND	ND	ND	ND	ND	ND	ND	ND	ND	ND	ND
47340	2015-06-23T11:00:00	ND	ND	ND	ND	ND	ND	ND	ND	ND	ND	ND	ND
47341	2015-06-23T12:00:00	36.8	ND	ND	ND	ND	ND	ND	ND	ND	ND	ND	0
47342	2015-06-23T13:00:00	45.7	ND	ND	ND	ND	ND	ND	ND	ND	ND	ND	0
47343	2015-06-23T14:00:00	44.4	ND	ND	ND	ND	ND	ND	ND	ND	ND	ND	0
47344	2015-06-23T15:00:00	52.7	ND	ND	ND	ND	ND	ND	ND	ND	ND	ND	0
47345	2015-06-23T16:00:00	52.1	ND	ND	ND	ND	ND	ND	ND	ND	ND	ND	0
47346	2015-06-23T17:00:00	53.4	ND	ND	ND	ND	ND	ND	ND	ND	ND	ND	0
47347	2015-06-23T18:00:00	52	ND	ND	ND	ND	ND	ND	ND	ND	ND	ND	0
47348	2015-06-23T19:00:00	54.1	ND	ND	ND	ND	ND	ND	ND	ND	ND	ND	0
47349	2015-06-23T20:00:00	45.6	ND	ND	ND	ND	ND	ND	ND	ND	ND	ND	0
47350	2015-06-23T21:00:00	32.3	ND	ND	ND	ND	ND	ND	ND	ND	ND	ND	0
47351	2015-06-23T22:00:00	23.7	ND	ND	ND	ND	ND	ND	ND	ND	ND	ND	0
47352	2015-06-23T23:00:00	17.2	ND	ND	ND	ND	ND	ND	ND	ND	ND	ND	0
47353	2015-06-24T00:00:00	26.4	ND	ND	ND	ND	ND	ND	ND	ND	ND	ND	0
47354	2015-06-24T01:00:00	54.8	ND	ND	ND	ND	ND	ND	ND	ND	ND	ND	0
47355	2015-06-24T02:00:00	41.5	ND	ND	ND	ND	ND	ND	ND	ND	ND	ND	0
47356	2015-06-24T03:00:00	12.8	ND	ND	ND	ND	ND	ND	ND	ND	ND	ND	0
47357	2015-06-24T04:00:00	8.1	ND	ND	ND	ND	ND	ND	ND	ND	ND	ND	0
47358	2015-06-24T05:00:00	10.6	ND	ND	ND	ND	ND	ND	ND	ND	ND	ND	0
47359	2015-06-24T06:00:00	31.4	ND	ND	ND	ND	ND	ND	ND	ND	ND	ND	0
47360	2015-06-24T07:00:00	42	ND	ND	ND	ND	ND	ND	ND	ND	ND	ND	0
47361	2015-06-24T08:00:00	45.3	ND	ND	ND	ND	ND	ND	ND	ND	ND	ND	0
47362	2015-06-24T09:00:00	57.7	ND	ND	ND	ND	ND	ND	ND	ND	ND	ND	0
47363	2015-06-24T10:00:00	89.3	ND	ND	ND	ND	ND	ND	ND	ND	ND	ND	0
47364	2015-06-24T11:00:00	79.1	ND	ND	ND	ND	ND	ND	ND	ND	ND	ND	0
47365	2015-06-24T12:00:00	59.5	ND	ND	ND	ND	ND	ND	ND	ND	ND	ND	0
47366	2015-06-24T13:00:00	56.4	ND	ND	ND	ND	ND	ND	ND	ND	ND	ND	0
47367	2015-06-24T14:00:00	35.1	ND	ND	ND	ND	ND	ND	ND	ND	ND	ND	0
47368	2015-06-24T15:00:00	32	ND	ND	ND	ND	ND	ND	ND	ND	ND	ND	0
47369	2015-06-24T16:00:00	44.2	ND	ND	ND	ND	ND	ND	ND	ND	ND	ND	0
47370	2015-06-24T17:00:00	49	ND	ND	ND	ND	ND	ND	ND	ND	ND	ND	0
47371	2015-06-24T18:00:00	55.7	ND	ND	ND	ND	ND	ND	ND	ND	ND	ND	0
47372	2015-06-24T19:00:00	45.2	ND	ND	ND	ND	ND	ND	ND	ND	ND	ND	0
47373	2015-06-24T20:00:00	28.5	ND	ND	ND	ND	ND	ND	ND	ND	ND	ND	0
47374	2015-06-24T21:00:00	28.4	ND	ND	ND	ND	ND	ND	ND	ND	ND	ND	0
47375	2015-06-24T22:00:00	27.3	ND	ND	ND	ND	ND	ND	ND	ND	ND	ND	0
47376	2015-06-24T23:00:00	46	ND	ND	ND	ND	ND	ND	ND	ND	ND	ND	0
47377	2015-06-25T00:00:00	35.3	ND	ND	ND	ND	ND	ND	ND	ND	ND	ND	0
47378	2015-06-25T01:00:00	23.2	ND	ND	ND	ND	ND	ND	ND	ND	ND	ND	0
47379	2015-06-25T02:00:00	32.5	ND	ND	ND	ND	ND	ND	ND	ND	ND	ND	0
47380	2015-06-25T03:00:00	32.1	ND	ND	ND	ND	ND	ND	ND	ND	ND	ND	0
47381	2015-06-25T04:00:00	17.7	ND	ND	ND	ND	ND	ND	ND	ND	ND	ND	0
47382	2015-06-25T05:00:00	17.1	ND	ND	ND	ND	ND	ND	ND	ND	ND	ND	0
47383	2015-06-25T06:00:00	20.1	ND	ND	ND	ND	ND	ND	ND	ND	ND	ND	0
47384	2015-06-25T07:00:00	48.9	ND	ND	ND	ND	ND	ND	ND	ND	ND	ND	0
47385	2015-06-25T08:00:00	70.8	ND	ND	ND	ND	ND	ND	ND	ND	ND	ND	0
47386	2015-06-25T09:00:00	94.9	ND	ND	ND	ND	ND	ND	ND	ND	ND	ND	0
47387	2015-06-25T10:00:00	131	ND	ND	ND	ND	ND	ND	ND	ND	ND	ND	0
47388	2015-06-25T11:00:00	86.6	ND	ND	ND	ND	ND	ND	ND	ND	ND	ND	0
47389	2015-06-25T12:00:00	65.6	ND	ND	ND	ND	ND	ND	ND	ND	ND	ND	0
47390	2015-06-25T13:00:00	51.4	ND	ND	ND	ND	ND	ND	ND	ND	ND	ND	0
47391	2015-06-25T14:00:00	48.1	ND	ND	ND	ND	ND	ND	ND	ND	ND	ND	0
47392	2015-06-25T15:00:00	44.5	ND	ND	ND	ND	ND	ND	ND	ND	ND	ND	0
47393	2015-06-25T16:00:00	51.5	ND	ND	ND	ND	ND	ND	ND	ND	ND	ND	0
47394	2015-06-25T17:00:00	49.1	ND	ND	ND	ND	ND	ND	ND	ND	ND	ND	0
47395	2015-06-25T18:00:00	57.2	ND	ND	ND	ND	ND	ND	ND	ND	ND	ND	0
47396	2015-06-25T19:00:00	64.1	ND	ND	ND	ND	ND	ND	ND	ND	ND	ND	0
47397	2015-06-25T20:00:00	50.8	ND	ND	ND	ND	ND	ND	ND	ND	ND	ND	0
47398	2015-06-25T21:00:00	30.9	ND	ND	ND	ND	ND	ND	ND	ND	ND	ND	0
47399	2015-06-25T22:00:00	24.8	ND	ND	ND	ND	ND	ND	ND	ND	ND	ND	0
47400	2015-06-25T23:00:00	19.9	ND	ND	ND	ND	ND	ND	ND	ND	ND	ND	0
47401	2015-06-26T00:00:00	60.8	ND	ND	ND	ND	ND	ND	ND	ND	ND	ND	0
47402	2015-06-26T01:00:00	36.4	ND	ND	ND	ND	ND	ND	ND	ND	ND	ND	0
47403	2015-06-26T02:00:00	30.7	ND	ND	ND	ND	ND	ND	ND	ND	ND	ND	0
47404	2015-06-26T03:00:00	39.4	ND	ND	ND	ND	ND	ND	ND	ND	ND	ND	0
47405	2015-06-26T04:00:00	27.3	ND	ND	ND	ND	ND	ND	ND	ND	ND	ND	0
47406	2015-06-26T05:00:00	42.9	ND	ND	ND	ND	ND	ND	ND	ND	ND	ND	0
47407	2015-06-26T06:00:00	36.7	ND	ND	ND	ND	ND	ND	ND	ND	ND	ND	0
47408	2015-06-26T07:00:00	33.1	ND	ND	ND	ND	ND	ND	ND	ND	ND	ND	0
47409	2015-06-26T08:00:00	61.7	ND	ND	ND	ND	ND	ND	ND	ND	ND	ND	0
47410	2015-06-26T09:00:00	82.7	ND	ND	ND	ND	ND	ND	ND	ND	ND	ND	0
47411	2015-06-26T10:00:00	86	ND	ND	ND	ND	ND	ND	ND	ND	ND	ND	0
47412	2015-06-26T11:00:00	71.9	ND	ND	ND	ND	ND	ND	ND	ND	ND	ND	0
47413	2015-06-26T12:00:00	60.3	ND	ND	ND	ND	ND	ND	ND	ND	ND	ND	0
47414	2015-06-26T13:00:00	61.1	ND	ND	ND	ND	ND	ND	ND	ND	ND	ND	0
47415	2015-06-26T14:00:00	55.6	ND	ND	ND	ND	ND	ND	ND	ND	ND	ND	0
47416	2015-06-26T15:00:00	54.2	ND	ND	ND	ND	ND	ND	ND	ND	ND	ND	0
47417	2015-06-26T16:00:00	56.7	ND	ND	ND	ND	ND	ND	ND	ND	ND	ND	0
47418	2015-06-26T17:00:00	65	ND	ND	ND	ND	ND	ND	ND	ND	ND	ND	0
47419	2015-06-26T18:00:00	58.7	ND	ND	ND	ND	ND	ND	ND	ND	ND	ND	0
47420	2015-06-26T19:00:00	45.2	ND	ND	ND	ND	ND	ND	ND	ND	ND	ND	0
47421	2015-06-26T20:00:00	36.2	ND	ND	ND	ND	ND	ND	ND	ND	ND	ND	0
47422	2015-06-26T21:00:00	21.9	ND	ND	ND	ND	ND	ND	ND	ND	ND	ND	0
47423	2015-06-26T22:00:00	20.6	ND	ND	ND	ND	ND	ND	ND	ND	ND	ND	0
47424	2015-06-26T23:00:00	55	ND	ND	ND	ND	ND	ND	ND	ND	ND	ND	0
47425	2015-06-27T00:00:00	28.2	ND	ND	ND	ND	ND	ND	ND	ND	ND	ND	0
47426	2015-06-27T01:00:00	6.9	ND	ND	ND	ND	ND	ND	ND	ND	ND	ND	0
47427	2015-06-27T02:00:00	1.5	ND	ND	ND	ND	ND	ND	ND	ND	ND	ND	0
47428	2015-06-27T03:00:00	18.7	ND	ND	ND	ND	ND	ND	ND	ND	ND	ND	0
47429	2015-06-27T04:00:00	41.3	ND	ND	ND	ND	ND	ND	ND	ND	ND	ND	0
47430	2015-06-27T05:00:00	39.7	ND	ND	ND	ND	ND	ND	ND	ND	ND	ND	0
47431	2015-06-27T06:00:00	31.1	ND	ND	ND	ND	ND	ND	ND	ND	ND	ND	0
47432	2015-06-27T07:00:00	26.4	ND	ND	ND	ND	ND	ND	ND	ND	ND	ND	0
47433	2015-06-27T08:00:00	58.4	ND	ND	ND	ND	ND	ND	ND	ND	ND	ND	0
47434	2015-06-27T09:00:00	57.5	ND	ND	ND	ND	ND	ND	ND	ND	ND	ND	0
47435	2015-06-27T10:00:00	115.9	ND	ND	ND	ND	ND	ND	ND	ND	ND	ND	0
47436	2015-06-27T11:00:00	106.8	ND	ND	ND	ND	ND	ND	ND	ND	ND	ND	0
47437	2015-06-27T12:00:00	62.9	ND	ND	ND	ND	ND	ND	ND	ND	ND	ND	0
47438	2015-06-27T13:00:00	46.2	ND	ND	ND	ND	ND	ND	ND	ND	ND	ND	0
47439	2015-06-27T14:00:00	51.1	ND	ND	ND	ND	ND	ND	ND	ND	ND	ND	0
47440	2015-06-27T15:00:00	50.6	ND	ND	ND	ND	ND	ND	ND	ND	ND	ND	0
47441	2015-06-27T16:00:00	46.7	ND	ND	ND	ND	ND	ND	ND	ND	ND	ND	0
47442	2015-06-27T17:00:00	35.4	ND	ND	ND	ND	ND	ND	ND	ND	ND	ND	0
47443	2015-06-27T18:00:00	32	ND	ND	ND	ND	ND	ND	ND	ND	ND	ND	0
47444	2015-06-27T19:00:00	22.9	ND	ND	ND	ND	ND	ND	ND	ND	ND	ND	0
47445	2015-06-27T20:00:00	22.3	ND	ND	ND	ND	ND	ND	ND	ND	ND	ND	0
47446	2015-06-27T21:00:00	23.1	ND	ND	ND	ND	ND	ND	ND	ND	ND	ND	0
47447	2015-06-27T22:00:00	16.2	ND	ND	ND	ND	ND	ND	ND	ND	ND	ND	0
47448	2015-06-27T23:00:00	9.5	ND	ND	ND	ND	ND	ND	ND	ND	ND	ND	0
47449	2015-06-28T00:00:00	41	ND	ND	ND	ND	ND	ND	ND	ND	ND	ND	0
47450	2015-06-28T01:00:00	55.7	ND	ND	ND	ND	ND	ND	ND	ND	ND	ND	0
47451	2015-06-28T02:00:00	31.4	ND	ND	ND	ND	ND	ND	ND	ND	ND	ND	0
47452	2015-06-28T03:00:00	51.9	ND	ND	ND	ND	ND	ND	ND	ND	ND	ND	0
47453	2015-06-28T04:00:00	33.7	ND	ND	ND	ND	ND	ND	ND	ND	ND	ND	0
47454	2015-06-28T05:00:00	33.3	ND	ND	ND	ND	ND	ND	ND	ND	ND	ND	0
47455	2015-06-28T06:00:00	27.5	ND	ND	ND	ND	ND	ND	ND	ND	ND	ND	0
47456	2015-06-28T07:00:00	20.1	ND	ND	ND	ND	ND	ND	ND	ND	ND	ND	0
47457	2015-06-28T08:00:00	40.9	ND	ND	ND	ND	ND	ND	ND	ND	ND	ND	0
47458	2015-06-28T09:00:00	58.7	ND	ND	ND	ND	ND	ND	ND	ND	ND	ND	0
47459	2015-06-28T10:00:00	46.7	ND	ND	ND	ND	ND	ND	ND	ND	ND	ND	0
47460	2015-06-28T11:00:00	46.4	ND	ND	ND	ND	ND	ND	ND	ND	ND	ND	0
47461	2015-06-28T12:00:00	38.7	ND	ND	ND	ND	ND	ND	ND	ND	ND	ND	0
47462	2015-06-28T13:00:00	36.6	ND	ND	ND	ND	ND	ND	ND	ND	ND	ND	0
47463	2015-06-28T14:00:00	40.8	ND	ND	ND	ND	ND	ND	ND	ND	ND	ND	0
47464	2015-06-28T15:00:00	40	ND	ND	ND	ND	ND	ND	ND	ND	ND	ND	0
47465	2015-06-28T16:00:00	33.9	ND	ND	ND	ND	ND	ND	ND	ND	ND	ND	0
47466	2015-06-28T17:00:00	28.8	ND	ND	ND	ND	ND	ND	ND	ND	ND	ND	0
47467	2015-06-28T18:00:00	19.1	ND	ND	ND	ND	ND	ND	ND	ND	ND	ND	0
47468	2015-06-28T19:00:00	16.9	ND	ND	ND	ND	ND	ND	ND	ND	ND	ND	0
47469	2015-06-28T20:00:00	16.5	ND	ND	ND	ND	ND	ND	ND	ND	ND	ND	0
47470	2015-06-28T21:00:00	15.8	ND	ND	ND	ND	ND	ND	ND	ND	ND	ND	0
47471	2015-06-28T22:00:00	18	ND	ND	ND	ND	ND	ND	ND	ND	ND	ND	0
47472	2015-06-28T23:00:00	24.6	ND	ND	ND	ND	ND	ND	ND	ND	ND	ND	0
47473	2015-06-29T00:00:00	17.7	ND	ND	ND	ND	ND	ND	ND	ND	ND	ND	0
47474	2015-06-29T01:00:00	25.5	ND	ND	ND	ND	ND	ND	ND	ND	ND	ND	0
47475	2015-06-29T02:00:00	18.2	ND	ND	ND	ND	ND	ND	ND	ND	ND	ND	0
47476	2015-06-29T03:00:00	19.4	ND	ND	ND	ND	ND	ND	ND	ND	ND	ND	0
47477	2015-06-29T04:00:00	35.4	ND	ND	ND	ND	ND	ND	ND	ND	ND	ND	0
47478	2015-06-29T05:00:00	43.8	ND	ND	ND	ND	ND	ND	ND	ND	ND	ND	0
47479	2015-06-29T06:00:00	41	ND	ND	ND	ND	ND	ND	ND	ND	ND	ND	0
47480	2015-06-29T07:00:00	44.9	ND	ND	ND	ND	ND	ND	ND	ND	ND	ND	0
47481	2015-06-29T08:00:00	55	ND	ND	ND	ND	ND	ND	ND	ND	ND	ND	0
47482	2015-06-29T09:00:00	47.6	ND	ND	ND	ND	ND	ND	ND	ND	ND	ND	0
47483	2015-06-29T10:00:00	43.9	ND	ND	ND	ND	ND	ND	ND	ND	ND	ND	0
47484	2015-06-29T11:00:00	38.2	ND	ND	ND	ND	ND	ND	ND	ND	ND	ND	0
47485	2015-06-29T12:00:00	40.4	ND	ND	ND	ND	ND	ND	ND	ND	ND	ND	0
47486	2015-06-29T13:00:00	39.8	ND	ND	ND	ND	ND	ND	ND	ND	ND	ND	0
47487	2015-06-29T14:00:00	42	ND	ND	ND	ND	ND	ND	ND	ND	ND	ND	0
47488	2015-06-29T15:00:00	39.7	ND	ND	ND	ND	ND	ND	ND	ND	ND	ND	0
47489	2015-06-29T16:00:00	35.3	ND	ND	ND	ND	ND	ND	ND	ND	ND	ND	0
47490	2015-06-29T17:00:00	21.1	ND	ND	ND	ND	ND	ND	ND	ND	ND	ND	0
47491	2015-06-29T18:00:00	19.9	ND	ND	ND	ND	ND	ND	ND	ND	ND	ND	0
47492	2015-06-29T19:00:00	11.4	ND	ND	ND	ND	ND	ND	ND	ND	ND	ND	0
47493	2015-06-29T20:00:00	6.5	ND	ND	ND	ND	ND	ND	ND	ND	ND	ND	0
47494	2015-06-29T21:00:00	12.9	ND	ND	ND	ND	ND	ND	ND	ND	ND	ND	0
47495	2015-06-29T22:00:00	15	ND	ND	ND	ND	ND	ND	ND	ND	ND	ND	0
47496	2015-06-29T23:00:00	34	ND	ND	ND	ND	ND	ND	ND	ND	ND	ND	0
47497	2015-06-30T00:00:00	32.7	ND	ND	ND	ND	ND	ND	ND	ND	ND	ND	0
47498	2015-06-30T01:00:00	36.2	ND	ND	ND	ND	ND	ND	ND	ND	ND	ND	0
47499	2015-06-30T02:00:00	32.8	ND	ND	ND	ND	ND	ND	ND	ND	ND	ND	0
47500	2015-06-30T03:00:00	26.7	ND	ND	ND	ND	ND	ND	ND	ND	ND	ND	0
47501	2015-06-30T04:00:00	30.3	ND	ND	ND	ND	ND	ND	ND	ND	ND	ND	0
47502	2015-06-30T05:00:00	54.9	ND	ND	ND	ND	ND	ND	ND	ND	ND	ND	0
47503	2015-06-30T06:00:00	63.7	ND	ND	ND	ND	ND	ND	ND	ND	ND	ND	0
47504	2015-06-30T07:00:00	81.1	ND	ND	ND	ND	ND	ND	ND	ND	ND	ND	0
47505	2015-06-30T08:00:00	98.2	ND	ND	ND	ND	ND	ND	ND	ND	ND	ND	0
47506	2015-06-30T09:00:00	123.8	ND	ND	ND	ND	ND	ND	ND	ND	ND	ND	0
47507	2015-06-30T10:00:00	112.9	ND	ND	ND	ND	ND	ND	ND	ND	ND	ND	0
47508	2015-06-30T11:00:00	69	ND	ND	ND	ND	ND	ND	ND	ND	ND	ND	0
47509	2015-06-30T12:00:00	60.1	ND	ND	ND	ND	ND	ND	ND	ND	ND	ND	0
47510	2015-06-30T13:00:00	61.7	ND	ND	ND	ND	ND	ND	ND	ND	ND	ND	0
47511	2015-06-30T14:00:00	61.4	ND	ND	ND	ND	ND	ND	ND	ND	ND	ND	0
47512	2015-06-30T15:00:00	66.7	ND	ND	ND	ND	ND	ND	ND	ND	ND	ND	0
47513	2015-06-30T16:00:00	64.6	ND	ND	ND	ND	ND	ND	ND	ND	ND	ND	0
47514	2015-06-30T17:00:00	64.1	ND	ND	ND	ND	ND	ND	ND	ND	ND	ND	0
47515	2015-06-30T18:00:00	56.8	ND	ND	ND	ND	ND	ND	ND	ND	ND	ND	0
47516	2015-06-30T19:00:00	53.9	ND	ND	ND	ND	ND	ND	ND	ND	ND	ND	0
47517	2015-06-30T20:00:00	42.2	ND	ND	ND	ND	ND	ND	ND	ND	ND	ND	0
47518	2015-06-30T21:00:00	30.7	ND	ND	ND	ND	ND	ND	ND	ND	ND	ND	0
47519	2015-06-30T22:00:00	22.9	ND	ND	ND	ND	ND	ND	ND	ND	ND	ND	0
47520	2015-06-30T23:00:00	21.7	ND	ND	ND	ND	ND	ND	ND	ND	ND	ND	0
47521	2015-07-01T00:00:00	20	ND	ND	ND	ND	ND	ND	ND	ND	ND	ND	0
47522	2015-07-01T01:00:00	23.8	ND	ND	ND	ND	ND	ND	ND	ND	ND	ND	0
47523	2015-07-01T02:00:00	16.6	ND	ND	ND	ND	ND	ND	ND	ND	ND	ND	0
47524	2015-07-01T03:00:00	49	ND	ND	ND	ND	ND	ND	ND	ND	ND	ND	0
47525	2015-07-01T04:00:00	85.6	ND	ND	ND	ND	ND	ND	ND	ND	ND	ND	0
47526	2015-07-01T05:00:00	91.1	ND	ND	ND	ND	ND	ND	ND	ND	ND	ND	0
47527	2015-07-01T06:00:00	83.7	ND	ND	ND	ND	ND	ND	ND	ND	ND	ND	0
47528	2015-07-01T07:00:00	62.2	ND	ND	ND	ND	ND	ND	ND	ND	ND	ND	0
47529	2015-07-01T08:00:00	112.6	ND	ND	ND	ND	ND	ND	ND	ND	ND	ND	0
47530	2015-07-01T09:00:00	118.2	ND	ND	ND	ND	ND	ND	ND	ND	ND	ND	0
47531	2015-07-01T10:00:00	111	ND	ND	ND	ND	ND	ND	ND	ND	ND	ND	0
47532	2015-07-01T11:00:00	85.6	ND	ND	ND	ND	ND	ND	ND	ND	ND	ND	0
47533	2015-07-01T12:00:00	66	ND	ND	ND	ND	ND	ND	ND	ND	ND	ND	0
47534	2015-07-01T13:00:00	62.3	ND	ND	ND	ND	ND	ND	ND	ND	ND	ND	0
47535	2015-07-01T14:00:00	60.1	ND	ND	ND	ND	ND	ND	ND	ND	ND	ND	0
47536	2015-07-01T15:00:00	61.6	ND	ND	ND	ND	ND	ND	ND	ND	ND	ND	0
47537	2015-07-01T16:00:00	44.1	ND	ND	ND	ND	ND	ND	ND	ND	ND	ND	0
47538	2015-07-01T17:00:00	61.2	ND	ND	ND	ND	ND	ND	ND	ND	ND	ND	0
47539	2015-07-01T18:00:00	41.7	ND	ND	ND	ND	ND	ND	ND	ND	ND	ND	0
47540	2015-07-01T19:00:00	40	ND	ND	ND	ND	ND	ND	ND	ND	ND	ND	0
47541	2015-07-01T20:00:00	31	ND	ND	ND	ND	ND	ND	ND	ND	ND	ND	0
47542	2015-07-01T21:00:00	24.2	ND	ND	ND	ND	ND	ND	ND	ND	ND	ND	0
47543	2015-07-01T22:00:00	25.9	ND	ND	ND	ND	ND	ND	ND	ND	ND	ND	0
47544	2015-07-01T23:00:00	25.4	ND	ND	ND	ND	ND	ND	ND	ND	ND	ND	0
47545	2015-07-02T00:00:00	35	ND	ND	ND	ND	ND	ND	ND	ND	ND	ND	0
47546	2015-07-02T01:00:00	54.2	ND	ND	ND	ND	ND	ND	ND	ND	ND	ND	0
47547	2015-07-02T02:00:00	53.5	ND	ND	ND	ND	ND	ND	ND	ND	ND	ND	0
47548	2015-07-02T03:00:00	29.3	ND	ND	ND	ND	ND	ND	ND	ND	ND	ND	0
47549	2015-07-02T04:00:00	22	ND	ND	ND	ND	ND	ND	ND	ND	ND	ND	0
47550	2015-07-02T05:00:00	63.8	ND	ND	ND	ND	ND	ND	ND	ND	ND	ND	0
47551	2015-07-02T06:00:00	78.3	ND	ND	ND	ND	ND	ND	ND	ND	ND	ND	0
47552	2015-07-02T07:00:00	75.4	ND	ND	ND	ND	ND	ND	ND	ND	ND	ND	0
47553	2015-07-02T08:00:00	70.4	ND	ND	ND	ND	ND	ND	ND	ND	ND	ND	0
47554	2015-07-02T09:00:00	81.5	ND	ND	ND	ND	ND	ND	ND	ND	ND	ND	0
47555	2015-07-02T10:00:00	92.9	ND	ND	ND	ND	ND	ND	ND	ND	ND	ND	0
47556	2015-07-02T11:00:00	78.3	ND	ND	ND	ND	ND	ND	ND	ND	ND	ND	0
47557	2015-07-02T12:00:00	75.6	ND	ND	ND	ND	ND	ND	ND	ND	ND	ND	0
47558	2015-07-02T13:00:00	78.7	ND	ND	ND	ND	ND	ND	ND	ND	ND	ND	0
47559	2015-07-02T14:00:00	58.8	ND	ND	ND	ND	ND	ND	ND	ND	ND	ND	0
47560	2015-07-02T15:00:00	48.1	ND	ND	ND	ND	ND	ND	ND	ND	ND	ND	0
47561	2015-07-02T16:00:00	41.6	ND	ND	ND	ND	ND	ND	ND	ND	ND	ND	0
47562	2015-07-02T17:00:00	35.6	ND	ND	ND	ND	ND	ND	ND	ND	ND	ND	0
47563	2015-07-02T18:00:00	34.5	ND	ND	ND	ND	ND	ND	ND	ND	ND	ND	0
47564	2015-07-02T19:00:00	41.5	ND	ND	ND	ND	ND	ND	ND	ND	ND	ND	0
47565	2015-07-02T20:00:00	43.4	ND	ND	ND	ND	ND	ND	ND	ND	ND	ND	0
47566	2015-07-02T21:00:00	27.9	ND	ND	ND	ND	ND	ND	ND	ND	ND	ND	0
47567	2015-07-02T22:00:00	34.7	ND	ND	ND	ND	ND	ND	ND	ND	ND	ND	0
47568	2015-07-02T23:00:00	60.4	ND	ND	ND	ND	ND	ND	ND	ND	ND	ND	0
47569	2015-07-03T00:00:00	41	ND	ND	ND	ND	ND	ND	ND	ND	ND	ND	0
47570	2015-07-03T01:00:00	41.9	ND	ND	ND	ND	ND	ND	ND	ND	ND	ND	0
47571	2015-07-03T02:00:00	33.5	ND	ND	ND	ND	ND	ND	ND	ND	ND	ND	0
47572	2015-07-03T03:00:00	25.8	ND	ND	ND	ND	ND	ND	ND	ND	ND	ND	0
47573	2015-07-03T04:00:00	30.4	ND	ND	ND	ND	ND	ND	ND	ND	ND	ND	0
47574	2015-07-03T05:00:00	66	ND	ND	ND	ND	ND	ND	ND	ND	ND	ND	0
47575	2015-07-03T06:00:00	97.2	ND	ND	ND	ND	ND	ND	ND	ND	ND	ND	0
47576	2015-07-03T07:00:00	109.1	ND	ND	ND	ND	ND	ND	ND	ND	ND	ND	0
47577	2015-07-03T08:00:00	121.3	ND	ND	ND	ND	ND	ND	ND	ND	ND	ND	0
47578	2015-07-03T09:00:00	132.5	ND	ND	ND	ND	ND	ND	ND	ND	ND	ND	0
47579	2015-07-03T10:00:00	141	ND	ND	ND	ND	ND	ND	ND	ND	ND	ND	0
47580	2015-07-03T11:00:00	88.4	ND	ND	ND	ND	ND	ND	ND	ND	ND	ND	0
47581	2015-07-03T12:00:00	68.3	ND	ND	ND	ND	ND	ND	ND	ND	ND	ND	0
47582	2015-07-03T13:00:00	53.7	ND	ND	ND	ND	ND	ND	ND	ND	ND	ND	0
47583	2015-07-03T14:00:00	48.6	ND	ND	ND	ND	ND	ND	ND	ND	ND	ND	0
47584	2015-07-03T15:00:00	54.9	ND	ND	ND	ND	ND	ND	ND	ND	ND	ND	0
47585	2015-07-03T16:00:00	72.7	ND	ND	ND	ND	ND	ND	ND	ND	ND	ND	0
47586	2015-07-03T17:00:00	69.8	ND	ND	ND	ND	ND	ND	ND	ND	ND	ND	0
47587	2015-07-03T18:00:00	65.4	ND	ND	ND	ND	ND	ND	ND	ND	ND	ND	0
47588	2015-07-03T19:00:00	49.3	ND	ND	ND	ND	ND	ND	ND	ND	ND	ND	0
47589	2015-07-03T20:00:00	34.9	ND	ND	ND	ND	ND	ND	ND	ND	ND	ND	0
47590	2015-07-03T21:00:00	24.8	ND	ND	ND	ND	ND	ND	ND	ND	ND	ND	0
47591	2015-07-03T22:00:00	15.8	ND	ND	ND	ND	ND	ND	ND	ND	ND	ND	0
47592	2015-07-03T23:00:00	31.4	ND	ND	ND	ND	ND	ND	ND	ND	ND	ND	0
47593	2015-07-04T00:00:00	27.6	ND	ND	ND	ND	ND	ND	ND	ND	ND	ND	0
47594	2015-07-04T01:00:00	57.2	ND	ND	ND	ND	ND	ND	ND	ND	ND	ND	0
47595	2015-07-04T02:00:00	70.6	ND	ND	ND	ND	ND	ND	ND	ND	ND	ND	0
47596	2015-07-04T03:00:00	66.3	ND	ND	ND	ND	ND	ND	ND	ND	ND	ND	0
47597	2015-07-04T04:00:00	63.9	ND	ND	ND	ND	ND	ND	ND	ND	ND	ND	0
47598	2015-07-04T05:00:00	58.6	ND	ND	ND	ND	ND	ND	ND	ND	ND	ND	0
47599	2015-07-04T06:00:00	58.7	ND	ND	ND	ND	ND	ND	ND	ND	ND	ND	0
47600	2015-07-04T07:00:00	49.8	ND	ND	ND	ND	ND	ND	ND	ND	ND	ND	0
47601	2015-07-04T08:00:00	64.2	ND	ND	ND	ND	ND	ND	ND	ND	ND	ND	0
47602	2015-07-04T09:00:00	116.7	ND	ND	ND	ND	ND	ND	ND	ND	ND	ND	0
47603	2015-07-04T10:00:00	93.7	ND	ND	ND	ND	ND	ND	ND	ND	ND	ND	0
47604	2015-07-04T11:00:00	84.2	ND	ND	ND	ND	ND	ND	ND	ND	ND	ND	0
47605	2015-07-04T12:00:00	83.9	ND	ND	ND	ND	ND	ND	ND	ND	ND	ND	0
47606	2015-07-04T13:00:00	101.2	ND	ND	ND	ND	ND	ND	ND	ND	ND	ND	0
47607	2015-07-04T14:00:00	104.7	ND	ND	ND	ND	ND	ND	ND	ND	ND	ND	0
47608	2015-07-04T15:00:00	78	ND	ND	ND	ND	ND	ND	ND	ND	ND	ND	0
47609	2015-07-04T16:00:00	65.2	ND	ND	ND	ND	ND	ND	ND	ND	ND	ND	0
47610	2015-07-04T17:00:00	62.4	ND	ND	ND	ND	ND	ND	ND	ND	ND	ND	0
47611	2015-07-04T18:00:00	35.6	ND	ND	ND	ND	ND	ND	ND	ND	ND	ND	0
47612	2015-07-04T19:00:00	23.4	ND	ND	ND	ND	ND	ND	ND	ND	ND	ND	0
47613	2015-07-04T20:00:00	29.1	ND	ND	ND	ND	ND	ND	ND	ND	ND	ND	0
47614	2015-07-04T21:00:00	26.1	ND	ND	ND	ND	ND	ND	ND	ND	ND	ND	0
47615	2015-07-04T22:00:00	24.3	ND	ND	ND	ND	ND	ND	ND	ND	ND	ND	0
47616	2015-07-04T23:00:00	28.5	ND	ND	ND	ND	ND	ND	ND	ND	ND	ND	0
47617	2015-07-05T00:00:00	35.7	ND	ND	ND	ND	ND	ND	ND	ND	ND	ND	0
47618	2015-07-05T01:00:00	33.7	ND	ND	ND	ND	ND	ND	ND	ND	ND	ND	0
47619	2015-07-05T02:00:00	30.1	ND	ND	ND	ND	ND	ND	ND	ND	ND	ND	0
47620	2015-07-05T03:00:00	51.1	ND	ND	ND	ND	ND	ND	ND	ND	ND	ND	0
47621	2015-07-05T04:00:00	74.4	ND	ND	ND	ND	ND	ND	ND	ND	ND	ND	0
47622	2015-07-05T05:00:00	79.1	ND	ND	ND	ND	ND	ND	ND	ND	ND	ND	0
47623	2015-07-05T06:00:00	77	ND	ND	ND	ND	ND	ND	ND	ND	ND	ND	0
47624	2015-07-05T07:00:00	73.1	ND	ND	ND	ND	ND	ND	ND	ND	ND	ND	0
47625	2015-07-05T08:00:00	84.4	ND	ND	ND	ND	ND	ND	ND	ND	ND	ND	0
47626	2015-07-05T09:00:00	70.1	ND	ND	ND	ND	ND	ND	ND	ND	ND	ND	0
47627	2015-07-05T10:00:00	80	ND	ND	ND	ND	ND	ND	ND	ND	ND	ND	0
47628	2015-07-05T11:00:00	78.7	ND	ND	ND	ND	ND	ND	ND	ND	ND	ND	0
47629	2015-07-05T12:00:00	81.8	ND	ND	ND	ND	ND	ND	ND	ND	ND	ND	0
47630	2015-07-05T13:00:00	71.9	ND	ND	ND	ND	ND	ND	ND	ND	ND	ND	0
47631	2015-07-05T14:00:00	69.6	ND	ND	ND	ND	ND	ND	ND	ND	ND	ND	0
47632	2015-07-05T15:00:00	68.5	ND	ND	ND	ND	ND	ND	ND	ND	ND	ND	0
47633	2015-07-05T16:00:00	26.1	ND	ND	ND	ND	ND	ND	ND	ND	ND	ND	0
47634	2015-07-05T17:00:00	20.1	ND	ND	ND	ND	ND	ND	ND	ND	ND	ND	0
47635	2015-07-05T18:00:00	14.5	ND	ND	ND	ND	ND	ND	ND	ND	ND	ND	0
47636	2015-07-05T19:00:00	18.9	ND	ND	ND	ND	ND	ND	ND	ND	ND	ND	0
47637	2015-07-05T20:00:00	14.3	ND	ND	ND	ND	ND	ND	ND	ND	ND	ND	0
47638	2015-07-05T21:00:00	15.2	ND	ND	ND	ND	ND	ND	ND	ND	ND	ND	0
47639	2015-07-05T22:00:00	18.1	ND	ND	ND	ND	ND	ND	ND	ND	ND	ND	0
47640	2015-07-05T23:00:00	30.8	ND	ND	ND	ND	ND	ND	ND	ND	ND	ND	0
47641	2015-07-06T00:00:00	34.4	ND	ND	ND	ND	ND	ND	ND	ND	ND	ND	0
47642	2015-07-06T01:00:00	47.7	ND	ND	ND	ND	ND	ND	ND	ND	ND	ND	0
47643	2015-07-06T02:00:00	52.1	ND	ND	ND	ND	ND	ND	ND	ND	ND	ND	0
47644	2015-07-06T03:00:00	43.5	ND	ND	ND	ND	ND	ND	ND	ND	ND	ND	0
47645	2015-07-06T04:00:00	47.6	ND	ND	ND	ND	ND	ND	ND	ND	ND	ND	0
47646	2015-07-06T05:00:00	50.2	ND	ND	ND	ND	ND	ND	ND	ND	ND	ND	0
47647	2015-07-06T06:00:00	48.4	ND	ND	ND	ND	ND	ND	ND	ND	ND	ND	0
47648	2015-07-06T07:00:00	43.2	ND	ND	ND	ND	ND	ND	ND	ND	ND	ND	0
47649	2015-07-06T08:00:00	35.7	ND	ND	ND	ND	ND	ND	ND	ND	ND	ND	0.25
47650	2015-07-06T09:00:00	44.7	ND	ND	ND	ND	ND	ND	ND	ND	ND	ND	0
47651	2015-07-06T10:00:00	56.9	ND	ND	ND	ND	ND	ND	ND	ND	ND	ND	0
47652	2015-07-06T11:00:00	50.4	ND	ND	ND	ND	ND	ND	ND	ND	ND	ND	0
47653	2015-07-06T12:00:00	58.1	ND	ND	ND	ND	ND	ND	ND	ND	ND	ND	0
47654	2015-07-06T13:00:00	72	ND	ND	ND	ND	ND	ND	ND	ND	ND	ND	0
47655	2015-07-06T14:00:00	55.2	ND	ND	ND	ND	ND	ND	ND	ND	ND	ND	0
47656	2015-07-06T15:00:00	39.7	ND	ND	ND	ND	ND	ND	ND	ND	ND	ND	0
47657	2015-07-06T16:00:00	29.3	ND	ND	ND	ND	ND	ND	ND	ND	ND	ND	0
47658	2015-07-06T17:00:00	28.8	ND	ND	ND	ND	ND	ND	ND	ND	ND	ND	0
47659	2015-07-06T18:00:00	26	ND	ND	ND	ND	ND	ND	ND	ND	ND	ND	0
47660	2015-07-06T19:00:00	21.3	ND	ND	ND	ND	ND	ND	ND	ND	ND	ND	0
47661	2015-07-06T20:00:00	27.4	ND	ND	ND	ND	ND	ND	ND	ND	ND	ND	0
47662	2015-07-06T21:00:00	46.8	ND	ND	ND	ND	ND	ND	ND	ND	ND	ND	0
47663	2015-07-06T22:00:00	42.5	ND	ND	ND	ND	ND	ND	ND	ND	ND	ND	0
47664	2015-07-06T23:00:00	36	ND	ND	ND	ND	ND	ND	ND	ND	ND	ND	0
47665	2015-07-07T00:00:00	48.3	ND	ND	ND	ND	ND	ND	ND	ND	ND	ND	0
47666	2015-07-07T01:00:00	66.4	ND	ND	ND	ND	ND	ND	ND	ND	ND	ND	0
47667	2015-07-07T02:00:00	62.5	ND	ND	ND	ND	ND	ND	ND	ND	ND	ND	0
47668	2015-07-07T03:00:00	50.5	ND	ND	ND	ND	ND	ND	ND	ND	ND	ND	0
47669	2015-07-07T04:00:00	38.9	ND	ND	ND	ND	ND	ND	ND	ND	ND	ND	0
47670	2015-07-07T05:00:00	33	ND	ND	ND	ND	ND	ND	ND	ND	ND	ND	0
47671	2015-07-07T06:00:00	21.6	ND	ND	ND	ND	ND	ND	ND	ND	ND	ND	0
47672	2015-07-07T07:00:00	27.3	ND	ND	ND	ND	ND	ND	ND	ND	ND	ND	0
47673	2015-07-07T08:00:00	42.7	ND	ND	ND	ND	ND	ND	ND	ND	ND	ND	0
47674	2015-07-07T09:00:00	50.4	ND	ND	ND	ND	ND	ND	ND	ND	ND	ND	0
47675	2015-07-07T10:00:00	68	ND	ND	ND	ND	ND	ND	ND	ND	ND	ND	0
47676	2015-07-07T11:00:00	58.8	ND	ND	ND	ND	ND	ND	ND	ND	ND	ND	0
47677	2015-07-07T12:00:00	55.7	ND	ND	ND	ND	ND	ND	ND	ND	ND	ND	0
47678	2015-07-07T13:00:00	56.2	ND	ND	ND	ND	ND	ND	ND	ND	ND	ND	0
47679	2015-07-07T14:00:00	51.7	ND	ND	ND	ND	ND	ND	ND	ND	ND	ND	0
47680	2015-07-07T15:00:00	36.2	ND	ND	ND	ND	ND	ND	ND	ND	ND	ND	0
47681	2015-07-07T16:00:00	27.7	ND	ND	ND	ND	ND	ND	ND	ND	ND	ND	0
47682	2015-07-07T17:00:00	27.4	ND	ND	ND	ND	ND	ND	ND	ND	ND	ND	0.76
47683	2015-07-07T18:00:00	48.6	ND	ND	ND	ND	ND	ND	ND	ND	ND	ND	1.27
47684	2015-07-07T19:00:00	41.9	ND	ND	ND	ND	ND	ND	ND	ND	ND	ND	0
47685	2015-07-07T20:00:00	26.3	ND	ND	ND	ND	ND	ND	ND	ND	ND	ND	0
47686	2015-07-07T21:00:00	33.4	ND	ND	ND	ND	ND	ND	ND	ND	ND	ND	0
47687	2015-07-07T22:00:00	34.1	ND	ND	ND	ND	ND	ND	ND	ND	ND	ND	0
47688	2015-07-07T23:00:00	21.9	ND	ND	ND	ND	ND	ND	ND	ND	ND	ND	0
47689	2015-07-08T00:00:00	32.1	ND	ND	ND	ND	ND	ND	ND	ND	ND	ND	0
47690	2015-07-08T01:00:00	44.8	ND	ND	ND	ND	ND	ND	ND	ND	ND	ND	0
47691	2015-07-08T02:00:00	62.9	ND	ND	ND	ND	ND	ND	ND	ND	ND	ND	0
47692	2015-07-08T03:00:00	37.1	ND	ND	ND	ND	ND	ND	ND	ND	ND	ND	0
47693	2015-07-08T04:00:00	38.3	ND	ND	ND	ND	ND	ND	ND	ND	ND	ND	0
47694	2015-07-08T05:00:00	33.3	ND	ND	ND	ND	ND	ND	ND	ND	ND	ND	0
47695	2015-07-08T06:00:00	29.7	ND	ND	ND	ND	ND	ND	ND	ND	ND	ND	0
47696	2015-07-08T07:00:00	36.8	ND	ND	ND	ND	ND	ND	ND	ND	ND	ND	0
47697	2015-07-08T08:00:00	48.6	ND	ND	ND	ND	ND	ND	ND	ND	ND	ND	0
47698	2015-07-08T09:00:00	68.1	ND	ND	ND	ND	ND	ND	ND	ND	ND	ND	0
47699	2015-07-08T10:00:00	64.1	ND	ND	ND	ND	ND	ND	ND	ND	ND	ND	0
47700	2015-07-08T11:00:00	50.6	ND	ND	ND	ND	ND	ND	ND	ND	ND	ND	0
47701	2015-07-08T12:00:00	44.1	ND	ND	ND	ND	ND	ND	ND	ND	ND	ND	0
47702	2015-07-08T13:00:00	49.5	ND	ND	ND	ND	ND	ND	ND	ND	ND	ND	0
47703	2015-07-08T14:00:00	39.7	ND	ND	ND	ND	ND	ND	ND	ND	ND	ND	0
47704	2015-07-08T15:00:00	38.8	ND	ND	ND	ND	ND	ND	ND	ND	ND	ND	0
47705	2015-07-08T16:00:00	38	ND	ND	ND	ND	ND	ND	ND	ND	ND	ND	0
47706	2015-07-08T17:00:00	37.7	ND	ND	ND	ND	ND	ND	ND	ND	ND	ND	0
47707	2015-07-08T18:00:00	31.6	ND	ND	ND	ND	ND	ND	ND	ND	ND	ND	0
47708	2015-07-08T19:00:00	35.6	ND	ND	ND	ND	ND	ND	ND	ND	ND	ND	0
47709	2015-07-08T20:00:00	21.7	ND	ND	ND	ND	ND	ND	ND	ND	ND	ND	0
47710	2015-07-08T21:00:00	20	ND	ND	ND	ND	ND	ND	ND	ND	ND	ND	0
47711	2015-07-08T22:00:00	26.6	ND	ND	ND	ND	ND	ND	ND	ND	ND	ND	0
47712	2015-07-08T23:00:00	20.2	ND	ND	ND	ND	ND	ND	ND	ND	ND	ND	0
47713	2015-07-09T00:00:00	30.7	ND	ND	ND	ND	ND	ND	ND	ND	ND	ND	0
47714	2015-07-09T01:00:00	29.1	ND	ND	ND	ND	ND	ND	ND	ND	ND	ND	0
47715	2015-07-09T02:00:00	37.6	ND	ND	ND	ND	ND	ND	ND	ND	ND	ND	0
47716	2015-07-09T03:00:00	39.7	ND	ND	ND	ND	ND	ND	ND	ND	ND	ND	0
47717	2015-07-09T04:00:00	80.7	ND	ND	ND	ND	ND	ND	ND	ND	ND	ND	0
47718	2015-07-09T05:00:00	63.9	ND	ND	ND	ND	ND	ND	ND	ND	ND	ND	0
47719	2015-07-09T06:00:00	43.3	ND	ND	ND	ND	ND	ND	ND	ND	ND	ND	0
47720	2015-07-09T07:00:00	66.1	ND	ND	ND	ND	ND	ND	ND	ND	ND	ND	0
47721	2015-07-09T08:00:00	58.2	ND	ND	ND	ND	ND	ND	ND	ND	ND	ND	0
47722	2015-07-09T09:00:00	71.5	ND	ND	ND	ND	ND	ND	ND	ND	ND	ND	0
47723	2015-07-09T10:00:00	53.8	ND	ND	ND	ND	ND	ND	ND	ND	ND	ND	0
47724	2015-07-09T11:00:00	61.2	ND	ND	ND	ND	ND	ND	ND	ND	ND	ND	0
47725	2015-07-09T12:00:00	54.7	ND	ND	ND	ND	ND	ND	ND	ND	ND	ND	0
47726	2015-07-09T13:00:00	40.9	ND	ND	ND	ND	ND	ND	ND	ND	ND	ND	0
47727	2015-07-09T14:00:00	49.8	ND	ND	ND	ND	ND	ND	ND	ND	ND	ND	0
47728	2015-07-09T15:00:00	57.6	ND	ND	ND	ND	ND	ND	ND	ND	ND	ND	0
47729	2015-07-09T16:00:00	43.3	ND	ND	ND	ND	ND	ND	ND	ND	ND	ND	0
47730	2015-07-09T17:00:00	35.5	ND	ND	ND	ND	ND	ND	ND	ND	ND	ND	0
47731	2015-07-09T18:00:00	35.3	ND	ND	ND	ND	ND	ND	ND	ND	ND	ND	0
47732	2015-07-09T19:00:00	30.4	ND	ND	ND	ND	ND	ND	ND	ND	ND	ND	0
47733	2015-07-09T20:00:00	22.7	ND	ND	ND	ND	ND	ND	ND	ND	ND	ND	0
47734	2015-07-09T21:00:00	19.7	ND	ND	ND	ND	ND	ND	ND	ND	ND	ND	0
47735	2015-07-09T22:00:00	26.4	ND	ND	ND	ND	ND	ND	ND	ND	ND	ND	0
47736	2015-07-09T23:00:00	53.4	ND	ND	ND	ND	ND	ND	ND	ND	ND	ND	0
47737	2015-07-10T00:00:00	51.1	ND	ND	ND	ND	ND	ND	ND	ND	ND	ND	0
47738	2015-07-10T01:00:00	41.2	ND	ND	ND	ND	ND	ND	ND	ND	ND	ND	0
47739	2015-07-10T02:00:00	53.9	ND	ND	ND	ND	ND	ND	ND	ND	ND	ND	0
47740	2015-07-10T03:00:00	53.7	ND	ND	ND	ND	ND	ND	ND	ND	ND	ND	0
47741	2015-07-10T04:00:00	51.2	ND	ND	ND	ND	ND	ND	ND	ND	ND	ND	0
47742	2015-07-10T05:00:00	52.5	ND	ND	ND	ND	ND	ND	ND	ND	ND	ND	0
47743	2015-07-10T06:00:00	72.9	ND	ND	ND	ND	ND	ND	ND	ND	ND	ND	0
47744	2015-07-10T07:00:00	94.4	ND	ND	ND	ND	ND	ND	ND	ND	ND	ND	0
47745	2015-07-10T08:00:00	82.6	ND	ND	ND	ND	ND	ND	ND	ND	ND	ND	0
47746	2015-07-10T09:00:00	92.4	ND	ND	ND	ND	ND	ND	ND	ND	ND	ND	0
47747	2015-07-10T10:00:00	90.3	ND	ND	ND	ND	ND	ND	ND	ND	ND	ND	0
47748	2015-07-10T11:00:00	82.2	ND	ND	ND	ND	ND	ND	ND	ND	ND	ND	0
47749	2015-07-10T12:00:00	78.2	ND	ND	ND	ND	ND	ND	ND	ND	ND	ND	0
47750	2015-07-10T13:00:00	63.8	ND	ND	ND	ND	ND	ND	ND	ND	ND	ND	0
47751	2015-07-10T14:00:00	72.4	ND	ND	ND	ND	ND	ND	ND	ND	ND	ND	0
47752	2015-07-10T15:00:00	72.2	ND	ND	ND	ND	ND	ND	ND	ND	ND	ND	0
47753	2015-07-10T16:00:00	71.4	ND	ND	ND	ND	ND	ND	ND	ND	ND	ND	0
47754	2015-07-10T17:00:00	62	ND	ND	ND	ND	ND	ND	ND	ND	ND	ND	0
47755	2015-07-10T18:00:00	40.6	ND	ND	ND	ND	ND	ND	ND	ND	ND	ND	0
47756	2015-07-10T19:00:00	32.4	ND	ND	ND	ND	ND	ND	ND	ND	ND	ND	0
47757	2015-07-10T20:00:00	22.3	ND	ND	ND	ND	ND	ND	ND	ND	ND	ND	0
47758	2015-07-10T21:00:00	18	ND	ND	ND	ND	ND	ND	ND	ND	ND	ND	0
47759	2015-07-10T22:00:00	21.9	ND	ND	ND	ND	ND	ND	ND	ND	ND	ND	0
47760	2015-07-10T23:00:00	22	ND	ND	ND	ND	ND	ND	ND	ND	ND	ND	0
47761	2015-07-11T00:00:00	12.2	ND	ND	ND	ND	ND	ND	ND	ND	ND	ND	0.25
47762	2015-07-11T01:00:00	5.4	ND	ND	ND	ND	ND	ND	ND	ND	ND	ND	0
47763	2015-07-11T02:00:00	27.2	ND	ND	ND	ND	ND	ND	ND	ND	ND	ND	0
47764	2015-07-11T03:00:00	27	ND	ND	ND	ND	ND	ND	ND	ND	ND	ND	0
47765	2015-07-11T04:00:00	21.9	ND	ND	ND	ND	ND	ND	ND	ND	ND	ND	0
47766	2015-07-11T05:00:00	20	ND	ND	ND	ND	ND	ND	ND	ND	ND	ND	0
47767	2015-07-11T06:00:00	15.7	ND	ND	ND	ND	ND	ND	ND	ND	ND	ND	0
47768	2015-07-11T07:00:00	26.8	ND	ND	ND	ND	ND	ND	ND	ND	ND	ND	0
47769	2015-07-11T08:00:00	39	ND	ND	ND	ND	ND	ND	ND	ND	ND	ND	0
47770	2015-07-11T09:00:00	77.7	ND	ND	ND	ND	ND	ND	ND	ND	ND	ND	0
47771	2015-07-11T10:00:00	85.3	ND	ND	ND	ND	ND	ND	ND	ND	ND	ND	0
47772	2015-07-11T11:00:00	75.6	ND	ND	ND	ND	ND	ND	ND	ND	ND	ND	0
47773	2015-07-11T12:00:00	81.9	ND	ND	ND	ND	ND	ND	ND	ND	ND	ND	0
47774	2015-07-11T13:00:00	78.7	ND	ND	ND	ND	ND	ND	ND	ND	ND	ND	0
47775	2015-07-11T14:00:00	79.1	ND	ND	ND	ND	ND	ND	ND	ND	ND	ND	0
47776	2015-07-11T15:00:00	64.9	ND	ND	ND	ND	ND	ND	ND	ND	ND	ND	0
47777	2015-07-11T16:00:00	35.8	ND	ND	ND	ND	ND	ND	ND	ND	ND	ND	0
47778	2015-07-11T17:00:00	18.3	ND	ND	ND	ND	ND	ND	ND	ND	ND	ND	0
47779	2015-07-11T18:00:00	23	ND	ND	ND	ND	ND	ND	ND	ND	ND	ND	0
47780	2015-07-11T19:00:00	20.5	ND	ND	ND	ND	ND	ND	ND	ND	ND	ND	0
47781	2015-07-11T20:00:00	10.8	ND	ND	ND	ND	ND	ND	ND	ND	ND	ND	0
47782	2015-07-11T21:00:00	10.3	ND	ND	ND	ND	ND	ND	ND	ND	ND	ND	0
47783	2015-07-11T22:00:00	11.4	ND	ND	ND	ND	ND	ND	ND	ND	ND	ND	0
47784	2015-07-11T23:00:00	34.4	ND	ND	ND	ND	ND	ND	ND	ND	ND	ND	0
47785	2015-07-12T00:00:00	38.1	ND	ND	ND	ND	ND	ND	ND	ND	ND	ND	0
47786	2015-07-12T01:00:00	35	ND	ND	ND	ND	ND	ND	ND	ND	ND	ND	0
47787	2015-07-12T02:00:00	34.8	ND	ND	ND	ND	ND	ND	ND	ND	ND	ND	0
47788	2015-07-12T03:00:00	38.3	ND	ND	ND	ND	ND	ND	ND	ND	ND	ND	0
47789	2015-07-12T04:00:00	29.5	ND	ND	ND	ND	ND	ND	ND	ND	ND	ND	0
47790	2015-07-12T05:00:00	28.4	ND	ND	ND	ND	ND	ND	ND	ND	ND	ND	0
47791	2015-07-12T06:00:00	23.5	ND	ND	ND	ND	ND	ND	ND	ND	ND	ND	0
47792	2015-07-12T07:00:00	33.7	ND	ND	ND	ND	ND	ND	ND	ND	ND	ND	0
47793	2015-07-12T08:00:00	38.4	ND	ND	ND	ND	ND	ND	ND	ND	ND	ND	0
47794	2015-07-12T09:00:00	56.9	ND	ND	ND	ND	ND	ND	ND	ND	ND	ND	0
47795	2015-07-12T10:00:00	44.7	ND	ND	ND	ND	ND	ND	ND	ND	ND	ND	0
47796	2015-07-12T11:00:00	30.9	ND	ND	ND	ND	ND	ND	ND	ND	ND	ND	0
47797	2015-07-12T12:00:00	28.8	ND	ND	ND	ND	ND	ND	ND	ND	ND	ND	0
47798	2015-07-12T13:00:00	36.2	ND	ND	ND	ND	ND	ND	ND	ND	ND	ND	0
47799	2015-07-12T14:00:00	50.5	ND	ND	ND	ND	ND	ND	ND	ND	ND	ND	0
47800	2015-07-12T15:00:00	50.1	ND	ND	ND	ND	ND	ND	ND	ND	ND	ND	0
47801	2015-07-12T16:00:00	44	ND	ND	ND	ND	ND	ND	ND	ND	ND	ND	0
47802	2015-07-12T17:00:00	21.3	ND	ND	ND	ND	ND	ND	ND	ND	ND	ND	0
47803	2015-07-12T18:00:00	14	ND	ND	ND	ND	ND	ND	ND	ND	ND	ND	0
47804	2015-07-12T19:00:00	19.2	ND	ND	ND	ND	ND	ND	ND	ND	ND	ND	0
47805	2015-07-12T20:00:00	14.6	ND	ND	ND	ND	ND	ND	ND	ND	ND	ND	0
47806	2015-07-12T21:00:00	7.5	ND	ND	ND	ND	ND	ND	ND	ND	ND	ND	0
47807	2015-07-12T22:00:00	8.3	ND	ND	ND	ND	ND	ND	ND	ND	ND	ND	0
47808	2015-07-12T23:00:00	14.8	ND	ND	ND	ND	ND	ND	ND	ND	ND	ND	0
47809	2015-07-13T00:00:00	22.1	ND	ND	ND	ND	ND	ND	ND	ND	ND	ND	0
47810	2015-07-13T01:00:00	21.7	ND	ND	ND	ND	ND	ND	ND	ND	ND	ND	0
47811	2015-07-13T02:00:00	11.9	ND	ND	ND	ND	ND	ND	ND	ND	ND	ND	0
47812	2015-07-13T03:00:00	22.8	ND	ND	ND	ND	ND	ND	ND	ND	ND	ND	0
47813	2015-07-13T04:00:00	23.2	ND	ND	ND	ND	ND	ND	ND	ND	ND	ND	0
47814	2015-07-13T05:00:00	24.9	ND	ND	ND	ND	ND	ND	ND	ND	ND	ND	0
47815	2015-07-13T06:00:00	25.4	ND	ND	ND	ND	ND	ND	ND	ND	ND	ND	0
47816	2015-07-13T07:00:00	31.7	ND	ND	ND	ND	ND	ND	ND	ND	ND	ND	0
47817	2015-07-13T08:00:00	51.4	ND	ND	ND	ND	ND	ND	ND	ND	ND	ND	0
47818	2015-07-13T09:00:00	75.9	ND	ND	ND	ND	ND	ND	ND	ND	ND	ND	0
47819	2015-07-13T10:00:00	71.5	ND	ND	ND	ND	ND	ND	ND	ND	ND	ND	0
47820	2015-07-13T11:00:00	51.7	ND	ND	ND	ND	ND	ND	ND	ND	ND	ND	0
47821	2015-07-13T12:00:00	43.6	ND	ND	ND	ND	ND	ND	ND	ND	ND	ND	0
47822	2015-07-13T13:00:00	37	ND	ND	ND	ND	ND	ND	ND	ND	ND	ND	0
47823	2015-07-13T14:00:00	41.1	ND	ND	ND	ND	ND	ND	ND	ND	ND	ND	0
47824	2015-07-13T15:00:00	50.2	ND	ND	ND	ND	ND	ND	ND	ND	ND	ND	0
47825	2015-07-13T16:00:00	41.8	ND	ND	ND	ND	ND	ND	ND	ND	ND	ND	0
47826	2015-07-13T17:00:00	36.7	ND	ND	ND	ND	ND	ND	ND	ND	ND	ND	0
47827	2015-07-13T18:00:00	28.5	ND	ND	ND	ND	ND	ND	ND	ND	ND	ND	0
47828	2015-07-13T19:00:00	30.1	ND	ND	ND	ND	ND	ND	ND	ND	ND	ND	0
47829	2015-07-13T20:00:00	25	ND	ND	ND	ND	ND	ND	ND	ND	ND	ND	0
47830	2015-07-13T21:00:00	15.1	ND	ND	ND	ND	ND	ND	ND	ND	ND	ND	0
47831	2015-07-13T22:00:00	13.7	ND	ND	ND	ND	ND	ND	ND	ND	ND	ND	0
47832	2015-07-13T23:00:00	12.8	ND	ND	ND	ND	ND	ND	ND	ND	ND	ND	0
47833	2015-07-14T00:00:00	12.2	ND	ND	ND	ND	ND	ND	ND	ND	ND	ND	0
47834	2015-07-14T01:00:00	43.4	ND	ND	ND	ND	ND	ND	ND	ND	ND	ND	0
47835	2015-07-14T02:00:00	75.4	ND	ND	ND	ND	ND	ND	ND	ND	ND	ND	0
47836	2015-07-14T03:00:00	57.8	ND	ND	ND	ND	ND	ND	ND	ND	ND	ND	0
47837	2015-07-14T04:00:00	40.9	ND	ND	ND	ND	ND	ND	ND	ND	ND	ND	0
47838	2015-07-14T05:00:00	32.1	ND	ND	ND	ND	ND	ND	ND	ND	ND	ND	0
47839	2015-07-14T06:00:00	64.1	ND	ND	ND	ND	ND	ND	ND	ND	ND	ND	0
47840	2015-07-14T07:00:00	73.9	ND	ND	ND	ND	ND	ND	ND	ND	ND	ND	0
47841	2015-07-14T08:00:00	71.2	ND	ND	ND	ND	ND	ND	ND	ND	ND	ND	0
47842	2015-07-14T09:00:00	93.7	ND	ND	ND	ND	ND	ND	ND	ND	ND	ND	0
47843	2015-07-14T10:00:00	100.4	ND	ND	ND	ND	ND	ND	ND	ND	ND	ND	0
47844	2015-07-14T11:00:00	79.5	ND	ND	ND	ND	ND	ND	ND	ND	ND	ND	0
47845	2015-07-14T12:00:00	54.7	ND	ND	ND	ND	ND	ND	ND	ND	ND	ND	0
47846	2015-07-14T13:00:00	51.4	ND	ND	ND	ND	ND	ND	ND	ND	ND	ND	0
47847	2015-07-14T14:00:00	54.3	ND	ND	ND	ND	ND	ND	ND	ND	ND	ND	0
47848	2015-07-14T15:00:00	61.4	ND	ND	ND	ND	ND	ND	ND	ND	ND	ND	0
47849	2015-07-14T16:00:00	55.5	ND	ND	ND	ND	ND	ND	ND	ND	ND	ND	0
47850	2015-07-14T17:00:00	59.1	ND	ND	ND	ND	ND	ND	ND	ND	ND	ND	0
47851	2015-07-14T18:00:00	50.5	ND	ND	ND	ND	ND	ND	ND	ND	ND	ND	0
47852	2015-07-14T19:00:00	31.9	ND	ND	ND	ND	ND	ND	ND	ND	ND	ND	0
47853	2015-07-14T20:00:00	17.8	ND	ND	ND	ND	ND	ND	ND	ND	ND	ND	0
47854	2015-07-14T21:00:00	13	ND	ND	ND	ND	ND	ND	ND	ND	ND	ND	0
47855	2015-07-14T22:00:00	11.7	ND	ND	ND	ND	ND	ND	ND	ND	ND	ND	0
47856	2015-07-14T23:00:00	30.8	ND	ND	ND	ND	ND	ND	ND	ND	ND	ND	0
47857	2015-07-15T00:00:00	21.6	ND	ND	ND	ND	ND	ND	ND	ND	ND	ND	0
47858	2015-07-15T01:00:00	25.5	ND	ND	ND	ND	ND	ND	ND	ND	ND	ND	0
47859	2015-07-15T02:00:00	33.3	ND	ND	ND	ND	ND	ND	ND	ND	ND	ND	0
47860	2015-07-15T03:00:00	45.9	ND	ND	ND	ND	ND	ND	ND	ND	ND	ND	0
47861	2015-07-15T04:00:00	81.2	ND	ND	ND	ND	ND	ND	ND	ND	ND	ND	0
47862	2015-07-15T05:00:00	95.8	ND	ND	ND	ND	ND	ND	ND	ND	ND	ND	0
47863	2015-07-15T06:00:00	75.1	ND	ND	ND	ND	ND	ND	ND	ND	ND	ND	0
47864	2015-07-15T07:00:00	84	ND	ND	ND	ND	ND	ND	ND	ND	ND	ND	0
47865	2015-07-15T08:00:00	112.5	ND	ND	ND	ND	ND	ND	ND	ND	ND	ND	0
47866	2015-07-15T09:00:00	124	ND	ND	ND	ND	ND	ND	ND	ND	ND	ND	0
47867	2015-07-15T10:00:00	82.2	ND	ND	ND	ND	ND	ND	ND	ND	ND	ND	0
47868	2015-07-15T11:00:00	78.8	ND	ND	ND	ND	ND	ND	ND	ND	ND	ND	0
47869	2015-07-15T12:00:00	66.1	ND	ND	ND	ND	ND	ND	ND	ND	ND	ND	0
47870	2015-07-15T13:00:00	67.7	ND	ND	ND	ND	ND	ND	ND	ND	ND	ND	0
47871	2015-07-15T14:00:00	63.8	ND	ND	ND	ND	ND	ND	ND	ND	ND	ND	0
47872	2015-07-15T15:00:00	67.3	ND	ND	ND	ND	ND	ND	ND	ND	ND	ND	0
47873	2015-07-15T16:00:00	49.1	ND	ND	ND	ND	ND	ND	ND	ND	ND	ND	0
47874	2015-07-15T17:00:00	37.6	ND	ND	ND	ND	ND	ND	ND	ND	ND	ND	0
47875	2015-07-15T18:00:00	30.2	ND	ND	ND	ND	ND	ND	ND	ND	ND	ND	0
47876	2015-07-15T19:00:00	36	ND	ND	ND	ND	ND	ND	ND	ND	ND	ND	0
47877	2015-07-15T20:00:00	16.3	ND	ND	ND	ND	ND	ND	ND	ND	ND	ND	0
47878	2015-07-15T21:00:00	12.6	ND	ND	ND	ND	ND	ND	ND	ND	ND	ND	0
47879	2015-07-15T22:00:00	25.2	ND	ND	ND	ND	ND	ND	ND	ND	ND	ND	0
47880	2015-07-15T23:00:00	29.4	ND	ND	ND	ND	ND	ND	ND	ND	ND	ND	0
47881	2015-07-16T00:00:00	39.6	ND	ND	ND	ND	ND	ND	ND	ND	ND	ND	0
47882	2015-07-16T01:00:00	53.9	ND	ND	ND	ND	ND	ND	ND	ND	ND	ND	0
47883	2015-07-16T02:00:00	58.8	ND	ND	ND	ND	ND	ND	ND	ND	ND	ND	0
47884	2015-07-16T03:00:00	48.7	ND	ND	ND	ND	ND	ND	ND	ND	ND	ND	0
47885	2015-07-16T04:00:00	49.3	ND	ND	ND	ND	ND	ND	ND	ND	ND	ND	0
47886	2015-07-16T05:00:00	43.8	ND	ND	ND	ND	ND	ND	ND	ND	ND	ND	0
47887	2015-07-16T06:00:00	36.6	ND	ND	ND	ND	ND	ND	ND	ND	ND	ND	0
47888	2015-07-16T07:00:00	51	ND	ND	ND	ND	ND	ND	ND	ND	ND	ND	0
47889	2015-07-16T08:00:00	64.9	ND	ND	ND	ND	ND	ND	ND	ND	ND	ND	0
47890	2015-07-16T09:00:00	68.7	ND	ND	ND	ND	ND	ND	ND	ND	ND	ND	0
47891	2015-07-16T10:00:00	72.6	ND	ND	ND	ND	ND	ND	ND	ND	ND	ND	0
47892	2015-07-16T11:00:00	54.9	ND	ND	ND	ND	ND	ND	ND	ND	ND	ND	0
47893	2015-07-16T12:00:00	36.1	ND	ND	ND	ND	ND	ND	ND	ND	ND	ND	0
47894	2015-07-16T13:00:00	39.9	ND	ND	ND	ND	ND	ND	ND	ND	ND	ND	0
47895	2015-07-16T14:00:00	45.7	ND	ND	ND	ND	ND	ND	ND	ND	ND	ND	0
47896	2015-07-16T15:00:00	44.7	ND	ND	ND	ND	ND	ND	ND	ND	ND	ND	0
47897	2015-07-16T16:00:00	36.3	ND	ND	ND	ND	ND	ND	ND	ND	ND	ND	0
47898	2015-07-16T17:00:00	32.1	ND	ND	ND	ND	ND	ND	ND	ND	ND	ND	0
47899	2015-07-16T18:00:00	37	ND	ND	ND	ND	ND	ND	ND	ND	ND	ND	0
47900	2015-07-16T19:00:00	30.1	ND	ND	ND	ND	ND	ND	ND	ND	ND	ND	0
47901	2015-07-16T20:00:00	27.3	ND	ND	ND	ND	ND	ND	ND	ND	ND	ND	0
47902	2015-07-16T21:00:00	26.9	ND	ND	ND	ND	ND	ND	ND	ND	ND	ND	0
47903	2015-07-16T22:00:00	14.7	ND	ND	ND	ND	ND	ND	ND	ND	ND	ND	0
47904	2015-07-16T23:00:00	21	ND	ND	ND	ND	ND	ND	ND	ND	ND	ND	0
47905	2015-07-17T00:00:00	40.9	ND	ND	ND	ND	ND	ND	ND	ND	ND	ND	0
47906	2015-07-17T01:00:00	36.9	ND	ND	ND	ND	ND	ND	ND	ND	ND	ND	0
47907	2015-07-17T02:00:00	31.6	ND	ND	ND	ND	ND	ND	ND	ND	ND	ND	0
47908	2015-07-17T03:00:00	35.7	ND	ND	ND	ND	ND	ND	ND	ND	ND	ND	0
47909	2015-07-17T04:00:00	34.3	ND	ND	ND	ND	ND	ND	ND	ND	ND	ND	0
47910	2015-07-17T05:00:00	31.6	ND	ND	ND	ND	ND	ND	ND	ND	ND	ND	0
47911	2015-07-17T06:00:00	47	ND	ND	ND	ND	ND	ND	ND	ND	ND	ND	0
47912	2015-07-17T07:00:00	48	ND	ND	ND	ND	ND	ND	ND	ND	ND	ND	0
47913	2015-07-17T08:00:00	64.6	ND	ND	ND	ND	ND	ND	ND	ND	ND	ND	0
47914	2015-07-17T09:00:00	63.7	ND	ND	ND	ND	ND	ND	ND	ND	ND	ND	0
47915	2015-07-17T10:00:00	84.1	ND	ND	ND	ND	ND	ND	ND	ND	ND	ND	0
47916	2015-07-17T11:00:00	57.7	ND	ND	ND	ND	ND	ND	ND	ND	ND	ND	0
47917	2015-07-17T12:00:00	47.6	ND	ND	ND	ND	ND	ND	ND	ND	ND	ND	0
47918	2015-07-17T13:00:00	50.4	ND	ND	ND	ND	ND	ND	ND	ND	ND	ND	0
47919	2015-07-17T14:00:00	47.8	ND	ND	ND	ND	ND	ND	ND	ND	ND	ND	0
47920	2015-07-17T15:00:00	39.9	ND	ND	ND	ND	ND	ND	ND	ND	ND	ND	0
47921	2015-07-17T16:00:00	44.3	ND	ND	ND	ND	ND	ND	ND	ND	ND	ND	0
47922	2015-07-17T17:00:00	43.8	ND	ND	ND	ND	ND	ND	ND	ND	ND	ND	0
47923	2015-07-17T18:00:00	46.5	ND	ND	ND	ND	ND	ND	ND	ND	ND	ND	0
47924	2015-07-17T19:00:00	44.4	ND	ND	ND	ND	ND	ND	ND	ND	ND	ND	0
47925	2015-07-17T20:00:00	31.8	ND	ND	ND	ND	ND	ND	ND	ND	ND	ND	0
47926	2015-07-17T21:00:00	23.5	ND	ND	ND	ND	ND	ND	ND	ND	ND	ND	0
47927	2015-07-17T22:00:00	23.8	ND	ND	ND	ND	ND	ND	ND	ND	ND	ND	0
47928	2015-07-17T23:00:00	13.3	ND	ND	ND	ND	ND	ND	ND	ND	ND	ND	0
47929	2015-07-18T00:00:00	29.2	ND	ND	ND	ND	ND	ND	ND	ND	ND	ND	0
47930	2015-07-18T01:00:00	79.7	ND	ND	ND	ND	ND	ND	ND	ND	ND	ND	0
47931	2015-07-18T02:00:00	52.9	ND	ND	ND	ND	ND	ND	ND	ND	ND	ND	0
47932	2015-07-18T03:00:00	38.1	ND	ND	ND	ND	ND	ND	ND	ND	ND	ND	0
47933	2015-07-18T04:00:00	47.4	ND	ND	ND	ND	ND	ND	ND	ND	ND	ND	0
47934	2015-07-18T05:00:00	54	ND	ND	ND	ND	ND	ND	ND	ND	ND	ND	0
47935	2015-07-18T06:00:00	50.9	ND	ND	ND	ND	ND	ND	ND	ND	ND	ND	0
47936	2015-07-18T07:00:00	37.3	ND	ND	ND	ND	ND	ND	ND	ND	ND	ND	0
47937	2015-07-18T08:00:00	37.9	ND	ND	ND	ND	ND	ND	ND	ND	ND	ND	0
47938	2015-07-18T09:00:00	69.9	ND	ND	ND	ND	ND	ND	ND	ND	ND	ND	0
47939	2015-07-18T10:00:00	83.4	ND	ND	ND	ND	ND	ND	ND	ND	ND	ND	0
47940	2015-07-18T11:00:00	85.2	ND	ND	ND	ND	ND	ND	ND	ND	ND	ND	0
47941	2015-07-18T12:00:00	90.4	ND	ND	ND	ND	ND	ND	ND	ND	ND	ND	0
47942	2015-07-18T13:00:00	77.3	ND	ND	ND	ND	ND	ND	ND	ND	ND	ND	0
47943	2015-07-18T14:00:00	75.5	ND	ND	ND	ND	ND	ND	ND	ND	ND	ND	0
47944	2015-07-18T15:00:00	88.7	ND	ND	ND	ND	ND	ND	ND	ND	ND	ND	0
47945	2015-07-18T16:00:00	76.9	ND	ND	ND	ND	ND	ND	ND	ND	ND	ND	0
47946	2015-07-18T17:00:00	45.4	ND	ND	ND	ND	ND	ND	ND	ND	ND	ND	0
47947	2015-07-18T18:00:00	25.5	ND	ND	ND	ND	ND	ND	ND	ND	ND	ND	0
47948	2015-07-18T19:00:00	25.9	ND	ND	ND	ND	ND	ND	ND	ND	ND	ND	0
47949	2015-07-18T20:00:00	23.8	ND	ND	ND	ND	ND	ND	ND	ND	ND	ND	0
47950	2015-07-18T21:00:00	17.1	ND	ND	ND	ND	ND	ND	ND	ND	ND	ND	0
47951	2015-07-18T22:00:00	10.5	ND	ND	ND	ND	ND	ND	ND	ND	ND	ND	0
47952	2015-07-18T23:00:00	10.6	ND	ND	ND	ND	ND	ND	ND	ND	ND	ND	0
47953	2015-07-19T00:00:00	30.4	ND	ND	ND	ND	ND	ND	ND	ND	ND	ND	0
47954	2015-07-19T01:00:00	30.6	ND	ND	ND	ND	ND	ND	ND	ND	ND	ND	0
47955	2015-07-19T02:00:00	35.8	ND	ND	ND	ND	ND	ND	ND	ND	ND	ND	0
47956	2015-07-19T03:00:00	45.2	ND	ND	ND	ND	ND	ND	ND	ND	ND	ND	0
47957	2015-07-19T04:00:00	45.5	ND	ND	ND	ND	ND	ND	ND	ND	ND	ND	0
47958	2015-07-19T05:00:00	37.8	ND	ND	ND	ND	ND	ND	ND	ND	ND	ND	0
47959	2015-07-19T06:00:00	28	ND	ND	ND	ND	ND	ND	ND	ND	ND	ND	0
47960	2015-07-19T07:00:00	39	ND	ND	ND	ND	ND	ND	ND	ND	ND	ND	0
47961	2015-07-19T08:00:00	42.9	ND	ND	ND	ND	ND	ND	ND	ND	ND	ND	0
47962	2015-07-19T09:00:00	41.7	ND	ND	ND	ND	ND	ND	ND	ND	ND	ND	0
47963	2015-07-19T10:00:00	49.8	ND	ND	ND	ND	ND	ND	ND	ND	ND	ND	0
47964	2015-07-19T11:00:00	46.1	ND	ND	ND	ND	ND	ND	ND	ND	ND	ND	0
47965	2015-07-19T12:00:00	39.2	ND	ND	ND	ND	ND	ND	ND	ND	ND	ND	0
47966	2015-07-19T13:00:00	39.8	ND	ND	ND	ND	ND	ND	ND	ND	ND	ND	0
47967	2015-07-19T14:00:00	48.8	ND	ND	ND	ND	ND	ND	ND	ND	ND	ND	0
47968	2015-07-19T15:00:00	35.2	ND	ND	ND	ND	ND	ND	ND	ND	ND	ND	0
47969	2015-07-19T16:00:00	16.5	ND	ND	ND	ND	ND	ND	ND	ND	ND	ND	0
47970	2015-07-19T17:00:00	12.5	ND	ND	ND	ND	ND	ND	ND	ND	ND	ND	0
47971	2015-07-19T18:00:00	21.7	ND	ND	ND	ND	ND	ND	ND	ND	ND	ND	0
47972	2015-07-19T19:00:00	13.4	ND	ND	ND	ND	ND	ND	ND	ND	ND	ND	0
47973	2015-07-19T20:00:00	11.4	ND	ND	ND	ND	ND	ND	ND	ND	ND	ND	0
47974	2015-07-19T21:00:00	7.7	ND	ND	ND	ND	ND	ND	ND	ND	ND	ND	0
47975	2015-07-19T22:00:00	10.8	ND	ND	ND	ND	ND	ND	ND	ND	ND	ND	0
47976	2015-07-19T23:00:00	10.8	ND	ND	ND	ND	ND	ND	ND	ND	ND	ND	0
47977	2015-07-20T00:00:00	12.9	ND	ND	ND	ND	ND	ND	ND	ND	ND	ND	0
47978	2015-07-20T01:00:00	7	ND	ND	ND	ND	ND	ND	ND	ND	ND	ND	0
47979	2015-07-20T02:00:00	20.4	ND	ND	ND	ND	ND	ND	ND	ND	ND	ND	0
47980	2015-07-20T03:00:00	23.7	ND	ND	ND	ND	ND	ND	ND	ND	ND	ND	1.02
47981	2015-07-20T04:00:00	20.1	ND	ND	ND	ND	ND	ND	ND	ND	ND	ND	25.65
47982	2015-07-20T05:00:00	10.3	ND	ND	ND	ND	ND	ND	ND	ND	ND	ND	8.64
47983	2015-07-20T06:00:00	11.5	ND	ND	ND	ND	ND	ND	ND	ND	ND	ND	2.54
47984	2015-07-20T07:00:00	12.4	ND	ND	ND	ND	ND	ND	ND	ND	ND	ND	0.51
47985	2015-07-20T08:00:00	11.6	ND	ND	ND	ND	ND	ND	ND	ND	ND	ND	0
47986	2015-07-20T09:00:00	12.5	ND	ND	ND	ND	ND	ND	ND	ND	ND	ND	0.25
47987	2015-07-20T10:00:00	10.2	ND	ND	ND	ND	ND	ND	ND	ND	ND	ND	0
47988	2015-07-20T11:00:00	19.8	ND	ND	ND	ND	ND	ND	ND	ND	ND	ND	0
47989	2015-07-20T12:00:00	20	ND	ND	ND	ND	ND	ND	ND	ND	ND	ND	0
47990	2015-07-20T13:00:00	25.2	ND	ND	ND	ND	ND	ND	ND	ND	ND	ND	0
47991	2015-07-20T14:00:00	20.6	ND	ND	ND	ND	ND	ND	ND	ND	ND	ND	0
47992	2015-07-20T15:00:00	24	ND	ND	ND	ND	ND	ND	ND	ND	ND	ND	0
47993	2015-07-20T16:00:00	18.3	ND	ND	ND	ND	ND	ND	ND	ND	ND	ND	0
47994	2015-07-20T17:00:00	15.9	ND	ND	ND	ND	ND	ND	ND	ND	ND	ND	0
47995	2015-07-20T18:00:00	13.3	ND	ND	ND	ND	ND	ND	ND	ND	ND	ND	0
47996	2015-07-20T19:00:00	14.4	ND	ND	ND	ND	ND	ND	ND	ND	ND	ND	0
47997	2015-07-20T20:00:00	12.2	ND	ND	ND	ND	ND	ND	ND	ND	ND	ND	0
47998	2015-07-20T21:00:00	14.8	ND	ND	ND	ND	ND	ND	ND	ND	ND	ND	0
47999	2015-07-20T22:00:00	22.1	ND	ND	ND	ND	ND	ND	ND	ND	ND	ND	0
48000	2015-07-20T23:00:00	41.8	ND	ND	ND	ND	ND	ND	ND	ND	ND	ND	0
48001	2015-07-21T00:00:00	27.9	ND	ND	ND	ND	ND	ND	ND	ND	ND	ND	0
48002	2015-07-21T01:00:00	20.4	ND	ND	ND	ND	ND	ND	ND	ND	ND	ND	0
48003	2015-07-21T02:00:00	20.8	ND	ND	ND	ND	ND	ND	ND	ND	ND	ND	0
48004	2015-07-21T03:00:00	18	ND	ND	ND	ND	ND	ND	ND	ND	ND	ND	0
48005	2015-07-21T04:00:00	17.9	ND	ND	ND	ND	ND	ND	ND	ND	ND	ND	0
48006	2015-07-21T05:00:00	23.6	ND	ND	ND	ND	ND	ND	ND	ND	ND	ND	0
48007	2015-07-21T06:00:00	45.4	ND	ND	ND	ND	ND	ND	ND	ND	ND	ND	0
48008	2015-07-21T07:00:00	54.4	ND	ND	ND	ND	ND	ND	ND	ND	ND	ND	0
48009	2015-07-21T08:00:00	50.5	ND	ND	ND	ND	ND	ND	ND	ND	ND	ND	0
48010	2015-07-21T09:00:00	61.8	ND	ND	ND	ND	ND	ND	ND	ND	ND	ND	0
48011	2015-07-21T10:00:00	60.3	ND	ND	ND	ND	ND	ND	ND	ND	ND	ND	0
48012	2015-07-21T11:00:00	44.5	ND	ND	ND	ND	ND	ND	ND	ND	ND	ND	0
48013	2015-07-21T12:00:00	38.9	ND	ND	ND	ND	ND	ND	ND	ND	ND	ND	0
48014	2015-07-21T13:00:00	36.1	ND	ND	ND	ND	ND	ND	ND	ND	ND	ND	0
48015	2015-07-21T14:00:00	42.4	ND	ND	ND	ND	ND	ND	ND	ND	ND	ND	0
48016	2015-07-21T15:00:00	45.8	ND	ND	ND	ND	ND	ND	ND	ND	ND	ND	0
48017	2015-07-21T16:00:00	47	ND	ND	ND	ND	ND	ND	ND	ND	ND	ND	0
48018	2015-07-21T17:00:00	33	ND	ND	ND	ND	ND	ND	ND	ND	ND	ND	0
48019	2015-07-21T18:00:00	29.7	ND	ND	ND	ND	ND	ND	ND	ND	ND	ND	0
48020	2015-07-21T19:00:00	34.9	ND	ND	ND	ND	ND	ND	ND	ND	ND	ND	0
48021	2015-07-21T20:00:00	22.8	ND	ND	ND	ND	ND	ND	ND	ND	ND	ND	0
48022	2015-07-21T21:00:00	15.6	ND	ND	ND	ND	ND	ND	ND	ND	ND	ND	0
48023	2015-07-21T22:00:00	11.5	ND	ND	ND	ND	ND	ND	ND	ND	ND	ND	0
48024	2015-07-21T23:00:00	7.9	ND	ND	ND	ND	ND	ND	ND	ND	ND	ND	0
48025	2015-07-22T00:00:00	22.1	ND	ND	ND	ND	ND	ND	ND	ND	ND	ND	0
48026	2015-07-22T01:00:00	29.3	ND	ND	ND	ND	ND	ND	ND	ND	ND	ND	0
48027	2015-07-22T02:00:00	47.9	ND	ND	ND	ND	ND	ND	ND	ND	ND	ND	0
48028	2015-07-22T03:00:00	35.6	ND	ND	ND	ND	ND	ND	ND	ND	ND	ND	3.05
48029	2015-07-22T04:00:00	30.3	ND	ND	ND	ND	ND	ND	ND	ND	ND	ND	0.25
48030	2015-07-22T05:00:00	28.3	ND	ND	ND	ND	ND	ND	ND	ND	ND	ND	0
48031	2015-07-22T06:00:00	29.9	ND	ND	ND	ND	ND	ND	ND	ND	ND	ND	0
48032	2015-07-22T07:00:00	36	ND	ND	ND	ND	ND	ND	ND	ND	ND	ND	0
48033	2015-07-22T08:00:00	45.6	ND	ND	ND	ND	ND	ND	ND	ND	ND	ND	0
48034	2015-07-22T09:00:00	39.2	ND	ND	ND	ND	ND	ND	ND	ND	ND	ND	0
48035	2015-07-22T10:00:00	51.9	ND	ND	ND	ND	ND	ND	ND	ND	ND	ND	0
48036	2015-07-22T11:00:00	43.3	ND	ND	ND	ND	ND	ND	ND	ND	ND	ND	0
48037	2015-07-22T12:00:00	52	ND	ND	ND	ND	ND	ND	ND	ND	ND	ND	0
48038	2015-07-22T13:00:00	52.3	ND	ND	ND	ND	ND	ND	ND	ND	ND	ND	0
48039	2015-07-22T14:00:00	47.4	ND	ND	ND	ND	ND	ND	ND	ND	ND	ND	0
48040	2015-07-22T15:00:00	47.6	ND	ND	ND	ND	ND	ND	ND	ND	ND	ND	0
48041	2015-07-22T16:00:00	52.9	ND	ND	ND	ND	ND	ND	ND	ND	ND	ND	0
48042	2015-07-22T17:00:00	31.9	ND	ND	ND	ND	ND	ND	ND	ND	ND	ND	0
48043	2015-07-22T18:00:00	23.8	ND	ND	ND	ND	ND	ND	ND	ND	ND	ND	0
48044	2015-07-22T19:00:00	22.1	ND	ND	ND	ND	ND	ND	ND	ND	ND	ND	0
48045	2015-07-22T20:00:00	17	ND	ND	ND	ND	ND	ND	ND	ND	ND	ND	0
48046	2015-07-22T21:00:00	17	ND	ND	ND	ND	ND	ND	ND	ND	ND	ND	0
48047	2015-07-22T22:00:00	14.4	ND	ND	ND	ND	ND	ND	ND	ND	ND	ND	0
48048	2015-07-22T23:00:00	24.3	ND	ND	ND	ND	ND	ND	ND	ND	ND	ND	0
48049	2015-07-23T00:00:00	17.9	ND	ND	ND	ND	ND	ND	ND	ND	ND	ND	1.52
48050	2015-07-23T01:00:00	18.6	ND	ND	ND	ND	ND	ND	ND	ND	ND	ND	0.25
48051	2015-07-23T02:00:00	19.8	ND	ND	ND	ND	ND	ND	ND	ND	ND	ND	0
48052	2015-07-23T03:00:00	24.5	ND	ND	ND	ND	ND	ND	ND	ND	ND	ND	0
48053	2015-07-23T04:00:00	23.8	ND	ND	ND	ND	ND	ND	ND	ND	ND	ND	0
48054	2015-07-23T05:00:00	34.3	ND	ND	ND	ND	ND	ND	ND	ND	ND	ND	0
48055	2015-07-23T06:00:00	30.2	ND	ND	ND	ND	ND	ND	ND	ND	ND	ND	0
48056	2015-07-23T07:00:00	38.2	ND	ND	ND	ND	ND	ND	ND	ND	ND	ND	0
48057	2015-07-23T08:00:00	50.6	ND	ND	ND	ND	ND	ND	ND	ND	ND	ND	0
48058	2015-07-23T09:00:00	59	ND	ND	ND	ND	ND	ND	ND	ND	ND	ND	0
48059	2015-07-23T10:00:00	60	ND	ND	ND	ND	ND	ND	ND	ND	ND	ND	0
48060	2015-07-23T11:00:00	64.4	ND	ND	ND	ND	ND	ND	ND	ND	ND	ND	0
48061	2015-07-23T12:00:00	41.1	ND	ND	ND	ND	ND	ND	ND	ND	ND	ND	0
48062	2015-07-23T13:00:00	40.6	ND	ND	ND	ND	ND	ND	ND	ND	ND	ND	0
48063	2015-07-23T14:00:00	44.2	ND	ND	ND	ND	ND	ND	ND	ND	ND	ND	0
48064	2015-07-23T15:00:00	49.2	ND	ND	ND	ND	ND	ND	ND	ND	ND	ND	0
48065	2015-07-23T16:00:00	44.1	ND	ND	ND	ND	ND	ND	ND	ND	ND	ND	0
48066	2015-07-23T17:00:00	42.5	ND	ND	ND	ND	ND	ND	ND	ND	ND	ND	0
48067	2015-07-23T18:00:00	33.8	ND	ND	ND	ND	ND	ND	ND	ND	ND	ND	0
48068	2015-07-23T19:00:00	41.1	ND	ND	ND	ND	ND	ND	ND	ND	ND	ND	0
48069	2015-07-23T20:00:00	40.2	ND	ND	ND	ND	ND	ND	ND	ND	ND	ND	0
48070	2015-07-23T21:00:00	21.2	ND	ND	ND	ND	ND	ND	ND	ND	ND	ND	0
48071	2015-07-23T22:00:00	27.6	ND	ND	ND	ND	ND	ND	ND	ND	ND	ND	0
48072	2015-07-23T23:00:00	43.8	ND	ND	ND	ND	ND	ND	ND	ND	ND	ND	0
48073	2015-07-24T00:00:00	40.2	ND	ND	ND	ND	ND	ND	ND	ND	ND	ND	0
48074	2015-07-24T01:00:00	26.6	ND	ND	ND	ND	ND	ND	ND	ND	ND	ND	0
48075	2015-07-24T02:00:00	20.6	ND	ND	ND	ND	ND	ND	ND	ND	ND	ND	0
48076	2015-07-24T03:00:00	28.5	ND	ND	ND	ND	ND	ND	ND	ND	ND	ND	0
48077	2015-07-24T04:00:00	24.4	ND	ND	ND	ND	ND	ND	ND	ND	ND	ND	0
48078	2015-07-24T05:00:00	50.1	ND	ND	ND	ND	ND	ND	ND	ND	ND	ND	0
48079	2015-07-24T06:00:00	65.3	ND	ND	ND	ND	ND	ND	ND	ND	ND	ND	0
48080	2015-07-24T07:00:00	86.9	ND	ND	ND	ND	ND	ND	ND	ND	ND	ND	0
48081	2015-07-24T08:00:00	54.3	ND	ND	ND	ND	ND	ND	ND	ND	ND	ND	0
48082	2015-07-24T09:00:00	63	ND	ND	ND	ND	ND	ND	ND	ND	ND	ND	0
48083	2015-07-24T10:00:00	76.8	ND	ND	ND	ND	ND	ND	ND	ND	ND	ND	0
48084	2015-07-24T11:00:00	89.3	ND	ND	ND	ND	ND	ND	ND	ND	ND	ND	0
48085	2015-07-24T12:00:00	69.6	ND	ND	ND	ND	ND	ND	ND	ND	ND	ND	0
48086	2015-07-24T13:00:00	61.5	ND	ND	ND	ND	ND	ND	ND	ND	ND	ND	0
48087	2015-07-24T14:00:00	60.7	ND	ND	ND	ND	ND	ND	ND	ND	ND	ND	0
48088	2015-07-24T15:00:00	66.8	ND	ND	ND	ND	ND	ND	ND	ND	ND	ND	0
48089	2015-07-24T16:00:00	63.3	ND	ND	ND	ND	ND	ND	ND	ND	ND	ND	0
48090	2015-07-24T17:00:00	53.7	ND	ND	ND	ND	ND	ND	ND	ND	ND	ND	0
48091	2015-07-24T18:00:00	65.9	ND	ND	ND	ND	ND	ND	ND	ND	ND	ND	0
48092	2015-07-24T19:00:00	89.8	ND	ND	ND	ND	ND	ND	ND	ND	ND	ND	0
48093	2015-07-24T20:00:00	70.8	ND	ND	ND	ND	ND	ND	ND	ND	ND	ND	0
48094	2015-07-24T21:00:00	30.6	ND	ND	ND	ND	ND	ND	ND	ND	ND	ND	0
48095	2015-07-24T22:00:00	19.8	ND	ND	ND	ND	ND	ND	ND	ND	ND	ND	0
48096	2015-07-24T23:00:00	23.6	ND	ND	ND	ND	ND	ND	ND	ND	ND	ND	0
48097	2015-07-25T00:00:00	54.6	ND	ND	ND	ND	ND	ND	ND	ND	ND	ND	0
48098	2015-07-25T01:00:00	49.2	ND	ND	ND	ND	ND	ND	ND	ND	ND	ND	0
48099	2015-07-25T02:00:00	31.2	ND	ND	ND	ND	ND	ND	ND	ND	ND	ND	0
48100	2015-07-25T03:00:00	26.5	ND	ND	ND	ND	ND	ND	ND	ND	ND	ND	0
48101	2015-07-25T04:00:00	46	ND	ND	ND	ND	ND	ND	ND	ND	ND	ND	0
48102	2015-07-25T05:00:00	54.1	ND	ND	ND	ND	ND	ND	ND	ND	ND	ND	0
48103	2015-07-25T06:00:00	55.4	ND	ND	ND	ND	ND	ND	ND	ND	ND	ND	0
48104	2015-07-25T07:00:00	78.9	ND	ND	ND	ND	ND	ND	ND	ND	ND	ND	0
48105	2015-07-25T08:00:00	109.8	ND	ND	ND	ND	ND	ND	ND	ND	ND	ND	0
48106	2015-07-25T09:00:00	126.7	ND	ND	ND	ND	ND	ND	ND	ND	ND	ND	0
48107	2015-07-25T10:00:00	105.6	ND	ND	ND	ND	ND	ND	ND	ND	ND	ND	0
48108	2015-07-25T11:00:00	103.2	ND	ND	ND	ND	ND	ND	ND	ND	ND	ND	0
48109	2015-07-25T12:00:00	78.3	ND	ND	ND	ND	ND	ND	ND	ND	ND	ND	0
48110	2015-07-25T13:00:00	65	ND	ND	ND	ND	ND	ND	ND	ND	ND	ND	0
48111	2015-07-25T14:00:00	61.5	ND	ND	ND	ND	ND	ND	ND	ND	ND	ND	0
48112	2015-07-25T15:00:00	43.5	ND	ND	ND	ND	ND	ND	ND	ND	ND	ND	0
48113	2015-07-25T16:00:00	31.5	ND	ND	ND	ND	ND	ND	ND	ND	ND	ND	0
48114	2015-07-25T17:00:00	30.6	ND	ND	ND	ND	ND	ND	ND	ND	ND	ND	0
48115	2015-07-25T18:00:00	35.2	ND	ND	ND	ND	ND	ND	ND	ND	ND	ND	0
48116	2015-07-25T19:00:00	29.6	ND	ND	ND	ND	ND	ND	ND	ND	ND	ND	0
48117	2015-07-25T20:00:00	23.6	ND	ND	ND	ND	ND	ND	ND	ND	ND	ND	0
48118	2015-07-25T21:00:00	15.6	ND	ND	ND	ND	ND	ND	ND	ND	ND	ND	0
48119	2015-07-25T22:00:00	15.7	ND	ND	ND	ND	ND	ND	ND	ND	ND	ND	0
48120	2015-07-25T23:00:00	41.5	ND	ND	ND	ND	ND	ND	ND	ND	ND	ND	0
48121	2015-07-26T00:00:00	70.8	ND	ND	ND	ND	ND	ND	ND	ND	ND	ND	0
48122	2015-07-26T01:00:00	51.2	ND	ND	ND	ND	ND	ND	ND	ND	ND	ND	0
48123	2015-07-26T02:00:00	30.6	ND	ND	ND	ND	ND	ND	ND	ND	ND	ND	0
48124	2015-07-26T03:00:00	35.6	ND	ND	ND	ND	ND	ND	ND	ND	ND	ND	0
48125	2015-07-26T04:00:00	31.7	ND	ND	ND	ND	ND	ND	ND	ND	ND	ND	0
48126	2015-07-26T05:00:00	24.4	ND	ND	ND	ND	ND	ND	ND	ND	ND	ND	0
48127	2015-07-26T06:00:00	33.6	ND	ND	ND	ND	ND	ND	ND	ND	ND	ND	0
48128	2015-07-26T07:00:00	69.4	ND	ND	ND	ND	ND	ND	ND	ND	ND	ND	0
48129	2015-07-26T08:00:00	83.1	ND	ND	ND	ND	ND	ND	ND	ND	ND	ND	0
48130	2015-07-26T09:00:00	93.9	ND	ND	ND	ND	ND	ND	ND	ND	ND	ND	0
48131	2015-07-26T10:00:00	77.1	ND	ND	ND	ND	ND	ND	ND	ND	ND	ND	0
48132	2015-07-26T11:00:00	51.4	ND	ND	ND	ND	ND	ND	ND	ND	ND	ND	0
48133	2015-07-26T12:00:00	33.2	ND	ND	ND	ND	ND	ND	ND	ND	ND	ND	0
48134	2015-07-26T13:00:00	46.8	ND	ND	ND	ND	ND	ND	ND	ND	ND	ND	0
48135	2015-07-26T14:00:00	36.2	ND	ND	ND	ND	ND	ND	ND	ND	ND	ND	0
48136	2015-07-26T15:00:00	41	ND	ND	ND	ND	ND	ND	ND	ND	ND	ND	0
48137	2015-07-26T16:00:00	38.1	ND	ND	ND	ND	ND	ND	ND	ND	ND	ND	0
48138	2015-07-26T17:00:00	29.6	ND	ND	ND	ND	ND	ND	ND	ND	ND	ND	0
48139	2015-07-26T18:00:00	26.4	ND	ND	ND	ND	ND	ND	ND	ND	ND	ND	0
48140	2015-07-26T19:00:00	23.6	ND	ND	ND	ND	ND	ND	ND	ND	ND	ND	0
48141	2015-07-26T20:00:00	15.3	ND	ND	ND	ND	ND	ND	ND	ND	ND	ND	0
48142	2015-07-26T21:00:00	15.2	ND	ND	ND	ND	ND	ND	ND	ND	ND	ND	0
48143	2015-07-26T22:00:00	23	ND	ND	ND	ND	ND	ND	ND	ND	ND	ND	0
48144	2015-07-26T23:00:00	21	ND	ND	ND	ND	ND	ND	ND	ND	ND	ND	0
48145	2015-07-27T00:00:00	37.8	ND	ND	ND	ND	ND	ND	ND	ND	ND	ND	0
48146	2015-07-27T01:00:00	41	ND	ND	ND	ND	ND	ND	ND	ND	ND	ND	0
48147	2015-07-27T02:00:00	43.5	ND	ND	ND	ND	ND	ND	ND	ND	ND	ND	0
48148	2015-07-27T03:00:00	47.1	ND	ND	ND	ND	ND	ND	ND	ND	ND	ND	0
48149	2015-07-27T04:00:00	43.8	ND	ND	ND	ND	ND	ND	ND	ND	ND	ND	0
48150	2015-07-27T05:00:00	30.3	ND	ND	ND	ND	ND	ND	ND	ND	ND	ND	0
48151	2015-07-27T06:00:00	32.1	ND	ND	ND	ND	ND	ND	ND	ND	ND	ND	0
48152	2015-07-27T07:00:00	68.2	ND	ND	ND	ND	ND	ND	ND	ND	ND	ND	0
48153	2015-07-27T08:00:00	98.3	ND	ND	ND	ND	ND	ND	ND	ND	ND	ND	0
48154	2015-07-27T09:00:00	104.7	ND	ND	ND	ND	ND	ND	ND	ND	ND	ND	0
48155	2015-07-27T10:00:00	92.7	ND	ND	ND	ND	ND	ND	ND	ND	ND	ND	0
48156	2015-07-27T11:00:00	60.3	ND	ND	ND	ND	ND	ND	ND	ND	ND	ND	0
48157	2015-07-27T12:00:00	55.3	ND	ND	ND	ND	ND	ND	ND	ND	ND	ND	0
48158	2015-07-27T13:00:00	63.5	ND	ND	ND	ND	ND	ND	ND	ND	ND	ND	0
48159	2015-07-27T14:00:00	57.8	ND	ND	ND	ND	ND	ND	ND	ND	ND	ND	0
48160	2015-07-27T15:00:00	50.2	ND	ND	ND	ND	ND	ND	ND	ND	ND	ND	0
48161	2015-07-27T16:00:00	53.9	ND	ND	ND	ND	ND	ND	ND	ND	ND	ND	0
48162	2015-07-27T17:00:00	40.8	ND	ND	ND	ND	ND	ND	ND	ND	ND	ND	0
48163	2015-07-27T18:00:00	44.4	ND	ND	ND	ND	ND	ND	ND	ND	ND	ND	0
48164	2015-07-27T19:00:00	45.6	ND	ND	ND	ND	ND	ND	ND	ND	ND	ND	0
48165	2015-07-27T20:00:00	28	ND	ND	ND	ND	ND	ND	ND	ND	ND	ND	0
48166	2015-07-27T21:00:00	21.9	ND	ND	ND	ND	ND	ND	ND	ND	ND	ND	0
48167	2015-07-27T22:00:00	13.8	ND	ND	ND	ND	ND	ND	ND	ND	ND	ND	0
48168	2015-07-27T23:00:00	20.1	ND	ND	ND	ND	ND	ND	ND	ND	ND	ND	0
48169	2015-07-28T00:00:00	39.7	ND	ND	ND	ND	ND	ND	ND	ND	ND	ND	0
48170	2015-07-28T01:00:00	48.6	ND	ND	ND	ND	ND	ND	ND	ND	ND	ND	0
48171	2015-07-28T02:00:00	33	ND	ND	ND	ND	ND	ND	ND	ND	ND	ND	0
48172	2015-07-28T03:00:00	33.1	ND	ND	ND	ND	ND	ND	ND	ND	ND	ND	0
48173	2015-07-28T04:00:00	53.8	ND	ND	ND	ND	ND	ND	ND	ND	ND	ND	0
48174	2015-07-28T05:00:00	47.3	ND	ND	ND	ND	ND	ND	ND	ND	ND	ND	0
48175	2015-07-28T06:00:00	63.2	ND	ND	ND	ND	ND	ND	ND	ND	ND	ND	0
48176	2015-07-28T07:00:00	48.6	ND	ND	ND	ND	ND	ND	ND	ND	ND	ND	0
48177	2015-07-28T08:00:00	65.7	ND	ND	ND	ND	ND	ND	ND	ND	ND	ND	0
48178	2015-07-28T09:00:00	75.5	ND	ND	ND	ND	ND	ND	ND	ND	ND	ND	0
48179	2015-07-28T10:00:00	76.3	ND	ND	ND	ND	ND	ND	ND	ND	ND	ND	0
48180	2015-07-28T11:00:00	60	ND	ND	ND	ND	ND	ND	ND	ND	ND	ND	0
48181	2015-07-28T12:00:00	58.4	ND	ND	ND	ND	ND	ND	ND	ND	ND	ND	0
48182	2015-07-28T13:00:00	57.7	ND	ND	ND	ND	ND	ND	ND	ND	ND	ND	0
48183	2015-07-28T14:00:00	54.1	ND	ND	ND	ND	ND	ND	ND	ND	ND	ND	0
48184	2015-07-28T15:00:00	52.2	ND	ND	ND	ND	ND	ND	ND	ND	ND	ND	0
48185	2015-07-28T16:00:00	43.5	ND	ND	ND	ND	ND	ND	ND	ND	ND	ND	0
48186	2015-07-28T17:00:00	41	ND	ND	ND	ND	ND	ND	ND	ND	ND	ND	0
48187	2015-07-28T18:00:00	27	ND	ND	ND	ND	ND	ND	ND	ND	ND	ND	0
48188	2015-07-28T19:00:00	22.8	ND	ND	ND	ND	ND	ND	ND	ND	ND	ND	0
48189	2015-07-28T20:00:00	24.9	ND	ND	ND	ND	ND	ND	ND	ND	ND	ND	0
48190	2015-07-28T21:00:00	16	ND	ND	ND	ND	ND	ND	ND	ND	ND	ND	0
48191	2015-07-28T22:00:00	30.9	ND	ND	ND	ND	ND	ND	ND	ND	ND	ND	0
48192	2015-07-28T23:00:00	34.9	ND	ND	ND	ND	ND	ND	ND	ND	ND	ND	0
48193	2015-07-29T00:00:00	42.8	ND	ND	ND	ND	ND	ND	ND	ND	ND	ND	0
48194	2015-07-29T01:00:00	36.9	ND	ND	ND	ND	ND	ND	ND	ND	ND	ND	0
48195	2015-07-29T02:00:00	28.8	ND	ND	ND	ND	ND	ND	ND	ND	ND	ND	0
48196	2015-07-29T03:00:00	23.7	ND	ND	ND	ND	ND	ND	ND	ND	ND	ND	0
48197	2015-07-29T04:00:00	30.5	ND	ND	ND	ND	ND	ND	ND	ND	ND	ND	0
48198	2015-07-29T05:00:00	11.7	ND	ND	ND	ND	ND	ND	ND	ND	ND	ND	0
48199	2015-07-29T06:00:00	23.4	ND	ND	ND	ND	ND	ND	ND	ND	ND	ND	0
48200	2015-07-29T07:00:00	28.8	ND	ND	ND	ND	ND	ND	ND	ND	ND	ND	0
48201	2015-07-29T08:00:00	37.7	ND	ND	ND	ND	ND	ND	ND	ND	ND	ND	0
48202	2015-07-29T09:00:00	50.7	ND	ND	ND	ND	ND	ND	ND	ND	ND	ND	0
48203	2015-07-29T10:00:00	48.7	ND	ND	ND	ND	ND	ND	ND	ND	ND	ND	0
48204	2015-07-29T11:00:00	52.5	ND	ND	ND	ND	ND	ND	ND	ND	ND	ND	0
48205	2015-07-29T12:00:00	46.2	ND	ND	ND	ND	ND	ND	ND	ND	ND	ND	0
48206	2015-07-29T13:00:00	50.8	ND	ND	ND	ND	ND	ND	ND	ND	ND	ND	0
48207	2015-07-29T14:00:00	50.1	ND	ND	ND	ND	ND	ND	ND	ND	ND	ND	0
48208	2015-07-29T15:00:00	46.7	ND	ND	ND	ND	ND	ND	ND	ND	ND	ND	0
48209	2015-07-29T16:00:00	46.7	ND	ND	ND	ND	ND	ND	ND	ND	ND	ND	0
48210	2015-07-29T17:00:00	47.1	ND	ND	ND	ND	ND	ND	ND	ND	ND	ND	0
48211	2015-07-29T18:00:00	43.5	ND	ND	ND	ND	ND	ND	ND	ND	ND	ND	0
48212	2015-07-29T19:00:00	35.2	ND	ND	ND	ND	ND	ND	ND	ND	ND	ND	0
48213	2015-07-29T20:00:00	17.6	ND	ND	ND	ND	ND	ND	ND	ND	ND	ND	0
48214	2015-07-29T21:00:00	10.7	ND	ND	ND	ND	ND	ND	ND	ND	ND	ND	0
48215	2015-07-29T22:00:00	3.7	ND	ND	ND	ND	ND	ND	ND	ND	ND	ND	0
48216	2015-07-29T23:00:00	26.6	ND	ND	ND	ND	ND	ND	ND	ND	ND	ND	0
48217	2015-07-30T00:00:00	12.1	ND	ND	ND	ND	ND	ND	ND	ND	ND	ND	0
48218	2015-07-30T01:00:00	8.9	ND	ND	ND	ND	ND	ND	ND	ND	ND	ND	0
48219	2015-07-30T02:00:00	14.8	ND	ND	ND	ND	ND	ND	ND	ND	ND	ND	0
48220	2015-07-30T03:00:00	12.5	ND	ND	ND	ND	ND	ND	ND	ND	ND	ND	0
48221	2015-07-30T04:00:00	14.1	ND	ND	ND	ND	ND	ND	ND	ND	ND	ND	0
48222	2015-07-30T05:00:00	25.6	ND	ND	ND	ND	ND	ND	ND	ND	ND	ND	0
48223	2015-07-30T06:00:00	29.5	ND	ND	ND	ND	ND	ND	ND	ND	ND	ND	0
48224	2015-07-30T07:00:00	31.7	ND	ND	ND	ND	ND	ND	ND	ND	ND	ND	0
48225	2015-07-30T08:00:00	66.9	ND	ND	ND	ND	ND	ND	ND	ND	ND	ND	0
48226	2015-07-30T09:00:00	81.6	ND	ND	ND	ND	ND	ND	ND	ND	ND	ND	0
48227	2015-07-30T10:00:00	63.8	ND	ND	ND	ND	ND	ND	ND	ND	ND	ND	0
48228	2015-07-30T11:00:00	50.9	ND	ND	ND	ND	ND	ND	ND	ND	ND	ND	0
48229	2015-07-30T12:00:00	50.8	ND	ND	ND	ND	ND	ND	ND	ND	ND	ND	0
48230	2015-07-30T13:00:00	51.9	ND	ND	ND	ND	ND	ND	ND	ND	ND	ND	0
48231	2015-07-30T14:00:00	54.3	ND	ND	ND	ND	ND	ND	ND	ND	ND	ND	0
48232	2015-07-30T15:00:00	58.1	ND	ND	ND	ND	ND	ND	ND	ND	ND	ND	0
48233	2015-07-30T16:00:00	56.1	ND	ND	ND	ND	ND	ND	ND	ND	ND	ND	0
48234	2015-07-30T17:00:00	14.2	ND	ND	ND	ND	ND	ND	ND	ND	ND	ND	0
48235	2015-07-30T18:00:00	22.1	ND	ND	ND	ND	ND	ND	ND	ND	ND	ND	0
48236	2015-07-30T19:00:00	62.5	ND	ND	ND	ND	ND	ND	ND	ND	ND	ND	0.25
48237	2015-07-30T20:00:00	44.8	ND	ND	ND	ND	ND	ND	ND	ND	ND	ND	0.51
48238	2015-07-30T21:00:00	34.5	ND	ND	ND	ND	ND	ND	ND	ND	ND	ND	0
48239	2015-07-30T22:00:00	43.5	ND	ND	ND	ND	ND	ND	ND	ND	ND	ND	0
48240	2015-07-30T23:00:00	30.9	ND	ND	ND	ND	ND	ND	ND	ND	ND	ND	0
48241	2015-07-31T00:00:00	22	ND	ND	ND	ND	ND	ND	ND	ND	ND	ND	0
48242	2015-07-31T01:00:00	29.8	ND	ND	ND	ND	ND	ND	ND	ND	ND	ND	0
48243	2015-07-31T02:00:00	19.9	ND	ND	ND	ND	ND	ND	ND	ND	ND	ND	0
48244	2015-07-31T03:00:00	18.6	ND	ND	ND	ND	ND	ND	ND	ND	ND	ND	0
48245	2015-07-31T04:00:00	36	ND	ND	ND	ND	ND	ND	ND	ND	ND	ND	0
48246	2015-07-31T05:00:00	35.4	ND	ND	ND	ND	ND	ND	ND	ND	ND	ND	0
48247	2015-07-31T06:00:00	32.4	ND	ND	ND	ND	ND	ND	ND	ND	ND	ND	0
48248	2015-07-31T07:00:00	47.2	ND	ND	ND	ND	ND	ND	ND	ND	ND	ND	0
48249	2015-07-31T08:00:00	70.4	ND	ND	ND	ND	ND	ND	ND	ND	ND	ND	0
48250	2015-07-31T09:00:00	61.1	ND	ND	ND	ND	ND	ND	ND	ND	ND	ND	0
48251	2015-07-31T10:00:00	98.5	ND	ND	ND	ND	ND	ND	ND	ND	ND	ND	0
48252	2015-07-31T11:00:00	65.9	ND	ND	ND	ND	ND	ND	ND	ND	ND	ND	0
48253	2015-07-31T12:00:00	51.7	ND	ND	ND	ND	ND	ND	ND	ND	ND	ND	0
48254	2015-07-31T13:00:00	57	ND	ND	ND	ND	ND	ND	ND	ND	ND	ND	0
48255	2015-07-31T14:00:00	48.9	ND	ND	ND	ND	ND	ND	ND	ND	ND	ND	0
48256	2015-07-31T15:00:00	64.6	ND	ND	ND	ND	ND	ND	ND	ND	ND	ND	0
48257	2015-07-31T16:00:00	53.2	ND	ND	ND	ND	ND	ND	ND	ND	ND	ND	0
48258	2015-07-31T17:00:00	39.5	ND	ND	ND	ND	ND	ND	ND	ND	ND	ND	0
48259	2015-07-31T18:00:00	58.1	ND	ND	ND	ND	ND	ND	ND	ND	ND	ND	0
48260	2015-07-31T19:00:00	46.7	ND	ND	ND	ND	ND	ND	ND	ND	ND	ND	0
48261	2015-07-31T20:00:00	21.1	ND	ND	ND	ND	ND	ND	ND	ND	ND	ND	0
48262	2015-07-31T21:00:00	17.3	ND	ND	ND	ND	ND	ND	ND	ND	ND	ND	0
48263	2015-07-31T22:00:00	24.7	ND	ND	ND	ND	ND	ND	ND	ND	ND	ND	0
48264	2015-07-31T23:00:00	50.3	ND	ND	ND	ND	ND	ND	ND	ND	ND	ND	0
48265	2015-08-01T00:00:00	44	ND	ND	ND	ND	ND	ND	ND	ND	ND	ND	0
48266	2015-08-01T01:00:00	31.9	ND	ND	ND	ND	ND	ND	ND	ND	ND	ND	0
48267	2015-08-01T02:00:00	56.1	ND	ND	ND	ND	ND	ND	ND	ND	ND	ND	0
48268	2015-08-01T03:00:00	50.2	ND	ND	ND	ND	ND	ND	ND	ND	ND	ND	0
48269	2015-08-01T04:00:00	38.1	ND	ND	ND	ND	ND	ND	ND	ND	ND	ND	0
48270	2015-08-01T05:00:00	28.8	ND	ND	ND	ND	ND	ND	ND	ND	ND	ND	0
48271	2015-08-01T06:00:00	12.8	ND	ND	ND	ND	ND	ND	ND	ND	ND	ND	0
48272	2015-08-01T07:00:00	28.2	ND	ND	ND	ND	ND	ND	ND	ND	ND	ND	0
48273	2015-08-01T08:00:00	62.6	ND	ND	ND	ND	ND	ND	ND	ND	ND	ND	0
48274	2015-08-01T09:00:00	91.4	ND	ND	ND	ND	ND	ND	ND	ND	ND	ND	0
48275	2015-08-01T10:00:00	81.1	ND	ND	ND	ND	ND	ND	ND	ND	ND	ND	0
48276	2015-08-01T11:00:00	73.7	ND	ND	ND	ND	ND	ND	ND	ND	ND	ND	0
48277	2015-08-01T12:00:00	71.1	ND	ND	ND	ND	ND	ND	ND	ND	ND	ND	0
48278	2015-08-01T13:00:00	50.8	ND	ND	ND	ND	ND	ND	ND	ND	ND	ND	0
48279	2015-08-01T14:00:00	65.4	ND	ND	ND	ND	ND	ND	ND	ND	ND	ND	0
48280	2015-08-01T15:00:00	64.4	ND	ND	ND	ND	ND	ND	ND	ND	ND	ND	0
48281	2015-08-01T16:00:00	66.9	ND	ND	ND	ND	ND	ND	ND	ND	ND	ND	0
48282	2015-08-01T17:00:00	66	ND	ND	ND	ND	ND	ND	ND	ND	ND	ND	0
48283	2015-08-01T18:00:00	39	ND	ND	ND	ND	ND	ND	ND	ND	ND	ND	0
48284	2015-08-01T19:00:00	9.8	ND	ND	ND	ND	ND	ND	ND	ND	ND	ND	0
48285	2015-08-01T20:00:00	55.3	ND	ND	ND	ND	ND	ND	ND	ND	ND	ND	0
48286	2015-08-01T21:00:00	64.7	ND	ND	ND	ND	ND	ND	ND	ND	ND	ND	0
48287	2015-08-01T22:00:00	46.2	ND	ND	ND	ND	ND	ND	ND	ND	ND	ND	0
48288	2015-08-01T23:00:00	49.6	ND	ND	ND	ND	ND	ND	ND	ND	ND	ND	0
48289	2015-08-02T00:00:00	12.9	ND	ND	ND	ND	ND	ND	ND	ND	ND	ND	0
48290	2015-08-02T01:00:00	19.1	ND	ND	ND	ND	ND	ND	ND	ND	ND	ND	0
48291	2015-08-02T02:00:00	42.4	ND	ND	ND	ND	ND	ND	ND	ND	ND	ND	0
48292	2015-08-02T03:00:00	72.7	ND	ND	ND	ND	ND	ND	ND	ND	ND	ND	0
48293	2015-08-02T04:00:00	70.1	ND	ND	ND	ND	ND	ND	ND	ND	ND	ND	0
48294	2015-08-02T05:00:00	51	ND	ND	ND	ND	ND	ND	ND	ND	ND	ND	0
48295	2015-08-02T06:00:00	39.1	ND	ND	ND	ND	ND	ND	ND	ND	ND	ND	0
48296	2015-08-02T07:00:00	78.5	ND	ND	ND	ND	ND	ND	ND	ND	ND	ND	0
48297	2015-08-02T08:00:00	71.2	ND	ND	ND	ND	ND	ND	ND	ND	ND	ND	0
48298	2015-08-02T09:00:00	75.5	ND	ND	ND	ND	ND	ND	ND	ND	ND	ND	0
48299	2015-08-02T10:00:00	97	ND	ND	ND	ND	ND	ND	ND	ND	ND	ND	0
48300	2015-08-02T11:00:00	73.7	ND	ND	ND	ND	ND	ND	ND	ND	ND	ND	0
48301	2015-08-02T12:00:00	52.9	ND	ND	ND	ND	ND	ND	ND	ND	ND	ND	0
48302	2015-08-02T13:00:00	51.3	ND	ND	ND	ND	ND	ND	ND	ND	ND	ND	0
48303	2015-08-02T14:00:00	58.2	ND	ND	ND	ND	ND	ND	ND	ND	ND	ND	0
48304	2015-08-02T15:00:00	56	ND	ND	ND	ND	ND	ND	ND	ND	ND	ND	0
48305	2015-08-02T16:00:00	48.3	ND	ND	ND	ND	ND	ND	ND	ND	ND	ND	0
48306	2015-08-02T17:00:00	43.2	ND	ND	ND	ND	ND	ND	ND	ND	ND	ND	0
48307	2015-08-02T18:00:00	30.2	ND	ND	ND	ND	ND	ND	ND	ND	ND	ND	0
48308	2015-08-02T19:00:00	20.3	ND	ND	ND	ND	ND	ND	ND	ND	ND	ND	0
48309	2015-08-02T20:00:00	15.8	ND	ND	ND	ND	ND	ND	ND	ND	ND	ND	0
48310	2015-08-02T21:00:00	5.3	ND	ND	ND	ND	ND	ND	ND	ND	ND	ND	0
48311	2015-08-02T22:00:00	9	ND	ND	ND	ND	ND	ND	ND	ND	ND	ND	0
48312	2015-08-02T23:00:00	19.4	ND	ND	ND	ND	ND	ND	ND	ND	ND	ND	0
48313	2015-08-03T00:00:00	50.5	ND	ND	ND	ND	ND	ND	ND	ND	ND	ND	0
48314	2015-08-03T01:00:00	55.7	ND	ND	ND	ND	ND	ND	ND	ND	ND	ND	0
48315	2015-08-03T02:00:00	20.2	ND	ND	ND	ND	ND	ND	ND	ND	ND	ND	0
48316	2015-08-03T03:00:00	29.6	ND	ND	ND	ND	ND	ND	ND	ND	ND	ND	0
48317	2015-08-03T04:00:00	46.6	ND	ND	ND	ND	ND	ND	ND	ND	ND	ND	0
48318	2015-08-03T05:00:00	37.3	ND	ND	ND	ND	ND	ND	ND	ND	ND	ND	0
48319	2015-08-03T06:00:00	73.1	ND	ND	ND	ND	ND	ND	ND	ND	ND	ND	0
48320	2015-08-03T07:00:00	86.7	ND	ND	ND	ND	ND	ND	ND	ND	ND	ND	0
48321	2015-08-03T08:00:00	65.3	ND	ND	ND	ND	ND	ND	ND	ND	ND	ND	0
48322	2015-08-03T09:00:00	103.6	ND	ND	ND	ND	ND	ND	ND	ND	ND	ND	0
48323	2015-08-03T10:00:00	101.4	ND	ND	ND	ND	ND	ND	ND	ND	ND	ND	0
48324	2015-08-03T11:00:00	75.2	ND	ND	ND	ND	ND	ND	ND	ND	ND	ND	0
48325	2015-08-03T12:00:00	56.7	ND	ND	ND	ND	ND	ND	ND	ND	ND	ND	0
48326	2015-08-03T13:00:00	61.8	ND	ND	ND	ND	ND	ND	ND	ND	ND	ND	0
48327	2015-08-03T14:00:00	49.5	ND	ND	ND	ND	ND	ND	ND	ND	ND	ND	0
48328	2015-08-03T15:00:00	35.3	ND	ND	ND	ND	ND	ND	ND	ND	ND	ND	0
48329	2015-08-03T16:00:00	29.6	ND	ND	ND	ND	ND	ND	ND	ND	ND	ND	0
48330	2015-08-03T17:00:00	43.5	ND	ND	ND	ND	ND	ND	ND	ND	ND	ND	0
48331	2015-08-03T18:00:00	43.5	ND	ND	ND	ND	ND	ND	ND	ND	ND	ND	0
48332	2015-08-03T19:00:00	41.7	ND	ND	ND	ND	ND	ND	ND	ND	ND	ND	0
48333	2015-08-03T20:00:00	25.2	ND	ND	ND	ND	ND	ND	ND	ND	ND	ND	0
48334	2015-08-03T21:00:00	19.2	ND	ND	ND	ND	ND	ND	ND	ND	ND	ND	0
48335	2015-08-03T22:00:00	21.1	ND	ND	ND	ND	ND	ND	ND	ND	ND	ND	0
48336	2015-08-03T23:00:00	17	ND	ND	ND	ND	ND	ND	ND	ND	ND	ND	0
48337	2015-08-04T00:00:00	29.8	ND	ND	ND	ND	ND	ND	ND	ND	ND	ND	0
48338	2015-08-04T01:00:00	49.5	ND	ND	ND	ND	ND	ND	ND	ND	ND	ND	0
48339	2015-08-04T02:00:00	53.9	ND	ND	ND	ND	ND	ND	ND	ND	ND	ND	0
48340	2015-08-04T03:00:00	52.6	ND	ND	ND	ND	ND	ND	ND	ND	ND	ND	0
48341	2015-08-04T04:00:00	58.5	ND	ND	ND	ND	ND	ND	ND	ND	ND	ND	0
48342	2015-08-04T05:00:00	36.5	ND	ND	ND	ND	ND	ND	ND	ND	ND	ND	0
48343	2015-08-04T06:00:00	29.3	ND	ND	ND	ND	ND	ND	ND	ND	ND	ND	0
48344	2015-08-04T07:00:00	70.1	ND	ND	ND	ND	ND	ND	ND	ND	ND	ND	0
48345	2015-08-04T08:00:00	118.8	ND	ND	ND	ND	ND	ND	ND	ND	ND	ND	0
48346	2015-08-04T09:00:00	130.1	ND	ND	ND	ND	ND	ND	ND	ND	ND	ND	0
48347	2015-08-04T10:00:00	74.5	ND	ND	ND	ND	ND	ND	ND	ND	ND	ND	0
48348	2015-08-04T11:00:00	51.9	ND	ND	ND	ND	ND	ND	ND	ND	ND	ND	0
48349	2015-08-04T12:00:00	67	ND	ND	ND	ND	ND	ND	ND	ND	ND	ND	0
48350	2015-08-04T13:00:00	53.6	ND	ND	ND	ND	ND	ND	ND	ND	ND	ND	0
48351	2015-08-04T14:00:00	21	ND	ND	ND	ND	ND	ND	ND	ND	ND	ND	0
48352	2015-08-04T15:00:00	26.8	ND	ND	ND	ND	ND	ND	ND	ND	ND	ND	0
48353	2015-08-04T16:00:00	38.2	ND	ND	ND	ND	ND	ND	ND	ND	ND	ND	0
48354	2015-08-04T17:00:00	21.2	ND	ND	ND	ND	ND	ND	ND	ND	ND	ND	0
48355	2015-08-04T18:00:00	15.1	ND	ND	ND	ND	ND	ND	ND	ND	ND	ND	0
48356	2015-08-04T19:00:00	41.7	ND	ND	ND	ND	ND	ND	ND	ND	ND	ND	0
48357	2015-08-04T20:00:00	39.2	ND	ND	ND	ND	ND	ND	ND	ND	ND	ND	0
48358	2015-08-04T21:00:00	38.2	ND	ND	ND	ND	ND	ND	ND	ND	ND	ND	0
48359	2015-08-04T22:00:00	32.4	ND	ND	ND	ND	ND	ND	ND	ND	ND	ND	0
48360	2015-08-04T23:00:00	24.2	ND	ND	ND	ND	ND	ND	ND	ND	ND	ND	0
48361	2015-08-05T00:00:00	25.5	ND	ND	ND	ND	ND	ND	ND	ND	ND	ND	0
48362	2015-08-05T01:00:00	18.4	ND	ND	ND	ND	ND	ND	ND	ND	ND	ND	0
48363	2015-08-05T02:00:00	59.4	ND	ND	ND	ND	ND	ND	ND	ND	ND	ND	0
48364	2015-08-05T03:00:00	58.1	ND	ND	ND	ND	ND	ND	ND	ND	ND	ND	0
48365	2015-08-05T04:00:00	33.8	ND	ND	ND	ND	ND	ND	ND	ND	ND	ND	0
48366	2015-08-05T05:00:00	40.2	ND	ND	ND	ND	ND	ND	ND	ND	ND	ND	0
48367	2015-08-05T06:00:00	28.9	ND	ND	ND	ND	ND	ND	ND	ND	ND	ND	0
48368	2015-08-05T07:00:00	56.6	ND	ND	ND	ND	ND	ND	ND	ND	ND	ND	0
48369	2015-08-05T08:00:00	71.2	ND	ND	ND	ND	ND	ND	ND	ND	ND	ND	0
48370	2015-08-05T09:00:00	98.5	ND	ND	ND	ND	ND	ND	ND	ND	ND	ND	0
48371	2015-08-05T10:00:00	91.4	ND	ND	ND	ND	ND	ND	ND	ND	ND	ND	0
48372	2015-08-05T11:00:00	71.8	ND	ND	ND	ND	ND	ND	ND	ND	ND	ND	0
48373	2015-08-05T12:00:00	70.2	ND	ND	ND	ND	ND	ND	ND	ND	ND	ND	0
48374	2015-08-05T13:00:00	69.2	ND	ND	ND	ND	ND	ND	ND	ND	ND	ND	0
48375	2015-08-05T14:00:00	53.2	ND	ND	ND	ND	ND	ND	ND	ND	ND	ND	0
48376	2015-08-05T15:00:00	41.1	ND	ND	ND	ND	ND	ND	ND	ND	ND	ND	0
48377	2015-08-05T16:00:00	37.9	ND	ND	ND	ND	ND	ND	ND	ND	ND	ND	0
48378	2015-08-05T17:00:00	38.1	ND	ND	ND	ND	ND	ND	ND	ND	ND	ND	0
48379	2015-08-05T18:00:00	48	ND	ND	ND	ND	ND	ND	ND	ND	ND	ND	0
48380	2015-08-05T19:00:00	51.6	ND	ND	ND	ND	ND	ND	ND	ND	ND	ND	0
48381	2015-08-05T20:00:00	41.4	ND	ND	ND	ND	ND	ND	ND	ND	ND	ND	0
48382	2015-08-05T21:00:00	30.1	ND	ND	ND	ND	ND	ND	ND	ND	ND	ND	0
48383	2015-08-05T22:00:00	25.2	ND	ND	ND	ND	ND	ND	ND	ND	ND	ND	0
48384	2015-08-05T23:00:00	42.4	ND	ND	ND	ND	ND	ND	ND	ND	ND	ND	0
48385	2015-08-06T00:00:00	31.4	ND	ND	ND	ND	ND	ND	ND	ND	ND	ND	0
48386	2015-08-06T01:00:00	21	ND	ND	ND	ND	ND	ND	ND	ND	ND	ND	0
48387	2015-08-06T02:00:00	46.2	ND	ND	ND	ND	ND	ND	ND	ND	ND	ND	0
48388	2015-08-06T03:00:00	49.2	ND	ND	ND	ND	ND	ND	ND	ND	ND	ND	0
48389	2015-08-06T04:00:00	35	ND	ND	ND	ND	ND	ND	ND	ND	ND	ND	0
48390	2015-08-06T05:00:00	27.3	ND	ND	ND	ND	ND	ND	ND	ND	ND	ND	0
48391	2015-08-06T06:00:00	32.5	ND	ND	ND	ND	ND	ND	ND	ND	ND	ND	0
48392	2015-08-06T07:00:00	96.9	ND	ND	ND	ND	ND	ND	ND	ND	ND	ND	0
48393	2015-08-06T08:00:00	99.1	ND	ND	ND	ND	ND	ND	ND	ND	ND	ND	0
48394	2015-08-06T09:00:00	85.1	ND	ND	ND	ND	ND	ND	ND	ND	ND	ND	0
48395	2015-08-06T10:00:00	77.3	ND	ND	ND	ND	ND	ND	ND	ND	ND	ND	0
48396	2015-08-06T11:00:00	62.8	ND	ND	ND	ND	ND	ND	ND	ND	ND	ND	0
48397	2015-08-06T12:00:00	47.3	ND	ND	ND	ND	ND	ND	ND	ND	ND	ND	0
48398	2015-08-06T13:00:00	55.2	ND	ND	ND	ND	ND	ND	ND	ND	ND	ND	0
48399	2015-08-06T14:00:00	62.4	ND	ND	ND	ND	ND	ND	ND	ND	ND	ND	0
48400	2015-08-06T15:00:00	64	ND	ND	ND	ND	ND	ND	ND	ND	ND	ND	0
48401	2015-08-06T16:00:00	57.2	ND	ND	ND	ND	ND	ND	ND	ND	ND	ND	0
48402	2015-08-06T17:00:00	35.7	ND	ND	ND	ND	ND	ND	ND	ND	ND	ND	0
48403	2015-08-06T18:00:00	30.4	ND	ND	ND	ND	ND	ND	ND	ND	ND	ND	0
48404	2015-08-06T19:00:00	44.9	ND	ND	ND	ND	ND	ND	ND	ND	ND	ND	0
48405	2015-08-06T20:00:00	35.1	ND	ND	ND	ND	ND	ND	ND	ND	ND	ND	0
48406	2015-08-06T21:00:00	34	ND	ND	ND	ND	ND	ND	ND	ND	ND	ND	0
48407	2015-08-06T22:00:00	19.5	ND	ND	ND	ND	ND	ND	ND	ND	ND	ND	0
48408	2015-08-06T23:00:00	16.2	ND	ND	ND	ND	ND	ND	ND	ND	ND	ND	0
48409	2015-08-07T00:00:00	5.4	ND	ND	ND	ND	ND	ND	ND	ND	ND	ND	0
48410	2015-08-07T01:00:00	3.1	ND	ND	ND	ND	ND	ND	ND	ND	ND	ND	0
48411	2015-08-07T02:00:00	ND	ND	ND	ND	ND	ND	ND	ND	ND	ND	ND	0
48412	2015-08-07T03:00:00	9.9	ND	ND	ND	ND	ND	ND	ND	ND	ND	ND	0
48413	2015-08-07T04:00:00	30.7	ND	ND	ND	ND	ND	ND	ND	ND	ND	ND	0
48414	2015-08-07T05:00:00	39	ND	ND	ND	ND	ND	ND	ND	ND	ND	ND	0
48415	2015-08-07T06:00:00	40.8	ND	ND	ND	ND	ND	ND	ND	ND	ND	ND	0
48416	2015-08-07T07:00:00	22.8	ND	ND	ND	ND	ND	ND	ND	ND	ND	ND	0
48417	2015-08-07T08:00:00	17.9	ND	ND	ND	ND	ND	ND	ND	ND	ND	ND	0
48418	2015-08-07T09:00:00	84.6	ND	ND	ND	ND	ND	ND	ND	ND	ND	ND	0
48419	2015-08-07T10:00:00	125.8	ND	ND	ND	ND	ND	ND	ND	ND	ND	ND	0
48420	2015-08-07T11:00:00	123	ND	ND	ND	ND	ND	ND	ND	ND	ND	ND	0
48421	2015-08-07T12:00:00	123.4	ND	ND	ND	ND	ND	ND	ND	ND	ND	ND	0
48422	2015-08-07T13:00:00	112.9	ND	ND	ND	ND	ND	ND	ND	ND	ND	ND	0
48423	2015-08-07T14:00:00	92.5	ND	ND	ND	ND	ND	ND	ND	ND	ND	ND	0
48424	2015-08-07T15:00:00	80.7	ND	ND	ND	ND	ND	ND	ND	ND	ND	ND	0
48425	2015-08-07T16:00:00	41.6	ND	ND	ND	ND	ND	ND	ND	ND	ND	ND	0
48426	2015-08-07T17:00:00	40.7	ND	ND	ND	ND	ND	ND	ND	ND	ND	ND	0
48427	2015-08-07T18:00:00	20.5	ND	ND	ND	ND	ND	ND	ND	ND	ND	ND	0
48428	2015-08-07T19:00:00	7.5	ND	ND	ND	ND	ND	ND	ND	ND	ND	ND	0
48429	2015-08-07T20:00:00	12.5	ND	ND	ND	ND	ND	ND	ND	ND	ND	ND	0
48430	2015-08-07T21:00:00	15	ND	ND	ND	ND	ND	ND	ND	ND	ND	ND	0
48431	2015-08-07T22:00:00	26.7	ND	ND	ND	ND	ND	ND	ND	ND	ND	ND	0
48432	2015-08-07T23:00:00	19	ND	ND	ND	ND	ND	ND	ND	ND	ND	ND	0
48433	2015-08-08T00:00:00	42.8	ND	ND	ND	ND	ND	ND	ND	ND	ND	ND	0
48434	2015-08-08T01:00:00	70.8	ND	ND	ND	ND	ND	ND	ND	ND	ND	ND	0
48435	2015-08-08T02:00:00	51.7	ND	ND	ND	ND	ND	ND	ND	ND	ND	ND	0
48436	2015-08-08T03:00:00	77.3	ND	ND	ND	ND	ND	ND	ND	ND	ND	ND	0
48437	2015-08-08T04:00:00	84.5	ND	ND	ND	ND	ND	ND	ND	ND	ND	ND	0
48438	2015-08-08T05:00:00	67.2	ND	ND	ND	ND	ND	ND	ND	ND	ND	ND	0
48439	2015-08-08T06:00:00	56.8	ND	ND	ND	ND	ND	ND	ND	ND	ND	ND	0
48440	2015-08-08T07:00:00	77.9	ND	ND	ND	ND	ND	ND	ND	ND	ND	ND	0
48441	2015-08-08T08:00:00	116.1	ND	ND	ND	ND	ND	ND	ND	ND	ND	ND	0
48442	2015-08-08T09:00:00	95	ND	ND	ND	ND	ND	ND	ND	ND	ND	ND	0
48443	2015-08-08T10:00:00	124.6	ND	ND	ND	ND	ND	ND	ND	ND	ND	ND	0
48444	2015-08-08T11:00:00	97.7	ND	ND	ND	ND	ND	ND	ND	ND	ND	ND	0
48445	2015-08-08T12:00:00	97.3	ND	ND	ND	ND	ND	ND	ND	ND	ND	ND	0
48446	2015-08-08T13:00:00	82.4	ND	ND	ND	ND	ND	ND	ND	ND	ND	ND	0
48447	2015-08-08T14:00:00	55.5	ND	ND	ND	ND	ND	ND	ND	ND	ND	ND	0
48448	2015-08-08T15:00:00	36.4	ND	ND	ND	ND	ND	ND	ND	ND	ND	ND	0
48449	2015-08-08T16:00:00	37	ND	ND	ND	ND	ND	ND	ND	ND	ND	ND	4.06
48450	2015-08-08T17:00:00	13.3	ND	ND	ND	ND	ND	ND	ND	ND	ND	ND	0
48451	2015-08-08T18:00:00	7.9	ND	ND	ND	ND	ND	ND	ND	ND	ND	ND	0
48452	2015-08-08T19:00:00	15.2	ND	ND	ND	ND	ND	ND	ND	ND	ND	ND	0
48453	2015-08-08T20:00:00	12.9	ND	ND	ND	ND	ND	ND	ND	ND	ND	ND	0
48454	2015-08-08T21:00:00	24.5	ND	ND	ND	ND	ND	ND	ND	ND	ND	ND	0
48455	2015-08-08T22:00:00	12.4	ND	ND	ND	ND	ND	ND	ND	ND	ND	ND	0
48456	2015-08-08T23:00:00	22.7	ND	ND	ND	ND	ND	ND	ND	ND	ND	ND	0
48457	2015-08-09T00:00:00	49.2	ND	ND	ND	ND	ND	ND	ND	ND	ND	ND	0
48458	2015-08-09T01:00:00	52.7	ND	ND	ND	ND	ND	ND	ND	ND	ND	ND	0
48459	2015-08-09T02:00:00	40.9	ND	ND	ND	ND	ND	ND	ND	ND	ND	ND	0
48460	2015-08-09T03:00:00	50.4	ND	ND	ND	ND	ND	ND	ND	ND	ND	ND	0
48461	2015-08-09T04:00:00	39.1	ND	ND	ND	ND	ND	ND	ND	ND	ND	ND	0
48462	2015-08-09T05:00:00	37	ND	ND	ND	ND	ND	ND	ND	ND	ND	ND	0
48463	2015-08-09T06:00:00	40	ND	ND	ND	ND	ND	ND	ND	ND	ND	ND	0
48464	2015-08-09T07:00:00	37.1	ND	ND	ND	ND	ND	ND	ND	ND	ND	ND	0
48465	2015-08-09T08:00:00	60.6	ND	ND	ND	ND	ND	ND	ND	ND	ND	ND	0
48466	2015-08-09T09:00:00	57.8	ND	ND	ND	ND	ND	ND	ND	ND	ND	ND	0
48467	2015-08-09T10:00:00	59	ND	ND	ND	ND	ND	ND	ND	ND	ND	ND	0
48468	2015-08-09T11:00:00	37.9	ND	ND	ND	ND	ND	ND	ND	ND	ND	ND	0
48469	2015-08-09T12:00:00	20.9	ND	ND	ND	ND	ND	ND	ND	ND	ND	ND	0
48470	2015-08-09T13:00:00	21.2	ND	ND	ND	ND	ND	ND	ND	ND	ND	ND	0
48471	2015-08-09T14:00:00	29.5	ND	ND	ND	ND	ND	ND	ND	ND	ND	ND	0
48472	2015-08-09T15:00:00	55.3	ND	ND	ND	ND	ND	ND	ND	ND	ND	ND	0
48473	2015-08-09T16:00:00	41.4	ND	ND	ND	ND	ND	ND	ND	ND	ND	ND	0
48474	2015-08-09T17:00:00	14.8	ND	ND	ND	ND	ND	ND	ND	ND	ND	ND	0
48475	2015-08-09T18:00:00	4.6	ND	ND	ND	ND	ND	ND	ND	ND	ND	ND	0
48476	2015-08-09T19:00:00	ND	ND	ND	ND	ND	ND	ND	ND	ND	ND	ND	0
48477	2015-08-09T20:00:00	7.7	ND	ND	ND	ND	ND	ND	ND	ND	ND	ND	0
48478	2015-08-09T21:00:00	15.2	ND	ND	ND	ND	ND	ND	ND	ND	ND	ND	0
48479	2015-08-09T22:00:00	19	ND	ND	ND	ND	ND	ND	ND	ND	ND	ND	0
48480	2015-08-09T23:00:00	38.8	ND	ND	ND	ND	ND	ND	ND	ND	ND	ND	0
48481	2015-08-10T00:00:00	49.4	ND	ND	ND	ND	ND	ND	ND	ND	ND	ND	0
48482	2015-08-10T01:00:00	43.6	ND	ND	ND	ND	ND	ND	ND	ND	ND	ND	0
48483	2015-08-10T02:00:00	41	ND	ND	ND	ND	ND	ND	ND	ND	ND	ND	0
48484	2015-08-10T03:00:00	35.5	ND	ND	ND	ND	ND	ND	ND	ND	ND	ND	0
48485	2015-08-10T04:00:00	35.6	ND	ND	ND	ND	ND	ND	ND	ND	ND	ND	0
48486	2015-08-10T05:00:00	25.6	ND	ND	ND	ND	ND	ND	ND	ND	ND	ND	0
48487	2015-08-10T06:00:00	35	ND	ND	ND	ND	ND	ND	ND	ND	ND	ND	0
48488	2015-08-10T07:00:00	52.5	ND	ND	ND	ND	ND	ND	ND	ND	ND	ND	0
48489	2015-08-10T08:00:00	63.8	ND	ND	ND	ND	ND	ND	ND	ND	ND	ND	0
48490	2015-08-10T09:00:00	75	ND	ND	ND	ND	ND	ND	ND	ND	ND	ND	0
48491	2015-08-10T10:00:00	64.5	ND	ND	ND	ND	ND	ND	ND	ND	ND	ND	0
48492	2015-08-10T11:00:00	51.9	ND	ND	ND	ND	ND	ND	ND	ND	ND	ND	0
48493	2015-08-10T12:00:00	43.9	ND	ND	ND	ND	ND	ND	ND	ND	ND	ND	0
48494	2015-08-10T13:00:00	46	ND	ND	ND	ND	ND	ND	ND	ND	ND	ND	0
48495	2015-08-10T14:00:00	56.9	ND	ND	ND	ND	ND	ND	ND	ND	ND	ND	0
48496	2015-08-10T15:00:00	49.1	ND	ND	ND	ND	ND	ND	ND	ND	ND	ND	0
48497	2015-08-10T16:00:00	46.5	ND	ND	ND	ND	ND	ND	ND	ND	ND	ND	0
48498	2015-08-10T17:00:00	40.4	ND	ND	ND	ND	ND	ND	ND	ND	ND	ND	0
48499	2015-08-10T18:00:00	39.4	ND	ND	ND	ND	ND	ND	ND	ND	ND	ND	0
48500	2015-08-10T19:00:00	39.2	ND	ND	ND	ND	ND	ND	ND	ND	ND	ND	0
48501	2015-08-10T20:00:00	26.9	ND	ND	ND	ND	ND	ND	ND	ND	ND	ND	0
48502	2015-08-10T21:00:00	21.1	ND	ND	ND	ND	ND	ND	ND	ND	ND	ND	0
48503	2015-08-10T22:00:00	15.3	ND	ND	ND	ND	ND	ND	ND	ND	ND	ND	0
48504	2015-08-10T23:00:00	14	ND	ND	ND	ND	ND	ND	ND	ND	ND	ND	0
48505	2015-08-11T00:00:00	12.2	ND	ND	ND	ND	ND	ND	ND	ND	ND	ND	0
48506	2015-08-11T01:00:00	29	ND	ND	ND	ND	ND	ND	ND	ND	ND	ND	0
48507	2015-08-11T02:00:00	45.7	ND	ND	ND	ND	ND	ND	ND	ND	ND	ND	0
48508	2015-08-11T03:00:00	44.1	ND	ND	ND	ND	ND	ND	ND	ND	ND	ND	0
48509	2015-08-11T04:00:00	40.3	ND	ND	ND	ND	ND	ND	ND	ND	ND	ND	0
48510	2015-08-11T05:00:00	43	ND	ND	ND	ND	ND	ND	ND	ND	ND	ND	0
48511	2015-08-11T06:00:00	48.6	ND	ND	ND	ND	ND	ND	ND	ND	ND	ND	0
48512	2015-08-11T07:00:00	55.8	ND	ND	ND	ND	ND	ND	ND	ND	ND	ND	0
48513	2015-08-11T08:00:00	77.6	ND	ND	ND	ND	ND	ND	ND	ND	ND	ND	0
48514	2015-08-11T09:00:00	83.1	ND	ND	ND	ND	ND	ND	ND	ND	ND	ND	0
48515	2015-08-11T10:00:00	70.7	ND	ND	ND	ND	ND	ND	ND	ND	ND	ND	0
48516	2015-08-11T11:00:00	63.1	ND	ND	ND	ND	ND	ND	ND	ND	ND	ND	0
48517	2015-08-11T12:00:00	54	ND	ND	ND	ND	ND	ND	ND	ND	ND	ND	0
48518	2015-08-11T13:00:00	65.2	ND	ND	ND	ND	ND	ND	ND	ND	ND	ND	0
48519	2015-08-11T14:00:00	71.9	ND	ND	ND	ND	ND	ND	ND	ND	ND	ND	0
48520	2015-08-11T15:00:00	74.2	ND	ND	ND	ND	ND	ND	ND	ND	ND	ND	0
48521	2015-08-11T16:00:00	48.7	ND	ND	ND	ND	ND	ND	ND	ND	ND	ND	0
48522	2015-08-11T17:00:00	39.8	ND	ND	ND	ND	ND	ND	ND	ND	ND	ND	0
48523	2015-08-11T18:00:00	35	ND	ND	ND	ND	ND	ND	ND	ND	ND	ND	0
48524	2015-08-11T19:00:00	33.9	ND	ND	ND	ND	ND	ND	ND	ND	ND	ND	0
48525	2015-08-11T20:00:00	26.6	ND	ND	ND	ND	ND	ND	ND	ND	ND	ND	0
48526	2015-08-11T21:00:00	19.2	ND	ND	ND	ND	ND	ND	ND	ND	ND	ND	0
48527	2015-08-11T22:00:00	15.5	ND	ND	ND	ND	ND	ND	ND	ND	ND	ND	0
48528	2015-08-11T23:00:00	13.8	ND	ND	ND	ND	ND	ND	ND	ND	ND	ND	0
48529	2015-08-12T00:00:00	13	ND	ND	ND	ND	ND	ND	ND	ND	ND	ND	0
48530	2015-08-12T01:00:00	25.7	ND	ND	ND	ND	ND	ND	ND	ND	ND	ND	0
48531	2015-08-12T02:00:00	25.2	ND	ND	ND	ND	ND	ND	ND	ND	ND	ND	0
48532	2015-08-12T03:00:00	43.4	ND	ND	ND	ND	ND	ND	ND	ND	ND	ND	0
48533	2015-08-12T04:00:00	52.5	ND	ND	ND	ND	ND	ND	ND	ND	ND	ND	0
48534	2015-08-12T05:00:00	50.4	ND	ND	ND	ND	ND	ND	ND	ND	ND	ND	0
48535	2015-08-12T06:00:00	46.6	ND	ND	ND	ND	ND	ND	ND	ND	ND	ND	0
48536	2015-08-12T07:00:00	71.6	ND	ND	ND	ND	ND	ND	ND	ND	ND	ND	0
48537	2015-08-12T08:00:00	76	ND	ND	ND	ND	ND	ND	ND	ND	ND	ND	0
48538	2015-08-12T09:00:00	65.9	ND	ND	ND	ND	ND	ND	ND	ND	ND	ND	0
48539	2015-08-12T10:00:00	51.4	ND	ND	ND	ND	ND	ND	ND	ND	ND	ND	0
48540	2015-08-12T11:00:00	41.9	ND	ND	ND	ND	ND	ND	ND	ND	ND	ND	0
48541	2015-08-12T12:00:00	60	ND	ND	ND	ND	ND	ND	ND	ND	ND	ND	0
48542	2015-08-12T13:00:00	61.6	ND	ND	ND	ND	ND	ND	ND	ND	ND	ND	0
48543	2015-08-12T14:00:00	54.8	ND	ND	ND	ND	ND	ND	ND	ND	ND	ND	0
48544	2015-08-12T15:00:00	52.7	ND	ND	ND	ND	ND	ND	ND	ND	ND	ND	0
48545	2015-08-12T16:00:00	50.7	ND	ND	ND	ND	ND	ND	ND	ND	ND	ND	0
48546	2015-08-12T17:00:00	35.7	ND	ND	ND	ND	ND	ND	ND	ND	ND	ND	0
48547	2015-08-12T18:00:00	45	ND	ND	ND	ND	ND	ND	ND	ND	ND	ND	0
48548	2015-08-12T19:00:00	39.2	ND	ND	ND	ND	ND	ND	ND	ND	ND	ND	0
48549	2015-08-12T20:00:00	24.3	ND	ND	ND	ND	ND	ND	ND	ND	ND	ND	0
48550	2015-08-12T21:00:00	10.5	ND	ND	ND	ND	ND	ND	ND	ND	ND	ND	0
48551	2015-08-12T22:00:00	8.9	ND	ND	ND	ND	ND	ND	ND	ND	ND	ND	0
48552	2015-08-12T23:00:00	6.1	ND	ND	ND	ND	ND	ND	ND	ND	ND	ND	0
48553	2015-08-13T00:00:00	28.2	ND	ND	ND	ND	ND	ND	ND	ND	ND	ND	1.52
48554	2015-08-13T01:00:00	18.6	ND	ND	ND	ND	ND	ND	ND	ND	ND	ND	0
48555	2015-08-13T02:00:00	28.5	ND	ND	ND	ND	ND	ND	ND	ND	ND	ND	0
48556	2015-08-13T03:00:00	39.1	ND	ND	ND	ND	ND	ND	ND	ND	ND	ND	0
48557	2015-08-13T04:00:00	25.2	ND	ND	ND	ND	ND	ND	ND	ND	ND	ND	0
48558	2015-08-13T05:00:00	31.5	ND	ND	ND	ND	ND	ND	ND	ND	ND	ND	0
48559	2015-08-13T06:00:00	64	ND	ND	ND	ND	ND	ND	ND	ND	ND	ND	0
48560	2015-08-13T07:00:00	82.3	ND	ND	ND	ND	ND	ND	ND	ND	ND	ND	0
48561	2015-08-13T08:00:00	88.9	ND	ND	ND	ND	ND	ND	ND	ND	ND	ND	0
48562	2015-08-13T09:00:00	109	ND	ND	ND	ND	ND	ND	ND	ND	ND	ND	0
48563	2015-08-13T10:00:00	121.7	ND	ND	ND	ND	ND	ND	ND	ND	ND	ND	0
48564	2015-08-13T11:00:00	95.1	ND	ND	ND	ND	ND	ND	ND	ND	ND	ND	0
48565	2015-08-13T12:00:00	72.6	ND	ND	ND	ND	ND	ND	ND	ND	ND	ND	0
48566	2015-08-13T13:00:00	68.3	ND	ND	ND	ND	ND	ND	ND	ND	ND	ND	0
48567	2015-08-13T14:00:00	65	ND	ND	ND	ND	ND	ND	ND	ND	ND	ND	0
48568	2015-08-13T15:00:00	58.4	ND	ND	ND	ND	ND	ND	ND	ND	ND	ND	0
48569	2015-08-13T16:00:00	53.7	ND	ND	ND	ND	ND	ND	ND	ND	ND	ND	0
48570	2015-08-13T17:00:00	47.2	ND	ND	ND	ND	ND	ND	ND	ND	ND	ND	0
48571	2015-08-13T18:00:00	27.7	ND	ND	ND	ND	ND	ND	ND	ND	ND	ND	0
48572	2015-08-13T19:00:00	25.3	ND	ND	ND	ND	ND	ND	ND	ND	ND	ND	0
48573	2015-08-13T20:00:00	19.3	ND	ND	ND	ND	ND	ND	ND	ND	ND	ND	0
48574	2015-08-13T21:00:00	11.4	ND	ND	ND	ND	ND	ND	ND	ND	ND	ND	0
48575	2015-08-13T22:00:00	10.6	ND	ND	ND	ND	ND	ND	ND	ND	ND	ND	0
48576	2015-08-13T23:00:00	7.3	ND	ND	ND	ND	ND	ND	ND	ND	ND	ND	0
48577	2015-08-14T00:00:00	23.7	ND	ND	ND	ND	ND	ND	ND	ND	ND	ND	0
48578	2015-08-14T01:00:00	41	ND	ND	ND	ND	ND	ND	ND	ND	ND	ND	0
48579	2015-08-14T02:00:00	29.8	ND	ND	ND	ND	ND	ND	ND	ND	ND	ND	2.79
48580	2015-08-14T03:00:00	39.6	ND	ND	ND	ND	ND	ND	ND	ND	ND	ND	13.72
48581	2015-08-14T04:00:00	20.4	ND	ND	ND	ND	ND	ND	ND	ND	ND	ND	0.25
48582	2015-08-14T05:00:00	14.8	ND	ND	ND	ND	ND	ND	ND	ND	ND	ND	0
48583	2015-08-14T06:00:00	30.3	ND	ND	ND	ND	ND	ND	ND	ND	ND	ND	0
48584	2015-08-14T07:00:00	13.7	ND	ND	ND	ND	ND	ND	ND	ND	ND	ND	0
48585	2015-08-14T08:00:00	82.9	ND	ND	ND	ND	ND	ND	ND	ND	ND	ND	0
48586	2015-08-14T09:00:00	83.9	ND	ND	ND	ND	ND	ND	ND	ND	ND	ND	0
48587	2015-08-14T10:00:00	74.2	ND	ND	ND	ND	ND	ND	ND	ND	ND	ND	0
48588	2015-08-14T11:00:00	62.8	ND	ND	ND	ND	ND	ND	ND	ND	ND	ND	0
48589	2015-08-14T12:00:00	56.9	ND	ND	ND	ND	ND	ND	ND	ND	ND	ND	0
48590	2015-08-14T13:00:00	55.8	ND	ND	ND	ND	ND	ND	ND	ND	ND	ND	0
48591	2015-08-14T14:00:00	60.8	ND	ND	ND	ND	ND	ND	ND	ND	ND	ND	0
48592	2015-08-14T15:00:00	60.4	ND	ND	ND	ND	ND	ND	ND	ND	ND	ND	0
48593	2015-08-14T16:00:00	35.1	ND	ND	ND	ND	ND	ND	ND	ND	ND	ND	0
48594	2015-08-14T17:00:00	31.4	ND	ND	ND	ND	ND	ND	ND	ND	ND	ND	0
48595	2015-08-14T18:00:00	27.2	ND	ND	ND	ND	ND	ND	ND	ND	ND	ND	0
48596	2015-08-14T19:00:00	20.9	ND	ND	ND	ND	ND	ND	ND	ND	ND	ND	0
48597	2015-08-14T20:00:00	4.1	ND	ND	ND	ND	ND	ND	ND	ND	ND	ND	0
48598	2015-08-14T21:00:00	10.9	ND	ND	ND	ND	ND	ND	ND	ND	ND	ND	0
48599	2015-08-14T22:00:00	22.8	ND	ND	ND	ND	ND	ND	ND	ND	ND	ND	0
48600	2015-08-14T23:00:00	8.9	ND	ND	ND	ND	ND	ND	ND	ND	ND	ND	0
48601	2015-08-15T00:00:00	16.7	ND	ND	ND	ND	ND	ND	ND	ND	ND	ND	0
48602	2015-08-15T01:00:00	25	ND	ND	ND	ND	ND	ND	ND	ND	ND	ND	0
48603	2015-08-15T02:00:00	44.7	ND	ND	ND	ND	ND	ND	ND	ND	ND	ND	0
48604	2015-08-15T03:00:00	52.8	ND	ND	ND	ND	ND	ND	ND	ND	ND	ND	0
48605	2015-08-15T04:00:00	35.7	ND	ND	ND	ND	ND	ND	ND	ND	ND	ND	0.25
48606	2015-08-15T05:00:00	27.1	ND	ND	ND	ND	ND	ND	ND	ND	ND	ND	0.25
48607	2015-08-15T06:00:00	17	ND	ND	ND	ND	ND	ND	ND	ND	ND	ND	2.29
48608	2015-08-15T07:00:00	26.3	ND	ND	ND	ND	ND	ND	ND	ND	ND	ND	0
48609	2015-08-15T08:00:00	41.3	ND	ND	ND	ND	ND	ND	ND	ND	ND	ND	0
48610	2015-08-15T09:00:00	58.6	ND	ND	ND	ND	ND	ND	ND	ND	ND	ND	0
48611	2015-08-15T10:00:00	75.3	ND	ND	ND	ND	ND	ND	ND	ND	ND	ND	0
48612	2015-08-15T11:00:00	66.2	ND	ND	ND	ND	ND	ND	ND	ND	ND	ND	0
48613	2015-08-15T12:00:00	65.7	ND	ND	ND	ND	ND	ND	ND	ND	ND	ND	0
48614	2015-08-15T13:00:00	62.1	ND	ND	ND	ND	ND	ND	ND	ND	ND	ND	0
48615	2015-08-15T14:00:00	63.6	ND	ND	ND	ND	ND	ND	ND	ND	ND	ND	0
48616	2015-08-15T15:00:00	77.4	ND	ND	ND	ND	ND	ND	ND	ND	ND	ND	0
48617	2015-08-15T16:00:00	31.7	ND	ND	ND	ND	ND	ND	ND	ND	ND	ND	0
48618	2015-08-15T17:00:00	32.9	ND	ND	ND	ND	ND	ND	ND	ND	ND	ND	0
48619	2015-08-15T18:00:00	31.4	ND	ND	ND	ND	ND	ND	ND	ND	ND	ND	0
48620	2015-08-15T19:00:00	23	ND	ND	ND	ND	ND	ND	ND	ND	ND	ND	0
48621	2015-08-15T20:00:00	11.3	ND	ND	ND	ND	ND	ND	ND	ND	ND	ND	0
48622	2015-08-15T21:00:00	11.3	ND	ND	ND	ND	ND	ND	ND	ND	ND	ND	0
48623	2015-08-15T22:00:00	19.5	ND	ND	ND	ND	ND	ND	ND	ND	ND	ND	0
48624	2015-08-15T23:00:00	11.3	ND	ND	ND	ND	ND	ND	ND	ND	ND	ND	0
48625	2015-08-16T00:00:00	16	ND	ND	ND	ND	ND	ND	ND	ND	ND	ND	0
48626	2015-08-16T01:00:00	40	ND	ND	ND	ND	ND	ND	ND	ND	ND	ND	0
48627	2015-08-16T02:00:00	51.4	ND	ND	ND	ND	ND	ND	ND	ND	ND	ND	0
48628	2015-08-16T03:00:00	43	ND	ND	ND	ND	ND	ND	ND	ND	ND	ND	0
48629	2015-08-16T04:00:00	36.2	ND	ND	ND	ND	ND	ND	ND	ND	ND	ND	0.51
48630	2015-08-16T05:00:00	33.6	ND	ND	ND	ND	ND	ND	ND	ND	ND	ND	0.25
48631	2015-08-16T06:00:00	29.5	ND	ND	ND	ND	ND	ND	ND	ND	ND	ND	4.57
48632	2015-08-16T07:00:00	23.9	ND	ND	ND	ND	ND	ND	ND	ND	ND	ND	0.25
48633	2015-08-16T08:00:00	22.9	ND	ND	ND	ND	ND	ND	ND	ND	ND	ND	0
48634	2015-08-16T09:00:00	36.6	ND	ND	ND	ND	ND	ND	ND	ND	ND	ND	0
48635	2015-08-16T10:00:00	43.6	ND	ND	ND	ND	ND	ND	ND	ND	ND	ND	0
48636	2015-08-16T11:00:00	38.7	ND	ND	ND	ND	ND	ND	ND	ND	ND	ND	0
48637	2015-08-16T12:00:00	36.9	ND	ND	ND	ND	ND	ND	ND	ND	ND	ND	0
48638	2015-08-16T13:00:00	37.1	ND	ND	ND	ND	ND	ND	ND	ND	ND	ND	0
48639	2015-08-16T14:00:00	39.6	ND	ND	ND	ND	ND	ND	ND	ND	ND	ND	0
48640	2015-08-16T15:00:00	37	ND	ND	ND	ND	ND	ND	ND	ND	ND	ND	0
48641	2015-08-16T16:00:00	40.8	ND	ND	ND	ND	ND	ND	ND	ND	ND	ND	0
48642	2015-08-16T17:00:00	33.8	ND	ND	ND	ND	ND	ND	ND	ND	ND	ND	0
48643	2015-08-16T18:00:00	19.1	ND	ND	ND	ND	ND	ND	ND	ND	ND	ND	0
48644	2015-08-16T19:00:00	20.4	ND	ND	ND	ND	ND	ND	ND	ND	ND	ND	0
48645	2015-08-16T20:00:00	29	ND	ND	ND	ND	ND	ND	ND	ND	ND	ND	0
48646	2015-08-16T21:00:00	17.3	ND	ND	ND	ND	ND	ND	ND	ND	ND	ND	0
48647	2015-08-16T22:00:00	5.4	ND	ND	ND	ND	ND	ND	ND	ND	ND	ND	0
48648	2015-08-16T23:00:00	7.1	ND	ND	ND	ND	ND	ND	ND	ND	ND	ND	0
48649	2015-08-17T00:00:00	22.7	ND	ND	ND	ND	ND	ND	ND	ND	ND	ND	0
48650	2015-08-17T01:00:00	33.1	ND	ND	ND	ND	ND	ND	ND	ND	ND	ND	0
48651	2015-08-17T02:00:00	33.5	ND	ND	ND	ND	ND	ND	ND	ND	ND	ND	0
48652	2015-08-17T03:00:00	34	ND	ND	ND	ND	ND	ND	ND	ND	ND	ND	0
48653	2015-08-17T04:00:00	36.5	ND	ND	ND	ND	ND	ND	ND	ND	ND	ND	0
48654	2015-08-17T05:00:00	34.6	ND	ND	ND	ND	ND	ND	ND	ND	ND	ND	0
48655	2015-08-17T06:00:00	41	ND	ND	ND	ND	ND	ND	ND	ND	ND	ND	0
48656	2015-08-17T07:00:00	46.2	ND	ND	ND	ND	ND	ND	ND	ND	ND	ND	0
48657	2015-08-17T08:00:00	47.6	ND	ND	ND	ND	ND	ND	ND	ND	ND	ND	0
48658	2015-08-17T09:00:00	47.2	ND	ND	ND	ND	ND	ND	ND	ND	ND	ND	0
48659	2015-08-17T10:00:00	36	ND	ND	ND	ND	ND	ND	ND	ND	ND	ND	0
48660	2015-08-17T11:00:00	39.3	ND	ND	ND	ND	ND	ND	ND	ND	ND	ND	0
48661	2015-08-17T12:00:00	40.1	ND	ND	ND	ND	ND	ND	ND	ND	ND	ND	0
48662	2015-08-17T13:00:00	41.2	ND	ND	ND	ND	ND	ND	ND	ND	ND	ND	0
48663	2015-08-17T14:00:00	33.5	ND	ND	ND	ND	ND	ND	ND	ND	ND	ND	0
48664	2015-08-17T15:00:00	27.2	ND	ND	ND	ND	ND	ND	ND	ND	ND	ND	0
48665	2015-08-17T16:00:00	14.6	ND	ND	ND	ND	ND	ND	ND	ND	ND	ND	0
48666	2015-08-17T17:00:00	12.2	ND	ND	ND	ND	ND	ND	ND	ND	ND	ND	0
48667	2015-08-17T18:00:00	20.7	ND	ND	ND	ND	ND	ND	ND	ND	ND	ND	0
48668	2015-08-17T19:00:00	20.9	ND	ND	ND	ND	ND	ND	ND	ND	ND	ND	0
48669	2015-08-17T20:00:00	14.8	ND	ND	ND	ND	ND	ND	ND	ND	ND	ND	0
48670	2015-08-17T21:00:00	24.8	ND	ND	ND	ND	ND	ND	ND	ND	ND	ND	0
48671	2015-08-17T22:00:00	28.4	ND	ND	ND	ND	ND	ND	ND	ND	ND	ND	0
48672	2015-08-17T23:00:00	13.1	ND	ND	ND	ND	ND	ND	ND	ND	ND	ND	0
48673	2015-08-18T00:00:00	11.5	ND	ND	ND	ND	ND	ND	ND	ND	ND	ND	0
48674	2015-08-18T01:00:00	17.6	ND	ND	ND	ND	ND	ND	ND	ND	ND	ND	0
48675	2015-08-18T02:00:00	19.9	ND	ND	ND	ND	ND	ND	ND	ND	ND	ND	0
48676	2015-08-18T03:00:00	16.5	ND	ND	ND	ND	ND	ND	ND	ND	ND	ND	0
48677	2015-08-18T04:00:00	22	ND	ND	ND	ND	ND	ND	ND	ND	ND	ND	0
48678	2015-08-18T05:00:00	29.9	ND	ND	ND	ND	ND	ND	ND	ND	ND	ND	0
48679	2015-08-18T06:00:00	50.7	ND	ND	ND	ND	ND	ND	ND	ND	ND	ND	0
48680	2015-08-18T07:00:00	36.9	ND	ND	ND	ND	ND	ND	ND	ND	ND	ND	0
48681	2015-08-18T08:00:00	63.4	ND	ND	ND	ND	ND	ND	ND	ND	ND	ND	0
48682	2015-08-18T09:00:00	58.5	ND	ND	ND	ND	ND	ND	ND	ND	ND	ND	0
48683	2015-08-18T10:00:00	63.2	ND	ND	ND	ND	ND	ND	ND	ND	ND	ND	0
48684	2015-08-18T11:00:00	56.1	ND	ND	ND	ND	ND	ND	ND	ND	ND	ND	0
48685	2015-08-18T12:00:00	53.8	ND	ND	ND	ND	ND	ND	ND	ND	ND	ND	0
48686	2015-08-18T13:00:00	60.6	ND	ND	ND	ND	ND	ND	ND	ND	ND	ND	0
48687	2015-08-18T14:00:00	60.5	ND	ND	ND	ND	ND	ND	ND	ND	ND	ND	0
48688	2015-08-18T15:00:00	60.3	ND	ND	ND	ND	ND	ND	ND	ND	ND	ND	0
48689	2015-08-18T16:00:00	46.7	ND	ND	ND	ND	ND	ND	ND	ND	ND	ND	0
48690	2015-08-18T17:00:00	46.6	ND	ND	ND	ND	ND	ND	ND	ND	ND	ND	0
48691	2015-08-18T18:00:00	41.7	ND	ND	ND	ND	ND	ND	ND	ND	ND	ND	0
48692	2015-08-18T19:00:00	40	ND	ND	ND	ND	ND	ND	ND	ND	ND	ND	0
48693	2015-08-18T20:00:00	30.7	ND	ND	ND	ND	ND	ND	ND	ND	ND	ND	0
48694	2015-08-18T21:00:00	16.5	ND	ND	ND	ND	ND	ND	ND	ND	ND	ND	0
48695	2015-08-18T22:00:00	14.7	ND	ND	ND	ND	ND	ND	ND	ND	ND	ND	0
48696	2015-08-18T23:00:00	6.4	ND	ND	ND	ND	ND	ND	ND	ND	ND	ND	0
48697	2015-08-19T00:00:00	19.8	ND	ND	ND	ND	ND	ND	ND	ND	ND	ND	0
48698	2015-08-19T01:00:00	24.7	ND	ND	ND	ND	ND	ND	ND	ND	ND	ND	0
48699	2015-08-19T02:00:00	38.3	ND	ND	ND	ND	ND	ND	ND	ND	ND	ND	0
48700	2015-08-19T03:00:00	30.8	ND	ND	ND	ND	ND	ND	ND	ND	ND	ND	0
48701	2015-08-19T04:00:00	36.1	ND	ND	ND	ND	ND	ND	ND	ND	ND	ND	0
48702	2015-08-19T05:00:00	58.9	ND	ND	ND	ND	ND	ND	ND	ND	ND	ND	0
48703	2015-08-19T06:00:00	44.3	ND	ND	ND	ND	ND	ND	ND	ND	ND	ND	0
48704	2015-08-19T07:00:00	39.3	ND	ND	ND	ND	ND	ND	ND	ND	ND	ND	0
48705	2015-08-19T08:00:00	51.6	ND	ND	ND	ND	ND	ND	ND	ND	ND	ND	0
48706	2015-08-19T09:00:00	79	ND	ND	ND	ND	ND	ND	ND	ND	ND	ND	0
48707	2015-08-19T10:00:00	77	ND	ND	ND	ND	ND	ND	ND	ND	ND	ND	0
48708	2015-08-19T11:00:00	55.4	ND	ND	ND	ND	ND	ND	ND	ND	ND	ND	0
48709	2015-08-19T12:00:00	51.7	ND	ND	ND	ND	ND	ND	ND	ND	ND	ND	0
48710	2015-08-19T13:00:00	50.5	ND	ND	ND	ND	ND	ND	ND	ND	ND	ND	0
48711	2015-08-19T14:00:00	51.6	ND	ND	ND	ND	ND	ND	ND	ND	ND	ND	0
48712	2015-08-19T15:00:00	53.5	ND	ND	ND	ND	ND	ND	ND	ND	ND	ND	0
48713	2015-08-19T16:00:00	46.8	ND	ND	ND	ND	ND	ND	ND	ND	ND	ND	0
48714	2015-08-19T17:00:00	55.9	ND	ND	ND	ND	ND	ND	ND	ND	ND	ND	0
48715	2015-08-19T18:00:00	71.6	ND	ND	ND	ND	ND	ND	ND	ND	ND	ND	0
48716	2015-08-19T19:00:00	62.3	ND	ND	ND	ND	ND	ND	ND	ND	ND	ND	0
48717	2015-08-19T20:00:00	37.3	ND	ND	ND	ND	ND	ND	ND	ND	ND	ND	0
48718	2015-08-19T21:00:00	32.3	ND	ND	ND	ND	ND	ND	ND	ND	ND	ND	0
48719	2015-08-19T22:00:00	24.7	ND	ND	ND	ND	ND	ND	ND	ND	ND	ND	0
48720	2015-08-19T23:00:00	19.7	ND	ND	ND	ND	ND	ND	ND	ND	ND	ND	0
48721	2015-08-20T00:00:00	10.3	ND	ND	ND	ND	ND	ND	ND	ND	ND	ND	0
48722	2015-08-20T01:00:00	28	ND	ND	ND	ND	ND	ND	ND	ND	ND	ND	0
48723	2015-08-20T02:00:00	60.8	ND	ND	ND	ND	ND	ND	ND	ND	ND	ND	0
48724	2015-08-20T03:00:00	64.3	ND	ND	ND	ND	ND	ND	ND	ND	ND	ND	0
48725	2015-08-20T04:00:00	58.5	ND	ND	ND	ND	ND	ND	ND	ND	ND	ND	0
48726	2015-08-20T05:00:00	44.4	ND	ND	ND	ND	ND	ND	ND	ND	ND	ND	0
48727	2015-08-20T06:00:00	68.6	ND	ND	ND	ND	ND	ND	ND	ND	ND	ND	0
48728	2015-08-20T07:00:00	56.1	ND	ND	ND	ND	ND	ND	ND	ND	ND	ND	0
48729	2015-08-20T08:00:00	46.2	ND	ND	ND	ND	ND	ND	ND	ND	ND	ND	0
48730	2015-08-20T09:00:00	49.5	ND	ND	ND	ND	ND	ND	ND	ND	ND	ND	0
48731	2015-08-20T10:00:00	69.1	ND	ND	ND	ND	ND	ND	ND	ND	ND	ND	0
48732	2015-08-20T11:00:00	63.9	ND	ND	ND	ND	ND	ND	ND	ND	ND	ND	0
48733	2015-08-20T12:00:00	62.2	ND	ND	ND	ND	ND	ND	ND	ND	ND	ND	0
48734	2015-08-20T13:00:00	51.9	ND	ND	ND	ND	ND	ND	ND	ND	ND	ND	0
48735	2015-08-20T14:00:00	29.6	ND	ND	ND	ND	ND	ND	ND	ND	ND	ND	0
48736	2015-08-20T15:00:00	51.6	ND	ND	ND	ND	ND	ND	ND	ND	ND	ND	0
48737	2015-08-20T16:00:00	37.1	ND	ND	ND	ND	ND	ND	ND	ND	ND	ND	0
48738	2015-08-20T17:00:00	40.5	ND	ND	ND	ND	ND	ND	ND	ND	ND	ND	0
48739	2015-08-20T18:00:00	41.7	ND	ND	ND	ND	ND	ND	ND	ND	ND	ND	0
48740	2015-08-20T19:00:00	47.3	ND	ND	ND	ND	ND	ND	ND	ND	ND	ND	0
48741	2015-08-20T20:00:00	28.9	ND	ND	ND	ND	ND	ND	ND	ND	ND	ND	0
48742	2015-08-20T21:00:00	17.5	ND	ND	ND	ND	ND	ND	ND	ND	ND	ND	0
48743	2015-08-20T22:00:00	14.6	ND	ND	ND	ND	ND	ND	ND	ND	ND	ND	0
48744	2015-08-20T23:00:00	20.3	ND	ND	ND	ND	ND	ND	ND	ND	ND	ND	0
48745	2015-08-21T00:00:00	14.5	ND	ND	ND	ND	ND	ND	ND	ND	ND	ND	0
48746	2015-08-21T01:00:00	38.1	ND	ND	ND	ND	ND	ND	ND	ND	ND	ND	0
48747	2015-08-21T02:00:00	42.4	ND	ND	ND	ND	ND	ND	ND	ND	ND	ND	0
48748	2015-08-21T03:00:00	47.8	ND	ND	ND	ND	ND	ND	ND	ND	ND	ND	0
48749	2015-08-21T04:00:00	49.3	ND	ND	ND	ND	ND	ND	ND	ND	ND	ND	0
48750	2015-08-21T05:00:00	29.2	ND	ND	ND	ND	ND	ND	ND	ND	ND	ND	0
48751	2015-08-21T06:00:00	42.2	ND	ND	ND	ND	ND	ND	ND	ND	ND	ND	0
48752	2015-08-21T07:00:00	81.4	ND	ND	ND	ND	ND	ND	ND	ND	ND	ND	0
48753	2015-08-21T08:00:00	95.2	ND	ND	ND	ND	ND	ND	ND	ND	ND	ND	0
48754	2015-08-21T09:00:00	110.3	ND	ND	ND	ND	ND	ND	ND	ND	ND	ND	0
48755	2015-08-21T10:00:00	108.6	ND	ND	ND	ND	ND	ND	ND	ND	ND	ND	0
48756	2015-08-21T11:00:00	71	ND	ND	ND	ND	ND	ND	ND	ND	ND	ND	0
48757	2015-08-21T12:00:00	47.9	ND	ND	ND	ND	ND	ND	ND	ND	ND	ND	0
48758	2015-08-21T13:00:00	57.9	ND	ND	ND	ND	ND	ND	ND	ND	ND	ND	0
48759	2015-08-21T14:00:00	59	ND	ND	ND	ND	ND	ND	ND	ND	ND	ND	0
48760	2015-08-21T15:00:00	54.7	ND	ND	ND	ND	ND	ND	ND	ND	ND	ND	0
48761	2015-08-21T16:00:00	49.9	ND	ND	ND	ND	ND	ND	ND	ND	ND	ND	0
48762	2015-08-21T17:00:00	69	ND	ND	ND	ND	ND	ND	ND	ND	ND	ND	0
48763	2015-08-21T18:00:00	50.4	ND	ND	ND	ND	ND	ND	ND	ND	ND	ND	0
48764	2015-08-21T19:00:00	42.9	ND	ND	ND	ND	ND	ND	ND	ND	ND	ND	0
48765	2015-08-21T20:00:00	40.3	ND	ND	ND	ND	ND	ND	ND	ND	ND	ND	0
48766	2015-08-21T21:00:00	32.9	ND	ND	ND	ND	ND	ND	ND	ND	ND	ND	0
48767	2015-08-21T22:00:00	18.7	ND	ND	ND	ND	ND	ND	ND	ND	ND	ND	0
48768	2015-08-21T23:00:00	8.4	ND	ND	ND	ND	ND	ND	ND	ND	ND	ND	0
48769	2015-08-22T00:00:00	14.6	ND	ND	ND	ND	ND	ND	ND	ND	ND	ND	0
48770	2015-08-22T01:00:00	18	ND	ND	ND	ND	ND	ND	ND	ND	ND	ND	0
48771	2015-08-22T02:00:00	43.2	ND	ND	ND	ND	ND	ND	ND	ND	ND	ND	0
48772	2015-08-22T03:00:00	40.2	ND	ND	ND	ND	ND	ND	ND	ND	ND	ND	0
48773	2015-08-22T04:00:00	33.7	ND	ND	ND	ND	ND	ND	ND	ND	ND	ND	0
48774	2015-08-22T05:00:00	18.9	ND	ND	ND	ND	ND	ND	ND	ND	ND	ND	0
48775	2015-08-22T06:00:00	35.5	ND	ND	ND	ND	ND	ND	ND	ND	ND	ND	0
48776	2015-08-22T07:00:00	47	ND	ND	ND	ND	ND	ND	ND	ND	ND	ND	0
48777	2015-08-22T08:00:00	94	ND	ND	ND	ND	ND	ND	ND	ND	ND	ND	0
48778	2015-08-22T09:00:00	116.3	ND	ND	ND	ND	ND	ND	ND	ND	ND	ND	0
48779	2015-08-22T10:00:00	86.1	ND	ND	ND	ND	ND	ND	ND	ND	ND	ND	0
48780	2015-08-22T11:00:00	87.3	ND	ND	ND	ND	ND	ND	ND	ND	ND	ND	0
48781	2015-08-22T12:00:00	80.6	ND	ND	ND	ND	ND	ND	ND	ND	ND	ND	0
48782	2015-08-22T13:00:00	112.4	ND	ND	ND	ND	ND	ND	ND	ND	ND	ND	0
48783	2015-08-22T14:00:00	100.5	ND	ND	ND	ND	ND	ND	ND	ND	ND	ND	0
48784	2015-08-22T15:00:00	70.4	ND	ND	ND	ND	ND	ND	ND	ND	ND	ND	0
48785	2015-08-22T16:00:00	58.3	ND	ND	ND	ND	ND	ND	ND	ND	ND	ND	0
48786	2015-08-22T17:00:00	45.7	ND	ND	ND	ND	ND	ND	ND	ND	ND	ND	0
48787	2015-08-22T18:00:00	38.6	ND	ND	ND	ND	ND	ND	ND	ND	ND	ND	0
48788	2015-08-22T19:00:00	30.1	ND	ND	ND	ND	ND	ND	ND	ND	ND	ND	0
48789	2015-08-22T20:00:00	13.3	ND	ND	ND	ND	ND	ND	ND	ND	ND	ND	0
48790	2015-08-22T21:00:00	15.8	ND	ND	ND	ND	ND	ND	ND	ND	ND	ND	0
48791	2015-08-22T22:00:00	20.3	ND	ND	ND	ND	ND	ND	ND	ND	ND	ND	0
48792	2015-08-22T23:00:00	20.4	ND	ND	ND	ND	ND	ND	ND	ND	ND	ND	0
48793	2015-08-23T00:00:00	18.4	ND	ND	ND	ND	ND	ND	ND	ND	ND	ND	0
48794	2015-08-23T01:00:00	44.8	ND	ND	ND	ND	ND	ND	ND	ND	ND	ND	0
48795	2015-08-23T02:00:00	82.5	ND	ND	ND	ND	ND	ND	ND	ND	ND	ND	0
48796	2015-08-23T03:00:00	74.3	ND	ND	ND	ND	ND	ND	ND	ND	ND	ND	0
48797	2015-08-23T04:00:00	65.4	ND	ND	ND	ND	ND	ND	ND	ND	ND	ND	0
48798	2015-08-23T05:00:00	57.4	ND	ND	ND	ND	ND	ND	ND	ND	ND	ND	0
48799	2015-08-23T06:00:00	85.2	ND	ND	ND	ND	ND	ND	ND	ND	ND	ND	0
48800	2015-08-23T07:00:00	78.1	ND	ND	ND	ND	ND	ND	ND	ND	ND	ND	0
48801	2015-08-23T08:00:00	66.8	ND	ND	ND	ND	ND	ND	ND	ND	ND	ND	0
48802	2015-08-23T09:00:00	64.7	ND	ND	ND	ND	ND	ND	ND	ND	ND	ND	0
48803	2015-08-23T10:00:00	62.4	ND	ND	ND	ND	ND	ND	ND	ND	ND	ND	0
48804	2015-08-23T11:00:00	53	ND	ND	ND	ND	ND	ND	ND	ND	ND	ND	0
48805	2015-08-23T12:00:00	57.9	ND	ND	ND	ND	ND	ND	ND	ND	ND	ND	0
48806	2015-08-23T13:00:00	57.9	ND	ND	ND	ND	ND	ND	ND	ND	ND	ND	0
48807	2015-08-23T14:00:00	57.5	ND	ND	ND	ND	ND	ND	ND	ND	ND	ND	0
48808	2015-08-23T15:00:00	43	ND	ND	ND	ND	ND	ND	ND	ND	ND	ND	0
48809	2015-08-23T16:00:00	19.4	ND	ND	ND	ND	ND	ND	ND	ND	ND	ND	0
48810	2015-08-23T17:00:00	44.4	ND	ND	ND	ND	ND	ND	ND	ND	ND	ND	0
48811	2015-08-23T18:00:00	27	ND	ND	ND	ND	ND	ND	ND	ND	ND	ND	0
48812	2015-08-23T19:00:00	29.1	ND	ND	ND	ND	ND	ND	ND	ND	ND	ND	0
48813	2015-08-23T20:00:00	16.2	ND	ND	ND	ND	ND	ND	ND	ND	ND	ND	0
48814	2015-08-23T21:00:00	19.6	ND	ND	ND	ND	ND	ND	ND	ND	ND	ND	0
48815	2015-08-23T22:00:00	9.7	ND	ND	ND	ND	ND	ND	ND	ND	ND	ND	0
48816	2015-08-23T23:00:00	10.2	ND	ND	ND	ND	ND	ND	ND	ND	ND	ND	0
48817	2015-08-24T00:00:00	20.4	ND	ND	ND	ND	ND	ND	ND	ND	ND	ND	0
48818	2015-08-24T01:00:00	8.4	ND	ND	ND	ND	ND	ND	ND	ND	ND	ND	0
48819	2015-08-24T02:00:00	33.5	ND	ND	ND	ND	ND	ND	ND	ND	ND	ND	0
48820	2015-08-24T03:00:00	56.2	ND	ND	ND	ND	ND	ND	ND	ND	ND	ND	0
48821	2015-08-24T04:00:00	40.4	ND	ND	ND	ND	ND	ND	ND	ND	ND	ND	0
48822	2015-08-24T05:00:00	32.4	ND	ND	ND	ND	ND	ND	ND	ND	ND	ND	0
48823	2015-08-24T06:00:00	39.7	ND	ND	ND	ND	ND	ND	ND	ND	ND	ND	0
48824	2015-08-24T07:00:00	47.3	ND	ND	ND	ND	ND	ND	ND	ND	ND	ND	0
48825	2015-08-24T08:00:00	58.4	ND	ND	ND	ND	ND	ND	ND	ND	ND	ND	0
48826	2015-08-24T09:00:00	58.7	ND	ND	ND	ND	ND	ND	ND	ND	ND	ND	0
48827	2015-08-24T10:00:00	48.9	ND	ND	ND	ND	ND	ND	ND	ND	ND	ND	0
48828	2015-08-24T11:00:00	59	ND	ND	ND	ND	ND	ND	ND	ND	ND	ND	0
48829	2015-08-24T12:00:00	60.1	ND	ND	ND	ND	ND	ND	ND	ND	ND	ND	0
48830	2015-08-24T13:00:00	55.9	ND	ND	ND	ND	ND	ND	ND	ND	ND	ND	0
48831	2015-08-24T14:00:00	48.5	ND	ND	ND	ND	ND	ND	ND	ND	ND	ND	0
48832	2015-08-24T15:00:00	48.8	ND	ND	ND	ND	ND	ND	ND	ND	ND	ND	0
48833	2015-08-24T16:00:00	26.7	ND	ND	ND	ND	ND	ND	ND	ND	ND	ND	0
48834	2015-08-24T17:00:00	73.2	ND	ND	ND	ND	ND	ND	ND	ND	ND	ND	0
48835	2015-08-24T18:00:00	48.2	ND	ND	ND	ND	ND	ND	ND	ND	ND	ND	0
48836	2015-08-24T19:00:00	39.4	ND	ND	ND	ND	ND	ND	ND	ND	ND	ND	0
48837	2015-08-24T20:00:00	24.4	ND	ND	ND	ND	ND	ND	ND	ND	ND	ND	0
48838	2015-08-24T21:00:00	13.9	ND	ND	ND	ND	ND	ND	ND	ND	ND	ND	0
48839	2015-08-24T22:00:00	12.4	ND	ND	ND	ND	ND	ND	ND	ND	ND	ND	0
48840	2015-08-24T23:00:00	6.4	ND	ND	ND	ND	ND	ND	ND	ND	ND	ND	0
48841	2015-08-25T00:00:00	5.1	ND	ND	ND	ND	ND	ND	ND	ND	ND	ND	0
48842	2015-08-25T01:00:00	14.6	ND	ND	ND	ND	ND	ND	ND	ND	ND	ND	0
48843	2015-08-25T02:00:00	138.4	ND	ND	ND	ND	ND	ND	ND	ND	ND	ND	0
48844	2015-08-25T03:00:00	37.2	ND	ND	ND	ND	ND	ND	ND	ND	ND	ND	0
48845	2015-08-25T04:00:00	15.5	ND	ND	ND	ND	ND	ND	ND	ND	ND	ND	0
48846	2015-08-25T05:00:00	16.2	ND	ND	ND	ND	ND	ND	ND	ND	ND	ND	0
48847	2015-08-25T06:00:00	28.4	ND	ND	ND	ND	ND	ND	ND	ND	ND	ND	0
48848	2015-08-25T07:00:00	40	ND	ND	ND	ND	ND	ND	ND	ND	ND	ND	0
48849	2015-08-25T08:00:00	54.8	ND	ND	ND	ND	ND	ND	ND	ND	ND	ND	0
48850	2015-08-25T09:00:00	60.7	ND	ND	ND	ND	ND	ND	ND	ND	ND	ND	0
48851	2015-08-25T10:00:00	81.3	ND	ND	ND	ND	ND	ND	ND	ND	ND	ND	0
48852	2015-08-25T11:00:00	65.2	ND	ND	ND	ND	ND	ND	ND	ND	ND	ND	0
48853	2015-08-25T12:00:00	102.1	ND	ND	ND	ND	ND	ND	ND	ND	ND	ND	0
48854	2015-08-25T13:00:00	69.5	ND	ND	ND	ND	ND	ND	ND	ND	ND	ND	0
48855	2015-08-25T14:00:00	60.7	ND	ND	ND	ND	ND	ND	ND	ND	ND	ND	0
48856	2015-08-25T15:00:00	59	ND	ND	ND	ND	ND	ND	ND	ND	ND	ND	0
48857	2015-08-25T16:00:00	53.6	ND	ND	ND	ND	ND	ND	ND	ND	ND	ND	0
48858	2015-08-25T17:00:00	39.7	ND	ND	ND	ND	ND	ND	ND	ND	ND	ND	0
48859	2015-08-25T18:00:00	32.2	ND	ND	ND	ND	ND	ND	ND	ND	ND	ND	0
48860	2015-08-25T19:00:00	36.1	ND	ND	ND	ND	ND	ND	ND	ND	ND	ND	0
48861	2015-08-25T20:00:00	20.8	ND	ND	ND	ND	ND	ND	ND	ND	ND	ND	0
48862	2015-08-25T21:00:00	12.9	ND	ND	ND	ND	ND	ND	ND	ND	ND	ND	0
48863	2015-08-25T22:00:00	11.8	ND	ND	ND	ND	ND	ND	ND	ND	ND	ND	0
48864	2015-08-25T23:00:00	12.3	ND	ND	ND	ND	ND	ND	ND	ND	ND	ND	0
48865	2015-08-26T00:00:00	49	ND	ND	ND	ND	ND	ND	ND	ND	ND	ND	0
48866	2015-08-26T01:00:00	76.8	ND	ND	ND	ND	ND	ND	ND	ND	ND	ND	0
48867	2015-08-26T02:00:00	76.6	ND	ND	ND	ND	ND	ND	ND	ND	ND	ND	0
48868	2015-08-26T03:00:00	64.4	ND	ND	ND	ND	ND	ND	ND	ND	ND	ND	0
48869	2015-08-26T04:00:00	53.8	ND	ND	ND	ND	ND	ND	ND	ND	ND	ND	0
48870	2015-08-26T05:00:00	52.2	ND	ND	ND	ND	ND	ND	ND	ND	ND	ND	0
48871	2015-08-26T06:00:00	60.6	ND	ND	ND	ND	ND	ND	ND	ND	ND	ND	1.02
48872	2015-08-26T07:00:00	60.6	ND	ND	ND	ND	ND	ND	ND	ND	ND	ND	15.49
48873	2015-08-26T08:00:00	52.6	ND	ND	ND	ND	ND	ND	ND	ND	ND	ND	0
48874	2015-08-26T09:00:00	80.2	ND	ND	ND	ND	ND	ND	ND	ND	ND	ND	0.25
48875	2015-08-26T10:00:00	71.2	ND	ND	ND	ND	ND	ND	ND	ND	ND	ND	0
48876	2015-08-26T11:00:00	60.4	ND	ND	ND	ND	ND	ND	ND	ND	ND	ND	0
48877	2015-08-26T12:00:00	58.5	ND	ND	ND	ND	ND	ND	ND	ND	ND	ND	0
48878	2015-08-26T13:00:00	63.5	ND	ND	ND	ND	ND	ND	ND	ND	ND	ND	0
48879	2015-08-26T14:00:00	59.4	ND	ND	ND	ND	ND	ND	ND	ND	ND	ND	0
48880	2015-08-26T15:00:00	49.3	ND	ND	ND	ND	ND	ND	ND	ND	ND	ND	0
48881	2015-08-26T16:00:00	38.3	ND	ND	ND	ND	ND	ND	ND	ND	ND	ND	0
48882	2015-08-26T17:00:00	23.3	ND	ND	ND	ND	ND	ND	ND	ND	ND	ND	0
48883	2015-08-26T18:00:00	43.7	ND	ND	ND	ND	ND	ND	ND	ND	ND	ND	0
48884	2015-08-26T19:00:00	38.2	ND	ND	ND	ND	ND	ND	ND	ND	ND	ND	0
48885	2015-08-26T20:00:00	26.7	ND	ND	ND	ND	ND	ND	ND	ND	ND	ND	0
48886	2015-08-26T21:00:00	15.3	ND	ND	ND	ND	ND	ND	ND	ND	ND	ND	0
48887	2015-08-26T22:00:00	11.7	ND	ND	ND	ND	ND	ND	ND	ND	ND	ND	0
48888	2015-08-26T23:00:00	11.6	ND	ND	ND	ND	ND	ND	ND	ND	ND	ND	0
48889	2015-08-27T00:00:00	9.3	ND	ND	ND	ND	ND	ND	ND	ND	ND	ND	0
48890	2015-08-27T01:00:00	32	ND	ND	ND	ND	ND	ND	ND	ND	ND	ND	0
48891	2015-08-27T02:00:00	73.5	ND	ND	ND	ND	ND	ND	ND	ND	ND	ND	0
48892	2015-08-27T03:00:00	65.7	ND	ND	ND	ND	ND	ND	ND	ND	ND	ND	0
48893	2015-08-27T04:00:00	49.4	ND	ND	ND	ND	ND	ND	ND	ND	ND	ND	0
48894	2015-08-27T05:00:00	55.5	ND	ND	ND	ND	ND	ND	ND	ND	ND	ND	0
48895	2015-08-27T06:00:00	47.2	ND	ND	ND	ND	ND	ND	ND	ND	ND	ND	0
48896	2015-08-27T07:00:00	78.8	ND	ND	ND	ND	ND	ND	ND	ND	ND	ND	0
48897	2015-08-27T08:00:00	86.9	ND	ND	ND	ND	ND	ND	ND	ND	ND	ND	0
48898	2015-08-27T09:00:00	102.4	ND	ND	ND	ND	ND	ND	ND	ND	ND	ND	0
48899	2015-08-27T10:00:00	80.6	ND	ND	ND	ND	ND	ND	ND	ND	ND	ND	0
48900	2015-08-27T11:00:00	60.4	ND	ND	ND	ND	ND	ND	ND	ND	ND	ND	0
48901	2015-08-27T12:00:00	61.9	ND	ND	ND	ND	ND	ND	ND	ND	ND	ND	0
48902	2015-08-27T13:00:00	70.9	ND	ND	ND	ND	ND	ND	ND	ND	ND	ND	0
48903	2015-08-27T14:00:00	74	ND	ND	ND	ND	ND	ND	ND	ND	ND	ND	0
48904	2015-08-27T15:00:00	70.5	ND	ND	ND	ND	ND	ND	ND	ND	ND	ND	0
48905	2015-08-27T16:00:00	71.4	ND	ND	ND	ND	ND	ND	ND	ND	ND	ND	0
48906	2015-08-27T17:00:00	56.7	ND	ND	ND	ND	ND	ND	ND	ND	ND	ND	0
48907	2015-08-27T18:00:00	40.4	ND	ND	ND	ND	ND	ND	ND	ND	ND	ND	0
48908	2015-08-27T19:00:00	40.5	ND	ND	ND	ND	ND	ND	ND	ND	ND	ND	0
48909	2015-08-27T20:00:00	21.6	ND	ND	ND	ND	ND	ND	ND	ND	ND	ND	0
48910	2015-08-27T21:00:00	23.4	ND	ND	ND	ND	ND	ND	ND	ND	ND	ND	0
48911	2015-08-27T22:00:00	41.8	ND	ND	ND	ND	ND	ND	ND	ND	ND	ND	0
48912	2015-08-27T23:00:00	53.8	ND	ND	ND	ND	ND	ND	ND	ND	ND	ND	0
48913	2015-08-28T00:00:00	56.2	ND	ND	ND	ND	ND	ND	ND	ND	ND	ND	0
48914	2015-08-28T01:00:00	38.4	ND	ND	ND	ND	ND	ND	ND	ND	ND	ND	0
48915	2015-08-28T02:00:00	61.2	ND	ND	ND	ND	ND	ND	ND	ND	ND	ND	0
48916	2015-08-28T03:00:00	62.7	ND	ND	ND	ND	ND	ND	ND	ND	ND	ND	0
48917	2015-08-28T04:00:00	55.4	ND	ND	ND	ND	ND	ND	ND	ND	ND	ND	0.76
48918	2015-08-28T05:00:00	55.5	ND	ND	ND	ND	ND	ND	ND	ND	ND	ND	0
48919	2015-08-28T06:00:00	64.3	ND	ND	ND	ND	ND	ND	ND	ND	ND	ND	0
48920	2015-08-28T07:00:00	67.5	ND	ND	ND	ND	ND	ND	ND	ND	ND	ND	0
48921	2015-08-28T08:00:00	86	ND	ND	ND	ND	ND	ND	ND	ND	ND	ND	0
48922	2015-08-28T09:00:00	90.2	ND	ND	ND	ND	ND	ND	ND	ND	ND	ND	0
48923	2015-08-28T10:00:00	73.1	ND	ND	ND	ND	ND	ND	ND	ND	ND	ND	0
48924	2015-08-28T11:00:00	70.6	ND	ND	ND	ND	ND	ND	ND	ND	ND	ND	0
48925	2015-08-28T12:00:00	68.2	ND	ND	ND	ND	ND	ND	ND	ND	ND	ND	0
48926	2015-08-28T13:00:00	61.1	ND	ND	ND	ND	ND	ND	ND	ND	ND	ND	0
48927	2015-08-28T14:00:00	54	ND	ND	ND	ND	ND	ND	ND	ND	ND	ND	0
48928	2015-08-28T15:00:00	63.5	ND	ND	ND	ND	ND	ND	ND	ND	ND	ND	0
48929	2015-08-28T16:00:00	67.2	ND	ND	ND	ND	ND	ND	ND	ND	ND	ND	0
48930	2015-08-28T17:00:00	73.3	ND	ND	ND	ND	ND	ND	ND	ND	ND	ND	0
48931	2015-08-28T18:00:00	43.2	ND	ND	ND	ND	ND	ND	ND	ND	ND	ND	0
48932	2015-08-28T19:00:00	3.9	ND	ND	ND	ND	ND	ND	ND	ND	ND	ND	0
48933	2015-08-28T20:00:00	37	ND	ND	ND	ND	ND	ND	ND	ND	ND	ND	0
48934	2015-08-28T21:00:00	19.4	ND	ND	ND	ND	ND	ND	ND	ND	ND	ND	0
48935	2015-08-28T22:00:00	17.1	ND	ND	ND	ND	ND	ND	ND	ND	ND	ND	0
48936	2015-08-28T23:00:00	40.6	ND	ND	ND	ND	ND	ND	ND	ND	ND	ND	0
48937	2015-08-29T00:00:00	65	ND	ND	ND	ND	ND	ND	ND	ND	ND	ND	0
48938	2015-08-29T01:00:00	77.3	ND	ND	ND	ND	ND	ND	ND	ND	ND	ND	0
48939	2015-08-29T02:00:00	72.2	ND	ND	ND	ND	ND	ND	ND	ND	ND	ND	0
48940	2015-08-29T03:00:00	56.7	ND	ND	ND	ND	ND	ND	ND	ND	ND	ND	0
48941	2015-08-29T04:00:00	53	ND	ND	ND	ND	ND	ND	ND	ND	ND	ND	0
48942	2015-08-29T05:00:00	77.1	ND	ND	ND	ND	ND	ND	ND	ND	ND	ND	0
48943	2015-08-29T06:00:00	79.3	ND	ND	ND	ND	ND	ND	ND	ND	ND	ND	0
48944	2015-08-29T07:00:00	85.8	ND	ND	ND	ND	ND	ND	ND	ND	ND	ND	0
48945	2015-08-29T08:00:00	95.9	ND	ND	ND	ND	ND	ND	ND	ND	ND	ND	0
48946	2015-08-29T09:00:00	76	ND	ND	ND	ND	ND	ND	ND	ND	ND	ND	0
48947	2015-08-29T10:00:00	74.8	ND	ND	ND	ND	ND	ND	ND	ND	ND	ND	0
48948	2015-08-29T11:00:00	55.7	ND	ND	ND	ND	ND	ND	ND	ND	ND	ND	0
48949	2015-08-29T12:00:00	49.3	ND	ND	ND	ND	ND	ND	ND	ND	ND	ND	0
48950	2015-08-29T13:00:00	51.6	ND	ND	ND	ND	ND	ND	ND	ND	ND	ND	0
48951	2015-08-29T14:00:00	43.6	ND	ND	ND	ND	ND	ND	ND	ND	ND	ND	0
48952	2015-08-29T15:00:00	52.6	ND	ND	ND	ND	ND	ND	ND	ND	ND	ND	0
48953	2015-08-29T16:00:00	67.2	ND	ND	ND	ND	ND	ND	ND	ND	ND	ND	0
48954	2015-08-29T17:00:00	56.7	ND	ND	ND	ND	ND	ND	ND	ND	ND	ND	0
48955	2015-08-29T18:00:00	51.7	ND	ND	ND	ND	ND	ND	ND	ND	ND	ND	0
48956	2015-08-29T19:00:00	34.2	ND	ND	ND	ND	ND	ND	ND	ND	ND	ND	0
48957	2015-08-29T20:00:00	5.7	ND	ND	ND	ND	ND	ND	ND	ND	ND	ND	0
48958	2015-08-29T21:00:00	ND	ND	ND	ND	ND	ND	ND	ND	ND	ND	ND	0
48959	2015-08-29T22:00:00	27.3	ND	ND	ND	ND	ND	ND	ND	ND	ND	ND	0
48960	2015-08-29T23:00:00	55.4	ND	ND	ND	ND	ND	ND	ND	ND	ND	ND	0
48961	2015-08-30T00:00:00	52.8	ND	ND	ND	ND	ND	ND	ND	ND	ND	ND	0
48962	2015-08-30T01:00:00	76.9	ND	ND	ND	ND	ND	ND	ND	ND	ND	ND	0
48963	2015-08-30T02:00:00	81	ND	ND	ND	ND	ND	ND	ND	ND	ND	ND	0
48964	2015-08-30T03:00:00	74.1	ND	ND	ND	ND	ND	ND	ND	ND	ND	ND	0
48965	2015-08-30T04:00:00	70.2	ND	ND	ND	ND	ND	ND	ND	ND	ND	ND	0
48966	2015-08-30T05:00:00	73	ND	ND	ND	ND	ND	ND	ND	ND	ND	ND	0
48967	2015-08-30T06:00:00	68.8	ND	ND	ND	ND	ND	ND	ND	ND	ND	ND	0
48968	2015-08-30T07:00:00	68.5	ND	ND	ND	ND	ND	ND	ND	ND	ND	ND	0
48969	2015-08-30T08:00:00	72.3	ND	ND	ND	ND	ND	ND	ND	ND	ND	ND	0
48970	2015-08-30T09:00:00	107.6	ND	ND	ND	ND	ND	ND	ND	ND	ND	ND	0
48971	2015-08-30T10:00:00	97.8	ND	ND	ND	ND	ND	ND	ND	ND	ND	ND	0
48972	2015-08-30T11:00:00	89	ND	ND	ND	ND	ND	ND	ND	ND	ND	ND	0
48973	2015-08-30T12:00:00	77.4	ND	ND	ND	ND	ND	ND	ND	ND	ND	ND	0
48974	2015-08-30T13:00:00	64.6	ND	ND	ND	ND	ND	ND	ND	ND	ND	ND	0
48975	2015-08-30T14:00:00	65.3	ND	ND	ND	ND	ND	ND	ND	ND	ND	ND	0
48976	2015-08-30T15:00:00	71.2	ND	ND	ND	ND	ND	ND	ND	ND	ND	ND	0
48977	2015-08-30T16:00:00	68.3	ND	ND	ND	ND	ND	ND	ND	ND	ND	ND	0
48978	2015-08-30T17:00:00	41.8	ND	ND	ND	ND	ND	ND	ND	ND	ND	ND	0
48979	2015-08-30T18:00:00	23.4	ND	ND	ND	ND	ND	ND	ND	ND	ND	ND	0
48980	2015-08-30T19:00:00	20.9	ND	ND	ND	ND	ND	ND	ND	ND	ND	ND	0
48981	2015-08-30T20:00:00	21	ND	ND	ND	ND	ND	ND	ND	ND	ND	ND	0
48982	2015-08-30T21:00:00	13	ND	ND	ND	ND	ND	ND	ND	ND	ND	ND	0
48983	2015-08-30T22:00:00	1.4	ND	ND	ND	ND	ND	ND	ND	ND	ND	ND	0
48984	2015-08-30T23:00:00	19.6	ND	ND	ND	ND	ND	ND	ND	ND	ND	ND	0
48985	2015-08-31T00:00:00	44.4	ND	ND	ND	ND	ND	ND	ND	ND	ND	ND	0
48986	2015-08-31T01:00:00	101.2	ND	ND	ND	ND	ND	ND	ND	ND	ND	ND	0
48987	2015-08-31T02:00:00	92.6	ND	ND	ND	ND	ND	ND	ND	ND	ND	ND	0
48988	2015-08-31T03:00:00	86.4	ND	ND	ND	ND	ND	ND	ND	ND	ND	ND	0
48989	2015-08-31T04:00:00	87	ND	ND	ND	ND	ND	ND	ND	ND	ND	ND	0
48990	2015-08-31T05:00:00	79.1	ND	ND	ND	ND	ND	ND	ND	ND	ND	ND	0
48991	2015-08-31T06:00:00	76.6	ND	ND	ND	ND	ND	ND	ND	ND	ND	ND	0
48992	2015-08-31T07:00:00	77.7	ND	ND	ND	ND	ND	ND	ND	ND	ND	ND	0
48993	2015-08-31T08:00:00	82.8	ND	ND	ND	ND	ND	ND	ND	ND	ND	ND	0
48994	2015-08-31T09:00:00	73.9	ND	ND	ND	ND	ND	ND	ND	ND	ND	ND	0
48995	2015-08-31T10:00:00	100.2	ND	ND	ND	ND	ND	ND	ND	ND	ND	ND	0
48996	2015-08-31T11:00:00	98.4	ND	ND	ND	ND	ND	ND	ND	ND	ND	ND	0
48997	2015-08-31T12:00:00	89.7	ND	ND	ND	ND	ND	ND	ND	ND	ND	ND	0
48998	2015-08-31T13:00:00	85	ND	ND	ND	ND	ND	ND	ND	ND	ND	ND	0
48999	2015-08-31T14:00:00	78.3	ND	ND	ND	ND	ND	ND	ND	ND	ND	ND	0
49000	2015-08-31T15:00:00	57.2	ND	ND	ND	ND	ND	ND	ND	ND	ND	ND	0
49001	2015-08-31T16:00:00	67.9	ND	ND	ND	ND	ND	ND	ND	ND	ND	ND	0
49002	2015-08-31T17:00:00	73.4	ND	ND	ND	ND	ND	ND	ND	ND	ND	ND	0
49003	2015-08-31T18:00:00	56.4	ND	ND	ND	ND	ND	ND	ND	ND	ND	ND	0
49004	2015-08-31T19:00:00	43.1	ND	ND	ND	ND	ND	ND	ND	ND	ND	ND	0
49005	2015-08-31T20:00:00	36.1	ND	ND	ND	ND	ND	ND	ND	ND	ND	ND	0
49006	2015-08-31T21:00:00	17.5	ND	ND	ND	ND	ND	ND	ND	ND	ND	ND	0
49007	2015-08-31T22:00:00	1.5	ND	ND	ND	ND	ND	ND	ND	ND	ND	ND	0
49008	2015-08-31T23:00:00	ND	ND	ND	ND	ND	ND	ND	ND	ND	ND	ND	0
49009	2015-09-01T00:00:00	ND	ND	ND	ND	ND	ND	ND	ND	ND	ND	ND	0
49010	2015-09-01T01:00:00	29.8	ND	ND	ND	ND	ND	ND	ND	ND	ND	ND	0
49011	2015-09-01T02:00:00	46.3	ND	ND	ND	ND	ND	ND	ND	ND	ND	ND	0
49012	2015-09-01T03:00:00	74.2	ND	ND	ND	ND	ND	ND	ND	ND	ND	ND	0
49013	2015-09-01T04:00:00	62.8	ND	ND	ND	ND	ND	ND	ND	ND	ND	ND	0
49014	2015-09-01T05:00:00	62.4	ND	ND	ND	ND	ND	ND	ND	ND	ND	ND	0
49015	2015-09-01T06:00:00	69	ND	ND	ND	ND	ND	ND	ND	ND	ND	ND	0
49016	2015-09-01T07:00:00	79.8	ND	ND	ND	ND	ND	ND	ND	ND	ND	ND	0
49017	2015-09-01T08:00:00	92.8	ND	ND	ND	ND	ND	ND	ND	ND	ND	ND	0
49018	2015-09-01T09:00:00	94.4	ND	ND	ND	ND	ND	ND	ND	ND	ND	ND	0
49019	2015-09-01T10:00:00	93.6	ND	ND	ND	ND	ND	ND	ND	ND	ND	ND	0
49020	2015-09-01T11:00:00	72.4	ND	ND	ND	ND	ND	ND	ND	ND	ND	ND	0
49021	2015-09-01T12:00:00	74.6	ND	ND	ND	ND	ND	ND	ND	ND	ND	ND	0
49022	2015-09-01T13:00:00	64.4	ND	ND	ND	ND	ND	ND	ND	ND	ND	ND	0
49023	2015-09-01T14:00:00	66.7	ND	ND	ND	ND	ND	ND	ND	ND	ND	ND	0
49024	2015-09-01T15:00:00	66.1	ND	ND	ND	ND	ND	ND	ND	ND	ND	ND	0
49025	2015-09-01T16:00:00	62.3	ND	ND	ND	ND	ND	ND	ND	ND	ND	ND	0
49026	2015-09-01T17:00:00	47.7	ND	ND	ND	ND	ND	ND	ND	ND	ND	ND	0
49027	2015-09-01T18:00:00	43.9	ND	ND	ND	ND	ND	ND	ND	ND	ND	ND	0
49028	2015-09-01T19:00:00	37.9	ND	ND	ND	ND	ND	ND	ND	ND	ND	ND	0
49029	2015-09-01T20:00:00	20.5	ND	ND	ND	ND	ND	ND	ND	ND	ND	ND	0
49030	2015-09-01T21:00:00	ND	ND	ND	ND	ND	ND	ND	ND	ND	ND	ND	0
49031	2015-09-01T22:00:00	8.8	ND	ND	ND	ND	ND	ND	ND	ND	ND	ND	0
49032	2015-09-01T23:00:00	46.8	ND	ND	ND	ND	ND	ND	ND	ND	ND	ND	0
49033	2015-09-02T00:00:00	72.8	ND	ND	ND	ND	ND	ND	ND	ND	ND	ND	0
49034	2015-09-02T01:00:00	55.9	ND	ND	ND	ND	ND	ND	ND	ND	ND	ND	0
49035	2015-09-02T02:00:00	87.5	ND	ND	ND	ND	ND	ND	ND	ND	ND	ND	0
49036	2015-09-02T03:00:00	80.8	ND	ND	ND	ND	ND	ND	ND	ND	ND	ND	0
49037	2015-09-02T04:00:00	67.3	ND	ND	ND	ND	ND	ND	ND	ND	ND	ND	0
49038	2015-09-02T05:00:00	73.8	ND	ND	ND	ND	ND	ND	ND	ND	ND	ND	0
49039	2015-09-02T06:00:00	61.9	ND	ND	ND	ND	ND	ND	ND	ND	ND	ND	0
49040	2015-09-02T07:00:00	63	ND	ND	ND	ND	ND	ND	ND	ND	ND	ND	0
49041	2015-09-02T08:00:00	77.3	ND	ND	ND	ND	ND	ND	ND	ND	ND	ND	0
49042	2015-09-02T09:00:00	104.6	ND	ND	ND	ND	ND	ND	ND	ND	ND	ND	0
49043	2015-09-02T10:00:00	88.6	ND	ND	ND	ND	ND	ND	ND	ND	ND	ND	0
49044	2015-09-02T11:00:00	69.8	ND	ND	ND	ND	ND	ND	ND	ND	ND	ND	0
49045	2015-09-02T12:00:00	68.8	ND	ND	ND	ND	ND	ND	ND	ND	ND	ND	0
49046	2015-09-02T13:00:00	68.6	ND	ND	ND	ND	ND	ND	ND	ND	ND	ND	0
49047	2015-09-02T14:00:00	60.4	ND	ND	ND	ND	ND	ND	ND	ND	ND	ND	0
49048	2015-09-02T15:00:00	ND	ND	ND	ND	ND	ND	ND	ND	ND	ND	ND	ND
49049	2015-09-02T16:00:00	ND	ND	ND	ND	ND	ND	ND	ND	ND	ND	ND	ND
49050	2015-09-02T17:00:00	ND	ND	ND	ND	ND	ND	ND	ND	ND	ND	ND	ND
49051	2015-09-02T18:00:00	ND	ND	ND	ND	ND	ND	ND	ND	ND	ND	ND	ND
49052	2015-09-02T19:00:00	ND	ND	ND	ND	ND	ND	ND	ND	ND	ND	ND	ND
49053	2015-09-02T20:00:00	ND	ND	ND	ND	ND	ND	ND	ND	ND	ND	ND	ND
49054	2015-09-02T21:00:00	ND	ND	ND	ND	ND	ND	ND	ND	ND	ND	ND	ND
49055	2015-09-02T22:00:00	ND	ND	ND	ND	ND	ND	ND	ND	ND	ND	ND	ND
49056	2015-09-02T23:00:00	ND	ND	ND	ND	ND	ND	ND	ND	ND	ND	ND	ND
49057	2015-09-03T00:00:00	ND	ND	ND	ND	ND	ND	ND	ND	ND	ND	ND	ND
49058	2015-09-03T01:00:00	ND	ND	ND	ND	ND	ND	ND	ND	ND	ND	ND	ND
49059	2015-09-03T02:00:00	ND	ND	ND	ND	ND	ND	ND	ND	ND	ND	ND	ND
49060	2015-09-03T03:00:00	ND	ND	ND	ND	ND	ND	ND	ND	ND	ND	ND	ND
49061	2015-09-03T04:00:00	ND	ND	ND	ND	ND	ND	ND	ND	ND	ND	ND	ND
49062	2015-09-03T05:00:00	ND	ND	ND	ND	ND	ND	ND	ND	ND	ND	ND	ND
49063	2015-09-03T06:00:00	ND	ND	ND	ND	ND	ND	ND	ND	ND	ND	ND	ND
49064	2015-09-03T07:00:00	ND	ND	ND	ND	ND	ND	ND	ND	ND	ND	ND	ND
49065	2015-09-03T08:00:00	ND	ND	ND	ND	ND	ND	ND	ND	ND	ND	ND	ND
49066	2015-09-03T09:00:00	ND	ND	ND	ND	ND	ND	ND	ND	ND	ND	ND	ND
49067	2015-09-03T10:00:00	ND	ND	ND	ND	ND	ND	ND	ND	ND	ND	ND	ND
49068	2015-09-03T11:00:00	ND	ND	ND	ND	ND	ND	ND	ND	ND	ND	ND	ND
49069	2015-09-03T12:00:00	ND	ND	ND	ND	ND	ND	ND	ND	ND	ND	ND	0
49070	2015-09-03T13:00:00	46.2	ND	ND	ND	ND	ND	ND	ND	ND	ND	ND	0
49071	2015-09-03T14:00:00	52.2	ND	ND	ND	ND	ND	ND	ND	ND	ND	ND	0
49072	2015-09-03T15:00:00	51.9	ND	ND	ND	ND	ND	ND	ND	ND	ND	ND	0
49073	2015-09-03T16:00:00	46	ND	ND	ND	ND	ND	ND	ND	ND	ND	ND	0
49074	2015-09-03T17:00:00	61.1	ND	ND	ND	ND	ND	ND	ND	ND	ND	ND	0
49075	2015-09-03T18:00:00	57.2	ND	ND	ND	ND	ND	ND	ND	ND	ND	ND	0
49076	2015-09-03T19:00:00	62.2	ND	ND	ND	ND	ND	ND	ND	ND	ND	ND	0
49077	2015-09-03T20:00:00	53.1	ND	ND	ND	ND	ND	ND	ND	ND	ND	ND	0
49078	2015-09-03T21:00:00	26.6	ND	ND	ND	ND	ND	ND	ND	ND	ND	ND	0
49079	2015-09-03T22:00:00	23.6	ND	ND	ND	ND	ND	ND	ND	ND	ND	ND	0
49080	2015-09-03T23:00:00	17.3	ND	ND	ND	ND	ND	ND	ND	ND	ND	ND	0
49081	2015-09-04T00:00:00	25.5	ND	ND	ND	ND	ND	ND	ND	ND	ND	ND	0
49082	2015-09-04T01:00:00	64.6	ND	ND	ND	ND	ND	ND	ND	ND	ND	ND	0
49083	2015-09-04T02:00:00	43.1	ND	ND	ND	ND	ND	ND	ND	ND	ND	ND	0
49084	2015-09-04T03:00:00	46.6	ND	ND	ND	ND	ND	ND	ND	ND	ND	ND	0
49085	2015-09-04T04:00:00	48.5	ND	ND	ND	ND	ND	ND	ND	ND	ND	ND	0
49086	2015-09-04T05:00:00	32.2	ND	ND	ND	ND	ND	ND	ND	ND	ND	ND	0
49087	2015-09-04T06:00:00	25.9	ND	ND	ND	ND	ND	ND	ND	ND	ND	ND	0
49088	2015-09-04T07:00:00	20	ND	ND	ND	ND	ND	ND	ND	ND	ND	ND	0
49089	2015-09-04T08:00:00	108.4	ND	ND	ND	ND	ND	ND	ND	ND	ND	ND	0
49090	2015-09-04T09:00:00	132.7	ND	ND	ND	ND	ND	ND	ND	ND	ND	ND	0
49091	2015-09-04T10:00:00	87.4	ND	ND	ND	ND	ND	ND	ND	ND	ND	ND	0
49092	2015-09-04T11:00:00	51.8	ND	ND	ND	ND	ND	ND	ND	ND	ND	ND	0
49093	2015-09-04T12:00:00	49.7	ND	ND	ND	ND	ND	ND	ND	ND	ND	ND	0
49094	2015-09-04T13:00:00	62.4	ND	ND	ND	ND	ND	ND	ND	ND	ND	ND	0
49095	2015-09-04T14:00:00	63.5	ND	ND	ND	ND	ND	ND	ND	ND	ND	ND	0
49096	2015-09-04T15:00:00	56.5	ND	ND	ND	ND	ND	ND	ND	ND	ND	ND	0
49097	2015-09-04T16:00:00	55.2	ND	ND	ND	ND	ND	ND	ND	ND	ND	ND	0
49098	2015-09-04T17:00:00	55.1	ND	ND	ND	ND	ND	ND	ND	ND	ND	ND	0
49099	2015-09-04T18:00:00	45.8	ND	ND	ND	ND	ND	ND	ND	ND	ND	ND	0
49100	2015-09-04T19:00:00	40.5	ND	ND	ND	ND	ND	ND	ND	ND	ND	ND	0
49101	2015-09-04T20:00:00	25.4	ND	ND	ND	ND	ND	ND	ND	ND	ND	ND	0
49102	2015-09-04T21:00:00	25.6	ND	ND	ND	ND	ND	ND	ND	ND	ND	ND	0
49103	2015-09-04T22:00:00	21.4	ND	ND	ND	ND	ND	ND	ND	ND	ND	ND	0
49104	2015-09-04T23:00:00	18.6	ND	ND	ND	ND	ND	ND	ND	ND	ND	ND	0
49105	2015-09-05T00:00:00	21.2	ND	ND	ND	ND	ND	ND	ND	ND	ND	ND	0
49106	2015-09-05T01:00:00	30.6	ND	ND	ND	ND	ND	ND	ND	ND	ND	ND	0
49107	2015-09-05T02:00:00	54.5	ND	ND	ND	ND	ND	ND	ND	ND	ND	ND	0
49108	2015-09-05T03:00:00	61.9	ND	ND	ND	ND	ND	ND	ND	ND	ND	ND	0
49109	2015-09-05T04:00:00	58.1	ND	ND	ND	ND	ND	ND	ND	ND	ND	ND	0
49110	2015-09-05T05:00:00	52.2	ND	ND	ND	ND	ND	ND	ND	ND	ND	ND	0
49111	2015-09-05T06:00:00	47.5	ND	ND	ND	ND	ND	ND	ND	ND	ND	ND	0
49112	2015-09-05T07:00:00	57.8	ND	ND	ND	ND	ND	ND	ND	ND	ND	ND	0
49113	2015-09-05T08:00:00	115	ND	ND	ND	ND	ND	ND	ND	ND	ND	ND	0
49114	2015-09-05T09:00:00	149.5	ND	ND	ND	ND	ND	ND	ND	ND	ND	ND	0
49115	2015-09-05T10:00:00	125.1	ND	ND	ND	ND	ND	ND	ND	ND	ND	ND	0
49116	2015-09-05T11:00:00	121	ND	ND	ND	ND	ND	ND	ND	ND	ND	ND	0
49117	2015-09-05T12:00:00	97.9	ND	ND	ND	ND	ND	ND	ND	ND	ND	ND	0
49118	2015-09-05T13:00:00	90.8	ND	ND	ND	ND	ND	ND	ND	ND	ND	ND	0
49119	2015-09-05T14:00:00	84.4	ND	ND	ND	ND	ND	ND	ND	ND	ND	ND	0
49120	2015-09-05T15:00:00	51.7	ND	ND	ND	ND	ND	ND	ND	ND	ND	ND	0
49121	2015-09-05T16:00:00	39.5	ND	ND	ND	ND	ND	ND	ND	ND	ND	ND	0
49122	2015-09-05T17:00:00	24.2	ND	ND	ND	ND	ND	ND	ND	ND	ND	ND	0
49123	2015-09-05T18:00:00	16.3	ND	ND	ND	ND	ND	ND	ND	ND	ND	ND	0
49124	2015-09-05T19:00:00	26.3	ND	ND	ND	ND	ND	ND	ND	ND	ND	ND	0
49125	2015-09-05T20:00:00	26.3	ND	ND	ND	ND	ND	ND	ND	ND	ND	ND	0
49126	2015-09-05T21:00:00	23.4	ND	ND	ND	ND	ND	ND	ND	ND	ND	ND	0
49127	2015-09-05T22:00:00	7.1	ND	ND	ND	ND	ND	ND	ND	ND	ND	ND	0
49128	2015-09-05T23:00:00	19.5	ND	ND	ND	ND	ND	ND	ND	ND	ND	ND	0
49129	2015-09-06T00:00:00	63.6	ND	ND	ND	ND	ND	ND	ND	ND	ND	ND	0
49130	2015-09-06T01:00:00	60.7	ND	ND	ND	ND	ND	ND	ND	ND	ND	ND	0
49131	2015-09-06T02:00:00	65.2	ND	ND	ND	ND	ND	ND	ND	ND	ND	ND	0
49132	2015-09-06T03:00:00	53.2	ND	ND	ND	ND	ND	ND	ND	ND	ND	ND	0
49133	2015-09-06T04:00:00	44.6	ND	ND	ND	ND	ND	ND	ND	ND	ND	ND	0
49134	2015-09-06T05:00:00	89.4	ND	ND	ND	ND	ND	ND	ND	ND	ND	ND	0
49135	2015-09-06T06:00:00	65.1	ND	ND	ND	ND	ND	ND	ND	ND	ND	ND	0
49136	2015-09-06T07:00:00	56	ND	ND	ND	ND	ND	ND	ND	ND	ND	ND	0
49137	2015-09-06T08:00:00	44.1	ND	ND	ND	ND	ND	ND	ND	ND	ND	ND	0
49138	2015-09-06T09:00:00	67.5	ND	ND	ND	ND	ND	ND	ND	ND	ND	ND	0
49139	2015-09-06T10:00:00	70.3	ND	ND	ND	ND	ND	ND	ND	ND	ND	ND	0
49140	2015-09-06T11:00:00	75.1	ND	ND	ND	ND	ND	ND	ND	ND	ND	ND	0
49141	2015-09-06T12:00:00	61.5	ND	ND	ND	ND	ND	ND	ND	ND	ND	ND	0
49142	2015-09-06T13:00:00	48.5	ND	ND	ND	ND	ND	ND	ND	ND	ND	ND	0
49143	2015-09-06T14:00:00	41.5	ND	ND	ND	ND	ND	ND	ND	ND	ND	ND	0
49144	2015-09-06T15:00:00	42.2	ND	ND	ND	ND	ND	ND	ND	ND	ND	ND	0
49145	2015-09-06T16:00:00	26.6	ND	ND	ND	ND	ND	ND	ND	ND	ND	ND	0
49146	2015-09-06T17:00:00	18.1	ND	ND	ND	ND	ND	ND	ND	ND	ND	ND	0
49147	2015-09-06T18:00:00	8.4	ND	ND	ND	ND	ND	ND	ND	ND	ND	ND	0
49148	2015-09-06T19:00:00	4.1	ND	ND	ND	ND	ND	ND	ND	ND	ND	ND	0
49149	2015-09-06T20:00:00	10.2	ND	ND	ND	ND	ND	ND	ND	ND	ND	ND	0
49150	2015-09-06T21:00:00	28.7	ND	ND	ND	ND	ND	ND	ND	ND	ND	ND	0
49151	2015-09-06T22:00:00	13.6	ND	ND	ND	ND	ND	ND	ND	ND	ND	ND	0
49152	2015-09-06T23:00:00	15.8	ND	ND	ND	ND	ND	ND	ND	ND	ND	ND	0
49153	2015-09-07T00:00:00	31.3	ND	ND	ND	ND	ND	ND	ND	ND	ND	ND	0
49154	2015-09-07T01:00:00	54.6	ND	ND	ND	ND	ND	ND	ND	ND	ND	ND	0
49155	2015-09-07T02:00:00	61.2	ND	ND	ND	ND	ND	ND	ND	ND	ND	ND	0
49156	2015-09-07T03:00:00	44.6	ND	ND	ND	ND	ND	ND	ND	ND	ND	ND	0
49157	2015-09-07T04:00:00	38	ND	ND	ND	ND	ND	ND	ND	ND	ND	ND	0
49158	2015-09-07T05:00:00	22.1	ND	ND	ND	ND	ND	ND	ND	ND	ND	ND	0
49159	2015-09-07T06:00:00	65.5	ND	ND	ND	ND	ND	ND	ND	ND	ND	ND	0
49160	2015-09-07T07:00:00	68.6	ND	ND	ND	ND	ND	ND	ND	ND	ND	ND	0
49161	2015-09-07T08:00:00	71.4	ND	ND	ND	ND	ND	ND	ND	ND	ND	ND	0
49162	2015-09-07T09:00:00	107	ND	ND	ND	ND	ND	ND	ND	ND	ND	ND	0
49163	2015-09-07T10:00:00	115	ND	ND	ND	ND	ND	ND	ND	ND	ND	ND	0
49164	2015-09-07T11:00:00	77.2	ND	ND	ND	ND	ND	ND	ND	ND	ND	ND	0
49165	2015-09-07T12:00:00	48.8	ND	ND	ND	ND	ND	ND	ND	ND	ND	ND	0
49166	2015-09-07T13:00:00	43.2	ND	ND	ND	ND	ND	ND	ND	ND	ND	ND	0
49167	2015-09-07T14:00:00	44	ND	ND	ND	ND	ND	ND	ND	ND	ND	ND	0
49168	2015-09-07T15:00:00	52.7	ND	ND	ND	ND	ND	ND	ND	ND	ND	ND	0
49169	2015-09-07T16:00:00	53.7	ND	ND	ND	ND	ND	ND	ND	ND	ND	ND	0
49170	2015-09-07T17:00:00	47	ND	ND	ND	ND	ND	ND	ND	ND	ND	ND	0
49171	2015-09-07T18:00:00	52.9	ND	ND	ND	ND	ND	ND	ND	ND	ND	ND	0
49172	2015-09-07T19:00:00	41.9	ND	ND	ND	ND	ND	ND	ND	ND	ND	ND	0
49173	2015-09-07T20:00:00	17.7	ND	ND	ND	ND	ND	ND	ND	ND	ND	ND	0
49174	2015-09-07T21:00:00	14.2	ND	ND	ND	ND	ND	ND	ND	ND	ND	ND	0
49175	2015-09-07T22:00:00	14.6	ND	ND	ND	ND	ND	ND	ND	ND	ND	ND	0
49176	2015-09-07T23:00:00	14.4	ND	ND	ND	ND	ND	ND	ND	ND	ND	ND	0
49177	2015-09-08T00:00:00	8.1	ND	ND	ND	ND	ND	ND	ND	ND	ND	ND	0
49178	2015-09-08T01:00:00	10.4	ND	ND	ND	ND	ND	ND	ND	ND	ND	ND	0
49179	2015-09-08T02:00:00	38.4	ND	ND	ND	ND	ND	ND	ND	ND	ND	ND	0
49180	2015-09-08T03:00:00	46.6	ND	ND	ND	ND	ND	ND	ND	ND	ND	ND	0
49181	2015-09-08T04:00:00	52.4	ND	ND	ND	ND	ND	ND	ND	ND	ND	ND	0
49182	2015-09-08T05:00:00	56.2	ND	ND	ND	ND	ND	ND	ND	ND	ND	ND	0
49183	2015-09-08T06:00:00	49.9	ND	ND	ND	ND	ND	ND	ND	ND	ND	ND	0
49184	2015-09-08T07:00:00	49.3	ND	ND	ND	ND	ND	ND	ND	ND	ND	ND	0
49185	2015-09-08T08:00:00	55.2	ND	ND	ND	ND	ND	ND	ND	ND	ND	ND	0
49186	2015-09-08T09:00:00	88	ND	ND	ND	ND	ND	ND	ND	ND	ND	ND	0
49187	2015-09-08T10:00:00	85	ND	ND	ND	ND	ND	ND	ND	ND	ND	ND	0
49188	2015-09-08T11:00:00	77.7	ND	ND	ND	ND	ND	ND	ND	ND	ND	ND	0
49189	2015-09-08T12:00:00	67.9	ND	ND	ND	ND	ND	ND	ND	ND	ND	ND	0
49190	2015-09-08T13:00:00	76	ND	ND	ND	ND	ND	ND	ND	ND	ND	ND	0
49191	2015-09-08T14:00:00	72.4	ND	ND	ND	ND	ND	ND	ND	ND	ND	ND	0
49192	2015-09-08T15:00:00	74.8	ND	ND	ND	ND	ND	ND	ND	ND	ND	ND	0
49193	2015-09-08T16:00:00	62.3	ND	ND	ND	ND	ND	ND	ND	ND	ND	ND	0
49194	2015-09-08T17:00:00	51.4	ND	ND	ND	ND	ND	ND	ND	ND	ND	ND	0
49195	2015-09-08T18:00:00	46.7	ND	ND	ND	ND	ND	ND	ND	ND	ND	ND	0
49196	2015-09-08T19:00:00	22.8	ND	ND	ND	ND	ND	ND	ND	ND	ND	ND	0
49197	2015-09-08T20:00:00	20.1	ND	ND	ND	ND	ND	ND	ND	ND	ND	ND	0
49198	2015-09-08T21:00:00	22.6	ND	ND	ND	ND	ND	ND	ND	ND	ND	ND	1.78
49199	2015-09-08T22:00:00	25.3	ND	ND	ND	ND	ND	ND	ND	ND	ND	ND	1.27
49200	2015-09-08T23:00:00	30.2	ND	ND	ND	ND	ND	ND	ND	ND	ND	ND	0
49201	2015-09-09T00:00:00	17.1	ND	ND	ND	ND	ND	ND	ND	ND	ND	ND	0
49202	2015-09-09T01:00:00	14.1	ND	ND	ND	ND	ND	ND	ND	ND	ND	ND	0
49203	2015-09-09T02:00:00	46.6	ND	ND	ND	ND	ND	ND	ND	ND	ND	ND	0
49204	2015-09-09T03:00:00	58.3	ND	ND	ND	ND	ND	ND	ND	ND	ND	ND	0
49205	2015-09-09T04:00:00	51.8	ND	ND	ND	ND	ND	ND	ND	ND	ND	ND	0
49206	2015-09-09T05:00:00	51.7	ND	ND	ND	ND	ND	ND	ND	ND	ND	ND	0
49207	2015-09-09T06:00:00	58	ND	ND	ND	ND	ND	ND	ND	ND	ND	ND	0
49208	2015-09-09T07:00:00	78.8	ND	ND	ND	ND	ND	ND	ND	ND	ND	ND	0
49209	2015-09-09T08:00:00	71.2	ND	ND	ND	ND	ND	ND	ND	ND	ND	ND	0
49210	2015-09-09T09:00:00	68.4	ND	ND	ND	ND	ND	ND	ND	ND	ND	ND	0
49211	2015-09-09T10:00:00	58.4	ND	ND	ND	ND	ND	ND	ND	ND	ND	ND	0
49212	2015-09-09T11:00:00	55.5	ND	ND	ND	ND	ND	ND	ND	ND	ND	ND	0
49213	2015-09-09T12:00:00	61.1	ND	ND	ND	ND	ND	ND	ND	ND	ND	ND	0
49214	2015-09-09T13:00:00	53	ND	ND	ND	ND	ND	ND	ND	ND	ND	ND	0
49215	2015-09-09T14:00:00	47.5	ND	ND	ND	ND	ND	ND	ND	ND	ND	ND	0
49216	2015-09-09T15:00:00	42.9	ND	ND	ND	ND	ND	ND	ND	ND	ND	ND	0
49217	2015-09-09T16:00:00	45.7	ND	ND	ND	ND	ND	ND	ND	ND	ND	ND	0
49218	2015-09-09T17:00:00	39.8	ND	ND	ND	ND	ND	ND	ND	ND	ND	ND	0
49219	2015-09-09T18:00:00	18.9	ND	ND	ND	ND	ND	ND	ND	ND	ND	ND	0
49220	2015-09-09T19:00:00	25.8	ND	ND	ND	ND	ND	ND	ND	ND	ND	ND	0
49221	2015-09-09T20:00:00	21.4	ND	ND	ND	ND	ND	ND	ND	ND	ND	ND	0
49222	2015-09-09T21:00:00	31.6	ND	ND	ND	ND	ND	ND	ND	ND	ND	ND	0
49223	2015-09-09T22:00:00	31.2	ND	ND	ND	ND	ND	ND	ND	ND	ND	ND	0
49224	2015-09-09T23:00:00	19.9	ND	ND	ND	ND	ND	ND	ND	ND	ND	ND	0
49225	2015-09-10T00:00:00	28.3	ND	ND	ND	ND	ND	ND	ND	ND	ND	ND	0
49226	2015-09-10T01:00:00	26.5	ND	ND	ND	ND	ND	ND	ND	ND	ND	ND	0
49227	2015-09-10T02:00:00	76.6	ND	ND	ND	ND	ND	ND	ND	ND	ND	ND	0
49228	2015-09-10T03:00:00	79.8	ND	ND	ND	ND	ND	ND	ND	ND	ND	ND	0
49229	2015-09-10T04:00:00	46.8	ND	ND	ND	ND	ND	ND	ND	ND	ND	ND	0
49230	2015-09-10T05:00:00	44.6	ND	ND	ND	ND	ND	ND	ND	ND	ND	ND	0
49231	2015-09-10T06:00:00	40.7	ND	ND	ND	ND	ND	ND	ND	ND	ND	ND	0
49232	2015-09-10T07:00:00	43.1	ND	ND	ND	ND	ND	ND	ND	ND	ND	ND	0
49233	2015-09-10T08:00:00	56.8	ND	ND	ND	ND	ND	ND	ND	ND	ND	ND	0
49234	2015-09-10T09:00:00	65.8	ND	ND	ND	ND	ND	ND	ND	ND	ND	ND	0
49235	2015-09-10T10:00:00	67.9	ND	ND	ND	ND	ND	ND	ND	ND	ND	ND	0
49236	2015-09-10T11:00:00	68.9	ND	ND	ND	ND	ND	ND	ND	ND	ND	ND	0
49237	2015-09-10T12:00:00	60.5	ND	ND	ND	ND	ND	ND	ND	ND	ND	ND	0
49238	2015-09-10T13:00:00	62.5	ND	ND	ND	ND	ND	ND	ND	ND	ND	ND	0
49239	2015-09-10T14:00:00	53.2	ND	ND	ND	ND	ND	ND	ND	ND	ND	ND	0
49240	2015-09-10T15:00:00	34.9	ND	ND	ND	ND	ND	ND	ND	ND	ND	ND	0
49241	2015-09-10T16:00:00	19	ND	ND	ND	ND	ND	ND	ND	ND	ND	ND	0
49242	2015-09-10T17:00:00	20.6	ND	ND	ND	ND	ND	ND	ND	ND	ND	ND	0
49243	2015-09-10T18:00:00	26.5	ND	ND	ND	ND	ND	ND	ND	ND	ND	ND	0
49244	2015-09-10T19:00:00	19.8	ND	ND	ND	ND	ND	ND	ND	ND	ND	ND	0
49245	2015-09-10T20:00:00	4.1	ND	ND	ND	ND	ND	ND	ND	ND	ND	ND	0
49246	2015-09-10T21:00:00	2.3	ND	ND	ND	ND	ND	ND	ND	ND	ND	ND	0
49247	2015-09-10T22:00:00	27.7	ND	ND	ND	ND	ND	ND	ND	ND	ND	ND	0
49248	2015-09-10T23:00:00	18.6	ND	ND	ND	ND	ND	ND	ND	ND	ND	ND	0
49249	2015-09-11T00:00:00	13.3	ND	ND	ND	ND	ND	ND	ND	ND	ND	ND	0
49250	2015-09-11T01:00:00	27	ND	ND	ND	ND	ND	ND	ND	ND	ND	ND	0
49251	2015-09-11T02:00:00	20	ND	ND	ND	ND	ND	ND	ND	ND	ND	ND	0
49252	2015-09-11T03:00:00	27	ND	ND	ND	ND	ND	ND	ND	ND	ND	ND	0
49253	2015-09-11T04:00:00	30.4	ND	ND	ND	ND	ND	ND	ND	ND	ND	ND	0
49254	2015-09-11T05:00:00	31.3	ND	ND	ND	ND	ND	ND	ND	ND	ND	ND	0
49255	2015-09-11T06:00:00	36.4	ND	ND	ND	ND	ND	ND	ND	ND	ND	ND	0
49256	2015-09-11T07:00:00	50.6	ND	ND	ND	ND	ND	ND	ND	ND	ND	ND	0
49257	2015-09-11T08:00:00	54.9	ND	ND	ND	ND	ND	ND	ND	ND	ND	ND	0
49258	2015-09-11T09:00:00	67	ND	ND	ND	ND	ND	ND	ND	ND	ND	ND	0
49259	2015-09-11T10:00:00	54.2	ND	ND	ND	ND	ND	ND	ND	ND	ND	ND	0
49260	2015-09-11T11:00:00	52.5	ND	ND	ND	ND	ND	ND	ND	ND	ND	ND	0
49261	2015-09-11T12:00:00	61.8	ND	ND	ND	ND	ND	ND	ND	ND	ND	ND	0
49262	2015-09-11T13:00:00	73.5	ND	ND	ND	ND	ND	ND	ND	ND	ND	ND	0
49263	2015-09-11T14:00:00	51.5	ND	ND	ND	ND	ND	ND	ND	ND	ND	ND	0
49264	2015-09-11T15:00:00	42.2	ND	ND	ND	ND	ND	ND	ND	ND	ND	ND	0
49265	2015-09-11T16:00:00	44.6	ND	ND	ND	ND	ND	ND	ND	ND	ND	ND	0
49266	2015-09-11T17:00:00	51.8	ND	ND	ND	ND	ND	ND	ND	ND	ND	ND	0
49267	2015-09-11T18:00:00	63.6	ND	ND	ND	ND	ND	ND	ND	ND	ND	ND	0
49268	2015-09-11T19:00:00	58.5	ND	ND	ND	ND	ND	ND	ND	ND	ND	ND	0
49269	2015-09-11T20:00:00	79.7	ND	ND	ND	ND	ND	ND	ND	ND	ND	ND	0
49270	2015-09-11T21:00:00	76.9	ND	ND	ND	ND	ND	ND	ND	ND	ND	ND	0
49271	2015-09-11T22:00:00	53.9	ND	ND	ND	ND	ND	ND	ND	ND	ND	ND	0
49272	2015-09-11T23:00:00	53.7	ND	ND	ND	ND	ND	ND	ND	ND	ND	ND	0
49273	2015-09-12T00:00:00	62.8	ND	ND	ND	ND	ND	ND	ND	ND	ND	ND	0
49274	2015-09-12T01:00:00	36.9	ND	ND	ND	ND	ND	ND	ND	ND	ND	ND	0
49275	2015-09-12T02:00:00	65.4	ND	ND	ND	ND	ND	ND	ND	ND	ND	ND	0
49276	2015-09-12T03:00:00	71.4	ND	ND	ND	ND	ND	ND	ND	ND	ND	ND	0
49277	2015-09-12T04:00:00	60.2	ND	ND	ND	ND	ND	ND	ND	ND	ND	ND	0
49278	2015-09-12T05:00:00	47.1	ND	ND	ND	ND	ND	ND	ND	ND	ND	ND	0
49279	2015-09-12T06:00:00	42.7	ND	ND	ND	ND	ND	ND	ND	ND	ND	ND	0
49280	2015-09-12T07:00:00	38.4	ND	ND	ND	ND	ND	ND	ND	ND	ND	ND	0
49281	2015-09-12T08:00:00	95.7	ND	ND	ND	ND	ND	ND	ND	ND	ND	ND	0
49282	2015-09-12T09:00:00	106.8	ND	ND	ND	ND	ND	ND	ND	ND	ND	ND	0
49283	2015-09-12T10:00:00	85.2	ND	ND	ND	ND	ND	ND	ND	ND	ND	ND	0
49284	2015-09-12T11:00:00	70.1	ND	ND	ND	ND	ND	ND	ND	ND	ND	ND	0
49285	2015-09-12T12:00:00	68	ND	ND	ND	ND	ND	ND	ND	ND	ND	ND	0
49286	2015-09-12T13:00:00	54.5	ND	ND	ND	ND	ND	ND	ND	ND	ND	ND	0
49287	2015-09-12T14:00:00	60.4	ND	ND	ND	ND	ND	ND	ND	ND	ND	ND	0
49288	2015-09-12T15:00:00	48.2	ND	ND	ND	ND	ND	ND	ND	ND	ND	ND	0
49289	2015-09-12T16:00:00	37.8	ND	ND	ND	ND	ND	ND	ND	ND	ND	ND	0
49290	2015-09-12T17:00:00	47.7	ND	ND	ND	ND	ND	ND	ND	ND	ND	ND	0
49291	2015-09-12T18:00:00	43.6	ND	ND	ND	ND	ND	ND	ND	ND	ND	ND	0
49292	2015-09-12T19:00:00	28.6	ND	ND	ND	ND	ND	ND	ND	ND	ND	ND	0
49293	2015-09-12T20:00:00	17.1	ND	ND	ND	ND	ND	ND	ND	ND	ND	ND	0
49294	2015-09-12T21:00:00	23.4	ND	ND	ND	ND	ND	ND	ND	ND	ND	ND	0
49295	2015-09-12T22:00:00	31.2	ND	ND	ND	ND	ND	ND	ND	ND	ND	ND	0
49296	2015-09-12T23:00:00	30.4	ND	ND	ND	ND	ND	ND	ND	ND	ND	ND	0
49297	2015-09-13T00:00:00	38.6	ND	ND	ND	ND	ND	ND	ND	ND	ND	ND	0
49298	2015-09-13T01:00:00	51.4	ND	ND	ND	ND	ND	ND	ND	ND	ND	ND	0
49299	2015-09-13T02:00:00	67.9	ND	ND	ND	ND	ND	ND	ND	ND	ND	ND	0
49300	2015-09-13T03:00:00	76.6	ND	ND	ND	ND	ND	ND	ND	ND	ND	ND	0
49301	2015-09-13T04:00:00	70.9	ND	ND	ND	ND	ND	ND	ND	ND	ND	ND	0
49302	2015-09-13T05:00:00	63.3	ND	ND	ND	ND	ND	ND	ND	ND	ND	ND	0
49303	2015-09-13T06:00:00	47.4	ND	ND	ND	ND	ND	ND	ND	ND	ND	ND	0
49304	2015-09-13T07:00:00	13.7	ND	ND	ND	ND	ND	ND	ND	ND	ND	ND	0
49305	2015-09-13T08:00:00	33.5	ND	ND	ND	ND	ND	ND	ND	ND	ND	ND	0
49306	2015-09-13T09:00:00	76.9	ND	ND	ND	ND	ND	ND	ND	ND	ND	ND	0
49307	2015-09-13T10:00:00	78.6	ND	ND	ND	ND	ND	ND	ND	ND	ND	ND	0
49308	2015-09-13T11:00:00	71.6	ND	ND	ND	ND	ND	ND	ND	ND	ND	ND	0
49309	2015-09-13T12:00:00	55.3	ND	ND	ND	ND	ND	ND	ND	ND	ND	ND	0
49310	2015-09-13T13:00:00	47.9	ND	ND	ND	ND	ND	ND	ND	ND	ND	ND	0
49311	2015-09-13T14:00:00	27.5	ND	ND	ND	ND	ND	ND	ND	ND	ND	ND	0
49312	2015-09-13T15:00:00	38.2	ND	ND	ND	ND	ND	ND	ND	ND	ND	ND	0
49313	2015-09-13T16:00:00	47.4	ND	ND	ND	ND	ND	ND	ND	ND	ND	ND	0
49314	2015-09-13T17:00:00	43.6	ND	ND	ND	ND	ND	ND	ND	ND	ND	ND	0
49315	2015-09-13T18:00:00	27.7	ND	ND	ND	ND	ND	ND	ND	ND	ND	ND	0
49316	2015-09-13T19:00:00	18.2	ND	ND	ND	ND	ND	ND	ND	ND	ND	ND	0
49317	2015-09-13T20:00:00	11.3	ND	ND	ND	ND	ND	ND	ND	ND	ND	ND	0
49318	2015-09-13T21:00:00	4.5	ND	ND	ND	ND	ND	ND	ND	ND	ND	ND	0
49319	2015-09-13T22:00:00	49.2	ND	ND	ND	ND	ND	ND	ND	ND	ND	ND	0
49320	2015-09-13T23:00:00	81.6	ND	ND	ND	ND	ND	ND	ND	ND	ND	ND	0
49321	2015-09-14T00:00:00	66.8	ND	ND	ND	ND	ND	ND	ND	ND	ND	ND	0
49322	2015-09-14T01:00:00	48.8	ND	ND	ND	ND	ND	ND	ND	ND	ND	ND	0
49323	2015-09-14T02:00:00	46.3	ND	ND	ND	ND	ND	ND	ND	ND	ND	ND	0
49324	2015-09-14T03:00:00	39.2	ND	ND	ND	ND	ND	ND	ND	ND	ND	ND	0
49325	2015-09-14T04:00:00	10.5	ND	ND	ND	ND	ND	ND	ND	ND	ND	ND	0
49326	2015-09-14T05:00:00	7.3	ND	ND	ND	ND	ND	ND	ND	ND	ND	ND	0
49327	2015-09-14T06:00:00	80.1	ND	ND	ND	ND	ND	ND	ND	ND	ND	ND	0
49328	2015-09-14T07:00:00	125.7	ND	ND	ND	ND	ND	ND	ND	ND	ND	ND	0
49329	2015-09-14T08:00:00	102.6	ND	ND	ND	ND	ND	ND	ND	ND	ND	ND	0
49330	2015-09-14T09:00:00	127.9	ND	ND	ND	ND	ND	ND	ND	ND	ND	ND	0
49331	2015-09-14T10:00:00	121.3	ND	ND	ND	ND	ND	ND	ND	ND	ND	ND	0
49332	2015-09-14T11:00:00	85.7	ND	ND	ND	ND	ND	ND	ND	ND	ND	ND	0
49333	2015-09-14T12:00:00	94.6	ND	ND	ND	ND	ND	ND	ND	ND	ND	ND	0
49334	2015-09-14T13:00:00	103.1	ND	ND	ND	ND	ND	ND	ND	ND	ND	ND	0
49335	2015-09-14T14:00:00	77.7	ND	ND	ND	ND	ND	ND	ND	ND	ND	ND	0
49336	2015-09-14T15:00:00	52.6	ND	ND	ND	ND	ND	ND	ND	ND	ND	ND	0
49337	2015-09-14T16:00:00	46.5	ND	ND	ND	ND	ND	ND	ND	ND	ND	ND	0
49338	2015-09-14T17:00:00	59.6	ND	ND	ND	ND	ND	ND	ND	ND	ND	ND	0
49339	2015-09-14T18:00:00	46.6	ND	ND	ND	ND	ND	ND	ND	ND	ND	ND	0
49340	2015-09-14T19:00:00	31.7	ND	ND	ND	ND	ND	ND	ND	ND	ND	ND	0
49341	2015-09-14T20:00:00	19.6	ND	ND	ND	ND	ND	ND	ND	ND	ND	ND	0
49342	2015-09-14T21:00:00	25.9	ND	ND	ND	ND	ND	ND	ND	ND	ND	ND	0
49343	2015-09-14T22:00:00	30.3	ND	ND	ND	ND	ND	ND	ND	ND	ND	ND	0
49344	2015-09-14T23:00:00	27.9	ND	ND	ND	ND	ND	ND	ND	ND	ND	ND	0
49345	2015-09-15T00:00:00	37.1	ND	ND	ND	ND	ND	ND	ND	ND	ND	ND	0
49346	2015-09-15T01:00:00	67.7	ND	ND	ND	ND	ND	ND	ND	ND	ND	ND	0
49347	2015-09-15T02:00:00	62.3	ND	ND	ND	ND	ND	ND	ND	ND	ND	ND	0
49348	2015-09-15T03:00:00	26.2	ND	ND	ND	ND	ND	ND	ND	ND	ND	ND	0
49349	2015-09-15T04:00:00	7.1	ND	ND	ND	ND	ND	ND	ND	ND	ND	ND	0
49350	2015-09-15T05:00:00	29.6	ND	ND	ND	ND	ND	ND	ND	ND	ND	ND	0
49351	2015-09-15T06:00:00	97.5	ND	ND	ND	ND	ND	ND	ND	ND	ND	ND	0
49352	2015-09-15T07:00:00	79.8	ND	ND	ND	ND	ND	ND	ND	ND	ND	ND	0
49353	2015-09-15T08:00:00	70.7	ND	ND	ND	ND	ND	ND	ND	ND	ND	ND	0
49354	2015-09-15T09:00:00	158.1	ND	ND	ND	ND	ND	ND	ND	ND	ND	ND	0
49355	2015-09-15T10:00:00	155.3	ND	ND	ND	ND	ND	ND	ND	ND	ND	ND	0
49356	2015-09-15T11:00:00	96.1	ND	ND	ND	ND	ND	ND	ND	ND	ND	ND	0
49357	2015-09-15T12:00:00	79.6	ND	ND	ND	ND	ND	ND	ND	ND	ND	ND	0
49358	2015-09-15T13:00:00	70.6	ND	ND	ND	ND	ND	ND	ND	ND	ND	ND	0
49359	2015-09-15T14:00:00	65.7	ND	ND	ND	ND	ND	ND	ND	ND	ND	ND	0
49360	2015-09-15T15:00:00	62.6	ND	ND	ND	ND	ND	ND	ND	ND	ND	ND	0
49361	2015-09-15T16:00:00	62.4	ND	ND	ND	ND	ND	ND	ND	ND	ND	ND	0
49362	2015-09-15T17:00:00	47.9	ND	ND	ND	ND	ND	ND	ND	ND	ND	ND	0
49363	2015-09-15T18:00:00	51.6	ND	ND	ND	ND	ND	ND	ND	ND	ND	ND	0
49364	2015-09-15T19:00:00	47.4	ND	ND	ND	ND	ND	ND	ND	ND	ND	ND	0
49365	2015-09-15T20:00:00	34.7	ND	ND	ND	ND	ND	ND	ND	ND	ND	ND	0
49366	2015-09-15T21:00:00	24.9	ND	ND	ND	ND	ND	ND	ND	ND	ND	ND	0
49367	2015-09-15T22:00:00	27.9	ND	ND	ND	ND	ND	ND	ND	ND	ND	ND	0
49368	2015-09-15T23:00:00	32.6	ND	ND	ND	ND	ND	ND	ND	ND	ND	ND	0
49369	2015-09-16T00:00:00	29.4	ND	ND	ND	ND	ND	ND	ND	ND	ND	ND	0
49370	2015-09-16T01:00:00	31.3	ND	ND	ND	ND	ND	ND	ND	ND	ND	ND	0
49371	2015-09-16T02:00:00	48	ND	ND	ND	ND	ND	ND	ND	ND	ND	ND	0
49372	2015-09-16T03:00:00	69.4	ND	ND	ND	ND	ND	ND	ND	ND	ND	ND	0
49373	2015-09-16T04:00:00	46.7	ND	ND	ND	ND	ND	ND	ND	ND	ND	ND	0
49374	2015-09-16T05:00:00	64.2	ND	ND	ND	ND	ND	ND	ND	ND	ND	ND	0
49375	2015-09-16T06:00:00	89.3	ND	ND	ND	ND	ND	ND	ND	ND	ND	ND	0
49376	2015-09-16T07:00:00	105.9	ND	ND	ND	ND	ND	ND	ND	ND	ND	ND	0
49377	2015-09-16T08:00:00	86	ND	ND	ND	ND	ND	ND	ND	ND	ND	ND	0
49378	2015-09-16T09:00:00	76.6	ND	ND	ND	ND	ND	ND	ND	ND	ND	ND	0
49379	2015-09-16T10:00:00	82.1	ND	ND	ND	ND	ND	ND	ND	ND	ND	ND	0
49380	2015-09-16T11:00:00	62.6	ND	ND	ND	ND	ND	ND	ND	ND	ND	ND	0
49381	2015-09-16T12:00:00	77.6	ND	ND	ND	ND	ND	ND	ND	ND	ND	ND	0
49382	2015-09-16T13:00:00	77.2	ND	ND	ND	ND	ND	ND	ND	ND	ND	ND	0
49383	2015-09-16T14:00:00	62.8	ND	ND	ND	ND	ND	ND	ND	ND	ND	ND	0
49384	2015-09-16T15:00:00	57.3	ND	ND	ND	ND	ND	ND	ND	ND	ND	ND	0
49385	2015-09-16T16:00:00	47.3	ND	ND	ND	ND	ND	ND	ND	ND	ND	ND	0
49386	2015-09-16T17:00:00	67.3	ND	ND	ND	ND	ND	ND	ND	ND	ND	ND	0
49387	2015-09-16T18:00:00	70.7	ND	ND	ND	ND	ND	ND	ND	ND	ND	ND	0
49388	2015-09-16T19:00:00	51.9	ND	ND	ND	ND	ND	ND	ND	ND	ND	ND	0
49389	2015-09-16T20:00:00	38.1	ND	ND	ND	ND	ND	ND	ND	ND	ND	ND	0
49390	2015-09-16T21:00:00	35.3	ND	ND	ND	ND	ND	ND	ND	ND	ND	ND	0
49391	2015-09-16T22:00:00	39	ND	ND	ND	ND	ND	ND	ND	ND	ND	ND	0
49392	2015-09-16T23:00:00	30.5	ND	ND	ND	ND	ND	ND	ND	ND	ND	ND	0
49393	2015-09-17T00:00:00	41.6	ND	ND	ND	ND	ND	ND	ND	ND	ND	ND	0
49394	2015-09-17T01:00:00	68.4	ND	ND	ND	ND	ND	ND	ND	ND	ND	ND	0
49395	2015-09-17T02:00:00	58.9	ND	ND	ND	ND	ND	ND	ND	ND	ND	ND	0
49396	2015-09-17T03:00:00	45.7	ND	ND	ND	ND	ND	ND	ND	ND	ND	ND	0
49397	2015-09-17T04:00:00	47.6	ND	ND	ND	ND	ND	ND	ND	ND	ND	ND	0
49398	2015-09-17T05:00:00	39.4	ND	ND	ND	ND	ND	ND	ND	ND	ND	ND	0
49399	2015-09-17T06:00:00	43.9	ND	ND	ND	ND	ND	ND	ND	ND	ND	ND	0
49400	2015-09-17T07:00:00	64.3	ND	ND	ND	ND	ND	ND	ND	ND	ND	ND	0
49401	2015-09-17T08:00:00	84.5	ND	ND	ND	ND	ND	ND	ND	ND	ND	ND	0
49402	2015-09-17T09:00:00	82.3	ND	ND	ND	ND	ND	ND	ND	ND	ND	ND	0
49403	2015-09-17T10:00:00	74.9	ND	ND	ND	ND	ND	ND	ND	ND	ND	ND	0
49404	2015-09-17T11:00:00	53	ND	ND	ND	ND	ND	ND	ND	ND	ND	ND	0
49405	2015-09-17T12:00:00	42.1	ND	ND	ND	ND	ND	ND	ND	ND	ND	ND	0
49406	2015-09-17T13:00:00	57.7	ND	ND	ND	ND	ND	ND	ND	ND	ND	ND	0
49407	2015-09-17T14:00:00	61.1	ND	ND	ND	ND	ND	ND	ND	ND	ND	ND	0
49408	2015-09-17T15:00:00	70.1	ND	ND	ND	ND	ND	ND	ND	ND	ND	ND	0
49409	2015-09-17T16:00:00	60.4	ND	ND	ND	ND	ND	ND	ND	ND	ND	ND	0
49410	2015-09-17T17:00:00	47.4	ND	ND	ND	ND	ND	ND	ND	ND	ND	ND	0
49411	2015-09-17T18:00:00	42.2	ND	ND	ND	ND	ND	ND	ND	ND	ND	ND	0
49412	2015-09-17T19:00:00	44.1	ND	ND	ND	ND	ND	ND	ND	ND	ND	ND	0
49413	2015-09-17T20:00:00	26.5	ND	ND	ND	ND	ND	ND	ND	ND	ND	ND	0
49414	2015-09-17T21:00:00	7.9	ND	ND	ND	ND	ND	ND	ND	ND	ND	ND	0
49415	2015-09-17T22:00:00	5.5	ND	ND	ND	ND	ND	ND	ND	ND	ND	ND	0
49416	2015-09-17T23:00:00	9	ND	ND	ND	ND	ND	ND	ND	ND	ND	ND	0
49417	2015-09-18T00:00:00	26.9	ND	ND	ND	ND	ND	ND	ND	ND	ND	ND	0
49418	2015-09-18T01:00:00	7.3	ND	ND	ND	ND	ND	ND	ND	ND	ND	ND	0
49419	2015-09-18T02:00:00	22.2	ND	ND	ND	ND	ND	ND	ND	ND	ND	ND	0.51
49420	2015-09-18T03:00:00	26.6	ND	ND	ND	ND	ND	ND	ND	ND	ND	ND	0
49421	2015-09-18T04:00:00	27.1	ND	ND	ND	ND	ND	ND	ND	ND	ND	ND	0
49422	2015-09-18T05:00:00	28.6	ND	ND	ND	ND	ND	ND	ND	ND	ND	ND	0
49423	2015-09-18T06:00:00	34.2	ND	ND	ND	ND	ND	ND	ND	ND	ND	ND	0
49424	2015-09-18T07:00:00	40.4	ND	ND	ND	ND	ND	ND	ND	ND	ND	ND	0
49425	2015-09-18T08:00:00	47.9	ND	ND	ND	ND	ND	ND	ND	ND	ND	ND	0
49426	2015-09-18T09:00:00	68	ND	ND	ND	ND	ND	ND	ND	ND	ND	ND	0
49427	2015-09-18T10:00:00	82.8	ND	ND	ND	ND	ND	ND	ND	ND	ND	ND	0
49428	2015-09-18T11:00:00	65.1	ND	ND	ND	ND	ND	ND	ND	ND	ND	ND	0
49429	2015-09-18T12:00:00	30.3	ND	ND	ND	ND	ND	ND	ND	ND	ND	ND	0
49430	2015-09-18T13:00:00	37.4	ND	ND	ND	ND	ND	ND	ND	ND	ND	ND	0
49431	2015-09-18T14:00:00	40	ND	ND	ND	ND	ND	ND	ND	ND	ND	ND	0
49432	2015-09-18T15:00:00	33.7	ND	ND	ND	ND	ND	ND	ND	ND	ND	ND	0
49433	2015-09-18T16:00:00	41.6	ND	ND	ND	ND	ND	ND	ND	ND	ND	ND	0
49434	2015-09-18T17:00:00	33.2	ND	ND	ND	ND	ND	ND	ND	ND	ND	ND	0
49435	2015-09-18T18:00:00	20.6	ND	ND	ND	ND	ND	ND	ND	ND	ND	ND	0
49436	2015-09-18T19:00:00	8.9	ND	ND	ND	ND	ND	ND	ND	ND	ND	ND	0
49437	2015-09-18T20:00:00	5.9	ND	ND	ND	ND	ND	ND	ND	ND	ND	ND	0
49438	2015-09-18T21:00:00	38.1	ND	ND	ND	ND	ND	ND	ND	ND	ND	ND	0
49439	2015-09-18T22:00:00	46.2	ND	ND	ND	ND	ND	ND	ND	ND	ND	ND	0
49440	2015-09-18T23:00:00	25	ND	ND	ND	ND	ND	ND	ND	ND	ND	ND	0
49441	2015-09-19T00:00:00	26.3	ND	ND	ND	ND	ND	ND	ND	ND	ND	ND	0
49442	2015-09-19T01:00:00	40.5	ND	ND	ND	ND	ND	ND	ND	ND	ND	ND	0
49443	2015-09-19T02:00:00	22.1	ND	ND	ND	ND	ND	ND	ND	ND	ND	ND	0
49444	2015-09-19T03:00:00	29	ND	ND	ND	ND	ND	ND	ND	ND	ND	ND	0
49445	2015-09-19T04:00:00	28.3	ND	ND	ND	ND	ND	ND	ND	ND	ND	ND	0
49446	2015-09-19T05:00:00	28.4	ND	ND	ND	ND	ND	ND	ND	ND	ND	ND	0
49447	2015-09-19T06:00:00	24.6	ND	ND	ND	ND	ND	ND	ND	ND	ND	ND	0
49448	2015-09-19T07:00:00	25.8	ND	ND	ND	ND	ND	ND	ND	ND	ND	ND	0
49449	2015-09-19T08:00:00	28.6	ND	ND	ND	ND	ND	ND	ND	ND	ND	ND	0
49450	2015-09-19T09:00:00	54	ND	ND	ND	ND	ND	ND	ND	ND	ND	ND	0
49451	2015-09-19T10:00:00	46.4	ND	ND	ND	ND	ND	ND	ND	ND	ND	ND	0
49452	2015-09-19T11:00:00	50.6	ND	ND	ND	ND	ND	ND	ND	ND	ND	ND	0
49453	2015-09-19T12:00:00	50.4	ND	ND	ND	ND	ND	ND	ND	ND	ND	ND	0
49454	2015-09-19T13:00:00	52	ND	ND	ND	ND	ND	ND	ND	ND	ND	ND	0
49455	2015-09-19T14:00:00	63.1	ND	ND	ND	ND	ND	ND	ND	ND	ND	ND	0
49456	2015-09-19T15:00:00	67	ND	ND	ND	ND	ND	ND	ND	ND	ND	ND	0
49457	2015-09-19T16:00:00	39	ND	ND	ND	ND	ND	ND	ND	ND	ND	ND	0
49458	2015-09-19T17:00:00	32.4	ND	ND	ND	ND	ND	ND	ND	ND	ND	ND	0
49459	2015-09-19T18:00:00	10.3	ND	ND	ND	ND	ND	ND	ND	ND	ND	ND	0
49460	2015-09-19T19:00:00	12.1	ND	ND	ND	ND	ND	ND	ND	ND	ND	ND	0
49461	2015-09-19T20:00:00	25.1	ND	ND	ND	ND	ND	ND	ND	ND	ND	ND	0
49462	2015-09-19T21:00:00	38	ND	ND	ND	ND	ND	ND	ND	ND	ND	ND	0
49463	2015-09-19T22:00:00	30.9	ND	ND	ND	ND	ND	ND	ND	ND	ND	ND	0
49464	2015-09-19T23:00:00	22	ND	ND	ND	ND	ND	ND	ND	ND	ND	ND	0
49465	2015-09-20T00:00:00	33.9	ND	ND	ND	ND	ND	ND	ND	ND	ND	ND	0
49466	2015-09-20T01:00:00	31.6	ND	ND	ND	ND	ND	ND	ND	ND	ND	ND	0
49467	2015-09-20T02:00:00	48.8	ND	ND	ND	ND	ND	ND	ND	ND	ND	ND	0
49468	2015-09-20T03:00:00	50.3	ND	ND	ND	ND	ND	ND	ND	ND	ND	ND	0
49469	2015-09-20T04:00:00	45.2	ND	ND	ND	ND	ND	ND	ND	ND	ND	ND	0
49470	2015-09-20T05:00:00	45	ND	ND	ND	ND	ND	ND	ND	ND	ND	ND	0
49471	2015-09-20T06:00:00	56	ND	ND	ND	ND	ND	ND	ND	ND	ND	ND	0
49472	2015-09-20T07:00:00	57.5	ND	ND	ND	ND	ND	ND	ND	ND	ND	ND	0
49473	2015-09-20T08:00:00	62.3	ND	ND	ND	ND	ND	ND	ND	ND	ND	ND	0
49474	2015-09-20T09:00:00	53.1	ND	ND	ND	ND	ND	ND	ND	ND	ND	ND	0
49475	2015-09-20T10:00:00	42.7	ND	ND	ND	ND	ND	ND	ND	ND	ND	ND	0
49476	2015-09-20T11:00:00	48.9	ND	ND	ND	ND	ND	ND	ND	ND	ND	ND	0
49477	2015-09-20T12:00:00	33.1	ND	ND	ND	ND	ND	ND	ND	ND	ND	ND	0
49478	2015-09-20T13:00:00	29.9	ND	ND	ND	ND	ND	ND	ND	ND	ND	ND	0
49479	2015-09-20T14:00:00	55	ND	ND	ND	ND	ND	ND	ND	ND	ND	ND	0
49480	2015-09-20T15:00:00	40.7	ND	ND	ND	ND	ND	ND	ND	ND	ND	ND	0
49481	2015-09-20T16:00:00	36.5	ND	ND	ND	ND	ND	ND	ND	ND	ND	ND	0
49482	2015-09-20T17:00:00	34.9	ND	ND	ND	ND	ND	ND	ND	ND	ND	ND	0
49483	2015-09-20T18:00:00	20.8	ND	ND	ND	ND	ND	ND	ND	ND	ND	ND	0
49484	2015-09-20T19:00:00	10.2	ND	ND	ND	ND	ND	ND	ND	ND	ND	ND	0
49485	2015-09-20T20:00:00	14.4	ND	ND	ND	ND	ND	ND	ND	ND	ND	ND	0
49486	2015-09-20T21:00:00	16.9	ND	ND	ND	ND	ND	ND	ND	ND	ND	ND	0
49487	2015-09-20T22:00:00	14.9	ND	ND	ND	ND	ND	ND	ND	ND	ND	ND	0
49488	2015-09-20T23:00:00	44.2	ND	ND	ND	ND	ND	ND	ND	ND	ND	ND	0
49489	2015-09-21T00:00:00	47.9	ND	ND	ND	ND	ND	ND	ND	ND	ND	ND	0
49490	2015-09-21T01:00:00	41.7	ND	ND	ND	ND	ND	ND	ND	ND	ND	ND	0
49491	2015-09-21T02:00:00	39.8	ND	ND	ND	ND	ND	ND	ND	ND	ND	ND	0
49492	2015-09-21T03:00:00	41.8	ND	ND	ND	ND	ND	ND	ND	ND	ND	ND	0
49493	2015-09-21T04:00:00	48.4	ND	ND	ND	ND	ND	ND	ND	ND	ND	ND	0
49494	2015-09-21T05:00:00	44.7	ND	ND	ND	ND	ND	ND	ND	ND	ND	ND	0
49495	2015-09-21T06:00:00	65.5	ND	ND	ND	ND	ND	ND	ND	ND	ND	ND	0
49496	2015-09-21T07:00:00	71.6	ND	ND	ND	ND	ND	ND	ND	ND	ND	ND	0
49497	2015-09-21T08:00:00	105.9	ND	ND	ND	ND	ND	ND	ND	ND	ND	ND	0
49498	2015-09-21T09:00:00	101.3	ND	ND	ND	ND	ND	ND	ND	ND	ND	ND	0
49499	2015-09-21T10:00:00	65.9	ND	ND	ND	ND	ND	ND	ND	ND	ND	ND	0
49500	2015-09-21T11:00:00	47.5	ND	ND	ND	ND	ND	ND	ND	ND	ND	ND	0
49501	2015-09-21T12:00:00	53.1	ND	ND	ND	ND	ND	ND	ND	ND	ND	ND	0
49502	2015-09-21T13:00:00	61.3	ND	ND	ND	ND	ND	ND	ND	ND	ND	ND	0
49503	2015-09-21T14:00:00	46.5	ND	ND	ND	ND	ND	ND	ND	ND	ND	ND	0
49504	2015-09-21T15:00:00	37.7	ND	ND	ND	ND	ND	ND	ND	ND	ND	ND	0
49505	2015-09-21T16:00:00	33.1	ND	ND	ND	ND	ND	ND	ND	ND	ND	ND	0
49506	2015-09-21T17:00:00	41.5	ND	ND	ND	ND	ND	ND	ND	ND	ND	ND	0
49507	2015-09-21T18:00:00	35.4	ND	ND	ND	ND	ND	ND	ND	ND	ND	ND	0
49508	2015-09-21T19:00:00	38.7	ND	ND	ND	ND	ND	ND	ND	ND	ND	ND	0
49509	2015-09-21T20:00:00	16.9	ND	ND	ND	ND	ND	ND	ND	ND	ND	ND	0
49510	2015-09-21T21:00:00	5.3	ND	ND	ND	ND	ND	ND	ND	ND	ND	ND	0
49511	2015-09-21T22:00:00	41.8	ND	ND	ND	ND	ND	ND	ND	ND	ND	ND	0
49512	2015-09-21T23:00:00	26.5	ND	ND	ND	ND	ND	ND	ND	ND	ND	ND	0
49513	2015-09-22T00:00:00	26	ND	ND	ND	ND	ND	ND	ND	ND	ND	ND	0
49514	2015-09-22T01:00:00	38.9	ND	ND	ND	ND	ND	ND	ND	ND	ND	ND	0
49515	2015-09-22T02:00:00	42.2	ND	ND	ND	ND	ND	ND	ND	ND	ND	ND	0
49516	2015-09-22T03:00:00	39.5	ND	ND	ND	ND	ND	ND	ND	ND	ND	ND	0
49517	2015-09-22T04:00:00	41.4	ND	ND	ND	ND	ND	ND	ND	ND	ND	ND	0
49518	2015-09-22T05:00:00	49	ND	ND	ND	ND	ND	ND	ND	ND	ND	ND	0
49519	2015-09-22T06:00:00	53.8	ND	ND	ND	ND	ND	ND	ND	ND	ND	ND	0
49520	2015-09-22T07:00:00	69	ND	ND	ND	ND	ND	ND	ND	ND	ND	ND	0
49521	2015-09-22T08:00:00	86.9	ND	ND	ND	ND	ND	ND	ND	ND	ND	ND	0
49522	2015-09-22T09:00:00	99.4	ND	ND	ND	ND	ND	ND	ND	ND	ND	ND	0
49523	2015-09-22T10:00:00	79.5	ND	ND	ND	ND	ND	ND	ND	ND	ND	ND	0
49524	2015-09-22T11:00:00	63.7	ND	ND	ND	ND	ND	ND	ND	ND	ND	ND	0
49525	2015-09-22T12:00:00	69.5	ND	ND	ND	ND	ND	ND	ND	ND	ND	ND	0
49526	2015-09-22T13:00:00	68.8	ND	ND	ND	ND	ND	ND	ND	ND	ND	ND	0
49527	2015-09-22T14:00:00	58.4	ND	ND	ND	ND	ND	ND	ND	ND	ND	ND	0
49528	2015-09-22T15:00:00	43.3	ND	ND	ND	ND	ND	ND	ND	ND	ND	ND	0
49529	2015-09-22T16:00:00	51.3	ND	ND	ND	ND	ND	ND	ND	ND	ND	ND	0
49530	2015-09-22T17:00:00	56.6	ND	ND	ND	ND	ND	ND	ND	ND	ND	ND	0
49531	2015-09-22T18:00:00	17.9	ND	ND	ND	ND	ND	ND	ND	ND	ND	ND	0
49532	2015-09-22T19:00:00	8.2	ND	ND	ND	ND	ND	ND	ND	ND	ND	ND	0
49533	2015-09-22T20:00:00	2.7	ND	ND	ND	ND	ND	ND	ND	ND	ND	ND	0
49534	2015-09-22T21:00:00	15.3	ND	ND	ND	ND	ND	ND	ND	ND	ND	ND	0
49535	2015-09-22T22:00:00	21.3	ND	ND	ND	ND	ND	ND	ND	ND	ND	ND	0
49536	2015-09-22T23:00:00	16.5	ND	ND	ND	ND	ND	ND	ND	ND	ND	ND	0
49537	2015-09-23T00:00:00	58.8	ND	ND	ND	ND	ND	ND	ND	ND	ND	ND	0
49538	2015-09-23T01:00:00	62.5	ND	ND	ND	ND	ND	ND	ND	ND	ND	ND	0
49539	2015-09-23T02:00:00	33.9	ND	ND	ND	ND	ND	ND	ND	ND	ND	ND	0
49540	2015-09-23T03:00:00	20.3	ND	ND	ND	ND	ND	ND	ND	ND	ND	ND	0
49541	2015-09-23T04:00:00	39	ND	ND	ND	ND	ND	ND	ND	ND	ND	ND	0
49542	2015-09-23T05:00:00	32.5	ND	ND	ND	ND	ND	ND	ND	ND	ND	ND	0
49543	2015-09-23T06:00:00	51.5	ND	ND	ND	ND	ND	ND	ND	ND	ND	ND	0
49544	2015-09-23T07:00:00	77.5	ND	ND	ND	ND	ND	ND	ND	ND	ND	ND	0
49545	2015-09-23T08:00:00	81.9	ND	ND	ND	ND	ND	ND	ND	ND	ND	ND	0
49546	2015-09-23T09:00:00	78.7	ND	ND	ND	ND	ND	ND	ND	ND	ND	ND	0
49547	2015-09-23T10:00:00	79	ND	ND	ND	ND	ND	ND	ND	ND	ND	ND	0
49548	2015-09-23T11:00:00	73.4	ND	ND	ND	ND	ND	ND	ND	ND	ND	ND	0
49549	2015-09-23T12:00:00	72.4	ND	ND	ND	ND	ND	ND	ND	ND	ND	ND	0
49550	2015-09-23T13:00:00	58	ND	ND	ND	ND	ND	ND	ND	ND	ND	ND	0
49551	2015-09-23T14:00:00	48.9	ND	ND	ND	ND	ND	ND	ND	ND	ND	ND	0
49552	2015-09-23T15:00:00	38.5	ND	ND	ND	ND	ND	ND	ND	ND	ND	ND	0
49553	2015-09-23T16:00:00	41	ND	ND	ND	ND	ND	ND	ND	ND	ND	ND	0
49554	2015-09-23T17:00:00	29.2	ND	ND	ND	ND	ND	ND	ND	ND	ND	ND	0
49555	2015-09-23T18:00:00	25.5	ND	ND	ND	ND	ND	ND	ND	ND	ND	ND	0
49556	2015-09-23T19:00:00	26.1	ND	ND	ND	ND	ND	ND	ND	ND	ND	ND	0
49557	2015-09-23T20:00:00	9.2	ND	ND	ND	ND	ND	ND	ND	ND	ND	ND	0
49558	2015-09-23T21:00:00	25.5	ND	ND	ND	ND	ND	ND	ND	ND	ND	ND	0
49559	2015-09-23T22:00:00	21.6	ND	ND	ND	ND	ND	ND	ND	ND	ND	ND	0
49560	2015-09-23T23:00:00	69.1	ND	ND	ND	ND	ND	ND	ND	ND	ND	ND	0
49561	2015-09-24T00:00:00	27.2	ND	ND	ND	ND	ND	ND	ND	ND	ND	ND	0
49562	2015-09-24T01:00:00	40.8	ND	ND	ND	ND	ND	ND	ND	ND	ND	ND	0
49563	2015-09-24T02:00:00	61.7	ND	ND	ND	ND	ND	ND	ND	ND	ND	ND	0
49564	2015-09-24T03:00:00	69.5	ND	ND	ND	ND	ND	ND	ND	ND	ND	ND	0
49565	2015-09-24T04:00:00	56.2	ND	ND	ND	ND	ND	ND	ND	ND	ND	ND	0
49566	2015-09-24T05:00:00	53.3	ND	ND	ND	ND	ND	ND	ND	ND	ND	ND	0
49567	2015-09-24T06:00:00	62.5	ND	ND	ND	ND	ND	ND	ND	ND	ND	ND	0
49568	2015-09-24T07:00:00	67	ND	ND	ND	ND	ND	ND	ND	ND	ND	ND	0
49569	2015-09-24T08:00:00	75.1	ND	ND	ND	ND	ND	ND	ND	ND	ND	ND	0
49570	2015-09-24T09:00:00	86.9	ND	ND	ND	ND	ND	ND	ND	ND	ND	ND	0
49571	2015-09-24T10:00:00	81.4	ND	ND	ND	ND	ND	ND	ND	ND	ND	ND	0
49572	2015-09-24T11:00:00	76	ND	ND	ND	ND	ND	ND	ND	ND	ND	ND	0
49573	2015-09-24T12:00:00	77.5	ND	ND	ND	ND	ND	ND	ND	ND	ND	ND	0
49574	2015-09-24T13:00:00	84.1	ND	ND	ND	ND	ND	ND	ND	ND	ND	ND	0
49575	2015-09-24T14:00:00	77.9	ND	ND	ND	ND	ND	ND	ND	ND	ND	ND	0
49576	2015-09-24T15:00:00	65.5	ND	ND	ND	ND	ND	ND	ND	ND	ND	ND	0
49577	2015-09-24T16:00:00	61.4	ND	ND	ND	ND	ND	ND	ND	ND	ND	ND	0
49578	2015-09-24T17:00:00	36.8	ND	ND	ND	ND	ND	ND	ND	ND	ND	ND	0
49579	2015-09-24T18:00:00	30.2	ND	ND	ND	ND	ND	ND	ND	ND	ND	ND	0
49580	2015-09-24T19:00:00	31.3	ND	ND	ND	ND	ND	ND	ND	ND	ND	ND	0
49581	2015-09-24T20:00:00	25	ND	ND	ND	ND	ND	ND	ND	ND	ND	ND	0
49582	2015-09-24T21:00:00	27.7	ND	ND	ND	ND	ND	ND	ND	ND	ND	ND	0
49583	2015-09-24T22:00:00	18.8	ND	ND	ND	ND	ND	ND	ND	ND	ND	ND	0
49584	2015-09-24T23:00:00	21.4	ND	ND	ND	ND	ND	ND	ND	ND	ND	ND	0
49585	2015-09-25T00:00:00	18.8	ND	ND	ND	ND	ND	ND	ND	ND	ND	ND	0
49586	2015-09-25T01:00:00	39.1	ND	ND	ND	ND	ND	ND	ND	ND	ND	ND	0
49587	2015-09-25T02:00:00	53.2	ND	ND	ND	ND	ND	ND	ND	ND	ND	ND	0
49588	2015-09-25T03:00:00	23	ND	ND	ND	ND	ND	ND	ND	ND	ND	ND	0
49589	2015-09-25T04:00:00	33	ND	ND	ND	ND	ND	ND	ND	ND	ND	ND	0
49590	2015-09-25T05:00:00	47.6	ND	ND	ND	ND	ND	ND	ND	ND	ND	ND	0
49591	2015-09-25T06:00:00	65.6	ND	ND	ND	ND	ND	ND	ND	ND	ND	ND	0
49592	2015-09-25T07:00:00	61.7	ND	ND	ND	ND	ND	ND	ND	ND	ND	ND	0
49593	2015-09-25T08:00:00	92.8	ND	ND	ND	ND	ND	ND	ND	ND	ND	ND	0
49594	2015-09-25T09:00:00	69.4	ND	ND	ND	ND	ND	ND	ND	ND	ND	ND	0
49595	2015-09-25T10:00:00	81	ND	ND	ND	ND	ND	ND	ND	ND	ND	ND	0
49596	2015-09-25T11:00:00	71.6	ND	ND	ND	ND	ND	ND	ND	ND	ND	ND	0
49597	2015-09-25T12:00:00	60.5	ND	ND	ND	ND	ND	ND	ND	ND	ND	ND	0
49598	2015-09-25T13:00:00	67.9	ND	ND	ND	ND	ND	ND	ND	ND	ND	ND	0
49599	2015-09-25T14:00:00	87.1	ND	ND	ND	ND	ND	ND	ND	ND	ND	ND	0
49600	2015-09-25T15:00:00	82.1	ND	ND	ND	ND	ND	ND	ND	ND	ND	ND	0
49601	2015-09-25T16:00:00	56.3	ND	ND	ND	ND	ND	ND	ND	ND	ND	ND	0
49602	2015-09-25T17:00:00	54.6	ND	ND	ND	ND	ND	ND	ND	ND	ND	ND	0
49603	2015-09-25T18:00:00	41.7	ND	ND	ND	ND	ND	ND	ND	ND	ND	ND	0
49604	2015-09-25T19:00:00	34.1	ND	ND	ND	ND	ND	ND	ND	ND	ND	ND	0
49605	2015-09-25T20:00:00	17.6	ND	ND	ND	ND	ND	ND	ND	ND	ND	ND	0
49606	2015-09-25T21:00:00	18.2	ND	ND	ND	ND	ND	ND	ND	ND	ND	ND	0
49607	2015-09-25T22:00:00	15.2	ND	ND	ND	ND	ND	ND	ND	ND	ND	ND	0
49608	2015-09-25T23:00:00	32.7	ND	ND	ND	ND	ND	ND	ND	ND	ND	ND	0
49609	2015-09-26T00:00:00	57.6	ND	ND	ND	ND	ND	ND	ND	ND	ND	ND	0
49610	2015-09-26T01:00:00	60	ND	ND	ND	ND	ND	ND	ND	ND	ND	ND	0
49611	2015-09-26T02:00:00	77.3	ND	ND	ND	ND	ND	ND	ND	ND	ND	ND	0
49612	2015-09-26T03:00:00	87.3	ND	ND	ND	ND	ND	ND	ND	ND	ND	ND	0
49613	2015-09-26T04:00:00	62.2	ND	ND	ND	ND	ND	ND	ND	ND	ND	ND	0
49614	2015-09-26T05:00:00	57.2	ND	ND	ND	ND	ND	ND	ND	ND	ND	ND	0
49615	2015-09-26T06:00:00	69.5	ND	ND	ND	ND	ND	ND	ND	ND	ND	ND	0
49616	2015-09-26T07:00:00	68	ND	ND	ND	ND	ND	ND	ND	ND	ND	ND	0
49617	2015-09-26T08:00:00	67.9	ND	ND	ND	ND	ND	ND	ND	ND	ND	ND	0
49618	2015-09-26T09:00:00	101.2	ND	ND	ND	ND	ND	ND	ND	ND	ND	ND	0
49619	2015-09-26T10:00:00	91.3	ND	ND	ND	ND	ND	ND	ND	ND	ND	ND	0
49620	2015-09-26T11:00:00	91.6	ND	ND	ND	ND	ND	ND	ND	ND	ND	ND	0
49621	2015-09-26T12:00:00	55.4	ND	ND	ND	ND	ND	ND	ND	ND	ND	ND	0
49622	2015-09-26T13:00:00	78.5	ND	ND	ND	ND	ND	ND	ND	ND	ND	ND	0
49623	2015-09-26T14:00:00	64.7	ND	ND	ND	ND	ND	ND	ND	ND	ND	ND	0
49624	2015-09-26T15:00:00	27.8	ND	ND	ND	ND	ND	ND	ND	ND	ND	ND	0
49625	2015-09-26T16:00:00	44.5	ND	ND	ND	ND	ND	ND	ND	ND	ND	ND	0
49626	2015-09-26T17:00:00	45.2	ND	ND	ND	ND	ND	ND	ND	ND	ND	ND	0
49627	2015-09-26T18:00:00	45.4	ND	ND	ND	ND	ND	ND	ND	ND	ND	ND	0
49628	2015-09-26T19:00:00	21.4	ND	ND	ND	ND	ND	ND	ND	ND	ND	ND	0
49629	2015-09-26T20:00:00	12.4	ND	ND	ND	ND	ND	ND	ND	ND	ND	ND	0
49630	2015-09-26T21:00:00	14.8	ND	ND	ND	ND	ND	ND	ND	ND	ND	ND	0
49631	2015-09-26T22:00:00	17.3	ND	ND	ND	ND	ND	ND	ND	ND	ND	ND	0
49632	2015-09-26T23:00:00	19.7	ND	ND	ND	ND	ND	ND	ND	ND	ND	ND	0
49633	2015-09-27T00:00:00	8.2	ND	ND	ND	ND	ND	ND	ND	ND	ND	ND	0
49634	2015-09-27T01:00:00	41.8	ND	ND	ND	ND	ND	ND	ND	ND	ND	ND	0
49635	2015-09-27T02:00:00	98.7	ND	ND	ND	ND	ND	ND	ND	ND	ND	ND	0
49636	2015-09-27T03:00:00	58.2	ND	ND	ND	ND	ND	ND	ND	ND	ND	ND	0
49637	2015-09-27T04:00:00	33.6	ND	ND	ND	ND	ND	ND	ND	ND	ND	ND	0
49638	2015-09-27T05:00:00	60.9	ND	ND	ND	ND	ND	ND	ND	ND	ND	ND	0
49639	2015-09-27T06:00:00	42.9	ND	ND	ND	ND	ND	ND	ND	ND	ND	ND	0
49640	2015-09-27T07:00:00	55.6	ND	ND	ND	ND	ND	ND	ND	ND	ND	ND	0
49641	2015-09-27T08:00:00	89.9	ND	ND	ND	ND	ND	ND	ND	ND	ND	ND	0
49642	2015-09-27T09:00:00	68.6	ND	ND	ND	ND	ND	ND	ND	ND	ND	ND	0
49643	2015-09-27T10:00:00	109.3	ND	ND	ND	ND	ND	ND	ND	ND	ND	ND	0
49644	2015-09-27T11:00:00	27.7	ND	ND	ND	ND	ND	ND	ND	ND	ND	ND	0
49645	2015-09-27T12:00:00	59.5	ND	ND	ND	ND	ND	ND	ND	ND	ND	ND	0
49646	2015-09-27T13:00:00	41.3	ND	ND	ND	ND	ND	ND	ND	ND	ND	ND	0
49647	2015-09-27T14:00:00	44.4	ND	ND	ND	ND	ND	ND	ND	ND	ND	ND	0
49648	2015-09-27T15:00:00	44.7	ND	ND	ND	ND	ND	ND	ND	ND	ND	ND	0
49649	2015-09-27T16:00:00	35.1	ND	ND	ND	ND	ND	ND	ND	ND	ND	ND	0
49650	2015-09-27T17:00:00	18.6	ND	ND	ND	ND	ND	ND	ND	ND	ND	ND	0
49651	2015-09-27T18:00:00	31.5	ND	ND	ND	ND	ND	ND	ND	ND	ND	ND	0
49652	2015-09-27T19:00:00	20.4	ND	ND	ND	ND	ND	ND	ND	ND	ND	ND	0
49653	2015-09-27T20:00:00	14.9	ND	ND	ND	ND	ND	ND	ND	ND	ND	ND	0
49654	2015-09-27T21:00:00	14.8	ND	ND	ND	ND	ND	ND	ND	ND	ND	ND	0
49655	2015-09-27T22:00:00	16.8	ND	ND	ND	ND	ND	ND	ND	ND	ND	ND	0
49656	2015-09-27T23:00:00	30.6	ND	ND	ND	ND	ND	ND	ND	ND	ND	ND	0
49657	2015-09-28T00:00:00	36.4	ND	ND	ND	ND	ND	ND	ND	ND	ND	ND	0
49658	2015-09-28T01:00:00	53.5	ND	ND	ND	ND	ND	ND	ND	ND	ND	ND	0
49659	2015-09-28T02:00:00	27.6	ND	ND	ND	ND	ND	ND	ND	ND	ND	ND	0
49660	2015-09-28T03:00:00	39.5	ND	ND	ND	ND	ND	ND	ND	ND	ND	ND	0
49661	2015-09-28T04:00:00	46.3	ND	ND	ND	ND	ND	ND	ND	ND	ND	ND	0
49662	2015-09-28T05:00:00	54.3	ND	ND	ND	ND	ND	ND	ND	ND	ND	ND	0
49663	2015-09-28T06:00:00	58.8	ND	ND	ND	ND	ND	ND	ND	ND	ND	ND	0
49664	2015-09-28T07:00:00	84.8	ND	ND	ND	ND	ND	ND	ND	ND	ND	ND	0
49665	2015-09-28T08:00:00	65.4	ND	ND	ND	ND	ND	ND	ND	ND	ND	ND	0
49666	2015-09-28T09:00:00	99.6	ND	ND	ND	ND	ND	ND	ND	ND	ND	ND	0
49667	2015-09-28T10:00:00	66.4	ND	ND	ND	ND	ND	ND	ND	ND	ND	ND	0
49668	2015-09-28T11:00:00	70.9	ND	ND	ND	ND	ND	ND	ND	ND	ND	ND	0
49669	2015-09-28T12:00:00	61.6	ND	ND	ND	ND	ND	ND	ND	ND	ND	ND	0
49670	2015-09-28T13:00:00	88.2	ND	ND	ND	ND	ND	ND	ND	ND	ND	ND	0
49671	2015-09-28T14:00:00	74.8	ND	ND	ND	ND	ND	ND	ND	ND	ND	ND	0
49672	2015-09-28T15:00:00	38.8	ND	ND	ND	ND	ND	ND	ND	ND	ND	ND	0
49673	2015-09-28T16:00:00	59.8	ND	ND	ND	ND	ND	ND	ND	ND	ND	ND	0
49674	2015-09-28T17:00:00	49	ND	ND	ND	ND	ND	ND	ND	ND	ND	ND	0
49675	2015-09-28T18:00:00	44	ND	ND	ND	ND	ND	ND	ND	ND	ND	ND	0
49676	2015-09-28T19:00:00	35.7	ND	ND	ND	ND	ND	ND	ND	ND	ND	ND	0
49677	2015-09-28T20:00:00	32.2	ND	ND	ND	ND	ND	ND	ND	ND	ND	ND	0
49678	2015-09-28T21:00:00	34.7	ND	ND	ND	ND	ND	ND	ND	ND	ND	ND	0
49679	2015-09-28T22:00:00	1.2	ND	ND	ND	ND	ND	ND	ND	ND	ND	ND	0
49680	2015-09-28T23:00:00	ND	ND	ND	ND	ND	ND	ND	ND	ND	ND	ND	0
49681	2015-09-29T00:00:00	8.9	ND	ND	ND	ND	ND	ND	ND	ND	ND	ND	0
49682	2015-09-29T01:00:00	4.2	ND	ND	ND	ND	ND	ND	ND	ND	ND	ND	0
49683	2015-09-29T02:00:00	25.5	ND	ND	ND	ND	ND	ND	ND	ND	ND	ND	0
49684	2015-09-29T03:00:00	25.2	ND	ND	ND	ND	ND	ND	ND	ND	ND	ND	0
49685	2015-09-29T04:00:00	34.2	ND	ND	ND	ND	ND	ND	ND	ND	ND	ND	0
49686	2015-09-29T05:00:00	73	ND	ND	ND	ND	ND	ND	ND	ND	ND	ND	0
49687	2015-09-29T06:00:00	57.5	ND	ND	ND	ND	ND	ND	ND	ND	ND	ND	0
49688	2015-09-29T07:00:00	62	ND	ND	ND	ND	ND	ND	ND	ND	ND	ND	0
49689	2015-09-29T08:00:00	71	ND	ND	ND	ND	ND	ND	ND	ND	ND	ND	0
49690	2015-09-29T09:00:00	81.8	ND	ND	ND	ND	ND	ND	ND	ND	ND	ND	0
49691	2015-09-29T10:00:00	84.5	ND	ND	ND	ND	ND	ND	ND	ND	ND	ND	0
49692	2015-09-29T11:00:00	94.8	ND	ND	ND	ND	ND	ND	ND	ND	ND	ND	0
49693	2015-09-29T12:00:00	73.2	ND	ND	ND	ND	ND	ND	ND	ND	ND	ND	0
49694	2015-09-29T13:00:00	76.2	ND	ND	ND	ND	ND	ND	ND	ND	ND	ND	0
49695	2015-09-29T14:00:00	57.2	ND	ND	ND	ND	ND	ND	ND	ND	ND	ND	0
49696	2015-09-29T15:00:00	33.9	ND	ND	ND	ND	ND	ND	ND	ND	ND	ND	0
49697	2015-09-29T16:00:00	11.7	ND	ND	ND	ND	ND	ND	ND	ND	ND	ND	0
49698	2015-09-29T17:00:00	20.2	ND	ND	ND	ND	ND	ND	ND	ND	ND	ND	0
49699	2015-09-29T18:00:00	24.5	ND	ND	ND	ND	ND	ND	ND	ND	ND	ND	0
49700	2015-09-29T19:00:00	47.4	ND	ND	ND	ND	ND	ND	ND	ND	ND	ND	0
49701	2015-09-29T20:00:00	22.1	ND	ND	ND	ND	ND	ND	ND	ND	ND	ND	0
49702	2015-09-29T21:00:00	14.2	ND	ND	ND	ND	ND	ND	ND	ND	ND	ND	0
49703	2015-09-29T22:00:00	24.9	ND	ND	ND	ND	ND	ND	ND	ND	ND	ND	0
49704	2015-09-29T23:00:00	4.5	ND	ND	ND	ND	ND	ND	ND	ND	ND	ND	0
49705	2015-09-30T00:00:00	26.9	ND	ND	ND	ND	ND	ND	ND	ND	ND	ND	0
49706	2015-09-30T01:00:00	58.6	ND	ND	ND	ND	ND	ND	ND	ND	ND	ND	0
49707	2015-09-30T02:00:00	52.9	ND	ND	ND	ND	ND	ND	ND	ND	ND	ND	0
49708	2015-09-30T03:00:00	69.5	ND	ND	ND	ND	ND	ND	ND	ND	ND	ND	0
49709	2015-09-30T04:00:00	20.9	ND	ND	ND	ND	ND	ND	ND	ND	ND	ND	0
49710	2015-09-30T05:00:00	39.5	ND	ND	ND	ND	ND	ND	ND	ND	ND	ND	3.56
49711	2015-09-30T06:00:00	37.7	ND	ND	ND	ND	ND	ND	ND	ND	ND	ND	26.42
49712	2015-09-30T07:00:00	25.4	ND	ND	ND	ND	ND	ND	ND	ND	ND	ND	20.83
49713	2015-09-30T08:00:00	22	ND	ND	ND	ND	ND	ND	ND	ND	ND	ND	5.59
49714	2015-09-30T09:00:00	40.6	ND	ND	ND	ND	ND	ND	ND	ND	ND	ND	0.76
49715	2015-09-30T10:00:00	26.7	ND	ND	ND	ND	ND	ND	ND	ND	ND	ND	0
49716	2015-09-30T11:00:00	39.7	ND	ND	ND	ND	ND	ND	ND	ND	ND	ND	0
49717	2015-09-30T12:00:00	29.5	ND	ND	ND	ND	ND	ND	ND	ND	ND	ND	0
49718	2015-09-30T13:00:00	17.4	ND	ND	ND	ND	ND	ND	ND	ND	ND	ND	0
49719	2015-09-30T14:00:00	47.1	ND	ND	ND	ND	ND	ND	ND	ND	ND	ND	0
49720	2015-09-30T15:00:00	38.7	ND	ND	ND	ND	ND	ND	ND	ND	ND	ND	0
49721	2015-09-30T16:00:00	36.2	ND	ND	ND	ND	ND	ND	ND	ND	ND	ND	0
49722	2015-09-30T17:00:00	36.9	ND	ND	ND	ND	ND	ND	ND	ND	ND	ND	0
49723	2015-09-30T18:00:00	13.2	ND	ND	ND	ND	ND	ND	ND	ND	ND	ND	0
49724	2015-09-30T19:00:00	24.4	ND	ND	ND	ND	ND	ND	ND	ND	ND	ND	0
49725	2015-09-30T20:00:00	20.3	ND	ND	ND	ND	ND	ND	ND	ND	ND	ND	0
49726	2015-09-30T21:00:00	15.2	ND	ND	ND	ND	ND	ND	ND	ND	ND	ND	0
49727	2015-09-30T22:00:00	18	ND	ND	ND	ND	ND	ND	ND	ND	ND	ND	0
49728	2015-09-30T23:00:00	19.5	ND	ND	ND	ND	ND	ND	ND	ND	ND	ND	0
49729	2015-10-01T00:00:00	32.4	ND	ND	ND	ND	ND	ND	ND	ND	ND	ND	25.4
49730	2015-10-01T01:00:00	21.8	ND	ND	ND	ND	ND	ND	ND	ND	ND	ND	3.05
49731	2015-10-01T02:00:00	22.2	ND	ND	ND	ND	ND	ND	ND	ND	ND	ND	0
49732	2015-10-01T03:00:00	21.7	ND	ND	ND	ND	ND	ND	ND	ND	ND	ND	0.25
49733	2015-10-01T04:00:00	36.8	ND	ND	ND	ND	ND	ND	ND	ND	ND	ND	0
49734	2015-10-01T05:00:00	33.8	ND	ND	ND	ND	ND	ND	ND	ND	ND	ND	0
49735	2015-10-01T06:00:00	30.6	ND	ND	ND	ND	ND	ND	ND	ND	ND	ND	0
49736	2015-10-01T07:00:00	20.5	ND	ND	ND	ND	ND	ND	ND	ND	ND	ND	0
49737	2015-10-01T08:00:00	21.5	ND	ND	ND	ND	ND	ND	ND	ND	ND	ND	0
49738	2015-10-01T09:00:00	46.1	ND	ND	ND	ND	ND	ND	ND	ND	ND	ND	0
49739	2015-10-01T10:00:00	41.7	ND	ND	ND	ND	ND	ND	ND	ND	ND	ND	0
49740	2015-10-01T11:00:00	54.3	ND	ND	ND	ND	ND	ND	ND	ND	ND	ND	0
49741	2015-10-01T12:00:00	40	ND	ND	ND	ND	ND	ND	ND	ND	ND	ND	0
49742	2015-10-01T13:00:00	40.2	ND	ND	ND	ND	ND	ND	ND	ND	ND	ND	0
49743	2015-10-01T14:00:00	22.3	ND	ND	ND	ND	ND	ND	ND	ND	ND	ND	0
49744	2015-10-01T15:00:00	14.1	ND	ND	ND	ND	ND	ND	ND	ND	ND	ND	0
49745	2015-10-01T16:00:00	13.3	ND	ND	ND	ND	ND	ND	ND	ND	ND	ND	0
49746	2015-10-01T17:00:00	15	ND	ND	ND	ND	ND	ND	ND	ND	ND	ND	0
49747	2015-10-01T18:00:00	51	ND	ND	ND	ND	ND	ND	ND	ND	ND	ND	0
49748	2015-10-01T19:00:00	39	ND	ND	ND	ND	ND	ND	ND	ND	ND	ND	0
49749	2015-10-01T20:00:00	27.4	ND	ND	ND	ND	ND	ND	ND	ND	ND	ND	0
49750	2015-10-01T21:00:00	45	ND	ND	ND	ND	ND	ND	ND	ND	ND	ND	0
49751	2015-10-01T22:00:00	27.1	ND	ND	ND	ND	ND	ND	ND	ND	ND	ND	4.57
49752	2015-10-01T23:00:00	24.8	ND	ND	ND	ND	ND	ND	ND	ND	ND	ND	0.25
49753	2015-10-02T00:00:00	18	ND	ND	ND	ND	ND	ND	ND	ND	ND	ND	0
49754	2015-10-02T01:00:00	42.9	ND	ND	ND	ND	ND	ND	ND	ND	ND	ND	0
49755	2015-10-02T02:00:00	30.4	ND	ND	ND	ND	ND	ND	ND	ND	ND	ND	0
49756	2015-10-02T03:00:00	22.2	ND	ND	ND	ND	ND	ND	ND	ND	ND	ND	0
49757	2015-10-02T04:00:00	22.2	ND	ND	ND	ND	ND	ND	ND	ND	ND	ND	0.25
49758	2015-10-02T05:00:00	23.9	ND	ND	ND	ND	ND	ND	ND	ND	ND	ND	0
49759	2015-10-02T06:00:00	33.6	ND	ND	ND	ND	ND	ND	ND	ND	ND	ND	0
49760	2015-10-02T07:00:00	74.6	ND	ND	ND	ND	ND	ND	ND	ND	ND	ND	0
49761	2015-10-02T08:00:00	76	ND	ND	ND	ND	ND	ND	ND	ND	ND	ND	0
49762	2015-10-02T09:00:00	96.8	ND	ND	ND	ND	ND	ND	ND	ND	ND	ND	0
49763	2015-10-02T10:00:00	69.1	ND	ND	ND	ND	ND	ND	ND	ND	ND	ND	0
49764	2015-10-02T11:00:00	62.8	ND	ND	ND	ND	ND	ND	ND	ND	ND	ND	0
49765	2015-10-02T12:00:00	61.5	ND	ND	ND	ND	ND	ND	ND	ND	ND	ND	0
49766	2015-10-02T13:00:00	44.5	ND	ND	ND	ND	ND	ND	ND	ND	ND	ND	0
49767	2015-10-02T14:00:00	40.9	ND	ND	ND	ND	ND	ND	ND	ND	ND	ND	0
49768	2015-10-02T15:00:00	35.7	ND	ND	ND	ND	ND	ND	ND	ND	ND	ND	0
49769	2015-10-02T16:00:00	38.1	ND	ND	ND	ND	ND	ND	ND	ND	ND	ND	0
49770	2015-10-02T17:00:00	67	ND	ND	ND	ND	ND	ND	ND	ND	ND	ND	0
49771	2015-10-02T18:00:00	38.4	ND	ND	ND	ND	ND	ND	ND	ND	ND	ND	0
49772	2015-10-02T19:00:00	7.8	ND	ND	ND	ND	ND	ND	ND	ND	ND	ND	0
49773	2015-10-02T20:00:00	ND	ND	ND	ND	ND	ND	ND	ND	ND	ND	ND	0
49774	2015-10-02T21:00:00	8.1	ND	ND	ND	ND	ND	ND	ND	ND	ND	ND	0
49775	2015-10-02T22:00:00	40.8	ND	ND	ND	ND	ND	ND	ND	ND	ND	ND	0
49776	2015-10-02T23:00:00	51.1	ND	ND	ND	ND	ND	ND	ND	ND	ND	ND	0
49777	2015-10-03T00:00:00	51.4	ND	ND	ND	ND	ND	ND	ND	ND	ND	ND	0
49778	2015-10-03T01:00:00	46.9	ND	ND	ND	ND	ND	ND	ND	ND	ND	ND	0
49779	2015-10-03T02:00:00	49.7	ND	ND	ND	ND	ND	ND	ND	ND	ND	ND	2.29
49780	2015-10-03T03:00:00	42.8	ND	ND	ND	ND	ND	ND	ND	ND	ND	ND	1.27
49781	2015-10-03T04:00:00	32.6	ND	ND	ND	ND	ND	ND	ND	ND	ND	ND	0
49782	2015-10-03T05:00:00	41.2	ND	ND	ND	ND	ND	ND	ND	ND	ND	ND	0.25
49783	2015-10-03T06:00:00	47.9	ND	ND	ND	ND	ND	ND	ND	ND	ND	ND	0
49784	2015-10-03T07:00:00	74.7	ND	ND	ND	ND	ND	ND	ND	ND	ND	ND	0
49785	2015-10-03T08:00:00	67.2	ND	ND	ND	ND	ND	ND	ND	ND	ND	ND	0
49786	2015-10-03T09:00:00	57.9	ND	ND	ND	ND	ND	ND	ND	ND	ND	ND	0
49787	2015-10-03T10:00:00	65.1	ND	ND	ND	ND	ND	ND	ND	ND	ND	ND	0
49788	2015-10-03T11:00:00	45.9	ND	ND	ND	ND	ND	ND	ND	ND	ND	ND	0
49789	2015-10-03T12:00:00	45.9	ND	ND	ND	ND	ND	ND	ND	ND	ND	ND	0
49790	2015-10-03T13:00:00	34.7	ND	ND	ND	ND	ND	ND	ND	ND	ND	ND	0
49791	2015-10-03T14:00:00	42.5	ND	ND	ND	ND	ND	ND	ND	ND	ND	ND	0
49792	2015-10-03T15:00:00	53.8	ND	ND	ND	ND	ND	ND	ND	ND	ND	ND	0
49793	2015-10-03T16:00:00	51.1	ND	ND	ND	ND	ND	ND	ND	ND	ND	ND	0
49794	2015-10-03T17:00:00	43.6	ND	ND	ND	ND	ND	ND	ND	ND	ND	ND	0
49795	2015-10-03T18:00:00	28.2	ND	ND	ND	ND	ND	ND	ND	ND	ND	ND	0
49796	2015-10-03T19:00:00	23.2	ND	ND	ND	ND	ND	ND	ND	ND	ND	ND	0
49797	2015-10-03T20:00:00	16.8	ND	ND	ND	ND	ND	ND	ND	ND	ND	ND	0
49798	2015-10-03T21:00:00	18.6	ND	ND	ND	ND	ND	ND	ND	ND	ND	ND	0
49799	2015-10-03T22:00:00	23.8	ND	ND	ND	ND	ND	ND	ND	ND	ND	ND	0
49800	2015-10-03T23:00:00	9.7	ND	ND	ND	ND	ND	ND	ND	ND	ND	ND	0
49801	2015-10-04T00:00:00	60.6	ND	ND	ND	ND	ND	ND	ND	ND	ND	ND	0
49802	2015-10-04T01:00:00	55.5	ND	ND	ND	ND	ND	ND	ND	ND	ND	ND	0
49803	2015-10-04T02:00:00	21.2	ND	ND	ND	ND	ND	ND	ND	ND	ND	ND	0
49804	2015-10-04T03:00:00	25.3	ND	ND	ND	ND	ND	ND	ND	ND	ND	ND	0
49805	2015-10-04T04:00:00	54.1	ND	ND	ND	ND	ND	ND	ND	ND	ND	ND	0
49806	2015-10-04T05:00:00	51.3	ND	ND	ND	ND	ND	ND	ND	ND	ND	ND	0
49807	2015-10-04T06:00:00	47.9	ND	ND	ND	ND	ND	ND	ND	ND	ND	ND	0
49808	2015-10-04T07:00:00	54.4	ND	ND	ND	ND	ND	ND	ND	ND	ND	ND	2.79
49809	2015-10-04T08:00:00	49.3	ND	ND	ND	ND	ND	ND	ND	ND	ND	ND	0.25
49810	2015-10-04T09:00:00	50.8	ND	ND	ND	ND	ND	ND	ND	ND	ND	ND	0
49811	2015-10-04T10:00:00	45.3	ND	ND	ND	ND	ND	ND	ND	ND	ND	ND	0
49812	2015-10-04T11:00:00	49.7	ND	ND	ND	ND	ND	ND	ND	ND	ND	ND	0
49813	2015-10-04T12:00:00	43.6	ND	ND	ND	ND	ND	ND	ND	ND	ND	ND	0
49814	2015-10-04T13:00:00	34	ND	ND	ND	ND	ND	ND	ND	ND	ND	ND	0
49815	2015-10-04T14:00:00	35.3	ND	ND	ND	ND	ND	ND	ND	ND	ND	ND	0
49816	2015-10-04T15:00:00	41.9	ND	ND	ND	ND	ND	ND	ND	ND	ND	ND	0
49817	2015-10-04T16:00:00	1.8	ND	ND	ND	ND	ND	ND	ND	ND	ND	ND	0
49818	2015-10-04T17:00:00	14.1	ND	ND	ND	ND	ND	ND	ND	ND	ND	ND	0
49819	2015-10-04T18:00:00	2.7	ND	ND	ND	ND	ND	ND	ND	ND	ND	ND	0
49820	2015-10-04T19:00:00	ND	ND	ND	ND	ND	ND	ND	ND	ND	ND	ND	0
49821	2015-10-04T20:00:00	8.6	ND	ND	ND	ND	ND	ND	ND	ND	ND	ND	0
49822	2015-10-04T21:00:00	31.4	ND	ND	ND	ND	ND	ND	ND	ND	ND	ND	0
49823	2015-10-04T22:00:00	16	ND	ND	ND	ND	ND	ND	ND	ND	ND	ND	0
49824	2015-10-04T23:00:00	25	ND	ND	ND	ND	ND	ND	ND	ND	ND	ND	0
49825	2015-10-05T00:00:00	30.5	ND	ND	ND	ND	ND	ND	ND	ND	ND	ND	0
49826	2015-10-05T01:00:00	92.8	ND	ND	ND	ND	ND	ND	ND	ND	ND	ND	0
49827	2015-10-05T02:00:00	34	ND	ND	ND	ND	ND	ND	ND	ND	ND	ND	0
49828	2015-10-05T03:00:00	40.6	ND	ND	ND	ND	ND	ND	ND	ND	ND	ND	0
49829	2015-10-05T04:00:00	34.7	ND	ND	ND	ND	ND	ND	ND	ND	ND	ND	0
49830	2015-10-05T05:00:00	28.3	ND	ND	ND	ND	ND	ND	ND	ND	ND	ND	0
49831	2015-10-05T06:00:00	10.2	ND	ND	ND	ND	ND	ND	ND	ND	ND	ND	0
49832	2015-10-05T07:00:00	24.6	ND	ND	ND	ND	ND	ND	ND	ND	ND	ND	0
49833	2015-10-05T08:00:00	48.1	ND	ND	ND	ND	ND	ND	ND	ND	ND	ND	0
49834	2015-10-05T09:00:00	106.5	ND	ND	ND	ND	ND	ND	ND	ND	ND	ND	0
49835	2015-10-05T10:00:00	77.3	ND	ND	ND	ND	ND	ND	ND	ND	ND	ND	0
49836	2015-10-05T11:00:00	76.8	ND	ND	ND	ND	ND	ND	ND	ND	ND	ND	0
49837	2015-10-05T12:00:00	87.7	ND	ND	ND	ND	ND	ND	ND	ND	ND	ND	0
49838	2015-10-05T13:00:00	95.3	ND	ND	ND	ND	ND	ND	ND	ND	ND	ND	0
49839	2015-10-05T14:00:00	48.4	ND	ND	ND	ND	ND	ND	ND	ND	ND	ND	0
49840	2015-10-05T15:00:00	19.9	ND	ND	ND	ND	ND	ND	ND	ND	ND	ND	0
49841	2015-10-05T16:00:00	28.4	ND	ND	ND	ND	ND	ND	ND	ND	ND	ND	0
49842	2015-10-05T17:00:00	36.3	ND	ND	ND	ND	ND	ND	ND	ND	ND	ND	0
49843	2015-10-05T18:00:00	27.3	ND	ND	ND	ND	ND	ND	ND	ND	ND	ND	0
49844	2015-10-05T19:00:00	20	ND	ND	ND	ND	ND	ND	ND	ND	ND	ND	0
49845	2015-10-05T20:00:00	14.3	ND	ND	ND	ND	ND	ND	ND	ND	ND	ND	0
49846	2015-10-05T21:00:00	11	ND	ND	ND	ND	ND	ND	ND	ND	ND	ND	0
49847	2015-10-05T22:00:00	1.8	ND	ND	ND	ND	ND	ND	ND	ND	ND	ND	0
49848	2015-10-05T23:00:00	22.2	ND	ND	ND	ND	ND	ND	ND	ND	ND	ND	0
49849	2015-10-06T00:00:00	20.4	ND	ND	ND	ND	ND	ND	ND	ND	ND	ND	0
49850	2015-10-06T01:00:00	24.5	ND	ND	ND	ND	ND	ND	ND	ND	ND	ND	0
49851	2015-10-06T02:00:00	18.2	ND	ND	ND	ND	ND	ND	ND	ND	ND	ND	0
49852	2015-10-06T03:00:00	28	ND	ND	ND	ND	ND	ND	ND	ND	ND	ND	0
49853	2015-10-06T04:00:00	39.9	ND	ND	ND	ND	ND	ND	ND	ND	ND	ND	0
49854	2015-10-06T05:00:00	42	ND	ND	ND	ND	ND	ND	ND	ND	ND	ND	0
49855	2015-10-06T06:00:00	23.2	ND	ND	ND	ND	ND	ND	ND	ND	ND	ND	0
49856	2015-10-06T07:00:00	29.9	ND	ND	ND	ND	ND	ND	ND	ND	ND	ND	0
49857	2015-10-06T08:00:00	100.6	ND	ND	ND	ND	ND	ND	ND	ND	ND	ND	0
49858	2015-10-06T09:00:00	104.8	ND	ND	ND	ND	ND	ND	ND	ND	ND	ND	0
49859	2015-10-06T10:00:00	69	ND	ND	ND	ND	ND	ND	ND	ND	ND	ND	0
49860	2015-10-06T11:00:00	48	ND	ND	ND	ND	ND	ND	ND	ND	ND	ND	0
49861	2015-10-06T12:00:00	3.9	ND	ND	ND	ND	ND	ND	ND	ND	ND	ND	0
49862	2015-10-06T13:00:00	73.1	ND	ND	ND	ND	ND	ND	ND	ND	ND	ND	0
49863	2015-10-06T14:00:00	90.6	ND	ND	ND	ND	ND	ND	ND	ND	ND	ND	0
49864	2015-10-06T15:00:00	63.1	ND	ND	ND	ND	ND	ND	ND	ND	ND	ND	0
49865	2015-10-06T16:00:00	41.6	ND	ND	ND	ND	ND	ND	ND	ND	ND	ND	0
49866	2015-10-06T17:00:00	23.2	ND	ND	ND	ND	ND	ND	ND	ND	ND	ND	0
49867	2015-10-06T18:00:00	6	ND	ND	ND	ND	ND	ND	ND	ND	ND	ND	0
49868	2015-10-06T19:00:00	6.8	ND	ND	ND	ND	ND	ND	ND	ND	ND	ND	0
49869	2015-10-06T20:00:00	8.5	ND	ND	ND	ND	ND	ND	ND	ND	ND	ND	0
49870	2015-10-06T21:00:00	12.3	ND	ND	ND	ND	ND	ND	ND	ND	ND	ND	0
49871	2015-10-06T22:00:00	14.8	ND	ND	ND	ND	ND	ND	ND	ND	ND	ND	0
49872	2015-10-06T23:00:00	22.3	ND	ND	ND	ND	ND	ND	ND	ND	ND	ND	0
49873	2015-10-07T00:00:00	32.7	ND	ND	ND	ND	ND	ND	ND	ND	ND	ND	0
49874	2015-10-07T01:00:00	39.8	ND	ND	ND	ND	ND	ND	ND	ND	ND	ND	0
49875	2015-10-07T02:00:00	40.2	ND	ND	ND	ND	ND	ND	ND	ND	ND	ND	0
49876	2015-10-07T03:00:00	40	ND	ND	ND	ND	ND	ND	ND	ND	ND	ND	0
49877	2015-10-07T04:00:00	37.1	ND	ND	ND	ND	ND	ND	ND	ND	ND	ND	0
49878	2015-10-07T05:00:00	39.6	ND	ND	ND	ND	ND	ND	ND	ND	ND	ND	0
49879	2015-10-07T06:00:00	26.8	ND	ND	ND	ND	ND	ND	ND	ND	ND	ND	0
49880	2015-10-07T07:00:00	46.3	ND	ND	ND	ND	ND	ND	ND	ND	ND	ND	0
49881	2015-10-07T08:00:00	59.5	ND	ND	ND	ND	ND	ND	ND	ND	ND	ND	0
49882	2015-10-07T09:00:00	97.7	ND	ND	ND	ND	ND	ND	ND	ND	ND	ND	0
49883	2015-10-07T10:00:00	116.3	ND	ND	ND	ND	ND	ND	ND	ND	ND	ND	0
49884	2015-10-07T11:00:00	91.1	ND	ND	ND	ND	ND	ND	ND	ND	ND	ND	0
49885	2015-10-07T12:00:00	92.8	ND	ND	ND	ND	ND	ND	ND	ND	ND	ND	0
49886	2015-10-07T13:00:00	82.3	ND	ND	ND	ND	ND	ND	ND	ND	ND	ND	0
49887	2015-10-07T14:00:00	61.1	ND	ND	ND	ND	ND	ND	ND	ND	ND	ND	0
49888	2015-10-07T15:00:00	36.3	ND	ND	ND	ND	ND	ND	ND	ND	ND	ND	0
49889	2015-10-07T16:00:00	46.2	ND	ND	ND	ND	ND	ND	ND	ND	ND	ND	0
49890	2015-10-07T17:00:00	26.6	ND	ND	ND	ND	ND	ND	ND	ND	ND	ND	0
49891	2015-10-07T18:00:00	ND	ND	ND	ND	ND	ND	ND	ND	ND	ND	ND	0
49892	2015-10-07T19:00:00	ND	ND	ND	ND	ND	ND	ND	ND	ND	ND	ND	0
49893	2015-10-07T20:00:00	51.9	ND	ND	ND	ND	ND	ND	ND	ND	ND	ND	0
49894	2015-10-07T21:00:00	47.5	ND	ND	ND	ND	ND	ND	ND	ND	ND	ND	0
49895	2015-10-07T22:00:00	23.9	ND	ND	ND	ND	ND	ND	ND	ND	ND	ND	0
49896	2015-10-07T23:00:00	33	ND	ND	ND	ND	ND	ND	ND	ND	ND	ND	0
49897	2015-10-08T00:00:00	38.7	ND	ND	ND	ND	ND	ND	ND	ND	ND	ND	0
49898	2015-10-08T01:00:00	49.8	ND	ND	ND	ND	ND	ND	ND	ND	ND	ND	0
49899	2015-10-08T02:00:00	18.2	ND	ND	ND	ND	ND	ND	ND	ND	ND	ND	0
49900	2015-10-08T03:00:00	25	ND	ND	ND	ND	ND	ND	ND	ND	ND	ND	0
49901	2015-10-08T04:00:00	73.2	ND	ND	ND	ND	ND	ND	ND	ND	ND	ND	0
49902	2015-10-08T05:00:00	90	ND	ND	ND	ND	ND	ND	ND	ND	ND	ND	0
49903	2015-10-08T06:00:00	81.9	ND	ND	ND	ND	ND	ND	ND	ND	ND	ND	0
49904	2015-10-08T07:00:00	78.7	ND	ND	ND	ND	ND	ND	ND	ND	ND	ND	0
49905	2015-10-08T08:00:00	64.9	ND	ND	ND	ND	ND	ND	ND	ND	ND	ND	0
49906	2015-10-08T09:00:00	108.6	ND	ND	ND	ND	ND	ND	ND	ND	ND	ND	0
49907	2015-10-08T10:00:00	60.2	ND	ND	ND	ND	ND	ND	ND	ND	ND	ND	0
49908	2015-10-08T11:00:00	91.8	ND	ND	ND	ND	ND	ND	ND	ND	ND	ND	0
49909	2015-10-08T12:00:00	70.8	ND	ND	ND	ND	ND	ND	ND	ND	ND	ND	0
49910	2015-10-08T13:00:00	56.3	ND	ND	ND	ND	ND	ND	ND	ND	ND	ND	0
49911	2015-10-08T14:00:00	48.3	ND	ND	ND	ND	ND	ND	ND	ND	ND	ND	0
49912	2015-10-08T15:00:00	43.3	ND	ND	ND	ND	ND	ND	ND	ND	ND	ND	0
49913	2015-10-08T16:00:00	23.8	ND	ND	ND	ND	ND	ND	ND	ND	ND	ND	0
49914	2015-10-08T17:00:00	26.6	ND	ND	ND	ND	ND	ND	ND	ND	ND	ND	0
49915	2015-10-08T18:00:00	35.8	ND	ND	ND	ND	ND	ND	ND	ND	ND	ND	0
49916	2015-10-08T19:00:00	7.2	ND	ND	ND	ND	ND	ND	ND	ND	ND	ND	0
49917	2015-10-08T20:00:00	19.4	ND	ND	ND	ND	ND	ND	ND	ND	ND	ND	0
49918	2015-10-08T21:00:00	33.4	ND	ND	ND	ND	ND	ND	ND	ND	ND	ND	0
49919	2015-10-08T22:00:00	26.9	ND	ND	ND	ND	ND	ND	ND	ND	ND	ND	0
49920	2015-10-08T23:00:00	18	ND	ND	ND	ND	ND	ND	ND	ND	ND	ND	0
49921	2015-10-09T00:00:00	13.4	ND	ND	ND	ND	ND	ND	ND	ND	ND	ND	0
49922	2015-10-09T01:00:00	40	ND	ND	ND	ND	ND	ND	ND	ND	ND	ND	0
49923	2015-10-09T02:00:00	37.4	ND	ND	ND	ND	ND	ND	ND	ND	ND	ND	0
49924	2015-10-09T03:00:00	47.4	ND	ND	ND	ND	ND	ND	ND	ND	ND	ND	0
49925	2015-10-09T04:00:00	38.3	ND	ND	ND	ND	ND	ND	ND	ND	ND	ND	0
49926	2015-10-09T05:00:00	20.9	ND	ND	ND	ND	ND	ND	ND	ND	ND	ND	0
49927	2015-10-09T06:00:00	44.1	ND	ND	ND	ND	ND	ND	ND	ND	ND	ND	0
49928	2015-10-09T07:00:00	118.1	ND	ND	ND	ND	ND	ND	ND	ND	ND	ND	0
49929	2015-10-09T08:00:00	98	ND	ND	ND	ND	ND	ND	ND	ND	ND	ND	0
49930	2015-10-09T09:00:00	69.3	ND	ND	ND	ND	ND	ND	ND	ND	ND	ND	0
49931	2015-10-09T10:00:00	81.1	ND	ND	ND	ND	ND	ND	ND	ND	ND	ND	0
49932	2015-10-09T11:00:00	59.5	ND	ND	ND	ND	ND	ND	ND	ND	ND	ND	0
49933	2015-10-09T12:00:00	38.2	ND	ND	ND	ND	ND	ND	ND	ND	ND	ND	0
49934	2015-10-09T13:00:00	79	ND	ND	ND	ND	ND	ND	ND	ND	ND	ND	0
49935	2015-10-09T14:00:00	84.8	ND	ND	ND	ND	ND	ND	ND	ND	ND	ND	0
49936	2015-10-09T15:00:00	35.6	ND	ND	ND	ND	ND	ND	ND	ND	ND	ND	0
49937	2015-10-09T16:00:00	21	ND	ND	ND	ND	ND	ND	ND	ND	ND	ND	0
49938	2015-10-09T17:00:00	6.2	ND	ND	ND	ND	ND	ND	ND	ND	ND	ND	0
49939	2015-10-09T18:00:00	5.2	ND	ND	ND	ND	ND	ND	ND	ND	ND	ND	0
49940	2015-10-09T19:00:00	5.5	ND	ND	ND	ND	ND	ND	ND	ND	ND	ND	0
49941	2015-10-09T20:00:00	22.3	ND	ND	ND	ND	ND	ND	ND	ND	ND	ND	0
49942	2015-10-09T21:00:00	74	ND	ND	ND	ND	ND	ND	ND	ND	ND	ND	0
49943	2015-10-09T22:00:00	61.1	ND	ND	ND	ND	ND	ND	ND	ND	ND	ND	0
49944	2015-10-09T23:00:00	73.2	ND	ND	ND	ND	ND	ND	ND	ND	ND	ND	0
49945	2015-10-10T00:00:00	41.8	ND	ND	ND	ND	ND	ND	ND	ND	ND	ND	0
49946	2015-10-10T01:00:00	49.6	ND	ND	ND	ND	ND	ND	ND	ND	ND	ND	0
49947	2015-10-10T02:00:00	63	ND	ND	ND	ND	ND	ND	ND	ND	ND	ND	0
49948	2015-10-10T03:00:00	80.7	ND	ND	ND	ND	ND	ND	ND	ND	ND	ND	0
49949	2015-10-10T04:00:00	70.2	ND	ND	ND	ND	ND	ND	ND	ND	ND	ND	0
49950	2015-10-10T05:00:00	61.3	ND	ND	ND	ND	ND	ND	ND	ND	ND	ND	0
49951	2015-10-10T06:00:00	42.1	ND	ND	ND	ND	ND	ND	ND	ND	ND	ND	0
49952	2015-10-10T07:00:00	45.4	ND	ND	ND	ND	ND	ND	ND	ND	ND	ND	0.25
49953	2015-10-10T08:00:00	54.1	ND	ND	ND	ND	ND	ND	ND	ND	ND	ND	0
49954	2015-10-10T09:00:00	59.7	ND	ND	ND	ND	ND	ND	ND	ND	ND	ND	0
49955	2015-10-10T10:00:00	57.2	ND	ND	ND	ND	ND	ND	ND	ND	ND	ND	0
49956	2015-10-10T11:00:00	19.5	ND	ND	ND	ND	ND	ND	ND	ND	ND	ND	0
49957	2015-10-10T12:00:00	68.1	ND	ND	ND	ND	ND	ND	ND	ND	ND	ND	0
49958	2015-10-10T13:00:00	89.7	ND	ND	ND	ND	ND	ND	ND	ND	ND	ND	0
49959	2015-10-10T14:00:00	63.2	ND	ND	ND	ND	ND	ND	ND	ND	ND	ND	0
49960	2015-10-10T15:00:00	31.4	ND	ND	ND	ND	ND	ND	ND	ND	ND	ND	0
49961	2015-10-10T16:00:00	15.8	ND	ND	ND	ND	ND	ND	ND	ND	ND	ND	0
49962	2015-10-10T17:00:00	ND	ND	ND	ND	ND	ND	ND	ND	ND	ND	ND	0
49963	2015-10-10T18:00:00	6.8	ND	ND	ND	ND	ND	ND	ND	ND	ND	ND	0
49964	2015-10-10T19:00:00	9.7	ND	ND	ND	ND	ND	ND	ND	ND	ND	ND	0
49965	2015-10-10T20:00:00	39.1	ND	ND	ND	ND	ND	ND	ND	ND	ND	ND	0
49966	2015-10-10T21:00:00	28.3	ND	ND	ND	ND	ND	ND	ND	ND	ND	ND	1.02
49967	2015-10-10T22:00:00	9.3	ND	ND	ND	ND	ND	ND	ND	ND	ND	ND	3.81
49968	2015-10-10T23:00:00	19	ND	ND	ND	ND	ND	ND	ND	ND	ND	ND	0.51
49969	2015-10-11T00:00:00	21.7	ND	ND	ND	ND	ND	ND	ND	ND	ND	ND	0.25
49970	2015-10-11T01:00:00	8.6	ND	ND	ND	ND	ND	ND	ND	ND	ND	ND	0
49971	2015-10-11T02:00:00	39.2	ND	ND	ND	ND	ND	ND	ND	ND	ND	ND	0
49972	2015-10-11T03:00:00	46.3	ND	ND	ND	ND	ND	ND	ND	ND	ND	ND	0
49973	2015-10-11T04:00:00	10.1	ND	ND	ND	ND	ND	ND	ND	ND	ND	ND	0
49974	2015-10-11T05:00:00	ND	ND	ND	ND	ND	ND	ND	ND	ND	ND	ND	0
49975	2015-10-11T06:00:00	8.6	ND	ND	ND	ND	ND	ND	ND	ND	ND	ND	0
49976	2015-10-11T07:00:00	14.7	ND	ND	ND	ND	ND	ND	ND	ND	ND	ND	0
49977	2015-10-11T08:00:00	36.5	ND	ND	ND	ND	ND	ND	ND	ND	ND	ND	0
49978	2015-10-11T09:00:00	63.2	ND	ND	ND	ND	ND	ND	ND	ND	ND	ND	0
49979	2015-10-11T10:00:00	45.6	ND	ND	ND	ND	ND	ND	ND	ND	ND	ND	0
49980	2015-10-11T11:00:00	42.3	ND	ND	ND	ND	ND	ND	ND	ND	ND	ND	0
49981	2015-10-11T12:00:00	23.5	ND	ND	ND	ND	ND	ND	ND	ND	ND	ND	0
49982	2015-10-11T13:00:00	22	ND	ND	ND	ND	ND	ND	ND	ND	ND	ND	0
49983	2015-10-11T14:00:00	13.9	ND	ND	ND	ND	ND	ND	ND	ND	ND	ND	0
49984	2015-10-11T15:00:00	27.3	ND	ND	ND	ND	ND	ND	ND	ND	ND	ND	0
49985	2015-10-11T16:00:00	14.9	ND	ND	ND	ND	ND	ND	ND	ND	ND	ND	0
49986	2015-10-11T17:00:00	18.6	ND	ND	ND	ND	ND	ND	ND	ND	ND	ND	0
49987	2015-10-11T18:00:00	6.9	ND	ND	ND	ND	ND	ND	ND	ND	ND	ND	0
49988	2015-10-11T19:00:00	ND	ND	ND	ND	ND	ND	ND	ND	ND	ND	ND	0
49989	2015-10-11T20:00:00	ND	ND	ND	ND	ND	ND	ND	ND	ND	ND	ND	0
49990	2015-10-11T21:00:00	21	ND	ND	ND	ND	ND	ND	ND	ND	ND	ND	0
49991	2015-10-11T22:00:00	24	ND	ND	ND	ND	ND	ND	ND	ND	ND	ND	0
49992	2015-10-11T23:00:00	13	ND	ND	ND	ND	ND	ND	ND	ND	ND	ND	0
49993	2015-10-12T00:00:00	30	ND	ND	ND	ND	ND	ND	ND	ND	ND	ND	0
49994	2015-10-12T01:00:00	42.7	ND	ND	ND	ND	ND	ND	ND	ND	ND	ND	0
49995	2015-10-12T02:00:00	93.9	ND	ND	ND	ND	ND	ND	ND	ND	ND	ND	0
49996	2015-10-12T03:00:00	54.4	ND	ND	ND	ND	ND	ND	ND	ND	ND	ND	0
49997	2015-10-12T04:00:00	47.9	ND	ND	ND	ND	ND	ND	ND	ND	ND	ND	0
49998	2015-10-12T05:00:00	42.1	ND	ND	ND	ND	ND	ND	ND	ND	ND	ND	0
49999	2015-10-12T06:00:00	41.2	ND	ND	ND	ND	ND	ND	ND	ND	ND	ND	0
50000	2015-10-12T07:00:00	13.9	ND	ND	ND	ND	ND	ND	ND	ND	ND	ND	0
50001	2015-10-12T08:00:00	25.9	ND	ND	ND	ND	ND	ND	ND	ND	ND	ND	0
50002	2015-10-12T09:00:00	47.1	ND	ND	ND	ND	ND	ND	ND	ND	ND	ND	0
50003	2015-10-12T10:00:00	40.1	ND	ND	ND	ND	ND	ND	ND	ND	ND	ND	0
50004	2015-10-12T11:00:00	13.7	ND	ND	ND	ND	ND	ND	ND	ND	ND	ND	0
50005	2015-10-12T12:00:00	29.4	ND	ND	ND	ND	ND	ND	ND	ND	ND	ND	0
50006	2015-10-12T13:00:00	49.9	ND	ND	ND	ND	ND	ND	ND	ND	ND	ND	0
50007	2015-10-12T14:00:00	36.4	ND	ND	ND	ND	ND	ND	ND	ND	ND	ND	0
50008	2015-10-12T15:00:00	31.6	ND	ND	ND	ND	ND	ND	ND	ND	ND	ND	0
50009	2015-10-12T16:00:00	16.8	ND	ND	ND	ND	ND	ND	ND	ND	ND	ND	0
50010	2015-10-12T17:00:00	36	ND	ND	ND	ND	ND	ND	ND	ND	ND	ND	0
50011	2015-10-12T18:00:00	17.1	ND	ND	ND	ND	ND	ND	ND	ND	ND	ND	0
50012	2015-10-12T19:00:00	1.3	ND	ND	ND	ND	ND	ND	ND	ND	ND	ND	0
50013	2015-10-12T20:00:00	ND	ND	ND	ND	ND	ND	ND	ND	ND	ND	ND	0
50014	2015-10-12T21:00:00	18.9	ND	ND	ND	ND	ND	ND	ND	ND	ND	ND	0
50015	2015-10-12T22:00:00	83.3	ND	ND	ND	ND	ND	ND	ND	ND	ND	ND	0
50016	2015-10-12T23:00:00	62.1	ND	ND	ND	ND	ND	ND	ND	ND	ND	ND	0
50017	2015-10-13T00:00:00	33.2	ND	ND	ND	ND	ND	ND	ND	ND	ND	ND	0
50018	2015-10-13T01:00:00	36.8	ND	ND	ND	ND	ND	ND	ND	ND	ND	ND	0
50019	2015-10-13T02:00:00	17.8	ND	ND	ND	ND	ND	ND	ND	ND	ND	ND	0
50020	2015-10-13T03:00:00	ND	ND	ND	ND	ND	ND	ND	ND	ND	ND	ND	0
50021	2015-10-13T04:00:00	15.2	ND	ND	ND	ND	ND	ND	ND	ND	ND	ND	0
50022	2015-10-13T05:00:00	23.8	ND	ND	ND	ND	ND	ND	ND	ND	ND	ND	0
50023	2015-10-13T06:00:00	34.1	ND	ND	ND	ND	ND	ND	ND	ND	ND	ND	0
50024	2015-10-13T07:00:00	39.1	ND	ND	ND	ND	ND	ND	ND	ND	ND	ND	0
50025	2015-10-13T08:00:00	68.9	ND	ND	ND	ND	ND	ND	ND	ND	ND	ND	0
50026	2015-10-13T09:00:00	94.2	ND	ND	ND	ND	ND	ND	ND	ND	ND	ND	0
50027	2015-10-13T10:00:00	99.6	ND	ND	ND	ND	ND	ND	ND	ND	ND	ND	0
50028	2015-10-13T11:00:00	89.7	ND	ND	ND	ND	ND	ND	ND	ND	ND	ND	0
50029	2015-10-13T12:00:00	38.8	ND	ND	ND	ND	ND	ND	ND	ND	ND	ND	0
50030	2015-10-13T13:00:00	23.1	ND	ND	ND	ND	ND	ND	ND	ND	ND	ND	0
50031	2015-10-13T14:00:00	43.6	ND	ND	ND	ND	ND	ND	ND	ND	ND	ND	0
50032	2015-10-13T15:00:00	23.5	ND	ND	ND	ND	ND	ND	ND	ND	ND	ND	1.52
50033	2015-10-13T16:00:00	16.1	ND	ND	ND	ND	ND	ND	ND	ND	ND	ND	0.25
50034	2015-10-13T17:00:00	41.1	ND	ND	ND	ND	ND	ND	ND	ND	ND	ND	0
50035	2015-10-13T18:00:00	19.6	ND	ND	ND	ND	ND	ND	ND	ND	ND	ND	0
50036	2015-10-13T19:00:00	6.1	ND	ND	ND	ND	ND	ND	ND	ND	ND	ND	0
50037	2015-10-13T20:00:00	26.5	ND	ND	ND	ND	ND	ND	ND	ND	ND	ND	0
50038	2015-10-13T21:00:00	16.5	ND	ND	ND	ND	ND	ND	ND	ND	ND	ND	0
50039	2015-10-13T22:00:00	20.5	ND	ND	ND	ND	ND	ND	ND	ND	ND	ND	0
50040	2015-10-13T23:00:00	31	ND	ND	ND	ND	ND	ND	ND	ND	ND	ND	0
50041	2015-10-14T00:00:00	43.2	ND	ND	ND	ND	ND	ND	ND	ND	ND	ND	0
50042	2015-10-14T01:00:00	54.9	ND	ND	ND	ND	ND	ND	ND	ND	ND	ND	0
50043	2015-10-14T02:00:00	65.9	ND	ND	ND	ND	ND	ND	ND	ND	ND	ND	0.25
50044	2015-10-14T03:00:00	25.8	ND	ND	ND	ND	ND	ND	ND	ND	ND	ND	3.05
50045	2015-10-14T04:00:00	24.7	ND	ND	ND	ND	ND	ND	ND	ND	ND	ND	7.37
50046	2015-10-14T05:00:00	28	ND	ND	ND	ND	ND	ND	ND	ND	ND	ND	2.29
50047	2015-10-14T06:00:00	18.9	ND	ND	ND	ND	ND	ND	ND	ND	ND	ND	0.25
50048	2015-10-14T07:00:00	17.5	ND	ND	ND	ND	ND	ND	ND	ND	ND	ND	0.51
50049	2015-10-14T08:00:00	20.6	ND	ND	ND	ND	ND	ND	ND	ND	ND	ND	0.51
50050	2015-10-14T09:00:00	39.6	ND	ND	ND	ND	ND	ND	ND	ND	ND	ND	0.25
50051	2015-10-14T10:00:00	71.1	ND	ND	ND	ND	ND	ND	ND	ND	ND	ND	0
50052	2015-10-14T11:00:00	35.8	ND	ND	ND	ND	ND	ND	ND	ND	ND	ND	0
50053	2015-10-14T12:00:00	50	ND	ND	ND	ND	ND	ND	ND	ND	ND	ND	0
50054	2015-10-14T13:00:00	39.6	ND	ND	ND	ND	ND	ND	ND	ND	ND	ND	0
50055	2015-10-14T14:00:00	46.5	ND	ND	ND	ND	ND	ND	ND	ND	ND	ND	0
50056	2015-10-14T15:00:00	26.1	ND	ND	ND	ND	ND	ND	ND	ND	ND	ND	0
50057	2015-10-14T16:00:00	28.8	ND	ND	ND	ND	ND	ND	ND	ND	ND	ND	0
50058	2015-10-14T17:00:00	25.4	ND	ND	ND	ND	ND	ND	ND	ND	ND	ND	0
50059	2015-10-14T18:00:00	55.7	ND	ND	ND	ND	ND	ND	ND	ND	ND	ND	0
50060	2015-10-14T19:00:00	89.5	ND	ND	ND	ND	ND	ND	ND	ND	ND	ND	0
50061	2015-10-14T20:00:00	50.3	ND	ND	ND	ND	ND	ND	ND	ND	ND	ND	0
50062	2015-10-14T21:00:00	50.9	ND	ND	ND	ND	ND	ND	ND	ND	ND	ND	0
50063	2015-10-14T22:00:00	12.2	ND	ND	ND	ND	ND	ND	ND	ND	ND	ND	0
50064	2015-10-14T23:00:00	22.3	ND	ND	ND	ND	ND	ND	ND	ND	ND	ND	0
50065	2015-10-15T00:00:00	29	ND	ND	ND	ND	ND	ND	ND	ND	ND	ND	0
50066	2015-10-15T01:00:00	51.6	ND	ND	ND	ND	ND	ND	ND	ND	ND	ND	0
50067	2015-10-15T02:00:00	35.3	ND	ND	ND	ND	ND	ND	ND	ND	ND	ND	2.29
50068	2015-10-15T03:00:00	10.7	ND	ND	ND	ND	ND	ND	ND	ND	ND	ND	4.32
50069	2015-10-15T04:00:00	7.3	ND	ND	ND	ND	ND	ND	ND	ND	ND	ND	2.29
50070	2015-10-15T05:00:00	12.3	ND	ND	ND	ND	ND	ND	ND	ND	ND	ND	3.56
50071	2015-10-15T06:00:00	9.2	ND	ND	ND	ND	ND	ND	ND	ND	ND	ND	1.02
50072	2015-10-15T07:00:00	21.9	ND	ND	ND	ND	ND	ND	ND	ND	ND	ND	0.25
50073	2015-10-15T08:00:00	18.3	ND	ND	ND	ND	ND	ND	ND	ND	ND	ND	0
50074	2015-10-15T09:00:00	67.9	ND	ND	ND	ND	ND	ND	ND	ND	ND	ND	0
50075	2015-10-15T10:00:00	69.3	ND	ND	ND	ND	ND	ND	ND	ND	ND	ND	0
50076	2015-10-15T11:00:00	42.4	ND	ND	ND	ND	ND	ND	ND	ND	ND	ND	0
50077	2015-10-15T12:00:00	57.9	ND	ND	ND	ND	ND	ND	ND	ND	ND	ND	0
50078	2015-10-15T13:00:00	41.5	ND	ND	ND	ND	ND	ND	ND	ND	ND	ND	0
50079	2015-10-15T14:00:00	38	ND	ND	ND	ND	ND	ND	ND	ND	ND	ND	0
50080	2015-10-15T15:00:00	42.3	ND	ND	ND	ND	ND	ND	ND	ND	ND	ND	0
50081	2015-10-15T16:00:00	5	ND	ND	ND	ND	ND	ND	ND	ND	ND	ND	0
50082	2015-10-15T17:00:00	2	ND	ND	ND	ND	ND	ND	ND	ND	ND	ND	0
50083	2015-10-15T18:00:00	13.8	ND	ND	ND	ND	ND	ND	ND	ND	ND	ND	5.08
50084	2015-10-15T19:00:00	30.4	ND	ND	ND	ND	ND	ND	ND	ND	ND	ND	0.25
50085	2015-10-15T20:00:00	22.2	ND	ND	ND	ND	ND	ND	ND	ND	ND	ND	0
50086	2015-10-15T21:00:00	69.2	ND	ND	ND	ND	ND	ND	ND	ND	ND	ND	0
50087	2015-10-15T22:00:00	78.4	ND	ND	ND	ND	ND	ND	ND	ND	ND	ND	0
50088	2015-10-15T23:00:00	ND	ND	ND	ND	ND	ND	ND	ND	ND	ND	ND	0
50089	2015-10-16T00:00:00	9.4	ND	ND	ND	ND	ND	ND	ND	ND	ND	ND	0
50090	2015-10-16T01:00:00	26.7	ND	ND	ND	ND	ND	ND	ND	ND	ND	ND	0
50091	2015-10-16T02:00:00	26.2	ND	ND	ND	ND	ND	ND	ND	ND	ND	ND	0
50092	2015-10-16T03:00:00	39.6	ND	ND	ND	ND	ND	ND	ND	ND	ND	ND	0
50093	2015-10-16T04:00:00	31.9	ND	ND	ND	ND	ND	ND	ND	ND	ND	ND	0
50094	2015-10-16T05:00:00	46.4	ND	ND	ND	ND	ND	ND	ND	ND	ND	ND	0
50095	2015-10-16T06:00:00	32.1	ND	ND	ND	ND	ND	ND	ND	ND	ND	ND	0
50096	2015-10-16T07:00:00	38.7	ND	ND	ND	ND	ND	ND	ND	ND	ND	ND	0
50097	2015-10-16T08:00:00	34.9	ND	ND	ND	ND	ND	ND	ND	ND	ND	ND	0
50098	2015-10-16T09:00:00	40.7	ND	ND	ND	ND	ND	ND	ND	ND	ND	ND	0
50099	2015-10-16T10:00:00	23.5	ND	ND	ND	ND	ND	ND	ND	ND	ND	ND	0
50100	2015-10-16T11:00:00	50.5	ND	ND	ND	ND	ND	ND	ND	ND	ND	ND	0
50101	2015-10-16T12:00:00	47.3	ND	ND	ND	ND	ND	ND	ND	ND	ND	ND	0
50102	2015-10-16T13:00:00	28.3	ND	ND	ND	ND	ND	ND	ND	ND	ND	ND	0
50103	2015-10-16T14:00:00	22.7	ND	ND	ND	ND	ND	ND	ND	ND	ND	ND	0
50104	2015-10-16T15:00:00	48.8	ND	ND	ND	ND	ND	ND	ND	ND	ND	ND	0
50105	2015-10-16T16:00:00	32.2	ND	ND	ND	ND	ND	ND	ND	ND	ND	ND	0
50106	2015-10-16T17:00:00	40.1	ND	ND	ND	ND	ND	ND	ND	ND	ND	ND	0.51
50107	2015-10-16T18:00:00	14.1	ND	ND	ND	ND	ND	ND	ND	ND	ND	ND	17.27
50108	2015-10-16T19:00:00	15.6	ND	ND	ND	ND	ND	ND	ND	ND	ND	ND	0.25
50109	2015-10-16T20:00:00	21.6	ND	ND	ND	ND	ND	ND	ND	ND	ND	ND	0
50110	2015-10-16T21:00:00	37.2	ND	ND	ND	ND	ND	ND	ND	ND	ND	ND	0
50111	2015-10-16T22:00:00	49.8	ND	ND	ND	ND	ND	ND	ND	ND	ND	ND	0
50112	2015-10-16T23:00:00	57.1	ND	ND	ND	ND	ND	ND	ND	ND	ND	ND	0
50113	2015-10-17T00:00:00	4.9	ND	ND	ND	ND	ND	ND	ND	ND	ND	ND	0
50114	2015-10-17T01:00:00	27.5	ND	ND	ND	ND	ND	ND	ND	ND	ND	ND	0
50115	2015-10-17T02:00:00	46.3	ND	ND	ND	ND	ND	ND	ND	ND	ND	ND	0
50116	2015-10-17T03:00:00	36	ND	ND	ND	ND	ND	ND	ND	ND	ND	ND	0
50117	2015-10-17T04:00:00	59	ND	ND	ND	ND	ND	ND	ND	ND	ND	ND	0
50118	2015-10-17T05:00:00	83.7	ND	ND	ND	ND	ND	ND	ND	ND	ND	ND	0
50119	2015-10-17T06:00:00	70.6	ND	ND	ND	ND	ND	ND	ND	ND	ND	ND	0
50120	2015-10-17T07:00:00	93.2	ND	ND	ND	ND	ND	ND	ND	ND	ND	ND	0
50121	2015-10-17T08:00:00	99	ND	ND	ND	ND	ND	ND	ND	ND	ND	ND	0
50122	2015-10-17T09:00:00	115.2	ND	ND	ND	ND	ND	ND	ND	ND	ND	ND	0
50123	2015-10-17T10:00:00	113.8	ND	ND	ND	ND	ND	ND	ND	ND	ND	ND	0
50124	2015-10-17T11:00:00	69.7	ND	ND	ND	ND	ND	ND	ND	ND	ND	ND	0
50125	2015-10-17T12:00:00	48.6	ND	ND	ND	ND	ND	ND	ND	ND	ND	ND	0
50126	2015-10-17T13:00:00	51.9	ND	ND	ND	ND	ND	ND	ND	ND	ND	ND	0
50127	2015-10-17T14:00:00	51.2	ND	ND	ND	ND	ND	ND	ND	ND	ND	ND	0
50128	2015-10-17T15:00:00	49	ND	ND	ND	ND	ND	ND	ND	ND	ND	ND	0
50129	2015-10-17T16:00:00	54.7	ND	ND	ND	ND	ND	ND	ND	ND	ND	ND	0
50130	2015-10-17T17:00:00	32.3	ND	ND	ND	ND	ND	ND	ND	ND	ND	ND	0
50131	2015-10-17T18:00:00	13.5	ND	ND	ND	ND	ND	ND	ND	ND	ND	ND	0
50132	2015-10-17T19:00:00	3.9	ND	ND	ND	ND	ND	ND	ND	ND	ND	ND	0
50133	2015-10-17T20:00:00	12.4	ND	ND	ND	ND	ND	ND	ND	ND	ND	ND	0
50134	2015-10-17T21:00:00	8.4	ND	ND	ND	ND	ND	ND	ND	ND	ND	ND	0
50135	2015-10-17T22:00:00	15.4	ND	ND	ND	ND	ND	ND	ND	ND	ND	ND	0
50136	2015-10-17T23:00:00	12.3	ND	ND	ND	ND	ND	ND	ND	ND	ND	ND	0
50137	2015-10-18T00:00:00	43.6	ND	ND	ND	ND	ND	ND	ND	ND	ND	ND	0
50138	2015-10-18T01:00:00	74.4	ND	ND	ND	ND	ND	ND	ND	ND	ND	ND	0
50139	2015-10-18T02:00:00	57.5	ND	ND	ND	ND	ND	ND	ND	ND	ND	ND	0
50140	2015-10-18T03:00:00	60.9	ND	ND	ND	ND	ND	ND	ND	ND	ND	ND	0
50141	2015-10-18T04:00:00	28.6	ND	ND	ND	ND	ND	ND	ND	ND	ND	ND	0
50142	2015-10-18T05:00:00	37.4	ND	ND	ND	ND	ND	ND	ND	ND	ND	ND	0
50143	2015-10-18T06:00:00	42	ND	ND	ND	ND	ND	ND	ND	ND	ND	ND	0
50144	2015-10-18T07:00:00	50.3	ND	ND	ND	ND	ND	ND	ND	ND	ND	ND	0
50145	2015-10-18T08:00:00	55.4	ND	ND	ND	ND	ND	ND	ND	ND	ND	ND	0
50146	2015-10-18T09:00:00	45.8	ND	ND	ND	ND	ND	ND	ND	ND	ND	ND	0
50147	2015-10-18T10:00:00	53.6	ND	ND	ND	ND	ND	ND	ND	ND	ND	ND	0
50148	2015-10-18T11:00:00	37.8	ND	ND	ND	ND	ND	ND	ND	ND	ND	ND	0
50149	2015-10-18T12:00:00	34.1	ND	ND	ND	ND	ND	ND	ND	ND	ND	ND	0
50150	2015-10-18T13:00:00	44	ND	ND	ND	ND	ND	ND	ND	ND	ND	ND	0
50151	2015-10-18T14:00:00	22.8	ND	ND	ND	ND	ND	ND	ND	ND	ND	ND	0
50152	2015-10-18T15:00:00	8.7	ND	ND	ND	ND	ND	ND	ND	ND	ND	ND	0
50153	2015-10-18T16:00:00	8.8	ND	ND	ND	ND	ND	ND	ND	ND	ND	ND	0
50154	2015-10-18T17:00:00	7.3	ND	ND	ND	ND	ND	ND	ND	ND	ND	ND	0
50155	2015-10-18T18:00:00	20.2	ND	ND	ND	ND	ND	ND	ND	ND	ND	ND	0
50156	2015-10-18T19:00:00	27.5	ND	ND	ND	ND	ND	ND	ND	ND	ND	ND	0
50157	2015-10-18T20:00:00	15.1	ND	ND	ND	ND	ND	ND	ND	ND	ND	ND	0
50158	2015-10-18T21:00:00	22	ND	ND	ND	ND	ND	ND	ND	ND	ND	ND	0
50159	2015-10-18T22:00:00	43	ND	ND	ND	ND	ND	ND	ND	ND	ND	ND	0
50160	2015-10-18T23:00:00	24.5	ND	ND	ND	ND	ND	ND	ND	ND	ND	ND	0
50161	2015-10-19T00:00:00	20.6	ND	ND	ND	ND	ND	ND	ND	ND	ND	ND	0
50162	2015-10-19T01:00:00	54	ND	ND	ND	ND	ND	ND	ND	ND	ND	ND	0
50163	2015-10-19T02:00:00	58.9	ND	ND	ND	ND	ND	ND	ND	ND	ND	ND	0
50164	2015-10-19T03:00:00	56.4	ND	ND	ND	ND	ND	ND	ND	ND	ND	ND	0
50165	2015-10-19T04:00:00	32	ND	ND	ND	ND	ND	ND	ND	ND	ND	ND	0
50166	2015-10-19T05:00:00	45.9	ND	ND	ND	ND	ND	ND	ND	ND	ND	ND	0
50167	2015-10-19T06:00:00	76.2	ND	ND	ND	ND	ND	ND	ND	ND	ND	ND	0
50168	2015-10-19T07:00:00	79.5	ND	ND	ND	ND	ND	ND	ND	ND	ND	ND	0
50169	2015-10-19T08:00:00	84.1	ND	ND	ND	ND	ND	ND	ND	ND	ND	ND	0
50170	2015-10-19T09:00:00	90.9	ND	ND	ND	ND	ND	ND	ND	ND	ND	ND	0
50171	2015-10-19T10:00:00	61.5	ND	ND	ND	ND	ND	ND	ND	ND	ND	ND	0
50172	2015-10-19T11:00:00	43.7	ND	ND	ND	ND	ND	ND	ND	ND	ND	ND	0
50173	2015-10-19T12:00:00	50.1	ND	ND	ND	ND	ND	ND	ND	ND	ND	ND	0
50174	2015-10-19T13:00:00	46.5	ND	ND	ND	ND	ND	ND	ND	ND	ND	ND	0
50175	2015-10-19T14:00:00	42.3	ND	ND	ND	ND	ND	ND	ND	ND	ND	ND	0
50176	2015-10-19T15:00:00	25.6	ND	ND	ND	ND	ND	ND	ND	ND	ND	ND	0
50177	2015-10-19T16:00:00	26.1	ND	ND	ND	ND	ND	ND	ND	ND	ND	ND	0
50178	2015-10-19T17:00:00	49.9	ND	ND	ND	ND	ND	ND	ND	ND	ND	ND	0
50179	2015-10-19T18:00:00	40.9	ND	ND	ND	ND	ND	ND	ND	ND	ND	ND	0
50180	2015-10-19T19:00:00	25	ND	ND	ND	ND	ND	ND	ND	ND	ND	ND	0
50181	2015-10-19T20:00:00	4	ND	ND	ND	ND	ND	ND	ND	ND	ND	ND	0
50182	2015-10-19T21:00:00	22	ND	ND	ND	ND	ND	ND	ND	ND	ND	ND	0
50183	2015-10-19T22:00:00	21.1	ND	ND	ND	ND	ND	ND	ND	ND	ND	ND	0
50184	2015-10-19T23:00:00	50.4	ND	ND	ND	ND	ND	ND	ND	ND	ND	ND	0
50185	2015-10-20T00:00:00	44.5	ND	ND	ND	ND	ND	ND	ND	ND	ND	ND	0
50186	2015-10-20T01:00:00	28.7	ND	ND	ND	ND	ND	ND	ND	ND	ND	ND	0
50187	2015-10-20T02:00:00	41.6	ND	ND	ND	ND	ND	ND	ND	ND	ND	ND	0
50188	2015-10-20T03:00:00	34.8	ND	ND	ND	ND	ND	ND	ND	ND	ND	ND	0
50189	2015-10-20T04:00:00	54.7	ND	ND	ND	ND	ND	ND	ND	ND	ND	ND	0
50190	2015-10-20T05:00:00	48.3	ND	ND	ND	ND	ND	ND	ND	ND	ND	ND	0
50191	2015-10-20T06:00:00	26.7	ND	ND	ND	ND	ND	ND	ND	ND	ND	ND	0
50192	2015-10-20T07:00:00	52.8	ND	ND	ND	ND	ND	ND	ND	ND	ND	ND	0
50193	2015-10-20T08:00:00	84.6	ND	ND	ND	ND	ND	ND	ND	ND	ND	ND	0
50194	2015-10-20T09:00:00	103.7	ND	ND	ND	ND	ND	ND	ND	ND	ND	ND	0
50195	2015-10-20T10:00:00	87.1	ND	ND	ND	ND	ND	ND	ND	ND	ND	ND	0
50196	2015-10-20T11:00:00	53.5	ND	ND	ND	ND	ND	ND	ND	ND	ND	ND	0
50197	2015-10-20T12:00:00	46.8	ND	ND	ND	ND	ND	ND	ND	ND	ND	ND	0
50198	2015-10-20T13:00:00	38.2	ND	ND	ND	ND	ND	ND	ND	ND	ND	ND	0
50199	2015-10-20T14:00:00	47.3	ND	ND	ND	ND	ND	ND	ND	ND	ND	ND	0
50200	2015-10-20T15:00:00	36.8	ND	ND	ND	ND	ND	ND	ND	ND	ND	ND	0
50201	2015-10-20T16:00:00	20.7	ND	ND	ND	ND	ND	ND	ND	ND	ND	ND	0
50202	2015-10-20T17:00:00	27	ND	ND	ND	ND	ND	ND	ND	ND	ND	ND	0
50203	2015-10-20T18:00:00	8.5	ND	ND	ND	ND	ND	ND	ND	ND	ND	ND	0
50204	2015-10-20T19:00:00	ND	ND	ND	ND	ND	ND	ND	ND	ND	ND	ND	0
50205	2015-10-20T20:00:00	4	ND	ND	ND	ND	ND	ND	ND	ND	ND	ND	0
50206	2015-10-20T21:00:00	27.1	ND	ND	ND	ND	ND	ND	ND	ND	ND	ND	0
50207	2015-10-20T22:00:00	31.5	ND	ND	ND	ND	ND	ND	ND	ND	ND	ND	0
50208	2015-10-20T23:00:00	28.3	ND	ND	ND	ND	ND	ND	ND	ND	ND	ND	0
50209	2015-10-21T00:00:00	63.9	ND	ND	ND	ND	ND	ND	ND	ND	ND	ND	0
50210	2015-10-21T01:00:00	60.7	ND	ND	ND	ND	ND	ND	ND	ND	ND	ND	0
50211	2015-10-21T02:00:00	47.2	ND	ND	ND	ND	ND	ND	ND	ND	ND	ND	0
50212	2015-10-21T03:00:00	26.1	ND	ND	ND	ND	ND	ND	ND	ND	ND	ND	0
50213	2015-10-21T04:00:00	26	ND	ND	ND	ND	ND	ND	ND	ND	ND	ND	0
50214	2015-10-21T05:00:00	23.7	ND	ND	ND	ND	ND	ND	ND	ND	ND	ND	0
50215	2015-10-21T06:00:00	72.3	ND	ND	ND	ND	ND	ND	ND	ND	ND	ND	0
50216	2015-10-21T07:00:00	52.4	ND	ND	ND	ND	ND	ND	ND	ND	ND	ND	0
50217	2015-10-21T08:00:00	75.2	ND	ND	ND	ND	ND	ND	ND	ND	ND	ND	0
50218	2015-10-21T09:00:00	130.1	ND	ND	ND	ND	ND	ND	ND	ND	ND	ND	0
50219	2015-10-21T10:00:00	98.3	ND	ND	ND	ND	ND	ND	ND	ND	ND	ND	0
50220	2015-10-21T11:00:00	74	ND	ND	ND	ND	ND	ND	ND	ND	ND	ND	0
50221	2015-10-21T12:00:00	78.2	ND	ND	ND	ND	ND	ND	ND	ND	ND	ND	0
50222	2015-10-21T13:00:00	57.6	ND	ND	ND	ND	ND	ND	ND	ND	ND	ND	0
50223	2015-10-21T14:00:00	55	ND	ND	ND	ND	ND	ND	ND	ND	ND	ND	0
50224	2015-10-21T15:00:00	27.8	ND	ND	ND	ND	ND	ND	ND	ND	ND	ND	0
50225	2015-10-21T16:00:00	25.3	ND	ND	ND	ND	ND	ND	ND	ND	ND	ND	0
50226	2015-10-21T17:00:00	28.4	ND	ND	ND	ND	ND	ND	ND	ND	ND	ND	0
50227	2015-10-21T18:00:00	18.1	ND	ND	ND	ND	ND	ND	ND	ND	ND	ND	0
50228	2015-10-21T19:00:00	28.4	ND	ND	ND	ND	ND	ND	ND	ND	ND	ND	0
50229	2015-10-21T20:00:00	16.1	ND	ND	ND	ND	ND	ND	ND	ND	ND	ND	0
50230	2015-10-21T21:00:00	6.4	ND	ND	ND	ND	ND	ND	ND	ND	ND	ND	0
50231	2015-10-21T22:00:00	16.8	ND	ND	ND	ND	ND	ND	ND	ND	ND	ND	0
50232	2015-10-21T23:00:00	48.3	ND	ND	ND	ND	ND	ND	ND	ND	ND	ND	0
50233	2015-10-22T00:00:00	44.9	ND	ND	ND	ND	ND	ND	ND	ND	ND	ND	0
50234	2015-10-22T01:00:00	46.3	ND	ND	ND	ND	ND	ND	ND	ND	ND	ND	0
50235	2015-10-22T02:00:00	50.7	ND	ND	ND	ND	ND	ND	ND	ND	ND	ND	0
50236	2015-10-22T03:00:00	51.3	ND	ND	ND	ND	ND	ND	ND	ND	ND	ND	0
50237	2015-10-22T04:00:00	55.1	ND	ND	ND	ND	ND	ND	ND	ND	ND	ND	0
50238	2015-10-22T05:00:00	50.9	ND	ND	ND	ND	ND	ND	ND	ND	ND	ND	0
50239	2015-10-22T06:00:00	64.7	ND	ND	ND	ND	ND	ND	ND	ND	ND	ND	0
50240	2015-10-22T07:00:00	50.5	ND	ND	ND	ND	ND	ND	ND	ND	ND	ND	0
50241	2015-10-22T08:00:00	73.6	ND	ND	ND	ND	ND	ND	ND	ND	ND	ND	0
50242	2015-10-22T09:00:00	110.4	ND	ND	ND	ND	ND	ND	ND	ND	ND	ND	0
50243	2015-10-22T10:00:00	89.8	ND	ND	ND	ND	ND	ND	ND	ND	ND	ND	0
50244	2015-10-22T11:00:00	66.4	ND	ND	ND	ND	ND	ND	ND	ND	ND	ND	0
50245	2015-10-22T12:00:00	58.5	ND	ND	ND	ND	ND	ND	ND	ND	ND	ND	0
50246	2015-10-22T13:00:00	64.6	ND	ND	ND	ND	ND	ND	ND	ND	ND	ND	0
50247	2015-10-22T14:00:00	42.3	ND	ND	ND	ND	ND	ND	ND	ND	ND	ND	0
50248	2015-10-22T15:00:00	24.9	ND	ND	ND	ND	ND	ND	ND	ND	ND	ND	0
50249	2015-10-22T16:00:00	22.6	ND	ND	ND	ND	ND	ND	ND	ND	ND	ND	0
50250	2015-10-22T17:00:00	16.8	ND	ND	ND	ND	ND	ND	ND	ND	ND	ND	0
50251	2015-10-22T18:00:00	ND	ND	ND	ND	ND	ND	ND	ND	ND	ND	ND	0
50252	2015-10-22T19:00:00	17.1	ND	ND	ND	ND	ND	ND	ND	ND	ND	ND	0
50253	2015-10-22T20:00:00	39.9	ND	ND	ND	ND	ND	ND	ND	ND	ND	ND	0
50254	2015-10-22T21:00:00	27	ND	ND	ND	ND	ND	ND	ND	ND	ND	ND	0
50255	2015-10-22T22:00:00	23.5	ND	ND	ND	ND	ND	ND	ND	ND	ND	ND	0
50256	2015-10-22T23:00:00	65.5	ND	ND	ND	ND	ND	ND	ND	ND	ND	ND	0
50257	2015-10-23T00:00:00	62.8	ND	ND	ND	ND	ND	ND	ND	ND	ND	ND	0
50258	2015-10-23T01:00:00	19.4	ND	ND	ND	ND	ND	ND	ND	ND	ND	ND	0
50259	2015-10-23T02:00:00	ND	ND	ND	ND	ND	ND	ND	ND	ND	ND	ND	0
50260	2015-10-23T03:00:00	26.5	ND	ND	ND	ND	ND	ND	ND	ND	ND	ND	0
50261	2015-10-23T04:00:00	76.9	ND	ND	ND	ND	ND	ND	ND	ND	ND	ND	0
50262	2015-10-23T05:00:00	81.1	ND	ND	ND	ND	ND	ND	ND	ND	ND	ND	0
50263	2015-10-23T06:00:00	58.3	ND	ND	ND	ND	ND	ND	ND	ND	ND	ND	0
50264	2015-10-23T07:00:00	64	ND	ND	ND	ND	ND	ND	ND	ND	ND	ND	0
50265	2015-10-23T08:00:00	105.5	ND	ND	ND	ND	ND	ND	ND	ND	ND	ND	0
50266	2015-10-23T09:00:00	76.7	ND	ND	ND	ND	ND	ND	ND	ND	ND	ND	0
50267	2015-10-23T10:00:00	71.7	ND	ND	ND	ND	ND	ND	ND	ND	ND	ND	0
50268	2015-10-23T11:00:00	ND	ND	ND	ND	ND	ND	ND	ND	ND	ND	ND	ND
50269	2015-10-23T12:00:00	ND	ND	ND	ND	ND	ND	ND	ND	ND	ND	ND	ND
50270	2015-10-23T13:00:00	ND	ND	ND	ND	ND	ND	ND	ND	ND	ND	ND	ND
50271	2015-10-23T14:00:00	ND	ND	ND	ND	ND	ND	ND	ND	ND	ND	ND	0
50272	2015-10-23T15:00:00	25.8	ND	ND	ND	ND	ND	ND	ND	ND	ND	ND	0
50273	2015-10-23T16:00:00	13.5	ND	ND	ND	ND	ND	ND	ND	ND	ND	ND	0
50274	2015-10-23T17:00:00	18.5	ND	ND	ND	ND	ND	ND	ND	ND	ND	ND	0
50275	2015-10-23T18:00:00	10.1	ND	ND	ND	ND	ND	ND	ND	ND	ND	ND	0
50276	2015-10-23T19:00:00	26.4	ND	ND	ND	ND	ND	ND	ND	ND	ND	ND	0
50277	2015-10-23T20:00:00	80.9	ND	ND	ND	ND	ND	ND	ND	ND	ND	ND	11.94
50278	2015-10-23T21:00:00	73	ND	ND	ND	ND	ND	ND	ND	ND	ND	ND	1.02
50279	2015-10-23T22:00:00	39.7	ND	ND	ND	ND	ND	ND	ND	ND	ND	ND	0
50280	2015-10-23T23:00:00	28.6	ND	ND	ND	ND	ND	ND	ND	ND	ND	ND	0
50281	2015-10-24T00:00:00	11	ND	ND	ND	ND	ND	ND	ND	ND	ND	ND	0
50282	2015-10-24T01:00:00	13.8	ND	ND	ND	ND	ND	ND	ND	ND	ND	ND	0.25
50283	2015-10-24T02:00:00	ND	ND	ND	ND	ND	ND	ND	ND	ND	ND	ND	0
50284	2015-10-24T03:00:00	1.7	ND	ND	ND	ND	ND	ND	ND	ND	ND	ND	0
50285	2015-10-24T04:00:00	36.2	ND	ND	ND	ND	ND	ND	ND	ND	ND	ND	0
50286	2015-10-24T05:00:00	45.7	ND	ND	ND	ND	ND	ND	ND	ND	ND	ND	0
50287	2015-10-24T06:00:00	55.9	ND	ND	ND	ND	ND	ND	ND	ND	ND	ND	0
50288	2015-10-24T07:00:00	47.1	ND	ND	ND	ND	ND	ND	ND	ND	ND	ND	0
50289	2015-10-24T08:00:00	75	ND	ND	ND	ND	ND	ND	ND	ND	ND	ND	0
50290	2015-10-24T09:00:00	63.5	ND	ND	ND	ND	ND	ND	ND	ND	ND	ND	0
50291	2015-10-24T10:00:00	64	ND	ND	ND	ND	ND	ND	ND	ND	ND	ND	0
50292	2015-10-24T11:00:00	71.2	ND	ND	ND	ND	ND	ND	ND	ND	ND	ND	0
50293	2015-10-24T12:00:00	54.4	ND	ND	ND	ND	ND	ND	ND	ND	ND	ND	0
50294	2015-10-24T13:00:00	62.5	ND	ND	ND	ND	ND	ND	ND	ND	ND	ND	0
50295	2015-10-24T14:00:00	46.4	ND	ND	ND	ND	ND	ND	ND	ND	ND	ND	0
50296	2015-10-24T15:00:00	67.2	ND	ND	ND	ND	ND	ND	ND	ND	ND	ND	0
50297	2015-10-24T16:00:00	20.7	ND	ND	ND	ND	ND	ND	ND	ND	ND	ND	0
50298	2015-10-24T17:00:00	ND	ND	ND	ND	ND	ND	ND	ND	ND	ND	ND	0
50299	2015-10-24T18:00:00	ND	ND	ND	ND	ND	ND	ND	ND	ND	ND	ND	0
50300	2015-10-24T19:00:00	ND	ND	ND	ND	ND	ND	ND	ND	ND	ND	ND	0
50301	2015-10-24T20:00:00	7.8	ND	ND	ND	ND	ND	ND	ND	ND	ND	ND	0
50302	2015-10-24T21:00:00	15.9	ND	ND	ND	ND	ND	ND	ND	ND	ND	ND	0
50303	2015-10-24T22:00:00	32.4	ND	ND	ND	ND	ND	ND	ND	ND	ND	ND	0
50304	2015-10-24T23:00:00	75.2	ND	ND	ND	ND	ND	ND	ND	ND	ND	ND	0
50305	2015-10-25T00:00:00	41.8	ND	ND	ND	ND	ND	ND	ND	ND	ND	ND	0.25
50306	2015-10-25T01:00:00	21.3	ND	ND	ND	ND	ND	ND	ND	ND	ND	ND	0.51
50307	2015-10-25T02:00:00	16.7	ND	ND	ND	ND	ND	ND	ND	ND	ND	ND	2.54
50308	2015-10-25T03:00:00	16.5	ND	ND	ND	ND	ND	ND	ND	ND	ND	ND	5.33
50309	2015-10-25T04:00:00	30.6	ND	ND	ND	ND	ND	ND	ND	ND	ND	ND	2.79
50310	2015-10-25T05:00:00	7.6	ND	ND	ND	ND	ND	ND	ND	ND	ND	ND	0.51
50311	2015-10-25T06:00:00	15.8	ND	ND	ND	ND	ND	ND	ND	ND	ND	ND	0.51
50312	2015-10-25T07:00:00	5.1	ND	ND	ND	ND	ND	ND	ND	ND	ND	ND	0.25
50313	2015-10-25T08:00:00	27.6	ND	ND	ND	ND	ND	ND	ND	ND	ND	ND	0
50314	2015-10-25T09:00:00	28.1	ND	ND	ND	ND	ND	ND	ND	ND	ND	ND	0
50315	2015-10-25T10:00:00	31	ND	ND	ND	ND	ND	ND	ND	ND	ND	ND	0
50316	2015-10-25T11:00:00	26.6	ND	ND	ND	ND	ND	ND	ND	ND	ND	ND	0
50317	2015-10-25T12:00:00	21.2	ND	ND	ND	ND	ND	ND	ND	ND	ND	ND	0
50318	2015-10-25T13:00:00	26.9	ND	ND	ND	ND	ND	ND	ND	ND	ND	ND	0
50319	2015-10-25T14:00:00	20	ND	ND	ND	ND	ND	ND	ND	ND	ND	ND	0
50320	2015-10-25T15:00:00	32.3	ND	ND	ND	ND	ND	ND	ND	ND	ND	ND	0
50321	2015-10-25T16:00:00	18.8	ND	ND	ND	ND	ND	ND	ND	ND	ND	ND	0
50322	2015-10-25T17:00:00	ND	ND	ND	ND	ND	ND	ND	ND	ND	ND	ND	0
50323	2015-10-25T18:00:00	ND	ND	ND	ND	ND	ND	ND	ND	ND	ND	ND	8.89
50324	2015-10-25T19:00:00	49.9	ND	ND	ND	ND	ND	ND	ND	ND	ND	ND	5.33
50325	2015-10-25T20:00:00	72.3	ND	ND	ND	ND	ND	ND	ND	ND	ND	ND	5.33
50326	2015-10-25T21:00:00	72	ND	ND	ND	ND	ND	ND	ND	ND	ND	ND	3.81
50327	2015-10-25T22:00:00	15.3	ND	ND	ND	ND	ND	ND	ND	ND	ND	ND	0.51
50328	2015-10-25T23:00:00	3.3	ND	ND	ND	ND	ND	ND	ND	ND	ND	ND	0
50329	2015-10-26T00:00:00	5.2	ND	ND	ND	ND	ND	ND	ND	ND	ND	ND	0.25
50330	2015-10-26T01:00:00	29.6	ND	ND	ND	ND	ND	ND	ND	ND	ND	ND	0
50331	2015-10-26T02:00:00	10.2	ND	ND	ND	ND	ND	ND	ND	ND	ND	ND	0
50332	2015-10-26T03:00:00	20.9	ND	ND	ND	ND	ND	ND	ND	ND	ND	ND	0
50333	2015-10-26T04:00:00	35	ND	ND	ND	ND	ND	ND	ND	ND	ND	ND	0
50334	2015-10-26T05:00:00	13.8	ND	ND	ND	ND	ND	ND	ND	ND	ND	ND	0
50335	2015-10-26T06:00:00	18.8	ND	ND	ND	ND	ND	ND	ND	ND	ND	ND	0
50336	2015-10-26T07:00:00	40.6	ND	ND	ND	ND	ND	ND	ND	ND	ND	ND	0
50337	2015-10-26T08:00:00	51.2	ND	ND	ND	ND	ND	ND	ND	ND	ND	ND	0
50338	2015-10-26T09:00:00	50.5	ND	ND	ND	ND	ND	ND	ND	ND	ND	ND	0
50339	2015-10-26T10:00:00	55.8	ND	ND	ND	ND	ND	ND	ND	ND	ND	ND	0
50340	2015-10-26T11:00:00	55.8	ND	ND	ND	ND	ND	ND	ND	ND	ND	ND	0
50341	2015-10-26T12:00:00	42.5	ND	ND	ND	ND	ND	ND	ND	ND	ND	ND	0
50342	2015-10-26T13:00:00	50	ND	ND	ND	ND	ND	ND	ND	ND	ND	ND	0
50343	2015-10-26T14:00:00	59.9	ND	ND	ND	ND	ND	ND	ND	ND	ND	ND	0
50344	2015-10-26T15:00:00	50.8	ND	ND	ND	ND	ND	ND	ND	ND	ND	ND	0
50345	2015-10-26T16:00:00	42.8	ND	ND	ND	ND	ND	ND	ND	ND	ND	ND	0
50346	2015-10-26T17:00:00	44.6	ND	ND	ND	ND	ND	ND	ND	ND	ND	ND	0
50347	2015-10-26T18:00:00	5.5	ND	ND	ND	ND	ND	ND	ND	ND	ND	ND	0
50348	2015-10-26T19:00:00	ND	ND	ND	ND	ND	ND	ND	ND	ND	ND	ND	0
50349	2015-10-26T20:00:00	15.7	ND	ND	ND	ND	ND	ND	ND	ND	ND	ND	0
50350	2015-10-26T21:00:00	43.3	ND	ND	ND	ND	ND	ND	ND	ND	ND	ND	0
50351	2015-10-26T22:00:00	61.4	ND	ND	ND	ND	ND	ND	ND	ND	ND	ND	0
50352	2015-10-26T23:00:00	22	ND	ND	ND	ND	ND	ND	ND	ND	ND	ND	0
50353	2015-10-27T00:00:00	ND	ND	ND	ND	ND	ND	ND	ND	ND	ND	ND	0
50354	2015-10-27T01:00:00	28.5	ND	ND	ND	ND	ND	ND	ND	ND	ND	ND	0
50355	2015-10-27T02:00:00	63.9	ND	ND	ND	ND	ND	ND	ND	ND	ND	ND	0
50356	2015-10-27T03:00:00	33.2	ND	ND	ND	ND	ND	ND	ND	ND	ND	ND	0
50357	2015-10-27T04:00:00	23.3	ND	ND	ND	ND	ND	ND	ND	ND	ND	ND	0
50358	2015-10-27T05:00:00	45	ND	ND	ND	ND	ND	ND	ND	ND	ND	ND	0
50359	2015-10-27T06:00:00	29.9	ND	ND	ND	ND	ND	ND	ND	ND	ND	ND	0
50360	2015-10-27T07:00:00	40.4	ND	ND	ND	ND	ND	ND	ND	ND	ND	ND	0
50361	2015-10-27T08:00:00	78	ND	ND	ND	ND	ND	ND	ND	ND	ND	ND	0
50362	2015-10-27T09:00:00	87.7	ND	ND	ND	ND	ND	ND	ND	ND	ND	ND	0
50363	2015-10-27T10:00:00	91.8	ND	ND	ND	ND	ND	ND	ND	ND	ND	ND	0
50364	2015-10-27T11:00:00	58.4	ND	ND	ND	ND	ND	ND	ND	ND	ND	ND	0
50365	2015-10-27T12:00:00	37.8	ND	ND	ND	ND	ND	ND	ND	ND	ND	ND	0
50366	2015-10-27T13:00:00	44	ND	ND	ND	ND	ND	ND	ND	ND	ND	ND	0
50367	2015-10-27T14:00:00	13.5	ND	ND	ND	ND	ND	ND	ND	ND	ND	ND	0
50368	2015-10-27T15:00:00	39.7	ND	ND	ND	ND	ND	ND	ND	ND	ND	ND	0
50369	2015-10-27T16:00:00	35.3	ND	ND	ND	ND	ND	ND	ND	ND	ND	ND	0
50370	2015-10-27T17:00:00	14.6	ND	ND	ND	ND	ND	ND	ND	ND	ND	ND	0
50371	2015-10-27T18:00:00	9.2	ND	ND	ND	ND	ND	ND	ND	ND	ND	ND	0
50372	2015-10-27T19:00:00	44.4	ND	ND	ND	ND	ND	ND	ND	ND	ND	ND	0
50373	2015-10-27T20:00:00	93	ND	ND	ND	ND	ND	ND	ND	ND	ND	ND	0
50374	2015-10-27T21:00:00	47.9	ND	ND	ND	ND	ND	ND	ND	ND	ND	ND	0
50375	2015-10-27T22:00:00	1.8	ND	ND	ND	ND	ND	ND	ND	ND	ND	ND	0
50376	2015-10-27T23:00:00	9.9	ND	ND	ND	ND	ND	ND	ND	ND	ND	ND	0
50377	2015-10-28T00:00:00	64.1	ND	ND	ND	ND	ND	ND	ND	ND	ND	ND	0
50378	2015-10-28T01:00:00	69.4	ND	ND	ND	ND	ND	ND	ND	ND	ND	ND	0
50379	2015-10-28T02:00:00	35.2	ND	ND	ND	ND	ND	ND	ND	ND	ND	ND	0
50380	2015-10-28T03:00:00	32	ND	ND	ND	ND	ND	ND	ND	ND	ND	ND	0
50381	2015-10-28T04:00:00	57.7	ND	ND	ND	ND	ND	ND	ND	ND	ND	ND	0
50382	2015-10-28T05:00:00	56.4	ND	ND	ND	ND	ND	ND	ND	ND	ND	ND	0
50383	2015-10-28T06:00:00	72.9	ND	ND	ND	ND	ND	ND	ND	ND	ND	ND	0
50384	2015-10-28T07:00:00	93.5	ND	ND	ND	ND	ND	ND	ND	ND	ND	ND	0
50385	2015-10-28T08:00:00	103.8	ND	ND	ND	ND	ND	ND	ND	ND	ND	ND	0
50386	2015-10-28T09:00:00	101.5	ND	ND	ND	ND	ND	ND	ND	ND	ND	ND	0
50387	2015-10-28T10:00:00	ND	ND	ND	ND	ND	ND	ND	ND	ND	ND	ND	0
50388	2015-10-28T11:00:00	133.7	ND	ND	ND	ND	ND	ND	ND	ND	ND	ND	0
50389	2015-10-28T12:00:00	ND	ND	ND	ND	ND	ND	ND	ND	ND	ND	ND	0
50390	2015-10-28T13:00:00	147.7	ND	ND	ND	ND	ND	ND	ND	ND	ND	ND	0
50391	2015-10-28T14:00:00	94	ND	ND	ND	ND	ND	ND	ND	ND	ND	ND	0
50392	2015-10-28T15:00:00	44.1	ND	ND	ND	ND	ND	ND	ND	ND	ND	ND	0
50393	2015-10-28T16:00:00	39.4	ND	ND	ND	ND	ND	ND	ND	ND	ND	ND	0
50394	2015-10-28T17:00:00	22.2	ND	ND	ND	ND	ND	ND	ND	ND	ND	ND	0
50395	2015-10-28T18:00:00	ND	ND	ND	ND	ND	ND	ND	ND	ND	ND	ND	0
50396	2015-10-28T19:00:00	ND	ND	ND	ND	ND	ND	ND	ND	ND	ND	ND	0
50397	2015-10-28T20:00:00	34.5	ND	ND	ND	ND	ND	ND	ND	ND	ND	ND	0
50398	2015-10-28T21:00:00	67.8	ND	ND	ND	ND	ND	ND	ND	ND	ND	ND	0
50399	2015-10-28T22:00:00	78.3	ND	ND	ND	ND	ND	ND	ND	ND	ND	ND	0
50400	2015-10-28T23:00:00	44.5	ND	ND	ND	ND	ND	ND	ND	ND	ND	ND	0
50401	2015-10-29T00:00:00	41	ND	ND	ND	ND	ND	ND	ND	ND	ND	ND	0
50402	2015-10-29T01:00:00	41	ND	ND	ND	ND	ND	ND	ND	ND	ND	ND	0
50403	2015-10-29T02:00:00	52.4	ND	ND	ND	ND	ND	ND	ND	ND	ND	ND	0
50404	2015-10-29T03:00:00	25.6	ND	ND	ND	ND	ND	ND	ND	ND	ND	ND	0
50405	2015-10-29T04:00:00	32.4	ND	ND	ND	ND	ND	ND	ND	ND	ND	ND	0
50406	2015-10-29T05:00:00	34.9	ND	ND	ND	ND	ND	ND	ND	ND	ND	ND	0
50407	2015-10-29T06:00:00	9.1	ND	ND	ND	ND	ND	ND	ND	ND	ND	ND	0
50408	2015-10-29T07:00:00	8.6	ND	ND	ND	ND	ND	ND	ND	ND	ND	ND	0
50409	2015-10-29T08:00:00	97.4	ND	ND	ND	ND	ND	ND	ND	ND	ND	ND	0
50410	2015-10-29T09:00:00	112.7	ND	ND	ND	ND	ND	ND	ND	ND	ND	ND	0
50411	2015-10-29T10:00:00	84.1	ND	ND	ND	ND	ND	ND	ND	ND	ND	ND	0
50412	2015-10-29T11:00:00	76	ND	ND	ND	ND	ND	ND	ND	ND	ND	ND	0
50413	2015-10-29T12:00:00	78.2	ND	ND	ND	ND	ND	ND	ND	ND	ND	ND	0
50414	2015-10-29T13:00:00	68.5	ND	ND	ND	ND	ND	ND	ND	ND	ND	ND	0
50415	2015-10-29T14:00:00	40.4	ND	ND	ND	ND	ND	ND	ND	ND	ND	ND	0
50416	2015-10-29T15:00:00	21.9	ND	ND	ND	ND	ND	ND	ND	ND	ND	ND	0
50417	2015-10-29T16:00:00	20.3	ND	ND	ND	ND	ND	ND	ND	ND	ND	ND	0
50418	2015-10-29T17:00:00	30.1	ND	ND	ND	ND	ND	ND	ND	ND	ND	ND	0
50419	2015-10-29T18:00:00	1.2	ND	ND	ND	ND	ND	ND	ND	ND	ND	ND	0
50420	2015-10-29T19:00:00	5.4	ND	ND	ND	ND	ND	ND	ND	ND	ND	ND	0
50421	2015-10-29T20:00:00	21.4	ND	ND	ND	ND	ND	ND	ND	ND	ND	ND	0
50422	2015-10-29T21:00:00	21.6	ND	ND	ND	ND	ND	ND	ND	ND	ND	ND	0
50423	2015-10-29T22:00:00	60.3	ND	ND	ND	ND	ND	ND	ND	ND	ND	ND	0
50424	2015-10-29T23:00:00	17.2	ND	ND	ND	ND	ND	ND	ND	ND	ND	ND	0
50425	2015-10-30T00:00:00	35.4	ND	ND	ND	ND	ND	ND	ND	ND	ND	ND	0
50426	2015-10-30T01:00:00	89.5	ND	ND	ND	ND	ND	ND	ND	ND	ND	ND	1.52
50427	2015-10-30T02:00:00	83.2	ND	ND	ND	ND	ND	ND	ND	ND	ND	ND	0.25
50428	2015-10-30T03:00:00	54	ND	ND	ND	ND	ND	ND	ND	ND	ND	ND	0.25
50429	2015-10-30T04:00:00	21.4	ND	ND	ND	ND	ND	ND	ND	ND	ND	ND	0
50430	2015-10-30T05:00:00	19.9	ND	ND	ND	ND	ND	ND	ND	ND	ND	ND	0.76
50431	2015-10-30T06:00:00	19.6	ND	ND	ND	ND	ND	ND	ND	ND	ND	ND	0.25
50432	2015-10-30T07:00:00	21.5	ND	ND	ND	ND	ND	ND	ND	ND	ND	ND	0
50433	2015-10-30T08:00:00	35.8	ND	ND	ND	ND	ND	ND	ND	ND	ND	ND	0
50434	2015-10-30T09:00:00	47.5	ND	ND	ND	ND	ND	ND	ND	ND	ND	ND	0
50435	2015-10-30T10:00:00	66.9	ND	ND	ND	ND	ND	ND	ND	ND	ND	ND	0
50436	2015-10-30T11:00:00	45.2	ND	ND	ND	ND	ND	ND	ND	ND	ND	ND	0
50437	2015-10-30T12:00:00	39.6	ND	ND	ND	ND	ND	ND	ND	ND	ND	ND	0
50438	2015-10-30T13:00:00	57.9	ND	ND	ND	ND	ND	ND	ND	ND	ND	ND	0
50439	2015-10-30T14:00:00	44.1	ND	ND	ND	ND	ND	ND	ND	ND	ND	ND	0
50440	2015-10-30T15:00:00	39.3	ND	ND	ND	ND	ND	ND	ND	ND	ND	ND	0
50441	2015-10-30T16:00:00	22.3	ND	ND	ND	ND	ND	ND	ND	ND	ND	ND	0
50442	2015-10-30T17:00:00	ND	ND	ND	ND	ND	ND	ND	ND	ND	ND	ND	0
50443	2015-10-30T18:00:00	ND	ND	ND	ND	ND	ND	ND	ND	ND	ND	ND	0
50444	2015-10-30T19:00:00	14.6	ND	ND	ND	ND	ND	ND	ND	ND	ND	ND	0
50445	2015-10-30T20:00:00	70	ND	ND	ND	ND	ND	ND	ND	ND	ND	ND	0
50446	2015-10-30T21:00:00	34.3	ND	ND	ND	ND	ND	ND	ND	ND	ND	ND	0
50447	2015-10-30T22:00:00	28.2	ND	ND	ND	ND	ND	ND	ND	ND	ND	ND	0
50448	2015-10-30T23:00:00	71.7	ND	ND	ND	ND	ND	ND	ND	ND	ND	ND	0
50449	2015-10-31T00:00:00	70.2	ND	ND	ND	ND	ND	ND	ND	ND	ND	ND	0
50450	2015-10-31T01:00:00	43.5	ND	ND	ND	ND	ND	ND	ND	ND	ND	ND	0
50451	2015-10-31T02:00:00	31.2	ND	ND	ND	ND	ND	ND	ND	ND	ND	ND	0
50452	2015-10-31T03:00:00	22.9	ND	ND	ND	ND	ND	ND	ND	ND	ND	ND	0
50453	2015-10-31T04:00:00	56	ND	ND	ND	ND	ND	ND	ND	ND	ND	ND	0
50454	2015-10-31T05:00:00	52.4	ND	ND	ND	ND	ND	ND	ND	ND	ND	ND	0
50455	2015-10-31T06:00:00	65.5	ND	ND	ND	ND	ND	ND	ND	ND	ND	ND	0
50456	2015-10-31T07:00:00	87.8	ND	ND	ND	ND	ND	ND	ND	ND	ND	ND	0
50457	2015-10-31T08:00:00	81.1	ND	ND	ND	ND	ND	ND	ND	ND	ND	ND	0
50458	2015-10-31T09:00:00	109.8	ND	ND	ND	ND	ND	ND	ND	ND	ND	ND	0
50459	2015-10-31T10:00:00	80.6	ND	ND	ND	ND	ND	ND	ND	ND	ND	ND	0
50460	2015-10-31T11:00:00	62	ND	ND	ND	ND	ND	ND	ND	ND	ND	ND	0
50461	2015-10-31T12:00:00	44.8	ND	ND	ND	ND	ND	ND	ND	ND	ND	ND	0
50462	2015-10-31T13:00:00	33.5	ND	ND	ND	ND	ND	ND	ND	ND	ND	ND	0
50463	2015-10-31T14:00:00	10.2	ND	ND	ND	ND	ND	ND	ND	ND	ND	ND	0
50464	2015-10-31T15:00:00	ND	ND	ND	ND	ND	ND	ND	ND	ND	ND	ND	0
50465	2015-10-31T16:00:00	6.9	ND	ND	ND	ND	ND	ND	ND	ND	ND	ND	0
50466	2015-10-31T17:00:00	ND	ND	ND	ND	ND	ND	ND	ND	ND	ND	ND	0
50467	2015-10-31T18:00:00	ND	ND	ND	ND	ND	ND	ND	ND	ND	ND	ND	0
50468	2015-10-31T19:00:00	ND	ND	ND	ND	ND	ND	ND	ND	ND	ND	ND	0
50469	2015-10-31T20:00:00	20.6	ND	ND	ND	ND	ND	ND	ND	ND	ND	ND	0
50470	2015-10-31T21:00:00	22.5	ND	ND	ND	ND	ND	ND	ND	ND	ND	ND	0
50471	2015-10-31T22:00:00	80.3	ND	ND	ND	ND	ND	ND	ND	ND	ND	ND	0
50472	2015-10-31T23:00:00	76.6	ND	ND	ND	ND	ND	ND	ND	ND	ND	ND	0
50473	2015-11-01T00:00:00	100.6	ND	ND	ND	ND	ND	ND	ND	ND	ND	ND	0
50474	2015-11-01T01:00:00	85.6	ND	ND	ND	ND	ND	ND	ND	ND	ND	ND	0
50475	2015-11-01T02:00:00	53.5	ND	ND	ND	ND	ND	ND	ND	ND	ND	ND	0
50476	2015-11-01T03:00:00	57.1	ND	ND	ND	ND	ND	ND	ND	ND	ND	ND	0
50477	2015-11-01T04:00:00	46.4	ND	ND	ND	ND	ND	ND	ND	ND	ND	ND	0
50478	2015-11-01T05:00:00	32.2	ND	ND	ND	ND	ND	ND	ND	ND	ND	ND	0
50479	2015-11-01T06:00:00	14.5	ND	ND	ND	ND	ND	ND	ND	ND	ND	ND	10.92
50480	2015-11-01T07:00:00	6.9	ND	ND	ND	ND	ND	ND	ND	ND	ND	ND	15.75
50481	2015-11-01T08:00:00	19.3	ND	ND	ND	ND	ND	ND	ND	ND	ND	ND	4.06
50482	2015-11-01T09:00:00	15.3	ND	ND	ND	ND	ND	ND	ND	ND	ND	ND	0
50483	2015-11-01T10:00:00	11.7	ND	ND	ND	ND	ND	ND	ND	ND	ND	ND	0
50484	2015-11-01T11:00:00	12.7	ND	ND	ND	ND	ND	ND	ND	ND	ND	ND	0
50485	2015-11-01T12:00:00	40.9	ND	ND	ND	ND	ND	ND	ND	ND	ND	ND	0
50486	2015-11-01T13:00:00	19.5	ND	ND	ND	ND	ND	ND	ND	ND	ND	ND	0
50487	2015-11-01T14:00:00	11.6	ND	ND	ND	ND	ND	ND	ND	ND	ND	ND	0
50488	2015-11-01T15:00:00	2.1	ND	ND	ND	ND	ND	ND	ND	ND	ND	ND	6.1
50489	2015-11-01T16:00:00	1.3	ND	ND	ND	ND	ND	ND	ND	ND	ND	ND	44.2
50490	2015-11-01T17:00:00	27.1	ND	ND	ND	ND	ND	ND	ND	ND	ND	ND	0.25
50491	2015-11-01T18:00:00	52	ND	ND	ND	ND	ND	ND	ND	ND	ND	ND	0
50492	2015-11-01T19:00:00	26.8	ND	ND	ND	ND	ND	ND	ND	ND	ND	ND	0
50493	2015-11-01T20:00:00	48.1	ND	ND	ND	ND	ND	ND	ND	ND	ND	ND	0
50494	2015-11-01T21:00:00	66.1	ND	ND	ND	ND	ND	ND	ND	ND	ND	ND	0
50495	2015-11-01T22:00:00	26.1	ND	ND	ND	ND	ND	ND	ND	ND	ND	ND	5.59
50496	2015-11-01T23:00:00	9.7	ND	ND	ND	ND	ND	ND	ND	ND	ND	ND	0.51
50497	2015-11-02T00:00:00	11.5	ND	ND	ND	ND	ND	ND	ND	ND	ND	ND	0
50498	2015-11-02T01:00:00	10.7	ND	ND	ND	ND	ND	ND	ND	ND	ND	ND	0.51
50499	2015-11-02T02:00:00	2.5	ND	ND	ND	ND	ND	ND	ND	ND	ND	ND	0.76
50500	2015-11-02T03:00:00	9.8	ND	ND	ND	ND	ND	ND	ND	ND	ND	ND	6.86
50501	2015-11-02T04:00:00	4.7	ND	ND	ND	ND	ND	ND	ND	ND	ND	ND	1.02
50502	2015-11-02T05:00:00	20.1	ND	ND	ND	ND	ND	ND	ND	ND	ND	ND	1.02
50503	2015-11-02T06:00:00	19.7	ND	ND	ND	ND	ND	ND	ND	ND	ND	ND	1.78
50504	2015-11-02T07:00:00	5.3	ND	ND	ND	ND	ND	ND	ND	ND	ND	ND	4.57
50505	2015-11-02T08:00:00	6.8	ND	ND	ND	ND	ND	ND	ND	ND	ND	ND	0.25
50506	2015-11-02T09:00:00	26.8	ND	ND	ND	ND	ND	ND	ND	ND	ND	ND	0
50507	2015-11-02T10:00:00	33.6	ND	ND	ND	ND	ND	ND	ND	ND	ND	ND	0
50508	2015-11-02T11:00:00	28.5	ND	ND	ND	ND	ND	ND	ND	ND	ND	ND	0
50509	2015-11-02T12:00:00	19.6	ND	ND	ND	ND	ND	ND	ND	ND	ND	ND	0
50510	2015-11-02T13:00:00	ND	ND	ND	ND	ND	ND	ND	ND	ND	ND	ND	0
50511	2015-11-02T14:00:00	ND	ND	ND	ND	ND	ND	ND	ND	ND	ND	ND	0
50512	2015-11-02T15:00:00	ND	ND	ND	ND	ND	ND	ND	ND	ND	ND	ND	0.25
50513	2015-11-02T16:00:00	ND	ND	ND	ND	ND	ND	ND	ND	ND	ND	ND	4.06
50514	2015-11-02T17:00:00	12.2	ND	ND	ND	ND	ND	ND	ND	ND	ND	ND	2.03
50515	2015-11-02T18:00:00	46.1	ND	ND	ND	ND	ND	ND	ND	ND	ND	ND	0.25
50516	2015-11-02T19:00:00	33.9	ND	ND	ND	ND	ND	ND	ND	ND	ND	ND	0
50517	2015-11-02T20:00:00	16.2	ND	ND	ND	ND	ND	ND	ND	ND	ND	ND	0.25
50518	2015-11-02T21:00:00	ND	ND	ND	ND	ND	ND	ND	ND	ND	ND	ND	0
50519	2015-11-02T22:00:00	ND	ND	ND	ND	ND	ND	ND	ND	ND	ND	ND	0
50520	2015-11-02T23:00:00	17.4	ND	ND	ND	ND	ND	ND	ND	ND	ND	ND	0
50521	2015-11-03T00:00:00	34.1	ND	ND	ND	ND	ND	ND	ND	ND	ND	ND	0
50522	2015-11-03T01:00:00	64.4	ND	ND	ND	ND	ND	ND	ND	ND	ND	ND	0
50523	2015-11-03T02:00:00	68.7	ND	ND	ND	ND	ND	ND	ND	ND	ND	ND	0
50524	2015-11-03T03:00:00	19.7	ND	ND	ND	ND	ND	ND	ND	ND	ND	ND	0
50525	2015-11-03T04:00:00	3.7	ND	ND	ND	ND	ND	ND	ND	ND	ND	ND	0
50526	2015-11-03T05:00:00	4.5	ND	ND	ND	ND	ND	ND	ND	ND	ND	ND	0
50527	2015-11-03T06:00:00	36.2	ND	ND	ND	ND	ND	ND	ND	ND	ND	ND	0
50528	2015-11-03T07:00:00	59.2	ND	ND	ND	ND	ND	ND	ND	ND	ND	ND	0
50529	2015-11-03T08:00:00	79.4	ND	ND	ND	ND	ND	ND	ND	ND	ND	ND	0
50530	2015-11-03T09:00:00	88.9	ND	ND	ND	ND	ND	ND	ND	ND	ND	ND	0
50531	2015-11-03T10:00:00	71.3	ND	ND	ND	ND	ND	ND	ND	ND	ND	ND	0
50532	2015-11-03T11:00:00	45.3	ND	ND	ND	ND	ND	ND	ND	ND	ND	ND	0
50533	2015-11-03T12:00:00	17.7	ND	ND	ND	ND	ND	ND	ND	ND	ND	ND	0
50534	2015-11-03T13:00:00	38.7	ND	ND	ND	ND	ND	ND	ND	ND	ND	ND	0
50535	2015-11-03T14:00:00	29.4	ND	ND	ND	ND	ND	ND	ND	ND	ND	ND	0
50536	2015-11-03T15:00:00	17.8	ND	ND	ND	ND	ND	ND	ND	ND	ND	ND	0
50537	2015-11-03T16:00:00	41.9	ND	ND	ND	ND	ND	ND	ND	ND	ND	ND	0
50538	2015-11-03T17:00:00	23.8	ND	ND	ND	ND	ND	ND	ND	ND	ND	ND	0
50539	2015-11-03T18:00:00	ND	ND	ND	ND	ND	ND	ND	ND	ND	ND	ND	0
50540	2015-11-03T19:00:00	11.9	ND	ND	ND	ND	ND	ND	ND	ND	ND	ND	0
50541	2015-11-03T20:00:00	41.4	ND	ND	ND	ND	ND	ND	ND	ND	ND	ND	0
50542	2015-11-03T21:00:00	53	ND	ND	ND	ND	ND	ND	ND	ND	ND	ND	0
50543	2015-11-03T22:00:00	81	ND	ND	ND	ND	ND	ND	ND	ND	ND	ND	0
50544	2015-11-03T23:00:00	46	ND	ND	ND	ND	ND	ND	ND	ND	ND	ND	0
50545	2015-11-04T00:00:00	34.1	ND	ND	ND	ND	ND	ND	ND	ND	ND	ND	0
50546	2015-11-04T01:00:00	40.8	ND	ND	ND	ND	ND	ND	ND	ND	ND	ND	0
50547	2015-11-04T02:00:00	49.5	ND	ND	ND	ND	ND	ND	ND	ND	ND	ND	0
50548	2015-11-04T03:00:00	37.9	ND	ND	ND	ND	ND	ND	ND	ND	ND	ND	0
50549	2015-11-04T04:00:00	26.3	ND	ND	ND	ND	ND	ND	ND	ND	ND	ND	0
50550	2015-11-04T05:00:00	38.8	ND	ND	ND	ND	ND	ND	ND	ND	ND	ND	0
50551	2015-11-04T06:00:00	74	ND	ND	ND	ND	ND	ND	ND	ND	ND	ND	0
50552	2015-11-04T07:00:00	67.8	ND	ND	ND	ND	ND	ND	ND	ND	ND	ND	0
50553	2015-11-04T08:00:00	75.5	ND	ND	ND	ND	ND	ND	ND	ND	ND	ND	0
50554	2015-11-04T09:00:00	61.1	ND	ND	ND	ND	ND	ND	ND	ND	ND	ND	52.58
50555	2015-11-04T10:00:00	26	ND	ND	ND	ND	ND	ND	ND	ND	ND	ND	6.6
50556	2015-11-04T11:00:00	31	ND	ND	ND	ND	ND	ND	ND	ND	ND	ND	0
50557	2015-11-04T12:00:00	34.9	ND	ND	ND	ND	ND	ND	ND	ND	ND	ND	0
50558	2015-11-04T13:00:00	59.8	ND	ND	ND	ND	ND	ND	ND	ND	ND	ND	0
50559	2015-11-04T14:00:00	50.7	ND	ND	ND	ND	ND	ND	ND	ND	ND	ND	0
50560	2015-11-04T15:00:00	38.7	ND	ND	ND	ND	ND	ND	ND	ND	ND	ND	0
50561	2015-11-04T16:00:00	8.9	ND	ND	ND	ND	ND	ND	ND	ND	ND	ND	0.76
50562	2015-11-04T17:00:00	16.4	ND	ND	ND	ND	ND	ND	ND	ND	ND	ND	0.25
50563	2015-11-04T18:00:00	58.3	ND	ND	ND	ND	ND	ND	ND	ND	ND	ND	0
50564	2015-11-04T19:00:00	42.4	ND	ND	ND	ND	ND	ND	ND	ND	ND	ND	0
50565	2015-11-04T20:00:00	40	ND	ND	ND	ND	ND	ND	ND	ND	ND	ND	0
50566	2015-11-04T21:00:00	58.8	ND	ND	ND	ND	ND	ND	ND	ND	ND	ND	0
50567	2015-11-04T22:00:00	83.1	ND	ND	ND	ND	ND	ND	ND	ND	ND	ND	0
50568	2015-11-04T23:00:00	56.7	ND	ND	ND	ND	ND	ND	ND	ND	ND	ND	0
50569	2015-11-05T00:00:00	53.3	ND	ND	ND	ND	ND	ND	ND	ND	ND	ND	0
50570	2015-11-05T01:00:00	41.7	ND	ND	ND	ND	ND	ND	ND	ND	ND	ND	0
50571	2015-11-05T02:00:00	35.7	ND	ND	ND	ND	ND	ND	ND	ND	ND	ND	0
50572	2015-11-05T03:00:00	36.8	ND	ND	ND	ND	ND	ND	ND	ND	ND	ND	0
50573	2015-11-05T04:00:00	25	ND	ND	ND	ND	ND	ND	ND	ND	ND	ND	0
50574	2015-11-05T05:00:00	18.3	ND	ND	ND	ND	ND	ND	ND	ND	ND	ND	1.02
50575	2015-11-05T06:00:00	19.2	ND	ND	ND	ND	ND	ND	ND	ND	ND	ND	0.76
50576	2015-11-05T07:00:00	17	ND	ND	ND	ND	ND	ND	ND	ND	ND	ND	0
50577	2015-11-05T08:00:00	81.9	ND	ND	ND	ND	ND	ND	ND	ND	ND	ND	0
50578	2015-11-05T09:00:00	107.5	ND	ND	ND	ND	ND	ND	ND	ND	ND	ND	0
50579	2015-11-05T10:00:00	69.1	ND	ND	ND	ND	ND	ND	ND	ND	ND	ND	0
50580	2015-11-05T11:00:00	51.9	ND	ND	ND	ND	ND	ND	ND	ND	ND	ND	0
50581	2015-11-05T12:00:00	61.8	ND	ND	ND	ND	ND	ND	ND	ND	ND	ND	0
50582	2015-11-05T13:00:00	50.4	ND	ND	ND	ND	ND	ND	ND	ND	ND	ND	0
50583	2015-11-05T14:00:00	9.4	ND	ND	ND	ND	ND	ND	ND	ND	ND	ND	0
50584	2015-11-05T15:00:00	12	ND	ND	ND	ND	ND	ND	ND	ND	ND	ND	0
50585	2015-11-05T16:00:00	48.4	ND	ND	ND	ND	ND	ND	ND	ND	ND	ND	0
50586	2015-11-05T17:00:00	16.2	ND	ND	ND	ND	ND	ND	ND	ND	ND	ND	0
50587	2015-11-05T18:00:00	4.1	ND	ND	ND	ND	ND	ND	ND	ND	ND	ND	0
50588	2015-11-05T19:00:00	ND	ND	ND	ND	ND	ND	ND	ND	ND	ND	ND	0
50589	2015-11-05T20:00:00	24.7	ND	ND	ND	ND	ND	ND	ND	ND	ND	ND	0
50590	2015-11-05T21:00:00	65.4	ND	ND	ND	ND	ND	ND	ND	ND	ND	ND	0.25
50591	2015-11-05T22:00:00	71.8	ND	ND	ND	ND	ND	ND	ND	ND	ND	ND	0
50592	2015-11-05T23:00:00	108.5	ND	ND	ND	ND	ND	ND	ND	ND	ND	ND	0.25
50593	2015-11-06T00:00:00	94.9	ND	ND	ND	ND	ND	ND	ND	ND	ND	ND	0
50594	2015-11-06T01:00:00	28.5	ND	ND	ND	ND	ND	ND	ND	ND	ND	ND	0
50595	2015-11-06T02:00:00	9.4	ND	ND	ND	ND	ND	ND	ND	ND	ND	ND	0
50596	2015-11-06T03:00:00	12	ND	ND	ND	ND	ND	ND	ND	ND	ND	ND	0
50597	2015-11-06T04:00:00	2	ND	ND	ND	ND	ND	ND	ND	ND	ND	ND	0.51
50598	2015-11-06T05:00:00	2.1	ND	ND	ND	ND	ND	ND	ND	ND	ND	ND	0.25
50599	2015-11-06T06:00:00	32.5	ND	ND	ND	ND	ND	ND	ND	ND	ND	ND	0
50600	2015-11-06T07:00:00	77.2	ND	ND	ND	ND	ND	ND	ND	ND	ND	ND	0
50601	2015-11-06T08:00:00	75.5	ND	ND	ND	ND	ND	ND	ND	ND	ND	ND	0
50602	2015-11-06T09:00:00	62.1	ND	ND	ND	ND	ND	ND	ND	ND	ND	ND	0
50603	2015-11-06T10:00:00	71.7	ND	ND	ND	ND	ND	ND	ND	ND	ND	ND	0
50604	2015-11-06T11:00:00	58.1	ND	ND	ND	ND	ND	ND	ND	ND	ND	ND	0
50605	2015-11-06T12:00:00	19	ND	ND	ND	ND	ND	ND	ND	ND	ND	ND	0
50606	2015-11-06T13:00:00	19.6	ND	ND	ND	ND	ND	ND	ND	ND	ND	ND	0
50607	2015-11-06T14:00:00	33.2	ND	ND	ND	ND	ND	ND	ND	ND	ND	ND	0
50608	2015-11-06T15:00:00	16.3	ND	ND	ND	ND	ND	ND	ND	ND	ND	ND	0
50609	2015-11-06T16:00:00	46.4	ND	ND	ND	ND	ND	ND	ND	ND	ND	ND	0
50610	2015-11-06T17:00:00	33	ND	ND	ND	ND	ND	ND	ND	ND	ND	ND	0
50611	2015-11-06T18:00:00	2.1	ND	ND	ND	ND	ND	ND	ND	ND	ND	ND	0
50612	2015-11-06T19:00:00	22.5	ND	ND	ND	ND	ND	ND	ND	ND	ND	ND	0
50613	2015-11-06T20:00:00	15.9	ND	ND	ND	ND	ND	ND	ND	ND	ND	ND	0
50614	2015-11-06T21:00:00	4.7	ND	ND	ND	ND	ND	ND	ND	ND	ND	ND	0
50615	2015-11-06T22:00:00	31.1	ND	ND	ND	ND	ND	ND	ND	ND	ND	ND	0
50616	2015-11-06T23:00:00	85	ND	ND	ND	ND	ND	ND	ND	ND	ND	ND	0
50617	2015-11-07T00:00:00	105.7	ND	ND	ND	ND	ND	ND	ND	ND	ND	ND	0
50618	2015-11-07T01:00:00	37.9	ND	ND	ND	ND	ND	ND	ND	ND	ND	ND	0
50619	2015-11-07T02:00:00	38.9	ND	ND	ND	ND	ND	ND	ND	ND	ND	ND	0
50620	2015-11-07T03:00:00	38.3	ND	ND	ND	ND	ND	ND	ND	ND	ND	ND	0
50621	2015-11-07T04:00:00	25.8	ND	ND	ND	ND	ND	ND	ND	ND	ND	ND	0
50622	2015-11-07T05:00:00	8.8	ND	ND	ND	ND	ND	ND	ND	ND	ND	ND	0
50623	2015-11-07T06:00:00	6.7	ND	ND	ND	ND	ND	ND	ND	ND	ND	ND	0
50624	2015-11-07T07:00:00	15.6	ND	ND	ND	ND	ND	ND	ND	ND	ND	ND	0
50625	2015-11-07T08:00:00	22.1	ND	ND	ND	ND	ND	ND	ND	ND	ND	ND	0
50626	2015-11-07T09:00:00	47.6	ND	ND	ND	ND	ND	ND	ND	ND	ND	ND	0
50627	2015-11-07T10:00:00	60.8	ND	ND	ND	ND	ND	ND	ND	ND	ND	ND	0
50628	2015-11-07T11:00:00	54.6	ND	ND	ND	ND	ND	ND	ND	ND	ND	ND	0
50629	2015-11-07T12:00:00	43	ND	ND	ND	ND	ND	ND	ND	ND	ND	ND	0
50630	2015-11-07T13:00:00	52.9	ND	ND	ND	ND	ND	ND	ND	ND	ND	ND	0
50631	2015-11-07T14:00:00	43.4	ND	ND	ND	ND	ND	ND	ND	ND	ND	ND	0
50632	2015-11-07T15:00:00	ND	ND	ND	ND	ND	ND	ND	ND	ND	ND	ND	ND
50633	2015-11-07T16:00:00	ND	ND	ND	ND	ND	ND	ND	ND	ND	ND	ND	ND
50634	2015-11-07T17:00:00	ND	ND	ND	ND	ND	ND	ND	ND	ND	ND	ND	ND
50635	2015-11-07T18:00:00	ND	ND	ND	ND	ND	ND	ND	ND	ND	ND	ND	ND
50636	2015-11-07T19:00:00	ND	ND	ND	ND	ND	ND	ND	ND	ND	ND	ND	ND
50637	2015-11-07T20:00:00	ND	ND	ND	ND	ND	ND	ND	ND	ND	ND	ND	ND
50638	2015-11-07T21:00:00	ND	ND	ND	ND	ND	ND	ND	ND	ND	ND	ND	ND
50639	2015-11-07T22:00:00	ND	ND	ND	ND	ND	ND	ND	ND	ND	ND	ND	ND
50640	2015-11-07T23:00:00	ND	ND	ND	ND	ND	ND	ND	ND	ND	ND	ND	ND
50641	2015-11-08T00:00:00	ND	ND	ND	ND	ND	ND	ND	ND	ND	ND	ND	ND
50642	2015-11-08T01:00:00	ND	ND	ND	ND	ND	ND	ND	ND	ND	ND	ND	ND
50643	2015-11-08T02:00:00	ND	ND	ND	ND	ND	ND	ND	ND	ND	ND	ND	ND
50644	2015-11-08T03:00:00	ND	ND	ND	ND	ND	ND	ND	ND	ND	ND	ND	ND
50645	2015-11-08T04:00:00	ND	ND	ND	ND	ND	ND	ND	ND	ND	ND	ND	ND
50646	2015-11-08T05:00:00	ND	ND	ND	ND	ND	ND	ND	ND	ND	ND	ND	ND
50647	2015-11-08T06:00:00	ND	ND	ND	ND	ND	ND	ND	ND	ND	ND	ND	ND
50648	2015-11-08T07:00:00	ND	ND	ND	ND	ND	ND	ND	ND	ND	ND	ND	ND
50649	2015-11-08T08:00:00	ND	ND	ND	ND	ND	ND	ND	ND	ND	ND	ND	ND
50650	2015-11-08T09:00:00	ND	ND	ND	ND	ND	ND	ND	ND	ND	ND	ND	ND
50651	2015-11-08T10:00:00	ND	ND	ND	ND	ND	ND	ND	ND	ND	ND	ND	ND
50652	2015-11-08T11:00:00	ND	ND	ND	ND	ND	ND	ND	ND	ND	ND	ND	ND
50653	2015-11-08T12:00:00	ND	ND	ND	ND	ND	ND	ND	ND	ND	ND	ND	ND
50654	2015-11-08T13:00:00	ND	ND	ND	ND	ND	ND	ND	ND	ND	ND	ND	ND
50655	2015-11-08T14:00:00	ND	ND	ND	ND	ND	ND	ND	ND	ND	ND	ND	ND
50656	2015-11-08T15:00:00	ND	ND	ND	ND	ND	ND	ND	ND	ND	ND	ND	ND
50657	2015-11-08T16:00:00	ND	ND	ND	ND	ND	ND	ND	ND	ND	ND	ND	ND
50658	2015-11-08T17:00:00	ND	ND	ND	ND	ND	ND	ND	ND	ND	ND	ND	ND
50659	2015-11-08T18:00:00	ND	ND	ND	ND	ND	ND	ND	ND	ND	ND	ND	ND
50660	2015-11-08T19:00:00	ND	ND	ND	ND	ND	ND	ND	ND	ND	ND	ND	ND
50661	2015-11-08T20:00:00	ND	ND	ND	ND	ND	ND	ND	ND	ND	ND	ND	ND
50662	2015-11-08T21:00:00	ND	ND	ND	ND	ND	ND	ND	ND	ND	ND	ND	ND
50663	2015-11-08T22:00:00	ND	ND	ND	ND	ND	ND	ND	ND	ND	ND	ND	ND
50664	2015-11-08T23:00:00	ND	ND	ND	ND	ND	ND	ND	ND	ND	ND	ND	ND
50665	2015-11-09T00:00:00	ND	ND	ND	ND	ND	ND	ND	ND	ND	ND	ND	ND
50666	2015-11-09T01:00:00	ND	ND	ND	ND	ND	ND	ND	ND	ND	ND	ND	ND
50667	2015-11-09T02:00:00	ND	ND	ND	ND	ND	ND	ND	ND	ND	ND	ND	ND
50668	2015-11-09T03:00:00	ND	ND	ND	ND	ND	ND	ND	ND	ND	ND	ND	ND
50669	2015-11-09T04:00:00	ND	ND	ND	ND	ND	ND	ND	ND	ND	ND	ND	ND
50670	2015-11-09T05:00:00	ND	ND	ND	ND	ND	ND	ND	ND	ND	ND	ND	ND
50671	2015-11-09T06:00:00	ND	ND	ND	ND	ND	ND	ND	ND	ND	ND	ND	ND
50672	2015-11-09T07:00:00	ND	ND	ND	ND	ND	ND	ND	ND	ND	ND	ND	ND
50673	2015-11-09T08:00:00	ND	ND	ND	ND	ND	ND	ND	ND	ND	ND	ND	ND
50674	2015-11-09T09:00:00	ND	ND	ND	ND	ND	ND	ND	ND	ND	ND	ND	ND
50675	2015-11-09T10:00:00	43.3	ND	ND	ND	ND	ND	ND	ND	ND	ND	ND	0
50676	2015-11-09T11:00:00	85.1	ND	ND	ND	ND	ND	ND	ND	ND	ND	ND	0
50677	2015-11-09T12:00:00	77.6	ND	ND	ND	ND	ND	ND	ND	ND	ND	ND	0
50678	2015-11-09T13:00:00	152.2	ND	ND	ND	ND	ND	ND	ND	ND	ND	ND	0
50679	2015-11-09T14:00:00	44.9	ND	ND	ND	ND	ND	ND	ND	ND	ND	ND	0
50680	2015-11-09T15:00:00	6.1	ND	ND	ND	ND	ND	ND	ND	ND	ND	ND	0
50681	2015-11-09T16:00:00	ND	ND	ND	ND	ND	ND	ND	ND	ND	ND	ND	2.03
50682	2015-11-09T17:00:00	15.3	ND	ND	ND	ND	ND	ND	ND	ND	ND	ND	0
50683	2015-11-09T18:00:00	2.9	ND	ND	ND	ND	ND	ND	ND	ND	ND	ND	0
50684	2015-11-09T19:00:00	4	ND	ND	ND	ND	ND	ND	ND	ND	ND	ND	0
50685	2015-11-09T20:00:00	38	ND	ND	ND	ND	ND	ND	ND	ND	ND	ND	0
50686	2015-11-09T21:00:00	102.4	ND	ND	ND	ND	ND	ND	ND	ND	ND	ND	0
50687	2015-11-09T22:00:00	99.9	ND	ND	ND	ND	ND	ND	ND	ND	ND	ND	0
50688	2015-11-09T23:00:00	67.2	ND	ND	ND	ND	ND	ND	ND	ND	ND	ND	0
50689	2015-11-10T00:00:00	92.3	ND	ND	ND	ND	ND	ND	ND	ND	ND	ND	0
50690	2015-11-10T01:00:00	79	ND	ND	ND	ND	ND	ND	ND	ND	ND	ND	0
50691	2015-11-10T02:00:00	68.8	ND	ND	ND	ND	ND	ND	ND	ND	ND	ND	0
50692	2015-11-10T03:00:00	78.3	ND	ND	ND	ND	ND	ND	ND	ND	ND	ND	0
50693	2015-11-10T04:00:00	78.2	ND	ND	ND	ND	ND	ND	ND	ND	ND	ND	0
50694	2015-11-10T05:00:00	59.3	ND	ND	ND	ND	ND	ND	ND	ND	ND	ND	0
50695	2015-11-10T06:00:00	31.8	ND	ND	ND	ND	ND	ND	ND	ND	ND	ND	0
50696	2015-11-10T07:00:00	81.5	ND	ND	ND	ND	ND	ND	ND	ND	ND	ND	0
50697	2015-11-10T08:00:00	103.4	ND	ND	ND	ND	ND	ND	ND	ND	ND	ND	0
50698	2015-11-10T09:00:00	105.9	ND	ND	ND	ND	ND	ND	ND	ND	ND	ND	0
50699	2015-11-10T10:00:00	103.4	ND	ND	ND	ND	ND	ND	ND	ND	ND	ND	0
50700	2015-11-10T11:00:00	74.9	ND	ND	ND	ND	ND	ND	ND	ND	ND	ND	0
50701	2015-11-10T12:00:00	44	ND	ND	ND	ND	ND	ND	ND	ND	ND	ND	0
50702	2015-11-10T13:00:00	55.2	ND	ND	ND	ND	ND	ND	ND	ND	ND	ND	0
50703	2015-11-10T14:00:00	57.3	ND	ND	ND	ND	ND	ND	ND	ND	ND	ND	0
50704	2015-11-10T15:00:00	68.4	ND	ND	ND	ND	ND	ND	ND	ND	ND	ND	0
50705	2015-11-10T16:00:00	24.9	ND	ND	ND	ND	ND	ND	ND	ND	ND	ND	0
50706	2015-11-10T17:00:00	ND	ND	ND	ND	ND	ND	ND	ND	ND	ND	ND	0
50707	2015-11-10T18:00:00	1.5	ND	ND	ND	ND	ND	ND	ND	ND	ND	ND	0
50708	2015-11-10T19:00:00	1.2	ND	ND	ND	ND	ND	ND	ND	ND	ND	ND	0
50709	2015-11-10T20:00:00	23.9	ND	ND	ND	ND	ND	ND	ND	ND	ND	ND	0
50710	2015-11-10T21:00:00	40.2	ND	ND	ND	ND	ND	ND	ND	ND	ND	ND	0
50711	2015-11-10T22:00:00	87.1	ND	ND	ND	ND	ND	ND	ND	ND	ND	ND	0
50712	2015-11-10T23:00:00	58.8	ND	ND	ND	ND	ND	ND	ND	ND	ND	ND	0
50713	2015-11-11T00:00:00	52.7	ND	ND	ND	ND	ND	ND	ND	ND	ND	ND	0
50714	2015-11-11T01:00:00	51.5	ND	ND	ND	ND	ND	ND	ND	ND	ND	ND	0
50715	2015-11-11T02:00:00	41.7	ND	ND	ND	ND	ND	ND	ND	ND	ND	ND	0
50716	2015-11-11T03:00:00	43.9	ND	ND	ND	ND	ND	ND	ND	ND	ND	ND	0
50717	2015-11-11T04:00:00	49.7	ND	ND	ND	ND	ND	ND	ND	ND	ND	ND	5.08
50718	2015-11-11T05:00:00	29	ND	ND	ND	ND	ND	ND	ND	ND	ND	ND	0.51
50719	2015-11-11T06:00:00	41.8	ND	ND	ND	ND	ND	ND	ND	ND	ND	ND	0.25
50720	2015-11-11T07:00:00	63.9	ND	ND	ND	ND	ND	ND	ND	ND	ND	ND	0.25
50721	2015-11-11T08:00:00	61.8	ND	ND	ND	ND	ND	ND	ND	ND	ND	ND	0.25
50722	2015-11-11T09:00:00	73.9	ND	ND	ND	ND	ND	ND	ND	ND	ND	ND	0
50723	2015-11-11T10:00:00	71.1	ND	ND	ND	ND	ND	ND	ND	ND	ND	ND	0
50724	2015-11-11T11:00:00	84.5	ND	ND	ND	ND	ND	ND	ND	ND	ND	ND	0
50725	2015-11-11T12:00:00	66.9	ND	ND	ND	ND	ND	ND	ND	ND	ND	ND	0
50726	2015-11-11T13:00:00	40.1	ND	ND	ND	ND	ND	ND	ND	ND	ND	ND	0
50727	2015-11-11T14:00:00	39.8	ND	ND	ND	ND	ND	ND	ND	ND	ND	ND	0
50728	2015-11-11T15:00:00	40.7	ND	ND	ND	ND	ND	ND	ND	ND	ND	ND	0
50729	2015-11-11T16:00:00	53.3	ND	ND	ND	ND	ND	ND	ND	ND	ND	ND	0
50730	2015-11-11T17:00:00	60.9	ND	ND	ND	ND	ND	ND	ND	ND	ND	ND	0
50731	2015-11-11T18:00:00	42.2	ND	ND	ND	ND	ND	ND	ND	ND	ND	ND	0
50732	2015-11-11T19:00:00	71	ND	ND	ND	ND	ND	ND	ND	ND	ND	ND	0
50733	2015-11-11T20:00:00	6.8	ND	ND	ND	ND	ND	ND	ND	ND	ND	ND	0
50734	2015-11-11T21:00:00	ND	ND	ND	ND	ND	ND	ND	ND	ND	ND	ND	0
50735	2015-11-11T22:00:00	29.3	ND	ND	ND	ND	ND	ND	ND	ND	ND	ND	0
50736	2015-11-11T23:00:00	87.1	ND	ND	ND	ND	ND	ND	ND	ND	ND	ND	0
50737	2015-11-12T00:00:00	77.2	ND	ND	ND	ND	ND	ND	ND	ND	ND	ND	0
50738	2015-11-12T01:00:00	40.2	ND	ND	ND	ND	ND	ND	ND	ND	ND	ND	0
50739	2015-11-12T02:00:00	38.5	ND	ND	ND	ND	ND	ND	ND	ND	ND	ND	0
50740	2015-11-12T03:00:00	32.9	ND	ND	ND	ND	ND	ND	ND	ND	ND	ND	0
50741	2015-11-12T04:00:00	53	ND	ND	ND	ND	ND	ND	ND	ND	ND	ND	0
50742	2015-11-12T05:00:00	59.9	ND	ND	ND	ND	ND	ND	ND	ND	ND	ND	0
50743	2015-11-12T06:00:00	63.7	ND	ND	ND	ND	ND	ND	ND	ND	ND	ND	0
50744	2015-11-12T07:00:00	74.1	ND	ND	ND	ND	ND	ND	ND	ND	ND	ND	0
50745	2015-11-12T08:00:00	113.5	ND	ND	ND	ND	ND	ND	ND	ND	ND	ND	0
50746	2015-11-12T09:00:00	99.1	ND	ND	ND	ND	ND	ND	ND	ND	ND	ND	0
50747	2015-11-12T10:00:00	119.4	ND	ND	ND	ND	ND	ND	ND	ND	ND	ND	0
50748	2015-11-12T11:00:00	71.8	ND	ND	ND	ND	ND	ND	ND	ND	ND	ND	0
50749	2015-11-12T12:00:00	39.3	ND	ND	ND	ND	ND	ND	ND	ND	ND	ND	0
50750	2015-11-12T13:00:00	44.1	ND	ND	ND	ND	ND	ND	ND	ND	ND	ND	0
50751	2015-11-12T14:00:00	56	ND	ND	ND	ND	ND	ND	ND	ND	ND	ND	0
50752	2015-11-12T15:00:00	55.3	ND	ND	ND	ND	ND	ND	ND	ND	ND	ND	0
50753	2015-11-12T16:00:00	43.2	ND	ND	ND	ND	ND	ND	ND	ND	ND	ND	0
50754	2015-11-12T17:00:00	10.8	ND	ND	ND	ND	ND	ND	ND	ND	ND	ND	0
50755	2015-11-12T18:00:00	ND	ND	ND	ND	ND	ND	ND	ND	ND	ND	ND	0
50756	2015-11-12T19:00:00	3.8	ND	ND	ND	ND	ND	ND	ND	ND	ND	ND	0
50757	2015-11-12T20:00:00	31.8	ND	ND	ND	ND	ND	ND	ND	ND	ND	ND	0
50758	2015-11-12T21:00:00	46.5	ND	ND	ND	ND	ND	ND	ND	ND	ND	ND	0
50759	2015-11-12T22:00:00	57.2	ND	ND	ND	ND	ND	ND	ND	ND	ND	ND	0
50760	2015-11-12T23:00:00	39.8	ND	ND	ND	ND	ND	ND	ND	ND	ND	ND	0
50761	2015-11-13T00:00:00	17.1	ND	ND	ND	ND	ND	ND	ND	ND	ND	ND	0
50762	2015-11-13T01:00:00	56.1	ND	ND	ND	ND	ND	ND	ND	ND	ND	ND	0
50763	2015-11-13T02:00:00	61.2	ND	ND	ND	ND	ND	ND	ND	ND	ND	ND	0
50764	2015-11-13T03:00:00	60.2	ND	ND	ND	ND	ND	ND	ND	ND	ND	ND	0
50765	2015-11-13T04:00:00	56.1	ND	ND	ND	ND	ND	ND	ND	ND	ND	ND	0
50766	2015-11-13T05:00:00	68.5	ND	ND	ND	ND	ND	ND	ND	ND	ND	ND	0
50767	2015-11-13T06:00:00	68	ND	ND	ND	ND	ND	ND	ND	ND	ND	ND	0
50768	2015-11-13T07:00:00	59.1	ND	ND	ND	ND	ND	ND	ND	ND	ND	ND	0
50769	2015-11-13T08:00:00	75.9	ND	ND	ND	ND	ND	ND	ND	ND	ND	ND	0
50770	2015-11-13T09:00:00	96.9	ND	ND	ND	ND	ND	ND	ND	ND	ND	ND	0
50771	2015-11-13T10:00:00	90.8	ND	ND	ND	ND	ND	ND	ND	ND	ND	ND	0
50772	2015-11-13T11:00:00	70.9	ND	ND	ND	ND	ND	ND	ND	ND	ND	ND	0
50773	2015-11-13T12:00:00	53.4	ND	ND	ND	ND	ND	ND	ND	ND	ND	ND	0
50774	2015-11-13T13:00:00	62.5	ND	ND	ND	ND	ND	ND	ND	ND	ND	ND	0
50775	2015-11-13T14:00:00	73.7	ND	ND	ND	ND	ND	ND	ND	ND	ND	ND	0
50776	2015-11-13T15:00:00	77.2	ND	ND	ND	ND	ND	ND	ND	ND	ND	ND	0
50777	2015-11-13T16:00:00	74.8	ND	ND	ND	ND	ND	ND	ND	ND	ND	ND	0
50778	2015-11-13T17:00:00	50.2	ND	ND	ND	ND	ND	ND	ND	ND	ND	ND	0
50779	2015-11-13T18:00:00	16.1	ND	ND	ND	ND	ND	ND	ND	ND	ND	ND	0
50780	2015-11-13T19:00:00	3	ND	ND	ND	ND	ND	ND	ND	ND	ND	ND	0
50781	2015-11-13T20:00:00	1.6	ND	ND	ND	ND	ND	ND	ND	ND	ND	ND	0
50782	2015-11-13T21:00:00	17.4	ND	ND	ND	ND	ND	ND	ND	ND	ND	ND	0
50783	2015-11-13T22:00:00	67	ND	ND	ND	ND	ND	ND	ND	ND	ND	ND	0
50784	2015-11-13T23:00:00	78.3	ND	ND	ND	ND	ND	ND	ND	ND	ND	ND	0
50785	2015-11-14T00:00:00	43.9	ND	ND	ND	ND	ND	ND	ND	ND	ND	ND	0
50786	2015-11-14T01:00:00	57.7	ND	ND	ND	ND	ND	ND	ND	ND	ND	ND	0
50787	2015-11-14T02:00:00	61.1	ND	ND	ND	ND	ND	ND	ND	ND	ND	ND	0
50788	2015-11-14T03:00:00	35.8	ND	ND	ND	ND	ND	ND	ND	ND	ND	ND	0
50789	2015-11-14T04:00:00	38.8	ND	ND	ND	ND	ND	ND	ND	ND	ND	ND	0
50790	2015-11-14T05:00:00	56.4	ND	ND	ND	ND	ND	ND	ND	ND	ND	ND	0
50791	2015-11-14T06:00:00	38.8	ND	ND	ND	ND	ND	ND	ND	ND	ND	ND	0
50792	2015-11-14T07:00:00	65.8	ND	ND	ND	ND	ND	ND	ND	ND	ND	ND	0
50793	2015-11-14T08:00:00	66.9	ND	ND	ND	ND	ND	ND	ND	ND	ND	ND	0
50794	2015-11-14T09:00:00	62.8	ND	ND	ND	ND	ND	ND	ND	ND	ND	ND	0
50795	2015-11-14T10:00:00	82.6	ND	ND	ND	ND	ND	ND	ND	ND	ND	ND	0
50796	2015-11-14T11:00:00	122.1	ND	ND	ND	ND	ND	ND	ND	ND	ND	ND	0
50797	2015-11-14T12:00:00	72.5	ND	ND	ND	ND	ND	ND	ND	ND	ND	ND	0
50798	2015-11-14T13:00:00	50.6	ND	ND	ND	ND	ND	ND	ND	ND	ND	ND	0
50799	2015-11-14T14:00:00	40.3	ND	ND	ND	ND	ND	ND	ND	ND	ND	ND	0
50800	2015-11-14T15:00:00	22.9	ND	ND	ND	ND	ND	ND	ND	ND	ND	ND	0
50801	2015-11-14T16:00:00	83	ND	ND	ND	ND	ND	ND	ND	ND	ND	ND	0
50802	2015-11-14T17:00:00	29.4	ND	ND	ND	ND	ND	ND	ND	ND	ND	ND	0
50803	2015-11-14T18:00:00	2.7	ND	ND	ND	ND	ND	ND	ND	ND	ND	ND	0
50804	2015-11-14T19:00:00	ND	ND	ND	ND	ND	ND	ND	ND	ND	ND	ND	0
50805	2015-11-14T20:00:00	9.4	ND	ND	ND	ND	ND	ND	ND	ND	ND	ND	0
50806	2015-11-14T21:00:00	19.5	ND	ND	ND	ND	ND	ND	ND	ND	ND	ND	0
50807	2015-11-14T22:00:00	23.5	ND	ND	ND	ND	ND	ND	ND	ND	ND	ND	0
50808	2015-11-14T23:00:00	48.1	ND	ND	ND	ND	ND	ND	ND	ND	ND	ND	0
50809	2015-11-15T00:00:00	39.8	ND	ND	ND	ND	ND	ND	ND	ND	ND	ND	0
50810	2015-11-15T01:00:00	35.6	ND	ND	ND	ND	ND	ND	ND	ND	ND	ND	0
50811	2015-11-15T02:00:00	66.8	ND	ND	ND	ND	ND	ND	ND	ND	ND	ND	0
50812	2015-11-15T03:00:00	32.7	ND	ND	ND	ND	ND	ND	ND	ND	ND	ND	0
50813	2015-11-15T04:00:00	38.8	ND	ND	ND	ND	ND	ND	ND	ND	ND	ND	0
50814	2015-11-15T05:00:00	50.3	ND	ND	ND	ND	ND	ND	ND	ND	ND	ND	0
50815	2015-11-15T06:00:00	45.3	ND	ND	ND	ND	ND	ND	ND	ND	ND	ND	0
50816	2015-11-15T07:00:00	49.7	ND	ND	ND	ND	ND	ND	ND	ND	ND	ND	0
50817	2015-11-15T08:00:00	65.2	ND	ND	ND	ND	ND	ND	ND	ND	ND	ND	0
50818	2015-11-15T09:00:00	51.6	ND	ND	ND	ND	ND	ND	ND	ND	ND	ND	0
50819	2015-11-15T10:00:00	75.3	ND	ND	ND	ND	ND	ND	ND	ND	ND	ND	0
50820	2015-11-15T11:00:00	96.6	ND	ND	ND	ND	ND	ND	ND	ND	ND	ND	0
50821	2015-11-15T12:00:00	84.1	ND	ND	ND	ND	ND	ND	ND	ND	ND	ND	0
50822	2015-11-15T13:00:00	69.8	ND	ND	ND	ND	ND	ND	ND	ND	ND	ND	0
50823	2015-11-15T14:00:00	60.6	ND	ND	ND	ND	ND	ND	ND	ND	ND	ND	0
50824	2015-11-15T15:00:00	13.5	ND	ND	ND	ND	ND	ND	ND	ND	ND	ND	0
50825	2015-11-15T16:00:00	22	ND	ND	ND	ND	ND	ND	ND	ND	ND	ND	0
50826	2015-11-15T17:00:00	ND	ND	ND	ND	ND	ND	ND	ND	ND	ND	ND	0
50827	2015-11-15T18:00:00	ND	ND	ND	ND	ND	ND	ND	ND	ND	ND	ND	0
50828	2015-11-15T19:00:00	ND	ND	ND	ND	ND	ND	ND	ND	ND	ND	ND	0
50829	2015-11-15T20:00:00	10.8	ND	ND	ND	ND	ND	ND	ND	ND	ND	ND	0
50830	2015-11-15T21:00:00	ND	ND	ND	ND	ND	ND	ND	ND	ND	ND	ND	0
50831	2015-11-15T22:00:00	9.2	ND	ND	ND	ND	ND	ND	ND	ND	ND	ND	0
50832	2015-11-15T23:00:00	61	ND	ND	ND	ND	ND	ND	ND	ND	ND	ND	0
50833	2015-11-16T00:00:00	55.1	ND	ND	ND	ND	ND	ND	ND	ND	ND	ND	0
50834	2015-11-16T01:00:00	67.6	ND	ND	ND	ND	ND	ND	ND	ND	ND	ND	0
50835	2015-11-16T02:00:00	80.5	ND	ND	ND	ND	ND	ND	ND	ND	ND	ND	0
50836	2015-11-16T03:00:00	52.8	ND	ND	ND	ND	ND	ND	ND	ND	ND	ND	0
50837	2015-11-16T04:00:00	45.5	ND	ND	ND	ND	ND	ND	ND	ND	ND	ND	0
50838	2015-11-16T05:00:00	27.8	ND	ND	ND	ND	ND	ND	ND	ND	ND	ND	0
50839	2015-11-16T06:00:00	28.4	ND	ND	ND	ND	ND	ND	ND	ND	ND	ND	0
50840	2015-11-16T07:00:00	25.1	ND	ND	ND	ND	ND	ND	ND	ND	ND	ND	0
50841	2015-11-16T08:00:00	14.7	ND	ND	ND	ND	ND	ND	ND	ND	ND	ND	0
50842	2015-11-16T09:00:00	91.6	ND	ND	ND	ND	ND	ND	ND	ND	ND	ND	0
50843	2015-11-16T10:00:00	90.4	ND	ND	ND	ND	ND	ND	ND	ND	ND	ND	0
50844	2015-11-16T11:00:00	2	ND	ND	ND	ND	ND	ND	ND	ND	ND	ND	0
50845	2015-11-16T12:00:00	16.7	ND	ND	ND	ND	ND	ND	ND	ND	ND	ND	0
50846	2015-11-16T13:00:00	68.1	ND	ND	ND	ND	ND	ND	ND	ND	ND	ND	0
50847	2015-11-16T14:00:00	59.3	ND	ND	ND	ND	ND	ND	ND	ND	ND	ND	0
50848	2015-11-16T15:00:00	52.4	ND	ND	ND	ND	ND	ND	ND	ND	ND	ND	0
50849	2015-11-16T16:00:00	36.7	ND	ND	ND	ND	ND	ND	ND	ND	ND	ND	0
50850	2015-11-16T17:00:00	8.5	ND	ND	ND	ND	ND	ND	ND	ND	ND	ND	0
50851	2015-11-16T18:00:00	ND	ND	ND	ND	ND	ND	ND	ND	ND	ND	ND	0
50852	2015-11-16T19:00:00	25.6	ND	ND	ND	ND	ND	ND	ND	ND	ND	ND	0
50853	2015-11-16T20:00:00	35.9	ND	ND	ND	ND	ND	ND	ND	ND	ND	ND	0
50854	2015-11-16T21:00:00	15.5	ND	ND	ND	ND	ND	ND	ND	ND	ND	ND	0
50855	2015-11-16T22:00:00	53.4	ND	ND	ND	ND	ND	ND	ND	ND	ND	ND	0
50856	2015-11-16T23:00:00	55.6	ND	ND	ND	ND	ND	ND	ND	ND	ND	ND	0
50857	2015-11-17T00:00:00	45.6	ND	ND	ND	ND	ND	ND	ND	ND	ND	ND	12.19
50858	2015-11-17T01:00:00	43.5	ND	ND	ND	ND	ND	ND	ND	ND	ND	ND	7.62
50859	2015-11-17T02:00:00	32.6	ND	ND	ND	ND	ND	ND	ND	ND	ND	ND	15.24
50860	2015-11-17T03:00:00	22.8	ND	ND	ND	ND	ND	ND	ND	ND	ND	ND	0.25
50861	2015-11-17T04:00:00	63.3	ND	ND	ND	ND	ND	ND	ND	ND	ND	ND	4.06
50862	2015-11-17T05:00:00	31.1	ND	ND	ND	ND	ND	ND	ND	ND	ND	ND	1.52
50863	2015-11-17T06:00:00	3.2	ND	ND	ND	ND	ND	ND	ND	ND	ND	ND	0.25
50864	2015-11-17T07:00:00	3.3	ND	ND	ND	ND	ND	ND	ND	ND	ND	ND	0
50865	2015-11-17T08:00:00	26.5	ND	ND	ND	ND	ND	ND	ND	ND	ND	ND	0
50866	2015-11-17T09:00:00	65.1	ND	ND	ND	ND	ND	ND	ND	ND	ND	ND	0
50867	2015-11-17T10:00:00	56	ND	ND	ND	ND	ND	ND	ND	ND	ND	ND	0
50868	2015-11-17T11:00:00	57.8	ND	ND	ND	ND	ND	ND	ND	ND	ND	ND	0
50869	2015-11-17T12:00:00	62	ND	ND	ND	ND	ND	ND	ND	ND	ND	ND	0
50870	2015-11-17T13:00:00	25.9	ND	ND	ND	ND	ND	ND	ND	ND	ND	ND	0
50871	2015-11-17T14:00:00	41.9	ND	ND	ND	ND	ND	ND	ND	ND	ND	ND	0
50872	2015-11-17T15:00:00	39.4	ND	ND	ND	ND	ND	ND	ND	ND	ND	ND	0
50873	2015-11-17T16:00:00	52.2	ND	ND	ND	ND	ND	ND	ND	ND	ND	ND	0
50874	2015-11-17T17:00:00	51.3	ND	ND	ND	ND	ND	ND	ND	ND	ND	ND	0
50875	2015-11-17T18:00:00	35.7	ND	ND	ND	ND	ND	ND	ND	ND	ND	ND	0
50876	2015-11-17T19:00:00	56	ND	ND	ND	ND	ND	ND	ND	ND	ND	ND	0
50877	2015-11-17T20:00:00	42.2	ND	ND	ND	ND	ND	ND	ND	ND	ND	ND	0
50878	2015-11-17T21:00:00	18.8	ND	ND	ND	ND	ND	ND	ND	ND	ND	ND	0
50879	2015-11-17T22:00:00	30.1	ND	ND	ND	ND	ND	ND	ND	ND	ND	ND	0
50880	2015-11-17T23:00:00	40.3	ND	ND	ND	ND	ND	ND	ND	ND	ND	ND	0
50881	2015-11-18T00:00:00	34.4	ND	ND	ND	ND	ND	ND	ND	ND	ND	ND	1.27
50882	2015-11-18T01:00:00	29.6	ND	ND	ND	ND	ND	ND	ND	ND	ND	ND	0
50883	2015-11-18T02:00:00	15.8	ND	ND	ND	ND	ND	ND	ND	ND	ND	ND	0.25
50884	2015-11-18T03:00:00	5.4	ND	ND	ND	ND	ND	ND	ND	ND	ND	ND	0.25
50885	2015-11-18T04:00:00	19.9	ND	ND	ND	ND	ND	ND	ND	ND	ND	ND	31.5
50886	2015-11-18T05:00:00	11.3	ND	ND	ND	ND	ND	ND	ND	ND	ND	ND	15.49
50887	2015-11-18T06:00:00	3.5	ND	ND	ND	ND	ND	ND	ND	ND	ND	ND	0.25
50888	2015-11-18T07:00:00	19.2	ND	ND	ND	ND	ND	ND	ND	ND	ND	ND	1.02
50889	2015-11-18T08:00:00	30.9	ND	ND	ND	ND	ND	ND	ND	ND	ND	ND	0.25
50890	2015-11-18T09:00:00	48	ND	ND	ND	ND	ND	ND	ND	ND	ND	ND	0
50891	2015-11-18T10:00:00	29.7	ND	ND	ND	ND	ND	ND	ND	ND	ND	ND	0
50892	2015-11-18T11:00:00	36.3	ND	ND	ND	ND	ND	ND	ND	ND	ND	ND	0
50893	2015-11-18T12:00:00	59.8	ND	ND	ND	ND	ND	ND	ND	ND	ND	ND	0
50894	2015-11-18T13:00:00	60.8	ND	ND	ND	ND	ND	ND	ND	ND	ND	ND	0
50895	2015-11-18T14:00:00	70.8	ND	ND	ND	ND	ND	ND	ND	ND	ND	ND	0
50896	2015-11-18T15:00:00	49	ND	ND	ND	ND	ND	ND	ND	ND	ND	ND	0
50897	2015-11-18T16:00:00	57.2	ND	ND	ND	ND	ND	ND	ND	ND	ND	ND	2.54
50898	2015-11-18T17:00:00	6.9	ND	ND	ND	ND	ND	ND	ND	ND	ND	ND	0
50899	2015-11-18T18:00:00	ND	ND	ND	ND	ND	ND	ND	ND	ND	ND	ND	0
50900	2015-11-18T19:00:00	52.1	ND	ND	ND	ND	ND	ND	ND	ND	ND	ND	0
50901	2015-11-18T20:00:00	95.2	ND	ND	ND	ND	ND	ND	ND	ND	ND	ND	0
50902	2015-11-18T21:00:00	92.6	ND	ND	ND	ND	ND	ND	ND	ND	ND	ND	0
50903	2015-11-18T22:00:00	75.4	ND	ND	ND	ND	ND	ND	ND	ND	ND	ND	0
50904	2015-11-18T23:00:00	60.4	ND	ND	ND	ND	ND	ND	ND	ND	ND	ND	0
50905	2015-11-19T00:00:00	25.2	ND	ND	ND	ND	ND	ND	ND	ND	ND	ND	0
50906	2015-11-19T01:00:00	18.6	ND	ND	ND	ND	ND	ND	ND	ND	ND	ND	0
50907	2015-11-19T02:00:00	52.7	ND	ND	ND	ND	ND	ND	ND	ND	ND	ND	0
50908	2015-11-19T03:00:00	60.8	ND	ND	ND	ND	ND	ND	ND	ND	ND	ND	0
50909	2015-11-19T04:00:00	33.3	ND	ND	ND	ND	ND	ND	ND	ND	ND	ND	0
50910	2015-11-19T05:00:00	30.6	ND	ND	ND	ND	ND	ND	ND	ND	ND	ND	0
50911	2015-11-19T06:00:00	32.9	ND	ND	ND	ND	ND	ND	ND	ND	ND	ND	0
50912	2015-11-19T07:00:00	42	ND	ND	ND	ND	ND	ND	ND	ND	ND	ND	0
50913	2015-11-19T08:00:00	65.7	ND	ND	ND	ND	ND	ND	ND	ND	ND	ND	0
50914	2015-11-19T09:00:00	62.7	ND	ND	ND	ND	ND	ND	ND	ND	ND	ND	0
50915	2015-11-19T10:00:00	59.2	ND	ND	ND	ND	ND	ND	ND	ND	ND	ND	0
50916	2015-11-19T11:00:00	75.6	ND	ND	ND	ND	ND	ND	ND	ND	ND	ND	0
50917	2015-11-19T12:00:00	53	ND	ND	ND	ND	ND	ND	ND	ND	ND	ND	0
50918	2015-11-19T13:00:00	48.5	ND	ND	ND	ND	ND	ND	ND	ND	ND	ND	0
50919	2015-11-19T14:00:00	29.7	ND	ND	ND	ND	ND	ND	ND	ND	ND	ND	0
50920	2015-11-19T15:00:00	68.3	ND	ND	ND	ND	ND	ND	ND	ND	ND	ND	0
50921	2015-11-19T16:00:00	49.6	ND	ND	ND	ND	ND	ND	ND	ND	ND	ND	0
50922	2015-11-19T17:00:00	35.3	ND	ND	ND	ND	ND	ND	ND	ND	ND	ND	0
50923	2015-11-19T18:00:00	3.9	ND	ND	ND	ND	ND	ND	ND	ND	ND	ND	0
50924	2015-11-19T19:00:00	6.7	ND	ND	ND	ND	ND	ND	ND	ND	ND	ND	0
50925	2015-11-19T20:00:00	12.9	ND	ND	ND	ND	ND	ND	ND	ND	ND	ND	0
50926	2015-11-19T21:00:00	40.3	ND	ND	ND	ND	ND	ND	ND	ND	ND	ND	0
50927	2015-11-19T22:00:00	67.4	ND	ND	ND	ND	ND	ND	ND	ND	ND	ND	0
50928	2015-11-19T23:00:00	48.6	ND	ND	ND	ND	ND	ND	ND	ND	ND	ND	0
50929	2015-11-20T00:00:00	31.3	ND	ND	ND	ND	ND	ND	ND	ND	ND	ND	0
50930	2015-11-20T01:00:00	37.7	ND	ND	ND	ND	ND	ND	ND	ND	ND	ND	0
50931	2015-11-20T02:00:00	38.8	ND	ND	ND	ND	ND	ND	ND	ND	ND	ND	0
50932	2015-11-20T03:00:00	41.6	ND	ND	ND	ND	ND	ND	ND	ND	ND	ND	0
50933	2015-11-20T04:00:00	29.1	ND	ND	ND	ND	ND	ND	ND	ND	ND	ND	0
50934	2015-11-20T05:00:00	28.7	ND	ND	ND	ND	ND	ND	ND	ND	ND	ND	0
50935	2015-11-20T06:00:00	50.5	ND	ND	ND	ND	ND	ND	ND	ND	ND	ND	0
50936	2015-11-20T07:00:00	65.3	ND	ND	ND	ND	ND	ND	ND	ND	ND	ND	0
50937	2015-11-20T08:00:00	70.1	ND	ND	ND	ND	ND	ND	ND	ND	ND	ND	0
50938	2015-11-20T09:00:00	70	ND	ND	ND	ND	ND	ND	ND	ND	ND	ND	0
50939	2015-11-20T10:00:00	49.9	ND	ND	ND	ND	ND	ND	ND	ND	ND	ND	0
50940	2015-11-20T11:00:00	58.6	ND	ND	ND	ND	ND	ND	ND	ND	ND	ND	0
50941	2015-11-20T12:00:00	60	ND	ND	ND	ND	ND	ND	ND	ND	ND	ND	0
50942	2015-11-20T13:00:00	42.9	ND	ND	ND	ND	ND	ND	ND	ND	ND	ND	0
50943	2015-11-20T14:00:00	28.2	ND	ND	ND	ND	ND	ND	ND	ND	ND	ND	0
50944	2015-11-20T15:00:00	42.6	ND	ND	ND	ND	ND	ND	ND	ND	ND	ND	0
50945	2015-11-20T16:00:00	20.7	ND	ND	ND	ND	ND	ND	ND	ND	ND	ND	0
50946	2015-11-20T17:00:00	3.5	ND	ND	ND	ND	ND	ND	ND	ND	ND	ND	0
50947	2015-11-20T18:00:00	3	ND	ND	ND	ND	ND	ND	ND	ND	ND	ND	0
50948	2015-11-20T19:00:00	8.7	ND	ND	ND	ND	ND	ND	ND	ND	ND	ND	0
50949	2015-11-20T20:00:00	32.9	ND	ND	ND	ND	ND	ND	ND	ND	ND	ND	0
50950	2015-11-20T21:00:00	55.4	ND	ND	ND	ND	ND	ND	ND	ND	ND	ND	2.79
50951	2015-11-20T22:00:00	63.3	ND	ND	ND	ND	ND	ND	ND	ND	ND	ND	1.78
50952	2015-11-20T23:00:00	57.8	ND	ND	ND	ND	ND	ND	ND	ND	ND	ND	0.51
50953	2015-11-21T00:00:00	13.5	ND	ND	ND	ND	ND	ND	ND	ND	ND	ND	0
50954	2015-11-21T01:00:00	37.5	ND	ND	ND	ND	ND	ND	ND	ND	ND	ND	0
50955	2015-11-21T02:00:00	37.9	ND	ND	ND	ND	ND	ND	ND	ND	ND	ND	0.25
50956	2015-11-21T03:00:00	26.7	ND	ND	ND	ND	ND	ND	ND	ND	ND	ND	0.25
50957	2015-11-21T04:00:00	33	ND	ND	ND	ND	ND	ND	ND	ND	ND	ND	0.25
50958	2015-11-21T05:00:00	34	ND	ND	ND	ND	ND	ND	ND	ND	ND	ND	0
50959	2015-11-21T06:00:00	26.2	ND	ND	ND	ND	ND	ND	ND	ND	ND	ND	0
50960	2015-11-21T07:00:00	35	ND	ND	ND	ND	ND	ND	ND	ND	ND	ND	0
50961	2015-11-21T08:00:00	43	ND	ND	ND	ND	ND	ND	ND	ND	ND	ND	0.25
50962	2015-11-21T09:00:00	79.3	ND	ND	ND	ND	ND	ND	ND	ND	ND	ND	0
50963	2015-11-21T10:00:00	82.6	ND	ND	ND	ND	ND	ND	ND	ND	ND	ND	0
50964	2015-11-21T11:00:00	42.6	ND	ND	ND	ND	ND	ND	ND	ND	ND	ND	0
50965	2015-11-21T12:00:00	29.7	ND	ND	ND	ND	ND	ND	ND	ND	ND	ND	0
50966	2015-11-21T13:00:00	57.4	ND	ND	ND	ND	ND	ND	ND	ND	ND	ND	0
50967	2015-11-21T14:00:00	38.8	ND	ND	ND	ND	ND	ND	ND	ND	ND	ND	0
50968	2015-11-21T15:00:00	62	ND	ND	ND	ND	ND	ND	ND	ND	ND	ND	0
50969	2015-11-21T16:00:00	39.8	ND	ND	ND	ND	ND	ND	ND	ND	ND	ND	0
50970	2015-11-21T17:00:00	20.2	ND	ND	ND	ND	ND	ND	ND	ND	ND	ND	0
50971	2015-11-21T18:00:00	53.3	ND	ND	ND	ND	ND	ND	ND	ND	ND	ND	0
50972	2015-11-21T19:00:00	24.1	ND	ND	ND	ND	ND	ND	ND	ND	ND	ND	0
50973	2015-11-21T20:00:00	1.9	ND	ND	ND	ND	ND	ND	ND	ND	ND	ND	0
50974	2015-11-21T21:00:00	1.8	ND	ND	ND	ND	ND	ND	ND	ND	ND	ND	0
50975	2015-11-21T22:00:00	15.2	ND	ND	ND	ND	ND	ND	ND	ND	ND	ND	0
50976	2015-11-21T23:00:00	40.6	ND	ND	ND	ND	ND	ND	ND	ND	ND	ND	0
50977	2015-11-22T00:00:00	150	ND	ND	ND	ND	ND	ND	ND	ND	ND	ND	0
50978	2015-11-22T01:00:00	128.8	ND	ND	ND	ND	ND	ND	ND	ND	ND	ND	0
50979	2015-11-22T02:00:00	82.4	ND	ND	ND	ND	ND	ND	ND	ND	ND	ND	0
50980	2015-11-22T03:00:00	75.3	ND	ND	ND	ND	ND	ND	ND	ND	ND	ND	0.25
50981	2015-11-22T04:00:00	50.3	ND	ND	ND	ND	ND	ND	ND	ND	ND	ND	2.03
50982	2015-11-22T05:00:00	38.6	ND	ND	ND	ND	ND	ND	ND	ND	ND	ND	0.51
50983	2015-11-22T06:00:00	19	ND	ND	ND	ND	ND	ND	ND	ND	ND	ND	0.25
50984	2015-11-22T07:00:00	16.1	ND	ND	ND	ND	ND	ND	ND	ND	ND	ND	0.51
50985	2015-11-22T08:00:00	14.5	ND	ND	ND	ND	ND	ND	ND	ND	ND	ND	2.54
50986	2015-11-22T09:00:00	11.7	ND	ND	ND	ND	ND	ND	ND	ND	ND	ND	0.25
50987	2015-11-22T10:00:00	28	ND	ND	ND	ND	ND	ND	ND	ND	ND	ND	0
50988	2015-11-22T11:00:00	40.7	ND	ND	ND	ND	ND	ND	ND	ND	ND	ND	0.25
50989	2015-11-22T12:00:00	57.4	ND	ND	ND	ND	ND	ND	ND	ND	ND	ND	0
50990	2015-11-22T13:00:00	32.3	ND	ND	ND	ND	ND	ND	ND	ND	ND	ND	0
50991	2015-11-22T14:00:00	22.5	ND	ND	ND	ND	ND	ND	ND	ND	ND	ND	0
50992	2015-11-22T15:00:00	21.7	ND	ND	ND	ND	ND	ND	ND	ND	ND	ND	0
50993	2015-11-22T16:00:00	38.1	ND	ND	ND	ND	ND	ND	ND	ND	ND	ND	0
50994	2015-11-22T17:00:00	16.9	ND	ND	ND	ND	ND	ND	ND	ND	ND	ND	0
50995	2015-11-22T18:00:00	ND	ND	ND	ND	ND	ND	ND	ND	ND	ND	ND	0
50996	2015-11-22T19:00:00	ND	ND	ND	ND	ND	ND	ND	ND	ND	ND	ND	0
50997	2015-11-22T20:00:00	ND	ND	ND	ND	ND	ND	ND	ND	ND	ND	ND	0
50998	2015-11-22T21:00:00	14.1	ND	ND	ND	ND	ND	ND	ND	ND	ND	ND	0
50999	2015-11-22T22:00:00	18	ND	ND	ND	ND	ND	ND	ND	ND	ND	ND	0
51000	2015-11-22T23:00:00	83.4	ND	ND	ND	ND	ND	ND	ND	ND	ND	ND	0
51001	2015-11-23T00:00:00	52.9	ND	ND	ND	ND	ND	ND	ND	ND	ND	ND	0
51002	2015-11-23T01:00:00	37.2	ND	ND	ND	ND	ND	ND	ND	ND	ND	ND	0
51003	2015-11-23T02:00:00	16.5	ND	ND	ND	ND	ND	ND	ND	ND	ND	ND	0
51004	2015-11-23T03:00:00	4.1	ND	ND	ND	ND	ND	ND	ND	ND	ND	ND	0
51005	2015-11-23T04:00:00	104.6	ND	ND	ND	ND	ND	ND	ND	ND	ND	ND	0
51006	2015-11-23T05:00:00	15.9	ND	ND	ND	ND	ND	ND	ND	ND	ND	ND	0
51007	2015-11-23T06:00:00	ND	ND	ND	ND	ND	ND	ND	ND	ND	ND	ND	0
51008	2015-11-23T07:00:00	4	ND	ND	ND	ND	ND	ND	ND	ND	ND	ND	0
51009	2015-11-23T08:00:00	141.9	ND	ND	ND	ND	ND	ND	ND	ND	ND	ND	0
51010	2015-11-23T09:00:00	198.6	ND	ND	ND	ND	ND	ND	ND	ND	ND	ND	0
51011	2015-11-23T10:00:00	117.2	ND	ND	ND	ND	ND	ND	ND	ND	ND	ND	0
51012	2015-11-23T11:00:00	71.4	ND	ND	ND	ND	ND	ND	ND	ND	ND	ND	0
51013	2015-11-23T12:00:00	57	ND	ND	ND	ND	ND	ND	ND	ND	ND	ND	0
51014	2015-11-23T13:00:00	51.8	ND	ND	ND	ND	ND	ND	ND	ND	ND	ND	0
51015	2015-11-23T14:00:00	76.3	ND	ND	ND	ND	ND	ND	ND	ND	ND	ND	0
51016	2015-11-23T15:00:00	58.2	ND	ND	ND	ND	ND	ND	ND	ND	ND	ND	0
51017	2015-11-23T16:00:00	4.4	ND	ND	ND	ND	ND	ND	ND	ND	ND	ND	0
51018	2015-11-23T17:00:00	9.5	ND	ND	ND	ND	ND	ND	ND	ND	ND	ND	0
51019	2015-11-23T18:00:00	21.8	ND	ND	ND	ND	ND	ND	ND	ND	ND	ND	0
51020	2015-11-23T19:00:00	ND	ND	ND	ND	ND	ND	ND	ND	ND	ND	ND	0
51021	2015-11-23T20:00:00	7.3	ND	ND	ND	ND	ND	ND	ND	ND	ND	ND	0
51022	2015-11-23T21:00:00	40.7	ND	ND	ND	ND	ND	ND	ND	ND	ND	ND	0
51023	2015-11-23T22:00:00	23.1	ND	ND	ND	ND	ND	ND	ND	ND	ND	ND	1.78
51024	2015-11-23T23:00:00	111.5	ND	ND	ND	ND	ND	ND	ND	ND	ND	ND	0.25
51025	2015-11-24T00:00:00	19.3	ND	ND	ND	ND	ND	ND	ND	ND	ND	ND	0
51026	2015-11-24T01:00:00	ND	ND	ND	ND	ND	ND	ND	ND	ND	ND	ND	0
51027	2015-11-24T02:00:00	28.8	ND	ND	ND	ND	ND	ND	ND	ND	ND	ND	0
51028	2015-11-24T03:00:00	36.8	ND	ND	ND	ND	ND	ND	ND	ND	ND	ND	0
51029	2015-11-24T04:00:00	49.4	ND	ND	ND	ND	ND	ND	ND	ND	ND	ND	0
51030	2015-11-24T05:00:00	37.6	ND	ND	ND	ND	ND	ND	ND	ND	ND	ND	0
51031	2015-11-24T06:00:00	68.7	ND	ND	ND	ND	ND	ND	ND	ND	ND	ND	0
51032	2015-11-24T07:00:00	79.3	ND	ND	ND	ND	ND	ND	ND	ND	ND	ND	0
51033	2015-11-24T08:00:00	93.2	ND	ND	ND	ND	ND	ND	ND	ND	ND	ND	0
51034	2015-11-24T09:00:00	116.5	ND	ND	ND	ND	ND	ND	ND	ND	ND	ND	0
51035	2015-11-24T10:00:00	94.2	ND	ND	ND	ND	ND	ND	ND	ND	ND	ND	0
51036	2015-11-24T11:00:00	91.1	ND	ND	ND	ND	ND	ND	ND	ND	ND	ND	0
51037	2015-11-24T12:00:00	89.9	ND	ND	ND	ND	ND	ND	ND	ND	ND	ND	0
51038	2015-11-24T13:00:00	47	ND	ND	ND	ND	ND	ND	ND	ND	ND	ND	0
51039	2015-11-24T14:00:00	46.3	ND	ND	ND	ND	ND	ND	ND	ND	ND	ND	0
51040	2015-11-24T15:00:00	40.7	ND	ND	ND	ND	ND	ND	ND	ND	ND	ND	0
51041	2015-11-24T16:00:00	33.1	ND	ND	ND	ND	ND	ND	ND	ND	ND	ND	13.72
51042	2015-11-24T17:00:00	6	ND	ND	ND	ND	ND	ND	ND	ND	ND	ND	1.78
51043	2015-11-24T18:00:00	7.9	ND	ND	ND	ND	ND	ND	ND	ND	ND	ND	0
51044	2015-11-24T19:00:00	ND	ND	ND	ND	ND	ND	ND	ND	ND	ND	ND	0
51045	2015-11-24T20:00:00	ND	ND	ND	ND	ND	ND	ND	ND	ND	ND	ND	0
51046	2015-11-24T21:00:00	82.4	ND	ND	ND	ND	ND	ND	ND	ND	ND	ND	0
51047	2015-11-24T22:00:00	132.2	ND	ND	ND	ND	ND	ND	ND	ND	ND	ND	0
51048	2015-11-24T23:00:00	85.6	ND	ND	ND	ND	ND	ND	ND	ND	ND	ND	1.02
51049	2015-11-25T00:00:00	56.7	ND	ND	ND	ND	ND	ND	ND	ND	ND	ND	0.76
51050	2015-11-25T01:00:00	54.3	ND	ND	ND	ND	ND	ND	ND	ND	ND	ND	0
51051	2015-11-25T02:00:00	34.3	ND	ND	ND	ND	ND	ND	ND	ND	ND	ND	0
51052	2015-11-25T03:00:00	22.2	ND	ND	ND	ND	ND	ND	ND	ND	ND	ND	0.25
51053	2015-11-25T04:00:00	4	ND	ND	ND	ND	ND	ND	ND	ND	ND	ND	0
51054	2015-11-25T05:00:00	4.3	ND	ND	ND	ND	ND	ND	ND	ND	ND	ND	0
51055	2015-11-25T06:00:00	20.2	ND	ND	ND	ND	ND	ND	ND	ND	ND	ND	0
51056	2015-11-25T07:00:00	60.7	ND	ND	ND	ND	ND	ND	ND	ND	ND	ND	0
51057	2015-11-25T08:00:00	73.5	ND	ND	ND	ND	ND	ND	ND	ND	ND	ND	0
51058	2015-11-25T09:00:00	92.4	ND	ND	ND	ND	ND	ND	ND	ND	ND	ND	0
51059	2015-11-25T10:00:00	96.5	ND	ND	ND	ND	ND	ND	ND	ND	ND	ND	0
51060	2015-11-25T11:00:00	57.8	ND	ND	ND	ND	ND	ND	ND	ND	ND	ND	0
51061	2015-11-25T12:00:00	35	ND	ND	ND	ND	ND	ND	ND	ND	ND	ND	0
51062	2015-11-25T13:00:00	63.9	ND	ND	ND	ND	ND	ND	ND	ND	ND	ND	0
51063	2015-11-25T14:00:00	58.1	ND	ND	ND	ND	ND	ND	ND	ND	ND	ND	0
51064	2015-11-25T15:00:00	53.8	ND	ND	ND	ND	ND	ND	ND	ND	ND	ND	0
51065	2015-11-25T16:00:00	50.1	ND	ND	ND	ND	ND	ND	ND	ND	ND	ND	0
51066	2015-11-25T17:00:00	4.2	ND	ND	ND	ND	ND	ND	ND	ND	ND	ND	0
51067	2015-11-25T18:00:00	ND	ND	ND	ND	ND	ND	ND	ND	ND	ND	ND	0
51068	2015-11-25T19:00:00	ND	ND	ND	ND	ND	ND	ND	ND	ND	ND	ND	0
51069	2015-11-25T20:00:00	8.6	ND	ND	ND	ND	ND	ND	ND	ND	ND	ND	0
51070	2015-11-25T21:00:00	50.9	ND	ND	ND	ND	ND	ND	ND	ND	ND	ND	0
51071	2015-11-25T22:00:00	99.8	ND	ND	ND	ND	ND	ND	ND	ND	ND	ND	0
51072	2015-11-25T23:00:00	94.5	ND	ND	ND	ND	ND	ND	ND	ND	ND	ND	0
51073	2015-11-26T00:00:00	86.2	ND	ND	ND	ND	ND	ND	ND	ND	ND	ND	0
51074	2015-11-26T01:00:00	54.7	ND	ND	ND	ND	ND	ND	ND	ND	ND	ND	0
51075	2015-11-26T02:00:00	78.6	ND	ND	ND	ND	ND	ND	ND	ND	ND	ND	0
51076	2015-11-26T03:00:00	49.4	ND	ND	ND	ND	ND	ND	ND	ND	ND	ND	0
51077	2015-11-26T04:00:00	40	ND	ND	ND	ND	ND	ND	ND	ND	ND	ND	0
51078	2015-11-26T05:00:00	52.6	ND	ND	ND	ND	ND	ND	ND	ND	ND	ND	0
51079	2015-11-26T06:00:00	74.5	ND	ND	ND	ND	ND	ND	ND	ND	ND	ND	0
51080	2015-11-26T07:00:00	74.7	ND	ND	ND	ND	ND	ND	ND	ND	ND	ND	0
51081	2015-11-26T08:00:00	52.2	ND	ND	ND	ND	ND	ND	ND	ND	ND	ND	0
51082	2015-11-26T09:00:00	105.8	ND	ND	ND	ND	ND	ND	ND	ND	ND	ND	0
51083	2015-11-26T10:00:00	106.1	ND	ND	ND	ND	ND	ND	ND	ND	ND	ND	0
51084	2015-11-26T11:00:00	53.5	ND	ND	ND	ND	ND	ND	ND	ND	ND	ND	0
51085	2015-11-26T12:00:00	70.2	ND	ND	ND	ND	ND	ND	ND	ND	ND	ND	0
51086	2015-11-26T13:00:00	88.7	ND	ND	ND	ND	ND	ND	ND	ND	ND	ND	0
51087	2015-11-26T14:00:00	53.3	ND	ND	ND	ND	ND	ND	ND	ND	ND	ND	0
51088	2015-11-26T15:00:00	44.6	ND	ND	ND	ND	ND	ND	ND	ND	ND	ND	0
51089	2015-11-26T16:00:00	47.8	ND	ND	ND	ND	ND	ND	ND	ND	ND	ND	0
51090	2015-11-26T17:00:00	18.1	ND	ND	ND	ND	ND	ND	ND	ND	ND	ND	0
51091	2015-11-26T18:00:00	4.3	ND	ND	ND	ND	ND	ND	ND	ND	ND	ND	0
51092	2015-11-26T19:00:00	ND	ND	ND	ND	ND	ND	ND	ND	ND	ND	ND	0
51093	2015-11-26T20:00:00	4.2	ND	ND	ND	ND	ND	ND	ND	ND	ND	ND	0
51094	2015-11-26T21:00:00	30.2	ND	ND	ND	ND	ND	ND	ND	ND	ND	ND	0
51095	2015-11-26T22:00:00	29.3	ND	ND	ND	ND	ND	ND	ND	ND	ND	ND	0
51096	2015-11-26T23:00:00	57	ND	ND	ND	ND	ND	ND	ND	ND	ND	ND	0
51097	2015-11-27T00:00:00	82.1	ND	ND	ND	ND	ND	ND	ND	ND	ND	ND	0
51098	2015-11-27T01:00:00	86.3	ND	ND	ND	ND	ND	ND	ND	ND	ND	ND	0
51099	2015-11-27T02:00:00	74.2	ND	ND	ND	ND	ND	ND	ND	ND	ND	ND	0
51100	2015-11-27T03:00:00	55.9	ND	ND	ND	ND	ND	ND	ND	ND	ND	ND	0
51101	2015-11-27T04:00:00	54.4	ND	ND	ND	ND	ND	ND	ND	ND	ND	ND	0
51102	2015-11-27T05:00:00	53.6	ND	ND	ND	ND	ND	ND	ND	ND	ND	ND	0
51103	2015-11-27T06:00:00	53.7	ND	ND	ND	ND	ND	ND	ND	ND	ND	ND	0
51104	2015-11-27T07:00:00	57.3	ND	ND	ND	ND	ND	ND	ND	ND	ND	ND	0
51105	2015-11-27T08:00:00	89.9	ND	ND	ND	ND	ND	ND	ND	ND	ND	ND	0
51106	2015-11-27T09:00:00	135	ND	ND	ND	ND	ND	ND	ND	ND	ND	ND	0
51107	2015-11-27T10:00:00	100.4	ND	ND	ND	ND	ND	ND	ND	ND	ND	ND	0
51108	2015-11-27T11:00:00	68.1	ND	ND	ND	ND	ND	ND	ND	ND	ND	ND	0
51109	2015-11-27T12:00:00	55.9	ND	ND	ND	ND	ND	ND	ND	ND	ND	ND	0
51110	2015-11-27T13:00:00	57.1	ND	ND	ND	ND	ND	ND	ND	ND	ND	ND	0
51111	2015-11-27T14:00:00	62.8	ND	ND	ND	ND	ND	ND	ND	ND	ND	ND	0
51112	2015-11-27T15:00:00	54.7	ND	ND	ND	ND	ND	ND	ND	ND	ND	ND	0
51113	2015-11-27T16:00:00	38.1	ND	ND	ND	ND	ND	ND	ND	ND	ND	ND	0
51114	2015-11-27T17:00:00	ND	ND	ND	ND	ND	ND	ND	ND	ND	ND	ND	0
51115	2015-11-27T18:00:00	ND	ND	ND	ND	ND	ND	ND	ND	ND	ND	ND	0
51116	2015-11-27T19:00:00	3.4	ND	ND	ND	ND	ND	ND	ND	ND	ND	ND	0
51117	2015-11-27T20:00:00	33.3	ND	ND	ND	ND	ND	ND	ND	ND	ND	ND	0
51118	2015-11-27T21:00:00	63.7	ND	ND	ND	ND	ND	ND	ND	ND	ND	ND	0
51119	2015-11-27T22:00:00	78	ND	ND	ND	ND	ND	ND	ND	ND	ND	ND	0
51120	2015-11-27T23:00:00	39.6	ND	ND	ND	ND	ND	ND	ND	ND	ND	ND	0
51121	2015-11-28T00:00:00	30.1	ND	ND	ND	ND	ND	ND	ND	ND	ND	ND	0
51122	2015-11-28T01:00:00	84.8	ND	ND	ND	ND	ND	ND	ND	ND	ND	ND	0
51123	2015-11-28T02:00:00	90.3	ND	ND	ND	ND	ND	ND	ND	ND	ND	ND	0
51124	2015-11-28T03:00:00	55.6	ND	ND	ND	ND	ND	ND	ND	ND	ND	ND	0
51125	2015-11-28T04:00:00	44.8	ND	ND	ND	ND	ND	ND	ND	ND	ND	ND	0
51126	2015-11-28T05:00:00	58.2	ND	ND	ND	ND	ND	ND	ND	ND	ND	ND	0
51127	2015-11-28T06:00:00	45.9	ND	ND	ND	ND	ND	ND	ND	ND	ND	ND	0
51128	2015-11-28T07:00:00	37.5	ND	ND	ND	ND	ND	ND	ND	ND	ND	ND	0
51129	2015-11-28T08:00:00	62.8	ND	ND	ND	ND	ND	ND	ND	ND	ND	ND	0
51130	2015-11-28T09:00:00	84	ND	ND	ND	ND	ND	ND	ND	ND	ND	ND	0
51131	2015-11-28T10:00:00	96.2	ND	ND	ND	ND	ND	ND	ND	ND	ND	ND	0
51132	2015-11-28T11:00:00	85.5	ND	ND	ND	ND	ND	ND	ND	ND	ND	ND	0
51133	2015-11-28T12:00:00	73.9	ND	ND	ND	ND	ND	ND	ND	ND	ND	ND	0
51134	2015-11-28T13:00:00	73.7	ND	ND	ND	ND	ND	ND	ND	ND	ND	ND	0
51135	2015-11-28T14:00:00	66.6	ND	ND	ND	ND	ND	ND	ND	ND	ND	ND	0
51136	2015-11-28T15:00:00	35.5	ND	ND	ND	ND	ND	ND	ND	ND	ND	ND	0
51137	2015-11-28T16:00:00	ND	ND	ND	ND	ND	ND	ND	ND	ND	ND	ND	0
51138	2015-11-28T17:00:00	ND	ND	ND	ND	ND	ND	ND	ND	ND	ND	ND	0
51139	2015-11-28T18:00:00	ND	ND	ND	ND	ND	ND	ND	ND	ND	ND	ND	0
51140	2015-11-28T19:00:00	ND	ND	ND	ND	ND	ND	ND	ND	ND	ND	ND	0
51141	2015-11-28T20:00:00	9.4	ND	ND	ND	ND	ND	ND	ND	ND	ND	ND	0
51142	2015-11-28T21:00:00	37.5	ND	ND	ND	ND	ND	ND	ND	ND	ND	ND	0
51143	2015-11-28T22:00:00	46.5	ND	ND	ND	ND	ND	ND	ND	ND	ND	ND	0
51144	2015-11-28T23:00:00	96.5	ND	ND	ND	ND	ND	ND	ND	ND	ND	ND	0
51145	2015-11-29T00:00:00	83.9	ND	ND	ND	ND	ND	ND	ND	ND	ND	ND	0
51146	2015-11-29T01:00:00	56.8	ND	ND	ND	ND	ND	ND	ND	ND	ND	ND	0
51147	2015-11-29T02:00:00	31.6	ND	ND	ND	ND	ND	ND	ND	ND	ND	ND	0
51148	2015-11-29T03:00:00	19.5	ND	ND	ND	ND	ND	ND	ND	ND	ND	ND	0
51149	2015-11-29T04:00:00	44.9	ND	ND	ND	ND	ND	ND	ND	ND	ND	ND	0
51150	2015-11-29T05:00:00	51.4	ND	ND	ND	ND	ND	ND	ND	ND	ND	ND	0
51151	2015-11-29T06:00:00	26.4	ND	ND	ND	ND	ND	ND	ND	ND	ND	ND	0
51152	2015-11-29T07:00:00	12.1	ND	ND	ND	ND	ND	ND	ND	ND	ND	ND	0
51153	2015-11-29T08:00:00	53.3	ND	ND	ND	ND	ND	ND	ND	ND	ND	ND	0
51154	2015-11-29T09:00:00	66.7	ND	ND	ND	ND	ND	ND	ND	ND	ND	ND	0
51155	2015-11-29T10:00:00	62	ND	ND	ND	ND	ND	ND	ND	ND	ND	ND	0
51156	2015-11-29T11:00:00	38.3	ND	ND	ND	ND	ND	ND	ND	ND	ND	ND	0
51157	2015-11-29T12:00:00	53.2	ND	ND	ND	ND	ND	ND	ND	ND	ND	ND	0
51158	2015-11-29T13:00:00	39.5	ND	ND	ND	ND	ND	ND	ND	ND	ND	ND	0
51159	2015-11-29T14:00:00	50.7	ND	ND	ND	ND	ND	ND	ND	ND	ND	ND	0
51160	2015-11-29T15:00:00	45.9	ND	ND	ND	ND	ND	ND	ND	ND	ND	ND	0
51161	2015-11-29T16:00:00	50.3	ND	ND	ND	ND	ND	ND	ND	ND	ND	ND	0
51162	2015-11-29T17:00:00	33.9	ND	ND	ND	ND	ND	ND	ND	ND	ND	ND	0
51163	2015-11-29T18:00:00	14.5	ND	ND	ND	ND	ND	ND	ND	ND	ND	ND	0
51164	2015-11-29T19:00:00	12.3	ND	ND	ND	ND	ND	ND	ND	ND	ND	ND	0
51165	2015-11-29T20:00:00	10.4	ND	ND	ND	ND	ND	ND	ND	ND	ND	ND	0
51166	2015-11-29T21:00:00	17.2	ND	ND	ND	ND	ND	ND	ND	ND	ND	ND	0
51167	2015-11-29T22:00:00	49.4	ND	ND	ND	ND	ND	ND	ND	ND	ND	ND	0
51168	2015-11-29T23:00:00	49.3	ND	ND	ND	ND	ND	ND	ND	ND	ND	ND	0
51169	2015-11-30T00:00:00	48.4	ND	ND	ND	ND	ND	ND	ND	ND	ND	ND	0
51170	2015-11-30T01:00:00	44.8	ND	ND	ND	ND	ND	ND	ND	ND	ND	ND	0
51171	2015-11-30T02:00:00	51.5	ND	ND	ND	ND	ND	ND	ND	ND	ND	ND	0
51172	2015-11-30T03:00:00	53.3	ND	ND	ND	ND	ND	ND	ND	ND	ND	ND	0
51173	2015-11-30T04:00:00	51.3	ND	ND	ND	ND	ND	ND	ND	ND	ND	ND	0
51174	2015-11-30T05:00:00	52.6	ND	ND	ND	ND	ND	ND	ND	ND	ND	ND	0
51175	2015-11-30T06:00:00	51.8	ND	ND	ND	ND	ND	ND	ND	ND	ND	ND	0
51176	2015-11-30T07:00:00	68.9	ND	ND	ND	ND	ND	ND	ND	ND	ND	ND	0
51177	2015-11-30T08:00:00	81.3	ND	ND	ND	ND	ND	ND	ND	ND	ND	ND	0
51178	2015-11-30T09:00:00	83.1	ND	ND	ND	ND	ND	ND	ND	ND	ND	ND	0
51179	2015-11-30T10:00:00	71.5	ND	ND	ND	ND	ND	ND	ND	ND	ND	ND	0
51180	2015-11-30T11:00:00	60	ND	ND	ND	ND	ND	ND	ND	ND	ND	ND	0
51181	2015-11-30T12:00:00	48.1	ND	ND	ND	ND	ND	ND	ND	ND	ND	ND	0
51182	2015-11-30T13:00:00	60.9	ND	ND	ND	ND	ND	ND	ND	ND	ND	ND	0
51183	2015-11-30T14:00:00	49.3	ND	ND	ND	ND	ND	ND	ND	ND	ND	ND	0
51184	2015-11-30T15:00:00	51.1	ND	ND	ND	ND	ND	ND	ND	ND	ND	ND	0
51185	2015-11-30T16:00:00	34.8	ND	ND	ND	ND	ND	ND	ND	ND	ND	ND	0
51186	2015-11-30T17:00:00	29.7	ND	ND	ND	ND	ND	ND	ND	ND	ND	ND	0
51187	2015-11-30T18:00:00	17.9	ND	ND	ND	ND	ND	ND	ND	ND	ND	ND	0
51188	2015-11-30T19:00:00	14.6	ND	ND	ND	ND	ND	ND	ND	ND	ND	ND	0
51189	2015-11-30T20:00:00	10.4	ND	ND	ND	ND	ND	ND	ND	ND	ND	ND	0
51190	2015-11-30T21:00:00	18.1	ND	ND	ND	ND	ND	ND	ND	ND	ND	ND	0
51191	2015-11-30T22:00:00	10	ND	ND	ND	ND	ND	ND	ND	ND	ND	ND	0
51192	2015-11-30T23:00:00	72.4	ND	ND	ND	ND	ND	ND	ND	ND	ND	ND	0
51193	2015-12-01T00:00:00	170.4	ND	ND	ND	ND	ND	ND	ND	ND	ND	ND	0
51194	2015-12-01T01:00:00	82.1	ND	ND	ND	ND	ND	ND	ND	ND	ND	ND	0
51195	2015-12-01T02:00:00	52.4	ND	ND	ND	ND	ND	ND	ND	ND	ND	ND	0
51196	2015-12-01T03:00:00	38.1	ND	ND	ND	ND	ND	ND	ND	ND	ND	ND	0
51197	2015-12-01T04:00:00	22.9	ND	ND	ND	ND	ND	ND	ND	ND	ND	ND	0
51198	2015-12-01T05:00:00	33.4	ND	ND	ND	ND	ND	ND	ND	ND	ND	ND	0
51199	2015-12-01T06:00:00	59.9	ND	ND	ND	ND	ND	ND	ND	ND	ND	ND	0
51200	2015-12-01T07:00:00	74.3	ND	ND	ND	ND	ND	ND	ND	ND	ND	ND	0
51201	2015-12-01T08:00:00	75.1	ND	ND	ND	ND	ND	ND	ND	ND	ND	ND	0
51202	2015-12-01T09:00:00	80.7	ND	ND	ND	ND	ND	ND	ND	ND	ND	ND	0
51203	2015-12-01T10:00:00	73	ND	ND	ND	ND	ND	ND	ND	ND	ND	ND	0
51204	2015-12-01T11:00:00	109.1	ND	ND	ND	ND	ND	ND	ND	ND	ND	ND	0
51205	2015-12-01T12:00:00	88	ND	ND	ND	ND	ND	ND	ND	ND	ND	ND	0
51206	2015-12-01T13:00:00	48.9	ND	ND	ND	ND	ND	ND	ND	ND	ND	ND	0
51207	2015-12-01T14:00:00	51.9	ND	ND	ND	ND	ND	ND	ND	ND	ND	ND	0
51208	2015-12-01T15:00:00	48.6	ND	ND	ND	ND	ND	ND	ND	ND	ND	ND	0
51209	2015-12-01T16:00:00	50.1	ND	ND	ND	ND	ND	ND	ND	ND	ND	ND	0
51210	2015-12-01T17:00:00	25.9	ND	ND	ND	ND	ND	ND	ND	ND	ND	ND	0
51211	2015-12-01T18:00:00	6.3	ND	ND	ND	ND	ND	ND	ND	ND	ND	ND	0
51212	2015-12-01T19:00:00	9.6	ND	ND	ND	ND	ND	ND	ND	ND	ND	ND	0
51213	2015-12-01T20:00:00	15.8	ND	ND	ND	ND	ND	ND	ND	ND	ND	ND	0
51214	2015-12-01T21:00:00	45.5	ND	ND	ND	ND	ND	ND	ND	ND	ND	ND	0
51215	2015-12-01T22:00:00	56.7	ND	ND	ND	ND	ND	ND	ND	ND	ND	ND	0
51216	2015-12-01T23:00:00	4.5	ND	ND	ND	ND	ND	ND	ND	ND	ND	ND	0
51217	2015-12-02T00:00:00	15.1	ND	ND	ND	ND	ND	ND	ND	ND	ND	ND	0
51218	2015-12-02T01:00:00	43.5	ND	ND	ND	ND	ND	ND	ND	ND	ND	ND	0
51219	2015-12-02T02:00:00	51.3	ND	ND	ND	ND	ND	ND	ND	ND	ND	ND	0
51220	2015-12-02T03:00:00	38.2	ND	ND	ND	ND	ND	ND	ND	ND	ND	ND	0
51221	2015-12-02T04:00:00	41.6	ND	ND	ND	ND	ND	ND	ND	ND	ND	ND	0
51222	2015-12-02T05:00:00	48.4	ND	ND	ND	ND	ND	ND	ND	ND	ND	ND	0
51223	2015-12-02T06:00:00	42.8	ND	ND	ND	ND	ND	ND	ND	ND	ND	ND	0
51224	2015-12-02T07:00:00	75	ND	ND	ND	ND	ND	ND	ND	ND	ND	ND	0
51225	2015-12-02T08:00:00	79.9	ND	ND	ND	ND	ND	ND	ND	ND	ND	ND	0
51226	2015-12-02T09:00:00	68.2	ND	ND	ND	ND	ND	ND	ND	ND	ND	ND	0
51227	2015-12-02T10:00:00	70.7	ND	ND	ND	ND	ND	ND	ND	ND	ND	ND	0
51228	2015-12-02T11:00:00	79.9	ND	ND	ND	ND	ND	ND	ND	ND	ND	ND	0
51229	2015-12-02T12:00:00	84.2	ND	ND	ND	ND	ND	ND	ND	ND	ND	ND	0
51230	2015-12-02T13:00:00	69	ND	ND	ND	ND	ND	ND	ND	ND	ND	ND	0
51231	2015-12-02T14:00:00	56.4	ND	ND	ND	ND	ND	ND	ND	ND	ND	ND	0
51232	2015-12-02T15:00:00	8.8	ND	ND	ND	ND	ND	ND	ND	ND	ND	ND	0
51233	2015-12-02T16:00:00	ND	ND	ND	ND	ND	ND	ND	ND	ND	ND	ND	0
51234	2015-12-02T17:00:00	3.1	ND	ND	ND	ND	ND	ND	ND	ND	ND	ND	0
51235	2015-12-02T18:00:00	191.2	ND	ND	ND	ND	ND	ND	ND	ND	ND	ND	0
51236	2015-12-02T19:00:00	149.4	ND	ND	ND	ND	ND	ND	ND	ND	ND	ND	0
51237	2015-12-02T20:00:00	94.4	ND	ND	ND	ND	ND	ND	ND	ND	ND	ND	0
51238	2015-12-02T21:00:00	66.8	ND	ND	ND	ND	ND	ND	ND	ND	ND	ND	0
51239	2015-12-02T22:00:00	10.6	ND	ND	ND	ND	ND	ND	ND	ND	ND	ND	0
51240	2015-12-02T23:00:00	20.6	ND	ND	ND	ND	ND	ND	ND	ND	ND	ND	0
51241	2015-12-03T00:00:00	89.1	ND	ND	ND	ND	ND	ND	ND	ND	ND	ND	0
51242	2015-12-03T01:00:00	30.3	ND	ND	ND	ND	ND	ND	ND	ND	ND	ND	0
51243	2015-12-03T02:00:00	78.6	ND	ND	ND	ND	ND	ND	ND	ND	ND	ND	0
51244	2015-12-03T03:00:00	48.1	ND	ND	ND	ND	ND	ND	ND	ND	ND	ND	0
51245	2015-12-03T04:00:00	23.4	ND	ND	ND	ND	ND	ND	ND	ND	ND	ND	0
51246	2015-12-03T05:00:00	12	ND	ND	ND	ND	ND	ND	ND	ND	ND	ND	0
51247	2015-12-03T06:00:00	ND	ND	ND	ND	ND	ND	ND	ND	ND	ND	ND	0
51248	2015-12-03T07:00:00	72.9	ND	ND	ND	ND	ND	ND	ND	ND	ND	ND	0
51249	2015-12-03T08:00:00	169.8	ND	ND	ND	ND	ND	ND	ND	ND	ND	ND	0
51250	2015-12-03T09:00:00	ND	ND	ND	ND	ND	ND	ND	ND	ND	ND	ND	0
51251	2015-12-03T10:00:00	177.5	ND	ND	ND	ND	ND	ND	ND	ND	ND	ND	0
51252	2015-12-03T11:00:00	143.8	ND	ND	ND	ND	ND	ND	ND	ND	ND	ND	0
51253	2015-12-03T12:00:00	119.3	ND	ND	ND	ND	ND	ND	ND	ND	ND	ND	0
51254	2015-12-03T13:00:00	59	ND	ND	ND	ND	ND	ND	ND	ND	ND	ND	0
51255	2015-12-03T14:00:00	73.5	ND	ND	ND	ND	ND	ND	ND	ND	ND	ND	0
51256	2015-12-03T15:00:00	79.6	ND	ND	ND	ND	ND	ND	ND	ND	ND	ND	0
51257	2015-12-03T16:00:00	71.2	ND	ND	ND	ND	ND	ND	ND	ND	ND	ND	0
51258	2015-12-03T17:00:00	63.5	ND	ND	ND	ND	ND	ND	ND	ND	ND	ND	0
51259	2015-12-03T18:00:00	81.2	ND	ND	ND	ND	ND	ND	ND	ND	ND	ND	0
51260	2015-12-03T19:00:00	86.4	ND	ND	ND	ND	ND	ND	ND	ND	ND	ND	0
51261	2015-12-03T20:00:00	35.9	ND	ND	ND	ND	ND	ND	ND	ND	ND	ND	0
51262	2015-12-03T21:00:00	46.9	ND	ND	ND	ND	ND	ND	ND	ND	ND	ND	0
51263	2015-12-03T22:00:00	59.3	ND	ND	ND	ND	ND	ND	ND	ND	ND	ND	0
51264	2015-12-03T23:00:00	32.7	ND	ND	ND	ND	ND	ND	ND	ND	ND	ND	0
51265	2015-12-04T00:00:00	114.6	ND	ND	ND	ND	ND	ND	ND	ND	ND	ND	0
51266	2015-12-04T01:00:00	96.8	ND	ND	ND	ND	ND	ND	ND	ND	ND	ND	0
51267	2015-12-04T02:00:00	82.3	ND	ND	ND	ND	ND	ND	ND	ND	ND	ND	0
51268	2015-12-04T03:00:00	85.8	ND	ND	ND	ND	ND	ND	ND	ND	ND	ND	0
51269	2015-12-04T04:00:00	60.3	ND	ND	ND	ND	ND	ND	ND	ND	ND	ND	0
51270	2015-12-04T05:00:00	37.7	ND	ND	ND	ND	ND	ND	ND	ND	ND	ND	0
51271	2015-12-04T06:00:00	85.7	ND	ND	ND	ND	ND	ND	ND	ND	ND	ND	0
51272	2015-12-04T07:00:00	70.3	ND	ND	ND	ND	ND	ND	ND	ND	ND	ND	0
51273	2015-12-04T08:00:00	97.6	ND	ND	ND	ND	ND	ND	ND	ND	ND	ND	0
51274	2015-12-04T09:00:00	120	ND	ND	ND	ND	ND	ND	ND	ND	ND	ND	0
51275	2015-12-04T10:00:00	152.4	ND	ND	ND	ND	ND	ND	ND	ND	ND	ND	0
51276	2015-12-04T11:00:00	117.8	ND	ND	ND	ND	ND	ND	ND	ND	ND	ND	0
51277	2015-12-04T12:00:00	79	ND	ND	ND	ND	ND	ND	ND	ND	ND	ND	0
51278	2015-12-04T13:00:00	70.2	ND	ND	ND	ND	ND	ND	ND	ND	ND	ND	0
51279	2015-12-04T14:00:00	73.3	ND	ND	ND	ND	ND	ND	ND	ND	ND	ND	0
51280	2015-12-04T15:00:00	72.6	ND	ND	ND	ND	ND	ND	ND	ND	ND	ND	0
51281	2015-12-04T16:00:00	52.7	ND	ND	ND	ND	ND	ND	ND	ND	ND	ND	0
51282	2015-12-04T17:00:00	52.2	ND	ND	ND	ND	ND	ND	ND	ND	ND	ND	0
51283	2015-12-04T18:00:00	90.5	ND	ND	ND	ND	ND	ND	ND	ND	ND	ND	0
51284	2015-12-04T19:00:00	52.2	ND	ND	ND	ND	ND	ND	ND	ND	ND	ND	0
51285	2015-12-04T20:00:00	49.1	ND	ND	ND	ND	ND	ND	ND	ND	ND	ND	0
51286	2015-12-04T21:00:00	39.7	ND	ND	ND	ND	ND	ND	ND	ND	ND	ND	0
51287	2015-12-04T22:00:00	3.6	ND	ND	ND	ND	ND	ND	ND	ND	ND	ND	0
51288	2015-12-04T23:00:00	21.4	ND	ND	ND	ND	ND	ND	ND	ND	ND	ND	0
51289	2015-12-05T00:00:00	3.1	ND	ND	ND	ND	ND	ND	ND	ND	ND	ND	0
51290	2015-12-05T01:00:00	11.5	ND	ND	ND	ND	ND	ND	ND	ND	ND	ND	0
51291	2015-12-05T02:00:00	36.9	ND	ND	ND	ND	ND	ND	ND	ND	ND	ND	0
51292	2015-12-05T03:00:00	44.5	ND	ND	ND	ND	ND	ND	ND	ND	ND	ND	0
51293	2015-12-05T04:00:00	96.6	ND	ND	ND	ND	ND	ND	ND	ND	ND	ND	0
51294	2015-12-05T05:00:00	98.1	ND	ND	ND	ND	ND	ND	ND	ND	ND	ND	0
51295	2015-12-05T06:00:00	82	ND	ND	ND	ND	ND	ND	ND	ND	ND	ND	0
51296	2015-12-05T07:00:00	48.9	ND	ND	ND	ND	ND	ND	ND	ND	ND	ND	0
51297	2015-12-05T08:00:00	78.9	ND	ND	ND	ND	ND	ND	ND	ND	ND	ND	0
51298	2015-12-05T09:00:00	89.1	ND	ND	ND	ND	ND	ND	ND	ND	ND	ND	0
51299	2015-12-05T10:00:00	91.2	ND	ND	ND	ND	ND	ND	ND	ND	ND	ND	0
51300	2015-12-05T11:00:00	62.4	ND	ND	ND	ND	ND	ND	ND	ND	ND	ND	0
51301	2015-12-05T12:00:00	79.8	ND	ND	ND	ND	ND	ND	ND	ND	ND	ND	0
51302	2015-12-05T13:00:00	91.1	ND	ND	ND	ND	ND	ND	ND	ND	ND	ND	0
51303	2015-12-05T14:00:00	80.7	ND	ND	ND	ND	ND	ND	ND	ND	ND	ND	0
51304	2015-12-05T15:00:00	52.1	ND	ND	ND	ND	ND	ND	ND	ND	ND	ND	0
51305	2015-12-05T16:00:00	29.6	ND	ND	ND	ND	ND	ND	ND	ND	ND	ND	0
51306	2015-12-05T17:00:00	6.5	ND	ND	ND	ND	ND	ND	ND	ND	ND	ND	0
51307	2015-12-05T18:00:00	1.7	ND	ND	ND	ND	ND	ND	ND	ND	ND	ND	0
51308	2015-12-05T19:00:00	1.4	ND	ND	ND	ND	ND	ND	ND	ND	ND	ND	0
51309	2015-12-05T20:00:00	3	ND	ND	ND	ND	ND	ND	ND	ND	ND	ND	0
51310	2015-12-05T21:00:00	18.6	ND	ND	ND	ND	ND	ND	ND	ND	ND	ND	0
51311	2015-12-05T22:00:00	29.8	ND	ND	ND	ND	ND	ND	ND	ND	ND	ND	0
51312	2015-12-05T23:00:00	67.7	ND	ND	ND	ND	ND	ND	ND	ND	ND	ND	0
51313	2015-12-06T00:00:00	89.1	ND	ND	ND	ND	ND	ND	ND	ND	ND	ND	0
51314	2015-12-06T01:00:00	54.1	ND	ND	ND	ND	ND	ND	ND	ND	ND	ND	0
51315	2015-12-06T02:00:00	68.9	ND	ND	ND	ND	ND	ND	ND	ND	ND	ND	0
51316	2015-12-06T03:00:00	70.4	ND	ND	ND	ND	ND	ND	ND	ND	ND	ND	0
51317	2015-12-06T04:00:00	50.4	ND	ND	ND	ND	ND	ND	ND	ND	ND	ND	0
51318	2015-12-06T05:00:00	20.9	ND	ND	ND	ND	ND	ND	ND	ND	ND	ND	0
51319	2015-12-06T06:00:00	53.6	ND	ND	ND	ND	ND	ND	ND	ND	ND	ND	0
51320	2015-12-06T07:00:00	31.9	ND	ND	ND	ND	ND	ND	ND	ND	ND	ND	0
51321	2015-12-06T08:00:00	77.8	ND	ND	ND	ND	ND	ND	ND	ND	ND	ND	0
51322	2015-12-06T09:00:00	90.8	ND	ND	ND	ND	ND	ND	ND	ND	ND	ND	0
51323	2015-12-06T10:00:00	71.1	ND	ND	ND	ND	ND	ND	ND	ND	ND	ND	0
51324	2015-12-06T11:00:00	40.9	ND	ND	ND	ND	ND	ND	ND	ND	ND	ND	0
51325	2015-12-06T12:00:00	17.3	ND	ND	ND	ND	ND	ND	ND	ND	ND	ND	0
51326	2015-12-06T13:00:00	44.8	ND	ND	ND	ND	ND	ND	ND	ND	ND	ND	0
51327	2015-12-06T14:00:00	47.5	ND	ND	ND	ND	ND	ND	ND	ND	ND	ND	0
51328	2015-12-06T15:00:00	43.8	ND	ND	ND	ND	ND	ND	ND	ND	ND	ND	0
51329	2015-12-06T16:00:00	37.3	ND	ND	ND	ND	ND	ND	ND	ND	ND	ND	0
51330	2015-12-06T17:00:00	64.6	ND	ND	ND	ND	ND	ND	ND	ND	ND	ND	0
51331	2015-12-06T18:00:00	61	ND	ND	ND	ND	ND	ND	ND	ND	ND	ND	0
51332	2015-12-06T19:00:00	0.7	ND	ND	ND	ND	ND	ND	ND	ND	ND	ND	0
51333	2015-12-06T20:00:00	22.6	ND	ND	ND	ND	ND	ND	ND	ND	ND	ND	0
51334	2015-12-06T21:00:00	22.7	ND	ND	ND	ND	ND	ND	ND	ND	ND	ND	0
51335	2015-12-06T22:00:00	30	ND	ND	ND	ND	ND	ND	ND	ND	ND	ND	0
51336	2015-12-06T23:00:00	15.5	ND	ND	ND	ND	ND	ND	ND	ND	ND	ND	0
51337	2015-12-07T00:00:00	8.1	ND	ND	ND	ND	ND	ND	ND	ND	ND	ND	0
51338	2015-12-07T01:00:00	42.2	ND	ND	ND	ND	ND	ND	ND	ND	ND	ND	0
51339	2015-12-07T02:00:00	54	ND	ND	ND	ND	ND	ND	ND	ND	ND	ND	0
51340	2015-12-07T03:00:00	37	ND	ND	ND	ND	ND	ND	ND	ND	ND	ND	0
51341	2015-12-07T04:00:00	22.7	ND	ND	ND	ND	ND	ND	ND	ND	ND	ND	0
51342	2015-12-07T05:00:00	32.5	ND	ND	ND	ND	ND	ND	ND	ND	ND	ND	0
51343	2015-12-07T06:00:00	26.4	ND	ND	ND	ND	ND	ND	ND	ND	ND	ND	0
51344	2015-12-07T07:00:00	72.5	ND	ND	ND	ND	ND	ND	ND	ND	ND	ND	0
51345	2015-12-07T08:00:00	91.8	ND	ND	ND	ND	ND	ND	ND	ND	ND	ND	0
51346	2015-12-07T09:00:00	55.3	ND	ND	ND	ND	ND	ND	ND	ND	ND	ND	0
51347	2015-12-07T10:00:00	56.3	ND	ND	ND	ND	ND	ND	ND	ND	ND	ND	0
51348	2015-12-07T11:00:00	64.2	ND	ND	ND	ND	ND	ND	ND	ND	ND	ND	0
51349	2015-12-07T12:00:00	125.9	ND	ND	ND	ND	ND	ND	ND	ND	ND	ND	0
51350	2015-12-07T13:00:00	94.8	ND	ND	ND	ND	ND	ND	ND	ND	ND	ND	0
51351	2015-12-07T14:00:00	57.5	ND	ND	ND	ND	ND	ND	ND	ND	ND	ND	0
51352	2015-12-07T15:00:00	36.2	ND	ND	ND	ND	ND	ND	ND	ND	ND	ND	0
51353	2015-12-07T16:00:00	15.5	ND	ND	ND	ND	ND	ND	ND	ND	ND	ND	0
51354	2015-12-07T17:00:00	80.3	ND	ND	ND	ND	ND	ND	ND	ND	ND	ND	0
51355	2015-12-07T18:00:00	48.4	ND	ND	ND	ND	ND	ND	ND	ND	ND	ND	0
51356	2015-12-07T19:00:00	4.2	ND	ND	ND	ND	ND	ND	ND	ND	ND	ND	0
51357	2015-12-07T20:00:00	4.9	ND	ND	ND	ND	ND	ND	ND	ND	ND	ND	0
51358	2015-12-07T21:00:00	21.7	ND	ND	ND	ND	ND	ND	ND	ND	ND	ND	0
51359	2015-12-07T22:00:00	31.1	ND	ND	ND	ND	ND	ND	ND	ND	ND	ND	0
51360	2015-12-07T23:00:00	40	ND	ND	ND	ND	ND	ND	ND	ND	ND	ND	0
51361	2015-12-08T00:00:00	98.7	ND	ND	ND	ND	ND	ND	ND	ND	ND	ND	0
51362	2015-12-08T01:00:00	153.8	ND	ND	ND	ND	ND	ND	ND	ND	ND	ND	0
51363	2015-12-08T02:00:00	88.2	ND	ND	ND	ND	ND	ND	ND	ND	ND	ND	0
51364	2015-12-08T03:00:00	60.7	ND	ND	ND	ND	ND	ND	ND	ND	ND	ND	0
51365	2015-12-08T04:00:00	61.2	ND	ND	ND	ND	ND	ND	ND	ND	ND	ND	0
51366	2015-12-08T05:00:00	71.8	ND	ND	ND	ND	ND	ND	ND	ND	ND	ND	0
51367	2015-12-08T06:00:00	49.8	ND	ND	ND	ND	ND	ND	ND	ND	ND	ND	0
51368	2015-12-08T07:00:00	45.5	ND	ND	ND	ND	ND	ND	ND	ND	ND	ND	0
51369	2015-12-08T08:00:00	53.1	ND	ND	ND	ND	ND	ND	ND	ND	ND	ND	0
51370	2015-12-08T09:00:00	92.4	ND	ND	ND	ND	ND	ND	ND	ND	ND	ND	0
51371	2015-12-08T10:00:00	66	ND	ND	ND	ND	ND	ND	ND	ND	ND	ND	0
51372	2015-12-08T11:00:00	56.2	ND	ND	ND	ND	ND	ND	ND	ND	ND	ND	0
51373	2015-12-08T12:00:00	47.1	ND	ND	ND	ND	ND	ND	ND	ND	ND	ND	0
51374	2015-12-08T13:00:00	54.6	ND	ND	ND	ND	ND	ND	ND	ND	ND	ND	0
51375	2015-12-08T14:00:00	55.9	ND	ND	ND	ND	ND	ND	ND	ND	ND	ND	0
51376	2015-12-08T15:00:00	40.5	ND	ND	ND	ND	ND	ND	ND	ND	ND	ND	0
51377	2015-12-08T16:00:00	35	ND	ND	ND	ND	ND	ND	ND	ND	ND	ND	0
51378	2015-12-08T17:00:00	23.7	ND	ND	ND	ND	ND	ND	ND	ND	ND	ND	0
51379	2015-12-08T18:00:00	ND	ND	ND	ND	ND	ND	ND	ND	ND	ND	ND	0
51380	2015-12-08T19:00:00	12.2	ND	ND	ND	ND	ND	ND	ND	ND	ND	ND	0
51381	2015-12-08T20:00:00	24.5	ND	ND	ND	ND	ND	ND	ND	ND	ND	ND	0
51382	2015-12-08T21:00:00	40.1	ND	ND	ND	ND	ND	ND	ND	ND	ND	ND	0
51383	2015-12-08T22:00:00	41.1	ND	ND	ND	ND	ND	ND	ND	ND	ND	ND	0
51384	2015-12-08T23:00:00	31.8	ND	ND	ND	ND	ND	ND	ND	ND	ND	ND	0
51385	2015-12-09T00:00:00	43.3	ND	ND	ND	ND	ND	ND	ND	ND	ND	ND	0
51386	2015-12-09T01:00:00	51.4	ND	ND	ND	ND	ND	ND	ND	ND	ND	ND	0
51387	2015-12-09T02:00:00	53.1	ND	ND	ND	ND	ND	ND	ND	ND	ND	ND	0
51388	2015-12-09T03:00:00	29.8	ND	ND	ND	ND	ND	ND	ND	ND	ND	ND	0
51389	2015-12-09T04:00:00	33.3	ND	ND	ND	ND	ND	ND	ND	ND	ND	ND	0
51390	2015-12-09T05:00:00	44	ND	ND	ND	ND	ND	ND	ND	ND	ND	ND	0
51391	2015-12-09T06:00:00	51.6	ND	ND	ND	ND	ND	ND	ND	ND	ND	ND	0
51392	2015-12-09T07:00:00	37.9	ND	ND	ND	ND	ND	ND	ND	ND	ND	ND	0
51393	2015-12-09T08:00:00	95	ND	ND	ND	ND	ND	ND	ND	ND	ND	ND	0
51394	2015-12-09T09:00:00	98.9	ND	ND	ND	ND	ND	ND	ND	ND	ND	ND	0
51395	2015-12-09T10:00:00	90.1	ND	ND	ND	ND	ND	ND	ND	ND	ND	ND	0
51396	2015-12-09T11:00:00	ND	ND	ND	ND	ND	ND	ND	ND	ND	ND	ND	ND
51397	2015-12-09T12:00:00	ND	ND	ND	ND	ND	ND	ND	ND	ND	ND	ND	ND
51398	2015-12-09T13:00:00	ND	ND	ND	ND	ND	ND	ND	ND	ND	ND	ND	ND
51399	2015-12-09T14:00:00	ND	ND	ND	ND	ND	ND	ND	ND	ND	ND	ND	ND
51400	2015-12-09T15:00:00	ND	ND	ND	ND	ND	ND	ND	ND	ND	ND	ND	ND
51401	2015-12-09T16:00:00	ND	ND	ND	ND	ND	ND	ND	ND	ND	ND	ND	ND
51402	2015-12-09T17:00:00	ND	ND	ND	ND	ND	ND	ND	ND	ND	ND	ND	ND
51403	2015-12-09T18:00:00	ND	ND	ND	ND	ND	ND	ND	ND	ND	ND	ND	ND
51404	2015-12-09T19:00:00	ND	ND	ND	ND	ND	ND	ND	ND	ND	ND	ND	ND
51405	2015-12-09T20:00:00	ND	ND	ND	ND	ND	ND	ND	ND	ND	ND	ND	ND
51406	2015-12-09T21:00:00	ND	ND	ND	ND	ND	ND	ND	ND	ND	ND	ND	ND
51407	2015-12-09T22:00:00	ND	ND	ND	ND	ND	ND	ND	ND	ND	ND	ND	ND
51408	2015-12-09T23:00:00	ND	ND	ND	ND	ND	ND	ND	ND	ND	ND	ND	ND
51409	2015-12-10T00:00:00	ND	ND	ND	ND	ND	ND	ND	ND	ND	ND	ND	ND
51410	2015-12-10T01:00:00	ND	ND	ND	ND	ND	ND	ND	ND	ND	ND	ND	ND
51411	2015-12-10T02:00:00	ND	ND	ND	ND	ND	ND	ND	ND	ND	ND	ND	ND
51412	2015-12-10T03:00:00	ND	ND	ND	ND	ND	ND	ND	ND	ND	ND	ND	ND
51413	2015-12-10T04:00:00	ND	ND	ND	ND	ND	ND	ND	ND	ND	ND	ND	ND
51414	2015-12-10T05:00:00	ND	ND	ND	ND	ND	ND	ND	ND	ND	ND	ND	ND
51415	2015-12-10T06:00:00	ND	ND	ND	ND	ND	ND	ND	ND	ND	ND	ND	ND
51416	2015-12-10T07:00:00	ND	ND	ND	ND	ND	ND	ND	ND	ND	ND	ND	ND
51417	2015-12-10T08:00:00	ND	ND	ND	ND	ND	ND	ND	ND	ND	ND	ND	ND
51418	2015-12-10T09:00:00	ND	ND	ND	ND	ND	ND	ND	ND	ND	ND	ND	ND
51419	2015-12-10T10:00:00	ND	ND	ND	ND	ND	ND	ND	ND	ND	ND	ND	ND
51420	2015-12-10T11:00:00	ND	ND	ND	ND	ND	ND	ND	ND	ND	ND	ND	ND
51421	2015-12-10T12:00:00	ND	ND	ND	ND	ND	ND	ND	ND	ND	ND	ND	ND
51422	2015-12-10T13:00:00	ND	ND	ND	ND	ND	ND	ND	ND	ND	ND	ND	ND
51423	2015-12-10T14:00:00	ND	ND	ND	ND	ND	ND	ND	ND	ND	ND	ND	ND
51424	2015-12-10T15:00:00	ND	ND	ND	ND	ND	ND	ND	ND	ND	ND	ND	ND
51425	2015-12-10T16:00:00	ND	ND	ND	ND	ND	ND	ND	ND	ND	ND	ND	ND
51426	2015-12-10T17:00:00	ND	ND	ND	ND	ND	ND	ND	ND	ND	ND	ND	ND
51427	2015-12-10T18:00:00	ND	ND	ND	ND	ND	ND	ND	ND	ND	ND	ND	ND
51428	2015-12-10T19:00:00	ND	ND	ND	ND	ND	ND	ND	ND	ND	ND	ND	ND
51429	2015-12-10T20:00:00	ND	ND	ND	ND	ND	ND	ND	ND	ND	ND	ND	ND
51430	2015-12-10T21:00:00	ND	ND	ND	ND	ND	ND	ND	ND	ND	ND	ND	0
51431	2015-12-10T22:00:00	ND	ND	ND	ND	ND	ND	ND	ND	ND	ND	ND	0
51432	2015-12-10T23:00:00	ND	ND	ND	ND	ND	ND	ND	ND	ND	ND	ND	0
51433	2015-12-11T00:00:00	158.7	ND	ND	ND	ND	ND	ND	ND	ND	ND	ND	0
51434	2015-12-11T01:00:00	82.3	ND	ND	ND	ND	ND	ND	ND	ND	ND	ND	0
51435	2015-12-11T02:00:00	61.4	ND	ND	ND	ND	ND	ND	ND	ND	ND	ND	0
51436	2015-12-11T03:00:00	63.4	ND	ND	ND	ND	ND	ND	ND	ND	ND	ND	0
51437	2015-12-11T04:00:00	70.7	ND	ND	ND	ND	ND	ND	ND	ND	ND	ND	0
51438	2015-12-11T05:00:00	50.6	ND	ND	ND	ND	ND	ND	ND	ND	ND	ND	0
51439	2015-12-11T06:00:00	44.2	ND	ND	ND	ND	ND	ND	ND	ND	ND	ND	0
51440	2015-12-11T07:00:00	83.6	ND	ND	ND	ND	ND	ND	ND	ND	ND	ND	0
51441	2015-12-11T08:00:00	117.7	ND	ND	ND	ND	ND	ND	ND	ND	ND	ND	0
51442	2015-12-11T09:00:00	124	ND	ND	ND	ND	ND	ND	ND	ND	ND	ND	0
51443	2015-12-11T10:00:00	96.1	ND	ND	ND	ND	ND	ND	ND	ND	ND	ND	0
51444	2015-12-11T11:00:00	67.7	ND	ND	ND	ND	ND	ND	ND	ND	ND	ND	0
51445	2015-12-11T12:00:00	81.8	ND	ND	ND	ND	ND	ND	ND	ND	ND	ND	0
51446	2015-12-11T13:00:00	88.8	ND	ND	ND	ND	ND	ND	ND	ND	ND	ND	0
51447	2015-12-11T14:00:00	101.5	ND	ND	ND	ND	ND	ND	ND	ND	ND	ND	0
51448	2015-12-11T15:00:00	63.8	ND	ND	ND	ND	ND	ND	ND	ND	ND	ND	0
51449	2015-12-11T16:00:00	66	ND	ND	ND	ND	ND	ND	ND	ND	ND	ND	0
51450	2015-12-11T17:00:00	63.7	ND	ND	ND	ND	ND	ND	ND	ND	ND	ND	0
51451	2015-12-11T18:00:00	32.3	ND	ND	ND	ND	ND	ND	ND	ND	ND	ND	0
51452	2015-12-11T19:00:00	20.9	ND	ND	ND	ND	ND	ND	ND	ND	ND	ND	0
51453	2015-12-11T20:00:00	15.1	ND	ND	ND	ND	ND	ND	ND	ND	ND	ND	0
51454	2015-12-11T21:00:00	16.8	ND	ND	ND	ND	ND	ND	ND	ND	ND	ND	0
51455	2015-12-11T22:00:00	20.2	ND	ND	ND	ND	ND	ND	ND	ND	ND	ND	0
51456	2015-12-11T23:00:00	53.5	ND	ND	ND	ND	ND	ND	ND	ND	ND	ND	0
51457	2015-12-12T00:00:00	25	ND	ND	ND	ND	ND	ND	ND	ND	ND	ND	0
51458	2015-12-12T01:00:00	87.9	ND	ND	ND	ND	ND	ND	ND	ND	ND	ND	0
51459	2015-12-12T02:00:00	40.9	ND	ND	ND	ND	ND	ND	ND	ND	ND	ND	0
51460	2015-12-12T03:00:00	5.3	ND	ND	ND	ND	ND	ND	ND	ND	ND	ND	0
51461	2015-12-12T04:00:00	30	ND	ND	ND	ND	ND	ND	ND	ND	ND	ND	0
51462	2015-12-12T05:00:00	74.2	ND	ND	ND	ND	ND	ND	ND	ND	ND	ND	0
51463	2015-12-12T06:00:00	60.3	ND	ND	ND	ND	ND	ND	ND	ND	ND	ND	0
51464	2015-12-12T07:00:00	76.6	ND	ND	ND	ND	ND	ND	ND	ND	ND	ND	0
51465	2015-12-12T08:00:00	93.4	ND	ND	ND	ND	ND	ND	ND	ND	ND	ND	0
51466	2015-12-12T09:00:00	80.6	ND	ND	ND	ND	ND	ND	ND	ND	ND	ND	0
51467	2015-12-12T10:00:00	87.4	ND	ND	ND	ND	ND	ND	ND	ND	ND	ND	0
51468	2015-12-12T11:00:00	ND	ND	ND	ND	ND	ND	ND	ND	ND	ND	ND	ND
51469	2015-12-12T12:00:00	ND	ND	ND	ND	ND	ND	ND	ND	ND	ND	ND	0
51470	2015-12-12T13:00:00	32.8	ND	ND	ND	ND	ND	ND	ND	ND	ND	ND	0
51471	2015-12-12T14:00:00	103.8	ND	ND	ND	ND	ND	ND	ND	ND	ND	ND	0
51472	2015-12-12T15:00:00	81.7	ND	ND	ND	ND	ND	ND	ND	ND	ND	ND	0
51473	2015-12-12T16:00:00	67.3	ND	ND	ND	ND	ND	ND	ND	ND	ND	ND	0
51474	2015-12-12T17:00:00	48.2	ND	ND	ND	ND	ND	ND	ND	ND	ND	ND	0
51475	2015-12-12T18:00:00	ND	ND	ND	ND	ND	ND	ND	ND	ND	ND	ND	0
51476	2015-12-12T19:00:00	ND	ND	ND	ND	ND	ND	ND	ND	ND	ND	ND	0
51477	2015-12-12T20:00:00	18.4	ND	ND	ND	ND	ND	ND	ND	ND	ND	ND	0
51478	2015-12-12T21:00:00	0.1	ND	ND	ND	ND	ND	ND	ND	ND	ND	ND	0
51479	2015-12-12T22:00:00	16.6	ND	ND	ND	ND	ND	ND	ND	ND	ND	ND	0
51480	2015-12-12T23:00:00	93.4	ND	ND	ND	ND	ND	ND	ND	ND	ND	ND	0
51481	2015-12-13T00:00:00	9.1	ND	ND	ND	ND	ND	ND	ND	ND	ND	ND	0
51482	2015-12-13T01:00:00	10.3	ND	ND	ND	ND	ND	ND	ND	ND	ND	ND	0
51483	2015-12-13T02:00:00	49.5	ND	ND	ND	ND	ND	ND	ND	ND	ND	ND	0
51484	2015-12-13T03:00:00	97.1	ND	ND	ND	ND	ND	ND	ND	ND	ND	ND	0
51485	2015-12-13T04:00:00	58.5	ND	ND	ND	ND	ND	ND	ND	ND	ND	ND	0
51486	2015-12-13T05:00:00	27.3	ND	ND	ND	ND	ND	ND	ND	ND	ND	ND	0
51487	2015-12-13T06:00:00	48.6	ND	ND	ND	ND	ND	ND	ND	ND	ND	ND	0
51488	2015-12-13T07:00:00	108.1	ND	ND	ND	ND	ND	ND	ND	ND	ND	ND	0
51489	2015-12-13T08:00:00	133.4	ND	ND	ND	ND	ND	ND	ND	ND	ND	ND	0
51490	2015-12-13T09:00:00	127.2	ND	ND	ND	ND	ND	ND	ND	ND	ND	ND	0
51491	2015-12-13T10:00:00	79.5	ND	ND	ND	ND	ND	ND	ND	ND	ND	ND	0
51492	2015-12-13T11:00:00	56.9	ND	ND	ND	ND	ND	ND	ND	ND	ND	ND	0
51493	2015-12-13T12:00:00	58.9	ND	ND	ND	ND	ND	ND	ND	ND	ND	ND	0
51494	2015-12-13T13:00:00	76.6	ND	ND	ND	ND	ND	ND	ND	ND	ND	ND	0
51495	2015-12-13T14:00:00	37.5	ND	ND	ND	ND	ND	ND	ND	ND	ND	ND	0
51496	2015-12-13T15:00:00	27.4	ND	ND	ND	ND	ND	ND	ND	ND	ND	ND	0
51497	2015-12-13T16:00:00	13.8	ND	ND	ND	ND	ND	ND	ND	ND	ND	ND	0
51498	2015-12-13T17:00:00	9.9	ND	ND	ND	ND	ND	ND	ND	ND	ND	ND	0
51499	2015-12-13T18:00:00	14	ND	ND	ND	ND	ND	ND	ND	ND	ND	ND	0
51500	2015-12-13T19:00:00	ND	ND	ND	ND	ND	ND	ND	ND	ND	ND	ND	0
51501	2015-12-13T20:00:00	ND	ND	ND	ND	ND	ND	ND	ND	ND	ND	ND	0
51502	2015-12-13T21:00:00	ND	ND	ND	ND	ND	ND	ND	ND	ND	ND	ND	0
51503	2015-12-13T22:00:00	11.1	ND	ND	ND	ND	ND	ND	ND	ND	ND	ND	0
51504	2015-12-13T23:00:00	90.4	ND	ND	ND	ND	ND	ND	ND	ND	ND	ND	0
51505	2015-12-14T00:00:00	114.1	ND	ND	ND	ND	ND	ND	ND	ND	ND	ND	0
51506	2015-12-14T01:00:00	87	ND	ND	ND	ND	ND	ND	ND	ND	ND	ND	0
51507	2015-12-14T02:00:00	35.2	ND	ND	ND	ND	ND	ND	ND	ND	ND	ND	0
51508	2015-12-14T03:00:00	20.7	ND	ND	ND	ND	ND	ND	ND	ND	ND	ND	0
51509	2015-12-14T04:00:00	28.7	ND	ND	ND	ND	ND	ND	ND	ND	ND	ND	0
51510	2015-12-14T05:00:00	22.4	ND	ND	ND	ND	ND	ND	ND	ND	ND	ND	0
51511	2015-12-14T06:00:00	70.3	ND	ND	ND	ND	ND	ND	ND	ND	ND	ND	0
51512	2015-12-14T07:00:00	89.3	ND	ND	ND	ND	ND	ND	ND	ND	ND	ND	0
51513	2015-12-14T08:00:00	107.4	ND	ND	ND	ND	ND	ND	ND	ND	ND	ND	0
51514	2015-12-14T09:00:00	135.9	ND	ND	ND	ND	ND	ND	ND	ND	ND	ND	0
51515	2015-12-14T10:00:00	138	ND	ND	ND	ND	ND	ND	ND	ND	ND	ND	0
51516	2015-12-14T11:00:00	38.5	ND	ND	ND	ND	ND	ND	ND	ND	ND	ND	0
51517	2015-12-14T12:00:00	32.5	ND	ND	ND	ND	ND	ND	ND	ND	ND	ND	0
51518	2015-12-14T13:00:00	105.5	ND	ND	ND	ND	ND	ND	ND	ND	ND	ND	0
51519	2015-12-14T14:00:00	97.7	ND	ND	ND	ND	ND	ND	ND	ND	ND	ND	0
51520	2015-12-14T15:00:00	76.3	ND	ND	ND	ND	ND	ND	ND	ND	ND	ND	0
51521	2015-12-14T16:00:00	36.1	ND	ND	ND	ND	ND	ND	ND	ND	ND	ND	1.02
51522	2015-12-14T17:00:00	29.7	ND	ND	ND	ND	ND	ND	ND	ND	ND	ND	0.76
51523	2015-12-14T18:00:00	42.8	ND	ND	ND	ND	ND	ND	ND	ND	ND	ND	0
51524	2015-12-14T19:00:00	27.6	ND	ND	ND	ND	ND	ND	ND	ND	ND	ND	0
51525	2015-12-14T20:00:00	12.2	ND	ND	ND	ND	ND	ND	ND	ND	ND	ND	0
51526	2015-12-14T21:00:00	7.9	ND	ND	ND	ND	ND	ND	ND	ND	ND	ND	0
51527	2015-12-14T22:00:00	5.7	ND	ND	ND	ND	ND	ND	ND	ND	ND	ND	0
51528	2015-12-14T23:00:00	50.1	ND	ND	ND	ND	ND	ND	ND	ND	ND	ND	0
51529	2015-12-15T00:00:00	34.4	ND	ND	ND	ND	ND	ND	ND	ND	ND	ND	0
51530	2015-12-15T01:00:00	26.7	ND	ND	ND	ND	ND	ND	ND	ND	ND	ND	0
51531	2015-12-15T02:00:00	61.4	ND	ND	ND	ND	ND	ND	ND	ND	ND	ND	0
51532	2015-12-15T03:00:00	58.6	ND	ND	ND	ND	ND	ND	ND	ND	ND	ND	0
51533	2015-12-15T04:00:00	49.9	ND	ND	ND	ND	ND	ND	ND	ND	ND	ND	0
51534	2015-12-15T05:00:00	36	ND	ND	ND	ND	ND	ND	ND	ND	ND	ND	0
51535	2015-12-15T06:00:00	28.7	ND	ND	ND	ND	ND	ND	ND	ND	ND	ND	0
51536	2015-12-15T07:00:00	29.7	ND	ND	ND	ND	ND	ND	ND	ND	ND	ND	0
51537	2015-12-15T08:00:00	48.7	ND	ND	ND	ND	ND	ND	ND	ND	ND	ND	0
51538	2015-12-15T09:00:00	65.9	ND	ND	ND	ND	ND	ND	ND	ND	ND	ND	2.54
51539	2015-12-15T10:00:00	53.5	ND	ND	ND	ND	ND	ND	ND	ND	ND	ND	0.25
51540	2015-12-15T11:00:00	24.5	ND	ND	ND	ND	ND	ND	ND	ND	ND	ND	0
51541	2015-12-15T12:00:00	61	ND	ND	ND	ND	ND	ND	ND	ND	ND	ND	0
51542	2015-12-15T13:00:00	82.2	ND	ND	ND	ND	ND	ND	ND	ND	ND	ND	0
51543	2015-12-15T14:00:00	72.8	ND	ND	ND	ND	ND	ND	ND	ND	ND	ND	0
51544	2015-12-15T15:00:00	48.7	ND	ND	ND	ND	ND	ND	ND	ND	ND	ND	0
51545	2015-12-15T16:00:00	174.2	ND	ND	ND	ND	ND	ND	ND	ND	ND	ND	0
51546	2015-12-15T17:00:00	75.1	ND	ND	ND	ND	ND	ND	ND	ND	ND	ND	0
51547	2015-12-15T18:00:00	85.3	ND	ND	ND	ND	ND	ND	ND	ND	ND	ND	0
51548	2015-12-15T19:00:00	41.6	ND	ND	ND	ND	ND	ND	ND	ND	ND	ND	0
51549	2015-12-15T20:00:00	19.5	ND	ND	ND	ND	ND	ND	ND	ND	ND	ND	0
51550	2015-12-15T21:00:00	39.5	ND	ND	ND	ND	ND	ND	ND	ND	ND	ND	0
51551	2015-12-15T22:00:00	23.5	ND	ND	ND	ND	ND	ND	ND	ND	ND	ND	0
51552	2015-12-15T23:00:00	58	ND	ND	ND	ND	ND	ND	ND	ND	ND	ND	0
51553	2015-12-16T00:00:00	25	ND	ND	ND	ND	ND	ND	ND	ND	ND	ND	0
51554	2015-12-16T01:00:00	13.4	ND	ND	ND	ND	ND	ND	ND	ND	ND	ND	0
51555	2015-12-16T02:00:00	90.1	ND	ND	ND	ND	ND	ND	ND	ND	ND	ND	0
51556	2015-12-16T03:00:00	43.6	ND	ND	ND	ND	ND	ND	ND	ND	ND	ND	0
51557	2015-12-16T04:00:00	67.5	ND	ND	ND	ND	ND	ND	ND	ND	ND	ND	0
51558	2015-12-16T05:00:00	35.2	ND	ND	ND	ND	ND	ND	ND	ND	ND	ND	0
51559	2015-12-16T06:00:00	44.3	ND	ND	ND	ND	ND	ND	ND	ND	ND	ND	0
51560	2015-12-16T07:00:00	37.7	ND	ND	ND	ND	ND	ND	ND	ND	ND	ND	0
51561	2015-12-16T08:00:00	97.2	ND	ND	ND	ND	ND	ND	ND	ND	ND	ND	0
51562	2015-12-16T09:00:00	44.8	ND	ND	ND	ND	ND	ND	ND	ND	ND	ND	0
51563	2015-12-16T10:00:00	107.8	ND	ND	ND	ND	ND	ND	ND	ND	ND	ND	0
51564	2015-12-16T11:00:00	112.4	ND	ND	ND	ND	ND	ND	ND	ND	ND	ND	0
51565	2015-12-16T12:00:00	87.9	ND	ND	ND	ND	ND	ND	ND	ND	ND	ND	0
51566	2015-12-16T13:00:00	82.5	ND	ND	ND	ND	ND	ND	ND	ND	ND	ND	0
51567	2015-12-16T14:00:00	54.1	ND	ND	ND	ND	ND	ND	ND	ND	ND	ND	0
51568	2015-12-16T15:00:00	98.9	ND	ND	ND	ND	ND	ND	ND	ND	ND	ND	0
51569	2015-12-16T16:00:00	54.7	ND	ND	ND	ND	ND	ND	ND	ND	ND	ND	0
51570	2015-12-16T17:00:00	33.8	ND	ND	ND	ND	ND	ND	ND	ND	ND	ND	0
51571	2015-12-16T18:00:00	28.4	ND	ND	ND	ND	ND	ND	ND	ND	ND	ND	0
51572	2015-12-16T19:00:00	32.5	ND	ND	ND	ND	ND	ND	ND	ND	ND	ND	0
51573	2015-12-16T20:00:00	22.4	ND	ND	ND	ND	ND	ND	ND	ND	ND	ND	0
51574	2015-12-16T21:00:00	21.8	ND	ND	ND	ND	ND	ND	ND	ND	ND	ND	0
51575	2015-12-16T22:00:00	17.3	ND	ND	ND	ND	ND	ND	ND	ND	ND	ND	0
51576	2015-12-16T23:00:00	20.2	ND	ND	ND	ND	ND	ND	ND	ND	ND	ND	0
51577	2015-12-17T00:00:00	67.6	ND	ND	ND	ND	ND	ND	ND	ND	ND	ND	0
51578	2015-12-17T01:00:00	79.5	ND	ND	ND	ND	ND	ND	ND	ND	ND	ND	0
51579	2015-12-17T02:00:00	49.7	ND	ND	ND	ND	ND	ND	ND	ND	ND	ND	0
51580	2015-12-17T03:00:00	38.6	ND	ND	ND	ND	ND	ND	ND	ND	ND	ND	0
51581	2015-12-17T04:00:00	30.6	ND	ND	ND	ND	ND	ND	ND	ND	ND	ND	0.25
51582	2015-12-17T05:00:00	37.1	ND	ND	ND	ND	ND	ND	ND	ND	ND	ND	0.76
51583	2015-12-17T06:00:00	51.7	ND	ND	ND	ND	ND	ND	ND	ND	ND	ND	1.02
51584	2015-12-17T07:00:00	51.5	ND	ND	ND	ND	ND	ND	ND	ND	ND	ND	2.29
51585	2015-12-17T08:00:00	3.9	ND	ND	ND	ND	ND	ND	ND	ND	ND	ND	1.78
51586	2015-12-17T09:00:00	31.8	ND	ND	ND	ND	ND	ND	ND	ND	ND	ND	1.78
51587	2015-12-17T10:00:00	47.9	ND	ND	ND	ND	ND	ND	ND	ND	ND	ND	0
51588	2015-12-17T11:00:00	35.2	ND	ND	ND	ND	ND	ND	ND	ND	ND	ND	0
51589	2015-12-17T12:00:00	59.7	ND	ND	ND	ND	ND	ND	ND	ND	ND	ND	0.25
51590	2015-12-17T13:00:00	96.5	ND	ND	ND	ND	ND	ND	ND	ND	ND	ND	0
51591	2015-12-17T14:00:00	75.4	ND	ND	ND	ND	ND	ND	ND	ND	ND	ND	0
51592	2015-12-17T15:00:00	44.7	ND	ND	ND	ND	ND	ND	ND	ND	ND	ND	0
51593	2015-12-17T16:00:00	28.6	ND	ND	ND	ND	ND	ND	ND	ND	ND	ND	0
51594	2015-12-17T17:00:00	77.1	ND	ND	ND	ND	ND	ND	ND	ND	ND	ND	0
51595	2015-12-17T18:00:00	110.8	ND	ND	ND	ND	ND	ND	ND	ND	ND	ND	0
51596	2015-12-17T19:00:00	121	ND	ND	ND	ND	ND	ND	ND	ND	ND	ND	0
51597	2015-12-17T20:00:00	89.9	ND	ND	ND	ND	ND	ND	ND	ND	ND	ND	0
51598	2015-12-17T21:00:00	48.8	ND	ND	ND	ND	ND	ND	ND	ND	ND	ND	0
51599	2015-12-17T22:00:00	28.2	ND	ND	ND	ND	ND	ND	ND	ND	ND	ND	0
51600	2015-12-17T23:00:00	21.7	ND	ND	ND	ND	ND	ND	ND	ND	ND	ND	0
51601	2015-12-18T00:00:00	62.6	ND	ND	ND	ND	ND	ND	ND	ND	ND	ND	0
51602	2015-12-18T01:00:00	75.4	ND	ND	ND	ND	ND	ND	ND	ND	ND	ND	0
51603	2015-12-18T02:00:00	68.5	ND	ND	ND	ND	ND	ND	ND	ND	ND	ND	0
51604	2015-12-18T03:00:00	4.7	ND	ND	ND	ND	ND	ND	ND	ND	ND	ND	0
51605	2015-12-18T04:00:00	61.5	ND	ND	ND	ND	ND	ND	ND	ND	ND	ND	0
51606	2015-12-18T05:00:00	14.6	ND	ND	ND	ND	ND	ND	ND	ND	ND	ND	0
51607	2015-12-18T06:00:00	ND	ND	ND	ND	ND	ND	ND	ND	ND	ND	ND	0
51608	2015-12-18T07:00:00	ND	ND	ND	ND	ND	ND	ND	ND	ND	ND	ND	0
51609	2015-12-18T08:00:00	100.1	ND	ND	ND	ND	ND	ND	ND	ND	ND	ND	0
51610	2015-12-18T09:00:00	ND	ND	ND	ND	ND	ND	ND	ND	ND	ND	ND	0
51611	2015-12-18T10:00:00	ND	ND	ND	ND	ND	ND	ND	ND	ND	ND	ND	0
51612	2015-12-18T11:00:00	ND	ND	ND	ND	ND	ND	ND	ND	ND	ND	ND	0
51613	2015-12-18T12:00:00	108.7	ND	ND	ND	ND	ND	ND	ND	ND	ND	ND	0
51614	2015-12-18T13:00:00	83.5	ND	ND	ND	ND	ND	ND	ND	ND	ND	ND	0
51615	2015-12-18T14:00:00	62.5	ND	ND	ND	ND	ND	ND	ND	ND	ND	ND	0
51616	2015-12-18T15:00:00	55	ND	ND	ND	ND	ND	ND	ND	ND	ND	ND	0
51617	2015-12-18T16:00:00	50	ND	ND	ND	ND	ND	ND	ND	ND	ND	ND	0
51618	2015-12-18T17:00:00	68.7	ND	ND	ND	ND	ND	ND	ND	ND	ND	ND	0
51619	2015-12-18T18:00:00	32.9	ND	ND	ND	ND	ND	ND	ND	ND	ND	ND	0
51620	2015-12-18T19:00:00	16.1	ND	ND	ND	ND	ND	ND	ND	ND	ND	ND	0
51621	2015-12-18T20:00:00	30.7	ND	ND	ND	ND	ND	ND	ND	ND	ND	ND	0
51622	2015-12-18T21:00:00	37.3	ND	ND	ND	ND	ND	ND	ND	ND	ND	ND	0
51623	2015-12-18T22:00:00	57.8	ND	ND	ND	ND	ND	ND	ND	ND	ND	ND	0
51624	2015-12-18T23:00:00	31.8	ND	ND	ND	ND	ND	ND	ND	ND	ND	ND	0
51625	2015-12-19T00:00:00	76.3	ND	ND	ND	ND	ND	ND	ND	ND	ND	ND	0
51626	2015-12-19T01:00:00	15.1	ND	ND	ND	ND	ND	ND	ND	ND	ND	ND	0
51627	2015-12-19T02:00:00	58.5	ND	ND	ND	ND	ND	ND	ND	ND	ND	ND	0
51628	2015-12-19T03:00:00	68.1	ND	ND	ND	ND	ND	ND	ND	ND	ND	ND	0
51629	2015-12-19T04:00:00	39.4	ND	ND	ND	ND	ND	ND	ND	ND	ND	ND	0
51630	2015-12-19T05:00:00	46.8	ND	ND	ND	ND	ND	ND	ND	ND	ND	ND	0
51631	2015-12-19T06:00:00	62	ND	ND	ND	ND	ND	ND	ND	ND	ND	ND	0
51632	2015-12-19T07:00:00	75.4	ND	ND	ND	ND	ND	ND	ND	ND	ND	ND	0
51633	2015-12-19T08:00:00	114	ND	ND	ND	ND	ND	ND	ND	ND	ND	ND	0
51634	2015-12-19T09:00:00	203.5	ND	ND	ND	ND	ND	ND	ND	ND	ND	ND	0
51635	2015-12-19T10:00:00	132.3	ND	ND	ND	ND	ND	ND	ND	ND	ND	ND	0
51636	2015-12-19T11:00:00	83.2	ND	ND	ND	ND	ND	ND	ND	ND	ND	ND	0
51637	2015-12-19T12:00:00	88.5	ND	ND	ND	ND	ND	ND	ND	ND	ND	ND	0
51638	2015-12-19T13:00:00	99.5	ND	ND	ND	ND	ND	ND	ND	ND	ND	ND	0
51639	2015-12-19T14:00:00	101.8	ND	ND	ND	ND	ND	ND	ND	ND	ND	ND	0
51640	2015-12-19T15:00:00	67.3	ND	ND	ND	ND	ND	ND	ND	ND	ND	ND	0
51641	2015-12-19T16:00:00	65	ND	ND	ND	ND	ND	ND	ND	ND	ND	ND	0
51642	2015-12-19T17:00:00	123.7	ND	ND	ND	ND	ND	ND	ND	ND	ND	ND	0
51643	2015-12-19T18:00:00	94.3	ND	ND	ND	ND	ND	ND	ND	ND	ND	ND	0
51644	2015-12-19T19:00:00	48	ND	ND	ND	ND	ND	ND	ND	ND	ND	ND	0
51645	2015-12-19T20:00:00	27	ND	ND	ND	ND	ND	ND	ND	ND	ND	ND	0
51646	2015-12-19T21:00:00	22.1	ND	ND	ND	ND	ND	ND	ND	ND	ND	ND	0
51647	2015-12-19T22:00:00	36.1	ND	ND	ND	ND	ND	ND	ND	ND	ND	ND	0
51648	2015-12-19T23:00:00	50.5	ND	ND	ND	ND	ND	ND	ND	ND	ND	ND	0
51649	2015-12-20T00:00:00	106.6	ND	ND	ND	ND	ND	ND	ND	ND	ND	ND	0
51650	2015-12-20T01:00:00	117.4	ND	ND	ND	ND	ND	ND	ND	ND	ND	ND	0
51651	2015-12-20T02:00:00	61.5	ND	ND	ND	ND	ND	ND	ND	ND	ND	ND	0
51652	2015-12-20T03:00:00	64	ND	ND	ND	ND	ND	ND	ND	ND	ND	ND	0
51653	2015-12-20T04:00:00	87.1	ND	ND	ND	ND	ND	ND	ND	ND	ND	ND	0
51654	2015-12-20T05:00:00	84.9	ND	ND	ND	ND	ND	ND	ND	ND	ND	ND	0
51655	2015-12-20T06:00:00	86.1	ND	ND	ND	ND	ND	ND	ND	ND	ND	ND	0
51656	2015-12-20T07:00:00	77.9	ND	ND	ND	ND	ND	ND	ND	ND	ND	ND	0
51657	2015-12-20T08:00:00	90.6	ND	ND	ND	ND	ND	ND	ND	ND	ND	ND	0
51658	2015-12-20T09:00:00	64.7	ND	ND	ND	ND	ND	ND	ND	ND	ND	ND	0
51659	2015-12-20T10:00:00	84.1	ND	ND	ND	ND	ND	ND	ND	ND	ND	ND	0
51660	2015-12-20T11:00:00	64.3	ND	ND	ND	ND	ND	ND	ND	ND	ND	ND	0
51661	2015-12-20T12:00:00	51.9	ND	ND	ND	ND	ND	ND	ND	ND	ND	ND	0
51662	2015-12-20T13:00:00	51.1	ND	ND	ND	ND	ND	ND	ND	ND	ND	ND	0
51663	2015-12-20T14:00:00	95.4	ND	ND	ND	ND	ND	ND	ND	ND	ND	ND	0
51664	2015-12-20T15:00:00	75.8	ND	ND	ND	ND	ND	ND	ND	ND	ND	ND	0
51665	2015-12-20T16:00:00	62.7	ND	ND	ND	ND	ND	ND	ND	ND	ND	ND	0
51666	2015-12-20T17:00:00	54.6	ND	ND	ND	ND	ND	ND	ND	ND	ND	ND	0
51667	2015-12-20T18:00:00	9.3	ND	ND	ND	ND	ND	ND	ND	ND	ND	ND	0
51668	2015-12-20T19:00:00	16	ND	ND	ND	ND	ND	ND	ND	ND	ND	ND	0
51669	2015-12-20T20:00:00	4.7	ND	ND	ND	ND	ND	ND	ND	ND	ND	ND	0
51670	2015-12-20T21:00:00	41.3	ND	ND	ND	ND	ND	ND	ND	ND	ND	ND	0
51671	2015-12-20T22:00:00	25.1	ND	ND	ND	ND	ND	ND	ND	ND	ND	ND	0
51672	2015-12-20T23:00:00	10.3	ND	ND	ND	ND	ND	ND	ND	ND	ND	ND	0
51673	2015-12-21T00:00:00	43.1	ND	ND	ND	ND	ND	ND	ND	ND	ND	ND	0
51674	2015-12-21T01:00:00	42.6	ND	ND	ND	ND	ND	ND	ND	ND	ND	ND	0
51675	2015-12-21T02:00:00	55.8	ND	ND	ND	ND	ND	ND	ND	ND	ND	ND	0
51676	2015-12-21T03:00:00	54.8	ND	ND	ND	ND	ND	ND	ND	ND	ND	ND	0
51677	2015-12-21T04:00:00	33.5	ND	ND	ND	ND	ND	ND	ND	ND	ND	ND	0
51678	2015-12-21T05:00:00	12.3	ND	ND	ND	ND	ND	ND	ND	ND	ND	ND	0
51679	2015-12-21T06:00:00	47.1	ND	ND	ND	ND	ND	ND	ND	ND	ND	ND	0
51680	2015-12-21T07:00:00	41.5	ND	ND	ND	ND	ND	ND	ND	ND	ND	ND	0
51681	2015-12-21T08:00:00	70.7	ND	ND	ND	ND	ND	ND	ND	ND	ND	ND	0
51682	2015-12-21T09:00:00	105.6	ND	ND	ND	ND	ND	ND	ND	ND	ND	ND	0
51683	2015-12-21T10:00:00	97	ND	ND	ND	ND	ND	ND	ND	ND	ND	ND	0
51684	2015-12-21T11:00:00	96.5	ND	ND	ND	ND	ND	ND	ND	ND	ND	ND	0
51685	2015-12-21T12:00:00	81.6	ND	ND	ND	ND	ND	ND	ND	ND	ND	ND	0
51686	2015-12-21T13:00:00	58.8	ND	ND	ND	ND	ND	ND	ND	ND	ND	ND	0
51687	2015-12-21T14:00:00	66.1	ND	ND	ND	ND	ND	ND	ND	ND	ND	ND	0
51688	2015-12-21T15:00:00	68	ND	ND	ND	ND	ND	ND	ND	ND	ND	ND	0
51689	2015-12-21T16:00:00	63.5	ND	ND	ND	ND	ND	ND	ND	ND	ND	ND	0
51690	2015-12-21T17:00:00	39.4	ND	ND	ND	ND	ND	ND	ND	ND	ND	ND	0
51691	2015-12-21T18:00:00	42.5	ND	ND	ND	ND	ND	ND	ND	ND	ND	ND	0
51692	2015-12-21T19:00:00	33.1	ND	ND	ND	ND	ND	ND	ND	ND	ND	ND	0
51693	2015-12-21T20:00:00	8.4	ND	ND	ND	ND	ND	ND	ND	ND	ND	ND	0
51694	2015-12-21T21:00:00	10.5	ND	ND	ND	ND	ND	ND	ND	ND	ND	ND	0
51695	2015-12-21T22:00:00	35.3	ND	ND	ND	ND	ND	ND	ND	ND	ND	ND	0
51696	2015-12-21T23:00:00	59.2	ND	ND	ND	ND	ND	ND	ND	ND	ND	ND	0
51697	2015-12-22T00:00:00	71.6	ND	ND	ND	ND	ND	ND	ND	ND	ND	ND	0
51698	2015-12-22T01:00:00	52.5	ND	ND	ND	ND	ND	ND	ND	ND	ND	ND	0
51699	2015-12-22T02:00:00	5.5	ND	ND	ND	ND	ND	ND	ND	ND	ND	ND	0
51700	2015-12-22T03:00:00	ND	ND	ND	ND	ND	ND	ND	ND	ND	ND	ND	0
51701	2015-12-22T04:00:00	74.6	ND	ND	ND	ND	ND	ND	ND	ND	ND	ND	0
51702	2015-12-22T05:00:00	133.9	ND	ND	ND	ND	ND	ND	ND	ND	ND	ND	0
51703	2015-12-22T06:00:00	91.5	ND	ND	ND	ND	ND	ND	ND	ND	ND	ND	0
51704	2015-12-22T07:00:00	103.5	ND	ND	ND	ND	ND	ND	ND	ND	ND	ND	0
51705	2015-12-22T08:00:00	143.4	ND	ND	ND	ND	ND	ND	ND	ND	ND	ND	0
51706	2015-12-22T09:00:00	157.2	ND	ND	ND	ND	ND	ND	ND	ND	ND	ND	0
51707	2015-12-22T10:00:00	115.8	ND	ND	ND	ND	ND	ND	ND	ND	ND	ND	0
51708	2015-12-22T11:00:00	89.3	ND	ND	ND	ND	ND	ND	ND	ND	ND	ND	0
51709	2015-12-22T12:00:00	50.8	ND	ND	ND	ND	ND	ND	ND	ND	ND	ND	0
51710	2015-12-22T13:00:00	79.6	ND	ND	ND	ND	ND	ND	ND	ND	ND	ND	0
51711	2015-12-22T14:00:00	81.5	ND	ND	ND	ND	ND	ND	ND	ND	ND	ND	0
51712	2015-12-22T15:00:00	48.2	ND	ND	ND	ND	ND	ND	ND	ND	ND	ND	0
51713	2015-12-22T16:00:00	46.5	ND	ND	ND	ND	ND	ND	ND	ND	ND	ND	0
51714	2015-12-22T17:00:00	35.8	ND	ND	ND	ND	ND	ND	ND	ND	ND	ND	0
51715	2015-12-22T18:00:00	39.9	ND	ND	ND	ND	ND	ND	ND	ND	ND	ND	0
51716	2015-12-22T19:00:00	17	ND	ND	ND	ND	ND	ND	ND	ND	ND	ND	0
51717	2015-12-22T20:00:00	37.6	ND	ND	ND	ND	ND	ND	ND	ND	ND	ND	0
51718	2015-12-22T21:00:00	37.1	ND	ND	ND	ND	ND	ND	ND	ND	ND	ND	0
51719	2015-12-22T22:00:00	19.9	ND	ND	ND	ND	ND	ND	ND	ND	ND	ND	0
51720	2015-12-22T23:00:00	45.6	ND	ND	ND	ND	ND	ND	ND	ND	ND	ND	0
51721	2015-12-23T00:00:00	47.5	ND	ND	ND	ND	ND	ND	ND	ND	ND	ND	0
51722	2015-12-23T01:00:00	18.7	ND	ND	ND	ND	ND	ND	ND	ND	ND	ND	0
51723	2015-12-23T02:00:00	37.5	ND	ND	ND	ND	ND	ND	ND	ND	ND	ND	0
51724	2015-12-23T03:00:00	57.3	ND	ND	ND	ND	ND	ND	ND	ND	ND	ND	0
51725	2015-12-23T04:00:00	63.1	ND	ND	ND	ND	ND	ND	ND	ND	ND	ND	0
51726	2015-12-23T05:00:00	73.8	ND	ND	ND	ND	ND	ND	ND	ND	ND	ND	0
51727	2015-12-23T06:00:00	50.2	ND	ND	ND	ND	ND	ND	ND	ND	ND	ND	0
51728	2015-12-23T07:00:00	55.8	ND	ND	ND	ND	ND	ND	ND	ND	ND	ND	0
51729	2015-12-23T08:00:00	157	ND	ND	ND	ND	ND	ND	ND	ND	ND	ND	0
51730	2015-12-23T09:00:00	133.2	ND	ND	ND	ND	ND	ND	ND	ND	ND	ND	0
51731	2015-12-23T10:00:00	110.2	ND	ND	ND	ND	ND	ND	ND	ND	ND	ND	0
51732	2015-12-23T11:00:00	112.4	ND	ND	ND	ND	ND	ND	ND	ND	ND	ND	0
51733	2015-12-23T12:00:00	76.4	ND	ND	ND	ND	ND	ND	ND	ND	ND	ND	0
51734	2015-12-23T13:00:00	95.9	ND	ND	ND	ND	ND	ND	ND	ND	ND	ND	0
51735	2015-12-23T14:00:00	70	ND	ND	ND	ND	ND	ND	ND	ND	ND	ND	0
51736	2015-12-23T15:00:00	70.9	ND	ND	ND	ND	ND	ND	ND	ND	ND	ND	0
51737	2015-12-23T16:00:00	62	ND	ND	ND	ND	ND	ND	ND	ND	ND	ND	0
51738	2015-12-23T17:00:00	46	ND	ND	ND	ND	ND	ND	ND	ND	ND	ND	0
51739	2015-12-23T18:00:00	28.6	ND	ND	ND	ND	ND	ND	ND	ND	ND	ND	0
51740	2015-12-23T19:00:00	13.6	ND	ND	ND	ND	ND	ND	ND	ND	ND	ND	0
51741	2015-12-23T20:00:00	4	ND	ND	ND	ND	ND	ND	ND	ND	ND	ND	0
51742	2015-12-23T21:00:00	17.3	ND	ND	ND	ND	ND	ND	ND	ND	ND	ND	0
51743	2015-12-23T22:00:00	22	ND	ND	ND	ND	ND	ND	ND	ND	ND	ND	0
51744	2015-12-23T23:00:00	27.4	ND	ND	ND	ND	ND	ND	ND	ND	ND	ND	0
51745	2015-12-24T00:00:00	62.6	ND	ND	ND	ND	ND	ND	ND	ND	ND	ND	0
51746	2015-12-24T01:00:00	91	ND	ND	ND	ND	ND	ND	ND	ND	ND	ND	0
51747	2015-12-24T02:00:00	70.3	ND	ND	ND	ND	ND	ND	ND	ND	ND	ND	0
51748	2015-12-24T03:00:00	62.4	ND	ND	ND	ND	ND	ND	ND	ND	ND	ND	0
51749	2015-12-24T04:00:00	55.4	ND	ND	ND	ND	ND	ND	ND	ND	ND	ND	0
51750	2015-12-24T05:00:00	29.6	ND	ND	ND	ND	ND	ND	ND	ND	ND	ND	0
51751	2015-12-24T06:00:00	14.2	ND	ND	ND	ND	ND	ND	ND	ND	ND	ND	0
51752	2015-12-24T07:00:00	31.8	ND	ND	ND	ND	ND	ND	ND	ND	ND	ND	0
51753	2015-12-24T08:00:00	31.9	ND	ND	ND	ND	ND	ND	ND	ND	ND	ND	0
51754	2015-12-24T09:00:00	92.3	ND	ND	ND	ND	ND	ND	ND	ND	ND	ND	0
51755	2015-12-24T10:00:00	79.6	ND	ND	ND	ND	ND	ND	ND	ND	ND	ND	0
51756	2015-12-24T11:00:00	90.8	ND	ND	ND	ND	ND	ND	ND	ND	ND	ND	0
51757	2015-12-24T12:00:00	99.5	ND	ND	ND	ND	ND	ND	ND	ND	ND	ND	0
51758	2015-12-24T13:00:00	118.5	ND	ND	ND	ND	ND	ND	ND	ND	ND	ND	0
51759	2015-12-24T14:00:00	118	ND	ND	ND	ND	ND	ND	ND	ND	ND	ND	0
51760	2015-12-24T15:00:00	77.1	ND	ND	ND	ND	ND	ND	ND	ND	ND	ND	0
51761	2015-12-24T16:00:00	70.4	ND	ND	ND	ND	ND	ND	ND	ND	ND	ND	0
51762	2015-12-24T17:00:00	55.7	ND	ND	ND	ND	ND	ND	ND	ND	ND	ND	0
51763	2015-12-24T18:00:00	24.8	ND	ND	ND	ND	ND	ND	ND	ND	ND	ND	0
51764	2015-12-24T19:00:00	19	ND	ND	ND	ND	ND	ND	ND	ND	ND	ND	0
51765	2015-12-24T20:00:00	8.9	ND	ND	ND	ND	ND	ND	ND	ND	ND	ND	0
51766	2015-12-24T21:00:00	30.5	ND	ND	ND	ND	ND	ND	ND	ND	ND	ND	0
51767	2015-12-24T22:00:00	35.4	ND	ND	ND	ND	ND	ND	ND	ND	ND	ND	0
51768	2015-12-24T23:00:00	32.5	ND	ND	ND	ND	ND	ND	ND	ND	ND	ND	0
51769	2015-12-25T00:00:00	133.4	ND	ND	ND	ND	ND	ND	ND	ND	ND	ND	0
51770	2015-12-25T01:00:00	110.2	ND	ND	ND	ND	ND	ND	ND	ND	ND	ND	0
51771	2015-12-25T02:00:00	123.7	ND	ND	ND	ND	ND	ND	ND	ND	ND	ND	0
51772	2015-12-25T03:00:00	46	ND	ND	ND	ND	ND	ND	ND	ND	ND	ND	0
51773	2015-12-25T04:00:00	52.5	ND	ND	ND	ND	ND	ND	ND	ND	ND	ND	0
51774	2015-12-25T05:00:00	81.3	ND	ND	ND	ND	ND	ND	ND	ND	ND	ND	0
51775	2015-12-25T06:00:00	75.1	ND	ND	ND	ND	ND	ND	ND	ND	ND	ND	0
51776	2015-12-25T07:00:00	31.8	ND	ND	ND	ND	ND	ND	ND	ND	ND	ND	0
51777	2015-12-25T08:00:00	70.3	ND	ND	ND	ND	ND	ND	ND	ND	ND	ND	0
51778	2015-12-25T09:00:00	52.8	ND	ND	ND	ND	ND	ND	ND	ND	ND	ND	0
51779	2015-12-25T10:00:00	60.6	ND	ND	ND	ND	ND	ND	ND	ND	ND	ND	0
51780	2015-12-25T11:00:00	15.8	ND	ND	ND	ND	ND	ND	ND	ND	ND	ND	0
51781	2015-12-25T12:00:00	50.4	ND	ND	ND	ND	ND	ND	ND	ND	ND	ND	0
51782	2015-12-25T13:00:00	37.2	ND	ND	ND	ND	ND	ND	ND	ND	ND	ND	0
51783	2015-12-25T14:00:00	52.2	ND	ND	ND	ND	ND	ND	ND	ND	ND	ND	0
51784	2015-12-25T15:00:00	117.9	ND	ND	ND	ND	ND	ND	ND	ND	ND	ND	0
51785	2015-12-25T16:00:00	59.3	ND	ND	ND	ND	ND	ND	ND	ND	ND	ND	0
51786	2015-12-25T17:00:00	51.8	ND	ND	ND	ND	ND	ND	ND	ND	ND	ND	0
51787	2015-12-25T18:00:00	47	ND	ND	ND	ND	ND	ND	ND	ND	ND	ND	0
51788	2015-12-25T19:00:00	27.1	ND	ND	ND	ND	ND	ND	ND	ND	ND	ND	0
51789	2015-12-25T20:00:00	5.3	ND	ND	ND	ND	ND	ND	ND	ND	ND	ND	0
51790	2015-12-25T21:00:00	14.7	ND	ND	ND	ND	ND	ND	ND	ND	ND	ND	0
51791	2015-12-25T22:00:00	41.2	ND	ND	ND	ND	ND	ND	ND	ND	ND	ND	0
51792	2015-12-25T23:00:00	53.5	ND	ND	ND	ND	ND	ND	ND	ND	ND	ND	0
51793	2015-12-26T00:00:00	61.5	ND	ND	ND	ND	ND	ND	ND	ND	ND	ND	0
51794	2015-12-26T01:00:00	70.3	ND	ND	ND	ND	ND	ND	ND	ND	ND	ND	0
51795	2015-12-26T02:00:00	71.1	ND	ND	ND	ND	ND	ND	ND	ND	ND	ND	0
51796	2015-12-26T03:00:00	41.5	ND	ND	ND	ND	ND	ND	ND	ND	ND	ND	0
51797	2015-12-26T04:00:00	42.5	ND	ND	ND	ND	ND	ND	ND	ND	ND	ND	0
51798	2015-12-26T05:00:00	72.1	ND	ND	ND	ND	ND	ND	ND	ND	ND	ND	0
51799	2015-12-26T06:00:00	57.4	ND	ND	ND	ND	ND	ND	ND	ND	ND	ND	0
51800	2015-12-26T07:00:00	71.8	ND	ND	ND	ND	ND	ND	ND	ND	ND	ND	0
51801	2015-12-26T08:00:00	126.9	ND	ND	ND	ND	ND	ND	ND	ND	ND	ND	0
51802	2015-12-26T09:00:00	112.4	ND	ND	ND	ND	ND	ND	ND	ND	ND	ND	0
51803	2015-12-26T10:00:00	90.5	ND	ND	ND	ND	ND	ND	ND	ND	ND	ND	0
51804	2015-12-26T11:00:00	21.6	ND	ND	ND	ND	ND	ND	ND	ND	ND	ND	0
51805	2015-12-26T12:00:00	32.7	ND	ND	ND	ND	ND	ND	ND	ND	ND	ND	0
51806	2015-12-26T13:00:00	52.4	ND	ND	ND	ND	ND	ND	ND	ND	ND	ND	0
51807	2015-12-26T14:00:00	113.3	ND	ND	ND	ND	ND	ND	ND	ND	ND	ND	0
51808	2015-12-26T15:00:00	146.1	ND	ND	ND	ND	ND	ND	ND	ND	ND	ND	0
51809	2015-12-26T16:00:00	41.5	ND	ND	ND	ND	ND	ND	ND	ND	ND	ND	0
51810	2015-12-26T17:00:00	35.8	ND	ND	ND	ND	ND	ND	ND	ND	ND	ND	0
51811	2015-12-26T18:00:00	12.6	ND	ND	ND	ND	ND	ND	ND	ND	ND	ND	0
51812	2015-12-26T19:00:00	0.3	ND	ND	ND	ND	ND	ND	ND	ND	ND	ND	0
51813	2015-12-26T20:00:00	3.2	ND	ND	ND	ND	ND	ND	ND	ND	ND	ND	0
51814	2015-12-26T21:00:00	29.2	ND	ND	ND	ND	ND	ND	ND	ND	ND	ND	0
51815	2015-12-26T22:00:00	39.7	ND	ND	ND	ND	ND	ND	ND	ND	ND	ND	0
51816	2015-12-26T23:00:00	22.2	ND	ND	ND	ND	ND	ND	ND	ND	ND	ND	0
51817	2015-12-27T00:00:00	50.7	ND	ND	ND	ND	ND	ND	ND	ND	ND	ND	0
51818	2015-12-27T01:00:00	79.8	ND	ND	ND	ND	ND	ND	ND	ND	ND	ND	0
51819	2015-12-27T02:00:00	95.7	ND	ND	ND	ND	ND	ND	ND	ND	ND	ND	0
51820	2015-12-27T03:00:00	52	ND	ND	ND	ND	ND	ND	ND	ND	ND	ND	0
51821	2015-12-27T04:00:00	47.2	ND	ND	ND	ND	ND	ND	ND	ND	ND	ND	0
51822	2015-12-27T05:00:00	56.5	ND	ND	ND	ND	ND	ND	ND	ND	ND	ND	0
51823	2015-12-27T06:00:00	67.7	ND	ND	ND	ND	ND	ND	ND	ND	ND	ND	0
51824	2015-12-27T07:00:00	72	ND	ND	ND	ND	ND	ND	ND	ND	ND	ND	0
51825	2015-12-27T08:00:00	70.9	ND	ND	ND	ND	ND	ND	ND	ND	ND	ND	0
51826	2015-12-27T09:00:00	69.4	ND	ND	ND	ND	ND	ND	ND	ND	ND	ND	0
51827	2015-12-27T10:00:00	93.7	ND	ND	ND	ND	ND	ND	ND	ND	ND	ND	0
51828	2015-12-27T11:00:00	81.1	ND	ND	ND	ND	ND	ND	ND	ND	ND	ND	0
51829	2015-12-27T12:00:00	50.6	ND	ND	ND	ND	ND	ND	ND	ND	ND	ND	0
51830	2015-12-27T13:00:00	68	ND	ND	ND	ND	ND	ND	ND	ND	ND	ND	0
51831	2015-12-27T14:00:00	70.6	ND	ND	ND	ND	ND	ND	ND	ND	ND	ND	0
51832	2015-12-27T15:00:00	54.2	ND	ND	ND	ND	ND	ND	ND	ND	ND	ND	0
51833	2015-12-27T16:00:00	80.9	ND	ND	ND	ND	ND	ND	ND	ND	ND	ND	0
51834	2015-12-27T17:00:00	39.7	ND	ND	ND	ND	ND	ND	ND	ND	ND	ND	0
51835	2015-12-27T18:00:00	45.2	ND	ND	ND	ND	ND	ND	ND	ND	ND	ND	0
51836	2015-12-27T19:00:00	28.3	ND	ND	ND	ND	ND	ND	ND	ND	ND	ND	0
51837	2015-12-27T20:00:00	10.7	ND	ND	ND	ND	ND	ND	ND	ND	ND	ND	0
51838	2015-12-27T21:00:00	27.9	ND	ND	ND	ND	ND	ND	ND	ND	ND	ND	0
51839	2015-12-27T22:00:00	22.7	ND	ND	ND	ND	ND	ND	ND	ND	ND	ND	0
51840	2015-12-27T23:00:00	11.8	ND	ND	ND	ND	ND	ND	ND	ND	ND	ND	0
51841	2015-12-28T00:00:00	19.7	ND	ND	ND	ND	ND	ND	ND	ND	ND	ND	0
51842	2015-12-28T01:00:00	42.3	ND	ND	ND	ND	ND	ND	ND	ND	ND	ND	0
51843	2015-12-28T02:00:00	61.9	ND	ND	ND	ND	ND	ND	ND	ND	ND	ND	0
51844	2015-12-28T03:00:00	73.3	ND	ND	ND	ND	ND	ND	ND	ND	ND	ND	0
51845	2015-12-28T04:00:00	65.2	ND	ND	ND	ND	ND	ND	ND	ND	ND	ND	0
51846	2015-12-28T05:00:00	62.6	ND	ND	ND	ND	ND	ND	ND	ND	ND	ND	0
51847	2015-12-28T06:00:00	63.5	ND	ND	ND	ND	ND	ND	ND	ND	ND	ND	0
51848	2015-12-28T07:00:00	49.4	ND	ND	ND	ND	ND	ND	ND	ND	ND	ND	0
51849	2015-12-28T08:00:00	93.6	ND	ND	ND	ND	ND	ND	ND	ND	ND	ND	0
51850	2015-12-28T09:00:00	106.2	ND	ND	ND	ND	ND	ND	ND	ND	ND	ND	0
51851	2015-12-28T10:00:00	94.2	ND	ND	ND	ND	ND	ND	ND	ND	ND	ND	0
51852	2015-12-28T11:00:00	77.6	ND	ND	ND	ND	ND	ND	ND	ND	ND	ND	0
51853	2015-12-28T12:00:00	45.6	ND	ND	ND	ND	ND	ND	ND	ND	ND	ND	0
51854	2015-12-28T13:00:00	89.1	ND	ND	ND	ND	ND	ND	ND	ND	ND	ND	0
51855	2015-12-28T14:00:00	56.1	ND	ND	ND	ND	ND	ND	ND	ND	ND	ND	0
51856	2015-12-28T15:00:00	80.2	ND	ND	ND	ND	ND	ND	ND	ND	ND	ND	0
51857	2015-12-28T16:00:00	91.3	ND	ND	ND	ND	ND	ND	ND	ND	ND	ND	0
51858	2015-12-28T17:00:00	89.1	ND	ND	ND	ND	ND	ND	ND	ND	ND	ND	0
51859	2015-12-28T18:00:00	63.8	ND	ND	ND	ND	ND	ND	ND	ND	ND	ND	0
51860	2015-12-28T19:00:00	38.3	ND	ND	ND	ND	ND	ND	ND	ND	ND	ND	0
51861	2015-12-28T20:00:00	34	ND	ND	ND	ND	ND	ND	ND	ND	ND	ND	0
51862	2015-12-28T21:00:00	28.4	ND	ND	ND	ND	ND	ND	ND	ND	ND	ND	0
51863	2015-12-28T22:00:00	22.3	ND	ND	ND	ND	ND	ND	ND	ND	ND	ND	0
51864	2015-12-28T23:00:00	12.6	ND	ND	ND	ND	ND	ND	ND	ND	ND	ND	0
51865	2015-12-29T00:00:00	5.4	ND	ND	ND	ND	ND	ND	ND	ND	ND	ND	0
51866	2015-12-29T01:00:00	9.7	ND	ND	ND	ND	ND	ND	ND	ND	ND	ND	0
51867	2015-12-29T02:00:00	56.3	ND	ND	ND	ND	ND	ND	ND	ND	ND	ND	0
51868	2015-12-29T03:00:00	86.7	ND	ND	ND	ND	ND	ND	ND	ND	ND	ND	0
51869	2015-12-29T04:00:00	74.1	ND	ND	ND	ND	ND	ND	ND	ND	ND	ND	0
51870	2015-12-29T05:00:00	65.4	ND	ND	ND	ND	ND	ND	ND	ND	ND	ND	0
51871	2015-12-29T06:00:00	45.2	ND	ND	ND	ND	ND	ND	ND	ND	ND	ND	0
51872	2015-12-29T07:00:00	53.4	ND	ND	ND	ND	ND	ND	ND	ND	ND	ND	0
51873	2015-12-29T08:00:00	114.9	ND	ND	ND	ND	ND	ND	ND	ND	ND	ND	0
51874	2015-12-29T09:00:00	110	ND	ND	ND	ND	ND	ND	ND	ND	ND	ND	0
51875	2015-12-29T10:00:00	116.5	ND	ND	ND	ND	ND	ND	ND	ND	ND	ND	0
51876	2015-12-29T11:00:00	78.1	ND	ND	ND	ND	ND	ND	ND	ND	ND	ND	0
51877	2015-12-29T12:00:00	66.2	ND	ND	ND	ND	ND	ND	ND	ND	ND	ND	0
51878	2015-12-29T13:00:00	52.7	ND	ND	ND	ND	ND	ND	ND	ND	ND	ND	0
51879	2015-12-29T14:00:00	48.2	ND	ND	ND	ND	ND	ND	ND	ND	ND	ND	0
51880	2015-12-29T15:00:00	56.8	ND	ND	ND	ND	ND	ND	ND	ND	ND	ND	0
51881	2015-12-29T16:00:00	109.4	ND	ND	ND	ND	ND	ND	ND	ND	ND	ND	0
51882	2015-12-29T17:00:00	39.6	ND	ND	ND	ND	ND	ND	ND	ND	ND	ND	0
51883	2015-12-29T18:00:00	81.4	ND	ND	ND	ND	ND	ND	ND	ND	ND	ND	0
51884	2015-12-29T19:00:00	55.5	ND	ND	ND	ND	ND	ND	ND	ND	ND	ND	0
51885	2015-12-29T20:00:00	33.1	ND	ND	ND	ND	ND	ND	ND	ND	ND	ND	0
51886	2015-12-29T21:00:00	8.5	ND	ND	ND	ND	ND	ND	ND	ND	ND	ND	0
51887	2015-12-29T22:00:00	3.3	ND	ND	ND	ND	ND	ND	ND	ND	ND	ND	0
51888	2015-12-29T23:00:00	42.4	ND	ND	ND	ND	ND	ND	ND	ND	ND	ND	0
51889	2015-12-30T00:00:00	45.1	ND	ND	ND	ND	ND	ND	ND	ND	ND	ND	0
51890	2015-12-30T01:00:00	38.7	ND	ND	ND	ND	ND	ND	ND	ND	ND	ND	0
51891	2015-12-30T02:00:00	55.7	ND	ND	ND	ND	ND	ND	ND	ND	ND	ND	0
51892	2015-12-30T03:00:00	77.4	ND	ND	ND	ND	ND	ND	ND	ND	ND	ND	0
51893	2015-12-30T04:00:00	75.3	ND	ND	ND	ND	ND	ND	ND	ND	ND	ND	0
51894	2015-12-30T05:00:00	59.4	ND	ND	ND	ND	ND	ND	ND	ND	ND	ND	0
51895	2015-12-30T06:00:00	13.8	ND	ND	ND	ND	ND	ND	ND	ND	ND	ND	0
51896	2015-12-30T07:00:00	58.7	ND	ND	ND	ND	ND	ND	ND	ND	ND	ND	0
51897	2015-12-30T08:00:00	96.1	ND	ND	ND	ND	ND	ND	ND	ND	ND	ND	0
51898	2015-12-30T09:00:00	100.7	ND	ND	ND	ND	ND	ND	ND	ND	ND	ND	0
51899	2015-12-30T10:00:00	100.7	ND	ND	ND	ND	ND	ND	ND	ND	ND	ND	0
51900	2015-12-30T11:00:00	51.8	ND	ND	ND	ND	ND	ND	ND	ND	ND	ND	0
51901	2015-12-30T12:00:00	77.1	ND	ND	ND	ND	ND	ND	ND	ND	ND	ND	0
51902	2015-12-30T13:00:00	40.3	ND	ND	ND	ND	ND	ND	ND	ND	ND	ND	0
51903	2015-12-30T14:00:00	48.8	ND	ND	ND	ND	ND	ND	ND	ND	ND	ND	0
51904	2015-12-30T15:00:00	90	ND	ND	ND	ND	ND	ND	ND	ND	ND	ND	0
51905	2015-12-30T16:00:00	92.9	ND	ND	ND	ND	ND	ND	ND	ND	ND	ND	0
51906	2015-12-30T17:00:00	29.7	ND	ND	ND	ND	ND	ND	ND	ND	ND	ND	0
51907	2015-12-30T18:00:00	53.8	ND	ND	ND	ND	ND	ND	ND	ND	ND	ND	0
51908	2015-12-30T19:00:00	49	ND	ND	ND	ND	ND	ND	ND	ND	ND	ND	0
51909	2015-12-30T20:00:00	47	ND	ND	ND	ND	ND	ND	ND	ND	ND	ND	0
51910	2015-12-30T21:00:00	10.2	ND	ND	ND	ND	ND	ND	ND	ND	ND	ND	0
51911	2015-12-30T22:00:00	ND	ND	ND	ND	ND	ND	ND	ND	ND	ND	ND	0
51912	2015-12-30T23:00:00	ND	ND	ND	ND	ND	ND	ND	ND	ND	ND	ND	0
51913	2015-12-31T00:00:00	173.6	ND	ND	ND	ND	ND	ND	ND	ND	ND	ND	0
51914	2015-12-31T01:00:00	64.5	ND	ND	ND	ND	ND	ND	ND	ND	ND	ND	0
51915	2015-12-31T02:00:00	82.6	ND	ND	ND	ND	ND	ND	ND	ND	ND	ND	0
51916	2015-12-31T03:00:00	55.5	ND	ND	ND	ND	ND	ND	ND	ND	ND	ND	0
51917	2015-12-31T04:00:00	104	ND	ND	ND	ND	ND	ND	ND	ND	ND	ND	0
51918	2015-12-31T05:00:00	74.2	ND	ND	ND	ND	ND	ND	ND	ND	ND	ND	0
51919	2015-12-31T06:00:00	53.4	ND	ND	ND	ND	ND	ND	ND	ND	ND	ND	0
51920	2015-12-31T07:00:00	58.6	ND	ND	ND	ND	ND	ND	ND	ND	ND	ND	0
51921	2015-12-31T08:00:00	55.3	ND	ND	ND	ND	ND	ND	ND	ND	ND	ND	0
51922	2015-12-31T09:00:00	86.5	ND	ND	ND	ND	ND	ND	ND	ND	ND	ND	0
51923	2015-12-31T10:00:00	39.7	ND	ND	ND	ND	ND	ND	ND	ND	ND	ND	0
51924	2015-12-31T11:00:00	72.6	ND	ND	ND	ND	ND	ND	ND	ND	ND	ND	0
51925	2015-12-31T12:00:00	44.1	ND	ND	ND	ND	ND	ND	ND	ND	ND	ND	0
51926	2015-12-31T13:00:00	38	ND	ND	ND	ND	ND	ND	ND	ND	ND	ND	0
51927	2015-12-31T14:00:00	76.1	ND	ND	ND	ND	ND	ND	ND	ND	ND	ND	0
51928	2015-12-31T15:00:00	77.1	ND	ND	ND	ND	ND	ND	ND	ND	ND	ND	0
51929	2015-12-31T16:00:00	45.6	ND	ND	ND	ND	ND	ND	ND	ND	ND	ND	0
51930	2015-12-31T17:00:00	35.6	ND	ND	ND	ND	ND	ND	ND	ND	ND	ND	0
51931	2015-12-31T18:00:00	34	ND	ND	ND	ND	ND	ND	ND	ND	ND	ND	0
51932	2015-12-31T19:00:00	19	ND	ND	ND	ND	ND	ND	ND	ND	ND	ND	0
51933	2015-12-31T20:00:00	14.1	ND	ND	ND	ND	ND	ND	ND	ND	ND	ND	0
51934	2015-12-31T21:00:00	14.6	ND	ND	ND	ND	ND	ND	ND	ND	ND	ND	0
51935	2015-12-31T22:00:00	12.5	ND	ND	ND	ND	ND	ND	ND	ND	ND	ND	0
51936	2015-12-31T23:00:00	13.6	ND	ND	ND	ND	ND	ND	ND	ND	ND	ND	0
51937	2016-01-01T00:00:00	15.6	ND	ND	ND	ND	ND	ND	ND	ND	ND	ND	0
51938	2016-01-01T01:00:00	92.1	ND	ND	ND	ND	ND	ND	ND	ND	ND	ND	0
51939	2016-01-01T02:00:00	142.2	ND	ND	ND	ND	ND	ND	ND	ND	ND	ND	0
51940	2016-01-01T03:00:00	110.9	ND	ND	ND	ND	ND	ND	ND	ND	ND	ND	0
51941	2016-01-01T04:00:00	94.3	ND	ND	ND	ND	ND	ND	ND	ND	ND	ND	0
51942	2016-01-01T05:00:00	65.4	ND	ND	ND	ND	ND	ND	ND	ND	ND	ND	0
51943	2016-01-01T06:00:00	51.2	ND	ND	ND	ND	ND	ND	ND	ND	ND	ND	0
51944	2016-01-01T07:00:00	48.1	ND	ND	ND	ND	ND	ND	ND	ND	ND	ND	0
51945	2016-01-01T08:00:00	35.4	ND	ND	ND	ND	ND	ND	ND	ND	ND	ND	0
51946	2016-01-01T09:00:00	44.6	ND	ND	ND	ND	ND	ND	ND	ND	ND	ND	0
51947	2016-01-01T10:00:00	58.2	ND	ND	ND	ND	ND	ND	ND	ND	ND	ND	0
51948	2016-01-01T11:00:00	59.4	ND	ND	ND	ND	ND	ND	ND	ND	ND	ND	0
51949	2016-01-01T12:00:00	95.4	ND	ND	ND	ND	ND	ND	ND	ND	ND	ND	0
51950	2016-01-01T13:00:00	23.4	ND	ND	ND	ND	ND	ND	ND	ND	ND	ND	0
51951	2016-01-01T14:00:00	36.9	ND	ND	ND	ND	ND	ND	ND	ND	ND	ND	0
51952	2016-01-01T15:00:00	55.1	ND	ND	ND	ND	ND	ND	ND	ND	ND	ND	0
51953	2016-01-01T16:00:00	2	ND	ND	ND	ND	ND	ND	ND	ND	ND	ND	0
51954	2016-01-01T17:00:00	7	ND	ND	ND	ND	ND	ND	ND	ND	ND	ND	0
51955	2016-01-01T18:00:00	35.5	ND	ND	ND	ND	ND	ND	ND	ND	ND	ND	0
51956	2016-01-01T19:00:00	20.8	ND	ND	ND	ND	ND	ND	ND	ND	ND	ND	0
51957	2016-01-01T20:00:00	1.3	ND	ND	ND	ND	ND	ND	ND	ND	ND	ND	0
51958	2016-01-01T21:00:00	8.1	ND	ND	ND	ND	ND	ND	ND	ND	ND	ND	0
51959	2016-01-01T22:00:00	7.5	ND	ND	ND	ND	ND	ND	ND	ND	ND	ND	0
51960	2016-01-01T23:00:00	9.4	ND	ND	ND	ND	ND	ND	ND	ND	ND	ND	0
51961	2016-01-02T00:00:00	19.3	ND	ND	ND	ND	ND	ND	ND	ND	ND	ND	0
51962	2016-01-02T01:00:00	14.4	ND	ND	ND	ND	ND	ND	ND	ND	ND	ND	0
51963	2016-01-02T02:00:00	38.8	ND	ND	ND	ND	ND	ND	ND	ND	ND	ND	0
51964	2016-01-02T03:00:00	32.3	ND	ND	ND	ND	ND	ND	ND	ND	ND	ND	0
51965	2016-01-02T04:00:00	10.8	ND	ND	ND	ND	ND	ND	ND	ND	ND	ND	0
51966	2016-01-02T05:00:00	43.5	ND	ND	ND	ND	ND	ND	ND	ND	ND	ND	0
51967	2016-01-02T06:00:00	28.3	ND	ND	ND	ND	ND	ND	ND	ND	ND	ND	1.02
51968	2016-01-02T07:00:00	20.8	ND	ND	ND	ND	ND	ND	ND	ND	ND	ND	1.78
51969	2016-01-02T08:00:00	1.5	ND	ND	ND	ND	ND	ND	ND	ND	ND	ND	0.51
51970	2016-01-02T09:00:00	9.1	ND	ND	ND	ND	ND	ND	ND	ND	ND	ND	0
51971	2016-01-02T10:00:00	60.7	ND	ND	ND	ND	ND	ND	ND	ND	ND	ND	0
51972	2016-01-02T11:00:00	81.1	ND	ND	ND	ND	ND	ND	ND	ND	ND	ND	0
51973	2016-01-02T12:00:00	23.1	ND	ND	ND	ND	ND	ND	ND	ND	ND	ND	0
51974	2016-01-02T13:00:00	14.5	ND	ND	ND	ND	ND	ND	ND	ND	ND	ND	0
51975	2016-01-02T14:00:00	53	ND	ND	ND	ND	ND	ND	ND	ND	ND	ND	0
51976	2016-01-02T15:00:00	52.6	ND	ND	ND	ND	ND	ND	ND	ND	ND	ND	0
51977	2016-01-02T16:00:00	34.3	ND	ND	ND	ND	ND	ND	ND	ND	ND	ND	0
51978	2016-01-02T17:00:00	91.1	ND	ND	ND	ND	ND	ND	ND	ND	ND	ND	0
51979	2016-01-02T18:00:00	38.3	ND	ND	ND	ND	ND	ND	ND	ND	ND	ND	0
51980	2016-01-02T19:00:00	10.8	ND	ND	ND	ND	ND	ND	ND	ND	ND	ND	0
51981	2016-01-02T20:00:00	ND	ND	ND	ND	ND	ND	ND	ND	ND	ND	ND	0
51982	2016-01-02T21:00:00	4.4	ND	ND	ND	ND	ND	ND	ND	ND	ND	ND	0.25
51983	2016-01-02T22:00:00	ND	ND	ND	ND	ND	ND	ND	ND	ND	ND	ND	0.25
51984	2016-01-02T23:00:00	17.4	ND	ND	ND	ND	ND	ND	ND	ND	ND	ND	0
51985	2016-01-03T00:00:00	181.3	ND	ND	ND	ND	ND	ND	ND	ND	ND	ND	0
51986	2016-01-03T01:00:00	142	ND	ND	ND	ND	ND	ND	ND	ND	ND	ND	0
51987	2016-01-03T02:00:00	82.7	ND	ND	ND	ND	ND	ND	ND	ND	ND	ND	0
51988	2016-01-03T03:00:00	32.4	ND	ND	ND	ND	ND	ND	ND	ND	ND	ND	0
51989	2016-01-03T04:00:00	0.1	ND	ND	ND	ND	ND	ND	ND	ND	ND	ND	0
51990	2016-01-03T05:00:00	36	ND	ND	ND	ND	ND	ND	ND	ND	ND	ND	0
51991	2016-01-03T06:00:00	59.6	ND	ND	ND	ND	ND	ND	ND	ND	ND	ND	0
51992	2016-01-03T07:00:00	48.6	ND	ND	ND	ND	ND	ND	ND	ND	ND	ND	0
51993	2016-01-03T08:00:00	55.8	ND	ND	ND	ND	ND	ND	ND	ND	ND	ND	0
51994	2016-01-03T09:00:00	48.7	ND	ND	ND	ND	ND	ND	ND	ND	ND	ND	0
51995	2016-01-03T10:00:00	54.4	ND	ND	ND	ND	ND	ND	ND	ND	ND	ND	0
51996	2016-01-03T11:00:00	48	ND	ND	ND	ND	ND	ND	ND	ND	ND	ND	0
51997	2016-01-03T12:00:00	35.1	ND	ND	ND	ND	ND	ND	ND	ND	ND	ND	0
51998	2016-01-03T13:00:00	34.4	ND	ND	ND	ND	ND	ND	ND	ND	ND	ND	0
51999	2016-01-03T14:00:00	31.2	ND	ND	ND	ND	ND	ND	ND	ND	ND	ND	0
52000	2016-01-03T15:00:00	29.7	ND	ND	ND	ND	ND	ND	ND	ND	ND	ND	0
52001	2016-01-03T16:00:00	16.4	ND	ND	ND	ND	ND	ND	ND	ND	ND	ND	0
52002	2016-01-03T17:00:00	20.2	ND	ND	ND	ND	ND	ND	ND	ND	ND	ND	0
52003	2016-01-03T18:00:00	2.4	ND	ND	ND	ND	ND	ND	ND	ND	ND	ND	0
52004	2016-01-03T19:00:00	ND	ND	ND	ND	ND	ND	ND	ND	ND	ND	ND	0
52005	2016-01-03T20:00:00	ND	ND	ND	ND	ND	ND	ND	ND	ND	ND	ND	0
52006	2016-01-03T21:00:00	9.6	ND	ND	ND	ND	ND	ND	ND	ND	ND	ND	0
52007	2016-01-03T22:00:00	107.4	ND	ND	ND	ND	ND	ND	ND	ND	ND	ND	0
52008	2016-01-03T23:00:00	83.9	ND	ND	ND	ND	ND	ND	ND	ND	ND	ND	0
52009	2016-01-04T00:00:00	49.5	ND	ND	ND	ND	ND	ND	ND	ND	ND	ND	0
52010	2016-01-04T01:00:00	47.5	ND	ND	ND	ND	ND	ND	ND	ND	ND	ND	0
52011	2016-01-04T02:00:00	38.3	ND	ND	ND	ND	ND	ND	ND	ND	ND	ND	0
52012	2016-01-04T03:00:00	19.7	ND	ND	ND	ND	ND	ND	ND	ND	ND	ND	0
52013	2016-01-04T04:00:00	15.6	ND	ND	ND	ND	ND	ND	ND	ND	ND	ND	0
52014	2016-01-04T05:00:00	20.8	ND	ND	ND	ND	ND	ND	ND	ND	ND	ND	0
52015	2016-01-04T06:00:00	18.6	ND	ND	ND	ND	ND	ND	ND	ND	ND	ND	1.52
52016	2016-01-04T07:00:00	14.9	ND	ND	ND	ND	ND	ND	ND	ND	ND	ND	0.25
52017	2016-01-04T08:00:00	49.8	ND	ND	ND	ND	ND	ND	ND	ND	ND	ND	0.25
52018	2016-01-04T09:00:00	55.8	ND	ND	ND	ND	ND	ND	ND	ND	ND	ND	0
52019	2016-01-04T10:00:00	52.3	ND	ND	ND	ND	ND	ND	ND	ND	ND	ND	0.25
52020	2016-01-04T11:00:00	40.1	ND	ND	ND	ND	ND	ND	ND	ND	ND	ND	0
52021	2016-01-04T12:00:00	39.9	ND	ND	ND	ND	ND	ND	ND	ND	ND	ND	0
52022	2016-01-04T13:00:00	32.4	ND	ND	ND	ND	ND	ND	ND	ND	ND	ND	0
52023	2016-01-04T14:00:00	74.1	ND	ND	ND	ND	ND	ND	ND	ND	ND	ND	0
52024	2016-01-04T15:00:00	68.3	ND	ND	ND	ND	ND	ND	ND	ND	ND	ND	0
52025	2016-01-04T16:00:00	2.5	ND	ND	ND	ND	ND	ND	ND	ND	ND	ND	0
52026	2016-01-04T17:00:00	11.1	ND	ND	ND	ND	ND	ND	ND	ND	ND	ND	0
52027	2016-01-04T18:00:00	43.5	ND	ND	ND	ND	ND	ND	ND	ND	ND	ND	0
52028	2016-01-04T19:00:00	27.8	ND	ND	ND	ND	ND	ND	ND	ND	ND	ND	0
52029	2016-01-04T20:00:00	15.1	ND	ND	ND	ND	ND	ND	ND	ND	ND	ND	0
52030	2016-01-04T21:00:00	ND	ND	ND	ND	ND	ND	ND	ND	ND	ND	ND	0
52031	2016-01-04T22:00:00	ND	ND	ND	ND	ND	ND	ND	ND	ND	ND	ND	0
52032	2016-01-04T23:00:00	40	ND	ND	ND	ND	ND	ND	ND	ND	ND	ND	0
52033	2016-01-05T00:00:00	106.2	ND	ND	ND	ND	ND	ND	ND	ND	ND	ND	0
52034	2016-01-05T01:00:00	185.7	ND	ND	ND	ND	ND	ND	ND	ND	ND	ND	0
52035	2016-01-05T02:00:00	113.6	ND	ND	ND	ND	ND	ND	ND	ND	ND	ND	0
52036	2016-01-05T03:00:00	90.3	ND	ND	ND	ND	ND	ND	ND	ND	ND	ND	0
52037	2016-01-05T04:00:00	32.7	ND	ND	ND	ND	ND	ND	ND	ND	ND	ND	0
52038	2016-01-05T05:00:00	21.2	ND	ND	ND	ND	ND	ND	ND	ND	ND	ND	0
52039	2016-01-05T06:00:00	35.2	ND	ND	ND	ND	ND	ND	ND	ND	ND	ND	0
52040	2016-01-05T07:00:00	70.8	ND	ND	ND	ND	ND	ND	ND	ND	ND	ND	0
52041	2016-01-05T08:00:00	96.2	ND	ND	ND	ND	ND	ND	ND	ND	ND	ND	0
52042	2016-01-05T09:00:00	95.2	ND	ND	ND	ND	ND	ND	ND	ND	ND	ND	0
52043	2016-01-05T10:00:00	63.2	ND	ND	ND	ND	ND	ND	ND	ND	ND	ND	0
52044	2016-01-05T11:00:00	65	ND	ND	ND	ND	ND	ND	ND	ND	ND	ND	0
52045	2016-01-05T12:00:00	48.7	ND	ND	ND	ND	ND	ND	ND	ND	ND	ND	0
52046	2016-01-05T13:00:00	81.9	ND	ND	ND	ND	ND	ND	ND	ND	ND	ND	0
52047	2016-01-05T14:00:00	62.3	ND	ND	ND	ND	ND	ND	ND	ND	ND	ND	0
52048	2016-01-05T15:00:00	40	ND	ND	ND	ND	ND	ND	ND	ND	ND	ND	0
52049	2016-01-05T16:00:00	61.2	ND	ND	ND	ND	ND	ND	ND	ND	ND	ND	0
52050	2016-01-05T17:00:00	44.6	ND	ND	ND	ND	ND	ND	ND	ND	ND	ND	0
52051	2016-01-05T18:00:00	1.4	ND	ND	ND	ND	ND	ND	ND	ND	ND	ND	0
52052	2016-01-05T19:00:00	ND	ND	ND	ND	ND	ND	ND	ND	ND	ND	ND	0
52053	2016-01-05T20:00:00	8.3	ND	ND	ND	ND	ND	ND	ND	ND	ND	ND	0
52054	2016-01-05T21:00:00	26.9	ND	ND	ND	ND	ND	ND	ND	ND	ND	ND	0
52055	2016-01-05T22:00:00	39.8	ND	ND	ND	ND	ND	ND	ND	ND	ND	ND	0
52056	2016-01-05T23:00:00	29.4	ND	ND	ND	ND	ND	ND	ND	ND	ND	ND	0
52057	2016-01-06T00:00:00	26.9	ND	ND	ND	ND	ND	ND	ND	ND	ND	ND	0
52058	2016-01-06T01:00:00	31	ND	ND	ND	ND	ND	ND	ND	ND	ND	ND	0
52059	2016-01-06T02:00:00	35.1	ND	ND	ND	ND	ND	ND	ND	ND	ND	ND	0
52060	2016-01-06T03:00:00	22.7	ND	ND	ND	ND	ND	ND	ND	ND	ND	ND	0
52061	2016-01-06T04:00:00	42.2	ND	ND	ND	ND	ND	ND	ND	ND	ND	ND	0.51
52062	2016-01-06T05:00:00	54.2	ND	ND	ND	ND	ND	ND	ND	ND	ND	ND	1.02
52063	2016-01-06T06:00:00	60	ND	ND	ND	ND	ND	ND	ND	ND	ND	ND	0
52064	2016-01-06T07:00:00	51	ND	ND	ND	ND	ND	ND	ND	ND	ND	ND	0.25
52065	2016-01-06T08:00:00	32.8	ND	ND	ND	ND	ND	ND	ND	ND	ND	ND	0.76
52066	2016-01-06T09:00:00	43.4	ND	ND	ND	ND	ND	ND	ND	ND	ND	ND	0.51
52067	2016-01-06T10:00:00	23.7	ND	ND	ND	ND	ND	ND	ND	ND	ND	ND	0.51
52068	2016-01-06T11:00:00	35.9	ND	ND	ND	ND	ND	ND	ND	ND	ND	ND	0
52069	2016-01-06T12:00:00	10.1	ND	ND	ND	ND	ND	ND	ND	ND	ND	ND	0
52070	2016-01-06T13:00:00	61.5	ND	ND	ND	ND	ND	ND	ND	ND	ND	ND	0
52071	2016-01-06T14:00:00	70	ND	ND	ND	ND	ND	ND	ND	ND	ND	ND	0
52072	2016-01-06T15:00:00	1.5	ND	ND	ND	ND	ND	ND	ND	ND	ND	ND	0
52073	2016-01-06T16:00:00	51.4	ND	ND	ND	ND	ND	ND	ND	ND	ND	ND	0
52074	2016-01-06T17:00:00	64.7	ND	ND	ND	ND	ND	ND	ND	ND	ND	ND	0
52075	2016-01-06T18:00:00	54	ND	ND	ND	ND	ND	ND	ND	ND	ND	ND	0
52076	2016-01-06T19:00:00	13.2	ND	ND	ND	ND	ND	ND	ND	ND	ND	ND	0
52077	2016-01-06T20:00:00	ND	ND	ND	ND	ND	ND	ND	ND	ND	ND	ND	0
52078	2016-01-06T21:00:00	6.8	ND	ND	ND	ND	ND	ND	ND	ND	ND	ND	0
52079	2016-01-06T22:00:00	31.1	ND	ND	ND	ND	ND	ND	ND	ND	ND	ND	0
52080	2016-01-06T23:00:00	42.9	ND	ND	ND	ND	ND	ND	ND	ND	ND	ND	0
52081	2016-01-07T00:00:00	16.6	ND	ND	ND	ND	ND	ND	ND	ND	ND	ND	0
52082	2016-01-07T01:00:00	39.3	ND	ND	ND	ND	ND	ND	ND	ND	ND	ND	0
52083	2016-01-07T02:00:00	58.9	ND	ND	ND	ND	ND	ND	ND	ND	ND	ND	0
52084	2016-01-07T03:00:00	41	ND	ND	ND	ND	ND	ND	ND	ND	ND	ND	0
52085	2016-01-07T04:00:00	30.1	ND	ND	ND	ND	ND	ND	ND	ND	ND	ND	0
52086	2016-01-07T05:00:00	28.6	ND	ND	ND	ND	ND	ND	ND	ND	ND	ND	0
52087	2016-01-07T06:00:00	36.2	ND	ND	ND	ND	ND	ND	ND	ND	ND	ND	0
52088	2016-01-07T07:00:00	45.6	ND	ND	ND	ND	ND	ND	ND	ND	ND	ND	0
52089	2016-01-07T08:00:00	39	ND	ND	ND	ND	ND	ND	ND	ND	ND	ND	0
52090	2016-01-07T09:00:00	49.5	ND	ND	ND	ND	ND	ND	ND	ND	ND	ND	0
52091	2016-01-07T10:00:00	75.9	ND	ND	ND	ND	ND	ND	ND	ND	ND	ND	0
52092	2016-01-07T11:00:00	53.3	ND	ND	ND	ND	ND	ND	ND	ND	ND	ND	0
52093	2016-01-07T12:00:00	52.6	ND	ND	ND	ND	ND	ND	ND	ND	ND	ND	0
52094	2016-01-07T13:00:00	9.7	ND	ND	ND	ND	ND	ND	ND	ND	ND	ND	0
52095	2016-01-07T14:00:00	44.6	ND	ND	ND	ND	ND	ND	ND	ND	ND	ND	0
52096	2016-01-07T15:00:00	70.6	ND	ND	ND	ND	ND	ND	ND	ND	ND	ND	0
52097	2016-01-07T16:00:00	64.9	ND	ND	ND	ND	ND	ND	ND	ND	ND	ND	0
52098	2016-01-07T17:00:00	41.8	ND	ND	ND	ND	ND	ND	ND	ND	ND	ND	0
52099	2016-01-07T18:00:00	18.6	ND	ND	ND	ND	ND	ND	ND	ND	ND	ND	0
52100	2016-01-07T19:00:00	ND	ND	ND	ND	ND	ND	ND	ND	ND	ND	ND	0
52101	2016-01-07T20:00:00	1.2	ND	ND	ND	ND	ND	ND	ND	ND	ND	ND	0
52102	2016-01-07T21:00:00	ND	ND	ND	ND	ND	ND	ND	ND	ND	ND	ND	0
52103	2016-01-07T22:00:00	40.8	ND	ND	ND	ND	ND	ND	ND	ND	ND	ND	0
52104	2016-01-07T23:00:00	64.5	ND	ND	ND	ND	ND	ND	ND	ND	ND	ND	0
52105	2016-01-08T00:00:00	43.3	ND	ND	ND	ND	ND	ND	ND	ND	ND	ND	0
52106	2016-01-08T01:00:00	38.7	ND	ND	ND	ND	ND	ND	ND	ND	ND	ND	0
52107	2016-01-08T02:00:00	30.2	ND	ND	ND	ND	ND	ND	ND	ND	ND	ND	0
52108	2016-01-08T03:00:00	22.3	ND	ND	ND	ND	ND	ND	ND	ND	ND	ND	0
52109	2016-01-08T04:00:00	17	ND	ND	ND	ND	ND	ND	ND	ND	ND	ND	0
52110	2016-01-08T05:00:00	14.9	ND	ND	ND	ND	ND	ND	ND	ND	ND	ND	0
52111	2016-01-08T06:00:00	61.4	ND	ND	ND	ND	ND	ND	ND	ND	ND	ND	0
52112	2016-01-08T07:00:00	70.7	ND	ND	ND	ND	ND	ND	ND	ND	ND	ND	0
52113	2016-01-08T08:00:00	62.6	ND	ND	ND	ND	ND	ND	ND	ND	ND	ND	0
52114	2016-01-08T09:00:00	76.2	ND	ND	ND	ND	ND	ND	ND	ND	ND	ND	0
52115	2016-01-08T10:00:00	77	ND	ND	ND	ND	ND	ND	ND	ND	ND	ND	0
52116	2016-01-08T11:00:00	73.6	ND	ND	ND	ND	ND	ND	ND	ND	ND	ND	0
52117	2016-01-08T12:00:00	70.6	ND	ND	ND	ND	ND	ND	ND	ND	ND	ND	0
52118	2016-01-08T13:00:00	98.4	ND	ND	ND	ND	ND	ND	ND	ND	ND	ND	0
52119	2016-01-08T14:00:00	83.2	ND	ND	ND	ND	ND	ND	ND	ND	ND	ND	0
52120	2016-01-08T15:00:00	62.3	ND	ND	ND	ND	ND	ND	ND	ND	ND	ND	0
52121	2016-01-08T16:00:00	86.8	ND	ND	ND	ND	ND	ND	ND	ND	ND	ND	0
52122	2016-01-08T17:00:00	44.3	ND	ND	ND	ND	ND	ND	ND	ND	ND	ND	0
52123	2016-01-08T18:00:00	6	ND	ND	ND	ND	ND	ND	ND	ND	ND	ND	0
52124	2016-01-08T19:00:00	ND	ND	ND	ND	ND	ND	ND	ND	ND	ND	ND	0
52125	2016-01-08T20:00:00	ND	ND	ND	ND	ND	ND	ND	ND	ND	ND	ND	0
52126	2016-01-08T21:00:00	ND	ND	ND	ND	ND	ND	ND	ND	ND	ND	ND	0
52127	2016-01-08T22:00:00	39.6	ND	ND	ND	ND	ND	ND	ND	ND	ND	ND	0
52128	2016-01-08T23:00:00	36.3	ND	ND	ND	ND	ND	ND	ND	ND	ND	ND	0
52129	2016-01-09T00:00:00	7.1	ND	ND	ND	ND	ND	ND	ND	ND	ND	ND	0
52130	2016-01-09T01:00:00	12.7	ND	ND	ND	ND	ND	ND	ND	ND	ND	ND	0
52131	2016-01-09T02:00:00	90.2	ND	ND	ND	ND	ND	ND	ND	ND	ND	ND	0
52132	2016-01-09T03:00:00	109	ND	ND	ND	ND	ND	ND	ND	ND	ND	ND	0
52133	2016-01-09T04:00:00	72.9	ND	ND	ND	ND	ND	ND	ND	ND	ND	ND	0
52134	2016-01-09T05:00:00	52.5	ND	ND	ND	ND	ND	ND	ND	ND	ND	ND	0
52135	2016-01-09T06:00:00	45.1	ND	ND	ND	ND	ND	ND	ND	ND	ND	ND	0
52136	2016-01-09T07:00:00	36.9	ND	ND	ND	ND	ND	ND	ND	ND	ND	ND	0
52137	2016-01-09T08:00:00	32.6	ND	ND	ND	ND	ND	ND	ND	ND	ND	ND	0
52138	2016-01-09T09:00:00	53.8	ND	ND	ND	ND	ND	ND	ND	ND	ND	ND	0
52139	2016-01-09T10:00:00	82.8	ND	ND	ND	ND	ND	ND	ND	ND	ND	ND	0
52140	2016-01-09T11:00:00	63.1	ND	ND	ND	ND	ND	ND	ND	ND	ND	ND	0
52141	2016-01-09T12:00:00	36.3	ND	ND	ND	ND	ND	ND	ND	ND	ND	ND	0
52142	2016-01-09T13:00:00	18.3	ND	ND	ND	ND	ND	ND	ND	ND	ND	ND	0
52143	2016-01-09T14:00:00	60.1	ND	ND	ND	ND	ND	ND	ND	ND	ND	ND	0
52144	2016-01-09T15:00:00	52.7	ND	ND	ND	ND	ND	ND	ND	ND	ND	ND	0
52145	2016-01-09T16:00:00	4.9	ND	ND	ND	ND	ND	ND	ND	ND	ND	ND	0
52146	2016-01-09T17:00:00	13.3	ND	ND	ND	ND	ND	ND	ND	ND	ND	ND	0
52147	2016-01-09T18:00:00	24.4	ND	ND	ND	ND	ND	ND	ND	ND	ND	ND	0
52148	2016-01-09T19:00:00	ND	ND	ND	ND	ND	ND	ND	ND	ND	ND	ND	0
52149	2016-01-09T20:00:00	ND	ND	ND	ND	ND	ND	ND	ND	ND	ND	ND	0
52150	2016-01-09T21:00:00	9.5	ND	ND	ND	ND	ND	ND	ND	ND	ND	ND	0
52151	2016-01-09T22:00:00	66.6	ND	ND	ND	ND	ND	ND	ND	ND	ND	ND	0
52152	2016-01-09T23:00:00	66.9	ND	ND	ND	ND	ND	ND	ND	ND	ND	ND	0
52153	2016-01-10T00:00:00	13.7	ND	ND	ND	ND	ND	ND	ND	ND	ND	ND	0
52154	2016-01-10T01:00:00	30.2	ND	ND	ND	ND	ND	ND	ND	ND	ND	ND	0
52155	2016-01-10T02:00:00	91.9	ND	ND	ND	ND	ND	ND	ND	ND	ND	ND	0
52156	2016-01-10T03:00:00	68.3	ND	ND	ND	ND	ND	ND	ND	ND	ND	ND	0
52157	2016-01-10T04:00:00	54.7	ND	ND	ND	ND	ND	ND	ND	ND	ND	ND	0
52158	2016-01-10T05:00:00	46.9	ND	ND	ND	ND	ND	ND	ND	ND	ND	ND	0
52159	2016-01-10T06:00:00	39.4	ND	ND	ND	ND	ND	ND	ND	ND	ND	ND	0
52160	2016-01-10T07:00:00	51.2	ND	ND	ND	ND	ND	ND	ND	ND	ND	ND	0
52161	2016-01-10T08:00:00	62.9	ND	ND	ND	ND	ND	ND	ND	ND	ND	ND	0
52162	2016-01-10T09:00:00	44.6	ND	ND	ND	ND	ND	ND	ND	ND	ND	ND	0
52163	2016-01-10T10:00:00	29.5	ND	ND	ND	ND	ND	ND	ND	ND	ND	ND	0
52164	2016-01-10T11:00:00	12.8	ND	ND	ND	ND	ND	ND	ND	ND	ND	ND	0
52165	2016-01-10T12:00:00	33.7	ND	ND	ND	ND	ND	ND	ND	ND	ND	ND	0
52166	2016-01-10T13:00:00	26.2	ND	ND	ND	ND	ND	ND	ND	ND	ND	ND	0
52167	2016-01-10T14:00:00	44.7	ND	ND	ND	ND	ND	ND	ND	ND	ND	ND	0
52168	2016-01-10T15:00:00	33.3	ND	ND	ND	ND	ND	ND	ND	ND	ND	ND	8.38
52169	2016-01-10T16:00:00	24.5	ND	ND	ND	ND	ND	ND	ND	ND	ND	ND	4.83
52170	2016-01-10T17:00:00	3.5	ND	ND	ND	ND	ND	ND	ND	ND	ND	ND	0
52171	2016-01-10T18:00:00	14.5	ND	ND	ND	ND	ND	ND	ND	ND	ND	ND	0
52172	2016-01-10T19:00:00	3	ND	ND	ND	ND	ND	ND	ND	ND	ND	ND	0
52173	2016-01-10T20:00:00	27.9	ND	ND	ND	ND	ND	ND	ND	ND	ND	ND	1.52
52174	2016-01-10T21:00:00	52.7	ND	ND	ND	ND	ND	ND	ND	ND	ND	ND	0.25
52175	2016-01-10T22:00:00	13.4	ND	ND	ND	ND	ND	ND	ND	ND	ND	ND	0
52176	2016-01-10T23:00:00	7.6	ND	ND	ND	ND	ND	ND	ND	ND	ND	ND	0
52177	2016-01-11T00:00:00	28.1	ND	ND	ND	ND	ND	ND	ND	ND	ND	ND	0
52178	2016-01-11T01:00:00	22.4	ND	ND	ND	ND	ND	ND	ND	ND	ND	ND	0
52179	2016-01-11T02:00:00	ND	ND	ND	ND	ND	ND	ND	ND	ND	ND	ND	0
52180	2016-01-11T03:00:00	16.5	ND	ND	ND	ND	ND	ND	ND	ND	ND	ND	0
52181	2016-01-11T04:00:00	27.9	ND	ND	ND	ND	ND	ND	ND	ND	ND	ND	0
52182	2016-01-11T05:00:00	24.1	ND	ND	ND	ND	ND	ND	ND	ND	ND	ND	0
52183	2016-01-11T06:00:00	16.2	ND	ND	ND	ND	ND	ND	ND	ND	ND	ND	0
52184	2016-01-11T07:00:00	32.3	ND	ND	ND	ND	ND	ND	ND	ND	ND	ND	0
52185	2016-01-11T08:00:00	45.4	ND	ND	ND	ND	ND	ND	ND	ND	ND	ND	0
52186	2016-01-11T09:00:00	51.1	ND	ND	ND	ND	ND	ND	ND	ND	ND	ND	0
52187	2016-01-11T10:00:00	33.8	ND	ND	ND	ND	ND	ND	ND	ND	ND	ND	0
52188	2016-01-11T11:00:00	36.6	ND	ND	ND	ND	ND	ND	ND	ND	ND	ND	0
52189	2016-01-11T12:00:00	41.7	ND	ND	ND	ND	ND	ND	ND	ND	ND	ND	0
52190	2016-01-11T13:00:00	56.8	ND	ND	ND	ND	ND	ND	ND	ND	ND	ND	0
52191	2016-01-11T14:00:00	22.7	ND	ND	ND	ND	ND	ND	ND	ND	ND	ND	0
52192	2016-01-11T15:00:00	29.6	ND	ND	ND	ND	ND	ND	ND	ND	ND	ND	0
52193	2016-01-11T16:00:00	7.2	ND	ND	ND	ND	ND	ND	ND	ND	ND	ND	0
52194	2016-01-11T17:00:00	14.1	ND	ND	ND	ND	ND	ND	ND	ND	ND	ND	0
52195	2016-01-11T18:00:00	ND	ND	ND	ND	ND	ND	ND	ND	ND	ND	ND	0
52196	2016-01-11T19:00:00	ND	ND	ND	ND	ND	ND	ND	ND	ND	ND	ND	0
52197	2016-01-11T20:00:00	12.9	ND	ND	ND	ND	ND	ND	ND	ND	ND	ND	0
52198	2016-01-11T21:00:00	10.9	ND	ND	ND	ND	ND	ND	ND	ND	ND	ND	0
52199	2016-01-11T22:00:00	12	ND	ND	ND	ND	ND	ND	ND	ND	ND	ND	0
52200	2016-01-11T23:00:00	73.4	ND	ND	ND	ND	ND	ND	ND	ND	ND	ND	0
52201	2016-01-12T00:00:00	81.9	ND	ND	ND	ND	ND	ND	ND	ND	ND	ND	0
52202	2016-01-12T01:00:00	41.7	ND	ND	ND	ND	ND	ND	ND	ND	ND	ND	0
52203	2016-01-12T02:00:00	27.5	ND	ND	ND	ND	ND	ND	ND	ND	ND	ND	0
52204	2016-01-12T03:00:00	9.4	ND	ND	ND	ND	ND	ND	ND	ND	ND	ND	0
52205	2016-01-12T04:00:00	26	ND	ND	ND	ND	ND	ND	ND	ND	ND	ND	0
52206	2016-01-12T05:00:00	16.7	ND	ND	ND	ND	ND	ND	ND	ND	ND	ND	0
52207	2016-01-12T06:00:00	25.4	ND	ND	ND	ND	ND	ND	ND	ND	ND	ND	0
52208	2016-01-12T07:00:00	30	ND	ND	ND	ND	ND	ND	ND	ND	ND	ND	0
52209	2016-01-12T08:00:00	26.9	ND	ND	ND	ND	ND	ND	ND	ND	ND	ND	0
52210	2016-01-12T09:00:00	34.3	ND	ND	ND	ND	ND	ND	ND	ND	ND	ND	0
52211	2016-01-12T10:00:00	48.7	ND	ND	ND	ND	ND	ND	ND	ND	ND	ND	0
52212	2016-01-12T11:00:00	45.1	ND	ND	ND	ND	ND	ND	ND	ND	ND	ND	0
52213	2016-01-12T12:00:00	62.7	ND	ND	ND	ND	ND	ND	ND	ND	ND	ND	0
52214	2016-01-12T13:00:00	53.7	ND	ND	ND	ND	ND	ND	ND	ND	ND	ND	0
52215	2016-01-12T14:00:00	46	ND	ND	ND	ND	ND	ND	ND	ND	ND	ND	0
52216	2016-01-12T15:00:00	43.6	ND	ND	ND	ND	ND	ND	ND	ND	ND	ND	0
52217	2016-01-12T16:00:00	42.5	ND	ND	ND	ND	ND	ND	ND	ND	ND	ND	0
52218	2016-01-12T17:00:00	43.6	ND	ND	ND	ND	ND	ND	ND	ND	ND	ND	0
52219	2016-01-12T18:00:00	34.6	ND	ND	ND	ND	ND	ND	ND	ND	ND	ND	0
52220	2016-01-12T19:00:00	6.7	ND	ND	ND	ND	ND	ND	ND	ND	ND	ND	0
52221	2016-01-12T20:00:00	ND	ND	ND	ND	ND	ND	ND	ND	ND	ND	ND	0
52222	2016-01-12T21:00:00	ND	ND	ND	ND	ND	ND	ND	ND	ND	ND	ND	0
52223	2016-01-12T22:00:00	6.1	ND	ND	ND	ND	ND	ND	ND	ND	ND	ND	0
52224	2016-01-12T23:00:00	14.9	ND	ND	ND	ND	ND	ND	ND	ND	ND	ND	0
52225	2016-01-13T00:00:00	27.4	ND	ND	ND	ND	ND	ND	ND	ND	ND	ND	0
52226	2016-01-13T01:00:00	48.8	ND	ND	ND	ND	ND	ND	ND	ND	ND	ND	0
52227	2016-01-13T02:00:00	37.1	ND	ND	ND	ND	ND	ND	ND	ND	ND	ND	0
52228	2016-01-13T03:00:00	62.3	ND	ND	ND	ND	ND	ND	ND	ND	ND	ND	0
52229	2016-01-13T04:00:00	55.8	ND	ND	ND	ND	ND	ND	ND	ND	ND	ND	0
52230	2016-01-13T05:00:00	68.1	ND	ND	ND	ND	ND	ND	ND	ND	ND	ND	0
52231	2016-01-13T06:00:00	61.2	ND	ND	ND	ND	ND	ND	ND	ND	ND	ND	0
52232	2016-01-13T07:00:00	56.2	ND	ND	ND	ND	ND	ND	ND	ND	ND	ND	0
52233	2016-01-13T08:00:00	66	ND	ND	ND	ND	ND	ND	ND	ND	ND	ND	0
52234	2016-01-13T09:00:00	99.1	ND	ND	ND	ND	ND	ND	ND	ND	ND	ND	0
52235	2016-01-13T10:00:00	101.7	ND	ND	ND	ND	ND	ND	ND	ND	ND	ND	0
52236	2016-01-13T11:00:00	73	ND	ND	ND	ND	ND	ND	ND	ND	ND	ND	0
52237	2016-01-13T12:00:00	66.7	ND	ND	ND	ND	ND	ND	ND	ND	ND	ND	0
52238	2016-01-13T13:00:00	78.6	ND	ND	ND	ND	ND	ND	ND	ND	ND	ND	0
52239	2016-01-13T14:00:00	80.9	ND	ND	ND	ND	ND	ND	ND	ND	ND	ND	0
52240	2016-01-13T15:00:00	61.8	ND	ND	ND	ND	ND	ND	ND	ND	ND	ND	0
52241	2016-01-13T16:00:00	21.4	ND	ND	ND	ND	ND	ND	ND	ND	ND	ND	0
52242	2016-01-13T17:00:00	ND	ND	ND	ND	ND	ND	ND	ND	ND	ND	ND	0
52243	2016-01-13T18:00:00	76.8	ND	ND	ND	ND	ND	ND	ND	ND	ND	ND	0
52244	2016-01-13T19:00:00	55.9	ND	ND	ND	ND	ND	ND	ND	ND	ND	ND	0
52245	2016-01-13T20:00:00	23.3	ND	ND	ND	ND	ND	ND	ND	ND	ND	ND	0
52246	2016-01-13T21:00:00	ND	ND	ND	ND	ND	ND	ND	ND	ND	ND	ND	0
52247	2016-01-13T22:00:00	5	ND	ND	ND	ND	ND	ND	ND	ND	ND	ND	0
52248	2016-01-13T23:00:00	11.8	ND	ND	ND	ND	ND	ND	ND	ND	ND	ND	0
52249	2016-01-14T00:00:00	127.8	ND	ND	ND	ND	ND	ND	ND	ND	ND	ND	0
52250	2016-01-14T01:00:00	111.5	ND	ND	ND	ND	ND	ND	ND	ND	ND	ND	0
52251	2016-01-14T02:00:00	93.5	ND	ND	ND	ND	ND	ND	ND	ND	ND	ND	0
52252	2016-01-14T03:00:00	80.4	ND	ND	ND	ND	ND	ND	ND	ND	ND	ND	0
52253	2016-01-14T04:00:00	53.4	ND	ND	ND	ND	ND	ND	ND	ND	ND	ND	0
52254	2016-01-14T05:00:00	54.1	ND	ND	ND	ND	ND	ND	ND	ND	ND	ND	0
52255	2016-01-14T06:00:00	45.3	ND	ND	ND	ND	ND	ND	ND	ND	ND	ND	0
52256	2016-01-14T07:00:00	56.2	ND	ND	ND	ND	ND	ND	ND	ND	ND	ND	0
52257	2016-01-14T08:00:00	87.9	ND	ND	ND	ND	ND	ND	ND	ND	ND	ND	0
52258	2016-01-14T09:00:00	64.9	ND	ND	ND	ND	ND	ND	ND	ND	ND	ND	0
52259	2016-01-14T10:00:00	57.7	ND	ND	ND	ND	ND	ND	ND	ND	ND	ND	0
52260	2016-01-14T11:00:00	130.9	ND	ND	ND	ND	ND	ND	ND	ND	ND	ND	0
52261	2016-01-14T12:00:00	69	ND	ND	ND	ND	ND	ND	ND	ND	ND	ND	0
52262	2016-01-14T13:00:00	91.2	ND	ND	ND	ND	ND	ND	ND	ND	ND	ND	0
52263	2016-01-14T14:00:00	79.9	ND	ND	ND	ND	ND	ND	ND	ND	ND	ND	0
52264	2016-01-14T15:00:00	51.9	ND	ND	ND	ND	ND	ND	ND	ND	ND	ND	0
52265	2016-01-14T16:00:00	60.1	ND	ND	ND	ND	ND	ND	ND	ND	ND	ND	0
52266	2016-01-14T17:00:00	36.5	ND	ND	ND	ND	ND	ND	ND	ND	ND	ND	0
52267	2016-01-14T18:00:00	30	ND	ND	ND	ND	ND	ND	ND	ND	ND	ND	0
52268	2016-01-14T19:00:00	19	ND	ND	ND	ND	ND	ND	ND	ND	ND	ND	0
52269	2016-01-14T20:00:00	10	ND	ND	ND	ND	ND	ND	ND	ND	ND	ND	0
52270	2016-01-14T21:00:00	7.8	ND	ND	ND	ND	ND	ND	ND	ND	ND	ND	0
52271	2016-01-14T22:00:00	7.1	ND	ND	ND	ND	ND	ND	ND	ND	ND	ND	0
52272	2016-01-14T23:00:00	6.9	ND	ND	ND	ND	ND	ND	ND	ND	ND	ND	0
52273	2016-01-15T00:00:00	21.4	ND	ND	ND	ND	ND	ND	ND	ND	ND	ND	0
52274	2016-01-15T01:00:00	43.2	ND	ND	ND	ND	ND	ND	ND	ND	ND	ND	0
52275	2016-01-15T02:00:00	58.4	ND	ND	ND	ND	ND	ND	ND	ND	ND	ND	0
52276	2016-01-15T03:00:00	56.7	ND	ND	ND	ND	ND	ND	ND	ND	ND	ND	0
52277	2016-01-15T04:00:00	38.9	ND	ND	ND	ND	ND	ND	ND	ND	ND	ND	0
52278	2016-01-15T05:00:00	58.9	ND	ND	ND	ND	ND	ND	ND	ND	ND	ND	0
52279	2016-01-15T06:00:00	46.6	ND	ND	ND	ND	ND	ND	ND	ND	ND	ND	0
52280	2016-01-15T07:00:00	40.5	ND	ND	ND	ND	ND	ND	ND	ND	ND	ND	0
52281	2016-01-15T08:00:00	45.8	ND	ND	ND	ND	ND	ND	ND	ND	ND	ND	0
52282	2016-01-15T09:00:00	139.5	ND	ND	ND	ND	ND	ND	ND	ND	ND	ND	0
52283	2016-01-15T10:00:00	119.7	ND	ND	ND	ND	ND	ND	ND	ND	ND	ND	0
52284	2016-01-15T11:00:00	71.2	ND	ND	ND	ND	ND	ND	ND	ND	ND	ND	0
52285	2016-01-15T12:00:00	66.8	ND	ND	ND	ND	ND	ND	ND	ND	ND	ND	0
52286	2016-01-15T13:00:00	61.4	ND	ND	ND	ND	ND	ND	ND	ND	ND	ND	0
52287	2016-01-15T14:00:00	65.3	ND	ND	ND	ND	ND	ND	ND	ND	ND	ND	0
52288	2016-01-15T15:00:00	64.6	ND	ND	ND	ND	ND	ND	ND	ND	ND	ND	0
52289	2016-01-15T16:00:00	74.6	ND	ND	ND	ND	ND	ND	ND	ND	ND	ND	0
52290	2016-01-15T17:00:00	120.6	ND	ND	ND	ND	ND	ND	ND	ND	ND	ND	0
52291	2016-01-15T18:00:00	70.3	ND	ND	ND	ND	ND	ND	ND	ND	ND	ND	0
52292	2016-01-15T19:00:00	14	ND	ND	ND	ND	ND	ND	ND	ND	ND	ND	0
52293	2016-01-15T20:00:00	43.5	ND	ND	ND	ND	ND	ND	ND	ND	ND	ND	0
52294	2016-01-15T21:00:00	50.3	ND	ND	ND	ND	ND	ND	ND	ND	ND	ND	0
52295	2016-01-15T22:00:00	21.5	ND	ND	ND	ND	ND	ND	ND	ND	ND	ND	0
52296	2016-01-15T23:00:00	13.1	ND	ND	ND	ND	ND	ND	ND	ND	ND	ND	0
52297	2016-01-16T00:00:00	30.9	ND	ND	ND	ND	ND	ND	ND	ND	ND	ND	0
52298	2016-01-16T01:00:00	25.7	ND	ND	ND	ND	ND	ND	ND	ND	ND	ND	0
52299	2016-01-16T02:00:00	61.6	ND	ND	ND	ND	ND	ND	ND	ND	ND	ND	0
52300	2016-01-16T03:00:00	64.1	ND	ND	ND	ND	ND	ND	ND	ND	ND	ND	0
52301	2016-01-16T04:00:00	62.2	ND	ND	ND	ND	ND	ND	ND	ND	ND	ND	0
52302	2016-01-16T05:00:00	70.2	ND	ND	ND	ND	ND	ND	ND	ND	ND	ND	0
52303	2016-01-16T06:00:00	96.9	ND	ND	ND	ND	ND	ND	ND	ND	ND	ND	0
52304	2016-01-16T07:00:00	105.8	ND	ND	ND	ND	ND	ND	ND	ND	ND	ND	0
52305	2016-01-16T08:00:00	53	ND	ND	ND	ND	ND	ND	ND	ND	ND	ND	0
52306	2016-01-16T09:00:00	10.5	ND	ND	ND	ND	ND	ND	ND	ND	ND	ND	0
52307	2016-01-16T10:00:00	ND	ND	ND	ND	ND	ND	ND	ND	ND	ND	ND	0
52308	2016-01-16T11:00:00	188.7	ND	ND	ND	ND	ND	ND	ND	ND	ND	ND	0
52309	2016-01-16T12:00:00	98.9	ND	ND	ND	ND	ND	ND	ND	ND	ND	ND	0
52310	2016-01-16T13:00:00	67	ND	ND	ND	ND	ND	ND	ND	ND	ND	ND	0
52311	2016-01-16T14:00:00	122.5	ND	ND	ND	ND	ND	ND	ND	ND	ND	ND	0
52312	2016-01-16T15:00:00	125.8	ND	ND	ND	ND	ND	ND	ND	ND	ND	ND	0
52313	2016-01-16T16:00:00	46.3	ND	ND	ND	ND	ND	ND	ND	ND	ND	ND	0
52314	2016-01-16T17:00:00	25.1	ND	ND	ND	ND	ND	ND	ND	ND	ND	ND	0
52315	2016-01-16T18:00:00	4.2	ND	ND	ND	ND	ND	ND	ND	ND	ND	ND	0
52316	2016-01-16T19:00:00	13.2	ND	ND	ND	ND	ND	ND	ND	ND	ND	ND	0
52317	2016-01-16T20:00:00	11.7	ND	ND	ND	ND	ND	ND	ND	ND	ND	ND	0
52318	2016-01-16T21:00:00	8.5	ND	ND	ND	ND	ND	ND	ND	ND	ND	ND	0
52319	2016-01-16T22:00:00	13.7	ND	ND	ND	ND	ND	ND	ND	ND	ND	ND	0
52320	2016-01-16T23:00:00	29.9	ND	ND	ND	ND	ND	ND	ND	ND	ND	ND	0
52321	2016-01-17T00:00:00	14.6	ND	ND	ND	ND	ND	ND	ND	ND	ND	ND	0
52322	2016-01-17T01:00:00	41.5	ND	ND	ND	ND	ND	ND	ND	ND	ND	ND	0
52323	2016-01-17T02:00:00	49.7	ND	ND	ND	ND	ND	ND	ND	ND	ND	ND	0
52324	2016-01-17T03:00:00	35.2	ND	ND	ND	ND	ND	ND	ND	ND	ND	ND	0
52325	2016-01-17T04:00:00	49.4	ND	ND	ND	ND	ND	ND	ND	ND	ND	ND	0
52326	2016-01-17T05:00:00	55.9	ND	ND	ND	ND	ND	ND	ND	ND	ND	ND	0
52327	2016-01-17T06:00:00	64.6	ND	ND	ND	ND	ND	ND	ND	ND	ND	ND	0
52328	2016-01-17T07:00:00	67.5	ND	ND	ND	ND	ND	ND	ND	ND	ND	ND	0
52329	2016-01-17T08:00:00	75.3	ND	ND	ND	ND	ND	ND	ND	ND	ND	ND	0
52330	2016-01-17T09:00:00	76.9	ND	ND	ND	ND	ND	ND	ND	ND	ND	ND	0
52331	2016-01-17T10:00:00	79.7	ND	ND	ND	ND	ND	ND	ND	ND	ND	ND	0
52332	2016-01-17T11:00:00	52.2	ND	ND	ND	ND	ND	ND	ND	ND	ND	ND	0
52333	2016-01-17T12:00:00	43.6	ND	ND	ND	ND	ND	ND	ND	ND	ND	ND	0
52334	2016-01-17T13:00:00	67.3	ND	ND	ND	ND	ND	ND	ND	ND	ND	ND	0
52335	2016-01-17T14:00:00	56.4	ND	ND	ND	ND	ND	ND	ND	ND	ND	ND	0
52336	2016-01-17T15:00:00	62	ND	ND	ND	ND	ND	ND	ND	ND	ND	ND	0
52337	2016-01-17T16:00:00	34.8	ND	ND	ND	ND	ND	ND	ND	ND	ND	ND	0
52338	2016-01-17T17:00:00	32.5	ND	ND	ND	ND	ND	ND	ND	ND	ND	ND	0
52339	2016-01-17T18:00:00	42	ND	ND	ND	ND	ND	ND	ND	ND	ND	ND	0
52340	2016-01-17T19:00:00	43.7	ND	ND	ND	ND	ND	ND	ND	ND	ND	ND	0
52341	2016-01-17T20:00:00	1.3	ND	ND	ND	ND	ND	ND	ND	ND	ND	ND	0
52342	2016-01-17T21:00:00	ND	ND	ND	ND	ND	ND	ND	ND	ND	ND	ND	0
52343	2016-01-17T22:00:00	ND	ND	ND	ND	ND	ND	ND	ND	ND	ND	ND	0
52344	2016-01-17T23:00:00	ND	ND	ND	ND	ND	ND	ND	ND	ND	ND	ND	0
52345	2016-01-18T00:00:00	19.8	ND	ND	ND	ND	ND	ND	ND	ND	ND	ND	0
52346	2016-01-18T01:00:00	69.2	ND	ND	ND	ND	ND	ND	ND	ND	ND	ND	0
52347	2016-01-18T02:00:00	68.7	ND	ND	ND	ND	ND	ND	ND	ND	ND	ND	0
52348	2016-01-18T03:00:00	50.1	ND	ND	ND	ND	ND	ND	ND	ND	ND	ND	0
52349	2016-01-18T04:00:00	49.4	ND	ND	ND	ND	ND	ND	ND	ND	ND	ND	0
52350	2016-01-18T05:00:00	49.9	ND	ND	ND	ND	ND	ND	ND	ND	ND	ND	0
52351	2016-01-18T06:00:00	38.9	ND	ND	ND	ND	ND	ND	ND	ND	ND	ND	0
52352	2016-01-18T07:00:00	44.5	ND	ND	ND	ND	ND	ND	ND	ND	ND	ND	0
52353	2016-01-18T08:00:00	73.3	ND	ND	ND	ND	ND	ND	ND	ND	ND	ND	0
52354	2016-01-18T09:00:00	90.2	ND	ND	ND	ND	ND	ND	ND	ND	ND	ND	0
52355	2016-01-18T10:00:00	96.3	ND	ND	ND	ND	ND	ND	ND	ND	ND	ND	0
52356	2016-01-18T11:00:00	67.2	ND	ND	ND	ND	ND	ND	ND	ND	ND	ND	0
52357	2016-01-18T12:00:00	80.1	ND	ND	ND	ND	ND	ND	ND	ND	ND	ND	0
52358	2016-01-18T13:00:00	68.4	ND	ND	ND	ND	ND	ND	ND	ND	ND	ND	0
52359	2016-01-18T14:00:00	73	ND	ND	ND	ND	ND	ND	ND	ND	ND	ND	0
52360	2016-01-18T15:00:00	83.6	ND	ND	ND	ND	ND	ND	ND	ND	ND	ND	0
52361	2016-01-18T16:00:00	63.4	ND	ND	ND	ND	ND	ND	ND	ND	ND	ND	0
52362	2016-01-18T17:00:00	16.2	ND	ND	ND	ND	ND	ND	ND	ND	ND	ND	0
52363	2016-01-18T18:00:00	47.1	ND	ND	ND	ND	ND	ND	ND	ND	ND	ND	0
52364	2016-01-18T19:00:00	25.1	ND	ND	ND	ND	ND	ND	ND	ND	ND	ND	0
52365	2016-01-18T20:00:00	11.7	ND	ND	ND	ND	ND	ND	ND	ND	ND	ND	0
52366	2016-01-18T21:00:00	ND	ND	ND	ND	ND	ND	ND	ND	ND	ND	ND	0
52367	2016-01-18T22:00:00	18.2	ND	ND	ND	ND	ND	ND	ND	ND	ND	ND	0
52368	2016-01-18T23:00:00	20	ND	ND	ND	ND	ND	ND	ND	ND	ND	ND	0
52369	2016-01-19T00:00:00	22.2	ND	ND	ND	ND	ND	ND	ND	ND	ND	ND	0
52370	2016-01-19T01:00:00	22.7	ND	ND	ND	ND	ND	ND	ND	ND	ND	ND	0
52371	2016-01-19T02:00:00	48.4	ND	ND	ND	ND	ND	ND	ND	ND	ND	ND	0
52372	2016-01-19T03:00:00	49.3	ND	ND	ND	ND	ND	ND	ND	ND	ND	ND	0
52373	2016-01-19T04:00:00	60.9	ND	ND	ND	ND	ND	ND	ND	ND	ND	ND	0
52374	2016-01-19T05:00:00	60.4	ND	ND	ND	ND	ND	ND	ND	ND	ND	ND	0
52375	2016-01-19T06:00:00	63.3	ND	ND	ND	ND	ND	ND	ND	ND	ND	ND	0
52376	2016-01-19T07:00:00	40	ND	ND	ND	ND	ND	ND	ND	ND	ND	ND	0
52377	2016-01-19T08:00:00	20	ND	ND	ND	ND	ND	ND	ND	ND	ND	ND	0
52378	2016-01-19T09:00:00	78.5	ND	ND	ND	ND	ND	ND	ND	ND	ND	ND	0
52379	2016-01-19T10:00:00	147	ND	ND	ND	ND	ND	ND	ND	ND	ND	ND	0
52380	2016-01-19T11:00:00	116.3	ND	ND	ND	ND	ND	ND	ND	ND	ND	ND	0
52381	2016-01-19T12:00:00	88.5	ND	ND	ND	ND	ND	ND	ND	ND	ND	ND	0
52382	2016-01-19T13:00:00	66	ND	ND	ND	ND	ND	ND	ND	ND	ND	ND	0
52383	2016-01-19T14:00:00	61.7	ND	ND	ND	ND	ND	ND	ND	ND	ND	ND	0
52384	2016-01-19T15:00:00	82.7	ND	ND	ND	ND	ND	ND	ND	ND	ND	ND	0
52385	2016-01-19T16:00:00	49.6	ND	ND	ND	ND	ND	ND	ND	ND	ND	ND	0
52386	2016-01-19T17:00:00	15.2	ND	ND	ND	ND	ND	ND	ND	ND	ND	ND	0
52387	2016-01-19T18:00:00	ND	ND	ND	ND	ND	ND	ND	ND	ND	ND	ND	0
52388	2016-01-19T19:00:00	ND	ND	ND	ND	ND	ND	ND	ND	ND	ND	ND	0
52389	2016-01-19T20:00:00	ND	ND	ND	ND	ND	ND	ND	ND	ND	ND	ND	0
52390	2016-01-19T21:00:00	9.2	ND	ND	ND	ND	ND	ND	ND	ND	ND	ND	0
52391	2016-01-19T22:00:00	26.2	ND	ND	ND	ND	ND	ND	ND	ND	ND	ND	0
52392	2016-01-19T23:00:00	33.3	ND	ND	ND	ND	ND	ND	ND	ND	ND	ND	0
52393	2016-01-20T00:00:00	43.3	ND	ND	ND	ND	ND	ND	ND	ND	ND	ND	0
52394	2016-01-20T01:00:00	93.4	ND	ND	ND	ND	ND	ND	ND	ND	ND	ND	0
52395	2016-01-20T02:00:00	107.6	ND	ND	ND	ND	ND	ND	ND	ND	ND	ND	0
52396	2016-01-20T03:00:00	106.3	ND	ND	ND	ND	ND	ND	ND	ND	ND	ND	0
52397	2016-01-20T04:00:00	45.5	ND	ND	ND	ND	ND	ND	ND	ND	ND	ND	0
52398	2016-01-20T05:00:00	90.7	ND	ND	ND	ND	ND	ND	ND	ND	ND	ND	0
52399	2016-01-20T06:00:00	83.1	ND	ND	ND	ND	ND	ND	ND	ND	ND	ND	0
52400	2016-01-20T07:00:00	55.7	ND	ND	ND	ND	ND	ND	ND	ND	ND	ND	0
52401	2016-01-20T08:00:00	158.4	ND	ND	ND	ND	ND	ND	ND	ND	ND	ND	0
52402	2016-01-20T09:00:00	151.5	ND	ND	ND	ND	ND	ND	ND	ND	ND	ND	0
52403	2016-01-20T10:00:00	99.4	ND	ND	ND	ND	ND	ND	ND	ND	ND	ND	0
52404	2016-01-20T11:00:00	67.5	ND	ND	ND	ND	ND	ND	ND	ND	ND	ND	0
52405	2016-01-20T12:00:00	88.3	ND	ND	ND	ND	ND	ND	ND	ND	ND	ND	0
52406	2016-01-20T13:00:00	118.6	ND	ND	ND	ND	ND	ND	ND	ND	ND	ND	0
52407	2016-01-20T14:00:00	75.6	ND	ND	ND	ND	ND	ND	ND	ND	ND	ND	0
52408	2016-01-20T15:00:00	48.8	ND	ND	ND	ND	ND	ND	ND	ND	ND	ND	0
52409	2016-01-20T16:00:00	60	ND	ND	ND	ND	ND	ND	ND	ND	ND	ND	0
52410	2016-01-20T17:00:00	42.7	ND	ND	ND	ND	ND	ND	ND	ND	ND	ND	0
52411	2016-01-20T18:00:00	52.5	ND	ND	ND	ND	ND	ND	ND	ND	ND	ND	0
52412	2016-01-20T19:00:00	21.5	ND	ND	ND	ND	ND	ND	ND	ND	ND	ND	0
52413	2016-01-20T20:00:00	9.5	ND	ND	ND	ND	ND	ND	ND	ND	ND	ND	0
52414	2016-01-20T21:00:00	31.8	ND	ND	ND	ND	ND	ND	ND	ND	ND	ND	0
52415	2016-01-20T22:00:00	28.3	ND	ND	ND	ND	ND	ND	ND	ND	ND	ND	0
52416	2016-01-20T23:00:00	33.1	ND	ND	ND	ND	ND	ND	ND	ND	ND	ND	0
52417	2016-01-21T00:00:00	45	ND	ND	ND	ND	ND	ND	ND	ND	ND	ND	0
52418	2016-01-21T01:00:00	24.5	ND	ND	ND	ND	ND	ND	ND	ND	ND	ND	0
52419	2016-01-21T02:00:00	41.6	ND	ND	ND	ND	ND	ND	ND	ND	ND	ND	0
52420	2016-01-21T03:00:00	83.3	ND	ND	ND	ND	ND	ND	ND	ND	ND	ND	0
52421	2016-01-21T04:00:00	83.4	ND	ND	ND	ND	ND	ND	ND	ND	ND	ND	0
52422	2016-01-21T05:00:00	71.9	ND	ND	ND	ND	ND	ND	ND	ND	ND	ND	0
52423	2016-01-21T06:00:00	69.2	ND	ND	ND	ND	ND	ND	ND	ND	ND	ND	0
52424	2016-01-21T07:00:00	81.4	ND	ND	ND	ND	ND	ND	ND	ND	ND	ND	0
52425	2016-01-21T08:00:00	106.2	ND	ND	ND	ND	ND	ND	ND	ND	ND	ND	0
52426	2016-01-21T09:00:00	110.2	ND	ND	ND	ND	ND	ND	ND	ND	ND	ND	0
52427	2016-01-21T10:00:00	126.6	ND	ND	ND	ND	ND	ND	ND	ND	ND	ND	0
52428	2016-01-21T11:00:00	128.6	ND	ND	ND	ND	ND	ND	ND	ND	ND	ND	0
52429	2016-01-21T12:00:00	95.1	ND	ND	ND	ND	ND	ND	ND	ND	ND	ND	0
52430	2016-01-21T13:00:00	79.5	ND	ND	ND	ND	ND	ND	ND	ND	ND	ND	0
52431	2016-01-21T14:00:00	91.7	ND	ND	ND	ND	ND	ND	ND	ND	ND	ND	0
52432	2016-01-21T15:00:00	57.1	ND	ND	ND	ND	ND	ND	ND	ND	ND	ND	0
52433	2016-01-21T16:00:00	33.3	ND	ND	ND	ND	ND	ND	ND	ND	ND	ND	0
52434	2016-01-21T17:00:00	24.6	ND	ND	ND	ND	ND	ND	ND	ND	ND	ND	0
52435	2016-01-21T18:00:00	14.7	ND	ND	ND	ND	ND	ND	ND	ND	ND	ND	0
52436	2016-01-21T19:00:00	2.1	ND	ND	ND	ND	ND	ND	ND	ND	ND	ND	0
52437	2016-01-21T20:00:00	ND	ND	ND	ND	ND	ND	ND	ND	ND	ND	ND	0
52438	2016-01-21T21:00:00	0.2	ND	ND	ND	ND	ND	ND	ND	ND	ND	ND	0
52439	2016-01-21T22:00:00	21.9	ND	ND	ND	ND	ND	ND	ND	ND	ND	ND	0
52440	2016-01-21T23:00:00	54.8	ND	ND	ND	ND	ND	ND	ND	ND	ND	ND	0
52441	2016-01-22T00:00:00	55.5	ND	ND	ND	ND	ND	ND	ND	ND	ND	ND	0
52442	2016-01-22T01:00:00	45.1	ND	ND	ND	ND	ND	ND	ND	ND	ND	ND	0
52443	2016-01-22T02:00:00	90.4	ND	ND	ND	ND	ND	ND	ND	ND	ND	ND	0
52444	2016-01-22T03:00:00	66.8	ND	ND	ND	ND	ND	ND	ND	ND	ND	ND	0
52445	2016-01-22T04:00:00	70.3	ND	ND	ND	ND	ND	ND	ND	ND	ND	ND	0
52446	2016-01-22T05:00:00	74.1	ND	ND	ND	ND	ND	ND	ND	ND	ND	ND	0
52447	2016-01-22T06:00:00	73.8	ND	ND	ND	ND	ND	ND	ND	ND	ND	ND	0
52448	2016-01-22T07:00:00	82.3	ND	ND	ND	ND	ND	ND	ND	ND	ND	ND	0
52449	2016-01-22T08:00:00	91.7	ND	ND	ND	ND	ND	ND	ND	ND	ND	ND	0
52450	2016-01-22T09:00:00	99.3	ND	ND	ND	ND	ND	ND	ND	ND	ND	ND	0
52451	2016-01-22T10:00:00	74.9	ND	ND	ND	ND	ND	ND	ND	ND	ND	ND	0
52452	2016-01-22T11:00:00	59.4	ND	ND	ND	ND	ND	ND	ND	ND	ND	ND	0
52453	2016-01-22T12:00:00	14.9	ND	ND	ND	ND	ND	ND	ND	ND	ND	ND	0
52454	2016-01-22T13:00:00	82.9	ND	ND	ND	ND	ND	ND	ND	ND	ND	ND	0
52455	2016-01-22T14:00:00	80.4	ND	ND	ND	ND	ND	ND	ND	ND	ND	ND	0
52456	2016-01-22T15:00:00	84.3	ND	ND	ND	ND	ND	ND	ND	ND	ND	ND	0
52457	2016-01-22T16:00:00	99	ND	ND	ND	ND	ND	ND	ND	ND	ND	ND	0
52458	2016-01-22T17:00:00	36.3	ND	ND	ND	ND	ND	ND	ND	ND	ND	ND	0
52459	2016-01-22T18:00:00	36.9	ND	ND	ND	ND	ND	ND	ND	ND	ND	ND	0
52460	2016-01-22T19:00:00	76.5	ND	ND	ND	ND	ND	ND	ND	ND	ND	ND	0
52461	2016-01-22T20:00:00	22	ND	ND	ND	ND	ND	ND	ND	ND	ND	ND	0
52462	2016-01-22T21:00:00	25.7	ND	ND	ND	ND	ND	ND	ND	ND	ND	ND	0
52463	2016-01-22T22:00:00	24.5	ND	ND	ND	ND	ND	ND	ND	ND	ND	ND	0
52464	2016-01-22T23:00:00	23.9	ND	ND	ND	ND	ND	ND	ND	ND	ND	ND	0
52465	2016-01-23T00:00:00	11.7	ND	ND	ND	ND	ND	ND	ND	ND	ND	ND	0
52466	2016-01-23T01:00:00	4.7	ND	ND	ND	ND	ND	ND	ND	ND	ND	ND	0
52467	2016-01-23T02:00:00	25.5	ND	ND	ND	ND	ND	ND	ND	ND	ND	ND	0
52468	2016-01-23T03:00:00	76.2	ND	ND	ND	ND	ND	ND	ND	ND	ND	ND	0
52469	2016-01-23T04:00:00	88.2	ND	ND	ND	ND	ND	ND	ND	ND	ND	ND	0
52470	2016-01-23T05:00:00	40.6	ND	ND	ND	ND	ND	ND	ND	ND	ND	ND	5.59
52471	2016-01-23T06:00:00	22.6	ND	ND	ND	ND	ND	ND	ND	ND	ND	ND	0.25
52472	2016-01-23T07:00:00	37.9	ND	ND	ND	ND	ND	ND	ND	ND	ND	ND	0
52473	2016-01-23T08:00:00	96.1	ND	ND	ND	ND	ND	ND	ND	ND	ND	ND	0
52474	2016-01-23T09:00:00	85	ND	ND	ND	ND	ND	ND	ND	ND	ND	ND	17.27
52475	2016-01-23T10:00:00	39.9	ND	ND	ND	ND	ND	ND	ND	ND	ND	ND	19.56
52476	2016-01-23T11:00:00	41.5	ND	ND	ND	ND	ND	ND	ND	ND	ND	ND	0
52477	2016-01-23T12:00:00	48.2	ND	ND	ND	ND	ND	ND	ND	ND	ND	ND	0
52478	2016-01-23T13:00:00	33.3	ND	ND	ND	ND	ND	ND	ND	ND	ND	ND	0
52479	2016-01-23T14:00:00	31.9	ND	ND	ND	ND	ND	ND	ND	ND	ND	ND	0
52480	2016-01-23T15:00:00	34.5	ND	ND	ND	ND	ND	ND	ND	ND	ND	ND	0
52481	2016-01-23T16:00:00	19.1	ND	ND	ND	ND	ND	ND	ND	ND	ND	ND	0
52482	2016-01-23T17:00:00	42.1	ND	ND	ND	ND	ND	ND	ND	ND	ND	ND	0
52483	2016-01-23T18:00:00	67.1	ND	ND	ND	ND	ND	ND	ND	ND	ND	ND	0
52484	2016-01-23T19:00:00	14	ND	ND	ND	ND	ND	ND	ND	ND	ND	ND	0
52485	2016-01-23T20:00:00	9.9	ND	ND	ND	ND	ND	ND	ND	ND	ND	ND	0
52486	2016-01-23T21:00:00	10.4	ND	ND	ND	ND	ND	ND	ND	ND	ND	ND	0
52487	2016-01-23T22:00:00	26.5	ND	ND	ND	ND	ND	ND	ND	ND	ND	ND	0
52488	2016-01-23T23:00:00	29.8	ND	ND	ND	ND	ND	ND	ND	ND	ND	ND	0
52489	2016-01-24T00:00:00	13.5	ND	ND	ND	ND	ND	ND	ND	ND	ND	ND	0
52490	2016-01-24T01:00:00	1.1	ND	ND	ND	ND	ND	ND	ND	ND	ND	ND	0
52491	2016-01-24T02:00:00	21.3	ND	ND	ND	ND	ND	ND	ND	ND	ND	ND	0
52492	2016-01-24T03:00:00	54	ND	ND	ND	ND	ND	ND	ND	ND	ND	ND	0
52493	2016-01-24T04:00:00	55.1	ND	ND	ND	ND	ND	ND	ND	ND	ND	ND	0
52494	2016-01-24T05:00:00	73.7	ND	ND	ND	ND	ND	ND	ND	ND	ND	ND	0
52495	2016-01-24T06:00:00	49	ND	ND	ND	ND	ND	ND	ND	ND	ND	ND	0
52496	2016-01-24T07:00:00	69	ND	ND	ND	ND	ND	ND	ND	ND	ND	ND	0
52497	2016-01-24T08:00:00	79.5	ND	ND	ND	ND	ND	ND	ND	ND	ND	ND	0
52498	2016-01-24T09:00:00	71.6	ND	ND	ND	ND	ND	ND	ND	ND	ND	ND	0
52499	2016-01-24T10:00:00	92.2	ND	ND	ND	ND	ND	ND	ND	ND	ND	ND	0
52500	2016-01-24T11:00:00	53.7	ND	ND	ND	ND	ND	ND	ND	ND	ND	ND	0
52501	2016-01-24T12:00:00	28.2	ND	ND	ND	ND	ND	ND	ND	ND	ND	ND	0
52502	2016-01-24T13:00:00	40.1	ND	ND	ND	ND	ND	ND	ND	ND	ND	ND	0
52503	2016-01-24T14:00:00	74.9	ND	ND	ND	ND	ND	ND	ND	ND	ND	ND	0
52504	2016-01-24T15:00:00	93.7	ND	ND	ND	ND	ND	ND	ND	ND	ND	ND	0
52505	2016-01-24T16:00:00	50.5	ND	ND	ND	ND	ND	ND	ND	ND	ND	ND	0
52506	2016-01-24T17:00:00	43.4	ND	ND	ND	ND	ND	ND	ND	ND	ND	ND	0
52507	2016-01-24T18:00:00	44.6	ND	ND	ND	ND	ND	ND	ND	ND	ND	ND	0
52508	2016-01-24T19:00:00	27.9	ND	ND	ND	ND	ND	ND	ND	ND	ND	ND	0
52509	2016-01-24T20:00:00	8.1	ND	ND	ND	ND	ND	ND	ND	ND	ND	ND	0
52510	2016-01-24T21:00:00	17.9	ND	ND	ND	ND	ND	ND	ND	ND	ND	ND	0
52511	2016-01-24T22:00:00	11.2	ND	ND	ND	ND	ND	ND	ND	ND	ND	ND	0
52512	2016-01-24T23:00:00	8.8	ND	ND	ND	ND	ND	ND	ND	ND	ND	ND	0
52513	2016-01-25T00:00:00	5.1	ND	ND	ND	ND	ND	ND	ND	ND	ND	ND	0
52514	2016-01-25T01:00:00	ND	ND	ND	ND	ND	ND	ND	ND	ND	ND	ND	0
52515	2016-01-25T02:00:00	30.3	ND	ND	ND	ND	ND	ND	ND	ND	ND	ND	0
52516	2016-01-25T03:00:00	25.2	ND	ND	ND	ND	ND	ND	ND	ND	ND	ND	0
52517	2016-01-25T04:00:00	30.5	ND	ND	ND	ND	ND	ND	ND	ND	ND	ND	0
52518	2016-01-25T05:00:00	35.8	ND	ND	ND	ND	ND	ND	ND	ND	ND	ND	0
52519	2016-01-25T06:00:00	44.2	ND	ND	ND	ND	ND	ND	ND	ND	ND	ND	0
52520	2016-01-25T07:00:00	34.6	ND	ND	ND	ND	ND	ND	ND	ND	ND	ND	0
52521	2016-01-25T08:00:00	63.5	ND	ND	ND	ND	ND	ND	ND	ND	ND	ND	0
52522	2016-01-25T09:00:00	78.1	ND	ND	ND	ND	ND	ND	ND	ND	ND	ND	0
52523	2016-01-25T10:00:00	68.5	ND	ND	ND	ND	ND	ND	ND	ND	ND	ND	0
52524	2016-01-25T11:00:00	28.7	ND	ND	ND	ND	ND	ND	ND	ND	ND	ND	0
52525	2016-01-25T12:00:00	74.2	ND	ND	ND	ND	ND	ND	ND	ND	ND	ND	0
52526	2016-01-25T13:00:00	67.3	ND	ND	ND	ND	ND	ND	ND	ND	ND	ND	0
52527	2016-01-25T14:00:00	99.1	ND	ND	ND	ND	ND	ND	ND	ND	ND	ND	0
52528	2016-01-25T15:00:00	7.8	ND	ND	ND	ND	ND	ND	ND	ND	ND	ND	0
52529	2016-01-25T16:00:00	36.9	ND	ND	ND	ND	ND	ND	ND	ND	ND	ND	0
52530	2016-01-25T17:00:00	87.5	ND	ND	ND	ND	ND	ND	ND	ND	ND	ND	0
52531	2016-01-25T18:00:00	83.4	ND	ND	ND	ND	ND	ND	ND	ND	ND	ND	0
52532	2016-01-25T19:00:00	38.9	ND	ND	ND	ND	ND	ND	ND	ND	ND	ND	0
52533	2016-01-25T20:00:00	11.7	ND	ND	ND	ND	ND	ND	ND	ND	ND	ND	0
52534	2016-01-25T21:00:00	67.9	ND	ND	ND	ND	ND	ND	ND	ND	ND	ND	0
52535	2016-01-25T22:00:00	39.6	ND	ND	ND	ND	ND	ND	ND	ND	ND	ND	0
52536	2016-01-25T23:00:00	42	ND	ND	ND	ND	ND	ND	ND	ND	ND	ND	0
52537	2016-01-26T00:00:00	57.6	ND	ND	ND	ND	ND	ND	ND	ND	ND	ND	0
52538	2016-01-26T01:00:00	45.1	ND	ND	ND	ND	ND	ND	ND	ND	ND	ND	0
52539	2016-01-26T02:00:00	6.6	ND	ND	ND	ND	ND	ND	ND	ND	ND	ND	0
52540	2016-01-26T03:00:00	57.7	ND	ND	ND	ND	ND	ND	ND	ND	ND	ND	0
52541	2016-01-26T04:00:00	64.5	ND	ND	ND	ND	ND	ND	ND	ND	ND	ND	0
52542	2016-01-26T05:00:00	17.9	ND	ND	ND	ND	ND	ND	ND	ND	ND	ND	0
52543	2016-01-26T06:00:00	32.5	ND	ND	ND	ND	ND	ND	ND	ND	ND	ND	0
52544	2016-01-26T07:00:00	121	ND	ND	ND	ND	ND	ND	ND	ND	ND	ND	0
52545	2016-01-26T08:00:00	72.7	ND	ND	ND	ND	ND	ND	ND	ND	ND	ND	0
52546	2016-01-26T09:00:00	140.5	ND	ND	ND	ND	ND	ND	ND	ND	ND	ND	0
52547	2016-01-26T10:00:00	117.8	ND	ND	ND	ND	ND	ND	ND	ND	ND	ND	0
52548	2016-01-26T11:00:00	60.1	ND	ND	ND	ND	ND	ND	ND	ND	ND	ND	0
52549	2016-01-26T12:00:00	64.1	ND	ND	ND	ND	ND	ND	ND	ND	ND	ND	0
52550	2016-01-26T13:00:00	71.8	ND	ND	ND	ND	ND	ND	ND	ND	ND	ND	0
52551	2016-01-26T14:00:00	74.9	ND	ND	ND	ND	ND	ND	ND	ND	ND	ND	0
52552	2016-01-26T15:00:00	21.4	ND	ND	ND	ND	ND	ND	ND	ND	ND	ND	0
52553	2016-01-26T16:00:00	14.7	ND	ND	ND	ND	ND	ND	ND	ND	ND	ND	0
52554	2016-01-26T17:00:00	43.3	ND	ND	ND	ND	ND	ND	ND	ND	ND	ND	0
52555	2016-01-26T18:00:00	52.9	ND	ND	ND	ND	ND	ND	ND	ND	ND	ND	0
52556	2016-01-26T19:00:00	30.6	ND	ND	ND	ND	ND	ND	ND	ND	ND	ND	0
52557	2016-01-26T20:00:00	26.3	ND	ND	ND	ND	ND	ND	ND	ND	ND	ND	0
52558	2016-01-26T21:00:00	20.3	ND	ND	ND	ND	ND	ND	ND	ND	ND	ND	0
52559	2016-01-26T22:00:00	17.9	ND	ND	ND	ND	ND	ND	ND	ND	ND	ND	0
52560	2016-01-26T23:00:00	3.1	ND	ND	ND	ND	ND	ND	ND	ND	ND	ND	0
52561	2016-01-27T00:00:00	21.6	ND	ND	ND	ND	ND	ND	ND	ND	ND	ND	0
52562	2016-01-27T01:00:00	44.2	ND	ND	ND	ND	ND	ND	ND	ND	ND	ND	0
52563	2016-01-27T02:00:00	51.5	ND	ND	ND	ND	ND	ND	ND	ND	ND	ND	0
52564	2016-01-27T03:00:00	59.4	ND	ND	ND	ND	ND	ND	ND	ND	ND	ND	0
52565	2016-01-27T04:00:00	55.6	ND	ND	ND	ND	ND	ND	ND	ND	ND	ND	0
52566	2016-01-27T05:00:00	59.7	ND	ND	ND	ND	ND	ND	ND	ND	ND	ND	0
52567	2016-01-27T06:00:00	67.8	ND	ND	ND	ND	ND	ND	ND	ND	ND	ND	0
52568	2016-01-27T07:00:00	79.5	ND	ND	ND	ND	ND	ND	ND	ND	ND	ND	0
52569	2016-01-27T08:00:00	101.6	ND	ND	ND	ND	ND	ND	ND	ND	ND	ND	0
52570	2016-01-27T09:00:00	80.8	ND	ND	ND	ND	ND	ND	ND	ND	ND	ND	0
52571	2016-01-27T10:00:00	74.4	ND	ND	ND	ND	ND	ND	ND	ND	ND	ND	0
52572	2016-01-27T11:00:00	55.6	ND	ND	ND	ND	ND	ND	ND	ND	ND	ND	0
52573	2016-01-27T12:00:00	83.8	ND	ND	ND	ND	ND	ND	ND	ND	ND	ND	0
52574	2016-01-27T13:00:00	59	ND	ND	ND	ND	ND	ND	ND	ND	ND	ND	0
52575	2016-01-27T14:00:00	79.2	ND	ND	ND	ND	ND	ND	ND	ND	ND	ND	0
52576	2016-01-27T15:00:00	79	ND	ND	ND	ND	ND	ND	ND	ND	ND	ND	0
52577	2016-01-27T16:00:00	37.7	ND	ND	ND	ND	ND	ND	ND	ND	ND	ND	0
52578	2016-01-27T17:00:00	50.1	ND	ND	ND	ND	ND	ND	ND	ND	ND	ND	0
52579	2016-01-27T18:00:00	52.9	ND	ND	ND	ND	ND	ND	ND	ND	ND	ND	0
52580	2016-01-27T19:00:00	29	ND	ND	ND	ND	ND	ND	ND	ND	ND	ND	0
52581	2016-01-27T20:00:00	9.8	ND	ND	ND	ND	ND	ND	ND	ND	ND	ND	0
52582	2016-01-27T21:00:00	10.6	ND	ND	ND	ND	ND	ND	ND	ND	ND	ND	0
52583	2016-01-27T22:00:00	5	ND	ND	ND	ND	ND	ND	ND	ND	ND	ND	0
52584	2016-01-27T23:00:00	13.6	ND	ND	ND	ND	ND	ND	ND	ND	ND	ND	0
52585	2016-01-28T00:00:00	31.7	ND	ND	ND	ND	ND	ND	ND	ND	ND	ND	0
52586	2016-01-28T01:00:00	2.3	ND	ND	ND	ND	ND	ND	ND	ND	ND	ND	0
52587	2016-01-28T02:00:00	39.7	ND	ND	ND	ND	ND	ND	ND	ND	ND	ND	0
52588	2016-01-28T03:00:00	86.2	ND	ND	ND	ND	ND	ND	ND	ND	ND	ND	0
52589	2016-01-28T04:00:00	68	ND	ND	ND	ND	ND	ND	ND	ND	ND	ND	0
52590	2016-01-28T05:00:00	64.8	ND	ND	ND	ND	ND	ND	ND	ND	ND	ND	0
52591	2016-01-28T06:00:00	68.5	ND	ND	ND	ND	ND	ND	ND	ND	ND	ND	0
52592	2016-01-28T07:00:00	67	ND	ND	ND	ND	ND	ND	ND	ND	ND	ND	0
52593	2016-01-28T08:00:00	83.1	ND	ND	ND	ND	ND	ND	ND	ND	ND	ND	0
52594	2016-01-28T09:00:00	54.5	ND	ND	ND	ND	ND	ND	ND	ND	ND	ND	0
52595	2016-01-28T10:00:00	95.3	ND	ND	ND	ND	ND	ND	ND	ND	ND	ND	0
52596	2016-01-28T11:00:00	102.5	ND	ND	ND	ND	ND	ND	ND	ND	ND	ND	0
52597	2016-01-28T12:00:00	81.5	ND	ND	ND	ND	ND	ND	ND	ND	ND	ND	0
52598	2016-01-28T13:00:00	45.8	ND	ND	ND	ND	ND	ND	ND	ND	ND	ND	0
52599	2016-01-28T14:00:00	86.6	ND	ND	ND	ND	ND	ND	ND	ND	ND	ND	0
52600	2016-01-28T15:00:00	58.5	ND	ND	ND	ND	ND	ND	ND	ND	ND	ND	0
52601	2016-01-28T16:00:00	13.9	ND	ND	ND	ND	ND	ND	ND	ND	ND	ND	0
52602	2016-01-28T17:00:00	ND	ND	ND	ND	ND	ND	ND	ND	ND	ND	ND	0
52603	2016-01-28T18:00:00	ND	ND	ND	ND	ND	ND	ND	ND	ND	ND	ND	0
52604	2016-01-28T19:00:00	ND	ND	ND	ND	ND	ND	ND	ND	ND	ND	ND	0
52605	2016-01-28T20:00:00	134.7	ND	ND	ND	ND	ND	ND	ND	ND	ND	ND	0
52606	2016-01-28T21:00:00	167.1	ND	ND	ND	ND	ND	ND	ND	ND	ND	ND	0
52607	2016-01-28T22:00:00	34.1	ND	ND	ND	ND	ND	ND	ND	ND	ND	ND	0
52608	2016-01-28T23:00:00	66.5	ND	ND	ND	ND	ND	ND	ND	ND	ND	ND	0
52609	2016-01-29T00:00:00	91.3	ND	ND	ND	ND	ND	ND	ND	ND	ND	ND	0
52610	2016-01-29T01:00:00	108.6	ND	ND	ND	ND	ND	ND	ND	ND	ND	ND	0
52611	2016-01-29T02:00:00	70.9	ND	ND	ND	ND	ND	ND	ND	ND	ND	ND	0
52612	2016-01-29T03:00:00	30.4	ND	ND	ND	ND	ND	ND	ND	ND	ND	ND	0
52613	2016-01-29T04:00:00	130.1	ND	ND	ND	ND	ND	ND	ND	ND	ND	ND	0
52614	2016-01-29T05:00:00	80.4	ND	ND	ND	ND	ND	ND	ND	ND	ND	ND	0
52615	2016-01-29T06:00:00	57.9	ND	ND	ND	ND	ND	ND	ND	ND	ND	ND	0
52616	2016-01-29T07:00:00	54.7	ND	ND	ND	ND	ND	ND	ND	ND	ND	ND	0
52617	2016-01-29T08:00:00	79.9	ND	ND	ND	ND	ND	ND	ND	ND	ND	ND	0
52618	2016-01-29T09:00:00	153.3	ND	ND	ND	ND	ND	ND	ND	ND	ND	ND	0
52619	2016-01-29T10:00:00	13.4	ND	ND	ND	ND	ND	ND	ND	ND	ND	ND	0
52620	2016-01-29T11:00:00	54.4	ND	ND	ND	ND	ND	ND	ND	ND	ND	ND	0
52621	2016-01-29T12:00:00	160.6	ND	ND	ND	ND	ND	ND	ND	ND	ND	ND	0
52622	2016-01-29T13:00:00	100.8	ND	ND	ND	ND	ND	ND	ND	ND	ND	ND	0
52623	2016-01-29T14:00:00	34.7	ND	ND	ND	ND	ND	ND	ND	ND	ND	ND	0
52624	2016-01-29T15:00:00	83.9	ND	ND	ND	ND	ND	ND	ND	ND	ND	ND	0
52625	2016-01-29T16:00:00	5.2	ND	ND	ND	ND	ND	ND	ND	ND	ND	ND	0
52626	2016-01-29T17:00:00	17.9	ND	ND	ND	ND	ND	ND	ND	ND	ND	ND	0
52627	2016-01-29T18:00:00	4.3	ND	ND	ND	ND	ND	ND	ND	ND	ND	ND	0
52628	2016-01-29T19:00:00	27.4	ND	ND	ND	ND	ND	ND	ND	ND	ND	ND	0
52629	2016-01-29T20:00:00	43	ND	ND	ND	ND	ND	ND	ND	ND	ND	ND	0
52630	2016-01-29T21:00:00	137.4	ND	ND	ND	ND	ND	ND	ND	ND	ND	ND	0
52631	2016-01-29T22:00:00	117.5	ND	ND	ND	ND	ND	ND	ND	ND	ND	ND	0
52632	2016-01-29T23:00:00	45.6	ND	ND	ND	ND	ND	ND	ND	ND	ND	ND	0
52633	2016-01-30T00:00:00	10.2	ND	ND	ND	ND	ND	ND	ND	ND	ND	ND	0
52634	2016-01-30T01:00:00	71	ND	ND	ND	ND	ND	ND	ND	ND	ND	ND	0
52635	2016-01-30T02:00:00	69.3	ND	ND	ND	ND	ND	ND	ND	ND	ND	ND	0
52636	2016-01-30T03:00:00	55.6	ND	ND	ND	ND	ND	ND	ND	ND	ND	ND	0
52637	2016-01-30T04:00:00	73.6	ND	ND	ND	ND	ND	ND	ND	ND	ND	ND	9.65
52638	2016-01-30T05:00:00	64	ND	ND	ND	ND	ND	ND	ND	ND	ND	ND	1.78
52639	2016-01-30T06:00:00	16.6	ND	ND	ND	ND	ND	ND	ND	ND	ND	ND	0
52640	2016-01-30T07:00:00	19.8	ND	ND	ND	ND	ND	ND	ND	ND	ND	ND	0
52641	2016-01-30T08:00:00	35.5	ND	ND	ND	ND	ND	ND	ND	ND	ND	ND	0
52642	2016-01-30T09:00:00	57.1	ND	ND	ND	ND	ND	ND	ND	ND	ND	ND	0.25
52643	2016-01-30T10:00:00	58.1	ND	ND	ND	ND	ND	ND	ND	ND	ND	ND	0
52644	2016-01-30T11:00:00	65.3	ND	ND	ND	ND	ND	ND	ND	ND	ND	ND	0
52645	2016-01-30T12:00:00	58	ND	ND	ND	ND	ND	ND	ND	ND	ND	ND	0
52646	2016-01-30T13:00:00	48.3	ND	ND	ND	ND	ND	ND	ND	ND	ND	ND	0
52647	2016-01-30T14:00:00	47.4	ND	ND	ND	ND	ND	ND	ND	ND	ND	ND	0
52648	2016-01-30T15:00:00	60.1	ND	ND	ND	ND	ND	ND	ND	ND	ND	ND	0
52649	2016-01-30T16:00:00	61.6	ND	ND	ND	ND	ND	ND	ND	ND	ND	ND	0
52650	2016-01-30T17:00:00	36.5	ND	ND	ND	ND	ND	ND	ND	ND	ND	ND	0
52651	2016-01-30T18:00:00	36	ND	ND	ND	ND	ND	ND	ND	ND	ND	ND	0
52652	2016-01-30T19:00:00	17.3	ND	ND	ND	ND	ND	ND	ND	ND	ND	ND	0
52653	2016-01-30T20:00:00	0.6	ND	ND	ND	ND	ND	ND	ND	ND	ND	ND	0
52654	2016-01-30T21:00:00	6.6	ND	ND	ND	ND	ND	ND	ND	ND	ND	ND	0
52655	2016-01-30T22:00:00	41.7	ND	ND	ND	ND	ND	ND	ND	ND	ND	ND	0
52656	2016-01-30T23:00:00	51.5	ND	ND	ND	ND	ND	ND	ND	ND	ND	ND	0
52657	2016-01-31T00:00:00	52.9	ND	ND	ND	ND	ND	ND	ND	ND	ND	ND	0
52658	2016-01-31T01:00:00	69.4	ND	ND	ND	ND	ND	ND	ND	ND	ND	ND	0
52659	2016-01-31T02:00:00	56.1	ND	ND	ND	ND	ND	ND	ND	ND	ND	ND	0
52660	2016-01-31T03:00:00	3.7	ND	ND	ND	ND	ND	ND	ND	ND	ND	ND	0
52661	2016-01-31T04:00:00	ND	ND	ND	ND	ND	ND	ND	ND	ND	ND	ND	0
52662	2016-01-31T05:00:00	32.8	ND	ND	ND	ND	ND	ND	ND	ND	ND	ND	0
52663	2016-01-31T06:00:00	105.6	ND	ND	ND	ND	ND	ND	ND	ND	ND	ND	0
52664	2016-01-31T07:00:00	108.7	ND	ND	ND	ND	ND	ND	ND	ND	ND	ND	0
52665	2016-01-31T08:00:00	96.8	ND	ND	ND	ND	ND	ND	ND	ND	ND	ND	0
52666	2016-01-31T09:00:00	95	ND	ND	ND	ND	ND	ND	ND	ND	ND	ND	0
52667	2016-01-31T10:00:00	74.6	ND	ND	ND	ND	ND	ND	ND	ND	ND	ND	0
52668	2016-01-31T11:00:00	53.9	ND	ND	ND	ND	ND	ND	ND	ND	ND	ND	0
52669	2016-01-31T12:00:00	44.8	ND	ND	ND	ND	ND	ND	ND	ND	ND	ND	0
52670	2016-01-31T13:00:00	46.6	ND	ND	ND	ND	ND	ND	ND	ND	ND	ND	0
52671	2016-01-31T14:00:00	41.2	ND	ND	ND	ND	ND	ND	ND	ND	ND	ND	0
52672	2016-01-31T15:00:00	43.1	ND	ND	ND	ND	ND	ND	ND	ND	ND	ND	0
52673	2016-01-31T16:00:00	23.3	ND	ND	ND	ND	ND	ND	ND	ND	ND	ND	0
52674	2016-01-31T17:00:00	59.9	ND	ND	ND	ND	ND	ND	ND	ND	ND	ND	0
52675	2016-01-31T18:00:00	35.9	ND	ND	ND	ND	ND	ND	ND	ND	ND	ND	0
52676	2016-01-31T19:00:00	16.5	ND	ND	ND	ND	ND	ND	ND	ND	ND	ND	0
52677	2016-01-31T20:00:00	9	ND	ND	ND	ND	ND	ND	ND	ND	ND	ND	0
52678	2016-01-31T21:00:00	9.5	ND	ND	ND	ND	ND	ND	ND	ND	ND	ND	0
52679	2016-01-31T22:00:00	24.4	ND	ND	ND	ND	ND	ND	ND	ND	ND	ND	0
52680	2016-01-31T23:00:00	29.6	ND	ND	ND	ND	ND	ND	ND	ND	ND	ND	0
52681	2016-02-01T00:00:00	28.9	ND	ND	ND	ND	ND	ND	ND	ND	ND	ND	0
52682	2016-02-01T01:00:00	67.4	ND	ND	ND	ND	ND	ND	ND	ND	ND	ND	0
52683	2016-02-01T02:00:00	53.2	ND	ND	ND	ND	ND	ND	ND	ND	ND	ND	0
52684	2016-02-01T03:00:00	32	ND	ND	ND	ND	ND	ND	ND	ND	ND	ND	0
52685	2016-02-01T04:00:00	35.7	ND	ND	ND	ND	ND	ND	ND	ND	ND	ND	0
52686	2016-02-01T05:00:00	42	ND	ND	ND	ND	ND	ND	ND	ND	ND	ND	0
52687	2016-02-01T06:00:00	69.7	ND	ND	ND	ND	ND	ND	ND	ND	ND	ND	0
52688	2016-02-01T07:00:00	69.9	ND	ND	ND	ND	ND	ND	ND	ND	ND	ND	0
52689	2016-02-01T08:00:00	111.1	ND	ND	ND	ND	ND	ND	ND	ND	ND	ND	0
52690	2016-02-01T09:00:00	83.7	ND	ND	ND	ND	ND	ND	ND	ND	ND	ND	0
52691	2016-02-01T10:00:00	48.3	ND	ND	ND	ND	ND	ND	ND	ND	ND	ND	0
52692	2016-02-01T11:00:00	51	ND	ND	ND	ND	ND	ND	ND	ND	ND	ND	0
52693	2016-02-01T12:00:00	66.5	ND	ND	ND	ND	ND	ND	ND	ND	ND	ND	0
52694	2016-02-01T13:00:00	77.7	ND	ND	ND	ND	ND	ND	ND	ND	ND	ND	0
52695	2016-02-01T14:00:00	64.8	ND	ND	ND	ND	ND	ND	ND	ND	ND	ND	0
52696	2016-02-01T15:00:00	70.3	ND	ND	ND	ND	ND	ND	ND	ND	ND	ND	0
52697	2016-02-01T16:00:00	65.3	ND	ND	ND	ND	ND	ND	ND	ND	ND	ND	0
52698	2016-02-01T17:00:00	54.4	ND	ND	ND	ND	ND	ND	ND	ND	ND	ND	0
52699	2016-02-01T18:00:00	61.5	ND	ND	ND	ND	ND	ND	ND	ND	ND	ND	0
52700	2016-02-01T19:00:00	36.6	ND	ND	ND	ND	ND	ND	ND	ND	ND	ND	0
52701	2016-02-01T20:00:00	10.5	ND	ND	ND	ND	ND	ND	ND	ND	ND	ND	0
52702	2016-02-01T21:00:00	0.8	ND	ND	ND	ND	ND	ND	ND	ND	ND	ND	0
52703	2016-02-01T22:00:00	12.5	ND	ND	ND	ND	ND	ND	ND	ND	ND	ND	0
52704	2016-02-01T23:00:00	7.1	ND	ND	ND	ND	ND	ND	ND	ND	ND	ND	0
52705	2016-02-02T00:00:00	60.8	ND	ND	ND	ND	ND	ND	ND	ND	ND	ND	0
52706	2016-02-02T01:00:00	92.5	ND	ND	ND	ND	ND	ND	ND	ND	ND	ND	0
52707	2016-02-02T02:00:00	96.6	ND	ND	ND	ND	ND	ND	ND	ND	ND	ND	0
52708	2016-02-02T03:00:00	86.7	ND	ND	ND	ND	ND	ND	ND	ND	ND	ND	0
52709	2016-02-02T04:00:00	70.5	ND	ND	ND	ND	ND	ND	ND	ND	ND	ND	0
52710	2016-02-02T05:00:00	63.9	ND	ND	ND	ND	ND	ND	ND	ND	ND	ND	0
52711	2016-02-02T06:00:00	52	ND	ND	ND	ND	ND	ND	ND	ND	ND	ND	0
52712	2016-02-02T07:00:00	85.3	ND	ND	ND	ND	ND	ND	ND	ND	ND	ND	0
52713	2016-02-02T08:00:00	94.4	ND	ND	ND	ND	ND	ND	ND	ND	ND	ND	0
52714	2016-02-02T09:00:00	82.1	ND	ND	ND	ND	ND	ND	ND	ND	ND	ND	0
52715	2016-02-02T10:00:00	78.7	ND	ND	ND	ND	ND	ND	ND	ND	ND	ND	0
52716	2016-02-02T11:00:00	73.7	ND	ND	ND	ND	ND	ND	ND	ND	ND	ND	0
52717	2016-02-02T12:00:00	93.4	ND	ND	ND	ND	ND	ND	ND	ND	ND	ND	0
52718	2016-02-02T13:00:00	91.6	ND	ND	ND	ND	ND	ND	ND	ND	ND	ND	0
52719	2016-02-02T14:00:00	132.3	ND	ND	ND	ND	ND	ND	ND	ND	ND	ND	0
52720	2016-02-02T15:00:00	46.2	ND	ND	ND	ND	ND	ND	ND	ND	ND	ND	0
52721	2016-02-02T16:00:00	21.5	ND	ND	ND	ND	ND	ND	ND	ND	ND	ND	0
52722	2016-02-02T17:00:00	72.6	ND	ND	ND	ND	ND	ND	ND	ND	ND	ND	0
52723	2016-02-02T18:00:00	54.9	ND	ND	ND	ND	ND	ND	ND	ND	ND	ND	0
52724	2016-02-02T19:00:00	35.4	ND	ND	ND	ND	ND	ND	ND	ND	ND	ND	0
52725	2016-02-02T20:00:00	19	ND	ND	ND	ND	ND	ND	ND	ND	ND	ND	0
52726	2016-02-02T21:00:00	19.1	ND	ND	ND	ND	ND	ND	ND	ND	ND	ND	0
52727	2016-02-02T22:00:00	27.4	ND	ND	ND	ND	ND	ND	ND	ND	ND	ND	0
52728	2016-02-02T23:00:00	9.9	ND	ND	ND	ND	ND	ND	ND	ND	ND	ND	0
52729	2016-02-03T00:00:00	2.2	ND	ND	ND	ND	ND	ND	ND	ND	ND	ND	0
52730	2016-02-03T01:00:00	0.3	ND	ND	ND	ND	ND	ND	ND	ND	ND	ND	0
52731	2016-02-03T02:00:00	25.4	ND	ND	ND	ND	ND	ND	ND	ND	ND	ND	0
52732	2016-02-03T03:00:00	53.2	ND	ND	ND	ND	ND	ND	ND	ND	ND	ND	0
52733	2016-02-03T04:00:00	55.1	ND	ND	ND	ND	ND	ND	ND	ND	ND	ND	0
52734	2016-02-03T05:00:00	61.1	ND	ND	ND	ND	ND	ND	ND	ND	ND	ND	0
52735	2016-02-03T06:00:00	69	ND	ND	ND	ND	ND	ND	ND	ND	ND	ND	0
52736	2016-02-03T07:00:00	60.9	ND	ND	ND	ND	ND	ND	ND	ND	ND	ND	0
52737	2016-02-03T08:00:00	76.8	ND	ND	ND	ND	ND	ND	ND	ND	ND	ND	0
52738	2016-02-03T09:00:00	115.7	ND	ND	ND	ND	ND	ND	ND	ND	ND	ND	0
52739	2016-02-03T10:00:00	65.7	ND	ND	ND	ND	ND	ND	ND	ND	ND	ND	0
52740	2016-02-03T11:00:00	77.1	ND	ND	ND	ND	ND	ND	ND	ND	ND	ND	0
52741	2016-02-03T12:00:00	83.8	ND	ND	ND	ND	ND	ND	ND	ND	ND	ND	0
52742	2016-02-03T13:00:00	78.8	ND	ND	ND	ND	ND	ND	ND	ND	ND	ND	0
52743	2016-02-03T14:00:00	81.9	ND	ND	ND	ND	ND	ND	ND	ND	ND	ND	0
52744	2016-02-03T15:00:00	79.7	ND	ND	ND	ND	ND	ND	ND	ND	ND	ND	0
52745	2016-02-03T16:00:00	60	ND	ND	ND	ND	ND	ND	ND	ND	ND	ND	0
52746	2016-02-03T17:00:00	34.4	ND	ND	ND	ND	ND	ND	ND	ND	ND	ND	0
52747	2016-02-03T18:00:00	48.6	ND	ND	ND	ND	ND	ND	ND	ND	ND	ND	0
52748	2016-02-03T19:00:00	39	ND	ND	ND	ND	ND	ND	ND	ND	ND	ND	0
52749	2016-02-03T20:00:00	27.7	ND	ND	ND	ND	ND	ND	ND	ND	ND	ND	0
52750	2016-02-03T21:00:00	21.7	ND	ND	ND	ND	ND	ND	ND	ND	ND	ND	0
52751	2016-02-03T22:00:00	15.6	ND	ND	ND	ND	ND	ND	ND	ND	ND	ND	0
52752	2016-02-03T23:00:00	10.8	ND	ND	ND	ND	ND	ND	ND	ND	ND	ND	0
52753	2016-02-04T00:00:00	13.5	ND	ND	ND	ND	ND	ND	ND	ND	ND	ND	0
52754	2016-02-04T01:00:00	3.3	ND	ND	ND	ND	ND	ND	ND	ND	ND	ND	0
52755	2016-02-04T02:00:00	31.2	ND	ND	ND	ND	ND	ND	ND	ND	ND	ND	0
52756	2016-02-04T03:00:00	43.4	ND	ND	ND	ND	ND	ND	ND	ND	ND	ND	0
52757	2016-02-04T04:00:00	48.5	ND	ND	ND	ND	ND	ND	ND	ND	ND	ND	0
52758	2016-02-04T05:00:00	57.5	ND	ND	ND	ND	ND	ND	ND	ND	ND	ND	0
52759	2016-02-04T06:00:00	73.3	ND	ND	ND	ND	ND	ND	ND	ND	ND	ND	0
52760	2016-02-04T07:00:00	71.3	ND	ND	ND	ND	ND	ND	ND	ND	ND	ND	28.45
52761	2016-02-04T08:00:00	64.1	ND	ND	ND	ND	ND	ND	ND	ND	ND	ND	0.25
52762	2016-02-04T09:00:00	52.1	ND	ND	ND	ND	ND	ND	ND	ND	ND	ND	0
52763	2016-02-04T10:00:00	97.7	ND	ND	ND	ND	ND	ND	ND	ND	ND	ND	0
52764	2016-02-04T11:00:00	105.8	ND	ND	ND	ND	ND	ND	ND	ND	ND	ND	0
52765	2016-02-04T12:00:00	112.9	ND	ND	ND	ND	ND	ND	ND	ND	ND	ND	0
52766	2016-02-04T13:00:00	68.5	ND	ND	ND	ND	ND	ND	ND	ND	ND	ND	0
52767	2016-02-04T14:00:00	55.1	ND	ND	ND	ND	ND	ND	ND	ND	ND	ND	0
52768	2016-02-04T15:00:00	58.2	ND	ND	ND	ND	ND	ND	ND	ND	ND	ND	0
52769	2016-02-04T16:00:00	61.6	ND	ND	ND	ND	ND	ND	ND	ND	ND	ND	0
52770	2016-02-04T17:00:00	40.2	ND	ND	ND	ND	ND	ND	ND	ND	ND	ND	0
52771	2016-02-04T18:00:00	19.9	ND	ND	ND	ND	ND	ND	ND	ND	ND	ND	0
52772	2016-02-04T19:00:00	10.4	ND	ND	ND	ND	ND	ND	ND	ND	ND	ND	0
52773	2016-02-04T20:00:00	15.7	ND	ND	ND	ND	ND	ND	ND	ND	ND	ND	0
52774	2016-02-04T21:00:00	28.3	ND	ND	ND	ND	ND	ND	ND	ND	ND	ND	0
52775	2016-02-04T22:00:00	25.1	ND	ND	ND	ND	ND	ND	ND	ND	ND	ND	0
52776	2016-02-04T23:00:00	30.4	ND	ND	ND	ND	ND	ND	ND	ND	ND	ND	0
52777	2016-02-05T00:00:00	32.6	ND	ND	ND	ND	ND	ND	ND	ND	ND	ND	0
52778	2016-02-05T01:00:00	40.7	ND	ND	ND	ND	ND	ND	ND	ND	ND	ND	0
52779	2016-02-05T02:00:00	32.8	ND	ND	ND	ND	ND	ND	ND	ND	ND	ND	0
52780	2016-02-05T03:00:00	11.7	ND	ND	ND	ND	ND	ND	ND	ND	ND	ND	0
52781	2016-02-05T04:00:00	19.6	ND	ND	ND	ND	ND	ND	ND	ND	ND	ND	0
52782	2016-02-05T05:00:00	10.9	ND	ND	ND	ND	ND	ND	ND	ND	ND	ND	0
52783	2016-02-05T06:00:00	23.8	ND	ND	ND	ND	ND	ND	ND	ND	ND	ND	0
52784	2016-02-05T07:00:00	33.4	ND	ND	ND	ND	ND	ND	ND	ND	ND	ND	0
52785	2016-02-05T08:00:00	69.2	ND	ND	ND	ND	ND	ND	ND	ND	ND	ND	0.25
52786	2016-02-05T09:00:00	27.5	ND	ND	ND	ND	ND	ND	ND	ND	ND	ND	0.25
52787	2016-02-05T10:00:00	66.1	ND	ND	ND	ND	ND	ND	ND	ND	ND	ND	0
52788	2016-02-05T11:00:00	113.9	ND	ND	ND	ND	ND	ND	ND	ND	ND	ND	0
52789	2016-02-05T12:00:00	32.1	ND	ND	ND	ND	ND	ND	ND	ND	ND	ND	0
52790	2016-02-05T13:00:00	34.8	ND	ND	ND	ND	ND	ND	ND	ND	ND	ND	0
52791	2016-02-05T14:00:00	65.4	ND	ND	ND	ND	ND	ND	ND	ND	ND	ND	0
52792	2016-02-05T15:00:00	80.6	ND	ND	ND	ND	ND	ND	ND	ND	ND	ND	0
52793	2016-02-05T16:00:00	37.2	ND	ND	ND	ND	ND	ND	ND	ND	ND	ND	0
52794	2016-02-05T17:00:00	34.4	ND	ND	ND	ND	ND	ND	ND	ND	ND	ND	0
52795	2016-02-05T18:00:00	16.9	ND	ND	ND	ND	ND	ND	ND	ND	ND	ND	0
52796	2016-02-05T19:00:00	9.6	ND	ND	ND	ND	ND	ND	ND	ND	ND	ND	0
52797	2016-02-05T20:00:00	5.4	ND	ND	ND	ND	ND	ND	ND	ND	ND	ND	0
52798	2016-02-05T21:00:00	15	ND	ND	ND	ND	ND	ND	ND	ND	ND	ND	0
52799	2016-02-05T22:00:00	34.1	ND	ND	ND	ND	ND	ND	ND	ND	ND	ND	0
52800	2016-02-05T23:00:00	46.2	ND	ND	ND	ND	ND	ND	ND	ND	ND	ND	0
52801	2016-02-06T00:00:00	49.5	ND	ND	ND	ND	ND	ND	ND	ND	ND	ND	0
52802	2016-02-06T01:00:00	48.5	ND	ND	ND	ND	ND	ND	ND	ND	ND	ND	0
52803	2016-02-06T02:00:00	46.5	ND	ND	ND	ND	ND	ND	ND	ND	ND	ND	0
52804	2016-02-06T03:00:00	51.5	ND	ND	ND	ND	ND	ND	ND	ND	ND	ND	0
52805	2016-02-06T04:00:00	62.6	ND	ND	ND	ND	ND	ND	ND	ND	ND	ND	0
52806	2016-02-06T05:00:00	91.7	ND	ND	ND	ND	ND	ND	ND	ND	ND	ND	0
52807	2016-02-06T06:00:00	110.2	ND	ND	ND	ND	ND	ND	ND	ND	ND	ND	0
52808	2016-02-06T07:00:00	105	ND	ND	ND	ND	ND	ND	ND	ND	ND	ND	0
52809	2016-02-06T08:00:00	93.8	ND	ND	ND	ND	ND	ND	ND	ND	ND	ND	0
52810	2016-02-06T09:00:00	103.9	ND	ND	ND	ND	ND	ND	ND	ND	ND	ND	0
52811	2016-02-06T10:00:00	78.4	ND	ND	ND	ND	ND	ND	ND	ND	ND	ND	0
52812	2016-02-06T11:00:00	25.7	ND	ND	ND	ND	ND	ND	ND	ND	ND	ND	0
52813	2016-02-06T12:00:00	33.5	ND	ND	ND	ND	ND	ND	ND	ND	ND	ND	0
52814	2016-02-06T13:00:00	65.4	ND	ND	ND	ND	ND	ND	ND	ND	ND	ND	0
52815	2016-02-06T14:00:00	79.5	ND	ND	ND	ND	ND	ND	ND	ND	ND	ND	0
52816	2016-02-06T15:00:00	81	ND	ND	ND	ND	ND	ND	ND	ND	ND	ND	0
52817	2016-02-06T16:00:00	64	ND	ND	ND	ND	ND	ND	ND	ND	ND	ND	0
52818	2016-02-06T17:00:00	84.7	ND	ND	ND	ND	ND	ND	ND	ND	ND	ND	0
52819	2016-02-06T18:00:00	118.9	ND	ND	ND	ND	ND	ND	ND	ND	ND	ND	0
52820	2016-02-06T19:00:00	39.8	ND	ND	ND	ND	ND	ND	ND	ND	ND	ND	0
52821	2016-02-06T20:00:00	9.3	ND	ND	ND	ND	ND	ND	ND	ND	ND	ND	0
52822	2016-02-06T21:00:00	43.3	ND	ND	ND	ND	ND	ND	ND	ND	ND	ND	0
52823	2016-02-06T22:00:00	32.2	ND	ND	ND	ND	ND	ND	ND	ND	ND	ND	0
52824	2016-02-06T23:00:00	28.3	ND	ND	ND	ND	ND	ND	ND	ND	ND	ND	0
52825	2016-02-07T00:00:00	7.9	ND	ND	ND	ND	ND	ND	ND	ND	ND	ND	0
52826	2016-02-07T01:00:00	23.5	ND	ND	ND	ND	ND	ND	ND	ND	ND	ND	0
52827	2016-02-07T02:00:00	41.7	ND	ND	ND	ND	ND	ND	ND	ND	ND	ND	0
52828	2016-02-07T03:00:00	48.2	ND	ND	ND	ND	ND	ND	ND	ND	ND	ND	0
52829	2016-02-07T04:00:00	61.5	ND	ND	ND	ND	ND	ND	ND	ND	ND	ND	0
52830	2016-02-07T05:00:00	60.7	ND	ND	ND	ND	ND	ND	ND	ND	ND	ND	0
52831	2016-02-07T06:00:00	59.9	ND	ND	ND	ND	ND	ND	ND	ND	ND	ND	0
52832	2016-02-07T07:00:00	74.1	ND	ND	ND	ND	ND	ND	ND	ND	ND	ND	0
52833	2016-02-07T08:00:00	86.9	ND	ND	ND	ND	ND	ND	ND	ND	ND	ND	0
52834	2016-02-07T09:00:00	82.4	ND	ND	ND	ND	ND	ND	ND	ND	ND	ND	0
52835	2016-02-07T10:00:00	59.8	ND	ND	ND	ND	ND	ND	ND	ND	ND	ND	0
52836	2016-02-07T11:00:00	60.9	ND	ND	ND	ND	ND	ND	ND	ND	ND	ND	0
52837	2016-02-07T12:00:00	24.4	ND	ND	ND	ND	ND	ND	ND	ND	ND	ND	0
52838	2016-02-07T13:00:00	41.1	ND	ND	ND	ND	ND	ND	ND	ND	ND	ND	0
52839	2016-02-07T14:00:00	45	ND	ND	ND	ND	ND	ND	ND	ND	ND	ND	0
52840	2016-02-07T15:00:00	39.1	ND	ND	ND	ND	ND	ND	ND	ND	ND	ND	0
52841	2016-02-07T16:00:00	48.1	ND	ND	ND	ND	ND	ND	ND	ND	ND	ND	0
52842	2016-02-07T17:00:00	64.5	ND	ND	ND	ND	ND	ND	ND	ND	ND	ND	0
52843	2016-02-07T18:00:00	68.1	ND	ND	ND	ND	ND	ND	ND	ND	ND	ND	0
52844	2016-02-07T19:00:00	23.2	ND	ND	ND	ND	ND	ND	ND	ND	ND	ND	0
52845	2016-02-07T20:00:00	10.8	ND	ND	ND	ND	ND	ND	ND	ND	ND	ND	0
52846	2016-02-07T21:00:00	15	ND	ND	ND	ND	ND	ND	ND	ND	ND	ND	0
52847	2016-02-07T22:00:00	14.4	ND	ND	ND	ND	ND	ND	ND	ND	ND	ND	0
52848	2016-02-07T23:00:00	17.4	ND	ND	ND	ND	ND	ND	ND	ND	ND	ND	0
52849	2016-02-08T00:00:00	13.8	ND	ND	ND	ND	ND	ND	ND	ND	ND	ND	0
52850	2016-02-08T01:00:00	20.2	ND	ND	ND	ND	ND	ND	ND	ND	ND	ND	0
52851	2016-02-08T02:00:00	38	ND	ND	ND	ND	ND	ND	ND	ND	ND	ND	0
52852	2016-02-08T03:00:00	37.8	ND	ND	ND	ND	ND	ND	ND	ND	ND	ND	0
52853	2016-02-08T04:00:00	37.7	ND	ND	ND	ND	ND	ND	ND	ND	ND	ND	0
52854	2016-02-08T05:00:00	29.8	ND	ND	ND	ND	ND	ND	ND	ND	ND	ND	0
52855	2016-02-08T06:00:00	47.8	ND	ND	ND	ND	ND	ND	ND	ND	ND	ND	0
52856	2016-02-08T07:00:00	79.7	ND	ND	ND	ND	ND	ND	ND	ND	ND	ND	0
52857	2016-02-08T08:00:00	91.9	ND	ND	ND	ND	ND	ND	ND	ND	ND	ND	0
52858	2016-02-08T09:00:00	107.5	ND	ND	ND	ND	ND	ND	ND	ND	ND	ND	0
52859	2016-02-08T10:00:00	97	ND	ND	ND	ND	ND	ND	ND	ND	ND	ND	0
52860	2016-02-08T11:00:00	76.4	ND	ND	ND	ND	ND	ND	ND	ND	ND	ND	0
52861	2016-02-08T12:00:00	77.7	ND	ND	ND	ND	ND	ND	ND	ND	ND	ND	0
52862	2016-02-08T13:00:00	64.7	ND	ND	ND	ND	ND	ND	ND	ND	ND	ND	0
52863	2016-02-08T14:00:00	40.5	ND	ND	ND	ND	ND	ND	ND	ND	ND	ND	0
52864	2016-02-08T15:00:00	58.2	ND	ND	ND	ND	ND	ND	ND	ND	ND	ND	0
52865	2016-02-08T16:00:00	90.8	ND	ND	ND	ND	ND	ND	ND	ND	ND	ND	0
52866	2016-02-08T17:00:00	75.1	ND	ND	ND	ND	ND	ND	ND	ND	ND	ND	0
52867	2016-02-08T18:00:00	74.2	ND	ND	ND	ND	ND	ND	ND	ND	ND	ND	0
52868	2016-02-08T19:00:00	66.4	ND	ND	ND	ND	ND	ND	ND	ND	ND	ND	0
52869	2016-02-08T20:00:00	34.9	ND	ND	ND	ND	ND	ND	ND	ND	ND	ND	0
52870	2016-02-08T21:00:00	15.6	ND	ND	ND	ND	ND	ND	ND	ND	ND	ND	0
52871	2016-02-08T22:00:00	51.9	ND	ND	ND	ND	ND	ND	ND	ND	ND	ND	0
52872	2016-02-08T23:00:00	104.7	ND	ND	ND	ND	ND	ND	ND	ND	ND	ND	0
52873	2016-02-09T00:00:00	74.2	ND	ND	ND	ND	ND	ND	ND	ND	ND	ND	0
52874	2016-02-09T01:00:00	40.2	ND	ND	ND	ND	ND	ND	ND	ND	ND	ND	0
52875	2016-02-09T02:00:00	40.7	ND	ND	ND	ND	ND	ND	ND	ND	ND	ND	0
52876	2016-02-09T03:00:00	44.4	ND	ND	ND	ND	ND	ND	ND	ND	ND	ND	0
52877	2016-02-09T04:00:00	36.2	ND	ND	ND	ND	ND	ND	ND	ND	ND	ND	0
52878	2016-02-09T05:00:00	42.3	ND	ND	ND	ND	ND	ND	ND	ND	ND	ND	0
52879	2016-02-09T06:00:00	56.8	ND	ND	ND	ND	ND	ND	ND	ND	ND	ND	0
52880	2016-02-09T07:00:00	77.9	ND	ND	ND	ND	ND	ND	ND	ND	ND	ND	0
52881	2016-02-09T08:00:00	102.3	ND	ND	ND	ND	ND	ND	ND	ND	ND	ND	0
52882	2016-02-09T09:00:00	110.1	ND	ND	ND	ND	ND	ND	ND	ND	ND	ND	0
52883	2016-02-09T10:00:00	79.4	ND	ND	ND	ND	ND	ND	ND	ND	ND	ND	0
52884	2016-02-09T11:00:00	72.9	ND	ND	ND	ND	ND	ND	ND	ND	ND	ND	0
52885	2016-02-09T12:00:00	72.7	ND	ND	ND	ND	ND	ND	ND	ND	ND	ND	0
52886	2016-02-09T13:00:00	70	ND	ND	ND	ND	ND	ND	ND	ND	ND	ND	0
52887	2016-02-09T14:00:00	82.9	ND	ND	ND	ND	ND	ND	ND	ND	ND	ND	0
52888	2016-02-09T15:00:00	82.9	ND	ND	ND	ND	ND	ND	ND	ND	ND	ND	0
52889	2016-02-09T16:00:00	72.6	ND	ND	ND	ND	ND	ND	ND	ND	ND	ND	0
52890	2016-02-09T17:00:00	41.1	ND	ND	ND	ND	ND	ND	ND	ND	ND	ND	0
52891	2016-02-09T18:00:00	45.8	ND	ND	ND	ND	ND	ND	ND	ND	ND	ND	0
52892	2016-02-09T19:00:00	48.6	ND	ND	ND	ND	ND	ND	ND	ND	ND	ND	0
52893	2016-02-09T20:00:00	12.7	ND	ND	ND	ND	ND	ND	ND	ND	ND	ND	0
52894	2016-02-09T21:00:00	11.9	ND	ND	ND	ND	ND	ND	ND	ND	ND	ND	0
52895	2016-02-09T22:00:00	37.3	ND	ND	ND	ND	ND	ND	ND	ND	ND	ND	0
52896	2016-02-09T23:00:00	59.3	ND	ND	ND	ND	ND	ND	ND	ND	ND	ND	0
52897	2016-02-10T00:00:00	58.9	ND	ND	ND	ND	ND	ND	ND	ND	ND	ND	0
52898	2016-02-10T01:00:00	63	ND	ND	ND	ND	ND	ND	ND	ND	ND	ND	0
52899	2016-02-10T02:00:00	63.5	ND	ND	ND	ND	ND	ND	ND	ND	ND	ND	0
52900	2016-02-10T03:00:00	75.7	ND	ND	ND	ND	ND	ND	ND	ND	ND	ND	0
52901	2016-02-10T04:00:00	40.3	ND	ND	ND	ND	ND	ND	ND	ND	ND	ND	0
52902	2016-02-10T05:00:00	181.5	ND	ND	ND	ND	ND	ND	ND	ND	ND	ND	0
52903	2016-02-10T06:00:00	76.2	ND	ND	ND	ND	ND	ND	ND	ND	ND	ND	0
52904	2016-02-10T07:00:00	78.6	ND	ND	ND	ND	ND	ND	ND	ND	ND	ND	0
52905	2016-02-10T08:00:00	78.3	ND	ND	ND	ND	ND	ND	ND	ND	ND	ND	0
52906	2016-02-10T09:00:00	71.5	ND	ND	ND	ND	ND	ND	ND	ND	ND	ND	0
52907	2016-02-10T10:00:00	61.1	ND	ND	ND	ND	ND	ND	ND	ND	ND	ND	0
52908	2016-02-10T11:00:00	63.2	ND	ND	ND	ND	ND	ND	ND	ND	ND	ND	0
52909	2016-02-10T12:00:00	71.6	ND	ND	ND	ND	ND	ND	ND	ND	ND	ND	0
52910	2016-02-10T13:00:00	56.9	ND	ND	ND	ND	ND	ND	ND	ND	ND	ND	0
52911	2016-02-10T14:00:00	82.7	ND	ND	ND	ND	ND	ND	ND	ND	ND	ND	0
52912	2016-02-10T15:00:00	92.8	ND	ND	ND	ND	ND	ND	ND	ND	ND	ND	0
52913	2016-02-10T16:00:00	77.7	ND	ND	ND	ND	ND	ND	ND	ND	ND	ND	0
52914	2016-02-10T17:00:00	50	ND	ND	ND	ND	ND	ND	ND	ND	ND	ND	0
52915	2016-02-10T18:00:00	75.3	ND	ND	ND	ND	ND	ND	ND	ND	ND	ND	0
52916	2016-02-10T19:00:00	73.5	ND	ND	ND	ND	ND	ND	ND	ND	ND	ND	0
52917	2016-02-10T20:00:00	32.6	ND	ND	ND	ND	ND	ND	ND	ND	ND	ND	0
52918	2016-02-10T21:00:00	25	ND	ND	ND	ND	ND	ND	ND	ND	ND	ND	0
52919	2016-02-10T22:00:00	19.8	ND	ND	ND	ND	ND	ND	ND	ND	ND	ND	0
52920	2016-02-10T23:00:00	11.7	ND	ND	ND	ND	ND	ND	ND	ND	ND	ND	0
52921	2016-02-11T00:00:00	13.3	ND	ND	ND	ND	ND	ND	ND	ND	ND	ND	0
52922	2016-02-11T01:00:00	20.5	ND	ND	ND	ND	ND	ND	ND	ND	ND	ND	0
52923	2016-02-11T02:00:00	27.9	ND	ND	ND	ND	ND	ND	ND	ND	ND	ND	0
52924	2016-02-11T03:00:00	41.1	ND	ND	ND	ND	ND	ND	ND	ND	ND	ND	0
52925	2016-02-11T04:00:00	57	ND	ND	ND	ND	ND	ND	ND	ND	ND	ND	0.51
52926	2016-02-11T05:00:00	64	ND	ND	ND	ND	ND	ND	ND	ND	ND	ND	0
52927	2016-02-11T06:00:00	26.5	ND	ND	ND	ND	ND	ND	ND	ND	ND	ND	0.25
52928	2016-02-11T07:00:00	73.3	ND	ND	ND	ND	ND	ND	ND	ND	ND	ND	0
52929	2016-02-11T08:00:00	96.9	ND	ND	ND	ND	ND	ND	ND	ND	ND	ND	0
52930	2016-02-11T09:00:00	95.5	ND	ND	ND	ND	ND	ND	ND	ND	ND	ND	0
52931	2016-02-11T10:00:00	86.9	ND	ND	ND	ND	ND	ND	ND	ND	ND	ND	0
52932	2016-02-11T11:00:00	39.8	ND	ND	ND	ND	ND	ND	ND	ND	ND	ND	0
52933	2016-02-11T12:00:00	42.9	ND	ND	ND	ND	ND	ND	ND	ND	ND	ND	0
52934	2016-02-11T13:00:00	53.3	ND	ND	ND	ND	ND	ND	ND	ND	ND	ND	0
52935	2016-02-11T14:00:00	68.9	ND	ND	ND	ND	ND	ND	ND	ND	ND	ND	0
52936	2016-02-11T15:00:00	62.6	ND	ND	ND	ND	ND	ND	ND	ND	ND	ND	0
52937	2016-02-11T16:00:00	33.2	ND	ND	ND	ND	ND	ND	ND	ND	ND	ND	0
52938	2016-02-11T17:00:00	59.6	ND	ND	ND	ND	ND	ND	ND	ND	ND	ND	0
52939	2016-02-11T18:00:00	20.5	ND	ND	ND	ND	ND	ND	ND	ND	ND	ND	0
52940	2016-02-11T19:00:00	20.6	ND	ND	ND	ND	ND	ND	ND	ND	ND	ND	0
52941	2016-02-11T20:00:00	1.5	ND	ND	ND	ND	ND	ND	ND	ND	ND	ND	0
52942	2016-02-11T21:00:00	ND	ND	ND	ND	ND	ND	ND	ND	ND	ND	ND	0
52943	2016-02-11T22:00:00	17.5	ND	ND	ND	ND	ND	ND	ND	ND	ND	ND	0
52944	2016-02-11T23:00:00	28.7	ND	ND	ND	ND	ND	ND	ND	ND	ND	ND	0
52945	2016-02-12T00:00:00	8.5	ND	ND	ND	ND	ND	ND	ND	ND	ND	ND	0
52946	2016-02-12T01:00:00	22.4	ND	ND	ND	ND	ND	ND	ND	ND	ND	ND	0
52947	2016-02-12T02:00:00	43.4	ND	ND	ND	ND	ND	ND	ND	ND	ND	ND	0
52948	2016-02-12T03:00:00	22.8	ND	ND	ND	ND	ND	ND	ND	ND	ND	ND	0
52949	2016-02-12T04:00:00	60.8	ND	ND	ND	ND	ND	ND	ND	ND	ND	ND	0
52950	2016-02-12T05:00:00	41	ND	ND	ND	ND	ND	ND	ND	ND	ND	ND	0
52951	2016-02-12T06:00:00	47.6	ND	ND	ND	ND	ND	ND	ND	ND	ND	ND	0
52952	2016-02-12T07:00:00	71.2	ND	ND	ND	ND	ND	ND	ND	ND	ND	ND	0
52953	2016-02-12T08:00:00	79.8	ND	ND	ND	ND	ND	ND	ND	ND	ND	ND	0
52954	2016-02-12T09:00:00	88	ND	ND	ND	ND	ND	ND	ND	ND	ND	ND	0
52955	2016-02-12T10:00:00	25.1	ND	ND	ND	ND	ND	ND	ND	ND	ND	ND	0
52956	2016-02-12T11:00:00	36.1	ND	ND	ND	ND	ND	ND	ND	ND	ND	ND	0
52957	2016-02-12T12:00:00	70.1	ND	ND	ND	ND	ND	ND	ND	ND	ND	ND	0
52958	2016-02-12T13:00:00	73.4	ND	ND	ND	ND	ND	ND	ND	ND	ND	ND	0
52959	2016-02-12T14:00:00	88.5	ND	ND	ND	ND	ND	ND	ND	ND	ND	ND	0
52960	2016-02-12T15:00:00	49.7	ND	ND	ND	ND	ND	ND	ND	ND	ND	ND	0
52961	2016-02-12T16:00:00	54.5	ND	ND	ND	ND	ND	ND	ND	ND	ND	ND	0
52962	2016-02-12T17:00:00	81.1	ND	ND	ND	ND	ND	ND	ND	ND	ND	ND	0
52963	2016-02-12T18:00:00	32.2	ND	ND	ND	ND	ND	ND	ND	ND	ND	ND	0
52964	2016-02-12T19:00:00	45.9	ND	ND	ND	ND	ND	ND	ND	ND	ND	ND	0
52965	2016-02-12T20:00:00	51.2	ND	ND	ND	ND	ND	ND	ND	ND	ND	ND	0
52966	2016-02-12T21:00:00	27.3	ND	ND	ND	ND	ND	ND	ND	ND	ND	ND	0
52967	2016-02-12T22:00:00	44.9	ND	ND	ND	ND	ND	ND	ND	ND	ND	ND	0
52968	2016-02-12T23:00:00	83.5	ND	ND	ND	ND	ND	ND	ND	ND	ND	ND	0
52969	2016-02-13T00:00:00	86.1	ND	ND	ND	ND	ND	ND	ND	ND	ND	ND	0
52970	2016-02-13T01:00:00	76.2	ND	ND	ND	ND	ND	ND	ND	ND	ND	ND	0
52971	2016-02-13T02:00:00	49.5	ND	ND	ND	ND	ND	ND	ND	ND	ND	ND	0
52972	2016-02-13T03:00:00	75.7	ND	ND	ND	ND	ND	ND	ND	ND	ND	ND	0
52973	2016-02-13T04:00:00	80.8	ND	ND	ND	ND	ND	ND	ND	ND	ND	ND	0
52974	2016-02-13T05:00:00	57.8	ND	ND	ND	ND	ND	ND	ND	ND	ND	ND	0
52975	2016-02-13T06:00:00	69.8	ND	ND	ND	ND	ND	ND	ND	ND	ND	ND	0
52976	2016-02-13T07:00:00	61.2	ND	ND	ND	ND	ND	ND	ND	ND	ND	ND	0
52977	2016-02-13T08:00:00	96	ND	ND	ND	ND	ND	ND	ND	ND	ND	ND	0
52978	2016-02-13T09:00:00	88.9	ND	ND	ND	ND	ND	ND	ND	ND	ND	ND	0
52979	2016-02-13T10:00:00	101.1	ND	ND	ND	ND	ND	ND	ND	ND	ND	ND	0
52980	2016-02-13T11:00:00	85.7	ND	ND	ND	ND	ND	ND	ND	ND	ND	ND	0
52981	2016-02-13T12:00:00	59.5	ND	ND	ND	ND	ND	ND	ND	ND	ND	ND	0
52982	2016-02-13T13:00:00	67.3	ND	ND	ND	ND	ND	ND	ND	ND	ND	ND	0
52983	2016-02-13T14:00:00	63.2	ND	ND	ND	ND	ND	ND	ND	ND	ND	ND	0
52984	2016-02-13T15:00:00	46.2	ND	ND	ND	ND	ND	ND	ND	ND	ND	ND	0
52985	2016-02-13T16:00:00	36.4	ND	ND	ND	ND	ND	ND	ND	ND	ND	ND	0
52986	2016-02-13T17:00:00	30.9	ND	ND	ND	ND	ND	ND	ND	ND	ND	ND	0
52987	2016-02-13T18:00:00	44.2	ND	ND	ND	ND	ND	ND	ND	ND	ND	ND	0
52988	2016-02-13T19:00:00	29	ND	ND	ND	ND	ND	ND	ND	ND	ND	ND	0
52989	2016-02-13T20:00:00	12.7	ND	ND	ND	ND	ND	ND	ND	ND	ND	ND	0
52990	2016-02-13T21:00:00	8.8	ND	ND	ND	ND	ND	ND	ND	ND	ND	ND	0
52991	2016-02-13T22:00:00	8.9	ND	ND	ND	ND	ND	ND	ND	ND	ND	ND	0
52992	2016-02-13T23:00:00	6.5	ND	ND	ND	ND	ND	ND	ND	ND	ND	ND	0
52993	2016-02-14T00:00:00	16.2	ND	ND	ND	ND	ND	ND	ND	ND	ND	ND	0
52994	2016-02-14T01:00:00	32.8	ND	ND	ND	ND	ND	ND	ND	ND	ND	ND	0
52995	2016-02-14T02:00:00	46.6	ND	ND	ND	ND	ND	ND	ND	ND	ND	ND	0
52996	2016-02-14T03:00:00	47.8	ND	ND	ND	ND	ND	ND	ND	ND	ND	ND	0.51
52997	2016-02-14T04:00:00	34.6	ND	ND	ND	ND	ND	ND	ND	ND	ND	ND	2.79
52998	2016-02-14T05:00:00	29.2	ND	ND	ND	ND	ND	ND	ND	ND	ND	ND	0.25
52999	2016-02-14T06:00:00	47.8	ND	ND	ND	ND	ND	ND	ND	ND	ND	ND	0
53000	2016-02-14T07:00:00	60.7	ND	ND	ND	ND	ND	ND	ND	ND	ND	ND	0
53001	2016-02-14T08:00:00	62.3	ND	ND	ND	ND	ND	ND	ND	ND	ND	ND	0
53002	2016-02-14T09:00:00	31.1	ND	ND	ND	ND	ND	ND	ND	ND	ND	ND	0
53003	2016-02-14T10:00:00	36.2	ND	ND	ND	ND	ND	ND	ND	ND	ND	ND	0
53004	2016-02-14T11:00:00	47.5	ND	ND	ND	ND	ND	ND	ND	ND	ND	ND	0
53005	2016-02-14T12:00:00	48.2	ND	ND	ND	ND	ND	ND	ND	ND	ND	ND	0
53006	2016-02-14T13:00:00	58.9	ND	ND	ND	ND	ND	ND	ND	ND	ND	ND	0
53007	2016-02-14T14:00:00	46.9	ND	ND	ND	ND	ND	ND	ND	ND	ND	ND	0
53008	2016-02-14T15:00:00	53.3	ND	ND	ND	ND	ND	ND	ND	ND	ND	ND	0
53009	2016-02-14T16:00:00	49.8	ND	ND	ND	ND	ND	ND	ND	ND	ND	ND	0
53010	2016-02-14T17:00:00	31.7	ND	ND	ND	ND	ND	ND	ND	ND	ND	ND	0
53011	2016-02-14T18:00:00	63.8	ND	ND	ND	ND	ND	ND	ND	ND	ND	ND	0
53012	2016-02-14T19:00:00	34	ND	ND	ND	ND	ND	ND	ND	ND	ND	ND	0
53013	2016-02-14T20:00:00	11.1	ND	ND	ND	ND	ND	ND	ND	ND	ND	ND	0
53014	2016-02-14T21:00:00	6.5	ND	ND	ND	ND	ND	ND	ND	ND	ND	ND	0
53015	2016-02-14T22:00:00	12.2	ND	ND	ND	ND	ND	ND	ND	ND	ND	ND	0
53016	2016-02-14T23:00:00	10.3	ND	ND	ND	ND	ND	ND	ND	ND	ND	ND	0
53017	2016-02-15T00:00:00	12.9	ND	ND	ND	ND	ND	ND	ND	ND	ND	ND	0
53018	2016-02-15T01:00:00	31.4	ND	ND	ND	ND	ND	ND	ND	ND	ND	ND	0
53019	2016-02-15T02:00:00	43.4	ND	ND	ND	ND	ND	ND	ND	ND	ND	ND	0
53020	2016-02-15T03:00:00	47	ND	ND	ND	ND	ND	ND	ND	ND	ND	ND	0
53021	2016-02-15T04:00:00	53	ND	ND	ND	ND	ND	ND	ND	ND	ND	ND	0
53022	2016-02-15T05:00:00	40.7	ND	ND	ND	ND	ND	ND	ND	ND	ND	ND	0
53023	2016-02-15T06:00:00	35.2	ND	ND	ND	ND	ND	ND	ND	ND	ND	ND	0
53024	2016-02-15T07:00:00	68.7	ND	ND	ND	ND	ND	ND	ND	ND	ND	ND	0
53025	2016-02-15T08:00:00	128.1	ND	ND	ND	ND	ND	ND	ND	ND	ND	ND	0
53026	2016-02-15T09:00:00	140.7	ND	ND	ND	ND	ND	ND	ND	ND	ND	ND	0
53027	2016-02-15T10:00:00	124.6	ND	ND	ND	ND	ND	ND	ND	ND	ND	ND	0
53028	2016-02-15T11:00:00	85.2	ND	ND	ND	ND	ND	ND	ND	ND	ND	ND	0
53029	2016-02-15T12:00:00	59.1	ND	ND	ND	ND	ND	ND	ND	ND	ND	ND	0
53030	2016-02-15T13:00:00	66.9	ND	ND	ND	ND	ND	ND	ND	ND	ND	ND	0
53031	2016-02-15T14:00:00	62.3	ND	ND	ND	ND	ND	ND	ND	ND	ND	ND	0
53032	2016-02-15T15:00:00	76.5	ND	ND	ND	ND	ND	ND	ND	ND	ND	ND	0
53033	2016-02-15T16:00:00	62.2	ND	ND	ND	ND	ND	ND	ND	ND	ND	ND	0
53034	2016-02-15T17:00:00	56.8	ND	ND	ND	ND	ND	ND	ND	ND	ND	ND	0
53035	2016-02-15T18:00:00	51.5	ND	ND	ND	ND	ND	ND	ND	ND	ND	ND	0
53036	2016-02-15T19:00:00	12.3	ND	ND	ND	ND	ND	ND	ND	ND	ND	ND	0
53037	2016-02-15T20:00:00	ND	ND	ND	ND	ND	ND	ND	ND	ND	ND	ND	0
53038	2016-02-15T21:00:00	20.1	ND	ND	ND	ND	ND	ND	ND	ND	ND	ND	0
53039	2016-02-15T22:00:00	18.2	ND	ND	ND	ND	ND	ND	ND	ND	ND	ND	0
53040	2016-02-15T23:00:00	37.5	ND	ND	ND	ND	ND	ND	ND	ND	ND	ND	0
53041	2016-02-16T00:00:00	82.1	ND	ND	ND	ND	ND	ND	ND	ND	ND	ND	0
53042	2016-02-16T01:00:00	51.2	ND	ND	ND	ND	ND	ND	ND	ND	ND	ND	0
53043	2016-02-16T02:00:00	66.9	ND	ND	ND	ND	ND	ND	ND	ND	ND	ND	0
53044	2016-02-16T03:00:00	ND	ND	ND	ND	ND	ND	ND	ND	ND	ND	ND	0
53045	2016-02-16T04:00:00	3.1	ND	ND	ND	ND	ND	ND	ND	ND	ND	ND	0
53046	2016-02-16T05:00:00	138.1	ND	ND	ND	ND	ND	ND	ND	ND	ND	ND	0
53047	2016-02-16T06:00:00	145.6	ND	ND	ND	ND	ND	ND	ND	ND	ND	ND	0
53048	2016-02-16T07:00:00	93.4	ND	ND	ND	ND	ND	ND	ND	ND	ND	ND	0
53049	2016-02-16T08:00:00	161.1	ND	ND	ND	ND	ND	ND	ND	ND	ND	ND	0
53050	2016-02-16T09:00:00	122	ND	ND	ND	ND	ND	ND	ND	ND	ND	ND	0
53051	2016-02-16T10:00:00	142	ND	ND	ND	ND	ND	ND	ND	ND	ND	ND	0
53052	2016-02-16T11:00:00	66	ND	ND	ND	ND	ND	ND	ND	ND	ND	ND	0
53053	2016-02-16T12:00:00	29.1	ND	ND	ND	ND	ND	ND	ND	ND	ND	ND	0
53054	2016-02-16T13:00:00	104.3	ND	ND	ND	ND	ND	ND	ND	ND	ND	ND	0
53055	2016-02-16T14:00:00	129.7	ND	ND	ND	ND	ND	ND	ND	ND	ND	ND	0
53056	2016-02-16T15:00:00	95.8	ND	ND	ND	ND	ND	ND	ND	ND	ND	ND	0
53057	2016-02-16T16:00:00	97.7	ND	ND	ND	ND	ND	ND	ND	ND	ND	ND	0
53058	2016-02-16T17:00:00	111.6	ND	ND	ND	ND	ND	ND	ND	ND	ND	ND	0
53059	2016-02-16T18:00:00	115.6	ND	ND	ND	ND	ND	ND	ND	ND	ND	ND	0
53060	2016-02-16T19:00:00	76.3	ND	ND	ND	ND	ND	ND	ND	ND	ND	ND	0
53061	2016-02-16T20:00:00	22.3	ND	ND	ND	ND	ND	ND	ND	ND	ND	ND	0
53062	2016-02-16T21:00:00	13.6	ND	ND	ND	ND	ND	ND	ND	ND	ND	ND	0
53063	2016-02-16T22:00:00	2	ND	ND	ND	ND	ND	ND	ND	ND	ND	ND	0
53064	2016-02-16T23:00:00	30.2	ND	ND	ND	ND	ND	ND	ND	ND	ND	ND	0
53065	2016-02-17T00:00:00	48.5	ND	ND	ND	ND	ND	ND	ND	ND	ND	ND	0
53066	2016-02-17T01:00:00	88.3	ND	ND	ND	ND	ND	ND	ND	ND	ND	ND	0
53067	2016-02-17T02:00:00	69.5	ND	ND	ND	ND	ND	ND	ND	ND	ND	ND	0
53068	2016-02-17T03:00:00	67.8	ND	ND	ND	ND	ND	ND	ND	ND	ND	ND	0
53069	2016-02-17T04:00:00	52	ND	ND	ND	ND	ND	ND	ND	ND	ND	ND	0
53070	2016-02-17T05:00:00	43.5	ND	ND	ND	ND	ND	ND	ND	ND	ND	ND	0
53071	2016-02-17T06:00:00	67	ND	ND	ND	ND	ND	ND	ND	ND	ND	ND	0
53072	2016-02-17T07:00:00	76.7	ND	ND	ND	ND	ND	ND	ND	ND	ND	ND	0
53073	2016-02-17T08:00:00	59	ND	ND	ND	ND	ND	ND	ND	ND	ND	ND	0
53074	2016-02-17T09:00:00	166.4	ND	ND	ND	ND	ND	ND	ND	ND	ND	ND	0
53075	2016-02-17T10:00:00	ND	ND	ND	ND	ND	ND	ND	ND	ND	ND	ND	ND
53076	2016-02-17T11:00:00	99.1	ND	ND	ND	ND	ND	ND	ND	ND	ND	ND	0
53077	2016-02-17T12:00:00	45.3	ND	ND	ND	ND	ND	ND	ND	ND	ND	ND	0
53078	2016-02-17T13:00:00	72	ND	ND	ND	ND	ND	ND	ND	ND	ND	ND	0
53079	2016-02-17T14:00:00	74.5	ND	ND	ND	ND	ND	ND	ND	ND	ND	ND	0
53080	2016-02-17T15:00:00	70.7	ND	ND	ND	ND	ND	ND	ND	ND	ND	ND	0
53081	2016-02-17T16:00:00	32.9	ND	ND	ND	ND	ND	ND	ND	ND	ND	ND	0
53082	2016-02-17T17:00:00	28.7	ND	ND	ND	ND	ND	ND	ND	ND	ND	ND	0
53083	2016-02-17T18:00:00	35.7	ND	ND	ND	ND	ND	ND	ND	ND	ND	ND	0
53084	2016-02-17T19:00:00	11.6	ND	ND	ND	ND	ND	ND	ND	ND	ND	ND	0
53085	2016-02-17T20:00:00	3.7	ND	ND	ND	ND	ND	ND	ND	ND	ND	ND	0
53086	2016-02-17T21:00:00	48.1	ND	ND	ND	ND	ND	ND	ND	ND	ND	ND	0
53087	2016-02-17T22:00:00	60	ND	ND	ND	ND	ND	ND	ND	ND	ND	ND	0
53088	2016-02-17T23:00:00	43	ND	ND	ND	ND	ND	ND	ND	ND	ND	ND	0
53089	2016-02-18T00:00:00	13.8	ND	ND	ND	ND	ND	ND	ND	ND	ND	ND	0
53090	2016-02-18T01:00:00	ND	ND	ND	ND	ND	ND	ND	ND	ND	ND	ND	0
53091	2016-02-18T02:00:00	31.7	ND	ND	ND	ND	ND	ND	ND	ND	ND	ND	0
53092	2016-02-18T03:00:00	66.4	ND	ND	ND	ND	ND	ND	ND	ND	ND	ND	0
53093	2016-02-18T04:00:00	53.7	ND	ND	ND	ND	ND	ND	ND	ND	ND	ND	0
53094	2016-02-18T05:00:00	51.4	ND	ND	ND	ND	ND	ND	ND	ND	ND	ND	0
53095	2016-02-18T06:00:00	60.9	ND	ND	ND	ND	ND	ND	ND	ND	ND	ND	0
53096	2016-02-18T07:00:00	76.5	ND	ND	ND	ND	ND	ND	ND	ND	ND	ND	0
53097	2016-02-18T08:00:00	79	ND	ND	ND	ND	ND	ND	ND	ND	ND	ND	0
53098	2016-02-18T09:00:00	88	ND	ND	ND	ND	ND	ND	ND	ND	ND	ND	0
53099	2016-02-18T10:00:00	108.1	ND	ND	ND	ND	ND	ND	ND	ND	ND	ND	0
53100	2016-02-18T11:00:00	65	ND	ND	ND	ND	ND	ND	ND	ND	ND	ND	0
53101	2016-02-18T12:00:00	49.1	ND	ND	ND	ND	ND	ND	ND	ND	ND	ND	0
53102	2016-02-18T13:00:00	63.6	ND	ND	ND	ND	ND	ND	ND	ND	ND	ND	0
53103	2016-02-18T14:00:00	85.8	ND	ND	ND	ND	ND	ND	ND	ND	ND	ND	0
53104	2016-02-18T15:00:00	38.2	ND	ND	ND	ND	ND	ND	ND	ND	ND	ND	0
53105	2016-02-18T16:00:00	95.6	ND	ND	ND	ND	ND	ND	ND	ND	ND	ND	0
53106	2016-02-18T17:00:00	86.7	ND	ND	ND	ND	ND	ND	ND	ND	ND	ND	0
53107	2016-02-18T18:00:00	71.3	ND	ND	ND	ND	ND	ND	ND	ND	ND	ND	0
53108	2016-02-18T19:00:00	60.1	ND	ND	ND	ND	ND	ND	ND	ND	ND	ND	0
53109	2016-02-18T20:00:00	31.9	ND	ND	ND	ND	ND	ND	ND	ND	ND	ND	0
53110	2016-02-18T21:00:00	9.4	ND	ND	ND	ND	ND	ND	ND	ND	ND	ND	0
53111	2016-02-18T22:00:00	18.8	ND	ND	ND	ND	ND	ND	ND	ND	ND	ND	0
53112	2016-02-18T23:00:00	50.3	ND	ND	ND	ND	ND	ND	ND	ND	ND	ND	0
53113	2016-02-19T00:00:00	100.9	ND	ND	ND	ND	ND	ND	ND	ND	ND	ND	0
53114	2016-02-19T01:00:00	59.1	ND	ND	ND	ND	ND	ND	ND	ND	ND	ND	0
53115	2016-02-19T02:00:00	35.6	ND	ND	ND	ND	ND	ND	ND	ND	ND	ND	0
53116	2016-02-19T03:00:00	64.6	ND	ND	ND	ND	ND	ND	ND	ND	ND	ND	0
53117	2016-02-19T04:00:00	62.3	ND	ND	ND	ND	ND	ND	ND	ND	ND	ND	0
53118	2016-02-19T05:00:00	57.6	ND	ND	ND	ND	ND	ND	ND	ND	ND	ND	0
53119	2016-02-19T06:00:00	57.4	ND	ND	ND	ND	ND	ND	ND	ND	ND	ND	0
53120	2016-02-19T07:00:00	70.8	ND	ND	ND	ND	ND	ND	ND	ND	ND	ND	0
53121	2016-02-19T08:00:00	111.3	ND	ND	ND	ND	ND	ND	ND	ND	ND	ND	0
53122	2016-02-19T09:00:00	134.5	ND	ND	ND	ND	ND	ND	ND	ND	ND	ND	0
53123	2016-02-19T10:00:00	112.2	ND	ND	ND	ND	ND	ND	ND	ND	ND	ND	0
53124	2016-02-19T11:00:00	44.2	ND	ND	ND	ND	ND	ND	ND	ND	ND	ND	0
53125	2016-02-19T12:00:00	53.4	ND	ND	ND	ND	ND	ND	ND	ND	ND	ND	0
53126	2016-02-19T13:00:00	63.2	ND	ND	ND	ND	ND	ND	ND	ND	ND	ND	0
53127	2016-02-19T14:00:00	41.9	ND	ND	ND	ND	ND	ND	ND	ND	ND	ND	0
53128	2016-02-19T15:00:00	49.2	ND	ND	ND	ND	ND	ND	ND	ND	ND	ND	0
53129	2016-02-19T16:00:00	80.7	ND	ND	ND	ND	ND	ND	ND	ND	ND	ND	0
53130	2016-02-19T17:00:00	84	ND	ND	ND	ND	ND	ND	ND	ND	ND	ND	0
53131	2016-02-19T18:00:00	47.9	ND	ND	ND	ND	ND	ND	ND	ND	ND	ND	0
53132	2016-02-19T19:00:00	61.9	ND	ND	ND	ND	ND	ND	ND	ND	ND	ND	0
53133	2016-02-19T20:00:00	28.1	ND	ND	ND	ND	ND	ND	ND	ND	ND	ND	0
53134	2016-02-19T21:00:00	21	ND	ND	ND	ND	ND	ND	ND	ND	ND	ND	0
53135	2016-02-19T22:00:00	25.2	ND	ND	ND	ND	ND	ND	ND	ND	ND	ND	0
53136	2016-02-19T23:00:00	24.5	ND	ND	ND	ND	ND	ND	ND	ND	ND	ND	0
53137	2016-02-20T00:00:00	14.5	ND	ND	ND	ND	ND	ND	ND	ND	ND	ND	0
53138	2016-02-20T01:00:00	11.6	ND	ND	ND	ND	ND	ND	ND	ND	ND	ND	0
53139	2016-02-20T02:00:00	38.5	ND	ND	ND	ND	ND	ND	ND	ND	ND	ND	0
53140	2016-02-20T03:00:00	55.7	ND	ND	ND	ND	ND	ND	ND	ND	ND	ND	0
53141	2016-02-20T04:00:00	68.3	ND	ND	ND	ND	ND	ND	ND	ND	ND	ND	0
53142	2016-02-20T05:00:00	63	ND	ND	ND	ND	ND	ND	ND	ND	ND	ND	0
53143	2016-02-20T06:00:00	52.4	ND	ND	ND	ND	ND	ND	ND	ND	ND	ND	0
53144	2016-02-20T07:00:00	65.4	ND	ND	ND	ND	ND	ND	ND	ND	ND	ND	0
53145	2016-02-20T08:00:00	115.7	ND	ND	ND	ND	ND	ND	ND	ND	ND	ND	0
53146	2016-02-20T09:00:00	116.1	ND	ND	ND	ND	ND	ND	ND	ND	ND	ND	0
53147	2016-02-20T10:00:00	97	ND	ND	ND	ND	ND	ND	ND	ND	ND	ND	0
53148	2016-02-20T11:00:00	76.9	ND	ND	ND	ND	ND	ND	ND	ND	ND	ND	0
53149	2016-02-20T12:00:00	74.9	ND	ND	ND	ND	ND	ND	ND	ND	ND	ND	0
53150	2016-02-20T13:00:00	77.7	ND	ND	ND	ND	ND	ND	ND	ND	ND	ND	0
53151	2016-02-20T14:00:00	70	ND	ND	ND	ND	ND	ND	ND	ND	ND	ND	0
53152	2016-02-20T15:00:00	71	ND	ND	ND	ND	ND	ND	ND	ND	ND	ND	0
53153	2016-02-20T16:00:00	36.3	ND	ND	ND	ND	ND	ND	ND	ND	ND	ND	0
53154	2016-02-20T17:00:00	43.6	ND	ND	ND	ND	ND	ND	ND	ND	ND	ND	0
53155	2016-02-20T18:00:00	52.7	ND	ND	ND	ND	ND	ND	ND	ND	ND	ND	0
53156	2016-02-20T19:00:00	16.4	ND	ND	ND	ND	ND	ND	ND	ND	ND	ND	0
53157	2016-02-20T20:00:00	0.4	ND	ND	ND	ND	ND	ND	ND	ND	ND	ND	0
53158	2016-02-20T21:00:00	24.2	ND	ND	ND	ND	ND	ND	ND	ND	ND	ND	0
53159	2016-02-20T22:00:00	28.7	ND	ND	ND	ND	ND	ND	ND	ND	ND	ND	0
53160	2016-02-20T23:00:00	6.9	ND	ND	ND	ND	ND	ND	ND	ND	ND	ND	0
53161	2016-02-21T00:00:00	0.1	ND	ND	ND	ND	ND	ND	ND	ND	ND	ND	0
53162	2016-02-21T01:00:00	38.4	ND	ND	ND	ND	ND	ND	ND	ND	ND	ND	0
53163	2016-02-21T02:00:00	16.7	ND	ND	ND	ND	ND	ND	ND	ND	ND	ND	17.78
53164	2016-02-21T03:00:00	34.3	ND	ND	ND	ND	ND	ND	ND	ND	ND	ND	4.06
53165	2016-02-21T04:00:00	40.2	ND	ND	ND	ND	ND	ND	ND	ND	ND	ND	0.51
53166	2016-02-21T05:00:00	16.6	ND	ND	ND	ND	ND	ND	ND	ND	ND	ND	0.51
53167	2016-02-21T06:00:00	11.4	ND	ND	ND	ND	ND	ND	ND	ND	ND	ND	0.25
53168	2016-02-21T07:00:00	22	ND	ND	ND	ND	ND	ND	ND	ND	ND	ND	0.51
53169	2016-02-21T08:00:00	39	ND	ND	ND	ND	ND	ND	ND	ND	ND	ND	0
53170	2016-02-21T09:00:00	35	ND	ND	ND	ND	ND	ND	ND	ND	ND	ND	0.25
53171	2016-02-21T10:00:00	23.5	ND	ND	ND	ND	ND	ND	ND	ND	ND	ND	0
53172	2016-02-21T11:00:00	69.5	ND	ND	ND	ND	ND	ND	ND	ND	ND	ND	0
53173	2016-02-21T12:00:00	51.1	ND	ND	ND	ND	ND	ND	ND	ND	ND	ND	0
53174	2016-02-21T13:00:00	49	ND	ND	ND	ND	ND	ND	ND	ND	ND	ND	0
53175	2016-02-21T14:00:00	65.2	ND	ND	ND	ND	ND	ND	ND	ND	ND	ND	0
53176	2016-02-21T15:00:00	18.1	ND	ND	ND	ND	ND	ND	ND	ND	ND	ND	0
53177	2016-02-21T16:00:00	23.9	ND	ND	ND	ND	ND	ND	ND	ND	ND	ND	0
53178	2016-02-21T17:00:00	27.7	ND	ND	ND	ND	ND	ND	ND	ND	ND	ND	0
53179	2016-02-21T18:00:00	13.5	ND	ND	ND	ND	ND	ND	ND	ND	ND	ND	0
53180	2016-02-21T19:00:00	36.1	ND	ND	ND	ND	ND	ND	ND	ND	ND	ND	0
53181	2016-02-21T20:00:00	23.7	ND	ND	ND	ND	ND	ND	ND	ND	ND	ND	0
53182	2016-02-21T21:00:00	26	ND	ND	ND	ND	ND	ND	ND	ND	ND	ND	0
53183	2016-02-21T22:00:00	26.3	ND	ND	ND	ND	ND	ND	ND	ND	ND	ND	0
53184	2016-02-21T23:00:00	29.4	ND	ND	ND	ND	ND	ND	ND	ND	ND	ND	0
53185	2016-02-22T00:00:00	20.5	ND	ND	ND	ND	ND	ND	ND	ND	ND	ND	2.54
53186	2016-02-22T01:00:00	28.3	ND	ND	ND	ND	ND	ND	ND	ND	ND	ND	1.02
53187	2016-02-22T02:00:00	22	ND	ND	ND	ND	ND	ND	ND	ND	ND	ND	6.1
53188	2016-02-22T03:00:00	2.4	ND	ND	ND	ND	ND	ND	ND	ND	ND	ND	1.02
53189	2016-02-22T04:00:00	1.8	ND	ND	ND	ND	ND	ND	ND	ND	ND	ND	0.25
53190	2016-02-22T05:00:00	15.1	ND	ND	ND	ND	ND	ND	ND	ND	ND	ND	0.25
53191	2016-02-22T06:00:00	16.3	ND	ND	ND	ND	ND	ND	ND	ND	ND	ND	0
53192	2016-02-22T07:00:00	18.6	ND	ND	ND	ND	ND	ND	ND	ND	ND	ND	0
53193	2016-02-22T08:00:00	24.1	ND	ND	ND	ND	ND	ND	ND	ND	ND	ND	0
53194	2016-02-22T09:00:00	26.2	ND	ND	ND	ND	ND	ND	ND	ND	ND	ND	0
53195	2016-02-22T10:00:00	35.5	ND	ND	ND	ND	ND	ND	ND	ND	ND	ND	0
53196	2016-02-22T11:00:00	39.7	ND	ND	ND	ND	ND	ND	ND	ND	ND	ND	0
53197	2016-02-22T12:00:00	48.5	ND	ND	ND	ND	ND	ND	ND	ND	ND	ND	0
53198	2016-02-22T13:00:00	57.7	ND	ND	ND	ND	ND	ND	ND	ND	ND	ND	0
53199	2016-02-22T14:00:00	53.7	ND	ND	ND	ND	ND	ND	ND	ND	ND	ND	0
53200	2016-02-22T15:00:00	31	ND	ND	ND	ND	ND	ND	ND	ND	ND	ND	0
53201	2016-02-22T16:00:00	38.5	ND	ND	ND	ND	ND	ND	ND	ND	ND	ND	0
53202	2016-02-22T17:00:00	64.4	ND	ND	ND	ND	ND	ND	ND	ND	ND	ND	0
53203	2016-02-22T18:00:00	52.6	ND	ND	ND	ND	ND	ND	ND	ND	ND	ND	0
53204	2016-02-22T19:00:00	51.2	ND	ND	ND	ND	ND	ND	ND	ND	ND	ND	0
53205	2016-02-22T20:00:00	6.6	ND	ND	ND	ND	ND	ND	ND	ND	ND	ND	0
53206	2016-02-22T21:00:00	22.3	ND	ND	ND	ND	ND	ND	ND	ND	ND	ND	0
53207	2016-02-22T22:00:00	17	ND	ND	ND	ND	ND	ND	ND	ND	ND	ND	0
53208	2016-02-22T23:00:00	36.9	ND	ND	ND	ND	ND	ND	ND	ND	ND	ND	0
53209	2016-02-23T00:00:00	59	ND	ND	ND	ND	ND	ND	ND	ND	ND	ND	0
53210	2016-02-23T01:00:00	57	ND	ND	ND	ND	ND	ND	ND	ND	ND	ND	0
53211	2016-02-23T02:00:00	48.9	ND	ND	ND	ND	ND	ND	ND	ND	ND	ND	0
53212	2016-02-23T03:00:00	40.1	ND	ND	ND	ND	ND	ND	ND	ND	ND	ND	0
53213	2016-02-23T04:00:00	22.2	ND	ND	ND	ND	ND	ND	ND	ND	ND	ND	0
53214	2016-02-23T05:00:00	34.6	ND	ND	ND	ND	ND	ND	ND	ND	ND	ND	0
53215	2016-02-23T06:00:00	60.7	ND	ND	ND	ND	ND	ND	ND	ND	ND	ND	0
53216	2016-02-23T07:00:00	76.2	ND	ND	ND	ND	ND	ND	ND	ND	ND	ND	0
53217	2016-02-23T08:00:00	83.2	ND	ND	ND	ND	ND	ND	ND	ND	ND	ND	0
53218	2016-02-23T09:00:00	ND	ND	ND	ND	ND	ND	ND	ND	ND	ND	ND	ND
53219	2016-02-23T10:00:00	ND	ND	ND	ND	ND	ND	ND	ND	ND	ND	ND	ND
53220	2016-02-23T11:00:00	ND	ND	ND	ND	ND	ND	ND	ND	ND	ND	ND	0
53221	2016-02-23T12:00:00	ND	ND	ND	ND	ND	ND	ND	ND	ND	ND	ND	0
53222	2016-02-23T13:00:00	101	ND	ND	ND	ND	ND	ND	ND	ND	ND	ND	0
53223	2016-02-23T14:00:00	84.7	ND	ND	ND	ND	ND	ND	ND	ND	ND	ND	0
53224	2016-02-23T15:00:00	59.4	ND	ND	ND	ND	ND	ND	ND	ND	ND	ND	0
53225	2016-02-23T16:00:00	60.6	ND	ND	ND	ND	ND	ND	ND	ND	ND	ND	0
53226	2016-02-23T17:00:00	70.7	ND	ND	ND	ND	ND	ND	ND	ND	ND	ND	0
53227	2016-02-23T18:00:00	76.3	ND	ND	ND	ND	ND	ND	ND	ND	ND	ND	0
53228	2016-02-23T19:00:00	79	ND	ND	ND	ND	ND	ND	ND	ND	ND	ND	0
53229	2016-02-23T20:00:00	11.5	ND	ND	ND	ND	ND	ND	ND	ND	ND	ND	0
53230	2016-02-23T21:00:00	51.7	ND	ND	ND	ND	ND	ND	ND	ND	ND	ND	0
53231	2016-02-23T22:00:00	52.5	ND	ND	ND	ND	ND	ND	ND	ND	ND	ND	0
53232	2016-02-23T23:00:00	100.8	ND	ND	ND	ND	ND	ND	ND	ND	ND	ND	0
53233	2016-02-24T00:00:00	56.8	ND	ND	ND	ND	ND	ND	ND	ND	ND	ND	0
53234	2016-02-24T01:00:00	85	ND	ND	ND	ND	ND	ND	ND	ND	ND	ND	0
53235	2016-02-24T02:00:00	69.5	ND	ND	ND	ND	ND	ND	ND	ND	ND	ND	0
53236	2016-02-24T03:00:00	72.5	ND	ND	ND	ND	ND	ND	ND	ND	ND	ND	0
53237	2016-02-24T04:00:00	74.9	ND	ND	ND	ND	ND	ND	ND	ND	ND	ND	0
53238	2016-02-24T05:00:00	58.8	ND	ND	ND	ND	ND	ND	ND	ND	ND	ND	0
53239	2016-02-24T06:00:00	76.2	ND	ND	ND	ND	ND	ND	ND	ND	ND	ND	0
53240	2016-02-24T07:00:00	87.6	ND	ND	ND	ND	ND	ND	ND	ND	ND	ND	0
53241	2016-02-24T08:00:00	94.2	ND	ND	ND	ND	ND	ND	ND	ND	ND	ND	0
53242	2016-02-24T09:00:00	65.3	ND	ND	ND	ND	ND	ND	ND	ND	ND	ND	0
53243	2016-02-24T10:00:00	71.1	ND	ND	ND	ND	ND	ND	ND	ND	ND	ND	0
53244	2016-02-24T11:00:00	97.1	ND	ND	ND	ND	ND	ND	ND	ND	ND	ND	0
53245	2016-02-24T12:00:00	81.9	ND	ND	ND	ND	ND	ND	ND	ND	ND	ND	0
53246	2016-02-24T13:00:00	48.8	ND	ND	ND	ND	ND	ND	ND	ND	ND	ND	0
53247	2016-02-24T14:00:00	64.9	ND	ND	ND	ND	ND	ND	ND	ND	ND	ND	0
53248	2016-02-24T15:00:00	48.9	ND	ND	ND	ND	ND	ND	ND	ND	ND	ND	0
53249	2016-02-24T16:00:00	42.9	ND	ND	ND	ND	ND	ND	ND	ND	ND	ND	0
53250	2016-02-24T17:00:00	30.6	ND	ND	ND	ND	ND	ND	ND	ND	ND	ND	0
53251	2016-02-24T18:00:00	37.5	ND	ND	ND	ND	ND	ND	ND	ND	ND	ND	0
53252	2016-02-24T19:00:00	52.2	ND	ND	ND	ND	ND	ND	ND	ND	ND	ND	0
53253	2016-02-24T20:00:00	42.8	ND	ND	ND	ND	ND	ND	ND	ND	ND	ND	0
53254	2016-02-24T21:00:00	39.2	ND	ND	ND	ND	ND	ND	ND	ND	ND	ND	0
53255	2016-02-24T22:00:00	45.5	ND	ND	ND	ND	ND	ND	ND	ND	ND	ND	0
53256	2016-02-24T23:00:00	58.2	ND	ND	ND	ND	ND	ND	ND	ND	ND	ND	0
53257	2016-02-25T00:00:00	56.3	ND	ND	ND	ND	ND	ND	ND	ND	ND	ND	0
53258	2016-02-25T01:00:00	69.1	ND	ND	ND	ND	ND	ND	ND	ND	ND	ND	0
53259	2016-02-25T02:00:00	35.6	ND	ND	ND	ND	ND	ND	ND	ND	ND	ND	0
53260	2016-02-25T03:00:00	108.1	ND	ND	ND	ND	ND	ND	ND	ND	ND	ND	0
53261	2016-02-25T04:00:00	77.4	ND	ND	ND	ND	ND	ND	ND	ND	ND	ND	0
53262	2016-02-25T05:00:00	60.8	ND	ND	ND	ND	ND	ND	ND	ND	ND	ND	0
53263	2016-02-25T06:00:00	66.7	ND	ND	ND	ND	ND	ND	ND	ND	ND	ND	0
53264	2016-02-25T07:00:00	52.2	ND	ND	ND	ND	ND	ND	ND	ND	ND	ND	0
53265	2016-02-25T08:00:00	53.4	ND	ND	ND	ND	ND	ND	ND	ND	ND	ND	0
53266	2016-02-25T09:00:00	64	ND	ND	ND	ND	ND	ND	ND	ND	ND	ND	0
53267	2016-02-25T10:00:00	85.1	ND	ND	ND	ND	ND	ND	ND	ND	ND	ND	0
53268	2016-02-25T11:00:00	72	ND	ND	ND	ND	ND	ND	ND	ND	ND	ND	0
53269	2016-02-25T12:00:00	48.5	ND	ND	ND	ND	ND	ND	ND	ND	ND	ND	0
53270	2016-02-25T13:00:00	68.8	ND	ND	ND	ND	ND	ND	ND	ND	ND	ND	0
53271	2016-02-25T14:00:00	97.7	ND	ND	ND	ND	ND	ND	ND	ND	ND	ND	0
53272	2016-02-25T15:00:00	32	ND	ND	ND	ND	ND	ND	ND	ND	ND	ND	0
53273	2016-02-25T16:00:00	29.1	ND	ND	ND	ND	ND	ND	ND	ND	ND	ND	6.35
53274	2016-02-25T17:00:00	39.6	ND	ND	ND	ND	ND	ND	ND	ND	ND	ND	0.76
53275	2016-02-25T18:00:00	31.2	ND	ND	ND	ND	ND	ND	ND	ND	ND	ND	0
53276	2016-02-25T19:00:00	20.2	ND	ND	ND	ND	ND	ND	ND	ND	ND	ND	0
53277	2016-02-25T20:00:00	152.3	ND	ND	ND	ND	ND	ND	ND	ND	ND	ND	0
53278	2016-02-25T21:00:00	48.6	ND	ND	ND	ND	ND	ND	ND	ND	ND	ND	0
53279	2016-02-25T22:00:00	24.9	ND	ND	ND	ND	ND	ND	ND	ND	ND	ND	0
53280	2016-02-25T23:00:00	35	ND	ND	ND	ND	ND	ND	ND	ND	ND	ND	0
53281	2016-02-26T00:00:00	16.6	ND	ND	ND	ND	ND	ND	ND	ND	ND	ND	0
53282	2016-02-26T01:00:00	13.4	ND	ND	ND	ND	ND	ND	ND	ND	ND	ND	0
53283	2016-02-26T02:00:00	26.6	ND	ND	ND	ND	ND	ND	ND	ND	ND	ND	0
53284	2016-02-26T03:00:00	34.5	ND	ND	ND	ND	ND	ND	ND	ND	ND	ND	0
53285	2016-02-26T04:00:00	13.6	ND	ND	ND	ND	ND	ND	ND	ND	ND	ND	0
53286	2016-02-26T05:00:00	11.2	ND	ND	ND	ND	ND	ND	ND	ND	ND	ND	0
53287	2016-02-26T06:00:00	66	ND	ND	ND	ND	ND	ND	ND	ND	ND	ND	0
53288	2016-02-26T07:00:00	48.9	ND	ND	ND	ND	ND	ND	ND	ND	ND	ND	0
53289	2016-02-26T08:00:00	57.1	ND	ND	ND	ND	ND	ND	ND	ND	ND	ND	0
53290	2016-02-26T09:00:00	62.3	ND	ND	ND	ND	ND	ND	ND	ND	ND	ND	0
53291	2016-02-26T10:00:00	77.8	ND	ND	ND	ND	ND	ND	ND	ND	ND	ND	0
53292	2016-02-26T11:00:00	73.9	ND	ND	ND	ND	ND	ND	ND	ND	ND	ND	0
53293	2016-02-26T12:00:00	57.7	ND	ND	ND	ND	ND	ND	ND	ND	ND	ND	0
53294	2016-02-26T13:00:00	35.8	ND	ND	ND	ND	ND	ND	ND	ND	ND	ND	0
53295	2016-02-26T14:00:00	40.9	ND	ND	ND	ND	ND	ND	ND	ND	ND	ND	0
53296	2016-02-26T15:00:00	62.2	ND	ND	ND	ND	ND	ND	ND	ND	ND	ND	0
53297	2016-02-26T16:00:00	66.8	ND	ND	ND	ND	ND	ND	ND	ND	ND	ND	0
53298	2016-02-26T17:00:00	29.6	ND	ND	ND	ND	ND	ND	ND	ND	ND	ND	0
53299	2016-02-26T18:00:00	12.6	ND	ND	ND	ND	ND	ND	ND	ND	ND	ND	0
53300	2016-02-26T19:00:00	ND	ND	ND	ND	ND	ND	ND	ND	ND	ND	ND	0
53301	2016-02-26T20:00:00	ND	ND	ND	ND	ND	ND	ND	ND	ND	ND	ND	0
53302	2016-02-26T21:00:00	16.9	ND	ND	ND	ND	ND	ND	ND	ND	ND	ND	0
53303	2016-02-26T22:00:00	65.9	ND	ND	ND	ND	ND	ND	ND	ND	ND	ND	0
53304	2016-02-26T23:00:00	55.4	ND	ND	ND	ND	ND	ND	ND	ND	ND	ND	0
53305	2016-02-27T00:00:00	156.9	ND	ND	ND	ND	ND	ND	ND	ND	ND	ND	0
53306	2016-02-27T01:00:00	122.7	ND	ND	ND	ND	ND	ND	ND	ND	ND	ND	0
53307	2016-02-27T02:00:00	78.6	ND	ND	ND	ND	ND	ND	ND	ND	ND	ND	0
53308	2016-02-27T03:00:00	107.7	ND	ND	ND	ND	ND	ND	ND	ND	ND	ND	0
53309	2016-02-27T04:00:00	83.5	ND	ND	ND	ND	ND	ND	ND	ND	ND	ND	0
53310	2016-02-27T05:00:00	42.5	ND	ND	ND	ND	ND	ND	ND	ND	ND	ND	2.03
53311	2016-02-27T06:00:00	ND	ND	ND	ND	ND	ND	ND	ND	ND	ND	ND	ND
53312	2016-02-27T07:00:00	ND	ND	ND	ND	ND	ND	ND	ND	ND	ND	ND	ND
53313	2016-02-27T08:00:00	ND	ND	ND	ND	ND	ND	ND	ND	ND	ND	ND	ND
53314	2016-02-27T09:00:00	ND	ND	ND	ND	ND	ND	ND	ND	ND	ND	ND	ND
53315	2016-02-27T10:00:00	ND	ND	ND	ND	ND	ND	ND	ND	ND	ND	ND	ND
53316	2016-02-27T11:00:00	ND	ND	ND	ND	ND	ND	ND	ND	ND	ND	ND	ND
53317	2016-02-27T12:00:00	ND	ND	ND	ND	ND	ND	ND	ND	ND	ND	ND	ND
53318	2016-02-27T13:00:00	ND	ND	ND	ND	ND	ND	ND	ND	ND	ND	ND	ND
53319	2016-02-27T14:00:00	ND	ND	ND	ND	ND	ND	ND	ND	ND	ND	ND	ND
53320	2016-02-27T15:00:00	ND	ND	ND	ND	ND	ND	ND	ND	ND	ND	ND	ND
53321	2016-02-27T16:00:00	ND	ND	ND	ND	ND	ND	ND	ND	ND	ND	ND	ND
53322	2016-02-27T17:00:00	ND	ND	ND	ND	ND	ND	ND	ND	ND	ND	ND	ND
53323	2016-02-27T18:00:00	ND	ND	ND	ND	ND	ND	ND	ND	ND	ND	ND	ND
53324	2016-02-27T19:00:00	ND	ND	ND	ND	ND	ND	ND	ND	ND	ND	ND	ND
53325	2016-02-27T20:00:00	ND	ND	ND	ND	ND	ND	ND	ND	ND	ND	ND	ND
53326	2016-02-27T21:00:00	ND	ND	ND	ND	ND	ND	ND	ND	ND	ND	ND	ND
53327	2016-02-27T22:00:00	ND	ND	ND	ND	ND	ND	ND	ND	ND	ND	ND	ND
53328	2016-02-27T23:00:00	ND	ND	ND	ND	ND	ND	ND	ND	ND	ND	ND	ND
53329	2016-02-28T00:00:00	ND	ND	ND	ND	ND	ND	ND	ND	ND	ND	ND	ND
53330	2016-02-28T01:00:00	ND	ND	ND	ND	ND	ND	ND	ND	ND	ND	ND	ND
53331	2016-02-28T02:00:00	ND	ND	ND	ND	ND	ND	ND	ND	ND	ND	ND	ND
53332	2016-02-28T03:00:00	ND	ND	ND	ND	ND	ND	ND	ND	ND	ND	ND	ND
53333	2016-02-28T04:00:00	ND	ND	ND	ND	ND	ND	ND	ND	ND	ND	ND	ND
53334	2016-02-28T05:00:00	ND	ND	ND	ND	ND	ND	ND	ND	ND	ND	ND	ND
53335	2016-02-28T06:00:00	ND	ND	ND	ND	ND	ND	ND	ND	ND	ND	ND	ND
53336	2016-02-28T07:00:00	ND	ND	ND	ND	ND	ND	ND	ND	ND	ND	ND	ND
53337	2016-02-28T08:00:00	ND	ND	ND	ND	ND	ND	ND	ND	ND	ND	ND	ND
53338	2016-02-28T09:00:00	ND	ND	ND	ND	ND	ND	ND	ND	ND	ND	ND	ND
53339	2016-02-28T10:00:00	ND	ND	ND	ND	ND	ND	ND	ND	ND	ND	ND	ND
53340	2016-02-28T11:00:00	ND	ND	ND	ND	ND	ND	ND	ND	ND	ND	ND	ND
53341	2016-02-28T12:00:00	ND	ND	ND	ND	ND	ND	ND	ND	ND	ND	ND	ND
53342	2016-02-28T13:00:00	ND	ND	ND	ND	ND	ND	ND	ND	ND	ND	ND	ND
53343	2016-02-28T14:00:00	ND	ND	ND	ND	ND	ND	ND	ND	ND	ND	ND	ND
53344	2016-02-28T15:00:00	ND	ND	ND	ND	ND	ND	ND	ND	ND	ND	ND	ND
53345	2016-02-28T16:00:00	ND	ND	ND	ND	ND	ND	ND	ND	ND	ND	ND	ND
53346	2016-02-28T17:00:00	ND	ND	ND	ND	ND	ND	ND	ND	ND	ND	ND	ND
53347	2016-02-28T18:00:00	ND	ND	ND	ND	ND	ND	ND	ND	ND	ND	ND	ND
53348	2016-02-28T19:00:00	ND	ND	ND	ND	ND	ND	ND	ND	ND	ND	ND	ND
53349	2016-02-28T20:00:00	ND	ND	ND	ND	ND	ND	ND	ND	ND	ND	ND	ND
53350	2016-02-28T21:00:00	ND	ND	ND	ND	ND	ND	ND	ND	ND	ND	ND	ND
53351	2016-02-28T22:00:00	ND	ND	ND	ND	ND	ND	ND	ND	ND	ND	ND	ND
53352	2016-02-28T23:00:00	ND	ND	ND	ND	ND	ND	ND	ND	ND	ND	ND	ND
53353	2016-02-29T00:00:00	ND	ND	ND	ND	ND	ND	ND	ND	ND	ND	ND	ND
53354	2016-02-29T01:00:00	ND	ND	ND	ND	ND	ND	ND	ND	ND	ND	ND	ND
53355	2016-02-29T02:00:00	ND	ND	ND	ND	ND	ND	ND	ND	ND	ND	ND	ND
53356	2016-02-29T03:00:00	ND	ND	ND	ND	ND	ND	ND	ND	ND	ND	ND	ND
53357	2016-02-29T04:00:00	ND	ND	ND	ND	ND	ND	ND	ND	ND	ND	ND	ND
53358	2016-02-29T05:00:00	ND	ND	ND	ND	ND	ND	ND	ND	ND	ND	ND	ND
53359	2016-02-29T06:00:00	ND	ND	ND	ND	ND	ND	ND	ND	ND	ND	ND	ND
53360	2016-02-29T07:00:00	ND	ND	ND	ND	ND	ND	ND	ND	ND	ND	ND	ND
53361	2016-02-29T08:00:00	ND	ND	ND	ND	ND	ND	ND	ND	ND	ND	ND	ND
53362	2016-02-29T09:00:00	ND	ND	ND	ND	ND	ND	ND	ND	ND	ND	ND	ND
53363	2016-02-29T10:00:00	ND	ND	ND	ND	ND	ND	ND	ND	ND	ND	ND	ND
53364	2016-02-29T11:00:00	ND	ND	ND	ND	ND	ND	ND	ND	ND	ND	ND	0
53365	2016-02-29T12:00:00	ND	ND	ND	ND	ND	ND	ND	ND	ND	ND	ND	0
53366	2016-02-29T13:00:00	ND	ND	ND	ND	ND	ND	ND	ND	ND	ND	ND	0
53367	2016-02-29T14:00:00	81.3	ND	ND	ND	ND	ND	ND	ND	ND	ND	ND	0
53368	2016-02-29T15:00:00	29.2	ND	ND	ND	ND	ND	ND	ND	ND	ND	ND	0
53369	2016-02-29T16:00:00	49.1	ND	ND	ND	ND	ND	ND	ND	ND	ND	ND	0
53370	2016-02-29T17:00:00	38.8	ND	ND	ND	ND	ND	ND	ND	ND	ND	ND	0
53371	2016-02-29T18:00:00	29.9	ND	ND	ND	ND	ND	ND	ND	ND	ND	ND	0
53372	2016-02-29T19:00:00	37.1	ND	ND	ND	ND	ND	ND	ND	ND	ND	ND	0
53373	2016-02-29T20:00:00	13.5	ND	ND	ND	ND	ND	ND	ND	ND	ND	ND	0
53374	2016-02-29T21:00:00	25.4	ND	ND	ND	ND	ND	ND	ND	ND	ND	ND	0
53375	2016-02-29T22:00:00	21.7	ND	ND	ND	ND	ND	ND	ND	ND	ND	ND	0
53376	2016-02-29T23:00:00	17.6	ND	ND	ND	ND	ND	ND	ND	ND	ND	ND	0
53377	2016-03-01T00:00:00	47.2	ND	ND	ND	ND	ND	ND	ND	ND	ND	ND	0
53378	2016-03-01T01:00:00	13.3	ND	ND	ND	ND	ND	ND	ND	ND	ND	ND	0
53379	2016-03-01T02:00:00	33.6	ND	ND	ND	ND	ND	ND	ND	ND	ND	ND	0
53380	2016-03-01T03:00:00	25.8	ND	ND	ND	ND	ND	ND	ND	ND	ND	ND	0
53381	2016-03-01T04:00:00	27.2	ND	ND	ND	ND	ND	ND	ND	ND	ND	ND	0
53382	2016-03-01T05:00:00	27.7	ND	ND	ND	ND	ND	ND	ND	ND	ND	ND	0
53383	2016-03-01T06:00:00	40.3	ND	ND	ND	ND	ND	ND	ND	ND	ND	ND	0
53384	2016-03-01T07:00:00	60.7	ND	ND	ND	ND	ND	ND	ND	ND	ND	ND	0
53385	2016-03-01T08:00:00	66.3	ND	ND	ND	ND	ND	ND	ND	ND	ND	ND	0
53386	2016-03-01T09:00:00	78.3	ND	ND	ND	ND	ND	ND	ND	ND	ND	ND	0
53387	2016-03-01T10:00:00	88.2	ND	ND	ND	ND	ND	ND	ND	ND	ND	ND	0
53388	2016-03-01T11:00:00	64.4	ND	ND	ND	ND	ND	ND	ND	ND	ND	ND	0
53389	2016-03-01T12:00:00	83	ND	ND	ND	ND	ND	ND	ND	ND	ND	ND	0
53390	2016-03-01T13:00:00	64.4	ND	ND	ND	ND	ND	ND	ND	ND	ND	ND	0
53391	2016-03-01T14:00:00	49.2	ND	ND	ND	ND	ND	ND	ND	ND	ND	ND	0
53392	2016-03-01T15:00:00	38.3	ND	ND	ND	ND	ND	ND	ND	ND	ND	ND	0
53393	2016-03-01T16:00:00	41.2	ND	ND	ND	ND	ND	ND	ND	ND	ND	ND	0
53394	2016-03-01T17:00:00	34.3	ND	ND	ND	ND	ND	ND	ND	ND	ND	ND	0
53395	2016-03-01T18:00:00	31.9	ND	ND	ND	ND	ND	ND	ND	ND	ND	ND	0
53396	2016-03-01T19:00:00	22.5	ND	ND	ND	ND	ND	ND	ND	ND	ND	ND	0
53397	2016-03-01T20:00:00	9.5	ND	ND	ND	ND	ND	ND	ND	ND	ND	ND	0
53398	2016-03-01T21:00:00	15.3	ND	ND	ND	ND	ND	ND	ND	ND	ND	ND	0
53399	2016-03-01T22:00:00	17.4	ND	ND	ND	ND	ND	ND	ND	ND	ND	ND	0
53400	2016-03-01T23:00:00	23.5	ND	ND	ND	ND	ND	ND	ND	ND	ND	ND	0
53401	2016-03-02T00:00:00	23.9	ND	ND	ND	ND	ND	ND	ND	ND	ND	ND	0
53402	2016-03-02T01:00:00	16.5	ND	ND	ND	ND	ND	ND	ND	ND	ND	ND	0
53403	2016-03-02T02:00:00	48.7	ND	ND	ND	ND	ND	ND	ND	ND	ND	ND	0
53404	2016-03-02T03:00:00	38.6	ND	ND	ND	ND	ND	ND	ND	ND	ND	ND	0
53405	2016-03-02T04:00:00	36.9	ND	ND	ND	ND	ND	ND	ND	ND	ND	ND	4.57
53406	2016-03-02T05:00:00	18.5	ND	ND	ND	ND	ND	ND	ND	ND	ND	ND	0.76
53407	2016-03-02T06:00:00	16.7	ND	ND	ND	ND	ND	ND	ND	ND	ND	ND	0.51
53408	2016-03-02T07:00:00	30.7	ND	ND	ND	ND	ND	ND	ND	ND	ND	ND	0
53409	2016-03-02T08:00:00	38.9	ND	ND	ND	ND	ND	ND	ND	ND	ND	ND	0
53410	2016-03-02T09:00:00	45.1	ND	ND	ND	ND	ND	ND	ND	ND	ND	ND	0.25
53411	2016-03-02T10:00:00	58.1	ND	ND	ND	ND	ND	ND	ND	ND	ND	ND	0
53412	2016-03-02T11:00:00	48.9	ND	ND	ND	ND	ND	ND	ND	ND	ND	ND	4.57
53413	2016-03-02T12:00:00	40.1	ND	ND	ND	ND	ND	ND	ND	ND	ND	ND	7.62
53414	2016-03-02T13:00:00	33.6	ND	ND	ND	ND	ND	ND	ND	ND	ND	ND	0.25
53415	2016-03-02T14:00:00	67.9	ND	ND	ND	ND	ND	ND	ND	ND	ND	ND	0
53416	2016-03-02T15:00:00	53.2	ND	ND	ND	ND	ND	ND	ND	ND	ND	ND	0
53417	2016-03-02T16:00:00	50	ND	ND	ND	ND	ND	ND	ND	ND	ND	ND	0
53418	2016-03-02T17:00:00	57.7	ND	ND	ND	ND	ND	ND	ND	ND	ND	ND	0
53419	2016-03-02T18:00:00	ND	ND	ND	ND	ND	ND	ND	ND	ND	ND	ND	ND
53420	2016-03-02T19:00:00	ND	ND	ND	ND	ND	ND	ND	ND	ND	ND	ND	ND
53421	2016-03-02T20:00:00	ND	ND	ND	ND	ND	ND	ND	ND	ND	ND	ND	ND
53422	2016-03-02T21:00:00	ND	ND	ND	ND	ND	ND	ND	ND	ND	ND	ND	ND
53423	2016-03-02T22:00:00	ND	ND	ND	ND	ND	ND	ND	ND	ND	ND	ND	ND
53424	2016-03-02T23:00:00	ND	ND	ND	ND	ND	ND	ND	ND	ND	ND	ND	ND
53425	2016-03-03T00:00:00	ND	ND	ND	ND	ND	ND	ND	ND	ND	ND	ND	ND
53426	2016-03-03T01:00:00	ND	ND	ND	ND	ND	ND	ND	ND	ND	ND	ND	ND
53427	2016-03-03T02:00:00	ND	ND	ND	ND	ND	ND	ND	ND	ND	ND	ND	ND
53428	2016-03-03T03:00:00	ND	ND	ND	ND	ND	ND	ND	ND	ND	ND	ND	ND
53429	2016-03-03T04:00:00	ND	ND	ND	ND	ND	ND	ND	ND	ND	ND	ND	ND
53430	2016-03-03T05:00:00	ND	ND	ND	ND	ND	ND	ND	ND	ND	ND	ND	ND
53431	2016-03-03T06:00:00	ND	ND	ND	ND	ND	ND	ND	ND	ND	ND	ND	ND
53432	2016-03-03T07:00:00	ND	ND	ND	ND	ND	ND	ND	ND	ND	ND	ND	ND
53433	2016-03-03T08:00:00	ND	ND	ND	ND	ND	ND	ND	ND	ND	ND	ND	ND
53434	2016-03-03T09:00:00	ND	ND	ND	ND	ND	ND	ND	ND	ND	ND	ND	ND
53435	2016-03-03T10:00:00	ND	ND	ND	ND	ND	ND	ND	ND	ND	ND	ND	ND
53436	2016-03-03T11:00:00	ND	ND	ND	ND	ND	ND	ND	ND	ND	ND	ND	ND
53437	2016-03-03T12:00:00	ND	ND	ND	ND	ND	ND	ND	ND	ND	ND	ND	ND
53438	2016-03-03T13:00:00	ND	ND	ND	ND	ND	ND	ND	ND	ND	ND	ND	ND
53439	2016-03-03T14:00:00	ND	ND	ND	ND	ND	ND	ND	ND	ND	ND	ND	ND
53440	2016-03-03T15:00:00	ND	ND	ND	ND	ND	ND	ND	ND	ND	ND	ND	ND
53441	2016-03-03T16:00:00	ND	ND	ND	ND	ND	ND	ND	ND	ND	ND	ND	ND
53442	2016-03-03T17:00:00	ND	ND	ND	ND	ND	ND	ND	ND	ND	ND	ND	ND
53443	2016-03-03T18:00:00	ND	ND	ND	ND	ND	ND	ND	ND	ND	ND	ND	ND
53444	2016-03-03T19:00:00	ND	ND	ND	ND	ND	ND	ND	ND	ND	ND	ND	ND
53445	2016-03-03T20:00:00	ND	ND	ND	ND	ND	ND	ND	ND	ND	ND	ND	ND
53446	2016-03-03T21:00:00	ND	ND	ND	ND	ND	ND	ND	ND	ND	ND	ND	ND
53447	2016-03-03T22:00:00	ND	ND	ND	ND	ND	ND	ND	ND	ND	ND	ND	ND
53448	2016-03-03T23:00:00	ND	ND	ND	ND	ND	ND	ND	ND	ND	ND	ND	ND
53449	2016-03-04T00:00:00	ND	ND	ND	ND	ND	ND	ND	ND	ND	ND	ND	ND
53450	2016-03-04T01:00:00	ND	ND	ND	ND	ND	ND	ND	ND	ND	ND	ND	ND
53451	2016-03-04T02:00:00	ND	ND	ND	ND	ND	ND	ND	ND	ND	ND	ND	ND
53452	2016-03-04T03:00:00	ND	ND	ND	ND	ND	ND	ND	ND	ND	ND	ND	ND
53453	2016-03-04T04:00:00	ND	ND	ND	ND	ND	ND	ND	ND	ND	ND	ND	ND
53454	2016-03-04T05:00:00	ND	ND	ND	ND	ND	ND	ND	ND	ND	ND	ND	ND
53455	2016-03-04T06:00:00	ND	ND	ND	ND	ND	ND	ND	ND	ND	ND	ND	ND
53456	2016-03-04T07:00:00	ND	ND	ND	ND	ND	ND	ND	ND	ND	ND	ND	ND
53457	2016-03-04T08:00:00	ND	ND	ND	ND	ND	ND	ND	ND	ND	ND	ND	ND
53458	2016-03-04T09:00:00	ND	ND	ND	ND	ND	ND	ND	ND	ND	ND	ND	ND
53459	2016-03-04T10:00:00	ND	ND	ND	ND	ND	ND	ND	ND	ND	ND	ND	ND
53460	2016-03-04T11:00:00	ND	ND	ND	ND	ND	ND	ND	ND	ND	ND	ND	ND
53461	2016-03-04T12:00:00	ND	ND	ND	ND	ND	ND	ND	ND	ND	ND	ND	ND
53462	2016-03-04T13:00:00	ND	ND	ND	ND	ND	ND	ND	ND	ND	ND	ND	ND
53463	2016-03-04T14:00:00	ND	ND	ND	ND	ND	ND	ND	ND	ND	ND	ND	ND
53464	2016-03-04T15:00:00	ND	ND	ND	ND	ND	ND	ND	ND	ND	ND	ND	ND
53465	2016-03-04T16:00:00	ND	ND	ND	ND	ND	ND	ND	ND	ND	ND	ND	ND
53466	2016-03-04T17:00:00	ND	ND	ND	ND	ND	ND	ND	ND	ND	ND	ND	ND
53467	2016-03-04T18:00:00	ND	ND	ND	ND	ND	ND	ND	ND	ND	ND	ND	0.51
53468	2016-03-04T19:00:00	ND	ND	ND	ND	ND	ND	ND	ND	ND	ND	ND	0.51
53469	2016-03-04T20:00:00	ND	ND	ND	ND	ND	ND	ND	ND	ND	ND	ND	0
53470	2016-03-04T21:00:00	ND	ND	ND	ND	ND	ND	ND	ND	ND	ND	ND	0
53471	2016-03-04T22:00:00	ND	ND	ND	ND	ND	ND	ND	ND	ND	ND	ND	0.25
53472	2016-03-04T23:00:00	ND	ND	ND	ND	ND	ND	ND	ND	ND	ND	ND	0
53473	2016-03-05T00:00:00	ND	ND	ND	ND	ND	ND	ND	ND	ND	ND	ND	ND
53474	2016-03-05T01:00:00	ND	ND	ND	ND	ND	ND	ND	ND	ND	ND	ND	ND
53475	2016-03-05T02:00:00	ND	ND	ND	ND	ND	ND	ND	ND	ND	ND	ND	ND
53476	2016-03-05T03:00:00	ND	ND	ND	ND	ND	ND	ND	ND	ND	ND	ND	ND
53477	2016-03-05T04:00:00	ND	ND	ND	ND	ND	ND	ND	ND	ND	ND	ND	ND
53478	2016-03-05T05:00:00	ND	ND	ND	ND	ND	ND	ND	ND	ND	ND	ND	ND
53479	2016-03-05T06:00:00	ND	ND	ND	ND	ND	ND	ND	ND	ND	ND	ND	ND
53480	2016-03-05T07:00:00	ND	ND	ND	ND	ND	ND	ND	ND	ND	ND	ND	ND
53481	2016-03-05T08:00:00	ND	ND	ND	ND	ND	ND	ND	ND	ND	ND	ND	ND
53482	2016-03-05T09:00:00	ND	ND	ND	ND	ND	ND	ND	ND	ND	ND	ND	ND
53483	2016-03-05T10:00:00	ND	ND	ND	ND	ND	ND	ND	ND	ND	ND	ND	ND
53484	2016-03-05T11:00:00	ND	ND	ND	ND	ND	ND	ND	ND	ND	ND	ND	ND
53485	2016-03-05T12:00:00	ND	ND	ND	ND	ND	ND	ND	ND	ND	ND	ND	ND
53486	2016-03-05T13:00:00	ND	ND	ND	ND	ND	ND	ND	ND	ND	ND	ND	ND
53487	2016-03-05T14:00:00	ND	ND	ND	ND	ND	ND	ND	ND	ND	ND	ND	ND
53488	2016-03-05T15:00:00	ND	ND	ND	ND	ND	ND	ND	ND	ND	ND	ND	0
53489	2016-03-05T16:00:00	ND	ND	ND	ND	ND	ND	ND	ND	ND	ND	ND	0
53490	2016-03-05T17:00:00	ND	ND	ND	ND	ND	ND	ND	ND	ND	ND	ND	0
53491	2016-03-05T18:00:00	32.5	ND	ND	ND	ND	ND	ND	ND	ND	ND	ND	0
53492	2016-03-05T19:00:00	15.5	ND	ND	ND	ND	ND	ND	ND	ND	ND	ND	0
53493	2016-03-05T20:00:00	16.2	ND	ND	ND	ND	ND	ND	ND	ND	ND	ND	0
53494	2016-03-05T21:00:00	23.8	ND	ND	ND	ND	ND	ND	ND	ND	ND	ND	0
53495	2016-03-05T22:00:00	24.1	ND	ND	ND	ND	ND	ND	ND	ND	ND	ND	0
53496	2016-03-05T23:00:00	26.7	ND	ND	ND	ND	ND	ND	ND	ND	ND	ND	0
53497	2016-03-06T00:00:00	18.5	ND	ND	ND	ND	ND	ND	ND	ND	ND	ND	0
53498	2016-03-06T01:00:00	21.9	ND	ND	ND	ND	ND	ND	ND	ND	ND	ND	0
53499	2016-03-06T02:00:00	43.8	ND	ND	ND	ND	ND	ND	ND	ND	ND	ND	0
53500	2016-03-06T03:00:00	53.8	ND	ND	ND	ND	ND	ND	ND	ND	ND	ND	0
53501	2016-03-06T04:00:00	50.6	ND	ND	ND	ND	ND	ND	ND	ND	ND	ND	0
53502	2016-03-06T05:00:00	56	ND	ND	ND	ND	ND	ND	ND	ND	ND	ND	0
53503	2016-03-06T06:00:00	38.4	ND	ND	ND	ND	ND	ND	ND	ND	ND	ND	0
53504	2016-03-06T07:00:00	ND	ND	ND	ND	ND	ND	ND	ND	ND	ND	ND	ND
53505	2016-03-06T08:00:00	ND	ND	ND	ND	ND	ND	ND	ND	ND	ND	ND	ND
53506	2016-03-06T09:00:00	ND	ND	ND	ND	ND	ND	ND	ND	ND	ND	ND	ND
53507	2016-03-06T10:00:00	ND	ND	ND	ND	ND	ND	ND	ND	ND	ND	ND	ND
53508	2016-03-06T11:00:00	ND	ND	ND	ND	ND	ND	ND	ND	ND	ND	ND	ND
53509	2016-03-06T12:00:00	ND	ND	ND	ND	ND	ND	ND	ND	ND	ND	ND	ND
53510	2016-03-06T13:00:00	ND	ND	ND	ND	ND	ND	ND	ND	ND	ND	ND	ND
53511	2016-03-06T14:00:00	ND	ND	ND	ND	ND	ND	ND	ND	ND	ND	ND	ND
53512	2016-03-06T15:00:00	ND	ND	ND	ND	ND	ND	ND	ND	ND	ND	ND	ND
53513	2016-03-06T16:00:00	ND	ND	ND	ND	ND	ND	ND	ND	ND	ND	ND	ND
53514	2016-03-06T17:00:00	ND	ND	ND	ND	ND	ND	ND	ND	ND	ND	ND	ND
53515	2016-03-06T18:00:00	ND	ND	ND	ND	ND	ND	ND	ND	ND	ND	ND	ND
53516	2016-03-06T19:00:00	ND	ND	ND	ND	ND	ND	ND	ND	ND	ND	ND	ND
53517	2016-03-06T20:00:00	ND	ND	ND	ND	ND	ND	ND	ND	ND	ND	ND	ND
53518	2016-03-06T21:00:00	ND	ND	ND	ND	ND	ND	ND	ND	ND	ND	ND	ND
53519	2016-03-06T22:00:00	ND	ND	ND	ND	ND	ND	ND	ND	ND	ND	ND	ND
53520	2016-03-06T23:00:00	ND	ND	ND	ND	ND	ND	ND	ND	ND	ND	ND	ND
53521	2016-03-07T00:00:00	ND	ND	ND	ND	ND	ND	ND	ND	ND	ND	ND	ND
53522	2016-03-07T01:00:00	ND	ND	ND	ND	ND	ND	ND	ND	ND	ND	ND	ND
53523	2016-03-07T02:00:00	ND	ND	ND	ND	ND	ND	ND	ND	ND	ND	ND	ND
53524	2016-03-07T03:00:00	ND	ND	ND	ND	ND	ND	ND	ND	ND	ND	ND	ND
53525	2016-03-07T04:00:00	ND	ND	ND	ND	ND	ND	ND	ND	ND	ND	ND	ND
53526	2016-03-07T05:00:00	ND	ND	ND	ND	ND	ND	ND	ND	ND	ND	ND	ND
53527	2016-03-07T06:00:00	ND	ND	ND	ND	ND	ND	ND	ND	ND	ND	ND	ND
53528	2016-03-07T07:00:00	ND	ND	ND	ND	ND	ND	ND	ND	ND	ND	ND	ND
53529	2016-03-07T08:00:00	ND	ND	ND	ND	ND	ND	ND	ND	ND	ND	ND	ND
53530	2016-03-07T09:00:00	ND	ND	ND	ND	ND	ND	ND	ND	ND	ND	ND	ND
53531	2016-03-07T10:00:00	ND	ND	ND	ND	ND	ND	ND	ND	ND	ND	ND	ND
53532	2016-03-07T11:00:00	ND	ND	ND	ND	ND	ND	ND	ND	ND	ND	ND	ND
53533	2016-03-07T12:00:00	ND	ND	ND	ND	ND	ND	ND	ND	ND	ND	ND	ND
53534	2016-03-07T13:00:00	ND	ND	ND	ND	ND	ND	ND	ND	ND	ND	ND	ND
53535	2016-03-07T14:00:00	ND	ND	ND	ND	ND	ND	ND	ND	ND	ND	ND	ND
53536	2016-03-07T15:00:00	ND	ND	ND	ND	ND	ND	ND	ND	ND	ND	ND	ND
53537	2016-03-07T16:00:00	ND	ND	ND	ND	ND	ND	ND	ND	ND	ND	ND	ND
53538	2016-03-07T17:00:00	ND	ND	ND	ND	ND	ND	ND	ND	ND	ND	ND	ND
53539	2016-03-07T18:00:00	ND	ND	ND	ND	ND	ND	ND	ND	ND	ND	ND	ND
53540	2016-03-07T19:00:00	ND	ND	ND	ND	ND	ND	ND	ND	ND	ND	ND	ND
53541	2016-03-07T20:00:00	ND	ND	ND	ND	ND	ND	ND	ND	ND	ND	ND	ND
53542	2016-03-07T21:00:00	ND	ND	ND	ND	ND	ND	ND	ND	ND	ND	ND	ND
53543	2016-03-07T22:00:00	ND	ND	ND	ND	ND	ND	ND	ND	ND	ND	ND	ND
53544	2016-03-07T23:00:00	ND	ND	ND	ND	ND	ND	ND	ND	ND	ND	ND	ND
53545	2016-03-08T00:00:00	ND	ND	ND	ND	ND	ND	ND	ND	ND	ND	ND	ND
53546	2016-03-08T01:00:00	ND	ND	ND	ND	ND	ND	ND	ND	ND	ND	ND	ND
53547	2016-03-08T02:00:00	ND	ND	ND	ND	ND	ND	ND	ND	ND	ND	ND	ND
53548	2016-03-08T03:00:00	ND	ND	ND	ND	ND	ND	ND	ND	ND	ND	ND	ND
53549	2016-03-08T04:00:00	ND	ND	ND	ND	ND	ND	ND	ND	ND	ND	ND	ND
53550	2016-03-08T05:00:00	ND	ND	ND	ND	ND	ND	ND	ND	ND	ND	ND	ND
53551	2016-03-08T06:00:00	ND	ND	ND	ND	ND	ND	ND	ND	ND	ND	ND	ND
53552	2016-03-08T07:00:00	ND	ND	ND	ND	ND	ND	ND	ND	ND	ND	ND	ND
53553	2016-03-08T08:00:00	ND	ND	ND	ND	ND	ND	ND	ND	ND	ND	ND	ND
53554	2016-03-08T09:00:00	ND	ND	ND	ND	ND	ND	ND	ND	ND	ND	ND	ND
53555	2016-03-08T10:00:00	ND	ND	ND	ND	ND	ND	ND	ND	ND	ND	ND	ND
53556	2016-03-08T11:00:00	ND	ND	ND	ND	ND	ND	ND	ND	ND	ND	ND	ND
53557	2016-03-08T12:00:00	ND	ND	ND	ND	ND	ND	ND	ND	ND	ND	ND	ND
53558	2016-03-08T13:00:00	ND	ND	ND	ND	ND	ND	ND	ND	ND	ND	ND	ND
53559	2016-03-08T14:00:00	ND	ND	ND	ND	ND	ND	ND	ND	ND	ND	ND	ND
53560	2016-03-08T15:00:00	ND	ND	ND	ND	ND	ND	ND	ND	ND	ND	ND	ND
53561	2016-03-08T16:00:00	ND	ND	ND	ND	ND	ND	ND	ND	ND	ND	ND	ND
53562	2016-03-08T17:00:00	ND	ND	ND	ND	ND	ND	ND	ND	ND	ND	ND	ND
53563	2016-03-08T18:00:00	ND	ND	ND	ND	ND	ND	ND	ND	ND	ND	ND	ND
53564	2016-03-08T19:00:00	ND	ND	ND	ND	ND	ND	ND	ND	ND	ND	ND	ND
53565	2016-03-08T20:00:00	ND	ND	ND	ND	ND	ND	ND	ND	ND	ND	ND	ND
53566	2016-03-08T21:00:00	ND	ND	ND	ND	ND	ND	ND	ND	ND	ND	ND	ND
53567	2016-03-08T22:00:00	ND	ND	ND	ND	ND	ND	ND	ND	ND	ND	ND	ND
53568	2016-03-08T23:00:00	ND	ND	ND	ND	ND	ND	ND	ND	ND	ND	ND	ND
53569	2016-03-09T00:00:00	ND	ND	ND	ND	ND	ND	ND	ND	ND	ND	ND	ND
53570	2016-03-09T01:00:00	ND	ND	ND	ND	ND	ND	ND	ND	ND	ND	ND	ND
53571	2016-03-09T02:00:00	ND	ND	ND	ND	ND	ND	ND	ND	ND	ND	ND	ND
53572	2016-03-09T03:00:00	ND	ND	ND	ND	ND	ND	ND	ND	ND	ND	ND	ND
53573	2016-03-09T04:00:00	ND	ND	ND	ND	ND	ND	ND	ND	ND	ND	ND	ND
53574	2016-03-09T05:00:00	ND	ND	ND	ND	ND	ND	ND	ND	ND	ND	ND	ND
53575	2016-03-09T06:00:00	ND	ND	ND	ND	ND	ND	ND	ND	ND	ND	ND	ND
53576	2016-03-09T07:00:00	ND	ND	ND	ND	ND	ND	ND	ND	ND	ND	ND	ND
53577	2016-03-09T08:00:00	ND	ND	ND	ND	ND	ND	ND	ND	ND	ND	ND	ND
53578	2016-03-09T09:00:00	ND	ND	ND	ND	ND	ND	ND	ND	ND	ND	ND	ND
53579	2016-03-09T10:00:00	ND	ND	ND	ND	ND	ND	ND	ND	ND	ND	ND	ND
53580	2016-03-09T11:00:00	0.7	ND	ND	ND	ND	ND	ND	ND	ND	ND	ND	0
53581	2016-03-09T12:00:00	0.7	ND	ND	ND	ND	ND	ND	ND	ND	ND	ND	0
53582	2016-03-09T13:00:00	0.7	ND	ND	ND	ND	ND	ND	ND	ND	ND	ND	0
53583	2016-03-09T14:00:00	0.7	ND	ND	ND	ND	ND	ND	ND	ND	ND	ND	0
53584	2016-03-09T15:00:00	7.4	ND	ND	ND	ND	ND	ND	ND	ND	ND	ND	0
53585	2016-03-09T16:00:00	64.4	ND	ND	ND	ND	ND	ND	ND	ND	ND	ND	0
53586	2016-03-09T17:00:00	66	ND	ND	ND	ND	ND	ND	ND	ND	ND	ND	0
53587	2016-03-09T18:00:00	58.5	ND	ND	ND	ND	ND	ND	ND	ND	ND	ND	0
53588	2016-03-09T19:00:00	48.3	ND	ND	ND	ND	ND	ND	ND	ND	ND	ND	0
53589	2016-03-09T20:00:00	45	ND	ND	ND	ND	ND	ND	ND	ND	ND	ND	0
53590	2016-03-09T21:00:00	63.2	ND	ND	ND	ND	ND	ND	ND	ND	ND	ND	0
53591	2016-03-09T22:00:00	56.7	ND	ND	ND	ND	ND	ND	ND	ND	ND	ND	0
53592	2016-03-09T23:00:00	84	ND	ND	ND	ND	ND	ND	ND	ND	ND	ND	0
53593	2016-03-10T00:00:00	86.4	ND	ND	ND	ND	ND	ND	ND	ND	ND	ND	0
53594	2016-03-10T01:00:00	69.9	ND	ND	ND	ND	ND	ND	ND	ND	ND	ND	0
53595	2016-03-10T02:00:00	62.3	ND	ND	ND	ND	ND	ND	ND	ND	ND	ND	0
53596	2016-03-10T03:00:00	38.2	ND	ND	ND	ND	ND	ND	ND	ND	ND	ND	0
53597	2016-03-10T04:00:00	66.4	ND	ND	ND	ND	ND	ND	ND	ND	ND	ND	0
53598	2016-03-10T05:00:00	65.4	ND	ND	ND	ND	ND	ND	ND	ND	ND	ND	0
53599	2016-03-10T06:00:00	60.8	ND	ND	ND	ND	ND	ND	ND	ND	ND	ND	0
53600	2016-03-10T07:00:00	92.2	ND	ND	ND	ND	ND	ND	ND	ND	ND	ND	0
53601	2016-03-10T08:00:00	142.9	ND	ND	ND	ND	ND	ND	ND	ND	ND	ND	0
53602	2016-03-10T09:00:00	138.1	ND	ND	ND	ND	ND	ND	ND	ND	ND	ND	0
53603	2016-03-10T10:00:00	118.2	ND	ND	ND	ND	ND	ND	ND	ND	ND	ND	0
53604	2016-03-10T11:00:00	87.4	ND	ND	ND	ND	ND	ND	ND	ND	ND	ND	0
53605	2016-03-10T12:00:00	76.2	ND	ND	ND	ND	ND	ND	ND	ND	ND	ND	0
53606	2016-03-10T13:00:00	81	ND	ND	ND	ND	ND	ND	ND	ND	ND	ND	0
53607	2016-03-10T14:00:00	69.8	ND	ND	ND	ND	ND	ND	ND	ND	ND	ND	0
53608	2016-03-10T15:00:00	54.9	ND	ND	ND	ND	ND	ND	ND	ND	ND	ND	0
53609	2016-03-10T16:00:00	50.9	ND	ND	ND	ND	ND	ND	ND	ND	ND	ND	0
53610	2016-03-10T17:00:00	36.9	ND	ND	ND	ND	ND	ND	ND	ND	ND	ND	0
53611	2016-03-10T18:00:00	42.4	ND	ND	ND	ND	ND	ND	ND	ND	ND	ND	0
53612	2016-03-10T19:00:00	24.9	ND	ND	ND	ND	ND	ND	ND	ND	ND	ND	0
53613	2016-03-10T20:00:00	18.9	ND	ND	ND	ND	ND	ND	ND	ND	ND	ND	0
53614	2016-03-10T21:00:00	41.6	ND	ND	ND	ND	ND	ND	ND	ND	ND	ND	0
53615	2016-03-10T22:00:00	57.2	ND	ND	ND	ND	ND	ND	ND	ND	ND	ND	0
53616	2016-03-10T23:00:00	38.4	ND	ND	ND	ND	ND	ND	ND	ND	ND	ND	0
53617	2016-03-11T00:00:00	27.2	ND	ND	ND	ND	ND	ND	ND	ND	ND	ND	0
53618	2016-03-11T01:00:00	36.2	ND	ND	ND	ND	ND	ND	ND	ND	ND	ND	0
53619	2016-03-11T02:00:00	37.6	ND	ND	ND	ND	ND	ND	ND	ND	ND	ND	0
53620	2016-03-11T03:00:00	20.3	ND	ND	ND	ND	ND	ND	ND	ND	ND	ND	0
53621	2016-03-11T04:00:00	45.9	ND	ND	ND	ND	ND	ND	ND	ND	ND	ND	1.02
53622	2016-03-11T05:00:00	31	ND	ND	ND	ND	ND	ND	ND	ND	ND	ND	2.29
53623	2016-03-11T06:00:00	33.6	ND	ND	ND	ND	ND	ND	ND	ND	ND	ND	0.51
53624	2016-03-11T07:00:00	25.5	ND	ND	ND	ND	ND	ND	ND	ND	ND	ND	0
53625	2016-03-11T08:00:00	59.1	ND	ND	ND	ND	ND	ND	ND	ND	ND	ND	0.25
53626	2016-03-11T09:00:00	72.5	ND	ND	ND	ND	ND	ND	ND	ND	ND	ND	0
53627	2016-03-11T10:00:00	78.1	ND	ND	ND	ND	ND	ND	ND	ND	ND	ND	0
53628	2016-03-11T11:00:00	74	ND	ND	ND	ND	ND	ND	ND	ND	ND	ND	0
53629	2016-03-11T12:00:00	78.9	ND	ND	ND	ND	ND	ND	ND	ND	ND	ND	0
53630	2016-03-11T13:00:00	85	ND	ND	ND	ND	ND	ND	ND	ND	ND	ND	0
53631	2016-03-11T14:00:00	64.7	ND	ND	ND	ND	ND	ND	ND	ND	ND	ND	0
53632	2016-03-11T15:00:00	56.5	ND	ND	ND	ND	ND	ND	ND	ND	ND	ND	0
53633	2016-03-11T16:00:00	61.1	ND	ND	ND	ND	ND	ND	ND	ND	ND	ND	0
53634	2016-03-11T17:00:00	61.9	ND	ND	ND	ND	ND	ND	ND	ND	ND	ND	0
53635	2016-03-11T18:00:00	53.9	ND	ND	ND	ND	ND	ND	ND	ND	ND	ND	0
53636	2016-03-11T19:00:00	30.4	ND	ND	ND	ND	ND	ND	ND	ND	ND	ND	0
53637	2016-03-11T20:00:00	9.9	ND	ND	ND	ND	ND	ND	ND	ND	ND	ND	0
53638	2016-03-11T21:00:00	7.9	ND	ND	ND	ND	ND	ND	ND	ND	ND	ND	0
53639	2016-03-11T22:00:00	14.4	ND	ND	ND	ND	ND	ND	ND	ND	ND	ND	0
53640	2016-03-11T23:00:00	29.7	ND	ND	ND	ND	ND	ND	ND	ND	ND	ND	0
53641	2016-03-12T00:00:00	50	ND	ND	ND	ND	ND	ND	ND	ND	ND	ND	0
53642	2016-03-12T01:00:00	51.3	ND	ND	ND	ND	ND	ND	ND	ND	ND	ND	0
53643	2016-03-12T02:00:00	27	ND	ND	ND	ND	ND	ND	ND	ND	ND	ND	4.57
53644	2016-03-12T03:00:00	28.6	ND	ND	ND	ND	ND	ND	ND	ND	ND	ND	1.02
53645	2016-03-12T04:00:00	29.2	ND	ND	ND	ND	ND	ND	ND	ND	ND	ND	0.25
53646	2016-03-12T05:00:00	28.3	ND	ND	ND	ND	ND	ND	ND	ND	ND	ND	0
53647	2016-03-12T06:00:00	41	ND	ND	ND	ND	ND	ND	ND	ND	ND	ND	0
53648	2016-03-12T07:00:00	51.5	ND	ND	ND	ND	ND	ND	ND	ND	ND	ND	0
53649	2016-03-12T08:00:00	49.2	ND	ND	ND	ND	ND	ND	ND	ND	ND	ND	8.64
53650	2016-03-12T09:00:00	36.6	ND	ND	ND	ND	ND	ND	ND	ND	ND	ND	1.52
53651	2016-03-12T10:00:00	50.4	ND	ND	ND	ND	ND	ND	ND	ND	ND	ND	0
53652	2016-03-12T11:00:00	48.5	ND	ND	ND	ND	ND	ND	ND	ND	ND	ND	0
53653	2016-03-12T12:00:00	68	ND	ND	ND	ND	ND	ND	ND	ND	ND	ND	0
53654	2016-03-12T13:00:00	53.8	ND	ND	ND	ND	ND	ND	ND	ND	ND	ND	0
53655	2016-03-12T14:00:00	41.8	ND	ND	ND	ND	ND	ND	ND	ND	ND	ND	0
53656	2016-03-12T15:00:00	4.2	ND	ND	ND	ND	ND	ND	ND	ND	ND	ND	0
53657	2016-03-12T16:00:00	11.3	ND	ND	ND	ND	ND	ND	ND	ND	ND	ND	0
53658	2016-03-12T17:00:00	23.4	ND	ND	ND	ND	ND	ND	ND	ND	ND	ND	0
53659	2016-03-12T18:00:00	26.7	ND	ND	ND	ND	ND	ND	ND	ND	ND	ND	0
53660	2016-03-12T19:00:00	45.9	ND	ND	ND	ND	ND	ND	ND	ND	ND	ND	0
53661	2016-03-12T20:00:00	60.1	ND	ND	ND	ND	ND	ND	ND	ND	ND	ND	0
53662	2016-03-12T21:00:00	32.1	ND	ND	ND	ND	ND	ND	ND	ND	ND	ND	0
53663	2016-03-12T22:00:00	31.2	ND	ND	ND	ND	ND	ND	ND	ND	ND	ND	0
53664	2016-03-12T23:00:00	78.9	ND	ND	ND	ND	ND	ND	ND	ND	ND	ND	0
53665	2016-03-13T00:00:00	82.9	ND	ND	ND	ND	ND	ND	ND	ND	ND	ND	0
53666	2016-03-13T01:00:00	64.8	ND	ND	ND	ND	ND	ND	ND	ND	ND	ND	0
53667	2016-03-13T02:00:00	69.1	ND	ND	ND	ND	ND	ND	ND	ND	ND	ND	0
53668	2016-03-13T03:00:00	72.4	ND	ND	ND	ND	ND	ND	ND	ND	ND	ND	0
53669	2016-03-13T04:00:00	61.7	ND	ND	ND	ND	ND	ND	ND	ND	ND	ND	0
53670	2016-03-13T05:00:00	55	ND	ND	ND	ND	ND	ND	ND	ND	ND	ND	0
53671	2016-03-13T06:00:00	59.2	ND	ND	ND	ND	ND	ND	ND	ND	ND	ND	0
53672	2016-03-13T07:00:00	66.6	ND	ND	ND	ND	ND	ND	ND	ND	ND	ND	0
53673	2016-03-13T08:00:00	80.3	ND	ND	ND	ND	ND	ND	ND	ND	ND	ND	0
53674	2016-03-13T09:00:00	77.9	ND	ND	ND	ND	ND	ND	ND	ND	ND	ND	0
53675	2016-03-13T10:00:00	84.6	ND	ND	ND	ND	ND	ND	ND	ND	ND	ND	0
53676	2016-03-13T11:00:00	78.8	ND	ND	ND	ND	ND	ND	ND	ND	ND	ND	0
53677	2016-03-13T12:00:00	74.7	ND	ND	ND	ND	ND	ND	ND	ND	ND	ND	0
53678	2016-03-13T13:00:00	56.5	ND	ND	ND	ND	ND	ND	ND	ND	ND	ND	0
53679	2016-03-13T14:00:00	47.8	ND	ND	ND	ND	ND	ND	ND	ND	ND	ND	0
53680	2016-03-13T15:00:00	36.6	ND	ND	ND	ND	ND	ND	ND	ND	ND	ND	0
53681	2016-03-13T16:00:00	18.4	ND	ND	ND	ND	ND	ND	ND	ND	ND	ND	30.48
53682	2016-03-13T17:00:00	16.8	ND	ND	ND	ND	ND	ND	ND	ND	ND	ND	19.05
53683	2016-03-13T18:00:00	18.6	ND	ND	ND	ND	ND	ND	ND	ND	ND	ND	0
53684	2016-03-13T19:00:00	27.3	ND	ND	ND	ND	ND	ND	ND	ND	ND	ND	0
53685	2016-03-13T20:00:00	41.9	ND	ND	ND	ND	ND	ND	ND	ND	ND	ND	0
53686	2016-03-13T21:00:00	51.7	ND	ND	ND	ND	ND	ND	ND	ND	ND	ND	0.25
53687	2016-03-13T22:00:00	51	ND	ND	ND	ND	ND	ND	ND	ND	ND	ND	0
53688	2016-03-13T23:00:00	60.7	ND	ND	ND	ND	ND	ND	ND	ND	ND	ND	0
53689	2016-03-14T00:00:00	32	ND	ND	ND	ND	ND	ND	ND	ND	ND	ND	0
53690	2016-03-14T01:00:00	38.3	ND	ND	ND	ND	ND	ND	ND	ND	ND	ND	0
53691	2016-03-14T02:00:00	42.4	ND	ND	ND	ND	ND	ND	ND	ND	ND	ND	0
53692	2016-03-14T03:00:00	33	ND	ND	ND	ND	ND	ND	ND	ND	ND	ND	0
53693	2016-03-14T04:00:00	34.4	ND	ND	ND	ND	ND	ND	ND	ND	ND	ND	0
53694	2016-03-14T05:00:00	36.1	ND	ND	ND	ND	ND	ND	ND	ND	ND	ND	0
53695	2016-03-14T06:00:00	42	ND	ND	ND	ND	ND	ND	ND	ND	ND	ND	0
53696	2016-03-14T07:00:00	74.4	ND	ND	ND	ND	ND	ND	ND	ND	ND	ND	0
53697	2016-03-14T08:00:00	115.5	ND	ND	ND	ND	ND	ND	ND	ND	ND	ND	0
53698	2016-03-14T09:00:00	126.8	ND	ND	ND	ND	ND	ND	ND	ND	ND	ND	0
53699	2016-03-14T10:00:00	102.3	ND	ND	ND	ND	ND	ND	ND	ND	ND	ND	0
53700	2016-03-14T11:00:00	59.1	ND	ND	ND	ND	ND	ND	ND	ND	ND	ND	0
53701	2016-03-14T12:00:00	59.9	ND	ND	ND	ND	ND	ND	ND	ND	ND	ND	0
53702	2016-03-14T13:00:00	53.5	ND	ND	ND	ND	ND	ND	ND	ND	ND	ND	0
53703	2016-03-14T14:00:00	58.8	ND	ND	ND	ND	ND	ND	ND	ND	ND	ND	0
53704	2016-03-14T15:00:00	68.2	ND	ND	ND	ND	ND	ND	ND	ND	ND	ND	0
53705	2016-03-14T16:00:00	67	ND	ND	ND	ND	ND	ND	ND	ND	ND	ND	0
53706	2016-03-14T17:00:00	52.3	ND	ND	ND	ND	ND	ND	ND	ND	ND	ND	7.11
53707	2016-03-14T18:00:00	37.7	ND	ND	ND	ND	ND	ND	ND	ND	ND	ND	0
53708	2016-03-14T19:00:00	21.7	ND	ND	ND	ND	ND	ND	ND	ND	ND	ND	0
53709	2016-03-14T20:00:00	41.2	ND	ND	ND	ND	ND	ND	ND	ND	ND	ND	0
53710	2016-03-14T21:00:00	69.4	ND	ND	ND	ND	ND	ND	ND	ND	ND	ND	0
53711	2016-03-14T22:00:00	61	ND	ND	ND	ND	ND	ND	ND	ND	ND	ND	0
53712	2016-03-14T23:00:00	43.3	ND	ND	ND	ND	ND	ND	ND	ND	ND	ND	0
53713	2016-03-15T00:00:00	40.5	ND	ND	ND	ND	ND	ND	ND	ND	ND	ND	0
53714	2016-03-15T01:00:00	41.1	ND	ND	ND	ND	ND	ND	ND	ND	ND	ND	0
53715	2016-03-15T02:00:00	45	ND	ND	ND	ND	ND	ND	ND	ND	ND	ND	0
53716	2016-03-15T03:00:00	45.7	ND	ND	ND	ND	ND	ND	ND	ND	ND	ND	0.25
53717	2016-03-15T04:00:00	43.7	ND	ND	ND	ND	ND	ND	ND	ND	ND	ND	9.91
53718	2016-03-15T05:00:00	32.8	ND	ND	ND	ND	ND	ND	ND	ND	ND	ND	4.32
53719	2016-03-15T06:00:00	46.8	ND	ND	ND	ND	ND	ND	ND	ND	ND	ND	0.51
53720	2016-03-15T07:00:00	44.3	ND	ND	ND	ND	ND	ND	ND	ND	ND	ND	0
53721	2016-03-15T08:00:00	58	ND	ND	ND	ND	ND	ND	ND	ND	ND	ND	0
53722	2016-03-15T09:00:00	68.3	ND	ND	ND	ND	ND	ND	ND	ND	ND	ND	0
53723	2016-03-15T10:00:00	73.6	ND	ND	ND	ND	ND	ND	ND	ND	ND	ND	0
53724	2016-03-15T11:00:00	72.2	ND	ND	ND	ND	ND	ND	ND	ND	ND	ND	0
53725	2016-03-15T12:00:00	66.9	ND	ND	ND	ND	ND	ND	ND	ND	ND	ND	0
53726	2016-03-15T13:00:00	54.3	ND	ND	ND	ND	ND	ND	ND	ND	ND	ND	0
53727	2016-03-15T14:00:00	37.7	ND	ND	ND	ND	ND	ND	ND	ND	ND	ND	0
53728	2016-03-15T15:00:00	58.5	ND	ND	ND	ND	ND	ND	ND	ND	ND	ND	0
53729	2016-03-15T16:00:00	64.3	ND	ND	ND	ND	ND	ND	ND	ND	ND	ND	0
53730	2016-03-15T17:00:00	54.9	ND	ND	ND	ND	ND	ND	ND	ND	ND	ND	0
53731	2016-03-15T18:00:00	57.5	ND	ND	ND	ND	ND	ND	ND	ND	ND	ND	0
53732	2016-03-15T19:00:00	59.8	ND	ND	ND	ND	ND	ND	ND	ND	ND	ND	0
53733	2016-03-15T20:00:00	28.7	ND	ND	ND	ND	ND	ND	ND	ND	ND	ND	0
53734	2016-03-15T21:00:00	27.4	ND	ND	ND	ND	ND	ND	ND	ND	ND	ND	0
53735	2016-03-15T22:00:00	36.9	ND	ND	ND	ND	ND	ND	ND	ND	ND	ND	0
53736	2016-03-15T23:00:00	42.7	ND	ND	ND	ND	ND	ND	ND	ND	ND	ND	0
53737	2016-03-16T00:00:00	34.2	ND	ND	ND	ND	ND	ND	ND	ND	ND	ND	0
53738	2016-03-16T01:00:00	60.6	ND	ND	ND	ND	ND	ND	ND	ND	ND	ND	0
53739	2016-03-16T02:00:00	49.8	ND	ND	ND	ND	ND	ND	ND	ND	ND	ND	0
53740	2016-03-16T03:00:00	31.1	ND	ND	ND	ND	ND	ND	ND	ND	ND	ND	0
53741	2016-03-16T04:00:00	31.3	ND	ND	ND	ND	ND	ND	ND	ND	ND	ND	0
53742	2016-03-16T05:00:00	57.4	ND	ND	ND	ND	ND	ND	ND	ND	ND	ND	0
53743	2016-03-16T06:00:00	99.7	ND	ND	ND	ND	ND	ND	ND	ND	ND	ND	0
53744	2016-03-16T07:00:00	125.6	ND	ND	ND	ND	ND	ND	ND	ND	ND	ND	0
53745	2016-03-16T08:00:00	103.7	ND	ND	ND	ND	ND	ND	ND	ND	ND	ND	0
53746	2016-03-16T09:00:00	105.6	ND	ND	ND	ND	ND	ND	ND	ND	ND	ND	0
53747	2016-03-16T10:00:00	92.3	ND	ND	ND	ND	ND	ND	ND	ND	ND	ND	0
53748	2016-03-16T11:00:00	72.3	ND	ND	ND	ND	ND	ND	ND	ND	ND	ND	0
53749	2016-03-16T12:00:00	64.5	ND	ND	ND	ND	ND	ND	ND	ND	ND	ND	0
53750	2016-03-16T13:00:00	62.2	ND	ND	ND	ND	ND	ND	ND	ND	ND	ND	0
53751	2016-03-16T14:00:00	47.6	ND	ND	ND	ND	ND	ND	ND	ND	ND	ND	0
53752	2016-03-16T15:00:00	38.9	ND	ND	ND	ND	ND	ND	ND	ND	ND	ND	0
53753	2016-03-16T16:00:00	36.8	ND	ND	ND	ND	ND	ND	ND	ND	ND	ND	0
53754	2016-03-16T17:00:00	43.5	ND	ND	ND	ND	ND	ND	ND	ND	ND	ND	0
53755	2016-03-16T18:00:00	37.2	ND	ND	ND	ND	ND	ND	ND	ND	ND	ND	0
53756	2016-03-16T19:00:00	27.1	ND	ND	ND	ND	ND	ND	ND	ND	ND	ND	0
53757	2016-03-16T20:00:00	21.4	ND	ND	ND	ND	ND	ND	ND	ND	ND	ND	0
53758	2016-03-16T21:00:00	32.1	ND	ND	ND	ND	ND	ND	ND	ND	ND	ND	0
53759	2016-03-16T22:00:00	43.7	ND	ND	ND	ND	ND	ND	ND	ND	ND	ND	0
53760	2016-03-16T23:00:00	43.7	ND	ND	ND	ND	ND	ND	ND	ND	ND	ND	0
53761	2016-03-17T00:00:00	43.9	ND	ND	ND	ND	ND	ND	ND	ND	ND	ND	0
53762	2016-03-17T01:00:00	26	ND	ND	ND	ND	ND	ND	ND	ND	ND	ND	0
53763	2016-03-17T02:00:00	30.2	ND	ND	ND	ND	ND	ND	ND	ND	ND	ND	0
53764	2016-03-17T03:00:00	37.8	ND	ND	ND	ND	ND	ND	ND	ND	ND	ND	13.72
53765	2016-03-17T04:00:00	27.2	ND	ND	ND	ND	ND	ND	ND	ND	ND	ND	1.02
53766	2016-03-17T05:00:00	14.9	ND	ND	ND	ND	ND	ND	ND	ND	ND	ND	0
53767	2016-03-17T06:00:00	23.7	ND	ND	ND	ND	ND	ND	ND	ND	ND	ND	0
53768	2016-03-17T07:00:00	28	ND	ND	ND	ND	ND	ND	ND	ND	ND	ND	0.76
53769	2016-03-17T08:00:00	43.8	ND	ND	ND	ND	ND	ND	ND	ND	ND	ND	0.25
53770	2016-03-17T09:00:00	58.7	ND	ND	ND	ND	ND	ND	ND	ND	ND	ND	0
53771	2016-03-17T10:00:00	54.4	ND	ND	ND	ND	ND	ND	ND	ND	ND	ND	0
53772	2016-03-17T11:00:00	31.2	ND	ND	ND	ND	ND	ND	ND	ND	ND	ND	0
53773	2016-03-17T12:00:00	24.9	ND	ND	ND	ND	ND	ND	ND	ND	ND	ND	0
53774	2016-03-17T13:00:00	51.9	ND	ND	ND	ND	ND	ND	ND	ND	ND	ND	0
53775	2016-03-17T14:00:00	35.6	ND	ND	ND	ND	ND	ND	ND	ND	ND	ND	0
53776	2016-03-17T15:00:00	49.1	ND	ND	ND	ND	ND	ND	ND	ND	ND	ND	0
53777	2016-03-17T16:00:00	36.7	ND	ND	ND	ND	ND	ND	ND	ND	ND	ND	0
53778	2016-03-17T17:00:00	35.3	ND	ND	ND	ND	ND	ND	ND	ND	ND	ND	0
53779	2016-03-17T18:00:00	28.5	ND	ND	ND	ND	ND	ND	ND	ND	ND	ND	0
53780	2016-03-17T19:00:00	20.9	ND	ND	ND	ND	ND	ND	ND	ND	ND	ND	0
53781	2016-03-17T20:00:00	43.7	ND	ND	ND	ND	ND	ND	ND	ND	ND	ND	0
53782	2016-03-17T21:00:00	33.8	ND	ND	ND	ND	ND	ND	ND	ND	ND	ND	2.03
53783	2016-03-17T22:00:00	23	ND	ND	ND	ND	ND	ND	ND	ND	ND	ND	1.02
53784	2016-03-17T23:00:00	10.2	ND	ND	ND	ND	ND	ND	ND	ND	ND	ND	0
53785	2016-03-18T00:00:00	6.8	ND	ND	ND	ND	ND	ND	ND	ND	ND	ND	0
53786	2016-03-18T01:00:00	16.1	ND	ND	ND	ND	ND	ND	ND	ND	ND	ND	0
53787	2016-03-18T02:00:00	20.5	ND	ND	ND	ND	ND	ND	ND	ND	ND	ND	0
53788	2016-03-18T03:00:00	14.3	ND	ND	ND	ND	ND	ND	ND	ND	ND	ND	0.25
53789	2016-03-18T04:00:00	27	ND	ND	ND	ND	ND	ND	ND	ND	ND	ND	0
53790	2016-03-18T05:00:00	24	ND	ND	ND	ND	ND	ND	ND	ND	ND	ND	0
53791	2016-03-18T06:00:00	34.2	ND	ND	ND	ND	ND	ND	ND	ND	ND	ND	0
53792	2016-03-18T07:00:00	47.7	ND	ND	ND	ND	ND	ND	ND	ND	ND	ND	0
53793	2016-03-18T08:00:00	54.2	ND	ND	ND	ND	ND	ND	ND	ND	ND	ND	0
53794	2016-03-18T09:00:00	77.5	ND	ND	ND	ND	ND	ND	ND	ND	ND	ND	0
53795	2016-03-18T10:00:00	53.8	ND	ND	ND	ND	ND	ND	ND	ND	ND	ND	0
53796	2016-03-18T11:00:00	63.9	ND	ND	ND	ND	ND	ND	ND	ND	ND	ND	0
53797	2016-03-18T12:00:00	62.7	ND	ND	ND	ND	ND	ND	ND	ND	ND	ND	0
53798	2016-03-18T13:00:00	53	ND	ND	ND	ND	ND	ND	ND	ND	ND	ND	0
53799	2016-03-18T14:00:00	55.4	ND	ND	ND	ND	ND	ND	ND	ND	ND	ND	0
53800	2016-03-18T15:00:00	42	ND	ND	ND	ND	ND	ND	ND	ND	ND	ND	0
53801	2016-03-18T16:00:00	52.2	ND	ND	ND	ND	ND	ND	ND	ND	ND	ND	0
53802	2016-03-18T17:00:00	57.7	ND	ND	ND	ND	ND	ND	ND	ND	ND	ND	0
53803	2016-03-18T18:00:00	84.3	ND	ND	ND	ND	ND	ND	ND	ND	ND	ND	0
53804	2016-03-18T19:00:00	52.9	ND	ND	ND	ND	ND	ND	ND	ND	ND	ND	0
53805	2016-03-18T20:00:00	37.2	ND	ND	ND	ND	ND	ND	ND	ND	ND	ND	0
53806	2016-03-18T21:00:00	18.7	ND	ND	ND	ND	ND	ND	ND	ND	ND	ND	0
53807	2016-03-18T22:00:00	24.5	ND	ND	ND	ND	ND	ND	ND	ND	ND	ND	0
53808	2016-03-18T23:00:00	28.9	ND	ND	ND	ND	ND	ND	ND	ND	ND	ND	0
53809	2016-03-19T00:00:00	55.5	ND	ND	ND	ND	ND	ND	ND	ND	ND	ND	0
53810	2016-03-19T01:00:00	45.5	ND	ND	ND	ND	ND	ND	ND	ND	ND	ND	0
53811	2016-03-19T02:00:00	46.5	ND	ND	ND	ND	ND	ND	ND	ND	ND	ND	0
53812	2016-03-19T03:00:00	51.4	ND	ND	ND	ND	ND	ND	ND	ND	ND	ND	0
53813	2016-03-19T04:00:00	50.7	ND	ND	ND	ND	ND	ND	ND	ND	ND	ND	0
53814	2016-03-19T05:00:00	36	ND	ND	ND	ND	ND	ND	ND	ND	ND	ND	0
53815	2016-03-19T06:00:00	68.1	ND	ND	ND	ND	ND	ND	ND	ND	ND	ND	0
53816	2016-03-19T07:00:00	99.2	ND	ND	ND	ND	ND	ND	ND	ND	ND	ND	0
53817	2016-03-19T08:00:00	87.3	ND	ND	ND	ND	ND	ND	ND	ND	ND	ND	0
53818	2016-03-19T09:00:00	77.3	ND	ND	ND	ND	ND	ND	ND	ND	ND	ND	0
53819	2016-03-19T10:00:00	97.7	ND	ND	ND	ND	ND	ND	ND	ND	ND	ND	0
53820	2016-03-19T11:00:00	76.7	ND	ND	ND	ND	ND	ND	ND	ND	ND	ND	0
53821	2016-03-19T12:00:00	55.7	ND	ND	ND	ND	ND	ND	ND	ND	ND	ND	0
53822	2016-03-19T13:00:00	67.2	ND	ND	ND	ND	ND	ND	ND	ND	ND	ND	0
53823	2016-03-19T14:00:00	67.9	ND	ND	ND	ND	ND	ND	ND	ND	ND	ND	0
53824	2016-03-19T15:00:00	85.8	ND	ND	ND	ND	ND	ND	ND	ND	ND	ND	0
53825	2016-03-19T16:00:00	80	ND	ND	ND	ND	ND	ND	ND	ND	ND	ND	0
53826	2016-03-19T17:00:00	29.6	ND	ND	ND	ND	ND	ND	ND	ND	ND	ND	0
53827	2016-03-19T18:00:00	43.8	ND	ND	ND	ND	ND	ND	ND	ND	ND	ND	0
53828	2016-03-19T19:00:00	17.8	ND	ND	ND	ND	ND	ND	ND	ND	ND	ND	0
53829	2016-03-19T20:00:00	10.5	ND	ND	ND	ND	ND	ND	ND	ND	ND	ND	0
53830	2016-03-19T21:00:00	22.4	ND	ND	ND	ND	ND	ND	ND	ND	ND	ND	0
53831	2016-03-19T22:00:00	10.9	ND	ND	ND	ND	ND	ND	ND	ND	ND	ND	0
53832	2016-03-19T23:00:00	17.1	ND	ND	ND	ND	ND	ND	ND	ND	ND	ND	0
53833	2016-03-20T00:00:00	29.2	ND	ND	ND	ND	ND	ND	ND	ND	ND	ND	0
53834	2016-03-20T01:00:00	26.9	ND	ND	ND	ND	ND	ND	ND	ND	ND	ND	0
53835	2016-03-20T02:00:00	32.9	ND	ND	ND	ND	ND	ND	ND	ND	ND	ND	0
53836	2016-03-20T03:00:00	34.1	ND	ND	ND	ND	ND	ND	ND	ND	ND	ND	0
53837	2016-03-20T04:00:00	37	ND	ND	ND	ND	ND	ND	ND	ND	ND	ND	0
53838	2016-03-20T05:00:00	40.7	ND	ND	ND	ND	ND	ND	ND	ND	ND	ND	0
53839	2016-03-20T06:00:00	28.7	ND	ND	ND	ND	ND	ND	ND	ND	ND	ND	0
53840	2016-03-20T07:00:00	35.3	ND	ND	ND	ND	ND	ND	ND	ND	ND	ND	0
53841	2016-03-20T08:00:00	50.8	ND	ND	ND	ND	ND	ND	ND	ND	ND	ND	0
53842	2016-03-20T09:00:00	51.8	ND	ND	ND	ND	ND	ND	ND	ND	ND	ND	0
53843	2016-03-20T10:00:00	28.1	ND	ND	ND	ND	ND	ND	ND	ND	ND	ND	0
53844	2016-03-20T11:00:00	61.4	ND	ND	ND	ND	ND	ND	ND	ND	ND	ND	0
53845	2016-03-20T12:00:00	75.9	ND	ND	ND	ND	ND	ND	ND	ND	ND	ND	0
53846	2016-03-20T13:00:00	33.3	ND	ND	ND	ND	ND	ND	ND	ND	ND	ND	0
53847	2016-03-20T14:00:00	26.4	ND	ND	ND	ND	ND	ND	ND	ND	ND	ND	0
53848	2016-03-20T15:00:00	62.1	ND	ND	ND	ND	ND	ND	ND	ND	ND	ND	0
53849	2016-03-20T16:00:00	20.1	ND	ND	ND	ND	ND	ND	ND	ND	ND	ND	0
53850	2016-03-20T17:00:00	2.2	ND	ND	ND	ND	ND	ND	ND	ND	ND	ND	0
53851	2016-03-20T18:00:00	6.2	ND	ND	ND	ND	ND	ND	ND	ND	ND	ND	0
53852	2016-03-20T19:00:00	5.4	ND	ND	ND	ND	ND	ND	ND	ND	ND	ND	0
53853	2016-03-20T20:00:00	6.8	ND	ND	ND	ND	ND	ND	ND	ND	ND	ND	0
53854	2016-03-20T21:00:00	1.7	ND	ND	ND	ND	ND	ND	ND	ND	ND	ND	0
53855	2016-03-20T22:00:00	5.5	ND	ND	ND	ND	ND	ND	ND	ND	ND	ND	0
53856	2016-03-20T23:00:00	31.6	ND	ND	ND	ND	ND	ND	ND	ND	ND	ND	0
53857	2016-03-21T00:00:00	36.4	ND	ND	ND	ND	ND	ND	ND	ND	ND	ND	0
53858	2016-03-21T01:00:00	27.7	ND	ND	ND	ND	ND	ND	ND	ND	ND	ND	0
53859	2016-03-21T02:00:00	32.9	ND	ND	ND	ND	ND	ND	ND	ND	ND	ND	0
53860	2016-03-21T03:00:00	25.3	ND	ND	ND	ND	ND	ND	ND	ND	ND	ND	0
53861	2016-03-21T04:00:00	37.6	ND	ND	ND	ND	ND	ND	ND	ND	ND	ND	0
53862	2016-03-21T05:00:00	4.1	ND	ND	ND	ND	ND	ND	ND	ND	ND	ND	0.51
53863	2016-03-21T06:00:00	9.7	ND	ND	ND	ND	ND	ND	ND	ND	ND	ND	0.25
53864	2016-03-21T07:00:00	41.7	ND	ND	ND	ND	ND	ND	ND	ND	ND	ND	0
53865	2016-03-21T08:00:00	38.9	ND	ND	ND	ND	ND	ND	ND	ND	ND	ND	0
53866	2016-03-21T09:00:00	44.9	ND	ND	ND	ND	ND	ND	ND	ND	ND	ND	0.25
53867	2016-03-21T10:00:00	63.2	ND	ND	ND	ND	ND	ND	ND	ND	ND	ND	0
53868	2016-03-21T11:00:00	44.3	ND	ND	ND	ND	ND	ND	ND	ND	ND	ND	0
53869	2016-03-21T12:00:00	32.4	ND	ND	ND	ND	ND	ND	ND	ND	ND	ND	0
53870	2016-03-21T13:00:00	45.6	ND	ND	ND	ND	ND	ND	ND	ND	ND	ND	0
53871	2016-03-21T14:00:00	40.6	ND	ND	ND	ND	ND	ND	ND	ND	ND	ND	0
53872	2016-03-21T15:00:00	37.7	ND	ND	ND	ND	ND	ND	ND	ND	ND	ND	0
53873	2016-03-21T16:00:00	38.6	ND	ND	ND	ND	ND	ND	ND	ND	ND	ND	0
53874	2016-03-21T17:00:00	48.4	ND	ND	ND	ND	ND	ND	ND	ND	ND	ND	0
53875	2016-03-21T18:00:00	43.2	ND	ND	ND	ND	ND	ND	ND	ND	ND	ND	0
53876	2016-03-21T19:00:00	29.7	ND	ND	ND	ND	ND	ND	ND	ND	ND	ND	0
53877	2016-03-21T20:00:00	17	ND	ND	ND	ND	ND	ND	ND	ND	ND	ND	0
53878	2016-03-21T21:00:00	19.6	ND	ND	ND	ND	ND	ND	ND	ND	ND	ND	0
53879	2016-03-21T22:00:00	20.3	ND	ND	ND	ND	ND	ND	ND	ND	ND	ND	0
53880	2016-03-21T23:00:00	24.4	ND	ND	ND	ND	ND	ND	ND	ND	ND	ND	0
53881	2016-03-22T00:00:00	69.6	ND	ND	ND	ND	ND	ND	ND	ND	ND	ND	0
53882	2016-03-22T01:00:00	42.7	ND	ND	ND	ND	ND	ND	ND	ND	ND	ND	0
53883	2016-03-22T02:00:00	25.5	ND	ND	ND	ND	ND	ND	ND	ND	ND	ND	0
53884	2016-03-22T03:00:00	25.5	ND	ND	ND	ND	ND	ND	ND	ND	ND	ND	0
53885	2016-03-22T04:00:00	40.6	ND	ND	ND	ND	ND	ND	ND	ND	ND	ND	0
53886	2016-03-22T05:00:00	33.5	ND	ND	ND	ND	ND	ND	ND	ND	ND	ND	0
53887	2016-03-22T06:00:00	74	ND	ND	ND	ND	ND	ND	ND	ND	ND	ND	0
53888	2016-03-22T07:00:00	84.1	ND	ND	ND	ND	ND	ND	ND	ND	ND	ND	0
53889	2016-03-22T08:00:00	61.4	ND	ND	ND	ND	ND	ND	ND	ND	ND	ND	0
53890	2016-03-22T09:00:00	52.4	ND	ND	ND	ND	ND	ND	ND	ND	ND	ND	0
53891	2016-03-22T10:00:00	64	ND	ND	ND	ND	ND	ND	ND	ND	ND	ND	0
53892	2016-03-22T11:00:00	70.6	ND	ND	ND	ND	ND	ND	ND	ND	ND	ND	0
53893	2016-03-22T12:00:00	31	ND	ND	ND	ND	ND	ND	ND	ND	ND	ND	0
53894	2016-03-22T13:00:00	69.7	ND	ND	ND	ND	ND	ND	ND	ND	ND	ND	0
53895	2016-03-22T14:00:00	61.2	ND	ND	ND	ND	ND	ND	ND	ND	ND	ND	0
53896	2016-03-22T15:00:00	53.1	ND	ND	ND	ND	ND	ND	ND	ND	ND	ND	0
53897	2016-03-22T16:00:00	87.8	ND	ND	ND	ND	ND	ND	ND	ND	ND	ND	0
53898	2016-03-22T17:00:00	87.6	ND	ND	ND	ND	ND	ND	ND	ND	ND	ND	0
53899	2016-03-22T18:00:00	49.1	ND	ND	ND	ND	ND	ND	ND	ND	ND	ND	0
53900	2016-03-22T19:00:00	25.6	ND	ND	ND	ND	ND	ND	ND	ND	ND	ND	0
53901	2016-03-22T20:00:00	20.1	ND	ND	ND	ND	ND	ND	ND	ND	ND	ND	0
53902	2016-03-22T21:00:00	22	ND	ND	ND	ND	ND	ND	ND	ND	ND	ND	0
53903	2016-03-22T22:00:00	41.1	ND	ND	ND	ND	ND	ND	ND	ND	ND	ND	0
53904	2016-03-22T23:00:00	27.9	ND	ND	ND	ND	ND	ND	ND	ND	ND	ND	0
53905	2016-03-23T00:00:00	27.1	ND	ND	ND	ND	ND	ND	ND	ND	ND	ND	0
53906	2016-03-23T01:00:00	39.4	ND	ND	ND	ND	ND	ND	ND	ND	ND	ND	0
53907	2016-03-23T02:00:00	50.7	ND	ND	ND	ND	ND	ND	ND	ND	ND	ND	0
53908	2016-03-23T03:00:00	51.1	ND	ND	ND	ND	ND	ND	ND	ND	ND	ND	0
53909	2016-03-23T04:00:00	46.6	ND	ND	ND	ND	ND	ND	ND	ND	ND	ND	0
53910	2016-03-23T05:00:00	49.2	ND	ND	ND	ND	ND	ND	ND	ND	ND	ND	0
53911	2016-03-23T06:00:00	21.6	ND	ND	ND	ND	ND	ND	ND	ND	ND	ND	0
53912	2016-03-23T07:00:00	36.4	ND	ND	ND	ND	ND	ND	ND	ND	ND	ND	0
53913	2016-03-23T08:00:00	50	ND	ND	ND	ND	ND	ND	ND	ND	ND	ND	0
53914	2016-03-23T09:00:00	40.4	ND	ND	ND	ND	ND	ND	ND	ND	ND	ND	0
53915	2016-03-23T10:00:00	44.4	ND	ND	ND	ND	ND	ND	ND	ND	ND	ND	0
53916	2016-03-23T11:00:00	53.9	ND	ND	ND	ND	ND	ND	ND	ND	ND	ND	0
53917	2016-03-23T12:00:00	53.5	ND	ND	ND	ND	ND	ND	ND	ND	ND	ND	0
53918	2016-03-23T13:00:00	47.1	ND	ND	ND	ND	ND	ND	ND	ND	ND	ND	0
53919	2016-03-23T14:00:00	32.7	ND	ND	ND	ND	ND	ND	ND	ND	ND	ND	0
53920	2016-03-23T15:00:00	55.7	ND	ND	ND	ND	ND	ND	ND	ND	ND	ND	0
53921	2016-03-23T16:00:00	49.5	ND	ND	ND	ND	ND	ND	ND	ND	ND	ND	0
53922	2016-03-23T17:00:00	55.4	ND	ND	ND	ND	ND	ND	ND	ND	ND	ND	0
53923	2016-03-23T18:00:00	39.4	ND	ND	ND	ND	ND	ND	ND	ND	ND	ND	0
53924	2016-03-23T19:00:00	40.2	ND	ND	ND	ND	ND	ND	ND	ND	ND	ND	0
53925	2016-03-23T20:00:00	21.3	ND	ND	ND	ND	ND	ND	ND	ND	ND	ND	0
53926	2016-03-23T21:00:00	17.4	ND	ND	ND	ND	ND	ND	ND	ND	ND	ND	0
53927	2016-03-23T22:00:00	21.3	ND	ND	ND	ND	ND	ND	ND	ND	ND	ND	0
53928	2016-03-23T23:00:00	20.1	ND	ND	ND	ND	ND	ND	ND	ND	ND	ND	0
53929	2016-03-24T00:00:00	16.3	ND	ND	ND	ND	ND	ND	ND	ND	ND	ND	0
53930	2016-03-24T01:00:00	23.2	ND	ND	ND	ND	ND	ND	ND	ND	ND	ND	0
53931	2016-03-24T02:00:00	49.3	ND	ND	ND	ND	ND	ND	ND	ND	ND	ND	0
53932	2016-03-24T03:00:00	45	ND	ND	ND	ND	ND	ND	ND	ND	ND	ND	0
53933	2016-03-24T04:00:00	42.9	ND	ND	ND	ND	ND	ND	ND	ND	ND	ND	0
53934	2016-03-24T05:00:00	56.6	ND	ND	ND	ND	ND	ND	ND	ND	ND	ND	0
53935	2016-03-24T06:00:00	74.6	ND	ND	ND	ND	ND	ND	ND	ND	ND	ND	0
53936	2016-03-24T07:00:00	82.2	ND	ND	ND	ND	ND	ND	ND	ND	ND	ND	0
53937	2016-03-24T08:00:00	71.7	ND	ND	ND	ND	ND	ND	ND	ND	ND	ND	0
53938	2016-03-24T09:00:00	59.9	ND	ND	ND	ND	ND	ND	ND	ND	ND	ND	0
53939	2016-03-24T10:00:00	43.4	ND	ND	ND	ND	ND	ND	ND	ND	ND	ND	0
53940	2016-03-24T11:00:00	44.7	ND	ND	ND	ND	ND	ND	ND	ND	ND	ND	0
53941	2016-03-24T12:00:00	60.8	ND	ND	ND	ND	ND	ND	ND	ND	ND	ND	0
53942	2016-03-24T13:00:00	54.6	ND	ND	ND	ND	ND	ND	ND	ND	ND	ND	0
53943	2016-03-24T14:00:00	36.1	ND	ND	ND	ND	ND	ND	ND	ND	ND	ND	0
53944	2016-03-24T15:00:00	52.1	ND	ND	ND	ND	ND	ND	ND	ND	ND	ND	0
53945	2016-03-24T16:00:00	34.7	ND	ND	ND	ND	ND	ND	ND	ND	ND	ND	0
53946	2016-03-24T17:00:00	43.4	ND	ND	ND	ND	ND	ND	ND	ND	ND	ND	0
53947	2016-03-24T18:00:00	30.8	ND	ND	ND	ND	ND	ND	ND	ND	ND	ND	0
53948	2016-03-24T19:00:00	27.1	ND	ND	ND	ND	ND	ND	ND	ND	ND	ND	0
53949	2016-03-24T20:00:00	22.8	ND	ND	ND	ND	ND	ND	ND	ND	ND	ND	0
53950	2016-03-24T21:00:00	15.4	ND	ND	ND	ND	ND	ND	ND	ND	ND	ND	0
53951	2016-03-24T22:00:00	15.2	ND	ND	ND	ND	ND	ND	ND	ND	ND	ND	0
53952	2016-03-24T23:00:00	16.2	ND	ND	ND	ND	ND	ND	ND	ND	ND	ND	0
53953	2016-03-25T00:00:00	20.6	ND	ND	ND	ND	ND	ND	ND	ND	ND	ND	0
53954	2016-03-25T01:00:00	32.1	ND	ND	ND	ND	ND	ND	ND	ND	ND	ND	0
53955	2016-03-25T02:00:00	26.7	ND	ND	ND	ND	ND	ND	ND	ND	ND	ND	0
53956	2016-03-25T03:00:00	27.7	ND	ND	ND	ND	ND	ND	ND	ND	ND	ND	0
53957	2016-03-25T04:00:00	45.8	ND	ND	ND	ND	ND	ND	ND	ND	ND	ND	0
53958	2016-03-25T05:00:00	44.8	ND	ND	ND	ND	ND	ND	ND	ND	ND	ND	0
53959	2016-03-25T06:00:00	40.7	ND	ND	ND	ND	ND	ND	ND	ND	ND	ND	0
53960	2016-03-25T07:00:00	52.2	ND	ND	ND	ND	ND	ND	ND	ND	ND	ND	0
53961	2016-03-25T08:00:00	55.2	ND	ND	ND	ND	ND	ND	ND	ND	ND	ND	0
53962	2016-03-25T09:00:00	58.3	ND	ND	ND	ND	ND	ND	ND	ND	ND	ND	0
53963	2016-03-25T10:00:00	50.4	ND	ND	ND	ND	ND	ND	ND	ND	ND	ND	0
53964	2016-03-25T11:00:00	47.6	ND	ND	ND	ND	ND	ND	ND	ND	ND	ND	0
53965	2016-03-25T12:00:00	35.6	ND	ND	ND	ND	ND	ND	ND	ND	ND	ND	0
53966	2016-03-25T13:00:00	40.4	ND	ND	ND	ND	ND	ND	ND	ND	ND	ND	0
53967	2016-03-25T14:00:00	32.6	ND	ND	ND	ND	ND	ND	ND	ND	ND	ND	0
53968	2016-03-25T15:00:00	42.5	ND	ND	ND	ND	ND	ND	ND	ND	ND	ND	0
53969	2016-03-25T16:00:00	45.2	ND	ND	ND	ND	ND	ND	ND	ND	ND	ND	0
53970	2016-03-25T17:00:00	28.5	ND	ND	ND	ND	ND	ND	ND	ND	ND	ND	0
53971	2016-03-25T18:00:00	25.1	ND	ND	ND	ND	ND	ND	ND	ND	ND	ND	0
53972	2016-03-25T19:00:00	10.3	ND	ND	ND	ND	ND	ND	ND	ND	ND	ND	0
53973	2016-03-25T20:00:00	16.2	ND	ND	ND	ND	ND	ND	ND	ND	ND	ND	0
53974	2016-03-25T21:00:00	18.3	ND	ND	ND	ND	ND	ND	ND	ND	ND	ND	0
53975	2016-03-25T22:00:00	38.7	ND	ND	ND	ND	ND	ND	ND	ND	ND	ND	0
53976	2016-03-25T23:00:00	24.1	ND	ND	ND	ND	ND	ND	ND	ND	ND	ND	0
53977	2016-03-26T00:00:00	14.4	ND	ND	ND	ND	ND	ND	ND	ND	ND	ND	0
53978	2016-03-26T01:00:00	24.3	ND	ND	ND	ND	ND	ND	ND	ND	ND	ND	0
53979	2016-03-26T02:00:00	39.7	ND	ND	ND	ND	ND	ND	ND	ND	ND	ND	0
53980	2016-03-26T03:00:00	37.5	ND	ND	ND	ND	ND	ND	ND	ND	ND	ND	0
53981	2016-03-26T04:00:00	40.6	ND	ND	ND	ND	ND	ND	ND	ND	ND	ND	0
53982	2016-03-26T05:00:00	44	ND	ND	ND	ND	ND	ND	ND	ND	ND	ND	0
53983	2016-03-26T06:00:00	38.6	ND	ND	ND	ND	ND	ND	ND	ND	ND	ND	0
53984	2016-03-26T07:00:00	53.5	ND	ND	ND	ND	ND	ND	ND	ND	ND	ND	0
53985	2016-03-26T08:00:00	54.1	ND	ND	ND	ND	ND	ND	ND	ND	ND	ND	0
53986	2016-03-26T09:00:00	64.6	ND	ND	ND	ND	ND	ND	ND	ND	ND	ND	0
53987	2016-03-26T10:00:00	50.1	ND	ND	ND	ND	ND	ND	ND	ND	ND	ND	0
53988	2016-03-26T11:00:00	37.8	ND	ND	ND	ND	ND	ND	ND	ND	ND	ND	0
53989	2016-03-26T12:00:00	40.3	ND	ND	ND	ND	ND	ND	ND	ND	ND	ND	0
53990	2016-03-26T13:00:00	66.5	ND	ND	ND	ND	ND	ND	ND	ND	ND	ND	0
53991	2016-03-26T14:00:00	60.6	ND	ND	ND	ND	ND	ND	ND	ND	ND	ND	0
53992	2016-03-26T15:00:00	62.8	ND	ND	ND	ND	ND	ND	ND	ND	ND	ND	0
53993	2016-03-26T16:00:00	42.3	ND	ND	ND	ND	ND	ND	ND	ND	ND	ND	0
53994	2016-03-26T17:00:00	20.9	ND	ND	ND	ND	ND	ND	ND	ND	ND	ND	0
53995	2016-03-26T18:00:00	29.8	ND	ND	ND	ND	ND	ND	ND	ND	ND	ND	0
53996	2016-03-26T19:00:00	25.3	ND	ND	ND	ND	ND	ND	ND	ND	ND	ND	0
53997	2016-03-26T20:00:00	20	ND	ND	ND	ND	ND	ND	ND	ND	ND	ND	0
53998	2016-03-26T21:00:00	13	ND	ND	ND	ND	ND	ND	ND	ND	ND	ND	0
53999	2016-03-26T22:00:00	10.8	ND	ND	ND	ND	ND	ND	ND	ND	ND	ND	0
54000	2016-03-26T23:00:00	11.9	ND	ND	ND	ND	ND	ND	ND	ND	ND	ND	0
54001	2016-03-27T00:00:00	9.4	ND	ND	ND	ND	ND	ND	ND	ND	ND	ND	0
54002	2016-03-27T01:00:00	21.2	ND	ND	ND	ND	ND	ND	ND	ND	ND	ND	0
54003	2016-03-27T02:00:00	31.7	ND	ND	ND	ND	ND	ND	ND	ND	ND	ND	0
54004	2016-03-27T03:00:00	33.3	ND	ND	ND	ND	ND	ND	ND	ND	ND	ND	0
54005	2016-03-27T04:00:00	36.4	ND	ND	ND	ND	ND	ND	ND	ND	ND	ND	0.25
54006	2016-03-27T05:00:00	15.8	ND	ND	ND	ND	ND	ND	ND	ND	ND	ND	0
54007	2016-03-27T06:00:00	11.5	ND	ND	ND	ND	ND	ND	ND	ND	ND	ND	0
54008	2016-03-27T07:00:00	26	ND	ND	ND	ND	ND	ND	ND	ND	ND	ND	0
54009	2016-03-27T08:00:00	63.8	ND	ND	ND	ND	ND	ND	ND	ND	ND	ND	0
54010	2016-03-27T09:00:00	53.3	ND	ND	ND	ND	ND	ND	ND	ND	ND	ND	0
54011	2016-03-27T10:00:00	47.8	ND	ND	ND	ND	ND	ND	ND	ND	ND	ND	0
54012	2016-03-27T11:00:00	27.5	ND	ND	ND	ND	ND	ND	ND	ND	ND	ND	0
54013	2016-03-27T12:00:00	46.7	ND	ND	ND	ND	ND	ND	ND	ND	ND	ND	0
54014	2016-03-27T13:00:00	52.5	ND	ND	ND	ND	ND	ND	ND	ND	ND	ND	0
54015	2016-03-27T14:00:00	36.7	ND	ND	ND	ND	ND	ND	ND	ND	ND	ND	0
54016	2016-03-27T15:00:00	29.5	ND	ND	ND	ND	ND	ND	ND	ND	ND	ND	0
54017	2016-03-27T16:00:00	15.6	ND	ND	ND	ND	ND	ND	ND	ND	ND	ND	0
54018	2016-03-27T17:00:00	14.9	ND	ND	ND	ND	ND	ND	ND	ND	ND	ND	0
54019	2016-03-27T18:00:00	16.1	ND	ND	ND	ND	ND	ND	ND	ND	ND	ND	0
54020	2016-03-27T19:00:00	11.6	ND	ND	ND	ND	ND	ND	ND	ND	ND	ND	0
54021	2016-03-27T20:00:00	8.6	ND	ND	ND	ND	ND	ND	ND	ND	ND	ND	0
54022	2016-03-27T21:00:00	5.9	ND	ND	ND	ND	ND	ND	ND	ND	ND	ND	0
54023	2016-03-27T22:00:00	13.1	ND	ND	ND	ND	ND	ND	ND	ND	ND	ND	0
54024	2016-03-27T23:00:00	32.4	ND	ND	ND	ND	ND	ND	ND	ND	ND	ND	0
54025	2016-03-28T00:00:00	38	ND	ND	ND	ND	ND	ND	ND	ND	ND	ND	0
54026	2016-03-28T01:00:00	35.3	ND	ND	ND	ND	ND	ND	ND	ND	ND	ND	0
54027	2016-03-28T02:00:00	32.8	ND	ND	ND	ND	ND	ND	ND	ND	ND	ND	0
54028	2016-03-28T03:00:00	32	ND	ND	ND	ND	ND	ND	ND	ND	ND	ND	0
54029	2016-03-28T04:00:00	42.9	ND	ND	ND	ND	ND	ND	ND	ND	ND	ND	0
54030	2016-03-28T05:00:00	38.1	ND	ND	ND	ND	ND	ND	ND	ND	ND	ND	0
54031	2016-03-28T06:00:00	14.9	ND	ND	ND	ND	ND	ND	ND	ND	ND	ND	0
54032	2016-03-28T07:00:00	17.7	ND	ND	ND	ND	ND	ND	ND	ND	ND	ND	0
54033	2016-03-28T08:00:00	45.1	ND	ND	ND	ND	ND	ND	ND	ND	ND	ND	0
54034	2016-03-28T09:00:00	79.8	ND	ND	ND	ND	ND	ND	ND	ND	ND	ND	0
54035	2016-03-28T10:00:00	66.7	ND	ND	ND	ND	ND	ND	ND	ND	ND	ND	0
54036	2016-03-28T11:00:00	62.3	ND	ND	ND	ND	ND	ND	ND	ND	ND	ND	0
54037	2016-03-28T12:00:00	58.3	ND	ND	ND	ND	ND	ND	ND	ND	ND	ND	0
54038	2016-03-28T13:00:00	59.7	ND	ND	ND	ND	ND	ND	ND	ND	ND	ND	0
54039	2016-03-28T14:00:00	52.5	ND	ND	ND	ND	ND	ND	ND	ND	ND	ND	0
54040	2016-03-28T15:00:00	66.4	ND	ND	ND	ND	ND	ND	ND	ND	ND	ND	0
54041	2016-03-28T16:00:00	52.5	ND	ND	ND	ND	ND	ND	ND	ND	ND	ND	0
54042	2016-03-28T17:00:00	24.5	ND	ND	ND	ND	ND	ND	ND	ND	ND	ND	0
54043	2016-03-28T18:00:00	24.4	ND	ND	ND	ND	ND	ND	ND	ND	ND	ND	0
54044	2016-03-28T19:00:00	29.9	ND	ND	ND	ND	ND	ND	ND	ND	ND	ND	0
54045	2016-03-28T20:00:00	51.7	ND	ND	ND	ND	ND	ND	ND	ND	ND	ND	0
54046	2016-03-28T21:00:00	56.1	ND	ND	ND	ND	ND	ND	ND	ND	ND	ND	0
54047	2016-03-28T22:00:00	41.6	ND	ND	ND	ND	ND	ND	ND	ND	ND	ND	0
54048	2016-03-28T23:00:00	47.4	ND	ND	ND	ND	ND	ND	ND	ND	ND	ND	0
54049	2016-03-29T00:00:00	51.9	ND	ND	ND	ND	ND	ND	ND	ND	ND	ND	0
54050	2016-03-29T01:00:00	56.9	ND	ND	ND	ND	ND	ND	ND	ND	ND	ND	0
54051	2016-03-29T02:00:00	57.9	ND	ND	ND	ND	ND	ND	ND	ND	ND	ND	0
54052	2016-03-29T03:00:00	44.7	ND	ND	ND	ND	ND	ND	ND	ND	ND	ND	0
54053	2016-03-29T04:00:00	45.6	ND	ND	ND	ND	ND	ND	ND	ND	ND	ND	0
54054	2016-03-29T05:00:00	61.2	ND	ND	ND	ND	ND	ND	ND	ND	ND	ND	0
54055	2016-03-29T06:00:00	62.2	ND	ND	ND	ND	ND	ND	ND	ND	ND	ND	0
54056	2016-03-29T07:00:00	54.8	ND	ND	ND	ND	ND	ND	ND	ND	ND	ND	0
54057	2016-03-29T08:00:00	71.7	ND	ND	ND	ND	ND	ND	ND	ND	ND	ND	0
54058	2016-03-29T09:00:00	77.9	ND	ND	ND	ND	ND	ND	ND	ND	ND	ND	0
54059	2016-03-29T10:00:00	86.7	ND	ND	ND	ND	ND	ND	ND	ND	ND	ND	0
54060	2016-03-29T11:00:00	66.2	ND	ND	ND	ND	ND	ND	ND	ND	ND	ND	0
54061	2016-03-29T12:00:00	78	ND	ND	ND	ND	ND	ND	ND	ND	ND	ND	0
54062	2016-03-29T13:00:00	93.4	ND	ND	ND	ND	ND	ND	ND	ND	ND	ND	0
54063	2016-03-29T14:00:00	74.2	ND	ND	ND	ND	ND	ND	ND	ND	ND	ND	0
54064	2016-03-29T15:00:00	75.1	ND	ND	ND	ND	ND	ND	ND	ND	ND	ND	0
54065	2016-03-29T16:00:00	80.2	ND	ND	ND	ND	ND	ND	ND	ND	ND	ND	0
54066	2016-03-29T17:00:00	70.8	ND	ND	ND	ND	ND	ND	ND	ND	ND	ND	0
54067	2016-03-29T18:00:00	29.8	ND	ND	ND	ND	ND	ND	ND	ND	ND	ND	0
54068	2016-03-29T19:00:00	20.2	ND	ND	ND	ND	ND	ND	ND	ND	ND	ND	0
54069	2016-03-29T20:00:00	33.2	ND	ND	ND	ND	ND	ND	ND	ND	ND	ND	0
54070	2016-03-29T21:00:00	15.5	ND	ND	ND	ND	ND	ND	ND	ND	ND	ND	0
54071	2016-03-29T22:00:00	33.8	ND	ND	ND	ND	ND	ND	ND	ND	ND	ND	0
54072	2016-03-29T23:00:00	10.3	ND	ND	ND	ND	ND	ND	ND	ND	ND	ND	0
54073	2016-03-30T00:00:00	21.8	ND	ND	ND	ND	ND	ND	ND	ND	ND	ND	0
54074	2016-03-30T01:00:00	15.3	ND	ND	ND	ND	ND	ND	ND	ND	ND	ND	0
54075	2016-03-30T02:00:00	33.5	ND	ND	ND	ND	ND	ND	ND	ND	ND	ND	0
54076	2016-03-30T03:00:00	63	ND	ND	ND	ND	ND	ND	ND	ND	ND	ND	0
54077	2016-03-30T04:00:00	53.5	ND	ND	ND	ND	ND	ND	ND	ND	ND	ND	4.06
54078	2016-03-30T05:00:00	36.9	ND	ND	ND	ND	ND	ND	ND	ND	ND	ND	0.25
54079	2016-03-30T06:00:00	47.2	ND	ND	ND	ND	ND	ND	ND	ND	ND	ND	0.25
54080	2016-03-30T07:00:00	44.6	ND	ND	ND	ND	ND	ND	ND	ND	ND	ND	23.37
54081	2016-03-30T08:00:00	7.9	ND	ND	ND	ND	ND	ND	ND	ND	ND	ND	3.56
54082	2016-03-30T09:00:00	21.2	ND	ND	ND	ND	ND	ND	ND	ND	ND	ND	1.52
54083	2016-03-30T10:00:00	43.6	ND	ND	ND	ND	ND	ND	ND	ND	ND	ND	3.81
54084	2016-03-30T11:00:00	33	ND	ND	ND	ND	ND	ND	ND	ND	ND	ND	0.51
54085	2016-03-30T12:00:00	67.4	ND	ND	ND	ND	ND	ND	ND	ND	ND	ND	0.51
54086	2016-03-30T13:00:00	43.4	ND	ND	ND	ND	ND	ND	ND	ND	ND	ND	0
54087	2016-03-30T14:00:00	21.3	ND	ND	ND	ND	ND	ND	ND	ND	ND	ND	0
54088	2016-03-30T15:00:00	58.6	ND	ND	ND	ND	ND	ND	ND	ND	ND	ND	0
54089	2016-03-30T16:00:00	54.9	ND	ND	ND	ND	ND	ND	ND	ND	ND	ND	0
54090	2016-03-30T17:00:00	58.3	ND	ND	ND	ND	ND	ND	ND	ND	ND	ND	0
54091	2016-03-30T18:00:00	61.2	ND	ND	ND	ND	ND	ND	ND	ND	ND	ND	0
54092	2016-03-30T19:00:00	70.8	ND	ND	ND	ND	ND	ND	ND	ND	ND	ND	0
54093	2016-03-30T20:00:00	32.4	ND	ND	ND	ND	ND	ND	ND	ND	ND	ND	0.51
54094	2016-03-30T21:00:00	14.3	ND	ND	ND	ND	ND	ND	ND	ND	ND	ND	0.25
54095	2016-03-30T22:00:00	9.2	ND	ND	ND	ND	ND	ND	ND	ND	ND	ND	0
54096	2016-03-30T23:00:00	6.6	ND	ND	ND	ND	ND	ND	ND	ND	ND	ND	0
54097	2016-03-31T00:00:00	32.8	ND	ND	ND	ND	ND	ND	ND	ND	ND	ND	0
54098	2016-03-31T01:00:00	32.1	ND	ND	ND	ND	ND	ND	ND	ND	ND	ND	0
54099	2016-03-31T02:00:00	18	ND	ND	ND	ND	ND	ND	ND	ND	ND	ND	0
54100	2016-03-31T03:00:00	7.6	ND	ND	ND	ND	ND	ND	ND	ND	ND	ND	0
54101	2016-03-31T04:00:00	17.8	ND	ND	ND	ND	ND	ND	ND	ND	ND	ND	0
54102	2016-03-31T05:00:00	20.8	ND	ND	ND	ND	ND	ND	ND	ND	ND	ND	0
54103	2016-03-31T06:00:00	32.1	ND	ND	ND	ND	ND	ND	ND	ND	ND	ND	0.25
54104	2016-03-31T07:00:00	33.4	ND	ND	ND	ND	ND	ND	ND	ND	ND	ND	0
54105	2016-03-31T08:00:00	50.1	ND	ND	ND	ND	ND	ND	ND	ND	ND	ND	0
54106	2016-03-31T09:00:00	61.9	ND	ND	ND	ND	ND	ND	ND	ND	ND	ND	0
54107	2016-03-31T10:00:00	62.7	ND	ND	ND	ND	ND	ND	ND	ND	ND	ND	0
54108	2016-03-31T11:00:00	43.6	ND	ND	ND	ND	ND	ND	ND	ND	ND	ND	0
54109	2016-03-31T12:00:00	48.1	ND	ND	ND	ND	ND	ND	ND	ND	ND	ND	0
54110	2016-03-31T13:00:00	62.2	ND	ND	ND	ND	ND	ND	ND	ND	ND	ND	0
54111	2016-03-31T14:00:00	58.4	ND	ND	ND	ND	ND	ND	ND	ND	ND	ND	0
54112	2016-03-31T15:00:00	48.6	ND	ND	ND	ND	ND	ND	ND	ND	ND	ND	0
54113	2016-03-31T16:00:00	67.9	ND	ND	ND	ND	ND	ND	ND	ND	ND	ND	0
54114	2016-03-31T17:00:00	52	ND	ND	ND	ND	ND	ND	ND	ND	ND	ND	0
54115	2016-03-31T18:00:00	76.4	ND	ND	ND	ND	ND	ND	ND	ND	ND	ND	0
54116	2016-03-31T19:00:00	89.9	ND	ND	ND	ND	ND	ND	ND	ND	ND	ND	0
54117	2016-03-31T20:00:00	53.8	ND	ND	ND	ND	ND	ND	ND	ND	ND	ND	0
54118	2016-03-31T21:00:00	31.8	ND	ND	ND	ND	ND	ND	ND	ND	ND	ND	0
54119	2016-03-31T22:00:00	33.3	ND	ND	ND	ND	ND	ND	ND	ND	ND	ND	0
54120	2016-03-31T23:00:00	47.7	ND	ND	ND	ND	ND	ND	ND	ND	ND	ND	0
54121	2016-04-01T00:00:00	57.5	ND	ND	ND	ND	ND	ND	ND	ND	ND	ND	0
54122	2016-04-01T01:00:00	51.9	ND	ND	ND	ND	ND	ND	ND	ND	ND	ND	0
54123	2016-04-01T02:00:00	54.5	ND	ND	ND	ND	ND	ND	ND	ND	ND	ND	0
54124	2016-04-01T03:00:00	55.5	ND	ND	ND	ND	ND	ND	ND	ND	ND	ND	0
54125	2016-04-01T04:00:00	33.6	ND	ND	ND	ND	ND	ND	ND	ND	ND	ND	0
54126	2016-04-01T05:00:00	44.6	ND	ND	ND	ND	ND	ND	ND	ND	ND	ND	0
54127	2016-04-01T06:00:00	59.3	ND	ND	ND	ND	ND	ND	ND	ND	ND	ND	0
54128	2016-04-01T07:00:00	105.1	ND	ND	ND	ND	ND	ND	ND	ND	ND	ND	22.61
54129	2016-04-01T08:00:00	73.9	ND	ND	ND	ND	ND	ND	ND	ND	ND	ND	44.96
54130	2016-04-01T09:00:00	31	ND	ND	ND	ND	ND	ND	ND	ND	ND	ND	0.76
54131	2016-04-01T10:00:00	42.5	ND	ND	ND	ND	ND	ND	ND	ND	ND	ND	0
54132	2016-04-01T11:00:00	46.9	ND	ND	ND	ND	ND	ND	ND	ND	ND	ND	0
54133	2016-04-01T12:00:00	70.9	ND	ND	ND	ND	ND	ND	ND	ND	ND	ND	0
54134	2016-04-01T13:00:00	71.1	ND	ND	ND	ND	ND	ND	ND	ND	ND	ND	0
54135	2016-04-01T14:00:00	51.6	ND	ND	ND	ND	ND	ND	ND	ND	ND	ND	0
54136	2016-04-01T15:00:00	33.3	ND	ND	ND	ND	ND	ND	ND	ND	ND	ND	6.1
54137	2016-04-01T16:00:00	2.4	ND	ND	ND	ND	ND	ND	ND	ND	ND	ND	0
54138	2016-04-01T17:00:00	24.9	ND	ND	ND	ND	ND	ND	ND	ND	ND	ND	0
54139	2016-04-01T18:00:00	32.5	ND	ND	ND	ND	ND	ND	ND	ND	ND	ND	0
54140	2016-04-01T19:00:00	0.1	ND	ND	ND	ND	ND	ND	ND	ND	ND	ND	0
54141	2016-04-01T20:00:00	9.1	ND	ND	ND	ND	ND	ND	ND	ND	ND	ND	0
54142	2016-04-01T21:00:00	47	ND	ND	ND	ND	ND	ND	ND	ND	ND	ND	0
54143	2016-04-01T22:00:00	41.6	ND	ND	ND	ND	ND	ND	ND	ND	ND	ND	0
54144	2016-04-01T23:00:00	49.7	ND	ND	ND	ND	ND	ND	ND	ND	ND	ND	0
54145	2016-04-02T00:00:00	28.2	ND	ND	ND	ND	ND	ND	ND	ND	ND	ND	0
54146	2016-04-02T01:00:00	20.6	ND	ND	ND	ND	ND	ND	ND	ND	ND	ND	0
54147	2016-04-02T02:00:00	41.3	ND	ND	ND	ND	ND	ND	ND	ND	ND	ND	56.9
54148	2016-04-02T03:00:00	47.1	ND	ND	ND	ND	ND	ND	ND	ND	ND	ND	8.38
54149	2016-04-02T04:00:00	33.9	ND	ND	ND	ND	ND	ND	ND	ND	ND	ND	3.05
54150	2016-04-02T05:00:00	17.4	ND	ND	ND	ND	ND	ND	ND	ND	ND	ND	0
54151	2016-04-02T06:00:00	23.1	ND	ND	ND	ND	ND	ND	ND	ND	ND	ND	0.25
54152	2016-04-02T07:00:00	25.8	ND	ND	ND	ND	ND	ND	ND	ND	ND	ND	0
54153	2016-04-02T08:00:00	62.5	ND	ND	ND	ND	ND	ND	ND	ND	ND	ND	1.02
54154	2016-04-02T09:00:00	45	ND	ND	ND	ND	ND	ND	ND	ND	ND	ND	1.27
54155	2016-04-02T10:00:00	29.4	ND	ND	ND	ND	ND	ND	ND	ND	ND	ND	11.18
54156	2016-04-02T11:00:00	26.4	ND	ND	ND	ND	ND	ND	ND	ND	ND	ND	3.81
54157	2016-04-02T12:00:00	29.2	ND	ND	ND	ND	ND	ND	ND	ND	ND	ND	0.25
54158	2016-04-02T13:00:00	45.8	ND	ND	ND	ND	ND	ND	ND	ND	ND	ND	1.78
54159	2016-04-02T14:00:00	19.3	ND	ND	ND	ND	ND	ND	ND	ND	ND	ND	4.83
54160	2016-04-02T15:00:00	10.8	ND	ND	ND	ND	ND	ND	ND	ND	ND	ND	0.76
54161	2016-04-02T16:00:00	28.9	ND	ND	ND	ND	ND	ND	ND	ND	ND	ND	5.84
54162	2016-04-02T17:00:00	17.6	ND	ND	ND	ND	ND	ND	ND	ND	ND	ND	1.78
54163	2016-04-02T18:00:00	23.7	ND	ND	ND	ND	ND	ND	ND	ND	ND	ND	0.76
54164	2016-04-02T19:00:00	20	ND	ND	ND	ND	ND	ND	ND	ND	ND	ND	0
54165	2016-04-02T20:00:00	17.9	ND	ND	ND	ND	ND	ND	ND	ND	ND	ND	0
54166	2016-04-02T21:00:00	26.5	ND	ND	ND	ND	ND	ND	ND	ND	ND	ND	0.25
54167	2016-04-02T22:00:00	37	ND	ND	ND	ND	ND	ND	ND	ND	ND	ND	0
54168	2016-04-02T23:00:00	34.4	ND	ND	ND	ND	ND	ND	ND	ND	ND	ND	0
54169	2016-04-03T00:00:00	58.1	ND	ND	ND	ND	ND	ND	ND	ND	ND	ND	0
54170	2016-04-03T01:00:00	62.4	ND	ND	ND	ND	ND	ND	ND	ND	ND	ND	0
54171	2016-04-03T02:00:00	46.5	ND	ND	ND	ND	ND	ND	ND	ND	ND	ND	0
54172	2016-04-03T03:00:00	1.8	ND	ND	ND	ND	ND	ND	ND	ND	ND	ND	0
54173	2016-04-03T04:00:00	8.9	ND	ND	ND	ND	ND	ND	ND	ND	ND	ND	0
54174	2016-04-03T05:00:00	46.6	ND	ND	ND	ND	ND	ND	ND	ND	ND	ND	0
54175	2016-04-03T06:00:00	96.2	ND	ND	ND	ND	ND	ND	ND	ND	ND	ND	0
54176	2016-04-03T07:00:00	95	ND	ND	ND	ND	ND	ND	ND	ND	ND	ND	0
54177	2016-04-03T08:00:00	82.6	ND	ND	ND	ND	ND	ND	ND	ND	ND	ND	0
54178	2016-04-03T09:00:00	78.7	ND	ND	ND	ND	ND	ND	ND	ND	ND	ND	0
54179	2016-04-03T10:00:00	83.8	ND	ND	ND	ND	ND	ND	ND	ND	ND	ND	0
54180	2016-04-03T11:00:00	61.5	ND	ND	ND	ND	ND	ND	ND	ND	ND	ND	0
54181	2016-04-03T12:00:00	73.1	ND	ND	ND	ND	ND	ND	ND	ND	ND	ND	0
54182	2016-04-03T13:00:00	68.7	ND	ND	ND	ND	ND	ND	ND	ND	ND	ND	0
54183	2016-04-03T14:00:00	42.9	ND	ND	ND	ND	ND	ND	ND	ND	ND	ND	0
54184	2016-04-03T15:00:00	45	ND	ND	ND	ND	ND	ND	ND	ND	ND	ND	0
54185	2016-04-03T16:00:00	53.5	ND	ND	ND	ND	ND	ND	ND	ND	ND	ND	0
54186	2016-04-03T17:00:00	33	ND	ND	ND	ND	ND	ND	ND	ND	ND	ND	0
54187	2016-04-03T18:00:00	47.9	ND	ND	ND	ND	ND	ND	ND	ND	ND	ND	0
54188	2016-04-03T19:00:00	29	ND	ND	ND	ND	ND	ND	ND	ND	ND	ND	0
54189	2016-04-03T20:00:00	8	ND	ND	ND	ND	ND	ND	ND	ND	ND	ND	0
54190	2016-04-03T21:00:00	18	ND	ND	ND	ND	ND	ND	ND	ND	ND	ND	0
54191	2016-04-03T22:00:00	31.7	ND	ND	ND	ND	ND	ND	ND	ND	ND	ND	0
54192	2016-04-03T23:00:00	36.8	ND	ND	ND	ND	ND	ND	ND	ND	ND	ND	2.79
54193	2016-04-04T00:00:00	54.4	ND	ND	ND	ND	ND	ND	ND	ND	ND	ND	0
54194	2016-04-04T01:00:00	37.1	ND	ND	ND	ND	ND	ND	ND	ND	ND	ND	0
54195	2016-04-04T02:00:00	32.1	ND	ND	ND	ND	ND	ND	ND	ND	ND	ND	0.25
54196	2016-04-04T03:00:00	36.8	ND	ND	ND	ND	ND	ND	ND	ND	ND	ND	0
54197	2016-04-04T04:00:00	41.6	ND	ND	ND	ND	ND	ND	ND	ND	ND	ND	0
54198	2016-04-04T05:00:00	46	ND	ND	ND	ND	ND	ND	ND	ND	ND	ND	0
54199	2016-04-04T06:00:00	37.2	ND	ND	ND	ND	ND	ND	ND	ND	ND	ND	0
54200	2016-04-04T07:00:00	47.8	ND	ND	ND	ND	ND	ND	ND	ND	ND	ND	0
54201	2016-04-04T08:00:00	63	ND	ND	ND	ND	ND	ND	ND	ND	ND	ND	0
54202	2016-04-04T09:00:00	50.9	ND	ND	ND	ND	ND	ND	ND	ND	ND	ND	0
54203	2016-04-04T10:00:00	80	ND	ND	ND	ND	ND	ND	ND	ND	ND	ND	0
54204	2016-04-04T11:00:00	106	ND	ND	ND	ND	ND	ND	ND	ND	ND	ND	0
54205	2016-04-04T12:00:00	104.1	ND	ND	ND	ND	ND	ND	ND	ND	ND	ND	0
54206	2016-04-04T13:00:00	60.2	ND	ND	ND	ND	ND	ND	ND	ND	ND	ND	0
54207	2016-04-04T14:00:00	36.9	ND	ND	ND	ND	ND	ND	ND	ND	ND	ND	0
54208	2016-04-04T15:00:00	44.8	ND	ND	ND	ND	ND	ND	ND	ND	ND	ND	0
54209	2016-04-04T16:00:00	33.2	ND	ND	ND	ND	ND	ND	ND	ND	ND	ND	0
54210	2016-04-04T17:00:00	14	ND	ND	ND	ND	ND	ND	ND	ND	ND	ND	0
54211	2016-04-04T18:00:00	20.9	ND	ND	ND	ND	ND	ND	ND	ND	ND	ND	0
54212	2016-04-04T19:00:00	88.3	ND	ND	ND	ND	ND	ND	ND	ND	ND	ND	0
54213	2016-04-04T20:00:00	106.7	ND	ND	ND	ND	ND	ND	ND	ND	ND	ND	0
54214	2016-04-04T21:00:00	114	ND	ND	ND	ND	ND	ND	ND	ND	ND	ND	0
54215	2016-04-04T22:00:00	61.2	ND	ND	ND	ND	ND	ND	ND	ND	ND	ND	0
54216	2016-04-04T23:00:00	27.3	ND	ND	ND	ND	ND	ND	ND	ND	ND	ND	0
54217	2016-04-05T00:00:00	47.2	ND	ND	ND	ND	ND	ND	ND	ND	ND	ND	0
54218	2016-04-05T01:00:00	74	ND	ND	ND	ND	ND	ND	ND	ND	ND	ND	0
54219	2016-04-05T02:00:00	60.7	ND	ND	ND	ND	ND	ND	ND	ND	ND	ND	0
54220	2016-04-05T03:00:00	28.7	ND	ND	ND	ND	ND	ND	ND	ND	ND	ND	0
54221	2016-04-05T04:00:00	47.5	ND	ND	ND	ND	ND	ND	ND	ND	ND	ND	0
54222	2016-04-05T05:00:00	49.1	ND	ND	ND	ND	ND	ND	ND	ND	ND	ND	0
54223	2016-04-05T06:00:00	57.1	ND	ND	ND	ND	ND	ND	ND	ND	ND	ND	0
54224	2016-04-05T07:00:00	98.4	ND	ND	ND	ND	ND	ND	ND	ND	ND	ND	0
54225	2016-04-05T08:00:00	89.3	ND	ND	ND	ND	ND	ND	ND	ND	ND	ND	0
54226	2016-04-05T09:00:00	121.6	ND	ND	ND	ND	ND	ND	ND	ND	ND	ND	0
54227	2016-04-05T10:00:00	115.5	ND	ND	ND	ND	ND	ND	ND	ND	ND	ND	0
54228	2016-04-05T11:00:00	87.6	ND	ND	ND	ND	ND	ND	ND	ND	ND	ND	0
54229	2016-04-05T12:00:00	74.2	ND	ND	ND	ND	ND	ND	ND	ND	ND	ND	0
54230	2016-04-05T13:00:00	57	ND	ND	ND	ND	ND	ND	ND	ND	ND	ND	0
54231	2016-04-05T14:00:00	72.7	ND	ND	ND	ND	ND	ND	ND	ND	ND	ND	0
54232	2016-04-05T15:00:00	54.8	ND	ND	ND	ND	ND	ND	ND	ND	ND	ND	0
54233	2016-04-05T16:00:00	82.6	ND	ND	ND	ND	ND	ND	ND	ND	ND	ND	0
54234	2016-04-05T17:00:00	54.2	ND	ND	ND	ND	ND	ND	ND	ND	ND	ND	0
54235	2016-04-05T18:00:00	41.1	ND	ND	ND	ND	ND	ND	ND	ND	ND	ND	0
54236	2016-04-05T19:00:00	37.6	ND	ND	ND	ND	ND	ND	ND	ND	ND	ND	0
54237	2016-04-05T20:00:00	29.4	ND	ND	ND	ND	ND	ND	ND	ND	ND	ND	0
54238	2016-04-05T21:00:00	23.1	ND	ND	ND	ND	ND	ND	ND	ND	ND	ND	0
54239	2016-04-05T22:00:00	14.8	ND	ND	ND	ND	ND	ND	ND	ND	ND	ND	0
54240	2016-04-05T23:00:00	16.9	ND	ND	ND	ND	ND	ND	ND	ND	ND	ND	0
54241	2016-04-06T00:00:00	28.7	ND	ND	ND	ND	ND	ND	ND	ND	ND	ND	0
54242	2016-04-06T01:00:00	21.8	ND	ND	ND	ND	ND	ND	ND	ND	ND	ND	0
54243	2016-04-06T02:00:00	27.4	ND	ND	ND	ND	ND	ND	ND	ND	ND	ND	0
54244	2016-04-06T03:00:00	52.4	ND	ND	ND	ND	ND	ND	ND	ND	ND	ND	0
54245	2016-04-06T04:00:00	69.8	ND	ND	ND	ND	ND	ND	ND	ND	ND	ND	0
54246	2016-04-06T05:00:00	62.2	ND	ND	ND	ND	ND	ND	ND	ND	ND	ND	0
54247	2016-04-06T06:00:00	57.5	ND	ND	ND	ND	ND	ND	ND	ND	ND	ND	0
54248	2016-04-06T07:00:00	60.9	ND	ND	ND	ND	ND	ND	ND	ND	ND	ND	0
54249	2016-04-06T08:00:00	100.2	ND	ND	ND	ND	ND	ND	ND	ND	ND	ND	0
54250	2016-04-06T09:00:00	104.9	ND	ND	ND	ND	ND	ND	ND	ND	ND	ND	0
54251	2016-04-06T10:00:00	62.9	ND	ND	ND	ND	ND	ND	ND	ND	ND	ND	0
54252	2016-04-06T11:00:00	85.3	ND	ND	ND	ND	ND	ND	ND	ND	ND	ND	0
54253	2016-04-06T12:00:00	74.3	ND	ND	ND	ND	ND	ND	ND	ND	ND	ND	0
54254	2016-04-06T13:00:00	74.6	ND	ND	ND	ND	ND	ND	ND	ND	ND	ND	0
54255	2016-04-06T14:00:00	80.4	ND	ND	ND	ND	ND	ND	ND	ND	ND	ND	0
54256	2016-04-06T15:00:00	75.3	ND	ND	ND	ND	ND	ND	ND	ND	ND	ND	0
54257	2016-04-06T16:00:00	77.6	ND	ND	ND	ND	ND	ND	ND	ND	ND	ND	0
54258	2016-04-06T17:00:00	85.5	ND	ND	ND	ND	ND	ND	ND	ND	ND	ND	0
54259	2016-04-06T18:00:00	52	ND	ND	ND	ND	ND	ND	ND	ND	ND	ND	0
54260	2016-04-06T19:00:00	48.4	ND	ND	ND	ND	ND	ND	ND	ND	ND	ND	0
54261	2016-04-06T20:00:00	23.2	ND	ND	ND	ND	ND	ND	ND	ND	ND	ND	0
54262	2016-04-06T21:00:00	19.4	ND	ND	ND	ND	ND	ND	ND	ND	ND	ND	0
54263	2016-04-06T22:00:00	46.5	ND	ND	ND	ND	ND	ND	ND	ND	ND	ND	0
54264	2016-04-06T23:00:00	31	ND	ND	ND	ND	ND	ND	ND	ND	ND	ND	0
54265	2016-04-07T00:00:00	16.6	ND	ND	ND	ND	ND	ND	ND	ND	ND	ND	0
54266	2016-04-07T01:00:00	31.1	ND	ND	ND	ND	ND	ND	ND	ND	ND	ND	0
54267	2016-04-07T02:00:00	42.6	ND	ND	ND	ND	ND	ND	ND	ND	ND	ND	0
54268	2016-04-07T03:00:00	33.5	ND	ND	ND	ND	ND	ND	ND	ND	ND	ND	0
54269	2016-04-07T04:00:00	27.6	ND	ND	ND	ND	ND	ND	ND	ND	ND	ND	0
54270	2016-04-07T05:00:00	106.1	ND	ND	ND	ND	ND	ND	ND	ND	ND	ND	0
54271	2016-04-07T06:00:00	102.4	ND	ND	ND	ND	ND	ND	ND	ND	ND	ND	0
54272	2016-04-07T07:00:00	96.5	ND	ND	ND	ND	ND	ND	ND	ND	ND	ND	0
54273	2016-04-07T08:00:00	95.1	ND	ND	ND	ND	ND	ND	ND	ND	ND	ND	0
54274	2016-04-07T09:00:00	98.8	ND	ND	ND	ND	ND	ND	ND	ND	ND	ND	0
54275	2016-04-07T10:00:00	91.7	ND	ND	ND	ND	ND	ND	ND	ND	ND	ND	0
54276	2016-04-07T11:00:00	58.5	ND	ND	ND	ND	ND	ND	ND	ND	ND	ND	0
54277	2016-04-07T12:00:00	56.9	ND	ND	ND	ND	ND	ND	ND	ND	ND	ND	0
54278	2016-04-07T13:00:00	46.3	ND	ND	ND	ND	ND	ND	ND	ND	ND	ND	0
54279	2016-04-07T14:00:00	67.6	ND	ND	ND	ND	ND	ND	ND	ND	ND	ND	0
54280	2016-04-07T15:00:00	55.9	ND	ND	ND	ND	ND	ND	ND	ND	ND	ND	0
54281	2016-04-07T16:00:00	50.7	ND	ND	ND	ND	ND	ND	ND	ND	ND	ND	0
54282	2016-04-07T17:00:00	27.3	ND	ND	ND	ND	ND	ND	ND	ND	ND	ND	0
54283	2016-04-07T18:00:00	17.3	ND	ND	ND	ND	ND	ND	ND	ND	ND	ND	0
54284	2016-04-07T19:00:00	1.9	ND	ND	ND	ND	ND	ND	ND	ND	ND	ND	0
54285	2016-04-07T20:00:00	34.7	ND	ND	ND	ND	ND	ND	ND	ND	ND	ND	0
54286	2016-04-07T21:00:00	19.8	ND	ND	ND	ND	ND	ND	ND	ND	ND	ND	0
54287	2016-04-07T22:00:00	11.7	ND	ND	ND	ND	ND	ND	ND	ND	ND	ND	0
54288	2016-04-07T23:00:00	87.1	ND	ND	ND	ND	ND	ND	ND	ND	ND	ND	0
54289	2016-04-08T00:00:00	78.1	ND	ND	ND	ND	ND	ND	ND	ND	ND	ND	0
54290	2016-04-08T01:00:00	57.7	ND	ND	ND	ND	ND	ND	ND	ND	ND	ND	0
54291	2016-04-08T02:00:00	33.9	ND	ND	ND	ND	ND	ND	ND	ND	ND	ND	0
54292	2016-04-08T03:00:00	28.4	ND	ND	ND	ND	ND	ND	ND	ND	ND	ND	0
54293	2016-04-08T04:00:00	48.6	ND	ND	ND	ND	ND	ND	ND	ND	ND	ND	0
54294	2016-04-08T05:00:00	52.7	ND	ND	ND	ND	ND	ND	ND	ND	ND	ND	0
54295	2016-04-08T06:00:00	62	ND	ND	ND	ND	ND	ND	ND	ND	ND	ND	0
54296	2016-04-08T07:00:00	80.6	ND	ND	ND	ND	ND	ND	ND	ND	ND	ND	0
54297	2016-04-08T08:00:00	89.5	ND	ND	ND	ND	ND	ND	ND	ND	ND	ND	0
54298	2016-04-08T09:00:00	94.1	ND	ND	ND	ND	ND	ND	ND	ND	ND	ND	0
54299	2016-04-08T10:00:00	72.9	ND	ND	ND	ND	ND	ND	ND	ND	ND	ND	0
54300	2016-04-08T11:00:00	66.1	ND	ND	ND	ND	ND	ND	ND	ND	ND	ND	0
54301	2016-04-08T12:00:00	59.2	ND	ND	ND	ND	ND	ND	ND	ND	ND	ND	0
54302	2016-04-08T13:00:00	58.5	ND	ND	ND	ND	ND	ND	ND	ND	ND	ND	0
54303	2016-04-08T14:00:00	89.9	ND	ND	ND	ND	ND	ND	ND	ND	ND	ND	0
54304	2016-04-08T15:00:00	85.9	ND	ND	ND	ND	ND	ND	ND	ND	ND	ND	0
54305	2016-04-08T16:00:00	39.4	ND	ND	ND	ND	ND	ND	ND	ND	ND	ND	0
54306	2016-04-08T17:00:00	46.1	ND	ND	ND	ND	ND	ND	ND	ND	ND	ND	0
54307	2016-04-08T18:00:00	40.5	ND	ND	ND	ND	ND	ND	ND	ND	ND	ND	0
54308	2016-04-08T19:00:00	33.7	ND	ND	ND	ND	ND	ND	ND	ND	ND	ND	0
54309	2016-04-08T20:00:00	27.5	ND	ND	ND	ND	ND	ND	ND	ND	ND	ND	0
54310	2016-04-08T21:00:00	32.8	ND	ND	ND	ND	ND	ND	ND	ND	ND	ND	0
54311	2016-04-08T22:00:00	21.3	ND	ND	ND	ND	ND	ND	ND	ND	ND	ND	0
54312	2016-04-08T23:00:00	51.2	ND	ND	ND	ND	ND	ND	ND	ND	ND	ND	0
54313	2016-04-09T00:00:00	60.9	ND	ND	ND	ND	ND	ND	ND	ND	ND	ND	0
54314	2016-04-09T01:00:00	34.9	ND	ND	ND	ND	ND	ND	ND	ND	ND	ND	0
54315	2016-04-09T02:00:00	22.8	ND	ND	ND	ND	ND	ND	ND	ND	ND	ND	0
54316	2016-04-09T03:00:00	19.5	ND	ND	ND	ND	ND	ND	ND	ND	ND	ND	0
54317	2016-04-09T04:00:00	23.4	ND	ND	ND	ND	ND	ND	ND	ND	ND	ND	0
54318	2016-04-09T05:00:00	16.4	ND	ND	ND	ND	ND	ND	ND	ND	ND	ND	0.25
54319	2016-04-09T06:00:00	18.9	ND	ND	ND	ND	ND	ND	ND	ND	ND	ND	0.25
54320	2016-04-09T07:00:00	41.2	ND	ND	ND	ND	ND	ND	ND	ND	ND	ND	1.52
54321	2016-04-09T08:00:00	52.4	ND	ND	ND	ND	ND	ND	ND	ND	ND	ND	11.18
54322	2016-04-09T09:00:00	25.2	ND	ND	ND	ND	ND	ND	ND	ND	ND	ND	0.25
54323	2016-04-09T10:00:00	71.1	ND	ND	ND	ND	ND	ND	ND	ND	ND	ND	3.3
54324	2016-04-09T11:00:00	54.7	ND	ND	ND	ND	ND	ND	ND	ND	ND	ND	0
54325	2016-04-09T12:00:00	45.5	ND	ND	ND	ND	ND	ND	ND	ND	ND	ND	0.25
54326	2016-04-09T13:00:00	39.2	ND	ND	ND	ND	ND	ND	ND	ND	ND	ND	0.25
54327	2016-04-09T14:00:00	29.1	ND	ND	ND	ND	ND	ND	ND	ND	ND	ND	0
54328	2016-04-09T15:00:00	38.3	ND	ND	ND	ND	ND	ND	ND	ND	ND	ND	0
54329	2016-04-09T16:00:00	84.7	ND	ND	ND	ND	ND	ND	ND	ND	ND	ND	0
54330	2016-04-09T17:00:00	53	ND	ND	ND	ND	ND	ND	ND	ND	ND	ND	0
54331	2016-04-09T18:00:00	70.3	ND	ND	ND	ND	ND	ND	ND	ND	ND	ND	0
54332	2016-04-09T19:00:00	74.1	ND	ND	ND	ND	ND	ND	ND	ND	ND	ND	0
54333	2016-04-09T20:00:00	75	ND	ND	ND	ND	ND	ND	ND	ND	ND	ND	0
54334	2016-04-09T21:00:00	54.3	ND	ND	ND	ND	ND	ND	ND	ND	ND	ND	0
54335	2016-04-09T22:00:00	61.2	ND	ND	ND	ND	ND	ND	ND	ND	ND	ND	0
54336	2016-04-09T23:00:00	45.9	ND	ND	ND	ND	ND	ND	ND	ND	ND	ND	0
54337	2016-04-10T00:00:00	13.5	ND	ND	ND	ND	ND	ND	ND	ND	ND	ND	0
54338	2016-04-10T01:00:00	48.3	ND	ND	ND	ND	ND	ND	ND	ND	ND	ND	0
54339	2016-04-10T02:00:00	29.4	ND	ND	ND	ND	ND	ND	ND	ND	ND	ND	0
54340	2016-04-10T03:00:00	40.5	ND	ND	ND	ND	ND	ND	ND	ND	ND	ND	0
54341	2016-04-10T04:00:00	30.1	ND	ND	ND	ND	ND	ND	ND	ND	ND	ND	0
54342	2016-04-10T05:00:00	38.8	ND	ND	ND	ND	ND	ND	ND	ND	ND	ND	0
54343	2016-04-10T06:00:00	37.6	ND	ND	ND	ND	ND	ND	ND	ND	ND	ND	0
54344	2016-04-10T07:00:00	71.6	ND	ND	ND	ND	ND	ND	ND	ND	ND	ND	0
54345	2016-04-10T08:00:00	64.7	ND	ND	ND	ND	ND	ND	ND	ND	ND	ND	0
54346	2016-04-10T09:00:00	60.5	ND	ND	ND	ND	ND	ND	ND	ND	ND	ND	0
54347	2016-04-10T10:00:00	58.4	ND	ND	ND	ND	ND	ND	ND	ND	ND	ND	0
54348	2016-04-10T11:00:00	49	ND	ND	ND	ND	ND	ND	ND	ND	ND	ND	0
54349	2016-04-10T12:00:00	45.8	ND	ND	ND	ND	ND	ND	ND	ND	ND	ND	0
54350	2016-04-10T13:00:00	48.6	ND	ND	ND	ND	ND	ND	ND	ND	ND	ND	0
54351	2016-04-10T14:00:00	36.6	ND	ND	ND	ND	ND	ND	ND	ND	ND	ND	0
54352	2016-04-10T15:00:00	53.3	ND	ND	ND	ND	ND	ND	ND	ND	ND	ND	0
54353	2016-04-10T16:00:00	63.5	ND	ND	ND	ND	ND	ND	ND	ND	ND	ND	0.76
54354	2016-04-10T17:00:00	34.6	ND	ND	ND	ND	ND	ND	ND	ND	ND	ND	0.25
54355	2016-04-10T18:00:00	6.4	ND	ND	ND	ND	ND	ND	ND	ND	ND	ND	0
54356	2016-04-10T19:00:00	19.8	ND	ND	ND	ND	ND	ND	ND	ND	ND	ND	0
54357	2016-04-10T20:00:00	16	ND	ND	ND	ND	ND	ND	ND	ND	ND	ND	0
54358	2016-04-10T21:00:00	28.5	ND	ND	ND	ND	ND	ND	ND	ND	ND	ND	0.25
54359	2016-04-10T22:00:00	24.5	ND	ND	ND	ND	ND	ND	ND	ND	ND	ND	0
54360	2016-04-10T23:00:00	26.4	ND	ND	ND	ND	ND	ND	ND	ND	ND	ND	0.25
54361	2016-04-11T00:00:00	13.5	ND	ND	ND	ND	ND	ND	ND	ND	ND	ND	0
54362	2016-04-11T01:00:00	5.3	ND	ND	ND	ND	ND	ND	ND	ND	ND	ND	0.76
54363	2016-04-11T02:00:00	6.1	ND	ND	ND	ND	ND	ND	ND	ND	ND	ND	0.25
54364	2016-04-11T03:00:00	9.7	ND	ND	ND	ND	ND	ND	ND	ND	ND	ND	0
54365	2016-04-11T04:00:00	3.4	ND	ND	ND	ND	ND	ND	ND	ND	ND	ND	0
54366	2016-04-11T05:00:00	1.5	ND	ND	ND	ND	ND	ND	ND	ND	ND	ND	0
54367	2016-04-11T06:00:00	9.8	ND	ND	ND	ND	ND	ND	ND	ND	ND	ND	0
54368	2016-04-11T07:00:00	13.6	ND	ND	ND	ND	ND	ND	ND	ND	ND	ND	0
54369	2016-04-11T08:00:00	108.4	ND	ND	ND	ND	ND	ND	ND	ND	ND	ND	0
54370	2016-04-11T09:00:00	92.5	ND	ND	ND	ND	ND	ND	ND	ND	ND	ND	0
54371	2016-04-11T10:00:00	65.5	ND	ND	ND	ND	ND	ND	ND	ND	ND	ND	0
54372	2016-04-11T11:00:00	45.9	ND	ND	ND	ND	ND	ND	ND	ND	ND	ND	0
54373	2016-04-11T12:00:00	44	ND	ND	ND	ND	ND	ND	ND	ND	ND	ND	0
54374	2016-04-11T13:00:00	34.1	ND	ND	ND	ND	ND	ND	ND	ND	ND	ND	0
54375	2016-04-11T14:00:00	37.6	ND	ND	ND	ND	ND	ND	ND	ND	ND	ND	0
54376	2016-04-11T15:00:00	41	ND	ND	ND	ND	ND	ND	ND	ND	ND	ND	0
54377	2016-04-11T16:00:00	14	ND	ND	ND	ND	ND	ND	ND	ND	ND	ND	0
54378	2016-04-11T17:00:00	15.5	ND	ND	ND	ND	ND	ND	ND	ND	ND	ND	0
54379	2016-04-11T18:00:00	83.4	ND	ND	ND	ND	ND	ND	ND	ND	ND	ND	0
54380	2016-04-11T19:00:00	75.7	ND	ND	ND	ND	ND	ND	ND	ND	ND	ND	0
54381	2016-04-11T20:00:00	82.2	ND	ND	ND	ND	ND	ND	ND	ND	ND	ND	0
54382	2016-04-11T21:00:00	57.7	ND	ND	ND	ND	ND	ND	ND	ND	ND	ND	0
54383	2016-04-11T22:00:00	32	ND	ND	ND	ND	ND	ND	ND	ND	ND	ND	0
54384	2016-04-11T23:00:00	34.6	ND	ND	ND	ND	ND	ND	ND	ND	ND	ND	17.78
54385	2016-04-12T00:00:00	29.8	ND	ND	ND	ND	ND	ND	ND	ND	ND	ND	4.06
54386	2016-04-12T01:00:00	11.9	ND	ND	ND	ND	ND	ND	ND	ND	ND	ND	5.33
54387	2016-04-12T02:00:00	2.6	ND	ND	ND	ND	ND	ND	ND	ND	ND	ND	5.59
54388	2016-04-12T03:00:00	3	ND	ND	ND	ND	ND	ND	ND	ND	ND	ND	5.59
54389	2016-04-12T04:00:00	1.9	ND	ND	ND	ND	ND	ND	ND	ND	ND	ND	7.11
54390	2016-04-12T05:00:00	6.6	ND	ND	ND	ND	ND	ND	ND	ND	ND	ND	1.78
54391	2016-04-12T06:00:00	32.6	ND	ND	ND	ND	ND	ND	ND	ND	ND	ND	0.25
54392	2016-04-12T07:00:00	45.7	ND	ND	ND	ND	ND	ND	ND	ND	ND	ND	0.25
54393	2016-04-12T08:00:00	39.7	ND	ND	ND	ND	ND	ND	ND	ND	ND	ND	0.25
54394	2016-04-12T09:00:00	30.3	ND	ND	ND	ND	ND	ND	ND	ND	ND	ND	1.02
54395	2016-04-12T10:00:00	25.2	ND	ND	ND	ND	ND	ND	ND	ND	ND	ND	10.67
54396	2016-04-12T11:00:00	10.9	ND	ND	ND	ND	ND	ND	ND	ND	ND	ND	7.62
54397	2016-04-12T12:00:00	17.6	ND	ND	ND	ND	ND	ND	ND	ND	ND	ND	1.02
54398	2016-04-12T13:00:00	22.7	ND	ND	ND	ND	ND	ND	ND	ND	ND	ND	0
54399	2016-04-12T14:00:00	23.3	ND	ND	ND	ND	ND	ND	ND	ND	ND	ND	0
54400	2016-04-12T15:00:00	38.4	ND	ND	ND	ND	ND	ND	ND	ND	ND	ND	0
54401	2016-04-12T16:00:00	73.9	ND	ND	ND	ND	ND	ND	ND	ND	ND	ND	0
54402	2016-04-12T17:00:00	59.9	ND	ND	ND	ND	ND	ND	ND	ND	ND	ND	0
54403	2016-04-12T18:00:00	55.4	ND	ND	ND	ND	ND	ND	ND	ND	ND	ND	0
54404	2016-04-12T19:00:00	51.6	ND	ND	ND	ND	ND	ND	ND	ND	ND	ND	0
54405	2016-04-12T20:00:00	46.4	ND	ND	ND	ND	ND	ND	ND	ND	ND	ND	0
54406	2016-04-12T21:00:00	56.4	ND	ND	ND	ND	ND	ND	ND	ND	ND	ND	0
54407	2016-04-12T22:00:00	57.1	ND	ND	ND	ND	ND	ND	ND	ND	ND	ND	0
54408	2016-04-12T23:00:00	64.7	ND	ND	ND	ND	ND	ND	ND	ND	ND	ND	0
54409	2016-04-13T00:00:00	53	ND	ND	ND	ND	ND	ND	ND	ND	ND	ND	0
54410	2016-04-13T01:00:00	35.3	ND	ND	ND	ND	ND	ND	ND	ND	ND	ND	0
54411	2016-04-13T02:00:00	19.2	ND	ND	ND	ND	ND	ND	ND	ND	ND	ND	0
54412	2016-04-13T03:00:00	34.4	ND	ND	ND	ND	ND	ND	ND	ND	ND	ND	0
54413	2016-04-13T04:00:00	25	ND	ND	ND	ND	ND	ND	ND	ND	ND	ND	0.25
54414	2016-04-13T05:00:00	37.3	ND	ND	ND	ND	ND	ND	ND	ND	ND	ND	0
54415	2016-04-13T06:00:00	44.7	ND	ND	ND	ND	ND	ND	ND	ND	ND	ND	0.51
54416	2016-04-13T07:00:00	47.8	ND	ND	ND	ND	ND	ND	ND	ND	ND	ND	0.25
54417	2016-04-13T08:00:00	67.4	ND	ND	ND	ND	ND	ND	ND	ND	ND	ND	0.51
54418	2016-04-13T09:00:00	76.6	ND	ND	ND	ND	ND	ND	ND	ND	ND	ND	13.72
54419	2016-04-13T10:00:00	67.2	ND	ND	ND	ND	ND	ND	ND	ND	ND	ND	6.6
54420	2016-04-13T11:00:00	55.3	ND	ND	ND	ND	ND	ND	ND	ND	ND	ND	0
54421	2016-04-13T12:00:00	47.3	ND	ND	ND	ND	ND	ND	ND	ND	ND	ND	0.25
54422	2016-04-13T13:00:00	45.6	ND	ND	ND	ND	ND	ND	ND	ND	ND	ND	0
54423	2016-04-13T14:00:00	42.4	ND	ND	ND	ND	ND	ND	ND	ND	ND	ND	0
54424	2016-04-13T15:00:00	32.4	ND	ND	ND	ND	ND	ND	ND	ND	ND	ND	0
54425	2016-04-13T16:00:00	21.6	ND	ND	ND	ND	ND	ND	ND	ND	ND	ND	0
54426	2016-04-13T17:00:00	74.9	ND	ND	ND	ND	ND	ND	ND	ND	ND	ND	0
54427	2016-04-13T18:00:00	79.9	ND	ND	ND	ND	ND	ND	ND	ND	ND	ND	0
54428	2016-04-13T19:00:00	23.3	ND	ND	ND	ND	ND	ND	ND	ND	ND	ND	0
54429	2016-04-13T20:00:00	0.4	ND	ND	ND	ND	ND	ND	ND	ND	ND	ND	0.25
54430	2016-04-13T21:00:00	29	ND	ND	ND	ND	ND	ND	ND	ND	ND	ND	0
54431	2016-04-13T22:00:00	24	ND	ND	ND	ND	ND	ND	ND	ND	ND	ND	0
54432	2016-04-13T23:00:00	2.5	ND	ND	ND	ND	ND	ND	ND	ND	ND	ND	0
54433	2016-04-14T00:00:00	19.6	ND	ND	ND	ND	ND	ND	ND	ND	ND	ND	0
54434	2016-04-14T01:00:00	26.4	ND	ND	ND	ND	ND	ND	ND	ND	ND	ND	0
54435	2016-04-14T02:00:00	20.3	ND	ND	ND	ND	ND	ND	ND	ND	ND	ND	0
54436	2016-04-14T03:00:00	13.1	ND	ND	ND	ND	ND	ND	ND	ND	ND	ND	0
54437	2016-04-14T04:00:00	1	ND	ND	ND	ND	ND	ND	ND	ND	ND	ND	0
54438	2016-04-14T05:00:00	31.6	ND	ND	ND	ND	ND	ND	ND	ND	ND	ND	0
54439	2016-04-14T06:00:00	92.4	ND	ND	ND	ND	ND	ND	ND	ND	ND	ND	0
54440	2016-04-14T07:00:00	69.6	ND	ND	ND	ND	ND	ND	ND	ND	ND	ND	0
54441	2016-04-14T08:00:00	101.3	ND	ND	ND	ND	ND	ND	ND	ND	ND	ND	0
54442	2016-04-14T09:00:00	116.6	ND	ND	ND	ND	ND	ND	ND	ND	ND	ND	0
54443	2016-04-14T10:00:00	97.4	ND	ND	ND	ND	ND	ND	ND	ND	ND	ND	0
54444	2016-04-14T11:00:00	74.5	ND	ND	ND	ND	ND	ND	ND	ND	ND	ND	0
54445	2016-04-14T12:00:00	76.6	ND	ND	ND	ND	ND	ND	ND	ND	ND	ND	0
54446	2016-04-14T13:00:00	79.6	ND	ND	ND	ND	ND	ND	ND	ND	ND	ND	0
54447	2016-04-14T14:00:00	70.5	ND	ND	ND	ND	ND	ND	ND	ND	ND	ND	0
54448	2016-04-14T15:00:00	87.4	ND	ND	ND	ND	ND	ND	ND	ND	ND	ND	0
54449	2016-04-14T16:00:00	48.4	ND	ND	ND	ND	ND	ND	ND	ND	ND	ND	0
54450	2016-04-14T17:00:00	13.1	ND	ND	ND	ND	ND	ND	ND	ND	ND	ND	0
54451	2016-04-14T18:00:00	3.2	ND	ND	ND	ND	ND	ND	ND	ND	ND	ND	0
54452	2016-04-14T19:00:00	3.1	ND	ND	ND	ND	ND	ND	ND	ND	ND	ND	0
54453	2016-04-14T20:00:00	10.9	ND	ND	ND	ND	ND	ND	ND	ND	ND	ND	0
54454	2016-04-14T21:00:00	35.9	ND	ND	ND	ND	ND	ND	ND	ND	ND	ND	0
54455	2016-04-14T22:00:00	55.7	ND	ND	ND	ND	ND	ND	ND	ND	ND	ND	0
54456	2016-04-14T23:00:00	33.6	ND	ND	ND	ND	ND	ND	ND	ND	ND	ND	0
54457	2016-04-15T00:00:00	53.5	ND	ND	ND	ND	ND	ND	ND	ND	ND	ND	0
54458	2016-04-15T01:00:00	58.6	ND	ND	ND	ND	ND	ND	ND	ND	ND	ND	0
54459	2016-04-15T02:00:00	48.2	ND	ND	ND	ND	ND	ND	ND	ND	ND	ND	0
54460	2016-04-15T03:00:00	49.4	ND	ND	ND	ND	ND	ND	ND	ND	ND	ND	0
54461	2016-04-15T04:00:00	29.5	ND	ND	ND	ND	ND	ND	ND	ND	ND	ND	0
54462	2016-04-15T05:00:00	67.7	ND	ND	ND	ND	ND	ND	ND	ND	ND	ND	0
54463	2016-04-15T06:00:00	58.2	ND	ND	ND	ND	ND	ND	ND	ND	ND	ND	0
54464	2016-04-15T07:00:00	87.3	ND	ND	ND	ND	ND	ND	ND	ND	ND	ND	0
54465	2016-04-15T08:00:00	74.8	ND	ND	ND	ND	ND	ND	ND	ND	ND	ND	0
54466	2016-04-15T09:00:00	101.6	ND	ND	ND	ND	ND	ND	ND	ND	ND	ND	0
54467	2016-04-15T10:00:00	92.7	ND	ND	ND	ND	ND	ND	ND	ND	ND	ND	0
54468	2016-04-15T11:00:00	56	ND	ND	ND	ND	ND	ND	ND	ND	ND	ND	0
54469	2016-04-15T12:00:00	59.4	ND	ND	ND	ND	ND	ND	ND	ND	ND	ND	0
54470	2016-04-15T13:00:00	33.6	ND	ND	ND	ND	ND	ND	ND	ND	ND	ND	0
54471	2016-04-15T14:00:00	80.4	ND	ND	ND	ND	ND	ND	ND	ND	ND	ND	0
54472	2016-04-15T15:00:00	94.3	ND	ND	ND	ND	ND	ND	ND	ND	ND	ND	0
54473	2016-04-15T16:00:00	74.3	ND	ND	ND	ND	ND	ND	ND	ND	ND	ND	0
54474	2016-04-15T17:00:00	56.1	ND	ND	ND	ND	ND	ND	ND	ND	ND	ND	0
54475	2016-04-15T18:00:00	37.5	ND	ND	ND	ND	ND	ND	ND	ND	ND	ND	0
54476	2016-04-15T19:00:00	38.7	ND	ND	ND	ND	ND	ND	ND	ND	ND	ND	0
54477	2016-04-15T20:00:00	24.6	ND	ND	ND	ND	ND	ND	ND	ND	ND	ND	0
54478	2016-04-15T21:00:00	18.1	ND	ND	ND	ND	ND	ND	ND	ND	ND	ND	0
54479	2016-04-15T22:00:00	11.4	ND	ND	ND	ND	ND	ND	ND	ND	ND	ND	0
54480	2016-04-15T23:00:00	36	ND	ND	ND	ND	ND	ND	ND	ND	ND	ND	0
54481	2016-04-16T00:00:00	30.1	ND	ND	ND	ND	ND	ND	ND	ND	ND	ND	0
54482	2016-04-16T01:00:00	15.2	ND	ND	ND	ND	ND	ND	ND	ND	ND	ND	0
54483	2016-04-16T02:00:00	6.8	ND	ND	ND	ND	ND	ND	ND	ND	ND	ND	21.34
54484	2016-04-16T03:00:00	ND	ND	ND	ND	ND	ND	ND	ND	ND	ND	ND	3.81
54485	2016-04-16T04:00:00	ND	ND	ND	ND	ND	ND	ND	ND	ND	ND	ND	0
54486	2016-04-16T05:00:00	ND	ND	ND	ND	ND	ND	ND	ND	ND	ND	ND	0.25
54487	2016-04-16T06:00:00	66.4	ND	ND	ND	ND	ND	ND	ND	ND	ND	ND	0
54488	2016-04-16T07:00:00	32.4	ND	ND	ND	ND	ND	ND	ND	ND	ND	ND	0
54489	2016-04-16T08:00:00	60.7	ND	ND	ND	ND	ND	ND	ND	ND	ND	ND	0
54490	2016-04-16T09:00:00	66.8	ND	ND	ND	ND	ND	ND	ND	ND	ND	ND	0
54491	2016-04-16T10:00:00	46	ND	ND	ND	ND	ND	ND	ND	ND	ND	ND	0
54492	2016-04-16T11:00:00	44.9	ND	ND	ND	ND	ND	ND	ND	ND	ND	ND	0
54493	2016-04-16T12:00:00	80.2	ND	ND	ND	ND	ND	ND	ND	ND	ND	ND	0
54494	2016-04-16T13:00:00	58.8	ND	ND	ND	ND	ND	ND	ND	ND	ND	ND	0
54495	2016-04-16T14:00:00	38.5	ND	ND	ND	ND	ND	ND	ND	ND	ND	ND	0
54496	2016-04-16T15:00:00	38.5	ND	ND	ND	ND	ND	ND	ND	ND	ND	ND	0
54497	2016-04-16T16:00:00	34.7	ND	ND	ND	ND	ND	ND	ND	ND	ND	ND	0
54498	2016-04-16T17:00:00	21.7	ND	ND	ND	ND	ND	ND	ND	ND	ND	ND	0
54499	2016-04-16T18:00:00	2.3	ND	ND	ND	ND	ND	ND	ND	ND	ND	ND	0
54500	2016-04-16T19:00:00	2.7	ND	ND	ND	ND	ND	ND	ND	ND	ND	ND	0
54501	2016-04-16T20:00:00	51.7	ND	ND	ND	ND	ND	ND	ND	ND	ND	ND	0
54502	2016-04-16T21:00:00	35.5	ND	ND	ND	ND	ND	ND	ND	ND	ND	ND	0
54503	2016-04-16T22:00:00	35.5	ND	ND	ND	ND	ND	ND	ND	ND	ND	ND	0
54504	2016-04-16T23:00:00	43.6	ND	ND	ND	ND	ND	ND	ND	ND	ND	ND	0
54505	2016-04-17T00:00:00	74.4	ND	ND	ND	ND	ND	ND	ND	ND	ND	ND	0
54506	2016-04-17T01:00:00	74.9	ND	ND	ND	ND	ND	ND	ND	ND	ND	ND	0
54507	2016-04-17T02:00:00	54.5	ND	ND	ND	ND	ND	ND	ND	ND	ND	ND	0
54508	2016-04-17T03:00:00	35.5	ND	ND	ND	ND	ND	ND	ND	ND	ND	ND	0
54509	2016-04-17T04:00:00	32.9	ND	ND	ND	ND	ND	ND	ND	ND	ND	ND	0
54510	2016-04-17T05:00:00	45.8	ND	ND	ND	ND	ND	ND	ND	ND	ND	ND	0
54511	2016-04-17T06:00:00	43.9	ND	ND	ND	ND	ND	ND	ND	ND	ND	ND	0
54512	2016-04-17T07:00:00	42.4	ND	ND	ND	ND	ND	ND	ND	ND	ND	ND	0
54513	2016-04-17T08:00:00	57	ND	ND	ND	ND	ND	ND	ND	ND	ND	ND	0
54514	2016-04-17T09:00:00	53.1	ND	ND	ND	ND	ND	ND	ND	ND	ND	ND	0
54515	2016-04-17T10:00:00	40.5	ND	ND	ND	ND	ND	ND	ND	ND	ND	ND	0
54516	2016-04-17T11:00:00	42.7	ND	ND	ND	ND	ND	ND	ND	ND	ND	ND	0
54517	2016-04-17T12:00:00	51.6	ND	ND	ND	ND	ND	ND	ND	ND	ND	ND	0
54518	2016-04-17T13:00:00	46.3	ND	ND	ND	ND	ND	ND	ND	ND	ND	ND	0
54519	2016-04-17T14:00:00	48	ND	ND	ND	ND	ND	ND	ND	ND	ND	ND	0
54520	2016-04-17T15:00:00	52.7	ND	ND	ND	ND	ND	ND	ND	ND	ND	ND	0
54521	2016-04-17T16:00:00	52.8	ND	ND	ND	ND	ND	ND	ND	ND	ND	ND	0
54522	2016-04-17T17:00:00	40.6	ND	ND	ND	ND	ND	ND	ND	ND	ND	ND	0
54523	2016-04-17T18:00:00	46.2	ND	ND	ND	ND	ND	ND	ND	ND	ND	ND	0
54524	2016-04-17T19:00:00	17.9	ND	ND	ND	ND	ND	ND	ND	ND	ND	ND	0
54525	2016-04-17T20:00:00	2.6	ND	ND	ND	ND	ND	ND	ND	ND	ND	ND	0
54526	2016-04-17T21:00:00	34.6	ND	ND	ND	ND	ND	ND	ND	ND	ND	ND	0
54527	2016-04-17T22:00:00	28.2	ND	ND	ND	ND	ND	ND	ND	ND	ND	ND	0
54528	2016-04-17T23:00:00	43.4	ND	ND	ND	ND	ND	ND	ND	ND	ND	ND	0
54529	2016-04-18T00:00:00	29.1	ND	ND	ND	ND	ND	ND	ND	ND	ND	ND	0
54530	2016-04-18T01:00:00	18.3	ND	ND	ND	ND	ND	ND	ND	ND	ND	ND	0
54531	2016-04-18T02:00:00	41.2	ND	ND	ND	ND	ND	ND	ND	ND	ND	ND	0
54532	2016-04-18T03:00:00	39.9	ND	ND	ND	ND	ND	ND	ND	ND	ND	ND	21.08
54533	2016-04-18T04:00:00	33.6	ND	ND	ND	ND	ND	ND	ND	ND	ND	ND	0.25
54534	2016-04-18T05:00:00	20.6	ND	ND	ND	ND	ND	ND	ND	ND	ND	ND	0
54535	2016-04-18T06:00:00	54.3	ND	ND	ND	ND	ND	ND	ND	ND	ND	ND	0.25
54536	2016-04-18T07:00:00	76.2	ND	ND	ND	ND	ND	ND	ND	ND	ND	ND	0
54537	2016-04-18T08:00:00	88.3	ND	ND	ND	ND	ND	ND	ND	ND	ND	ND	0
54538	2016-04-18T09:00:00	69.6	ND	ND	ND	ND	ND	ND	ND	ND	ND	ND	0
54539	2016-04-18T10:00:00	89.4	ND	ND	ND	ND	ND	ND	ND	ND	ND	ND	0
54540	2016-04-18T11:00:00	78.2	ND	ND	ND	ND	ND	ND	ND	ND	ND	ND	0
54541	2016-04-18T12:00:00	69.4	ND	ND	ND	ND	ND	ND	ND	ND	ND	ND	0
54542	2016-04-18T13:00:00	58.7	ND	ND	ND	ND	ND	ND	ND	ND	ND	ND	0
54543	2016-04-18T14:00:00	46.2	ND	ND	ND	ND	ND	ND	ND	ND	ND	ND	0
54544	2016-04-18T15:00:00	57.1	ND	ND	ND	ND	ND	ND	ND	ND	ND	ND	0
54545	2016-04-18T16:00:00	64.4	ND	ND	ND	ND	ND	ND	ND	ND	ND	ND	0
54546	2016-04-18T17:00:00	33.9	ND	ND	ND	ND	ND	ND	ND	ND	ND	ND	0
54547	2016-04-18T18:00:00	30.6	ND	ND	ND	ND	ND	ND	ND	ND	ND	ND	0
54548	2016-04-18T19:00:00	16.1	ND	ND	ND	ND	ND	ND	ND	ND	ND	ND	0
54549	2016-04-18T20:00:00	13.6	ND	ND	ND	ND	ND	ND	ND	ND	ND	ND	0
54550	2016-04-18T21:00:00	8.8	ND	ND	ND	ND	ND	ND	ND	ND	ND	ND	0
54551	2016-04-18T22:00:00	46.2	ND	ND	ND	ND	ND	ND	ND	ND	ND	ND	0
54552	2016-04-18T23:00:00	69.4	ND	ND	ND	ND	ND	ND	ND	ND	ND	ND	0
54553	2016-04-19T00:00:00	59.3	ND	ND	ND	ND	ND	ND	ND	ND	ND	ND	0
54554	2016-04-19T01:00:00	64.1	ND	ND	ND	ND	ND	ND	ND	ND	ND	ND	0
54555	2016-04-19T02:00:00	70.6	ND	ND	ND	ND	ND	ND	ND	ND	ND	ND	0
54556	2016-04-19T03:00:00	48	ND	ND	ND	ND	ND	ND	ND	ND	ND	ND	0
54557	2016-04-19T04:00:00	41.2	ND	ND	ND	ND	ND	ND	ND	ND	ND	ND	0
54558	2016-04-19T05:00:00	53.5	ND	ND	ND	ND	ND	ND	ND	ND	ND	ND	0
54559	2016-04-19T06:00:00	51.6	ND	ND	ND	ND	ND	ND	ND	ND	ND	ND	0
54560	2016-04-19T07:00:00	78.7	ND	ND	ND	ND	ND	ND	ND	ND	ND	ND	0
54561	2016-04-19T08:00:00	97.5	ND	ND	ND	ND	ND	ND	ND	ND	ND	ND	0
54562	2016-04-19T09:00:00	95.6	ND	ND	ND	ND	ND	ND	ND	ND	ND	ND	0
54563	2016-04-19T10:00:00	72.6	ND	ND	ND	ND	ND	ND	ND	ND	ND	ND	0
54564	2016-04-19T11:00:00	85.4	ND	ND	ND	ND	ND	ND	ND	ND	ND	ND	0
54565	2016-04-19T12:00:00	77.2	ND	ND	ND	ND	ND	ND	ND	ND	ND	ND	0
54566	2016-04-19T13:00:00	74.5	ND	ND	ND	ND	ND	ND	ND	ND	ND	ND	0
54567	2016-04-19T14:00:00	61.7	ND	ND	ND	ND	ND	ND	ND	ND	ND	ND	0
54568	2016-04-19T15:00:00	62.1	ND	ND	ND	ND	ND	ND	ND	ND	ND	ND	0
54569	2016-04-19T16:00:00	51.7	ND	ND	ND	ND	ND	ND	ND	ND	ND	ND	0
54570	2016-04-19T17:00:00	46.8	ND	ND	ND	ND	ND	ND	ND	ND	ND	ND	0
54571	2016-04-19T18:00:00	34.2	ND	ND	ND	ND	ND	ND	ND	ND	ND	ND	0
54572	2016-04-19T19:00:00	42.5	ND	ND	ND	ND	ND	ND	ND	ND	ND	ND	0
54573	2016-04-19T20:00:00	24.8	ND	ND	ND	ND	ND	ND	ND	ND	ND	ND	0
54574	2016-04-19T21:00:00	31.8	ND	ND	ND	ND	ND	ND	ND	ND	ND	ND	0
54575	2016-04-19T22:00:00	16.3	ND	ND	ND	ND	ND	ND	ND	ND	ND	ND	0
54576	2016-04-19T23:00:00	30.2	ND	ND	ND	ND	ND	ND	ND	ND	ND	ND	0
54577	2016-04-20T00:00:00	42.1	ND	ND	ND	ND	ND	ND	ND	ND	ND	ND	0
54578	2016-04-20T01:00:00	49.6	ND	ND	ND	ND	ND	ND	ND	ND	ND	ND	0
54579	2016-04-20T02:00:00	18.4	ND	ND	ND	ND	ND	ND	ND	ND	ND	ND	0
54580	2016-04-20T03:00:00	24.6	ND	ND	ND	ND	ND	ND	ND	ND	ND	ND	0
54581	2016-04-20T04:00:00	56	ND	ND	ND	ND	ND	ND	ND	ND	ND	ND	0
54582	2016-04-20T05:00:00	66	ND	ND	ND	ND	ND	ND	ND	ND	ND	ND	0
54583	2016-04-20T06:00:00	66.2	ND	ND	ND	ND	ND	ND	ND	ND	ND	ND	0
54584	2016-04-20T07:00:00	67.5	ND	ND	ND	ND	ND	ND	ND	ND	ND	ND	0
54585	2016-04-20T08:00:00	76.4	ND	ND	ND	ND	ND	ND	ND	ND	ND	ND	0
54586	2016-04-20T09:00:00	78.7	ND	ND	ND	ND	ND	ND	ND	ND	ND	ND	0
54587	2016-04-20T10:00:00	124.3	ND	ND	ND	ND	ND	ND	ND	ND	ND	ND	0
54588	2016-04-20T11:00:00	158.9	ND	ND	ND	ND	ND	ND	ND	ND	ND	ND	0
54589	2016-04-20T12:00:00	134.1	ND	ND	ND	ND	ND	ND	ND	ND	ND	ND	0
54590	2016-04-20T13:00:00	49.8	ND	ND	ND	ND	ND	ND	ND	ND	ND	ND	0
54591	2016-04-20T14:00:00	71.9	ND	ND	ND	ND	ND	ND	ND	ND	ND	ND	0
54592	2016-04-20T15:00:00	73.6	ND	ND	ND	ND	ND	ND	ND	ND	ND	ND	0
54593	2016-04-20T16:00:00	39.9	ND	ND	ND	ND	ND	ND	ND	ND	ND	ND	0
54594	2016-04-20T17:00:00	30.5	ND	ND	ND	ND	ND	ND	ND	ND	ND	ND	0
54595	2016-04-20T18:00:00	59.1	ND	ND	ND	ND	ND	ND	ND	ND	ND	ND	0
54596	2016-04-20T19:00:00	29.1	ND	ND	ND	ND	ND	ND	ND	ND	ND	ND	0
54597	2016-04-20T20:00:00	23.9	ND	ND	ND	ND	ND	ND	ND	ND	ND	ND	0
54598	2016-04-20T21:00:00	17.1	ND	ND	ND	ND	ND	ND	ND	ND	ND	ND	0
54599	2016-04-20T22:00:00	3.8	ND	ND	ND	ND	ND	ND	ND	ND	ND	ND	0
54600	2016-04-20T23:00:00	9.7	ND	ND	ND	ND	ND	ND	ND	ND	ND	ND	0
54601	2016-04-21T00:00:00	45.6	ND	ND	ND	ND	ND	ND	ND	ND	ND	ND	0
54602	2016-04-21T01:00:00	60.1	ND	ND	ND	ND	ND	ND	ND	ND	ND	ND	0
54603	2016-04-21T02:00:00	53	ND	ND	ND	ND	ND	ND	ND	ND	ND	ND	0
54604	2016-04-21T03:00:00	34.9	ND	ND	ND	ND	ND	ND	ND	ND	ND	ND	0
54605	2016-04-21T04:00:00	32	ND	ND	ND	ND	ND	ND	ND	ND	ND	ND	0
54606	2016-04-21T05:00:00	25.2	ND	ND	ND	ND	ND	ND	ND	ND	ND	ND	0
54607	2016-04-21T06:00:00	5.8	ND	ND	ND	ND	ND	ND	ND	ND	ND	ND	0
54608	2016-04-21T07:00:00	59.7	ND	ND	ND	ND	ND	ND	ND	ND	ND	ND	0
54609	2016-04-21T08:00:00	78.9	ND	ND	ND	ND	ND	ND	ND	ND	ND	ND	0
54610	2016-04-21T09:00:00	65.3	ND	ND	ND	ND	ND	ND	ND	ND	ND	ND	0
54611	2016-04-21T10:00:00	74.8	ND	ND	ND	ND	ND	ND	ND	ND	ND	ND	0
54612	2016-04-21T11:00:00	84.1	ND	ND	ND	ND	ND	ND	ND	ND	ND	ND	0
54613	2016-04-21T12:00:00	21.2	ND	ND	ND	ND	ND	ND	ND	ND	ND	ND	0
54614	2016-04-21T13:00:00	64.6	ND	ND	ND	ND	ND	ND	ND	ND	ND	ND	0
54615	2016-04-21T14:00:00	92.8	ND	ND	ND	ND	ND	ND	ND	ND	ND	ND	0
54616	2016-04-21T15:00:00	66.5	ND	ND	ND	ND	ND	ND	ND	ND	ND	ND	0
54617	2016-04-21T16:00:00	45.5	ND	ND	ND	ND	ND	ND	ND	ND	ND	ND	0
54618	2016-04-21T17:00:00	40.7	ND	ND	ND	ND	ND	ND	ND	ND	ND	ND	0
54619	2016-04-21T18:00:00	42.8	ND	ND	ND	ND	ND	ND	ND	ND	ND	ND	0
54620	2016-04-21T19:00:00	39.6	ND	ND	ND	ND	ND	ND	ND	ND	ND	ND	0
54621	2016-04-21T20:00:00	20	ND	ND	ND	ND	ND	ND	ND	ND	ND	ND	0
54622	2016-04-21T21:00:00	14.9	ND	ND	ND	ND	ND	ND	ND	ND	ND	ND	0
54623	2016-04-21T22:00:00	17.1	ND	ND	ND	ND	ND	ND	ND	ND	ND	ND	0
54624	2016-04-21T23:00:00	15.2	ND	ND	ND	ND	ND	ND	ND	ND	ND	ND	0
54625	2016-04-22T00:00:00	19.7	ND	ND	ND	ND	ND	ND	ND	ND	ND	ND	0
54626	2016-04-22T01:00:00	47.1	ND	ND	ND	ND	ND	ND	ND	ND	ND	ND	0
54627	2016-04-22T02:00:00	45.7	ND	ND	ND	ND	ND	ND	ND	ND	ND	ND	0
54628	2016-04-22T03:00:00	44.4	ND	ND	ND	ND	ND	ND	ND	ND	ND	ND	0
54629	2016-04-22T04:00:00	42.9	ND	ND	ND	ND	ND	ND	ND	ND	ND	ND	0
54630	2016-04-22T05:00:00	40.9	ND	ND	ND	ND	ND	ND	ND	ND	ND	ND	0
54631	2016-04-22T06:00:00	49.5	ND	ND	ND	ND	ND	ND	ND	ND	ND	ND	0
54632	2016-04-22T07:00:00	64.2	ND	ND	ND	ND	ND	ND	ND	ND	ND	ND	0
54633	2016-04-22T08:00:00	70	ND	ND	ND	ND	ND	ND	ND	ND	ND	ND	0
54634	2016-04-22T09:00:00	60.6	ND	ND	ND	ND	ND	ND	ND	ND	ND	ND	0
54635	2016-04-22T10:00:00	76.2	ND	ND	ND	ND	ND	ND	ND	ND	ND	ND	0
54636	2016-04-22T11:00:00	83.4	ND	ND	ND	ND	ND	ND	ND	ND	ND	ND	0
54637	2016-04-22T12:00:00	79.5	ND	ND	ND	ND	ND	ND	ND	ND	ND	ND	0
54638	2016-04-22T13:00:00	75.1	ND	ND	ND	ND	ND	ND	ND	ND	ND	ND	0
54639	2016-04-22T14:00:00	54.9	ND	ND	ND	ND	ND	ND	ND	ND	ND	ND	0
54640	2016-04-22T15:00:00	60.4	ND	ND	ND	ND	ND	ND	ND	ND	ND	ND	0
54641	2016-04-22T16:00:00	59.4	ND	ND	ND	ND	ND	ND	ND	ND	ND	ND	0
54642	2016-04-22T17:00:00	79.6	ND	ND	ND	ND	ND	ND	ND	ND	ND	ND	0
54643	2016-04-22T18:00:00	43.6	ND	ND	ND	ND	ND	ND	ND	ND	ND	ND	0
54644	2016-04-22T19:00:00	35	ND	ND	ND	ND	ND	ND	ND	ND	ND	ND	0
54645	2016-04-22T20:00:00	19.8	ND	ND	ND	ND	ND	ND	ND	ND	ND	ND	0
54646	2016-04-22T21:00:00	4.3	ND	ND	ND	ND	ND	ND	ND	ND	ND	ND	0
54647	2016-04-22T22:00:00	11	ND	ND	ND	ND	ND	ND	ND	ND	ND	ND	0
54648	2016-04-22T23:00:00	56.1	ND	ND	ND	ND	ND	ND	ND	ND	ND	ND	0
54649	2016-04-23T00:00:00	70.3	ND	ND	ND	ND	ND	ND	ND	ND	ND	ND	0
54650	2016-04-23T01:00:00	16.2	ND	ND	ND	ND	ND	ND	ND	ND	ND	ND	0
54651	2016-04-23T02:00:00	33.5	ND	ND	ND	ND	ND	ND	ND	ND	ND	ND	0
54652	2016-04-23T03:00:00	86.8	ND	ND	ND	ND	ND	ND	ND	ND	ND	ND	0
54653	2016-04-23T04:00:00	45.3	ND	ND	ND	ND	ND	ND	ND	ND	ND	ND	0
54654	2016-04-23T05:00:00	33.5	ND	ND	ND	ND	ND	ND	ND	ND	ND	ND	0
54655	2016-04-23T06:00:00	17.5	ND	ND	ND	ND	ND	ND	ND	ND	ND	ND	0
54656	2016-04-23T07:00:00	38.7	ND	ND	ND	ND	ND	ND	ND	ND	ND	ND	0
54657	2016-04-23T08:00:00	93.6	ND	ND	ND	ND	ND	ND	ND	ND	ND	ND	0
54658	2016-04-23T09:00:00	103.5	ND	ND	ND	ND	ND	ND	ND	ND	ND	ND	0
54659	2016-04-23T10:00:00	75.8	ND	ND	ND	ND	ND	ND	ND	ND	ND	ND	0
54660	2016-04-23T11:00:00	39	ND	ND	ND	ND	ND	ND	ND	ND	ND	ND	0
54661	2016-04-23T12:00:00	39.9	ND	ND	ND	ND	ND	ND	ND	ND	ND	ND	0
54662	2016-04-23T13:00:00	25.6	ND	ND	ND	ND	ND	ND	ND	ND	ND	ND	0
54663	2016-04-23T14:00:00	27.7	ND	ND	ND	ND	ND	ND	ND	ND	ND	ND	0
54664	2016-04-23T15:00:00	58.1	ND	ND	ND	ND	ND	ND	ND	ND	ND	ND	0
54665	2016-04-23T16:00:00	46.6	ND	ND	ND	ND	ND	ND	ND	ND	ND	ND	0
54666	2016-04-23T17:00:00	13.3	ND	ND	ND	ND	ND	ND	ND	ND	ND	ND	0
54667	2016-04-23T18:00:00	20.7	ND	ND	ND	ND	ND	ND	ND	ND	ND	ND	0
54668	2016-04-23T19:00:00	1	ND	ND	ND	ND	ND	ND	ND	ND	ND	ND	0
54669	2016-04-23T20:00:00	5.3	ND	ND	ND	ND	ND	ND	ND	ND	ND	ND	0
54670	2016-04-23T21:00:00	51.4	ND	ND	ND	ND	ND	ND	ND	ND	ND	ND	0
54671	2016-04-23T22:00:00	55.6	ND	ND	ND	ND	ND	ND	ND	ND	ND	ND	0
54672	2016-04-23T23:00:00	42.8	ND	ND	ND	ND	ND	ND	ND	ND	ND	ND	0
54673	2016-04-24T00:00:00	35.8	ND	ND	ND	ND	ND	ND	ND	ND	ND	ND	0
54674	2016-04-24T01:00:00	59.3	ND	ND	ND	ND	ND	ND	ND	ND	ND	ND	0
54675	2016-04-24T02:00:00	57.8	ND	ND	ND	ND	ND	ND	ND	ND	ND	ND	0
54676	2016-04-24T03:00:00	41.8	ND	ND	ND	ND	ND	ND	ND	ND	ND	ND	0
54677	2016-04-24T04:00:00	17.8	ND	ND	ND	ND	ND	ND	ND	ND	ND	ND	0
54678	2016-04-24T05:00:00	1.4	ND	ND	ND	ND	ND	ND	ND	ND	ND	ND	0
54679	2016-04-24T06:00:00	32.4	ND	ND	ND	ND	ND	ND	ND	ND	ND	ND	0
54680	2016-04-24T07:00:00	64.2	ND	ND	ND	ND	ND	ND	ND	ND	ND	ND	0
54681	2016-04-24T08:00:00	57.3	ND	ND	ND	ND	ND	ND	ND	ND	ND	ND	0
54682	2016-04-24T09:00:00	58.6	ND	ND	ND	ND	ND	ND	ND	ND	ND	ND	0
54683	2016-04-24T10:00:00	53.8	ND	ND	ND	ND	ND	ND	ND	ND	ND	ND	0
54684	2016-04-24T11:00:00	47.8	ND	ND	ND	ND	ND	ND	ND	ND	ND	ND	0
54685	2016-04-24T12:00:00	50	ND	ND	ND	ND	ND	ND	ND	ND	ND	ND	0
54686	2016-04-24T13:00:00	26	ND	ND	ND	ND	ND	ND	ND	ND	ND	ND	0
54687	2016-04-24T14:00:00	35	ND	ND	ND	ND	ND	ND	ND	ND	ND	ND	2.03
54688	2016-04-24T15:00:00	31.6	ND	ND	ND	ND	ND	ND	ND	ND	ND	ND	0
54689	2016-04-24T16:00:00	23.4	ND	ND	ND	ND	ND	ND	ND	ND	ND	ND	0
54690	2016-04-24T17:00:00	34.1	ND	ND	ND	ND	ND	ND	ND	ND	ND	ND	0
54691	2016-04-24T18:00:00	39.7	ND	ND	ND	ND	ND	ND	ND	ND	ND	ND	12.45
54692	2016-04-24T19:00:00	23.3	ND	ND	ND	ND	ND	ND	ND	ND	ND	ND	9.14
54693	2016-04-24T20:00:00	10.9	ND	ND	ND	ND	ND	ND	ND	ND	ND	ND	1.52
54694	2016-04-24T21:00:00	18	ND	ND	ND	ND	ND	ND	ND	ND	ND	ND	0.25
54695	2016-04-24T22:00:00	20.4	ND	ND	ND	ND	ND	ND	ND	ND	ND	ND	0
54696	2016-04-24T23:00:00	23.6	ND	ND	ND	ND	ND	ND	ND	ND	ND	ND	0
54697	2016-04-25T00:00:00	22.1	ND	ND	ND	ND	ND	ND	ND	ND	ND	ND	0
54698	2016-04-25T01:00:00	12.8	ND	ND	ND	ND	ND	ND	ND	ND	ND	ND	0.25
54699	2016-04-25T02:00:00	12.1	ND	ND	ND	ND	ND	ND	ND	ND	ND	ND	0
54700	2016-04-25T03:00:00	20	ND	ND	ND	ND	ND	ND	ND	ND	ND	ND	0
54701	2016-04-25T04:00:00	30.1	ND	ND	ND	ND	ND	ND	ND	ND	ND	ND	0
54702	2016-04-25T05:00:00	31.4	ND	ND	ND	ND	ND	ND	ND	ND	ND	ND	0
54703	2016-04-25T06:00:00	28	ND	ND	ND	ND	ND	ND	ND	ND	ND	ND	0
54704	2016-04-25T07:00:00	43	ND	ND	ND	ND	ND	ND	ND	ND	ND	ND	0
54705	2016-04-25T08:00:00	35.4	ND	ND	ND	ND	ND	ND	ND	ND	ND	ND	0
54706	2016-04-25T09:00:00	45.9	ND	ND	ND	ND	ND	ND	ND	ND	ND	ND	0
54707	2016-04-25T10:00:00	42.3	ND	ND	ND	ND	ND	ND	ND	ND	ND	ND	0
54708	2016-04-25T11:00:00	43.8	ND	ND	ND	ND	ND	ND	ND	ND	ND	ND	0
54709	2016-04-25T12:00:00	56.4	ND	ND	ND	ND	ND	ND	ND	ND	ND	ND	0
54710	2016-04-25T13:00:00	54.3	ND	ND	ND	ND	ND	ND	ND	ND	ND	ND	0
54711	2016-04-25T14:00:00	63.7	ND	ND	ND	ND	ND	ND	ND	ND	ND	ND	0
54712	2016-04-25T15:00:00	65	ND	ND	ND	ND	ND	ND	ND	ND	ND	ND	0
54713	2016-04-25T16:00:00	73.6	ND	ND	ND	ND	ND	ND	ND	ND	ND	ND	0
54714	2016-04-25T17:00:00	81.9	ND	ND	ND	ND	ND	ND	ND	ND	ND	ND	0
54715	2016-04-25T18:00:00	63.4	ND	ND	ND	ND	ND	ND	ND	ND	ND	ND	0
54716	2016-04-25T19:00:00	51.7	ND	ND	ND	ND	ND	ND	ND	ND	ND	ND	0
54717	2016-04-25T20:00:00	19.2	ND	ND	ND	ND	ND	ND	ND	ND	ND	ND	0
54718	2016-04-25T21:00:00	5.1	ND	ND	ND	ND	ND	ND	ND	ND	ND	ND	0
54719	2016-04-25T22:00:00	ND	ND	ND	ND	ND	ND	ND	ND	ND	ND	ND	0
54720	2016-04-25T23:00:00	ND	ND	ND	ND	ND	ND	ND	ND	ND	ND	ND	2.29
54721	2016-04-26T00:00:00	22.5	ND	ND	ND	ND	ND	ND	ND	ND	ND	ND	12.95
54722	2016-04-26T01:00:00	40.5	ND	ND	ND	ND	ND	ND	ND	ND	ND	ND	1.27
54723	2016-04-26T02:00:00	33.6	ND	ND	ND	ND	ND	ND	ND	ND	ND	ND	0
54724	2016-04-26T03:00:00	29.1	ND	ND	ND	ND	ND	ND	ND	ND	ND	ND	0
54725	2016-04-26T04:00:00	14.6	ND	ND	ND	ND	ND	ND	ND	ND	ND	ND	1.52
54726	2016-04-26T05:00:00	14.6	ND	ND	ND	ND	ND	ND	ND	ND	ND	ND	4.06
54727	2016-04-26T06:00:00	22	ND	ND	ND	ND	ND	ND	ND	ND	ND	ND	10.67
54728	2016-04-26T07:00:00	19.8	ND	ND	ND	ND	ND	ND	ND	ND	ND	ND	24.89
54729	2016-04-26T08:00:00	18.5	ND	ND	ND	ND	ND	ND	ND	ND	ND	ND	5.59
54730	2016-04-26T09:00:00	16.6	ND	ND	ND	ND	ND	ND	ND	ND	ND	ND	0.51
54731	2016-04-26T10:00:00	ND	ND	ND	ND	ND	ND	ND	ND	ND	ND	ND	ND
54732	2016-04-26T11:00:00	ND	ND	ND	ND	ND	ND	ND	ND	ND	ND	ND	ND
54733	2016-04-26T12:00:00	51.9	ND	ND	ND	ND	ND	ND	ND	ND	ND	ND	0
54734	2016-04-26T13:00:00	42.1	ND	ND	ND	ND	ND	ND	ND	ND	ND	ND	0
54735	2016-04-26T14:00:00	35.5	ND	ND	ND	ND	ND	ND	ND	ND	ND	ND	0
54736	2016-04-26T15:00:00	36.6	ND	ND	ND	ND	ND	ND	ND	ND	ND	ND	0
54737	2016-04-26T16:00:00	13.3	ND	ND	ND	ND	ND	ND	ND	ND	ND	ND	0
54738	2016-04-26T17:00:00	20.9	ND	ND	ND	ND	ND	ND	ND	ND	ND	ND	0
54739	2016-04-26T18:00:00	20.7	ND	ND	ND	ND	ND	ND	ND	ND	ND	ND	0
54740	2016-04-26T19:00:00	0.1	ND	ND	ND	ND	ND	ND	ND	ND	ND	ND	0
54741	2016-04-26T20:00:00	31.6	ND	ND	ND	ND	ND	ND	ND	ND	ND	ND	0
54742	2016-04-26T21:00:00	26.3	ND	ND	ND	ND	ND	ND	ND	ND	ND	ND	0
54743	2016-04-26T22:00:00	71.8	ND	ND	ND	ND	ND	ND	ND	ND	ND	ND	0
54744	2016-04-26T23:00:00	66.7	ND	ND	ND	ND	ND	ND	ND	ND	ND	ND	0
54745	2016-04-27T00:00:00	42.9	ND	ND	ND	ND	ND	ND	ND	ND	ND	ND	0
54746	2016-04-27T01:00:00	59.8	ND	ND	ND	ND	ND	ND	ND	ND	ND	ND	0
54747	2016-04-27T02:00:00	56.6	ND	ND	ND	ND	ND	ND	ND	ND	ND	ND	0
54748	2016-04-27T03:00:00	23.1	ND	ND	ND	ND	ND	ND	ND	ND	ND	ND	7.37
54749	2016-04-27T04:00:00	13.9	ND	ND	ND	ND	ND	ND	ND	ND	ND	ND	0
54750	2016-04-27T05:00:00	4.2	ND	ND	ND	ND	ND	ND	ND	ND	ND	ND	0.25
54751	2016-04-27T06:00:00	26.3	ND	ND	ND	ND	ND	ND	ND	ND	ND	ND	0.25
54752	2016-04-27T07:00:00	11.6	ND	ND	ND	ND	ND	ND	ND	ND	ND	ND	11.94
54753	2016-04-27T08:00:00	23	ND	ND	ND	ND	ND	ND	ND	ND	ND	ND	4.06
54754	2016-04-27T09:00:00	28.5	ND	ND	ND	ND	ND	ND	ND	ND	ND	ND	0.25
54755	2016-04-27T10:00:00	16.2	ND	ND	ND	ND	ND	ND	ND	ND	ND	ND	0.25
54756	2016-04-27T11:00:00	7.2	ND	ND	ND	ND	ND	ND	ND	ND	ND	ND	0
54757	2016-04-27T12:00:00	41.2	ND	ND	ND	ND	ND	ND	ND	ND	ND	ND	0
54758	2016-04-27T13:00:00	40.3	ND	ND	ND	ND	ND	ND	ND	ND	ND	ND	0
54759	2016-04-27T14:00:00	47.3	ND	ND	ND	ND	ND	ND	ND	ND	ND	ND	0
54760	2016-04-27T15:00:00	40.8	ND	ND	ND	ND	ND	ND	ND	ND	ND	ND	0
54761	2016-04-27T16:00:00	63.3	ND	ND	ND	ND	ND	ND	ND	ND	ND	ND	0
54762	2016-04-27T17:00:00	55.8	ND	ND	ND	ND	ND	ND	ND	ND	ND	ND	0
54763	2016-04-27T18:00:00	42.8	ND	ND	ND	ND	ND	ND	ND	ND	ND	ND	0
54764	2016-04-27T19:00:00	31.1	ND	ND	ND	ND	ND	ND	ND	ND	ND	ND	1.27
54765	2016-04-27T20:00:00	15.2	ND	ND	ND	ND	ND	ND	ND	ND	ND	ND	0.76
54766	2016-04-27T21:00:00	4.6	ND	ND	ND	ND	ND	ND	ND	ND	ND	ND	0
54767	2016-04-27T22:00:00	21.9	ND	ND	ND	ND	ND	ND	ND	ND	ND	ND	0
54768	2016-04-27T23:00:00	19.8	ND	ND	ND	ND	ND	ND	ND	ND	ND	ND	0.25
54769	2016-04-28T00:00:00	7	ND	ND	ND	ND	ND	ND	ND	ND	ND	ND	0
54770	2016-04-28T01:00:00	13.4	ND	ND	ND	ND	ND	ND	ND	ND	ND	ND	0
54771	2016-04-28T02:00:00	29.4	ND	ND	ND	ND	ND	ND	ND	ND	ND	ND	0
54772	2016-04-28T03:00:00	15.1	ND	ND	ND	ND	ND	ND	ND	ND	ND	ND	0
54773	2016-04-28T04:00:00	26.4	ND	ND	ND	ND	ND	ND	ND	ND	ND	ND	0
54774	2016-04-28T05:00:00	27.8	ND	ND	ND	ND	ND	ND	ND	ND	ND	ND	0
54775	2016-04-28T06:00:00	29.8	ND	ND	ND	ND	ND	ND	ND	ND	ND	ND	0
54776	2016-04-28T07:00:00	33.6	ND	ND	ND	ND	ND	ND	ND	ND	ND	ND	2.54
54777	2016-04-28T08:00:00	9.7	ND	ND	ND	ND	ND	ND	ND	ND	ND	ND	1.27
54778	2016-04-28T09:00:00	17.3	ND	ND	ND	ND	ND	ND	ND	ND	ND	ND	0.51
54779	2016-04-28T10:00:00	5.7	ND	ND	ND	ND	ND	ND	ND	ND	ND	ND	0
54780	2016-04-28T11:00:00	34.8	ND	ND	ND	ND	ND	ND	ND	ND	ND	ND	0.25
54781	2016-04-28T12:00:00	32.9	ND	ND	ND	ND	ND	ND	ND	ND	ND	ND	0
54782	2016-04-28T13:00:00	25.4	ND	ND	ND	ND	ND	ND	ND	ND	ND	ND	0
54783	2016-04-28T14:00:00	31.5	ND	ND	ND	ND	ND	ND	ND	ND	ND	ND	0
54784	2016-04-28T15:00:00	59.2	ND	ND	ND	ND	ND	ND	ND	ND	ND	ND	0
54785	2016-04-28T16:00:00	34.2	ND	ND	ND	ND	ND	ND	ND	ND	ND	ND	0
54786	2016-04-28T17:00:00	57.8	ND	ND	ND	ND	ND	ND	ND	ND	ND	ND	3.56
54787	2016-04-28T18:00:00	44.5	ND	ND	ND	ND	ND	ND	ND	ND	ND	ND	1.02
54788	2016-04-28T19:00:00	61.6	ND	ND	ND	ND	ND	ND	ND	ND	ND	ND	0.25
54789	2016-04-28T20:00:00	33.1	ND	ND	ND	ND	ND	ND	ND	ND	ND	ND	0
54790	2016-04-28T21:00:00	36	ND	ND	ND	ND	ND	ND	ND	ND	ND	ND	0
54791	2016-04-28T22:00:00	42.8	ND	ND	ND	ND	ND	ND	ND	ND	ND	ND	2.79
54792	2016-04-28T23:00:00	15.7	ND	ND	ND	ND	ND	ND	ND	ND	ND	ND	0
54793	2016-04-29T00:00:00	19.4	ND	ND	ND	ND	ND	ND	ND	ND	ND	ND	0.51
54794	2016-04-29T01:00:00	5.6	ND	ND	ND	ND	ND	ND	ND	ND	ND	ND	0.25
54795	2016-04-29T02:00:00	28.5	ND	ND	ND	ND	ND	ND	ND	ND	ND	ND	0
54796	2016-04-29T03:00:00	16	ND	ND	ND	ND	ND	ND	ND	ND	ND	ND	0.25
54797	2016-04-29T04:00:00	26.3	ND	ND	ND	ND	ND	ND	ND	ND	ND	ND	0
54798	2016-04-29T05:00:00	33.9	ND	ND	ND	ND	ND	ND	ND	ND	ND	ND	0
54799	2016-04-29T06:00:00	46.8	ND	ND	ND	ND	ND	ND	ND	ND	ND	ND	0
54800	2016-04-29T07:00:00	52	ND	ND	ND	ND	ND	ND	ND	ND	ND	ND	0
54801	2016-04-29T08:00:00	75.7	ND	ND	ND	ND	ND	ND	ND	ND	ND	ND	0
54802	2016-04-29T09:00:00	88.1	ND	ND	ND	ND	ND	ND	ND	ND	ND	ND	0
54803	2016-04-29T10:00:00	99.2	ND	ND	ND	ND	ND	ND	ND	ND	ND	ND	0
54804	2016-04-29T11:00:00	68.8	ND	ND	ND	ND	ND	ND	ND	ND	ND	ND	0
54805	2016-04-29T12:00:00	75	ND	ND	ND	ND	ND	ND	ND	ND	ND	ND	0
54806	2016-04-29T13:00:00	83.2	ND	ND	ND	ND	ND	ND	ND	ND	ND	ND	0
54807	2016-04-29T14:00:00	83.6	ND	ND	ND	ND	ND	ND	ND	ND	ND	ND	0
54808	2016-04-29T15:00:00	50.7	ND	ND	ND	ND	ND	ND	ND	ND	ND	ND	0
54809	2016-04-29T16:00:00	79.8	ND	ND	ND	ND	ND	ND	ND	ND	ND	ND	0
54810	2016-04-29T17:00:00	40.7	ND	ND	ND	ND	ND	ND	ND	ND	ND	ND	0
54811	2016-04-29T18:00:00	41.5	ND	ND	ND	ND	ND	ND	ND	ND	ND	ND	0
54812	2016-04-29T19:00:00	20.3	ND	ND	ND	ND	ND	ND	ND	ND	ND	ND	0
54813	2016-04-29T20:00:00	13.6	ND	ND	ND	ND	ND	ND	ND	ND	ND	ND	0
54814	2016-04-29T21:00:00	7.1	ND	ND	ND	ND	ND	ND	ND	ND	ND	ND	0
54815	2016-04-29T22:00:00	51	ND	ND	ND	ND	ND	ND	ND	ND	ND	ND	0
54816	2016-04-29T23:00:00	32.6	ND	ND	ND	ND	ND	ND	ND	ND	ND	ND	0
54817	2016-04-30T00:00:00	18.5	ND	ND	ND	ND	ND	ND	ND	ND	ND	ND	0
54818	2016-04-30T01:00:00	70.7	ND	ND	ND	ND	ND	ND	ND	ND	ND	ND	0
54819	2016-04-30T02:00:00	67	ND	ND	ND	ND	ND	ND	ND	ND	ND	ND	0
54820	2016-04-30T03:00:00	32.3	ND	ND	ND	ND	ND	ND	ND	ND	ND	ND	0
54821	2016-04-30T04:00:00	29.9	ND	ND	ND	ND	ND	ND	ND	ND	ND	ND	0
54822	2016-04-30T05:00:00	40.8	ND	ND	ND	ND	ND	ND	ND	ND	ND	ND	0
54823	2016-04-30T06:00:00	44.9	ND	ND	ND	ND	ND	ND	ND	ND	ND	ND	0
54824	2016-04-30T07:00:00	64.6	ND	ND	ND	ND	ND	ND	ND	ND	ND	ND	0
54825	2016-04-30T08:00:00	56.1	ND	ND	ND	ND	ND	ND	ND	ND	ND	ND	0
54826	2016-04-30T09:00:00	57.4	ND	ND	ND	ND	ND	ND	ND	ND	ND	ND	0
54827	2016-04-30T10:00:00	77	ND	ND	ND	ND	ND	ND	ND	ND	ND	ND	0
54828	2016-04-30T11:00:00	62.1	ND	ND	ND	ND	ND	ND	ND	ND	ND	ND	0
54829	2016-04-30T12:00:00	78.5	ND	ND	ND	ND	ND	ND	ND	ND	ND	ND	0
54830	2016-04-30T13:00:00	74.2	ND	ND	ND	ND	ND	ND	ND	ND	ND	ND	0
54831	2016-04-30T14:00:00	44.5	ND	ND	ND	ND	ND	ND	ND	ND	ND	ND	0
54832	2016-04-30T15:00:00	44.8	ND	ND	ND	ND	ND	ND	ND	ND	ND	ND	0
54833	2016-04-30T16:00:00	6.2	ND	ND	ND	ND	ND	ND	ND	ND	ND	ND	0
54834	2016-04-30T17:00:00	15	ND	ND	ND	ND	ND	ND	ND	ND	ND	ND	0
54835	2016-04-30T18:00:00	46.2	ND	ND	ND	ND	ND	ND	ND	ND	ND	ND	5.33
54836	2016-04-30T19:00:00	7.7	ND	ND	ND	ND	ND	ND	ND	ND	ND	ND	8.13
54837	2016-04-30T20:00:00	15.4	ND	ND	ND	ND	ND	ND	ND	ND	ND	ND	0.51
54838	2016-04-30T21:00:00	38.2	ND	ND	ND	ND	ND	ND	ND	ND	ND	ND	1.52
54839	2016-04-30T22:00:00	18.5	ND	ND	ND	ND	ND	ND	ND	ND	ND	ND	2.29
54840	2016-04-30T23:00:00	18.4	ND	ND	ND	ND	ND	ND	ND	ND	ND	ND	0
54841	2016-05-01T00:00:00	23.1	ND	ND	ND	ND	ND	ND	ND	ND	ND	ND	0
54842	2016-05-01T01:00:00	42.9	ND	ND	ND	ND	ND	ND	ND	ND	ND	ND	0.25
54843	2016-05-01T02:00:00	34.8	ND	ND	ND	ND	ND	ND	ND	ND	ND	ND	0
54844	2016-05-01T03:00:00	18	ND	ND	ND	ND	ND	ND	ND	ND	ND	ND	0
54845	2016-05-01T04:00:00	17.3	ND	ND	ND	ND	ND	ND	ND	ND	ND	ND	0
54846	2016-05-01T05:00:00	34.9	ND	ND	ND	ND	ND	ND	ND	ND	ND	ND	0
54847	2016-05-01T06:00:00	45.3	ND	ND	ND	ND	ND	ND	ND	ND	ND	ND	0
54848	2016-05-01T07:00:00	44.6	ND	ND	ND	ND	ND	ND	ND	ND	ND	ND	0
54849	2016-05-01T08:00:00	32.7	ND	ND	ND	ND	ND	ND	ND	ND	ND	ND	0
54850	2016-05-01T09:00:00	79.2	ND	ND	ND	ND	ND	ND	ND	ND	ND	ND	0
54851	2016-05-01T10:00:00	50.8	ND	ND	ND	ND	ND	ND	ND	ND	ND	ND	0
54852	2016-05-01T11:00:00	50.9	ND	ND	ND	ND	ND	ND	ND	ND	ND	ND	0
54853	2016-05-01T12:00:00	66.8	ND	ND	ND	ND	ND	ND	ND	ND	ND	ND	0
54854	2016-05-01T13:00:00	63.3	ND	ND	ND	ND	ND	ND	ND	ND	ND	ND	0
54855	2016-05-01T14:00:00	71.7	ND	ND	ND	ND	ND	ND	ND	ND	ND	ND	0
54856	2016-05-01T15:00:00	55.5	ND	ND	ND	ND	ND	ND	ND	ND	ND	ND	0
54857	2016-05-01T16:00:00	44.2	ND	ND	ND	ND	ND	ND	ND	ND	ND	ND	0
54858	2016-05-01T17:00:00	57.9	ND	ND	ND	ND	ND	ND	ND	ND	ND	ND	0
54859	2016-05-01T18:00:00	59.1	ND	ND	ND	ND	ND	ND	ND	ND	ND	ND	0
54860	2016-05-01T19:00:00	68.2	ND	ND	ND	ND	ND	ND	ND	ND	ND	ND	0
54861	2016-05-01T20:00:00	77	ND	ND	ND	ND	ND	ND	ND	ND	ND	ND	0
54862	2016-05-01T21:00:00	68.5	ND	ND	ND	ND	ND	ND	ND	ND	ND	ND	0
54863	2016-05-01T22:00:00	50.6	ND	ND	ND	ND	ND	ND	ND	ND	ND	ND	0
54864	2016-05-01T23:00:00	41.5	ND	ND	ND	ND	ND	ND	ND	ND	ND	ND	0
54865	2016-05-02T00:00:00	32.1	ND	ND	ND	ND	ND	ND	ND	ND	ND	ND	0
54866	2016-05-02T01:00:00	42.4	ND	ND	ND	ND	ND	ND	ND	ND	ND	ND	0
54867	2016-05-02T02:00:00	39.4	ND	ND	ND	ND	ND	ND	ND	ND	ND	ND	2.79
54868	2016-05-02T03:00:00	34.5	ND	ND	ND	ND	ND	ND	ND	ND	ND	ND	1.02
54869	2016-05-02T04:00:00	23.3	ND	ND	ND	ND	ND	ND	ND	ND	ND	ND	7.87
54870	2016-05-02T05:00:00	1.7	ND	ND	ND	ND	ND	ND	ND	ND	ND	ND	5.59
54871	2016-05-02T06:00:00	0.1	ND	ND	ND	ND	ND	ND	ND	ND	ND	ND	3.05
54872	2016-05-02T07:00:00	5.1	ND	ND	ND	ND	ND	ND	ND	ND	ND	ND	2.79
54873	2016-05-02T08:00:00	30.8	ND	ND	ND	ND	ND	ND	ND	ND	ND	ND	0
54874	2016-05-02T09:00:00	45.7	ND	ND	ND	ND	ND	ND	ND	ND	ND	ND	0
54875	2016-05-02T10:00:00	37.8	ND	ND	ND	ND	ND	ND	ND	ND	ND	ND	0
54876	2016-05-02T11:00:00	34.7	ND	ND	ND	ND	ND	ND	ND	ND	ND	ND	0
54877	2016-05-02T12:00:00	35.5	ND	ND	ND	ND	ND	ND	ND	ND	ND	ND	0
54878	2016-05-02T13:00:00	35.4	ND	ND	ND	ND	ND	ND	ND	ND	ND	ND	0
54879	2016-05-02T14:00:00	32.8	ND	ND	ND	ND	ND	ND	ND	ND	ND	ND	0
54880	2016-05-02T15:00:00	37.6	ND	ND	ND	ND	ND	ND	ND	ND	ND	ND	0
54881	2016-05-02T16:00:00	48.4	ND	ND	ND	ND	ND	ND	ND	ND	ND	ND	0
54882	2016-05-02T17:00:00	44.6	ND	ND	ND	ND	ND	ND	ND	ND	ND	ND	0
54883	2016-05-02T18:00:00	47.3	ND	ND	ND	ND	ND	ND	ND	ND	ND	ND	0
54884	2016-05-02T19:00:00	71.3	ND	ND	ND	ND	ND	ND	ND	ND	ND	ND	0
54885	2016-05-02T20:00:00	118.3	ND	ND	ND	ND	ND	ND	ND	ND	ND	ND	0
54886	2016-05-02T21:00:00	68.1	ND	ND	ND	ND	ND	ND	ND	ND	ND	ND	0
54887	2016-05-02T22:00:00	42.1	ND	ND	ND	ND	ND	ND	ND	ND	ND	ND	0
54888	2016-05-02T23:00:00	70.9	ND	ND	ND	ND	ND	ND	ND	ND	ND	ND	0
54889	2016-05-03T00:00:00	61.7	ND	ND	ND	ND	ND	ND	ND	ND	ND	ND	0
54890	2016-05-03T01:00:00	46.1	ND	ND	ND	ND	ND	ND	ND	ND	ND	ND	0
54891	2016-05-03T02:00:00	46.9	ND	ND	ND	ND	ND	ND	ND	ND	ND	ND	0
54892	2016-05-03T03:00:00	33.3	ND	ND	ND	ND	ND	ND	ND	ND	ND	ND	0
54893	2016-05-03T04:00:00	31	ND	ND	ND	ND	ND	ND	ND	ND	ND	ND	0
54894	2016-05-03T05:00:00	26.8	ND	ND	ND	ND	ND	ND	ND	ND	ND	ND	0
54895	2016-05-03T06:00:00	41.2	ND	ND	ND	ND	ND	ND	ND	ND	ND	ND	0
54896	2016-05-03T07:00:00	55.6	ND	ND	ND	ND	ND	ND	ND	ND	ND	ND	0
54897	2016-05-03T08:00:00	95.4	ND	ND	ND	ND	ND	ND	ND	ND	ND	ND	0
54898	2016-05-03T09:00:00	85.3	ND	ND	ND	ND	ND	ND	ND	ND	ND	ND	0
54899	2016-05-03T10:00:00	64.1	ND	ND	ND	ND	ND	ND	ND	ND	ND	ND	0
54900	2016-05-03T11:00:00	49.9	ND	ND	ND	ND	ND	ND	ND	ND	ND	ND	0
54901	2016-05-03T12:00:00	31.6	ND	ND	ND	ND	ND	ND	ND	ND	ND	ND	0
54902	2016-05-03T13:00:00	47.4	ND	ND	ND	ND	ND	ND	ND	ND	ND	ND	0
54903	2016-05-03T14:00:00	66.9	ND	ND	ND	ND	ND	ND	ND	ND	ND	ND	0
54904	2016-05-03T15:00:00	39.6	ND	ND	ND	ND	ND	ND	ND	ND	ND	ND	0
54905	2016-05-03T16:00:00	25.9	ND	ND	ND	ND	ND	ND	ND	ND	ND	ND	0
54906	2016-05-03T17:00:00	17.4	ND	ND	ND	ND	ND	ND	ND	ND	ND	ND	0
54907	2016-05-03T18:00:00	5.7	ND	ND	ND	ND	ND	ND	ND	ND	ND	ND	0
54908	2016-05-03T19:00:00	ND	ND	ND	ND	ND	ND	ND	ND	ND	ND	ND	0
54909	2016-05-03T20:00:00	17.3	ND	ND	ND	ND	ND	ND	ND	ND	ND	ND	0
54910	2016-05-03T21:00:00	121.1	ND	ND	ND	ND	ND	ND	ND	ND	ND	ND	0
54911	2016-05-03T22:00:00	92.7	ND	ND	ND	ND	ND	ND	ND	ND	ND	ND	0
54912	2016-05-03T23:00:00	43.3	ND	ND	ND	ND	ND	ND	ND	ND	ND	ND	0
54913	2016-05-04T00:00:00	34.2	ND	ND	ND	ND	ND	ND	ND	ND	ND	ND	0
54914	2016-05-04T01:00:00	34.4	ND	ND	ND	ND	ND	ND	ND	ND	ND	ND	0
54915	2016-05-04T02:00:00	62	ND	ND	ND	ND	ND	ND	ND	ND	ND	ND	0
54916	2016-05-04T03:00:00	42.6	ND	ND	ND	ND	ND	ND	ND	ND	ND	ND	0
54917	2016-05-04T04:00:00	42.7	ND	ND	ND	ND	ND	ND	ND	ND	ND	ND	0
54918	2016-05-04T05:00:00	34.2	ND	ND	ND	ND	ND	ND	ND	ND	ND	ND	0.51
54919	2016-05-04T06:00:00	32.2	ND	ND	ND	ND	ND	ND	ND	ND	ND	ND	0.25
54920	2016-05-04T07:00:00	42.3	ND	ND	ND	ND	ND	ND	ND	ND	ND	ND	0
54921	2016-05-04T08:00:00	39.3	ND	ND	ND	ND	ND	ND	ND	ND	ND	ND	0.25
54922	2016-05-04T09:00:00	52.2	ND	ND	ND	ND	ND	ND	ND	ND	ND	ND	0
54923	2016-05-04T10:00:00	56	ND	ND	ND	ND	ND	ND	ND	ND	ND	ND	0
54924	2016-05-04T11:00:00	52	ND	ND	ND	ND	ND	ND	ND	ND	ND	ND	0
54925	2016-05-04T12:00:00	50.8	ND	ND	ND	ND	ND	ND	ND	ND	ND	ND	0
54926	2016-05-04T13:00:00	49.5	ND	ND	ND	ND	ND	ND	ND	ND	ND	ND	0
54927	2016-05-04T14:00:00	63.1	ND	ND	ND	ND	ND	ND	ND	ND	ND	ND	0
54928	2016-05-04T15:00:00	69.2	ND	ND	ND	ND	ND	ND	ND	ND	ND	ND	0
54929	2016-05-04T16:00:00	50.5	ND	ND	ND	ND	ND	ND	ND	ND	ND	ND	0
54930	2016-05-04T17:00:00	28.2	ND	ND	ND	ND	ND	ND	ND	ND	ND	ND	0
54931	2016-05-04T18:00:00	20.8	ND	ND	ND	ND	ND	ND	ND	ND	ND	ND	0
54932	2016-05-04T19:00:00	4.5	ND	ND	ND	ND	ND	ND	ND	ND	ND	ND	0
54933	2016-05-04T20:00:00	ND	ND	ND	ND	ND	ND	ND	ND	ND	ND	ND	0
54934	2016-05-04T21:00:00	7.7	ND	ND	ND	ND	ND	ND	ND	ND	ND	ND	0
54935	2016-05-04T22:00:00	57.9	ND	ND	ND	ND	ND	ND	ND	ND	ND	ND	0
54936	2016-05-04T23:00:00	85.7	ND	ND	ND	ND	ND	ND	ND	ND	ND	ND	0
54937	2016-05-05T00:00:00	73.6	ND	ND	ND	ND	ND	ND	ND	ND	ND	ND	0
54938	2016-05-05T01:00:00	53.8	ND	ND	ND	ND	ND	ND	ND	ND	ND	ND	0
54939	2016-05-05T02:00:00	45	ND	ND	ND	ND	ND	ND	ND	ND	ND	ND	0
54940	2016-05-05T03:00:00	31.9	ND	ND	ND	ND	ND	ND	ND	ND	ND	ND	0
54941	2016-05-05T04:00:00	48	ND	ND	ND	ND	ND	ND	ND	ND	ND	ND	0
54942	2016-05-05T05:00:00	24.3	ND	ND	ND	ND	ND	ND	ND	ND	ND	ND	0
54943	2016-05-05T06:00:00	43.1	ND	ND	ND	ND	ND	ND	ND	ND	ND	ND	0
54944	2016-05-05T07:00:00	72.7	ND	ND	ND	ND	ND	ND	ND	ND	ND	ND	0
54945	2016-05-05T08:00:00	88.8	ND	ND	ND	ND	ND	ND	ND	ND	ND	ND	0
54946	2016-05-05T09:00:00	71.4	ND	ND	ND	ND	ND	ND	ND	ND	ND	ND	0
54947	2016-05-05T10:00:00	74.2	ND	ND	ND	ND	ND	ND	ND	ND	ND	ND	0
54948	2016-05-05T11:00:00	56.6	ND	ND	ND	ND	ND	ND	ND	ND	ND	ND	0
54949	2016-05-05T12:00:00	59	ND	ND	ND	ND	ND	ND	ND	ND	ND	ND	0
54950	2016-05-05T13:00:00	59.8	ND	ND	ND	ND	ND	ND	ND	ND	ND	ND	0
54951	2016-05-05T14:00:00	75.6	ND	ND	ND	ND	ND	ND	ND	ND	ND	ND	0
54952	2016-05-05T15:00:00	63.9	ND	ND	ND	ND	ND	ND	ND	ND	ND	ND	0
54953	2016-05-05T16:00:00	55.7	ND	ND	ND	ND	ND	ND	ND	ND	ND	ND	0
54954	2016-05-05T17:00:00	16.3	ND	ND	ND	ND	ND	ND	ND	ND	ND	ND	0
54955	2016-05-05T18:00:00	29.3	ND	ND	ND	ND	ND	ND	ND	ND	ND	ND	0
54956	2016-05-05T19:00:00	11.3	ND	ND	ND	ND	ND	ND	ND	ND	ND	ND	0
54957	2016-05-05T20:00:00	12.6	ND	ND	ND	ND	ND	ND	ND	ND	ND	ND	0
54958	2016-05-05T21:00:00	50.9	ND	ND	ND	ND	ND	ND	ND	ND	ND	ND	0
54959	2016-05-05T22:00:00	31.9	ND	ND	ND	ND	ND	ND	ND	ND	ND	ND	0
54960	2016-05-05T23:00:00	24	ND	ND	ND	ND	ND	ND	ND	ND	ND	ND	0
54961	2016-05-06T00:00:00	43.8	ND	ND	ND	ND	ND	ND	ND	ND	ND	ND	0
54962	2016-05-06T01:00:00	48.2	ND	ND	ND	ND	ND	ND	ND	ND	ND	ND	0
54963	2016-05-06T02:00:00	30.1	ND	ND	ND	ND	ND	ND	ND	ND	ND	ND	0
54964	2016-05-06T03:00:00	53.3	ND	ND	ND	ND	ND	ND	ND	ND	ND	ND	0
54965	2016-05-06T04:00:00	22.4	ND	ND	ND	ND	ND	ND	ND	ND	ND	ND	0
54966	2016-05-06T05:00:00	34.4	ND	ND	ND	ND	ND	ND	ND	ND	ND	ND	0
54967	2016-05-06T06:00:00	42.9	ND	ND	ND	ND	ND	ND	ND	ND	ND	ND	0
54968	2016-05-06T07:00:00	40.3	ND	ND	ND	ND	ND	ND	ND	ND	ND	ND	0
54969	2016-05-06T08:00:00	39	ND	ND	ND	ND	ND	ND	ND	ND	ND	ND	0
54970	2016-05-06T09:00:00	87.3	ND	ND	ND	ND	ND	ND	ND	ND	ND	ND	0
54971	2016-05-06T10:00:00	103.1	ND	ND	ND	ND	ND	ND	ND	ND	ND	ND	0
54972	2016-05-06T11:00:00	73.5	ND	ND	ND	ND	ND	ND	ND	ND	ND	ND	0
54973	2016-05-06T12:00:00	67.8	ND	ND	ND	ND	ND	ND	ND	ND	ND	ND	0
54974	2016-05-06T13:00:00	88.4	ND	ND	ND	ND	ND	ND	ND	ND	ND	ND	0
54975	2016-05-06T14:00:00	68.6	ND	ND	ND	ND	ND	ND	ND	ND	ND	ND	0
54976	2016-05-06T15:00:00	20.7	ND	ND	ND	ND	ND	ND	ND	ND	ND	ND	0
54977	2016-05-06T16:00:00	26.4	ND	ND	ND	ND	ND	ND	ND	ND	ND	ND	0
54978	2016-05-06T17:00:00	17	ND	ND	ND	ND	ND	ND	ND	ND	ND	ND	0
54979	2016-05-06T18:00:00	25	ND	ND	ND	ND	ND	ND	ND	ND	ND	ND	0
54980	2016-05-06T19:00:00	12	ND	ND	ND	ND	ND	ND	ND	ND	ND	ND	0
54981	2016-05-06T20:00:00	16.9	ND	ND	ND	ND	ND	ND	ND	ND	ND	ND	0
54982	2016-05-06T21:00:00	61	ND	ND	ND	ND	ND	ND	ND	ND	ND	ND	0
54983	2016-05-06T22:00:00	75.6	ND	ND	ND	ND	ND	ND	ND	ND	ND	ND	5.59
54984	2016-05-06T23:00:00	136.4	ND	ND	ND	ND	ND	ND	ND	ND	ND	ND	12.7
54985	2016-05-07T00:00:00	55.6	ND	ND	ND	ND	ND	ND	ND	ND	ND	ND	9.4
54986	2016-05-07T01:00:00	21.1	ND	ND	ND	ND	ND	ND	ND	ND	ND	ND	1.78
54987	2016-05-07T02:00:00	2.5	ND	ND	ND	ND	ND	ND	ND	ND	ND	ND	1.02
54988	2016-05-07T03:00:00	8.9	ND	ND	ND	ND	ND	ND	ND	ND	ND	ND	0.76
54989	2016-05-07T04:00:00	1.7	ND	ND	ND	ND	ND	ND	ND	ND	ND	ND	0
54990	2016-05-07T05:00:00	10.8	ND	ND	ND	ND	ND	ND	ND	ND	ND	ND	0
54991	2016-05-07T06:00:00	13.6	ND	ND	ND	ND	ND	ND	ND	ND	ND	ND	0.25
54992	2016-05-07T07:00:00	16.1	ND	ND	ND	ND	ND	ND	ND	ND	ND	ND	0
54993	2016-05-07T08:00:00	18.6	ND	ND	ND	ND	ND	ND	ND	ND	ND	ND	0
54994	2016-05-07T09:00:00	17.9	ND	ND	ND	ND	ND	ND	ND	ND	ND	ND	0
54995	2016-05-07T10:00:00	52.7	ND	ND	ND	ND	ND	ND	ND	ND	ND	ND	0
54996	2016-05-07T11:00:00	63.5	ND	ND	ND	ND	ND	ND	ND	ND	ND	ND	0
54997	2016-05-07T12:00:00	45.2	ND	ND	ND	ND	ND	ND	ND	ND	ND	ND	0
54998	2016-05-07T13:00:00	36.7	ND	ND	ND	ND	ND	ND	ND	ND	ND	ND	0
54999	2016-05-07T14:00:00	32.7	ND	ND	ND	ND	ND	ND	ND	ND	ND	ND	0
55000	2016-05-07T15:00:00	49.6	ND	ND	ND	ND	ND	ND	ND	ND	ND	ND	0
55001	2016-05-07T16:00:00	34.4	ND	ND	ND	ND	ND	ND	ND	ND	ND	ND	0
55002	2016-05-07T17:00:00	17.7	ND	ND	ND	ND	ND	ND	ND	ND	ND	ND	0
55003	2016-05-07T18:00:00	ND	ND	ND	ND	ND	ND	ND	ND	ND	ND	ND	0
55004	2016-05-07T19:00:00	ND	ND	ND	ND	ND	ND	ND	ND	ND	ND	ND	0
55005	2016-05-07T20:00:00	111.5	ND	ND	ND	ND	ND	ND	ND	ND	ND	ND	0
55006	2016-05-07T21:00:00	94.9	ND	ND	ND	ND	ND	ND	ND	ND	ND	ND	0
55007	2016-05-07T22:00:00	61.3	ND	ND	ND	ND	ND	ND	ND	ND	ND	ND	0
55008	2016-05-07T23:00:00	49.1	ND	ND	ND	ND	ND	ND	ND	ND	ND	ND	0
55009	2016-05-08T00:00:00	43.3	ND	ND	ND	ND	ND	ND	ND	ND	ND	ND	0
55010	2016-05-08T01:00:00	46.6	ND	ND	ND	ND	ND	ND	ND	ND	ND	ND	0
55011	2016-05-08T02:00:00	44.9	ND	ND	ND	ND	ND	ND	ND	ND	ND	ND	0
55012	2016-05-08T03:00:00	41.9	ND	ND	ND	ND	ND	ND	ND	ND	ND	ND	0
55013	2016-05-08T04:00:00	32.6	ND	ND	ND	ND	ND	ND	ND	ND	ND	ND	0
55014	2016-05-08T05:00:00	40.1	ND	ND	ND	ND	ND	ND	ND	ND	ND	ND	0
55015	2016-05-08T06:00:00	47.3	ND	ND	ND	ND	ND	ND	ND	ND	ND	ND	0
55016	2016-05-08T07:00:00	52.6	ND	ND	ND	ND	ND	ND	ND	ND	ND	ND	0
55017	2016-05-08T08:00:00	28.2	ND	ND	ND	ND	ND	ND	ND	ND	ND	ND	0
55018	2016-05-08T09:00:00	51.2	ND	ND	ND	ND	ND	ND	ND	ND	ND	ND	0
55019	2016-05-08T10:00:00	48	ND	ND	ND	ND	ND	ND	ND	ND	ND	ND	0
55020	2016-05-08T11:00:00	78.7	ND	ND	ND	ND	ND	ND	ND	ND	ND	ND	0
55021	2016-05-08T12:00:00	50.6	ND	ND	ND	ND	ND	ND	ND	ND	ND	ND	0
55022	2016-05-08T13:00:00	44.5	ND	ND	ND	ND	ND	ND	ND	ND	ND	ND	0
55023	2016-05-08T14:00:00	23.1	ND	ND	ND	ND	ND	ND	ND	ND	ND	ND	0
55024	2016-05-08T15:00:00	35.9	ND	ND	ND	ND	ND	ND	ND	ND	ND	ND	0
55025	2016-05-08T16:00:00	63.8	ND	ND	ND	ND	ND	ND	ND	ND	ND	ND	0
55026	2016-05-08T17:00:00	16.2	ND	ND	ND	ND	ND	ND	ND	ND	ND	ND	0
55027	2016-05-08T18:00:00	1.1	ND	ND	ND	ND	ND	ND	ND	ND	ND	ND	0
55028	2016-05-08T19:00:00	7.4	ND	ND	ND	ND	ND	ND	ND	ND	ND	ND	0
55029	2016-05-08T20:00:00	2	ND	ND	ND	ND	ND	ND	ND	ND	ND	ND	0
55030	2016-05-08T21:00:00	10.7	ND	ND	ND	ND	ND	ND	ND	ND	ND	ND	0
55031	2016-05-08T22:00:00	5.5	ND	ND	ND	ND	ND	ND	ND	ND	ND	ND	0
55032	2016-05-08T23:00:00	23.7	ND	ND	ND	ND	ND	ND	ND	ND	ND	ND	0
55033	2016-05-09T00:00:00	33.7	ND	ND	ND	ND	ND	ND	ND	ND	ND	ND	0
55034	2016-05-09T01:00:00	23.1	ND	ND	ND	ND	ND	ND	ND	ND	ND	ND	0
55035	2016-05-09T02:00:00	12.5	ND	ND	ND	ND	ND	ND	ND	ND	ND	ND	0
55036	2016-05-09T03:00:00	9.2	ND	ND	ND	ND	ND	ND	ND	ND	ND	ND	0
55037	2016-05-09T04:00:00	20.1	ND	ND	ND	ND	ND	ND	ND	ND	ND	ND	0
55038	2016-05-09T05:00:00	23.6	ND	ND	ND	ND	ND	ND	ND	ND	ND	ND	0
55039	2016-05-09T06:00:00	18.6	ND	ND	ND	ND	ND	ND	ND	ND	ND	ND	0
55040	2016-05-09T07:00:00	25.1	ND	ND	ND	ND	ND	ND	ND	ND	ND	ND	0
55041	2016-05-09T08:00:00	11.6	ND	ND	ND	ND	ND	ND	ND	ND	ND	ND	0
55042	2016-05-09T09:00:00	17.1	ND	ND	ND	ND	ND	ND	ND	ND	ND	ND	0
55043	2016-05-09T10:00:00	26.9	ND	ND	ND	ND	ND	ND	ND	ND	ND	ND	0
55044	2016-05-09T11:00:00	32.1	ND	ND	ND	ND	ND	ND	ND	ND	ND	ND	0
55045	2016-05-09T12:00:00	28.2	ND	ND	ND	ND	ND	ND	ND	ND	ND	ND	0
55046	2016-05-09T13:00:00	41.5	ND	ND	ND	ND	ND	ND	ND	ND	ND	ND	0
55047	2016-05-09T14:00:00	14.3	ND	ND	ND	ND	ND	ND	ND	ND	ND	ND	0
55048	2016-05-09T15:00:00	16.4	ND	ND	ND	ND	ND	ND	ND	ND	ND	ND	3.05
55049	2016-05-09T16:00:00	15.6	ND	ND	ND	ND	ND	ND	ND	ND	ND	ND	28.96
55050	2016-05-09T17:00:00	16	ND	ND	ND	ND	ND	ND	ND	ND	ND	ND	1.02
55051	2016-05-09T18:00:00	68.4	ND	ND	ND	ND	ND	ND	ND	ND	ND	ND	0.25
55052	2016-05-09T19:00:00	47.9	ND	ND	ND	ND	ND	ND	ND	ND	ND	ND	0
55053	2016-05-09T20:00:00	18.2	ND	ND	ND	ND	ND	ND	ND	ND	ND	ND	0
55054	2016-05-09T21:00:00	19.3	ND	ND	ND	ND	ND	ND	ND	ND	ND	ND	0
55055	2016-05-09T22:00:00	74.4	ND	ND	ND	ND	ND	ND	ND	ND	ND	ND	0
55056	2016-05-09T23:00:00	53.8	ND	ND	ND	ND	ND	ND	ND	ND	ND	ND	0
55057	2016-05-10T00:00:00	3.6	ND	ND	ND	ND	ND	ND	ND	ND	ND	ND	0
55058	2016-05-10T01:00:00	45.8	ND	ND	ND	ND	ND	ND	ND	ND	ND	ND	0
55059	2016-05-10T02:00:00	15.6	ND	ND	ND	ND	ND	ND	ND	ND	ND	ND	0.51
55060	2016-05-10T03:00:00	2.2	ND	ND	ND	ND	ND	ND	ND	ND	ND	ND	17.02
55061	2016-05-10T04:00:00	31	ND	ND	ND	ND	ND	ND	ND	ND	ND	ND	35.56
55062	2016-05-10T05:00:00	10.9	ND	ND	ND	ND	ND	ND	ND	ND	ND	ND	8.64
55063	2016-05-10T06:00:00	ND	ND	ND	ND	ND	ND	ND	ND	ND	ND	ND	ND
55064	2016-05-10T07:00:00	ND	ND	ND	ND	ND	ND	ND	ND	ND	ND	ND	ND
55065	2016-05-10T08:00:00	ND	ND	ND	ND	ND	ND	ND	ND	ND	ND	ND	ND
55066	2016-05-10T09:00:00	ND	ND	ND	ND	ND	ND	ND	ND	ND	ND	ND	1.02
55067	2016-05-10T10:00:00	ND	ND	ND	ND	ND	ND	ND	ND	ND	ND	ND	0.25
55068	2016-05-10T11:00:00	ND	ND	ND	ND	ND	ND	ND	ND	ND	ND	ND	0.25
55069	2016-05-10T12:00:00	82.6	ND	ND	ND	ND	ND	ND	ND	ND	ND	ND	0
55070	2016-05-10T13:00:00	64.6	ND	ND	ND	ND	ND	ND	ND	ND	ND	ND	0
55071	2016-05-10T14:00:00	58.6	ND	ND	ND	ND	ND	ND	ND	ND	ND	ND	0
55072	2016-05-10T15:00:00	61.4	ND	ND	ND	ND	ND	ND	ND	ND	ND	ND	0
55073	2016-05-10T16:00:00	57.7	ND	ND	ND	ND	ND	ND	ND	ND	ND	ND	0
55074	2016-05-10T17:00:00	53	ND	ND	ND	ND	ND	ND	ND	ND	ND	ND	2.03
55075	2016-05-10T18:00:00	46.3	ND	ND	ND	ND	ND	ND	ND	ND	ND	ND	1.78
55076	2016-05-10T19:00:00	49.9	ND	ND	ND	ND	ND	ND	ND	ND	ND	ND	0.25
55077	2016-05-10T20:00:00	42.5	ND	ND	ND	ND	ND	ND	ND	ND	ND	ND	0.25
55078	2016-05-10T21:00:00	38.5	ND	ND	ND	ND	ND	ND	ND	ND	ND	ND	0
55079	2016-05-10T22:00:00	28.5	ND	ND	ND	ND	ND	ND	ND	ND	ND	ND	0
55080	2016-05-10T23:00:00	34.2	ND	ND	ND	ND	ND	ND	ND	ND	ND	ND	0
55081	2016-05-11T00:00:00	29.6	ND	ND	ND	ND	ND	ND	ND	ND	ND	ND	0
55082	2016-05-11T01:00:00	20.1	ND	ND	ND	ND	ND	ND	ND	ND	ND	ND	0
55083	2016-05-11T02:00:00	13.8	ND	ND	ND	ND	ND	ND	ND	ND	ND	ND	0
55084	2016-05-11T03:00:00	34.3	ND	ND	ND	ND	ND	ND	ND	ND	ND	ND	0
55085	2016-05-11T04:00:00	37.6	ND	ND	ND	ND	ND	ND	ND	ND	ND	ND	0.25
55086	2016-05-11T05:00:00	31.3	ND	ND	ND	ND	ND	ND	ND	ND	ND	ND	0.25
55087	2016-05-11T06:00:00	16.1	ND	ND	ND	ND	ND	ND	ND	ND	ND	ND	1.27
55088	2016-05-11T07:00:00	18	ND	ND	ND	ND	ND	ND	ND	ND	ND	ND	0.25
55089	2016-05-11T08:00:00	10.2	ND	ND	ND	ND	ND	ND	ND	ND	ND	ND	0
55090	2016-05-11T09:00:00	40.3	ND	ND	ND	ND	ND	ND	ND	ND	ND	ND	0
55091	2016-05-11T10:00:00	59.4	ND	ND	ND	ND	ND	ND	ND	ND	ND	ND	0
55092	2016-05-11T11:00:00	83.6	ND	ND	ND	ND	ND	ND	ND	ND	ND	ND	0
55093	2016-05-11T12:00:00	78.2	ND	ND	ND	ND	ND	ND	ND	ND	ND	ND	0
55094	2016-05-11T13:00:00	72.7	ND	ND	ND	ND	ND	ND	ND	ND	ND	ND	0
55095	2016-05-11T14:00:00	66.5	ND	ND	ND	ND	ND	ND	ND	ND	ND	ND	0
55096	2016-05-11T15:00:00	41.2	ND	ND	ND	ND	ND	ND	ND	ND	ND	ND	0
55097	2016-05-11T16:00:00	49.8	ND	ND	ND	ND	ND	ND	ND	ND	ND	ND	0
55098	2016-05-11T17:00:00	103.8	ND	ND	ND	ND	ND	ND	ND	ND	ND	ND	0
55099	2016-05-11T18:00:00	80	ND	ND	ND	ND	ND	ND	ND	ND	ND	ND	0
55100	2016-05-11T19:00:00	73.9	ND	ND	ND	ND	ND	ND	ND	ND	ND	ND	0
55101	2016-05-11T20:00:00	56.7	ND	ND	ND	ND	ND	ND	ND	ND	ND	ND	0
55102	2016-05-11T21:00:00	43.3	ND	ND	ND	ND	ND	ND	ND	ND	ND	ND	0
55103	2016-05-11T22:00:00	39.5	ND	ND	ND	ND	ND	ND	ND	ND	ND	ND	0
55104	2016-05-11T23:00:00	30.9	ND	ND	ND	ND	ND	ND	ND	ND	ND	ND	0
55105	2016-05-12T00:00:00	39.2	ND	ND	ND	ND	ND	ND	ND	ND	ND	ND	0
55106	2016-05-12T01:00:00	104.6	ND	ND	ND	ND	ND	ND	ND	ND	ND	ND	0
55107	2016-05-12T02:00:00	83.5	ND	ND	ND	ND	ND	ND	ND	ND	ND	ND	0
55108	2016-05-12T03:00:00	41.1	ND	ND	ND	ND	ND	ND	ND	ND	ND	ND	0
55109	2016-05-12T04:00:00	28.4	ND	ND	ND	ND	ND	ND	ND	ND	ND	ND	0
55110	2016-05-12T05:00:00	39.9	ND	ND	ND	ND	ND	ND	ND	ND	ND	ND	0
55111	2016-05-12T06:00:00	34.3	ND	ND	ND	ND	ND	ND	ND	ND	ND	ND	0
55112	2016-05-12T07:00:00	41.6	ND	ND	ND	ND	ND	ND	ND	ND	ND	ND	0
55113	2016-05-12T08:00:00	82.1	ND	ND	ND	ND	ND	ND	ND	ND	ND	ND	0
55114	2016-05-12T09:00:00	ND	ND	ND	ND	ND	ND	ND	ND	ND	ND	ND	ND
55115	2016-05-12T10:00:00	48.4	ND	ND	ND	ND	ND	ND	ND	ND	ND	ND	0
55116	2016-05-12T11:00:00	73	ND	ND	ND	ND	ND	ND	ND	ND	ND	ND	0
55117	2016-05-12T12:00:00	26.1	ND	ND	ND	ND	ND	ND	ND	ND	ND	ND	0
55118	2016-05-12T13:00:00	45	ND	ND	ND	ND	ND	ND	ND	ND	ND	ND	0
55119	2016-05-12T14:00:00	81	ND	ND	ND	ND	ND	ND	ND	ND	ND	ND	0
55120	2016-05-12T15:00:00	66.5	ND	ND	ND	ND	ND	ND	ND	ND	ND	ND	0
55121	2016-05-12T16:00:00	76.3	ND	ND	ND	ND	ND	ND	ND	ND	ND	ND	0
55122	2016-05-12T17:00:00	78.2	ND	ND	ND	ND	ND	ND	ND	ND	ND	ND	0
55123	2016-05-12T18:00:00	57.9	ND	ND	ND	ND	ND	ND	ND	ND	ND	ND	0
55124	2016-05-12T19:00:00	85.8	ND	ND	ND	ND	ND	ND	ND	ND	ND	ND	0
55125	2016-05-12T20:00:00	35	ND	ND	ND	ND	ND	ND	ND	ND	ND	ND	0
55126	2016-05-12T21:00:00	7.5	ND	ND	ND	ND	ND	ND	ND	ND	ND	ND	0
55127	2016-05-12T22:00:00	48.1	ND	ND	ND	ND	ND	ND	ND	ND	ND	ND	0
55128	2016-05-12T23:00:00	60.9	ND	ND	ND	ND	ND	ND	ND	ND	ND	ND	0
55129	2016-05-13T00:00:00	54.7	ND	ND	ND	ND	ND	ND	ND	ND	ND	ND	0
55130	2016-05-13T01:00:00	64.6	ND	ND	ND	ND	ND	ND	ND	ND	ND	ND	0
55131	2016-05-13T02:00:00	61.2	ND	ND	ND	ND	ND	ND	ND	ND	ND	ND	0
55132	2016-05-13T03:00:00	43.6	ND	ND	ND	ND	ND	ND	ND	ND	ND	ND	0
55133	2016-05-13T04:00:00	44.4	ND	ND	ND	ND	ND	ND	ND	ND	ND	ND	0
55134	2016-05-13T05:00:00	56.1	ND	ND	ND	ND	ND	ND	ND	ND	ND	ND	0
55135	2016-05-13T06:00:00	40.6	ND	ND	ND	ND	ND	ND	ND	ND	ND	ND	0
55136	2016-05-13T07:00:00	61.7	ND	ND	ND	ND	ND	ND	ND	ND	ND	ND	0
55137	2016-05-13T08:00:00	94.5	ND	ND	ND	ND	ND	ND	ND	ND	ND	ND	0
55138	2016-05-13T09:00:00	103	ND	ND	ND	ND	ND	ND	ND	ND	ND	ND	0
55139	2016-05-13T10:00:00	73.7	ND	ND	ND	ND	ND	ND	ND	ND	ND	ND	0
55140	2016-05-13T11:00:00	62.4	ND	ND	ND	ND	ND	ND	ND	ND	ND	ND	0
55141	2016-05-13T12:00:00	48	ND	ND	ND	ND	ND	ND	ND	ND	ND	ND	0
55142	2016-05-13T13:00:00	85.3	ND	ND	ND	ND	ND	ND	ND	ND	ND	ND	0
55143	2016-05-13T14:00:00	90	ND	ND	ND	ND	ND	ND	ND	ND	ND	ND	0
55144	2016-05-13T15:00:00	91.6	ND	ND	ND	ND	ND	ND	ND	ND	ND	ND	0
55145	2016-05-13T16:00:00	79.7	ND	ND	ND	ND	ND	ND	ND	ND	ND	ND	0
55146	2016-05-13T17:00:00	59.1	ND	ND	ND	ND	ND	ND	ND	ND	ND	ND	0
55147	2016-05-13T18:00:00	45.5	ND	ND	ND	ND	ND	ND	ND	ND	ND	ND	0
55148	2016-05-13T19:00:00	37.6	ND	ND	ND	ND	ND	ND	ND	ND	ND	ND	0
55149	2016-05-13T20:00:00	22.8	ND	ND	ND	ND	ND	ND	ND	ND	ND	ND	0
55150	2016-05-13T21:00:00	22.9	ND	ND	ND	ND	ND	ND	ND	ND	ND	ND	0
55151	2016-05-13T22:00:00	29.9	ND	ND	ND	ND	ND	ND	ND	ND	ND	ND	0
55152	2016-05-13T23:00:00	29.9	ND	ND	ND	ND	ND	ND	ND	ND	ND	ND	0
55153	2016-05-14T00:00:00	30.6	ND	ND	ND	ND	ND	ND	ND	ND	ND	ND	0
55154	2016-05-14T01:00:00	63.8	ND	ND	ND	ND	ND	ND	ND	ND	ND	ND	0
55155	2016-05-14T02:00:00	54.6	ND	ND	ND	ND	ND	ND	ND	ND	ND	ND	0
55156	2016-05-14T03:00:00	45.1	ND	ND	ND	ND	ND	ND	ND	ND	ND	ND	0
55157	2016-05-14T04:00:00	50	ND	ND	ND	ND	ND	ND	ND	ND	ND	ND	0
55158	2016-05-14T05:00:00	44.9	ND	ND	ND	ND	ND	ND	ND	ND	ND	ND	0
55159	2016-05-14T06:00:00	48.7	ND	ND	ND	ND	ND	ND	ND	ND	ND	ND	0
55160	2016-05-14T07:00:00	72.2	ND	ND	ND	ND	ND	ND	ND	ND	ND	ND	0
55161	2016-05-14T08:00:00	93.7	ND	ND	ND	ND	ND	ND	ND	ND	ND	ND	0
55162	2016-05-14T09:00:00	103.9	ND	ND	ND	ND	ND	ND	ND	ND	ND	ND	0
55163	2016-05-14T10:00:00	92.4	ND	ND	ND	ND	ND	ND	ND	ND	ND	ND	0
55164	2016-05-14T11:00:00	87.6	ND	ND	ND	ND	ND	ND	ND	ND	ND	ND	0
55165	2016-05-14T12:00:00	68.2	ND	ND	ND	ND	ND	ND	ND	ND	ND	ND	0
55166	2016-05-14T13:00:00	74.7	ND	ND	ND	ND	ND	ND	ND	ND	ND	ND	0
55167	2016-05-14T14:00:00	76	ND	ND	ND	ND	ND	ND	ND	ND	ND	ND	0
55168	2016-05-14T15:00:00	62.4	ND	ND	ND	ND	ND	ND	ND	ND	ND	ND	0
55169	2016-05-14T16:00:00	52.5	ND	ND	ND	ND	ND	ND	ND	ND	ND	ND	0
55170	2016-05-14T17:00:00	53.9	ND	ND	ND	ND	ND	ND	ND	ND	ND	ND	0
55171	2016-05-14T18:00:00	28.9	ND	ND	ND	ND	ND	ND	ND	ND	ND	ND	0
55172	2016-05-14T19:00:00	16.2	ND	ND	ND	ND	ND	ND	ND	ND	ND	ND	0
55173	2016-05-14T20:00:00	13	ND	ND	ND	ND	ND	ND	ND	ND	ND	ND	0
55174	2016-05-14T21:00:00	16.1	ND	ND	ND	ND	ND	ND	ND	ND	ND	ND	0
55175	2016-05-14T22:00:00	13.7	ND	ND	ND	ND	ND	ND	ND	ND	ND	ND	0
55176	2016-05-14T23:00:00	21.3	ND	ND	ND	ND	ND	ND	ND	ND	ND	ND	0
55177	2016-05-15T00:00:00	21.1	ND	ND	ND	ND	ND	ND	ND	ND	ND	ND	0
55178	2016-05-15T01:00:00	18.9	ND	ND	ND	ND	ND	ND	ND	ND	ND	ND	0
55179	2016-05-15T02:00:00	65.9	ND	ND	ND	ND	ND	ND	ND	ND	ND	ND	5.59
55180	2016-05-15T03:00:00	24.7	ND	ND	ND	ND	ND	ND	ND	ND	ND	ND	0.51
55181	2016-05-15T04:00:00	0.8	ND	ND	ND	ND	ND	ND	ND	ND	ND	ND	0
55182	2016-05-15T05:00:00	19.6	ND	ND	ND	ND	ND	ND	ND	ND	ND	ND	0
55183	2016-05-15T06:00:00	39.5	ND	ND	ND	ND	ND	ND	ND	ND	ND	ND	0
55184	2016-05-15T07:00:00	24	ND	ND	ND	ND	ND	ND	ND	ND	ND	ND	0
55185	2016-05-15T08:00:00	26.9	ND	ND	ND	ND	ND	ND	ND	ND	ND	ND	0
55186	2016-05-15T09:00:00	11.7	ND	ND	ND	ND	ND	ND	ND	ND	ND	ND	0
55187	2016-05-15T10:00:00	37.2	ND	ND	ND	ND	ND	ND	ND	ND	ND	ND	0
55188	2016-05-15T11:00:00	30.3	ND	ND	ND	ND	ND	ND	ND	ND	ND	ND	0
55189	2016-05-15T12:00:00	19.4	ND	ND	ND	ND	ND	ND	ND	ND	ND	ND	0
55190	2016-05-15T13:00:00	32.3	ND	ND	ND	ND	ND	ND	ND	ND	ND	ND	0
55191	2016-05-15T14:00:00	42.7	ND	ND	ND	ND	ND	ND	ND	ND	ND	ND	0
55192	2016-05-15T15:00:00	37	ND	ND	ND	ND	ND	ND	ND	ND	ND	ND	0
55193	2016-05-15T16:00:00	76.9	ND	ND	ND	ND	ND	ND	ND	ND	ND	ND	0
55194	2016-05-15T17:00:00	86.3	ND	ND	ND	ND	ND	ND	ND	ND	ND	ND	0
55195	2016-05-15T18:00:00	29.3	ND	ND	ND	ND	ND	ND	ND	ND	ND	ND	0
55196	2016-05-15T19:00:00	22.2	ND	ND	ND	ND	ND	ND	ND	ND	ND	ND	0
55197	2016-05-15T20:00:00	10	ND	ND	ND	ND	ND	ND	ND	ND	ND	ND	0
55198	2016-05-15T21:00:00	10.3	ND	ND	ND	ND	ND	ND	ND	ND	ND	ND	0
55199	2016-05-15T22:00:00	14.8	ND	ND	ND	ND	ND	ND	ND	ND	ND	ND	0
55200	2016-05-15T23:00:00	32	ND	ND	ND	ND	ND	ND	ND	ND	ND	ND	0
55201	2016-05-16T00:00:00	22.5	ND	ND	ND	ND	ND	ND	ND	ND	ND	ND	0
55202	2016-05-16T01:00:00	19.9	ND	ND	ND	ND	ND	ND	ND	ND	ND	ND	0
55203	2016-05-16T02:00:00	18.9	ND	ND	ND	ND	ND	ND	ND	ND	ND	ND	0
55204	2016-05-16T03:00:00	13.9	ND	ND	ND	ND	ND	ND	ND	ND	ND	ND	0
55205	2016-05-16T04:00:00	21.3	ND	ND	ND	ND	ND	ND	ND	ND	ND	ND	0
55206	2016-05-16T05:00:00	24.2	ND	ND	ND	ND	ND	ND	ND	ND	ND	ND	0
55207	2016-05-16T06:00:00	17	ND	ND	ND	ND	ND	ND	ND	ND	ND	ND	0
55208	2016-05-16T07:00:00	76.4	ND	ND	ND	ND	ND	ND	ND	ND	ND	ND	0
55209	2016-05-16T08:00:00	101	ND	ND	ND	ND	ND	ND	ND	ND	ND	ND	0
55210	2016-05-16T09:00:00	104	ND	ND	ND	ND	ND	ND	ND	ND	ND	ND	0
55211	2016-05-16T10:00:00	111.2	ND	ND	ND	ND	ND	ND	ND	ND	ND	ND	0
55212	2016-05-16T11:00:00	85.5	ND	ND	ND	ND	ND	ND	ND	ND	ND	ND	0
55213	2016-05-16T12:00:00	59.4	ND	ND	ND	ND	ND	ND	ND	ND	ND	ND	0
55214	2016-05-16T13:00:00	47.1	ND	ND	ND	ND	ND	ND	ND	ND	ND	ND	0
55215	2016-05-16T14:00:00	23.7	ND	ND	ND	ND	ND	ND	ND	ND	ND	ND	0
55216	2016-05-16T15:00:00	12.2	ND	ND	ND	ND	ND	ND	ND	ND	ND	ND	0
55217	2016-05-16T16:00:00	86.6	ND	ND	ND	ND	ND	ND	ND	ND	ND	ND	0
55218	2016-05-16T17:00:00	84.5	ND	ND	ND	ND	ND	ND	ND	ND	ND	ND	0
55219	2016-05-16T18:00:00	48.9	ND	ND	ND	ND	ND	ND	ND	ND	ND	ND	0
55220	2016-05-16T19:00:00	33.8	ND	ND	ND	ND	ND	ND	ND	ND	ND	ND	0
55221	2016-05-16T20:00:00	25.6	ND	ND	ND	ND	ND	ND	ND	ND	ND	ND	0
55222	2016-05-16T21:00:00	26	ND	ND	ND	ND	ND	ND	ND	ND	ND	ND	0
55223	2016-05-16T22:00:00	25.8	ND	ND	ND	ND	ND	ND	ND	ND	ND	ND	0
55224	2016-05-16T23:00:00	42	ND	ND	ND	ND	ND	ND	ND	ND	ND	ND	0
55225	2016-05-17T00:00:00	43.8	ND	ND	ND	ND	ND	ND	ND	ND	ND	ND	0
55226	2016-05-17T01:00:00	18.9	ND	ND	ND	ND	ND	ND	ND	ND	ND	ND	0
55227	2016-05-17T02:00:00	13.1	ND	ND	ND	ND	ND	ND	ND	ND	ND	ND	0
55228	2016-05-17T03:00:00	3.4	ND	ND	ND	ND	ND	ND	ND	ND	ND	ND	0
55229	2016-05-17T04:00:00	20.5	ND	ND	ND	ND	ND	ND	ND	ND	ND	ND	0
55230	2016-05-17T05:00:00	15.3	ND	ND	ND	ND	ND	ND	ND	ND	ND	ND	0
55231	2016-05-17T06:00:00	26.8	ND	ND	ND	ND	ND	ND	ND	ND	ND	ND	0
55232	2016-05-17T07:00:00	69.2	ND	ND	ND	ND	ND	ND	ND	ND	ND	ND	0
55233	2016-05-17T08:00:00	69.5	ND	ND	ND	ND	ND	ND	ND	ND	ND	ND	0
55234	2016-05-17T09:00:00	75.2	ND	ND	ND	ND	ND	ND	ND	ND	ND	ND	0
55235	2016-05-17T10:00:00	56.5	ND	ND	ND	ND	ND	ND	ND	ND	ND	ND	0
55236	2016-05-17T11:00:00	64.2	ND	ND	ND	ND	ND	ND	ND	ND	ND	ND	0
55237	2016-05-17T12:00:00	39.8	ND	ND	ND	ND	ND	ND	ND	ND	ND	ND	0
55238	2016-05-17T13:00:00	3.2	ND	ND	ND	ND	ND	ND	ND	ND	ND	ND	0
55239	2016-05-17T14:00:00	73.9	ND	ND	ND	ND	ND	ND	ND	ND	ND	ND	0
55240	2016-05-17T15:00:00	82.1	ND	ND	ND	ND	ND	ND	ND	ND	ND	ND	0
55241	2016-05-17T16:00:00	63.2	ND	ND	ND	ND	ND	ND	ND	ND	ND	ND	0
55242	2016-05-17T17:00:00	52.3	ND	ND	ND	ND	ND	ND	ND	ND	ND	ND	0
55243	2016-05-17T18:00:00	26.4	ND	ND	ND	ND	ND	ND	ND	ND	ND	ND	0
55244	2016-05-17T19:00:00	13.2	ND	ND	ND	ND	ND	ND	ND	ND	ND	ND	0
55245	2016-05-17T20:00:00	1.9	ND	ND	ND	ND	ND	ND	ND	ND	ND	ND	0
55246	2016-05-17T21:00:00	12.6	ND	ND	ND	ND	ND	ND	ND	ND	ND	ND	0
55247	2016-05-17T22:00:00	31.4	ND	ND	ND	ND	ND	ND	ND	ND	ND	ND	0
55248	2016-05-17T23:00:00	44.4	ND	ND	ND	ND	ND	ND	ND	ND	ND	ND	0
55249	2016-05-18T00:00:00	31.6	ND	ND	ND	ND	ND	ND	ND	ND	ND	ND	0
55250	2016-05-18T01:00:00	29.9	ND	ND	ND	ND	ND	ND	ND	ND	ND	ND	0
55251	2016-05-18T02:00:00	22.7	ND	ND	ND	ND	ND	ND	ND	ND	ND	ND	0
55252	2016-05-18T03:00:00	24.7	ND	ND	ND	ND	ND	ND	ND	ND	ND	ND	0
55253	2016-05-18T04:00:00	17.1	ND	ND	ND	ND	ND	ND	ND	ND	ND	ND	0
55254	2016-05-18T05:00:00	22.4	ND	ND	ND	ND	ND	ND	ND	ND	ND	ND	0
55255	2016-05-18T06:00:00	31.9	ND	ND	ND	ND	ND	ND	ND	ND	ND	ND	0
55256	2016-05-18T07:00:00	51.6	ND	ND	ND	ND	ND	ND	ND	ND	ND	ND	0
55257	2016-05-18T08:00:00	75.8	ND	ND	ND	ND	ND	ND	ND	ND	ND	ND	0
55258	2016-05-18T09:00:00	76.1	ND	ND	ND	ND	ND	ND	ND	ND	ND	ND	0
55259	2016-05-18T10:00:00	90.5	ND	ND	ND	ND	ND	ND	ND	ND	ND	ND	0
55260	2016-05-18T11:00:00	82.2	ND	ND	ND	ND	ND	ND	ND	ND	ND	ND	0
55261	2016-05-18T12:00:00	57.7	ND	ND	ND	ND	ND	ND	ND	ND	ND	ND	0
55262	2016-05-18T13:00:00	54.9	ND	ND	ND	ND	ND	ND	ND	ND	ND	ND	0
55263	2016-05-18T14:00:00	54	ND	ND	ND	ND	ND	ND	ND	ND	ND	ND	0
55264	2016-05-18T15:00:00	55.7	ND	ND	ND	ND	ND	ND	ND	ND	ND	ND	0
55265	2016-05-18T16:00:00	54.9	ND	ND	ND	ND	ND	ND	ND	ND	ND	ND	0
55266	2016-05-18T17:00:00	81	ND	ND	ND	ND	ND	ND	ND	ND	ND	ND	0
55267	2016-05-18T18:00:00	48.4	ND	ND	ND	ND	ND	ND	ND	ND	ND	ND	0
55268	2016-05-18T19:00:00	21.4	ND	ND	ND	ND	ND	ND	ND	ND	ND	ND	0
55269	2016-05-18T20:00:00	14.4	ND	ND	ND	ND	ND	ND	ND	ND	ND	ND	0
55270	2016-05-18T21:00:00	12.8	ND	ND	ND	ND	ND	ND	ND	ND	ND	ND	0
55271	2016-05-18T22:00:00	39.5	ND	ND	ND	ND	ND	ND	ND	ND	ND	ND	0
55272	2016-05-18T23:00:00	53	ND	ND	ND	ND	ND	ND	ND	ND	ND	ND	0
55273	2016-05-19T00:00:00	18.6	ND	ND	ND	ND	ND	ND	ND	ND	ND	ND	0
55274	2016-05-19T01:00:00	10.3	ND	ND	ND	ND	ND	ND	ND	ND	ND	ND	0
55275	2016-05-19T02:00:00	41	ND	ND	ND	ND	ND	ND	ND	ND	ND	ND	0.51
55276	2016-05-19T03:00:00	37.1	ND	ND	ND	ND	ND	ND	ND	ND	ND	ND	7.87
55277	2016-05-19T04:00:00	21.8	ND	ND	ND	ND	ND	ND	ND	ND	ND	ND	1.52
55278	2016-05-19T05:00:00	5.3	ND	ND	ND	ND	ND	ND	ND	ND	ND	ND	3.56
55279	2016-05-19T06:00:00	12.1	ND	ND	ND	ND	ND	ND	ND	ND	ND	ND	0.25
55280	2016-05-19T07:00:00	7.7	ND	ND	ND	ND	ND	ND	ND	ND	ND	ND	0.25
55281	2016-05-19T08:00:00	18.1	ND	ND	ND	ND	ND	ND	ND	ND	ND	ND	0
55282	2016-05-19T09:00:00	82	ND	ND	ND	ND	ND	ND	ND	ND	ND	ND	0.25
55283	2016-05-19T10:00:00	85.5	ND	ND	ND	ND	ND	ND	ND	ND	ND	ND	0
55284	2016-05-19T11:00:00	67.7	ND	ND	ND	ND	ND	ND	ND	ND	ND	ND	0
55285	2016-05-19T12:00:00	70	ND	ND	ND	ND	ND	ND	ND	ND	ND	ND	0
55286	2016-05-19T13:00:00	116.2	ND	ND	ND	ND	ND	ND	ND	ND	ND	ND	0
55287	2016-05-19T14:00:00	66.4	ND	ND	ND	ND	ND	ND	ND	ND	ND	ND	0
55288	2016-05-19T15:00:00	61	ND	ND	ND	ND	ND	ND	ND	ND	ND	ND	0
55289	2016-05-19T16:00:00	45.9	ND	ND	ND	ND	ND	ND	ND	ND	ND	ND	0
55290	2016-05-19T17:00:00	60.7	ND	ND	ND	ND	ND	ND	ND	ND	ND	ND	0
55291	2016-05-19T18:00:00	52	ND	ND	ND	ND	ND	ND	ND	ND	ND	ND	0
55292	2016-05-19T19:00:00	83.6	ND	ND	ND	ND	ND	ND	ND	ND	ND	ND	0
55293	2016-05-19T20:00:00	44.9	ND	ND	ND	ND	ND	ND	ND	ND	ND	ND	0
55294	2016-05-19T21:00:00	28.5	ND	ND	ND	ND	ND	ND	ND	ND	ND	ND	0
55295	2016-05-19T22:00:00	24.9	ND	ND	ND	ND	ND	ND	ND	ND	ND	ND	0
55296	2016-05-19T23:00:00	85	ND	ND	ND	ND	ND	ND	ND	ND	ND	ND	0
55297	2016-05-20T00:00:00	72.8	ND	ND	ND	ND	ND	ND	ND	ND	ND	ND	0
55298	2016-05-20T01:00:00	41.2	ND	ND	ND	ND	ND	ND	ND	ND	ND	ND	0
55299	2016-05-20T02:00:00	30.8	ND	ND	ND	ND	ND	ND	ND	ND	ND	ND	0
55300	2016-05-20T03:00:00	36.2	ND	ND	ND	ND	ND	ND	ND	ND	ND	ND	0
55301	2016-05-20T04:00:00	35.7	ND	ND	ND	ND	ND	ND	ND	ND	ND	ND	0
55302	2016-05-20T05:00:00	38.5	ND	ND	ND	ND	ND	ND	ND	ND	ND	ND	0
55303	2016-05-20T06:00:00	44.9	ND	ND	ND	ND	ND	ND	ND	ND	ND	ND	0
55304	2016-05-20T07:00:00	57.3	ND	ND	ND	ND	ND	ND	ND	ND	ND	ND	0
55305	2016-05-20T08:00:00	81.2	ND	ND	ND	ND	ND	ND	ND	ND	ND	ND	0
55306	2016-05-20T09:00:00	106.9	ND	ND	ND	ND	ND	ND	ND	ND	ND	ND	0
55307	2016-05-20T10:00:00	103.9	ND	ND	ND	ND	ND	ND	ND	ND	ND	ND	0
55308	2016-05-20T11:00:00	35.6	ND	ND	ND	ND	ND	ND	ND	ND	ND	ND	0
55309	2016-05-20T12:00:00	57.7	ND	ND	ND	ND	ND	ND	ND	ND	ND	ND	0
55310	2016-05-20T13:00:00	58.9	ND	ND	ND	ND	ND	ND	ND	ND	ND	ND	0
55311	2016-05-20T14:00:00	ND	ND	ND	ND	ND	ND	ND	ND	ND	ND	ND	ND
55312	2016-05-20T15:00:00	64	ND	ND	ND	ND	ND	ND	ND	ND	ND	ND	0
55313	2016-05-20T16:00:00	96.6	ND	ND	ND	ND	ND	ND	ND	ND	ND	ND	0
55314	2016-05-20T17:00:00	55.6	ND	ND	ND	ND	ND	ND	ND	ND	ND	ND	0
55315	2016-05-20T18:00:00	39.9	ND	ND	ND	ND	ND	ND	ND	ND	ND	ND	0
55316	2016-05-20T19:00:00	29.2	ND	ND	ND	ND	ND	ND	ND	ND	ND	ND	0
55317	2016-05-20T20:00:00	12.5	ND	ND	ND	ND	ND	ND	ND	ND	ND	ND	0
55318	2016-05-20T21:00:00	17.7	ND	ND	ND	ND	ND	ND	ND	ND	ND	ND	0
55319	2016-05-20T22:00:00	23.7	ND	ND	ND	ND	ND	ND	ND	ND	ND	ND	0
55320	2016-05-20T23:00:00	41.4	ND	ND	ND	ND	ND	ND	ND	ND	ND	ND	0
55321	2016-05-21T00:00:00	28.5	ND	ND	ND	ND	ND	ND	ND	ND	ND	ND	0
55322	2016-05-21T01:00:00	51.5	ND	ND	ND	ND	ND	ND	ND	ND	ND	ND	0
55323	2016-05-21T02:00:00	41	ND	ND	ND	ND	ND	ND	ND	ND	ND	ND	0
55324	2016-05-21T03:00:00	41.3	ND	ND	ND	ND	ND	ND	ND	ND	ND	ND	0
55325	2016-05-21T04:00:00	52.2	ND	ND	ND	ND	ND	ND	ND	ND	ND	ND	0
55326	2016-05-21T05:00:00	45.3	ND	ND	ND	ND	ND	ND	ND	ND	ND	ND	0
55327	2016-05-21T06:00:00	58.8	ND	ND	ND	ND	ND	ND	ND	ND	ND	ND	0
55328	2016-05-21T07:00:00	67.4	ND	ND	ND	ND	ND	ND	ND	ND	ND	ND	0
55329	2016-05-21T08:00:00	93.8	ND	ND	ND	ND	ND	ND	ND	ND	ND	ND	0
55330	2016-05-21T09:00:00	90.4	ND	ND	ND	ND	ND	ND	ND	ND	ND	ND	0
55331	2016-05-21T10:00:00	71.6	ND	ND	ND	ND	ND	ND	ND	ND	ND	ND	0
55332	2016-05-21T11:00:00	73.1	ND	ND	ND	ND	ND	ND	ND	ND	ND	ND	0
55333	2016-05-21T12:00:00	78.6	ND	ND	ND	ND	ND	ND	ND	ND	ND	ND	0
55334	2016-05-21T13:00:00	62	ND	ND	ND	ND	ND	ND	ND	ND	ND	ND	0
55335	2016-05-21T14:00:00	78.8	ND	ND	ND	ND	ND	ND	ND	ND	ND	ND	0
55336	2016-05-21T15:00:00	93.1	ND	ND	ND	ND	ND	ND	ND	ND	ND	ND	0
55337	2016-05-21T16:00:00	53	ND	ND	ND	ND	ND	ND	ND	ND	ND	ND	0
55338	2016-05-21T17:00:00	23	ND	ND	ND	ND	ND	ND	ND	ND	ND	ND	0
55339	2016-05-21T18:00:00	23.5	ND	ND	ND	ND	ND	ND	ND	ND	ND	ND	0
55340	2016-05-21T19:00:00	16.6	ND	ND	ND	ND	ND	ND	ND	ND	ND	ND	0
55341	2016-05-21T20:00:00	8.9	ND	ND	ND	ND	ND	ND	ND	ND	ND	ND	0
55342	2016-05-21T21:00:00	17.2	ND	ND	ND	ND	ND	ND	ND	ND	ND	ND	0.51
55343	2016-05-21T22:00:00	16.7	ND	ND	ND	ND	ND	ND	ND	ND	ND	ND	0
55344	2016-05-21T23:00:00	16.3	ND	ND	ND	ND	ND	ND	ND	ND	ND	ND	0
55345	2016-05-22T00:00:00	26.9	ND	ND	ND	ND	ND	ND	ND	ND	ND	ND	0
55346	2016-05-22T01:00:00	24.3	ND	ND	ND	ND	ND	ND	ND	ND	ND	ND	0
55347	2016-05-22T02:00:00	3.5	ND	ND	ND	ND	ND	ND	ND	ND	ND	ND	0
55348	2016-05-22T03:00:00	24	ND	ND	ND	ND	ND	ND	ND	ND	ND	ND	10.41
55349	2016-05-22T04:00:00	15.5	ND	ND	ND	ND	ND	ND	ND	ND	ND	ND	0.25
55350	2016-05-22T05:00:00	15.7	ND	ND	ND	ND	ND	ND	ND	ND	ND	ND	0
55351	2016-05-22T06:00:00	11.9	ND	ND	ND	ND	ND	ND	ND	ND	ND	ND	0
55352	2016-05-22T07:00:00	52.1	ND	ND	ND	ND	ND	ND	ND	ND	ND	ND	0
55353	2016-05-22T08:00:00	56.6	ND	ND	ND	ND	ND	ND	ND	ND	ND	ND	0
55354	2016-05-22T09:00:00	46.8	ND	ND	ND	ND	ND	ND	ND	ND	ND	ND	0
55355	2016-05-22T10:00:00	46.4	ND	ND	ND	ND	ND	ND	ND	ND	ND	ND	0
55356	2016-05-22T11:00:00	48.9	ND	ND	ND	ND	ND	ND	ND	ND	ND	ND	0
55357	2016-05-22T12:00:00	62.5	ND	ND	ND	ND	ND	ND	ND	ND	ND	ND	0
55358	2016-05-22T13:00:00	56.4	ND	ND	ND	ND	ND	ND	ND	ND	ND	ND	0
55359	2016-05-22T14:00:00	22.5	ND	ND	ND	ND	ND	ND	ND	ND	ND	ND	0
55360	2016-05-22T15:00:00	29.4	ND	ND	ND	ND	ND	ND	ND	ND	ND	ND	0
55361	2016-05-22T16:00:00	67.4	ND	ND	ND	ND	ND	ND	ND	ND	ND	ND	0
55362	2016-05-22T17:00:00	35.4	ND	ND	ND	ND	ND	ND	ND	ND	ND	ND	0
55363	2016-05-22T18:00:00	19.9	ND	ND	ND	ND	ND	ND	ND	ND	ND	ND	0
55364	2016-05-22T19:00:00	4.7	ND	ND	ND	ND	ND	ND	ND	ND	ND	ND	0
55365	2016-05-22T20:00:00	ND	ND	ND	ND	ND	ND	ND	ND	ND	ND	ND	0
55366	2016-05-22T21:00:00	2.8	ND	ND	ND	ND	ND	ND	ND	ND	ND	ND	0
55367	2016-05-22T22:00:00	23.7	ND	ND	ND	ND	ND	ND	ND	ND	ND	ND	0
55368	2016-05-22T23:00:00	50.6	ND	ND	ND	ND	ND	ND	ND	ND	ND	ND	0
55369	2016-05-23T00:00:00	53.4	ND	ND	ND	ND	ND	ND	ND	ND	ND	ND	0
55370	2016-05-23T01:00:00	47.8	ND	ND	ND	ND	ND	ND	ND	ND	ND	ND	0
55371	2016-05-23T02:00:00	38.9	ND	ND	ND	ND	ND	ND	ND	ND	ND	ND	0
55372	2016-05-23T03:00:00	11.7	ND	ND	ND	ND	ND	ND	ND	ND	ND	ND	0
55373	2016-05-23T04:00:00	36.3	ND	ND	ND	ND	ND	ND	ND	ND	ND	ND	0
55374	2016-05-23T05:00:00	33.8	ND	ND	ND	ND	ND	ND	ND	ND	ND	ND	0
55375	2016-05-23T06:00:00	51.8	ND	ND	ND	ND	ND	ND	ND	ND	ND	ND	0
55376	2016-05-23T07:00:00	40.7	ND	ND	ND	ND	ND	ND	ND	ND	ND	ND	0
55377	2016-05-23T08:00:00	48.9	ND	ND	ND	ND	ND	ND	ND	ND	ND	ND	0
55378	2016-05-23T09:00:00	84.9	ND	ND	ND	ND	ND	ND	ND	ND	ND	ND	0
55379	2016-05-23T10:00:00	79.8	ND	ND	ND	ND	ND	ND	ND	ND	ND	ND	0
55380	2016-05-23T11:00:00	72.9	ND	ND	ND	ND	ND	ND	ND	ND	ND	ND	0
55381	2016-05-23T12:00:00	70.7	ND	ND	ND	ND	ND	ND	ND	ND	ND	ND	0
55382	2016-05-23T13:00:00	68.1	ND	ND	ND	ND	ND	ND	ND	ND	ND	ND	0
55383	2016-05-23T14:00:00	57.1	ND	ND	ND	ND	ND	ND	ND	ND	ND	ND	0
55384	2016-05-23T15:00:00	84.1	ND	ND	ND	ND	ND	ND	ND	ND	ND	ND	0
55385	2016-05-23T16:00:00	50.1	ND	ND	ND	ND	ND	ND	ND	ND	ND	ND	0
55386	2016-05-23T17:00:00	26.9	ND	ND	ND	ND	ND	ND	ND	ND	ND	ND	0
55387	2016-05-23T18:00:00	29.6	ND	ND	ND	ND	ND	ND	ND	ND	ND	ND	0
55388	2016-05-23T19:00:00	14.6	ND	ND	ND	ND	ND	ND	ND	ND	ND	ND	0
55389	2016-05-23T20:00:00	8.8	ND	ND	ND	ND	ND	ND	ND	ND	ND	ND	0
55390	2016-05-23T21:00:00	25.6	ND	ND	ND	ND	ND	ND	ND	ND	ND	ND	0
55391	2016-05-23T22:00:00	66.1	ND	ND	ND	ND	ND	ND	ND	ND	ND	ND	0
55392	2016-05-23T23:00:00	79.6	ND	ND	ND	ND	ND	ND	ND	ND	ND	ND	0
55393	2016-05-24T00:00:00	49.1	ND	ND	ND	ND	ND	ND	ND	ND	ND	ND	0
55394	2016-05-24T01:00:00	8.5	ND	ND	ND	ND	ND	ND	ND	ND	ND	ND	0
55395	2016-05-24T02:00:00	17.4	ND	ND	ND	ND	ND	ND	ND	ND	ND	ND	0
55396	2016-05-24T03:00:00	59.2	ND	ND	ND	ND	ND	ND	ND	ND	ND	ND	0
55397	2016-05-24T04:00:00	49.9	ND	ND	ND	ND	ND	ND	ND	ND	ND	ND	0
55398	2016-05-24T05:00:00	49.9	ND	ND	ND	ND	ND	ND	ND	ND	ND	ND	0
55399	2016-05-24T06:00:00	53	ND	ND	ND	ND	ND	ND	ND	ND	ND	ND	0
55400	2016-05-24T07:00:00	69.9	ND	ND	ND	ND	ND	ND	ND	ND	ND	ND	0
55401	2016-05-24T08:00:00	96.9	ND	ND	ND	ND	ND	ND	ND	ND	ND	ND	0
55402	2016-05-24T09:00:00	107.9	ND	ND	ND	ND	ND	ND	ND	ND	ND	ND	0
55403	2016-05-24T10:00:00	119	ND	ND	ND	ND	ND	ND	ND	ND	ND	ND	0
55404	2016-05-24T11:00:00	63.5	ND	ND	ND	ND	ND	ND	ND	ND	ND	ND	0
55405	2016-05-24T12:00:00	63.3	ND	ND	ND	ND	ND	ND	ND	ND	ND	ND	0
55406	2016-05-24T13:00:00	72	ND	ND	ND	ND	ND	ND	ND	ND	ND	ND	0
55407	2016-05-24T14:00:00	79.6	ND	ND	ND	ND	ND	ND	ND	ND	ND	ND	0
55408	2016-05-24T15:00:00	56.4	ND	ND	ND	ND	ND	ND	ND	ND	ND	ND	0
55409	2016-05-24T16:00:00	59	ND	ND	ND	ND	ND	ND	ND	ND	ND	ND	0
55410	2016-05-24T17:00:00	26.1	ND	ND	ND	ND	ND	ND	ND	ND	ND	ND	0
55411	2016-05-24T18:00:00	3	ND	ND	ND	ND	ND	ND	ND	ND	ND	ND	0
55412	2016-05-24T19:00:00	6.6	ND	ND	ND	ND	ND	ND	ND	ND	ND	ND	0
55413	2016-05-24T20:00:00	31.3	ND	ND	ND	ND	ND	ND	ND	ND	ND	ND	0
55414	2016-05-24T21:00:00	33	ND	ND	ND	ND	ND	ND	ND	ND	ND	ND	0
55415	2016-05-24T22:00:00	4.6	ND	ND	ND	ND	ND	ND	ND	ND	ND	ND	0
55416	2016-05-24T23:00:00	11.5	ND	ND	ND	ND	ND	ND	ND	ND	ND	ND	0
55417	2016-05-25T00:00:00	28.4	ND	ND	ND	ND	ND	ND	ND	ND	ND	ND	0
55418	2016-05-25T01:00:00	18.9	ND	ND	ND	ND	ND	ND	ND	ND	ND	ND	0
55419	2016-05-25T02:00:00	76.5	ND	ND	ND	ND	ND	ND	ND	ND	ND	ND	0
55420	2016-05-25T03:00:00	57	ND	ND	ND	ND	ND	ND	ND	ND	ND	ND	0
55421	2016-05-25T04:00:00	41.7	ND	ND	ND	ND	ND	ND	ND	ND	ND	ND	0
55422	2016-05-25T05:00:00	25.8	ND	ND	ND	ND	ND	ND	ND	ND	ND	ND	0
55423	2016-05-25T06:00:00	63.5	ND	ND	ND	ND	ND	ND	ND	ND	ND	ND	0
55424	2016-05-25T07:00:00	41	ND	ND	ND	ND	ND	ND	ND	ND	ND	ND	0
55425	2016-05-25T08:00:00	42.8	ND	ND	ND	ND	ND	ND	ND	ND	ND	ND	0
55426	2016-05-25T09:00:00	67.5	ND	ND	ND	ND	ND	ND	ND	ND	ND	ND	0
55427	2016-05-25T10:00:00	54.8	ND	ND	ND	ND	ND	ND	ND	ND	ND	ND	0
55428	2016-05-25T11:00:00	39.1	ND	ND	ND	ND	ND	ND	ND	ND	ND	ND	0
55429	2016-05-25T12:00:00	62.5	ND	ND	ND	ND	ND	ND	ND	ND	ND	ND	0
55430	2016-05-25T13:00:00	70.8	ND	ND	ND	ND	ND	ND	ND	ND	ND	ND	0
55431	2016-05-25T14:00:00	64.4	ND	ND	ND	ND	ND	ND	ND	ND	ND	ND	0
55432	2016-05-25T15:00:00	70.4	ND	ND	ND	ND	ND	ND	ND	ND	ND	ND	0
55433	2016-05-25T16:00:00	74.1	ND	ND	ND	ND	ND	ND	ND	ND	ND	ND	0
55434	2016-05-25T17:00:00	57.8	ND	ND	ND	ND	ND	ND	ND	ND	ND	ND	0
55435	2016-05-25T18:00:00	42.7	ND	ND	ND	ND	ND	ND	ND	ND	ND	ND	0
55436	2016-05-25T19:00:00	39.8	ND	ND	ND	ND	ND	ND	ND	ND	ND	ND	0
55437	2016-05-25T20:00:00	24.4	ND	ND	ND	ND	ND	ND	ND	ND	ND	ND	0
55438	2016-05-25T21:00:00	22.8	ND	ND	ND	ND	ND	ND	ND	ND	ND	ND	0.25
55439	2016-05-25T22:00:00	28.8	ND	ND	ND	ND	ND	ND	ND	ND	ND	ND	1.02
55440	2016-05-25T23:00:00	6.7	ND	ND	ND	ND	ND	ND	ND	ND	ND	ND	0
55441	2016-05-26T00:00:00	25.8	ND	ND	ND	ND	ND	ND	ND	ND	ND	ND	0.25
55442	2016-05-26T01:00:00	36.9	ND	ND	ND	ND	ND	ND	ND	ND	ND	ND	0
55443	2016-05-26T02:00:00	37.3	ND	ND	ND	ND	ND	ND	ND	ND	ND	ND	0
55444	2016-05-26T03:00:00	26.6	ND	ND	ND	ND	ND	ND	ND	ND	ND	ND	0
55445	2016-05-26T04:00:00	30.3	ND	ND	ND	ND	ND	ND	ND	ND	ND	ND	0
55446	2016-05-26T05:00:00	19.5	ND	ND	ND	ND	ND	ND	ND	ND	ND	ND	9.65
55447	2016-05-26T06:00:00	24.4	ND	ND	ND	ND	ND	ND	ND	ND	ND	ND	3.56
55448	2016-05-26T07:00:00	10.5	ND	ND	ND	ND	ND	ND	ND	ND	ND	ND	2.03
55449	2016-05-26T08:00:00	10.9	ND	ND	ND	ND	ND	ND	ND	ND	ND	ND	0.25
55450	2016-05-26T09:00:00	46.4	ND	ND	ND	ND	ND	ND	ND	ND	ND	ND	0
55451	2016-05-26T10:00:00	60.5	ND	ND	ND	ND	ND	ND	ND	ND	ND	ND	0.25
55452	2016-05-26T11:00:00	57.4	ND	ND	ND	ND	ND	ND	ND	ND	ND	ND	0
55453	2016-05-26T12:00:00	61.4	ND	ND	ND	ND	ND	ND	ND	ND	ND	ND	0
55454	2016-05-26T13:00:00	72	ND	ND	ND	ND	ND	ND	ND	ND	ND	ND	0
55455	2016-05-26T14:00:00	71.7	ND	ND	ND	ND	ND	ND	ND	ND	ND	ND	0
55456	2016-05-26T15:00:00	47.4	ND	ND	ND	ND	ND	ND	ND	ND	ND	ND	0
55457	2016-05-26T16:00:00	32	ND	ND	ND	ND	ND	ND	ND	ND	ND	ND	0
55458	2016-05-26T17:00:00	32.5	ND	ND	ND	ND	ND	ND	ND	ND	ND	ND	0
55459	2016-05-26T18:00:00	55	ND	ND	ND	ND	ND	ND	ND	ND	ND	ND	0
55460	2016-05-26T19:00:00	75.2	ND	ND	ND	ND	ND	ND	ND	ND	ND	ND	0
55461	2016-05-26T20:00:00	86.9	ND	ND	ND	ND	ND	ND	ND	ND	ND	ND	0
55462	2016-05-26T21:00:00	60.5	ND	ND	ND	ND	ND	ND	ND	ND	ND	ND	0
55463	2016-05-26T22:00:00	49.1	ND	ND	ND	ND	ND	ND	ND	ND	ND	ND	0
55464	2016-05-26T23:00:00	42	ND	ND	ND	ND	ND	ND	ND	ND	ND	ND	0
55465	2016-05-27T00:00:00	20.5	ND	ND	ND	ND	ND	ND	ND	ND	ND	ND	0
55466	2016-05-27T01:00:00	52.2	ND	ND	ND	ND	ND	ND	ND	ND	ND	ND	0
55467	2016-05-27T02:00:00	54.8	ND	ND	ND	ND	ND	ND	ND	ND	ND	ND	0
55468	2016-05-27T03:00:00	38.3	ND	ND	ND	ND	ND	ND	ND	ND	ND	ND	0
55469	2016-05-27T04:00:00	47.1	ND	ND	ND	ND	ND	ND	ND	ND	ND	ND	0
55470	2016-05-27T05:00:00	46	ND	ND	ND	ND	ND	ND	ND	ND	ND	ND	0
55471	2016-05-27T06:00:00	ND	ND	ND	ND	ND	ND	ND	ND	ND	ND	ND	0
55472	2016-05-27T07:00:00	35.6	ND	ND	ND	ND	ND	ND	ND	ND	ND	ND	0
55473	2016-05-27T08:00:00	ND	ND	ND	ND	ND	ND	ND	ND	ND	ND	ND	0
55474	2016-05-27T09:00:00	177	ND	ND	ND	ND	ND	ND	ND	ND	ND	ND	0
55475	2016-05-27T10:00:00	132.6	ND	ND	ND	ND	ND	ND	ND	ND	ND	ND	0
55476	2016-05-27T11:00:00	116.2	ND	ND	ND	ND	ND	ND	ND	ND	ND	ND	0
55477	2016-05-27T12:00:00	91.7	ND	ND	ND	ND	ND	ND	ND	ND	ND	ND	0
55478	2016-05-27T13:00:00	84.5	ND	ND	ND	ND	ND	ND	ND	ND	ND	ND	0
55479	2016-05-27T14:00:00	85.6	ND	ND	ND	ND	ND	ND	ND	ND	ND	ND	0
55480	2016-05-27T15:00:00	63.2	ND	ND	ND	ND	ND	ND	ND	ND	ND	ND	0
55481	2016-05-27T16:00:00	48	ND	ND	ND	ND	ND	ND	ND	ND	ND	ND	4.06
55482	2016-05-27T17:00:00	35.8	ND	ND	ND	ND	ND	ND	ND	ND	ND	ND	9.65
55483	2016-05-27T18:00:00	26.9	ND	ND	ND	ND	ND	ND	ND	ND	ND	ND	0
55484	2016-05-27T19:00:00	16.8	ND	ND	ND	ND	ND	ND	ND	ND	ND	ND	0
55485	2016-05-27T20:00:00	3.5	ND	ND	ND	ND	ND	ND	ND	ND	ND	ND	0
55486	2016-05-27T21:00:00	7.5	ND	ND	ND	ND	ND	ND	ND	ND	ND	ND	0
55487	2016-05-27T22:00:00	63.1	ND	ND	ND	ND	ND	ND	ND	ND	ND	ND	0
55488	2016-05-27T23:00:00	110.1	ND	ND	ND	ND	ND	ND	ND	ND	ND	ND	0
55489	2016-05-28T00:00:00	94.2	ND	ND	ND	ND	ND	ND	ND	ND	ND	ND	0
55490	2016-05-28T01:00:00	107.1	ND	ND	ND	ND	ND	ND	ND	ND	ND	ND	0
55491	2016-05-28T02:00:00	32	ND	ND	ND	ND	ND	ND	ND	ND	ND	ND	0
55492	2016-05-28T03:00:00	47.4	ND	ND	ND	ND	ND	ND	ND	ND	ND	ND	0
55493	2016-05-28T04:00:00	74.1	ND	ND	ND	ND	ND	ND	ND	ND	ND	ND	0
55494	2016-05-28T05:00:00	73.1	ND	ND	ND	ND	ND	ND	ND	ND	ND	ND	0
55495	2016-05-28T06:00:00	86.4	ND	ND	ND	ND	ND	ND	ND	ND	ND	ND	0
55496	2016-05-28T07:00:00	113.5	ND	ND	ND	ND	ND	ND	ND	ND	ND	ND	0
55497	2016-05-28T08:00:00	128.2	ND	ND	ND	ND	ND	ND	ND	ND	ND	ND	0
55498	2016-05-28T09:00:00	159.4	ND	ND	ND	ND	ND	ND	ND	ND	ND	ND	0
55499	2016-05-28T10:00:00	147	ND	ND	ND	ND	ND	ND	ND	ND	ND	ND	0
55500	2016-05-28T11:00:00	115	ND	ND	ND	ND	ND	ND	ND	ND	ND	ND	0
55501	2016-05-28T12:00:00	90.8	ND	ND	ND	ND	ND	ND	ND	ND	ND	ND	0
55502	2016-05-28T13:00:00	53.3	ND	ND	ND	ND	ND	ND	ND	ND	ND	ND	0
55503	2016-05-28T14:00:00	26.7	ND	ND	ND	ND	ND	ND	ND	ND	ND	ND	0
55504	2016-05-28T15:00:00	75.9	ND	ND	ND	ND	ND	ND	ND	ND	ND	ND	0
55505	2016-05-28T16:00:00	76.2	ND	ND	ND	ND	ND	ND	ND	ND	ND	ND	4.57
55506	2016-05-28T17:00:00	2.1	ND	ND	ND	ND	ND	ND	ND	ND	ND	ND	9.65
55507	2016-05-28T18:00:00	13.4	ND	ND	ND	ND	ND	ND	ND	ND	ND	ND	1.52
55508	2016-05-28T19:00:00	44.8	ND	ND	ND	ND	ND	ND	ND	ND	ND	ND	2.79
55509	2016-05-28T20:00:00	34.3	ND	ND	ND	ND	ND	ND	ND	ND	ND	ND	2.03
55510	2016-05-28T21:00:00	36.6	ND	ND	ND	ND	ND	ND	ND	ND	ND	ND	0
55511	2016-05-28T22:00:00	31.1	ND	ND	ND	ND	ND	ND	ND	ND	ND	ND	0
55512	2016-05-28T23:00:00	11.7	ND	ND	ND	ND	ND	ND	ND	ND	ND	ND	0
55513	2016-05-29T00:00:00	13.6	ND	ND	ND	ND	ND	ND	ND	ND	ND	ND	0
55514	2016-05-29T01:00:00	15.7	ND	ND	ND	ND	ND	ND	ND	ND	ND	ND	0.25
55515	2016-05-29T02:00:00	16.5	ND	ND	ND	ND	ND	ND	ND	ND	ND	ND	0
55516	2016-05-29T03:00:00	27.3	ND	ND	ND	ND	ND	ND	ND	ND	ND	ND	0
55517	2016-05-29T04:00:00	41.7	ND	ND	ND	ND	ND	ND	ND	ND	ND	ND	0
55518	2016-05-29T05:00:00	40	ND	ND	ND	ND	ND	ND	ND	ND	ND	ND	0
55519	2016-05-29T06:00:00	30.2	ND	ND	ND	ND	ND	ND	ND	ND	ND	ND	0
55520	2016-05-29T07:00:00	35.7	ND	ND	ND	ND	ND	ND	ND	ND	ND	ND	0
55521	2016-05-29T08:00:00	97.3	ND	ND	ND	ND	ND	ND	ND	ND	ND	ND	0
55522	2016-05-29T09:00:00	91.4	ND	ND	ND	ND	ND	ND	ND	ND	ND	ND	0
55523	2016-05-29T10:00:00	63.1	ND	ND	ND	ND	ND	ND	ND	ND	ND	ND	0
55524	2016-05-29T11:00:00	31.4	ND	ND	ND	ND	ND	ND	ND	ND	ND	ND	0
55525	2016-05-29T12:00:00	61.8	ND	ND	ND	ND	ND	ND	ND	ND	ND	ND	0
55526	2016-05-29T13:00:00	37	ND	ND	ND	ND	ND	ND	ND	ND	ND	ND	0
55527	2016-05-29T14:00:00	45.1	ND	ND	ND	ND	ND	ND	ND	ND	ND	ND	0
55528	2016-05-29T15:00:00	44.2	ND	ND	ND	ND	ND	ND	ND	ND	ND	ND	0
55529	2016-05-29T16:00:00	31.8	ND	ND	ND	ND	ND	ND	ND	ND	ND	ND	0
55530	2016-05-29T17:00:00	2	ND	ND	ND	ND	ND	ND	ND	ND	ND	ND	0
55531	2016-05-29T18:00:00	ND	ND	ND	ND	ND	ND	ND	ND	ND	ND	ND	0
55532	2016-05-29T19:00:00	ND	ND	ND	ND	ND	ND	ND	ND	ND	ND	ND	0
55533	2016-05-29T20:00:00	ND	ND	ND	ND	ND	ND	ND	ND	ND	ND	ND	0
55534	2016-05-29T21:00:00	4.5	ND	ND	ND	ND	ND	ND	ND	ND	ND	ND	0
55535	2016-05-29T22:00:00	143.1	ND	ND	ND	ND	ND	ND	ND	ND	ND	ND	0
55536	2016-05-29T23:00:00	113.7	ND	ND	ND	ND	ND	ND	ND	ND	ND	ND	0
55537	2016-05-30T00:00:00	56.1	ND	ND	ND	ND	ND	ND	ND	ND	ND	ND	0
55538	2016-05-30T01:00:00	32.8	ND	ND	ND	ND	ND	ND	ND	ND	ND	ND	0
55539	2016-05-30T02:00:00	24.1	ND	ND	ND	ND	ND	ND	ND	ND	ND	ND	0
55540	2016-05-30T03:00:00	21.1	ND	ND	ND	ND	ND	ND	ND	ND	ND	ND	0
55541	2016-05-30T04:00:00	9.4	ND	ND	ND	ND	ND	ND	ND	ND	ND	ND	0
55542	2016-05-30T05:00:00	32	ND	ND	ND	ND	ND	ND	ND	ND	ND	ND	0
55543	2016-05-30T06:00:00	58.5	ND	ND	ND	ND	ND	ND	ND	ND	ND	ND	0
55544	2016-05-30T07:00:00	46.1	ND	ND	ND	ND	ND	ND	ND	ND	ND	ND	0
55545	2016-05-30T08:00:00	39.8	ND	ND	ND	ND	ND	ND	ND	ND	ND	ND	0
55546	2016-05-30T09:00:00	37.6	ND	ND	ND	ND	ND	ND	ND	ND	ND	ND	0
55547	2016-05-30T10:00:00	28.8	ND	ND	ND	ND	ND	ND	ND	ND	ND	ND	0
55548	2016-05-30T11:00:00	39.8	ND	ND	ND	ND	ND	ND	ND	ND	ND	ND	0
55549	2016-05-30T12:00:00	40.3	ND	ND	ND	ND	ND	ND	ND	ND	ND	ND	0
55550	2016-05-30T13:00:00	46.2	ND	ND	ND	ND	ND	ND	ND	ND	ND	ND	0
55551	2016-05-30T14:00:00	46.4	ND	ND	ND	ND	ND	ND	ND	ND	ND	ND	0
55552	2016-05-30T15:00:00	49.7	ND	ND	ND	ND	ND	ND	ND	ND	ND	ND	0
55553	2016-05-30T16:00:00	63.2	ND	ND	ND	ND	ND	ND	ND	ND	ND	ND	0
55554	2016-05-30T17:00:00	51.7	ND	ND	ND	ND	ND	ND	ND	ND	ND	ND	1.27
55555	2016-05-30T18:00:00	35.2	ND	ND	ND	ND	ND	ND	ND	ND	ND	ND	0.51
55556	2016-05-30T19:00:00	17	ND	ND	ND	ND	ND	ND	ND	ND	ND	ND	0
55557	2016-05-30T20:00:00	5.2	ND	ND	ND	ND	ND	ND	ND	ND	ND	ND	0
55558	2016-05-30T21:00:00	ND	ND	ND	ND	ND	ND	ND	ND	ND	ND	ND	0
55559	2016-05-30T22:00:00	ND	ND	ND	ND	ND	ND	ND	ND	ND	ND	ND	0
55560	2016-05-30T23:00:00	ND	ND	ND	ND	ND	ND	ND	ND	ND	ND	ND	0.51
55561	2016-05-31T00:00:00	12.9	ND	ND	ND	ND	ND	ND	ND	ND	ND	ND	0
55562	2016-05-31T01:00:00	29	ND	ND	ND	ND	ND	ND	ND	ND	ND	ND	0
55563	2016-05-31T02:00:00	28.5	ND	ND	ND	ND	ND	ND	ND	ND	ND	ND	0
55564	2016-05-31T03:00:00	1.2	ND	ND	ND	ND	ND	ND	ND	ND	ND	ND	5.59
55565	2016-05-31T04:00:00	16.8	ND	ND	ND	ND	ND	ND	ND	ND	ND	ND	6.6
55566	2016-05-31T05:00:00	39.8	ND	ND	ND	ND	ND	ND	ND	ND	ND	ND	2.03
55567	2016-05-31T06:00:00	18.4	ND	ND	ND	ND	ND	ND	ND	ND	ND	ND	6.6
55568	2016-05-31T07:00:00	1.8	ND	ND	ND	ND	ND	ND	ND	ND	ND	ND	5.84
55569	2016-05-31T08:00:00	4	ND	ND	ND	ND	ND	ND	ND	ND	ND	ND	1.02
55570	2016-05-31T09:00:00	67.1	ND	ND	ND	ND	ND	ND	ND	ND	ND	ND	0.25
55571	2016-05-31T10:00:00	78.7	ND	ND	ND	ND	ND	ND	ND	ND	ND	ND	0
55572	2016-05-31T11:00:00	59.4	ND	ND	ND	ND	ND	ND	ND	ND	ND	ND	0
55573	2016-05-31T12:00:00	60.2	ND	ND	ND	ND	ND	ND	ND	ND	ND	ND	0
55574	2016-05-31T13:00:00	46.4	ND	ND	ND	ND	ND	ND	ND	ND	ND	ND	0
55575	2016-05-31T14:00:00	44.8	ND	ND	ND	ND	ND	ND	ND	ND	ND	ND	0
55576	2016-05-31T15:00:00	39.2	ND	ND	ND	ND	ND	ND	ND	ND	ND	ND	0
55577	2016-05-31T16:00:00	45	ND	ND	ND	ND	ND	ND	ND	ND	ND	ND	0
55578	2016-05-31T17:00:00	65	ND	ND	ND	ND	ND	ND	ND	ND	ND	ND	0
55579	2016-05-31T18:00:00	53.4	ND	ND	ND	ND	ND	ND	ND	ND	ND	ND	0
55580	2016-05-31T19:00:00	47.9	ND	ND	ND	ND	ND	ND	ND	ND	ND	ND	0
55581	2016-05-31T20:00:00	63.9	ND	ND	ND	ND	ND	ND	ND	ND	ND	ND	0
55582	2016-05-31T21:00:00	68.3	ND	ND	ND	ND	ND	ND	ND	ND	ND	ND	0
55583	2016-05-31T22:00:00	52	ND	ND	ND	ND	ND	ND	ND	ND	ND	ND	0
55584	2016-05-31T23:00:00	53.7	ND	ND	ND	ND	ND	ND	ND	ND	ND	ND	0
55585	2016-06-01T00:00:00	47.7	ND	ND	ND	ND	ND	ND	ND	ND	ND	ND	0
55586	2016-06-01T01:00:00	33.3	ND	ND	ND	ND	ND	ND	ND	ND	ND	ND	0
55587	2016-06-01T02:00:00	15.2	ND	ND	ND	ND	ND	ND	ND	ND	ND	ND	0
55588	2016-06-01T03:00:00	40	ND	ND	ND	ND	ND	ND	ND	ND	ND	ND	0
55589	2016-06-01T04:00:00	23.9	ND	ND	ND	ND	ND	ND	ND	ND	ND	ND	0
55590	2016-06-01T05:00:00	9.1	ND	ND	ND	ND	ND	ND	ND	ND	ND	ND	0
55591	2016-06-01T06:00:00	54.7	ND	ND	ND	ND	ND	ND	ND	ND	ND	ND	0
55592	2016-06-01T07:00:00	115.1	ND	ND	ND	ND	ND	ND	ND	ND	ND	ND	0
55593	2016-06-01T08:00:00	116	ND	ND	ND	ND	ND	ND	ND	ND	ND	ND	0
55594	2016-06-01T09:00:00	136.8	ND	ND	ND	ND	ND	ND	ND	ND	ND	ND	0
55595	2016-06-01T10:00:00	120.3	ND	ND	ND	ND	ND	ND	ND	ND	ND	ND	0
55596	2016-06-01T11:00:00	137.8	ND	ND	ND	ND	ND	ND	ND	ND	ND	ND	0
55597	2016-06-01T12:00:00	ND	ND	ND	ND	ND	ND	ND	ND	ND	ND	ND	0
55598	2016-06-01T13:00:00	159.8	ND	ND	ND	ND	ND	ND	ND	ND	ND	ND	0
55599	2016-06-01T14:00:00	85.6	ND	ND	ND	ND	ND	ND	ND	ND	ND	ND	0
55600	2016-06-01T15:00:00	56.1	ND	ND	ND	ND	ND	ND	ND	ND	ND	ND	0
55601	2016-06-01T16:00:00	29.6	ND	ND	ND	ND	ND	ND	ND	ND	ND	ND	0
55602	2016-06-01T17:00:00	27.4	ND	ND	ND	ND	ND	ND	ND	ND	ND	ND	0
55603	2016-06-01T18:00:00	8.7	ND	ND	ND	ND	ND	ND	ND	ND	ND	ND	0
55604	2016-06-01T19:00:00	ND	ND	ND	ND	ND	ND	ND	ND	ND	ND	ND	0
55605	2016-06-01T20:00:00	ND	ND	ND	ND	ND	ND	ND	ND	ND	ND	ND	0
55606	2016-06-01T21:00:00	ND	ND	ND	ND	ND	ND	ND	ND	ND	ND	ND	0
55607	2016-06-01T22:00:00	4	ND	ND	ND	ND	ND	ND	ND	ND	ND	ND	0
55608	2016-06-01T23:00:00	108.6	ND	ND	ND	ND	ND	ND	ND	ND	ND	ND	0
55609	2016-06-02T00:00:00	99.3	ND	ND	ND	ND	ND	ND	ND	ND	ND	ND	0
55610	2016-06-02T01:00:00	40	ND	ND	ND	ND	ND	ND	ND	ND	ND	ND	0
55611	2016-06-02T02:00:00	35.5	ND	ND	ND	ND	ND	ND	ND	ND	ND	ND	0
55612	2016-06-02T03:00:00	72.3	ND	ND	ND	ND	ND	ND	ND	ND	ND	ND	0
55613	2016-06-02T04:00:00	57.2	ND	ND	ND	ND	ND	ND	ND	ND	ND	ND	0
55614	2016-06-02T05:00:00	37.1	ND	ND	ND	ND	ND	ND	ND	ND	ND	ND	0
55615	2016-06-02T06:00:00	14.7	ND	ND	ND	ND	ND	ND	ND	ND	ND	ND	0
55616	2016-06-02T07:00:00	22.5	ND	ND	ND	ND	ND	ND	ND	ND	ND	ND	0
55617	2016-06-02T08:00:00	69	ND	ND	ND	ND	ND	ND	ND	ND	ND	ND	0
55618	2016-06-02T09:00:00	117.2	ND	ND	ND	ND	ND	ND	ND	ND	ND	ND	0
55619	2016-06-02T10:00:00	101.1	ND	ND	ND	ND	ND	ND	ND	ND	ND	ND	0
55620	2016-06-02T11:00:00	85.8	ND	ND	ND	ND	ND	ND	ND	ND	ND	ND	0
55621	2016-06-02T12:00:00	79.7	ND	ND	ND	ND	ND	ND	ND	ND	ND	ND	0
55622	2016-06-02T13:00:00	80.7	ND	ND	ND	ND	ND	ND	ND	ND	ND	ND	0
55623	2016-06-02T14:00:00	59.7	ND	ND	ND	ND	ND	ND	ND	ND	ND	ND	0
55624	2016-06-02T15:00:00	34.3	ND	ND	ND	ND	ND	ND	ND	ND	ND	ND	0
55625	2016-06-02T16:00:00	30	ND	ND	ND	ND	ND	ND	ND	ND	ND	ND	0
55626	2016-06-02T17:00:00	25.3	ND	ND	ND	ND	ND	ND	ND	ND	ND	ND	2.29
55627	2016-06-02T18:00:00	22.1	ND	ND	ND	ND	ND	ND	ND	ND	ND	ND	0.25
55628	2016-06-02T19:00:00	6.5	ND	ND	ND	ND	ND	ND	ND	ND	ND	ND	0
55629	2016-06-02T20:00:00	ND	ND	ND	ND	ND	ND	ND	ND	ND	ND	ND	0
55630	2016-06-02T21:00:00	1.2	ND	ND	ND	ND	ND	ND	ND	ND	ND	ND	0
55631	2016-06-02T22:00:00	67.6	ND	ND	ND	ND	ND	ND	ND	ND	ND	ND	0
55632	2016-06-02T23:00:00	59	ND	ND	ND	ND	ND	ND	ND	ND	ND	ND	0
55633	2016-06-03T00:00:00	45.9	ND	ND	ND	ND	ND	ND	ND	ND	ND	ND	0
55634	2016-06-03T01:00:00	73.4	ND	ND	ND	ND	ND	ND	ND	ND	ND	ND	0
55635	2016-06-03T02:00:00	48.8	ND	ND	ND	ND	ND	ND	ND	ND	ND	ND	0
55636	2016-06-03T03:00:00	31.3	ND	ND	ND	ND	ND	ND	ND	ND	ND	ND	0
55637	2016-06-03T04:00:00	25.6	ND	ND	ND	ND	ND	ND	ND	ND	ND	ND	0
55638	2016-06-03T05:00:00	17.2	ND	ND	ND	ND	ND	ND	ND	ND	ND	ND	0
55639	2016-06-03T06:00:00	25	ND	ND	ND	ND	ND	ND	ND	ND	ND	ND	0
55640	2016-06-03T07:00:00	0.9	ND	ND	ND	ND	ND	ND	ND	ND	ND	ND	0
55641	2016-06-03T08:00:00	75.4	ND	ND	ND	ND	ND	ND	ND	ND	ND	ND	0
55642	2016-06-03T09:00:00	124.2	ND	ND	ND	ND	ND	ND	ND	ND	ND	ND	0
55643	2016-06-03T10:00:00	59.2	ND	ND	ND	ND	ND	ND	ND	ND	ND	ND	0
55644	2016-06-03T11:00:00	44.8	ND	ND	ND	ND	ND	ND	ND	ND	ND	ND	0
55645	2016-06-03T12:00:00	56.5	ND	ND	ND	ND	ND	ND	ND	ND	ND	ND	0
55646	2016-06-03T13:00:00	50.9	ND	ND	ND	ND	ND	ND	ND	ND	ND	ND	0
55647	2016-06-03T14:00:00	36.2	ND	ND	ND	ND	ND	ND	ND	ND	ND	ND	0
55648	2016-06-03T15:00:00	32.2	ND	ND	ND	ND	ND	ND	ND	ND	ND	ND	0
55649	2016-06-03T16:00:00	48.7	ND	ND	ND	ND	ND	ND	ND	ND	ND	ND	0
55650	2016-06-03T17:00:00	53.3	ND	ND	ND	ND	ND	ND	ND	ND	ND	ND	0
55651	2016-06-03T18:00:00	19.4	ND	ND	ND	ND	ND	ND	ND	ND	ND	ND	0
55652	2016-06-03T19:00:00	ND	ND	ND	ND	ND	ND	ND	ND	ND	ND	ND	0
55653	2016-06-03T20:00:00	112.1	ND	ND	ND	ND	ND	ND	ND	ND	ND	ND	0
55654	2016-06-03T21:00:00	156.9	ND	ND	ND	ND	ND	ND	ND	ND	ND	ND	0
55655	2016-06-03T22:00:00	78.2	ND	ND	ND	ND	ND	ND	ND	ND	ND	ND	0
55656	2016-06-03T23:00:00	71.2	ND	ND	ND	ND	ND	ND	ND	ND	ND	ND	0
55657	2016-06-04T00:00:00	85.4	ND	ND	ND	ND	ND	ND	ND	ND	ND	ND	0
55658	2016-06-04T01:00:00	79.4	ND	ND	ND	ND	ND	ND	ND	ND	ND	ND	0
55659	2016-06-04T02:00:00	64.5	ND	ND	ND	ND	ND	ND	ND	ND	ND	ND	0.25
55660	2016-06-04T03:00:00	50.3	ND	ND	ND	ND	ND	ND	ND	ND	ND	ND	0.25
55661	2016-06-04T04:00:00	52.3	ND	ND	ND	ND	ND	ND	ND	ND	ND	ND	12.19
55662	2016-06-04T05:00:00	36.2	ND	ND	ND	ND	ND	ND	ND	ND	ND	ND	5.08
55663	2016-06-04T06:00:00	14.1	ND	ND	ND	ND	ND	ND	ND	ND	ND	ND	1.02
55664	2016-06-04T07:00:00	ND	ND	ND	ND	ND	ND	ND	ND	ND	ND	ND	0
55665	2016-06-04T08:00:00	29.4	ND	ND	ND	ND	ND	ND	ND	ND	ND	ND	0.25
55666	2016-06-04T09:00:00	42.2	ND	ND	ND	ND	ND	ND	ND	ND	ND	ND	0
55667	2016-06-04T10:00:00	46.4	ND	ND	ND	ND	ND	ND	ND	ND	ND	ND	0
55668	2016-06-04T11:00:00	41.1	ND	ND	ND	ND	ND	ND	ND	ND	ND	ND	0
55669	2016-06-04T12:00:00	51.1	ND	ND	ND	ND	ND	ND	ND	ND	ND	ND	0
55670	2016-06-04T13:00:00	53.6	ND	ND	ND	ND	ND	ND	ND	ND	ND	ND	0
55671	2016-06-04T14:00:00	48.4	ND	ND	ND	ND	ND	ND	ND	ND	ND	ND	0
55672	2016-06-04T15:00:00	51.3	ND	ND	ND	ND	ND	ND	ND	ND	ND	ND	0
55673	2016-06-04T16:00:00	50.3	ND	ND	ND	ND	ND	ND	ND	ND	ND	ND	0
55674	2016-06-04T17:00:00	55.7	ND	ND	ND	ND	ND	ND	ND	ND	ND	ND	0
55675	2016-06-04T18:00:00	54.3	ND	ND	ND	ND	ND	ND	ND	ND	ND	ND	0
55676	2016-06-04T19:00:00	40	ND	ND	ND	ND	ND	ND	ND	ND	ND	ND	0
55677	2016-06-04T20:00:00	47.7	ND	ND	ND	ND	ND	ND	ND	ND	ND	ND	0
55678	2016-06-04T21:00:00	28.5	ND	ND	ND	ND	ND	ND	ND	ND	ND	ND	0
55679	2016-06-04T22:00:00	37	ND	ND	ND	ND	ND	ND	ND	ND	ND	ND	0
55680	2016-06-04T23:00:00	37	ND	ND	ND	ND	ND	ND	ND	ND	ND	ND	0
55681	2016-06-05T00:00:00	14.8	ND	ND	ND	ND	ND	ND	ND	ND	ND	ND	0
55682	2016-06-05T01:00:00	46.1	ND	ND	ND	ND	ND	ND	ND	ND	ND	ND	0
55683	2016-06-05T02:00:00	77.7	ND	ND	ND	ND	ND	ND	ND	ND	ND	ND	0
55684	2016-06-05T03:00:00	80.5	ND	ND	ND	ND	ND	ND	ND	ND	ND	ND	0
55685	2016-06-05T04:00:00	58.2	ND	ND	ND	ND	ND	ND	ND	ND	ND	ND	0
55686	2016-06-05T05:00:00	71.8	ND	ND	ND	ND	ND	ND	ND	ND	ND	ND	0
55687	2016-06-05T06:00:00	90.3	ND	ND	ND	ND	ND	ND	ND	ND	ND	ND	0
55688	2016-06-05T07:00:00	72.6	ND	ND	ND	ND	ND	ND	ND	ND	ND	ND	0
55689	2016-06-05T08:00:00	72.4	ND	ND	ND	ND	ND	ND	ND	ND	ND	ND	0
55690	2016-06-05T09:00:00	98.1	ND	ND	ND	ND	ND	ND	ND	ND	ND	ND	0
55691	2016-06-05T10:00:00	88.3	ND	ND	ND	ND	ND	ND	ND	ND	ND	ND	0
55692	2016-06-05T11:00:00	66.4	ND	ND	ND	ND	ND	ND	ND	ND	ND	ND	0
55693	2016-06-05T12:00:00	51.8	ND	ND	ND	ND	ND	ND	ND	ND	ND	ND	0
55694	2016-06-05T13:00:00	17.9	ND	ND	ND	ND	ND	ND	ND	ND	ND	ND	0
55695	2016-06-05T14:00:00	21.4	ND	ND	ND	ND	ND	ND	ND	ND	ND	ND	0
55696	2016-06-05T15:00:00	83.3	ND	ND	ND	ND	ND	ND	ND	ND	ND	ND	0
55697	2016-06-05T16:00:00	56	ND	ND	ND	ND	ND	ND	ND	ND	ND	ND	0
55698	2016-06-05T17:00:00	33.4	ND	ND	ND	ND	ND	ND	ND	ND	ND	ND	0
55699	2016-06-05T18:00:00	17.8	ND	ND	ND	ND	ND	ND	ND	ND	ND	ND	0
55700	2016-06-05T19:00:00	9.2	ND	ND	ND	ND	ND	ND	ND	ND	ND	ND	0
55701	2016-06-05T20:00:00	5.9	ND	ND	ND	ND	ND	ND	ND	ND	ND	ND	0
55702	2016-06-05T21:00:00	3.3	ND	ND	ND	ND	ND	ND	ND	ND	ND	ND	0
55703	2016-06-05T22:00:00	22.4	ND	ND	ND	ND	ND	ND	ND	ND	ND	ND	0
55704	2016-06-05T23:00:00	27.7	ND	ND	ND	ND	ND	ND	ND	ND	ND	ND	0
55705	2016-06-06T00:00:00	17.3	ND	ND	ND	ND	ND	ND	ND	ND	ND	ND	0
55706	2016-06-06T01:00:00	5.7	ND	ND	ND	ND	ND	ND	ND	ND	ND	ND	0
55707	2016-06-06T02:00:00	47.9	ND	ND	ND	ND	ND	ND	ND	ND	ND	ND	0
55708	2016-06-06T03:00:00	67.3	ND	ND	ND	ND	ND	ND	ND	ND	ND	ND	0
55709	2016-06-06T04:00:00	48.7	ND	ND	ND	ND	ND	ND	ND	ND	ND	ND	0
55710	2016-06-06T05:00:00	34.5	ND	ND	ND	ND	ND	ND	ND	ND	ND	ND	0
55711	2016-06-06T06:00:00	23.2	ND	ND	ND	ND	ND	ND	ND	ND	ND	ND	0
55712	2016-06-06T07:00:00	23.6	ND	ND	ND	ND	ND	ND	ND	ND	ND	ND	0
55713	2016-06-06T08:00:00	47.7	ND	ND	ND	ND	ND	ND	ND	ND	ND	ND	0
55714	2016-06-06T09:00:00	67.1	ND	ND	ND	ND	ND	ND	ND	ND	ND	ND	0
55715	2016-06-06T10:00:00	44.2	ND	ND	ND	ND	ND	ND	ND	ND	ND	ND	0
55716	2016-06-06T11:00:00	49.3	ND	ND	ND	ND	ND	ND	ND	ND	ND	ND	0
55717	2016-06-06T12:00:00	43.6	ND	ND	ND	ND	ND	ND	ND	ND	ND	ND	0
55718	2016-06-06T13:00:00	44.3	ND	ND	ND	ND	ND	ND	ND	ND	ND	ND	0
55719	2016-06-06T14:00:00	37.2	ND	ND	ND	ND	ND	ND	ND	ND	ND	ND	0
55720	2016-06-06T15:00:00	7.8	ND	ND	ND	ND	ND	ND	ND	ND	ND	ND	0
55721	2016-06-06T16:00:00	3.6	ND	ND	ND	ND	ND	ND	ND	ND	ND	ND	0
55722	2016-06-06T17:00:00	3.2	ND	ND	ND	ND	ND	ND	ND	ND	ND	ND	0
55723	2016-06-06T18:00:00	9.3	ND	ND	ND	ND	ND	ND	ND	ND	ND	ND	0
55724	2016-06-06T19:00:00	ND	ND	ND	ND	ND	ND	ND	ND	ND	ND	ND	0
55725	2016-06-06T20:00:00	25.3	ND	ND	ND	ND	ND	ND	ND	ND	ND	ND	0
55726	2016-06-06T21:00:00	57.8	ND	ND	ND	ND	ND	ND	ND	ND	ND	ND	0
55727	2016-06-06T22:00:00	42.7	ND	ND	ND	ND	ND	ND	ND	ND	ND	ND	0
55728	2016-06-06T23:00:00	35.4	ND	ND	ND	ND	ND	ND	ND	ND	ND	ND	0
55729	2016-06-07T00:00:00	34.8	ND	ND	ND	ND	ND	ND	ND	ND	ND	ND	0
55730	2016-06-07T01:00:00	30.1	ND	ND	ND	ND	ND	ND	ND	ND	ND	ND	0
55731	2016-06-07T02:00:00	30	ND	ND	ND	ND	ND	ND	ND	ND	ND	ND	0
55732	2016-06-07T03:00:00	29.1	ND	ND	ND	ND	ND	ND	ND	ND	ND	ND	0
55733	2016-06-07T04:00:00	29.9	ND	ND	ND	ND	ND	ND	ND	ND	ND	ND	0
55734	2016-06-07T05:00:00	37.1	ND	ND	ND	ND	ND	ND	ND	ND	ND	ND	0
55735	2016-06-07T06:00:00	38.5	ND	ND	ND	ND	ND	ND	ND	ND	ND	ND	0
55736	2016-06-07T07:00:00	70.9	ND	ND	ND	ND	ND	ND	ND	ND	ND	ND	0
55737	2016-06-07T08:00:00	87.5	ND	ND	ND	ND	ND	ND	ND	ND	ND	ND	0
55738	2016-06-07T09:00:00	99.2	ND	ND	ND	ND	ND	ND	ND	ND	ND	ND	0
55739	2016-06-07T10:00:00	51.4	ND	ND	ND	ND	ND	ND	ND	ND	ND	ND	0
55740	2016-06-07T11:00:00	59.1	ND	ND	ND	ND	ND	ND	ND	ND	ND	ND	0
55741	2016-06-07T12:00:00	71.1	ND	ND	ND	ND	ND	ND	ND	ND	ND	ND	0
55742	2016-06-07T13:00:00	75.8	ND	ND	ND	ND	ND	ND	ND	ND	ND	ND	0
55743	2016-06-07T14:00:00	90.7	ND	ND	ND	ND	ND	ND	ND	ND	ND	ND	0
55744	2016-06-07T15:00:00	74.2	ND	ND	ND	ND	ND	ND	ND	ND	ND	ND	0
55745	2016-06-07T16:00:00	72.9	ND	ND	ND	ND	ND	ND	ND	ND	ND	ND	0
55746	2016-06-07T17:00:00	32.4	ND	ND	ND	ND	ND	ND	ND	ND	ND	ND	0
55747	2016-06-07T18:00:00	18.8	ND	ND	ND	ND	ND	ND	ND	ND	ND	ND	0
55748	2016-06-07T19:00:00	1.6	ND	ND	ND	ND	ND	ND	ND	ND	ND	ND	0
55749	2016-06-07T20:00:00	39.2	ND	ND	ND	ND	ND	ND	ND	ND	ND	ND	0
55750	2016-06-07T21:00:00	45.5	ND	ND	ND	ND	ND	ND	ND	ND	ND	ND	1.27
55751	2016-06-07T22:00:00	26.6	ND	ND	ND	ND	ND	ND	ND	ND	ND	ND	0.25
55752	2016-06-07T23:00:00	4.4	ND	ND	ND	ND	ND	ND	ND	ND	ND	ND	0.51
55753	2016-06-08T00:00:00	23	ND	ND	ND	ND	ND	ND	ND	ND	ND	ND	0.25
55754	2016-06-08T01:00:00	33.5	ND	ND	ND	ND	ND	ND	ND	ND	ND	ND	0
55755	2016-06-08T02:00:00	10.1	ND	ND	ND	ND	ND	ND	ND	ND	ND	ND	0
55756	2016-06-08T03:00:00	9.5	ND	ND	ND	ND	ND	ND	ND	ND	ND	ND	0
55757	2016-06-08T04:00:00	28.9	ND	ND	ND	ND	ND	ND	ND	ND	ND	ND	0
55758	2016-06-08T05:00:00	37.9	ND	ND	ND	ND	ND	ND	ND	ND	ND	ND	0
55759	2016-06-08T06:00:00	37.6	ND	ND	ND	ND	ND	ND	ND	ND	ND	ND	0
55760	2016-06-08T07:00:00	56.5	ND	ND	ND	ND	ND	ND	ND	ND	ND	ND	0
55761	2016-06-08T08:00:00	59.9	ND	ND	ND	ND	ND	ND	ND	ND	ND	ND	0
55762	2016-06-08T09:00:00	73	ND	ND	ND	ND	ND	ND	ND	ND	ND	ND	0
55763	2016-06-08T10:00:00	73.8	ND	ND	ND	ND	ND	ND	ND	ND	ND	ND	0
55764	2016-06-08T11:00:00	53.5	ND	ND	ND	ND	ND	ND	ND	ND	ND	ND	0
55765	2016-06-08T12:00:00	15.8	ND	ND	ND	ND	ND	ND	ND	ND	ND	ND	0
55766	2016-06-08T13:00:00	11	ND	ND	ND	ND	ND	ND	ND	ND	ND	ND	0
55767	2016-06-08T14:00:00	14.2	ND	ND	ND	ND	ND	ND	ND	ND	ND	ND	0
55768	2016-06-08T15:00:00	45.7	ND	ND	ND	ND	ND	ND	ND	ND	ND	ND	0
55769	2016-06-08T16:00:00	103.6	ND	ND	ND	ND	ND	ND	ND	ND	ND	ND	0
55770	2016-06-08T17:00:00	116.8	ND	ND	ND	ND	ND	ND	ND	ND	ND	ND	0
55771	2016-06-08T18:00:00	64.4	ND	ND	ND	ND	ND	ND	ND	ND	ND	ND	0
55772	2016-06-08T19:00:00	17.2	ND	ND	ND	ND	ND	ND	ND	ND	ND	ND	0
55773	2016-06-08T20:00:00	13.3	ND	ND	ND	ND	ND	ND	ND	ND	ND	ND	0
55774	2016-06-08T21:00:00	14.8	ND	ND	ND	ND	ND	ND	ND	ND	ND	ND	0
55775	2016-06-08T22:00:00	30.3	ND	ND	ND	ND	ND	ND	ND	ND	ND	ND	0
55776	2016-06-08T23:00:00	74.4	ND	ND	ND	ND	ND	ND	ND	ND	ND	ND	0
55777	2016-06-09T00:00:00	57.4	ND	ND	ND	ND	ND	ND	ND	ND	ND	ND	0
55778	2016-06-09T01:00:00	33.3	ND	ND	ND	ND	ND	ND	ND	ND	ND	ND	0
55779	2016-06-09T02:00:00	26.3	ND	ND	ND	ND	ND	ND	ND	ND	ND	ND	0
55780	2016-06-09T03:00:00	21.7	ND	ND	ND	ND	ND	ND	ND	ND	ND	ND	0
55781	2016-06-09T04:00:00	28.6	ND	ND	ND	ND	ND	ND	ND	ND	ND	ND	0
55782	2016-06-09T05:00:00	37.3	ND	ND	ND	ND	ND	ND	ND	ND	ND	ND	0
55783	2016-06-09T06:00:00	49	ND	ND	ND	ND	ND	ND	ND	ND	ND	ND	0
55784	2016-06-09T07:00:00	34.2	ND	ND	ND	ND	ND	ND	ND	ND	ND	ND	0
55785	2016-06-09T08:00:00	68.4	ND	ND	ND	ND	ND	ND	ND	ND	ND	ND	0
55786	2016-06-09T09:00:00	53.5	ND	ND	ND	ND	ND	ND	ND	ND	ND	ND	0
55787	2016-06-09T10:00:00	67.5	ND	ND	ND	ND	ND	ND	ND	ND	ND	ND	0
55788	2016-06-09T11:00:00	87.4	ND	ND	ND	ND	ND	ND	ND	ND	ND	ND	0
55789	2016-06-09T12:00:00	61.6	ND	ND	ND	ND	ND	ND	ND	ND	ND	ND	0
55790	2016-06-09T13:00:00	80.7	ND	ND	ND	ND	ND	ND	ND	ND	ND	ND	0
55791	2016-06-09T14:00:00	78.2	ND	ND	ND	ND	ND	ND	ND	ND	ND	ND	0
55792	2016-06-09T15:00:00	54.5	ND	ND	ND	ND	ND	ND	ND	ND	ND	ND	0
55793	2016-06-09T16:00:00	28.5	ND	ND	ND	ND	ND	ND	ND	ND	ND	ND	0
55794	2016-06-09T17:00:00	14.7	ND	ND	ND	ND	ND	ND	ND	ND	ND	ND	0
55795	2016-06-09T18:00:00	24.3	ND	ND	ND	ND	ND	ND	ND	ND	ND	ND	0
55796	2016-06-09T19:00:00	4.8	ND	ND	ND	ND	ND	ND	ND	ND	ND	ND	0
55797	2016-06-09T20:00:00	ND	ND	ND	ND	ND	ND	ND	ND	ND	ND	ND	0
55798	2016-06-09T21:00:00	ND	ND	ND	ND	ND	ND	ND	ND	ND	ND	ND	0
55799	2016-06-09T22:00:00	25	ND	ND	ND	ND	ND	ND	ND	ND	ND	ND	0
55800	2016-06-09T23:00:00	131.8	ND	ND	ND	ND	ND	ND	ND	ND	ND	ND	0
55801	2016-06-10T00:00:00	0.3	ND	ND	ND	ND	ND	ND	ND	ND	ND	ND	0
55802	2016-06-10T01:00:00	188.4	ND	ND	ND	ND	ND	ND	ND	ND	ND	ND	0
55803	2016-06-10T02:00:00	150.9	ND	ND	ND	ND	ND	ND	ND	ND	ND	ND	0
55804	2016-06-10T03:00:00	63.2	ND	ND	ND	ND	ND	ND	ND	ND	ND	ND	0
55805	2016-06-10T04:00:00	83.7	ND	ND	ND	ND	ND	ND	ND	ND	ND	ND	6.86
55806	2016-06-10T05:00:00	49.6	ND	ND	ND	ND	ND	ND	ND	ND	ND	ND	3.05
55807	2016-06-10T06:00:00	23.5	ND	ND	ND	ND	ND	ND	ND	ND	ND	ND	0
55808	2016-06-10T07:00:00	25.1	ND	ND	ND	ND	ND	ND	ND	ND	ND	ND	0.25
55809	2016-06-10T08:00:00	51.2	ND	ND	ND	ND	ND	ND	ND	ND	ND	ND	0
55810	2016-06-10T09:00:00	53.2	ND	ND	ND	ND	ND	ND	ND	ND	ND	ND	0
55811	2016-06-10T10:00:00	51.1	ND	ND	ND	ND	ND	ND	ND	ND	ND	ND	0
55812	2016-06-10T11:00:00	59	ND	ND	ND	ND	ND	ND	ND	ND	ND	ND	0
55813	2016-06-10T12:00:00	51.7	ND	ND	ND	ND	ND	ND	ND	ND	ND	ND	0
55814	2016-06-10T13:00:00	53.4	ND	ND	ND	ND	ND	ND	ND	ND	ND	ND	0
55815	2016-06-10T14:00:00	51.3	ND	ND	ND	ND	ND	ND	ND	ND	ND	ND	0
55816	2016-06-10T15:00:00	59.5	ND	ND	ND	ND	ND	ND	ND	ND	ND	ND	0
55817	2016-06-10T16:00:00	62.1	ND	ND	ND	ND	ND	ND	ND	ND	ND	ND	0
55818	2016-06-10T17:00:00	64.4	ND	ND	ND	ND	ND	ND	ND	ND	ND	ND	0
55819	2016-06-10T18:00:00	43.3	ND	ND	ND	ND	ND	ND	ND	ND	ND	ND	0
55820	2016-06-10T19:00:00	16.1	ND	ND	ND	ND	ND	ND	ND	ND	ND	ND	0
55821	2016-06-10T20:00:00	8.2	ND	ND	ND	ND	ND	ND	ND	ND	ND	ND	0
55822	2016-06-10T21:00:00	5.2	ND	ND	ND	ND	ND	ND	ND	ND	ND	ND	0
55823	2016-06-10T22:00:00	47.8	ND	ND	ND	ND	ND	ND	ND	ND	ND	ND	0
55824	2016-06-10T23:00:00	51.9	ND	ND	ND	ND	ND	ND	ND	ND	ND	ND	0
55825	2016-06-11T00:00:00	39.8	ND	ND	ND	ND	ND	ND	ND	ND	ND	ND	0
55826	2016-06-11T01:00:00	58	ND	ND	ND	ND	ND	ND	ND	ND	ND	ND	0
55827	2016-06-11T02:00:00	41.3	ND	ND	ND	ND	ND	ND	ND	ND	ND	ND	0
55828	2016-06-11T03:00:00	34.8	ND	ND	ND	ND	ND	ND	ND	ND	ND	ND	0
55829	2016-06-11T04:00:00	36	ND	ND	ND	ND	ND	ND	ND	ND	ND	ND	0
55830	2016-06-11T05:00:00	76.7	ND	ND	ND	ND	ND	ND	ND	ND	ND	ND	0
55831	2016-06-11T06:00:00	86	ND	ND	ND	ND	ND	ND	ND	ND	ND	ND	0
55832	2016-06-11T07:00:00	58.4	ND	ND	ND	ND	ND	ND	ND	ND	ND	ND	0
55833	2016-06-11T08:00:00	ND	ND	ND	ND	ND	ND	ND	ND	ND	ND	ND	ND
55834	2016-06-11T09:00:00	ND	ND	ND	ND	ND	ND	ND	ND	ND	ND	ND	ND
55835	2016-06-11T10:00:00	ND	ND	ND	ND	ND	ND	ND	ND	ND	ND	ND	ND
55836	2016-06-11T11:00:00	ND	ND	ND	ND	ND	ND	ND	ND	ND	ND	ND	ND
55837	2016-06-11T12:00:00	ND	ND	ND	ND	ND	ND	ND	ND	ND	ND	ND	0
55838	2016-06-11T13:00:00	ND	ND	ND	ND	ND	ND	ND	ND	ND	ND	ND	0
55839	2016-06-11T14:00:00	103.8	ND	ND	ND	ND	ND	ND	ND	ND	ND	ND	0
55840	2016-06-11T15:00:00	80.5	ND	ND	ND	ND	ND	ND	ND	ND	ND	ND	0
55841	2016-06-11T16:00:00	73.3	ND	ND	ND	ND	ND	ND	ND	ND	ND	ND	0
55842	2016-06-11T17:00:00	80.4	ND	ND	ND	ND	ND	ND	ND	ND	ND	ND	0
55843	2016-06-11T18:00:00	54	ND	ND	ND	ND	ND	ND	ND	ND	ND	ND	0
55844	2016-06-11T19:00:00	28.2	ND	ND	ND	ND	ND	ND	ND	ND	ND	ND	0
55845	2016-06-11T20:00:00	4.9	ND	ND	ND	ND	ND	ND	ND	ND	ND	ND	0
55846	2016-06-11T21:00:00	16.6	ND	ND	ND	ND	ND	ND	ND	ND	ND	ND	0
55847	2016-06-11T22:00:00	13.9	ND	ND	ND	ND	ND	ND	ND	ND	ND	ND	0
55848	2016-06-11T23:00:00	29.7	ND	ND	ND	ND	ND	ND	ND	ND	ND	ND	0
55849	2016-06-12T00:00:00	38.4	ND	ND	ND	ND	ND	ND	ND	ND	ND	ND	0
55850	2016-06-12T01:00:00	44.4	ND	ND	ND	ND	ND	ND	ND	ND	ND	ND	0
55851	2016-06-12T02:00:00	54.7	ND	ND	ND	ND	ND	ND	ND	ND	ND	ND	0
55852	2016-06-12T03:00:00	77.8	ND	ND	ND	ND	ND	ND	ND	ND	ND	ND	0
55853	2016-06-12T04:00:00	60.5	ND	ND	ND	ND	ND	ND	ND	ND	ND	ND	0
55854	2016-06-12T05:00:00	51.1	ND	ND	ND	ND	ND	ND	ND	ND	ND	ND	0
55855	2016-06-12T06:00:00	29.5	ND	ND	ND	ND	ND	ND	ND	ND	ND	ND	0
55856	2016-06-12T07:00:00	32.3	ND	ND	ND	ND	ND	ND	ND	ND	ND	ND	0
55857	2016-06-12T08:00:00	47.6	ND	ND	ND	ND	ND	ND	ND	ND	ND	ND	0
55858	2016-06-12T09:00:00	60.4	ND	ND	ND	ND	ND	ND	ND	ND	ND	ND	0
55859	2016-06-12T10:00:00	60.1	ND	ND	ND	ND	ND	ND	ND	ND	ND	ND	0
55860	2016-06-12T11:00:00	54.8	ND	ND	ND	ND	ND	ND	ND	ND	ND	ND	0
55861	2016-06-12T12:00:00	57.7	ND	ND	ND	ND	ND	ND	ND	ND	ND	ND	0
55862	2016-06-12T13:00:00	51.4	ND	ND	ND	ND	ND	ND	ND	ND	ND	ND	0
55863	2016-06-12T14:00:00	30.2	ND	ND	ND	ND	ND	ND	ND	ND	ND	ND	0
55864	2016-06-12T15:00:00	58.5	ND	ND	ND	ND	ND	ND	ND	ND	ND	ND	0
55865	2016-06-12T16:00:00	67.3	ND	ND	ND	ND	ND	ND	ND	ND	ND	ND	0
55866	2016-06-12T17:00:00	43.2	ND	ND	ND	ND	ND	ND	ND	ND	ND	ND	0
55867	2016-06-12T18:00:00	18.1	ND	ND	ND	ND	ND	ND	ND	ND	ND	ND	0
55868	2016-06-12T19:00:00	2.8	ND	ND	ND	ND	ND	ND	ND	ND	ND	ND	0
55869	2016-06-12T20:00:00	6.3	ND	ND	ND	ND	ND	ND	ND	ND	ND	ND	0
55870	2016-06-12T21:00:00	19.6	ND	ND	ND	ND	ND	ND	ND	ND	ND	ND	0
55871	2016-06-12T22:00:00	52.2	ND	ND	ND	ND	ND	ND	ND	ND	ND	ND	0
55872	2016-06-12T23:00:00	21.6	ND	ND	ND	ND	ND	ND	ND	ND	ND	ND	0
55873	2016-06-13T00:00:00	24.3	ND	ND	ND	ND	ND	ND	ND	ND	ND	ND	0
55874	2016-06-13T01:00:00	36.2	ND	ND	ND	ND	ND	ND	ND	ND	ND	ND	0
55875	2016-06-13T02:00:00	48.3	ND	ND	ND	ND	ND	ND	ND	ND	ND	ND	0
55876	2016-06-13T03:00:00	33.8	ND	ND	ND	ND	ND	ND	ND	ND	ND	ND	0
55877	2016-06-13T04:00:00	29	ND	ND	ND	ND	ND	ND	ND	ND	ND	ND	0
55878	2016-06-13T05:00:00	39.5	ND	ND	ND	ND	ND	ND	ND	ND	ND	ND	0
55879	2016-06-13T06:00:00	31.2	ND	ND	ND	ND	ND	ND	ND	ND	ND	ND	0
55880	2016-06-13T07:00:00	55.6	ND	ND	ND	ND	ND	ND	ND	ND	ND	ND	0
55881	2016-06-13T08:00:00	73.9	ND	ND	ND	ND	ND	ND	ND	ND	ND	ND	0
55882	2016-06-13T09:00:00	53	ND	ND	ND	ND	ND	ND	ND	ND	ND	ND	0
55883	2016-06-13T10:00:00	61.7	ND	ND	ND	ND	ND	ND	ND	ND	ND	ND	0
55884	2016-06-13T11:00:00	54.6	ND	ND	ND	ND	ND	ND	ND	ND	ND	ND	0
55885	2016-06-13T12:00:00	74.9	ND	ND	ND	ND	ND	ND	ND	ND	ND	ND	0
55886	2016-06-13T13:00:00	83.4	ND	ND	ND	ND	ND	ND	ND	ND	ND	ND	0
55887	2016-06-13T14:00:00	81.2	ND	ND	ND	ND	ND	ND	ND	ND	ND	ND	0
55888	2016-06-13T15:00:00	116.9	ND	ND	ND	ND	ND	ND	ND	ND	ND	ND	0
55889	2016-06-13T16:00:00	31.4	ND	ND	ND	ND	ND	ND	ND	ND	ND	ND	0
55890	2016-06-13T17:00:00	10.2	ND	ND	ND	ND	ND	ND	ND	ND	ND	ND	0.25
55891	2016-06-13T18:00:00	44.2	ND	ND	ND	ND	ND	ND	ND	ND	ND	ND	0
55892	2016-06-13T19:00:00	71.5	ND	ND	ND	ND	ND	ND	ND	ND	ND	ND	0.25
55893	2016-06-13T20:00:00	50.2	ND	ND	ND	ND	ND	ND	ND	ND	ND	ND	0.51
55894	2016-06-13T21:00:00	29.7	ND	ND	ND	ND	ND	ND	ND	ND	ND	ND	0.25
55895	2016-06-13T22:00:00	46.5	ND	ND	ND	ND	ND	ND	ND	ND	ND	ND	0
55896	2016-06-13T23:00:00	63.9	ND	ND	ND	ND	ND	ND	ND	ND	ND	ND	0
55897	2016-06-14T00:00:00	42.5	ND	ND	ND	ND	ND	ND	ND	ND	ND	ND	0
55898	2016-06-14T01:00:00	32.8	ND	ND	ND	ND	ND	ND	ND	ND	ND	ND	0
55899	2016-06-14T02:00:00	35.4	ND	ND	ND	ND	ND	ND	ND	ND	ND	ND	0
55900	2016-06-14T03:00:00	33.3	ND	ND	ND	ND	ND	ND	ND	ND	ND	ND	0
55901	2016-06-14T04:00:00	ND	ND	ND	ND	ND	ND	ND	ND	ND	ND	ND	ND
55902	2016-06-14T05:00:00	ND	ND	ND	ND	ND	ND	ND	ND	ND	ND	ND	ND
55903	2016-06-14T06:00:00	ND	ND	ND	ND	ND	ND	ND	ND	ND	ND	ND	ND
55904	2016-06-14T07:00:00	ND	ND	ND	ND	ND	ND	ND	ND	ND	ND	ND	ND
55905	2016-06-14T08:00:00	ND	ND	ND	ND	ND	ND	ND	ND	ND	ND	ND	ND
55906	2016-06-14T09:00:00	ND	ND	ND	ND	ND	ND	ND	ND	ND	ND	ND	ND
55907	2016-06-14T10:00:00	ND	ND	ND	ND	ND	ND	ND	ND	ND	ND	ND	ND
55908	2016-06-14T11:00:00	ND	ND	ND	ND	ND	ND	ND	ND	ND	ND	ND	0
55909	2016-06-14T12:00:00	ND	ND	ND	ND	ND	ND	ND	ND	ND	ND	ND	0
55910	2016-06-14T13:00:00	ND	ND	ND	ND	ND	ND	ND	ND	ND	ND	ND	ND
55911	2016-06-14T14:00:00	ND	ND	ND	ND	ND	ND	ND	ND	ND	ND	ND	ND
55912	2016-06-14T15:00:00	ND	ND	ND	ND	ND	ND	ND	ND	ND	ND	ND	ND
55913	2016-06-14T16:00:00	ND	ND	ND	ND	ND	ND	ND	ND	ND	ND	ND	ND
55914	2016-06-14T17:00:00	ND	ND	ND	ND	ND	ND	ND	ND	ND	ND	ND	ND
55915	2016-06-14T18:00:00	ND	ND	ND	ND	ND	ND	ND	ND	ND	ND	ND	ND
55916	2016-06-14T19:00:00	ND	ND	ND	ND	ND	ND	ND	ND	ND	ND	ND	ND
55917	2016-06-14T20:00:00	ND	ND	ND	ND	ND	ND	ND	ND	ND	ND	ND	ND
55918	2016-06-14T21:00:00	ND	ND	ND	ND	ND	ND	ND	ND	ND	ND	ND	ND
55919	2016-06-14T22:00:00	ND	ND	ND	ND	ND	ND	ND	ND	ND	ND	ND	ND
55920	2016-06-14T23:00:00	ND	ND	ND	ND	ND	ND	ND	ND	ND	ND	ND	ND
55921	2016-06-15T00:00:00	ND	ND	ND	ND	ND	ND	ND	ND	ND	ND	ND	ND
55922	2016-06-15T01:00:00	ND	ND	ND	ND	ND	ND	ND	ND	ND	ND	ND	ND
55923	2016-06-15T02:00:00	ND	ND	ND	ND	ND	ND	ND	ND	ND	ND	ND	ND
55924	2016-06-15T03:00:00	ND	ND	ND	ND	ND	ND	ND	ND	ND	ND	ND	ND
55925	2016-06-15T04:00:00	ND	ND	ND	ND	ND	ND	ND	ND	ND	ND	ND	ND
55926	2016-06-15T05:00:00	ND	ND	ND	ND	ND	ND	ND	ND	ND	ND	ND	ND
55927	2016-06-15T06:00:00	ND	ND	ND	ND	ND	ND	ND	ND	ND	ND	ND	ND
55928	2016-06-15T07:00:00	ND	ND	ND	ND	ND	ND	ND	ND	ND	ND	ND	ND
55929	2016-06-15T08:00:00	ND	ND	ND	ND	ND	ND	ND	ND	ND	ND	ND	ND
55930	2016-06-15T09:00:00	ND	ND	ND	ND	ND	ND	ND	ND	ND	ND	ND	ND
55931	2016-06-15T10:00:00	ND	ND	ND	ND	ND	ND	ND	ND	ND	ND	ND	ND
55932	2016-06-15T11:00:00	ND	ND	ND	ND	ND	ND	ND	ND	ND	ND	ND	0
55933	2016-06-15T12:00:00	ND	ND	ND	ND	ND	ND	ND	ND	ND	ND	ND	0
55934	2016-06-15T13:00:00	ND	ND	ND	ND	ND	ND	ND	ND	ND	ND	ND	0
55935	2016-06-15T14:00:00	102.3	ND	ND	ND	ND	ND	ND	ND	ND	ND	ND	0
55936	2016-06-15T15:00:00	93.4	ND	ND	ND	ND	ND	ND	ND	ND	ND	ND	0
55937	2016-06-15T16:00:00	96.3	ND	ND	ND	ND	ND	ND	ND	ND	ND	ND	0
55938	2016-06-15T17:00:00	86.5	ND	ND	ND	ND	ND	ND	ND	ND	ND	ND	0
55939	2016-06-15T18:00:00	58.6	ND	ND	ND	ND	ND	ND	ND	ND	ND	ND	0
55940	2016-06-15T19:00:00	43.4	ND	ND	ND	ND	ND	ND	ND	ND	ND	ND	0
55941	2016-06-15T20:00:00	36	ND	ND	ND	ND	ND	ND	ND	ND	ND	ND	0
55942	2016-06-15T21:00:00	28.8	ND	ND	ND	ND	ND	ND	ND	ND	ND	ND	0
55943	2016-06-15T22:00:00	18	ND	ND	ND	ND	ND	ND	ND	ND	ND	ND	0
55944	2016-06-15T23:00:00	13.6	ND	ND	ND	ND	ND	ND	ND	ND	ND	ND	0
55945	2016-06-16T00:00:00	8.1	ND	ND	ND	ND	ND	ND	ND	ND	ND	ND	0
55946	2016-06-16T01:00:00	15.1	ND	ND	ND	ND	ND	ND	ND	ND	ND	ND	0
55947	2016-06-16T02:00:00	34.6	ND	ND	ND	ND	ND	ND	ND	ND	ND	ND	0
55948	2016-06-16T03:00:00	56.7	ND	ND	ND	ND	ND	ND	ND	ND	ND	ND	0
55949	2016-06-16T04:00:00	61.7	ND	ND	ND	ND	ND	ND	ND	ND	ND	ND	0
55950	2016-06-16T05:00:00	59	ND	ND	ND	ND	ND	ND	ND	ND	ND	ND	0
55951	2016-06-16T06:00:00	52	ND	ND	ND	ND	ND	ND	ND	ND	ND	ND	0
55952	2016-06-16T07:00:00	83.8	ND	ND	ND	ND	ND	ND	ND	ND	ND	ND	0
55953	2016-06-16T08:00:00	134.5	ND	ND	ND	ND	ND	ND	ND	ND	ND	ND	0
55954	2016-06-16T09:00:00	143.1	ND	ND	ND	ND	ND	ND	ND	ND	ND	ND	0
55955	2016-06-16T10:00:00	117.8	ND	ND	ND	ND	ND	ND	ND	ND	ND	ND	0
55956	2016-06-16T11:00:00	99.6	ND	ND	ND	ND	ND	ND	ND	ND	ND	ND	0
55957	2016-06-16T12:00:00	80.1	ND	ND	ND	ND	ND	ND	ND	ND	ND	ND	0
55958	2016-06-16T13:00:00	80.2	ND	ND	ND	ND	ND	ND	ND	ND	ND	ND	0
55959	2016-06-16T14:00:00	81	ND	ND	ND	ND	ND	ND	ND	ND	ND	ND	0
55960	2016-06-16T15:00:00	91.9	ND	ND	ND	ND	ND	ND	ND	ND	ND	ND	0
55961	2016-06-16T16:00:00	95.8	ND	ND	ND	ND	ND	ND	ND	ND	ND	ND	0
55962	2016-06-16T17:00:00	69.8	ND	ND	ND	ND	ND	ND	ND	ND	ND	ND	0
55963	2016-06-16T18:00:00	45	ND	ND	ND	ND	ND	ND	ND	ND	ND	ND	0
55964	2016-06-16T19:00:00	37.9	ND	ND	ND	ND	ND	ND	ND	ND	ND	ND	0
55965	2016-06-16T20:00:00	27.9	ND	ND	ND	ND	ND	ND	ND	ND	ND	ND	0
55966	2016-06-16T21:00:00	25.2	ND	ND	ND	ND	ND	ND	ND	ND	ND	ND	0
55967	2016-06-16T22:00:00	4.8	ND	ND	ND	ND	ND	ND	ND	ND	ND	ND	0
55968	2016-06-16T23:00:00	44	ND	ND	ND	ND	ND	ND	ND	ND	ND	ND	0
55969	2016-06-17T00:00:00	59.1	ND	ND	ND	ND	ND	ND	ND	ND	ND	ND	0
55970	2016-06-17T01:00:00	64.3	ND	ND	ND	ND	ND	ND	ND	ND	ND	ND	0
55971	2016-06-17T02:00:00	40.6	ND	ND	ND	ND	ND	ND	ND	ND	ND	ND	0
55972	2016-06-17T03:00:00	48.4	ND	ND	ND	ND	ND	ND	ND	ND	ND	ND	0
55973	2016-06-17T04:00:00	34	ND	ND	ND	ND	ND	ND	ND	ND	ND	ND	0
55974	2016-06-17T05:00:00	33.7	ND	ND	ND	ND	ND	ND	ND	ND	ND	ND	0
55975	2016-06-17T06:00:00	49.3	ND	ND	ND	ND	ND	ND	ND	ND	ND	ND	0
55976	2016-06-17T07:00:00	86	ND	ND	ND	ND	ND	ND	ND	ND	ND	ND	0
55977	2016-06-17T08:00:00	119.5	ND	ND	ND	ND	ND	ND	ND	ND	ND	ND	0
55978	2016-06-17T09:00:00	137.6	ND	ND	ND	ND	ND	ND	ND	ND	ND	ND	0
55979	2016-06-17T10:00:00	137.2	ND	ND	ND	ND	ND	ND	ND	ND	ND	ND	0
55980	2016-06-17T11:00:00	130.7	ND	ND	ND	ND	ND	ND	ND	ND	ND	ND	0
55981	2016-06-17T12:00:00	114.6	ND	ND	ND	ND	ND	ND	ND	ND	ND	ND	0
55982	2016-06-17T13:00:00	108.4	ND	ND	ND	ND	ND	ND	ND	ND	ND	ND	0
55983	2016-06-17T14:00:00	94.1	ND	ND	ND	ND	ND	ND	ND	ND	ND	ND	0
55984	2016-06-17T15:00:00	79.8	ND	ND	ND	ND	ND	ND	ND	ND	ND	ND	0
55985	2016-06-17T16:00:00	82.8	ND	ND	ND	ND	ND	ND	ND	ND	ND	ND	0
55986	2016-06-17T17:00:00	71.1	ND	ND	ND	ND	ND	ND	ND	ND	ND	ND	0
55987	2016-06-17T18:00:00	38.8	ND	ND	ND	ND	ND	ND	ND	ND	ND	ND	0
55988	2016-06-17T19:00:00	38	ND	ND	ND	ND	ND	ND	ND	ND	ND	ND	0
55989	2016-06-17T20:00:00	19.6	ND	ND	ND	ND	ND	ND	ND	ND	ND	ND	0
55990	2016-06-17T21:00:00	21.9	ND	ND	ND	ND	ND	ND	ND	ND	ND	ND	0
55991	2016-06-17T22:00:00	36.1	ND	ND	ND	ND	ND	ND	ND	ND	ND	ND	0
55992	2016-06-17T23:00:00	28.6	ND	ND	ND	ND	ND	ND	ND	ND	ND	ND	0
55993	2016-06-18T00:00:00	41.2	ND	ND	ND	ND	ND	ND	ND	ND	ND	ND	0
55994	2016-06-18T01:00:00	43.6	ND	ND	ND	ND	ND	ND	ND	ND	ND	ND	0
55995	2016-06-18T02:00:00	67.2	ND	ND	ND	ND	ND	ND	ND	ND	ND	ND	0
55996	2016-06-18T03:00:00	79.7	ND	ND	ND	ND	ND	ND	ND	ND	ND	ND	0
55997	2016-06-18T04:00:00	66.1	ND	ND	ND	ND	ND	ND	ND	ND	ND	ND	0
55998	2016-06-18T05:00:00	47.3	ND	ND	ND	ND	ND	ND	ND	ND	ND	ND	0
55999	2016-06-18T06:00:00	63	ND	ND	ND	ND	ND	ND	ND	ND	ND	ND	0
56000	2016-06-18T07:00:00	95.3	ND	ND	ND	ND	ND	ND	ND	ND	ND	ND	0
56001	2016-06-18T08:00:00	86.3	ND	ND	ND	ND	ND	ND	ND	ND	ND	ND	0
56002	2016-06-18T09:00:00	108	ND	ND	ND	ND	ND	ND	ND	ND	ND	ND	0
56003	2016-06-18T10:00:00	109.2	ND	ND	ND	ND	ND	ND	ND	ND	ND	ND	0
56004	2016-06-18T11:00:00	119.3	ND	ND	ND	ND	ND	ND	ND	ND	ND	ND	0
56005	2016-06-18T12:00:00	103.9	ND	ND	ND	ND	ND	ND	ND	ND	ND	ND	0
56006	2016-06-18T13:00:00	ND	ND	ND	ND	ND	ND	ND	ND	ND	ND	ND	ND
56007	2016-06-18T14:00:00	ND	ND	ND	ND	ND	ND	ND	ND	ND	ND	ND	ND
56008	2016-06-18T15:00:00	26.1	ND	ND	ND	ND	ND	ND	ND	ND	ND	ND	0
56009	2016-06-18T16:00:00	23.9	ND	ND	ND	ND	ND	ND	ND	ND	ND	ND	0
56010	2016-06-18T17:00:00	49.2	ND	ND	ND	ND	ND	ND	ND	ND	ND	ND	0
56011	2016-06-18T18:00:00	36.1	ND	ND	ND	ND	ND	ND	ND	ND	ND	ND	0
56012	2016-06-18T19:00:00	25.2	ND	ND	ND	ND	ND	ND	ND	ND	ND	ND	0
56013	2016-06-18T20:00:00	29.6	ND	ND	ND	ND	ND	ND	ND	ND	ND	ND	0
56014	2016-06-18T21:00:00	22.9	ND	ND	ND	ND	ND	ND	ND	ND	ND	ND	0
56015	2016-06-18T22:00:00	33.6	ND	ND	ND	ND	ND	ND	ND	ND	ND	ND	0
56016	2016-06-18T23:00:00	51.5	ND	ND	ND	ND	ND	ND	ND	ND	ND	ND	0
56017	2016-06-19T00:00:00	43.3	ND	ND	ND	ND	ND	ND	ND	ND	ND	ND	0
56018	2016-06-19T01:00:00	47.7	ND	ND	ND	ND	ND	ND	ND	ND	ND	ND	0
56019	2016-06-19T02:00:00	42.8	ND	ND	ND	ND	ND	ND	ND	ND	ND	ND	0
56020	2016-06-19T03:00:00	44.2	ND	ND	ND	ND	ND	ND	ND	ND	ND	ND	0
56021	2016-06-19T04:00:00	63.8	ND	ND	ND	ND	ND	ND	ND	ND	ND	ND	5.59
56022	2016-06-19T05:00:00	39.2	ND	ND	ND	ND	ND	ND	ND	ND	ND	ND	11.94
56023	2016-06-19T06:00:00	38.9	ND	ND	ND	ND	ND	ND	ND	ND	ND	ND	4.83
56024	2016-06-19T07:00:00	14.6	ND	ND	ND	ND	ND	ND	ND	ND	ND	ND	5.59
56025	2016-06-19T08:00:00	19.3	ND	ND	ND	ND	ND	ND	ND	ND	ND	ND	0
56026	2016-06-19T09:00:00	29.6	ND	ND	ND	ND	ND	ND	ND	ND	ND	ND	0.25
56027	2016-06-19T10:00:00	74.3	ND	ND	ND	ND	ND	ND	ND	ND	ND	ND	0
56028	2016-06-19T11:00:00	62.9	ND	ND	ND	ND	ND	ND	ND	ND	ND	ND	0
56029	2016-06-19T12:00:00	52.4	ND	ND	ND	ND	ND	ND	ND	ND	ND	ND	0
56030	2016-06-19T13:00:00	69.1	ND	ND	ND	ND	ND	ND	ND	ND	ND	ND	0
56031	2016-06-19T14:00:00	48.7	ND	ND	ND	ND	ND	ND	ND	ND	ND	ND	0
56032	2016-06-19T15:00:00	37.4	ND	ND	ND	ND	ND	ND	ND	ND	ND	ND	0
56033	2016-06-19T16:00:00	24.1	ND	ND	ND	ND	ND	ND	ND	ND	ND	ND	0
56034	2016-06-19T17:00:00	10.5	ND	ND	ND	ND	ND	ND	ND	ND	ND	ND	0
56035	2016-06-19T18:00:00	27.8	ND	ND	ND	ND	ND	ND	ND	ND	ND	ND	0
56036	2016-06-19T19:00:00	10.7	ND	ND	ND	ND	ND	ND	ND	ND	ND	ND	0
56037	2016-06-19T20:00:00	4.3	ND	ND	ND	ND	ND	ND	ND	ND	ND	ND	0
56038	2016-06-19T21:00:00	8.8	ND	ND	ND	ND	ND	ND	ND	ND	ND	ND	0
56039	2016-06-19T22:00:00	3.2	ND	ND	ND	ND	ND	ND	ND	ND	ND	ND	0
56040	2016-06-19T23:00:00	7.2	ND	ND	ND	ND	ND	ND	ND	ND	ND	ND	0
56041	2016-06-20T00:00:00	18.9	ND	ND	ND	ND	ND	ND	ND	ND	ND	ND	0
56042	2016-06-20T01:00:00	19.7	ND	ND	ND	ND	ND	ND	ND	ND	ND	ND	0
56043	2016-06-20T02:00:00	31.6	ND	ND	ND	ND	ND	ND	ND	ND	ND	ND	0
56044	2016-06-20T03:00:00	37.8	ND	ND	ND	ND	ND	ND	ND	ND	ND	ND	2.03
56045	2016-06-20T04:00:00	17.5	ND	ND	ND	ND	ND	ND	ND	ND	ND	ND	11.68
56046	2016-06-20T05:00:00	15.5	ND	ND	ND	ND	ND	ND	ND	ND	ND	ND	40.13
56047	2016-06-20T06:00:00	4.4	ND	ND	ND	ND	ND	ND	ND	ND	ND	ND	1.78
56048	2016-06-20T07:00:00	11.3	ND	ND	ND	ND	ND	ND	ND	ND	ND	ND	0.25
56049	2016-06-20T08:00:00	20.8	ND	ND	ND	ND	ND	ND	ND	ND	ND	ND	0.51
56050	2016-06-20T09:00:00	18.9	ND	ND	ND	ND	ND	ND	ND	ND	ND	ND	0
56051	2016-06-20T10:00:00	44.7	ND	ND	ND	ND	ND	ND	ND	ND	ND	ND	0
56052	2016-06-20T11:00:00	52.9	ND	ND	ND	ND	ND	ND	ND	ND	ND	ND	0
56053	2016-06-20T12:00:00	58.3	ND	ND	ND	ND	ND	ND	ND	ND	ND	ND	0
56054	2016-06-20T13:00:00	48.4	ND	ND	ND	ND	ND	ND	ND	ND	ND	ND	0
56055	2016-06-20T14:00:00	41.3	ND	ND	ND	ND	ND	ND	ND	ND	ND	ND	0
56056	2016-06-20T15:00:00	70.4	ND	ND	ND	ND	ND	ND	ND	ND	ND	ND	0
56057	2016-06-20T16:00:00	64.5	ND	ND	ND	ND	ND	ND	ND	ND	ND	ND	0
56058	2016-06-20T17:00:00	27.9	ND	ND	ND	ND	ND	ND	ND	ND	ND	ND	3.81
56059	2016-06-20T18:00:00	ND	ND	ND	ND	ND	ND	ND	ND	ND	ND	ND	24.38
56060	2016-06-20T19:00:00	ND	ND	ND	ND	ND	ND	ND	ND	ND	ND	ND	0.51
56061	2016-06-20T20:00:00	181.9	ND	ND	ND	ND	ND	ND	ND	ND	ND	ND	0.25
56062	2016-06-20T21:00:00	55.6	ND	ND	ND	ND	ND	ND	ND	ND	ND	ND	0.25
56063	2016-06-20T22:00:00	36.6	ND	ND	ND	ND	ND	ND	ND	ND	ND	ND	0.25
56064	2016-06-20T23:00:00	36.6	ND	ND	ND	ND	ND	ND	ND	ND	ND	ND	0
56065	2016-06-21T00:00:00	38.5	ND	ND	ND	ND	ND	ND	ND	ND	ND	ND	0
56066	2016-06-21T01:00:00	34.7	ND	ND	ND	ND	ND	ND	ND	ND	ND	ND	0
56067	2016-06-21T02:00:00	15.7	ND	ND	ND	ND	ND	ND	ND	ND	ND	ND	0
56068	2016-06-21T03:00:00	25.5	ND	ND	ND	ND	ND	ND	ND	ND	ND	ND	0.25
56069	2016-06-21T04:00:00	26.1	ND	ND	ND	ND	ND	ND	ND	ND	ND	ND	0
56070	2016-06-21T05:00:00	23.6	ND	ND	ND	ND	ND	ND	ND	ND	ND	ND	0
56071	2016-06-21T06:00:00	25.3	ND	ND	ND	ND	ND	ND	ND	ND	ND	ND	0
56072	2016-06-21T07:00:00	40.5	ND	ND	ND	ND	ND	ND	ND	ND	ND	ND	0
56073	2016-06-21T08:00:00	77.3	ND	ND	ND	ND	ND	ND	ND	ND	ND	ND	0
56074	2016-06-21T09:00:00	117.7	ND	ND	ND	ND	ND	ND	ND	ND	ND	ND	0
56075	2016-06-21T10:00:00	101.8	ND	ND	ND	ND	ND	ND	ND	ND	ND	ND	0
56076	2016-06-21T11:00:00	92.2	ND	ND	ND	ND	ND	ND	ND	ND	ND	ND	0
56077	2016-06-21T12:00:00	107	ND	ND	ND	ND	ND	ND	ND	ND	ND	ND	0
56078	2016-06-21T13:00:00	78.2	ND	ND	ND	ND	ND	ND	ND	ND	ND	ND	0
56079	2016-06-21T14:00:00	51.2	ND	ND	ND	ND	ND	ND	ND	ND	ND	ND	0
56080	2016-06-21T15:00:00	60.8	ND	ND	ND	ND	ND	ND	ND	ND	ND	ND	0
56081	2016-06-21T16:00:00	64	ND	ND	ND	ND	ND	ND	ND	ND	ND	ND	0
56082	2016-06-21T17:00:00	51	ND	ND	ND	ND	ND	ND	ND	ND	ND	ND	0
56083	2016-06-21T18:00:00	30.6	ND	ND	ND	ND	ND	ND	ND	ND	ND	ND	0
56084	2016-06-21T19:00:00	40.6	ND	ND	ND	ND	ND	ND	ND	ND	ND	ND	0
56085	2016-06-21T20:00:00	39.6	ND	ND	ND	ND	ND	ND	ND	ND	ND	ND	0
56086	2016-06-21T21:00:00	23.4	ND	ND	ND	ND	ND	ND	ND	ND	ND	ND	0
56087	2016-06-21T22:00:00	17.8	ND	ND	ND	ND	ND	ND	ND	ND	ND	ND	0
56088	2016-06-21T23:00:00	23.3	ND	ND	ND	ND	ND	ND	ND	ND	ND	ND	0
56089	2016-06-22T00:00:00	34.3	ND	ND	ND	ND	ND	ND	ND	ND	ND	ND	0
56090	2016-06-22T01:00:00	18.2	ND	ND	ND	ND	ND	ND	ND	ND	ND	ND	0
56091	2016-06-22T02:00:00	24	ND	ND	ND	ND	ND	ND	ND	ND	ND	ND	0
56092	2016-06-22T03:00:00	19.6	ND	ND	ND	ND	ND	ND	ND	ND	ND	ND	0
56093	2016-06-22T04:00:00	37.3	ND	ND	ND	ND	ND	ND	ND	ND	ND	ND	0
56094	2016-06-22T05:00:00	51.1	ND	ND	ND	ND	ND	ND	ND	ND	ND	ND	0
56095	2016-06-22T06:00:00	68.4	ND	ND	ND	ND	ND	ND	ND	ND	ND	ND	0
56096	2016-06-22T07:00:00	79	ND	ND	ND	ND	ND	ND	ND	ND	ND	ND	0
56097	2016-06-22T08:00:00	107.2	ND	ND	ND	ND	ND	ND	ND	ND	ND	ND	0
56098	2016-06-22T09:00:00	91.8	ND	ND	ND	ND	ND	ND	ND	ND	ND	ND	0
56099	2016-06-22T10:00:00	89.7	ND	ND	ND	ND	ND	ND	ND	ND	ND	ND	0
56100	2016-06-22T11:00:00	113.2	ND	ND	ND	ND	ND	ND	ND	ND	ND	ND	0
56101	2016-06-22T12:00:00	143.4	ND	ND	ND	ND	ND	ND	ND	ND	ND	ND	0
56102	2016-06-22T13:00:00	135.6	ND	ND	ND	ND	ND	ND	ND	ND	ND	ND	0
56103	2016-06-22T14:00:00	61.7	ND	ND	ND	ND	ND	ND	ND	ND	ND	ND	0
56104	2016-06-22T15:00:00	53.9	ND	ND	ND	ND	ND	ND	ND	ND	ND	ND	0
56105	2016-06-22T16:00:00	57.1	ND	ND	ND	ND	ND	ND	ND	ND	ND	ND	0
56106	2016-06-22T17:00:00	44.4	ND	ND	ND	ND	ND	ND	ND	ND	ND	ND	0
56107	2016-06-22T18:00:00	40.9	ND	ND	ND	ND	ND	ND	ND	ND	ND	ND	0
56108	2016-06-22T19:00:00	44.5	ND	ND	ND	ND	ND	ND	ND	ND	ND	ND	0
56109	2016-06-22T20:00:00	30	ND	ND	ND	ND	ND	ND	ND	ND	ND	ND	0
56110	2016-06-22T21:00:00	4.2	ND	ND	ND	ND	ND	ND	ND	ND	ND	ND	0
56111	2016-06-22T22:00:00	0.5	ND	ND	ND	ND	ND	ND	ND	ND	ND	ND	0
56112	2016-06-22T23:00:00	24.5	ND	ND	ND	ND	ND	ND	ND	ND	ND	ND	0
56113	2016-06-23T00:00:00	41.4	ND	ND	ND	ND	ND	ND	ND	ND	ND	ND	0
56114	2016-06-23T01:00:00	30.1	ND	ND	ND	ND	ND	ND	ND	ND	ND	ND	0
56115	2016-06-23T02:00:00	14.1	ND	ND	ND	ND	ND	ND	ND	ND	ND	ND	0
56116	2016-06-23T03:00:00	24.3	ND	ND	ND	ND	ND	ND	ND	ND	ND	ND	0
56117	2016-06-23T04:00:00	43.2	ND	ND	ND	ND	ND	ND	ND	ND	ND	ND	0
56118	2016-06-23T05:00:00	61.3	ND	ND	ND	ND	ND	ND	ND	ND	ND	ND	0
56119	2016-06-23T06:00:00	53.8	ND	ND	ND	ND	ND	ND	ND	ND	ND	ND	0
56120	2016-06-23T07:00:00	84.2	ND	ND	ND	ND	ND	ND	ND	ND	ND	ND	0
56121	2016-06-23T08:00:00	86.5	ND	ND	ND	ND	ND	ND	ND	ND	ND	ND	0
56122	2016-06-23T09:00:00	70.3	ND	ND	ND	ND	ND	ND	ND	ND	ND	ND	0
56123	2016-06-23T10:00:00	57.8	ND	ND	ND	ND	ND	ND	ND	ND	ND	ND	0
56124	2016-06-23T11:00:00	87.4	ND	ND	ND	ND	ND	ND	ND	ND	ND	ND	0
56125	2016-06-23T12:00:00	94.5	ND	ND	ND	ND	ND	ND	ND	ND	ND	ND	0
56126	2016-06-23T13:00:00	59.7	ND	ND	ND	ND	ND	ND	ND	ND	ND	ND	0
56127	2016-06-23T14:00:00	90.5	ND	ND	ND	ND	ND	ND	ND	ND	ND	ND	0
56128	2016-06-23T15:00:00	103	ND	ND	ND	ND	ND	ND	ND	ND	ND	ND	0
56129	2016-06-23T16:00:00	56.1	ND	ND	ND	ND	ND	ND	ND	ND	ND	ND	0
56130	2016-06-23T17:00:00	52.6	ND	ND	ND	ND	ND	ND	ND	ND	ND	ND	0
56131	2016-06-23T18:00:00	89.5	ND	ND	ND	ND	ND	ND	ND	ND	ND	ND	0
56132	2016-06-23T19:00:00	82.1	ND	ND	ND	ND	ND	ND	ND	ND	ND	ND	0
56133	2016-06-23T20:00:00	35	ND	ND	ND	ND	ND	ND	ND	ND	ND	ND	0
56134	2016-06-23T21:00:00	9.4	ND	ND	ND	ND	ND	ND	ND	ND	ND	ND	0
56135	2016-06-23T22:00:00	8.2	ND	ND	ND	ND	ND	ND	ND	ND	ND	ND	0
56136	2016-06-23T23:00:00	6.7	ND	ND	ND	ND	ND	ND	ND	ND	ND	ND	0
56137	2016-06-24T00:00:00	5.5	ND	ND	ND	ND	ND	ND	ND	ND	ND	ND	0
56138	2016-06-24T01:00:00	10.9	ND	ND	ND	ND	ND	ND	ND	ND	ND	ND	0
56139	2016-06-24T02:00:00	41.8	ND	ND	ND	ND	ND	ND	ND	ND	ND	ND	0
56140	2016-06-24T03:00:00	28.1	ND	ND	ND	ND	ND	ND	ND	ND	ND	ND	0
56141	2016-06-24T04:00:00	33.5	ND	ND	ND	ND	ND	ND	ND	ND	ND	ND	0
56142	2016-06-24T05:00:00	61.6	ND	ND	ND	ND	ND	ND	ND	ND	ND	ND	0
56143	2016-06-24T06:00:00	90.4	ND	ND	ND	ND	ND	ND	ND	ND	ND	ND	0
56144	2016-06-24T07:00:00	90.4	ND	ND	ND	ND	ND	ND	ND	ND	ND	ND	0
56145	2016-06-24T08:00:00	79.8	ND	ND	ND	ND	ND	ND	ND	ND	ND	ND	0
56146	2016-06-24T09:00:00	108.6	ND	ND	ND	ND	ND	ND	ND	ND	ND	ND	0
56147	2016-06-24T10:00:00	111.5	ND	ND	ND	ND	ND	ND	ND	ND	ND	ND	0
56148	2016-06-24T11:00:00	118.7	ND	ND	ND	ND	ND	ND	ND	ND	ND	ND	0
56149	2016-06-24T12:00:00	95.7	ND	ND	ND	ND	ND	ND	ND	ND	ND	ND	0
56150	2016-06-24T13:00:00	87.7	ND	ND	ND	ND	ND	ND	ND	ND	ND	ND	0
56151	2016-06-24T14:00:00	92.4	ND	ND	ND	ND	ND	ND	ND	ND	ND	ND	0
56152	2016-06-24T15:00:00	67	ND	ND	ND	ND	ND	ND	ND	ND	ND	ND	0
56153	2016-06-24T16:00:00	40.3	ND	ND	ND	ND	ND	ND	ND	ND	ND	ND	0
56154	2016-06-24T17:00:00	23.3	ND	ND	ND	ND	ND	ND	ND	ND	ND	ND	0
56155	2016-06-24T18:00:00	20.3	ND	ND	ND	ND	ND	ND	ND	ND	ND	ND	0
56156	2016-06-24T19:00:00	15.3	ND	ND	ND	ND	ND	ND	ND	ND	ND	ND	0
56157	2016-06-24T20:00:00	11.2	ND	ND	ND	ND	ND	ND	ND	ND	ND	ND	0
56158	2016-06-24T21:00:00	9.8	ND	ND	ND	ND	ND	ND	ND	ND	ND	ND	0
56159	2016-06-24T22:00:00	31.2	ND	ND	ND	ND	ND	ND	ND	ND	ND	ND	0
56160	2016-06-24T23:00:00	30.1	ND	ND	ND	ND	ND	ND	ND	ND	ND	ND	0
56161	2016-06-25T00:00:00	17.2	ND	ND	ND	ND	ND	ND	ND	ND	ND	ND	0.25
56162	2016-06-25T01:00:00	10.6	ND	ND	ND	ND	ND	ND	ND	ND	ND	ND	2.29
56163	2016-06-25T02:00:00	20.2	ND	ND	ND	ND	ND	ND	ND	ND	ND	ND	0
56164	2016-06-25T03:00:00	24.9	ND	ND	ND	ND	ND	ND	ND	ND	ND	ND	0
56165	2016-06-25T04:00:00	39.2	ND	ND	ND	ND	ND	ND	ND	ND	ND	ND	0
56166	2016-06-25T05:00:00	29.8	ND	ND	ND	ND	ND	ND	ND	ND	ND	ND	0
56167	2016-06-25T06:00:00	7.5	ND	ND	ND	ND	ND	ND	ND	ND	ND	ND	0
56168	2016-06-25T07:00:00	27.7	ND	ND	ND	ND	ND	ND	ND	ND	ND	ND	0.25
56169	2016-06-25T08:00:00	41.9	ND	ND	ND	ND	ND	ND	ND	ND	ND	ND	0
56170	2016-06-25T09:00:00	75.8	ND	ND	ND	ND	ND	ND	ND	ND	ND	ND	0
56171	2016-06-25T10:00:00	63.5	ND	ND	ND	ND	ND	ND	ND	ND	ND	ND	0
56172	2016-06-25T11:00:00	70.6	ND	ND	ND	ND	ND	ND	ND	ND	ND	ND	0
56173	2016-06-25T12:00:00	62.6	ND	ND	ND	ND	ND	ND	ND	ND	ND	ND	0
56174	2016-06-25T13:00:00	37.9	ND	ND	ND	ND	ND	ND	ND	ND	ND	ND	0
56175	2016-06-25T14:00:00	41.4	ND	ND	ND	ND	ND	ND	ND	ND	ND	ND	0
56176	2016-06-25T15:00:00	32.8	ND	ND	ND	ND	ND	ND	ND	ND	ND	ND	0
56177	2016-06-25T16:00:00	35.7	ND	ND	ND	ND	ND	ND	ND	ND	ND	ND	0
56178	2016-06-25T17:00:00	45.3	ND	ND	ND	ND	ND	ND	ND	ND	ND	ND	0
56179	2016-06-25T18:00:00	37.1	ND	ND	ND	ND	ND	ND	ND	ND	ND	ND	0
56180	2016-06-25T19:00:00	44.9	ND	ND	ND	ND	ND	ND	ND	ND	ND	ND	0
56181	2016-06-25T20:00:00	12.5	ND	ND	ND	ND	ND	ND	ND	ND	ND	ND	0
56182	2016-06-25T21:00:00	14.6	ND	ND	ND	ND	ND	ND	ND	ND	ND	ND	0
56183	2016-06-25T22:00:00	12.4	ND	ND	ND	ND	ND	ND	ND	ND	ND	ND	0
56184	2016-06-25T23:00:00	10.6	ND	ND	ND	ND	ND	ND	ND	ND	ND	ND	0
56185	2016-06-26T00:00:00	11.6	ND	ND	ND	ND	ND	ND	ND	ND	ND	ND	0
56186	2016-06-26T01:00:00	25.4	ND	ND	ND	ND	ND	ND	ND	ND	ND	ND	0
56187	2016-06-26T02:00:00	14.3	ND	ND	ND	ND	ND	ND	ND	ND	ND	ND	0
56188	2016-06-26T03:00:00	35.3	ND	ND	ND	ND	ND	ND	ND	ND	ND	ND	0
56189	2016-06-26T04:00:00	38.4	ND	ND	ND	ND	ND	ND	ND	ND	ND	ND	0
56190	2016-06-26T05:00:00	20	ND	ND	ND	ND	ND	ND	ND	ND	ND	ND	0
56191	2016-06-26T06:00:00	23.5	ND	ND	ND	ND	ND	ND	ND	ND	ND	ND	0
56192	2016-06-26T07:00:00	33.3	ND	ND	ND	ND	ND	ND	ND	ND	ND	ND	1.27
56193	2016-06-26T08:00:00	44.6	ND	ND	ND	ND	ND	ND	ND	ND	ND	ND	41.15
56194	2016-06-26T09:00:00	20.4	ND	ND	ND	ND	ND	ND	ND	ND	ND	ND	0.25
56195	2016-06-26T10:00:00	5.5	ND	ND	ND	ND	ND	ND	ND	ND	ND	ND	0
56196	2016-06-26T11:00:00	8.8	ND	ND	ND	ND	ND	ND	ND	ND	ND	ND	0
56197	2016-06-26T12:00:00	36.9	ND	ND	ND	ND	ND	ND	ND	ND	ND	ND	0
56198	2016-06-26T13:00:00	20.7	ND	ND	ND	ND	ND	ND	ND	ND	ND	ND	0
56199	2016-06-26T14:00:00	28	ND	ND	ND	ND	ND	ND	ND	ND	ND	ND	0
56200	2016-06-26T15:00:00	16.4	ND	ND	ND	ND	ND	ND	ND	ND	ND	ND	0
56201	2016-06-26T16:00:00	44.3	ND	ND	ND	ND	ND	ND	ND	ND	ND	ND	0
56202	2016-06-26T17:00:00	25.8	ND	ND	ND	ND	ND	ND	ND	ND	ND	ND	0
56203	2016-06-26T18:00:00	56.6	ND	ND	ND	ND	ND	ND	ND	ND	ND	ND	0
56204	2016-06-26T19:00:00	73.8	ND	ND	ND	ND	ND	ND	ND	ND	ND	ND	0
56205	2016-06-26T20:00:00	56.4	ND	ND	ND	ND	ND	ND	ND	ND	ND	ND	0
56206	2016-06-26T21:00:00	53.1	ND	ND	ND	ND	ND	ND	ND	ND	ND	ND	0
56207	2016-06-26T22:00:00	45.1	ND	ND	ND	ND	ND	ND	ND	ND	ND	ND	0
56208	2016-06-26T23:00:00	11	ND	ND	ND	ND	ND	ND	ND	ND	ND	ND	0
56209	2016-06-27T00:00:00	47.4	ND	ND	ND	ND	ND	ND	ND	ND	ND	ND	0
56210	2016-06-27T01:00:00	64.2	ND	ND	ND	ND	ND	ND	ND	ND	ND	ND	0
56211	2016-06-27T02:00:00	76.2	ND	ND	ND	ND	ND	ND	ND	ND	ND	ND	0
56212	2016-06-27T03:00:00	39	ND	ND	ND	ND	ND	ND	ND	ND	ND	ND	0
56213	2016-06-27T04:00:00	28.8	ND	ND	ND	ND	ND	ND	ND	ND	ND	ND	0
56214	2016-06-27T05:00:00	52.1	ND	ND	ND	ND	ND	ND	ND	ND	ND	ND	0
56215	2016-06-27T06:00:00	64.7	ND	ND	ND	ND	ND	ND	ND	ND	ND	ND	0
56216	2016-06-27T07:00:00	103	ND	ND	ND	ND	ND	ND	ND	ND	ND	ND	0
56217	2016-06-27T08:00:00	85.7	ND	ND	ND	ND	ND	ND	ND	ND	ND	ND	0
56218	2016-06-27T09:00:00	66.2	ND	ND	ND	ND	ND	ND	ND	ND	ND	ND	0
56219	2016-06-27T10:00:00	59	ND	ND	ND	ND	ND	ND	ND	ND	ND	ND	0
56220	2016-06-27T11:00:00	76	ND	ND	ND	ND	ND	ND	ND	ND	ND	ND	0
56221	2016-06-27T12:00:00	87.6	ND	ND	ND	ND	ND	ND	ND	ND	ND	ND	0
56222	2016-06-27T13:00:00	72.8	ND	ND	ND	ND	ND	ND	ND	ND	ND	ND	0
56223	2016-06-27T14:00:00	92	ND	ND	ND	ND	ND	ND	ND	ND	ND	ND	0
56224	2016-06-27T15:00:00	78.5	ND	ND	ND	ND	ND	ND	ND	ND	ND	ND	0
56225	2016-06-27T16:00:00	67.6	ND	ND	ND	ND	ND	ND	ND	ND	ND	ND	0
56226	2016-06-27T17:00:00	23.2	ND	ND	ND	ND	ND	ND	ND	ND	ND	ND	0
56227	2016-06-27T18:00:00	59.8	ND	ND	ND	ND	ND	ND	ND	ND	ND	ND	0
56228	2016-06-27T19:00:00	24.7	ND	ND	ND	ND	ND	ND	ND	ND	ND	ND	0
56229	2016-06-27T20:00:00	16.1	ND	ND	ND	ND	ND	ND	ND	ND	ND	ND	0
56230	2016-06-27T21:00:00	11.8	ND	ND	ND	ND	ND	ND	ND	ND	ND	ND	0
56231	2016-06-27T22:00:00	16.2	ND	ND	ND	ND	ND	ND	ND	ND	ND	ND	0
56232	2016-06-27T23:00:00	37.3	ND	ND	ND	ND	ND	ND	ND	ND	ND	ND	0
56233	2016-06-28T00:00:00	55.2	ND	ND	ND	ND	ND	ND	ND	ND	ND	ND	0
56234	2016-06-28T01:00:00	34.2	ND	ND	ND	ND	ND	ND	ND	ND	ND	ND	0
56235	2016-06-28T02:00:00	59.8	ND	ND	ND	ND	ND	ND	ND	ND	ND	ND	0
56236	2016-06-28T03:00:00	54	ND	ND	ND	ND	ND	ND	ND	ND	ND	ND	0
56237	2016-06-28T04:00:00	43.8	ND	ND	ND	ND	ND	ND	ND	ND	ND	ND	0
56238	2016-06-28T05:00:00	52.3	ND	ND	ND	ND	ND	ND	ND	ND	ND	ND	0
56239	2016-06-28T06:00:00	50	ND	ND	ND	ND	ND	ND	ND	ND	ND	ND	0
56240	2016-06-28T07:00:00	74.1	ND	ND	ND	ND	ND	ND	ND	ND	ND	ND	0
56241	2016-06-28T08:00:00	100.6	ND	ND	ND	ND	ND	ND	ND	ND	ND	ND	0
56242	2016-06-28T09:00:00	132	ND	ND	ND	ND	ND	ND	ND	ND	ND	ND	0
56243	2016-06-28T10:00:00	147.4	ND	ND	ND	ND	ND	ND	ND	ND	ND	ND	0
56244	2016-06-28T11:00:00	118.1	ND	ND	ND	ND	ND	ND	ND	ND	ND	ND	0
56245	2016-06-28T12:00:00	81.5	ND	ND	ND	ND	ND	ND	ND	ND	ND	ND	0
56246	2016-06-28T13:00:00	60.5	ND	ND	ND	ND	ND	ND	ND	ND	ND	ND	0
56247	2016-06-28T14:00:00	60.9	ND	ND	ND	ND	ND	ND	ND	ND	ND	ND	0
56248	2016-06-28T15:00:00	66	ND	ND	ND	ND	ND	ND	ND	ND	ND	ND	0
56249	2016-06-28T16:00:00	82.1	ND	ND	ND	ND	ND	ND	ND	ND	ND	ND	0
56250	2016-06-28T17:00:00	57	ND	ND	ND	ND	ND	ND	ND	ND	ND	ND	0
56251	2016-06-28T18:00:00	35.8	ND	ND	ND	ND	ND	ND	ND	ND	ND	ND	0
56252	2016-06-28T19:00:00	37.5	ND	ND	ND	ND	ND	ND	ND	ND	ND	ND	0
56253	2016-06-28T20:00:00	24.7	ND	ND	ND	ND	ND	ND	ND	ND	ND	ND	0
56254	2016-06-28T21:00:00	15.9	ND	ND	ND	ND	ND	ND	ND	ND	ND	ND	0
56255	2016-06-28T22:00:00	36.5	ND	ND	ND	ND	ND	ND	ND	ND	ND	ND	0
56256	2016-06-28T23:00:00	29.2	ND	ND	ND	ND	ND	ND	ND	ND	ND	ND	0
56257	2016-06-29T00:00:00	15.8	ND	ND	ND	ND	ND	ND	ND	ND	ND	ND	0
56258	2016-06-29T01:00:00	52.6	ND	ND	ND	ND	ND	ND	ND	ND	ND	ND	0
56259	2016-06-29T02:00:00	54.1	ND	ND	ND	ND	ND	ND	ND	ND	ND	ND	0
56260	2016-06-29T03:00:00	42.1	ND	ND	ND	ND	ND	ND	ND	ND	ND	ND	0
56261	2016-06-29T04:00:00	37.9	ND	ND	ND	ND	ND	ND	ND	ND	ND	ND	0
56262	2016-06-29T05:00:00	49.5	ND	ND	ND	ND	ND	ND	ND	ND	ND	ND	0
56263	2016-06-29T06:00:00	58.4	ND	ND	ND	ND	ND	ND	ND	ND	ND	ND	0
56264	2016-06-29T07:00:00	52.6	ND	ND	ND	ND	ND	ND	ND	ND	ND	ND	0
56265	2016-06-29T08:00:00	81.8	ND	ND	ND	ND	ND	ND	ND	ND	ND	ND	0
56266	2016-06-29T09:00:00	95.1	ND	ND	ND	ND	ND	ND	ND	ND	ND	ND	0
56267	2016-06-29T10:00:00	75.3	ND	ND	ND	ND	ND	ND	ND	ND	ND	ND	0
56268	2016-06-29T11:00:00	81.1	ND	ND	ND	ND	ND	ND	ND	ND	ND	ND	0
56269	2016-06-29T12:00:00	91.3	ND	ND	ND	ND	ND	ND	ND	ND	ND	ND	0
56270	2016-06-29T13:00:00	80.7	ND	ND	ND	ND	ND	ND	ND	ND	ND	ND	0
56271	2016-06-29T14:00:00	72.5	ND	ND	ND	ND	ND	ND	ND	ND	ND	ND	0
56272	2016-06-29T15:00:00	73.8	ND	ND	ND	ND	ND	ND	ND	ND	ND	ND	0
56273	2016-06-29T16:00:00	92.3	ND	ND	ND	ND	ND	ND	ND	ND	ND	ND	0
56274	2016-06-29T17:00:00	23.6	ND	ND	ND	ND	ND	ND	ND	ND	ND	ND	0
56275	2016-06-29T18:00:00	23.7	ND	ND	ND	ND	ND	ND	ND	ND	ND	ND	0
56276	2016-06-29T19:00:00	29.6	ND	ND	ND	ND	ND	ND	ND	ND	ND	ND	0
56277	2016-06-29T20:00:00	22.4	ND	ND	ND	ND	ND	ND	ND	ND	ND	ND	0
56278	2016-06-29T21:00:00	24.1	ND	ND	ND	ND	ND	ND	ND	ND	ND	ND	0
56279	2016-06-29T22:00:00	50.9	ND	ND	ND	ND	ND	ND	ND	ND	ND	ND	0
56280	2016-06-29T23:00:00	41.4	ND	ND	ND	ND	ND	ND	ND	ND	ND	ND	0
56281	2016-06-30T00:00:00	11.6	ND	ND	ND	ND	ND	ND	ND	ND	ND	ND	0
56282	2016-06-30T01:00:00	9.3	ND	ND	ND	ND	ND	ND	ND	ND	ND	ND	0
56283	2016-06-30T02:00:00	22.4	ND	ND	ND	ND	ND	ND	ND	ND	ND	ND	0
56284	2016-06-30T03:00:00	44.1	ND	ND	ND	ND	ND	ND	ND	ND	ND	ND	0
56285	2016-06-30T04:00:00	43.8	ND	ND	ND	ND	ND	ND	ND	ND	ND	ND	0
56286	2016-06-30T05:00:00	22.9	ND	ND	ND	ND	ND	ND	ND	ND	ND	ND	0
56287	2016-06-30T06:00:00	33.9	ND	ND	ND	ND	ND	ND	ND	ND	ND	ND	0
56288	2016-06-30T07:00:00	66.7	ND	ND	ND	ND	ND	ND	ND	ND	ND	ND	0
56289	2016-06-30T08:00:00	76	ND	ND	ND	ND	ND	ND	ND	ND	ND	ND	0
56290	2016-06-30T09:00:00	55.5	ND	ND	ND	ND	ND	ND	ND	ND	ND	ND	0
56291	2016-06-30T10:00:00	45.9	ND	ND	ND	ND	ND	ND	ND	ND	ND	ND	0
56292	2016-06-30T11:00:00	35.9	ND	ND	ND	ND	ND	ND	ND	ND	ND	ND	0
56293	2016-06-30T12:00:00	121	ND	ND	ND	ND	ND	ND	ND	ND	ND	ND	0
56294	2016-06-30T13:00:00	51.7	ND	ND	ND	ND	ND	ND	ND	ND	ND	ND	0
56295	2016-06-30T14:00:00	34.6	ND	ND	ND	ND	ND	ND	ND	ND	ND	ND	0
56296	2016-06-30T15:00:00	89.2	ND	ND	ND	ND	ND	ND	ND	ND	ND	ND	0
56297	2016-06-30T16:00:00	90	ND	ND	ND	ND	ND	ND	ND	ND	ND	ND	0
56298	2016-06-30T17:00:00	38.8	ND	ND	ND	ND	ND	ND	ND	ND	ND	ND	0
56299	2016-06-30T18:00:00	66	ND	ND	ND	ND	ND	ND	ND	ND	ND	ND	0
56300	2016-06-30T19:00:00	45.1	ND	ND	ND	ND	ND	ND	ND	ND	ND	ND	0
56301	2016-06-30T20:00:00	19.4	ND	ND	ND	ND	ND	ND	ND	ND	ND	ND	0
56302	2016-06-30T21:00:00	25.3	ND	ND	ND	ND	ND	ND	ND	ND	ND	ND	0
56303	2016-06-30T22:00:00	2.3	ND	ND	ND	ND	ND	ND	ND	ND	ND	ND	0
56304	2016-06-30T23:00:00	40.9	ND	ND	ND	ND	ND	ND	ND	ND	ND	ND	0
56305	2016-07-01T00:00:00	8.4	ND	ND	ND	ND	ND	ND	ND	ND	ND	ND	0
56306	2016-07-01T01:00:00	ND	ND	ND	ND	ND	ND	ND	ND	ND	ND	ND	0
56307	2016-07-01T02:00:00	26.6	ND	ND	ND	ND	ND	ND	ND	ND	ND	ND	0
56308	2016-07-01T03:00:00	74.9	ND	ND	ND	ND	ND	ND	ND	ND	ND	ND	0
56309	2016-07-01T04:00:00	15.8	ND	ND	ND	ND	ND	ND	ND	ND	ND	ND	0
56310	2016-07-01T05:00:00	40.2	ND	ND	ND	ND	ND	ND	ND	ND	ND	ND	0
56311	2016-07-01T06:00:00	46.8	ND	ND	ND	ND	ND	ND	ND	ND	ND	ND	0
56312	2016-07-01T07:00:00	42.6	ND	ND	ND	ND	ND	ND	ND	ND	ND	ND	0
56313	2016-07-01T08:00:00	54.1	ND	ND	ND	ND	ND	ND	ND	ND	ND	ND	0
56314	2016-07-01T09:00:00	80.9	ND	ND	ND	ND	ND	ND	ND	ND	ND	ND	0
56315	2016-07-01T10:00:00	89.9	ND	ND	ND	ND	ND	ND	ND	ND	ND	ND	0
56316	2016-07-01T11:00:00	ND	ND	ND	ND	ND	ND	ND	ND	ND	ND	ND	ND
56317	2016-07-01T12:00:00	33.2	ND	ND	ND	ND	ND	ND	ND	ND	ND	ND	0
56318	2016-07-01T13:00:00	35.3	ND	ND	ND	ND	ND	ND	ND	ND	ND	ND	0
56319	2016-07-01T14:00:00	67	ND	ND	ND	ND	ND	ND	ND	ND	ND	ND	0
56320	2016-07-01T15:00:00	75.4	ND	ND	ND	ND	ND	ND	ND	ND	ND	ND	0
56321	2016-07-01T16:00:00	61.8	ND	ND	ND	ND	ND	ND	ND	ND	ND	ND	0
56322	2016-07-01T17:00:00	32.9	ND	ND	ND	ND	ND	ND	ND	ND	ND	ND	0
56323	2016-07-01T18:00:00	27	ND	ND	ND	ND	ND	ND	ND	ND	ND	ND	0
56324	2016-07-01T19:00:00	30.7	ND	ND	ND	ND	ND	ND	ND	ND	ND	ND	0
56325	2016-07-01T20:00:00	20.9	ND	ND	ND	ND	ND	ND	ND	ND	ND	ND	0
56326	2016-07-01T21:00:00	8.3	ND	ND	ND	ND	ND	ND	ND	ND	ND	ND	0
56327	2016-07-01T22:00:00	21.4	ND	ND	ND	ND	ND	ND	ND	ND	ND	ND	0
56328	2016-07-01T23:00:00	8.6	ND	ND	ND	ND	ND	ND	ND	ND	ND	ND	0
56329	2016-07-02T00:00:00	18.7	ND	ND	ND	ND	ND	ND	ND	ND	ND	ND	0
56330	2016-07-02T01:00:00	10.1	ND	ND	ND	ND	ND	ND	ND	ND	ND	ND	0
56331	2016-07-02T02:00:00	17.8	ND	ND	ND	ND	ND	ND	ND	ND	ND	ND	0
56332	2016-07-02T03:00:00	28.5	ND	ND	ND	ND	ND	ND	ND	ND	ND	ND	0.25
56333	2016-07-02T04:00:00	16.6	ND	ND	ND	ND	ND	ND	ND	ND	ND	ND	0
56334	2016-07-02T05:00:00	17.6	ND	ND	ND	ND	ND	ND	ND	ND	ND	ND	0
56335	2016-07-02T06:00:00	21.1	ND	ND	ND	ND	ND	ND	ND	ND	ND	ND	0
56336	2016-07-02T07:00:00	73.3	ND	ND	ND	ND	ND	ND	ND	ND	ND	ND	0
56337	2016-07-02T08:00:00	50.5	ND	ND	ND	ND	ND	ND	ND	ND	ND	ND	0
56338	2016-07-02T09:00:00	50.2	ND	ND	ND	ND	ND	ND	ND	ND	ND	ND	0
56339	2016-07-02T10:00:00	58.6	ND	ND	ND	ND	ND	ND	ND	ND	ND	ND	0
56340	2016-07-02T11:00:00	59.5	ND	ND	ND	ND	ND	ND	ND	ND	ND	ND	0
56341	2016-07-02T12:00:00	65.9	ND	ND	ND	ND	ND	ND	ND	ND	ND	ND	0
56342	2016-07-02T13:00:00	31.9	ND	ND	ND	ND	ND	ND	ND	ND	ND	ND	0
56343	2016-07-02T14:00:00	82.7	ND	ND	ND	ND	ND	ND	ND	ND	ND	ND	0
56344	2016-07-02T15:00:00	49.2	ND	ND	ND	ND	ND	ND	ND	ND	ND	ND	0
56345	2016-07-02T16:00:00	105.1	ND	ND	ND	ND	ND	ND	ND	ND	ND	ND	0
56346	2016-07-02T17:00:00	62.8	ND	ND	ND	ND	ND	ND	ND	ND	ND	ND	0
56347	2016-07-02T18:00:00	21.7	ND	ND	ND	ND	ND	ND	ND	ND	ND	ND	0
56348	2016-07-02T19:00:00	16.2	ND	ND	ND	ND	ND	ND	ND	ND	ND	ND	0
56349	2016-07-02T20:00:00	10.4	ND	ND	ND	ND	ND	ND	ND	ND	ND	ND	0
56350	2016-07-02T21:00:00	7.3	ND	ND	ND	ND	ND	ND	ND	ND	ND	ND	0
56351	2016-07-02T22:00:00	3.6	ND	ND	ND	ND	ND	ND	ND	ND	ND	ND	0
56352	2016-07-02T23:00:00	3.7	ND	ND	ND	ND	ND	ND	ND	ND	ND	ND	0
56353	2016-07-03T00:00:00	3.8	ND	ND	ND	ND	ND	ND	ND	ND	ND	ND	0
56354	2016-07-03T01:00:00	13	ND	ND	ND	ND	ND	ND	ND	ND	ND	ND	0
56355	2016-07-03T02:00:00	7.9	ND	ND	ND	ND	ND	ND	ND	ND	ND	ND	0
56356	2016-07-03T03:00:00	26.8	ND	ND	ND	ND	ND	ND	ND	ND	ND	ND	0
56357	2016-07-03T04:00:00	42.1	ND	ND	ND	ND	ND	ND	ND	ND	ND	ND	0
56358	2016-07-03T05:00:00	14.9	ND	ND	ND	ND	ND	ND	ND	ND	ND	ND	11.18
56359	2016-07-03T06:00:00	11.8	ND	ND	ND	ND	ND	ND	ND	ND	ND	ND	0.76
56360	2016-07-03T07:00:00	ND	ND	ND	ND	ND	ND	ND	ND	ND	ND	ND	0.51
56361	2016-07-03T08:00:00	1.3	ND	ND	ND	ND	ND	ND	ND	ND	ND	ND	0
56362	2016-07-03T09:00:00	ND	ND	ND	ND	ND	ND	ND	ND	ND	ND	ND	0
56363	2016-07-03T10:00:00	ND	ND	ND	ND	ND	ND	ND	ND	ND	ND	ND	0
56364	2016-07-03T11:00:00	174.8	ND	ND	ND	ND	ND	ND	ND	ND	ND	ND	0
56365	2016-07-03T12:00:00	86.6	ND	ND	ND	ND	ND	ND	ND	ND	ND	ND	0
56366	2016-07-03T13:00:00	8.7	ND	ND	ND	ND	ND	ND	ND	ND	ND	ND	0
56367	2016-07-03T14:00:00	4.9	ND	ND	ND	ND	ND	ND	ND	ND	ND	ND	0
56368	2016-07-03T15:00:00	17.2	ND	ND	ND	ND	ND	ND	ND	ND	ND	ND	0
56369	2016-07-03T16:00:00	39	ND	ND	ND	ND	ND	ND	ND	ND	ND	ND	0
56370	2016-07-03T17:00:00	40.2	ND	ND	ND	ND	ND	ND	ND	ND	ND	ND	0
56371	2016-07-03T18:00:00	67.5	ND	ND	ND	ND	ND	ND	ND	ND	ND	ND	0
56372	2016-07-03T19:00:00	61.4	ND	ND	ND	ND	ND	ND	ND	ND	ND	ND	0
56373	2016-07-03T20:00:00	12.6	ND	ND	ND	ND	ND	ND	ND	ND	ND	ND	0
56374	2016-07-03T21:00:00	8.7	ND	ND	ND	ND	ND	ND	ND	ND	ND	ND	0
56375	2016-07-03T22:00:00	3	ND	ND	ND	ND	ND	ND	ND	ND	ND	ND	0
56376	2016-07-03T23:00:00	2.5	ND	ND	ND	ND	ND	ND	ND	ND	ND	ND	0
56377	2016-07-04T00:00:00	2.6	ND	ND	ND	ND	ND	ND	ND	ND	ND	ND	0
56378	2016-07-04T01:00:00	1.8	ND	ND	ND	ND	ND	ND	ND	ND	ND	ND	0
56379	2016-07-04T02:00:00	13.2	ND	ND	ND	ND	ND	ND	ND	ND	ND	ND	0
56380	2016-07-04T03:00:00	28.7	ND	ND	ND	ND	ND	ND	ND	ND	ND	ND	0
56381	2016-07-04T04:00:00	26.4	ND	ND	ND	ND	ND	ND	ND	ND	ND	ND	0
56382	2016-07-04T05:00:00	32.2	ND	ND	ND	ND	ND	ND	ND	ND	ND	ND	0
56383	2016-07-04T06:00:00	33.8	ND	ND	ND	ND	ND	ND	ND	ND	ND	ND	0
56384	2016-07-04T07:00:00	59.5	ND	ND	ND	ND	ND	ND	ND	ND	ND	ND	0
56385	2016-07-04T08:00:00	14.7	ND	ND	ND	ND	ND	ND	ND	ND	ND	ND	0
56386	2016-07-04T09:00:00	19.5	ND	ND	ND	ND	ND	ND	ND	ND	ND	ND	0
56387	2016-07-04T10:00:00	40.4	ND	ND	ND	ND	ND	ND	ND	ND	ND	ND	0
56388	2016-07-04T11:00:00	36	ND	ND	ND	ND	ND	ND	ND	ND	ND	ND	0
56389	2016-07-04T12:00:00	32.7	ND	ND	ND	ND	ND	ND	ND	ND	ND	ND	0
56390	2016-07-04T13:00:00	33.4	ND	ND	ND	ND	ND	ND	ND	ND	ND	ND	0
56391	2016-07-04T14:00:00	44	ND	ND	ND	ND	ND	ND	ND	ND	ND	ND	0
56392	2016-07-04T15:00:00	7.7	ND	ND	ND	ND	ND	ND	ND	ND	ND	ND	0
56393	2016-07-04T16:00:00	40.5	ND	ND	ND	ND	ND	ND	ND	ND	ND	ND	0
56394	2016-07-04T17:00:00	89.9	ND	ND	ND	ND	ND	ND	ND	ND	ND	ND	0
56395	2016-07-04T18:00:00	62.3	ND	ND	ND	ND	ND	ND	ND	ND	ND	ND	0
56396	2016-07-04T19:00:00	14.1	ND	ND	ND	ND	ND	ND	ND	ND	ND	ND	0
56397	2016-07-04T20:00:00	23	ND	ND	ND	ND	ND	ND	ND	ND	ND	ND	0
56398	2016-07-04T21:00:00	36.9	ND	ND	ND	ND	ND	ND	ND	ND	ND	ND	0
56399	2016-07-04T22:00:00	32.1	ND	ND	ND	ND	ND	ND	ND	ND	ND	ND	0
56400	2016-07-04T23:00:00	12	ND	ND	ND	ND	ND	ND	ND	ND	ND	ND	0
56401	2016-07-05T00:00:00	22.5	ND	ND	ND	ND	ND	ND	ND	ND	ND	ND	0
56402	2016-07-05T01:00:00	2	ND	ND	ND	ND	ND	ND	ND	ND	ND	ND	0
56403	2016-07-05T02:00:00	41.7	ND	ND	ND	ND	ND	ND	ND	ND	ND	ND	0
56404	2016-07-05T03:00:00	39.6	ND	ND	ND	ND	ND	ND	ND	ND	ND	ND	0
56405	2016-07-05T04:00:00	2.2	ND	ND	ND	ND	ND	ND	ND	ND	ND	ND	0
56406	2016-07-05T05:00:00	3.7	ND	ND	ND	ND	ND	ND	ND	ND	ND	ND	0
56407	2016-07-05T06:00:00	25.7	ND	ND	ND	ND	ND	ND	ND	ND	ND	ND	0
56408	2016-07-05T07:00:00	80	ND	ND	ND	ND	ND	ND	ND	ND	ND	ND	5.59
56409	2016-07-05T08:00:00	7.1	ND	ND	ND	ND	ND	ND	ND	ND	ND	ND	0.25
56410	2016-07-05T09:00:00	2.1	ND	ND	ND	ND	ND	ND	ND	ND	ND	ND	0
56411	2016-07-05T10:00:00	39.7	ND	ND	ND	ND	ND	ND	ND	ND	ND	ND	0
56412	2016-07-05T11:00:00	68.1	ND	ND	ND	ND	ND	ND	ND	ND	ND	ND	0
56413	2016-07-05T12:00:00	80.4	ND	ND	ND	ND	ND	ND	ND	ND	ND	ND	0
56414	2016-07-05T13:00:00	102.9	ND	ND	ND	ND	ND	ND	ND	ND	ND	ND	0
56415	2016-07-05T14:00:00	78.2	ND	ND	ND	ND	ND	ND	ND	ND	ND	ND	0
56416	2016-07-05T15:00:00	129.2	ND	ND	ND	ND	ND	ND	ND	ND	ND	ND	0
56417	2016-07-05T16:00:00	210.3	ND	ND	ND	ND	ND	ND	ND	ND	ND	ND	0
56418	2016-07-05T17:00:00	126.5	ND	ND	ND	ND	ND	ND	ND	ND	ND	ND	0
56419	2016-07-05T18:00:00	24.5	ND	ND	ND	ND	ND	ND	ND	ND	ND	ND	0
56420	2016-07-05T19:00:00	2.7	ND	ND	ND	ND	ND	ND	ND	ND	ND	ND	0
56421	2016-07-05T20:00:00	6	ND	ND	ND	ND	ND	ND	ND	ND	ND	ND	0
56422	2016-07-05T21:00:00	31.3	ND	ND	ND	ND	ND	ND	ND	ND	ND	ND	0
56423	2016-07-05T22:00:00	18.1	ND	ND	ND	ND	ND	ND	ND	ND	ND	ND	0
56424	2016-07-05T23:00:00	43.6	ND	ND	ND	ND	ND	ND	ND	ND	ND	ND	0
56425	2016-07-06T00:00:00	43.6	ND	ND	ND	ND	ND	ND	ND	ND	ND	ND	0
56426	2016-07-06T01:00:00	40.3	ND	ND	ND	ND	ND	ND	ND	ND	ND	ND	0
56427	2016-07-06T02:00:00	17.1	ND	ND	ND	ND	ND	ND	ND	ND	ND	ND	0
56428	2016-07-06T03:00:00	10.8	ND	ND	ND	ND	ND	ND	ND	ND	ND	ND	0
56429	2016-07-06T04:00:00	73.7	ND	ND	ND	ND	ND	ND	ND	ND	ND	ND	0
56430	2016-07-06T05:00:00	78.9	ND	ND	ND	ND	ND	ND	ND	ND	ND	ND	3.56
56431	2016-07-06T06:00:00	25.4	ND	ND	ND	ND	ND	ND	ND	ND	ND	ND	2.54
56432	2016-07-06T07:00:00	39.1	ND	ND	ND	ND	ND	ND	ND	ND	ND	ND	0.25
56433	2016-07-06T08:00:00	19.5	ND	ND	ND	ND	ND	ND	ND	ND	ND	ND	0.25
56434	2016-07-06T09:00:00	33.8	ND	ND	ND	ND	ND	ND	ND	ND	ND	ND	0
56435	2016-07-06T10:00:00	73	ND	ND	ND	ND	ND	ND	ND	ND	ND	ND	0
56436	2016-07-06T11:00:00	67.1	ND	ND	ND	ND	ND	ND	ND	ND	ND	ND	0
56437	2016-07-06T12:00:00	22.4	ND	ND	ND	ND	ND	ND	ND	ND	ND	ND	0
56438	2016-07-06T13:00:00	34.7	ND	ND	ND	ND	ND	ND	ND	ND	ND	ND	0
56439	2016-07-06T14:00:00	10.2	ND	ND	ND	ND	ND	ND	ND	ND	ND	ND	0
56440	2016-07-06T15:00:00	19.2	ND	ND	ND	ND	ND	ND	ND	ND	ND	ND	0
56441	2016-07-06T16:00:00	49.2	ND	ND	ND	ND	ND	ND	ND	ND	ND	ND	0
56442	2016-07-06T17:00:00	66.1	ND	ND	ND	ND	ND	ND	ND	ND	ND	ND	0
56443	2016-07-06T18:00:00	93	ND	ND	ND	ND	ND	ND	ND	ND	ND	ND	0
56444	2016-07-06T19:00:00	85.1	ND	ND	ND	ND	ND	ND	ND	ND	ND	ND	0
56445	2016-07-06T20:00:00	115.9	ND	ND	ND	ND	ND	ND	ND	ND	ND	ND	0
56446	2016-07-06T21:00:00	50.6	ND	ND	ND	ND	ND	ND	ND	ND	ND	ND	0
56447	2016-07-06T22:00:00	62.8	ND	ND	ND	ND	ND	ND	ND	ND	ND	ND	0
56448	2016-07-06T23:00:00	72.8	ND	ND	ND	ND	ND	ND	ND	ND	ND	ND	0
56449	2016-07-07T00:00:00	54.6	ND	ND	ND	ND	ND	ND	ND	ND	ND	ND	0
56450	2016-07-07T01:00:00	83	ND	ND	ND	ND	ND	ND	ND	ND	ND	ND	0
56451	2016-07-07T02:00:00	44.2	ND	ND	ND	ND	ND	ND	ND	ND	ND	ND	0
56452	2016-07-07T03:00:00	22.2	ND	ND	ND	ND	ND	ND	ND	ND	ND	ND	0
56453	2016-07-07T04:00:00	18.6	ND	ND	ND	ND	ND	ND	ND	ND	ND	ND	0
56454	2016-07-07T05:00:00	16.5	ND	ND	ND	ND	ND	ND	ND	ND	ND	ND	0
56455	2016-07-07T06:00:00	8.6	ND	ND	ND	ND	ND	ND	ND	ND	ND	ND	0
56456	2016-07-07T07:00:00	91.1	ND	ND	ND	ND	ND	ND	ND	ND	ND	ND	0
56457	2016-07-07T08:00:00	126.4	ND	ND	ND	ND	ND	ND	ND	ND	ND	ND	0
56458	2016-07-07T09:00:00	98.4	ND	ND	ND	ND	ND	ND	ND	ND	ND	ND	0
56459	2016-07-07T10:00:00	75.9	ND	ND	ND	ND	ND	ND	ND	ND	ND	ND	0
56460	2016-07-07T11:00:00	81	ND	ND	ND	ND	ND	ND	ND	ND	ND	ND	0
56461	2016-07-07T12:00:00	109.2	ND	ND	ND	ND	ND	ND	ND	ND	ND	ND	0
56462	2016-07-07T13:00:00	91.8	ND	ND	ND	ND	ND	ND	ND	ND	ND	ND	0
56463	2016-07-07T14:00:00	99.8	ND	ND	ND	ND	ND	ND	ND	ND	ND	ND	0
56464	2016-07-07T15:00:00	85.2	ND	ND	ND	ND	ND	ND	ND	ND	ND	ND	0
56465	2016-07-07T16:00:00	97.9	ND	ND	ND	ND	ND	ND	ND	ND	ND	ND	0
56466	2016-07-07T17:00:00	72.5	ND	ND	ND	ND	ND	ND	ND	ND	ND	ND	0
56467	2016-07-07T18:00:00	49.1	ND	ND	ND	ND	ND	ND	ND	ND	ND	ND	0
56468	2016-07-07T19:00:00	56.2	ND	ND	ND	ND	ND	ND	ND	ND	ND	ND	0
56469	2016-07-07T20:00:00	14	ND	ND	ND	ND	ND	ND	ND	ND	ND	ND	0
56470	2016-07-07T21:00:00	ND	ND	ND	ND	ND	ND	ND	ND	ND	ND	ND	0
56471	2016-07-07T22:00:00	6.4	ND	ND	ND	ND	ND	ND	ND	ND	ND	ND	0
56472	2016-07-07T23:00:00	39.9	ND	ND	ND	ND	ND	ND	ND	ND	ND	ND	0
56473	2016-07-08T00:00:00	43.3	ND	ND	ND	ND	ND	ND	ND	ND	ND	ND	0
56474	2016-07-08T01:00:00	15	ND	ND	ND	ND	ND	ND	ND	ND	ND	ND	0
56475	2016-07-08T02:00:00	30	ND	ND	ND	ND	ND	ND	ND	ND	ND	ND	0
56476	2016-07-08T03:00:00	67	ND	ND	ND	ND	ND	ND	ND	ND	ND	ND	0
56477	2016-07-08T04:00:00	43.9	ND	ND	ND	ND	ND	ND	ND	ND	ND	ND	0
56478	2016-07-08T05:00:00	61	ND	ND	ND	ND	ND	ND	ND	ND	ND	ND	0
56479	2016-07-08T06:00:00	57.3	ND	ND	ND	ND	ND	ND	ND	ND	ND	ND	0
56480	2016-07-08T07:00:00	67.5	ND	ND	ND	ND	ND	ND	ND	ND	ND	ND	0
56481	2016-07-08T08:00:00	57.9	ND	ND	ND	ND	ND	ND	ND	ND	ND	ND	0
56482	2016-07-08T09:00:00	55.1	ND	ND	ND	ND	ND	ND	ND	ND	ND	ND	0
56483	2016-07-08T10:00:00	43.3	ND	ND	ND	ND	ND	ND	ND	ND	ND	ND	0
56484	2016-07-08T11:00:00	29	ND	ND	ND	ND	ND	ND	ND	ND	ND	ND	0
56485	2016-07-08T12:00:00	70	ND	ND	ND	ND	ND	ND	ND	ND	ND	ND	0
56486	2016-07-08T13:00:00	84.3	ND	ND	ND	ND	ND	ND	ND	ND	ND	ND	0
56487	2016-07-08T14:00:00	102.5	ND	ND	ND	ND	ND	ND	ND	ND	ND	ND	0
56488	2016-07-08T15:00:00	117.8	ND	ND	ND	ND	ND	ND	ND	ND	ND	ND	0
56489	2016-07-08T16:00:00	92.9	ND	ND	ND	ND	ND	ND	ND	ND	ND	ND	0
56490	2016-07-08T17:00:00	19.3	ND	ND	ND	ND	ND	ND	ND	ND	ND	ND	0
56491	2016-07-08T18:00:00	53.2	ND	ND	ND	ND	ND	ND	ND	ND	ND	ND	0
56492	2016-07-08T19:00:00	70.7	ND	ND	ND	ND	ND	ND	ND	ND	ND	ND	0
56493	2016-07-08T20:00:00	20.4	ND	ND	ND	ND	ND	ND	ND	ND	ND	ND	0
56494	2016-07-08T21:00:00	13.7	ND	ND	ND	ND	ND	ND	ND	ND	ND	ND	0
56495	2016-07-08T22:00:00	8.4	ND	ND	ND	ND	ND	ND	ND	ND	ND	ND	0
56496	2016-07-08T23:00:00	19.7	ND	ND	ND	ND	ND	ND	ND	ND	ND	ND	0
56497	2016-07-09T00:00:00	20.7	ND	ND	ND	ND	ND	ND	ND	ND	ND	ND	0
56498	2016-07-09T01:00:00	77.7	ND	ND	ND	ND	ND	ND	ND	ND	ND	ND	0
56499	2016-07-09T02:00:00	80.9	ND	ND	ND	ND	ND	ND	ND	ND	ND	ND	0
56500	2016-07-09T03:00:00	50.8	ND	ND	ND	ND	ND	ND	ND	ND	ND	ND	0
56501	2016-07-09T04:00:00	42.9	ND	ND	ND	ND	ND	ND	ND	ND	ND	ND	0
56502	2016-07-09T05:00:00	39.5	ND	ND	ND	ND	ND	ND	ND	ND	ND	ND	0
56503	2016-07-09T06:00:00	39	ND	ND	ND	ND	ND	ND	ND	ND	ND	ND	0
56504	2016-07-09T07:00:00	52.9	ND	ND	ND	ND	ND	ND	ND	ND	ND	ND	0
56505	2016-07-09T08:00:00	47.5	ND	ND	ND	ND	ND	ND	ND	ND	ND	ND	0
56506	2016-07-09T09:00:00	61.9	ND	ND	ND	ND	ND	ND	ND	ND	ND	ND	0
56507	2016-07-09T10:00:00	102.5	ND	ND	ND	ND	ND	ND	ND	ND	ND	ND	0
56508	2016-07-09T11:00:00	73.3	ND	ND	ND	ND	ND	ND	ND	ND	ND	ND	0
56509	2016-07-09T12:00:00	66.9	ND	ND	ND	ND	ND	ND	ND	ND	ND	ND	0
56510	2016-07-09T13:00:00	63.9	ND	ND	ND	ND	ND	ND	ND	ND	ND	ND	0
56511	2016-07-09T14:00:00	58.4	ND	ND	ND	ND	ND	ND	ND	ND	ND	ND	0
56512	2016-07-09T15:00:00	107.6	ND	ND	ND	ND	ND	ND	ND	ND	ND	ND	0
56513	2016-07-09T16:00:00	79.8	ND	ND	ND	ND	ND	ND	ND	ND	ND	ND	0
56514	2016-07-09T17:00:00	1.7	ND	ND	ND	ND	ND	ND	ND	ND	ND	ND	0
56515	2016-07-09T18:00:00	57.7	ND	ND	ND	ND	ND	ND	ND	ND	ND	ND	0
56516	2016-07-09T19:00:00	77.9	ND	ND	ND	ND	ND	ND	ND	ND	ND	ND	0
56517	2016-07-09T20:00:00	22.4	ND	ND	ND	ND	ND	ND	ND	ND	ND	ND	0
56518	2016-07-09T21:00:00	3.6	ND	ND	ND	ND	ND	ND	ND	ND	ND	ND	0
56519	2016-07-09T22:00:00	8.8	ND	ND	ND	ND	ND	ND	ND	ND	ND	ND	0
56520	2016-07-09T23:00:00	13.1	ND	ND	ND	ND	ND	ND	ND	ND	ND	ND	0
56521	2016-07-10T00:00:00	9	ND	ND	ND	ND	ND	ND	ND	ND	ND	ND	0
56522	2016-07-10T01:00:00	6.8	ND	ND	ND	ND	ND	ND	ND	ND	ND	ND	0
56523	2016-07-10T02:00:00	34.8	ND	ND	ND	ND	ND	ND	ND	ND	ND	ND	0
56524	2016-07-10T03:00:00	50.8	ND	ND	ND	ND	ND	ND	ND	ND	ND	ND	0
56525	2016-07-10T04:00:00	58.5	ND	ND	ND	ND	ND	ND	ND	ND	ND	ND	0
56526	2016-07-10T05:00:00	82	ND	ND	ND	ND	ND	ND	ND	ND	ND	ND	0
56527	2016-07-10T06:00:00	60.6	ND	ND	ND	ND	ND	ND	ND	ND	ND	ND	0
56528	2016-07-10T07:00:00	38.9	ND	ND	ND	ND	ND	ND	ND	ND	ND	ND	0
56529	2016-07-10T08:00:00	36.6	ND	ND	ND	ND	ND	ND	ND	ND	ND	ND	0
56530	2016-07-10T09:00:00	19.2	ND	ND	ND	ND	ND	ND	ND	ND	ND	ND	0
56531	2016-07-10T10:00:00	12.7	ND	ND	ND	ND	ND	ND	ND	ND	ND	ND	0
56532	2016-07-10T11:00:00	4.9	ND	ND	ND	ND	ND	ND	ND	ND	ND	ND	0
56533	2016-07-10T12:00:00	32.1	ND	ND	ND	ND	ND	ND	ND	ND	ND	ND	0
56534	2016-07-10T13:00:00	55	ND	ND	ND	ND	ND	ND	ND	ND	ND	ND	0
56535	2016-07-10T14:00:00	56	ND	ND	ND	ND	ND	ND	ND	ND	ND	ND	0
56536	2016-07-10T15:00:00	58.3	ND	ND	ND	ND	ND	ND	ND	ND	ND	ND	0
56537	2016-07-10T16:00:00	99.8	ND	ND	ND	ND	ND	ND	ND	ND	ND	ND	0
56538	2016-07-10T17:00:00	81.1	ND	ND	ND	ND	ND	ND	ND	ND	ND	ND	0
56539	2016-07-10T18:00:00	25.6	ND	ND	ND	ND	ND	ND	ND	ND	ND	ND	0
56540	2016-07-10T19:00:00	43.3	ND	ND	ND	ND	ND	ND	ND	ND	ND	ND	0
56541	2016-07-10T20:00:00	13.2	ND	ND	ND	ND	ND	ND	ND	ND	ND	ND	0
56542	2016-07-10T21:00:00	ND	ND	ND	ND	ND	ND	ND	ND	ND	ND	ND	0
56543	2016-07-10T22:00:00	ND	ND	ND	ND	ND	ND	ND	ND	ND	ND	ND	0
56544	2016-07-10T23:00:00	6.1	ND	ND	ND	ND	ND	ND	ND	ND	ND	ND	0
56545	2016-07-11T00:00:00	3	ND	ND	ND	ND	ND	ND	ND	ND	ND	ND	0
56546	2016-07-11T01:00:00	22.4	ND	ND	ND	ND	ND	ND	ND	ND	ND	ND	0
56547	2016-07-11T02:00:00	4.8	ND	ND	ND	ND	ND	ND	ND	ND	ND	ND	0
56548	2016-07-11T03:00:00	28.4	ND	ND	ND	ND	ND	ND	ND	ND	ND	ND	0
56549	2016-07-11T04:00:00	14.2	ND	ND	ND	ND	ND	ND	ND	ND	ND	ND	0
56550	2016-07-11T05:00:00	32.9	ND	ND	ND	ND	ND	ND	ND	ND	ND	ND	0
56551	2016-07-11T06:00:00	46.4	ND	ND	ND	ND	ND	ND	ND	ND	ND	ND	0
56552	2016-07-11T07:00:00	45.2	ND	ND	ND	ND	ND	ND	ND	ND	ND	ND	0
56553	2016-07-11T08:00:00	58.4	ND	ND	ND	ND	ND	ND	ND	ND	ND	ND	0
56554	2016-07-11T09:00:00	96.4	ND	ND	ND	ND	ND	ND	ND	ND	ND	ND	0
56555	2016-07-11T10:00:00	190.8	ND	ND	ND	ND	ND	ND	ND	ND	ND	ND	0
56556	2016-07-11T11:00:00	70.7	ND	ND	ND	ND	ND	ND	ND	ND	ND	ND	0
56557	2016-07-11T12:00:00	52.9	ND	ND	ND	ND	ND	ND	ND	ND	ND	ND	0
56558	2016-07-11T13:00:00	25.1	ND	ND	ND	ND	ND	ND	ND	ND	ND	ND	0
56559	2016-07-11T14:00:00	69.6	ND	ND	ND	ND	ND	ND	ND	ND	ND	ND	0
56560	2016-07-11T15:00:00	80.3	ND	ND	ND	ND	ND	ND	ND	ND	ND	ND	0
56561	2016-07-11T16:00:00	44.6	ND	ND	ND	ND	ND	ND	ND	ND	ND	ND	0
56562	2016-07-11T17:00:00	24.3	ND	ND	ND	ND	ND	ND	ND	ND	ND	ND	0
56563	2016-07-11T18:00:00	91	ND	ND	ND	ND	ND	ND	ND	ND	ND	ND	0
56564	2016-07-11T19:00:00	65.2	ND	ND	ND	ND	ND	ND	ND	ND	ND	ND	0
56565	2016-07-11T20:00:00	12.9	ND	ND	ND	ND	ND	ND	ND	ND	ND	ND	0
56566	2016-07-11T21:00:00	ND	ND	ND	ND	ND	ND	ND	ND	ND	ND	ND	0
56567	2016-07-11T22:00:00	ND	ND	ND	ND	ND	ND	ND	ND	ND	ND	ND	0
56568	2016-07-11T23:00:00	3.1	ND	ND	ND	ND	ND	ND	ND	ND	ND	ND	0
56569	2016-07-12T00:00:00	19.6	ND	ND	ND	ND	ND	ND	ND	ND	ND	ND	0
56570	2016-07-12T01:00:00	39.8	ND	ND	ND	ND	ND	ND	ND	ND	ND	ND	0
56571	2016-07-12T02:00:00	38.5	ND	ND	ND	ND	ND	ND	ND	ND	ND	ND	0
56572	2016-07-12T03:00:00	45.8	ND	ND	ND	ND	ND	ND	ND	ND	ND	ND	0
56573	2016-07-12T04:00:00	54	ND	ND	ND	ND	ND	ND	ND	ND	ND	ND	0
56574	2016-07-12T05:00:00	61.8	ND	ND	ND	ND	ND	ND	ND	ND	ND	ND	0
56575	2016-07-12T06:00:00	58.2	ND	ND	ND	ND	ND	ND	ND	ND	ND	ND	0
56576	2016-07-12T07:00:00	50.9	ND	ND	ND	ND	ND	ND	ND	ND	ND	ND	0
56577	2016-07-12T08:00:00	12.2	ND	ND	ND	ND	ND	ND	ND	ND	ND	ND	0
56578	2016-07-12T09:00:00	32.2	ND	ND	ND	ND	ND	ND	ND	ND	ND	ND	0
56579	2016-07-12T10:00:00	67.3	ND	ND	ND	ND	ND	ND	ND	ND	ND	ND	0
56580	2016-07-12T11:00:00	95	ND	ND	ND	ND	ND	ND	ND	ND	ND	ND	0
56581	2016-07-12T12:00:00	76.5	ND	ND	ND	ND	ND	ND	ND	ND	ND	ND	0
56582	2016-07-12T13:00:00	55.1	ND	ND	ND	ND	ND	ND	ND	ND	ND	ND	0
56583	2016-07-12T14:00:00	75.4	ND	ND	ND	ND	ND	ND	ND	ND	ND	ND	0
56584	2016-07-12T15:00:00	109.8	ND	ND	ND	ND	ND	ND	ND	ND	ND	ND	0
56585	2016-07-12T16:00:00	146.8	ND	ND	ND	ND	ND	ND	ND	ND	ND	ND	0
56586	2016-07-12T17:00:00	34.8	ND	ND	ND	ND	ND	ND	ND	ND	ND	ND	0
56587	2016-07-12T18:00:00	56.9	ND	ND	ND	ND	ND	ND	ND	ND	ND	ND	0
56588	2016-07-12T19:00:00	43.6	ND	ND	ND	ND	ND	ND	ND	ND	ND	ND	0
56589	2016-07-12T20:00:00	32.1	ND	ND	ND	ND	ND	ND	ND	ND	ND	ND	0
56590	2016-07-12T21:00:00	20.1	ND	ND	ND	ND	ND	ND	ND	ND	ND	ND	0
56591	2016-07-12T22:00:00	10.5	ND	ND	ND	ND	ND	ND	ND	ND	ND	ND	0
56592	2016-07-12T23:00:00	7.7	ND	ND	ND	ND	ND	ND	ND	ND	ND	ND	0
56593	2016-07-13T00:00:00	19.9	ND	ND	ND	ND	ND	ND	ND	ND	ND	ND	0
56594	2016-07-13T01:00:00	14.1	ND	ND	ND	ND	ND	ND	ND	ND	ND	ND	0
56595	2016-07-13T02:00:00	2.1	ND	ND	ND	ND	ND	ND	ND	ND	ND	ND	0
56596	2016-07-13T03:00:00	44.2	ND	ND	ND	ND	ND	ND	ND	ND	ND	ND	0
56597	2016-07-13T04:00:00	69	ND	ND	ND	ND	ND	ND	ND	ND	ND	ND	0
56598	2016-07-13T05:00:00	42.6	ND	ND	ND	ND	ND	ND	ND	ND	ND	ND	0
56599	2016-07-13T06:00:00	10.7	ND	ND	ND	ND	ND	ND	ND	ND	ND	ND	0
56600	2016-07-13T07:00:00	19.9	ND	ND	ND	ND	ND	ND	ND	ND	ND	ND	0
56601	2016-07-13T08:00:00	70.6	ND	ND	ND	ND	ND	ND	ND	ND	ND	ND	0
56602	2016-07-13T09:00:00	115.2	ND	ND	ND	ND	ND	ND	ND	ND	ND	ND	0
56603	2016-07-13T10:00:00	115.4	ND	ND	ND	ND	ND	ND	ND	ND	ND	ND	0
56604	2016-07-13T11:00:00	96.2	ND	ND	ND	ND	ND	ND	ND	ND	ND	ND	0
56605	2016-07-13T12:00:00	75.6	ND	ND	ND	ND	ND	ND	ND	ND	ND	ND	0
56606	2016-07-13T13:00:00	89.9	ND	ND	ND	ND	ND	ND	ND	ND	ND	ND	0
56607	2016-07-13T14:00:00	75.6	ND	ND	ND	ND	ND	ND	ND	ND	ND	ND	0
56608	2016-07-13T15:00:00	28.3	ND	ND	ND	ND	ND	ND	ND	ND	ND	ND	0
56609	2016-07-13T16:00:00	71.6	ND	ND	ND	ND	ND	ND	ND	ND	ND	ND	2.03
56610	2016-07-13T17:00:00	11.6	ND	ND	ND	ND	ND	ND	ND	ND	ND	ND	0
56611	2016-07-13T18:00:00	29.5	ND	ND	ND	ND	ND	ND	ND	ND	ND	ND	0
56612	2016-07-13T19:00:00	98.1	ND	ND	ND	ND	ND	ND	ND	ND	ND	ND	0
56613	2016-07-13T20:00:00	36.6	ND	ND	ND	ND	ND	ND	ND	ND	ND	ND	0
56614	2016-07-13T21:00:00	5.6	ND	ND	ND	ND	ND	ND	ND	ND	ND	ND	0
56615	2016-07-13T22:00:00	5.1	ND	ND	ND	ND	ND	ND	ND	ND	ND	ND	0
56616	2016-07-13T23:00:00	24.7	ND	ND	ND	ND	ND	ND	ND	ND	ND	ND	0
56617	2016-07-14T00:00:00	48.6	ND	ND	ND	ND	ND	ND	ND	ND	ND	ND	0
56618	2016-07-14T01:00:00	36	ND	ND	ND	ND	ND	ND	ND	ND	ND	ND	0
56619	2016-07-14T02:00:00	29.5	ND	ND	ND	ND	ND	ND	ND	ND	ND	ND	0
56620	2016-07-14T03:00:00	44.4	ND	ND	ND	ND	ND	ND	ND	ND	ND	ND	0
56621	2016-07-14T04:00:00	35.4	ND	ND	ND	ND	ND	ND	ND	ND	ND	ND	0
56622	2016-07-14T05:00:00	47.8	ND	ND	ND	ND	ND	ND	ND	ND	ND	ND	0
56623	2016-07-14T06:00:00	49.3	ND	ND	ND	ND	ND	ND	ND	ND	ND	ND	0
56624	2016-07-14T07:00:00	47	ND	ND	ND	ND	ND	ND	ND	ND	ND	ND	0
56625	2016-07-14T08:00:00	68.4	ND	ND	ND	ND	ND	ND	ND	ND	ND	ND	0
56626	2016-07-14T09:00:00	170.1	ND	ND	ND	ND	ND	ND	ND	ND	ND	ND	0
56627	2016-07-14T10:00:00	53.1	ND	ND	ND	ND	ND	ND	ND	ND	ND	ND	0
56628	2016-07-14T11:00:00	37.1	ND	ND	ND	ND	ND	ND	ND	ND	ND	ND	0
56629	2016-07-14T12:00:00	94.9	ND	ND	ND	ND	ND	ND	ND	ND	ND	ND	0
56630	2016-07-14T13:00:00	114.6	ND	ND	ND	ND	ND	ND	ND	ND	ND	ND	0
56631	2016-07-14T14:00:00	64.4	ND	ND	ND	ND	ND	ND	ND	ND	ND	ND	0
56632	2016-07-14T15:00:00	88.5	ND	ND	ND	ND	ND	ND	ND	ND	ND	ND	0
56633	2016-07-14T16:00:00	77.1	ND	ND	ND	ND	ND	ND	ND	ND	ND	ND	0
56634	2016-07-14T17:00:00	40.3	ND	ND	ND	ND	ND	ND	ND	ND	ND	ND	0
56635	2016-07-14T18:00:00	81.9	ND	ND	ND	ND	ND	ND	ND	ND	ND	ND	0
56636	2016-07-14T19:00:00	57.2	ND	ND	ND	ND	ND	ND	ND	ND	ND	ND	0
56637	2016-07-14T20:00:00	25	ND	ND	ND	ND	ND	ND	ND	ND	ND	ND	0
56638	2016-07-14T21:00:00	ND	ND	ND	ND	ND	ND	ND	ND	ND	ND	ND	0
56639	2016-07-14T22:00:00	ND	ND	ND	ND	ND	ND	ND	ND	ND	ND	ND	0
56640	2016-07-14T23:00:00	27.7	ND	ND	ND	ND	ND	ND	ND	ND	ND	ND	0
56641	2016-07-15T00:00:00	23.6	ND	ND	ND	ND	ND	ND	ND	ND	ND	ND	0
56642	2016-07-15T01:00:00	5.3	ND	ND	ND	ND	ND	ND	ND	ND	ND	ND	0
56643	2016-07-15T02:00:00	3.7	ND	ND	ND	ND	ND	ND	ND	ND	ND	ND	0
56644	2016-07-15T03:00:00	52.6	ND	ND	ND	ND	ND	ND	ND	ND	ND	ND	0
56645	2016-07-15T04:00:00	53.5	ND	ND	ND	ND	ND	ND	ND	ND	ND	ND	0
56646	2016-07-15T05:00:00	32.7	ND	ND	ND	ND	ND	ND	ND	ND	ND	ND	0
56647	2016-07-15T06:00:00	27	ND	ND	ND	ND	ND	ND	ND	ND	ND	ND	0
56648	2016-07-15T07:00:00	67.8	ND	ND	ND	ND	ND	ND	ND	ND	ND	ND	0
56649	2016-07-15T08:00:00	70.1	ND	ND	ND	ND	ND	ND	ND	ND	ND	ND	0
56650	2016-07-15T09:00:00	70.3	ND	ND	ND	ND	ND	ND	ND	ND	ND	ND	0
56651	2016-07-15T10:00:00	82.1	ND	ND	ND	ND	ND	ND	ND	ND	ND	ND	0
56652	2016-07-15T11:00:00	83.6	ND	ND	ND	ND	ND	ND	ND	ND	ND	ND	0
56653	2016-07-15T12:00:00	81	ND	ND	ND	ND	ND	ND	ND	ND	ND	ND	0
56654	2016-07-15T13:00:00	51.1	ND	ND	ND	ND	ND	ND	ND	ND	ND	ND	0
56655	2016-07-15T14:00:00	52.4	ND	ND	ND	ND	ND	ND	ND	ND	ND	ND	0
56656	2016-07-15T15:00:00	53.6	ND	ND	ND	ND	ND	ND	ND	ND	ND	ND	0
56657	2016-07-15T16:00:00	55.3	ND	ND	ND	ND	ND	ND	ND	ND	ND	ND	0
56658	2016-07-15T17:00:00	37.2	ND	ND	ND	ND	ND	ND	ND	ND	ND	ND	0
56659	2016-07-15T18:00:00	66.2	ND	ND	ND	ND	ND	ND	ND	ND	ND	ND	0
56660	2016-07-15T19:00:00	25.3	ND	ND	ND	ND	ND	ND	ND	ND	ND	ND	0
56661	2016-07-15T20:00:00	7.3	ND	ND	ND	ND	ND	ND	ND	ND	ND	ND	0
56662	2016-07-15T21:00:00	29	ND	ND	ND	ND	ND	ND	ND	ND	ND	ND	0
56663	2016-07-15T22:00:00	36.2	ND	ND	ND	ND	ND	ND	ND	ND	ND	ND	0
56664	2016-07-15T23:00:00	0.5	ND	ND	ND	ND	ND	ND	ND	ND	ND	ND	0
56665	2016-07-16T00:00:00	4	ND	ND	ND	ND	ND	ND	ND	ND	ND	ND	0
56666	2016-07-16T01:00:00	46.8	ND	ND	ND	ND	ND	ND	ND	ND	ND	ND	0
56667	2016-07-16T02:00:00	40	ND	ND	ND	ND	ND	ND	ND	ND	ND	ND	0
56668	2016-07-16T03:00:00	32.8	ND	ND	ND	ND	ND	ND	ND	ND	ND	ND	0
56669	2016-07-16T04:00:00	36.3	ND	ND	ND	ND	ND	ND	ND	ND	ND	ND	0
56670	2016-07-16T05:00:00	43.1	ND	ND	ND	ND	ND	ND	ND	ND	ND	ND	0
56671	2016-07-16T06:00:00	41.7	ND	ND	ND	ND	ND	ND	ND	ND	ND	ND	0
56672	2016-07-16T07:00:00	70.7	ND	ND	ND	ND	ND	ND	ND	ND	ND	ND	0
56673	2016-07-16T08:00:00	80.5	ND	ND	ND	ND	ND	ND	ND	ND	ND	ND	0
56674	2016-07-16T09:00:00	38.3	ND	ND	ND	ND	ND	ND	ND	ND	ND	ND	0
56675	2016-07-16T10:00:00	65.8	ND	ND	ND	ND	ND	ND	ND	ND	ND	ND	0
56676	2016-07-16T11:00:00	29.3	ND	ND	ND	ND	ND	ND	ND	ND	ND	ND	0
56677	2016-07-16T12:00:00	48.6	ND	ND	ND	ND	ND	ND	ND	ND	ND	ND	0
56678	2016-07-16T13:00:00	50.6	ND	ND	ND	ND	ND	ND	ND	ND	ND	ND	0
56679	2016-07-16T14:00:00	41.5	ND	ND	ND	ND	ND	ND	ND	ND	ND	ND	0
56680	2016-07-16T15:00:00	12.1	ND	ND	ND	ND	ND	ND	ND	ND	ND	ND	0
56681	2016-07-16T16:00:00	94.4	ND	ND	ND	ND	ND	ND	ND	ND	ND	ND	0
56682	2016-07-16T17:00:00	78	ND	ND	ND	ND	ND	ND	ND	ND	ND	ND	0
56683	2016-07-16T18:00:00	39.9	ND	ND	ND	ND	ND	ND	ND	ND	ND	ND	0
56684	2016-07-16T19:00:00	41.8	ND	ND	ND	ND	ND	ND	ND	ND	ND	ND	0
56685	2016-07-16T20:00:00	75.5	ND	ND	ND	ND	ND	ND	ND	ND	ND	ND	0
56686	2016-07-16T21:00:00	38.7	ND	ND	ND	ND	ND	ND	ND	ND	ND	ND	0
56687	2016-07-16T22:00:00	21	ND	ND	ND	ND	ND	ND	ND	ND	ND	ND	0
56688	2016-07-16T23:00:00	47.4	ND	ND	ND	ND	ND	ND	ND	ND	ND	ND	0
56689	2016-07-17T00:00:00	19.4	ND	ND	ND	ND	ND	ND	ND	ND	ND	ND	0
56690	2016-07-17T01:00:00	38.8	ND	ND	ND	ND	ND	ND	ND	ND	ND	ND	0
56691	2016-07-17T02:00:00	69.4	ND	ND	ND	ND	ND	ND	ND	ND	ND	ND	0
56692	2016-07-17T03:00:00	64.2	ND	ND	ND	ND	ND	ND	ND	ND	ND	ND	0
56693	2016-07-17T04:00:00	33.5	ND	ND	ND	ND	ND	ND	ND	ND	ND	ND	0
56694	2016-07-17T05:00:00	40.5	ND	ND	ND	ND	ND	ND	ND	ND	ND	ND	0
56695	2016-07-17T06:00:00	82.7	ND	ND	ND	ND	ND	ND	ND	ND	ND	ND	0
56696	2016-07-17T07:00:00	93.6	ND	ND	ND	ND	ND	ND	ND	ND	ND	ND	0
56697	2016-07-17T08:00:00	41.1	ND	ND	ND	ND	ND	ND	ND	ND	ND	ND	0
56698	2016-07-17T09:00:00	18.2	ND	ND	ND	ND	ND	ND	ND	ND	ND	ND	0
56699	2016-07-17T10:00:00	5.2	ND	ND	ND	ND	ND	ND	ND	ND	ND	ND	0
56700	2016-07-17T11:00:00	35.9	ND	ND	ND	ND	ND	ND	ND	ND	ND	ND	0
56701	2016-07-17T12:00:00	69.4	ND	ND	ND	ND	ND	ND	ND	ND	ND	ND	0
56702	2016-07-17T13:00:00	82.4	ND	ND	ND	ND	ND	ND	ND	ND	ND	ND	0
56703	2016-07-17T14:00:00	65.1	ND	ND	ND	ND	ND	ND	ND	ND	ND	ND	0
56704	2016-07-17T15:00:00	65.9	ND	ND	ND	ND	ND	ND	ND	ND	ND	ND	0
56705	2016-07-17T16:00:00	138	ND	ND	ND	ND	ND	ND	ND	ND	ND	ND	0
56706	2016-07-17T17:00:00	65.4	ND	ND	ND	ND	ND	ND	ND	ND	ND	ND	0
56707	2016-07-17T18:00:00	17	ND	ND	ND	ND	ND	ND	ND	ND	ND	ND	0
56708	2016-07-17T19:00:00	0.6	ND	ND	ND	ND	ND	ND	ND	ND	ND	ND	0
56709	2016-07-17T20:00:00	4.6	ND	ND	ND	ND	ND	ND	ND	ND	ND	ND	0
56710	2016-07-17T21:00:00	14.1	ND	ND	ND	ND	ND	ND	ND	ND	ND	ND	0
56711	2016-07-17T22:00:00	11	ND	ND	ND	ND	ND	ND	ND	ND	ND	ND	0
56712	2016-07-17T23:00:00	6.7	ND	ND	ND	ND	ND	ND	ND	ND	ND	ND	0
56713	2016-07-18T00:00:00	26.5	ND	ND	ND	ND	ND	ND	ND	ND	ND	ND	0
56714	2016-07-18T01:00:00	41.1	ND	ND	ND	ND	ND	ND	ND	ND	ND	ND	0
56715	2016-07-18T02:00:00	37.6	ND	ND	ND	ND	ND	ND	ND	ND	ND	ND	0
56716	2016-07-18T03:00:00	27.7	ND	ND	ND	ND	ND	ND	ND	ND	ND	ND	0
56717	2016-07-18T04:00:00	21	ND	ND	ND	ND	ND	ND	ND	ND	ND	ND	0
56718	2016-07-18T05:00:00	23.3	ND	ND	ND	ND	ND	ND	ND	ND	ND	ND	0
56719	2016-07-18T06:00:00	39.4	ND	ND	ND	ND	ND	ND	ND	ND	ND	ND	0
56720	2016-07-18T07:00:00	36.6	ND	ND	ND	ND	ND	ND	ND	ND	ND	ND	0
56721	2016-07-18T08:00:00	49.4	ND	ND	ND	ND	ND	ND	ND	ND	ND	ND	0
56722	2016-07-18T09:00:00	62.5	ND	ND	ND	ND	ND	ND	ND	ND	ND	ND	0
56723	2016-07-18T10:00:00	68.6	ND	ND	ND	ND	ND	ND	ND	ND	ND	ND	0
56724	2016-07-18T11:00:00	78.7	ND	ND	ND	ND	ND	ND	ND	ND	ND	ND	0
56725	2016-07-18T12:00:00	65.9	ND	ND	ND	ND	ND	ND	ND	ND	ND	ND	0
56726	2016-07-18T13:00:00	60.7	ND	ND	ND	ND	ND	ND	ND	ND	ND	ND	0
56727	2016-07-18T14:00:00	53.6	ND	ND	ND	ND	ND	ND	ND	ND	ND	ND	0
56728	2016-07-18T15:00:00	52.3	ND	ND	ND	ND	ND	ND	ND	ND	ND	ND	0
56729	2016-07-18T16:00:00	60.7	ND	ND	ND	ND	ND	ND	ND	ND	ND	ND	0
56730	2016-07-18T17:00:00	60.2	ND	ND	ND	ND	ND	ND	ND	ND	ND	ND	0
56731	2016-07-18T18:00:00	54.4	ND	ND	ND	ND	ND	ND	ND	ND	ND	ND	0
56732	2016-07-18T19:00:00	40.7	ND	ND	ND	ND	ND	ND	ND	ND	ND	ND	0
56733	2016-07-18T20:00:00	7.1	ND	ND	ND	ND	ND	ND	ND	ND	ND	ND	0
56734	2016-07-18T21:00:00	11.8	ND	ND	ND	ND	ND	ND	ND	ND	ND	ND	0
56735	2016-07-18T22:00:00	24.3	ND	ND	ND	ND	ND	ND	ND	ND	ND	ND	0
56736	2016-07-18T23:00:00	54	ND	ND	ND	ND	ND	ND	ND	ND	ND	ND	0
56737	2016-07-19T00:00:00	31.6	ND	ND	ND	ND	ND	ND	ND	ND	ND	ND	0
56738	2016-07-19T01:00:00	41	ND	ND	ND	ND	ND	ND	ND	ND	ND	ND	0
56739	2016-07-19T02:00:00	54.4	ND	ND	ND	ND	ND	ND	ND	ND	ND	ND	0
56740	2016-07-19T03:00:00	41.8	ND	ND	ND	ND	ND	ND	ND	ND	ND	ND	0
56741	2016-07-19T04:00:00	36.4	ND	ND	ND	ND	ND	ND	ND	ND	ND	ND	0
56742	2016-07-19T05:00:00	32.2	ND	ND	ND	ND	ND	ND	ND	ND	ND	ND	0
56743	2016-07-19T06:00:00	44.3	ND	ND	ND	ND	ND	ND	ND	ND	ND	ND	0
56744	2016-07-19T07:00:00	75.6	ND	ND	ND	ND	ND	ND	ND	ND	ND	ND	0
56745	2016-07-19T08:00:00	74.9	ND	ND	ND	ND	ND	ND	ND	ND	ND	ND	1.78
56746	2016-07-19T09:00:00	58.2	ND	ND	ND	ND	ND	ND	ND	ND	ND	ND	0.25
56747	2016-07-19T10:00:00	14.3	ND	ND	ND	ND	ND	ND	ND	ND	ND	ND	0
56748	2016-07-19T11:00:00	65.1	ND	ND	ND	ND	ND	ND	ND	ND	ND	ND	0
56749	2016-07-19T12:00:00	79	ND	ND	ND	ND	ND	ND	ND	ND	ND	ND	0
56750	2016-07-19T13:00:00	124	ND	ND	ND	ND	ND	ND	ND	ND	ND	ND	0
56751	2016-07-19T14:00:00	77.5	ND	ND	ND	ND	ND	ND	ND	ND	ND	ND	0
56752	2016-07-19T15:00:00	73.5	ND	ND	ND	ND	ND	ND	ND	ND	ND	ND	0
56753	2016-07-19T16:00:00	57.1	ND	ND	ND	ND	ND	ND	ND	ND	ND	ND	0
56754	2016-07-19T17:00:00	53.7	ND	ND	ND	ND	ND	ND	ND	ND	ND	ND	0
56755	2016-07-19T18:00:00	48.8	ND	ND	ND	ND	ND	ND	ND	ND	ND	ND	0
56756	2016-07-19T19:00:00	28.8	ND	ND	ND	ND	ND	ND	ND	ND	ND	ND	0
56757	2016-07-19T20:00:00	15.3	ND	ND	ND	ND	ND	ND	ND	ND	ND	ND	0
56758	2016-07-19T21:00:00	17.4	ND	ND	ND	ND	ND	ND	ND	ND	ND	ND	0
56759	2016-07-19T22:00:00	35.2	ND	ND	ND	ND	ND	ND	ND	ND	ND	ND	0
56760	2016-07-19T23:00:00	47.8	ND	ND	ND	ND	ND	ND	ND	ND	ND	ND	0
56761	2016-07-20T00:00:00	37.3	ND	ND	ND	ND	ND	ND	ND	ND	ND	ND	0
56762	2016-07-20T01:00:00	51.7	ND	ND	ND	ND	ND	ND	ND	ND	ND	ND	0
56763	2016-07-20T02:00:00	66.4	ND	ND	ND	ND	ND	ND	ND	ND	ND	ND	0
56764	2016-07-20T03:00:00	51.1	ND	ND	ND	ND	ND	ND	ND	ND	ND	ND	0
56765	2016-07-20T04:00:00	45.5	ND	ND	ND	ND	ND	ND	ND	ND	ND	ND	0
56766	2016-07-20T05:00:00	46.5	ND	ND	ND	ND	ND	ND	ND	ND	ND	ND	0
56767	2016-07-20T06:00:00	37.5	ND	ND	ND	ND	ND	ND	ND	ND	ND	ND	0
56768	2016-07-20T07:00:00	46	ND	ND	ND	ND	ND	ND	ND	ND	ND	ND	0
56769	2016-07-20T08:00:00	26	ND	ND	ND	ND	ND	ND	ND	ND	ND	ND	0
56770	2016-07-20T09:00:00	38.2	ND	ND	ND	ND	ND	ND	ND	ND	ND	ND	0
56771	2016-07-20T10:00:00	61.6	ND	ND	ND	ND	ND	ND	ND	ND	ND	ND	0
56772	2016-07-20T11:00:00	65.7	ND	ND	ND	ND	ND	ND	ND	ND	ND	ND	0
56773	2016-07-20T12:00:00	49.3	ND	ND	ND	ND	ND	ND	ND	ND	ND	ND	0
56774	2016-07-20T13:00:00	58.4	ND	ND	ND	ND	ND	ND	ND	ND	ND	ND	0
56775	2016-07-20T14:00:00	58.4	ND	ND	ND	ND	ND	ND	ND	ND	ND	ND	0
56776	2016-07-20T15:00:00	70.1	ND	ND	ND	ND	ND	ND	ND	ND	ND	ND	0
56777	2016-07-20T16:00:00	75.9	ND	ND	ND	ND	ND	ND	ND	ND	ND	ND	0
56778	2016-07-20T17:00:00	47.4	ND	ND	ND	ND	ND	ND	ND	ND	ND	ND	0
56779	2016-07-20T18:00:00	46.9	ND	ND	ND	ND	ND	ND	ND	ND	ND	ND	0
56780	2016-07-20T19:00:00	26.8	ND	ND	ND	ND	ND	ND	ND	ND	ND	ND	0
56781	2016-07-20T20:00:00	6	ND	ND	ND	ND	ND	ND	ND	ND	ND	ND	0
56782	2016-07-20T21:00:00	19.4	ND	ND	ND	ND	ND	ND	ND	ND	ND	ND	0
56783	2016-07-20T22:00:00	28.7	ND	ND	ND	ND	ND	ND	ND	ND	ND	ND	0
56784	2016-07-20T23:00:00	21.4	ND	ND	ND	ND	ND	ND	ND	ND	ND	ND	0
56785	2016-07-21T00:00:00	20.2	ND	ND	ND	ND	ND	ND	ND	ND	ND	ND	0
56786	2016-07-21T01:00:00	24	ND	ND	ND	ND	ND	ND	ND	ND	ND	ND	0
56787	2016-07-21T02:00:00	37.2	ND	ND	ND	ND	ND	ND	ND	ND	ND	ND	0
56788	2016-07-21T03:00:00	24.5	ND	ND	ND	ND	ND	ND	ND	ND	ND	ND	0
56789	2016-07-21T04:00:00	38.8	ND	ND	ND	ND	ND	ND	ND	ND	ND	ND	0
56790	2016-07-21T05:00:00	37.7	ND	ND	ND	ND	ND	ND	ND	ND	ND	ND	0
56791	2016-07-21T06:00:00	27.4	ND	ND	ND	ND	ND	ND	ND	ND	ND	ND	0
56792	2016-07-21T07:00:00	46.8	ND	ND	ND	ND	ND	ND	ND	ND	ND	ND	0
56793	2016-07-21T08:00:00	62	ND	ND	ND	ND	ND	ND	ND	ND	ND	ND	0
56794	2016-07-21T09:00:00	70.3	ND	ND	ND	ND	ND	ND	ND	ND	ND	ND	0
56795	2016-07-21T10:00:00	79.8	ND	ND	ND	ND	ND	ND	ND	ND	ND	ND	0
56796	2016-07-21T11:00:00	90.9	ND	ND	ND	ND	ND	ND	ND	ND	ND	ND	0
56797	2016-07-21T12:00:00	81.6	ND	ND	ND	ND	ND	ND	ND	ND	ND	ND	0
56798	2016-07-21T13:00:00	61.4	ND	ND	ND	ND	ND	ND	ND	ND	ND	ND	0
56799	2016-07-21T14:00:00	48.3	ND	ND	ND	ND	ND	ND	ND	ND	ND	ND	0
56800	2016-07-21T15:00:00	53.6	ND	ND	ND	ND	ND	ND	ND	ND	ND	ND	0
56801	2016-07-21T16:00:00	80.6	ND	ND	ND	ND	ND	ND	ND	ND	ND	ND	0
56802	2016-07-21T17:00:00	92.4	ND	ND	ND	ND	ND	ND	ND	ND	ND	ND	0
56803	2016-07-21T18:00:00	87.7	ND	ND	ND	ND	ND	ND	ND	ND	ND	ND	0
56804	2016-07-21T19:00:00	41.5	ND	ND	ND	ND	ND	ND	ND	ND	ND	ND	0
56805	2016-07-21T20:00:00	4.3	ND	ND	ND	ND	ND	ND	ND	ND	ND	ND	0
56806	2016-07-21T21:00:00	11.1	ND	ND	ND	ND	ND	ND	ND	ND	ND	ND	0
56807	2016-07-21T22:00:00	58.8	ND	ND	ND	ND	ND	ND	ND	ND	ND	ND	0
56808	2016-07-21T23:00:00	32.5	ND	ND	ND	ND	ND	ND	ND	ND	ND	ND	0
56809	2016-07-22T00:00:00	62.4	ND	ND	ND	ND	ND	ND	ND	ND	ND	ND	0
56810	2016-07-22T01:00:00	63.4	ND	ND	ND	ND	ND	ND	ND	ND	ND	ND	0
56811	2016-07-22T02:00:00	38	ND	ND	ND	ND	ND	ND	ND	ND	ND	ND	0
56812	2016-07-22T03:00:00	39.7	ND	ND	ND	ND	ND	ND	ND	ND	ND	ND	0
56813	2016-07-22T04:00:00	29.9	ND	ND	ND	ND	ND	ND	ND	ND	ND	ND	0
56814	2016-07-22T05:00:00	39	ND	ND	ND	ND	ND	ND	ND	ND	ND	ND	0
56815	2016-07-22T06:00:00	35.2	ND	ND	ND	ND	ND	ND	ND	ND	ND	ND	0
56816	2016-07-22T07:00:00	67	ND	ND	ND	ND	ND	ND	ND	ND	ND	ND	0
56817	2016-07-22T08:00:00	79.8	ND	ND	ND	ND	ND	ND	ND	ND	ND	ND	0
56818	2016-07-22T09:00:00	104.1	ND	ND	ND	ND	ND	ND	ND	ND	ND	ND	0
56819	2016-07-22T10:00:00	67.8	ND	ND	ND	ND	ND	ND	ND	ND	ND	ND	0
56820	2016-07-22T11:00:00	107.3	ND	ND	ND	ND	ND	ND	ND	ND	ND	ND	0
56821	2016-07-22T12:00:00	127.9	ND	ND	ND	ND	ND	ND	ND	ND	ND	ND	0
56822	2016-07-22T13:00:00	61.4	ND	ND	ND	ND	ND	ND	ND	ND	ND	ND	0
56823	2016-07-22T14:00:00	69.5	ND	ND	ND	ND	ND	ND	ND	ND	ND	ND	0
56824	2016-07-22T15:00:00	89.8	ND	ND	ND	ND	ND	ND	ND	ND	ND	ND	0
56825	2016-07-22T16:00:00	97.3	ND	ND	ND	ND	ND	ND	ND	ND	ND	ND	0
56826	2016-07-22T17:00:00	72.3	ND	ND	ND	ND	ND	ND	ND	ND	ND	ND	0
56827	2016-07-22T18:00:00	34.3	ND	ND	ND	ND	ND	ND	ND	ND	ND	ND	0
56828	2016-07-22T19:00:00	14.6	ND	ND	ND	ND	ND	ND	ND	ND	ND	ND	0
56829	2016-07-22T20:00:00	25	ND	ND	ND	ND	ND	ND	ND	ND	ND	ND	0
56830	2016-07-22T21:00:00	28.5	ND	ND	ND	ND	ND	ND	ND	ND	ND	ND	0
56831	2016-07-22T22:00:00	39.6	ND	ND	ND	ND	ND	ND	ND	ND	ND	ND	0
56832	2016-07-22T23:00:00	42.2	ND	ND	ND	ND	ND	ND	ND	ND	ND	ND	0
56833	2016-07-23T00:00:00	21.2	ND	ND	ND	ND	ND	ND	ND	ND	ND	ND	0
56834	2016-07-23T01:00:00	40.6	ND	ND	ND	ND	ND	ND	ND	ND	ND	ND	0
56835	2016-07-23T02:00:00	53.4	ND	ND	ND	ND	ND	ND	ND	ND	ND	ND	0
56836	2016-07-23T03:00:00	69.4	ND	ND	ND	ND	ND	ND	ND	ND	ND	ND	0
56837	2016-07-23T04:00:00	64.3	ND	ND	ND	ND	ND	ND	ND	ND	ND	ND	0
56838	2016-07-23T05:00:00	54.1	ND	ND	ND	ND	ND	ND	ND	ND	ND	ND	0
56839	2016-07-23T06:00:00	53.7	ND	ND	ND	ND	ND	ND	ND	ND	ND	ND	0
56840	2016-07-23T07:00:00	76	ND	ND	ND	ND	ND	ND	ND	ND	ND	ND	0
56841	2016-07-23T08:00:00	93	ND	ND	ND	ND	ND	ND	ND	ND	ND	ND	0
56842	2016-07-23T09:00:00	57.7	ND	ND	ND	ND	ND	ND	ND	ND	ND	ND	0
56843	2016-07-23T10:00:00	88	ND	ND	ND	ND	ND	ND	ND	ND	ND	ND	0
56844	2016-07-23T11:00:00	96.5	ND	ND	ND	ND	ND	ND	ND	ND	ND	ND	0
56845	2016-07-23T12:00:00	95.1	ND	ND	ND	ND	ND	ND	ND	ND	ND	ND	0
56846	2016-07-23T13:00:00	75.5	ND	ND	ND	ND	ND	ND	ND	ND	ND	ND	0
56847	2016-07-23T14:00:00	87.7	ND	ND	ND	ND	ND	ND	ND	ND	ND	ND	0
56848	2016-07-23T15:00:00	81.6	ND	ND	ND	ND	ND	ND	ND	ND	ND	ND	0
56849	2016-07-23T16:00:00	96.7	ND	ND	ND	ND	ND	ND	ND	ND	ND	ND	0
56850	2016-07-23T17:00:00	59.7	ND	ND	ND	ND	ND	ND	ND	ND	ND	ND	0
56851	2016-07-23T18:00:00	30.4	ND	ND	ND	ND	ND	ND	ND	ND	ND	ND	0
56852	2016-07-23T19:00:00	14.9	ND	ND	ND	ND	ND	ND	ND	ND	ND	ND	0
56853	2016-07-23T20:00:00	2.1	ND	ND	ND	ND	ND	ND	ND	ND	ND	ND	0
56854	2016-07-23T21:00:00	2.5	ND	ND	ND	ND	ND	ND	ND	ND	ND	ND	0
56855	2016-07-23T22:00:00	8	ND	ND	ND	ND	ND	ND	ND	ND	ND	ND	0
56856	2016-07-23T23:00:00	23.1	ND	ND	ND	ND	ND	ND	ND	ND	ND	ND	0
56857	2016-07-24T00:00:00	41.4	ND	ND	ND	ND	ND	ND	ND	ND	ND	ND	0
56858	2016-07-24T01:00:00	30.2	ND	ND	ND	ND	ND	ND	ND	ND	ND	ND	0
56859	2016-07-24T02:00:00	38.5	ND	ND	ND	ND	ND	ND	ND	ND	ND	ND	0
56860	2016-07-24T03:00:00	26.8	ND	ND	ND	ND	ND	ND	ND	ND	ND	ND	0
56861	2016-07-24T04:00:00	17.4	ND	ND	ND	ND	ND	ND	ND	ND	ND	ND	0
56862	2016-07-24T05:00:00	26.4	ND	ND	ND	ND	ND	ND	ND	ND	ND	ND	0
56863	2016-07-24T06:00:00	18.8	ND	ND	ND	ND	ND	ND	ND	ND	ND	ND	0
56864	2016-07-24T07:00:00	37.3	ND	ND	ND	ND	ND	ND	ND	ND	ND	ND	0.51
56865	2016-07-24T08:00:00	35.6	ND	ND	ND	ND	ND	ND	ND	ND	ND	ND	0.25
56866	2016-07-24T09:00:00	45.3	ND	ND	ND	ND	ND	ND	ND	ND	ND	ND	0
56867	2016-07-24T10:00:00	57.5	ND	ND	ND	ND	ND	ND	ND	ND	ND	ND	0
56868	2016-07-24T11:00:00	44.6	ND	ND	ND	ND	ND	ND	ND	ND	ND	ND	0
56869	2016-07-24T12:00:00	26.5	ND	ND	ND	ND	ND	ND	ND	ND	ND	ND	0
56870	2016-07-24T13:00:00	39.9	ND	ND	ND	ND	ND	ND	ND	ND	ND	ND	0
56871	2016-07-24T14:00:00	50.6	ND	ND	ND	ND	ND	ND	ND	ND	ND	ND	0
56872	2016-07-24T15:00:00	41.4	ND	ND	ND	ND	ND	ND	ND	ND	ND	ND	0
56873	2016-07-24T16:00:00	52.3	ND	ND	ND	ND	ND	ND	ND	ND	ND	ND	0
56874	2016-07-24T17:00:00	5.7	ND	ND	ND	ND	ND	ND	ND	ND	ND	ND	0
56875	2016-07-24T18:00:00	22.7	ND	ND	ND	ND	ND	ND	ND	ND	ND	ND	0
56876	2016-07-24T19:00:00	11.2	ND	ND	ND	ND	ND	ND	ND	ND	ND	ND	0
56877	2016-07-24T20:00:00	3.2	ND	ND	ND	ND	ND	ND	ND	ND	ND	ND	0
56878	2016-07-24T21:00:00	4.8	ND	ND	ND	ND	ND	ND	ND	ND	ND	ND	0
56879	2016-07-24T22:00:00	14.8	ND	ND	ND	ND	ND	ND	ND	ND	ND	ND	0
56880	2016-07-24T23:00:00	2.6	ND	ND	ND	ND	ND	ND	ND	ND	ND	ND	0
56881	2016-07-25T00:00:00	37.5	ND	ND	ND	ND	ND	ND	ND	ND	ND	ND	0
56882	2016-07-25T01:00:00	23.1	ND	ND	ND	ND	ND	ND	ND	ND	ND	ND	0
56883	2016-07-25T02:00:00	ND	ND	ND	ND	ND	ND	ND	ND	ND	ND	ND	0
56884	2016-07-25T03:00:00	6.1	ND	ND	ND	ND	ND	ND	ND	ND	ND	ND	0.25
56885	2016-07-25T04:00:00	32.8	ND	ND	ND	ND	ND	ND	ND	ND	ND	ND	0.76
56886	2016-07-25T05:00:00	31.7	ND	ND	ND	ND	ND	ND	ND	ND	ND	ND	0
56887	2016-07-25T06:00:00	18	ND	ND	ND	ND	ND	ND	ND	ND	ND	ND	0
56888	2016-07-25T07:00:00	55.1	ND	ND	ND	ND	ND	ND	ND	ND	ND	ND	0
56889	2016-07-25T08:00:00	45	ND	ND	ND	ND	ND	ND	ND	ND	ND	ND	0
56890	2016-07-25T09:00:00	56.8	ND	ND	ND	ND	ND	ND	ND	ND	ND	ND	0
56891	2016-07-25T10:00:00	47.7	ND	ND	ND	ND	ND	ND	ND	ND	ND	ND	0
56892	2016-07-25T11:00:00	69.2	ND	ND	ND	ND	ND	ND	ND	ND	ND	ND	0
56893	2016-07-25T12:00:00	48.7	ND	ND	ND	ND	ND	ND	ND	ND	ND	ND	0
56894	2016-07-25T13:00:00	60.2	ND	ND	ND	ND	ND	ND	ND	ND	ND	ND	0
56895	2016-07-25T14:00:00	60.6	ND	ND	ND	ND	ND	ND	ND	ND	ND	ND	0
56896	2016-07-25T15:00:00	64.6	ND	ND	ND	ND	ND	ND	ND	ND	ND	ND	0
56897	2016-07-25T16:00:00	63	ND	ND	ND	ND	ND	ND	ND	ND	ND	ND	0
56898	2016-07-25T17:00:00	50.5	ND	ND	ND	ND	ND	ND	ND	ND	ND	ND	0
56899	2016-07-25T18:00:00	31.4	ND	ND	ND	ND	ND	ND	ND	ND	ND	ND	0
56900	2016-07-25T19:00:00	67.6	ND	ND	ND	ND	ND	ND	ND	ND	ND	ND	0
56901	2016-07-25T20:00:00	90.7	ND	ND	ND	ND	ND	ND	ND	ND	ND	ND	0
56902	2016-07-25T21:00:00	67.6	ND	ND	ND	ND	ND	ND	ND	ND	ND	ND	0
56903	2016-07-25T22:00:00	32.5	ND	ND	ND	ND	ND	ND	ND	ND	ND	ND	0
56904	2016-07-25T23:00:00	31.3	ND	ND	ND	ND	ND	ND	ND	ND	ND	ND	0
56905	2016-07-26T00:00:00	50.7	ND	ND	ND	ND	ND	ND	ND	ND	ND	ND	0
56906	2016-07-26T01:00:00	29.1	ND	ND	ND	ND	ND	ND	ND	ND	ND	ND	0
56907	2016-07-26T02:00:00	26.3	ND	ND	ND	ND	ND	ND	ND	ND	ND	ND	0
56908	2016-07-26T03:00:00	8.1	ND	ND	ND	ND	ND	ND	ND	ND	ND	ND	0
56909	2016-07-26T04:00:00	36	ND	ND	ND	ND	ND	ND	ND	ND	ND	ND	0
56910	2016-07-26T05:00:00	141.3	ND	ND	ND	ND	ND	ND	ND	ND	ND	ND	0
56911	2016-07-26T06:00:00	154.4	ND	ND	ND	ND	ND	ND	ND	ND	ND	ND	0
56912	2016-07-26T07:00:00	147.5	ND	ND	ND	ND	ND	ND	ND	ND	ND	ND	0
56913	2016-07-26T08:00:00	180	ND	ND	ND	ND	ND	ND	ND	ND	ND	ND	0
56914	2016-07-26T09:00:00	198	ND	ND	ND	ND	ND	ND	ND	ND	ND	ND	0
56915	2016-07-26T10:00:00	ND	ND	ND	ND	ND	ND	ND	ND	ND	ND	ND	ND
56916	2016-07-26T11:00:00	ND	ND	ND	ND	ND	ND	ND	ND	ND	ND	ND	ND
56917	2016-07-26T12:00:00	191	ND	ND	ND	ND	ND	ND	ND	ND	ND	ND	0
56918	2016-07-26T13:00:00	155.4	ND	ND	ND	ND	ND	ND	ND	ND	ND	ND	0
56919	2016-07-26T14:00:00	108.2	ND	ND	ND	ND	ND	ND	ND	ND	ND	ND	0
56920	2016-07-26T15:00:00	97.4	ND	ND	ND	ND	ND	ND	ND	ND	ND	ND	0
56921	2016-07-26T16:00:00	76.1	ND	ND	ND	ND	ND	ND	ND	ND	ND	ND	0
56922	2016-07-26T17:00:00	43.1	ND	ND	ND	ND	ND	ND	ND	ND	ND	ND	0
56923	2016-07-26T18:00:00	39.7	ND	ND	ND	ND	ND	ND	ND	ND	ND	ND	0
56924	2016-07-26T19:00:00	33.7	ND	ND	ND	ND	ND	ND	ND	ND	ND	ND	0
56925	2016-07-26T20:00:00	33	ND	ND	ND	ND	ND	ND	ND	ND	ND	ND	0
56926	2016-07-26T21:00:00	22.2	ND	ND	ND	ND	ND	ND	ND	ND	ND	ND	0
56927	2016-07-26T22:00:00	64.2	ND	ND	ND	ND	ND	ND	ND	ND	ND	ND	0
56928	2016-07-26T23:00:00	33.5	ND	ND	ND	ND	ND	ND	ND	ND	ND	ND	0
56929	2016-07-27T00:00:00	23.5	ND	ND	ND	ND	ND	ND	ND	ND	ND	ND	0
56930	2016-07-27T01:00:00	33.3	ND	ND	ND	ND	ND	ND	ND	ND	ND	ND	0
56931	2016-07-27T02:00:00	36.1	ND	ND	ND	ND	ND	ND	ND	ND	ND	ND	0
56932	2016-07-27T03:00:00	35.7	ND	ND	ND	ND	ND	ND	ND	ND	ND	ND	0
56933	2016-07-27T04:00:00	37	ND	ND	ND	ND	ND	ND	ND	ND	ND	ND	0
56934	2016-07-27T05:00:00	34.8	ND	ND	ND	ND	ND	ND	ND	ND	ND	ND	0
56935	2016-07-27T06:00:00	26.7	ND	ND	ND	ND	ND	ND	ND	ND	ND	ND	0
56936	2016-07-27T07:00:00	34.7	ND	ND	ND	ND	ND	ND	ND	ND	ND	ND	0
56937	2016-07-27T08:00:00	78.2	ND	ND	ND	ND	ND	ND	ND	ND	ND	ND	0
56938	2016-07-27T09:00:00	115.8	ND	ND	ND	ND	ND	ND	ND	ND	ND	ND	0
56939	2016-07-27T10:00:00	117.3	ND	ND	ND	ND	ND	ND	ND	ND	ND	ND	0
56940	2016-07-27T11:00:00	104.9	ND	ND	ND	ND	ND	ND	ND	ND	ND	ND	0
56941	2016-07-27T12:00:00	73.3	ND	ND	ND	ND	ND	ND	ND	ND	ND	ND	0
56942	2016-07-27T13:00:00	79	ND	ND	ND	ND	ND	ND	ND	ND	ND	ND	0
56943	2016-07-27T14:00:00	74	ND	ND	ND	ND	ND	ND	ND	ND	ND	ND	0
56944	2016-07-27T15:00:00	55.9	ND	ND	ND	ND	ND	ND	ND	ND	ND	ND	0
56945	2016-07-27T16:00:00	26.2	ND	ND	ND	ND	ND	ND	ND	ND	ND	ND	0
56946	2016-07-27T17:00:00	27.3	ND	ND	ND	ND	ND	ND	ND	ND	ND	ND	0
56947	2016-07-27T18:00:00	42.3	ND	ND	ND	ND	ND	ND	ND	ND	ND	ND	0
56948	2016-07-27T19:00:00	60.9	ND	ND	ND	ND	ND	ND	ND	ND	ND	ND	0
56949	2016-07-27T20:00:00	27.9	ND	ND	ND	ND	ND	ND	ND	ND	ND	ND	0
56950	2016-07-27T21:00:00	31.1	ND	ND	ND	ND	ND	ND	ND	ND	ND	ND	0.51
56951	2016-07-27T22:00:00	50.3	ND	ND	ND	ND	ND	ND	ND	ND	ND	ND	0.76
56952	2016-07-27T23:00:00	33.2	ND	ND	ND	ND	ND	ND	ND	ND	ND	ND	0.25
56953	2016-07-28T00:00:00	11.2	ND	ND	ND	ND	ND	ND	ND	ND	ND	ND	0
56954	2016-07-28T01:00:00	9	ND	ND	ND	ND	ND	ND	ND	ND	ND	ND	0
56955	2016-07-28T02:00:00	3.2	ND	ND	ND	ND	ND	ND	ND	ND	ND	ND	0
56956	2016-07-28T03:00:00	13.8	ND	ND	ND	ND	ND	ND	ND	ND	ND	ND	0
56957	2016-07-28T04:00:00	0.5	ND	ND	ND	ND	ND	ND	ND	ND	ND	ND	0
56958	2016-07-28T05:00:00	2.5	ND	ND	ND	ND	ND	ND	ND	ND	ND	ND	0
56959	2016-07-28T06:00:00	54.4	ND	ND	ND	ND	ND	ND	ND	ND	ND	ND	0
56960	2016-07-28T07:00:00	102.5	ND	ND	ND	ND	ND	ND	ND	ND	ND	ND	0
56961	2016-07-28T08:00:00	108.6	ND	ND	ND	ND	ND	ND	ND	ND	ND	ND	0
56962	2016-07-28T09:00:00	115	ND	ND	ND	ND	ND	ND	ND	ND	ND	ND	0
56963	2016-07-28T10:00:00	116	ND	ND	ND	ND	ND	ND	ND	ND	ND	ND	0
56964	2016-07-28T11:00:00	91.9	ND	ND	ND	ND	ND	ND	ND	ND	ND	ND	0
56965	2016-07-28T12:00:00	78.9	ND	ND	ND	ND	ND	ND	ND	ND	ND	ND	0
56966	2016-07-28T13:00:00	71.5	ND	ND	ND	ND	ND	ND	ND	ND	ND	ND	0
56967	2016-07-28T14:00:00	53.5	ND	ND	ND	ND	ND	ND	ND	ND	ND	ND	0
56968	2016-07-28T15:00:00	73.7	ND	ND	ND	ND	ND	ND	ND	ND	ND	ND	0
56969	2016-07-28T16:00:00	67.4	ND	ND	ND	ND	ND	ND	ND	ND	ND	ND	0
56970	2016-07-28T17:00:00	49.5	ND	ND	ND	ND	ND	ND	ND	ND	ND	ND	0
56971	2016-07-28T18:00:00	46.7	ND	ND	ND	ND	ND	ND	ND	ND	ND	ND	0
56972	2016-07-28T19:00:00	26.6	ND	ND	ND	ND	ND	ND	ND	ND	ND	ND	0
56973	2016-07-28T20:00:00	6.1	ND	ND	ND	ND	ND	ND	ND	ND	ND	ND	0
56974	2016-07-28T21:00:00	17.3	ND	ND	ND	ND	ND	ND	ND	ND	ND	ND	0
56975	2016-07-28T22:00:00	19.6	ND	ND	ND	ND	ND	ND	ND	ND	ND	ND	0
56976	2016-07-28T23:00:00	29.5	ND	ND	ND	ND	ND	ND	ND	ND	ND	ND	0
56977	2016-07-29T00:00:00	8.4	ND	ND	ND	ND	ND	ND	ND	ND	ND	ND	0
56978	2016-07-29T01:00:00	0.8	ND	ND	ND	ND	ND	ND	ND	ND	ND	ND	0
56979	2016-07-29T02:00:00	ND	ND	ND	ND	ND	ND	ND	ND	ND	ND	ND	0
56980	2016-07-29T03:00:00	4.7	ND	ND	ND	ND	ND	ND	ND	ND	ND	ND	0
56981	2016-07-29T04:00:00	33.8	ND	ND	ND	ND	ND	ND	ND	ND	ND	ND	0
56982	2016-07-29T05:00:00	62.8	ND	ND	ND	ND	ND	ND	ND	ND	ND	ND	0
56983	2016-07-29T06:00:00	92.6	ND	ND	ND	ND	ND	ND	ND	ND	ND	ND	0
56984	2016-07-29T07:00:00	99.8	ND	ND	ND	ND	ND	ND	ND	ND	ND	ND	0
56985	2016-07-29T08:00:00	83.2	ND	ND	ND	ND	ND	ND	ND	ND	ND	ND	0
56986	2016-07-29T09:00:00	91.3	ND	ND	ND	ND	ND	ND	ND	ND	ND	ND	0
56987	2016-07-29T10:00:00	ND	ND	ND	ND	ND	ND	ND	ND	ND	ND	ND	0
56988	2016-07-29T11:00:00	ND	ND	ND	ND	ND	ND	ND	ND	ND	ND	ND	0
56989	2016-07-29T12:00:00	ND	ND	ND	ND	ND	ND	ND	ND	ND	ND	ND	0
56990	2016-07-29T13:00:00	110.9	ND	ND	ND	ND	ND	ND	ND	ND	ND	ND	0
56991	2016-07-29T14:00:00	64	ND	ND	ND	ND	ND	ND	ND	ND	ND	ND	0
56992	2016-07-29T15:00:00	54.1	ND	ND	ND	ND	ND	ND	ND	ND	ND	ND	0
56993	2016-07-29T16:00:00	63.6	ND	ND	ND	ND	ND	ND	ND	ND	ND	ND	0
56994	2016-07-29T17:00:00	67.3	ND	ND	ND	ND	ND	ND	ND	ND	ND	ND	0
56995	2016-07-29T18:00:00	60.1	ND	ND	ND	ND	ND	ND	ND	ND	ND	ND	0
56996	2016-07-29T19:00:00	45.4	ND	ND	ND	ND	ND	ND	ND	ND	ND	ND	0
56997	2016-07-29T20:00:00	31.9	ND	ND	ND	ND	ND	ND	ND	ND	ND	ND	0
56998	2016-07-29T21:00:00	21.2	ND	ND	ND	ND	ND	ND	ND	ND	ND	ND	0
56999	2016-07-29T22:00:00	22.4	ND	ND	ND	ND	ND	ND	ND	ND	ND	ND	0
57000	2016-07-29T23:00:00	16.5	ND	ND	ND	ND	ND	ND	ND	ND	ND	ND	0
57001	2016-07-30T00:00:00	13.5	ND	ND	ND	ND	ND	ND	ND	ND	ND	ND	0
57002	2016-07-30T01:00:00	45.2	ND	ND	ND	ND	ND	ND	ND	ND	ND	ND	0
57003	2016-07-30T02:00:00	83.1	ND	ND	ND	ND	ND	ND	ND	ND	ND	ND	0
57004	2016-07-30T03:00:00	76	ND	ND	ND	ND	ND	ND	ND	ND	ND	ND	0
57005	2016-07-30T04:00:00	58.5	ND	ND	ND	ND	ND	ND	ND	ND	ND	ND	0
57006	2016-07-30T05:00:00	45.8	ND	ND	ND	ND	ND	ND	ND	ND	ND	ND	0
57007	2016-07-30T06:00:00	37.8	ND	ND	ND	ND	ND	ND	ND	ND	ND	ND	0
57008	2016-07-30T07:00:00	34.8	ND	ND	ND	ND	ND	ND	ND	ND	ND	ND	0
57009	2016-07-30T08:00:00	58	ND	ND	ND	ND	ND	ND	ND	ND	ND	ND	0
57010	2016-07-30T09:00:00	126.3	ND	ND	ND	ND	ND	ND	ND	ND	ND	ND	0
57011	2016-07-30T10:00:00	100.1	ND	ND	ND	ND	ND	ND	ND	ND	ND	ND	0
57012	2016-07-30T11:00:00	69.1	ND	ND	ND	ND	ND	ND	ND	ND	ND	ND	0
57013	2016-07-30T12:00:00	64.7	ND	ND	ND	ND	ND	ND	ND	ND	ND	ND	0
57014	2016-07-30T13:00:00	70.9	ND	ND	ND	ND	ND	ND	ND	ND	ND	ND	0
57015	2016-07-30T14:00:00	67.7	ND	ND	ND	ND	ND	ND	ND	ND	ND	ND	0
57016	2016-07-30T15:00:00	60.4	ND	ND	ND	ND	ND	ND	ND	ND	ND	ND	0
57017	2016-07-30T16:00:00	47.1	ND	ND	ND	ND	ND	ND	ND	ND	ND	ND	0
57018	2016-07-30T17:00:00	30	ND	ND	ND	ND	ND	ND	ND	ND	ND	ND	0
57019	2016-07-30T18:00:00	27.8	ND	ND	ND	ND	ND	ND	ND	ND	ND	ND	0
57020	2016-07-30T19:00:00	15.4	ND	ND	ND	ND	ND	ND	ND	ND	ND	ND	0
57021	2016-07-30T20:00:00	12.6	ND	ND	ND	ND	ND	ND	ND	ND	ND	ND	0
57022	2016-07-30T21:00:00	15.8	ND	ND	ND	ND	ND	ND	ND	ND	ND	ND	0
57023	2016-07-30T22:00:00	18.3	ND	ND	ND	ND	ND	ND	ND	ND	ND	ND	0
57024	2016-07-30T23:00:00	23.9	ND	ND	ND	ND	ND	ND	ND	ND	ND	ND	0
57025	2016-07-31T00:00:00	40.9	ND	ND	ND	ND	ND	ND	ND	ND	ND	ND	0
57026	2016-07-31T01:00:00	64.1	ND	ND	ND	ND	ND	ND	ND	ND	ND	ND	0
57027	2016-07-31T02:00:00	54.5	ND	ND	ND	ND	ND	ND	ND	ND	ND	ND	0
57028	2016-07-31T03:00:00	45	ND	ND	ND	ND	ND	ND	ND	ND	ND	ND	0
57029	2016-07-31T04:00:00	26.2	ND	ND	ND	ND	ND	ND	ND	ND	ND	ND	0
57030	2016-07-31T05:00:00	11	ND	ND	ND	ND	ND	ND	ND	ND	ND	ND	0
57031	2016-07-31T06:00:00	17.4	ND	ND	ND	ND	ND	ND	ND	ND	ND	ND	0
57032	2016-07-31T07:00:00	73.5	ND	ND	ND	ND	ND	ND	ND	ND	ND	ND	0
57033	2016-07-31T08:00:00	93.9	ND	ND	ND	ND	ND	ND	ND	ND	ND	ND	0
57034	2016-07-31T09:00:00	97.8	ND	ND	ND	ND	ND	ND	ND	ND	ND	ND	0
57035	2016-07-31T10:00:00	77.9	ND	ND	ND	ND	ND	ND	ND	ND	ND	ND	0
57036	2016-07-31T11:00:00	55	ND	ND	ND	ND	ND	ND	ND	ND	ND	ND	0
57037	2016-07-31T12:00:00	39	ND	ND	ND	ND	ND	ND	ND	ND	ND	ND	0
57038	2016-07-31T13:00:00	56.9	ND	ND	ND	ND	ND	ND	ND	ND	ND	ND	0
57039	2016-07-31T14:00:00	55.3	ND	ND	ND	ND	ND	ND	ND	ND	ND	ND	0
57040	2016-07-31T15:00:00	59.7	ND	ND	ND	ND	ND	ND	ND	ND	ND	ND	0
57041	2016-07-31T16:00:00	53.8	ND	ND	ND	ND	ND	ND	ND	ND	ND	ND	0
57042	2016-07-31T17:00:00	39.5	ND	ND	ND	ND	ND	ND	ND	ND	ND	ND	0
57043	2016-07-31T18:00:00	35.3	ND	ND	ND	ND	ND	ND	ND	ND	ND	ND	0
57044	2016-07-31T19:00:00	31.3	ND	ND	ND	ND	ND	ND	ND	ND	ND	ND	0
57045	2016-07-31T20:00:00	18.2	ND	ND	ND	ND	ND	ND	ND	ND	ND	ND	0
57046	2016-07-31T21:00:00	22.7	ND	ND	ND	ND	ND	ND	ND	ND	ND	ND	0
57047	2016-07-31T22:00:00	33	ND	ND	ND	ND	ND	ND	ND	ND	ND	ND	0
57048	2016-07-31T23:00:00	44.1	ND	ND	ND	ND	ND	ND	ND	ND	ND	ND	0
57049	2016-08-01T00:00:00	23.6	ND	ND	ND	ND	ND	ND	ND	ND	ND	ND	0
57050	2016-08-01T01:00:00	32.1	ND	ND	ND	ND	ND	ND	ND	ND	ND	ND	0
57051	2016-08-01T02:00:00	19.5	ND	ND	ND	ND	ND	ND	ND	ND	ND	ND	0
57052	2016-08-01T03:00:00	32.3	ND	ND	ND	ND	ND	ND	ND	ND	ND	ND	0
57053	2016-08-01T04:00:00	43.6	ND	ND	ND	ND	ND	ND	ND	ND	ND	ND	0
57054	2016-08-01T05:00:00	35.2	ND	ND	ND	ND	ND	ND	ND	ND	ND	ND	0
57055	2016-08-01T06:00:00	36.8	ND	ND	ND	ND	ND	ND	ND	ND	ND	ND	0
57056	2016-08-01T07:00:00	69.3	ND	ND	ND	ND	ND	ND	ND	ND	ND	ND	0
57057	2016-08-01T08:00:00	87.9	ND	ND	ND	ND	ND	ND	ND	ND	ND	ND	0
57058	2016-08-01T09:00:00	122.8	ND	ND	ND	ND	ND	ND	ND	ND	ND	ND	0
57059	2016-08-01T10:00:00	134.2	ND	ND	ND	ND	ND	ND	ND	ND	ND	ND	0
57060	2016-08-01T11:00:00	95.6	ND	ND	ND	ND	ND	ND	ND	ND	ND	ND	0
57061	2016-08-01T12:00:00	80.5	ND	ND	ND	ND	ND	ND	ND	ND	ND	ND	0
57062	2016-08-01T13:00:00	73.2	ND	ND	ND	ND	ND	ND	ND	ND	ND	ND	0
57063	2016-08-01T14:00:00	73.9	ND	ND	ND	ND	ND	ND	ND	ND	ND	ND	0
57064	2016-08-01T15:00:00	49.2	ND	ND	ND	ND	ND	ND	ND	ND	ND	ND	0
57065	2016-08-01T16:00:00	47	ND	ND	ND	ND	ND	ND	ND	ND	ND	ND	0
57066	2016-08-01T17:00:00	57.1	ND	ND	ND	ND	ND	ND	ND	ND	ND	ND	0
57067	2016-08-01T18:00:00	48.8	ND	ND	ND	ND	ND	ND	ND	ND	ND	ND	0
57068	2016-08-01T19:00:00	52.3	ND	ND	ND	ND	ND	ND	ND	ND	ND	ND	0
57069	2016-08-01T20:00:00	66.2	ND	ND	ND	ND	ND	ND	ND	ND	ND	ND	0
57070	2016-08-01T21:00:00	48.5	ND	ND	ND	ND	ND	ND	ND	ND	ND	ND	0
57071	2016-08-01T22:00:00	27.7	ND	ND	ND	ND	ND	ND	ND	ND	ND	ND	0
57072	2016-08-01T23:00:00	13.1	ND	ND	ND	ND	ND	ND	ND	ND	ND	ND	0
57073	2016-08-02T00:00:00	14	ND	ND	ND	ND	ND	ND	ND	ND	ND	ND	0
57074	2016-08-02T01:00:00	13.6	ND	ND	ND	ND	ND	ND	ND	ND	ND	ND	0
57075	2016-08-02T02:00:00	5.4	ND	ND	ND	ND	ND	ND	ND	ND	ND	ND	0
57076	2016-08-02T03:00:00	24.5	ND	ND	ND	ND	ND	ND	ND	ND	ND	ND	0
57077	2016-08-02T04:00:00	64.8	ND	ND	ND	ND	ND	ND	ND	ND	ND	ND	0
57078	2016-08-02T05:00:00	58	ND	ND	ND	ND	ND	ND	ND	ND	ND	ND	0
57079	2016-08-02T06:00:00	78.6	ND	ND	ND	ND	ND	ND	ND	ND	ND	ND	0
57080	2016-08-02T07:00:00	82.5	ND	ND	ND	ND	ND	ND	ND	ND	ND	ND	0
57081	2016-08-02T08:00:00	108.7	ND	ND	ND	ND	ND	ND	ND	ND	ND	ND	0
57082	2016-08-02T09:00:00	123.7	ND	ND	ND	ND	ND	ND	ND	ND	ND	ND	0
57083	2016-08-02T10:00:00	99.8	ND	ND	ND	ND	ND	ND	ND	ND	ND	ND	0
57084	2016-08-02T11:00:00	131.2	ND	ND	ND	ND	ND	ND	ND	ND	ND	ND	0
57085	2016-08-02T12:00:00	103.6	ND	ND	ND	ND	ND	ND	ND	ND	ND	ND	0
57086	2016-08-02T13:00:00	99.3	ND	ND	ND	ND	ND	ND	ND	ND	ND	ND	0
57087	2016-08-02T14:00:00	93.5	ND	ND	ND	ND	ND	ND	ND	ND	ND	ND	0
57088	2016-08-02T15:00:00	96.4	ND	ND	ND	ND	ND	ND	ND	ND	ND	ND	0
57089	2016-08-02T16:00:00	81.3	ND	ND	ND	ND	ND	ND	ND	ND	ND	ND	0
57090	2016-08-02T17:00:00	73	ND	ND	ND	ND	ND	ND	ND	ND	ND	ND	0
57091	2016-08-02T18:00:00	50	ND	ND	ND	ND	ND	ND	ND	ND	ND	ND	0
57092	2016-08-02T19:00:00	29.2	ND	ND	ND	ND	ND	ND	ND	ND	ND	ND	0
57093	2016-08-02T20:00:00	11.8	ND	ND	ND	ND	ND	ND	ND	ND	ND	ND	0
57094	2016-08-02T21:00:00	23.6	ND	ND	ND	ND	ND	ND	ND	ND	ND	ND	0
57095	2016-08-02T22:00:00	25	ND	ND	ND	ND	ND	ND	ND	ND	ND	ND	0
57096	2016-08-02T23:00:00	16.2	ND	ND	ND	ND	ND	ND	ND	ND	ND	ND	0
57097	2016-08-03T00:00:00	16	ND	ND	ND	ND	ND	ND	ND	ND	ND	ND	0
57098	2016-08-03T01:00:00	12.4	ND	ND	ND	ND	ND	ND	ND	ND	ND	ND	0
57099	2016-08-03T02:00:00	34.4	ND	ND	ND	ND	ND	ND	ND	ND	ND	ND	0
57100	2016-08-03T03:00:00	50.6	ND	ND	ND	ND	ND	ND	ND	ND	ND	ND	0
57101	2016-08-03T04:00:00	67.2	ND	ND	ND	ND	ND	ND	ND	ND	ND	ND	0
57102	2016-08-03T05:00:00	78.9	ND	ND	ND	ND	ND	ND	ND	ND	ND	ND	0
57103	2016-08-03T06:00:00	59.7	ND	ND	ND	ND	ND	ND	ND	ND	ND	ND	0
57104	2016-08-03T07:00:00	62.6	ND	ND	ND	ND	ND	ND	ND	ND	ND	ND	0
57105	2016-08-03T08:00:00	109.5	ND	ND	ND	ND	ND	ND	ND	ND	ND	ND	0
57106	2016-08-03T09:00:00	161.2	ND	ND	ND	ND	ND	ND	ND	ND	ND	ND	0
57107	2016-08-03T10:00:00	154	ND	ND	ND	ND	ND	ND	ND	ND	ND	ND	0
57108	2016-08-03T11:00:00	107.8	ND	ND	ND	ND	ND	ND	ND	ND	ND	ND	0
57109	2016-08-03T12:00:00	63.3	ND	ND	ND	ND	ND	ND	ND	ND	ND	ND	0
57110	2016-08-03T13:00:00	65.4	ND	ND	ND	ND	ND	ND	ND	ND	ND	ND	0
57111	2016-08-03T14:00:00	70	ND	ND	ND	ND	ND	ND	ND	ND	ND	ND	0
57112	2016-08-03T15:00:00	57.7	ND	ND	ND	ND	ND	ND	ND	ND	ND	ND	0
57113	2016-08-03T16:00:00	64.5	ND	ND	ND	ND	ND	ND	ND	ND	ND	ND	0
57114	2016-08-03T17:00:00	51.3	ND	ND	ND	ND	ND	ND	ND	ND	ND	ND	0
57115	2016-08-03T18:00:00	30.2	ND	ND	ND	ND	ND	ND	ND	ND	ND	ND	0
57116	2016-08-03T19:00:00	23	ND	ND	ND	ND	ND	ND	ND	ND	ND	ND	0
57117	2016-08-03T20:00:00	23	ND	ND	ND	ND	ND	ND	ND	ND	ND	ND	0
57118	2016-08-03T21:00:00	23.9	ND	ND	ND	ND	ND	ND	ND	ND	ND	ND	0
57119	2016-08-03T22:00:00	29.8	ND	ND	ND	ND	ND	ND	ND	ND	ND	ND	0
57120	2016-08-03T23:00:00	36	ND	ND	ND	ND	ND	ND	ND	ND	ND	ND	0
57121	2016-08-04T00:00:00	52.7	ND	ND	ND	ND	ND	ND	ND	ND	ND	ND	0
57122	2016-08-04T01:00:00	47	ND	ND	ND	ND	ND	ND	ND	ND	ND	ND	0
57123	2016-08-04T02:00:00	35	ND	ND	ND	ND	ND	ND	ND	ND	ND	ND	0
57124	2016-08-04T03:00:00	33.5	ND	ND	ND	ND	ND	ND	ND	ND	ND	ND	0
57125	2016-08-04T04:00:00	22	ND	ND	ND	ND	ND	ND	ND	ND	ND	ND	0
57126	2016-08-04T05:00:00	14.6	ND	ND	ND	ND	ND	ND	ND	ND	ND	ND	0
57127	2016-08-04T06:00:00	27.6	ND	ND	ND	ND	ND	ND	ND	ND	ND	ND	0
57128	2016-08-04T07:00:00	85.9	ND	ND	ND	ND	ND	ND	ND	ND	ND	ND	0
57129	2016-08-04T08:00:00	123.3	ND	ND	ND	ND	ND	ND	ND	ND	ND	ND	0
57130	2016-08-04T09:00:00	137.5	ND	ND	ND	ND	ND	ND	ND	ND	ND	ND	0
57131	2016-08-04T10:00:00	110	ND	ND	ND	ND	ND	ND	ND	ND	ND	ND	0
57132	2016-08-04T11:00:00	84	ND	ND	ND	ND	ND	ND	ND	ND	ND	ND	0
57133	2016-08-04T12:00:00	63.2	ND	ND	ND	ND	ND	ND	ND	ND	ND	ND	0
57134	2016-08-04T13:00:00	53.6	ND	ND	ND	ND	ND	ND	ND	ND	ND	ND	0
57135	2016-08-04T14:00:00	41.3	ND	ND	ND	ND	ND	ND	ND	ND	ND	ND	0
57136	2016-08-04T15:00:00	52.9	ND	ND	ND	ND	ND	ND	ND	ND	ND	ND	0
57137	2016-08-04T16:00:00	57.9	ND	ND	ND	ND	ND	ND	ND	ND	ND	ND	0
57138	2016-08-04T17:00:00	46.8	ND	ND	ND	ND	ND	ND	ND	ND	ND	ND	0
57139	2016-08-04T18:00:00	41.6	ND	ND	ND	ND	ND	ND	ND	ND	ND	ND	0
57140	2016-08-04T19:00:00	18.4	ND	ND	ND	ND	ND	ND	ND	ND	ND	ND	0
57141	2016-08-04T20:00:00	ND	ND	ND	ND	ND	ND	ND	ND	ND	ND	ND	0
57142	2016-08-04T21:00:00	10.2	ND	ND	ND	ND	ND	ND	ND	ND	ND	ND	0
57143	2016-08-04T22:00:00	54.1	ND	ND	ND	ND	ND	ND	ND	ND	ND	ND	0
57144	2016-08-04T23:00:00	69.1	ND	ND	ND	ND	ND	ND	ND	ND	ND	ND	0
57145	2016-08-05T00:00:00	69.9	ND	ND	ND	ND	ND	ND	ND	ND	ND	ND	0
57146	2016-08-05T01:00:00	48.7	ND	ND	ND	ND	ND	ND	ND	ND	ND	ND	0
57147	2016-08-05T02:00:00	39.4	ND	ND	ND	ND	ND	ND	ND	ND	ND	ND	0
57148	2016-08-05T03:00:00	48.2	ND	ND	ND	ND	ND	ND	ND	ND	ND	ND	0
57149	2016-08-05T04:00:00	45.2	ND	ND	ND	ND	ND	ND	ND	ND	ND	ND	0
57150	2016-08-05T05:00:00	49.7	ND	ND	ND	ND	ND	ND	ND	ND	ND	ND	0
57151	2016-08-05T06:00:00	58.1	ND	ND	ND	ND	ND	ND	ND	ND	ND	ND	0
57152	2016-08-05T07:00:00	74.1	ND	ND	ND	ND	ND	ND	ND	ND	ND	ND	0
57153	2016-08-05T08:00:00	99.4	ND	ND	ND	ND	ND	ND	ND	ND	ND	ND	0
57154	2016-08-05T09:00:00	111.5	ND	ND	ND	ND	ND	ND	ND	ND	ND	ND	0
57155	2016-08-05T10:00:00	104.3	ND	ND	ND	ND	ND	ND	ND	ND	ND	ND	0
57156	2016-08-05T11:00:00	91.6	ND	ND	ND	ND	ND	ND	ND	ND	ND	ND	0
57157	2016-08-05T12:00:00	90.8	ND	ND	ND	ND	ND	ND	ND	ND	ND	ND	0
57158	2016-08-05T13:00:00	86.2	ND	ND	ND	ND	ND	ND	ND	ND	ND	ND	0
57159	2016-08-05T14:00:00	57.5	ND	ND	ND	ND	ND	ND	ND	ND	ND	ND	0
57160	2016-08-05T15:00:00	47.2	ND	ND	ND	ND	ND	ND	ND	ND	ND	ND	0
57161	2016-08-05T16:00:00	49.8	ND	ND	ND	ND	ND	ND	ND	ND	ND	ND	0
57162	2016-08-05T17:00:00	55.8	ND	ND	ND	ND	ND	ND	ND	ND	ND	ND	0
57163	2016-08-05T18:00:00	47.2	ND	ND	ND	ND	ND	ND	ND	ND	ND	ND	0
57164	2016-08-05T19:00:00	30.3	ND	ND	ND	ND	ND	ND	ND	ND	ND	ND	0
57165	2016-08-05T20:00:00	21.4	ND	ND	ND	ND	ND	ND	ND	ND	ND	ND	0
57166	2016-08-05T21:00:00	13.4	ND	ND	ND	ND	ND	ND	ND	ND	ND	ND	0
57167	2016-08-05T22:00:00	23	ND	ND	ND	ND	ND	ND	ND	ND	ND	ND	0
57168	2016-08-05T23:00:00	34.9	ND	ND	ND	ND	ND	ND	ND	ND	ND	ND	0
57169	2016-08-06T00:00:00	33.6	ND	ND	ND	ND	ND	ND	ND	ND	ND	ND	0
57170	2016-08-06T01:00:00	57.2	ND	ND	ND	ND	ND	ND	ND	ND	ND	ND	0
57171	2016-08-06T02:00:00	46.9	ND	ND	ND	ND	ND	ND	ND	ND	ND	ND	0
57172	2016-08-06T03:00:00	38.9	ND	ND	ND	ND	ND	ND	ND	ND	ND	ND	0
57173	2016-08-06T04:00:00	32.4	ND	ND	ND	ND	ND	ND	ND	ND	ND	ND	0
57174	2016-08-06T05:00:00	22.4	ND	ND	ND	ND	ND	ND	ND	ND	ND	ND	0
57175	2016-08-06T06:00:00	34.7	ND	ND	ND	ND	ND	ND	ND	ND	ND	ND	0
57176	2016-08-06T07:00:00	62.3	ND	ND	ND	ND	ND	ND	ND	ND	ND	ND	0
57177	2016-08-06T08:00:00	100.5	ND	ND	ND	ND	ND	ND	ND	ND	ND	ND	0
57178	2016-08-06T09:00:00	130.1	ND	ND	ND	ND	ND	ND	ND	ND	ND	ND	0
57179	2016-08-06T10:00:00	106.7	ND	ND	ND	ND	ND	ND	ND	ND	ND	ND	0
57180	2016-08-06T11:00:00	101.4	ND	ND	ND	ND	ND	ND	ND	ND	ND	ND	0
57181	2016-08-06T12:00:00	77.8	ND	ND	ND	ND	ND	ND	ND	ND	ND	ND	0
57182	2016-08-06T13:00:00	65.8	ND	ND	ND	ND	ND	ND	ND	ND	ND	ND	0
57183	2016-08-06T14:00:00	90.7	ND	ND	ND	ND	ND	ND	ND	ND	ND	ND	0
57184	2016-08-06T15:00:00	67	ND	ND	ND	ND	ND	ND	ND	ND	ND	ND	0
57185	2016-08-06T16:00:00	47.8	ND	ND	ND	ND	ND	ND	ND	ND	ND	ND	0
57186	2016-08-06T17:00:00	43.1	ND	ND	ND	ND	ND	ND	ND	ND	ND	ND	0
57187	2016-08-06T18:00:00	44.5	ND	ND	ND	ND	ND	ND	ND	ND	ND	ND	0
57188	2016-08-06T19:00:00	41.9	ND	ND	ND	ND	ND	ND	ND	ND	ND	ND	0
57189	2016-08-06T20:00:00	31.7	ND	ND	ND	ND	ND	ND	ND	ND	ND	ND	0
57190	2016-08-06T21:00:00	19.3	ND	ND	ND	ND	ND	ND	ND	ND	ND	ND	0
57191	2016-08-06T22:00:00	4.4	ND	ND	ND	ND	ND	ND	ND	ND	ND	ND	0
57192	2016-08-06T23:00:00	7.3	ND	ND	ND	ND	ND	ND	ND	ND	ND	ND	0
57193	2016-08-07T00:00:00	9.3	ND	ND	ND	ND	ND	ND	ND	ND	ND	ND	0
57194	2016-08-07T01:00:00	26.9	ND	ND	ND	ND	ND	ND	ND	ND	ND	ND	0
57195	2016-08-07T02:00:00	35.2	ND	ND	ND	ND	ND	ND	ND	ND	ND	ND	0
57196	2016-08-07T03:00:00	33.6	ND	ND	ND	ND	ND	ND	ND	ND	ND	ND	0
57197	2016-08-07T04:00:00	43.4	ND	ND	ND	ND	ND	ND	ND	ND	ND	ND	0
57198	2016-08-07T05:00:00	45.1	ND	ND	ND	ND	ND	ND	ND	ND	ND	ND	0
57199	2016-08-07T06:00:00	37.9	ND	ND	ND	ND	ND	ND	ND	ND	ND	ND	0
57200	2016-08-07T07:00:00	52.2	ND	ND	ND	ND	ND	ND	ND	ND	ND	ND	0
57201	2016-08-07T08:00:00	65.5	ND	ND	ND	ND	ND	ND	ND	ND	ND	ND	0
57202	2016-08-07T09:00:00	73.8	ND	ND	ND	ND	ND	ND	ND	ND	ND	ND	0
57203	2016-08-07T10:00:00	59.3	ND	ND	ND	ND	ND	ND	ND	ND	ND	ND	0
57204	2016-08-07T11:00:00	59.8	ND	ND	ND	ND	ND	ND	ND	ND	ND	ND	0
57205	2016-08-07T12:00:00	51.7	ND	ND	ND	ND	ND	ND	ND	ND	ND	ND	0
57206	2016-08-07T13:00:00	48.4	ND	ND	ND	ND	ND	ND	ND	ND	ND	ND	0
57207	2016-08-07T14:00:00	54.5	ND	ND	ND	ND	ND	ND	ND	ND	ND	ND	0
57208	2016-08-07T15:00:00	44.1	ND	ND	ND	ND	ND	ND	ND	ND	ND	ND	0
57209	2016-08-07T16:00:00	24.5	ND	ND	ND	ND	ND	ND	ND	ND	ND	ND	0
57210	2016-08-07T17:00:00	31.9	ND	ND	ND	ND	ND	ND	ND	ND	ND	ND	0
57211	2016-08-07T18:00:00	23.6	ND	ND	ND	ND	ND	ND	ND	ND	ND	ND	0
57212	2016-08-07T19:00:00	15.6	ND	ND	ND	ND	ND	ND	ND	ND	ND	ND	0
57213	2016-08-07T20:00:00	16.2	ND	ND	ND	ND	ND	ND	ND	ND	ND	ND	0
57214	2016-08-07T21:00:00	22.4	ND	ND	ND	ND	ND	ND	ND	ND	ND	ND	0
57215	2016-08-07T22:00:00	9.8	ND	ND	ND	ND	ND	ND	ND	ND	ND	ND	0
57216	2016-08-07T23:00:00	9.1	ND	ND	ND	ND	ND	ND	ND	ND	ND	ND	0
57217	2016-08-08T00:00:00	14.6	ND	ND	ND	ND	ND	ND	ND	ND	ND	ND	0
57218	2016-08-08T01:00:00	1.8	ND	ND	ND	ND	ND	ND	ND	ND	ND	ND	0
57219	2016-08-08T02:00:00	9.4	ND	ND	ND	ND	ND	ND	ND	ND	ND	ND	0
57220	2016-08-08T03:00:00	26.6	ND	ND	ND	ND	ND	ND	ND	ND	ND	ND	0
57221	2016-08-08T04:00:00	44.7	ND	ND	ND	ND	ND	ND	ND	ND	ND	ND	0
57222	2016-08-08T05:00:00	34.6	ND	ND	ND	ND	ND	ND	ND	ND	ND	ND	0
57223	2016-08-08T06:00:00	43.5	ND	ND	ND	ND	ND	ND	ND	ND	ND	ND	0
57224	2016-08-08T07:00:00	54.3	ND	ND	ND	ND	ND	ND	ND	ND	ND	ND	0
57225	2016-08-08T08:00:00	62.4	ND	ND	ND	ND	ND	ND	ND	ND	ND	ND	0
57226	2016-08-08T09:00:00	67	ND	ND	ND	ND	ND	ND	ND	ND	ND	ND	0
57227	2016-08-08T10:00:00	73.3	ND	ND	ND	ND	ND	ND	ND	ND	ND	ND	0
57228	2016-08-08T11:00:00	63.1	ND	ND	ND	ND	ND	ND	ND	ND	ND	ND	0
57229	2016-08-08T12:00:00	59.3	ND	ND	ND	ND	ND	ND	ND	ND	ND	ND	0
57230	2016-08-08T13:00:00	63.5	ND	ND	ND	ND	ND	ND	ND	ND	ND	ND	0
57231	2016-08-08T14:00:00	63.6	ND	ND	ND	ND	ND	ND	ND	ND	ND	ND	0
57232	2016-08-08T15:00:00	72.8	ND	ND	ND	ND	ND	ND	ND	ND	ND	ND	0
57233	2016-08-08T16:00:00	63.3	ND	ND	ND	ND	ND	ND	ND	ND	ND	ND	0
57234	2016-08-08T17:00:00	46.9	ND	ND	ND	ND	ND	ND	ND	ND	ND	ND	0
57235	2016-08-08T18:00:00	31.9	ND	ND	ND	ND	ND	ND	ND	ND	ND	ND	0
57236	2016-08-08T19:00:00	21.4	ND	ND	ND	ND	ND	ND	ND	ND	ND	ND	0
57237	2016-08-08T20:00:00	23.7	ND	ND	ND	ND	ND	ND	ND	ND	ND	ND	0
57238	2016-08-08T21:00:00	15.4	ND	ND	ND	ND	ND	ND	ND	ND	ND	ND	0
57239	2016-08-08T22:00:00	11.1	ND	ND	ND	ND	ND	ND	ND	ND	ND	ND	0
57240	2016-08-08T23:00:00	30.4	ND	ND	ND	ND	ND	ND	ND	ND	ND	ND	0
57241	2016-08-09T00:00:00	42.1	ND	ND	ND	ND	ND	ND	ND	ND	ND	ND	0
57242	2016-08-09T01:00:00	59.9	ND	ND	ND	ND	ND	ND	ND	ND	ND	ND	0
57243	2016-08-09T02:00:00	61	ND	ND	ND	ND	ND	ND	ND	ND	ND	ND	0
57244	2016-08-09T03:00:00	55.2	ND	ND	ND	ND	ND	ND	ND	ND	ND	ND	0
57245	2016-08-09T04:00:00	43	ND	ND	ND	ND	ND	ND	ND	ND	ND	ND	0
57246	2016-08-09T05:00:00	42.3	ND	ND	ND	ND	ND	ND	ND	ND	ND	ND	0
57247	2016-08-09T06:00:00	44.7	ND	ND	ND	ND	ND	ND	ND	ND	ND	ND	0
57248	2016-08-09T07:00:00	69.6	ND	ND	ND	ND	ND	ND	ND	ND	ND	ND	0
57249	2016-08-09T08:00:00	81	ND	ND	ND	ND	ND	ND	ND	ND	ND	ND	0
57250	2016-08-09T09:00:00	83	ND	ND	ND	ND	ND	ND	ND	ND	ND	ND	0
57251	2016-08-09T10:00:00	89.3	ND	ND	ND	ND	ND	ND	ND	ND	ND	ND	0
57252	2016-08-09T11:00:00	68.3	ND	ND	ND	ND	ND	ND	ND	ND	ND	ND	0
57253	2016-08-09T12:00:00	67.8	ND	ND	ND	ND	ND	ND	ND	ND	ND	ND	0
57254	2016-08-09T13:00:00	76.9	ND	ND	ND	5.71	ND	ND	ND	ND	ND	ND	0
57255	2016-08-09T14:00:00	81.4	ND	ND	ND	1.06	ND	ND	ND	ND	ND	ND	0
57256	2016-08-09T15:00:00	86.5	ND	ND	ND	0.67	ND	ND	ND	ND	ND	ND	0
57257	2016-08-09T16:00:00	62.7	ND	ND	ND	0.54	ND	ND	ND	ND	ND	ND	0
57258	2016-08-09T17:00:00	35	ND	ND	ND	0.60	ND	ND	ND	ND	ND	ND	0
57259	2016-08-09T18:00:00	31.8	ND	ND	ND	0.18	ND	ND	ND	ND	ND	ND	0
57260	2016-08-09T19:00:00	35.2	ND	ND	ND	0.29	ND	ND	ND	ND	ND	ND	0
57261	2016-08-09T20:00:00	33.6	ND	ND	ND	0.52	ND	ND	ND	ND	ND	ND	0
57262	2016-08-09T21:00:00	34.8	ND	ND	ND	0.45	ND	ND	ND	ND	ND	ND	0
57263	2016-08-09T22:00:00	17.9	ND	ND	ND	0.38	ND	ND	ND	ND	ND	ND	0
57264	2016-08-09T23:00:00	9.8	ND	ND	ND	0.29	ND	ND	ND	ND	ND	ND	0
57265	2016-08-10T00:00:00	19.2	ND	ND	ND	1.48	ND	ND	ND	ND	ND	ND	0
57266	2016-08-10T01:00:00	41.7	ND	ND	ND	1.53	ND	ND	ND	ND	ND	ND	0
57267	2016-08-10T02:00:00	55	ND	ND	ND	1.17	ND	ND	ND	ND	ND	ND	0
57268	2016-08-10T03:00:00	42.1	ND	ND	ND	1.18	ND	ND	ND	ND	ND	ND	0
57269	2016-08-10T04:00:00	33.9	ND	ND	ND	3.12	ND	ND	ND	ND	ND	ND	0
57270	2016-08-10T05:00:00	33.1	ND	ND	ND	2.40	ND	ND	ND	ND	ND	ND	0
57271	2016-08-10T06:00:00	25.3	ND	ND	ND	2.08	ND	ND	ND	ND	ND	ND	0
57272	2016-08-10T07:00:00	34.8	ND	ND	ND	1.70	ND	ND	ND	ND	ND	ND	0
57273	2016-08-10T08:00:00	71.6	ND	ND	ND	4.14	ND	ND	ND	ND	ND	ND	0
57274	2016-08-10T09:00:00	104.5	ND	ND	ND	4.27	ND	ND	ND	ND	ND	ND	0
57275	2016-08-10T10:00:00	103.3	ND	ND	ND	1.92	ND	ND	ND	ND	ND	ND	0
57276	2016-08-10T11:00:00	89.3	ND	ND	ND	1.52	ND	ND	ND	ND	ND	ND	0
57277	2016-08-10T12:00:00	100.9	ND	ND	ND	0.81	ND	ND	ND	ND	ND	ND	0
57278	2016-08-10T13:00:00	84.6	ND	ND	ND	0.63	ND	ND	ND	ND	ND	ND	0
57279	2016-08-10T14:00:00	62.9	ND	ND	ND	0.67	ND	ND	ND	ND	ND	ND	0
57280	2016-08-10T15:00:00	ND	ND	ND	ND	ND	ND	ND	ND	ND	ND	ND	ND
57281	2016-08-10T16:00:00	ND	ND	ND	ND	ND	ND	ND	ND	ND	ND	ND	ND
57282	2016-08-10T17:00:00	ND	ND	ND	ND	ND	ND	ND	ND	ND	ND	ND	ND
57283	2016-08-10T18:00:00	ND	ND	ND	ND	ND	ND	ND	ND	ND	ND	ND	ND
57284	2016-08-10T19:00:00	ND	ND	ND	ND	ND	ND	ND	ND	ND	ND	ND	ND
57285	2016-08-10T20:00:00	ND	ND	ND	ND	ND	ND	ND	ND	ND	ND	ND	ND
57286	2016-08-10T21:00:00	ND	ND	ND	ND	ND	ND	ND	ND	ND	ND	ND	ND
57287	2016-08-10T22:00:00	ND	ND	ND	ND	ND	ND	ND	ND	ND	ND	ND	ND
57288	2016-08-10T23:00:00	ND	ND	ND	ND	ND	ND	ND	ND	ND	ND	ND	ND
57289	2016-08-11T00:00:00	ND	ND	ND	ND	ND	ND	ND	ND	ND	ND	ND	ND
57290	2016-08-11T01:00:00	ND	ND	ND	ND	ND	ND	ND	ND	ND	ND	ND	ND
57291	2016-08-11T02:00:00	ND	ND	ND	ND	ND	ND	ND	ND	ND	ND	ND	ND
57292	2016-08-11T03:00:00	ND	ND	ND	ND	ND	ND	ND	ND	ND	ND	ND	ND
57293	2016-08-11T04:00:00	ND	ND	ND	ND	ND	ND	ND	ND	ND	ND	ND	ND
57294	2016-08-11T05:00:00	ND	ND	ND	ND	ND	ND	ND	ND	ND	ND	ND	ND
57295	2016-08-11T06:00:00	ND	ND	ND	ND	ND	ND	ND	ND	ND	ND	ND	ND
57296	2016-08-11T07:00:00	ND	ND	ND	ND	ND	ND	ND	ND	ND	ND	ND	ND
57297	2016-08-11T08:00:00	ND	ND	ND	ND	ND	ND	ND	ND	ND	ND	ND	ND
57298	2016-08-11T09:00:00	ND	ND	ND	ND	ND	ND	ND	ND	ND	ND	ND	ND
57299	2016-08-11T10:00:00	ND	ND	ND	ND	ND	ND	ND	ND	ND	ND	ND	ND
57300	2016-08-11T11:00:00	ND	ND	ND	ND	ND	ND	ND	ND	ND	ND	ND	ND
57301	2016-08-11T12:00:00	153	ND	ND	ND	0.67	ND	ND	ND	ND	ND	ND	0
57302	2016-08-11T13:00:00	141.6	ND	ND	ND	0.46	ND	ND	ND	ND	ND	ND	0
57303	2016-08-11T14:00:00	92.2	ND	ND	ND	0.78	ND	ND	ND	ND	ND	ND	0
57304	2016-08-11T15:00:00	75.3	ND	ND	ND	0.49	ND	ND	ND	ND	ND	ND	0
57305	2016-08-11T16:00:00	62.8	ND	ND	ND	0.45	ND	ND	ND	ND	ND	ND	0
57306	2016-08-11T17:00:00	29.4	ND	ND	ND	0.40	ND	ND	ND	ND	ND	ND	0
57307	2016-08-11T18:00:00	54.1	ND	ND	ND	0.25	ND	ND	ND	ND	ND	ND	0
57308	2016-08-11T19:00:00	47	ND	ND	ND	0.17	ND	ND	ND	ND	ND	ND	0
57309	2016-08-11T20:00:00	36.4	ND	ND	ND	0.10	ND	ND	ND	ND	ND	ND	0
57310	2016-08-11T21:00:00	20.4	ND	ND	ND	0.31	ND	ND	ND	ND	ND	ND	0
57311	2016-08-11T22:00:00	7.2	ND	ND	ND	0.31	ND	ND	ND	ND	ND	ND	0
57312	2016-08-11T23:00:00	21.9	ND	ND	ND	0.21	ND	ND	ND	ND	ND	ND	0
57313	2016-08-12T00:00:00	13.3	ND	ND	ND	0.52	ND	ND	ND	ND	ND	ND	0
57314	2016-08-12T01:00:00	41.4	ND	ND	ND	1.27	ND	ND	ND	ND	ND	ND	0
57315	2016-08-12T02:00:00	61.3	ND	ND	ND	1.55	ND	ND	ND	ND	ND	ND	0
57316	2016-08-12T03:00:00	35.6	ND	ND	ND	0.79	ND	ND	ND	ND	ND	ND	0
57317	2016-08-12T04:00:00	31.9	ND	ND	ND	3.14	ND	ND	ND	ND	ND	ND	0
57318	2016-08-12T05:00:00	31.9	ND	ND	ND	3.96	ND	ND	ND	ND	ND	ND	0
57319	2016-08-12T06:00:00	33	ND	ND	ND	1.48	ND	ND	ND	ND	ND	ND	0
57320	2016-08-12T07:00:00	68	ND	ND	ND	2.05	ND	ND	ND	ND	ND	ND	0
57321	2016-08-12T08:00:00	69.6	ND	ND	ND	1.31	ND	ND	ND	ND	ND	ND	0
57322	2016-08-12T09:00:00	75.8	ND	ND	ND	1.00	ND	ND	ND	ND	ND	ND	0
57323	2016-08-12T10:00:00	80.1	ND	ND	ND	1.10	ND	ND	ND	ND	ND	ND	0
57324	2016-08-12T11:00:00	62.4	ND	ND	ND	0.79	ND	ND	ND	ND	ND	ND	0
57325	2016-08-12T12:00:00	58.8	ND	ND	ND	0.74	ND	ND	ND	ND	ND	ND	0
57326	2016-08-12T13:00:00	53.8	ND	ND	ND	1.16	ND	ND	ND	ND	ND	ND	0
57327	2016-08-12T14:00:00	49.8	ND	ND	ND	0.79	ND	ND	ND	ND	ND	ND	0
57328	2016-08-12T15:00:00	39.5	ND	ND	ND	0.50	ND	ND	ND	ND	ND	ND	0
57329	2016-08-12T16:00:00	2.8	ND	ND	ND	0.71	ND	ND	ND	ND	ND	ND	0
57330	2016-08-12T17:00:00	29.4	ND	ND	ND	0.28	ND	ND	ND	ND	ND	ND	0
57331	2016-08-12T18:00:00	90.2	ND	ND	ND	0.20	ND	ND	ND	ND	ND	ND	0
57332	2016-08-12T19:00:00	58.6	ND	ND	ND	0.29	ND	ND	ND	ND	ND	ND	0
57333	2016-08-12T20:00:00	29.6	ND	ND	ND	0.36	ND	ND	ND	ND	ND	ND	0
57334	2016-08-12T21:00:00	43.4	ND	ND	ND	0.31	ND	ND	ND	ND	ND	ND	0
57335	2016-08-12T22:00:00	33.2	ND	ND	ND	0.45	ND	ND	ND	ND	ND	ND	0
57336	2016-08-12T23:00:00	22.8	ND	ND	ND	0.40	ND	ND	ND	ND	ND	ND	0
57337	2016-08-13T00:00:00	22.9	ND	ND	ND	0.36	ND	ND	ND	ND	ND	ND	0
57338	2016-08-13T01:00:00	38.8	ND	ND	ND	4.27	ND	ND	ND	ND	ND	ND	0
57339	2016-08-13T02:00:00	56.7	ND	ND	ND	3.76	ND	ND	ND	ND	ND	ND	0
57340	2016-08-13T03:00:00	46.5	ND	ND	ND	1.80	ND	ND	ND	ND	ND	ND	0
57341	2016-08-13T04:00:00	41	ND	ND	ND	1.83	ND	ND	ND	ND	ND	ND	0
57342	2016-08-13T05:00:00	36.7	ND	ND	ND	1.27	ND	ND	ND	ND	ND	ND	0
57343	2016-08-13T06:00:00	20.8	ND	ND	ND	2.20	ND	ND	ND	ND	ND	ND	0
57344	2016-08-13T07:00:00	22.4	ND	ND	ND	1.62	ND	ND	ND	ND	ND	ND	0
57345	2016-08-13T08:00:00	57.6	ND	ND	ND	1.53	ND	ND	ND	ND	ND	ND	0
57346	2016-08-13T09:00:00	114.6	ND	ND	ND	1.49	ND	ND	ND	ND	ND	ND	0
57347	2016-08-13T10:00:00	118.7	ND	ND	ND	1.56	ND	ND	ND	ND	ND	ND	0
57348	2016-08-13T11:00:00	108.3	ND	ND	ND	0.68	ND	ND	ND	ND	ND	ND	0
57349	2016-08-13T12:00:00	91.5	ND	ND	ND	0.56	ND	ND	ND	ND	ND	ND	0
57350	2016-08-13T13:00:00	84.4	ND	ND	ND	0.46	ND	ND	ND	ND	ND	ND	0
57351	2016-08-13T14:00:00	70.4	ND	ND	ND	0.47	ND	ND	ND	ND	ND	ND	0
57352	2016-08-13T15:00:00	61.3	ND	ND	ND	0.49	ND	ND	ND	ND	ND	ND	0
57353	2016-08-13T16:00:00	63.1	ND	ND	ND	0.59	ND	ND	ND	ND	ND	ND	0
57354	2016-08-13T17:00:00	40.6	ND	ND	ND	0.50	ND	ND	ND	ND	ND	ND	0
57355	2016-08-13T18:00:00	37	ND	ND	ND	0.22	ND	ND	ND	ND	ND	ND	0
57356	2016-08-13T19:00:00	31.3	ND	ND	ND	0.17	ND	ND	ND	ND	ND	ND	0
57357	2016-08-13T20:00:00	24.3	ND	ND	ND	0.08	ND	ND	ND	ND	ND	ND	0
57358	2016-08-13T21:00:00	25.5	ND	ND	ND	0.24	ND	ND	ND	ND	ND	ND	0
57359	2016-08-13T22:00:00	26.9	ND	ND	ND	0.98	ND	ND	ND	ND	ND	ND	0
57360	2016-08-13T23:00:00	48.2	ND	ND	ND	0.91	ND	ND	ND	ND	ND	ND	0
57361	2016-08-14T00:00:00	37	ND	ND	ND	0.31	ND	ND	ND	ND	ND	ND	0
57362	2016-08-14T01:00:00	20.4	ND	ND	ND	1.23	ND	ND	ND	ND	ND	ND	0
57363	2016-08-14T02:00:00	43.9	ND	ND	ND	2.72	ND	ND	ND	ND	ND	ND	0
57364	2016-08-14T03:00:00	53.3	ND	ND	ND	3.02	ND	ND	ND	ND	ND	ND	0
57365	2016-08-14T04:00:00	50.7	ND	ND	ND	2.77	ND	ND	ND	ND	ND	ND	0
57366	2016-08-14T05:00:00	40.2	ND	ND	ND	1.87	ND	ND	ND	ND	ND	ND	0
57367	2016-08-14T06:00:00	51	ND	ND	ND	1.35	ND	ND	ND	ND	ND	ND	0
57368	2016-08-14T07:00:00	11.7	ND	ND	ND	1.16	ND	ND	ND	ND	ND	ND	0
57369	2016-08-14T08:00:00	60.8	ND	ND	ND	1.16	ND	ND	ND	ND	ND	ND	0
57370	2016-08-14T09:00:00	97.2	ND	ND	ND	0.89	ND	ND	ND	ND	ND	ND	0
57371	2016-08-14T10:00:00	81.3	ND	ND	ND	1.24	ND	ND	ND	ND	ND	ND	0
57372	2016-08-14T11:00:00	66.8	ND	ND	ND	0.92	ND	ND	ND	ND	ND	ND	0
57373	2016-08-14T12:00:00	53.3	ND	ND	ND	0.60	ND	ND	ND	ND	ND	ND	0
57374	2016-08-14T13:00:00	43.8	ND	ND	ND	0.49	ND	ND	ND	ND	ND	ND	0
57375	2016-08-14T14:00:00	50.7	ND	ND	ND	0.47	ND	ND	ND	ND	ND	ND	0
57376	2016-08-14T15:00:00	34.3	ND	ND	ND	0.14	ND	ND	ND	ND	ND	ND	0
57377	2016-08-14T16:00:00	25.6	ND	ND	ND	0.50	ND	ND	ND	ND	ND	ND	0
57378	2016-08-14T17:00:00	34.9	ND	ND	ND	0.40	ND	ND	ND	ND	ND	ND	0
57379	2016-08-14T18:00:00	38.4	ND	ND	ND	0.20	ND	ND	ND	ND	ND	ND	0
57380	2016-08-14T19:00:00	27.6	ND	ND	ND	0.17	ND	ND	ND	ND	ND	ND	0
57381	2016-08-14T20:00:00	27.9	ND	ND	ND	0.25	ND	ND	ND	ND	ND	ND	0
57382	2016-08-14T21:00:00	15.2	ND	ND	ND	0.20	ND	ND	ND	ND	ND	ND	0
57383	2016-08-14T22:00:00	14.7	ND	ND	ND	0.38	ND	ND	ND	ND	ND	ND	0
57384	2016-08-14T23:00:00	18.3	ND	ND	ND	1.12	ND	ND	ND	ND	ND	ND	0
57385	2016-08-15T00:00:00	29.5	ND	ND	ND	0.82	ND	ND	ND	ND	ND	ND	0
57386	2016-08-15T01:00:00	37.2	ND	ND	ND	1.13	ND	ND	ND	ND	ND	ND	0
57387	2016-08-15T02:00:00	40.9	ND	ND	ND	1.24	ND	ND	ND	ND	ND	ND	0
57388	2016-08-15T03:00:00	45.3	ND	ND	ND	2.08	ND	ND	ND	ND	ND	ND	0
57389	2016-08-15T04:00:00	42.9	ND	ND	ND	1.80	ND	ND	ND	ND	ND	ND	0
57390	2016-08-15T05:00:00	43.2	ND	ND	ND	1.66	ND	ND	ND	ND	ND	ND	0
57391	2016-08-15T06:00:00	33.2	ND	ND	ND	1.88	ND	ND	ND	ND	ND	ND	0
57392	2016-08-15T07:00:00	45.2	ND	ND	ND	1.87	ND	ND	ND	ND	ND	ND	0
57393	2016-08-15T08:00:00	52.1	ND	ND	ND	1.58	ND	ND	ND	ND	ND	ND	0
57394	2016-08-15T09:00:00	56.1	ND	ND	ND	2.02	ND	ND	ND	ND	ND	ND	0
57395	2016-08-15T10:00:00	58.2	ND	ND	ND	1.45	ND	ND	ND	ND	ND	ND	0
57396	2016-08-15T11:00:00	65.1	ND	ND	ND	1.00	ND	ND	ND	ND	ND	ND	0
57397	2016-08-15T12:00:00	54	ND	ND	ND	0.52	ND	ND	ND	ND	ND	ND	0
57398	2016-08-15T13:00:00	40.8	ND	ND	ND	0.64	ND	ND	ND	ND	ND	ND	0
57399	2016-08-15T14:00:00	50.1	ND	ND	ND	0.84	ND	ND	ND	ND	ND	ND	0
57400	2016-08-15T15:00:00	31.5	ND	ND	ND	0.45	ND	ND	ND	ND	ND	ND	0
57401	2016-08-15T16:00:00	12.3	ND	ND	ND	0.21	ND	ND	ND	ND	ND	ND	0
57402	2016-08-15T17:00:00	2.2	ND	ND	ND	0.20	ND	ND	ND	ND	ND	ND	0
57403	2016-08-15T18:00:00	4.2	ND	ND	ND	0.28	ND	ND	ND	ND	ND	ND	0
57404	2016-08-15T19:00:00	5.4	ND	ND	ND	0.17	ND	ND	ND	ND	ND	ND	0
57405	2016-08-15T20:00:00	8.2	ND	ND	ND	0.53	ND	ND	ND	ND	ND	ND	0
57406	2016-08-15T21:00:00	11.2	ND	ND	ND	0.20	ND	ND	ND	ND	ND	ND	0
57407	2016-08-15T22:00:00	10.6	ND	ND	ND	0.33	ND	ND	ND	ND	ND	ND	0
57408	2016-08-15T23:00:00	39.1	ND	ND	ND	0.77	ND	ND	ND	ND	ND	ND	0
57409	2016-08-16T00:00:00	43	ND	ND	ND	1.23	ND	ND	ND	ND	ND	ND	0
57410	2016-08-16T01:00:00	52.7	ND	ND	ND	1.81	ND	ND	ND	ND	ND	ND	0
57411	2016-08-16T02:00:00	45.5	ND	ND	ND	1.70	ND	ND	ND	ND	ND	ND	0
57412	2016-08-16T03:00:00	28	ND	ND	ND	1.27	ND	ND	ND	ND	ND	ND	0
57413	2016-08-16T04:00:00	28	ND	ND	ND	1.88	ND	ND	ND	ND	ND	ND	0
57414	2016-08-16T05:00:00	31.8	ND	ND	ND	0.82	ND	ND	ND	ND	ND	ND	0
57415	2016-08-16T06:00:00	29.8	ND	ND	ND	1.30	ND	ND	ND	ND	ND	ND	0
57416	2016-08-16T07:00:00	47.4	ND	ND	ND	0.95	ND	ND	ND	ND	ND	ND	0
57417	2016-08-16T08:00:00	73.9	ND	ND	ND	1.63	ND	ND	ND	ND	ND	ND	0
57418	2016-08-16T09:00:00	97.3	ND	ND	ND	1.66	ND	ND	ND	ND	ND	ND	0
57419	2016-08-16T10:00:00	77.3	ND	ND	ND	1.31	ND	ND	ND	ND	ND	ND	0
57420	2016-08-16T11:00:00	97.5	ND	ND	ND	0.84	ND	ND	ND	ND	ND	ND	0
57421	2016-08-16T12:00:00	75	ND	ND	ND	0.86	ND	ND	ND	ND	ND	ND	0
57422	2016-08-16T13:00:00	63.6	ND	ND	ND	0.46	ND	ND	ND	ND	ND	ND	0
57423	2016-08-16T14:00:00	64.7	ND	ND	ND	0.64	ND	ND	ND	ND	ND	ND	0
57424	2016-08-16T15:00:00	80.1	ND	ND	ND	0.45	ND	ND	ND	ND	ND	ND	0
57425	2016-08-16T16:00:00	52.8	ND	ND	ND	0.52	ND	ND	ND	ND	ND	ND	0
57426	2016-08-16T17:00:00	35	ND	ND	ND	0.26	ND	ND	ND	ND	ND	ND	0
57427	2016-08-16T18:00:00	31.7	ND	ND	ND	0.26	ND	ND	ND	ND	ND	ND	0
57428	2016-08-16T19:00:00	25.8	ND	ND	ND	0.17	ND	ND	ND	ND	ND	ND	0
57429	2016-08-16T20:00:00	18.7	ND	ND	ND	0.31	ND	ND	ND	ND	ND	ND	0
57430	2016-08-16T21:00:00	14.3	ND	ND	ND	0.36	ND	ND	ND	ND	ND	ND	0
57431	2016-08-16T22:00:00	10.4	ND	ND	ND	0.47	ND	ND	ND	ND	ND	ND	0
57432	2016-08-16T23:00:00	25.9	ND	ND	ND	1.34	ND	ND	ND	ND	ND	ND	0
57433	2016-08-17T00:00:00	18.4	ND	ND	ND	0.38	ND	ND	ND	ND	ND	ND	0
57434	2016-08-17T01:00:00	3	ND	ND	ND	0.25	ND	ND	ND	ND	ND	ND	0
57435	2016-08-17T02:00:00	5.5	ND	ND	ND	0.59	ND	ND	ND	ND	ND	ND	0
57436	2016-08-17T03:00:00	35.4	ND	ND	ND	1.42	ND	ND	ND	ND	ND	ND	0
57437	2016-08-17T04:00:00	43.1	ND	ND	ND	1.77	ND	ND	ND	ND	ND	ND	0
57438	2016-08-17T05:00:00	45.3	ND	ND	ND	1.73	ND	ND	ND	ND	ND	ND	0
57439	2016-08-17T06:00:00	51.6	ND	ND	ND	1.99	ND	ND	ND	ND	ND	ND	0
57440	2016-08-17T07:00:00	62.4	ND	ND	ND	3.29	ND	ND	ND	ND	ND	ND	0
57441	2016-08-17T08:00:00	67	ND	ND	ND	1.81	ND	ND	ND	ND	ND	ND	0
57442	2016-08-17T09:00:00	77.9	ND	ND	ND	1.03	ND	ND	ND	ND	ND	ND	0
57443	2016-08-17T10:00:00	69.8	ND	ND	ND	0.92	ND	ND	ND	ND	ND	ND	0
57444	2016-08-17T11:00:00	54.2	ND	ND	ND	0.66	ND	ND	ND	ND	ND	ND	0
57445	2016-08-17T12:00:00	48.3	ND	ND	ND	0.88	ND	ND	ND	ND	ND	ND	0
57446	2016-08-17T13:00:00	59.8	ND	ND	ND	0.52	ND	ND	ND	ND	ND	ND	0
57447	2016-08-17T14:00:00	53.2	ND	ND	ND	0.67	ND	ND	ND	ND	ND	ND	0
57448	2016-08-17T15:00:00	52.9	ND	ND	ND	0.60	ND	ND	ND	ND	ND	ND	0
57449	2016-08-17T16:00:00	58.6	ND	ND	ND	0.50	ND	ND	ND	ND	ND	ND	0
57450	2016-08-17T17:00:00	32.1	ND	ND	ND	0.28	ND	ND	ND	ND	ND	ND	0
57451	2016-08-17T18:00:00	29.7	ND	ND	ND	0.36	ND	ND	ND	ND	ND	ND	0
57452	2016-08-17T19:00:00	34.3	ND	ND	ND	0.18	ND	ND	ND	ND	ND	ND	0
57453	2016-08-17T20:00:00	18.4	ND	ND	ND	0.63	ND	ND	ND	ND	ND	ND	0
57454	2016-08-17T21:00:00	14.7	ND	ND	ND	0.52	ND	ND	ND	ND	ND	ND	0
57455	2016-08-17T22:00:00	44.2	ND	ND	ND	1.23	ND	ND	ND	ND	ND	ND	0
57456	2016-08-17T23:00:00	37.1	ND	ND	ND	0.29	ND	ND	ND	ND	ND	ND	0
57457	2016-08-18T00:00:00	6.4	ND	ND	ND	0.56	ND	ND	ND	ND	ND	ND	0
57458	2016-08-18T01:00:00	40.1	ND	ND	ND	0.75	ND	ND	ND	ND	ND	ND	0
57459	2016-08-18T02:00:00	35.6	ND	ND	ND	1.30	ND	ND	ND	ND	ND	ND	0
57460	2016-08-18T03:00:00	32.1	ND	ND	ND	1.73	ND	ND	ND	ND	ND	ND	0
57461	2016-08-18T04:00:00	29	ND	ND	ND	2.20	ND	ND	ND	ND	ND	ND	0
57462	2016-08-18T05:00:00	43.2	ND	ND	ND	3.69	ND	ND	ND	ND	ND	ND	0
57463	2016-08-18T06:00:00	36.5	ND	ND	ND	3.22	ND	ND	ND	ND	ND	ND	0
57464	2016-08-18T07:00:00	54.7	ND	ND	ND	4.71	ND	ND	ND	ND	ND	ND	0
57465	2016-08-18T08:00:00	71.4	ND	ND	ND	2.29	ND	ND	ND	ND	ND	ND	0
57466	2016-08-18T09:00:00	97.5	ND	ND	ND	1.83	ND	ND	ND	ND	ND	ND	0
57467	2016-08-18T10:00:00	115.6	ND	ND	ND	1.46	ND	ND	ND	ND	ND	ND	0
57468	2016-08-18T11:00:00	86.5	ND	ND	ND	1.10	ND	ND	ND	ND	ND	ND	0
57469	2016-08-18T12:00:00	73.8	ND	ND	ND	0.61	ND	ND	ND	ND	ND	ND	0
57470	2016-08-18T13:00:00	60.4	ND	ND	ND	0.49	ND	ND	ND	ND	ND	ND	0
57471	2016-08-18T14:00:00	58.7	ND	ND	ND	0.84	ND	ND	ND	ND	ND	ND	0
57472	2016-08-18T15:00:00	52.7	ND	ND	ND	0.60	ND	ND	ND	ND	ND	ND	0
57473	2016-08-18T16:00:00	35	ND	ND	ND	0.45	ND	ND	ND	ND	ND	ND	0
57474	2016-08-18T17:00:00	36.9	ND	ND	ND	0.17	ND	ND	ND	ND	ND	ND	0
57475	2016-08-18T18:00:00	40.4	ND	ND	ND	0.40	ND	ND	ND	ND	ND	ND	0
57476	2016-08-18T19:00:00	28.9	ND	ND	ND	0.18	ND	ND	ND	ND	ND	ND	0
57477	2016-08-18T20:00:00	20	ND	ND	ND	0.35	ND	ND	ND	ND	ND	ND	0
57478	2016-08-18T21:00:00	17.1	ND	ND	ND	0.42	ND	ND	ND	ND	ND	ND	0
57479	2016-08-18T22:00:00	21.9	ND	ND	ND	0.43	ND	ND	ND	ND	ND	ND	0
57480	2016-08-18T23:00:00	11	ND	ND	ND	0.38	ND	ND	ND	ND	ND	ND	0
57481	2016-08-19T00:00:00	14.6	ND	ND	ND	0.54	ND	ND	ND	ND	ND	ND	0
57482	2016-08-19T01:00:00	39.8	ND	ND	ND	1.02	ND	ND	ND	ND	ND	ND	0
57483	2016-08-19T02:00:00	23.1	ND	ND	ND	2.15	ND	ND	ND	ND	ND	ND	0
57484	2016-08-19T03:00:00	45.9	ND	ND	ND	2.08	ND	ND	ND	ND	ND	ND	0
57485	2016-08-19T04:00:00	37	ND	ND	ND	1.84	ND	ND	ND	ND	ND	ND	0
57486	2016-08-19T05:00:00	26.3	ND	ND	ND	2.16	ND	ND	ND	ND	ND	ND	0
57487	2016-08-19T06:00:00	21.6	ND	ND	ND	1.51	ND	ND	ND	ND	ND	ND	0
57488	2016-08-19T07:00:00	47	ND	ND	ND	1.55	ND	ND	ND	ND	ND	ND	0.51
57489	2016-08-19T08:00:00	52.3	ND	ND	ND	1.05	ND	ND	ND	ND	ND	ND	0.76
57490	2016-08-19T09:00:00	51.4	ND	ND	ND	1.84	ND	ND	ND	ND	ND	ND	0
57491	2016-08-19T10:00:00	72.7	ND	ND	ND	1.27	ND	ND	ND	ND	ND	ND	0
57492	2016-08-19T11:00:00	68.6	ND	ND	ND	0.72	ND	ND	ND	ND	ND	ND	0
57493	2016-08-19T12:00:00	43.8	ND	ND	ND	0.46	ND	ND	ND	ND	ND	ND	0
57494	2016-08-19T13:00:00	47.6	ND	ND	ND	0.31	ND	ND	ND	ND	ND	ND	0
57495	2016-08-19T14:00:00	45.5	ND	ND	ND	0.77	ND	ND	ND	ND	ND	ND	0
57496	2016-08-19T15:00:00	33.8	ND	ND	ND	0.39	ND	ND	ND	ND	ND	ND	0
57497	2016-08-19T16:00:00	21.6	ND	ND	ND	0.35	ND	ND	ND	ND	ND	ND	0
57498	2016-08-19T17:00:00	26.6	ND	ND	ND	0.36	ND	ND	ND	ND	ND	ND	0
57499	2016-08-19T18:00:00	34.8	ND	ND	ND	0.20	ND	ND	ND	ND	ND	ND	0
57500	2016-08-19T19:00:00	23.1	ND	ND	ND	0.28	ND	ND	ND	ND	ND	ND	0
57501	2016-08-19T20:00:00	17	ND	ND	ND	0.26	ND	ND	ND	ND	ND	ND	0
57502	2016-08-19T21:00:00	9.7	ND	ND	ND	0.43	ND	ND	ND	ND	ND	ND	0
57503	2016-08-19T22:00:00	20.9	ND	ND	ND	0.32	ND	ND	ND	ND	ND	ND	0
57504	2016-08-19T23:00:00	42.3	ND	ND	ND	1.37	ND	ND	ND	ND	ND	ND	0
57505	2016-08-20T00:00:00	48.3	ND	ND	ND	0.75	ND	ND	ND	ND	ND	ND	0
57506	2016-08-20T01:00:00	26	ND	ND	ND	0.91	ND	ND	ND	ND	ND	ND	0
57507	2016-08-20T02:00:00	30	ND	ND	ND	1.10	ND	ND	ND	ND	ND	ND	0
57508	2016-08-20T03:00:00	33.5	ND	ND	ND	1.17	ND	ND	ND	ND	ND	ND	0
57509	2016-08-20T04:00:00	30.5	ND	ND	ND	1.10	ND	ND	ND	ND	ND	ND	0
57510	2016-08-20T05:00:00	31.7	ND	ND	ND	1.91	ND	ND	ND	ND	ND	ND	0
57511	2016-08-20T06:00:00	42.1	ND	ND	ND	1.70	ND	ND	ND	ND	ND	ND	0
57512	2016-08-20T07:00:00	67.6	ND	ND	ND	1.70	ND	ND	ND	ND	ND	ND	0
57513	2016-08-20T08:00:00	78.3	ND	ND	ND	1.67	ND	ND	ND	ND	ND	ND	0
57514	2016-08-20T09:00:00	100.7	ND	ND	ND	1.52	ND	ND	ND	ND	ND	ND	0
57515	2016-08-20T10:00:00	101.9	ND	ND	ND	2.15	ND	ND	ND	ND	ND	ND	0
57516	2016-08-20T11:00:00	95.4	ND	ND	ND	1.52	ND	ND	ND	ND	ND	ND	0
57517	2016-08-20T12:00:00	83.7	ND	ND	ND	0.89	ND	ND	ND	ND	ND	ND	0
57518	2016-08-20T13:00:00	70.9	ND	ND	ND	0.79	ND	ND	ND	ND	ND	ND	0
57519	2016-08-20T14:00:00	60.2	ND	ND	ND	0.57	ND	ND	ND	ND	ND	ND	0
57520	2016-08-20T15:00:00	59.3	ND	ND	ND	0.63	ND	ND	ND	ND	ND	ND	0
57521	2016-08-20T16:00:00	53.8	ND	ND	ND	0.56	ND	ND	ND	ND	ND	ND	0
57522	2016-08-20T17:00:00	30.5	ND	ND	ND	0.31	ND	ND	ND	ND	ND	ND	0
57523	2016-08-20T18:00:00	32.1	ND	ND	ND	0.31	ND	ND	ND	ND	ND	ND	0
57524	2016-08-20T19:00:00	24.8	ND	ND	ND	0.28	ND	ND	ND	ND	ND	ND	0
57525	2016-08-20T20:00:00	14.9	ND	ND	ND	0.32	ND	ND	ND	ND	ND	ND	0
57526	2016-08-20T21:00:00	23.4	ND	ND	ND	0.20	ND	ND	ND	ND	ND	ND	0
57527	2016-08-20T22:00:00	22.7	ND	ND	ND	0.36	ND	ND	ND	ND	ND	ND	0
57528	2016-08-20T23:00:00	13	ND	ND	ND	0.24	ND	ND	ND	ND	ND	ND	0
57529	2016-08-21T00:00:00	22.6	ND	ND	ND	1.02	ND	ND	ND	ND	ND	ND	0
57530	2016-08-21T01:00:00	42.7	ND	ND	ND	1.98	ND	ND	ND	ND	ND	ND	0
57531	2016-08-21T02:00:00	48.1	ND	ND	ND	1.63	ND	ND	ND	ND	ND	ND	0
57532	2016-08-21T03:00:00	27.5	ND	ND	ND	0.84	ND	ND	ND	ND	ND	ND	0
57533	2016-08-21T04:00:00	19.3	ND	ND	ND	4.20	ND	ND	ND	ND	ND	ND	0
57534	2016-08-21T05:00:00	42.6	ND	ND	ND	1.34	ND	ND	ND	ND	ND	ND	0
57535	2016-08-21T06:00:00	43.6	ND	ND	ND	1.31	ND	ND	ND	ND	ND	ND	0
57536	2016-08-21T07:00:00	32.4	ND	ND	ND	1.21	ND	ND	ND	ND	ND	ND	0
57537	2016-08-21T08:00:00	55.9	ND	ND	ND	1.87	ND	ND	ND	ND	ND	ND	0
57538	2016-08-21T09:00:00	93.4	ND	ND	ND	1.60	ND	ND	ND	ND	ND	ND	0
57539	2016-08-21T10:00:00	65.8	ND	ND	ND	0.67	ND	ND	ND	ND	ND	ND	0
57540	2016-08-21T11:00:00	44.6	ND	ND	ND	0.39	ND	ND	ND	ND	ND	ND	0
57541	2016-08-21T12:00:00	38.1	ND	ND	ND	0.32	ND	ND	ND	ND	ND	ND	0
57542	2016-08-21T13:00:00	31.2	ND	ND	ND	0.24	ND	ND	ND	ND	ND	ND	0
57543	2016-08-21T14:00:00	21.1	ND	ND	ND	0.18	ND	ND	ND	ND	ND	ND	0
57544	2016-08-21T15:00:00	ND	ND	ND	ND	0.26	ND	ND	ND	ND	ND	ND	0
57545	2016-08-21T16:00:00	ND	ND	ND	ND	0.24	ND	ND	ND	ND	ND	ND	0
57546	2016-08-21T17:00:00	4.7	ND	ND	ND	0.25	ND	ND	ND	ND	ND	ND	0
57547	2016-08-21T18:00:00	108.8	ND	ND	ND	0.21	ND	ND	ND	ND	ND	ND	0
57548	2016-08-21T19:00:00	66.3	ND	ND	ND	0.36	ND	ND	ND	ND	ND	ND	0
57549	2016-08-21T20:00:00	32.5	ND	ND	ND	0.36	ND	ND	ND	ND	ND	ND	0
57550	2016-08-21T21:00:00	23.3	ND	ND	ND	0.33	ND	ND	ND	ND	ND	ND	0
57551	2016-08-21T22:00:00	20.8	ND	ND	ND	0.26	ND	ND	ND	ND	ND	ND	0
57552	2016-08-21T23:00:00	12.4	ND	ND	ND	0.28	ND	ND	ND	ND	ND	ND	0
57553	2016-08-22T00:00:00	15.1	ND	ND	ND	0.74	ND	ND	ND	ND	ND	ND	0
57554	2016-08-22T01:00:00	18.5	ND	ND	ND	1.27	ND	ND	ND	ND	ND	ND	0
57555	2016-08-22T02:00:00	18.9	ND	ND	ND	3.12	ND	ND	ND	ND	ND	ND	0
57556	2016-08-22T03:00:00	27	ND	ND	ND	2.50	ND	ND	ND	ND	ND	ND	0
57557	2016-08-22T04:00:00	10.4	ND	ND	ND	1.00	ND	ND	ND	ND	ND	ND	0
57558	2016-08-22T05:00:00	ND	ND	ND	ND	1.32	ND	ND	ND	ND	ND	ND	0
57559	2016-08-22T06:00:00	28.3	ND	ND	ND	1.44	ND	ND	ND	ND	ND	ND	0
57560	2016-08-22T07:00:00	43.6	ND	ND	ND	0.64	ND	ND	ND	ND	ND	ND	0
57561	2016-08-22T08:00:00	29.9	ND	ND	ND	2.55	ND	ND	ND	ND	ND	ND	0
57562	2016-08-22T09:00:00	154.1	ND	ND	ND	3.15	ND	ND	ND	ND	ND	ND	0
57563	2016-08-22T10:00:00	124.5	ND	ND	ND	1.07	ND	ND	ND	ND	ND	ND	0
57564	2016-08-22T11:00:00	80.2	ND	ND	ND	0.63	ND	ND	ND	ND	ND	ND	0
57565	2016-08-22T12:00:00	75	ND	ND	ND	0.61	ND	ND	ND	ND	ND	ND	0
57566	2016-08-22T13:00:00	92.9	ND	ND	ND	0.81	ND	ND	ND	ND	ND	ND	0
57567	2016-08-22T14:00:00	115.6	ND	ND	ND	0.72	ND	ND	ND	ND	ND	ND	0
57568	2016-08-22T15:00:00	83.7	ND	ND	ND	0.66	ND	ND	ND	ND	ND	ND	0
57569	2016-08-22T16:00:00	42.1	ND	ND	ND	0.26	ND	ND	ND	ND	ND	ND	0
57570	2016-08-22T17:00:00	67.3	ND	ND	ND	0.45	ND	ND	ND	ND	ND	ND	0
57571	2016-08-22T18:00:00	72.5	ND	ND	ND	0.25	ND	ND	ND	ND	ND	ND	0
57572	2016-08-22T19:00:00	ND	ND	ND	ND	0.07	ND	ND	ND	ND	ND	ND	0
57573	2016-08-22T20:00:00	ND	ND	ND	ND	0.01	ND	ND	ND	ND	ND	ND	0
57574	2016-08-22T21:00:00	ND	ND	ND	ND	0.40	ND	ND	ND	ND	ND	ND	0
57575	2016-08-22T22:00:00	ND	ND	ND	ND	0.61	ND	ND	ND	ND	ND	ND	0
57576	2016-08-22T23:00:00	79.9	ND	ND	ND	1.00	ND	ND	ND	ND	ND	ND	0
57577	2016-08-23T00:00:00	86	ND	ND	ND	1.88	ND	ND	ND	ND	ND	ND	0
57578	2016-08-23T01:00:00	72.4	ND	ND	ND	9.67	ND	ND	ND	ND	ND	ND	0
57579	2016-08-23T02:00:00	65.3	ND	ND	ND	9.49	ND	ND	ND	ND	ND	ND	0
57580	2016-08-23T03:00:00	36.1	ND	ND	ND	2.69	ND	ND	ND	ND	ND	ND	0
57581	2016-08-23T04:00:00	15.3	ND	ND	ND	2.55	ND	ND	ND	ND	ND	ND	0
57582	2016-08-23T05:00:00	15.3	ND	ND	ND	1.07	ND	ND	ND	ND	ND	ND	0
57583	2016-08-23T06:00:00	ND	ND	ND	ND	0.71	ND	ND	ND	ND	ND	ND	0
57584	2016-08-23T07:00:00	26.8	ND	ND	ND	5.73	ND	ND	ND	ND	ND	ND	0
57585	2016-08-23T08:00:00	190.3	ND	ND	ND	3.19	ND	ND	ND	ND	ND	ND	0
57586	2016-08-23T09:00:00	166	ND	ND	ND	4.84	ND	ND	ND	ND	ND	ND	0
57587	2016-08-23T10:00:00	119.3	ND	ND	ND	1.51	ND	ND	ND	ND	ND	ND	0
57588	2016-08-23T11:00:00	40.6	ND	ND	ND	0.72	ND	ND	ND	ND	ND	ND	0
57589	2016-08-23T12:00:00	117.5	ND	ND	ND	0.39	ND	ND	ND	ND	ND	ND	0
57590	2016-08-23T13:00:00	ND	ND	ND	ND	0.31	ND	ND	ND	ND	ND	ND	0
57591	2016-08-23T14:00:00	99.9	ND	ND	ND	0.52	ND	ND	ND	ND	ND	ND	0
57592	2016-08-23T15:00:00	55.6	ND	ND	ND	0.24	ND	ND	ND	ND	ND	ND	0
57593	2016-08-23T16:00:00	55.1	ND	ND	ND	0.88	ND	ND	ND	ND	ND	ND	0
57594	2016-08-23T17:00:00	45.7	ND	ND	ND	0.45	ND	ND	ND	ND	ND	ND	0
57595	2016-08-23T18:00:00	48.8	ND	ND	ND	0.39	ND	ND	ND	ND	ND	ND	0
57596	2016-08-23T19:00:00	55.8	ND	ND	ND	0.45	ND	ND	ND	ND	ND	ND	0
57597	2016-08-23T20:00:00	38.6	ND	ND	ND	0.29	ND	ND	ND	ND	ND	ND	0
57598	2016-08-23T21:00:00	38.5	ND	ND	ND	0.40	ND	ND	ND	ND	ND	ND	0
57599	2016-08-23T22:00:00	24.6	ND	ND	ND	0.36	ND	ND	ND	ND	ND	ND	0
57600	2016-08-23T23:00:00	18.5	ND	ND	ND	0.15	ND	ND	ND	ND	ND	ND	0
57601	2016-08-24T00:00:00	34.8	ND	ND	ND	1.07	ND	ND	ND	ND	ND	ND	0
57602	2016-08-24T01:00:00	30.4	ND	ND	ND	0.53	ND	ND	ND	ND	ND	ND	0
57603	2016-08-24T02:00:00	29.9	ND	ND	ND	5.59	ND	ND	ND	ND	ND	ND	0
57604	2016-08-24T03:00:00	53.2	ND	ND	ND	2.86	ND	ND	ND	ND	ND	ND	0
57605	2016-08-24T04:00:00	44.6	ND	ND	ND	0.54	ND	ND	ND	ND	ND	ND	0
57606	2016-08-24T05:00:00	12.9	ND	ND	ND	2.01	ND	ND	ND	ND	ND	ND	0
57607	2016-08-24T06:00:00	65.3	ND	ND	ND	2.56	ND	ND	ND	ND	ND	ND	0
57608	2016-08-24T07:00:00	77.6	ND	ND	ND	2.83	ND	ND	ND	ND	ND	ND	0
57609	2016-08-24T08:00:00	100.1	ND	ND	ND	2.72	ND	ND	ND	ND	ND	ND	0
57610	2016-08-24T09:00:00	128.7	ND	ND	ND	4.70	ND	ND	ND	ND	ND	ND	0
57611	2016-08-24T10:00:00	119.3	ND	ND	ND	1.81	ND	ND	ND	ND	ND	ND	0
57612	2016-08-24T11:00:00	77.2	ND	ND	ND	0.86	ND	ND	ND	ND	ND	ND	0
57613	2016-08-24T12:00:00	16.1	ND	ND	ND	0.47	ND	ND	ND	ND	ND	ND	0
57614	2016-08-24T13:00:00	42.2	ND	ND	ND	0.59	ND	ND	ND	ND	ND	ND	0
57615	2016-08-24T14:00:00	77	ND	ND	ND	0.52	ND	ND	ND	ND	ND	ND	0
57616	2016-08-24T15:00:00	76.8	ND	ND	ND	1.00	ND	ND	ND	ND	ND	ND	0
57617	2016-08-24T16:00:00	67.3	ND	ND	ND	0.67	ND	ND	ND	ND	ND	ND	0
57618	2016-08-24T17:00:00	39.2	ND	ND	ND	0.24	ND	ND	ND	ND	ND	ND	0
57619	2016-08-24T18:00:00	51.9	ND	ND	ND	0.28	ND	ND	ND	ND	ND	ND	0
57620	2016-08-24T19:00:00	28.8	ND	ND	ND	0.21	ND	ND	ND	ND	ND	ND	0
57621	2016-08-24T20:00:00	31.8	ND	ND	ND	0.36	ND	ND	ND	ND	ND	ND	0
57622	2016-08-24T21:00:00	28.6	ND	ND	ND	0.29	ND	ND	ND	ND	ND	ND	0
57623	2016-08-24T22:00:00	18.9	ND	ND	ND	0.46	ND	ND	ND	ND	ND	ND	0
57624	2016-08-24T23:00:00	19.9	ND	ND	ND	0.28	ND	ND	ND	ND	ND	ND	0
57625	2016-08-25T00:00:00	4.8	ND	ND	ND	0.24	ND	ND	ND	ND	ND	ND	0
57626	2016-08-25T01:00:00	4.7	ND	ND	ND	0.42	ND	ND	ND	ND	ND	ND	0
57627	2016-08-25T02:00:00	25.2	ND	ND	ND	0.86	ND	ND	ND	ND	ND	ND	0
57628	2016-08-25T03:00:00	42.1	ND	ND	ND	0.93	ND	ND	ND	ND	ND	ND	0
57629	2016-08-25T04:00:00	41.9	ND	ND	ND	0.77	ND	ND	ND	ND	ND	ND	0
57630	2016-08-25T05:00:00	40.3	ND	ND	ND	1.71	ND	ND	ND	ND	ND	ND	0
57631	2016-08-25T06:00:00	52.4	ND	ND	ND	1.44	ND	ND	ND	ND	ND	ND	0
57632	2016-08-25T07:00:00	66.1	ND	ND	ND	0.85	ND	ND	ND	ND	ND	ND	0
57633	2016-08-25T08:00:00	77.1	ND	ND	ND	0.64	ND	ND	ND	ND	ND	ND	0
57634	2016-08-25T09:00:00	68.1	ND	ND	ND	0.32	ND	ND	ND	ND	ND	ND	0
57635	2016-08-25T10:00:00	61.9	ND	ND	ND	0.70	ND	ND	ND	ND	ND	ND	0
57636	2016-08-25T11:00:00	44.6	ND	ND	ND	0.46	ND	ND	ND	ND	ND	ND	0
57637	2016-08-25T12:00:00	53.7	ND	ND	ND	0.54	ND	ND	ND	ND	ND	ND	0
57638	2016-08-25T13:00:00	57.1	ND	ND	ND	0.33	ND	ND	ND	ND	ND	ND	0
57639	2016-08-25T14:00:00	62.6	ND	ND	ND	0.49	ND	ND	ND	ND	ND	ND	0
57640	2016-08-25T15:00:00	50.3	ND	ND	ND	0.39	ND	ND	ND	ND	ND	ND	0
57641	2016-08-25T16:00:00	50.3	ND	ND	ND	0.28	ND	ND	ND	ND	ND	ND	0
57642	2016-08-25T17:00:00	40.6	ND	ND	ND	0.33	ND	ND	ND	ND	ND	ND	0
57643	2016-08-25T18:00:00	49.7	ND	ND	ND	0.22	ND	ND	ND	ND	ND	ND	0
57644	2016-08-25T19:00:00	52.5	ND	ND	ND	0.17	ND	ND	ND	ND	ND	ND	0
57645	2016-08-25T20:00:00	41.1	ND	ND	ND	0.15	ND	ND	ND	ND	ND	ND	0
57646	2016-08-25T21:00:00	23.4	ND	ND	ND	0.20	ND	ND	ND	ND	ND	ND	0
57647	2016-08-25T22:00:00	21	ND	ND	ND	0.25	ND	ND	ND	ND	ND	ND	0
57648	2016-08-25T23:00:00	33.1	ND	ND	ND	0.60	ND	ND	ND	ND	ND	ND	0
57649	2016-08-26T00:00:00	31.4	ND	ND	ND	0.54	ND	ND	ND	ND	ND	ND	0
57650	2016-08-26T01:00:00	29.5	ND	ND	ND	0.52	ND	ND	ND	ND	ND	ND	0
57651	2016-08-26T02:00:00	25.1	ND	ND	ND	0.89	ND	ND	ND	ND	ND	ND	0
57652	2016-08-26T03:00:00	29.3	ND	ND	ND	1.14	ND	ND	ND	ND	ND	ND	0
57653	2016-08-26T04:00:00	41.2	ND	ND	ND	2.50	ND	ND	ND	ND	ND	ND	0
57654	2016-08-26T05:00:00	51	ND	ND	ND	2.23	ND	ND	ND	ND	ND	ND	0
57655	2016-08-26T06:00:00	55.4	ND	ND	ND	1.52	ND	ND	ND	ND	ND	ND	0
57656	2016-08-26T07:00:00	58.2	ND	ND	ND	1.84	ND	ND	ND	ND	ND	ND	0
57657	2016-08-26T08:00:00	72.3	ND	ND	ND	1.55	ND	ND	ND	ND	ND	ND	0
57658	2016-08-26T09:00:00	102.9	ND	ND	ND	2.30	ND	ND	ND	ND	ND	ND	0
57659	2016-08-26T10:00:00	113.1	ND	ND	ND	2.27	ND	ND	ND	ND	ND	ND	0
57660	2016-08-26T11:00:00	92.7	ND	ND	ND	1.42	ND	ND	ND	ND	ND	ND	0
57661	2016-08-26T12:00:00	69.8	ND	ND	ND	0.81	ND	ND	ND	ND	ND	ND	0
57662	2016-08-26T13:00:00	58	ND	ND	ND	0.39	ND	ND	ND	ND	ND	ND	0
57663	2016-08-26T14:00:00	33.6	ND	ND	ND	0.28	ND	ND	ND	ND	ND	ND	0.76
57664	2016-08-26T15:00:00	32.6	ND	ND	ND	0.22	ND	ND	ND	ND	ND	ND	0
57665	2016-08-26T16:00:00	51.5	ND	ND	ND	0.26	ND	ND	ND	ND	ND	ND	0
57666	2016-08-26T17:00:00	35.6	ND	ND	ND	0.39	ND	ND	ND	ND	ND	ND	0
57667	2016-08-26T18:00:00	24.2	ND	ND	ND	0.26	ND	ND	ND	ND	ND	ND	0
57668	2016-08-26T19:00:00	22.1	ND	ND	ND	0.49	ND	ND	ND	ND	ND	ND	0
57669	2016-08-26T20:00:00	12.7	ND	ND	ND	0.20	ND	ND	ND	ND	ND	ND	0
57670	2016-08-26T21:00:00	20.4	ND	ND	ND	0.35	ND	ND	ND	ND	ND	ND	0
57671	2016-08-26T22:00:00	13	ND	ND	ND	0.61	ND	ND	ND	ND	ND	ND	0
57672	2016-08-26T23:00:00	22.2	ND	ND	ND	1.35	ND	ND	ND	ND	ND	ND	0
57673	2016-08-27T00:00:00	39.4	ND	ND	ND	0.46	ND	ND	ND	ND	ND	ND	0
57674	2016-08-27T01:00:00	37.7	ND	ND	ND	1.05	ND	ND	ND	ND	ND	ND	0
57675	2016-08-27T02:00:00	33.8	ND	ND	ND	0.79	ND	ND	ND	ND	ND	ND	0
57676	2016-08-27T03:00:00	31.5	ND	ND	ND	1.21	ND	ND	ND	ND	ND	ND	0
57677	2016-08-27T04:00:00	42.5	ND	ND	ND	1.02	ND	ND	ND	ND	ND	ND	0
57678	2016-08-27T05:00:00	36.9	ND	ND	ND	1.30	ND	ND	ND	ND	ND	ND	0
57679	2016-08-27T06:00:00	46.9	ND	ND	ND	3.19	ND	ND	ND	ND	ND	ND	0
57680	2016-08-27T07:00:00	50.5	ND	ND	ND	2.94	ND	ND	ND	ND	ND	ND	0
57681	2016-08-27T08:00:00	49.1	ND	ND	ND	2.98	ND	ND	ND	ND	ND	ND	0
57682	2016-08-27T09:00:00	63.5	ND	ND	ND	1.35	ND	ND	ND	ND	ND	ND	0
57683	2016-08-27T10:00:00	58.9	ND	ND	ND	1.17	ND	ND	ND	ND	ND	ND	0
57684	2016-08-27T11:00:00	58	ND	ND	ND	0.96	ND	ND	ND	ND	ND	ND	0
57685	2016-08-27T12:00:00	41.7	ND	ND	ND	0.22	ND	ND	ND	ND	ND	ND	0
57686	2016-08-27T13:00:00	29.2	ND	ND	ND	0.57	ND	ND	ND	ND	ND	ND	0
57687	2016-08-27T14:00:00	36.5	ND	ND	ND	0.29	ND	ND	ND	ND	ND	ND	0
57688	2016-08-27T15:00:00	40.2	ND	ND	ND	0.33	ND	ND	ND	ND	ND	ND	0
57689	2016-08-27T16:00:00	48.1	ND	ND	ND	0.28	ND	ND	ND	ND	ND	ND	0
57690	2016-08-27T17:00:00	52.1	ND	ND	ND	0.32	ND	ND	ND	ND	ND	ND	0
57691	2016-08-27T18:00:00	40.6	ND	ND	ND	0.46	ND	ND	ND	ND	ND	ND	0
57692	2016-08-27T19:00:00	36.3	ND	ND	ND	0.38	ND	ND	ND	ND	ND	ND	0
57693	2016-08-27T20:00:00	45	ND	ND	ND	0.32	ND	ND	ND	ND	ND	ND	0
57694	2016-08-27T21:00:00	26.2	ND	ND	ND	0.20	ND	ND	ND	ND	ND	ND	0
57695	2016-08-27T22:00:00	12.9	ND	ND	ND	0.33	ND	ND	ND	ND	ND	ND	0
57696	2016-08-27T23:00:00	32.1	ND	ND	ND	0.93	ND	ND	ND	ND	ND	ND	0
57697	2016-08-28T00:00:00	42.4	ND	ND	ND	0.25	ND	ND	ND	ND	ND	ND	0
57698	2016-08-28T01:00:00	27.3	ND	ND	ND	1.23	ND	ND	ND	ND	ND	ND	0
57699	2016-08-28T02:00:00	45.7	ND	ND	ND	2.45	ND	ND	ND	ND	ND	ND	0
57700	2016-08-28T03:00:00	55.9	ND	ND	ND	1.73	ND	ND	ND	ND	ND	ND	0
57701	2016-08-28T04:00:00	51.1	ND	ND	ND	1.88	ND	ND	ND	ND	ND	ND	0
57702	2016-08-28T05:00:00	51.6	ND	ND	ND	2.30	ND	ND	ND	ND	ND	ND	0
57703	2016-08-28T06:00:00	58	ND	ND	ND	2.06	ND	ND	ND	ND	ND	ND	0
57704	2016-08-28T07:00:00	48.5	ND	ND	ND	1.06	ND	ND	ND	ND	ND	ND	0
57705	2016-08-28T08:00:00	38.2	ND	ND	ND	1.88	ND	ND	ND	ND	ND	ND	0
57706	2016-08-28T09:00:00	62	ND	ND	ND	1.91	ND	ND	ND	ND	ND	ND	0
57707	2016-08-28T10:00:00	59.9	ND	ND	ND	1.49	ND	ND	ND	ND	ND	ND	0
57708	2016-08-28T11:00:00	61.7	ND	ND	ND	0.64	ND	ND	ND	ND	ND	ND	0
57709	2016-08-28T12:00:00	50.7	ND	ND	ND	0.53	ND	ND	ND	ND	ND	ND	0
57710	2016-08-28T13:00:00	37.9	ND	ND	ND	0.42	ND	ND	ND	ND	ND	ND	0
57711	2016-08-28T14:00:00	36.1	ND	ND	ND	0.38	ND	ND	ND	ND	ND	ND	0
57712	2016-08-28T15:00:00	28.8	ND	ND	ND	0.32	ND	ND	ND	ND	ND	ND	0
57713	2016-08-28T16:00:00	31.4	ND	ND	ND	0.15	ND	ND	ND	ND	ND	ND	0
57714	2016-08-28T17:00:00	26.5	ND	ND	ND	0.28	ND	ND	ND	ND	ND	ND	0
57715	2016-08-28T18:00:00	23.5	ND	ND	ND	0.18	ND	ND	ND	ND	ND	ND	0
57716	2016-08-28T19:00:00	20.2	ND	ND	ND	0.38	ND	ND	ND	ND	ND	ND	0
57717	2016-08-28T20:00:00	16.2	ND	ND	ND	0.29	ND	ND	ND	ND	ND	ND	0
57718	2016-08-28T21:00:00	9.2	ND	ND	ND	0.29	ND	ND	ND	ND	ND	ND	0
57719	2016-08-28T22:00:00	10.7	ND	ND	ND	0.61	ND	ND	ND	ND	ND	ND	8.13
57720	2016-08-28T23:00:00	46.5	ND	ND	ND	0.42	ND	ND	ND	ND	ND	ND	0.25
57721	2016-08-29T00:00:00	45.2	ND	ND	ND	0.46	ND	ND	ND	ND	ND	ND	0
57722	2016-08-29T01:00:00	23.6	ND	ND	ND	0.56	ND	ND	ND	ND	ND	ND	0
57723	2016-08-29T02:00:00	14.8	ND	ND	ND	1.35	ND	ND	ND	ND	ND	ND	0
57724	2016-08-29T03:00:00	35.3	ND	ND	ND	1.84	ND	ND	ND	ND	ND	ND	0
57725	2016-08-29T04:00:00	43.3	ND	ND	ND	1.58	ND	ND	ND	ND	ND	ND	0
57726	2016-08-29T05:00:00	36	ND	ND	ND	1.25	ND	ND	ND	ND	ND	ND	0
57727	2016-08-29T06:00:00	25.4	ND	ND	ND	0.93	ND	ND	ND	ND	ND	ND	0
57728	2016-08-29T07:00:00	22.8	ND	ND	ND	0.50	ND	ND	ND	ND	ND	ND	0
57729	2016-08-29T08:00:00	39.1	ND	ND	ND	4.17	ND	ND	ND	ND	ND	ND	0
57730	2016-08-29T09:00:00	75.1	ND	ND	ND	2.12	ND	ND	ND	ND	ND	ND	0
57731	2016-08-29T10:00:00	54.3	ND	ND	ND	1.03	ND	ND	ND	ND	ND	ND	0
57732	2016-08-29T11:00:00	50.7	ND	ND	ND	0.70	ND	ND	ND	ND	ND	ND	0
57733	2016-08-29T12:00:00	61.2	ND	ND	ND	0.82	ND	ND	ND	ND	ND	ND	0
57734	2016-08-29T13:00:00	73.5	ND	ND	ND	0.78	ND	ND	ND	ND	ND	ND	0
57735	2016-08-29T14:00:00	71.2	ND	ND	ND	0.75	ND	ND	ND	ND	ND	ND	0
57736	2016-08-29T15:00:00	50.2	ND	ND	ND	0.29	ND	ND	ND	ND	ND	ND	0
57737	2016-08-29T16:00:00	37.9	ND	ND	ND	0.13	ND	ND	ND	ND	ND	ND	0
57738	2016-08-29T17:00:00	9.8	ND	ND	ND	0.32	ND	ND	ND	ND	ND	ND	0
57739	2016-08-29T18:00:00	19.3	ND	ND	ND	0.20	ND	ND	ND	ND	ND	ND	0
57740	2016-08-29T19:00:00	31.5	ND	ND	ND	0.40	ND	ND	ND	ND	ND	ND	0
57741	2016-08-29T20:00:00	17	ND	ND	ND	0.28	ND	ND	ND	ND	ND	ND	0
57742	2016-08-29T21:00:00	16.2	ND	ND	ND	0.42	ND	ND	ND	ND	ND	ND	0
57743	2016-08-29T22:00:00	21.4	ND	ND	ND	0.84	ND	ND	ND	ND	ND	ND	0
57744	2016-08-29T23:00:00	26.1	ND	ND	ND	1.05	ND	ND	ND	ND	ND	ND	0
57745	2016-08-30T00:00:00	30.4	ND	ND	ND	0.84	ND	ND	ND	ND	ND	ND	0
57746	2016-08-30T01:00:00	29.2	ND	ND	ND	0.91	ND	ND	ND	ND	ND	ND	0
57747	2016-08-30T02:00:00	30.3	ND	ND	ND	1.05	ND	ND	ND	ND	ND	ND	0
57748	2016-08-30T03:00:00	39.3	ND	ND	ND	1.24	ND	ND	ND	ND	ND	ND	0
57749	2016-08-30T04:00:00	39.2	ND	ND	ND	1.58	ND	ND	ND	ND	ND	ND	0
57750	2016-08-30T05:00:00	29	ND	ND	ND	1.98	ND	ND	ND	ND	ND	ND	0
57751	2016-08-30T06:00:00	47.8	ND	ND	ND	3.79	ND	ND	ND	ND	ND	ND	0
57752	2016-08-30T07:00:00	62.7	ND	ND	ND	2.52	ND	ND	ND	ND	ND	ND	0
57753	2016-08-30T08:00:00	83	ND	ND	ND	1.95	ND	ND	ND	ND	ND	ND	0
57754	2016-08-30T09:00:00	76.7	ND	ND	ND	1.02	ND	ND	ND	ND	ND	ND	0
57755	2016-08-30T10:00:00	71.1	ND	ND	ND	1.62	ND	ND	ND	ND	ND	ND	0
57756	2016-08-30T11:00:00	ND	ND	ND	ND	ND	ND	ND	ND	ND	ND	ND	0
57757	2016-08-30T12:00:00	53.5	ND	ND	ND	1.88	ND	ND	ND	ND	ND	ND	0
57758	2016-08-30T13:00:00	97.8	ND	ND	ND	0.52	ND	ND	ND	ND	ND	ND	0
57759	2016-08-30T14:00:00	60.8	ND	ND	ND	0.56	ND	ND	ND	ND	ND	ND	0
57760	2016-08-30T15:00:00	61.1	ND	ND	ND	1.37	ND	ND	ND	ND	ND	ND	0
57761	2016-08-30T16:00:00	61.8	ND	ND	ND	0.57	ND	ND	ND	ND	ND	ND	0
57762	2016-08-30T17:00:00	37.5	ND	ND	ND	0.64	ND	ND	ND	ND	ND	ND	0
57763	2016-08-30T18:00:00	24.7	ND	ND	ND	0.29	ND	ND	ND	ND	ND	ND	0
57764	2016-08-30T19:00:00	9.8	ND	ND	ND	0.35	ND	ND	ND	ND	ND	ND	0
57765	2016-08-30T20:00:00	2.1	ND	ND	ND	0.15	ND	ND	ND	ND	ND	ND	0
57766	2016-08-30T21:00:00	4.9	ND	ND	ND	0.26	ND	ND	ND	ND	ND	ND	0
57767	2016-08-30T22:00:00	5.6	ND	ND	ND	0.25	ND	ND	ND	ND	ND	ND	0
57768	2016-08-30T23:00:00	11.8	ND	ND	ND	0.29	ND	ND	ND	ND	ND	ND	0
57769	2016-08-31T00:00:00	17.1	ND	ND	ND	0.59	ND	ND	ND	ND	ND	ND	0
57770	2016-08-31T01:00:00	38.3	ND	ND	ND	1.12	ND	ND	ND	ND	ND	ND	0
57771	2016-08-31T02:00:00	44.9	ND	ND	ND	0.99	ND	ND	ND	ND	ND	ND	0
57772	2016-08-31T03:00:00	32.3	ND	ND	ND	2.52	ND	ND	ND	ND	ND	ND	0
57773	2016-08-31T04:00:00	44.7	ND	ND	ND	2.91	ND	ND	ND	ND	ND	ND	0
57774	2016-08-31T05:00:00	46.5	ND	ND	ND	2.76	ND	ND	ND	ND	ND	ND	0
57775	2016-08-31T06:00:00	55.6	ND	ND	ND	2.15	ND	ND	ND	ND	ND	ND	0
57776	2016-08-31T07:00:00	71.5	ND	ND	ND	3.75	ND	ND	ND	ND	ND	ND	0
57777	2016-08-31T08:00:00	80.6	ND	ND	ND	2.37	ND	ND	ND	ND	ND	ND	0
57778	2016-08-31T09:00:00	93.9	ND	ND	ND	2.45	ND	ND	ND	ND	ND	ND	0
57779	2016-08-31T10:00:00	89.1	ND	ND	ND	1.48	ND	ND	ND	ND	ND	ND	0
57780	2016-08-31T11:00:00	73.6	ND	ND	ND	1.24	ND	ND	ND	ND	ND	ND	0
57781	2016-08-31T12:00:00	67.6	ND	ND	ND	0.78	ND	ND	ND	ND	ND	ND	0
57782	2016-08-31T13:00:00	72.2	ND	ND	ND	0.81	ND	ND	ND	ND	ND	ND	0
57783	2016-08-31T14:00:00	57.8	ND	ND	ND	0.79	ND	ND	ND	ND	ND	ND	0
57784	2016-08-31T15:00:00	46.8	ND	ND	ND	0.39	ND	ND	ND	ND	ND	ND	0
57785	2016-08-31T16:00:00	31.1	ND	ND	ND	0.22	ND	ND	ND	ND	ND	ND	0
57786	2016-08-31T17:00:00	18.8	ND	ND	ND	0.25	ND	ND	ND	ND	ND	ND	0
57787	2016-08-31T18:00:00	19.7	ND	ND	ND	0.46	ND	ND	ND	ND	ND	ND	0
57788	2016-08-31T19:00:00	41.5	ND	ND	ND	0.78	ND	ND	ND	ND	ND	ND	0
57789	2016-08-31T20:00:00	57.5	ND	ND	ND	1.24	ND	ND	ND	ND	ND	ND	0
57790	2016-08-31T21:00:00	42.7	ND	ND	ND	0.96	ND	ND	ND	ND	ND	ND	4.06
57791	2016-08-31T22:00:00	21.4	ND	ND	ND	0.61	ND	ND	ND	ND	ND	ND	1.27
57792	2016-08-31T23:00:00	7.1	ND	ND	ND	0.67	ND	ND	ND	ND	ND	ND	0
57793	2016-09-01T00:00:00	24.1	ND	ND	ND	0.70	ND	ND	ND	ND	ND	ND	0
57794	2016-09-01T01:00:00	20.4	ND	ND	ND	0.54	ND	ND	ND	ND	ND	ND	0
57795	2016-09-01T02:00:00	17.5	ND	ND	ND	0.52	ND	ND	ND	ND	ND	ND	0.25
57796	2016-09-01T03:00:00	9.7	ND	ND	ND	0.74	ND	ND	ND	ND	ND	ND	3.81
57797	2016-09-01T04:00:00	23	ND	ND	ND	0.77	ND	ND	ND	ND	ND	ND	4.83
57798	2016-09-01T05:00:00	15.5	ND	ND	ND	0.63	ND	ND	ND	ND	ND	ND	1.52
57799	2016-09-01T06:00:00	14.8	ND	ND	ND	1.52	ND	ND	ND	ND	ND	ND	14.73
57800	2016-09-01T07:00:00	17.2	ND	ND	ND	1.38	ND	ND	ND	ND	ND	ND	5.59
57801	2016-09-01T08:00:00	21.1	ND	ND	ND	0.92	ND	ND	ND	ND	ND	ND	6.35
57802	2016-09-01T09:00:00	16.9	ND	ND	ND	0.42	ND	ND	ND	ND	ND	ND	2.79
57803	2016-09-01T10:00:00	27.9	ND	ND	ND	0.89	ND	ND	ND	ND	ND	ND	0.51
57804	2016-09-01T11:00:00	35.3	ND	ND	ND	0.53	ND	ND	ND	ND	ND	ND	0
57805	2016-09-01T12:00:00	41.9	ND	ND	ND	0.18	ND	ND	ND	ND	ND	ND	0
57806	2016-09-01T13:00:00	44.5	ND	ND	ND	0.32	ND	ND	ND	ND	ND	ND	0
57807	2016-09-01T14:00:00	38.4	ND	ND	ND	0.26	ND	ND	ND	ND	ND	ND	0
57808	2016-09-01T15:00:00	45	ND	ND	ND	0.43	ND	ND	ND	ND	ND	ND	0
57809	2016-09-01T16:00:00	44.5	ND	ND	ND	0.35	ND	ND	ND	ND	ND	ND	0
57810	2016-09-01T17:00:00	46.3	ND	ND	ND	0.32	ND	ND	ND	ND	ND	ND	0
57811	2016-09-01T18:00:00	32.7	ND	ND	ND	0.29	ND	ND	ND	ND	ND	ND	0
57812	2016-09-01T19:00:00	25	ND	ND	ND	0.29	ND	ND	ND	ND	ND	ND	0
57813	2016-09-01T20:00:00	9.9	ND	ND	ND	0.17	ND	ND	ND	ND	ND	ND	0
57814	2016-09-01T21:00:00	8.9	ND	ND	ND	0.17	ND	ND	ND	ND	ND	ND	0
57815	2016-09-01T22:00:00	13.9	ND	ND	ND	0.54	ND	ND	ND	ND	ND	ND	0
57816	2016-09-01T23:00:00	45.3	ND	ND	ND	1.64	ND	ND	ND	ND	ND	ND	0
57817	2016-09-02T00:00:00	53.2	ND	ND	ND	0.43	ND	ND	ND	ND	ND	ND	0
57818	2016-09-02T01:00:00	25.6	ND	ND	ND	0.40	ND	ND	ND	ND	ND	ND	0
57819	2016-09-02T02:00:00	5.8	ND	ND	ND	0.40	ND	ND	ND	ND	ND	ND	0
57820	2016-09-02T03:00:00	12.7	ND	ND	ND	1.45	ND	ND	ND	ND	ND	ND	0
57821	2016-09-02T04:00:00	30.3	ND	ND	ND	1.84	ND	ND	ND	ND	ND	ND	0
57822	2016-09-02T05:00:00	36	ND	ND	ND	4.45	ND	ND	ND	ND	ND	ND	0
57823	2016-09-02T06:00:00	56.4	ND	ND	ND	3.42	ND	ND	ND	ND	ND	ND	0
57824	2016-09-02T07:00:00	62.8	ND	ND	ND	3.07	ND	ND	ND	ND	ND	ND	0
57825	2016-09-02T08:00:00	57.5	ND	ND	ND	1.58	ND	ND	ND	ND	ND	ND	0
57826	2016-09-02T09:00:00	94	ND	ND	ND	1.34	ND	ND	ND	ND	ND	ND	0
57827	2016-09-02T10:00:00	82	ND	ND	ND	1.05	ND	ND	ND	ND	ND	ND	0
57828	2016-09-02T11:00:00	65.7	ND	ND	ND	0.40	ND	ND	ND	ND	ND	ND	0
57829	2016-09-02T12:00:00	56.9	ND	ND	ND	0.43	ND	ND	ND	ND	ND	ND	0
57830	2016-09-02T13:00:00	43.4	ND	ND	ND	0.50	ND	ND	ND	ND	ND	ND	0
57831	2016-09-02T14:00:00	56.5	ND	ND	ND	0.64	ND	ND	ND	ND	ND	ND	0
57832	2016-09-02T15:00:00	60	ND	ND	ND	0.39	ND	ND	ND	ND	ND	ND	0
57833	2016-09-02T16:00:00	36.6	ND	ND	ND	0.28	ND	ND	ND	ND	ND	ND	0
57834	2016-09-02T17:00:00	33.2	ND	ND	ND	0.22	ND	ND	ND	ND	ND	ND	0
57835	2016-09-02T18:00:00	22.5	ND	ND	ND	0.32	ND	ND	ND	ND	ND	ND	0
57836	2016-09-02T19:00:00	24.7	ND	ND	ND	0.21	ND	ND	ND	ND	ND	ND	0
57837	2016-09-02T20:00:00	21.6	ND	ND	ND	0.14	ND	ND	ND	ND	ND	ND	0
57838	2016-09-02T21:00:00	15	ND	ND	ND	0.20	ND	ND	ND	ND	ND	ND	0
57839	2016-09-02T22:00:00	14.1	ND	ND	ND	0.25	ND	ND	ND	ND	ND	ND	0
57840	2016-09-02T23:00:00	10.7	ND	ND	ND	0.38	ND	ND	ND	ND	ND	ND	0
57841	2016-09-03T00:00:00	15.6	ND	ND	ND	0.57	ND	ND	ND	ND	ND	ND	0
57842	2016-09-03T01:00:00	36.6	ND	ND	ND	0.61	ND	ND	ND	ND	ND	ND	0
57843	2016-09-03T02:00:00	40	ND	ND	ND	0.92	ND	ND	ND	ND	ND	ND	0
57844	2016-09-03T03:00:00	51.4	ND	ND	ND	1.44	ND	ND	ND	ND	ND	ND	0
57845	2016-09-03T04:00:00	49.3	ND	ND	ND	1.00	ND	ND	ND	ND	ND	ND	0
57846	2016-09-03T05:00:00	18.3	ND	ND	ND	0.38	ND	ND	ND	ND	ND	ND	0
57847	2016-09-03T06:00:00	1.4	ND	ND	ND	0.49	ND	ND	ND	ND	ND	ND	0
57848	2016-09-03T07:00:00	25.1	ND	ND	ND	2.20	ND	ND	ND	ND	ND	ND	0
57849	2016-09-03T08:00:00	90.6	ND	ND	ND	1.25	ND	ND	ND	ND	ND	ND	0
57850	2016-09-03T09:00:00	95	ND	ND	ND	0.99	ND	ND	ND	ND	ND	ND	0
57851	2016-09-03T10:00:00	74.7	ND	ND	ND	0.79	ND	ND	ND	ND	ND	ND	0
57852	2016-09-03T11:00:00	65.7	ND	ND	ND	0.36	ND	ND	ND	ND	ND	ND	0
57853	2016-09-03T12:00:00	66.1	ND	ND	ND	0.25	ND	ND	ND	ND	ND	ND	0
57854	2016-09-03T13:00:00	44.2	ND	ND	ND	0.33	ND	ND	ND	ND	ND	ND	0
57855	2016-09-03T14:00:00	43.5	ND	ND	ND	0.43	ND	ND	ND	ND	ND	ND	0
57856	2016-09-03T15:00:00	45.9	ND	ND	ND	0.32	ND	ND	ND	ND	ND	ND	0
57857	2016-09-03T16:00:00	37.7	ND	ND	ND	0.32	ND	ND	ND	ND	ND	ND	0
57858	2016-09-03T17:00:00	36.6	ND	ND	ND	0.14	ND	ND	ND	ND	ND	ND	0
57859	2016-09-03T18:00:00	39.3	ND	ND	ND	0.20	ND	ND	ND	ND	ND	ND	0
57860	2016-09-03T19:00:00	29.6	ND	ND	ND	0.17	ND	ND	ND	ND	ND	ND	0
57861	2016-09-03T20:00:00	17.1	ND	ND	ND	0.13	ND	ND	ND	ND	ND	ND	0
57862	2016-09-03T21:00:00	10.1	ND	ND	ND	0.14	ND	ND	ND	ND	ND	ND	0
57863	2016-09-03T22:00:00	13.1	ND	ND	ND	0.99	ND	ND	ND	ND	ND	ND	0
57864	2016-09-03T23:00:00	33.8	ND	ND	ND	0.63	ND	ND	ND	ND	ND	ND	0
57865	2016-09-04T00:00:00	40.3	ND	ND	ND	0.77	ND	ND	ND	ND	ND	ND	0
57866	2016-09-04T01:00:00	23	ND	ND	ND	0.29	ND	ND	ND	ND	ND	ND	0
57867	2016-09-04T02:00:00	27.3	ND	ND	ND	1.70	ND	ND	ND	ND	ND	ND	0
57868	2016-09-04T03:00:00	36	ND	ND	ND	1.91	ND	ND	ND	ND	ND	ND	0
57869	2016-09-04T04:00:00	43.9	ND	ND	ND	1.51	ND	ND	ND	ND	ND	ND	0
57870	2016-09-04T05:00:00	35.8	ND	ND	ND	1.42	ND	ND	ND	ND	ND	ND	0
57871	2016-09-04T06:00:00	40.3	ND	ND	ND	1.66	ND	ND	ND	ND	ND	ND	0
57872	2016-09-04T07:00:00	39.8	ND	ND	ND	0.57	ND	ND	ND	ND	ND	ND	0
57873	2016-09-04T08:00:00	37	ND	ND	ND	1.25	ND	ND	ND	ND	ND	ND	0
57874	2016-09-04T09:00:00	61.6	ND	ND	ND	1.80	ND	ND	ND	ND	ND	ND	0
57875	2016-09-04T10:00:00	58.2	ND	ND	ND	1.10	ND	ND	ND	ND	ND	ND	0
57876	2016-09-04T11:00:00	53.3	ND	ND	ND	0.67	ND	ND	ND	ND	ND	ND	0
57877	2016-09-04T12:00:00	ND	ND	ND	ND	ND	ND	ND	ND	ND	ND	ND	ND
57878	2016-09-04T13:00:00	ND	ND	ND	ND	ND	ND	ND	ND	ND	ND	ND	ND
57879	2016-09-04T14:00:00	25	ND	ND	ND	0.17	ND	ND	ND	ND	ND	ND	0
57880	2016-09-04T15:00:00	32.1	ND	ND	ND	0.21	ND	ND	ND	ND	ND	ND	0
57881	2016-09-04T16:00:00	25.3	ND	ND	ND	0.26	ND	ND	ND	ND	ND	ND	0
57882	2016-09-04T17:00:00	33.2	ND	ND	ND	0.17	ND	ND	ND	ND	ND	ND	0
57883	2016-09-04T18:00:00	10.1	ND	ND	ND	0.46	ND	ND	ND	ND	ND	ND	3.56
57884	2016-09-04T19:00:00	4.7	ND	ND	ND	1.00	ND	ND	ND	ND	ND	ND	0.25
57885	2016-09-04T20:00:00	90.3	ND	ND	ND	1.12	ND	ND	ND	ND	ND	ND	0
57886	2016-09-04T21:00:00	67.4	ND	ND	ND	0.49	ND	ND	ND	ND	ND	ND	0
57887	2016-09-04T22:00:00	45.6	ND	ND	ND	0.47	ND	ND	ND	ND	ND	ND	0
57888	2016-09-04T23:00:00	36.4	ND	ND	ND	0.56	ND	ND	ND	ND	ND	ND	0
57889	2016-09-05T00:00:00	40.6	ND	ND	ND	0.43	ND	ND	ND	ND	ND	ND	0
57890	2016-09-05T01:00:00	40	ND	ND	ND	0.63	ND	ND	ND	ND	ND	ND	0
57891	2016-09-05T02:00:00	29	ND	ND	ND	0.63	ND	ND	ND	ND	ND	ND	0
57892	2016-09-05T03:00:00	24.2	ND	ND	ND	0.89	ND	ND	ND	ND	ND	ND	0
57893	2016-09-05T04:00:00	18.5	ND	ND	ND	0.96	ND	ND	ND	ND	ND	ND	0
57894	2016-09-05T05:00:00	48.9	ND	ND	ND	2.94	ND	ND	ND	ND	ND	ND	0
57895	2016-09-05T06:00:00	51.9	ND	ND	ND	4.49	ND	ND	ND	ND	ND	ND	0
57896	2016-09-05T07:00:00	42.5	ND	ND	ND	1.62	ND	ND	ND	ND	ND	ND	0
57897	2016-09-05T08:00:00	66.9	ND	ND	ND	1.21	ND	ND	ND	ND	ND	ND	0
57898	2016-09-05T09:00:00	78.1	ND	ND	ND	2.89	ND	ND	ND	ND	ND	ND	0
57899	2016-09-05T10:00:00	100.7	ND	ND	ND	2.68	ND	ND	ND	ND	ND	ND	0
57900	2016-09-05T11:00:00	98.9	ND	ND	ND	1.14	ND	ND	ND	ND	ND	ND	0
57901	2016-09-05T12:00:00	82.8	ND	ND	ND	0.70	ND	ND	ND	ND	ND	ND	0
57902	2016-09-05T13:00:00	53.7	ND	ND	ND	0.39	ND	ND	ND	ND	ND	ND	0
57903	2016-09-05T14:00:00	51.7	ND	ND	ND	0.25	ND	ND	ND	ND	ND	ND	0
57904	2016-09-05T15:00:00	50.5	ND	ND	ND	0.57	ND	ND	ND	ND	ND	ND	0
57905	2016-09-05T16:00:00	35.6	ND	ND	ND	0.50	ND	ND	ND	ND	ND	ND	0
57906	2016-09-05T17:00:00	15.3	ND	ND	ND	0.36	ND	ND	ND	ND	ND	ND	0
57907	2016-09-05T18:00:00	8.3	ND	ND	ND	0.14	ND	ND	ND	ND	ND	ND	0
57908	2016-09-05T19:00:00	11.8	ND	ND	ND	0.36	ND	ND	ND	ND	ND	ND	0
57909	2016-09-05T20:00:00	16.4	ND	ND	ND	0.50	ND	ND	ND	ND	ND	ND	0
57910	2016-09-05T21:00:00	4.5	ND	ND	ND	0.22	ND	ND	ND	ND	ND	ND	0
57911	2016-09-05T22:00:00	4.9	ND	ND	ND	0.45	ND	ND	ND	ND	ND	ND	0
57912	2016-09-05T23:00:00	30.5	ND	ND	ND	0.49	ND	ND	ND	ND	ND	ND	0
57913	2016-09-06T00:00:00	9.4	ND	ND	ND	0.26	ND	ND	ND	ND	ND	ND	0
57914	2016-09-06T01:00:00	10.6	ND	ND	ND	1.12	ND	ND	ND	ND	ND	ND	10.67
57915	2016-09-06T02:00:00	30.8	ND	ND	ND	0.84	ND	ND	ND	ND	ND	ND	0.51
57916	2016-09-06T03:00:00	33.9	ND	ND	ND	0.22	ND	ND	ND	ND	ND	ND	0.25
57917	2016-09-06T04:00:00	30.1	ND	ND	ND	0.81	ND	ND	ND	ND	ND	ND	0
57918	2016-09-06T05:00:00	42.5	ND	ND	ND	1.32	ND	ND	ND	ND	ND	ND	0
57919	2016-09-06T06:00:00	40.4	ND	ND	ND	0.32	ND	ND	ND	ND	ND	ND	0
57920	2016-09-06T07:00:00	31.8	ND	ND	ND	0.64	ND	ND	ND	ND	ND	ND	0
57921	2016-09-06T08:00:00	61.8	ND	ND	ND	1.53	ND	ND	ND	ND	ND	ND	0
57922	2016-09-06T09:00:00	79.1	ND	ND	ND	1.95	ND	ND	ND	ND	ND	ND	0
57923	2016-09-06T10:00:00	80.9	ND	ND	ND	1.20	ND	ND	ND	ND	ND	ND	0
57924	2016-09-06T11:00:00	77	ND	ND	ND	1.30	ND	ND	ND	ND	ND	ND	0
57925	2016-09-06T12:00:00	84.2	ND	ND	ND	0.50	ND	ND	ND	ND	ND	ND	0
57926	2016-09-06T13:00:00	67.2	ND	ND	ND	0.40	ND	ND	ND	ND	ND	ND	0
57927	2016-09-06T14:00:00	28.1	ND	ND	ND	0.31	ND	ND	ND	ND	ND	ND	0
57928	2016-09-06T15:00:00	34.3	ND	ND	ND	0.39	ND	ND	ND	ND	ND	ND	0
57929	2016-09-06T16:00:00	26.5	ND	ND	ND	0.26	ND	ND	ND	ND	ND	ND	0
57930	2016-09-06T17:00:00	28.9	ND	ND	ND	0.13	ND	ND	ND	ND	ND	ND	0
57931	2016-09-06T18:00:00	12.6	ND	ND	ND	0.18	ND	ND	ND	ND	ND	ND	0
57932	2016-09-06T19:00:00	21.7	ND	ND	ND	0.14	ND	ND	ND	ND	ND	ND	22.61
57933	2016-09-06T20:00:00	28.3	ND	ND	ND	0.49	ND	ND	ND	ND	ND	ND	2.54
57934	2016-09-06T21:00:00	34	ND	ND	ND	0.25	ND	ND	ND	ND	ND	ND	5.84
57935	2016-09-06T22:00:00	19.5	ND	ND	ND	0.42	ND	ND	ND	ND	ND	ND	0.25
57936	2016-09-06T23:00:00	20.1	ND	ND	ND	0.70	ND	ND	ND	ND	ND	ND	0
57937	2016-09-07T00:00:00	16.9	ND	ND	ND	0.42	ND	ND	ND	ND	ND	ND	0
57938	2016-09-07T01:00:00	14.7	ND	ND	ND	0.63	ND	ND	ND	ND	ND	ND	0
57939	2016-09-07T02:00:00	4.3	ND	ND	ND	0.28	ND	ND	ND	ND	ND	ND	0
57940	2016-09-07T03:00:00	5.4	ND	ND	ND	0.53	ND	ND	ND	ND	ND	ND	0
57941	2016-09-07T04:00:00	15.8	ND	ND	ND	0.53	ND	ND	ND	ND	ND	ND	0.25
57942	2016-09-07T05:00:00	37	ND	ND	ND	3.26	ND	ND	ND	ND	ND	ND	0
57943	2016-09-07T06:00:00	45.4	ND	ND	ND	1.37	ND	ND	ND	ND	ND	ND	0
57944	2016-09-07T07:00:00	60.3	ND	ND	ND	1.44	ND	ND	ND	ND	ND	ND	0
57945	2016-09-07T08:00:00	72.7	ND	ND	ND	3.23	ND	ND	ND	ND	ND	ND	0
57946	2016-09-07T09:00:00	106.1	ND	ND	ND	4.54	ND	ND	ND	ND	ND	ND	0
57947	2016-09-07T10:00:00	100.7	ND	ND	ND	2.51	ND	ND	ND	ND	ND	ND	0
57948	2016-09-07T11:00:00	224.8	ND	ND	ND	ND	ND	ND	ND	ND	ND	ND	0
57949	2016-09-07T12:00:00	3	ND	ND	ND	ND	ND	ND	ND	ND	ND	ND	0
57950	2016-09-07T13:00:00	ND	ND	ND	ND	ND	ND	ND	ND	ND	ND	ND	0
57951	2016-09-07T14:00:00	104.9	ND	ND	ND	0.07	ND	ND	ND	ND	ND	ND	0
57952	2016-09-07T15:00:00	224.2	ND	ND	ND	0.07	ND	ND	ND	ND	ND	ND	0
57953	2016-09-07T16:00:00	70.7	ND	ND	ND	0.06	ND	ND	ND	ND	ND	ND	0
57954	2016-09-07T17:00:00	43.8	ND	ND	ND	0.03	ND	ND	ND	ND	ND	ND	0
57955	2016-09-07T18:00:00	82.3	ND	ND	ND	0.00	ND	ND	ND	ND	ND	ND	0
57956	2016-09-07T19:00:00	57	ND	ND	ND	0.00	ND	ND	ND	ND	ND	ND	0
57957	2016-09-07T20:00:00	62.7	ND	ND	ND	0.00	ND	ND	ND	ND	ND	ND	0
57958	2016-09-07T21:00:00	23.2	ND	ND	ND	0.00	ND	ND	ND	ND	ND	ND	0
57959	2016-09-07T22:00:00	30.9	ND	ND	ND	0.00	ND	ND	ND	ND	ND	ND	0
57960	2016-09-07T23:00:00	79.3	ND	ND	ND	0.00	ND	ND	ND	ND	ND	ND	0
57961	2016-09-08T00:00:00	42.1	ND	ND	ND	0.01	ND	ND	ND	ND	ND	ND	0
57962	2016-09-08T01:00:00	16.3	ND	ND	ND	0.10	ND	ND	ND	ND	ND	ND	0
57963	2016-09-08T02:00:00	55.4	ND	ND	ND	0.29	ND	ND	ND	ND	ND	ND	0
57964	2016-09-08T03:00:00	39.2	ND	ND	ND	0.14	ND	ND	ND	ND	ND	ND	0
57965	2016-09-08T04:00:00	34.4	ND	ND	ND	0.47	ND	ND	ND	ND	ND	ND	0
57966	2016-09-08T05:00:00	63	ND	ND	ND	0.46	ND	ND	ND	ND	ND	ND	0
57967	2016-09-08T06:00:00	69.2	ND	ND	ND	0.38	ND	ND	ND	ND	ND	ND	0
57968	2016-09-08T07:00:00	57.7	ND	ND	ND	0.39	ND	ND	ND	ND	ND	ND	0
57969	2016-09-08T08:00:00	86.3	ND	ND	ND	0.00	ND	ND	ND	ND	ND	ND	0
57970	2016-09-08T09:00:00	147.3	ND	ND	ND	0.03	ND	ND	ND	ND	ND	ND	0
57971	2016-09-08T10:00:00	141.8	ND	ND	ND	0.07	ND	ND	ND	ND	ND	ND	0
57972	2016-09-08T11:00:00	105.9	ND	ND	ND	0.17	ND	ND	ND	ND	ND	ND	0
57973	2016-09-08T12:00:00	74.4	ND	ND	ND	0.13	ND	ND	ND	ND	ND	ND	0
57974	2016-09-08T13:00:00	84.3	ND	ND	ND	0.07	ND	ND	ND	ND	ND	ND	0
57975	2016-09-08T14:00:00	88.4	ND	ND	ND	0.04	ND	ND	ND	ND	ND	ND	0
57976	2016-09-08T15:00:00	81.5	ND	ND	ND	0.01	ND	ND	ND	ND	ND	ND	0
57977	2016-09-08T16:00:00	66	ND	ND	ND	0.06	ND	ND	ND	ND	ND	ND	0
57978	2016-09-08T17:00:00	41	ND	ND	ND	0.00	ND	ND	ND	ND	ND	ND	0
57979	2016-09-08T18:00:00	30.9	ND	ND	ND	0.00	ND	ND	ND	ND	ND	ND	0
57980	2016-09-08T19:00:00	23.5	ND	ND	ND	0.00	ND	ND	ND	ND	ND	ND	0
57981	2016-09-08T20:00:00	15.4	ND	ND	ND	0.00	ND	ND	ND	ND	ND	ND	0
57982	2016-09-08T21:00:00	27.2	ND	ND	ND	0.06	ND	ND	ND	ND	ND	ND	0
57983	2016-09-08T22:00:00	20.4	ND	ND	ND	0.03	ND	ND	ND	ND	ND	ND	0
57984	2016-09-08T23:00:00	26.2	ND	ND	ND	0.04	ND	ND	ND	ND	ND	ND	0
57985	2016-09-09T00:00:00	58	ND	ND	ND	0.01	ND	ND	ND	ND	ND	ND	0
57986	2016-09-09T01:00:00	27.2	ND	ND	ND	0.11	ND	ND	ND	ND	ND	ND	0
57987	2016-09-09T02:00:00	42.4	ND	ND	ND	0.31	ND	ND	ND	ND	ND	ND	0
57988	2016-09-09T03:00:00	53.6	ND	ND	ND	0.33	ND	ND	ND	ND	ND	ND	0
57989	2016-09-09T04:00:00	46.4	ND	ND	ND	0.22	ND	ND	ND	ND	ND	ND	0
57990	2016-09-09T05:00:00	50.8	ND	ND	ND	1.00	ND	ND	ND	ND	ND	ND	21.34
57991	2016-09-09T06:00:00	52.5	ND	ND	ND	0.60	ND	ND	ND	ND	ND	ND	0.25
57992	2016-09-09T07:00:00	50.3	ND	ND	ND	0.17	ND	ND	ND	ND	ND	ND	12.7
57993	2016-09-09T08:00:00	41.1	ND	ND	ND	0.01	ND	ND	ND	ND	ND	ND	1.78
57994	2016-09-09T09:00:00	58.3	ND	ND	ND	0.14	ND	ND	ND	ND	ND	ND	0
57995	2016-09-09T10:00:00	69.5	ND	ND	ND	0.06	ND	ND	ND	ND	ND	ND	0
57996	2016-09-09T11:00:00	58.7	ND	ND	ND	0.03	ND	ND	ND	ND	ND	ND	0
57997	2016-09-09T12:00:00	55.6	ND	ND	ND	0.04	ND	ND	ND	ND	ND	ND	0
57998	2016-09-09T13:00:00	63.6	ND	ND	ND	0.01	ND	ND	ND	ND	ND	ND	0
57999	2016-09-09T14:00:00	58	ND	ND	ND	0.01	ND	ND	ND	ND	ND	ND	0
58000	2016-09-09T15:00:00	52.4	ND	ND	ND	0.03	ND	ND	ND	ND	ND	ND	0
58001	2016-09-09T16:00:00	38.6	ND	ND	ND	0.04	ND	ND	ND	ND	ND	ND	0
58002	2016-09-09T17:00:00	24.6	ND	ND	ND	0.00	ND	ND	ND	ND	ND	ND	0
58003	2016-09-09T18:00:00	7.1	ND	ND	ND	0.01	ND	ND	ND	ND	ND	ND	0
58004	2016-09-09T19:00:00	25.1	ND	ND	ND	0.00	ND	ND	ND	ND	ND	ND	0
58005	2016-09-09T20:00:00	51.5	ND	ND	ND	0.03	ND	ND	ND	ND	ND	ND	0
58006	2016-09-09T21:00:00	20.4	ND	ND	ND	0.04	ND	ND	ND	ND	ND	ND	0
58007	2016-09-09T22:00:00	29.7	ND	ND	ND	0.06	ND	ND	ND	ND	ND	ND	0
58008	2016-09-09T23:00:00	48.9	ND	ND	ND	0.00	ND	ND	ND	ND	ND	ND	0
58009	2016-09-10T00:00:00	0.3	ND	ND	ND	0.03	ND	ND	ND	ND	ND	ND	0
58010	2016-09-10T01:00:00	5.1	ND	ND	ND	0.01	ND	ND	ND	ND	ND	ND	0
58011	2016-09-10T02:00:00	30.3	ND	ND	ND	0.35	ND	ND	ND	ND	ND	ND	0
58012	2016-09-10T03:00:00	68	ND	ND	ND	0.50	ND	ND	ND	ND	ND	ND	0
58013	2016-09-10T04:00:00	38.1	ND	ND	ND	0.81	ND	ND	ND	ND	ND	ND	0
58014	2016-09-10T05:00:00	19.6	ND	ND	ND	1.06	ND	ND	ND	ND	ND	ND	0
58015	2016-09-10T06:00:00	42.8	ND	ND	ND	1.41	ND	ND	ND	ND	ND	ND	0
58016	2016-09-10T07:00:00	72.9	ND	ND	ND	0.06	ND	ND	ND	ND	ND	ND	0
58017	2016-09-10T08:00:00	90.2	ND	ND	ND	0.00	ND	ND	ND	ND	ND	ND	0
58018	2016-09-10T09:00:00	90	ND	ND	ND	0.00	ND	ND	ND	ND	ND	ND	0
58019	2016-09-10T10:00:00	114.2	ND	ND	ND	0.21	ND	ND	ND	ND	ND	ND	0
58020	2016-09-10T11:00:00	117.5	ND	ND	ND	0.01	ND	ND	ND	ND	ND	ND	0
58021	2016-09-10T12:00:00	75.4	ND	ND	ND	0.03	ND	ND	ND	ND	ND	ND	0
58022	2016-09-10T13:00:00	53.7	ND	ND	ND	0.04	ND	ND	ND	ND	ND	ND	0
58023	2016-09-10T14:00:00	59.3	ND	ND	ND	0.06	ND	ND	ND	ND	ND	ND	0
58024	2016-09-10T15:00:00	59	ND	ND	ND	0.01	ND	ND	ND	ND	ND	ND	0
58025	2016-09-10T16:00:00	12.4	ND	ND	ND	0.01	ND	ND	ND	ND	ND	ND	0.76
58026	2016-09-10T17:00:00	0.8	ND	ND	ND	0.00	ND	ND	ND	ND	ND	ND	0
58027	2016-09-10T18:00:00	4.7	ND	ND	ND	0.00	ND	ND	ND	ND	ND	ND	0
58028	2016-09-10T19:00:00	20.6	ND	ND	ND	0.00	ND	ND	ND	ND	ND	ND	0
58029	2016-09-10T20:00:00	2.1	ND	ND	ND	0.00	ND	ND	ND	ND	ND	ND	0
58030	2016-09-10T21:00:00	13.4	ND	ND	ND	0.00	ND	ND	ND	ND	ND	ND	0
58031	2016-09-10T22:00:00	35.5	ND	ND	ND	0.00	ND	ND	ND	ND	ND	ND	0
58032	2016-09-10T23:00:00	37.7	ND	ND	ND	0.00	ND	ND	ND	ND	ND	ND	0
58033	2016-09-11T00:00:00	47.9	ND	ND	ND	0.00	ND	ND	ND	ND	ND	ND	0
58034	2016-09-11T01:00:00	87.8	ND	ND	ND	0.08	ND	ND	ND	ND	ND	ND	0
58035	2016-09-11T02:00:00	61.2	ND	ND	ND	1.46	ND	ND	ND	ND	ND	ND	0
58036	2016-09-11T03:00:00	45.4	ND	ND	ND	0.99	ND	ND	ND	ND	ND	ND	0
58037	2016-09-11T04:00:00	34.5	ND	ND	ND	0.49	ND	ND	ND	ND	ND	ND	0.76
58038	2016-09-11T05:00:00	33	ND	ND	ND	0.18	ND	ND	ND	ND	ND	ND	0
58039	2016-09-11T06:00:00	38	ND	ND	ND	0.18	ND	ND	ND	ND	ND	ND	0
58040	2016-09-11T07:00:00	48	ND	ND	ND	0.71	ND	ND	ND	ND	ND	ND	0
58041	2016-09-11T08:00:00	45.3	ND	ND	ND	0.61	ND	ND	ND	ND	ND	ND	0.25
58042	2016-09-11T09:00:00	63.6	ND	ND	ND	0.32	ND	ND	ND	ND	ND	ND	0
58043	2016-09-11T10:00:00	74.6	ND	ND	ND	0.22	ND	ND	ND	ND	ND	ND	0
58044	2016-09-11T11:00:00	71.2	ND	ND	ND	0.11	ND	ND	ND	ND	ND	ND	0
58045	2016-09-11T12:00:00	50.4	ND	ND	ND	0.11	ND	ND	ND	ND	ND	ND	0
58046	2016-09-11T13:00:00	16.6	ND	ND	ND	0.08	ND	ND	ND	ND	ND	ND	0
58047	2016-09-11T14:00:00	ND	ND	ND	ND	0.01	ND	ND	ND	ND	ND	ND	0
58048	2016-09-11T15:00:00	ND	ND	ND	ND	0.03	ND	ND	ND	ND	ND	ND	0
58049	2016-09-11T16:00:00	ND	ND	ND	ND	0.06	ND	ND	ND	ND	ND	ND	0
58050	2016-09-11T17:00:00	ND	ND	ND	ND	0.10	ND	ND	ND	ND	ND	ND	0
58051	2016-09-11T18:00:00	58.5	ND	ND	ND	0.00	ND	ND	ND	ND	ND	ND	0.25
58052	2016-09-11T19:00:00	141.1	ND	ND	ND	0.20	ND	ND	ND	ND	ND	ND	1.78
58053	2016-09-11T20:00:00	70	ND	ND	ND	0.21	ND	ND	ND	ND	ND	ND	0
58054	2016-09-11T21:00:00	43.3	ND	ND	ND	0.43	ND	ND	ND	ND	ND	ND	0
58055	2016-09-11T22:00:00	32.7	ND	ND	ND	0.64	ND	ND	ND	ND	ND	ND	0
58056	2016-09-11T23:00:00	48.8	ND	ND	ND	0.11	ND	ND	ND	ND	ND	ND	0
58057	2016-09-12T00:00:00	29.2	ND	ND	ND	0.01	ND	ND	ND	ND	ND	ND	0
58058	2016-09-12T01:00:00	19.4	ND	ND	ND	0.10	ND	ND	ND	ND	ND	ND	0
58059	2016-09-12T02:00:00	18	ND	ND	ND	0.52	ND	ND	ND	ND	ND	ND	0
58060	2016-09-12T03:00:00	21.5	ND	ND	ND	0.32	ND	ND	ND	ND	ND	ND	0
58061	2016-09-12T04:00:00	ND	ND	ND	ND	1.18	ND	ND	ND	ND	ND	ND	0
58062	2016-09-12T05:00:00	ND	ND	ND	ND	1.45	ND	ND	ND	ND	ND	ND	0
58063	2016-09-12T06:00:00	ND	ND	ND	ND	0.52	ND	ND	ND	ND	ND	ND	0
58064	2016-09-12T07:00:00	135.1	ND	ND	ND	0.03	ND	ND	ND	ND	ND	ND	0
58065	2016-09-12T08:00:00	101.3	ND	ND	ND	0.10	ND	ND	ND	ND	ND	ND	0
58066	2016-09-12T09:00:00	146.5	ND	ND	ND	0.88	ND	ND	ND	ND	ND	ND	0
58067	2016-09-12T10:00:00	103.6	ND	ND	ND	0.42	ND	ND	ND	ND	ND	ND	0
58068	2016-09-12T11:00:00	80.4	ND	ND	ND	0.29	ND	ND	ND	ND	ND	ND	0
58069	2016-09-12T12:00:00	52.4	ND	ND	ND	0.04	ND	ND	ND	ND	ND	ND	0
58070	2016-09-12T13:00:00	50.9	ND	ND	ND	0.01	ND	ND	ND	ND	ND	ND	0
58071	2016-09-12T14:00:00	67	ND	ND	ND	0.06	ND	ND	ND	ND	ND	ND	0
58072	2016-09-12T15:00:00	60	ND	ND	ND	0.01	ND	ND	ND	ND	ND	ND	0
58073	2016-09-12T16:00:00	55.2	ND	ND	ND	0.01	ND	ND	ND	ND	ND	ND	0
58074	2016-09-12T17:00:00	ND	ND	ND	ND	0.00	ND	ND	ND	ND	ND	ND	0
58075	2016-09-12T18:00:00	38.5	ND	ND	ND	0.00	ND	ND	ND	ND	ND	ND	0
58076	2016-09-12T19:00:00	15.2	ND	ND	ND	0.01	ND	ND	ND	ND	ND	ND	0
58077	2016-09-12T20:00:00	ND	ND	ND	ND	0.00	ND	ND	ND	ND	ND	ND	0
58078	2016-09-12T21:00:00	ND	ND	ND	ND	0.03	ND	ND	ND	ND	ND	ND	0
58079	2016-09-12T22:00:00	21.6	ND	ND	ND	0.00	ND	ND	ND	ND	ND	ND	0
58080	2016-09-12T23:00:00	101	ND	ND	ND	0.06	ND	ND	ND	ND	ND	ND	0
58081	2016-09-13T00:00:00	8.9	ND	ND	ND	0.10	ND	ND	ND	ND	ND	ND	0
58082	2016-09-13T01:00:00	149.2	ND	ND	ND	0.21	ND	ND	ND	ND	ND	ND	0
58083	2016-09-13T02:00:00	86.6	ND	ND	ND	0.24	ND	ND	ND	ND	ND	ND	0
58084	2016-09-13T03:00:00	36.1	ND	ND	ND	0.33	ND	ND	ND	ND	ND	ND	0
58085	2016-09-13T04:00:00	8	ND	ND	ND	0.21	ND	ND	ND	ND	ND	ND	0
58086	2016-09-13T05:00:00	19.5	ND	ND	ND	0.68	ND	ND	ND	ND	ND	ND	0
58087	2016-09-13T06:00:00	50.6	ND	ND	ND	0.60	ND	ND	ND	ND	ND	ND	0
58088	2016-09-13T07:00:00	69.7	ND	ND	ND	0.04	ND	ND	ND	ND	ND	ND	0
58089	2016-09-13T08:00:00	68.2	ND	ND	ND	0.06	ND	ND	ND	ND	ND	ND	0
58090	2016-09-13T09:00:00	96.1	ND	ND	ND	0.26	ND	ND	ND	ND	ND	ND	0
58091	2016-09-13T10:00:00	131.9	ND	ND	ND	0.28	ND	ND	ND	ND	ND	ND	0
58092	2016-09-13T11:00:00	126.7	ND	ND	ND	0.28	ND	ND	ND	ND	ND	ND	0
58093	2016-09-13T12:00:00	92.1	ND	ND	ND	0.18	ND	ND	ND	ND	ND	ND	0
58094	2016-09-13T13:00:00	82.5	ND	ND	ND	0.14	ND	ND	ND	ND	ND	ND	0
58095	2016-09-13T14:00:00	66.4	ND	ND	ND	0.07	ND	ND	ND	ND	ND	ND	0
58096	2016-09-13T15:00:00	17.7	ND	ND	ND	0.00	ND	ND	ND	ND	ND	ND	0
58097	2016-09-13T16:00:00	23	ND	ND	ND	0.00	ND	ND	ND	ND	ND	ND	0
58098	2016-09-13T17:00:00	11.3	ND	ND	ND	0.04	ND	ND	ND	ND	ND	ND	0
58099	2016-09-13T18:00:00	2.9	ND	ND	ND	0.00	ND	ND	ND	ND	ND	ND	0
58100	2016-09-13T19:00:00	21.9	ND	ND	ND	0.00	ND	ND	ND	ND	ND	ND	0
58101	2016-09-13T20:00:00	85.3	ND	ND	ND	0.03	ND	ND	ND	ND	ND	ND	1.27
58102	2016-09-13T21:00:00	58.2	ND	ND	ND	0.06	ND	ND	ND	ND	ND	ND	29.46
58103	2016-09-13T22:00:00	36.1	ND	ND	ND	0.06	ND	ND	ND	ND	ND	ND	6.1
58104	2016-09-13T23:00:00	30.8	ND	ND	ND	0.00	ND	ND	ND	ND	ND	ND	0.25
58105	2016-09-14T00:00:00	32.1	ND	ND	ND	0.13	ND	ND	ND	ND	ND	ND	0.76
58106	2016-09-14T01:00:00	17	ND	ND	ND	0.06	ND	ND	ND	ND	ND	ND	7.87
58107	2016-09-14T02:00:00	4.9	ND	ND	ND	0.07	ND	ND	ND	ND	ND	ND	5.08
58108	2016-09-14T03:00:00	5	ND	ND	ND	0.08	ND	ND	ND	ND	ND	ND	2.03
58109	2016-09-14T04:00:00	7.5	ND	ND	ND	0.06	ND	ND	ND	ND	ND	ND	0.25
58110	2016-09-14T05:00:00	8.3	ND	ND	ND	0.10	ND	ND	ND	ND	ND	ND	0
58111	2016-09-14T06:00:00	19.5	ND	ND	ND	0.10	ND	ND	ND	ND	ND	ND	0
58112	2016-09-14T07:00:00	51.1	ND	ND	ND	0.00	ND	ND	ND	ND	ND	ND	0
58113	2016-09-14T08:00:00	54.4	ND	ND	ND	0.00	ND	ND	ND	ND	ND	ND	0.25
58114	2016-09-14T09:00:00	57	ND	ND	ND	0.00	ND	ND	ND	ND	ND	ND	0
58115	2016-09-14T10:00:00	62.7	ND	ND	ND	0.04	ND	ND	ND	ND	ND	ND	0
58116	2016-09-14T11:00:00	47.4	ND	ND	ND	0.06	ND	ND	ND	ND	ND	ND	0
58117	2016-09-14T12:00:00	41.5	ND	ND	ND	0.03	ND	ND	ND	ND	ND	ND	0
58118	2016-09-14T13:00:00	35.3	ND	ND	ND	0.03	ND	ND	ND	ND	ND	ND	0
58119	2016-09-14T14:00:00	30.8	ND	ND	ND	0.03	ND	ND	ND	ND	ND	ND	0
58120	2016-09-14T15:00:00	50.4	ND	ND	ND	0.00	ND	ND	ND	ND	ND	ND	0
58121	2016-09-14T16:00:00	36	ND	ND	ND	0.01	ND	ND	ND	ND	ND	ND	0
58122	2016-09-14T17:00:00	ND	ND	ND	ND	0.00	ND	ND	ND	ND	ND	ND	0
58123	2016-09-14T18:00:00	21.7	ND	ND	ND	0.00	ND	ND	ND	ND	ND	ND	0
58124	2016-09-14T19:00:00	210.7	ND	ND	ND	0.00	ND	ND	ND	ND	ND	ND	0
58125	2016-09-14T20:00:00	107.7	ND	ND	ND	0.00	ND	ND	ND	ND	ND	ND	0
58126	2016-09-14T21:00:00	48.6	ND	ND	ND	0.00	ND	ND	ND	ND	ND	ND	0
58127	2016-09-14T22:00:00	103.3	ND	ND	ND	0.00	ND	ND	ND	ND	ND	ND	0
58128	2016-09-14T23:00:00	83.3	ND	ND	ND	0.11	ND	ND	ND	ND	ND	ND	0
58129	2016-09-15T00:00:00	45.4	ND	ND	ND	0.40	ND	ND	ND	ND	ND	ND	0
58130	2016-09-15T01:00:00	40.1	ND	ND	ND	0.45	ND	ND	ND	ND	ND	ND	0.25
58131	2016-09-15T02:00:00	31.3	ND	ND	ND	3.75	ND	ND	ND	ND	ND	ND	0.25
58132	2016-09-15T03:00:00	26.4	ND	ND	ND	0.42	ND	ND	ND	ND	ND	ND	0
58133	2016-09-15T04:00:00	18.5	ND	ND	ND	0.40	ND	ND	ND	ND	ND	ND	0
58134	2016-09-15T05:00:00	19.8	ND	ND	ND	0.21	ND	ND	ND	ND	ND	ND	0
58135	2016-09-15T06:00:00	25.1	ND	ND	ND	0.06	ND	ND	ND	ND	ND	ND	0
58136	2016-09-15T07:00:00	36.1	ND	ND	ND	0.07	ND	ND	ND	ND	ND	ND	0
58137	2016-09-15T08:00:00	61.7	ND	ND	ND	0.08	ND	ND	ND	ND	ND	ND	0
58138	2016-09-15T09:00:00	87.9	ND	ND	ND	0.00	ND	ND	ND	ND	ND	ND	0
58139	2016-09-15T10:00:00	76.1	ND	ND	ND	0.24	ND	ND	ND	ND	ND	ND	0
58140	2016-09-15T11:00:00	51.5	ND	ND	ND	0.10	ND	ND	ND	ND	ND	ND	0
58141	2016-09-15T12:00:00	74.7	ND	ND	ND	0.01	ND	ND	ND	ND	ND	ND	0
58142	2016-09-15T13:00:00	71.6	ND	ND	ND	0.07	ND	ND	ND	ND	ND	ND	0
58143	2016-09-15T14:00:00	59.7	ND	ND	ND	0.04	ND	ND	ND	ND	ND	ND	0
58144	2016-09-15T15:00:00	62	ND	ND	ND	0.03	ND	ND	ND	ND	ND	ND	0
58145	2016-09-15T16:00:00	64.6	ND	ND	ND	0.01	ND	ND	ND	ND	ND	ND	0
58146	2016-09-15T17:00:00	66.4	ND	ND	ND	0.06	ND	ND	ND	ND	ND	ND	0
58147	2016-09-15T18:00:00	35.2	ND	ND	ND	0.00	ND	ND	ND	ND	ND	ND	0
58148	2016-09-15T19:00:00	3.5	ND	ND	ND	0.00	ND	ND	ND	ND	ND	ND	0
58149	2016-09-15T20:00:00	6.7	ND	ND	ND	0.00	ND	ND	ND	ND	ND	ND	0
58150	2016-09-15T21:00:00	17.8	ND	ND	ND	0.00	ND	ND	ND	ND	ND	ND	0
58151	2016-09-15T22:00:00	45.7	ND	ND	ND	0.07	ND	ND	ND	ND	ND	ND	0
58152	2016-09-15T23:00:00	38.1	ND	ND	ND	0.82	ND	ND	ND	ND	ND	ND	0
58153	2016-09-16T00:00:00	78.3	ND	ND	ND	0.22	ND	ND	ND	ND	ND	ND	0
58154	2016-09-16T01:00:00	30.6	ND	ND	ND	0.03	ND	ND	ND	ND	ND	ND	0
58155	2016-09-16T02:00:00	53	ND	ND	ND	0.14	ND	ND	ND	ND	ND	ND	0
58156	2016-09-16T03:00:00	52.9	ND	ND	ND	0.33	ND	ND	ND	ND	ND	ND	0
58157	2016-09-16T04:00:00	41.5	ND	ND	ND	0.04	ND	ND	ND	ND	ND	ND	0
58158	2016-09-16T05:00:00	4.8	ND	ND	ND	0.06	ND	ND	ND	ND	ND	ND	0
58159	2016-09-16T06:00:00	34.5	ND	ND	ND	0.17	ND	ND	ND	ND	ND	ND	0
58160	2016-09-16T07:00:00	160.7	ND	ND	ND	0.03	ND	ND	ND	ND	ND	ND	0
58161	2016-09-16T08:00:00	137.1	ND	ND	ND	0.03	ND	ND	ND	ND	ND	ND	0
58162	2016-09-16T09:00:00	105.6	ND	ND	ND	0.08	ND	ND	ND	ND	ND	ND	0
58163	2016-09-16T10:00:00	93	ND	ND	ND	0.06	ND	ND	ND	ND	ND	ND	0
58164	2016-09-16T11:00:00	93.8	ND	ND	ND	0.04	ND	ND	ND	ND	ND	ND	0
58165	2016-09-16T12:00:00	85.1	ND	ND	ND	0.06	ND	ND	ND	ND	ND	ND	0
58166	2016-09-16T13:00:00	80.7	ND	ND	ND	0.07	ND	ND	ND	ND	ND	ND	0
58167	2016-09-16T14:00:00	75.2	ND	ND	ND	0.03	ND	ND	ND	ND	ND	ND	0
58168	2016-09-16T15:00:00	60.2	ND	ND	ND	0.08	ND	ND	ND	ND	ND	ND	0
58169	2016-09-16T16:00:00	49.1	ND	ND	ND	0.00	ND	ND	ND	ND	ND	ND	0
58170	2016-09-16T17:00:00	30.1	ND	ND	ND	0.04	ND	ND	ND	ND	ND	ND	0
58171	2016-09-16T18:00:00	76.4	ND	ND	ND	0.01	ND	ND	ND	ND	ND	ND	0
58172	2016-09-16T19:00:00	69.1	ND	ND	ND	0.00	ND	ND	ND	ND	ND	ND	0
58173	2016-09-16T20:00:00	26.3	ND	ND	ND	0.01	ND	ND	ND	ND	ND	ND	0
58174	2016-09-16T21:00:00	30.6	ND	ND	ND	0.00	ND	ND	ND	ND	ND	ND	0
58175	2016-09-16T22:00:00	17.5	ND	ND	ND	0.00	ND	ND	ND	ND	ND	ND	0
58176	2016-09-16T23:00:00	55.8	ND	ND	ND	0.00	ND	ND	ND	ND	ND	ND	0
58177	2016-09-17T00:00:00	34.3	ND	ND	ND	0.01	ND	ND	ND	ND	ND	ND	0
58178	2016-09-17T01:00:00	43.9	ND	ND	ND	0.00	ND	ND	ND	ND	ND	ND	0
58179	2016-09-17T02:00:00	60	ND	ND	ND	0.24	ND	ND	ND	ND	ND	ND	0
58180	2016-09-17T03:00:00	65.4	ND	ND	ND	0.43	ND	ND	ND	ND	ND	ND	0
58181	2016-09-17T04:00:00	85.7	ND	ND	ND	0.21	ND	ND	ND	ND	ND	ND	0
58182	2016-09-17T05:00:00	73	ND	ND	ND	0.18	ND	ND	ND	ND	ND	ND	0
58183	2016-09-17T06:00:00	81.4	ND	ND	ND	0.06	ND	ND	ND	ND	ND	ND	0
58184	2016-09-17T07:00:00	67.9	ND	ND	ND	0.01	ND	ND	ND	ND	ND	ND	0
58185	2016-09-17T08:00:00	52.5	ND	ND	ND	0.01	ND	ND	ND	ND	ND	ND	0
58186	2016-09-17T09:00:00	105.5	ND	ND	ND	0.03	ND	ND	ND	ND	ND	ND	0
58187	2016-09-17T10:00:00	90.3	ND	ND	ND	0.11	ND	ND	ND	ND	ND	ND	0
58188	2016-09-17T11:00:00	78.7	ND	ND	ND	0.11	ND	ND	ND	ND	ND	ND	0
58189	2016-09-17T12:00:00	79.8	ND	ND	ND	0.03	ND	ND	ND	ND	ND	ND	0
58190	2016-09-17T13:00:00	61.9	ND	ND	ND	0.01	ND	ND	ND	ND	ND	ND	0
58191	2016-09-17T14:00:00	67.5	ND	ND	ND	0.06	ND	ND	ND	ND	ND	ND	0
58192	2016-09-17T15:00:00	61.1	ND	ND	ND	0.03	ND	ND	ND	ND	ND	ND	0
58193	2016-09-17T16:00:00	36	ND	ND	ND	0.01	ND	ND	ND	ND	ND	ND	0
58194	2016-09-17T17:00:00	17.3	ND	ND	ND	0.00	ND	ND	ND	ND	ND	ND	0
58195	2016-09-17T18:00:00	0.9	ND	ND	ND	0.00	ND	ND	ND	ND	ND	ND	0
58196	2016-09-17T19:00:00	2.3	ND	ND	ND	0.00	ND	ND	ND	ND	ND	ND	0
58197	2016-09-17T20:00:00	39.8	ND	ND	ND	0.00	ND	ND	ND	ND	ND	ND	0
58198	2016-09-17T21:00:00	74.7	ND	ND	ND	0.00	ND	ND	ND	ND	ND	ND	0
58199	2016-09-17T22:00:00	25.5	ND	ND	ND	0.01	ND	ND	ND	ND	ND	ND	0
58200	2016-09-17T23:00:00	20.1	ND	ND	ND	0.01	ND	ND	ND	ND	ND	ND	0
58201	2016-09-18T00:00:00	69.4	ND	ND	ND	0.06	ND	ND	ND	ND	ND	ND	0
58202	2016-09-18T01:00:00	87.3	ND	ND	ND	0.01	ND	ND	ND	ND	ND	ND	0
58203	2016-09-18T02:00:00	71.9	ND	ND	ND	0.01	ND	ND	ND	ND	ND	ND	0
58204	2016-09-18T03:00:00	46.3	ND	ND	ND	0.07	ND	ND	ND	ND	ND	ND	0
58205	2016-09-18T04:00:00	13.5	ND	ND	ND	0.43	ND	ND	ND	ND	ND	ND	0
58206	2016-09-18T05:00:00	44.3	ND	ND	ND	0.52	ND	ND	ND	ND	ND	ND	1.02
58207	2016-09-18T06:00:00	61.5	ND	ND	ND	0.06	ND	ND	ND	ND	ND	ND	0
58208	2016-09-18T07:00:00	82.2	ND	ND	ND	0.07	ND	ND	ND	ND	ND	ND	6.86
58209	2016-09-18T08:00:00	61.6	ND	ND	ND	0.14	ND	ND	ND	ND	ND	ND	0.76
58210	2016-09-18T09:00:00	35.6	ND	ND	ND	0.04	ND	ND	ND	ND	ND	ND	0
58211	2016-09-18T10:00:00	49.5	ND	ND	ND	0.06	ND	ND	ND	ND	ND	ND	0
58212	2016-09-18T11:00:00	62.1	ND	ND	ND	0.07	ND	ND	ND	ND	ND	ND	0
58213	2016-09-18T12:00:00	36.1	ND	ND	ND	0.00	ND	ND	ND	ND	ND	ND	0
58214	2016-09-18T13:00:00	39.3	ND	ND	ND	0.06	ND	ND	ND	ND	ND	ND	0
58215	2016-09-18T14:00:00	44.8	ND	ND	ND	0.04	ND	ND	ND	ND	ND	ND	0
58216	2016-09-18T15:00:00	30.4	ND	ND	ND	0.07	ND	ND	ND	ND	ND	ND	0
58217	2016-09-18T16:00:00	12.9	ND	ND	ND	0.04	ND	ND	ND	ND	ND	ND	0
58218	2016-09-18T17:00:00	1.8	ND	ND	ND	0.07	ND	ND	ND	ND	ND	ND	0
58219	2016-09-18T18:00:00	1.9	ND	ND	ND	0.03	ND	ND	ND	ND	ND	ND	0
58220	2016-09-18T19:00:00	ND	ND	ND	ND	0.01	ND	ND	ND	ND	ND	ND	0
58221	2016-09-18T20:00:00	24.8	ND	ND	ND	0.01	ND	ND	ND	ND	ND	ND	0
58222	2016-09-18T21:00:00	46.2	ND	ND	ND	0.04	ND	ND	ND	ND	ND	ND	0
58223	2016-09-18T22:00:00	46.8	ND	ND	ND	0.03	ND	ND	ND	ND	ND	ND	0
58224	2016-09-18T23:00:00	32.4	ND	ND	ND	0.01	ND	ND	ND	ND	ND	ND	0
58225	2016-09-19T00:00:00	15.6	ND	ND	ND	0.06	ND	ND	ND	ND	ND	ND	0
58226	2016-09-19T01:00:00	55	ND	ND	ND	0.21	ND	ND	ND	ND	ND	ND	0
58227	2016-09-19T02:00:00	90.5	ND	ND	ND	1.13	ND	ND	ND	ND	ND	ND	0
58228	2016-09-19T03:00:00	62	ND	ND	ND	0.32	ND	ND	ND	ND	ND	ND	0
58229	2016-09-19T04:00:00	13	ND	ND	ND	0.25	ND	ND	ND	ND	ND	ND	0
58230	2016-09-19T05:00:00	54.3	ND	ND	ND	3.71	ND	ND	ND	ND	ND	ND	0
58231	2016-09-19T06:00:00	121.7	ND	ND	ND	1.95	ND	ND	ND	ND	ND	ND	0
58232	2016-09-19T07:00:00	122.5	ND	ND	ND	0.01	ND	ND	ND	ND	ND	ND	0
58233	2016-09-19T08:00:00	125.7	ND	ND	ND	0.06	ND	ND	ND	ND	ND	ND	0
58234	2016-09-19T09:00:00	164.4	ND	ND	ND	1.30	ND	ND	ND	ND	ND	ND	0
58235	2016-09-19T10:00:00	132.6	ND	ND	ND	0.45	ND	ND	ND	ND	ND	ND	0
58236	2016-09-19T11:00:00	89.3	ND	ND	ND	0.14	ND	ND	ND	ND	ND	ND	0
58237	2016-09-19T12:00:00	65.1	ND	ND	ND	0.07	ND	ND	ND	ND	ND	ND	0
58238	2016-09-19T13:00:00	54.7	ND	ND	ND	0.00	ND	ND	ND	ND	ND	ND	0
58239	2016-09-19T14:00:00	43.6	ND	ND	ND	0.01	ND	ND	ND	ND	ND	ND	0
58240	2016-09-19T15:00:00	59.6	ND	ND	ND	0.00	ND	ND	ND	ND	ND	ND	0
58241	2016-09-19T16:00:00	23.8	ND	ND	ND	0.00	ND	ND	ND	ND	ND	ND	0
58242	2016-09-19T17:00:00	69.8	ND	ND	ND	0.00	ND	ND	ND	ND	ND	ND	0
58243	2016-09-19T18:00:00	69.9	ND	ND	ND	0.00	ND	ND	ND	ND	ND	ND	0
58244	2016-09-19T19:00:00	35.1	ND	ND	ND	0.00	ND	ND	ND	ND	ND	ND	0
58245	2016-09-19T20:00:00	29.8	ND	ND	ND	0.00	ND	ND	ND	ND	ND	ND	0
58246	2016-09-19T21:00:00	23.7	ND	ND	ND	0.01	ND	ND	ND	ND	ND	ND	0
58247	2016-09-19T22:00:00	12.5	ND	ND	ND	0.03	ND	ND	ND	ND	ND	ND	0
58248	2016-09-19T23:00:00	24.2	ND	ND	ND	0.01	ND	ND	ND	ND	ND	ND	0
58249	2016-09-20T00:00:00	17.6	ND	ND	ND	0.13	ND	ND	ND	ND	ND	ND	0
58250	2016-09-20T01:00:00	19.5	ND	ND	ND	0.67	ND	ND	ND	ND	ND	ND	0
58251	2016-09-20T02:00:00	54.7	ND	ND	ND	0.40	ND	ND	ND	ND	ND	ND	0
58252	2016-09-20T03:00:00	27.9	ND	ND	ND	0.10	ND	ND	ND	ND	ND	ND	0
58253	2016-09-20T04:00:00	ND	ND	ND	ND	0.11	ND	ND	ND	ND	ND	ND	0
58254	2016-09-20T05:00:00	ND	ND	ND	ND	0.10	ND	ND	ND	ND	ND	ND	0
58255	2016-09-20T06:00:00	22.9	ND	ND	ND	0.13	ND	ND	ND	ND	ND	ND	0
58256	2016-09-20T07:00:00	97.2	ND	ND	ND	0.06	ND	ND	ND	ND	ND	ND	0
58257	2016-09-20T08:00:00	148.4	ND	ND	ND	0.52	ND	ND	ND	ND	ND	ND	0
58258	2016-09-20T09:00:00	143.5	ND	ND	ND	0.45	ND	ND	ND	ND	ND	ND	0
58259	2016-09-20T10:00:00	105.7	ND	ND	ND	0.64	ND	ND	ND	ND	ND	ND	0
58260	2016-09-20T11:00:00	57.3	ND	ND	ND	0.35	ND	ND	ND	ND	ND	ND	0
58261	2016-09-20T12:00:00	127.1	ND	ND	ND	0.33	ND	ND	ND	ND	ND	ND	0
58262	2016-09-20T13:00:00	124.9	ND	ND	ND	0.14	ND	ND	ND	ND	ND	ND	0
58263	2016-09-20T14:00:00	114.2	ND	ND	ND	0.38	ND	ND	ND	ND	ND	ND	0
58264	2016-09-20T15:00:00	68.5	ND	ND	ND	0.17	ND	ND	ND	ND	ND	ND	0
58265	2016-09-20T16:00:00	94	ND	ND	ND	0.11	ND	ND	ND	ND	ND	ND	0
58266	2016-09-20T17:00:00	65.4	ND	ND	ND	0.20	ND	ND	ND	ND	ND	ND	0
58267	2016-09-20T18:00:00	60.3	ND	ND	ND	0.07	ND	ND	ND	ND	ND	ND	0
58268	2016-09-20T19:00:00	9.6	ND	ND	ND	0.07	ND	ND	ND	ND	ND	ND	0
58269	2016-09-20T20:00:00	16.3	ND	ND	ND	0.11	ND	ND	ND	ND	ND	ND	0
58270	2016-09-20T21:00:00	23.9	ND	ND	ND	0.26	ND	ND	ND	ND	ND	ND	0
58271	2016-09-20T22:00:00	26.9	ND	ND	ND	0.14	ND	ND	ND	ND	ND	ND	0
58272	2016-09-20T23:00:00	13	ND	ND	ND	0.31	ND	ND	ND	ND	ND	ND	4.06
58273	2016-09-21T00:00:00	2.6	ND	ND	ND	0.11	ND	ND	ND	ND	ND	ND	0
58274	2016-09-21T01:00:00	15.7	ND	ND	ND	0.20	ND	ND	ND	ND	ND	ND	0.25
58275	2016-09-21T02:00:00	50.6	ND	ND	ND	0.33	ND	ND	ND	ND	ND	ND	0
58276	2016-09-21T03:00:00	35	ND	ND	ND	0.31	ND	ND	ND	ND	ND	ND	0
58277	2016-09-21T04:00:00	27.7	ND	ND	ND	0.38	ND	ND	ND	ND	ND	ND	0
58278	2016-09-21T05:00:00	20.8	ND	ND	ND	0.53	ND	ND	ND	ND	ND	ND	0
58279	2016-09-21T06:00:00	52.1	ND	ND	ND	2.23	ND	ND	ND	ND	ND	ND	0
58280	2016-09-21T07:00:00	91.2	ND	ND	ND	1.53	ND	ND	ND	ND	ND	ND	0
58281	2016-09-21T08:00:00	55.7	ND	ND	ND	1.09	ND	ND	ND	ND	ND	ND	0
58282	2016-09-21T09:00:00	31.2	ND	ND	ND	0.61	ND	ND	ND	ND	ND	ND	0
58283	2016-09-21T10:00:00	72.1	ND	ND	ND	0.32	ND	ND	ND	ND	ND	ND	0
58284	2016-09-21T11:00:00	166.5	ND	ND	ND	0.17	ND	ND	ND	ND	ND	ND	0
58285	2016-09-21T12:00:00	122.9	ND	ND	ND	0.59	ND	ND	ND	ND	ND	ND	0
58286	2016-09-21T13:00:00	60.6	ND	ND	ND	0.32	ND	ND	ND	ND	ND	ND	0
58287	2016-09-21T14:00:00	67.3	ND	ND	ND	0.33	ND	ND	ND	ND	ND	ND	0
58288	2016-09-21T15:00:00	136.7	ND	ND	ND	0.17	ND	ND	ND	ND	ND	ND	0
58289	2016-09-21T16:00:00	79	ND	ND	ND	0.26	ND	ND	ND	ND	ND	ND	0
58290	2016-09-21T17:00:00	28.1	ND	ND	ND	0.28	ND	ND	ND	ND	ND	ND	0
58291	2016-09-21T18:00:00	19.8	ND	ND	ND	0.11	ND	ND	ND	ND	ND	ND	0
58292	2016-09-21T19:00:00	27	ND	ND	ND	0.29	ND	ND	ND	ND	ND	ND	0
58293	2016-09-21T20:00:00	16.5	ND	ND	ND	0.14	ND	ND	ND	ND	ND	ND	0
58294	2016-09-21T21:00:00	10.3	ND	ND	ND	0.28	ND	ND	ND	ND	ND	ND	0
58295	2016-09-21T22:00:00	12.9	ND	ND	ND	0.18	ND	ND	ND	ND	ND	ND	0
58296	2016-09-21T23:00:00	8.2	ND	ND	ND	0.31	ND	ND	ND	ND	ND	ND	0
58297	2016-09-22T00:00:00	24.7	ND	ND	ND	0.26	ND	ND	ND	ND	ND	ND	0
58298	2016-09-22T01:00:00	29	ND	ND	ND	0.54	ND	ND	ND	ND	ND	ND	0
58299	2016-09-22T02:00:00	33.9	ND	ND	ND	0.46	ND	ND	ND	ND	ND	ND	0
58300	2016-09-22T03:00:00	22.8	ND	ND	ND	0.79	ND	ND	ND	ND	ND	ND	0
58301	2016-09-22T04:00:00	24.9	ND	ND	ND	0.71	ND	ND	ND	ND	ND	ND	0
58302	2016-09-22T05:00:00	22	ND	ND	ND	1.41	ND	ND	ND	ND	ND	ND	0
58303	2016-09-22T06:00:00	47.1	ND	ND	ND	1.42	ND	ND	ND	ND	ND	ND	0
58304	2016-09-22T07:00:00	61	ND	ND	ND	0.85	ND	ND	ND	ND	ND	ND	0
58305	2016-09-22T08:00:00	38.4	ND	ND	ND	0.79	ND	ND	ND	ND	ND	ND	0
58306	2016-09-22T09:00:00	34.8	ND	ND	ND	1.99	ND	ND	ND	ND	ND	ND	0
58307	2016-09-22T10:00:00	34.4	ND	ND	ND	0.88	ND	ND	ND	ND	ND	ND	0
58308	2016-09-22T11:00:00	101.6	ND	ND	ND	0.63	ND	ND	ND	ND	ND	ND	0
58309	2016-09-22T12:00:00	41.4	ND	ND	ND	0.38	ND	ND	ND	ND	ND	ND	0
58310	2016-09-22T13:00:00	114.3	ND	ND	ND	0.13	ND	ND	ND	ND	ND	ND	0
58311	2016-09-22T14:00:00	141.6	ND	ND	ND	0.32	ND	ND	ND	ND	ND	ND	0
58312	2016-09-22T15:00:00	113.5	ND	ND	ND	0.22	ND	ND	ND	ND	ND	ND	0
58313	2016-09-22T16:00:00	76.4	ND	ND	ND	0.13	ND	ND	ND	ND	ND	ND	0
58314	2016-09-22T17:00:00	37.8	ND	ND	ND	0.20	ND	ND	ND	ND	ND	ND	0
58315	2016-09-22T18:00:00	25.8	ND	ND	ND	0.11	ND	ND	ND	ND	ND	ND	0
58316	2016-09-22T19:00:00	20.9	ND	ND	ND	0.08	ND	ND	ND	ND	ND	ND	0
58317	2016-09-22T20:00:00	10.3	ND	ND	ND	0.17	ND	ND	ND	ND	ND	ND	0
58318	2016-09-22T21:00:00	14.1	ND	ND	ND	0.14	ND	ND	ND	ND	ND	ND	0
58319	2016-09-22T22:00:00	11.9	ND	ND	ND	0.20	ND	ND	ND	ND	ND	ND	1.02
58320	2016-09-22T23:00:00	11.1	ND	ND	ND	0.17	ND	ND	ND	ND	ND	ND	23.11
58321	2016-09-23T00:00:00	ND	ND	ND	ND	0.21	ND	ND	ND	ND	ND	ND	1.02
58322	2016-09-23T01:00:00	0.8	ND	ND	ND	0.11	ND	ND	ND	ND	ND	ND	9.4
58323	2016-09-23T02:00:00	9.7	ND	ND	ND	0.20	ND	ND	ND	ND	ND	ND	0.25
58324	2016-09-23T03:00:00	46.9	ND	ND	ND	0.14	ND	ND	ND	ND	ND	ND	0
58325	2016-09-23T04:00:00	23.1	ND	ND	ND	0.70	ND	ND	ND	ND	ND	ND	0
58326	2016-09-23T05:00:00	7.4	ND	ND	ND	0.35	ND	ND	ND	ND	ND	ND	0
58327	2016-09-23T06:00:00	23.5	ND	ND	ND	0.53	ND	ND	ND	ND	ND	ND	0
58328	2016-09-23T07:00:00	0.8	ND	ND	ND	0.11	ND	ND	ND	ND	ND	ND	0
58329	2016-09-23T08:00:00	4	ND	ND	ND	0.43	ND	ND	ND	ND	ND	ND	0
58330	2016-09-23T09:00:00	3.9	ND	ND	ND	0.54	ND	ND	ND	ND	ND	ND	0
58331	2016-09-23T10:00:00	ND	ND	ND	ND	0.33	ND	ND	ND	ND	ND	ND	0
58332	2016-09-23T11:00:00	101.5	ND	ND	ND	0.08	ND	ND	ND	ND	ND	ND	0
58333	2016-09-23T12:00:00	228.5	ND	ND	ND	0.17	ND	ND	ND	ND	ND	ND	0
58334	2016-09-23T13:00:00	98.1	ND	ND	ND	0.29	ND	ND	ND	ND	ND	ND	0
58335	2016-09-23T14:00:00	35.7	ND	ND	ND	0.21	ND	ND	ND	ND	ND	ND	0
58336	2016-09-23T15:00:00	54.4	ND	ND	ND	0.22	ND	ND	ND	ND	ND	ND	0
58337	2016-09-23T16:00:00	33.3	ND	ND	ND	0.15	ND	ND	ND	ND	ND	ND	0
58338	2016-09-23T17:00:00	100.3	ND	ND	ND	0.22	ND	ND	ND	ND	ND	ND	0
58339	2016-09-23T18:00:00	104	ND	ND	ND	0.17	ND	ND	ND	ND	ND	ND	0
58340	2016-09-23T19:00:00	30.6	ND	ND	ND	0.15	ND	ND	ND	ND	ND	ND	0
58341	2016-09-23T20:00:00	14.9	ND	ND	ND	0.13	ND	ND	ND	ND	ND	ND	0
58342	2016-09-23T21:00:00	19.9	ND	ND	ND	0.03	ND	ND	ND	ND	ND	ND	0
58343	2016-09-23T22:00:00	21.3	ND	ND	ND	0.26	ND	ND	ND	ND	ND	ND	0
58344	2016-09-23T23:00:00	40.8	ND	ND	ND	0.64	ND	ND	ND	ND	ND	ND	0
58345	2016-09-24T00:00:00	32.8	ND	ND	ND	0.13	ND	ND	ND	ND	ND	ND	0
58346	2016-09-24T01:00:00	17.9	ND	ND	ND	0.38	ND	ND	ND	ND	ND	ND	0
58347	2016-09-24T02:00:00	55.3	ND	ND	ND	0.71	ND	ND	ND	ND	ND	ND	0
58348	2016-09-24T03:00:00	33.4	ND	ND	ND	0.45	ND	ND	ND	ND	ND	ND	0
58349	2016-09-24T04:00:00	3.8	ND	ND	ND	0.61	ND	ND	ND	ND	ND	ND	39.88
58350	2016-09-24T05:00:00	ND	ND	ND	ND	0.29	ND	ND	ND	ND	ND	ND	0.51
58351	2016-09-24T06:00:00	ND	ND	ND	ND	0.45	ND	ND	ND	ND	ND	ND	0.25
58352	2016-09-24T07:00:00	2.9	ND	ND	ND	1.02	ND	ND	ND	ND	ND	ND	0
58353	2016-09-24T08:00:00	35.6	ND	ND	ND	0.49	ND	ND	ND	ND	ND	ND	0
58354	2016-09-24T09:00:00	70	ND	ND	ND	0.91	ND	ND	ND	ND	ND	ND	0
58355	2016-09-24T10:00:00	144.6	ND	ND	ND	1.41	ND	ND	ND	ND	ND	ND	0
58356	2016-09-24T11:00:00	90.6	ND	ND	ND	0.49	ND	ND	ND	ND	ND	ND	0
58357	2016-09-24T12:00:00	94.7	ND	ND	ND	0.47	ND	ND	ND	ND	ND	ND	0
58358	2016-09-24T13:00:00	122.3	ND	ND	ND	0.25	ND	ND	ND	ND	ND	ND	0
58359	2016-09-24T14:00:00	158.3	ND	ND	ND	0.29	ND	ND	ND	ND	ND	ND	0
58360	2016-09-24T15:00:00	174.3	ND	ND	ND	0.14	ND	ND	ND	ND	ND	ND	0
58361	2016-09-24T16:00:00	84.3	ND	ND	ND	0.06	ND	ND	ND	ND	ND	ND	0
58362	2016-09-24T17:00:00	21.7	ND	ND	ND	0.11	ND	ND	ND	ND	ND	ND	0
58363	2016-09-24T18:00:00	19.4	ND	ND	ND	0.13	ND	ND	ND	ND	ND	ND	0
58364	2016-09-24T19:00:00	10.9	ND	ND	ND	0.63	ND	ND	ND	ND	ND	ND	0
58365	2016-09-24T20:00:00	35.9	ND	ND	ND	1.49	ND	ND	ND	ND	ND	ND	0
58366	2016-09-24T21:00:00	60.4	ND	ND	ND	1.09	ND	ND	ND	ND	ND	ND	0
58367	2016-09-24T22:00:00	62.4	ND	ND	ND	0.43	ND	ND	ND	ND	ND	ND	0
58368	2016-09-24T23:00:00	43	ND	ND	ND	0.50	ND	ND	ND	ND	ND	ND	0
58369	2016-09-25T00:00:00	41	ND	ND	ND	0.63	ND	ND	ND	ND	ND	ND	0
58370	2016-09-25T01:00:00	33.5	ND	ND	ND	0.60	ND	ND	ND	ND	ND	ND	0
58371	2016-09-25T02:00:00	38	ND	ND	ND	0.33	ND	ND	ND	ND	ND	ND	0
58372	2016-09-25T03:00:00	30.8	ND	ND	ND	0.25	ND	ND	ND	ND	ND	ND	0
58373	2016-09-25T04:00:00	34.8	ND	ND	ND	0.35	ND	ND	ND	ND	ND	ND	0
58374	2016-09-25T05:00:00	30.1	ND	ND	ND	0.88	ND	ND	ND	ND	ND	ND	0
58375	2016-09-25T06:00:00	32	ND	ND	ND	1.91	ND	ND	ND	ND	ND	ND	0
58376	2016-09-25T07:00:00	73.9	ND	ND	ND	2.41	ND	ND	ND	ND	ND	ND	0
58377	2016-09-25T08:00:00	50.5	ND	ND	ND	2.63	ND	ND	ND	ND	ND	ND	0
58378	2016-09-25T09:00:00	5.3	ND	ND	ND	0.54	ND	ND	ND	ND	ND	ND	0
58379	2016-09-25T10:00:00	61.4	ND	ND	ND	0.50	ND	ND	ND	ND	ND	ND	0
58380	2016-09-25T11:00:00	77.9	ND	ND	ND	0.35	ND	ND	ND	ND	ND	ND	0
58381	2016-09-25T12:00:00	59.5	ND	ND	ND	0.21	ND	ND	ND	ND	ND	ND	0
58382	2016-09-25T13:00:00	76.4	ND	ND	ND	0.36	ND	ND	ND	ND	ND	ND	0
58383	2016-09-25T14:00:00	77.7	ND	ND	ND	0.08	ND	ND	ND	ND	ND	ND	0
58384	2016-09-25T15:00:00	106.1	ND	ND	ND	0.10	ND	ND	ND	ND	ND	ND	0
58385	2016-09-25T16:00:00	43.1	ND	ND	ND	0.31	ND	ND	ND	ND	ND	ND	0
58386	2016-09-25T17:00:00	51.4	ND	ND	ND	0.10	ND	ND	ND	ND	ND	ND	0
58387	2016-09-25T18:00:00	60	ND	ND	ND	0.10	ND	ND	ND	ND	ND	ND	0
58388	2016-09-25T19:00:00	3	ND	ND	ND	0.18	ND	ND	ND	ND	ND	ND	0
58389	2016-09-25T20:00:00	7.3	ND	ND	ND	0.14	ND	ND	ND	ND	ND	ND	0
58390	2016-09-25T21:00:00	0.8	ND	ND	ND	0.06	ND	ND	ND	ND	ND	ND	0
58391	2016-09-25T22:00:00	0.8	ND	ND	ND	0.06	ND	ND	ND	ND	ND	ND	0
58392	2016-09-25T23:00:00	7.1	ND	ND	ND	0.07	ND	ND	ND	ND	ND	ND	0
58393	2016-09-26T00:00:00	13.1	ND	ND	ND	0.61	ND	ND	ND	ND	ND	ND	0
58394	2016-09-26T01:00:00	50.1	ND	ND	ND	1.30	ND	ND	ND	ND	ND	ND	0
58395	2016-09-26T02:00:00	34.5	ND	ND	ND	0.81	ND	ND	ND	ND	ND	ND	0
58396	2016-09-26T03:00:00	68.5	ND	ND	ND	0.70	ND	ND	ND	ND	ND	ND	0
58397	2016-09-26T04:00:00	42.5	ND	ND	ND	0.64	ND	ND	ND	ND	ND	ND	0
58398	2016-09-26T05:00:00	52.9	ND	ND	ND	2.23	ND	ND	ND	ND	ND	ND	2.54
58399	2016-09-26T06:00:00	54.1	ND	ND	ND	1.18	ND	ND	ND	ND	ND	ND	2.29
58400	2016-09-26T07:00:00	38.6	ND	ND	ND	0.57	ND	ND	ND	ND	ND	ND	0
58401	2016-09-26T08:00:00	56.2	ND	ND	ND	0.60	ND	ND	ND	ND	ND	ND	0
58402	2016-09-26T09:00:00	73	ND	ND	ND	0.50	ND	ND	ND	ND	ND	ND	0
58403	2016-09-26T10:00:00	124.4	ND	ND	ND	0.33	ND	ND	ND	ND	ND	ND	0
58404	2016-09-26T11:00:00	19.9	ND	ND	ND	0.32	ND	ND	ND	ND	ND	ND	0
58405	2016-09-26T12:00:00	88.6	ND	ND	ND	0.13	ND	ND	ND	ND	ND	ND	0
58406	2016-09-26T13:00:00	88	ND	ND	ND	0.11	ND	ND	ND	ND	ND	ND	0
58407	2016-09-26T14:00:00	42.5	ND	ND	ND	0.32	ND	ND	ND	ND	ND	ND	0
58408	2016-09-26T15:00:00	151.2	ND	ND	ND	0.24	ND	ND	ND	ND	ND	ND	0
58409	2016-09-26T16:00:00	99.2	ND	ND	ND	0.07	ND	ND	ND	ND	ND	ND	0
58410	2016-09-26T17:00:00	42.2	ND	ND	ND	0.15	ND	ND	ND	ND	ND	ND	0
58411	2016-09-26T18:00:00	35.8	ND	ND	ND	0.07	ND	ND	ND	ND	ND	ND	0
58412	2016-09-26T19:00:00	46.8	ND	ND	ND	0.04	ND	ND	ND	ND	ND	ND	0
58413	2016-09-26T20:00:00	12.2	ND	ND	ND	0.11	ND	ND	ND	ND	ND	ND	0
58414	2016-09-26T21:00:00	6.8	ND	ND	ND	0.08	ND	ND	ND	ND	ND	ND	0
58415	2016-09-26T22:00:00	11.7	ND	ND	ND	0.22	ND	ND	ND	ND	ND	ND	0
58416	2016-09-26T23:00:00	24.8	ND	ND	ND	0.42	ND	ND	ND	ND	ND	ND	0
58417	2016-09-27T00:00:00	25.4	ND	ND	ND	0.99	ND	ND	ND	ND	ND	ND	0
58418	2016-09-27T01:00:00	8.1	ND	ND	ND	1.27	ND	ND	ND	ND	ND	ND	0
58419	2016-09-27T02:00:00	15.2	ND	ND	ND	0.68	ND	ND	ND	ND	ND	ND	0
58420	2016-09-27T03:00:00	53.4	ND	ND	ND	0.59	ND	ND	ND	ND	ND	ND	0
58421	2016-09-27T04:00:00	40	ND	ND	ND	0.50	ND	ND	ND	ND	ND	ND	0
58422	2016-09-27T05:00:00	95.2	ND	ND	ND	0.39	ND	ND	ND	ND	ND	ND	0
58423	2016-09-27T06:00:00	37.6	ND	ND	ND	0.43	ND	ND	ND	ND	ND	ND	0
58424	2016-09-27T07:00:00	95	ND	ND	ND	1.74	ND	ND	ND	ND	ND	ND	0
58425	2016-09-27T08:00:00	43.5	ND	ND	ND	1.87	ND	ND	ND	ND	ND	ND	0
58426	2016-09-27T09:00:00	116.8	ND	ND	ND	1.23	ND	ND	ND	ND	ND	ND	0
58427	2016-09-27T10:00:00	134.2	ND	ND	ND	0.82	ND	ND	ND	ND	ND	ND	0
58428	2016-09-27T11:00:00	147.1	ND	ND	ND	0.43	ND	ND	ND	ND	ND	ND	0
58429	2016-09-27T12:00:00	65.1	ND	ND	ND	0.28	ND	ND	ND	ND	ND	ND	0
58430	2016-09-27T13:00:00	83.2	ND	ND	ND	0.29	ND	ND	ND	ND	ND	ND	0
58431	2016-09-27T14:00:00	137.3	ND	ND	ND	0.20	ND	ND	ND	ND	ND	ND	0
58432	2016-09-27T15:00:00	96.1	ND	ND	ND	0.20	ND	ND	ND	ND	ND	ND	0
58433	2016-09-27T16:00:00	23.3	ND	ND	ND	0.07	ND	ND	ND	ND	ND	ND	0
58434	2016-09-27T17:00:00	108.8	ND	ND	ND	0.17	ND	ND	ND	ND	ND	ND	0
58435	2016-09-27T18:00:00	89.6	ND	ND	ND	0.06	ND	ND	ND	ND	ND	ND	0
58436	2016-09-27T19:00:00	32.5	ND	ND	ND	0.13	ND	ND	ND	ND	ND	ND	0
58437	2016-09-27T20:00:00	0.7	ND	ND	ND	0.11	ND	ND	ND	ND	ND	ND	0
58438	2016-09-27T21:00:00	6	ND	ND	ND	0.08	ND	ND	ND	ND	ND	ND	0
58439	2016-09-27T22:00:00	1.8	ND	ND	ND	0.20	ND	ND	ND	ND	ND	ND	0
58440	2016-09-27T23:00:00	10.5	ND	ND	ND	0.17	ND	ND	ND	ND	ND	ND	0
58441	2016-09-28T00:00:00	15.9	ND	ND	ND	0.28	ND	ND	ND	ND	ND	ND	0
58442	2016-09-28T01:00:00	14	ND	ND	ND	0.42	ND	ND	ND	ND	ND	ND	0
58443	2016-09-28T02:00:00	24.1	ND	ND	ND	0.79	ND	ND	ND	ND	ND	ND	0
58444	2016-09-28T03:00:00	31.9	ND	ND	ND	0.64	ND	ND	ND	ND	ND	ND	0
58445	2016-09-28T04:00:00	13.4	ND	ND	ND	0.72	ND	ND	ND	ND	ND	ND	0
58446	2016-09-28T05:00:00	67.9	ND	ND	ND	1.24	ND	ND	ND	ND	ND	ND	0
58447	2016-09-28T06:00:00	35.8	ND	ND	ND	1.06	ND	ND	ND	ND	ND	ND	0
58448	2016-09-28T07:00:00	107.1	ND	ND	ND	1.52	ND	ND	ND	ND	ND	ND	0
58449	2016-09-28T08:00:00	166.2	ND	ND	ND	2.15	ND	ND	ND	ND	ND	ND	0
58450	2016-09-28T09:00:00	140	ND	ND	ND	1.39	ND	ND	ND	ND	ND	ND	1.02
58451	2016-09-28T10:00:00	38.2	ND	ND	ND	1.24	ND	ND	ND	ND	ND	ND	0
58452	2016-09-28T11:00:00	141	ND	ND	ND	0.47	ND	ND	ND	ND	ND	ND	0
58453	2016-09-28T12:00:00	93.8	ND	ND	ND	0.32	ND	ND	ND	ND	ND	ND	0
58454	2016-09-28T13:00:00	108.2	ND	ND	ND	0.17	ND	ND	ND	ND	ND	ND	0
58455	2016-09-28T14:00:00	93.6	ND	ND	ND	0.17	ND	ND	ND	ND	ND	ND	0
58456	2016-09-28T15:00:00	27.1	ND	ND	ND	0.10	ND	ND	ND	ND	ND	ND	0
58457	2016-09-28T16:00:00	28	ND	ND	ND	0.18	ND	ND	ND	ND	ND	ND	0
58458	2016-09-28T17:00:00	91.3	ND	ND	ND	0.15	ND	ND	ND	ND	ND	ND	0
58459	2016-09-28T18:00:00	62.6	ND	ND	ND	0.06	ND	ND	ND	ND	ND	ND	0
58460	2016-09-28T19:00:00	24.1	ND	ND	ND	0.13	ND	ND	ND	ND	ND	ND	0
58461	2016-09-28T20:00:00	3.1	ND	ND	ND	0.07	ND	ND	ND	ND	ND	ND	0
58462	2016-09-28T21:00:00	13.3	ND	ND	ND	0.29	ND	ND	ND	ND	ND	ND	0
58463	2016-09-28T22:00:00	8.5	ND	ND	ND	0.53	ND	ND	ND	ND	ND	ND	0
58464	2016-09-28T23:00:00	49	ND	ND	ND	0.17	ND	ND	ND	ND	ND	ND	0
58465	2016-09-29T00:00:00	23	ND	ND	ND	0.79	ND	ND	ND	ND	ND	ND	0
58466	2016-09-29T01:00:00	4.7	ND	ND	ND	0.91	ND	ND	ND	ND	ND	ND	0
58467	2016-09-29T02:00:00	15.6	ND	ND	ND	0.64	ND	ND	ND	ND	ND	ND	0
58468	2016-09-29T03:00:00	33.2	ND	ND	ND	1.21	ND	ND	ND	ND	ND	ND	0
58469	2016-09-29T04:00:00	28.4	ND	ND	ND	1.03	ND	ND	ND	ND	ND	ND	0
58470	2016-09-29T05:00:00	28.4	ND	ND	ND	1.38	ND	ND	ND	ND	ND	ND	0
58471	2016-09-29T06:00:00	57.3	ND	ND	ND	1.37	ND	ND	ND	ND	ND	ND	0
58472	2016-09-29T07:00:00	115	ND	ND	ND	0.93	ND	ND	ND	ND	ND	ND	0
58473	2016-09-29T08:00:00	82.4	ND	ND	ND	0.70	ND	ND	ND	ND	ND	ND	0
58474	2016-09-29T09:00:00	80.7	ND	ND	ND	1.10	ND	ND	ND	ND	ND	ND	0
58475	2016-09-29T10:00:00	56.3	ND	ND	ND	0.61	ND	ND	ND	ND	ND	ND	0
58476	2016-09-29T11:00:00	92.3	ND	ND	ND	0.46	ND	ND	ND	ND	ND	ND	0
58477	2016-09-29T12:00:00	114	ND	ND	ND	0.22	ND	ND	ND	ND	ND	ND	0
58478	2016-09-29T13:00:00	69.3	ND	ND	ND	0.26	ND	ND	ND	ND	ND	ND	0
58479	2016-09-29T14:00:00	152.4	ND	ND	ND	0.24	ND	ND	ND	ND	ND	ND	8.64
58480	2016-09-29T15:00:00	26.8	ND	ND	ND	0.13	ND	ND	ND	ND	ND	ND	0
58481	2016-09-29T16:00:00	29.7	ND	ND	ND	0.08	ND	ND	ND	ND	ND	ND	0
58482	2016-09-29T17:00:00	62.5	ND	ND	ND	0.39	ND	ND	ND	ND	ND	ND	0
58483	2016-09-29T18:00:00	29	ND	ND	ND	0.25	ND	ND	ND	ND	ND	ND	0
58484	2016-09-29T19:00:00	103.9	ND	ND	ND	0.14	ND	ND	ND	ND	ND	ND	0
58485	2016-09-29T20:00:00	124.6	ND	ND	ND	0.17	ND	ND	ND	ND	ND	ND	0
58486	2016-09-29T21:00:00	68.1	ND	ND	ND	0.26	ND	ND	ND	ND	ND	ND	0
58487	2016-09-29T22:00:00	45.2	ND	ND	ND	1.49	ND	ND	ND	ND	ND	ND	0
58488	2016-09-29T23:00:00	87.4	ND	ND	ND	3.57	ND	ND	ND	ND	ND	ND	0
58489	2016-09-30T00:00:00	82.4	ND	ND	ND	4.29	ND	ND	ND	ND	ND	ND	0
58490	2016-09-30T01:00:00	66	ND	ND	ND	2.84	ND	ND	ND	ND	ND	ND	0
58491	2016-09-30T02:00:00	46.3	ND	ND	ND	5.88	ND	ND	ND	ND	ND	ND	0
58492	2016-09-30T03:00:00	42.6	ND	ND	ND	2.10	ND	ND	ND	ND	ND	ND	0
58493	2016-09-30T04:00:00	40.9	ND	ND	ND	0.77	ND	ND	ND	ND	ND	ND	0
58494	2016-09-30T05:00:00	52.1	ND	ND	ND	2.47	ND	ND	ND	ND	ND	ND	0
58495	2016-09-30T06:00:00	77.7	ND	ND	ND	3.08	ND	ND	ND	ND	ND	ND	0
58496	2016-09-30T07:00:00	104.9	ND	ND	ND	2.16	ND	ND	ND	ND	ND	ND	0
58497	2016-09-30T08:00:00	57.7	ND	ND	ND	1.92	ND	ND	ND	ND	ND	ND	0
58498	2016-09-30T09:00:00	69.6	ND	ND	ND	0.72	ND	ND	ND	ND	ND	ND	0
58499	2016-09-30T10:00:00	76.9	ND	ND	ND	0.28	ND	ND	ND	ND	ND	ND	0
58500	2016-09-30T11:00:00	128.5	ND	ND	ND	0.50	ND	ND	ND	ND	ND	ND	0
58501	2016-09-30T12:00:00	75.6	ND	ND	ND	0.40	ND	ND	ND	ND	ND	ND	0
58502	2016-09-30T13:00:00	76.7	ND	ND	ND	0.50	ND	ND	ND	ND	ND	ND	0
58503	2016-09-30T14:00:00	104.1	ND	ND	ND	0.17	ND	ND	ND	ND	ND	ND	0
58504	2016-09-30T15:00:00	85.1	ND	ND	ND	0.20	ND	ND	ND	ND	ND	ND	0
58505	2016-09-30T16:00:00	67.6	ND	ND	ND	0.17	ND	ND	ND	ND	ND	ND	0
58506	2016-09-30T17:00:00	85.5	ND	ND	ND	0.11	ND	ND	ND	ND	ND	ND	0
58507	2016-09-30T18:00:00	26.3	ND	ND	ND	0.14	ND	ND	ND	ND	ND	ND	39.37
58508	2016-09-30T19:00:00	1	ND	ND	ND	0.33	ND	ND	ND	ND	ND	ND	5.84
58509	2016-09-30T20:00:00	ND	ND	ND	ND	0.20	ND	ND	ND	ND	ND	ND	1.78
58510	2016-09-30T21:00:00	10.1	ND	ND	ND	0.95	ND	ND	ND	ND	ND	ND	0.76
58511	2016-09-30T22:00:00	29.5	ND	ND	ND	0.84	ND	ND	ND	ND	ND	ND	0.76
58512	2016-09-30T23:00:00	65.7	ND	ND	ND	0.29	ND	ND	ND	ND	ND	ND	0.25
58513	2016-10-01T00:00:00	47.5	ND	ND	ND	0.45	ND	ND	ND	ND	ND	ND	8.64
58514	2016-10-01T01:00:00	58	ND	ND	ND	0.45	ND	ND	ND	ND	ND	ND	75.95
58515	2016-10-01T02:00:00	50.6	ND	ND	ND	0.26	ND	ND	ND	ND	ND	ND	8.89
58516	2016-10-01T03:00:00	4.5	ND	ND	ND	0.46	ND	ND	ND	ND	ND	ND	17.27
58517	2016-10-01T04:00:00	13.6	ND	ND	ND	0.22	ND	ND	ND	ND	ND	ND	11.68
58518	2016-10-01T05:00:00	5.1	ND	ND	ND	0.24	ND	ND	ND	ND	ND	ND	14.73
58519	2016-10-01T06:00:00	23	ND	ND	ND	0.25	ND	ND	ND	ND	ND	ND	13.46
58520	2016-10-01T07:00:00	21.1	ND	ND	ND	0.29	ND	ND	ND	ND	ND	ND	3.3
58521	2016-10-01T08:00:00	ND	ND	ND	ND	0.29	ND	ND	ND	ND	ND	ND	0.51
58522	2016-10-01T09:00:00	2.1	ND	ND	ND	0.25	ND	ND	ND	ND	ND	ND	0
58523	2016-10-01T10:00:00	24.1	ND	ND	ND	0.24	ND	ND	ND	ND	ND	ND	0
58524	2016-10-01T11:00:00	75.9	ND	ND	ND	0.40	ND	ND	ND	ND	ND	ND	0
58525	2016-10-01T12:00:00	76.2	ND	ND	ND	0.18	ND	ND	ND	ND	ND	ND	0
58526	2016-10-01T13:00:00	44.5	ND	ND	ND	0.11	ND	ND	ND	ND	ND	ND	0
58527	2016-10-01T14:00:00	79.7	ND	ND	ND	0.20	ND	ND	ND	ND	ND	ND	4.06
58528	2016-10-01T15:00:00	24.9	ND	ND	ND	0.40	ND	ND	ND	ND	ND	ND	0
58529	2016-10-01T16:00:00	32.9	ND	ND	ND	0.21	ND	ND	ND	ND	ND	ND	0
58530	2016-10-01T17:00:00	114.2	ND	ND	ND	0.13	ND	ND	ND	ND	ND	ND	0
58531	2016-10-01T18:00:00	19.4	ND	ND	ND	0.08	ND	ND	ND	ND	ND	ND	0
58532	2016-10-01T19:00:00	15.4	ND	ND	ND	0.18	ND	ND	ND	ND	ND	ND	0
58533	2016-10-01T20:00:00	25.7	ND	ND	ND	0.29	ND	ND	ND	ND	ND	ND	0
58534	2016-10-01T21:00:00	33.6	ND	ND	ND	0.20	ND	ND	ND	ND	ND	ND	0
58535	2016-10-01T22:00:00	51.7	ND	ND	ND	0.25	ND	ND	ND	ND	ND	ND	0
58536	2016-10-01T23:00:00	61.3	ND	ND	ND	0.85	ND	ND	ND	ND	ND	ND	0
58537	2016-10-02T00:00:00	61.9	ND	ND	ND	0.78	ND	ND	ND	ND	ND	ND	14.48
58538	2016-10-02T01:00:00	42.3	ND	ND	ND	0.22	ND	ND	ND	ND	ND	ND	0.76
58539	2016-10-02T02:00:00	27.7	ND	ND	ND	0.22	ND	ND	ND	ND	ND	ND	0.25
58540	2016-10-02T03:00:00	11	ND	ND	ND	0.42	ND	ND	ND	ND	ND	ND	0
58541	2016-10-02T04:00:00	16.2	ND	ND	ND	0.43	ND	ND	ND	ND	ND	ND	0.25
58542	2016-10-02T05:00:00	30.2	ND	ND	ND	0.33	ND	ND	ND	ND	ND	ND	0
58543	2016-10-02T06:00:00	35.8	ND	ND	ND	1.44	ND	ND	ND	ND	ND	ND	0
58544	2016-10-02T07:00:00	36.5	ND	ND	ND	1.28	ND	ND	ND	ND	ND	ND	0
58545	2016-10-02T08:00:00	44.3	ND	ND	ND	0.68	ND	ND	ND	ND	ND	ND	0
58546	2016-10-02T09:00:00	42.2	ND	ND	ND	0.64	ND	ND	ND	ND	ND	ND	0
58547	2016-10-02T10:00:00	58.1	ND	ND	ND	0.22	ND	ND	ND	ND	ND	ND	0
58548	2016-10-02T11:00:00	48.1	ND	ND	ND	0.22	ND	ND	ND	ND	ND	ND	0
58549	2016-10-02T12:00:00	29.2	ND	ND	ND	0.20	ND	ND	ND	ND	ND	ND	0
58550	2016-10-02T13:00:00	17.8	ND	ND	ND	0.28	ND	ND	ND	ND	ND	ND	0
58551	2016-10-02T14:00:00	19.4	ND	ND	ND	0.06	ND	ND	ND	ND	ND	ND	0
58552	2016-10-02T15:00:00	19.5	ND	ND	ND	0.20	ND	ND	ND	ND	ND	ND	22.35
58553	2016-10-02T16:00:00	ND	ND	ND	ND	0.14	ND	ND	ND	ND	ND	ND	4.57
58554	2016-10-02T17:00:00	64.5	ND	ND	ND	0.07	ND	ND	ND	ND	ND	ND	0.25
58555	2016-10-02T18:00:00	114.2	ND	ND	ND	0.11	ND	ND	ND	ND	ND	ND	0
58556	2016-10-02T19:00:00	17.2	ND	ND	ND	0.08	ND	ND	ND	ND	ND	ND	0
58557	2016-10-02T20:00:00	15.6	ND	ND	ND	0.14	ND	ND	ND	ND	ND	ND	0
58558	2016-10-02T21:00:00	29.5	ND	ND	ND	0.24	ND	ND	ND	ND	ND	ND	12.19
58559	2016-10-02T22:00:00	41.8	ND	ND	ND	0.21	ND	ND	ND	ND	ND	ND	1.27
58560	2016-10-02T23:00:00	22.1	ND	ND	ND	0.24	ND	ND	ND	ND	ND	ND	69.85
58561	2016-10-03T00:00:00	17.1	ND	ND	ND	0.06	ND	ND	ND	ND	ND	ND	12.19
58562	2016-10-03T01:00:00	13.2	ND	ND	ND	0.20	ND	ND	ND	ND	ND	ND	0.25
58563	2016-10-03T02:00:00	40.1	ND	ND	ND	0.31	ND	ND	ND	ND	ND	ND	14.73
58564	2016-10-03T03:00:00	19.5	ND	ND	ND	0.47	ND	ND	ND	ND	ND	ND	0.25
58565	2016-10-03T04:00:00	9.8	ND	ND	ND	0.38	ND	ND	ND	ND	ND	ND	0.25
58566	2016-10-03T05:00:00	31	ND	ND	ND	0.32	ND	ND	ND	ND	ND	ND	0
58567	2016-10-03T06:00:00	13.9	ND	ND	ND	0.28	ND	ND	ND	ND	ND	ND	0
58568	2016-10-03T07:00:00	55.6	ND	ND	ND	0.32	ND	ND	ND	ND	ND	ND	0
58569	2016-10-03T08:00:00	63.2	ND	ND	ND	0.36	ND	ND	ND	ND	ND	ND	0
58570	2016-10-03T09:00:00	97.6	ND	ND	ND	0.78	ND	ND	ND	ND	ND	ND	0
58571	2016-10-03T10:00:00	89.7	ND	ND	ND	0.33	ND	ND	ND	ND	ND	ND	0
58572	2016-10-03T11:00:00	64.7	ND	ND	ND	0.32	ND	ND	ND	ND	ND	ND	0
58573	2016-10-03T12:00:00	48.7	ND	ND	ND	0.21	ND	ND	ND	ND	ND	ND	0
58574	2016-10-03T13:00:00	29.1	ND	ND	ND	0.11	ND	ND	ND	ND	ND	ND	0
58575	2016-10-03T14:00:00	30.5	ND	ND	ND	0.07	ND	ND	ND	ND	ND	ND	0
58576	2016-10-03T15:00:00	33.1	ND	ND	ND	0.14	ND	ND	ND	ND	ND	ND	0
58577	2016-10-03T16:00:00	55.8	ND	ND	ND	0.22	ND	ND	ND	ND	ND	ND	0
58578	2016-10-03T17:00:00	26	ND	ND	ND	0.11	ND	ND	ND	ND	ND	ND	0
58579	2016-10-03T18:00:00	19.7	ND	ND	ND	0.15	ND	ND	ND	ND	ND	ND	0
58580	2016-10-03T19:00:00	3.9	ND	ND	ND	0.03	ND	ND	ND	ND	ND	ND	0
58581	2016-10-03T20:00:00	15.4	ND	ND	ND	0.11	ND	ND	ND	ND	ND	ND	0
58582	2016-10-03T21:00:00	14.8	ND	ND	ND	0.26	ND	ND	ND	ND	ND	ND	0
58583	2016-10-03T22:00:00	17.1	ND	ND	ND	0.11	ND	ND	ND	ND	ND	ND	0
58584	2016-10-03T23:00:00	18.2	ND	ND	ND	0.13	ND	ND	ND	ND	ND	ND	0
58585	2016-10-04T00:00:00	4.6	ND	ND	ND	0.50	ND	ND	ND	ND	ND	ND	0
58586	2016-10-04T01:00:00	10.2	ND	ND	ND	0.13	ND	ND	ND	ND	ND	ND	10.41
58587	2016-10-04T02:00:00	13	ND	ND	ND	0.11	ND	ND	ND	ND	ND	ND	9.14
58588	2016-10-04T03:00:00	26.8	ND	ND	ND	0.28	ND	ND	ND	ND	ND	ND	3.05
58589	2016-10-04T04:00:00	20.2	ND	ND	ND	2.19	ND	ND	ND	ND	ND	ND	1.27
58590	2016-10-04T05:00:00	29	ND	ND	ND	0.77	ND	ND	ND	ND	ND	ND	0.25
58591	2016-10-04T06:00:00	28.3	ND	ND	ND	0.36	ND	ND	ND	ND	ND	ND	0.51
58592	2016-10-04T07:00:00	41.3	ND	ND	ND	0.31	ND	ND	ND	ND	ND	ND	0
58593	2016-10-04T08:00:00	22	ND	ND	ND	0.07	ND	ND	ND	ND	ND	ND	0.25
58594	2016-10-04T09:00:00	8.9	ND	ND	ND	0.11	ND	ND	ND	ND	ND	ND	0
58595	2016-10-04T10:00:00	37.9	ND	ND	ND	0.06	ND	ND	ND	ND	ND	ND	0
58596	2016-10-04T11:00:00	62.9	ND	ND	ND	0.17	ND	ND	ND	ND	ND	ND	0
58597	2016-10-04T12:00:00	69	ND	ND	ND	0.18	ND	ND	ND	ND	ND	ND	0
58598	2016-10-04T13:00:00	67.7	ND	ND	ND	0.33	ND	ND	ND	ND	ND	ND	0
58599	2016-10-04T14:00:00	56.4	ND	ND	ND	0.14	ND	ND	ND	ND	ND	ND	0
58600	2016-10-04T15:00:00	45.6	ND	ND	ND	0.13	ND	ND	ND	ND	ND	ND	0
58601	2016-10-04T16:00:00	16.7	ND	ND	ND	0.11	ND	ND	ND	ND	ND	ND	0
58602	2016-10-04T17:00:00	4.1	ND	ND	ND	0.07	ND	ND	ND	ND	ND	ND	0
58603	2016-10-04T18:00:00	0.7	ND	ND	ND	0.10	ND	ND	ND	ND	ND	ND	0
58604	2016-10-04T19:00:00	16.8	ND	ND	ND	0.06	ND	ND	ND	ND	ND	ND	0
58605	2016-10-04T20:00:00	34	ND	ND	ND	0.15	ND	ND	ND	ND	ND	ND	0
58606	2016-10-04T21:00:00	23.6	ND	ND	ND	0.11	ND	ND	ND	ND	ND	ND	0
58607	2016-10-04T22:00:00	14	ND	ND	ND	0.21	ND	ND	ND	ND	ND	ND	0
58608	2016-10-04T23:00:00	27.1	ND	ND	ND	0.25	ND	ND	ND	ND	ND	ND	0
58609	2016-10-05T00:00:00	72.4	ND	ND	ND	0.56	ND	ND	ND	ND	ND	ND	0
58610	2016-10-05T01:00:00	74.6	ND	ND	ND	0.21	ND	ND	ND	ND	ND	ND	0
58611	2016-10-05T02:00:00	36.7	ND	ND	ND	0.35	ND	ND	ND	ND	ND	ND	0
58612	2016-10-05T03:00:00	48.2	ND	ND	ND	0.36	ND	ND	ND	ND	ND	ND	0
58613	2016-10-05T04:00:00	49.4	ND	ND	ND	0.45	ND	ND	ND	ND	ND	ND	0
58614	2016-10-05T05:00:00	57.3	ND	ND	ND	0.71	ND	ND	ND	ND	ND	ND	0
58615	2016-10-05T06:00:00	54	ND	ND	ND	0.24	ND	ND	ND	ND	ND	ND	0
58616	2016-10-05T07:00:00	63.1	ND	ND	ND	0.36	ND	ND	ND	ND	ND	ND	0
58617	2016-10-05T08:00:00	102.2	ND	ND	ND	0.46	ND	ND	ND	ND	ND	ND	0
58618	2016-10-05T09:00:00	102.5	ND	ND	ND	0.81	ND	ND	ND	ND	ND	ND	0
58619	2016-10-05T10:00:00	119.2	ND	ND	ND	0.53	ND	ND	ND	ND	ND	ND	0
58620	2016-10-05T11:00:00	97.2	ND	ND	ND	0.31	ND	ND	ND	ND	ND	ND	0
58621	2016-10-05T12:00:00	65.1	ND	ND	ND	0.14	ND	ND	ND	ND	ND	ND	0
58622	2016-10-05T13:00:00	54	ND	ND	ND	0.31	ND	ND	ND	ND	ND	ND	0
58623	2016-10-05T14:00:00	44.9	ND	ND	ND	0.20	ND	ND	ND	ND	ND	ND	0
58624	2016-10-05T15:00:00	77.1	ND	ND	ND	0.33	ND	ND	ND	ND	ND	ND	0
58625	2016-10-05T16:00:00	45	ND	ND	ND	0.08	ND	ND	ND	ND	ND	ND	0
58626	2016-10-05T17:00:00	27.7	ND	ND	ND	0.15	ND	ND	ND	ND	ND	ND	0
58627	2016-10-05T18:00:00	22.3	ND	ND	ND	0.08	ND	ND	ND	ND	ND	ND	0
58628	2016-10-05T19:00:00	28.4	ND	ND	ND	0.06	ND	ND	ND	ND	ND	ND	0
58629	2016-10-05T20:00:00	17.9	ND	ND	ND	0.06	ND	ND	ND	ND	ND	ND	0
58630	2016-10-05T21:00:00	9.2	ND	ND	ND	0.08	ND	ND	ND	ND	ND	ND	0
58631	2016-10-05T22:00:00	21.5	ND	ND	ND	0.06	ND	ND	ND	ND	ND	ND	0
58632	2016-10-05T23:00:00	35.4	ND	ND	ND	0.63	ND	ND	ND	ND	ND	ND	0
58633	2016-10-06T00:00:00	46.5	ND	ND	ND	0.63	ND	ND	ND	ND	ND	ND	0
58634	2016-10-06T01:00:00	23.7	ND	ND	ND	0.67	ND	ND	ND	ND	ND	ND	0
58635	2016-10-06T02:00:00	28.3	ND	ND	ND	0.89	ND	ND	ND	ND	ND	ND	0
58636	2016-10-06T03:00:00	34.7	ND	ND	ND	1.25	ND	ND	ND	ND	ND	ND	0
58637	2016-10-06T04:00:00	31.9	ND	ND	ND	1.25	ND	ND	ND	ND	ND	ND	0
58638	2016-10-06T05:00:00	39	ND	ND	ND	0.91	ND	ND	ND	ND	ND	ND	0
58639	2016-10-06T06:00:00	67.5	ND	ND	ND	0.84	ND	ND	ND	ND	ND	ND	0
58640	2016-10-06T07:00:00	80.3	ND	ND	ND	0.68	ND	ND	ND	ND	ND	ND	0
58641	2016-10-06T08:00:00	95.9	ND	ND	ND	0.66	ND	ND	ND	ND	ND	ND	0
58642	2016-10-06T09:00:00	101.9	ND	ND	ND	0.33	ND	ND	ND	ND	ND	ND	0
58643	2016-10-06T10:00:00	71.5	ND	ND	ND	0.35	ND	ND	ND	ND	ND	ND	0
58644	2016-10-06T11:00:00	48.3	ND	ND	ND	0.26	ND	ND	ND	ND	ND	ND	0
58645	2016-10-06T12:00:00	65	ND	ND	ND	0.22	ND	ND	ND	ND	ND	ND	0
58646	2016-10-06T13:00:00	39.6	ND	ND	ND	0.17	ND	ND	ND	ND	ND	ND	0
58647	2016-10-06T14:00:00	8.6	ND	ND	ND	0.08	ND	ND	ND	ND	ND	ND	0
58648	2016-10-06T15:00:00	27.4	ND	ND	ND	0.24	ND	ND	ND	ND	ND	ND	0
58649	2016-10-06T16:00:00	3.1	ND	ND	ND	0.17	ND	ND	ND	ND	ND	ND	0
58650	2016-10-06T17:00:00	29.3	ND	ND	ND	0.20	ND	ND	ND	ND	ND	ND	11.94
58651	2016-10-06T18:00:00	72	ND	ND	ND	0.33	ND	ND	ND	ND	ND	ND	2.29
58652	2016-10-06T19:00:00	70.1	ND	ND	ND	0.22	ND	ND	ND	ND	ND	ND	7.11
58653	2016-10-06T20:00:00	31	ND	ND	ND	0.20	ND	ND	ND	ND	ND	ND	1.27
58654	2016-10-06T21:00:00	41.8	ND	ND	ND	0.18	ND	ND	ND	ND	ND	ND	0
58655	2016-10-06T22:00:00	41.2	ND	ND	ND	0.24	ND	ND	ND	ND	ND	ND	0.25
58656	2016-10-06T23:00:00	33.8	ND	ND	ND	0.57	ND	ND	ND	ND	ND	ND	0
58657	2016-10-07T00:00:00	24.1	ND	ND	ND	0.35	ND	ND	ND	ND	ND	ND	0
58658	2016-10-07T01:00:00	29.8	ND	ND	ND	0.38	ND	ND	ND	ND	ND	ND	0
58659	2016-10-07T02:00:00	23.7	ND	ND	ND	0.35	ND	ND	ND	ND	ND	ND	0
58660	2016-10-07T03:00:00	19	ND	ND	ND	0.28	ND	ND	ND	ND	ND	ND	0
58661	2016-10-07T04:00:00	24.7	ND	ND	ND	0.26	ND	ND	ND	ND	ND	ND	0
58662	2016-10-07T05:00:00	36.7	ND	ND	ND	1.05	ND	ND	ND	ND	ND	ND	0
58663	2016-10-07T06:00:00	36.2	ND	ND	ND	0.66	ND	ND	ND	ND	ND	ND	0
58664	2016-10-07T07:00:00	58.1	ND	ND	ND	0.46	ND	ND	ND	ND	ND	ND	0
58665	2016-10-07T08:00:00	104	ND	ND	ND	1.30	ND	ND	ND	ND	ND	ND	0
58666	2016-10-07T09:00:00	109.3	ND	ND	ND	0.46	ND	ND	ND	ND	ND	ND	0
58667	2016-10-07T10:00:00	102.3	ND	ND	ND	0.21	ND	ND	ND	ND	ND	ND	0
58668	2016-10-07T11:00:00	136.2	ND	ND	ND	0.11	ND	ND	ND	ND	ND	ND	0
58669	2016-10-07T12:00:00	98.2	ND	ND	ND	0.08	ND	ND	ND	ND	ND	ND	0
58670	2016-10-07T13:00:00	81.7	ND	ND	ND	0.11	ND	ND	ND	ND	ND	ND	0
58671	2016-10-07T14:00:00	63.9	ND	ND	ND	0.03	ND	ND	ND	ND	ND	ND	0
58672	2016-10-07T15:00:00	30.8	ND	ND	ND	0.11	ND	ND	ND	ND	ND	ND	31.24
58673	2016-10-07T16:00:00	107.3	ND	ND	ND	0.04	ND	ND	ND	ND	ND	ND	51.82
58674	2016-10-07T17:00:00	21.1	ND	ND	ND	0.04	ND	ND	ND	ND	ND	ND	0
58675	2016-10-07T18:00:00	34.3	ND	ND	ND	0.06	ND	ND	ND	ND	ND	ND	0
58676	2016-10-07T19:00:00	38.2	ND	ND	ND	0.04	ND	ND	ND	ND	ND	ND	0.25
58677	2016-10-07T20:00:00	33	ND	ND	ND	0.06	ND	ND	ND	ND	ND	ND	0
58678	2016-10-07T21:00:00	100.5	ND	ND	ND	0.07	ND	ND	ND	ND	ND	ND	0
58679	2016-10-07T22:00:00	65.8	ND	ND	ND	0.13	ND	ND	ND	ND	ND	ND	0
58680	2016-10-07T23:00:00	66.4	ND	ND	ND	0.24	ND	ND	ND	ND	ND	ND	0
58681	2016-10-08T00:00:00	30.2	ND	ND	ND	ND	ND	ND	ND	ND	ND	ND	0
58682	2016-10-08T01:00:00	20.3	ND	ND	ND	ND	ND	ND	ND	ND	ND	ND	0
58683	2016-10-08T02:00:00	32	ND	ND	ND	ND	ND	ND	ND	ND	ND	ND	0
58684	2016-10-08T03:00:00	27.6	ND	ND	ND	ND	ND	ND	ND	ND	ND	ND	0
58685	2016-10-08T04:00:00	65	ND	ND	ND	ND	ND	ND	ND	ND	ND	ND	0
58686	2016-10-08T05:00:00	81.6	ND	ND	ND	ND	ND	ND	ND	ND	ND	ND	0
58687	2016-10-08T06:00:00	146.1	ND	ND	ND	ND	ND	ND	ND	ND	ND	ND	0
58688	2016-10-08T07:00:00	100.1	ND	ND	ND	ND	ND	ND	ND	ND	ND	ND	0
58689	2016-10-08T08:00:00	67.8	ND	ND	ND	ND	ND	ND	ND	ND	ND	ND	0
58690	2016-10-08T09:00:00	64.6	ND	ND	ND	ND	ND	ND	ND	ND	ND	ND	0
58691	2016-10-08T10:00:00	57.3	ND	ND	ND	ND	ND	ND	ND	ND	ND	ND	0
58692	2016-10-08T11:00:00	87.7	ND	ND	ND	ND	ND	ND	ND	ND	ND	ND	0
58693	2016-10-08T12:00:00	94.6	ND	ND	ND	ND	ND	ND	ND	ND	ND	ND	0
58694	2016-10-08T13:00:00	55.7	ND	ND	ND	ND	ND	ND	ND	ND	ND	ND	0
58695	2016-10-08T14:00:00	52.9	ND	ND	ND	ND	ND	ND	ND	ND	ND	ND	0
58696	2016-10-08T15:00:00	88.2	ND	ND	ND	ND	ND	ND	ND	ND	ND	ND	0
58697	2016-10-08T16:00:00	73.9	ND	ND	ND	ND	ND	ND	ND	ND	ND	ND	0
58698	2016-10-08T17:00:00	41.9	ND	ND	ND	ND	ND	ND	ND	ND	ND	ND	0
58699	2016-10-08T18:00:00	77.8	ND	ND	ND	ND	ND	ND	ND	ND	ND	ND	0
58700	2016-10-08T19:00:00	43.9	ND	ND	ND	ND	ND	ND	ND	ND	ND	ND	0
58701	2016-10-08T20:00:00	35.6	ND	ND	ND	ND	ND	ND	ND	ND	ND	ND	0
58702	2016-10-08T21:00:00	43.4	ND	ND	ND	ND	ND	ND	ND	ND	ND	ND	0
58703	2016-10-08T22:00:00	26.9	ND	ND	ND	ND	ND	ND	ND	ND	ND	ND	0
58704	2016-10-08T23:00:00	5.1	ND	ND	ND	ND	ND	ND	ND	ND	ND	ND	0
58705	2016-10-09T00:00:00	90.6	ND	ND	ND	ND	ND	ND	ND	ND	ND	ND	1.52
58706	2016-10-09T01:00:00	96.1	ND	ND	ND	ND	ND	ND	ND	ND	ND	ND	0.25
58707	2016-10-09T02:00:00	1.3	ND	ND	ND	ND	ND	ND	ND	ND	ND	ND	0
58708	2016-10-09T03:00:00	18	ND	ND	ND	ND	ND	ND	ND	ND	ND	ND	0
58709	2016-10-09T04:00:00	8.8	ND	ND	ND	ND	ND	ND	ND	ND	ND	ND	0.25
58710	2016-10-09T05:00:00	25.2	ND	ND	ND	ND	ND	ND	ND	ND	ND	ND	0
58711	2016-10-09T06:00:00	24.5	ND	ND	ND	ND	ND	ND	ND	ND	ND	ND	0
58712	2016-10-09T07:00:00	23.6	ND	ND	ND	ND	ND	ND	ND	ND	ND	ND	2.79
58713	2016-10-09T08:00:00	7.5	ND	ND	ND	ND	ND	ND	ND	ND	ND	ND	0
58714	2016-10-09T09:00:00	ND	ND	ND	ND	ND	ND	ND	ND	ND	ND	ND	0
58715	2016-10-09T10:00:00	3.3	ND	ND	ND	ND	ND	ND	ND	ND	ND	ND	0.25
58716	2016-10-09T11:00:00	26	ND	ND	ND	ND	ND	ND	ND	ND	ND	ND	0
58717	2016-10-09T12:00:00	40.1	ND	ND	ND	ND	ND	ND	ND	ND	ND	ND	0
58718	2016-10-09T13:00:00	40.5	ND	ND	ND	ND	ND	ND	ND	ND	ND	ND	0
58719	2016-10-09T14:00:00	48.4	ND	ND	ND	ND	ND	ND	ND	ND	ND	ND	0
58720	2016-10-09T15:00:00	63.1	ND	ND	ND	ND	ND	ND	ND	ND	ND	ND	0.51
58721	2016-10-09T16:00:00	61.3	ND	ND	ND	ND	ND	ND	ND	ND	ND	ND	0.25
58722	2016-10-09T17:00:00	2.6	ND	ND	ND	ND	ND	ND	ND	ND	ND	ND	0
58723	2016-10-09T18:00:00	6.6	ND	ND	ND	ND	ND	ND	ND	ND	ND	ND	0
58724	2016-10-09T19:00:00	3.1	ND	ND	ND	ND	ND	ND	ND	ND	ND	ND	0
58725	2016-10-09T20:00:00	30.6	ND	ND	ND	ND	ND	ND	ND	ND	ND	ND	0
58726	2016-10-09T21:00:00	32.2	ND	ND	ND	ND	ND	ND	ND	ND	ND	ND	0
58727	2016-10-09T22:00:00	56.2	ND	ND	ND	ND	ND	ND	ND	ND	ND	ND	0
58728	2016-10-09T23:00:00	63.4	ND	ND	ND	ND	ND	ND	ND	ND	ND	ND	0.25
58729	2016-10-10T00:00:00	68.6	ND	ND	ND	ND	ND	ND	ND	ND	ND	ND	0
58730	2016-10-10T01:00:00	81	ND	ND	ND	ND	ND	ND	ND	ND	ND	ND	0
58731	2016-10-10T02:00:00	61.7	ND	ND	ND	ND	ND	ND	ND	ND	ND	ND	0
58732	2016-10-10T03:00:00	38.9	ND	ND	ND	ND	ND	ND	ND	ND	ND	ND	0
58733	2016-10-10T04:00:00	26.6	ND	ND	ND	ND	ND	ND	ND	ND	ND	ND	0
58734	2016-10-10T05:00:00	61.2	ND	ND	ND	ND	ND	ND	ND	ND	ND	ND	0
58735	2016-10-10T06:00:00	62.1	ND	ND	ND	ND	ND	ND	ND	ND	ND	ND	0
58736	2016-10-10T07:00:00	48.7	ND	ND	ND	ND	ND	ND	ND	ND	ND	ND	0
58737	2016-10-10T08:00:00	53.6	ND	ND	ND	ND	ND	ND	ND	ND	ND	ND	0
58738	2016-10-10T09:00:00	48.9	ND	ND	ND	ND	ND	ND	ND	ND	ND	ND	0
58739	2016-10-10T10:00:00	67.4	ND	ND	ND	ND	ND	ND	ND	ND	ND	ND	0
58740	2016-10-10T11:00:00	74.3	ND	ND	ND	ND	ND	ND	ND	ND	ND	ND	0
58741	2016-10-10T12:00:00	93.4	ND	ND	ND	ND	ND	ND	ND	ND	ND	ND	0
58742	2016-10-10T13:00:00	52.8	ND	ND	ND	ND	ND	ND	ND	ND	ND	ND	0
58743	2016-10-10T14:00:00	64.7	ND	ND	ND	ND	ND	ND	ND	ND	ND	ND	0
58744	2016-10-10T15:00:00	82.6	ND	ND	ND	ND	ND	ND	ND	ND	ND	ND	0
58745	2016-10-10T16:00:00	78.9	ND	ND	ND	ND	ND	ND	ND	ND	ND	ND	0
58746	2016-10-10T17:00:00	92.5	ND	ND	ND	ND	ND	ND	ND	ND	ND	ND	0
58747	2016-10-10T18:00:00	100.7	ND	ND	ND	ND	ND	ND	ND	ND	ND	ND	0
58748	2016-10-10T19:00:00	55.1	ND	ND	ND	ND	ND	ND	ND	ND	ND	ND	0
58749	2016-10-10T20:00:00	30.6	ND	ND	ND	ND	ND	ND	ND	ND	ND	ND	0
58750	2016-10-10T21:00:00	18.4	ND	ND	ND	ND	ND	ND	ND	ND	ND	ND	0
58751	2016-10-10T22:00:00	9.1	ND	ND	ND	ND	ND	ND	ND	ND	ND	ND	0
58752	2016-10-10T23:00:00	25.9	ND	ND	ND	ND	ND	ND	ND	ND	ND	ND	0
58753	2016-10-11T00:00:00	23.6	ND	ND	ND	ND	ND	ND	ND	ND	ND	ND	0
58754	2016-10-11T01:00:00	12.5	ND	ND	ND	ND	ND	ND	ND	ND	ND	ND	0
58755	2016-10-11T02:00:00	22.5	ND	ND	ND	ND	ND	ND	ND	ND	ND	ND	0
58756	2016-10-11T03:00:00	20.2	ND	ND	ND	ND	ND	ND	ND	ND	ND	ND	0
58757	2016-10-11T04:00:00	60.7	ND	ND	ND	ND	ND	ND	ND	ND	ND	ND	0
58758	2016-10-11T05:00:00	73.4	ND	ND	ND	ND	ND	ND	ND	ND	ND	ND	0
58759	2016-10-11T06:00:00	81.1	ND	ND	ND	ND	ND	ND	ND	ND	ND	ND	0
58760	2016-10-11T07:00:00	103.4	ND	ND	ND	ND	ND	ND	ND	ND	ND	ND	0
58761	2016-10-11T08:00:00	85.9	ND	ND	ND	ND	ND	ND	ND	ND	ND	ND	0
58762	2016-10-11T09:00:00	105.8	ND	ND	ND	ND	ND	ND	ND	ND	ND	ND	0
58763	2016-10-11T10:00:00	111.3	ND	ND	ND	ND	ND	ND	ND	ND	ND	ND	0
58764	2016-10-11T11:00:00	82.2	ND	ND	ND	ND	ND	ND	ND	ND	ND	ND	0
58765	2016-10-11T12:00:00	89.2	ND	ND	ND	ND	ND	ND	ND	ND	ND	ND	0
58766	2016-10-11T13:00:00	53.7	ND	ND	ND	ND	ND	ND	ND	ND	ND	ND	0
58767	2016-10-11T14:00:00	79.8	ND	ND	ND	ND	ND	ND	ND	ND	ND	ND	0
58768	2016-10-11T15:00:00	60	ND	ND	ND	ND	ND	ND	ND	ND	ND	ND	2.03
58769	2016-10-11T16:00:00	12.3	ND	ND	ND	ND	ND	ND	ND	ND	ND	ND	0.51
58770	2016-10-11T17:00:00	0.3	ND	ND	ND	ND	ND	ND	ND	ND	ND	ND	0
58771	2016-10-11T18:00:00	51	ND	ND	ND	ND	ND	ND	ND	ND	ND	ND	0
58772	2016-10-11T19:00:00	83.1	ND	ND	ND	ND	ND	ND	ND	ND	ND	ND	0
58773	2016-10-11T20:00:00	91.6	ND	ND	ND	ND	ND	ND	ND	ND	ND	ND	0
58774	2016-10-11T21:00:00	65.1	ND	ND	ND	ND	ND	ND	ND	ND	ND	ND	0
58775	2016-10-11T22:00:00	61	ND	ND	ND	ND	ND	ND	ND	ND	ND	ND	0
58776	2016-10-11T23:00:00	85.1	ND	ND	ND	ND	ND	ND	ND	ND	ND	ND	0
58777	2016-10-12T00:00:00	54.1	ND	ND	ND	ND	ND	ND	ND	ND	ND	ND	0
58778	2016-10-12T01:00:00	31.3	ND	ND	ND	ND	ND	ND	ND	ND	ND	ND	0
58779	2016-10-12T02:00:00	48.5	ND	ND	ND	ND	ND	ND	ND	ND	ND	ND	0
58780	2016-10-12T03:00:00	76.3	ND	ND	ND	ND	ND	ND	ND	ND	ND	ND	0
58781	2016-10-12T04:00:00	70.7	ND	ND	ND	ND	ND	ND	ND	ND	ND	ND	0
58782	2016-10-12T05:00:00	70	ND	ND	ND	ND	ND	ND	ND	ND	ND	ND	0
58783	2016-10-12T06:00:00	77.9	ND	ND	ND	ND	ND	ND	ND	ND	ND	ND	0
58784	2016-10-12T07:00:00	108.1	ND	ND	ND	ND	ND	ND	ND	ND	ND	ND	0
58785	2016-10-12T08:00:00	111.9	ND	ND	ND	ND	ND	ND	ND	ND	ND	ND	0
58786	2016-10-12T09:00:00	125.5	ND	ND	ND	ND	ND	ND	ND	ND	ND	ND	0
58787	2016-10-12T10:00:00	123.3	ND	ND	ND	ND	ND	ND	ND	ND	ND	ND	0
58788	2016-10-12T11:00:00	28.1	ND	ND	ND	ND	ND	ND	ND	ND	ND	ND	0
58789	2016-10-12T12:00:00	38.9	ND	ND	ND	ND	ND	ND	ND	ND	ND	ND	0
58790	2016-10-12T13:00:00	60.2	ND	ND	ND	ND	ND	ND	ND	ND	ND	ND	0
58791	2016-10-12T14:00:00	64.6	ND	ND	ND	ND	ND	ND	ND	ND	ND	ND	0
58792	2016-10-12T15:00:00	62.1	ND	ND	ND	ND	ND	ND	ND	ND	ND	ND	0
58793	2016-10-12T16:00:00	59	ND	ND	ND	ND	ND	ND	ND	ND	ND	ND	0
58794	2016-10-12T17:00:00	62	ND	ND	ND	ND	ND	ND	ND	ND	ND	ND	0
58795	2016-10-12T18:00:00	63.3	ND	ND	ND	ND	ND	ND	ND	ND	ND	ND	0
58796	2016-10-12T19:00:00	44.5	ND	ND	ND	ND	ND	ND	ND	ND	ND	ND	0
58797	2016-10-12T20:00:00	21.2	ND	ND	ND	ND	ND	ND	ND	ND	ND	ND	0
58798	2016-10-12T21:00:00	13.4	ND	ND	ND	ND	ND	ND	ND	ND	ND	ND	0
58799	2016-10-12T22:00:00	14.9	ND	ND	ND	ND	ND	ND	ND	ND	ND	ND	0
58800	2016-10-12T23:00:00	60.6	ND	ND	ND	ND	ND	ND	ND	ND	ND	ND	0
58801	2016-10-13T00:00:00	51.7	ND	ND	ND	ND	ND	ND	ND	ND	ND	ND	0
58802	2016-10-13T01:00:00	50.4	ND	ND	ND	ND	ND	ND	ND	ND	ND	ND	0
58803	2016-10-13T02:00:00	36.5	ND	ND	ND	ND	ND	ND	ND	ND	ND	ND	0
58804	2016-10-13T03:00:00	45.5	ND	ND	ND	ND	ND	ND	ND	ND	ND	ND	0
58805	2016-10-13T04:00:00	23.2	ND	ND	ND	ND	ND	ND	ND	ND	ND	ND	0
58806	2016-10-13T05:00:00	23.9	ND	ND	ND	ND	ND	ND	ND	ND	ND	ND	0
58807	2016-10-13T06:00:00	49.8	ND	ND	ND	ND	ND	ND	ND	ND	ND	ND	0
58808	2016-10-13T07:00:00	87.3	ND	ND	ND	ND	ND	ND	ND	ND	ND	ND	0
58809	2016-10-13T08:00:00	91.9	ND	ND	ND	ND	ND	ND	ND	ND	ND	ND	0
58810	2016-10-13T09:00:00	110.6	ND	ND	ND	ND	ND	ND	ND	ND	ND	ND	0
58811	2016-10-13T10:00:00	93.3	ND	ND	ND	ND	ND	ND	ND	ND	ND	ND	0
58812	2016-10-13T11:00:00	79.9	ND	ND	ND	ND	53.98	ND	ND	ND	ND	ND	0
58813	2016-10-13T12:00:00	74.8	ND	ND	ND	ND	72.02	ND	ND	ND	ND	ND	0
58814	2016-10-13T13:00:00	66.3	ND	ND	ND	ND	80.46	ND	ND	ND	ND	ND	0
58815	2016-10-13T14:00:00	72.3	ND	ND	ND	ND	79.65	ND	ND	ND	ND	ND	0
58816	2016-10-13T15:00:00	49.2	ND	ND	ND	ND	36.21	ND	ND	ND	ND	ND	0
58817	2016-10-13T16:00:00	27.6	ND	ND	ND	ND	22.47	ND	ND	ND	ND	ND	0
58818	2016-10-13T17:00:00	46.4	ND	ND	ND	ND	14.99	ND	ND	ND	ND	ND	0
58819	2016-10-13T18:00:00	36.6	ND	ND	ND	ND	9.83	ND	ND	ND	ND	ND	0
58820	2016-10-13T19:00:00	16.1	ND	ND	ND	ND	6.44	ND	ND	ND	ND	ND	0
58821	2016-10-13T20:00:00	29	ND	ND	ND	ND	4.98	ND	ND	ND	ND	ND	0
58822	2016-10-13T21:00:00	62.1	ND	ND	ND	ND	4.42	ND	ND	ND	ND	ND	0
58823	2016-10-13T22:00:00	66.1	ND	ND	ND	ND	5.53	ND	ND	ND	ND	ND	0
58824	2016-10-13T23:00:00	91.4	ND	ND	ND	ND	6.00	ND	ND	ND	ND	ND	0
58825	2016-10-14T00:00:00	95.6	ND	ND	ND	ND	4.61	ND	ND	ND	ND	ND	0
58826	2016-10-14T01:00:00	84.3	ND	ND	ND	ND	7.01	ND	ND	ND	ND	ND	0
58827	2016-10-14T02:00:00	47.2	ND	ND	ND	ND	11.01	ND	ND	ND	ND	ND	0
58828	2016-10-14T03:00:00	31.5	ND	ND	ND	ND	23.76	ND	ND	ND	ND	ND	0
58829	2016-10-14T04:00:00	25.7	ND	ND	ND	ND	24.57	ND	ND	ND	ND	ND	0
58830	2016-10-14T05:00:00	1.3	ND	ND	ND	ND	19.68	ND	ND	ND	ND	ND	0
58831	2016-10-14T06:00:00	2.1	ND	ND	ND	ND	7.10	ND	ND	ND	ND	ND	0
58832	2016-10-14T07:00:00	36.3	ND	ND	ND	ND	3.81	ND	ND	ND	ND	ND	0
58833	2016-10-14T08:00:00	74.8	ND	ND	ND	ND	6.63	ND	ND	ND	ND	ND	0
58834	2016-10-14T09:00:00	81.7	ND	ND	ND	ND	9.16	ND	ND	ND	ND	ND	0
58835	2016-10-14T10:00:00	88.3	ND	ND	ND	ND	19.53	ND	ND	ND	ND	ND	0
58836	2016-10-14T11:00:00	69.8	ND	ND	ND	1.51	23.69	ND	ND	ND	ND	ND	0
58837	2016-10-14T12:00:00	84.1	ND	ND	ND	0.96	32.46	ND	ND	ND	ND	ND	0
58838	2016-10-14T13:00:00	74	ND	ND	ND	1.35	63.70	ND	ND	ND	ND	ND	0
58839	2016-10-14T14:00:00	73.4	ND	ND	ND	0.96	90.52	ND	ND	ND	ND	ND	0
58840	2016-10-14T15:00:00	84.4	ND	ND	ND	1.07	87.09	ND	ND	ND	ND	ND	0
58841	2016-10-14T16:00:00	75.7	ND	ND	ND	0.81	86.72	ND	ND	ND	ND	ND	0
58842	2016-10-14T17:00:00	74.9	ND	ND	ND	0.66	59.68	ND	ND	ND	ND	ND	0
58843	2016-10-14T18:00:00	59.9	ND	ND	ND	0.22	16.43	ND	ND	ND	ND	ND	0
58844	2016-10-14T19:00:00	25.4	ND	ND	ND	0.28	8.77	ND	ND	ND	ND	ND	0
58845	2016-10-14T20:00:00	21.2	ND	ND	ND	0.39	7.93	ND	ND	ND	ND	ND	0
58846	2016-10-14T21:00:00	13.1	ND	ND	ND	0.31	6.52	ND	ND	ND	ND	ND	0
58847	2016-10-14T22:00:00	35.4	ND	ND	ND	0.42	3.24	ND	ND	ND	ND	ND	0
58848	2016-10-14T23:00:00	51.7	ND	ND	ND	0.64	5.91	ND	ND	ND	ND	ND	0
58849	2016-10-15T00:00:00	55.7	ND	ND	ND	1.64	6.36	ND	ND	ND	ND	ND	0
58850	2016-10-15T01:00:00	64.9	ND	ND	ND	2.13	3.49	ND	ND	ND	ND	ND	0
58851	2016-10-15T02:00:00	59.4	ND	ND	ND	1.87	3.49	ND	ND	ND	ND	ND	0
58852	2016-10-15T03:00:00	51.5	ND	ND	ND	2.04	2.61	ND	ND	ND	ND	ND	0
58853	2016-10-15T04:00:00	43	ND	ND	ND	2.17	3.24	ND	ND	ND	ND	ND	0
58854	2016-10-15T05:00:00	51.1	ND	ND	ND	2.08	4.00	ND	ND	ND	ND	ND	0
58855	2016-10-15T06:00:00	60.7	ND	ND	ND	1.34	3.83	ND	ND	ND	ND	ND	0
58856	2016-10-15T07:00:00	70.7	ND	ND	ND	0.70	4.42	ND	ND	ND	ND	ND	0
58857	2016-10-15T08:00:00	83.9	ND	ND	ND	1.85	7.83	ND	ND	ND	ND	ND	0
58858	2016-10-15T09:00:00	100.9	ND	ND	ND	1.78	20.74	ND	ND	ND	ND	ND	0
58859	2016-10-15T10:00:00	108	ND	ND	ND	1.60	36.21	ND	ND	ND	ND	ND	0
58860	2016-10-15T11:00:00	77	ND	ND	ND	1.24	45.96	ND	ND	ND	ND	ND	0
58861	2016-10-15T12:00:00	93.8	ND	ND	ND	0.84	40.41	ND	ND	ND	ND	ND	0
58862	2016-10-15T13:00:00	43.1	ND	ND	ND	0.93	57.01	ND	ND	ND	ND	ND	0
58863	2016-10-15T14:00:00	21	ND	ND	ND	0.56	47.63	ND	ND	ND	ND	ND	0
58864	2016-10-15T15:00:00	32.9	ND	ND	ND	0.75	29.61	ND	ND	ND	ND	ND	0
58865	2016-10-15T16:00:00	29.8	ND	ND	ND	0.72	25.43	ND	ND	ND	ND	ND	0
58866	2016-10-15T17:00:00	13	ND	ND	ND	0.64	22.55	ND	ND	ND	ND	ND	0
58867	2016-10-15T18:00:00	19.3	ND	ND	ND	0.21	22.76	ND	ND	ND	ND	ND	1.02
58868	2016-10-15T19:00:00	30.6	ND	ND	ND	0.42	5.49	ND	ND	ND	ND	ND	5.33
58869	2016-10-15T20:00:00	47.2	ND	ND	ND	1.18	8.61	ND	ND	ND	ND	ND	5.08
58870	2016-10-15T21:00:00	37.9	ND	ND	ND	2.02	9.48	ND	ND	ND	ND	ND	0
58871	2016-10-15T22:00:00	30.6	ND	ND	ND	1.25	5.53	ND	ND	ND	ND	ND	0.25
58872	2016-10-15T23:00:00	38.7	ND	ND	ND	0.35	3.45	ND	ND	ND	ND	ND	0
58873	2016-10-16T00:00:00	55	ND	ND	ND	1.31	4.08	ND	ND	ND	ND	ND	0.25
58874	2016-10-16T01:00:00	38.5	ND	ND	ND	1.06	4.00	ND	ND	ND	ND	ND	0
58875	2016-10-16T02:00:00	28.3	ND	ND	ND	1.07	2.98	ND	ND	ND	ND	ND	0
58876	2016-10-16T03:00:00	44.1	ND	ND	ND	1.13	2.35	ND	ND	ND	ND	ND	0
58877	2016-10-16T04:00:00	52.2	ND	ND	ND	2.43	5.08	ND	ND	ND	ND	ND	0
58878	2016-10-16T05:00:00	38.4	ND	ND	ND	2.23	5.65	ND	ND	ND	ND	ND	0
58879	2016-10-16T06:00:00	43.8	ND	ND	ND	2.13	11.99	ND	ND	ND	ND	ND	0
58880	2016-10-16T07:00:00	59.7	ND	ND	ND	1.76	8.85	ND	ND	ND	ND	ND	0
58881	2016-10-16T08:00:00	60.6	ND	ND	ND	1.28	13.38	ND	ND	ND	ND	ND	0
58882	2016-10-16T09:00:00	83.1	ND	ND	ND	1.27	35.95	ND	ND	ND	ND	ND	0
58883	2016-10-16T10:00:00	57.4	ND	ND	ND	1.49	47.47	ND	ND	ND	ND	ND	0
58884	2016-10-16T11:00:00	60.6	ND	ND	ND	1.30	61.76	ND	ND	ND	ND	ND	0
58885	2016-10-16T12:00:00	60.9	ND	ND	ND	1.39	93.94	ND	ND	ND	ND	ND	0
58886	2016-10-16T13:00:00	50.3	ND	ND	ND	1.28	110.93	ND	ND	ND	ND	ND	0
58887	2016-10-16T14:00:00	67.3	ND	ND	ND	1.31	110.93	ND	ND	ND	ND	ND	0
58888	2016-10-16T15:00:00	57.6	ND	ND	ND	1.12	104.26	ND	ND	ND	ND	ND	0
58889	2016-10-16T16:00:00	57.5	ND	ND	ND	0.84	80.85	ND	ND	ND	ND	ND	0
58890	2016-10-16T17:00:00	45.6	ND	ND	ND	1.02	39.48	ND	ND	ND	ND	ND	0
58891	2016-10-16T18:00:00	21.8	ND	ND	ND	0.88	19.25	ND	ND	ND	ND	ND	0
58892	2016-10-16T19:00:00	4.2	ND	ND	ND	0.78	18.66	ND	ND	ND	ND	ND	0
58893	2016-10-16T20:00:00	10.7	ND	ND	ND	0.67	5.51	ND	ND	ND	ND	ND	0
58894	2016-10-16T21:00:00	31.8	ND	ND	ND	0.95	13.70	ND	ND	ND	ND	ND	0
58895	2016-10-16T22:00:00	16.7	ND	ND	ND	0.31	5.02	ND	ND	ND	ND	ND	0
58896	2016-10-16T23:00:00	68.1	ND	ND	ND	0.08	3.81	ND	ND	ND	ND	ND	0
58897	2016-10-17T00:00:00	61.1	ND	ND	ND	0.32	2.85	ND	ND	ND	ND	ND	0
58898	2016-10-17T01:00:00	53.6	ND	ND	ND	0.63	2.43	ND	ND	ND	ND	ND	0
58899	2016-10-17T02:00:00	44	ND	ND	ND	1.09	3.59	ND	ND	ND	ND	ND	0
58900	2016-10-17T03:00:00	41.7	ND	ND	ND	1.92	2.77	ND	ND	ND	ND	ND	0
58901	2016-10-17T04:00:00	32.6	ND	ND	ND	2.48	2.30	ND	ND	ND	ND	ND	0
58902	2016-10-17T05:00:00	24.6	ND	ND	ND	3.68	1.77	ND	ND	ND	ND	ND	0
58903	2016-10-17T06:00:00	31.5	ND	ND	ND	1.76	3.45	ND	ND	ND	ND	ND	0
58904	2016-10-17T07:00:00	40	ND	ND	ND	1.84	6.73	ND	ND	ND	ND	ND	0
58905	2016-10-17T08:00:00	37.3	ND	ND	ND	2.47	12.23	ND	ND	ND	ND	ND	0
58906	2016-10-17T09:00:00	61.2	ND	ND	ND	1.44	18.68	ND	ND	ND	ND	ND	0
58907	2016-10-17T10:00:00	58.5	ND	ND	ND	1.23	28.38	ND	ND	ND	ND	ND	0
58908	2016-10-17T11:00:00	49.2	ND	ND	ND	0.96	52.00	ND	ND	ND	ND	ND	0
58909	2016-10-17T12:00:00	58.2	ND	ND	ND	0.86	69.13	ND	ND	ND	ND	ND	0
58910	2016-10-17T13:00:00	48.5	ND	ND	ND	1.09	87.70	ND	ND	ND	ND	ND	0
58911	2016-10-17T14:00:00	58.2	ND	ND	ND	1.17	93.45	ND	ND	ND	ND	ND	0
58912	2016-10-17T15:00:00	59.8	ND	ND	ND	1.20	68.51	ND	ND	ND	ND	ND	3.05
58913	2016-10-17T16:00:00	19.1	ND	ND	ND	0.81	23.92	ND	ND	ND	ND	ND	0
58914	2016-10-17T17:00:00	2.9	ND	ND	ND	1.09	17.05	ND	ND	ND	ND	ND	0
58915	2016-10-17T18:00:00	21.2	ND	ND	ND	1.05	15.23	ND	ND	ND	ND	ND	0
58916	2016-10-17T19:00:00	6	ND	ND	ND	1.07	15.97	ND	ND	ND	ND	ND	0
58917	2016-10-17T20:00:00	10.6	ND	ND	ND	0.88	16.39	ND	ND	ND	ND	ND	0
58918	2016-10-17T21:00:00	6.4	ND	ND	ND	1.07	15.48	ND	ND	ND	ND	ND	0
58919	2016-10-17T22:00:00	13.1	ND	ND	ND	0.33	2.92	ND	ND	ND	ND	ND	0
58920	2016-10-17T23:00:00	28.2	ND	ND	ND	0.28	4.04	ND	ND	ND	ND	ND	0
58921	2016-10-18T00:00:00	58.2	ND	ND	ND	1.21	8.56	ND	ND	ND	ND	ND	0
58922	2016-10-18T01:00:00	49.8	ND	ND	ND	2.62	12.03	ND	ND	ND	ND	ND	0
58923	2016-10-18T02:00:00	49.9	ND	ND	ND	3.18	10.79	ND	ND	ND	ND	ND	0
58924	2016-10-18T03:00:00	43.1	ND	ND	ND	2.66	9.89	ND	ND	ND	ND	ND	6.35
58925	2016-10-18T04:00:00	27.4	ND	ND	ND	1.70	7.34	ND	ND	ND	ND	ND	16.26
58926	2016-10-18T05:00:00	18.5	ND	ND	ND	ND	5.73	ND	ND	ND	ND	ND	0.76
58927	2016-10-18T06:00:00	14.1	ND	ND	ND	3.21	3.67	ND	ND	ND	ND	ND	0.25
58928	2016-10-18T07:00:00	29.5	ND	ND	ND	1.92	2.71	ND	ND	ND	ND	ND	3.3
58929	2016-10-18T08:00:00	39	ND	ND	ND	1.95	3.26	ND	ND	ND	ND	ND	19.56
58930	2016-10-18T09:00:00	31.2	ND	ND	ND	1.31	6.06	ND	ND	ND	ND	ND	0.25
58931	2016-10-18T10:00:00	45	ND	ND	ND	1.32	22.55	ND	ND	ND	ND	ND	0
58932	2016-10-18T11:00:00	43.7	ND	ND	ND	0.99	36.95	ND	ND	ND	ND	ND	0
58933	2016-10-18T12:00:00	41.5	ND	ND	ND	0.81	42.84	ND	ND	ND	ND	ND	0
58934	2016-10-18T13:00:00	38	ND	ND	ND	0.54	48.22	ND	ND	ND	ND	ND	0
58935	2016-10-18T14:00:00	ND	ND	ND	ND	ND	ND	ND	ND	ND	ND	ND	ND
58936	2016-10-18T15:00:00	ND	ND	ND	ND	ND	ND	ND	ND	ND	ND	ND	ND
58937	2016-10-18T16:00:00	17.7	ND	ND	ND	0.54	20.09	ND	ND	ND	ND	ND	0
58938	2016-10-18T17:00:00	41.2	ND	ND	ND	0.36	22.16	ND	ND	ND	ND	ND	0
58939	2016-10-18T18:00:00	61.4	ND	ND	ND	0.25	9.46	ND	ND	ND	ND	ND	0
58940	2016-10-18T19:00:00	52	ND	ND	ND	0.26	3.85	ND	ND	ND	ND	ND	0
58941	2016-10-18T20:00:00	54.3	ND	ND	ND	0.07	3.51	ND	ND	ND	ND	ND	0
58942	2016-10-18T21:00:00	92.8	ND	ND	ND	0.26	3.14	ND	ND	ND	ND	ND	0
58943	2016-10-18T22:00:00	72.9	ND	ND	ND	0.66	2.53	ND	ND	ND	ND	ND	0
58944	2016-10-18T23:00:00	50.1	ND	ND	ND	0.47	3.43	ND	ND	ND	ND	ND	0
58945	2016-10-19T00:00:00	52.6	ND	ND	ND	0.95	5.28	ND	ND	ND	ND	ND	0
58946	2016-10-19T01:00:00	36.6	ND	ND	ND	1.44	6.20	ND	ND	ND	ND	ND	0
58947	2016-10-19T02:00:00	21.3	ND	ND	ND	2.02	9.50	ND	ND	ND	ND	ND	0
58948	2016-10-19T03:00:00	33.7	ND	ND	ND	2.23	10.60	ND	ND	ND	ND	ND	0
58949	2016-10-19T04:00:00	37.1	ND	ND	ND	2.23	7.06	ND	ND	ND	ND	ND	0
58950	2016-10-19T05:00:00	39.3	ND	ND	ND	1.42	2.59	ND	ND	ND	ND	ND	0
58951	2016-10-19T06:00:00	47	ND	ND	ND	0.79	4.43	ND	ND	ND	ND	ND	0
58952	2016-10-19T07:00:00	107.6	ND	ND	ND	2.55	7.08	ND	ND	ND	ND	ND	0
58953	2016-10-19T08:00:00	132.6	ND	ND	ND	1.17	8.52	ND	ND	ND	ND	ND	0
58954	2016-10-19T09:00:00	150.7	ND	ND	ND	0.92	19.09	ND	ND	ND	ND	ND	0
58955	2016-10-19T10:00:00	113	ND	ND	ND	1.55	38.54	ND	ND	ND	ND	ND	0
58956	2016-10-19T11:00:00	91.2	ND	ND	ND	1.32	70.08	ND	ND	ND	ND	ND	0
58957	2016-10-19T12:00:00	84.6	ND	ND	ND	1.32	81.46	ND	ND	ND	ND	ND	0
58958	2016-10-19T13:00:00	66.4	ND	ND	ND	0.74	76.81	ND	ND	ND	ND	ND	0
58959	2016-10-19T14:00:00	63	ND	ND	ND	0.91	79.83	ND	ND	ND	ND	ND	0
58960	2016-10-19T15:00:00	41.9	ND	ND	ND	1.03	65.19	ND	ND	ND	ND	ND	0
58961	2016-10-19T16:00:00	24.8	ND	ND	ND	0.68	28.40	ND	ND	ND	ND	ND	0
58962	2016-10-19T17:00:00	13.7	ND	ND	ND	0.38	24.78	ND	ND	ND	ND	ND	0
58963	2016-10-19T18:00:00	27.4	ND	ND	ND	0.31	21.82	ND	ND	ND	ND	ND	0
58964	2016-10-19T19:00:00	51.6	ND	ND	ND	0.17	21.80	ND	ND	ND	ND	ND	0
58965	2016-10-19T20:00:00	15.9	ND	ND	ND	0.38	18.68	ND	ND	ND	ND	ND	0
58966	2016-10-19T21:00:00	36	ND	ND	ND	0.79	14.93	ND	ND	ND	ND	ND	0
58967	2016-10-19T22:00:00	51.7	ND	ND	ND	1.48	17.27	ND	ND	ND	ND	ND	0
58968	2016-10-19T23:00:00	36.3	ND	ND	ND	0.78	12.17	ND	ND	ND	ND	ND	0
58969	2016-10-20T00:00:00	78	ND	ND	ND	1.09	3.38	ND	ND	ND	ND	ND	0
58970	2016-10-20T01:00:00	67.8	ND	ND	ND	0.86	3.47	ND	ND	ND	ND	ND	0
58971	2016-10-20T02:00:00	51.7	ND	ND	ND	1.53	4.20	ND	ND	ND	ND	ND	0
58972	2016-10-20T03:00:00	63.2	ND	ND	ND	1.81	4.93	ND	ND	ND	ND	ND	0
58973	2016-10-20T04:00:00	51.1	ND	ND	ND	1.81	3.73	ND	ND	ND	ND	ND	0
58974	2016-10-20T05:00:00	50.3	ND	ND	ND	1.52	5.04	ND	ND	ND	ND	ND	0
58975	2016-10-20T06:00:00	56.4	ND	ND	ND	1.90	5.14	ND	ND	ND	ND	ND	2.79
58976	2016-10-20T07:00:00	35.1	ND	ND	ND	0.79	3.18	ND	ND	ND	ND	ND	0.25
58977	2016-10-20T08:00:00	20.1	ND	ND	ND	0.32	6.06	ND	ND	ND	ND	ND	0
58978	2016-10-20T09:00:00	47.2	ND	ND	ND	0.46	14.58	ND	ND	ND	ND	ND	0
58979	2016-10-20T10:00:00	111.9	ND	ND	ND	1.69	18.94	ND	ND	ND	ND	ND	0
58980	2016-10-20T11:00:00	114.1	ND	ND	ND	1.56	53.89	ND	ND	ND	ND	ND	0
58981	2016-10-20T12:00:00	88.6	ND	ND	ND	0.88	77.73	ND	ND	ND	ND	ND	0
58982	2016-10-20T13:00:00	88.6	ND	ND	ND	0.92	76.55	ND	ND	ND	ND	ND	0
58983	2016-10-20T14:00:00	80.3	ND	ND	ND	0.77	77.24	ND	ND	ND	ND	ND	0
58984	2016-10-20T15:00:00	74.7	ND	ND	ND	1.09	69.82	ND	ND	ND	ND	ND	0
58985	2016-10-20T16:00:00	45.3	ND	ND	ND	0.95	40.64	ND	ND	ND	ND	ND	0
58986	2016-10-20T17:00:00	61.9	ND	ND	ND	0.53	38.40	ND	ND	ND	ND	ND	0
58987	2016-10-20T18:00:00	64.7	ND	ND	ND	0.22	22.00	ND	ND	ND	ND	ND	0
58988	2016-10-20T19:00:00	48.7	ND	ND	ND	0.24	15.95	ND	ND	ND	ND	ND	0
58989	2016-10-20T20:00:00	22.7	ND	ND	ND	0.46	9.11	ND	ND	ND	ND	ND	0
58990	2016-10-20T21:00:00	5.8	ND	ND	ND	0.56	11.19	ND	ND	ND	ND	ND	0
58991	2016-10-20T22:00:00	5.7	ND	ND	ND	0.15	3.59	ND	ND	ND	ND	ND	0
58992	2016-10-20T23:00:00	43.6	ND	ND	ND	0.47	5.02	ND	ND	ND	ND	ND	0
58993	2016-10-21T00:00:00	42.7	ND	ND	ND	0.89	2.98	ND	ND	ND	ND	ND	0
58994	2016-10-21T01:00:00	28.9	ND	ND	ND	1.38	3.98	ND	ND	ND	ND	ND	0
58995	2016-10-21T02:00:00	53.6	ND	ND	ND	1.44	7.81	ND	ND	ND	ND	ND	0
58996	2016-10-21T03:00:00	39.2	ND	ND	ND	1.84	5.79	ND	ND	ND	ND	ND	0
58997	2016-10-21T04:00:00	75.9	ND	ND	ND	2.09	7.99	ND	ND	ND	ND	ND	0
58998	2016-10-21T05:00:00	56.5	ND	ND	ND	1.85	9.13	ND	ND	ND	ND	ND	0
58999	2016-10-21T06:00:00	24.5	ND	ND	ND	1.59	5.02	ND	ND	ND	ND	ND	0
59000	2016-10-21T07:00:00	85.2	ND	ND	ND	0.92	5.00	ND	ND	ND	ND	ND	0
59001	2016-10-21T08:00:00	104.5	ND	ND	ND	0.46	6.75	ND	ND	ND	ND	ND	0
59002	2016-10-21T09:00:00	91.2	ND	ND	ND	0.86	20.25	ND	ND	ND	ND	ND	0
59003	2016-10-21T10:00:00	92.4	ND	ND	ND	1.38	44.33	ND	ND	ND	ND	ND	0
59004	2016-10-21T11:00:00	128.1	ND	ND	ND	1.27	80.40	ND	ND	ND	ND	ND	0
59005	2016-10-21T12:00:00	113.3	ND	ND	ND	1.17	86.17	ND	ND	ND	ND	ND	0
59006	2016-10-21T13:00:00	95.9	ND	ND	ND	0.92	75.61	ND	ND	ND	ND	ND	0
59007	2016-10-21T14:00:00	73.3	ND	ND	ND	0.96	41.17	ND	ND	ND	ND	ND	0
59008	2016-10-21T15:00:00	57.9	ND	ND	ND	0.74	34.03	ND	ND	ND	ND	ND	0
59009	2016-10-21T16:00:00	40.1	ND	ND	ND	0.50	26.20	ND	ND	ND	ND	ND	0
59010	2016-10-21T17:00:00	30.4	ND	ND	ND	0.49	20.02	ND	ND	ND	ND	ND	0
59011	2016-10-21T18:00:00	24.4	ND	ND	ND	0.47	14.89	ND	ND	ND	ND	ND	0
59012	2016-10-21T19:00:00	4.4	ND	ND	ND	0.45	15.91	ND	ND	ND	ND	ND	0
59013	2016-10-21T20:00:00	21.9	ND	ND	ND	0.40	17.76	ND	ND	ND	ND	ND	0
59014	2016-10-21T21:00:00	18.8	ND	ND	ND	0.74	17.31	ND	ND	ND	ND	ND	0
59015	2016-10-21T22:00:00	11.1	ND	ND	ND	0.59	18.49	ND	ND	ND	ND	ND	0
59016	2016-10-21T23:00:00	3.2	ND	ND	ND	0.86	14.60	ND	ND	ND	ND	ND	0
59017	2016-10-22T00:00:00	5.6	ND	ND	ND	0.91	15.84	ND	ND	ND	ND	ND	0
59018	2016-10-22T01:00:00	9.8	ND	ND	ND	1.00	10.73	ND	ND	ND	ND	ND	0
59019	2016-10-22T02:00:00	26.5	ND	ND	ND	1.77	4.22	ND	ND	ND	ND	ND	0
59020	2016-10-22T03:00:00	19.9	ND	ND	ND	1.97	7.50	ND	ND	ND	ND	ND	0
59021	2016-10-22T04:00:00	27.6	ND	ND	ND	1.38	5.18	ND	ND	ND	ND	ND	0
59022	2016-10-22T05:00:00	19.4	ND	ND	ND	1.85	4.04	ND	ND	ND	ND	ND	0
59023	2016-10-22T06:00:00	45.1	ND	ND	ND	1.02	3.16	ND	ND	ND	ND	ND	0
59024	2016-10-22T07:00:00	95.8	ND	ND	ND	0.10	4.00	ND	ND	ND	ND	ND	0
59025	2016-10-22T08:00:00	78.2	ND	ND	ND	0.78	6.71	ND	ND	ND	ND	ND	0
59026	2016-10-22T09:00:00	101.1	ND	ND	ND	0.79	13.97	ND	ND	ND	ND	ND	0
59027	2016-10-22T10:00:00	58.6	ND	ND	ND	1.21	37.83	ND	ND	ND	ND	ND	0
59028	2016-10-22T11:00:00	90.6	ND	ND	ND	1.18	68.90	ND	ND	ND	ND	ND	0
59029	2016-10-22T12:00:00	169	ND	ND	ND	0.60	64.72	ND	ND	ND	ND	ND	0
59030	2016-10-22T13:00:00	94.6	ND	ND	ND	0.63	53.57	ND	ND	ND	ND	ND	0
59031	2016-10-22T14:00:00	40.6	ND	ND	ND	0.35	17.78	ND	ND	ND	ND	ND	0
59032	2016-10-22T15:00:00	23.5	ND	ND	ND	0.47	14.46	ND	ND	ND	ND	ND	0
59033	2016-10-22T16:00:00	42.3	ND	ND	ND	0.68	17.45	ND	ND	ND	ND	ND	0
59034	2016-10-22T17:00:00	48	ND	ND	ND	0.64	17.48	ND	ND	ND	ND	ND	0
59035	2016-10-22T18:00:00	16.7	ND	ND	ND	0.35	15.42	ND	ND	ND	ND	ND	0
59036	2016-10-22T19:00:00	3.5	ND	ND	ND	0.47	16.37	ND	ND	ND	ND	ND	0
59037	2016-10-22T20:00:00	8.4	ND	ND	ND	0.29	13.78	ND	ND	ND	ND	ND	0
59038	2016-10-22T21:00:00	9	ND	ND	ND	0.47	8.93	ND	ND	ND	ND	ND	0
59039	2016-10-22T22:00:00	5.2	ND	ND	ND	0.49	10.60	ND	ND	ND	ND	ND	0
59040	2016-10-22T23:00:00	12.2	ND	ND	ND	0.56	3.75	ND	ND	ND	ND	ND	0
59041	2016-10-23T00:00:00	72.1	ND	ND	ND	0.38	3.16	ND	ND	ND	ND	ND	0
59042	2016-10-23T01:00:00	75.4	ND	ND	ND	0.22	2.63	ND	ND	ND	ND	ND	0
59043	2016-10-23T02:00:00	56.2	ND	ND	ND	1.27	2.53	ND	ND	ND	ND	ND	0
59044	2016-10-23T03:00:00	41.9	ND	ND	ND	1.12	7.73	ND	ND	ND	ND	ND	0
59045	2016-10-23T04:00:00	20.3	ND	ND	ND	1.12	13.36	ND	ND	ND	ND	ND	0
59046	2016-10-23T05:00:00	5.2	ND	ND	ND	1.41	13.44	ND	ND	ND	ND	ND	4.32
59047	2016-10-23T06:00:00	11.3	ND	ND	ND	1.18	10.83	ND	ND	ND	ND	ND	11.94
59048	2016-10-23T07:00:00	19.3	ND	ND	ND	1.27	18.39	ND	ND	ND	ND	ND	2.79
59049	2016-10-23T08:00:00	7.9	ND	ND	ND	1.53	24.10	ND	ND	ND	ND	ND	1.02
59050	2016-10-23T09:00:00	9.6	ND	ND	ND	1.31	34.22	ND	ND	ND	ND	ND	0.25
59051	2016-10-23T10:00:00	15.8	ND	ND	ND	1.09	42.13	ND	ND	ND	ND	ND	0
59052	2016-10-23T11:00:00	17.2	ND	ND	ND	1.09	54.26	ND	ND	ND	ND	ND	0
59053	2016-10-23T12:00:00	9	ND	ND	ND	0.95	89.68	ND	ND	ND	ND	ND	0
59054	2016-10-23T13:00:00	36.9	ND	ND	ND	1.00	69.11	ND	ND	ND	ND	ND	0
59055	2016-10-23T14:00:00	23.9	ND	ND	ND	0.77	63.64	ND	ND	ND	ND	ND	0
59056	2016-10-23T15:00:00	4.9	ND	ND	ND	1.13	72.61	ND	ND	ND	ND	ND	0
59057	2016-10-23T16:00:00	7.8	ND	ND	ND	0.79	62.46	ND	ND	ND	ND	ND	0
59058	2016-10-23T17:00:00	36	ND	ND	ND	1.24	57.12	ND	ND	ND	ND	ND	0
59059	2016-10-23T18:00:00	36.2	ND	ND	ND	0.78	37.72	ND	ND	ND	ND	ND	0
59060	2016-10-23T19:00:00	14.9	ND	ND	ND	0.61	21.19	ND	ND	ND	ND	ND	0
59061	2016-10-23T20:00:00	15	ND	ND	ND	0.88	18.94	ND	ND	ND	ND	ND	0
59062	2016-10-23T21:00:00	13.1	ND	ND	ND	0.70	11.81	ND	ND	ND	ND	ND	0
59063	2016-10-23T22:00:00	42.2	ND	ND	ND	0.42	5.91	ND	ND	ND	ND	ND	0
59064	2016-10-23T23:00:00	52.3	ND	ND	ND	0.84	6.28	ND	ND	ND	ND	ND	0
59065	2016-10-24T00:00:00	27.5	ND	ND	ND	1.00	10.09	ND	ND	ND	ND	ND	0
59066	2016-10-24T01:00:00	22.9	ND	ND	ND	1.28	8.22	ND	ND	ND	ND	ND	0
59067	2016-10-24T02:00:00	23.9	ND	ND	ND	2.26	2.90	ND	ND	ND	ND	ND	0
59068	2016-10-24T03:00:00	37.2	ND	ND	ND	2.63	2.92	ND	ND	ND	ND	ND	0
59069	2016-10-24T04:00:00	37.1	ND	ND	ND	1.91	4.24	ND	ND	ND	ND	ND	0
59070	2016-10-24T05:00:00	42.8	ND	ND	ND	1.77	2.98	ND	ND	ND	ND	ND	0
59071	2016-10-24T06:00:00	29.8	ND	ND	ND	1.91	3.12	ND	ND	ND	ND	ND	0
59072	2016-10-24T07:00:00	6.4	ND	ND	ND	0.82	3.32	ND	ND	ND	ND	ND	0
59073	2016-10-24T08:00:00	28.3	ND	ND	ND	0.67	4.51	ND	ND	ND	ND	ND	0
59074	2016-10-24T09:00:00	77	ND	ND	ND	1.24	9.77	ND	ND	ND	ND	ND	0
59075	2016-10-24T10:00:00	53.8	ND	ND	ND	2.48	23.82	ND	ND	ND	ND	ND	0
59076	2016-10-24T11:00:00	74	ND	ND	ND	1.35	51.16	ND	ND	ND	ND	ND	0
59077	2016-10-24T12:00:00	100.8	ND	ND	ND	1.27	51.41	ND	ND	ND	ND	ND	0
59078	2016-10-24T13:00:00	135	ND	ND	ND	1.20	39.66	ND	ND	ND	ND	ND	0
59079	2016-10-24T14:00:00	33	ND	ND	ND	0.96	36.42	ND	ND	ND	ND	ND	0
59080	2016-10-24T15:00:00	16.3	ND	ND	ND	0.85	31.93	ND	ND	ND	ND	ND	0
59081	2016-10-24T16:00:00	22.4	ND	ND	ND	0.61	29.51	ND	ND	ND	ND	ND	0
59082	2016-10-24T17:00:00	58.2	ND	ND	ND	0.42	24.75	ND	ND	ND	ND	ND	0
59083	2016-10-24T18:00:00	27.6	ND	ND	ND	0.74	20.11	ND	ND	ND	ND	ND	0
59084	2016-10-24T19:00:00	25.6	ND	ND	ND	0.29	12.03	ND	ND	ND	ND	ND	0
59085	2016-10-24T20:00:00	26	ND	ND	ND	0.47	16.29	ND	ND	ND	ND	ND	0
59086	2016-10-24T21:00:00	31	ND	ND	ND	0.98	17.33	ND	ND	ND	ND	ND	0
59087	2016-10-24T22:00:00	62	ND	ND	ND	0.70	17.58	ND	ND	ND	ND	ND	0
59088	2016-10-24T23:00:00	144.8	ND	ND	ND	1.12	21.21	ND	ND	ND	ND	ND	0
59089	2016-10-25T00:00:00	108.4	ND	ND	ND	1.30	22.29	ND	ND	ND	ND	ND	0
59090	2016-10-25T01:00:00	27.2	ND	ND	ND	1.39	19.58	ND	ND	ND	ND	ND	0
59091	2016-10-25T02:00:00	0.8	ND	ND	ND	1.48	18.19	ND	ND	ND	ND	ND	1.02
59092	2016-10-25T03:00:00	1.8	ND	ND	ND	1.17	15.97	ND	ND	ND	ND	ND	4.83
59093	2016-10-25T04:00:00	0.8	ND	ND	ND	1.58	13.93	ND	ND	ND	ND	ND	1.27
59094	2016-10-25T05:00:00	22.2	ND	ND	ND	2.29	10.68	ND	ND	ND	ND	ND	0.76
59095	2016-10-25T06:00:00	0.3	ND	ND	ND	1.58	7.61	ND	ND	ND	ND	ND	1.78
59096	2016-10-25T07:00:00	20.8	ND	ND	ND	1.66	4.79	ND	ND	ND	ND	ND	0.25
59097	2016-10-25T08:00:00	35.2	ND	ND	ND	1.18	5.71	ND	ND	ND	ND	ND	0
59098	2016-10-25T09:00:00	21	ND	ND	ND	0.74	11.95	ND	ND	ND	ND	ND	0
59099	2016-10-25T10:00:00	39.7	ND	ND	ND	0.88	21.00	ND	ND	ND	ND	ND	0
59100	2016-10-25T11:00:00	79.9	ND	ND	ND	0.79	29.79	ND	ND	ND	ND	ND	0
59101	2016-10-25T12:00:00	68.2	ND	ND	ND	0.88	36.23	ND	ND	ND	ND	ND	0
59102	2016-10-25T13:00:00	55.3	ND	ND	ND	1.52	26.12	ND	ND	ND	ND	ND	0
59103	2016-10-25T14:00:00	37.3	ND	ND	ND	1.46	26.04	ND	ND	ND	ND	ND	0
59104	2016-10-25T15:00:00	51.5	ND	ND	ND	1.51	29.69	ND	ND	ND	ND	ND	0
59105	2016-10-25T16:00:00	99.7	ND	ND	ND	0.22	18.54	ND	ND	ND	ND	ND	0
59106	2016-10-25T17:00:00	97.5	ND	ND	ND	0.39	12.32	ND	ND	ND	ND	ND	0
59107	2016-10-25T18:00:00	54.7	ND	ND	ND	0.08	5.30	ND	ND	ND	ND	ND	0
59108	2016-10-25T19:00:00	42.5	ND	ND	ND	0.00	2.81	ND	ND	ND	ND	ND	0
59109	2016-10-25T20:00:00	11.5	ND	ND	ND	0.06	2.30	ND	ND	ND	ND	ND	0
59110	2016-10-25T21:00:00	9.6	ND	ND	ND	0.15	2.10	ND	ND	ND	ND	ND	0
59111	2016-10-25T22:00:00	43.2	ND	ND	ND	0.01	2.28	ND	ND	ND	ND	ND	0
59112	2016-10-25T23:00:00	50.6	ND	ND	ND	0.33	2.47	ND	ND	ND	ND	ND	0
59113	2016-10-26T00:00:00	16.4	ND	ND	ND	0.56	2.20	ND	ND	ND	ND	ND	0
59114	2016-10-26T01:00:00	42.1	ND	ND	ND	1.00	2.08	ND	ND	ND	ND	ND	0
59115	2016-10-26T02:00:00	53	ND	ND	ND	1.17	2.81	ND	ND	ND	ND	ND	0
59116	2016-10-26T03:00:00	19.8	ND	ND	ND	0.79	1.59	ND	ND	ND	ND	ND	0
59117	2016-10-26T04:00:00	4.8	ND	ND	ND	1.17	2.12	ND	ND	ND	ND	ND	0
59118	2016-10-26T05:00:00	35.2	ND	ND	ND	1.25	3.61	ND	ND	ND	ND	ND	0
59119	2016-10-26T06:00:00	32.4	ND	ND	ND	0.77	2.61	ND	ND	ND	ND	ND	0
59120	2016-10-26T07:00:00	36	ND	ND	ND	0.17	4.55	ND	ND	ND	ND	ND	0
59121	2016-10-26T08:00:00	52.9	ND	ND	ND	0.18	7.97	ND	ND	ND	ND	ND	0
59122	2016-10-26T09:00:00	95.5	ND	ND	ND	1.21	14.64	ND	ND	ND	ND	ND	0
59123	2016-10-26T10:00:00	174.2	ND	ND	ND	1.24	26.71	ND	ND	ND	ND	ND	0
59124	2016-10-26T11:00:00	37.2	ND	ND	ND	1.18	63.56	ND	ND	ND	ND	ND	0
59125	2016-10-26T12:00:00	62.3	ND	ND	ND	0.52	88.11	ND	ND	ND	ND	ND	0
59126	2016-10-26T13:00:00	99.9	ND	ND	ND	0.81	82.03	ND	ND	ND	ND	ND	0
59127	2016-10-26T14:00:00	74.1	ND	ND	ND	0.79	78.63	ND	ND	ND	ND	ND	0
59128	2016-10-26T15:00:00	46.8	ND	ND	ND	0.67	19.11	ND	ND	ND	ND	ND	0
59129	2016-10-26T16:00:00	39.8	ND	ND	ND	0.49	14.72	ND	ND	ND	ND	ND	0
59130	2016-10-26T17:00:00	19.4	ND	ND	ND	0.79	15.93	ND	ND	ND	ND	ND	0
59131	2016-10-26T18:00:00	24.6	ND	ND	ND	0.63	15.84	ND	ND	ND	ND	ND	0
59132	2016-10-26T19:00:00	18.5	ND	ND	ND	0.43	12.74	ND	ND	ND	ND	ND	0
59133	2016-10-26T20:00:00	12.6	ND	ND	ND	0.33	6.46	ND	ND	ND	ND	ND	0
59134	2016-10-26T21:00:00	11.4	ND	ND	ND	0.60	12.28	ND	ND	ND	ND	ND	0
59135	2016-10-26T22:00:00	18	ND	ND	ND	0.72	8.54	ND	ND	ND	ND	ND	0
59136	2016-10-26T23:00:00	12.7	ND	ND	ND	0.56	5.26	ND	ND	ND	ND	ND	0
59137	2016-10-27T00:00:00	29	ND	ND	ND	0.81	3.00	ND	ND	ND	ND	ND	0
59138	2016-10-27T01:00:00	16.3	ND	ND	ND	1.17	3.28	ND	ND	ND	ND	ND	0
59139	2016-10-27T02:00:00	16.3	ND	ND	ND	1.90	3.38	ND	ND	ND	ND	ND	0
59140	2016-10-27T03:00:00	32.8	ND	ND	ND	2.01	3.98	ND	ND	ND	ND	ND	0
59141	2016-10-27T04:00:00	57.4	ND	ND	ND	2.01	4.65	ND	ND	ND	ND	ND	0
59142	2016-10-27T05:00:00	47.7	ND	ND	ND	1.49	4.32	ND	ND	ND	ND	ND	0
59143	2016-10-27T06:00:00	52.7	ND	ND	ND	0.71	2.79	ND	ND	ND	ND	ND	0
59144	2016-10-27T07:00:00	18.2	ND	ND	ND	1.90	4.47	ND	ND	ND	ND	ND	0
59145	2016-10-27T08:00:00	18	ND	ND	ND	1.58	9.58	ND	ND	ND	ND	ND	0
59146	2016-10-27T09:00:00	68.5	ND	ND	ND	1.13	20.59	ND	ND	ND	ND	ND	0
59147	2016-10-27T10:00:00	72.2	ND	ND	ND	1.20	30.02	ND	ND	ND	ND	ND	0
59148	2016-10-27T11:00:00	107.4	ND	ND	ND	1.00	44.35	ND	ND	ND	ND	ND	0
59149	2016-10-27T12:00:00	89.5	ND	ND	ND	0.91	61.21	ND	ND	ND	ND	ND	0
59150	2016-10-27T13:00:00	32.7	ND	ND	ND	0.91	90.39	ND	ND	ND	ND	ND	0
59151	2016-10-27T14:00:00	74.7	ND	ND	ND	0.96	114.11	ND	ND	ND	ND	ND	0
59152	2016-10-27T15:00:00	88	ND	ND	ND	1.16	69.31	ND	ND	ND	ND	ND	0
59153	2016-10-27T16:00:00	31.5	ND	ND	ND	0.53	34.28	ND	ND	ND	ND	ND	0
59154	2016-10-27T17:00:00	62.1	ND	ND	ND	0.56	26.10	ND	ND	ND	ND	ND	0
59155	2016-10-27T18:00:00	51.6	ND	ND	ND	0.33	18.11	ND	ND	ND	ND	ND	0
59156	2016-10-27T19:00:00	22.8	ND	ND	ND	0.56	15.17	ND	ND	ND	ND	ND	0
59157	2016-10-27T20:00:00	ND	ND	ND	ND	ND	ND	ND	ND	ND	ND	ND	ND
59158	2016-10-27T21:00:00	9.5	ND	ND	ND	0.77	13.56	ND	ND	ND	ND	ND	0
59159	2016-10-27T22:00:00	ND	ND	ND	ND	0.68	16.86	ND	ND	ND	ND	ND	0
59160	2016-10-27T23:00:00	3.5	ND	ND	ND	1.00	12.34	ND	ND	ND	ND	ND	0
59161	2016-10-28T00:00:00	44.4	ND	ND	ND	0.89	3.41	ND	ND	ND	ND	ND	0
59162	2016-10-28T01:00:00	9.3	ND	ND	ND	1.80	4.20	ND	ND	ND	ND	ND	0
59163	2016-10-28T02:00:00	25.4	ND	ND	ND	2.84	3.98	ND	ND	ND	ND	ND	0
59164	2016-10-28T03:00:00	69.8	ND	ND	ND	2.26	4.34	ND	ND	ND	ND	ND	0
59165	2016-10-28T04:00:00	39.8	ND	ND	ND	2.56	3.49	ND	ND	ND	ND	ND	0
59166	2016-10-28T05:00:00	75.2	ND	ND	ND	2.05	6.20	ND	ND	ND	ND	ND	0
59167	2016-10-28T06:00:00	12.4	ND	ND	ND	1.21	3.67	ND	ND	ND	ND	ND	0
59168	2016-10-28T07:00:00	80.5	ND	ND	ND	0.20	4.57	ND	ND	ND	ND	ND	0
59169	2016-10-28T08:00:00	60.5	ND	ND	ND	0.85	20.57	ND	ND	ND	ND	ND	0
59170	2016-10-28T09:00:00	29.2	ND	ND	ND	0.57	25.18	ND	ND	ND	ND	ND	0
59171	2016-10-28T10:00:00	47.7	ND	ND	ND	0.86	27.22	ND	ND	ND	ND	ND	0
59172	2016-10-28T11:00:00	54	ND	ND	ND	0.66	44.70	ND	ND	ND	ND	ND	0
59173	2016-10-28T12:00:00	70.7	ND	ND	ND	1.05	67.86	ND	ND	ND	ND	ND	0
59174	2016-10-28T13:00:00	73.8	ND	ND	ND	0.84	78.69	ND	ND	ND	ND	ND	0
59175	2016-10-28T14:00:00	41.6	ND	ND	ND	0.86	96.86	ND	ND	ND	ND	ND	0
59176	2016-10-28T15:00:00	122	ND	ND	ND	0.84	97.67	ND	ND	ND	ND	ND	0
59177	2016-10-28T16:00:00	81.7	ND	ND	ND	1.07	73.31	ND	ND	ND	ND	ND	0
59178	2016-10-28T17:00:00	62.8	ND	ND	ND	0.31	25.06	ND	ND	ND	ND	ND	1.52
59179	2016-10-28T18:00:00	28.9	ND	ND	ND	0.38	11.77	ND	ND	ND	ND	ND	0
59180	2016-10-28T19:00:00	55.5	ND	ND	ND	0.33	11.68	ND	ND	ND	ND	ND	0
59181	2016-10-28T20:00:00	14.4	ND	ND	ND	0.47	17.48	ND	ND	ND	ND	ND	0
59182	2016-10-28T21:00:00	14	ND	ND	ND	0.79	10.97	ND	ND	ND	ND	ND	0
59183	2016-10-28T22:00:00	22.4	ND	ND	ND	0.52	6.04	ND	ND	ND	ND	ND	0
59184	2016-10-28T23:00:00	11.3	ND	ND	ND	0.75	7.24	ND	ND	ND	ND	ND	0
59185	2016-10-29T00:00:00	42.6	ND	ND	ND	1.13	16.44	ND	ND	ND	ND	ND	0
59186	2016-10-29T01:00:00	21.9	ND	ND	ND	1.05	17.52	ND	ND	ND	ND	ND	1.52
59187	2016-10-29T02:00:00	ND	ND	ND	ND	1.25	7.61	ND	ND	ND	ND	ND	42.16
59188	2016-10-29T03:00:00	2.2	ND	ND	ND	2.66	9.14	ND	ND	ND	ND	ND	9.4
59189	2016-10-29T04:00:00	30.9	ND	ND	ND	3.32	8.18	ND	ND	ND	ND	ND	3.56
59190	2016-10-29T05:00:00	59.2	ND	ND	ND	5.34	1.96	ND	ND	ND	ND	ND	1.27
59191	2016-10-29T06:00:00	0.7	ND	ND	ND	1.71	4.34	ND	ND	ND	ND	ND	0.25
59192	2016-10-29T07:00:00	23.8	ND	ND	ND	0.99	4.34	ND	ND	ND	ND	ND	0
59193	2016-10-29T08:00:00	7.2	ND	ND	ND	0.32	5.44	ND	ND	ND	ND	ND	0.25
59194	2016-10-29T09:00:00	41.2	ND	ND	ND	0.43	6.73	ND	ND	ND	ND	ND	0
59195	2016-10-29T10:00:00	38.7	ND	ND	ND	1.05	20.21	ND	ND	ND	ND	ND	0
59196	2016-10-29T11:00:00	42.2	ND	ND	ND	1.10	45.11	ND	ND	ND	ND	ND	0
59197	2016-10-29T12:00:00	102.5	ND	ND	ND	0.72	52.40	ND	ND	ND	ND	ND	0
59198	2016-10-29T13:00:00	112.4	ND	ND	ND	1.14	60.26	ND	ND	ND	ND	ND	0
59199	2016-10-29T14:00:00	85.9	ND	ND	ND	0.43	46.43	ND	ND	ND	ND	ND	0
59200	2016-10-29T15:00:00	81.2	ND	ND	ND	0.72	53.79	ND	ND	ND	ND	ND	0
59201	2016-10-29T16:00:00	66.9	ND	ND	ND	0.39	33.11	ND	ND	ND	ND	ND	0
59202	2016-10-29T17:00:00	32.6	ND	ND	ND	0.42	24.63	ND	ND	ND	ND	ND	0
59203	2016-10-29T18:00:00	40.4	ND	ND	ND	0.40	14.62	ND	ND	ND	ND	ND	0
59204	2016-10-29T19:00:00	79.4	ND	ND	ND	0.10	6.30	ND	ND	ND	ND	ND	0
59205	2016-10-29T20:00:00	33.4	ND	ND	ND	0.00	3.22	ND	ND	ND	ND	ND	0
59206	2016-10-29T21:00:00	26.8	ND	ND	ND	0.13	5.00	ND	ND	ND	ND	ND	0
59207	2016-10-29T22:00:00	30.4	ND	ND	ND	0.21	5.08	ND	ND	ND	ND	ND	0
59208	2016-10-29T23:00:00	29.9	ND	ND	ND	0.24	2.96	ND	ND	ND	ND	ND	0
59209	2016-10-30T00:00:00	29	ND	ND	ND	0.11	3.69	ND	ND	ND	ND	ND	0
59210	2016-10-30T01:00:00	12.7	ND	ND	ND	0.22	3.36	ND	ND	ND	ND	ND	0
59211	2016-10-30T02:00:00	64.3	ND	ND	ND	1.63	2.69	ND	ND	ND	ND	ND	0
59212	2016-10-30T03:00:00	69.3	ND	ND	ND	1.35	2.94	ND	ND	ND	ND	ND	0
59213	2016-10-30T04:00:00	58.7	ND	ND	ND	0.95	3.04	ND	ND	ND	ND	ND	0
59214	2016-10-30T05:00:00	79.6	ND	ND	ND	1.71	2.63	ND	ND	ND	ND	ND	0
59215	2016-10-30T06:00:00	60.2	ND	ND	ND	1.92	3.38	ND	ND	ND	ND	ND	0
59216	2016-10-30T07:00:00	54.7	ND	ND	ND	1.23	4.22	ND	ND	ND	ND	ND	0
59217	2016-10-30T08:00:00	34.2	ND	ND	ND	1.37	9.22	ND	ND	ND	ND	ND	0
59218	2016-10-30T09:00:00	38.4	ND	ND	ND	1.34	19.25	ND	ND	ND	ND	ND	0
59219	2016-10-30T10:00:00	17.7	ND	ND	ND	1.39	41.19	ND	ND	ND	ND	ND	0
59220	2016-10-30T11:00:00	90.9	ND	ND	ND	1.03	64.99	ND	ND	ND	ND	ND	0
59221	2016-10-30T12:00:00	91.6	ND	ND	ND	1.03	88.29	ND	ND	ND	ND	ND	0
59222	2016-10-30T13:00:00	83.8	ND	ND	ND	1.17	106.54	ND	ND	ND	ND	ND	0
59223	2016-10-30T14:00:00	67.1	ND	ND	ND	1.17	103.00	ND	ND	ND	ND	ND	0
59224	2016-10-30T15:00:00	31.3	ND	ND	ND	1.05	52.71	ND	ND	ND	ND	ND	0
59225	2016-10-30T16:00:00	46.2	ND	ND	ND	1.27	27.39	ND	ND	ND	ND	ND	0
59226	2016-10-30T17:00:00	20.6	ND	ND	ND	1.38	23.16	ND	ND	ND	ND	ND	12.19
59227	2016-10-30T18:00:00	14.6	ND	ND	ND	0.71	16.62	ND	ND	ND	ND	ND	0
59228	2016-10-30T19:00:00	45.9	ND	ND	ND	1.10	15.72	ND	ND	ND	ND	ND	0
59229	2016-10-30T20:00:00	5.5	ND	ND	ND	1.20	19.25	ND	ND	ND	ND	ND	0
59230	2016-10-30T21:00:00	8.8	ND	ND	ND	0.81	18.41	ND	ND	ND	ND	ND	0
59231	2016-10-30T22:00:00	10.7	ND	ND	ND	0.82	16.37	ND	ND	ND	ND	ND	0
59232	2016-10-30T23:00:00	2.3	ND	ND	ND	0.60	8.60	ND	ND	ND	ND	ND	0
59233	2016-10-31T00:00:00	10.3	ND	ND	ND	0.72	3.69	ND	ND	ND	ND	ND	0
59234	2016-10-31T01:00:00	ND	ND	ND	ND	1.64	4.47	ND	ND	ND	ND	ND	0
59235	2016-10-31T02:00:00	ND	ND	ND	ND	2.15	3.81	ND	ND	ND	ND	ND	0
59236	2016-10-31T03:00:00	20.3	ND	ND	ND	1.94	3.92	ND	ND	ND	ND	ND	0
59237	2016-10-31T04:00:00	18.7	ND	ND	ND	1.38	3.65	ND	ND	ND	ND	ND	0
59238	2016-10-31T05:00:00	31.8	ND	ND	ND	1.49	2.43	ND	ND	ND	ND	ND	0
59239	2016-10-31T06:00:00	42	ND	ND	ND	1.07	2.51	ND	ND	ND	ND	ND	0
59240	2016-10-31T07:00:00	95.4	ND	ND	ND	0.49	3.08	ND	ND	ND	ND	ND	0
59241	2016-10-31T08:00:00	84.3	ND	ND	ND	0.57	4.59	ND	ND	ND	ND	ND	0
59242	2016-10-31T09:00:00	21.5	ND	ND	ND	4.10	9.52	ND	ND	ND	ND	ND	0
59243	2016-10-31T10:00:00	37.6	ND	ND	ND	1.92	23.55	ND	ND	ND	ND	ND	0
59244	2016-10-31T11:00:00	93.9	ND	ND	ND	1.38	49.43	ND	ND	ND	ND	ND	0
59245	2016-10-31T12:00:00	142.7	ND	ND	ND	1.16	64.33	ND	ND	ND	ND	ND	0
59246	2016-10-31T13:00:00	109.3	ND	ND	ND	0.43	49.00	ND	ND	ND	ND	ND	0
59247	2016-10-31T14:00:00	95.6	ND	ND	ND	0.85	20.88	ND	ND	ND	ND	ND	7.37
59248	2016-10-31T15:00:00	51.2	ND	ND	ND	0.67	19.51	ND	ND	ND	ND	ND	0
59249	2016-10-31T16:00:00	22.9	ND	ND	ND	0.64	20.27	ND	ND	ND	ND	ND	0
59250	2016-10-31T17:00:00	30.9	ND	ND	ND	0.20	17.25	ND	ND	ND	ND	ND	0
59251	2016-10-31T18:00:00	19.8	ND	ND	ND	0.11	11.22	ND	ND	ND	ND	ND	0
59252	2016-10-31T19:00:00	ND	ND	ND	ND	0.18	5.71	ND	ND	ND	ND	ND	0.25
59253	2016-10-31T20:00:00	3.3	ND	ND	ND	0.56	3.85	ND	ND	ND	ND	ND	0.76
59254	2016-10-31T21:00:00	20.9	ND	ND	ND	0.03	3.00	ND	ND	ND	ND	ND	0
59255	2016-10-31T22:00:00	43	ND	ND	ND	0.07	3.20	ND	ND	ND	ND	ND	0
59256	2016-10-31T23:00:00	58.8	ND	ND	ND	0.07	3.94	ND	ND	ND	ND	ND	0.25
59257	2016-11-01T00:00:00	61.6	ND	ND	ND	0.70	4.51	ND	ND	ND	ND	ND	0
59258	2016-11-01T01:00:00	33.9	ND	ND	ND	0.28	2.53	ND	ND	ND	ND	ND	0
59259	2016-11-01T02:00:00	22.9	ND	ND	ND	0.72	2.37	ND	ND	ND	ND	ND	0
59260	2016-11-01T03:00:00	61	ND	ND	ND	1.07	3.32	ND	ND	ND	ND	ND	0
59261	2016-11-01T04:00:00	15.9	ND	ND	ND	1.94	2.90	ND	ND	ND	ND	ND	0
59262	2016-11-01T05:00:00	38.4	ND	ND	ND	1.09	2.45	ND	ND	ND	ND	ND	0
59263	2016-11-01T06:00:00	38.1	ND	ND	ND	1.52	2.71	ND	ND	ND	ND	ND	0
59264	2016-11-01T07:00:00	63.9	ND	ND	ND	1.67	4.47	ND	ND	ND	ND	ND	0
59265	2016-11-01T08:00:00	73	ND	ND	ND	1.03	5.44	ND	ND	ND	ND	ND	0
59266	2016-11-01T09:00:00	67.7	ND	ND	ND	0.57	8.22	ND	ND	ND	ND	ND	0
59267	2016-11-01T10:00:00	97.1	ND	ND	ND	0.99	15.99	ND	ND	ND	ND	ND	0
59268	2016-11-01T11:00:00	45.1	ND	ND	ND	1.07	36.56	ND	ND	ND	ND	ND	0
59269	2016-11-01T12:00:00	60.9	ND	ND	ND	0.75	45.49	ND	ND	ND	ND	ND	0
59270	2016-11-01T13:00:00	159.8	ND	ND	ND	1.20	62.93	ND	ND	ND	ND	ND	0
59271	2016-11-01T14:00:00	108.5	ND	ND	ND	0.93	79.71	ND	ND	ND	ND	ND	0
59272	2016-11-01T15:00:00	35.9	ND	ND	ND	0.72	81.69	ND	ND	ND	ND	ND	0
59273	2016-11-01T16:00:00	92.2	ND	ND	ND	0.42	56.71	ND	ND	ND	ND	ND	0.51
59274	2016-11-01T17:00:00	82	ND	ND	ND	0.18	23.82	ND	ND	ND	ND	ND	1.02
59275	2016-11-01T18:00:00	72.2	ND	ND	ND	0.33	10.40	ND	ND	ND	ND	ND	0
59276	2016-11-01T19:00:00	66.9	ND	ND	ND	0.08	8.97	ND	ND	ND	ND	ND	0
59277	2016-11-01T20:00:00	36.1	ND	ND	ND	0.45	10.87	ND	ND	ND	ND	ND	0
59278	2016-11-01T21:00:00	30.2	ND	ND	ND	0.11	5.14	ND	ND	ND	ND	ND	0
59279	2016-11-01T22:00:00	11.4	ND	ND	ND	0.57	7.03	ND	ND	ND	ND	ND	0
59280	2016-11-01T23:00:00	24.1	ND	ND	ND	0.15	3.26	ND	ND	ND	ND	ND	0
59281	2016-11-02T00:00:00	39.4	ND	ND	ND	0.92	6.52	ND	ND	ND	ND	ND	0
59282	2016-11-02T01:00:00	ND	ND	ND	ND	0.93	5.97	ND	ND	ND	ND	ND	0
59283	2016-11-02T02:00:00	14.4	ND	ND	ND	1.03	3.34	ND	ND	ND	ND	ND	0
59284	2016-11-02T03:00:00	62.1	ND	ND	ND	1.07	6.44	ND	ND	ND	ND	ND	0
59285	2016-11-02T04:00:00	64.8	ND	ND	ND	1.77	11.70	ND	ND	ND	ND	ND	0
59286	2016-11-02T05:00:00	39.3	ND	ND	ND	3.22	12.70	ND	ND	ND	ND	ND	0
59287	2016-11-02T06:00:00	38.8	ND	ND	ND	1.12	5.22	ND	ND	ND	ND	ND	0
59288	2016-11-02T07:00:00	61.2	ND	ND	ND	0.77	4.67	ND	ND	ND	ND	ND	0
59289	2016-11-02T08:00:00	84.5	ND	ND	ND	0.20	5.93	ND	ND	ND	ND	ND	0
59290	2016-11-02T09:00:00	35.8	ND	ND	ND	0.28	12.70	ND	ND	ND	ND	ND	0
59291	2016-11-02T10:00:00	74.4	ND	ND	ND	0.33	16.21	ND	ND	ND	ND	ND	0
59292	2016-11-02T11:00:00	33.1	ND	ND	ND	0.49	39.78	ND	ND	ND	ND	ND	0
59293	2016-11-02T12:00:00	107.5	ND	ND	ND	1.60	58.73	ND	ND	ND	ND	ND	0
59294	2016-11-02T13:00:00	61.1	ND	ND	ND	0.89	77.06	ND	ND	ND	ND	ND	0
59295	2016-11-02T14:00:00	91.8	ND	ND	ND	0.91	75.88	ND	ND	ND	ND	ND	0
59296	2016-11-02T15:00:00	100.6	ND	ND	ND	0.72	56.40	ND	ND	ND	ND	ND	0
59297	2016-11-02T16:00:00	24.3	ND	ND	ND	0.91	41.92	ND	ND	ND	ND	ND	0
59298	2016-11-02T17:00:00	56.6	ND	ND	ND	0.39	22.23	ND	ND	ND	ND	ND	0
59299	2016-11-02T18:00:00	68	ND	ND	ND	0.35	10.81	ND	ND	ND	ND	ND	0
59300	2016-11-02T19:00:00	23.2	ND	ND	ND	0.29	12.09	ND	ND	ND	ND	ND	0
59301	2016-11-02T20:00:00	18.2	ND	ND	ND	0.50	10.87	ND	ND	ND	ND	ND	0
59302	2016-11-02T21:00:00	5	ND	ND	ND	0.49	17.31	ND	ND	ND	ND	ND	0
59303	2016-11-02T22:00:00	2	ND	ND	ND	0.61	8.87	ND	ND	ND	ND	ND	0
59304	2016-11-02T23:00:00	60.4	ND	ND	ND	0.63	16.68	ND	ND	ND	ND	ND	0
59305	2016-11-03T00:00:00	43.6	ND	ND	ND	0.93	12.26	ND	ND	ND	ND	ND	0
59306	2016-11-03T01:00:00	27.1	ND	ND	ND	1.20	3.85	ND	ND	ND	ND	ND	0
59307	2016-11-03T02:00:00	51	ND	ND	ND	1.62	4.96	ND	ND	ND	ND	ND	0
59308	2016-11-03T03:00:00	76.8	ND	ND	ND	1.99	3.43	ND	ND	ND	ND	ND	0
59309	2016-11-03T04:00:00	67.9	ND	ND	ND	2.15	3.67	ND	ND	ND	ND	ND	0
59310	2016-11-03T05:00:00	44.8	ND	ND	ND	2.10	3.61	ND	ND	ND	ND	ND	0
59311	2016-11-03T06:00:00	9	ND	ND	ND	2.05	3.41	ND	ND	ND	ND	ND	0
59312	2016-11-03T07:00:00	42.5	ND	ND	ND	1.00	3.98	ND	ND	ND	ND	ND	0
59313	2016-11-03T08:00:00	56.7	ND	ND	ND	0.33	7.24	ND	ND	ND	ND	ND	0
59314	2016-11-03T09:00:00	40.2	ND	ND	ND	0.96	26.18	ND	ND	ND	ND	ND	0
59315	2016-11-03T10:00:00	94.4	ND	ND	ND	1.13	41.27	ND	ND	ND	ND	ND	0
59316	2016-11-03T11:00:00	84.4	ND	ND	ND	0.71	39.48	ND	ND	ND	ND	ND	0
59317	2016-11-03T12:00:00	67	ND	ND	ND	1.24	52.75	ND	ND	ND	ND	ND	0
59318	2016-11-03T13:00:00	54	ND	ND	ND	0.71	46.70	ND	ND	ND	ND	ND	0
59319	2016-11-03T14:00:00	14	ND	ND	ND	1.12	61.54	ND	ND	ND	ND	ND	0
59320	2016-11-03T15:00:00	7.7	ND	ND	ND	0.89	29.44	ND	ND	ND	ND	ND	0
59321	2016-11-03T16:00:00	75.3	ND	ND	ND	0.67	19.43	ND	ND	ND	ND	ND	0
59322	2016-11-03T17:00:00	53.9	ND	ND	ND	0.72	15.86	ND	ND	ND	ND	ND	0
59323	2016-11-03T18:00:00	46.9	ND	ND	ND	0.22	10.28	ND	ND	ND	ND	ND	0
59324	2016-11-03T19:00:00	27	ND	ND	ND	0.42	10.62	ND	ND	ND	ND	ND	0
59325	2016-11-03T20:00:00	16.6	ND	ND	ND	0.70	14.31	ND	ND	ND	ND	ND	0
59326	2016-11-03T21:00:00	11.4	ND	ND	ND	0.82	11.87	ND	ND	ND	ND	ND	0
59327	2016-11-03T22:00:00	4.3	ND	ND	ND	0.79	13.54	ND	ND	ND	ND	ND	0
59328	2016-11-03T23:00:00	1.1	ND	ND	ND	1.06	13.62	ND	ND	ND	ND	ND	0
59329	2016-11-04T00:00:00	11.7	ND	ND	ND	1.67	14.33	ND	ND	ND	ND	ND	0
59330	2016-11-04T01:00:00	2.5	ND	ND	ND	2.06	6.65	ND	ND	ND	ND	ND	0
59331	2016-11-04T02:00:00	0.7	ND	ND	ND	2.05	7.83	ND	ND	ND	ND	ND	0
59332	2016-11-04T03:00:00	0.2	ND	ND	ND	2.04	10.79	ND	ND	ND	ND	ND	0
59333	2016-11-04T04:00:00	14.9	ND	ND	ND	2.70	10.34	ND	ND	ND	ND	ND	0
59334	2016-11-04T05:00:00	31.4	ND	ND	ND	2.97	4.28	ND	ND	ND	ND	ND	0
59335	2016-11-04T06:00:00	0.2	ND	ND	ND	2.43	3.39	ND	ND	ND	ND	ND	0
59336	2016-11-04T07:00:00	20.4	ND	ND	ND	0.86	4.53	ND	ND	ND	ND	ND	0
59337	2016-11-04T08:00:00	66.4	ND	ND	ND	2.27	5.55	ND	ND	ND	ND	ND	0
59338	2016-11-04T09:00:00	71.6	ND	ND	ND	2.31	9.40	ND	ND	ND	ND	ND	0
59339	2016-11-04T10:00:00	97.7	ND	ND	ND	1.49	24.96	ND	ND	ND	ND	ND	0
59340	2016-11-04T11:00:00	98	ND	ND	ND	1.34	54.71	ND	ND	ND	ND	ND	0
59341	2016-11-04T12:00:00	54.7	ND	ND	ND	1.14	59.91	ND	ND	ND	ND	ND	0
59342	2016-11-04T13:00:00	126.8	ND	ND	ND	0.96	65.03	ND	ND	ND	ND	ND	0
59343	2016-11-04T14:00:00	61.4	ND	ND	ND	0.63	69.39	ND	ND	ND	ND	ND	0
59344	2016-11-04T15:00:00	110.7	ND	ND	ND	0.49	54.24	ND	ND	ND	ND	ND	0
59345	2016-11-04T16:00:00	119.9	ND	ND	ND	0.85	32.71	ND	ND	ND	ND	ND	0
59346	2016-11-04T17:00:00	78.9	ND	ND	ND	0.79	19.66	ND	ND	ND	ND	ND	0
59347	2016-11-04T18:00:00	3.7	ND	ND	ND	0.11	7.03	ND	ND	ND	ND	ND	0
59348	2016-11-04T19:00:00	24.3	ND	ND	ND	0.10	4.71	ND	ND	ND	ND	ND	0
59349	2016-11-04T20:00:00	55.5	ND	ND	ND	0.18	5.48	ND	ND	ND	ND	ND	0
59350	2016-11-04T21:00:00	47.8	ND	ND	ND	0.21	5.34	ND	ND	ND	ND	ND	0
59351	2016-11-04T22:00:00	43.6	ND	ND	ND	0.43	9.40	ND	ND	ND	ND	ND	0
59352	2016-11-04T23:00:00	24.5	ND	ND	ND	0.56	6.55	ND	ND	ND	ND	ND	0
59353	2016-11-05T00:00:00	24	ND	ND	ND	0.67	3.16	ND	ND	ND	ND	ND	0
59354	2016-11-05T01:00:00	21.7	ND	ND	ND	0.47	3.18	ND	ND	ND	ND	ND	0
59355	2016-11-05T02:00:00	39.9	ND	ND	ND	1.16	6.10	ND	ND	ND	ND	ND	0
59356	2016-11-05T03:00:00	29.5	ND	ND	ND	2.09	5.04	ND	ND	ND	ND	ND	0
59357	2016-11-05T04:00:00	44.4	ND	ND	ND	2.45	3.65	ND	ND	ND	ND	ND	0
59358	2016-11-05T05:00:00	58.6	ND	ND	ND	1.51	2.94	ND	ND	ND	ND	ND	0
59359	2016-11-05T06:00:00	55.2	ND	ND	ND	1.48	2.49	ND	ND	ND	ND	ND	0
59360	2016-11-05T07:00:00	64.6	ND	ND	ND	0.79	4.14	ND	ND	ND	ND	ND	0
59361	2016-11-05T08:00:00	64.1	ND	ND	ND	0.39	7.12	ND	ND	ND	ND	ND	0
59362	2016-11-05T09:00:00	112.3	ND	ND	ND	0.54	21.19	ND	ND	ND	ND	ND	0
59363	2016-11-05T10:00:00	18.3	ND	ND	ND	0.98	56.34	ND	ND	ND	ND	ND	0
59364	2016-11-05T11:00:00	18.3	ND	ND	ND	0.67	61.27	ND	ND	ND	ND	ND	0
59365	2016-11-05T12:00:00	113.9	ND	ND	ND	0.82	59.44	ND	ND	ND	ND	ND	0
59366	2016-11-05T13:00:00	85.2	ND	ND	ND	0.63	89.31	ND	ND	ND	ND	ND	0
59367	2016-11-05T14:00:00	82.2	ND	ND	ND	0.88	99.35	ND	ND	ND	ND	ND	0
59368	2016-11-05T15:00:00	85.7	ND	ND	ND	0.79	96.82	ND	ND	ND	ND	ND	0
59369	2016-11-05T16:00:00	58.1	ND	ND	ND	0.45	36.91	ND	ND	ND	ND	ND	0
59370	2016-11-05T17:00:00	58.1	ND	ND	ND	0.39	25.24	ND	ND	ND	ND	ND	0
59371	2016-11-05T18:00:00	53.4	ND	ND	ND	0.26	19.04	ND	ND	ND	ND	ND	0
59372	2016-11-05T19:00:00	31.4	ND	ND	ND	0.56	16.90	ND	ND	ND	ND	ND	0
59373	2016-11-05T20:00:00	15.6	ND	ND	ND	0.33	16.19	ND	ND	ND	ND	ND	0
59374	2016-11-05T21:00:00	6.8	ND	ND	ND	0.42	17.05	ND	ND	ND	ND	ND	0
59375	2016-11-05T22:00:00	30.8	ND	ND	ND	0.14	5.73	ND	ND	ND	ND	ND	0
59376	2016-11-05T23:00:00	47.8	ND	ND	ND	0.72	12.62	ND	ND	ND	ND	ND	0
59377	2016-11-06T00:00:00	25.5	ND	ND	ND	0.89	10.13	ND	ND	ND	ND	ND	0
59378	2016-11-06T01:00:00	28.8	ND	ND	ND	0.77	8.61	ND	ND	ND	ND	ND	0
59379	2016-11-06T02:00:00	30.7	ND	ND	ND	1.24	3.81	ND	ND	ND	ND	ND	0
59380	2016-11-06T03:00:00	7.7	ND	ND	ND	1.70	6.14	ND	ND	ND	ND	ND	0
59381	2016-11-06T04:00:00	23.5	ND	ND	ND	1.67	11.60	ND	ND	ND	ND	ND	0
59382	2016-11-06T05:00:00	86.1	ND	ND	ND	1.78	5.71	ND	ND	ND	ND	ND	0
59383	2016-11-06T06:00:00	13.2	ND	ND	ND	1.38	4.73	ND	ND	ND	ND	ND	0
59384	2016-11-06T07:00:00	33.4	ND	ND	ND	1.62	3.69	ND	ND	ND	ND	ND	0
59385	2016-11-06T08:00:00	27.9	ND	ND	ND	1.42	7.36	ND	ND	ND	ND	ND	0
59386	2016-11-06T09:00:00	21.2	ND	ND	ND	1.88	15.31	ND	ND	ND	ND	ND	0
59387	2016-11-06T10:00:00	60	ND	ND	ND	1.14	30.89	ND	ND	ND	ND	ND	0
59388	2016-11-06T11:00:00	68.5	ND	ND	ND	1.59	47.31	ND	ND	ND	ND	ND	0
59389	2016-11-06T12:00:00	77.6	ND	ND	ND	1.42	52.14	ND	ND	ND	ND	ND	0
59390	2016-11-06T13:00:00	67.3	ND	ND	ND	1.17	71.51	ND	ND	ND	ND	ND	0
59391	2016-11-06T14:00:00	82	ND	ND	ND	0.98	65.60	ND	ND	ND	ND	ND	0
59392	2016-11-06T15:00:00	31.2	ND	ND	ND	1.17	45.06	ND	ND	ND	ND	ND	0
59393	2016-11-06T16:00:00	17.2	ND	ND	ND	1.18	29.81	ND	ND	ND	ND	ND	0
59394	2016-11-06T17:00:00	43.6	ND	ND	ND	1.21	20.06	ND	ND	ND	ND	ND	0
59395	2016-11-06T18:00:00	16.7	ND	ND	ND	0.92	17.41	ND	ND	ND	ND	ND	0
59396	2016-11-06T19:00:00	9	ND	ND	ND	0.96	14.64	ND	ND	ND	ND	ND	0
59397	2016-11-06T20:00:00	4.9	ND	ND	ND	0.79	6.32	ND	ND	ND	ND	ND	0
59398	2016-11-06T21:00:00	55.9	ND	ND	ND	1.34	14.15	ND	ND	ND	ND	ND	0
59399	2016-11-06T22:00:00	39.9	ND	ND	ND	1.41	11.97	ND	ND	ND	ND	ND	0
59400	2016-11-06T23:00:00	43.9	ND	ND	ND	1.45	4.61	ND	ND	ND	ND	ND	0
59401	2016-11-07T00:00:00	44.3	ND	ND	ND	0.71	4.30	ND	ND	ND	ND	ND	0
59402	2016-11-07T01:00:00	75.9	ND	ND	ND	1.39	5.00	ND	ND	ND	ND	ND	0
59403	2016-11-07T02:00:00	56.1	ND	ND	ND	1.31	4.53	ND	ND	ND	ND	ND	0
59404	2016-11-07T03:00:00	13.6	ND	ND	ND	1.69	4.08	ND	ND	ND	ND	ND	0
59405	2016-11-07T04:00:00	41.6	ND	ND	ND	2.31	3.24	ND	ND	ND	ND	ND	1.27
59406	2016-11-07T05:00:00	29.2	ND	ND	ND	2.94	4.00	ND	ND	ND	ND	ND	0
59407	2016-11-07T06:00:00	42.2	ND	ND	ND	2.02	2.71	ND	ND	ND	ND	ND	0.25
59408	2016-11-07T07:00:00	52.4	ND	ND	ND	1.12	3.71	ND	ND	ND	ND	ND	0
59409	2016-11-07T08:00:00	44.5	ND	ND	ND	1.17	5.46	ND	ND	ND	ND	ND	0
59410	2016-11-07T09:00:00	51.9	ND	ND	ND	1.25	16.84	ND	ND	ND	ND	ND	0
59411	2016-11-07T10:00:00	38.3	ND	ND	ND	1.10	35.66	ND	ND	ND	ND	ND	0
59412	2016-11-07T11:00:00	22.6	ND	ND	ND	0.98	50.39	ND	ND	ND	ND	ND	0
59413	2016-11-07T12:00:00	57.7	ND	ND	ND	1.02	60.54	ND	ND	ND	ND	ND	0
59414	2016-11-07T13:00:00	83.6	ND	ND	ND	1.34	67.62	ND	ND	ND	ND	ND	0
59415	2016-11-07T14:00:00	64.6	ND	ND	ND	1.18	48.41	ND	ND	ND	ND	ND	0
59416	2016-11-07T15:00:00	40.3	ND	ND	ND	1.03	25.14	ND	ND	ND	ND	ND	3.81
59417	2016-11-07T16:00:00	1.9	ND	ND	ND	0.88	14.21	ND	ND	ND	ND	ND	2.29
59418	2016-11-07T17:00:00	2.6	ND	ND	ND	1.20	29.91	ND	ND	ND	ND	ND	0.76
59419	2016-11-07T18:00:00	32	ND	ND	ND	0.61	19.70	ND	ND	ND	ND	ND	0.25
59420	2016-11-07T19:00:00	45.5	ND	ND	ND	0.89	7.04	ND	ND	ND	ND	ND	0
59421	2016-11-07T20:00:00	66.5	ND	ND	ND	0.10	5.30	ND	ND	ND	ND	ND	0
59422	2016-11-07T21:00:00	68.8	ND	ND	ND	0.67	5.83	ND	ND	ND	ND	ND	0
59423	2016-11-07T22:00:00	60.2	ND	ND	ND	1.46	3.06	ND	ND	ND	ND	ND	0
59424	2016-11-07T23:00:00	45.5	ND	ND	ND	0.31	4.51	ND	ND	ND	ND	ND	0
59425	2016-11-08T00:00:00	44.9	ND	ND	ND	1.30	6.04	ND	ND	ND	ND	ND	0
59426	2016-11-08T01:00:00	30.1	ND	ND	ND	1.77	7.04	ND	ND	ND	ND	ND	0
59427	2016-11-08T02:00:00	17.7	ND	ND	ND	1.70	6.87	ND	ND	ND	ND	ND	0
59428	2016-11-08T03:00:00	27.3	ND	ND	ND	1.41	8.83	ND	ND	ND	ND	ND	0
59429	2016-11-08T04:00:00	35.2	ND	ND	ND	1.84	5.51	ND	ND	ND	ND	ND	0
59430	2016-11-08T05:00:00	41.5	ND	ND	ND	1.88	4.04	ND	ND	ND	ND	ND	0
59431	2016-11-08T06:00:00	39.9	ND	ND	ND	1.45	3.32	ND	ND	ND	ND	ND	0
59432	2016-11-08T07:00:00	49.3	ND	ND	ND	1.20	4.16	ND	ND	ND	ND	ND	0
59433	2016-11-08T08:00:00	48.2	ND	ND	ND	0.79	7.08	ND	ND	ND	ND	ND	0
59434	2016-11-08T09:00:00	65.8	ND	ND	ND	0.81	15.37	ND	ND	ND	ND	ND	0
59435	2016-11-08T10:00:00	80.2	ND	ND	ND	0.86	33.79	ND	ND	ND	ND	ND	0
59436	2016-11-08T11:00:00	47.9	ND	ND	ND	1.28	49.04	ND	ND	ND	ND	ND	0
59437	2016-11-08T12:00:00	75.9	ND	ND	ND	1.02	51.65	ND	ND	ND	ND	ND	0
59438	2016-11-08T13:00:00	99.4	ND	ND	ND	0.81	72.25	ND	ND	ND	ND	ND	0
59439	2016-11-08T14:00:00	91	ND	ND	ND	0.71	69.06	ND	ND	ND	ND	ND	0
59440	2016-11-08T15:00:00	53.9	ND	ND	ND	1.05	114.27	ND	ND	ND	ND	ND	0
59441	2016-11-08T16:00:00	51.1	ND	ND	ND	0.96	70.78	ND	ND	ND	ND	ND	0
59442	2016-11-08T17:00:00	67.9	ND	ND	ND	0.33	21.13	ND	ND	ND	ND	ND	0
59443	2016-11-08T18:00:00	64.6	ND	ND	ND	0.04	12.52	ND	ND	ND	ND	ND	0
59444	2016-11-08T19:00:00	31.6	ND	ND	ND	0.15	12.42	ND	ND	ND	ND	ND	0
59445	2016-11-08T20:00:00	17.3	ND	ND	ND	0.39	10.85	ND	ND	ND	ND	ND	0
59446	2016-11-08T21:00:00	27.7	ND	ND	ND	0.40	2.88	ND	ND	ND	ND	ND	0
59447	2016-11-08T22:00:00	33.7	ND	ND	ND	0.11	2.65	ND	ND	ND	ND	ND	0
59448	2016-11-08T23:00:00	32.8	ND	ND	ND	0.63	4.59	ND	ND	ND	ND	ND	0
59449	2016-11-09T00:00:00	25.5	ND	ND	ND	1.17	4.79	ND	ND	ND	ND	ND	0
59450	2016-11-09T01:00:00	11	ND	ND	ND	1.53	8.26	ND	ND	ND	ND	ND	0
59451	2016-11-09T02:00:00	13.5	ND	ND	ND	1.52	12.50	ND	ND	ND	ND	ND	0
59452	2016-11-09T03:00:00	13.4	ND	ND	ND	2.47	3.87	ND	ND	ND	ND	ND	0
59453	2016-11-09T04:00:00	16.5	ND	ND	ND	2.48	4.18	ND	ND	ND	ND	ND	0
59454	2016-11-09T05:00:00	20.7	ND	ND	ND	1.42	3.71	ND	ND	ND	ND	ND	0
59455	2016-11-09T06:00:00	3.9	ND	ND	ND	1.12	3.24	ND	ND	ND	ND	ND	0
59456	2016-11-09T07:00:00	ND	ND	ND	ND	0.64	3.92	ND	ND	ND	ND	ND	0
59457	2016-11-09T08:00:00	ND	ND	ND	ND	0.33	6.32	ND	ND	ND	ND	ND	0
59458	2016-11-09T09:00:00	ND	ND	ND	ND	0.95	15.95	ND	ND	ND	ND	ND	0
59459	2016-11-09T10:00:00	ND	ND	ND	ND	0.57	23.96	ND	ND	ND	ND	ND	0
59460	2016-11-09T11:00:00	ND	ND	ND	ND	0.95	58.95	ND	ND	ND	ND	ND	0
59461	2016-11-09T12:00:00	ND	ND	ND	ND	0.71	75.08	ND	ND	ND	ND	ND	0
59462	2016-11-09T13:00:00	ND	ND	ND	ND	0.68	81.75	ND	ND	ND	ND	ND	0
59463	2016-11-09T14:00:00	ND	ND	ND	ND	0.96	96.18	ND	ND	ND	ND	ND	0
59464	2016-11-09T15:00:00	ND	ND	ND	ND	1.09	89.48	ND	ND	ND	ND	ND	0
59465	2016-11-09T16:00:00	ND	ND	ND	ND	0.49	29.87	ND	ND	ND	ND	ND	0
59466	2016-11-09T17:00:00	ND	ND	ND	ND	0.24	21.25	ND	ND	ND	ND	ND	0
59467	2016-11-09T18:00:00	ND	ND	ND	ND	0.17	11.72	ND	ND	ND	ND	ND	0
59468	2016-11-09T19:00:00	ND	ND	ND	ND	0.11	9.50	ND	ND	ND	ND	ND	0
59469	2016-11-09T20:00:00	ND	ND	ND	ND	0.10	4.34	ND	ND	ND	ND	ND	0
59470	2016-11-09T21:00:00	ND	ND	ND	ND	0.11	4.16	ND	ND	ND	ND	ND	0
59471	2016-11-09T22:00:00	ND	ND	ND	ND	0.40	5.16	ND	ND	ND	ND	ND	0
59472	2016-11-09T23:00:00	ND	ND	ND	ND	0.79	5.79	ND	ND	ND	ND	ND	0
59473	2016-11-10T00:00:00	ND	ND	ND	ND	1.30	4.34	ND	ND	ND	ND	ND	0
59474	2016-11-10T01:00:00	ND	ND	ND	ND	1.55	3.47	ND	ND	ND	ND	ND	0
59475	2016-11-10T02:00:00	ND	ND	ND	ND	2.23	3.41	ND	ND	ND	ND	ND	0
59476	2016-11-10T03:00:00	ND	ND	ND	ND	2.17	3.49	ND	ND	ND	ND	ND	0
59477	2016-11-10T04:00:00	ND	ND	ND	ND	1.52	2.81	ND	ND	ND	ND	ND	0
59478	2016-11-10T05:00:00	ND	ND	ND	ND	2.08	3.12	ND	ND	ND	ND	ND	0
59479	2016-11-10T06:00:00	ND	ND	ND	ND	1.39	4.45	ND	ND	ND	ND	ND	0
59480	2016-11-10T07:00:00	ND	ND	ND	ND	1.20	3.61	ND	ND	ND	ND	ND	0
59481	2016-11-10T08:00:00	ND	ND	ND	ND	0.22	5.57	ND	ND	ND	ND	ND	0
59482	2016-11-10T09:00:00	ND	ND	ND	ND	0.57	7.52	ND	ND	ND	ND	ND	0
59483	2016-11-10T10:00:00	ND	ND	ND	ND	1.49	19.23	ND	ND	ND	ND	ND	0
59484	2016-11-10T11:00:00	ND	ND	ND	ND	1.30	48.76	ND	ND	ND	ND	ND	0
59485	2016-11-10T12:00:00	ND	ND	ND	ND	0.60	33.87	ND	ND	ND	ND	ND	0
59486	2016-11-10T13:00:00	ND	ND	ND	ND	1.20	44.45	ND	ND	ND	ND	ND	0
59487	2016-11-10T14:00:00	ND	ND	ND	ND	1.17	28.73	ND	ND	ND	ND	ND	0
59488	2016-11-10T15:00:00	ND	ND	ND	ND	0.60	16.58	ND	ND	ND	ND	ND	0
59489	2016-11-10T16:00:00	ND	ND	ND	ND	0.26	7.30	ND	ND	ND	ND	ND	0
59490	2016-11-10T17:00:00	ND	ND	ND	ND	0.33	8.24	ND	ND	ND	ND	ND	0
59491	2016-11-10T18:00:00	ND	ND	ND	ND	0.63	6.93	ND	ND	ND	ND	ND	0
59492	2016-11-10T19:00:00	ND	ND	ND	ND	0.04	5.28	ND	ND	ND	ND	ND	0
59493	2016-11-10T20:00:00	ND	ND	ND	ND	0.03	4.34	ND	ND	ND	ND	ND	0
59494	2016-11-10T21:00:00	ND	ND	ND	ND	0.18	3.92	ND	ND	ND	ND	ND	0
59495	2016-11-10T22:00:00	ND	ND	ND	ND	0.14	3.67	ND	ND	ND	ND	ND	0
59496	2016-11-10T23:00:00	ND	ND	ND	ND	0.36	3.26	ND	ND	ND	ND	ND	0
59497	2016-11-11T00:00:00	ND	ND	ND	ND	1.23	2.81	ND	ND	ND	ND	ND	0
59498	2016-11-11T01:00:00	ND	ND	ND	ND	1.97	3.43	ND	ND	ND	ND	ND	0
59499	2016-11-11T02:00:00	ND	ND	ND	ND	1.81	3.85	ND	ND	ND	ND	ND	29.46
59500	2016-11-11T03:00:00	ND	ND	ND	ND	1.71	4.47	ND	ND	ND	ND	ND	11.43
59501	2016-11-11T04:00:00	ND	ND	ND	ND	1.84	4.77	ND	ND	ND	ND	ND	6.6
59502	2016-11-11T05:00:00	ND	ND	ND	ND	1.44	5.14	ND	ND	ND	ND	ND	7.62
59503	2016-11-11T06:00:00	ND	ND	ND	ND	1.31	2.63	ND	ND	ND	ND	ND	3.56
59504	2016-11-11T07:00:00	ND	ND	ND	ND	0.64	3.38	ND	ND	ND	ND	ND	0.25
59505	2016-11-11T08:00:00	ND	ND	ND	ND	1.76	4.16	ND	ND	ND	ND	ND	0
59506	2016-11-11T09:00:00	ND	ND	ND	ND	0.75	4.22	ND	ND	ND	ND	ND	0
59507	2016-11-11T10:00:00	ND	ND	ND	ND	0.50	5.71	ND	ND	ND	ND	ND	0.25
59508	2016-11-11T11:00:00	ND	ND	ND	ND	1.69	14.36	ND	ND	ND	ND	ND	0
59509	2016-11-11T12:00:00	ND	ND	ND	ND	0.95	24.92	ND	ND	ND	ND	ND	0
59510	2016-11-11T13:00:00	ND	ND	ND	ND	0.68	15.97	ND	ND	ND	ND	ND	0
59511	2016-11-11T14:00:00	ND	ND	ND	ND	0.63	10.95	ND	ND	ND	ND	ND	1.02
59512	2016-11-11T15:00:00	ND	ND	ND	ND	0.71	8.93	ND	ND	ND	ND	ND	1.52
59513	2016-11-11T16:00:00	ND	ND	ND	ND	0.36	10.75	ND	ND	ND	ND	ND	0.51
59514	2016-11-11T17:00:00	ND	ND	ND	ND	0.33	5.87	ND	ND	ND	ND	ND	0.25
59515	2016-11-11T18:00:00	ND	ND	ND	ND	0.04	6.14	ND	ND	ND	ND	ND	0
59516	2016-11-11T19:00:00	ND	ND	ND	ND	0.00	6.00	ND	ND	ND	ND	ND	0
59517	2016-11-11T20:00:00	ND	ND	ND	ND	0.00	7.34	ND	ND	ND	ND	ND	0
59518	2016-11-11T21:00:00	ND	ND	ND	ND	0.01	9.30	ND	ND	ND	ND	ND	0
59519	2016-11-11T22:00:00	ND	ND	ND	ND	0.00	5.65	ND	ND	ND	ND	ND	0
59520	2016-11-11T23:00:00	ND	ND	ND	ND	0.07	3.61	ND	ND	ND	ND	ND	0
59521	2016-11-12T00:00:00	ND	ND	ND	ND	0.42	5.24	ND	ND	ND	ND	ND	0
59522	2016-11-12T01:00:00	ND	ND	ND	ND	0.72	3.83	ND	ND	ND	ND	ND	0
59523	2016-11-12T02:00:00	ND	ND	ND	ND	0.45	3.32	ND	ND	ND	ND	ND	0
59524	2016-11-12T03:00:00	ND	ND	ND	ND	0.89	3.49	ND	ND	ND	ND	ND	0
59525	2016-11-12T04:00:00	ND	ND	ND	ND	1.35	3.30	ND	ND	ND	ND	ND	0
59526	2016-11-12T05:00:00	ND	ND	ND	ND	1.12	3.30	ND	ND	ND	ND	ND	0
59527	2016-11-12T06:00:00	ND	ND	ND	ND	1.16	4.95	ND	ND	ND	ND	ND	0
59528	2016-11-12T07:00:00	ND	ND	ND	ND	3.55	5.97	ND	ND	ND	ND	ND	0
59529	2016-11-12T08:00:00	ND	ND	ND	ND	5.24	8.63	ND	ND	ND	ND	ND	0
59530	2016-11-12T09:00:00	ND	ND	ND	ND	4.60	13.56	ND	ND	ND	ND	ND	0
59531	2016-11-12T10:00:00	ND	ND	ND	ND	3.93	25.18	ND	ND	ND	ND	ND	0
59532	2016-11-12T11:00:00	ND	ND	ND	ND	1.81	41.84	ND	ND	ND	ND	ND	0
59533	2016-11-12T12:00:00	ND	ND	ND	ND	1.18	68.78	ND	ND	ND	ND	ND	0
59534	2016-11-12T13:00:00	ND	ND	ND	ND	0.67	80.28	ND	ND	ND	ND	ND	0
59535	2016-11-12T14:00:00	ND	ND	ND	ND	1.06	83.77	ND	ND	ND	ND	ND	0
59536	2016-11-12T15:00:00	ND	ND	ND	ND	1.21	103.20	ND	ND	ND	ND	ND	0
59537	2016-11-12T16:00:00	ND	ND	ND	ND	1.32	37.21	ND	ND	ND	ND	ND	0
59538	2016-11-12T17:00:00	ND	ND	ND	ND	0.84	31.54	ND	ND	ND	ND	ND	0
59539	2016-11-12T18:00:00	ND	ND	ND	ND	0.25	8.56	ND	ND	ND	ND	ND	0
59540	2016-11-12T19:00:00	ND	ND	ND	ND	0.18	8.61	ND	ND	ND	ND	ND	0
59541	2016-11-12T20:00:00	ND	ND	ND	ND	0.36	8.22	ND	ND	ND	ND	ND	0
59542	2016-11-12T21:00:00	ND	ND	ND	ND	0.56	12.81	ND	ND	ND	ND	ND	0
59543	2016-11-12T22:00:00	ND	ND	ND	ND	0.70	13.56	ND	ND	ND	ND	ND	0
59544	2016-11-12T23:00:00	ND	ND	ND	ND	0.71	5.55	ND	ND	ND	ND	ND	0
59545	2016-11-13T00:00:00	ND	ND	ND	ND	1.02	5.40	ND	ND	ND	ND	ND	1.27
59546	2016-11-13T01:00:00	ND	ND	ND	ND	0.93	10.30	ND	ND	ND	ND	ND	0.51
59547	2016-11-13T02:00:00	ND	ND	ND	ND	1.24	10.81	ND	ND	ND	ND	ND	0.25
59548	2016-11-13T03:00:00	ND	ND	ND	ND	1.51	6.44	ND	ND	ND	ND	ND	0
59549	2016-11-13T04:00:00	ND	ND	ND	ND	1.80	9.46	ND	ND	ND	ND	ND	0.51
59550	2016-11-13T05:00:00	ND	ND	ND	ND	1.62	5.42	ND	ND	ND	ND	ND	0
59551	2016-11-13T06:00:00	ND	ND	ND	ND	1.59	3.85	ND	ND	ND	ND	ND	0
59552	2016-11-13T07:00:00	ND	ND	ND	ND	1.23	5.59	ND	ND	ND	ND	ND	0
59553	2016-11-13T08:00:00	ND	ND	ND	ND	1.83	15.11	ND	ND	ND	ND	ND	0.25
59554	2016-11-13T09:00:00	ND	ND	ND	ND	1.09	20.82	ND	ND	ND	ND	ND	0
59555	2016-11-13T10:00:00	ND	ND	ND	ND	1.46	36.25	ND	ND	ND	ND	ND	0
59556	2016-11-13T11:00:00	ND	ND	ND	ND	1.42	52.63	ND	ND	ND	ND	ND	0
59557	2016-11-13T12:00:00	ND	ND	ND	ND	1.27	54.73	ND	ND	ND	ND	ND	0
59558	2016-11-13T13:00:00	ND	ND	ND	ND	1.27	57.26	ND	ND	ND	ND	ND	0
59559	2016-11-13T14:00:00	ND	ND	ND	ND	1.10	70.86	ND	ND	ND	ND	ND	0
59560	2016-11-13T15:00:00	ND	ND	ND	ND	0.89	79.48	ND	ND	ND	ND	ND	0
59561	2016-11-13T16:00:00	ND	ND	ND	ND	0.86	84.38	ND	ND	ND	ND	ND	0
59562	2016-11-13T17:00:00	ND	ND	ND	ND	0.75	50.24	ND	ND	ND	ND	ND	0
59563	2016-11-13T18:00:00	ND	ND	ND	ND	0.98	19.17	ND	ND	ND	ND	ND	0
59564	2016-11-13T19:00:00	ND	ND	ND	ND	1.03	17.70	ND	ND	ND	ND	ND	0
59565	2016-11-13T20:00:00	ND	ND	ND	ND	0.86	19.33	ND	ND	ND	ND	ND	0
59566	2016-11-13T21:00:00	ND	ND	ND	ND	0.99	18.90	ND	ND	ND	ND	ND	0
59567	2016-11-13T22:00:00	ND	ND	ND	ND	0.82	16.25	ND	ND	ND	ND	ND	0
59568	2016-11-13T23:00:00	ND	ND	ND	ND	0.31	5.65	ND	ND	ND	ND	ND	0
59569	2016-11-14T00:00:00	ND	ND	ND	ND	0.68	6.08	ND	ND	ND	ND	ND	0
59570	2016-11-14T01:00:00	ND	ND	ND	ND	0.63	2.53	ND	ND	ND	ND	ND	0
59571	2016-11-14T02:00:00	ND	ND	ND	ND	1.59	2.59	ND	ND	ND	ND	ND	0
59572	2016-11-14T03:00:00	ND	ND	ND	ND	2.24	4.10	ND	ND	ND	ND	ND	0
59573	2016-11-14T04:00:00	ND	ND	ND	ND	2.15	4.14	ND	ND	ND	ND	ND	0
59574	2016-11-14T05:00:00	ND	ND	ND	ND	2.10	4.18	ND	ND	ND	ND	ND	0
59575	2016-11-14T06:00:00	ND	ND	ND	ND	2.01	2.49	ND	ND	ND	ND	ND	0
59576	2016-11-14T07:00:00	ND	ND	ND	ND	4.63	3.34	ND	ND	ND	ND	ND	0.25
59577	2016-11-14T08:00:00	ND	ND	ND	ND	2.08	13.15	ND	ND	ND	ND	ND	0
59578	2016-11-14T09:00:00	ND	ND	ND	ND	1.09	17.25	ND	ND	ND	ND	ND	0
59579	2016-11-14T10:00:00	ND	ND	ND	ND	1.25	30.67	ND	ND	ND	ND	ND	0
59580	2016-11-14T11:00:00	ND	ND	ND	ND	0.70	27.94	ND	ND	ND	ND	ND	0
59581	2016-11-14T12:00:00	ND	ND	ND	ND	1.30	42.94	ND	ND	ND	ND	ND	0
59582	2016-11-14T13:00:00	ND	ND	ND	ND	1.09	53.44	ND	ND	ND	ND	ND	0
59583	2016-11-14T14:00:00	ND	ND	ND	ND	1.21	41.72	ND	ND	ND	ND	ND	0
59584	2016-11-14T15:00:00	ND	ND	ND	ND	1.17	38.72	ND	ND	ND	ND	ND	0
59585	2016-11-14T16:00:00	ND	ND	ND	ND	1.44	33.64	ND	ND	ND	ND	ND	0
59586	2016-11-14T17:00:00	ND	ND	ND	ND	1.07	25.26	ND	ND	ND	ND	ND	0
59587	2016-11-14T18:00:00	ND	ND	ND	ND	0.86	21.98	ND	ND	ND	ND	ND	0
59588	2016-11-14T19:00:00	ND	ND	ND	ND	0.92	19.00	ND	ND	ND	ND	ND	0
59589	2016-11-14T20:00:00	ND	ND	ND	ND	0.99	10.36	ND	ND	ND	ND	ND	0
59590	2016-11-14T21:00:00	ND	ND	ND	ND	0.86	14.68	ND	ND	ND	ND	ND	5.59
59591	2016-11-14T22:00:00	ND	ND	ND	ND	0.99	11.11	ND	ND	ND	ND	ND	9.4
59592	2016-11-14T23:00:00	ND	ND	ND	ND	0.98	5.61	ND	ND	ND	ND	ND	8.64
59593	2016-11-15T00:00:00	ND	ND	ND	ND	1.21	2.37	ND	ND	ND	ND	ND	5.33
59594	2016-11-15T01:00:00	ND	ND	ND	ND	1.13	4.45	ND	ND	ND	ND	ND	0.25
59595	2016-11-15T02:00:00	ND	ND	ND	ND	1.53	4.57	ND	ND	ND	ND	ND	0.25
59596	2016-11-15T03:00:00	ND	ND	ND	ND	1.81	5.00	ND	ND	ND	ND	ND	0
59597	2016-11-15T04:00:00	ND	ND	ND	ND	3.29	2.75	ND	ND	ND	ND	ND	0
59598	2016-11-15T05:00:00	ND	ND	ND	ND	2.47	2.85	ND	ND	ND	ND	ND	0
59599	2016-11-15T06:00:00	ND	ND	ND	ND	1.27	2.39	ND	ND	ND	ND	ND	0
59600	2016-11-15T07:00:00	ND	ND	ND	ND	0.18	3.00	ND	ND	ND	ND	ND	0
59601	2016-11-15T08:00:00	ND	ND	ND	ND	0.10	3.91	ND	ND	ND	ND	ND	0
59602	2016-11-15T09:00:00	ND	ND	ND	ND	0.56	7.40	ND	ND	ND	ND	ND	0
59603	2016-11-15T10:00:00	ND	ND	ND	ND	0.72	22.35	ND	ND	ND	ND	ND	0
59604	2016-11-15T11:00:00	ND	ND	ND	ND	0.95	29.22	ND	ND	ND	ND	ND	0
59605	2016-11-15T12:00:00	ND	ND	ND	ND	1.07	64.23	ND	ND	ND	ND	ND	0
59606	2016-11-15T13:00:00	ND	ND	ND	ND	0.64	49.37	ND	ND	ND	ND	ND	0
59607	2016-11-15T14:00:00	ND	ND	ND	ND	0.47	26.86	ND	ND	ND	ND	ND	5.84
59608	2016-11-15T15:00:00	ND	ND	ND	ND	0.60	14.60	ND	ND	ND	ND	ND	0.76
59609	2016-11-15T16:00:00	ND	ND	ND	ND	0.49	41.43	ND	ND	ND	ND	ND	0
59610	2016-11-15T17:00:00	ND	ND	ND	ND	0.32	48.94	ND	ND	ND	ND	ND	0
59611	2016-11-15T18:00:00	ND	ND	ND	ND	0.00	33.89	ND	ND	ND	ND	ND	0
59612	2016-11-15T19:00:00	ND	ND	ND	ND	0.00	8.26	ND	ND	ND	ND	ND	0
59613	2016-11-15T20:00:00	ND	ND	ND	ND	0.10	4.67	ND	ND	ND	ND	ND	0
59614	2016-11-15T21:00:00	ND	ND	ND	ND	0.35	4.65	ND	ND	ND	ND	ND	0
59615	2016-11-15T22:00:00	ND	ND	ND	ND	0.53	4.87	ND	ND	ND	ND	ND	0
59616	2016-11-15T23:00:00	ND	ND	ND	ND	0.25	3.57	ND	ND	ND	ND	ND	0
59617	2016-11-16T00:00:00	ND	ND	ND	ND	0.81	4.38	ND	ND	ND	ND	ND	0
59618	2016-11-16T01:00:00	ND	ND	ND	ND	0.99	5.61	ND	ND	ND	ND	ND	0
59619	2016-11-16T02:00:00	ND	ND	ND	ND	1.17	4.10	ND	ND	ND	ND	ND	0
59620	2016-11-16T03:00:00	ND	ND	ND	ND	0.82	4.34	ND	ND	ND	ND	ND	0
59621	2016-11-16T04:00:00	ND	ND	ND	ND	2.04	5.00	ND	ND	ND	ND	ND	0
59622	2016-11-16T05:00:00	ND	ND	ND	ND	2.69	3.65	ND	ND	ND	ND	ND	0
59623	2016-11-16T06:00:00	ND	ND	ND	ND	1.28	3.47	ND	ND	ND	ND	ND	0
59624	2016-11-16T07:00:00	ND	ND	ND	ND	0.29	5.20	ND	ND	ND	ND	ND	0
59625	2016-11-16T08:00:00	ND	ND	ND	ND	1.39	8.58	ND	ND	ND	ND	ND	0
59626	2016-11-16T09:00:00	ND	ND	ND	ND	1.38	24.37	ND	ND	ND	ND	ND	0
59627	2016-11-16T10:00:00	ND	ND	ND	ND	1.10	29.34	ND	ND	ND	ND	ND	0
59628	2016-11-16T11:00:00	ND	ND	ND	ND	1.27	40.92	ND	ND	ND	ND	ND	0
59629	2016-11-16T12:00:00	15.7	ND	ND	ND	1.17	40.48	ND	ND	ND	ND	ND	0
59630	2016-11-16T13:00:00	ND	ND	ND	ND	0.77	53.67	ND	ND	ND	ND	ND	0
59631	2016-11-16T14:00:00	101.7	ND	ND	ND	0.95	30.00	ND	ND	ND	ND	ND	0
59632	2016-11-16T15:00:00	105.7	ND	ND	ND	0.38	17.72	ND	ND	ND	ND	ND	0
59633	2016-11-16T16:00:00	91.6	ND	ND	ND	0.39	19.72	ND	ND	ND	ND	ND	0
59634	2016-11-16T17:00:00	143.4	ND	ND	ND	0.08	9.42	ND	ND	ND	ND	ND	0
59635	2016-11-16T18:00:00	72.2	ND	ND	ND	0.13	10.87	ND	ND	ND	ND	ND	0
59636	2016-11-16T19:00:00	66.8	ND	ND	ND	0.01	4.22	ND	ND	ND	ND	ND	0
59637	2016-11-16T20:00:00	59.7	ND	ND	ND	0.00	3.14	ND	ND	ND	ND	ND	0
59638	2016-11-16T21:00:00	61.5	ND	ND	ND	0.14	4.83	ND	ND	ND	ND	ND	0
59639	2016-11-16T22:00:00	78	ND	ND	ND	0.07	4.47	ND	ND	ND	ND	ND	0
59640	2016-11-16T23:00:00	64.3	ND	ND	ND	0.10	2.75	ND	ND	ND	ND	ND	0
59641	2016-11-17T00:00:00	78.4	ND	ND	ND	0.98	2.71	ND	ND	ND	ND	ND	0
59642	2016-11-17T01:00:00	84.9	ND	ND	ND	0.79	2.71	ND	ND	ND	ND	ND	0
59643	2016-11-17T02:00:00	68.5	ND	ND	ND	1.17	2.35	ND	ND	ND	ND	ND	0
59644	2016-11-17T03:00:00	52.5	ND	ND	ND	1.90	2.24	ND	ND	ND	ND	ND	0
59645	2016-11-17T04:00:00	52.9	ND	ND	ND	1.78	2.65	ND	ND	ND	ND	ND	0
59646	2016-11-17T05:00:00	27.3	ND	ND	ND	1.70	2.92	ND	ND	ND	ND	ND	0
59647	2016-11-17T06:00:00	53.9	ND	ND	ND	1.13	2.94	ND	ND	ND	ND	ND	0
59648	2016-11-17T07:00:00	91.6	ND	ND	ND	0.39	5.14	ND	ND	ND	ND	ND	0
59649	2016-11-17T08:00:00	84.7	ND	ND	ND	0.31	5.99	ND	ND	ND	ND	ND	0
59650	2016-11-17T09:00:00	67.8	ND	ND	ND	1.23	12.46	ND	ND	ND	ND	ND	0
59651	2016-11-17T10:00:00	96.4	ND	ND	ND	1.09	38.76	ND	ND	ND	ND	ND	0
59652	2016-11-17T11:00:00	91.2	ND	ND	ND	1.21	39.40	ND	ND	ND	ND	ND	0
59653	2016-11-17T12:00:00	80.6	ND	ND	ND	0.91	54.36	ND	ND	ND	ND	ND	0
59654	2016-11-17T13:00:00	48.1	ND	ND	ND	0.78	77.32	ND	ND	ND	ND	ND	0
59655	2016-11-17T14:00:00	52.3	ND	ND	ND	1.09	104.97	ND	ND	ND	ND	ND	0
59656	2016-11-17T15:00:00	52	ND	ND	ND	0.74	28.73	ND	ND	ND	ND	ND	0
59657	2016-11-17T16:00:00	26	ND	ND	ND	0.66	18.05	ND	ND	ND	ND	ND	0
59658	2016-11-17T17:00:00	23.2	ND	ND	ND	0.43	14.05	ND	ND	ND	ND	ND	0
59659	2016-11-17T18:00:00	53.9	ND	ND	ND	0.18	9.11	ND	ND	ND	ND	ND	0
59660	2016-11-17T19:00:00	51	ND	ND	ND	0.20	7.08	ND	ND	ND	ND	ND	0
59661	2016-11-17T20:00:00	18.7	ND	ND	ND	0.38	10.42	ND	ND	ND	ND	ND	0
59662	2016-11-17T21:00:00	7.4	ND	ND	ND	0.43	7.89	ND	ND	ND	ND	ND	0
59663	2016-11-17T22:00:00	49.2	ND	ND	ND	0.01	4.91	ND	ND	ND	ND	ND	0
59664	2016-11-17T23:00:00	66.5	ND	ND	ND	0.28	3.16	ND	ND	ND	ND	ND	0
59665	2016-11-18T00:00:00	41	ND	ND	ND	0.50	2.83	ND	ND	ND	ND	ND	0
59666	2016-11-18T01:00:00	33	ND	ND	ND	1.21	2.75	ND	ND	ND	ND	ND	0
59667	2016-11-18T02:00:00	27.1	ND	ND	ND	1.80	4.04	ND	ND	ND	ND	ND	0
59668	2016-11-18T03:00:00	32.1	ND	ND	ND	2.36	3.32	ND	ND	ND	ND	ND	0
59669	2016-11-18T04:00:00	20.4	ND	ND	ND	2.17	3.16	ND	ND	ND	ND	ND	0
59670	2016-11-18T05:00:00	23.7	ND	ND	ND	2.06	2.69	ND	ND	ND	ND	ND	0
59671	2016-11-18T06:00:00	24.6	ND	ND	ND	1.98	3.36	ND	ND	ND	ND	ND	0
59672	2016-11-18T07:00:00	82.7	ND	ND	ND	0.68	5.85	ND	ND	ND	ND	ND	0
59673	2016-11-18T08:00:00	103.2	ND	ND	ND	4.07	5.95	ND	ND	ND	ND	ND	0
59674	2016-11-18T09:00:00	139.5	ND	ND	ND	2.12	9.09	ND	ND	ND	ND	ND	0
59675	2016-11-18T10:00:00	130.9	ND	ND	ND	1.55	21.08	ND	ND	ND	ND	ND	0
59676	2016-11-18T11:00:00	81.8	ND	ND	ND	1.34	40.07	ND	ND	ND	ND	ND	0
59677	2016-11-18T12:00:00	73.9	ND	ND	ND	1.03	63.03	ND	ND	ND	ND	ND	0
59678	2016-11-18T13:00:00	77.7	ND	ND	ND	0.99	58.62	ND	ND	ND	ND	ND	0
59679	2016-11-18T14:00:00	59.8	ND	ND	ND	0.77	19.41	ND	ND	ND	ND	ND	1.52
59680	2016-11-18T15:00:00	48.3	ND	ND	ND	0.36	14.01	ND	ND	ND	ND	ND	0
59681	2016-11-18T16:00:00	47.9	ND	ND	ND	0.43	13.56	ND	ND	ND	ND	ND	0
59682	2016-11-18T17:00:00	38.2	ND	ND	ND	0.26	12.50	ND	ND	ND	ND	ND	0
59683	2016-11-18T18:00:00	27.8	ND	ND	ND	0.21	11.48	ND	ND	ND	ND	ND	0
59684	2016-11-18T19:00:00	20.2	ND	ND	ND	0.33	8.58	ND	ND	ND	ND	ND	0
59685	2016-11-18T20:00:00	17.4	ND	ND	ND	0.13	6.87	ND	ND	ND	ND	ND	0
59686	2016-11-18T21:00:00	17.1	ND	ND	ND	0.32	10.52	ND	ND	ND	ND	ND	0
59687	2016-11-18T22:00:00	31.7	ND	ND	ND	0.46	8.01	ND	ND	ND	ND	ND	0
59688	2016-11-18T23:00:00	23.5	ND	ND	ND	0.88	10.50	ND	ND	ND	ND	ND	0
59689	2016-11-19T00:00:00	8.7	ND	ND	ND	0.89	7.03	ND	ND	ND	ND	ND	0
59690	2016-11-19T01:00:00	14.6	ND	ND	ND	0.93	5.12	ND	ND	ND	ND	ND	0
59691	2016-11-19T02:00:00	11.9	ND	ND	ND	1.58	2.98	ND	ND	ND	ND	ND	0
59692	2016-11-19T03:00:00	20.2	ND	ND	ND	1.16	3.96	ND	ND	ND	ND	ND	8.13
59693	2016-11-19T04:00:00	12.8	ND	ND	ND	1.77	4.47	ND	ND	ND	ND	ND	9.4
59694	2016-11-19T05:00:00	10.7	ND	ND	ND	1.49	5.67	ND	ND	ND	ND	ND	2.79
59695	2016-11-19T06:00:00	7	ND	ND	ND	1.52	3.16	ND	ND	ND	ND	ND	1.78
59696	2016-11-19T07:00:00	24.5	ND	ND	ND	1.17	4.00	ND	ND	ND	ND	ND	0.76
59697	2016-11-19T08:00:00	36.9	ND	ND	ND	1.46	3.83	ND	ND	ND	ND	ND	0
59698	2016-11-19T09:00:00	33	ND	ND	ND	1.30	5.02	ND	ND	ND	ND	ND	0
59699	2016-11-19T10:00:00	33	ND	ND	ND	0.33	7.46	ND	ND	ND	ND	ND	1.27
59700	2016-11-19T11:00:00	36	ND	ND	ND	0.24	7.48	ND	ND	ND	ND	ND	0.76
59701	2016-11-19T12:00:00	24.4	ND	ND	ND	0.75	16.37	ND	ND	ND	ND	ND	0.25
59702	2016-11-19T13:00:00	31.8	ND	ND	ND	0.52	31.44	ND	ND	ND	ND	ND	0.25
59703	2016-11-19T14:00:00	55	ND	ND	ND	0.11	33.22	ND	ND	ND	ND	ND	0
59704	2016-11-19T15:00:00	35.3	ND	ND	ND	0.18	27.00	ND	ND	ND	ND	ND	0
59705	2016-11-19T16:00:00	69.7	ND	ND	ND	0.52	36.25	ND	ND	ND	ND	ND	0
59706	2016-11-19T17:00:00	40	ND	ND	ND	0.31	20.27	ND	ND	ND	ND	ND	0
59707	2016-11-19T18:00:00	25.6	ND	ND	ND	0.03	11.40	ND	ND	ND	ND	ND	0
59708	2016-11-19T19:00:00	33.2	ND	ND	ND	0.31	7.52	ND	ND	ND	ND	ND	1.27
59709	2016-11-19T20:00:00	27.1	ND	ND	ND	0.04	6.38	ND	ND	ND	ND	ND	0
59710	2016-11-19T21:00:00	12.6	ND	ND	ND	0.04	3.08	ND	ND	ND	ND	ND	0
59711	2016-11-19T22:00:00	20.3	ND	ND	ND	0.20	2.77	ND	ND	ND	ND	ND	0
59712	2016-11-19T23:00:00	34.5	ND	ND	ND	0.28	2.81	ND	ND	ND	ND	ND	0
59713	2016-11-20T00:00:00	31.4	ND	ND	ND	0.38	3.30	ND	ND	ND	ND	ND	0
59714	2016-11-20T01:00:00	6.8	ND	ND	ND	0.42	3.04	ND	ND	ND	ND	ND	0.25
59715	2016-11-20T02:00:00	41.9	ND	ND	ND	0.77	2.61	ND	ND	ND	ND	ND	0
59716	2016-11-20T03:00:00	37.6	ND	ND	ND	0.74	2.90	ND	ND	ND	ND	ND	0
59717	2016-11-20T04:00:00	50.1	ND	ND	ND	1.23	2.87	ND	ND	ND	ND	ND	0
59718	2016-11-20T05:00:00	27.8	ND	ND	ND	1.00	2.18	ND	ND	ND	ND	ND	0
59719	2016-11-20T06:00:00	23.2	ND	ND	ND	1.30	2.47	ND	ND	ND	ND	ND	0
59720	2016-11-20T07:00:00	24.3	ND	ND	ND	0.63	3.04	ND	ND	ND	ND	ND	0
59721	2016-11-20T08:00:00	33.2	ND	ND	ND	0.84	5.61	ND	ND	ND	ND	ND	0
59722	2016-11-20T09:00:00	57.5	ND	ND	ND	1.03	19.29	ND	ND	ND	ND	ND	0
59723	2016-11-20T10:00:00	56.6	ND	ND	ND	1.49	50.67	ND	ND	ND	ND	ND	0
59724	2016-11-20T11:00:00	49.6	ND	ND	ND	1.25	81.75	ND	ND	ND	ND	ND	0
59725	2016-11-20T12:00:00	73.4	ND	ND	ND	1.12	79.22	ND	ND	ND	ND	ND	0
59726	2016-11-20T13:00:00	56.1	ND	ND	ND	0.56	85.52	ND	ND	ND	ND	ND	0
59727	2016-11-20T14:00:00	48.5	ND	ND	ND	1.02	92.02	ND	ND	ND	ND	ND	0
59728	2016-11-20T15:00:00	34.6	ND	ND	ND	0.92	21.37	ND	ND	ND	ND	ND	0
59729	2016-11-20T16:00:00	17.6	ND	ND	ND	0.79	19.68	ND	ND	ND	ND	ND	0
59730	2016-11-20T17:00:00	19.6	ND	ND	ND	0.56	20.21	ND	ND	ND	ND	ND	0
59731	2016-11-20T18:00:00	6.9	ND	ND	ND	1.03	18.35	ND	ND	ND	ND	ND	0
59732	2016-11-20T19:00:00	12.7	ND	ND	ND	0.67	10.95	ND	ND	ND	ND	ND	0
59733	2016-11-20T20:00:00	16.3	ND	ND	ND	0.74	9.69	ND	ND	ND	ND	ND	0
59734	2016-11-20T21:00:00	29.9	ND	ND	ND	0.15	5.08	ND	ND	ND	ND	ND	0
59735	2016-11-20T22:00:00	38.2	ND	ND	ND	0.54	8.48	ND	ND	ND	ND	ND	0
59736	2016-11-20T23:00:00	34.1	ND	ND	ND	0.68	13.01	ND	ND	ND	ND	ND	0
59737	2016-11-21T00:00:00	14.7	ND	ND	ND	0.70	16.80	ND	ND	ND	ND	ND	0
59738	2016-11-21T01:00:00	2.1	ND	ND	ND	1.34	17.90	ND	ND	ND	ND	ND	0
59739	2016-11-21T02:00:00	23	ND	ND	ND	1.05	17.07	ND	ND	ND	ND	ND	0
59740	2016-11-21T03:00:00	32.4	ND	ND	ND	1.51	15.33	ND	ND	ND	ND	ND	0
59741	2016-11-21T04:00:00	24.2	ND	ND	ND	1.31	15.23	ND	ND	ND	ND	ND	0
59742	2016-11-21T05:00:00	15.5	ND	ND	ND	1.39	10.75	ND	ND	ND	ND	ND	0
59743	2016-11-21T06:00:00	39.5	ND	ND	ND	1.64	6.48	ND	ND	ND	ND	ND	0
59744	2016-11-21T07:00:00	133.7	ND	ND	ND	0.63	6.73	ND	ND	ND	ND	ND	0
59745	2016-11-21T08:00:00	162.7	ND	ND	ND	2.72	10.77	ND	ND	ND	ND	ND	0
59746	2016-11-21T09:00:00	137.7	ND	ND	ND	1.78	18.78	ND	ND	ND	ND	ND	0
59747	2016-11-21T10:00:00	92.8	ND	ND	ND	1.12	27.00	ND	ND	ND	ND	ND	0
59748	2016-11-21T11:00:00	69.7	ND	ND	ND	0.96	43.78	ND	ND	ND	ND	ND	0
59749	2016-11-21T12:00:00	49	ND	ND	ND	1.05	56.97	ND	ND	ND	ND	ND	0
59750	2016-11-21T13:00:00	38.9	ND	ND	ND	0.75	68.45	ND	ND	ND	ND	ND	0
59751	2016-11-21T14:00:00	56.8	ND	ND	ND	0.61	89.70	ND	ND	ND	ND	ND	0
59752	2016-11-21T15:00:00	56.9	ND	ND	ND	1.03	86.93	ND	ND	ND	ND	ND	0
59753	2016-11-21T16:00:00	71.8	ND	ND	ND	0.89	59.32	ND	ND	ND	ND	ND	0
59754	2016-11-21T17:00:00	48.6	ND	ND	ND	0.39	17.15	ND	ND	ND	ND	ND	0
59755	2016-11-21T18:00:00	32	ND	ND	ND	0.18	10.40	ND	ND	ND	ND	ND	0
59756	2016-11-21T19:00:00	33.4	ND	ND	ND	0.01	5.48	ND	ND	ND	ND	ND	0
59757	2016-11-21T20:00:00	25.9	ND	ND	ND	0.17	4.22	ND	ND	ND	ND	ND	0
59758	2016-11-21T21:00:00	39.3	ND	ND	ND	0.07	4.87	ND	ND	ND	ND	ND	0
59759	2016-11-21T22:00:00	77.6	ND	ND	ND	0.52	7.85	ND	ND	ND	ND	ND	0
59760	2016-11-21T23:00:00	6.5	ND	ND	ND	0.93	11.68	ND	ND	ND	ND	ND	0
59761	2016-11-22T00:00:00	11.5	ND	ND	ND	1.44	8.40	ND	ND	ND	ND	ND	0
59762	2016-11-22T01:00:00	36.5	ND	ND	ND	1.32	19.39	ND	ND	ND	ND	ND	0
59763	2016-11-22T02:00:00	ND	ND	ND	ND	1.27	14.44	ND	ND	ND	ND	ND	0
59764	2016-11-22T03:00:00	ND	ND	ND	ND	1.60	23.43	ND	ND	ND	ND	ND	0
59765	2016-11-22T04:00:00	1.8	ND	ND	ND	1.77	24.47	ND	ND	ND	ND	ND	0
59766	2016-11-22T05:00:00	27.6	ND	ND	ND	1.44	16.88	ND	ND	ND	ND	ND	0
59767	2016-11-22T06:00:00	51.2	ND	ND	ND	4.31	5.00	ND	ND	ND	ND	ND	0
59768	2016-11-22T07:00:00	84.1	ND	ND	ND	1.41	7.81	ND	ND	ND	ND	ND	0
59769	2016-11-22T08:00:00	ND	ND	ND	ND	0.75	10.60	ND	ND	ND	ND	ND	0
59770	2016-11-22T09:00:00	ND	ND	ND	ND	1.60	29.67	ND	ND	ND	ND	ND	0
59771	2016-11-22T10:00:00	ND	ND	ND	ND	1.17	50.32	ND	ND	ND	ND	ND	0
59772	2016-11-22T11:00:00	166.8	ND	ND	ND	1.32	73.02	ND	ND	ND	ND	ND	0
59773	2016-11-22T12:00:00	106.7	ND	ND	ND	0.72	70.68	ND	ND	ND	ND	ND	0
59774	2016-11-22T13:00:00	79	ND	ND	ND	0.95	77.57	ND	ND	ND	ND	ND	0
59775	2016-11-22T14:00:00	77.6	ND	ND	ND	0.68	89.01	ND	ND	ND	ND	ND	0
59776	2016-11-22T15:00:00	71	ND	ND	ND	0.84	99.18	ND	ND	ND	ND	ND	0
59777	2016-11-22T16:00:00	59	ND	ND	ND	1.10	64.82	ND	ND	ND	ND	ND	0
59778	2016-11-22T17:00:00	58.4	ND	ND	ND	0.57	18.21	ND	ND	ND	ND	ND	0
59779	2016-11-22T18:00:00	33	ND	ND	ND	0.26	11.95	ND	ND	ND	ND	ND	0
59780	2016-11-22T19:00:00	42	ND	ND	ND	0.11	11.17	ND	ND	ND	ND	ND	0
59781	2016-11-22T20:00:00	49.3	ND	ND	ND	0.24	10.20	ND	ND	ND	ND	ND	0
59782	2016-11-22T21:00:00	55.8	ND	ND	ND	0.22	6.44	ND	ND	ND	ND	ND	0
59783	2016-11-22T22:00:00	47.5	ND	ND	ND	0.79	13.25	ND	ND	ND	ND	ND	0
59784	2016-11-22T23:00:00	8.7	ND	ND	ND	0.81	6.75	ND	ND	ND	ND	ND	0
59785	2016-11-23T00:00:00	54.2	ND	ND	ND	0.74	5.12	ND	ND	ND	ND	ND	0
59786	2016-11-23T01:00:00	92.5	ND	ND	ND	1.30	15.44	ND	ND	ND	ND	ND	0
59787	2016-11-23T02:00:00	8.7	ND	ND	ND	1.09	21.15	ND	ND	ND	ND	ND	0
59788	2016-11-23T03:00:00	ND	ND	ND	ND	1.51	8.05	ND	ND	ND	ND	ND	0
59789	2016-11-23T04:00:00	31	ND	ND	ND	1.48	21.25	ND	ND	ND	ND	ND	0
59790	2016-11-23T05:00:00	6.6	ND	ND	ND	1.67	15.29	ND	ND	ND	ND	ND	0
59791	2016-11-23T06:00:00	83.5	ND	ND	ND	1.10	8.89	ND	ND	ND	ND	ND	0
59792	2016-11-23T07:00:00	71.7	ND	ND	ND	1.09	7.65	ND	ND	ND	ND	ND	0
59793	2016-11-23T08:00:00	ND	ND	ND	ND	0.40	9.60	ND	ND	ND	ND	ND	0
59794	2016-11-23T09:00:00	ND	ND	ND	ND	0.79	17.15	ND	ND	ND	ND	ND	0
59795	2016-11-23T10:00:00	142.7	ND	ND	ND	1.16	46.08	ND	ND	ND	ND	ND	0
59796	2016-11-23T11:00:00	105.2	ND	ND	ND	0.96	66.33	ND	ND	ND	ND	ND	0
59797	2016-11-23T12:00:00	93.8	ND	ND	ND	0.82	82.44	ND	ND	ND	ND	ND	0
59798	2016-11-23T13:00:00	76.1	ND	ND	ND	0.89	80.05	ND	ND	ND	ND	ND	0
59799	2016-11-23T14:00:00	71.4	ND	ND	ND	0.70	88.07	ND	ND	ND	ND	ND	0
59800	2016-11-23T15:00:00	56.2	ND	ND	ND	0.85	54.48	ND	ND	ND	ND	ND	0
59801	2016-11-23T16:00:00	49.4	ND	ND	ND	0.74	22.92	ND	ND	ND	ND	ND	0
59802	2016-11-23T17:00:00	56.1	ND	ND	ND	0.33	16.11	ND	ND	ND	ND	ND	0
59803	2016-11-23T18:00:00	54.4	ND	ND	ND	0.13	10.66	ND	ND	ND	ND	ND	0
59804	2016-11-23T19:00:00	47.3	ND	ND	ND	0.35	8.03	ND	ND	ND	ND	ND	0
59805	2016-11-23T20:00:00	26.3	ND	ND	ND	0.11	7.24	ND	ND	ND	ND	ND	0
59806	2016-11-23T21:00:00	32.8	ND	ND	ND	0.46	4.14	ND	ND	ND	ND	ND	0
59807	2016-11-23T22:00:00	70.3	ND	ND	ND	0.25	4.18	ND	ND	ND	ND	ND	0
59808	2016-11-23T23:00:00	95.3	ND	ND	ND	0.42	4.91	ND	ND	ND	ND	ND	0
59809	2016-11-24T00:00:00	75.5	ND	ND	ND	0.68	4.57	ND	ND	ND	ND	ND	0
59810	2016-11-24T01:00:00	70.9	ND	ND	ND	1.60	4.08	ND	ND	ND	ND	ND	0
59811	2016-11-24T02:00:00	48.5	ND	ND	ND	2.13	3.94	ND	ND	ND	ND	ND	0
59812	2016-11-24T03:00:00	62	ND	ND	ND	2.45	6.50	ND	ND	ND	ND	ND	0
59813	2016-11-24T04:00:00	64.9	ND	ND	ND	2.15	4.02	ND	ND	ND	ND	ND	0
59814	2016-11-24T05:00:00	50.1	ND	ND	ND	1.44	6.59	ND	ND	ND	ND	ND	0
59815	2016-11-24T06:00:00	51.9	ND	ND	ND	2.01	5.67	ND	ND	ND	ND	ND	0
59816	2016-11-24T07:00:00	100.4	ND	ND	ND	0.46	6.55	ND	ND	ND	ND	ND	0
59817	2016-11-24T08:00:00	109.6	ND	ND	ND	1.05	10.15	ND	ND	ND	ND	ND	0
59818	2016-11-24T09:00:00	174.2	ND	ND	ND	0.75	21.23	ND	ND	ND	ND	ND	0
59819	2016-11-24T10:00:00	128.7	ND	ND	ND	1.00	41.62	ND	ND	ND	ND	ND	0
59820	2016-11-24T11:00:00	82	ND	ND	ND	1.18	58.18	ND	ND	ND	ND	ND	0
59821	2016-11-24T12:00:00	72.8	ND	ND	ND	1.00	73.59	ND	ND	ND	ND	ND	0
59822	2016-11-24T13:00:00	75	ND	ND	ND	1.39	59.30	ND	ND	ND	ND	ND	0
59823	2016-11-24T14:00:00	54.6	ND	ND	ND	0.72	33.77	ND	ND	ND	ND	ND	0
59824	2016-11-24T15:00:00	38.1	ND	ND	ND	0.59	22.04	ND	ND	ND	ND	ND	0
59825	2016-11-24T16:00:00	34.6	ND	ND	ND	0.50	15.90	ND	ND	ND	ND	ND	0
59826	2016-11-24T17:00:00	46.4	ND	ND	ND	0.18	12.52	ND	ND	ND	ND	ND	0
59827	2016-11-24T18:00:00	40.7	ND	ND	ND	0.31	9.71	ND	ND	ND	ND	ND	0
59828	2016-11-24T19:00:00	28.6	ND	ND	ND	0.33	9.95	ND	ND	ND	ND	ND	0
59829	2016-11-24T20:00:00	22.6	ND	ND	ND	0.17	8.54	ND	ND	ND	ND	ND	0
59830	2016-11-24T21:00:00	49.4	ND	ND	ND	0.71	3.47	ND	ND	ND	ND	ND	0
59831	2016-11-24T22:00:00	66.9	ND	ND	ND	0.28	3.49	ND	ND	ND	ND	ND	0
59832	2016-11-24T23:00:00	45.6	ND	ND	ND	0.91	4.45	ND	ND	ND	ND	ND	0
59833	2016-11-25T00:00:00	50	ND	ND	ND	1.13	3.30	ND	ND	ND	ND	ND	0
59834	2016-11-25T01:00:00	51.5	ND	ND	ND	1.23	2.92	ND	ND	ND	ND	ND	0
59835	2016-11-25T02:00:00	41.4	ND	ND	ND	1.63	5.71	ND	ND	ND	ND	ND	0
59836	2016-11-25T03:00:00	24	ND	ND	ND	1.38	6.65	ND	ND	ND	ND	ND	0
59837	2016-11-25T04:00:00	17.1	ND	ND	ND	1.23	3.92	ND	ND	ND	ND	ND	0
59838	2016-11-25T05:00:00	24.5	ND	ND	ND	1.48	2.20	ND	ND	ND	ND	ND	0
59839	2016-11-25T06:00:00	13.1	ND	ND	ND	1.13	2.83	ND	ND	ND	ND	ND	0
59840	2016-11-25T07:00:00	61.3	ND	ND	ND	0.14	4.51	ND	ND	ND	ND	ND	0
59841	2016-11-25T08:00:00	90.1	ND	ND	ND	0.24	5.67	ND	ND	ND	ND	ND	0
59842	2016-11-25T09:00:00	86.4	ND	ND	ND	0.47	15.62	ND	ND	ND	ND	ND	0
59843	2016-11-25T10:00:00	115.7	ND	ND	ND	0.99	25.39	ND	ND	ND	ND	ND	0
59844	2016-11-25T11:00:00	70.9	ND	ND	ND	0.74	23.80	ND	ND	ND	ND	ND	0
59845	2016-11-25T12:00:00	53.3	ND	ND	ND	0.61	24.35	ND	ND	ND	ND	ND	0
59846	2016-11-25T13:00:00	80.9	ND	ND	ND	1.39	34.15	ND	ND	ND	ND	ND	0
59847	2016-11-25T14:00:00	36.3	ND	ND	ND	1.37	36.89	ND	ND	ND	ND	ND	0
59848	2016-11-25T15:00:00	48.7	ND	ND	ND	0.43	20.19	ND	ND	ND	ND	ND	2.54
59849	2016-11-25T16:00:00	47.8	ND	ND	ND	0.29	12.46	ND	ND	ND	ND	ND	0
59850	2016-11-25T17:00:00	40.4	ND	ND	ND	0.36	9.87	ND	ND	ND	ND	ND	0
59851	2016-11-25T18:00:00	35.5	ND	ND	ND	0.18	7.61	ND	ND	ND	ND	ND	0
59852	2016-11-25T19:00:00	32	ND	ND	ND	0.04	6.71	ND	ND	ND	ND	ND	0
59853	2016-11-25T20:00:00	29.1	ND	ND	ND	0.21	3.49	ND	ND	ND	ND	ND	1.27
59854	2016-11-25T21:00:00	37	ND	ND	ND	0.77	2.71	ND	ND	ND	ND	ND	8.89
59855	2016-11-25T22:00:00	19.8	ND	ND	ND	0.91	2.83	ND	ND	ND	ND	ND	8.89
59856	2016-11-25T23:00:00	7.6	ND	ND	ND	0.91	3.04	ND	ND	ND	ND	ND	4.83
59857	2016-11-26T00:00:00	4.7	ND	ND	ND	0.72	2.96	ND	ND	ND	ND	ND	3.05
59858	2016-11-26T01:00:00	29.9	ND	ND	ND	0.72	3.49	ND	ND	ND	ND	ND	2.03
59859	2016-11-26T02:00:00	11	ND	ND	ND	1.10	4.79	ND	ND	ND	ND	ND	1.52
59860	2016-11-26T03:00:00	6.6	ND	ND	ND	1.14	3.87	ND	ND	ND	ND	ND	1.02
59861	2016-11-26T04:00:00	8.5	ND	ND	ND	1.16	3.73	ND	ND	ND	ND	ND	0
59862	2016-11-26T05:00:00	10.1	ND	ND	ND	1.35	2.61	ND	ND	ND	ND	ND	0
59863	2016-11-26T06:00:00	31.8	ND	ND	ND	1.02	3.32	ND	ND	ND	ND	ND	0
59864	2016-11-26T07:00:00	54.4	ND	ND	ND	0.25	3.91	ND	ND	ND	ND	ND	0
59865	2016-11-26T08:00:00	72.1	ND	ND	ND	0.00	5.00	ND	ND	ND	ND	ND	0
59866	2016-11-26T09:00:00	79.5	ND	ND	ND	0.04	4.96	ND	ND	ND	ND	ND	0
59867	2016-11-26T10:00:00	63.4	ND	ND	ND	0.52	12.64	ND	ND	ND	ND	ND	0.25
59868	2016-11-26T11:00:00	76	ND	ND	ND	0.52	27.06	ND	ND	ND	ND	ND	0
59869	2016-11-26T12:00:00	73.4	ND	ND	ND	0.85	54.51	ND	ND	ND	ND	ND	0
59870	2016-11-26T13:00:00	59	ND	ND	ND	0.91	69.72	ND	ND	ND	ND	ND	0
59871	2016-11-26T14:00:00	22.9	ND	ND	ND	0.77	44.21	ND	ND	ND	ND	ND	0
59872	2016-11-26T15:00:00	45.4	ND	ND	ND	0.74	25.02	ND	ND	ND	ND	ND	0
59873	2016-11-26T16:00:00	35.6	ND	ND	ND	0.53	19.29	ND	ND	ND	ND	ND	0
59874	2016-11-26T17:00:00	21.7	ND	ND	ND	0.33	14.76	ND	ND	ND	ND	ND	0
59875	2016-11-26T18:00:00	15	ND	ND	ND	0.47	16.03	ND	ND	ND	ND	ND	0
59876	2016-11-26T19:00:00	22.4	ND	ND	ND	0.72	18.15	ND	ND	ND	ND	ND	0
59877	2016-11-26T20:00:00	21.3	ND	ND	ND	0.13	10.03	ND	ND	ND	ND	ND	0
59878	2016-11-26T21:00:00	29.3	ND	ND	ND	0.13	4.34	ND	ND	ND	ND	ND	0
59879	2016-11-26T22:00:00	45.6	ND	ND	ND	0.15	5.83	ND	ND	ND	ND	ND	0
59880	2016-11-26T23:00:00	22.4	ND	ND	ND	0.01	4.08	ND	ND	ND	ND	ND	0
59881	2016-11-27T00:00:00	55.5	ND	ND	ND	0.06	3.02	ND	ND	ND	ND	ND	0
59882	2016-11-27T01:00:00	44	ND	ND	ND	0.72	3.00	ND	ND	ND	ND	ND	0
59883	2016-11-27T02:00:00	64.2	ND	ND	ND	0.89	2.71	ND	ND	ND	ND	ND	0
59884	2016-11-27T03:00:00	62.5	ND	ND	ND	0.56	2.81	ND	ND	ND	ND	ND	0
59885	2016-11-27T04:00:00	50.3	ND	ND	ND	1.06	4.69	ND	ND	ND	ND	ND	0
59886	2016-11-27T05:00:00	16.6	ND	ND	ND	0.98	4.24	ND	ND	ND	ND	ND	0
59887	2016-11-27T06:00:00	51.8	ND	ND	ND	1.88	3.69	ND	ND	ND	ND	ND	0
59888	2016-11-27T07:00:00	69.5	ND	ND	ND	0.82	2.96	ND	ND	ND	ND	ND	0
59889	2016-11-27T08:00:00	92.2	ND	ND	ND	1.83	12.11	ND	ND	ND	ND	ND	0
59890	2016-11-27T09:00:00	92.6	ND	ND	ND	2.17	16.58	ND	ND	ND	ND	ND	0
59891	2016-11-27T10:00:00	67.3	ND	ND	ND	1.51	43.86	ND	ND	ND	ND	ND	0
59892	2016-11-27T11:00:00	72.3	ND	ND	ND	1.83	63.13	ND	ND	ND	ND	ND	0
59893	2016-11-27T12:00:00	40.8	ND	ND	ND	1.10	74.77	ND	ND	ND	ND	ND	0
59894	2016-11-27T13:00:00	63.7	ND	ND	ND	0.85	70.65	ND	ND	ND	ND	ND	0
59895	2016-11-27T14:00:00	86.8	ND	ND	ND	0.89	36.40	ND	ND	ND	ND	ND	0
59896	2016-11-27T15:00:00	48	ND	ND	ND	1.02	21.74	ND	ND	ND	ND	ND	0
59897	2016-11-27T16:00:00	10.5	ND	ND	ND	0.99	24.04	ND	ND	ND	ND	ND	0
59898	2016-11-27T17:00:00	30.7	ND	ND	ND	1.17	23.78	ND	ND	ND	ND	ND	0
59899	2016-11-27T18:00:00	28	ND	ND	ND	0.70	18.31	ND	ND	ND	ND	ND	0
59900	2016-11-27T19:00:00	35.2	ND	ND	ND	0.70	14.93	ND	ND	ND	ND	ND	0
59901	2016-11-27T20:00:00	25.6	ND	ND	ND	0.32	6.52	ND	ND	ND	ND	ND	0
59902	2016-11-27T21:00:00	32.9	ND	ND	ND	0.49	4.47	ND	ND	ND	ND	ND	0
59903	2016-11-27T22:00:00	27.2	ND	ND	ND	0.40	6.55	ND	ND	ND	ND	ND	0
59904	2016-11-27T23:00:00	10.5	ND	ND	ND	0.25	4.02	ND	ND	ND	ND	ND	0
59905	2016-11-28T00:00:00	23.1	ND	ND	ND	0.78	2.28	ND	ND	ND	ND	ND	0
59906	2016-11-28T01:00:00	4.7	ND	ND	ND	1.49	2.65	ND	ND	ND	ND	ND	0
59907	2016-11-28T02:00:00	29.3	ND	ND	ND	1.51	2.73	ND	ND	ND	ND	ND	0
59908	2016-11-28T03:00:00	49.2	ND	ND	ND	1.62	4.14	ND	ND	ND	ND	ND	0
59909	2016-11-28T04:00:00	26.1	ND	ND	ND	1.80	2.90	ND	ND	ND	ND	ND	0
59910	2016-11-28T05:00:00	16.2	ND	ND	ND	1.55	3.06	ND	ND	ND	ND	ND	0
59911	2016-11-28T06:00:00	54.2	ND	ND	ND	2.09	3.79	ND	ND	ND	ND	ND	0
59912	2016-11-28T07:00:00	90	ND	ND	ND	0.92	5.06	ND	ND	ND	ND	ND	0
59913	2016-11-28T08:00:00	106.4	ND	ND	ND	0.15	6.14	ND	ND	ND	ND	ND	0
59914	2016-11-28T09:00:00	58.4	ND	ND	ND	1.13	13.52	ND	ND	ND	ND	ND	0
59915	2016-11-28T10:00:00	69.5	ND	ND	ND	0.70	23.82	ND	ND	ND	ND	ND	0
59916	2016-11-28T11:00:00	57.7	ND	ND	ND	0.82	35.13	ND	ND	ND	ND	ND	0
59917	2016-11-28T12:00:00	86.4	ND	ND	ND	0.84	66.50	ND	ND	ND	ND	ND	0
59918	2016-11-28T13:00:00	65.9	ND	ND	ND	0.82	89.09	ND	ND	ND	ND	ND	0
59919	2016-11-28T14:00:00	82.4	ND	ND	ND	0.70	100.34	ND	ND	ND	ND	ND	0
59920	2016-11-28T15:00:00	100.7	ND	ND	ND	0.68	90.41	ND	ND	ND	ND	ND	0
59921	2016-11-28T16:00:00	68.2	ND	ND	ND	0.61	27.73	ND	ND	ND	ND	ND	0
59922	2016-11-28T17:00:00	62	ND	ND	ND	0.56	19.51	ND	ND	ND	ND	ND	0
59923	2016-11-28T18:00:00	59.1	ND	ND	ND	0.59	15.86	ND	ND	ND	ND	ND	0
59924	2016-11-28T19:00:00	27.3	ND	ND	ND	0.31	10.34	ND	ND	ND	ND	ND	0
59925	2016-11-28T20:00:00	19.2	ND	ND	ND	0.32	6.99	ND	ND	ND	ND	ND	0
59926	2016-11-28T21:00:00	0.3	ND	ND	ND	0.49	2.87	ND	ND	ND	ND	ND	0
59927	2016-11-28T22:00:00	3	ND	ND	ND	1.21	5.55	ND	ND	ND	ND	ND	0
59928	2016-11-28T23:00:00	10.9	ND	ND	ND	0.85	6.14	ND	ND	ND	ND	ND	2.29
59929	2016-11-29T00:00:00	2	ND	ND	ND	1.35	5.34	ND	ND	ND	ND	ND	0.25
59930	2016-11-29T01:00:00	22.3	ND	ND	ND	1.38	5.67	ND	ND	ND	ND	ND	0
59931	2016-11-29T02:00:00	25.5	ND	ND	ND	1.00	4.75	ND	ND	ND	ND	ND	0.25
59932	2016-11-29T03:00:00	16.9	ND	ND	ND	1.78	3.92	ND	ND	ND	ND	ND	0
59933	2016-11-29T04:00:00	24.8	ND	ND	ND	2.24	2.71	ND	ND	ND	ND	ND	0
59934	2016-11-29T05:00:00	32.8	ND	ND	ND	2.06	2.73	ND	ND	ND	ND	ND	0
59935	2016-11-29T06:00:00	47.7	ND	ND	ND	1.20	3.61	ND	ND	ND	ND	ND	0
59936	2016-11-29T07:00:00	90.5	ND	ND	ND	0.78	3.67	ND	ND	ND	ND	ND	0
59937	2016-11-29T08:00:00	74.6	ND	ND	ND	1.00	5.67	ND	ND	ND	ND	ND	0
59938	2016-11-29T09:00:00	97.5	ND	ND	ND	0.82	7.69	ND	ND	ND	ND	ND	0
59939	2016-11-29T10:00:00	144	ND	ND	ND	0.66	12.01	ND	ND	ND	ND	ND	0
59940	2016-11-29T11:00:00	69	ND	ND	ND	0.77	25.75	ND	ND	ND	ND	ND	0
59941	2016-11-29T12:00:00	48.4	ND	ND	ND	1.64	52.24	ND	ND	ND	ND	ND	0
59942	2016-11-29T13:00:00	190.4	ND	ND	ND	1.18	60.42	ND	ND	ND	ND	ND	0
59943	2016-11-29T14:00:00	80.9	ND	ND	ND	0.66	60.97	ND	ND	ND	ND	ND	0
59944	2016-11-29T15:00:00	43.2	ND	ND	ND	1.00	54.16	ND	ND	ND	ND	ND	0
59945	2016-11-29T16:00:00	24.2	ND	ND	ND	0.57	61.36	ND	ND	ND	ND	ND	0
59946	2016-11-29T17:00:00	135.6	ND	ND	ND	0.31	19.02	ND	ND	ND	ND	ND	0
59947	2016-11-29T18:00:00	52.2	ND	ND	ND	0.03	10.50	ND	ND	ND	ND	ND	0
59948	2016-11-29T19:00:00	46.5	ND	ND	ND	0.03	8.12	ND	ND	ND	ND	ND	0
59949	2016-11-29T20:00:00	41.4	ND	ND	ND	0.00	7.67	ND	ND	ND	ND	ND	0
59950	2016-11-29T21:00:00	45.8	ND	ND	ND	0.43	6.20	ND	ND	ND	ND	ND	0
59951	2016-11-29T22:00:00	32.3	ND	ND	ND	0.92	5.04	ND	ND	ND	ND	ND	0
59952	2016-11-29T23:00:00	57	ND	ND	ND	0.86	4.57	ND	ND	ND	ND	ND	0
59953	2016-11-30T00:00:00	54	ND	ND	ND	1.05	5.08	ND	ND	ND	ND	ND	0
59954	2016-11-30T01:00:00	17	ND	ND	ND	1.87	4.71	ND	ND	ND	ND	ND	0
59955	2016-11-30T02:00:00	36	ND	ND	ND	1.42	9.32	ND	ND	ND	ND	ND	0
59956	2016-11-30T03:00:00	46.7	ND	ND	ND	1.76	9.22	ND	ND	ND	ND	ND	0
59957	2016-11-30T04:00:00	51.3	ND	ND	ND	3.07	3.89	ND	ND	ND	ND	ND	0
59958	2016-11-30T05:00:00	65	ND	ND	ND	2.77	4.06	ND	ND	ND	ND	ND	0
59959	2016-11-30T06:00:00	20.4	ND	ND	ND	1.78	5.77	ND	ND	ND	ND	ND	0
59960	2016-11-30T07:00:00	110.8	ND	ND	ND	0.79	7.14	ND	ND	ND	ND	ND	0
59961	2016-11-30T08:00:00	104.1	ND	ND	ND	1.27	9.46	ND	ND	ND	ND	ND	0
59962	2016-11-30T09:00:00	129.3	ND	ND	ND	1.23	14.76	ND	ND	ND	ND	ND	0
59963	2016-11-30T10:00:00	ND	ND	ND	ND	ND	ND	ND	ND	ND	ND	ND	ND
59964	2016-11-30T11:00:00	ND	ND	ND	ND	ND	ND	ND	ND	ND	ND	ND	ND
59965	2016-11-30T12:00:00	ND	ND	ND	ND	ND	ND	ND	ND	ND	ND	ND	ND
59966	2016-11-30T13:00:00	ND	ND	ND	ND	ND	ND	ND	ND	ND	ND	ND	ND
59967	2016-11-30T14:00:00	ND	ND	ND	ND	ND	ND	ND	ND	ND	ND	ND	ND
59968	2016-11-30T15:00:00	32.6	ND	ND	ND	0.89	69.61	ND	ND	ND	ND	ND	0
59969	2016-11-30T16:00:00	148.2	ND	ND	ND	0.67	40.15	ND	ND	ND	ND	ND	0
59970	2016-11-30T17:00:00	83.9	ND	ND	ND	0.53	19.13	ND	ND	ND	ND	ND	0
59971	2016-11-30T18:00:00	22.1	ND	ND	ND	0.18	8.44	ND	ND	ND	ND	ND	0
59972	2016-11-30T19:00:00	24.5	ND	ND	ND	0.39	7.91	ND	ND	ND	ND	ND	0
59973	2016-11-30T20:00:00	30.5	ND	ND	ND	0.67	9.32	ND	ND	ND	ND	ND	0
59974	2016-11-30T21:00:00	36.9	ND	ND	ND	0.50	5.61	ND	ND	ND	ND	ND	0
59975	2016-11-30T22:00:00	20.8	ND	ND	ND	0.74	9.73	ND	ND	ND	ND	ND	0
59976	2016-11-30T23:00:00	16.6	ND	ND	ND	1.21	5.55	ND	ND	ND	ND	ND	0
59977	2016-12-01T00:00:00	26.3	ND	ND	ND	1.53	4.32	ND	ND	ND	ND	ND	0
59978	2016-12-01T01:00:00	35.6	ND	ND	ND	1.37	4.32	ND	ND	ND	ND	ND	0
59979	2016-12-01T02:00:00	48.4	ND	ND	ND	1.91	3.65	ND	ND	ND	ND	ND	0
59980	2016-12-01T03:00:00	31.6	ND	ND	ND	1.64	3.91	ND	ND	ND	ND	ND	0
59981	2016-12-01T04:00:00	43	ND	ND	ND	1.76	6.87	ND	ND	ND	ND	ND	0
59982	2016-12-01T05:00:00	50.4	ND	ND	ND	1.80	4.53	ND	ND	ND	ND	ND	0
59983	2016-12-01T06:00:00	66.5	ND	ND	ND	1.07	5.73	ND	ND	ND	ND	ND	0
59984	2016-12-01T07:00:00	83.8	ND	ND	ND	0.50	4.16	ND	ND	ND	ND	ND	0
59985	2016-12-01T08:00:00	62.6	ND	ND	ND	0.79	4.24	ND	ND	ND	ND	ND	0
59986	2016-12-01T09:00:00	66.6	ND	ND	ND	1.30	8.36	ND	ND	ND	ND	ND	0
59987	2016-12-01T10:00:00	85.7	ND	ND	ND	2.29	16.66	ND	ND	ND	ND	ND	0
59988	2016-12-01T11:00:00	61.3	ND	ND	ND	0.89	24.53	ND	ND	ND	ND	ND	0
59989	2016-12-01T12:00:00	53.5	ND	ND	ND	0.66	28.65	ND	ND	ND	ND	ND	0
59990	2016-12-01T13:00:00	65.2	ND	ND	ND	0.82	23.53	ND	ND	ND	ND	ND	5.33
59991	2016-12-01T14:00:00	67.6	ND	ND	ND	0.95	14.87	ND	ND	ND	ND	ND	9.4
59992	2016-12-01T15:00:00	0.9	ND	ND	ND	0.28	10.54	ND	ND	ND	ND	ND	0
59993	2016-12-01T16:00:00	10.2	ND	ND	ND	0.32	12.76	ND	ND	ND	ND	ND	0
59994	2016-12-01T17:00:00	56.3	ND	ND	ND	0.06	9.30	ND	ND	ND	ND	ND	0
59995	2016-12-01T18:00:00	105.1	ND	ND	ND	0.08	10.11	ND	ND	ND	ND	ND	0
59996	2016-12-01T19:00:00	112.1	ND	ND	ND	0.03	6.28	ND	ND	ND	ND	ND	0
59997	2016-12-01T20:00:00	90.8	ND	ND	ND	0.04	5.24	ND	ND	ND	ND	ND	0
59998	2016-12-01T21:00:00	104.6	ND	ND	ND	0.00	5.36	ND	ND	ND	ND	ND	0
59999	2016-12-01T22:00:00	96	ND	ND	ND	0.06	4.28	ND	ND	ND	ND	ND	0
60000	2016-12-01T23:00:00	65.5	ND	ND	ND	0.21	3.79	ND	ND	ND	ND	ND	0
60001	2016-12-02T00:00:00	68.6	ND	ND	ND	0.25	5.30	ND	ND	ND	ND	ND	0
60002	2016-12-02T01:00:00	68.9	ND	ND	ND	1.60	4.04	ND	ND	ND	ND	ND	0
60003	2016-12-02T02:00:00	75.7	ND	ND	ND	2.43	5.67	ND	ND	ND	ND	ND	0
60004	2016-12-02T03:00:00	62.4	ND	ND	ND	2.51	3.41	ND	ND	ND	ND	ND	0
60005	2016-12-02T04:00:00	38.9	ND	ND	ND	2.72	4.12	ND	ND	ND	ND	ND	0
60006	2016-12-02T05:00:00	41.3	ND	ND	ND	2.98	4.53	ND	ND	ND	ND	ND	1.27
60007	2016-12-02T06:00:00	37.6	ND	ND	ND	3.37	5.65	ND	ND	ND	ND	ND	0
60008	2016-12-02T07:00:00	79.7	ND	ND	ND	0.67	9.81	ND	ND	ND	ND	ND	0
60009	2016-12-02T08:00:00	67	ND	ND	ND	0.40	7.71	ND	ND	ND	ND	ND	0
60010	2016-12-02T09:00:00	94.1	ND	ND	ND	0.20	7.73	ND	ND	ND	ND	ND	0
60011	2016-12-02T10:00:00	100.8	ND	ND	ND	1.02	21.31	ND	ND	ND	ND	ND	0
60012	2016-12-02T11:00:00	113.6	ND	ND	ND	1.38	39.44	ND	ND	ND	ND	ND	0
60013	2016-12-02T12:00:00	103.8	ND	ND	ND	0.85	55.02	ND	ND	ND	ND	ND	0
60014	2016-12-02T13:00:00	89.8	ND	ND	ND	1.34	47.18	ND	ND	ND	ND	ND	0
60015	2016-12-02T14:00:00	63.5	ND	ND	ND	1.20	29.14	ND	ND	ND	ND	ND	0
60016	2016-12-02T15:00:00	38.1	ND	ND	ND	0.78	22.78	ND	ND	ND	ND	ND	0
60017	2016-12-02T16:00:00	48.6	ND	ND	ND	0.60	16.46	ND	ND	ND	ND	ND	0
60018	2016-12-02T17:00:00	36.1	ND	ND	ND	0.25	9.67	ND	ND	ND	ND	ND	0
60019	2016-12-02T18:00:00	14.3	ND	ND	ND	0.31	8.07	ND	ND	ND	ND	ND	0
60020	2016-12-02T19:00:00	15.5	ND	ND	ND	0.14	6.91	ND	ND	ND	ND	ND	0
60021	2016-12-02T20:00:00	16.4	ND	ND	ND	0.04	3.55	ND	ND	ND	ND	ND	0
60022	2016-12-02T21:00:00	24.5	ND	ND	ND	0.01	3.24	ND	ND	ND	ND	ND	0
60023	2016-12-02T22:00:00	46.9	ND	ND	ND	0.35	3.77	ND	ND	ND	ND	ND	0
60024	2016-12-02T23:00:00	71.2	ND	ND	ND	0.13	2.90	ND	ND	ND	ND	ND	0
60025	2016-12-03T00:00:00	44.7	ND	ND	ND	0.40	4.10	ND	ND	ND	ND	ND	0
60026	2016-12-03T01:00:00	49.9	ND	ND	ND	0.89	4.02	ND	ND	ND	ND	ND	0
60027	2016-12-03T02:00:00	56.4	ND	ND	ND	1.17	5.08	ND	ND	ND	ND	ND	0
60028	2016-12-03T03:00:00	38.8	ND	ND	ND	1.85	4.71	ND	ND	ND	ND	ND	0
60029	2016-12-03T04:00:00	25.1	ND	ND	ND	1.80	5.26	ND	ND	ND	ND	ND	0
60030	2016-12-03T05:00:00	14.1	ND	ND	ND	1.27	5.12	ND	ND	ND	ND	ND	0.76
60031	2016-12-03T06:00:00	10.4	ND	ND	ND	0.45	3.45	ND	ND	ND	ND	ND	0.25
60032	2016-12-03T07:00:00	35.9	ND	ND	ND	0.33	4.59	ND	ND	ND	ND	ND	1.02
60033	2016-12-03T08:00:00	41.5	ND	ND	ND	0.36	4.40	ND	ND	ND	ND	ND	1.27
60034	2016-12-03T09:00:00	40.7	ND	ND	ND	0.92	5.00	ND	ND	ND	ND	ND	3.05
60035	2016-12-03T10:00:00	36.7	ND	ND	ND	0.60	4.59	ND	ND	ND	ND	ND	1.02
60036	2016-12-03T11:00:00	49.4	ND	ND	ND	0.45	4.63	ND	ND	ND	ND	ND	6.6
60037	2016-12-03T12:00:00	37.9	ND	ND	ND	1.34	4.91	ND	ND	ND	ND	ND	4.57
60038	2016-12-03T13:00:00	17.5	ND	ND	ND	0.93	5.51	ND	ND	ND	ND	ND	0.51
60039	2016-12-03T14:00:00	11	ND	ND	ND	1.32	9.20	ND	ND	ND	ND	ND	0
60040	2016-12-03T15:00:00	38	ND	ND	ND	0.96	15.07	ND	ND	ND	ND	ND	0
60041	2016-12-03T16:00:00	51	ND	ND	ND	1.09	22.47	ND	ND	ND	ND	ND	0
60042	2016-12-03T17:00:00	68.6	ND	ND	ND	0.53	17.29	ND	ND	ND	ND	ND	0
60043	2016-12-03T18:00:00	71.5	ND	ND	ND	0.14	8.54	ND	ND	ND	ND	ND	0
60044	2016-12-03T19:00:00	53.3	ND	ND	ND	0.50	6.69	ND	ND	ND	ND	ND	0
60045	2016-12-03T20:00:00	68.9	ND	ND	ND	0.03	4.73	ND	ND	ND	ND	ND	0
60046	2016-12-03T21:00:00	84.4	ND	ND	ND	0.00	5.34	ND	ND	ND	ND	ND	0
60047	2016-12-03T22:00:00	80.1	ND	ND	ND	0.00	5.65	ND	ND	ND	ND	ND	0
60048	2016-12-03T23:00:00	79.2	ND	ND	ND	0.00	5.61	ND	ND	ND	ND	ND	0
60049	2016-12-04T00:00:00	98.1	ND	ND	ND	0.01	6.42	ND	ND	ND	ND	ND	0
60050	2016-12-04T01:00:00	93.1	ND	ND	ND	0.61	5.20	ND	ND	ND	ND	ND	0
60051	2016-12-04T02:00:00	73.4	ND	ND	ND	0.20	5.65	ND	ND	ND	ND	ND	0
60052	2016-12-04T03:00:00	47.4	ND	ND	ND	0.33	4.79	ND	ND	ND	ND	ND	0
60053	2016-12-04T04:00:00	61.3	ND	ND	ND	4.11	5.89	ND	ND	ND	ND	ND	0
60054	2016-12-04T05:00:00	49	ND	ND	ND	1.73	4.87	ND	ND	ND	ND	ND	0
60055	2016-12-04T06:00:00	34.1	ND	ND	ND	1.37	5.14	ND	ND	ND	ND	ND	0
60056	2016-12-04T07:00:00	94.9	ND	ND	ND	0.32	4.69	ND	ND	ND	ND	ND	0
60057	2016-12-04T08:00:00	64.3	ND	ND	ND	1.00	5.32	ND	ND	ND	ND	ND	0
60058	2016-12-04T09:00:00	16.3	ND	ND	ND	1.83	15.91	ND	ND	ND	ND	ND	0
60059	2016-12-04T10:00:00	32.7	ND	ND	ND	2.44	39.21	ND	ND	ND	ND	ND	0
60060	2016-12-04T11:00:00	72	ND	ND	ND	2.26	64.11	ND	ND	ND	ND	ND	0
60061	2016-12-04T12:00:00	88.3	ND	ND	ND	1.71	98.96	ND	ND	ND	ND	ND	0
60062	2016-12-04T13:00:00	48.4	ND	ND	ND	1.41	107.75	ND	ND	ND	ND	ND	0
60063	2016-12-04T14:00:00	190.7	ND	ND	ND	0.81	73.90	ND	ND	ND	ND	ND	0
60064	2016-12-04T15:00:00	110	ND	ND	ND	0.61	12.32	ND	ND	ND	ND	ND	1.02
60065	2016-12-04T16:00:00	9.8	ND	ND	ND	0.70	11.93	ND	ND	ND	ND	ND	0
60066	2016-12-04T17:00:00	21.3	ND	ND	ND	0.93	9.16	ND	ND	ND	ND	ND	0
60067	2016-12-04T18:00:00	40.3	ND	ND	ND	0.79	8.73	ND	ND	ND	ND	ND	0
60068	2016-12-04T19:00:00	89.5	ND	ND	ND	0.38	8.30	ND	ND	ND	ND	ND	0
60069	2016-12-04T20:00:00	42.5	ND	ND	ND	0.49	7.26	ND	ND	ND	ND	ND	0
60070	2016-12-04T21:00:00	10.1	ND	ND	ND	0.81	7.56	ND	ND	ND	ND	ND	0
60071	2016-12-04T22:00:00	24.6	ND	ND	ND	2.15	4.93	ND	ND	ND	ND	ND	0.25
60072	2016-12-04T23:00:00	27	ND	ND	ND	0.72	2.67	ND	ND	ND	ND	ND	0.76
60073	2016-12-05T00:00:00	47.5	ND	ND	ND	0.57	3.83	ND	ND	ND	ND	ND	0
60074	2016-12-05T01:00:00	44.2	ND	ND	ND	1.12	2.79	ND	ND	ND	ND	ND	0
60075	2016-12-05T02:00:00	22.2	ND	ND	ND	1.24	2.73	ND	ND	ND	ND	ND	0
60076	2016-12-05T03:00:00	23.7	ND	ND	ND	0.92	2.63	ND	ND	ND	ND	ND	0
60077	2016-12-05T04:00:00	27.3	ND	ND	ND	1.76	4.28	ND	ND	ND	ND	ND	0.25
60078	2016-12-05T05:00:00	22.6	ND	ND	ND	1.77	3.81	ND	ND	ND	ND	ND	0
60079	2016-12-05T06:00:00	28.6	ND	ND	ND	1.17	2.61	ND	ND	ND	ND	ND	0
60080	2016-12-05T07:00:00	59.8	ND	ND	ND	0.22	3.10	ND	ND	ND	ND	ND	0
60081	2016-12-05T08:00:00	68.4	ND	ND	ND	0.24	4.06	ND	ND	ND	ND	ND	0
60082	2016-12-05T09:00:00	73.4	ND	ND	ND	0.08	5.55	ND	ND	ND	ND	ND	0
60083	2016-12-05T10:00:00	84.3	ND	ND	ND	0.21	13.07	ND	ND	ND	ND	ND	0
60084	2016-12-05T11:00:00	54.8	ND	ND	ND	0.81	33.93	ND	ND	ND	ND	ND	0
60085	2016-12-05T12:00:00	49.1	ND	ND	ND	0.86	48.61	ND	ND	ND	ND	ND	0
60086	2016-12-05T13:00:00	ND	ND	ND	ND	ND	ND	ND	ND	ND	ND	ND	ND
60087	2016-12-05T14:00:00	ND	ND	ND	ND	ND	ND	ND	ND	ND	ND	ND	ND
60088	2016-12-05T15:00:00	ND	ND	ND	ND	ND	ND	ND	ND	ND	ND	ND	ND
60089	2016-12-05T16:00:00	ND	ND	ND	ND	ND	ND	ND	ND	ND	ND	ND	ND
60090	2016-12-05T17:00:00	4.1	ND	ND	ND	0.03	4.51	ND	ND	ND	ND	ND	1.78
60091	2016-12-05T18:00:00	38.3	ND	ND	ND	0.00	3.34	ND	ND	ND	ND	ND	0.25
60092	2016-12-05T19:00:00	ND	ND	ND	ND	ND	ND	ND	ND	ND	ND	ND	ND
60093	2016-12-05T20:00:00	0.6	ND	ND	ND	0.01	3.47	ND	ND	ND	ND	ND	0
60094	2016-12-05T21:00:00	49.4	ND	ND	ND	0.04	4.16	ND	ND	ND	ND	ND	0.25
60095	2016-12-05T22:00:00	92.5	ND	ND	ND	0.00	3.53	ND	ND	ND	ND	ND	0
60096	2016-12-05T23:00:00	69.4	ND	ND	ND	0.04	3.79	ND	ND	ND	ND	ND	0
60097	2016-12-06T00:00:00	48.7	ND	ND	ND	0.31	2.73	ND	ND	ND	ND	ND	0
60098	2016-12-06T01:00:00	50.8	ND	ND	ND	0.45	3.02	ND	ND	ND	ND	ND	0
60099	2016-12-06T02:00:00	58.5	ND	ND	ND	0.46	3.61	ND	ND	ND	ND	ND	0
60100	2016-12-06T03:00:00	54.8	ND	ND	ND	1.25	2.98	ND	ND	ND	ND	ND	0
60101	2016-12-06T04:00:00	42	ND	ND	ND	2.31	2.98	ND	ND	ND	ND	ND	0
60102	2016-12-06T05:00:00	50.6	ND	ND	ND	2.40	3.24	ND	ND	ND	ND	ND	0
60103	2016-12-06T06:00:00	65.3	ND	ND	ND	2.15	4.38	ND	ND	ND	ND	ND	0
60104	2016-12-06T07:00:00	81.4	ND	ND	ND	0.40	4.73	ND	ND	ND	ND	ND	0
60105	2016-12-06T08:00:00	92.3	ND	ND	ND	1.06	4.67	ND	ND	ND	ND	ND	0
60106	2016-12-06T09:00:00	62.7	ND	ND	ND	1.14	8.01	ND	ND	ND	ND	ND	0
60107	2016-12-06T10:00:00	100.4	ND	ND	ND	1.14	24.10	ND	ND	ND	ND	ND	0
60108	2016-12-06T11:00:00	56.3	ND	ND	ND	1.35	72.76	ND	ND	ND	ND	ND	0
60109	2016-12-06T12:00:00	151.9	ND	ND	ND	0.66	87.95	ND	ND	ND	ND	ND	0
60110	2016-12-06T13:00:00	121.5	ND	ND	ND	0.68	74.28	ND	ND	ND	ND	ND	0
60111	2016-12-06T14:00:00	108.4	ND	ND	ND	0.68	89.54	ND	ND	ND	ND	ND	0
60112	2016-12-06T15:00:00	69.9	ND	ND	ND	1.03	83.17	ND	ND	ND	ND	ND	0
60113	2016-12-06T16:00:00	67.2	ND	ND	ND	0.28	18.84	ND	ND	ND	ND	ND	0
60114	2016-12-06T17:00:00	56.2	ND	ND	ND	0.32	13.82	ND	ND	ND	ND	ND	0
60115	2016-12-06T18:00:00	28	ND	ND	ND	0.18	10.71	ND	ND	ND	ND	ND	0
60116	2016-12-06T19:00:00	4.3	ND	ND	ND	0.28	10.91	ND	ND	ND	ND	ND	0
60117	2016-12-06T20:00:00	24.2	ND	ND	ND	0.26	9.91	ND	ND	ND	ND	ND	0
60118	2016-12-06T21:00:00	65	ND	ND	ND	0.28	10.46	ND	ND	ND	ND	ND	0
60119	2016-12-06T22:00:00	77.4	ND	ND	ND	0.15	6.24	ND	ND	ND	ND	ND	0
60120	2016-12-06T23:00:00	67	ND	ND	ND	0.22	4.28	ND	ND	ND	ND	ND	0
60121	2016-12-07T00:00:00	79.7	ND	ND	ND	0.50	4.61	ND	ND	ND	ND	ND	0
60122	2016-12-07T01:00:00	87	ND	ND	ND	2.09	6.93	ND	ND	ND	ND	ND	0
60123	2016-12-07T02:00:00	65.1	ND	ND	ND	1.70	9.75	ND	ND	ND	ND	ND	0
60124	2016-12-07T03:00:00	41.7	ND	ND	ND	2.10	6.83	ND	ND	ND	ND	ND	0
60125	2016-12-07T04:00:00	17.5	ND	ND	ND	1.39	5.44	ND	ND	ND	ND	ND	0
60126	2016-12-07T05:00:00	16.5	ND	ND	ND	1.60	4.57	ND	ND	ND	ND	ND	0.76
60127	2016-12-07T06:00:00	19.9	ND	ND	ND	1.05	4.69	ND	ND	ND	ND	ND	0
60128	2016-12-07T07:00:00	25.8	ND	ND	ND	0.31	4.53	ND	ND	ND	ND	ND	0
60129	2016-12-07T08:00:00	40.3	ND	ND	ND	0.18	5.42	ND	ND	ND	ND	ND	0
60130	2016-12-07T09:00:00	91.2	ND	ND	ND	0.14	7.79	ND	ND	ND	ND	ND	0.25
60131	2016-12-07T10:00:00	108.7	ND	ND	ND	0.89	23.65	ND	ND	ND	ND	ND	0
60132	2016-12-07T11:00:00	34.1	ND	ND	ND	1.09	47.12	ND	ND	ND	ND	ND	0
60133	2016-12-07T12:00:00	77	ND	ND	ND	0.49	55.54	ND	ND	ND	ND	ND	0
60134	2016-12-07T13:00:00	6	ND	ND	ND	0.28	31.30	ND	ND	ND	ND	ND	0
60135	2016-12-07T14:00:00	64.5	ND	ND	ND	1.03	63.97	ND	ND	ND	ND	ND	0
60136	2016-12-07T15:00:00	78	ND	ND	ND	0.68	51.61	ND	ND	ND	ND	ND	0
60137	2016-12-07T16:00:00	43.1	ND	ND	ND	0.26	20.66	ND	ND	ND	ND	ND	0.25
60138	2016-12-07T17:00:00	7.4	ND	ND	ND	0.42	8.32	ND	ND	ND	ND	ND	0.76
60139	2016-12-07T18:00:00	47.7	ND	ND	ND	0.00	4.85	ND	ND	ND	ND	ND	0
60140	2016-12-07T19:00:00	35.5	ND	ND	ND	0.01	3.53	ND	ND	ND	ND	ND	0
60141	2016-12-07T20:00:00	ND	ND	ND	ND	0.01	3.43	ND	ND	ND	ND	ND	0
60142	2016-12-07T21:00:00	ND	ND	ND	ND	0.08	4.18	ND	ND	ND	ND	ND	0
60143	2016-12-07T22:00:00	31.6	ND	ND	ND	0.01	6.48	ND	ND	ND	ND	ND	0
60144	2016-12-07T23:00:00	37	ND	ND	ND	0.01	5.59	ND	ND	ND	ND	ND	0
60145	2016-12-08T00:00:00	58.8	ND	ND	ND	0.04	4.85	ND	ND	ND	ND	ND	0
60146	2016-12-08T01:00:00	58.9	ND	ND	ND	0.06	5.08	ND	ND	ND	ND	ND	0
60147	2016-12-08T02:00:00	67.7	ND	ND	ND	0.00	6.26	ND	ND	ND	ND	ND	0
60148	2016-12-08T03:00:00	76.9	ND	ND	ND	0.53	3.20	ND	ND	ND	ND	ND	0
60149	2016-12-08T04:00:00	15.4	ND	ND	ND	0.81	3.22	ND	ND	ND	ND	ND	0
60150	2016-12-08T05:00:00	34.7	ND	ND	ND	1.27	3.43	ND	ND	ND	ND	ND	0
60151	2016-12-08T06:00:00	97.5	ND	ND	ND	1.24	3.89	ND	ND	ND	ND	ND	0
60152	2016-12-08T07:00:00	105	ND	ND	ND	1.07	5.51	ND	ND	ND	ND	ND	0
60153	2016-12-08T08:00:00	72.4	ND	ND	ND	1.52	7.61	ND	ND	ND	ND	ND	0
60154	2016-12-08T09:00:00	139.2	ND	ND	ND	1.87	20.31	ND	ND	ND	ND	ND	0
60155	2016-12-08T10:00:00	126.1	ND	ND	ND	1.37	40.76	ND	ND	ND	ND	ND	0
60156	2016-12-08T11:00:00	24	ND	ND	ND	1.42	44.23	ND	ND	ND	ND	ND	0
60157	2016-12-08T12:00:00	82.5	ND	ND	ND	0.93	56.54	ND	ND	ND	ND	ND	0
60158	2016-12-08T13:00:00	24.4	ND	ND	ND	1.12	31.22	ND	ND	ND	ND	ND	0
60159	2016-12-08T14:00:00	ND	ND	ND	ND	1.14	38.89	ND	ND	ND	ND	ND	0
60160	2016-12-08T15:00:00	30.2	ND	ND	ND	1.27	31.40	ND	ND	ND	ND	ND	0
60161	2016-12-08T16:00:00	2.6	ND	ND	ND	0.99	19.56	ND	ND	ND	ND	ND	0
60162	2016-12-08T17:00:00	1.6	ND	ND	ND	0.54	14.91	ND	ND	ND	ND	ND	2.29
60163	2016-12-08T18:00:00	9.5	ND	ND	ND	0.52	7.69	ND	ND	ND	ND	ND	5.33
60164	2016-12-08T19:00:00	71.5	ND	ND	ND	0.49	7.99	ND	ND	ND	ND	ND	0
60165	2016-12-08T20:00:00	39.6	ND	ND	ND	0.25	5.71	ND	ND	ND	ND	ND	0
60166	2016-12-08T21:00:00	46.2	ND	ND	ND	0.64	6.97	ND	ND	ND	ND	ND	0
60167	2016-12-08T22:00:00	75.7	ND	ND	ND	0.45	6.36	ND	ND	ND	ND	ND	0
60168	2016-12-08T23:00:00	81.1	ND	ND	ND	0.25	6.02	ND	ND	ND	ND	ND	0
60169	2016-12-09T00:00:00	96.8	ND	ND	ND	0.63	6.08	ND	ND	ND	ND	ND	0
60170	2016-12-09T01:00:00	46.3	ND	ND	ND	1.45	9.60	ND	ND	ND	ND	ND	0
60171	2016-12-09T02:00:00	38.2	ND	ND	ND	1.64	8.14	ND	ND	ND	ND	ND	3.05
60172	2016-12-09T03:00:00	2.9	ND	ND	ND	2.58	4.42	ND	ND	ND	ND	ND	1.02
60173	2016-12-09T04:00:00	20	ND	ND	ND	2.70	3.36	ND	ND	ND	ND	ND	0.25
60174	2016-12-09T05:00:00	54.5	ND	ND	ND	2.16	2.90	ND	ND	ND	ND	ND	0
60175	2016-12-09T06:00:00	39.7	ND	ND	ND	3.43	2.79	ND	ND	ND	ND	ND	0
60176	2016-12-09T07:00:00	19	ND	ND	ND	0.74	4.04	ND	ND	ND	ND	ND	0
60177	2016-12-09T08:00:00	89.6	ND	ND	ND	2.10	4.71	ND	ND	ND	ND	ND	0
60178	2016-12-09T09:00:00	78.2	ND	ND	ND	1.30	6.46	ND	ND	ND	ND	ND	0
60179	2016-12-09T10:00:00	53.5	ND	ND	ND	1.63	26.75	ND	ND	ND	ND	ND	0
60180	2016-12-09T11:00:00	112.3	ND	ND	ND	1.39	50.26	ND	ND	ND	ND	ND	0
60181	2016-12-09T12:00:00	80.3	ND	ND	ND	0.93	63.89	ND	ND	ND	ND	ND	0
60182	2016-12-09T13:00:00	67.9	ND	ND	ND	0.67	52.71	ND	ND	ND	ND	ND	0
60183	2016-12-09T14:00:00	58.4	ND	ND	ND	0.66	42.76	ND	ND	ND	ND	ND	0
60184	2016-12-09T15:00:00	49.2	ND	ND	ND	1.10	33.85	ND	ND	ND	ND	ND	0
60185	2016-12-09T16:00:00	20.9	ND	ND	ND	0.56	15.80	ND	ND	ND	ND	ND	0
60186	2016-12-09T17:00:00	ND	ND	ND	ND	0.52	14.15	ND	ND	ND	ND	ND	0
60187	2016-12-09T18:00:00	ND	ND	ND	ND	0.13	11.64	ND	ND	ND	ND	ND	0
60188	2016-12-09T19:00:00	ND	ND	ND	ND	0.25	9.75	ND	ND	ND	ND	ND	0
60189	2016-12-09T20:00:00	10.3	ND	ND	ND	0.20	7.81	ND	ND	ND	ND	ND	0
60190	2016-12-09T21:00:00	ND	ND	ND	ND	0.28	4.83	ND	ND	ND	ND	ND	0
60191	2016-12-09T22:00:00	67.4	ND	ND	ND	0.70	3.04	ND	ND	ND	ND	ND	0
60192	2016-12-09T23:00:00	116.4	ND	ND	ND	0.14	3.65	ND	ND	ND	ND	ND	0
60193	2016-12-10T00:00:00	102	ND	ND	ND	0.53	3.69	ND	ND	ND	ND	ND	0
60194	2016-12-10T01:00:00	80.5	ND	ND	ND	0.81	3.10	ND	ND	ND	ND	ND	0
60195	2016-12-10T02:00:00	74.8	ND	ND	ND	1.24	4.59	ND	ND	ND	ND	ND	0
60196	2016-12-10T03:00:00	14.6	ND	ND	ND	1.78	4.57	ND	ND	ND	ND	ND	0
60197	2016-12-10T04:00:00	31.1	ND	ND	ND	1.88	5.36	ND	ND	ND	ND	ND	0
60198	2016-12-10T05:00:00	36.7	ND	ND	ND	1.20	3.43	ND	ND	ND	ND	ND	0
60199	2016-12-10T06:00:00	45.3	ND	ND	ND	1.05	3.67	ND	ND	ND	ND	ND	0
60200	2016-12-10T07:00:00	61.8	ND	ND	ND	1.45	4.26	ND	ND	ND	ND	ND	0
60201	2016-12-10T08:00:00	89.2	ND	ND	ND	0.28	8.60	ND	ND	ND	ND	ND	0
60202	2016-12-10T09:00:00	134.2	ND	ND	ND	1.27	14.25	ND	ND	ND	ND	ND	0
60203	2016-12-10T10:00:00	106.2	ND	ND	ND	1.51	23.84	ND	ND	ND	ND	ND	0
60204	2016-12-10T11:00:00	88.6	ND	ND	ND	1.27	49.82	ND	ND	ND	ND	ND	0
60205	2016-12-10T12:00:00	97.1	ND	ND	ND	1.13	75.73	ND	ND	ND	ND	ND	0
60206	2016-12-10T13:00:00	101.7	ND	ND	ND	0.81	75.32	ND	ND	ND	ND	ND	0
60207	2016-12-10T14:00:00	15.8	ND	ND	ND	0.68	69.06	ND	ND	ND	ND	ND	0
60208	2016-12-10T15:00:00	ND	ND	ND	ND	1.00	76.75	ND	ND	ND	ND	ND	0
60209	2016-12-10T16:00:00	ND	ND	ND	ND	0.96	69.29	ND	ND	ND	ND	ND	0
60210	2016-12-10T17:00:00	ND	ND	ND	ND	0.49	20.49	ND	ND	ND	ND	ND	0
60211	2016-12-10T18:00:00	ND	ND	ND	ND	0.11	6.32	ND	ND	ND	ND	ND	0
60212	2016-12-10T19:00:00	ND	ND	ND	ND	0.21	6.67	ND	ND	ND	ND	ND	0
60213	2016-12-10T20:00:00	ND	ND	ND	ND	0.04	4.87	ND	ND	ND	ND	ND	0
60214	2016-12-10T21:00:00	2.1	ND	ND	ND	0.14	3.73	ND	ND	ND	ND	ND	0
60215	2016-12-10T22:00:00	36.6	ND	ND	ND	0.17	3.65	ND	ND	ND	ND	ND	0
60216	2016-12-10T23:00:00	103.5	ND	ND	ND	0.38	3.30	ND	ND	ND	ND	ND	0
60217	2016-12-11T00:00:00	120.2	ND	ND	ND	0.38	3.14	ND	ND	ND	ND	ND	0
60218	2016-12-11T01:00:00	57.2	ND	ND	ND	0.38	3.28	ND	ND	ND	ND	ND	0
60219	2016-12-11T02:00:00	76	ND	ND	ND	1.18	3.26	ND	ND	ND	ND	ND	0
60220	2016-12-11T03:00:00	93.1	ND	ND	ND	1.76	4.14	ND	ND	ND	ND	ND	0
60221	2016-12-11T04:00:00	52	ND	ND	ND	1.59	6.20	ND	ND	ND	ND	ND	0
60222	2016-12-11T05:00:00	46.3	ND	ND	ND	1.81	4.79	ND	ND	ND	ND	ND	10.41
60223	2016-12-11T06:00:00	43.8	ND	ND	ND	1.99	2.96	ND	ND	ND	ND	ND	0.25
60224	2016-12-11T07:00:00	74.7	ND	ND	ND	1.38	3.30	ND	ND	ND	ND	ND	0.25
60225	2016-12-11T08:00:00	55.3	ND	ND	ND	1.53	7.12	ND	ND	ND	ND	ND	0
60226	2016-12-11T09:00:00	81.4	ND	ND	ND	1.28	15.62	ND	ND	ND	ND	ND	0
60227	2016-12-11T10:00:00	82.9	ND	ND	ND	1.52	25.88	ND	ND	ND	ND	ND	0
60228	2016-12-11T11:00:00	41.7	ND	ND	ND	0.92	43.60	ND	ND	ND	ND	ND	0
60229	2016-12-11T12:00:00	16.9	ND	ND	ND	0.66	57.65	ND	ND	ND	ND	ND	0
60230	2016-12-11T13:00:00	70.4	ND	ND	ND	1.14	82.71	ND	ND	ND	ND	ND	0
60231	2016-12-11T14:00:00	21.6	ND	ND	ND	1.24	81.38	ND	ND	ND	ND	ND	0
60232	2016-12-11T15:00:00	0.7	ND	ND	ND	0.95	52.91	ND	ND	ND	ND	ND	0
60233	2016-12-11T16:00:00	0.5	ND	ND	ND	0.81	22.17	ND	ND	ND	ND	ND	0
60234	2016-12-11T17:00:00	ND	ND	ND	ND	0.61	21.25	ND	ND	ND	ND	ND	0
60235	2016-12-11T18:00:00	ND	ND	ND	ND	0.46	18.51	ND	ND	ND	ND	ND	0
60236	2016-12-11T19:00:00	ND	ND	ND	ND	0.67	14.42	ND	ND	ND	ND	ND	0
60237	2016-12-11T20:00:00	10.5	ND	ND	ND	0.50	8.67	ND	ND	ND	ND	ND	0
60238	2016-12-11T21:00:00	31.8	ND	ND	ND	0.21	3.57	ND	ND	ND	ND	ND	0
60239	2016-12-11T22:00:00	99.8	ND	ND	ND	0.31	2.77	ND	ND	ND	ND	ND	0
60240	2016-12-11T23:00:00	55.9	ND	ND	ND	0.77	4.89	ND	ND	ND	ND	ND	0
60241	2016-12-12T00:00:00	2.6	ND	ND	ND	0.53	4.47	ND	ND	ND	ND	ND	0
60242	2016-12-12T01:00:00	75.4	ND	ND	ND	0.85	2.67	ND	ND	ND	ND	ND	0
60243	2016-12-12T02:00:00	95.4	ND	ND	ND	1.81	3.14	ND	ND	ND	ND	ND	0
60244	2016-12-12T03:00:00	65.3	ND	ND	ND	2.08	2.59	ND	ND	ND	ND	ND	0
60245	2016-12-12T04:00:00	19.2	ND	ND	ND	2.15	2.73	ND	ND	ND	ND	ND	0
60246	2016-12-12T05:00:00	16.5	ND	ND	ND	1.71	2.96	ND	ND	ND	ND	ND	0
60247	2016-12-12T06:00:00	27.3	ND	ND	ND	1.00	2.88	ND	ND	ND	ND	ND	0
60248	2016-12-12T07:00:00	63.9	ND	ND	ND	0.66	3.28	ND	ND	ND	ND	ND	0
60249	2016-12-12T08:00:00	75.4	ND	ND	ND	0.32	4.49	ND	ND	ND	ND	ND	0
60250	2016-12-12T09:00:00	84	ND	ND	ND	0.26	6.93	ND	ND	ND	ND	ND	0
60251	2016-12-12T10:00:00	110.3	ND	ND	ND	0.31	10.52	ND	ND	ND	ND	ND	0
60252	2016-12-12T11:00:00	85.3	ND	ND	ND	0.89	18.39	ND	ND	ND	ND	ND	0
60253	2016-12-12T12:00:00	96.5	ND	ND	ND	0.52	40.05	ND	ND	ND	ND	ND	0
60254	2016-12-12T13:00:00	91.5	ND	ND	ND	0.89	66.68	ND	ND	ND	ND	ND	0
60255	2016-12-12T14:00:00	59.2	ND	ND	ND	0.67	75.30	ND	ND	ND	ND	ND	0
60256	2016-12-12T15:00:00	14.5	ND	ND	ND	0.98	106.71	ND	ND	ND	ND	ND	0
60257	2016-12-12T16:00:00	38.3	ND	ND	ND	0.42	38.07	ND	ND	ND	ND	ND	0
60258	2016-12-12T17:00:00	ND	ND	ND	ND	0.39	13.78	ND	ND	ND	ND	ND	0
60259	2016-12-12T18:00:00	ND	ND	ND	ND	0.07	9.09	ND	ND	ND	ND	ND	0
60260	2016-12-12T19:00:00	5.4	ND	ND	ND	0.20	7.65	ND	ND	ND	ND	ND	0
60261	2016-12-12T20:00:00	12.2	ND	ND	ND	0.14	7.28	ND	ND	ND	ND	ND	0
60262	2016-12-12T21:00:00	38.3	ND	ND	ND	0.43	5.20	ND	ND	ND	ND	ND	0
60263	2016-12-12T22:00:00	56.8	ND	ND	ND	0.61	7.57	ND	ND	ND	ND	ND	0
60264	2016-12-12T23:00:00	89.2	ND	ND	ND	0.46	5.04	ND	ND	ND	ND	ND	0
60265	2016-12-13T00:00:00	83	ND	ND	ND	0.33	4.47	ND	ND	ND	ND	ND	0
60266	2016-12-13T01:00:00	73.2	ND	ND	ND	1.42	2.71	ND	ND	ND	ND	ND	0
60267	2016-12-13T02:00:00	49.2	ND	ND	ND	2.22	3.16	ND	ND	ND	ND	ND	0
60268	2016-12-13T03:00:00	46.6	ND	ND	ND	2.16	3.47	ND	ND	ND	ND	ND	0
60269	2016-12-13T04:00:00	56.1	ND	ND	ND	2.84	3.69	ND	ND	ND	ND	ND	0
60270	2016-12-13T05:00:00	66.4	ND	ND	ND	2.16	3.61	ND	ND	ND	ND	ND	0
60271	2016-12-13T06:00:00	58.6	ND	ND	ND	1.23	3.00	ND	ND	ND	ND	ND	0
60272	2016-12-13T07:00:00	45	ND	ND	ND	0.68	4.59	ND	ND	ND	ND	ND	0
60273	2016-12-13T08:00:00	99.9	ND	ND	ND	0.13	7.38	ND	ND	ND	ND	ND	0
60274	2016-12-13T09:00:00	137.7	ND	ND	ND	0.63	12.91	ND	ND	ND	ND	ND	0
60275	2016-12-13T10:00:00	162.5	ND	ND	ND	1.53	27.83	ND	ND	ND	ND	ND	0
60276	2016-12-13T11:00:00	159.2	ND	ND	ND	1.30	49.04	ND	ND	ND	ND	ND	0
60277	2016-12-13T12:00:00	108.2	ND	ND	ND	0.49	67.43	ND	ND	ND	ND	ND	0
60278	2016-12-13T13:00:00	55.7	ND	ND	ND	1.05	60.34	ND	ND	ND	ND	ND	0
60279	2016-12-13T14:00:00	5.3	ND	ND	ND	0.67	15.84	ND	ND	ND	ND	ND	0
60280	2016-12-13T15:00:00	30.4	ND	ND	ND	0.29	15.11	ND	ND	ND	ND	ND	0
60281	2016-12-13T16:00:00	59	ND	ND	ND	0.25	14.17	ND	ND	ND	ND	ND	0
60282	2016-12-13T17:00:00	3.4	ND	ND	ND	0.26	9.11	ND	ND	ND	ND	ND	0
60283	2016-12-13T18:00:00	ND	ND	ND	ND	0.17	9.52	ND	ND	ND	ND	ND	0
60284	2016-12-13T19:00:00	ND	ND	ND	ND	0.14	10.48	ND	ND	ND	ND	ND	0
60285	2016-12-13T20:00:00	ND	ND	ND	ND	0.11	5.08	ND	ND	ND	ND	ND	0
60286	2016-12-13T21:00:00	15.4	ND	ND	ND	0.20	3.55	ND	ND	ND	ND	ND	0
60287	2016-12-13T22:00:00	83.9	ND	ND	ND	0.25	3.14	ND	ND	ND	ND	ND	0
60288	2016-12-13T23:00:00	96.3	ND	ND	ND	0.14	2.77	ND	ND	ND	ND	ND	0
60289	2016-12-14T00:00:00	105.7	ND	ND	ND	1.55	2.92	ND	ND	ND	ND	ND	0
60290	2016-12-14T01:00:00	106.7	ND	ND	ND	1.20	2.75	ND	ND	ND	ND	ND	0
60291	2016-12-14T02:00:00	49.9	ND	ND	ND	1.87	5.59	ND	ND	ND	ND	ND	0
60292	2016-12-14T03:00:00	24.5	ND	ND	ND	2.33	5.26	ND	ND	ND	ND	ND	0
60293	2016-12-14T04:00:00	26.2	ND	ND	ND	2.52	3.94	ND	ND	ND	ND	ND	0
60294	2016-12-14T05:00:00	53	ND	ND	ND	2.40	3.20	ND	ND	ND	ND	ND	0
60295	2016-12-14T06:00:00	83.3	ND	ND	ND	1.17	3.36	ND	ND	ND	ND	ND	0
60296	2016-12-14T07:00:00	79.7	ND	ND	ND	1.00	5.00	ND	ND	ND	ND	ND	0
60297	2016-12-14T08:00:00	121.6	ND	ND	ND	2.98	7.06	ND	ND	ND	ND	ND	0
60298	2016-12-14T09:00:00	154.2	ND	ND	ND	3.37	14.89	ND	ND	ND	ND	ND	0
60299	2016-12-14T10:00:00	141.7	ND	ND	ND	1.58	40.88	ND	ND	ND	ND	ND	0
60300	2016-12-14T11:00:00	111.9	ND	ND	ND	0.89	49.59	ND	ND	ND	ND	ND	0
60301	2016-12-14T12:00:00	61.2	ND	ND	ND	1.21	64.56	ND	ND	ND	ND	ND	0
60302	2016-12-14T13:00:00	66.2	ND	ND	ND	0.85	93.33	ND	ND	ND	ND	ND	0
60303	2016-12-14T14:00:00	101.6	ND	ND	ND	1.24	112.95	ND	ND	ND	ND	ND	0
60304	2016-12-14T15:00:00	37.9	ND	ND	ND	0.77	34.24	ND	ND	ND	ND	ND	0
60305	2016-12-14T16:00:00	6	ND	ND	ND	0.74	25.28	ND	ND	ND	ND	ND	0
60306	2016-12-14T17:00:00	27.6	ND	ND	ND	0.46	19.00	ND	ND	ND	ND	ND	0
60307	2016-12-14T18:00:00	ND	ND	ND	ND	0.15	14.68	ND	ND	ND	ND	ND	0
60308	2016-12-14T19:00:00	2.4	ND	ND	ND	0.32	19.09	ND	ND	ND	ND	ND	0
60309	2016-12-14T20:00:00	31.2	ND	ND	ND	0.22	11.50	ND	ND	ND	ND	ND	0
60310	2016-12-14T21:00:00	69.3	ND	ND	ND	1.10	27.38	ND	ND	ND	ND	ND	0
60311	2016-12-14T22:00:00	147.4	ND	ND	ND	1.28	25.04	ND	ND	ND	ND	ND	0
60312	2016-12-14T23:00:00	59.6	ND	ND	ND	1.05	12.15	ND	ND	ND	ND	ND	0
60313	2016-12-15T00:00:00	ND	ND	ND	ND	0.78	5.59	ND	ND	ND	ND	ND	0
60314	2016-12-15T01:00:00	ND	ND	ND	ND	1.06	5.36	ND	ND	ND	ND	ND	0
60315	2016-12-15T02:00:00	92.1	ND	ND	ND	2.40	5.91	ND	ND	ND	ND	ND	0
60316	2016-12-15T03:00:00	150	ND	ND	ND	3.37	6.04	ND	ND	ND	ND	ND	0
60317	2016-12-15T04:00:00	107.8	ND	ND	ND	2.52	5.75	ND	ND	ND	ND	ND	0
60318	2016-12-15T05:00:00	59.7	ND	ND	ND	2.61	7.54	ND	ND	ND	ND	ND	0
60319	2016-12-15T06:00:00	98.7	ND	ND	ND	2.34	8.81	ND	ND	ND	ND	ND	0
60320	2016-12-15T07:00:00	129.3	ND	ND	ND	2.75	7.18	ND	ND	ND	ND	ND	0
60321	2016-12-15T08:00:00	150.6	ND	ND	ND	1.17	9.36	ND	ND	ND	ND	ND	0
60322	2016-12-15T09:00:00	149.8	ND	ND	ND	0.60	10.48	ND	ND	ND	ND	ND	0
60323	2016-12-15T10:00:00	164.3	ND	ND	ND	1.16	13.58	ND	ND	ND	ND	ND	0
60324	2016-12-15T11:00:00	147	ND	ND	ND	1.48	32.77	ND	ND	ND	ND	ND	0
60325	2016-12-15T12:00:00	100.2	ND	ND	ND	1.10	52.53	ND	ND	ND	ND	ND	0
60326	2016-12-15T13:00:00	61	ND	ND	ND	1.25	86.85	ND	ND	ND	ND	ND	0
60327	2016-12-15T14:00:00	36.4	ND	ND	ND	0.86	85.87	ND	ND	ND	ND	ND	0
60328	2016-12-15T15:00:00	41	ND	ND	ND	1.13	48.69	ND	ND	ND	ND	ND	0
60329	2016-12-15T16:00:00	25.4	ND	ND	ND	0.60	21.10	ND	ND	ND	ND	ND	0
60330	2016-12-15T17:00:00	7.7	ND	ND	ND	0.57	16.66	ND	ND	ND	ND	ND	0
60331	2016-12-15T18:00:00	2.5	ND	ND	ND	0.36	17.52	ND	ND	ND	ND	ND	0
60332	2016-12-15T19:00:00	ND	ND	ND	ND	0.38	15.62	ND	ND	ND	ND	ND	0
60333	2016-12-15T20:00:00	ND	ND	ND	ND	0.28	6.59	ND	ND	ND	ND	ND	0
60334	2016-12-15T21:00:00	65.7	ND	ND	ND	0.63	10.95	ND	ND	ND	ND	ND	0
60335	2016-12-15T22:00:00	118.9	ND	ND	ND	0.63	6.67	ND	ND	ND	ND	ND	0
60336	2016-12-15T23:00:00	55.5	ND	ND	ND	0.60	6.71	ND	ND	ND	ND	ND	0
60337	2016-12-16T00:00:00	36.3	ND	ND	ND	0.53	3.77	ND	ND	ND	ND	ND	0
60338	2016-12-16T01:00:00	76.6	ND	ND	ND	1.92	5.55	ND	ND	ND	ND	ND	0
60339	2016-12-16T02:00:00	64.3	ND	ND	ND	1.84	5.20	ND	ND	ND	ND	ND	0
60340	2016-12-16T03:00:00	59.2	ND	ND	ND	1.44	5.38	ND	ND	ND	ND	ND	0
60341	2016-12-16T04:00:00	61.8	ND	ND	ND	2.43	4.75	ND	ND	ND	ND	ND	0
60342	2016-12-16T05:00:00	51	ND	ND	ND	3.12	5.00	ND	ND	ND	ND	ND	0
60343	2016-12-16T06:00:00	64.5	ND	ND	ND	1.73	7.12	ND	ND	ND	ND	ND	0
60344	2016-12-16T07:00:00	61.5	ND	ND	ND	0.67	3.47	ND	ND	ND	ND	ND	0
60345	2016-12-16T08:00:00	49.6	ND	ND	ND	0.63	6.50	ND	ND	ND	ND	ND	0
60346	2016-12-16T09:00:00	135.9	ND	ND	ND	1.27	16.37	ND	ND	ND	ND	ND	0
60347	2016-12-16T10:00:00	157.9	ND	ND	ND	1.55	22.12	ND	ND	ND	ND	ND	0
60348	2016-12-16T11:00:00	99.7	ND	ND	ND	0.95	37.68	ND	ND	ND	ND	ND	0
60349	2016-12-16T12:00:00	59.5	ND	ND	ND	0.88	49.77	ND	ND	ND	ND	ND	0
60350	2016-12-16T13:00:00	47.6	ND	ND	ND	1.00	53.40	ND	ND	ND	ND	ND	0
60351	2016-12-16T14:00:00	18.8	ND	ND	ND	0.63	45.53	ND	ND	ND	ND	ND	0
60352	2016-12-16T15:00:00	23.1	ND	ND	ND	0.60	36.48	ND	ND	ND	ND	ND	0
60353	2016-12-16T16:00:00	84.2	ND	ND	ND	0.54	40.09	ND	ND	ND	ND	ND	0
60354	2016-12-16T17:00:00	17.9	ND	ND	ND	0.35	12.52	ND	ND	ND	ND	ND	0
60355	2016-12-16T18:00:00	15	ND	ND	ND	0.72	18.45	ND	ND	ND	ND	ND	7.62
60356	2016-12-16T19:00:00	95.2	ND	ND	ND	0.13	9.97	ND	ND	ND	ND	ND	2.79
60357	2016-12-16T20:00:00	107.3	ND	ND	ND	0.18	5.97	ND	ND	ND	ND	ND	2.54
60358	2016-12-16T21:00:00	79.9	ND	ND	ND	0.28	5.71	ND	ND	ND	ND	ND	0
60359	2016-12-16T22:00:00	ND	ND	ND	ND	ND	ND	ND	ND	ND	ND	ND	ND
60360	2016-12-16T23:00:00	62	ND	ND	ND	0.26	3.94	ND	ND	ND	ND	ND	0
60361	2016-12-17T00:00:00	30.5	ND	ND	ND	0.81	4.57	ND	ND	ND	ND	ND	0
60362	2016-12-17T01:00:00	43.9	ND	ND	ND	0.22	3.83	ND	ND	ND	ND	ND	0
60363	2016-12-17T02:00:00	60.3	ND	ND	ND	0.38	3.26	ND	ND	ND	ND	ND	0
60364	2016-12-17T03:00:00	46	ND	ND	ND	0.86	3.06	ND	ND	ND	ND	ND	0
60365	2016-12-17T04:00:00	13.1	ND	ND	ND	1.21	2.45	ND	ND	ND	ND	ND	0
60366	2016-12-17T05:00:00	21.6	ND	ND	ND	1.17	3.67	ND	ND	ND	ND	ND	0
60367	2016-12-17T06:00:00	42.4	ND	ND	ND	0.71	2.92	ND	ND	ND	ND	ND	0
60368	2016-12-17T07:00:00	52.3	ND	ND	ND	0.67	4.45	ND	ND	ND	ND	ND	0
60369	2016-12-17T08:00:00	93.7	ND	ND	ND	0.11	6.52	ND	ND	ND	ND	ND	0
60370	2016-12-17T09:00:00	140.6	ND	ND	ND	0.98	13.42	ND	ND	ND	ND	ND	0
60371	2016-12-17T10:00:00	144.5	ND	ND	ND	1.27	28.10	ND	ND	ND	ND	ND	0
60372	2016-12-17T11:00:00	85.6	ND	ND	ND	0.67	28.40	ND	ND	ND	ND	ND	0
60373	2016-12-17T12:00:00	16.9	ND	ND	ND	1.27	45.80	ND	ND	ND	ND	ND	0
60374	2016-12-17T13:00:00	23.3	ND	ND	ND	0.74	48.00	ND	ND	ND	ND	ND	0
60375	2016-12-17T14:00:00	46.5	ND	ND	ND	0.50	36.85	ND	ND	ND	ND	ND	0
60376	2016-12-17T15:00:00	30.4	ND	ND	ND	0.71	31.89	ND	ND	ND	ND	ND	0
60377	2016-12-17T16:00:00	2.1	ND	ND	ND	0.74	25.12	ND	ND	ND	ND	ND	0
60378	2016-12-17T17:00:00	ND	ND	ND	ND	0.42	20.86	ND	ND	ND	ND	ND	0
60379	2016-12-17T18:00:00	ND	ND	ND	ND	0.17	16.76	ND	ND	ND	ND	ND	0
60380	2016-12-17T19:00:00	ND	ND	ND	ND	0.26	12.48	ND	ND	ND	ND	ND	0
60381	2016-12-17T20:00:00	48.7	ND	ND	ND	0.35	10.62	ND	ND	ND	ND	ND	0
60382	2016-12-17T21:00:00	147	ND	ND	ND	0.13	3.49	ND	ND	ND	ND	ND	0
60383	2016-12-17T22:00:00	24.8	ND	ND	ND	0.06	3.43	ND	ND	ND	ND	ND	0
60384	2016-12-17T23:00:00	67.9	ND	ND	ND	0.56	5.38	ND	ND	ND	ND	ND	0
60385	2016-12-18T00:00:00	83.5	ND	ND	ND	0.42	3.04	ND	ND	ND	ND	ND	0
60386	2016-12-18T01:00:00	ND	ND	ND	ND	0.24	3.02	ND	ND	ND	ND	ND	0
60387	2016-12-18T02:00:00	92.7	ND	ND	ND	0.18	3.79	ND	ND	ND	ND	ND	0
60388	2016-12-18T03:00:00	119.6	ND	ND	ND	1.55	4.57	ND	ND	ND	ND	ND	0
60389	2016-12-18T04:00:00	66.8	ND	ND	ND	1.38	4.24	ND	ND	ND	ND	ND	0
60390	2016-12-18T05:00:00	72.8	ND	ND	ND	ND	4.45	ND	ND	ND	ND	ND	0
60391	2016-12-18T06:00:00	79.8	ND	ND	ND	ND	3.47	ND	ND	ND	ND	ND	0
60392	2016-12-18T07:00:00	86.5	ND	ND	ND	2.26	4.06	ND	ND	ND	ND	ND	0
60393	2016-12-18T08:00:00	131	ND	ND	ND	1.92	6.77	ND	ND	ND	ND	ND	0
60394	2016-12-18T09:00:00	117.1	ND	ND	ND	3.35	17.15	ND	ND	ND	ND	ND	0
60395	2016-12-18T10:00:00	106.8	ND	ND	ND	2.41	22.78	ND	ND	ND	ND	ND	0
60396	2016-12-18T11:00:00	84.6	ND	ND	ND	2.08	33.40	ND	ND	ND	ND	ND	0
60397	2016-12-18T12:00:00	60.5	ND	ND	ND	1.27	67.68	ND	ND	ND	ND	ND	0
60398	2016-12-18T13:00:00	30.5	ND	ND	ND	1.13	81.26	ND	ND	ND	ND	ND	0
60399	2016-12-18T14:00:00	29.8	ND	ND	ND	0.91	81.36	ND	ND	ND	ND	ND	0
60400	2016-12-18T15:00:00	43.9	ND	ND	ND	1.09	72.16	ND	ND	ND	ND	ND	0
60401	2016-12-18T16:00:00	42	ND	ND	ND	1.37	56.95	ND	ND	ND	ND	ND	0
60402	2016-12-18T17:00:00	45.9	ND	ND	ND	0.99	28.42	ND	ND	ND	ND	ND	0
60403	2016-12-18T18:00:00	0.1	ND	ND	ND	0.68	22.31	ND	ND	ND	ND	ND	0
60404	2016-12-18T19:00:00	3.7	ND	ND	ND	0.57	17.56	ND	ND	ND	ND	ND	0
60405	2016-12-18T20:00:00	28.4	ND	ND	ND	0.67	14.91	ND	ND	ND	ND	ND	0
60406	2016-12-18T21:00:00	9.2	ND	ND	ND	0.68	8.28	ND	ND	ND	ND	ND	0
60407	2016-12-18T22:00:00	56.4	ND	ND	ND	0.95	5.22	ND	ND	ND	ND	ND	0
60408	2016-12-18T23:00:00	58.4	ND	ND	ND	0.96	10.11	ND	ND	ND	ND	ND	0
60409	2016-12-19T00:00:00	47.6	ND	ND	ND	0.75	4.36	ND	ND	ND	ND	ND	0
60410	2016-12-19T01:00:00	75.9	ND	ND	ND	1.00	3.89	ND	ND	ND	ND	ND	0
60411	2016-12-19T02:00:00	67.6	ND	ND	ND	1.32	3.18	ND	ND	ND	ND	ND	0
60412	2016-12-19T03:00:00	60.6	ND	ND	ND	1.18	3.43	ND	ND	ND	ND	ND	0
60413	2016-12-19T04:00:00	56.2	ND	ND	ND	1.98	2.67	ND	ND	ND	ND	ND	0
60414	2016-12-19T05:00:00	44.8	ND	ND	ND	1.85	3.51	ND	ND	ND	ND	ND	0
60415	2016-12-19T06:00:00	44.8	ND	ND	ND	1.14	3.38	ND	ND	ND	ND	ND	0
60416	2016-12-19T07:00:00	63.1	ND	ND	ND	1.00	4.06	ND	ND	ND	ND	ND	0
60417	2016-12-19T08:00:00	66.9	ND	ND	ND	0.42	4.89	ND	ND	ND	ND	ND	0
60418	2016-12-19T09:00:00	88.8	ND	ND	ND	0.66	9.54	ND	ND	ND	ND	ND	0
60419	2016-12-19T10:00:00	99	ND	ND	ND	0.84	17.84	ND	ND	ND	ND	ND	0
60420	2016-12-19T11:00:00	90	ND	ND	ND	1.17	27.47	ND	ND	ND	ND	ND	0
60421	2016-12-19T12:00:00	80.4	ND	ND	ND	1.67	42.90	ND	ND	ND	ND	ND	0
60422	2016-12-19T13:00:00	115.2	ND	ND	ND	0.92	77.57	ND	ND	ND	ND	ND	0
60423	2016-12-19T14:00:00	107.7	ND	ND	ND	1.23	101.00	ND	ND	ND	ND	ND	0
60424	2016-12-19T15:00:00	84.4	ND	ND	ND	0.72	73.67	ND	ND	ND	ND	ND	0
60425	2016-12-19T16:00:00	75.9	ND	ND	ND	0.77	57.16	ND	ND	ND	ND	ND	0
60426	2016-12-19T17:00:00	50.9	ND	ND	ND	0.38	17.54	ND	ND	ND	ND	ND	0
60427	2016-12-19T18:00:00	17.6	ND	ND	ND	0.18	10.28	ND	ND	ND	ND	ND	0
60428	2016-12-19T19:00:00	ND	ND	ND	ND	0.03	4.93	ND	ND	ND	ND	ND	0
60429	2016-12-19T20:00:00	ND	ND	ND	ND	0.10	5.73	ND	ND	ND	ND	ND	0
60430	2016-12-19T21:00:00	31.8	ND	ND	ND	0.10	4.40	ND	ND	ND	ND	ND	0
60431	2016-12-19T22:00:00	39.2	ND	ND	ND	0.78	4.45	ND	ND	ND	ND	ND	0
60432	2016-12-19T23:00:00	71.2	ND	ND	ND	0.91	3.14	ND	ND	ND	ND	ND	0
60433	2016-12-20T00:00:00	36.6	ND	ND	ND	0.63	5.36	ND	ND	ND	ND	ND	0
60434	2016-12-20T01:00:00	52.5	ND	ND	ND	1.03	6.99	ND	ND	ND	ND	ND	0
60435	2016-12-20T02:00:00	20.3	ND	ND	ND	2.45	3.45	ND	ND	ND	ND	ND	0
60436	2016-12-20T03:00:00	53.6	ND	ND	ND	1.76	4.57	ND	ND	ND	ND	ND	0
60437	2016-12-20T04:00:00	29	ND	ND	ND	2.12	6.34	ND	ND	ND	ND	ND	0
60438	2016-12-20T05:00:00	61.7	ND	ND	ND	1.56	7.06	ND	ND	ND	ND	ND	0
60439	2016-12-20T06:00:00	26.6	ND	ND	ND	0.93	4.36	ND	ND	ND	ND	ND	0
60440	2016-12-20T07:00:00	67.4	ND	ND	ND	0.38	4.57	ND	ND	ND	ND	ND	0
60441	2016-12-20T08:00:00	104.7	ND	ND	ND	0.15	5.16	ND	ND	ND	ND	ND	0
60442	2016-12-20T09:00:00	121.3	ND	ND	ND	0.14	6.12	ND	ND	ND	ND	ND	0
60443	2016-12-20T10:00:00	122.4	ND	ND	ND	1.02	7.95	ND	ND	ND	ND	ND	0
60444	2016-12-20T11:00:00	83.4	ND	ND	ND	0.61	12.05	ND	ND	ND	ND	ND	0
60445	2016-12-20T12:00:00	67.2	ND	ND	ND	1.18	24.69	ND	ND	ND	ND	ND	0
60446	2016-12-20T13:00:00	98.7	ND	ND	ND	1.05	52.91	ND	ND	ND	ND	ND	0
60447	2016-12-20T14:00:00	93.4	ND	ND	ND	0.79	48.41	ND	ND	ND	ND	ND	0
60448	2016-12-20T15:00:00	66.3	ND	ND	ND	0.50	19.55	ND	ND	ND	ND	ND	2.54
60449	2016-12-20T16:00:00	53.2	ND	ND	ND	0.40	15.56	ND	ND	ND	ND	ND	5.08
60450	2016-12-20T17:00:00	53.5	ND	ND	ND	0.10	10.07	ND	ND	ND	ND	ND	0.25
60451	2016-12-20T18:00:00	41.5	ND	ND	ND	0.00	5.34	ND	ND	ND	ND	ND	0.25
60452	2016-12-20T19:00:00	51.8	ND	ND	ND	0.00	6.34	ND	ND	ND	ND	ND	0.51
60453	2016-12-20T20:00:00	55.4	ND	ND	ND	1.85	6.34	ND	ND	ND	ND	ND	0
60454	2016-12-20T21:00:00	51.8	ND	ND	ND	0.84	4.77	ND	ND	ND	ND	ND	0
60455	2016-12-20T22:00:00	43.5	ND	ND	ND	3.81	4.24	ND	ND	ND	ND	ND	0.25
60456	2016-12-20T23:00:00	63.5	ND	ND	ND	1.74	5.83	ND	ND	ND	ND	ND	0
60457	2016-12-21T00:00:00	38.7	ND	ND	ND	0.29	3.10	ND	ND	ND	ND	ND	0.51
60458	2016-12-21T01:00:00	15.6	ND	ND	ND	0.89	2.79	ND	ND	ND	ND	ND	4.32
60459	2016-12-21T02:00:00	3.9	ND	ND	ND	1.13	2.88	ND	ND	ND	ND	ND	11.94
60460	2016-12-21T03:00:00	0.6	ND	ND	ND	1.13	4.71	ND	ND	ND	ND	ND	6.6
60461	2016-12-21T04:00:00	2.8	ND	ND	ND	1.34	5.46	ND	ND	ND	ND	ND	3.3
60462	2016-12-21T05:00:00	12	ND	ND	ND	1.45	8.30	ND	ND	ND	ND	ND	4.83
60463	2016-12-21T06:00:00	11.2	ND	ND	ND	1.03	4.24	ND	ND	ND	ND	ND	13.21
60464	2016-12-21T07:00:00	2.6	ND	ND	ND	0.71	3.39	ND	ND	ND	ND	ND	6.1
60465	2016-12-21T08:00:00	14.9	ND	ND	ND	0.06	2.90	ND	ND	ND	ND	ND	2.29
60466	2016-12-21T09:00:00	22.8	ND	ND	ND	0.36	4.04	ND	ND	ND	ND	ND	3.3
60467	2016-12-21T10:00:00	25.6	ND	ND	ND	0.68	11.97	ND	ND	ND	ND	ND	0.76
60468	2016-12-21T11:00:00	46	ND	ND	ND	0.57	19.25	ND	ND	ND	ND	ND	1.52
60469	2016-12-21T12:00:00	35.3	ND	ND	ND	0.28	24.10	ND	ND	ND	ND	ND	4.32
60470	2016-12-21T13:00:00	64.1	ND	ND	ND	0.63	20.35	ND	ND	ND	ND	ND	0.25
60471	2016-12-21T14:00:00	80.4	ND	ND	ND	0.96	37.87	ND	ND	ND	ND	ND	0
60472	2016-12-21T15:00:00	23	ND	ND	ND	1.10	37.52	ND	ND	ND	ND	ND	0
60473	2016-12-21T16:00:00	14.4	ND	ND	ND	0.53	17.74	ND	ND	ND	ND	ND	0.51
60474	2016-12-21T17:00:00	4.7	ND	ND	ND	0.18	11.19	ND	ND	ND	ND	ND	0
60475	2016-12-21T18:00:00	23.4	ND	ND	ND	0.03	6.46	ND	ND	ND	ND	ND	0
60476	2016-12-21T19:00:00	99	ND	ND	ND	0.00	5.40	ND	ND	ND	ND	ND	0
60477	2016-12-21T20:00:00	87.1	ND	ND	ND	0.03	4.28	ND	ND	ND	ND	ND	0
60478	2016-12-21T21:00:00	47.4	ND	ND	ND	0.18	4.34	ND	ND	ND	ND	ND	0
60479	2016-12-21T22:00:00	54	ND	ND	ND	0.10	4.30	ND	ND	ND	ND	ND	0
60480	2016-12-21T23:00:00	56	ND	ND	ND	0.47	3.02	ND	ND	ND	ND	ND	0
60481	2016-12-22T00:00:00	18.5	ND	ND	ND	0.39	3.18	ND	ND	ND	ND	ND	0
60482	2016-12-22T01:00:00	39.9	ND	ND	ND	0.50	2.77	ND	ND	ND	ND	ND	0
60483	2016-12-22T02:00:00	24.3	ND	ND	ND	1.06	2.90	ND	ND	ND	ND	ND	0
60484	2016-12-22T03:00:00	5.1	ND	ND	ND	1.05	3.28	ND	ND	ND	ND	ND	0
60485	2016-12-22T04:00:00	19.6	ND	ND	ND	2.17	3.79	ND	ND	ND	ND	ND	0
60486	2016-12-22T05:00:00	31.2	ND	ND	ND	2.34	3.00	ND	ND	ND	ND	ND	0
60487	2016-12-22T06:00:00	37.1	ND	ND	ND	1.41	3.63	ND	ND	ND	ND	ND	0
60488	2016-12-22T07:00:00	45.9	ND	ND	ND	0.36	3.34	ND	ND	ND	ND	ND	0
60489	2016-12-22T08:00:00	49.5	ND	ND	ND	0.29	7.10	ND	ND	ND	ND	ND	0
60490	2016-12-22T09:00:00	104.2	ND	ND	ND	0.29	12.42	ND	ND	ND	ND	ND	0
60491	2016-12-22T10:00:00	70.9	ND	ND	ND	0.35	18.21	ND	ND	ND	ND	ND	0
60492	2016-12-22T11:00:00	64.5	ND	ND	ND	0.32	31.69	ND	ND	ND	ND	ND	0
60493	2016-12-22T12:00:00	47.3	ND	ND	ND	0.91	57.69	ND	ND	ND	ND	ND	0
60494	2016-12-22T13:00:00	46.3	ND	ND	ND	0.64	74.92	ND	ND	ND	ND	ND	0
60495	2016-12-22T14:00:00	45.8	ND	ND	ND	0.54	94.29	ND	ND	ND	ND	ND	0
60496	2016-12-22T15:00:00	76.4	ND	ND	ND	0.70	71.51	ND	ND	ND	ND	ND	0
60497	2016-12-22T16:00:00	71.7	ND	ND	ND	1.05	40.70	ND	ND	ND	ND	ND	0
60498	2016-12-22T17:00:00	20.5	ND	ND	ND	0.74	21.49	ND	ND	ND	ND	ND	0
60499	2016-12-22T18:00:00	50.1	ND	ND	ND	0.32	12.78	ND	ND	ND	ND	ND	0
60500	2016-12-22T19:00:00	ND	ND	ND	ND	0.04	10.22	ND	ND	ND	ND	ND	0
60501	2016-12-22T20:00:00	ND	ND	ND	ND	0.03	3.87	ND	ND	ND	ND	ND	0
60502	2016-12-22T21:00:00	26.5	ND	ND	ND	0.11	3.51	ND	ND	ND	ND	ND	0
60503	2016-12-22T22:00:00	98.2	ND	ND	ND	0.13	5.18	ND	ND	ND	ND	ND	0
60504	2016-12-22T23:00:00	134.3	ND	ND	ND	0.11	5.55	ND	ND	ND	ND	ND	0
60505	2016-12-23T00:00:00	102.2	ND	ND	ND	0.01	4.47	ND	ND	ND	ND	ND	0
60506	2016-12-23T01:00:00	93.3	ND	ND	ND	0.21	5.77	ND	ND	ND	ND	ND	0
60507	2016-12-23T02:00:00	76.9	ND	ND	ND	1.23	2.81	ND	ND	ND	ND	ND	0
60508	2016-12-23T03:00:00	47.4	ND	ND	ND	0.86	3.18	ND	ND	ND	ND	ND	0
60509	2016-12-23T04:00:00	51.4	ND	ND	ND	1.83	2.88	ND	ND	ND	ND	ND	0
60510	2016-12-23T05:00:00	39.3	ND	ND	ND	1.83	3.32	ND	ND	ND	ND	ND	0
60511	2016-12-23T06:00:00	54.3	ND	ND	ND	0.75	5.77	ND	ND	ND	ND	ND	0
60512	2016-12-23T07:00:00	86.3	ND	ND	ND	0.57	5.40	ND	ND	ND	ND	ND	0
60513	2016-12-23T08:00:00	97.9	ND	ND	ND	0.21	6.24	ND	ND	ND	ND	ND	0
60514	2016-12-23T09:00:00	125.1	ND	ND	ND	0.43	8.44	ND	ND	ND	ND	ND	0
60515	2016-12-23T10:00:00	117.4	ND	ND	ND	0.92	17.76	ND	ND	ND	ND	ND	0
60516	2016-12-23T11:00:00	99.2	ND	ND	ND	0.82	34.46	ND	ND	ND	ND	ND	0
60517	2016-12-23T12:00:00	44.6	ND	ND	ND	1.05	61.76	ND	ND	ND	ND	ND	0
60518	2016-12-23T13:00:00	45.3	ND	ND	ND	0.79	97.29	ND	ND	ND	ND	ND	0
60519	2016-12-23T14:00:00	53.5	ND	ND	ND	0.81	129.18	ND	ND	ND	ND	ND	0
60520	2016-12-23T15:00:00	35.4	ND	ND	ND	0.81	84.28	ND	ND	ND	ND	ND	0
60521	2016-12-23T16:00:00	25.3	ND	ND	ND	0.93	34.09	ND	ND	ND	ND	ND	0
60522	2016-12-23T17:00:00	2.2	ND	ND	ND	0.49	16.11	ND	ND	ND	ND	ND	0
60523	2016-12-23T18:00:00	7.8	ND	ND	ND	0.29	9.95	ND	ND	ND	ND	ND	0
60524	2016-12-23T19:00:00	16.7	ND	ND	ND	0.25	8.36	ND	ND	ND	ND	ND	0
60525	2016-12-23T20:00:00	14.7	ND	ND	ND	0.32	6.50	ND	ND	ND	ND	ND	0
60526	2016-12-23T21:00:00	77.1	ND	ND	ND	0.07	3.73	ND	ND	ND	ND	ND	0
60527	2016-12-23T22:00:00	53.5	ND	ND	ND	0.24	4.51	ND	ND	ND	ND	ND	0
60528	2016-12-23T23:00:00	56.2	ND	ND	ND	0.39	3.39	ND	ND	ND	ND	ND	0
60529	2016-12-24T00:00:00	84.3	ND	ND	ND	0.29	2.63	ND	ND	ND	ND	ND	0
60530	2016-12-24T01:00:00	73	ND	ND	ND	0.82	3.26	ND	ND	ND	ND	ND	0
60531	2016-12-24T02:00:00	51.1	ND	ND	ND	0.70	3.22	ND	ND	ND	ND	ND	0
60532	2016-12-24T03:00:00	48	ND	ND	ND	5.27	3.22	ND	ND	ND	ND	ND	0
60533	2016-12-24T04:00:00	30.8	ND	ND	ND	4.14	2.35	ND	ND	ND	ND	ND	0
60534	2016-12-24T05:00:00	16.9	ND	ND	ND	1.39	3.26	ND	ND	ND	ND	ND	0
60535	2016-12-24T06:00:00	12.8	ND	ND	ND	1.00	3.14	ND	ND	ND	ND	ND	0
60536	2016-12-24T07:00:00	46.2	ND	ND	ND	0.22	3.94	ND	ND	ND	ND	ND	0
60537	2016-12-24T08:00:00	73.4	ND	ND	ND	0.33	4.91	ND	ND	ND	ND	ND	0
60538	2016-12-24T09:00:00	78.9	ND	ND	ND	0.52	8.36	ND	ND	ND	ND	ND	0
60539	2016-12-24T10:00:00	93.7	ND	ND	ND	1.32	27.28	ND	ND	ND	ND	ND	0
60540	2016-12-24T11:00:00	81.5	ND	ND	ND	0.63	34.97	ND	ND	ND	ND	ND	0
60541	2016-12-24T12:00:00	48.4	ND	ND	ND	0.96	42.52	ND	ND	ND	ND	ND	0
60542	2016-12-24T13:00:00	24	ND	ND	ND	0.70	48.06	ND	ND	ND	ND	ND	0
60543	2016-12-24T14:00:00	34.8	ND	ND	ND	0.82	49.57	ND	ND	ND	ND	ND	0
60544	2016-12-24T15:00:00	9.5	ND	ND	ND	0.52	33.97	ND	ND	ND	ND	ND	0
60545	2016-12-24T16:00:00	11.3	ND	ND	ND	0.77	30.20	ND	ND	ND	ND	ND	0
60546	2016-12-24T17:00:00	10.5	ND	ND	ND	0.15	12.74	ND	ND	ND	ND	ND	0
60547	2016-12-24T18:00:00	2	ND	ND	ND	0.29	10.05	ND	ND	ND	ND	ND	0
60548	2016-12-24T19:00:00	ND	ND	ND	ND	0.22	7.30	ND	ND	ND	ND	ND	0
60549	2016-12-24T20:00:00	7.3	ND	ND	ND	0.18	6.87	ND	ND	ND	ND	ND	0
60550	2016-12-24T21:00:00	15.1	ND	ND	ND	0.28	5.95	ND	ND	ND	ND	ND	0
60551	2016-12-24T22:00:00	63.2	ND	ND	ND	0.10	3.53	ND	ND	ND	ND	ND	0
60552	2016-12-24T23:00:00	56	ND	ND	ND	0.04	4.12	ND	ND	ND	ND	ND	0
60553	2016-12-25T00:00:00	83.8	ND	ND	ND	0.50	4.89	ND	ND	ND	ND	ND	0
60554	2016-12-25T01:00:00	91.2	ND	ND	ND	4.88	4.49	ND	ND	ND	ND	ND	0
60555	2016-12-25T02:00:00	75.2	ND	ND	ND	3.62	5.10	ND	ND	ND	ND	ND	0
60556	2016-12-25T03:00:00	90	ND	ND	ND	1.66	5.49	ND	ND	ND	ND	ND	0
60557	2016-12-25T04:00:00	68.4	ND	ND	ND	3.25	3.79	ND	ND	ND	ND	ND	0
60558	2016-12-25T05:00:00	46.4	ND	ND	ND	1.31	3.39	ND	ND	ND	ND	ND	0
60559	2016-12-25T06:00:00	38.7	ND	ND	ND	1.39	2.96	ND	ND	ND	ND	ND	0
60560	2016-12-25T07:00:00	68	ND	ND	ND	1.44	4.81	ND	ND	ND	ND	ND	0
60561	2016-12-25T08:00:00	98.8	ND	ND	ND	2.33	7.61	ND	ND	ND	ND	ND	0
60562	2016-12-25T09:00:00	85.2	ND	ND	ND	1.55	16.84	ND	ND	ND	ND	ND	0
60563	2016-12-25T10:00:00	77.7	ND	ND	ND	1.64	35.79	ND	ND	ND	ND	ND	0
60564	2016-12-25T11:00:00	84.7	ND	ND	ND	1.24	47.14	ND	ND	ND	ND	ND	0
60565	2016-12-25T12:00:00	36	ND	ND	ND	1.34	51.26	ND	ND	ND	ND	ND	0
60566	2016-12-25T13:00:00	32.5	ND	ND	ND	1.13	65.99	ND	ND	ND	ND	ND	0
60567	2016-12-25T14:00:00	24.1	ND	ND	ND	1.13	68.25	ND	ND	ND	ND	ND	0
60568	2016-12-25T15:00:00	29.9	ND	ND	ND	0.82	70.90	ND	ND	ND	ND	ND	0
60569	2016-12-25T16:00:00	15.1	ND	ND	ND	0.96	20.47	ND	ND	ND	ND	ND	0
60570	2016-12-25T17:00:00	ND	ND	ND	ND	0.91	14.54	ND	ND	ND	ND	ND	0
60571	2016-12-25T18:00:00	ND	ND	ND	ND	0.96	11.01	ND	ND	ND	ND	ND	0
60572	2016-12-25T19:00:00	ND	ND	ND	ND	0.70	7.10	ND	ND	ND	ND	ND	0
60573	2016-12-25T20:00:00	80.9	ND	ND	ND	0.71	9.44	ND	ND	ND	ND	ND	0
60574	2016-12-25T21:00:00	92.6	ND	ND	ND	0.47	3.85	ND	ND	ND	ND	ND	0
60575	2016-12-25T22:00:00	125.8	ND	ND	ND	0.95	5.08	ND	ND	ND	ND	ND	0
60576	2016-12-25T23:00:00	125.8	ND	ND	ND	0.45	3.59	ND	ND	ND	ND	ND	0
60577	2016-12-26T00:00:00	119.7	ND	ND	ND	0.42	3.38	ND	ND	ND	ND	ND	0
60578	2016-12-26T01:00:00	72.5	ND	ND	ND	0.79	3.73	ND	ND	ND	ND	ND	0
60579	2016-12-26T02:00:00	51.5	ND	ND	ND	1.34	4.16	ND	ND	ND	ND	ND	0
60580	2016-12-26T03:00:00	29.2	ND	ND	ND	1.60	4.36	ND	ND	ND	ND	ND	0
60581	2016-12-26T04:00:00	29.9	ND	ND	ND	1.41	2.87	ND	ND	ND	ND	ND	0
60582	2016-12-26T05:00:00	34.3	ND	ND	ND	1.62	2.98	ND	ND	ND	ND	ND	0
60583	2016-12-26T06:00:00	64.7	ND	ND	ND	1.32	3.00	ND	ND	ND	ND	ND	0
60584	2016-12-26T07:00:00	52.7	ND	ND	ND	1.73	2.92	ND	ND	ND	ND	ND	0
60585	2016-12-26T08:00:00	37.3	ND	ND	ND	0.31	4.55	ND	ND	ND	ND	ND	0
60586	2016-12-26T09:00:00	90.1	ND	ND	ND	2.02	6.02	ND	ND	ND	ND	ND	0
60587	2016-12-26T10:00:00	117.4	ND	ND	ND	2.52	11.44	ND	ND	ND	ND	ND	0
60588	2016-12-26T11:00:00	109.7	ND	ND	ND	1.46	27.00	ND	ND	ND	ND	ND	0
60589	2016-12-26T12:00:00	75.8	ND	ND	ND	1.59	39.48	ND	ND	ND	ND	ND	0
60590	2016-12-26T13:00:00	136.4	ND	ND	ND	1.16	41.70	ND	ND	ND	ND	ND	0
60591	2016-12-26T14:00:00	81.1	ND	ND	ND	0.61	42.98	ND	ND	ND	ND	ND	0
60592	2016-12-26T15:00:00	13.6	ND	ND	ND	1.05	37.83	ND	ND	ND	ND	ND	0
60593	2016-12-26T16:00:00	1	ND	ND	ND	0.81	16.13	ND	ND	ND	ND	ND	0
60594	2016-12-26T17:00:00	21.9	ND	ND	ND	0.61	12.83	ND	ND	ND	ND	ND	0
60595	2016-12-26T18:00:00	16.8	ND	ND	ND	0.42	8.44	ND	ND	ND	ND	ND	0
60596	2016-12-26T19:00:00	35.3	ND	ND	ND	0.18	4.38	ND	ND	ND	ND	ND	0
60597	2016-12-26T20:00:00	89.4	ND	ND	ND	0.18	3.38	ND	ND	ND	ND	ND	0
60598	2016-12-26T21:00:00	64.2	ND	ND	ND	0.46	3.02	ND	ND	ND	ND	ND	0
60599	2016-12-26T22:00:00	53.3	ND	ND	ND	1.18	3.77	ND	ND	ND	ND	ND	0
60600	2016-12-26T23:00:00	39.6	ND	ND	ND	0.93	2.90	ND	ND	ND	ND	ND	0
60601	2016-12-27T00:00:00	32.5	ND	ND	ND	0.74	3.28	ND	ND	ND	ND	ND	0
60602	2016-12-27T01:00:00	39	ND	ND	ND	1.07	3.61	ND	ND	ND	ND	ND	0
60603	2016-12-27T02:00:00	31.4	ND	ND	ND	1.64	8.16	ND	ND	ND	ND	ND	0
60604	2016-12-27T03:00:00	32	ND	ND	ND	1.05	7.04	ND	ND	ND	ND	ND	0
60605	2016-12-27T04:00:00	18	ND	ND	ND	1.38	3.53	ND	ND	ND	ND	ND	0
60606	2016-12-27T05:00:00	38.1	ND	ND	ND	2.20	2.92	ND	ND	ND	ND	ND	0
60607	2016-12-27T06:00:00	40.7	ND	ND	ND	1.24	2.96	ND	ND	ND	ND	ND	0
60608	2016-12-27T07:00:00	58.7	ND	ND	ND	0.56	3.77	ND	ND	ND	ND	ND	0
60609	2016-12-27T08:00:00	59.6	ND	ND	ND	0.77	5.10	ND	ND	ND	ND	ND	0
60610	2016-12-27T09:00:00	82.4	ND	ND	ND	0.32	8.22	ND	ND	ND	ND	ND	0
60611	2016-12-27T10:00:00	94.8	ND	ND	ND	1.73	7.81	ND	ND	ND	ND	ND	0
60612	2016-12-27T11:00:00	52.4	ND	ND	ND	0.95	8.65	ND	ND	ND	ND	ND	0
60613	2016-12-27T12:00:00	26.3	ND	ND	ND	0.81	16.31	ND	ND	ND	ND	ND	0
60614	2016-12-27T13:00:00	22.7	ND	ND	ND	0.68	26.41	ND	ND	ND	ND	ND	0
60615	2016-12-27T14:00:00	40.4	ND	ND	ND	0.91	30.67	ND	ND	ND	ND	ND	0
60616	2016-12-27T15:00:00	49.4	ND	ND	ND	0.46	29.00	ND	ND	ND	ND	ND	0
60617	2016-12-27T16:00:00	57.7	ND	ND	ND	0.22	23.02	ND	ND	ND	ND	ND	0
60618	2016-12-27T17:00:00	38.3	ND	ND	ND	0.49	17.19	ND	ND	ND	ND	ND	0
60619	2016-12-27T18:00:00	32.6	ND	ND	ND	0.21	4.36	ND	ND	ND	ND	ND	0
60620	2016-12-27T19:00:00	57	ND	ND	ND	0.15	4.12	ND	ND	ND	ND	ND	0
60621	2016-12-27T20:00:00	56.5	ND	ND	ND	0.93	4.71	ND	ND	ND	ND	ND	0
60622	2016-12-27T21:00:00	49.3	ND	ND	ND	0.72	4.57	ND	ND	ND	ND	ND	0
60623	2016-12-27T22:00:00	45.1	ND	ND	ND	0.29	3.24	ND	ND	ND	ND	ND	0
60624	2016-12-27T23:00:00	44.2	ND	ND	ND	0.46	2.96	ND	ND	ND	ND	ND	0
60625	2016-12-28T00:00:00	28.9	ND	ND	ND	0.99	2.92	ND	ND	ND	ND	ND	0
60626	2016-12-28T01:00:00	40.9	ND	ND	ND	1.39	3.98	ND	ND	ND	ND	ND	0
60627	2016-12-28T02:00:00	59.8	ND	ND	ND	2.83	3.87	ND	ND	ND	ND	ND	0
60628	2016-12-28T03:00:00	73.3	ND	ND	ND	2.76	4.63	ND	ND	ND	ND	ND	0
60629	2016-12-28T04:00:00	77.2	ND	ND	ND	3.33	3.77	ND	ND	ND	ND	ND	0
60630	2016-12-28T05:00:00	61.7	ND	ND	ND	1.95	3.59	ND	ND	ND	ND	ND	0
60631	2016-12-28T06:00:00	51.3	ND	ND	ND	1.59	3.65	ND	ND	ND	ND	ND	0
60632	2016-12-28T07:00:00	81.4	ND	ND	ND	0.45	4.32	ND	ND	ND	ND	ND	0
60633	2016-12-28T08:00:00	106.6	ND	ND	ND	0.20	5.28	ND	ND	ND	ND	ND	0
60634	2016-12-28T09:00:00	100.3	ND	ND	ND	0.50	8.65	ND	ND	ND	ND	ND	0
60635	2016-12-28T10:00:00	132.5	ND	ND	ND	1.16	22.88	ND	ND	ND	ND	ND	0
60636	2016-12-28T11:00:00	122.4	ND	ND	ND	1.28	47.16	ND	ND	ND	ND	ND	0
60637	2016-12-28T12:00:00	90.1	ND	ND	ND	0.77	76.73	ND	ND	ND	ND	ND	0
60638	2016-12-28T13:00:00	88.5	ND	ND	ND	0.72	83.77	ND	ND	ND	ND	ND	0
60639	2016-12-28T14:00:00	81.2	ND	ND	ND	1.55	83.44	ND	ND	ND	ND	ND	0
60640	2016-12-28T15:00:00	68.2	ND	ND	ND	1.28	74.63	ND	ND	ND	ND	ND	0
60641	2016-12-28T16:00:00	74.9	ND	ND	ND	1.17	52.67	ND	ND	ND	ND	ND	0
60642	2016-12-28T17:00:00	48.4	ND	ND	ND	0.72	27.92	ND	ND	ND	ND	ND	0
60643	2016-12-28T18:00:00	23.6	ND	ND	ND	0.57	14.54	ND	ND	ND	ND	ND	0
60644	2016-12-28T19:00:00	15.2	ND	ND	ND	0.50	9.03	ND	ND	ND	ND	ND	0
60645	2016-12-28T20:00:00	14	ND	ND	ND	0.17	10.64	ND	ND	ND	ND	ND	0
60646	2016-12-28T21:00:00	11.4	ND	ND	ND	0.70	8.42	ND	ND	ND	ND	ND	0
60647	2016-12-28T22:00:00	46	ND	ND	ND	0.22	4.36	ND	ND	ND	ND	ND	0
60648	2016-12-28T23:00:00	29	ND	ND	ND	0.49	6.40	ND	ND	ND	ND	ND	0
60649	2016-12-29T00:00:00	11	ND	ND	ND	0.59	5.79	ND	ND	ND	ND	ND	0
60650	2016-12-29T01:00:00	22.1	ND	ND	ND	1.55	2.55	ND	ND	ND	ND	ND	0
60651	2016-12-29T02:00:00	45.3	ND	ND	ND	1.87	2.24	ND	ND	ND	ND	ND	0
60652	2016-12-29T03:00:00	45.5	ND	ND	ND	1.67	2.34	ND	ND	ND	ND	ND	0
60653	2016-12-29T04:00:00	46.9	ND	ND	ND	2.04	2.90	ND	ND	ND	ND	ND	0
60654	2016-12-29T05:00:00	58.2	ND	ND	ND	2.24	2.43	ND	ND	ND	ND	ND	0
60655	2016-12-29T06:00:00	47.9	ND	ND	ND	1.09	2.83	ND	ND	ND	ND	ND	0
60656	2016-12-29T07:00:00	77.5	ND	ND	ND	0.78	2.90	ND	ND	ND	ND	ND	0
60657	2016-12-29T08:00:00	84.2	ND	ND	ND	0.96	3.73	ND	ND	ND	ND	ND	0
60658	2016-12-29T09:00:00	62.9	ND	ND	ND	0.85	5.02	ND	ND	ND	ND	ND	2.29
60659	2016-12-29T10:00:00	36.5	ND	ND	ND	0.98	11.64	ND	ND	ND	ND	ND	0
60660	2016-12-29T11:00:00	51.1	ND	ND	ND	1.14	27.92	ND	ND	ND	ND	ND	0.25
60661	2016-12-29T12:00:00	77.3	ND	ND	ND	1.27	46.61	ND	ND	ND	ND	ND	0
60662	2016-12-29T13:00:00	74.5	ND	ND	ND	1.17	44.41	ND	ND	ND	ND	ND	0
60663	2016-12-29T14:00:00	70.7	ND	ND	ND	1.16	56.40	ND	ND	ND	ND	ND	0
60664	2016-12-29T15:00:00	71.9	ND	ND	ND	1.25	52.45	ND	ND	ND	ND	ND	0
60665	2016-12-29T16:00:00	42.3	ND	ND	ND	0.70	12.60	ND	ND	ND	ND	ND	0
60666	2016-12-29T17:00:00	26.2	ND	ND	ND	0.35	9.85	ND	ND	ND	ND	ND	0
60667	2016-12-29T18:00:00	15.1	ND	ND	ND	0.40	8.52	ND	ND	ND	ND	ND	0
60668	2016-12-29T19:00:00	14.2	ND	ND	ND	0.52	8.85	ND	ND	ND	ND	ND	0
60669	2016-12-29T20:00:00	14.3	ND	ND	ND	0.22	5.44	ND	ND	ND	ND	ND	0
60670	2016-12-29T21:00:00	14.4	ND	ND	ND	0.49	8.40	ND	ND	ND	ND	ND	0
60671	2016-12-29T22:00:00	42.4	ND	ND	ND	0.74	16.09	ND	ND	ND	ND	ND	0
60672	2016-12-29T23:00:00	33.1	ND	ND	ND	0.78	8.60	ND	ND	ND	ND	ND	0
60673	2016-12-30T00:00:00	21.7	ND	ND	ND	0.68	10.99	ND	ND	ND	ND	ND	0
60674	2016-12-30T01:00:00	3.2	ND	ND	ND	0.50	3.77	ND	ND	ND	ND	ND	0
60675	2016-12-30T02:00:00	22.3	ND	ND	ND	1.59	3.89	ND	ND	ND	ND	ND	0
60676	2016-12-30T03:00:00	28.5	ND	ND	ND	1.87	5.24	ND	ND	ND	ND	ND	0
60677	2016-12-30T04:00:00	33.3	ND	ND	ND	1.21	3.91	ND	ND	ND	ND	ND	0
60678	2016-12-30T05:00:00	38.1	ND	ND	ND	1.67	2.28	ND	ND	ND	ND	ND	0
60679	2016-12-30T06:00:00	46.3	ND	ND	ND	2.27	2.57	ND	ND	ND	ND	ND	0
60680	2016-12-30T07:00:00	43.9	ND	ND	ND	0.85	3.00	ND	ND	ND	ND	ND	0
60681	2016-12-30T08:00:00	43.2	ND	ND	ND	0.38	5.44	ND	ND	ND	ND	ND	0
60682	2016-12-30T09:00:00	88.6	ND	ND	ND	0.46	11.95	ND	ND	ND	ND	ND	0
60683	2016-12-30T10:00:00	80.2	ND	ND	ND	1.10	26.79	ND	ND	ND	ND	ND	0
60684	2016-12-30T11:00:00	46.4	ND	ND	ND	0.95	39.40	ND	ND	ND	ND	ND	0
60685	2016-12-30T12:00:00	47.2	ND	ND	ND	0.60	48.98	ND	ND	ND	ND	ND	0
60686	2016-12-30T13:00:00	37.5	ND	ND	ND	0.70	65.70	ND	ND	ND	ND	ND	0
60687	2016-12-30T14:00:00	39	ND	ND	ND	1.21	82.05	ND	ND	ND	ND	ND	0
60688	2016-12-30T15:00:00	43.7	ND	ND	ND	1.41	91.19	ND	ND	ND	ND	ND	0
60689	2016-12-30T16:00:00	33.8	ND	ND	ND	1.35	62.76	ND	ND	ND	ND	ND	0
60690	2016-12-30T17:00:00	40.2	ND	ND	ND	0.75	23.12	ND	ND	ND	ND	ND	0
60691	2016-12-30T18:00:00	21.8	ND	ND	ND	0.39	13.11	ND	ND	ND	ND	ND	0
60692	2016-12-30T19:00:00	45.4	ND	ND	ND	0.89	12.99	ND	ND	ND	ND	ND	81.53
60693	2016-12-30T20:00:00	34.7	ND	ND	ND	0.49	7.63	ND	ND	ND	ND	ND	6.86
60694	2016-12-30T21:00:00	32.1	ND	ND	ND	0.11	3.83	ND	ND	ND	ND	ND	0
60695	2016-12-30T22:00:00	42.4	ND	ND	ND	0.06	3.69	ND	ND	ND	ND	ND	0
60696	2016-12-30T23:00:00	43.2	ND	ND	ND	0.07	3.69	ND	ND	ND	ND	ND	0
60697	2016-12-31T00:00:00	41.6	ND	ND	ND	0.47	5.81	ND	ND	ND	ND	ND	0
60698	2016-12-31T01:00:00	34.9	ND	ND	ND	0.79	6.02	ND	ND	ND	ND	ND	0
60699	2016-12-31T02:00:00	18.5	ND	ND	ND	1.46	5.61	ND	ND	ND	ND	ND	1.02
60700	2016-12-31T03:00:00	19.9	ND	ND	ND	1.41	4.04	ND	ND	ND	ND	ND	0.51
60701	2016-12-31T04:00:00	24.4	ND	ND	ND	1.00	3.28	ND	ND	ND	ND	ND	0
60702	2016-12-31T05:00:00	21	ND	ND	ND	0.82	2.92	ND	ND	ND	ND	ND	0
60703	2016-12-31T06:00:00	24.3	ND	ND	ND	1.39	2.43	ND	ND	ND	ND	ND	0
60704	2016-12-31T07:00:00	34.2	ND	ND	ND	0.35	4.20	ND	ND	ND	ND	ND	0
60705	2016-12-31T08:00:00	57.1	ND	ND	ND	0.53	4.47	ND	ND	ND	ND	ND	0
60706	2016-12-31T09:00:00	68	ND	ND	ND	1.63	11.73	ND	ND	ND	ND	ND	0.25
60707	2016-12-31T10:00:00	82.6	ND	ND	ND	1.56	17.23	ND	ND	ND	ND	ND	0
60708	2016-12-31T11:00:00	76.6	ND	ND	ND	1.34	21.74	ND	ND	ND	ND	ND	0
60709	2016-12-31T12:00:00	54.3	ND	ND	ND	0.70	28.71	ND	ND	ND	ND	ND	0
60710	2016-12-31T13:00:00	54.8	ND	ND	ND	0.56	25.84	ND	ND	ND	ND	ND	0
60711	2016-12-31T14:00:00	54	ND	ND	ND	1.23	38.01	ND	ND	ND	ND	ND	0
60712	2016-12-31T15:00:00	51.4	ND	ND	ND	1.07	31.54	ND	ND	ND	ND	ND	0
60713	2016-12-31T16:00:00	70.4	ND	ND	ND	0.59	31.46	ND	ND	ND	ND	ND	0
60714	2016-12-31T17:00:00	58.8	ND	ND	ND	0.31	30.89	ND	ND	ND	ND	ND	0
60715	2016-12-31T18:00:00	55.5	ND	ND	ND	0.15	16.60	ND	ND	ND	ND	ND	0
60716	2016-12-31T19:00:00	64.2	ND	ND	ND	0.03	8.52	ND	ND	ND	ND	ND	0
60717	2016-12-31T20:00:00	85.4	ND	ND	ND	0.00	7.26	ND	ND	ND	ND	ND	0
60718	2016-12-31T21:00:00	83.4	ND	ND	ND	0.00	6.02	ND	ND	ND	ND	ND	0
60719	2016-12-31T22:00:00	77.1	ND	ND	ND	0.03	4.81	ND	ND	ND	ND	ND	0
60720	2016-12-31T23:00:00	77.7	ND	ND	ND	0.01	9.60	ND	ND	ND	ND	ND	0
60721	2017-01-01T00:00:00	104.5	ND	ND	ND	0.07	8.87	ND	ND	ND	ND	ND	0
60722	2017-01-01T01:00:00	195.8	ND	ND	ND	0.01	16.15	ND	ND	ND	ND	ND	0
60723	2017-01-01T02:00:00	183.2	ND	ND	ND	0.07	8.77	ND	ND	ND	ND	ND	0
60724	2017-01-01T03:00:00	115.6	ND	ND	ND	0.03	8.79	ND	ND	ND	ND	ND	0
60725	2017-01-01T04:00:00	139.2	ND	ND	ND	0.84	12.30	ND	ND	ND	ND	ND	0
60726	2017-01-01T05:00:00	130.6	ND	ND	ND	0.07	8.05	ND	ND	ND	ND	ND	0
60727	2017-01-01T06:00:00	117.2	ND	ND	ND	0.33	7.59	ND	ND	ND	ND	ND	0
60728	2017-01-01T07:00:00	111.6	ND	ND	ND	3.94	5.38	ND	ND	ND	ND	ND	0
60729	2017-01-01T08:00:00	79	ND	ND	ND	6.73	7.38	ND	ND	ND	ND	ND	0
60730	2017-01-01T09:00:00	78	ND	ND	ND	6.55	14.15	ND	ND	ND	ND	ND	0
60731	2017-01-01T10:00:00	72.2	ND	ND	ND	3.43	32.01	ND	ND	ND	ND	ND	0
60732	2017-01-01T11:00:00	79.7	ND	ND	ND	2.31	68.35	ND	ND	ND	ND	ND	0
60733	2017-01-01T12:00:00	73.6	ND	ND	ND	1.51	72.33	ND	ND	ND	ND	ND	0
60734	2017-01-01T13:00:00	45.4	ND	ND	ND	1.31	68.84	ND	ND	ND	ND	ND	0
60735	2017-01-01T14:00:00	38	ND	ND	ND	1.44	48.14	ND	ND	ND	ND	ND	0
60736	2017-01-01T15:00:00	15.4	ND	ND	ND	1.14	23.94	ND	ND	ND	ND	ND	0
60737	2017-01-01T16:00:00	ND	ND	ND	ND	1.17	21.94	ND	ND	ND	ND	ND	0
60738	2017-01-01T17:00:00	ND	ND	ND	ND	0.96	20.80	ND	ND	ND	ND	ND	0
60739	2017-01-01T18:00:00	5.9	ND	ND	ND	1.12	17.25	ND	ND	ND	ND	ND	0
60740	2017-01-01T19:00:00	13.6	ND	ND	ND	0.92	14.13	ND	ND	ND	ND	ND	0
60741	2017-01-01T20:00:00	21.4	ND	ND	ND	1.16	13.60	ND	ND	ND	ND	ND	0
60742	2017-01-01T21:00:00	25.5	ND	ND	ND	0.98	10.01	ND	ND	ND	ND	ND	0
60743	2017-01-01T22:00:00	20.1	ND	ND	ND	1.10	7.46	ND	ND	ND	ND	ND	0
60744	2017-01-01T23:00:00	27.4	ND	ND	ND	0.89	6.02	ND	ND	ND	ND	ND	0
60745	2017-01-02T00:00:00	20.2	ND	ND	ND	1.10	5.49	ND	ND	ND	ND	ND	0
60746	2017-01-02T01:00:00	1.4	ND	ND	ND	0.99	3.51	ND	ND	ND	ND	ND	0
60747	2017-01-02T02:00:00	9.8	ND	ND	ND	0.91	3.71	ND	ND	ND	ND	ND	0
60748	2017-01-02T03:00:00	13.4	ND	ND	ND	2.05	4.28	ND	ND	ND	ND	ND	0
60749	2017-01-02T04:00:00	23	ND	ND	ND	2.20	5.24	ND	ND	ND	ND	ND	0
60750	2017-01-02T05:00:00	20.3	ND	ND	ND	1.30	3.53	ND	ND	ND	ND	ND	0
60751	2017-01-02T06:00:00	26.6	ND	ND	ND	1.56	2.69	ND	ND	ND	ND	ND	0
60752	2017-01-02T07:00:00	36	ND	ND	ND	1.23	2.87	ND	ND	ND	ND	ND	0
60753	2017-01-02T08:00:00	34.4	ND	ND	ND	0.26	3.69	ND	ND	ND	ND	ND	0
60754	2017-01-02T09:00:00	48.1	ND	ND	ND	0.54	8.56	ND	ND	ND	ND	ND	0
60755	2017-01-02T10:00:00	48	ND	ND	ND	1.09	15.80	ND	ND	ND	ND	ND	0
60756	2017-01-02T11:00:00	39.4	ND	ND	ND	1.17	27.49	ND	ND	ND	ND	ND	0
60757	2017-01-02T12:00:00	56.7	ND	ND	ND	1.42	38.56	ND	ND	ND	ND	ND	0
60758	2017-01-02T13:00:00	44.1	ND	ND	ND	1.13	44.57	ND	ND	ND	ND	ND	0
60759	2017-01-02T14:00:00	44.9	ND	ND	ND	0.93	68.02	ND	ND	ND	ND	ND	0
60760	2017-01-02T15:00:00	48.9	ND	ND	ND	1.20	79.55	ND	ND	ND	ND	ND	0
60761	2017-01-02T16:00:00	73.6	ND	ND	ND	0.70	70.70	ND	ND	ND	ND	ND	0
60762	2017-01-02T17:00:00	45.6	ND	ND	ND	0.75	26.53	ND	ND	ND	ND	ND	0
60763	2017-01-02T18:00:00	31.3	ND	ND	ND	0.46	14.03	ND	ND	ND	ND	ND	0
60764	2017-01-02T19:00:00	19	ND	ND	ND	0.39	8.22	ND	ND	ND	ND	ND	0
60765	2017-01-02T20:00:00	5.9	ND	ND	ND	0.75	6.99	ND	ND	ND	ND	ND	0
60766	2017-01-02T21:00:00	14.8	ND	ND	ND	0.46	5.97	ND	ND	ND	ND	ND	0
60767	2017-01-02T22:00:00	21.3	ND	ND	ND	0.54	4.42	ND	ND	ND	ND	ND	0
60768	2017-01-02T23:00:00	24.1	ND	ND	ND	0.91	8.16	ND	ND	ND	ND	ND	0
60769	2017-01-03T00:00:00	19.8	ND	ND	ND	0.92	7.36	ND	ND	ND	ND	ND	0
60770	2017-01-03T01:00:00	36.7	ND	ND	ND	0.82	4.18	ND	ND	ND	ND	ND	0
60771	2017-01-03T02:00:00	43.2	ND	ND	ND	1.12	7.71	ND	ND	ND	ND	ND	0
60772	2017-01-03T03:00:00	37.7	ND	ND	ND	1.56	5.28	ND	ND	ND	ND	ND	0
60773	2017-01-03T04:00:00	25.8	ND	ND	ND	2.66	3.57	ND	ND	ND	ND	ND	0
60774	2017-01-03T05:00:00	35	ND	ND	ND	2.08	2.77	ND	ND	ND	ND	ND	0
60775	2017-01-03T06:00:00	48.9	ND	ND	ND	1.74	3.24	ND	ND	ND	ND	ND	0
60776	2017-01-03T07:00:00	59	ND	ND	ND	1.45	3.20	ND	ND	ND	ND	ND	0
60777	2017-01-03T08:00:00	64.8	ND	ND	ND	0.89	4.85	ND	ND	ND	ND	ND	0
60778	2017-01-03T09:00:00	81.3	ND	ND	ND	0.43	7.99	ND	ND	ND	ND	ND	0
60779	2017-01-03T10:00:00	78.9	ND	ND	ND	1.14	30.63	ND	ND	ND	ND	ND	0
60780	2017-01-03T11:00:00	60.2	ND	ND	ND	0.75	49.14	ND	ND	ND	ND	ND	0
60781	2017-01-03T12:00:00	60.2	ND	ND	ND	0.92	74.84	ND	ND	ND	ND	ND	0
60782	2017-01-03T13:00:00	72.7	ND	ND	ND	1.17	92.27	ND	ND	ND	ND	ND	0
60783	2017-01-03T14:00:00	61.6	ND	ND	ND	1.03	70.86	ND	ND	ND	ND	ND	0
60784	2017-01-03T15:00:00	48.9	ND	ND	ND	0.88	56.87	ND	ND	ND	ND	ND	0
60785	2017-01-03T16:00:00	34.4	ND	ND	ND	0.95	23.29	ND	ND	ND	ND	ND	0
60786	2017-01-03T17:00:00	27.4	ND	ND	ND	0.85	17.86	ND	ND	ND	ND	ND	0
60787	2017-01-03T18:00:00	27.2	ND	ND	ND	0.66	13.52	ND	ND	ND	ND	ND	0
60788	2017-01-03T19:00:00	13.7	ND	ND	ND	0.77	10.75	ND	ND	ND	ND	ND	0
60789	2017-01-03T20:00:00	17.1	ND	ND	ND	0.50	11.11	ND	ND	ND	ND	ND	0
60790	2017-01-03T21:00:00	15.6	ND	ND	ND	0.86	12.30	ND	ND	ND	ND	ND	0
60791	2017-01-03T22:00:00	10.2	ND	ND	ND	0.79	10.18	ND	ND	ND	ND	ND	0
60792	2017-01-03T23:00:00	20.6	ND	ND	ND	0.99	5.10	ND	ND	ND	ND	ND	0
60793	2017-01-04T00:00:00	10.5	ND	ND	ND	1.21	9.62	ND	ND	ND	ND	ND	0
60794	2017-01-04T01:00:00	15.9	ND	ND	ND	1.39	3.96	ND	ND	ND	ND	ND	0
60795	2017-01-04T02:00:00	31.7	ND	ND	ND	1.85	2.57	ND	ND	ND	ND	ND	0
60796	2017-01-04T03:00:00	26.9	ND	ND	ND	2.08	6.14	ND	ND	ND	ND	ND	0
60797	2017-01-04T04:00:00	25.6	ND	ND	ND	1.56	6.10	ND	ND	ND	ND	ND	0
60798	2017-01-04T05:00:00	12.9	ND	ND	ND	ND	6.00	ND	ND	ND	ND	ND	0
60799	2017-01-04T06:00:00	18.6	ND	ND	ND	1.21	6.12	ND	ND	ND	ND	ND	0.76
60800	2017-01-04T07:00:00	33.8	ND	ND	ND	0.71	3.73	ND	ND	ND	ND	ND	0.25
60801	2017-01-04T08:00:00	33	ND	ND	ND	1.28	3.91	ND	ND	ND	ND	ND	0
60802	2017-01-04T09:00:00	53.2	ND	ND	ND	1.34	4.32	ND	ND	ND	ND	ND	0
60803	2017-01-04T10:00:00	ND	ND	ND	ND	1.02	6.34	ND	ND	ND	ND	ND	0
60804	2017-01-04T11:00:00	15.3	ND	ND	ND	1.14	12.66	ND	ND	ND	ND	ND	0
60805	2017-01-04T12:00:00	16.3	ND	ND	ND	ND	30.73	ND	ND	ND	ND	ND	0
60806	2017-01-04T13:00:00	48.4	ND	ND	ND	1.58	63.15	ND	ND	ND	ND	ND	0
60807	2017-01-04T14:00:00	89.6	ND	ND	ND	0.99	66.50	ND	ND	ND	ND	ND	0
60808	2017-01-04T15:00:00	62.2	ND	ND	ND	0.85	37.76	ND	ND	ND	ND	ND	0
60809	2017-01-04T16:00:00	48.1	ND	ND	ND	0.81	34.44	ND	ND	ND	ND	ND	0
60810	2017-01-04T17:00:00	45.1	ND	ND	ND	1.45	18.98	ND	ND	ND	ND	ND	0
60811	2017-01-04T18:00:00	36.1	ND	ND	ND	1.32	9.91	ND	ND	ND	ND	ND	0
60812	2017-01-04T19:00:00	49.4	ND	ND	ND	0.29	5.12	ND	ND	ND	ND	ND	0
60813	2017-01-04T20:00:00	56	ND	ND	ND	0.39	4.77	ND	ND	ND	ND	ND	0
60814	2017-01-04T21:00:00	34.3	ND	ND	ND	0.47	6.52	ND	ND	ND	ND	ND	0
60815	2017-01-04T22:00:00	43.7	ND	ND	ND	0.54	3.69	ND	ND	ND	ND	ND	0
60816	2017-01-04T23:00:00	53.4	ND	ND	ND	0.59	3.34	ND	ND	ND	ND	ND	0
60817	2017-01-05T00:00:00	41.5	ND	ND	ND	0.52	3.34	ND	ND	ND	ND	ND	0
60818	2017-01-05T01:00:00	45.1	ND	ND	ND	0.74	3.57	ND	ND	ND	ND	ND	0
60819	2017-01-05T02:00:00	38.3	ND	ND	ND	1.44	7.08	ND	ND	ND	ND	ND	0
60820	2017-01-05T03:00:00	24.2	ND	ND	ND	2.27	4.49	ND	ND	ND	ND	ND	0
60821	2017-01-05T04:00:00	59.5	ND	ND	ND	2.36	3.83	ND	ND	ND	ND	ND	0
60822	2017-01-05T05:00:00	44.3	ND	ND	ND	2.61	4.47	ND	ND	ND	ND	ND	0
60823	2017-01-05T06:00:00	34.9	ND	ND	ND	ND	3.24	ND	ND	ND	ND	ND	0
60824	2017-01-05T07:00:00	41.5	ND	ND	ND	ND	3.83	ND	ND	ND	ND	ND	0
60825	2017-01-05T08:00:00	56.2	ND	ND	ND	0.46	5.83	ND	ND	ND	ND	ND	0
60826	2017-01-05T09:00:00	82.2	ND	ND	ND	0.64	6.24	ND	ND	ND	ND	ND	0
60827	2017-01-05T10:00:00	109.3	ND	ND	ND	1.06	5.69	ND	ND	ND	ND	ND	0
60828	2017-01-05T11:00:00	70.9	ND	ND	ND	1.63	6.00	ND	ND	ND	ND	ND	0
60829	2017-01-05T12:00:00	37.8	ND	ND	ND	1.30	13.62	ND	ND	ND	ND	ND	0
60830	2017-01-05T13:00:00	34.2	ND	ND	ND	1.13	17.68	ND	ND	ND	ND	ND	0
60831	2017-01-05T14:00:00	41.2	ND	ND	ND	1.90	10.13	ND	ND	ND	ND	ND	0
60832	2017-01-05T15:00:00	46.6	ND	ND	ND	2.36	23.86	ND	ND	ND	ND	ND	0
60833	2017-01-05T16:00:00	51.5	ND	ND	ND	2.09	29.95	ND	ND	ND	ND	ND	0
60834	2017-01-05T17:00:00	58.3	ND	ND	ND	1.42	26.69	ND	ND	ND	ND	ND	0
60835	2017-01-05T18:00:00	90.1	ND	ND	ND	0.81	16.62	ND	ND	ND	ND	ND	0
60836	2017-01-05T19:00:00	47.1	ND	ND	ND	0.07	9.44	ND	ND	ND	ND	ND	0
60837	2017-01-05T20:00:00	65.5	ND	ND	ND	0.01	6.38	ND	ND	ND	ND	ND	0
60838	2017-01-05T21:00:00	69.4	ND	ND	ND	0.22	5.59	ND	ND	ND	ND	ND	0
60839	2017-01-05T22:00:00	72.3	ND	ND	ND	0.26	3.91	ND	ND	ND	ND	ND	0
60840	2017-01-05T23:00:00	54.1	ND	ND	ND	0.52	3.20	ND	ND	ND	ND	ND	0
60841	2017-01-06T00:00:00	25.6	ND	ND	ND	1.03	3.79	ND	ND	ND	ND	ND	0
60842	2017-01-06T01:00:00	28.5	ND	ND	ND	3.85	6.02	ND	ND	ND	ND	ND	0
60843	2017-01-06T02:00:00	60.8	ND	ND	ND	2.76	6.08	ND	ND	ND	ND	ND	0
60844	2017-01-06T03:00:00	62.7	ND	ND	ND	2.56	3.87	ND	ND	ND	ND	ND	0
60845	2017-01-06T04:00:00	41.4	ND	ND	ND	6.26	3.30	ND	ND	ND	ND	ND	0
60846	2017-01-06T05:00:00	38.7	ND	ND	ND	2.63	3.08	ND	ND	ND	ND	ND	0
60847	2017-01-06T06:00:00	52.2	ND	ND	ND	1.24	3.39	ND	ND	ND	ND	ND	0
60848	2017-01-06T07:00:00	50.8	ND	ND	ND	0.70	3.61	ND	ND	ND	ND	ND	0
60849	2017-01-06T08:00:00	52.9	ND	ND	ND	0.15	4.10	ND	ND	ND	ND	ND	0
60850	2017-01-06T09:00:00	48.2	ND	ND	ND	0.68	9.48	ND	ND	ND	ND	ND	0
60851	2017-01-06T10:00:00	95.6	ND	ND	ND	1.35	19.74	ND	ND	ND	ND	ND	0
60852	2017-01-06T11:00:00	105	ND	ND	ND	0.99	40.09	ND	ND	ND	ND	ND	0
60853	2017-01-06T12:00:00	89.1	ND	ND	ND	1.44	81.83	ND	ND	ND	ND	ND	0
60854	2017-01-06T13:00:00	94.7	ND	ND	ND	1.00	100.81	ND	ND	ND	ND	ND	0
60855	2017-01-06T14:00:00	83.5	ND	ND	ND	1.02	80.93	ND	ND	ND	ND	ND	0
60856	2017-01-06T15:00:00	56.1	ND	ND	ND	1.14	66.82	ND	ND	ND	ND	ND	0
60857	2017-01-06T16:00:00	62	ND	ND	ND	0.56	35.44	ND	ND	ND	ND	ND	0
60858	2017-01-06T17:00:00	39.2	ND	ND	ND	0.81	17.50	ND	ND	ND	ND	ND	0
60859	2017-01-06T18:00:00	14.2	ND	ND	ND	0.54	13.60	ND	ND	ND	ND	ND	0
60860	2017-01-06T19:00:00	16.6	ND	ND	ND	0.52	14.40	ND	ND	ND	ND	ND	0
60861	2017-01-06T20:00:00	16.4	ND	ND	ND	0.57	12.58	ND	ND	ND	ND	ND	0
60862	2017-01-06T21:00:00	24.7	ND	ND	ND	0.66	7.42	ND	ND	ND	ND	ND	0
60863	2017-01-06T22:00:00	38.2	ND	ND	ND	0.67	3.59	ND	ND	ND	ND	ND	0
60864	2017-01-06T23:00:00	43.8	ND	ND	ND	0.71	8.71	ND	ND	ND	ND	ND	0
60865	2017-01-07T00:00:00	19.5	ND	ND	ND	0.54	7.32	ND	ND	ND	ND	ND	0
60866	2017-01-07T01:00:00	46.3	ND	ND	ND	0.56	4.36	ND	ND	ND	ND	ND	0
60867	2017-01-07T02:00:00	45.6	ND	ND	ND	1.71	2.59	ND	ND	ND	ND	ND	0
60868	2017-01-07T03:00:00	46.3	ND	ND	ND	2.51	3.47	ND	ND	ND	ND	ND	0
60869	2017-01-07T04:00:00	49.8	ND	ND	ND	2.33	3.02	ND	ND	ND	ND	ND	0
60870	2017-01-07T05:00:00	45.1	ND	ND	ND	2.58	3.12	ND	ND	ND	ND	ND	0
60871	2017-01-07T06:00:00	59.1	ND	ND	ND	1.67	2.94	ND	ND	ND	ND	ND	0
60872	2017-01-07T07:00:00	70.8	ND	ND	ND	0.84	3.06	ND	ND	ND	ND	ND	0
60873	2017-01-07T08:00:00	65.5	ND	ND	ND	0.22	4.14	ND	ND	ND	ND	ND	0
60874	2017-01-07T09:00:00	78.3	ND	ND	ND	0.61	10.48	ND	ND	ND	ND	ND	0
60875	2017-01-07T10:00:00	79.3	ND	ND	ND	1.21	27.53	ND	ND	ND	ND	ND	0
60876	2017-01-07T11:00:00	89.1	ND	ND	ND	0.95	38.91	ND	ND	ND	ND	ND	0
60877	2017-01-07T12:00:00	97	ND	ND	ND	1.05	54.42	ND	ND	ND	ND	ND	0
60878	2017-01-07T13:00:00	61.6	ND	ND	ND	1.37	77.47	ND	ND	ND	ND	ND	0
60879	2017-01-07T14:00:00	54.2	ND	ND	ND	0.84	93.72	ND	ND	ND	ND	ND	0
60880	2017-01-07T15:00:00	79.3	ND	ND	ND	1.30	88.25	ND	ND	ND	ND	ND	0
60881	2017-01-07T16:00:00	34.9	ND	ND	ND	0.91	42.84	ND	ND	ND	ND	ND	0
60882	2017-01-07T17:00:00	31.8	ND	ND	ND	0.64	22.51	ND	ND	ND	ND	ND	0
60883	2017-01-07T18:00:00	18.1	ND	ND	ND	0.68	18.66	ND	ND	ND	ND	ND	0
60884	2017-01-07T19:00:00	7.1	ND	ND	ND	0.70	16.88	ND	ND	ND	ND	ND	0
60885	2017-01-07T20:00:00	14.2	ND	ND	ND	0.64	17.07	ND	ND	ND	ND	ND	0
60886	2017-01-07T21:00:00	21	ND	ND	ND	0.98	12.62	ND	ND	ND	ND	ND	0
60887	2017-01-07T22:00:00	13.1	ND	ND	ND	0.68	13.07	ND	ND	ND	ND	ND	0
60888	2017-01-07T23:00:00	16.9	ND	ND	ND	0.78	13.50	ND	ND	ND	ND	ND	0
60889	2017-01-08T00:00:00	20.9	ND	ND	ND	0.84	14.95	ND	ND	ND	ND	ND	0
60890	2017-01-08T01:00:00	12.3	ND	ND	ND	1.27	17.48	ND	ND	ND	ND	ND	83.82
60891	2017-01-08T02:00:00	5.8	ND	ND	ND	1.55	8.58	ND	ND	ND	ND	ND	16.76
60892	2017-01-08T03:00:00	12	ND	ND	ND	1.14	8.01	ND	ND	ND	ND	ND	1.52
60893	2017-01-08T04:00:00	18.1	ND	ND	ND	1.81	3.10	ND	ND	ND	ND	ND	0.51
60894	2017-01-08T05:00:00	22.8	ND	ND	ND	2.26	5.34	ND	ND	ND	ND	ND	1.78
60895	2017-01-08T06:00:00	27.4	ND	ND	ND	3.22	3.20	ND	ND	ND	ND	ND	5.08
60896	2017-01-08T07:00:00	27.9	ND	ND	ND	4.80	2.14	ND	ND	ND	ND	ND	6.6
60897	2017-01-08T08:00:00	16.3	ND	ND	ND	1.91	2.94	ND	ND	ND	ND	ND	4.57
60898	2017-01-08T09:00:00	21.3	ND	ND	ND	1.10	4.43	ND	ND	ND	ND	ND	1.02
60899	2017-01-08T10:00:00	38	ND	ND	ND	1.87	7.77	ND	ND	ND	ND	ND	0
60900	2017-01-08T11:00:00	46.9	ND	ND	ND	0.95	10.95	ND	ND	ND	ND	ND	0.25
60901	2017-01-08T12:00:00	34.7	ND	ND	ND	0.81	18.23	ND	ND	ND	ND	ND	0
60902	2017-01-08T13:00:00	39.5	ND	ND	ND	1.25	34.42	ND	ND	ND	ND	ND	0
60903	2017-01-08T14:00:00	43.5	ND	ND	ND	1.24	39.56	ND	ND	ND	ND	ND	0
60904	2017-01-08T15:00:00	38.7	ND	ND	ND	2.68	29.00	ND	ND	ND	ND	ND	0
60905	2017-01-08T16:00:00	39.4	ND	ND	ND	1.38	25.28	ND	ND	ND	ND	ND	0
60906	2017-01-08T17:00:00	30.7	ND	ND	ND	0.89	12.68	ND	ND	ND	ND	ND	0
60907	2017-01-08T18:00:00	20.5	ND	ND	ND	1.18	8.01	ND	ND	ND	ND	ND	0
60908	2017-01-08T19:00:00	30.1	ND	ND	ND	0.63	6.08	ND	ND	ND	ND	ND	0
60909	2017-01-08T20:00:00	43.6	ND	ND	ND	0.45	5.30	ND	ND	ND	ND	ND	0
60910	2017-01-08T21:00:00	61.6	ND	ND	ND	0.67	4.61	ND	ND	ND	ND	ND	0
60911	2017-01-08T22:00:00	47.6	ND	ND	ND	0.47	3.24	ND	ND	ND	ND	ND	0
60912	2017-01-08T23:00:00	41.7	ND	ND	ND	0.43	3.10	ND	ND	ND	ND	ND	0
60913	2017-01-09T00:00:00	41.6	ND	ND	ND	3.36	3.61	ND	ND	ND	ND	ND	0
60914	2017-01-09T01:00:00	62.4	ND	ND	ND	2.23	3.43	ND	ND	ND	ND	ND	0
60915	2017-01-09T02:00:00	44	ND	ND	ND	1.41	3.36	ND	ND	ND	ND	ND	0
60916	2017-01-09T03:00:00	49.9	ND	ND	ND	1.44	2.69	ND	ND	ND	ND	ND	0
60917	2017-01-09T04:00:00	37.9	ND	ND	ND	0.99	2.10	ND	ND	ND	ND	ND	0
60918	2017-01-09T05:00:00	6.6	ND	ND	ND	1.13	2.57	ND	ND	ND	ND	ND	0
60919	2017-01-09T06:00:00	0.5	ND	ND	ND	1.21	2.85	ND	ND	ND	ND	ND	0
60920	2017-01-09T07:00:00	6.9	ND	ND	ND	0.91	2.55	ND	ND	ND	ND	ND	0
60921	2017-01-09T08:00:00	65.2	ND	ND	ND	1.10	4.96	ND	ND	ND	ND	ND	0
60922	2017-01-09T09:00:00	102.8	ND	ND	ND	1.52	8.95	ND	ND	ND	ND	ND	0
60923	2017-01-09T10:00:00	90.9	ND	ND	ND	3.96	31.16	ND	ND	ND	ND	ND	0
60924	2017-01-09T11:00:00	61.1	ND	ND	ND	0.98	40.42	ND	ND	ND	ND	ND	0
60925	2017-01-09T12:00:00	40.5	ND	ND	ND	0.98	45.06	ND	ND	ND	ND	ND	0
60926	2017-01-09T13:00:00	37.8	ND	ND	ND	1.32	65.03	ND	ND	ND	ND	ND	0
60927	2017-01-09T14:00:00	48.1	ND	ND	ND	1.59	73.27	ND	ND	ND	ND	ND	0
60928	2017-01-09T15:00:00	32.9	ND	ND	ND	1.32	35.11	ND	ND	ND	ND	ND	0
60929	2017-01-09T16:00:00	6.2	ND	ND	ND	1.23	32.65	ND	ND	ND	ND	ND	0
60930	2017-01-09T17:00:00	ND	ND	ND	ND	0.85	21.23	ND	ND	ND	ND	ND	0
60931	2017-01-09T18:00:00	9.1	ND	ND	ND	0.61	12.79	ND	ND	ND	ND	ND	0
60932	2017-01-09T19:00:00	22.9	ND	ND	ND	0.64	9.99	ND	ND	ND	ND	ND	0
60933	2017-01-09T20:00:00	28.2	ND	ND	ND	1.21	18.76	ND	ND	ND	ND	ND	0.25
60934	2017-01-09T21:00:00	65.7	ND	ND	ND	0.66	8.07	ND	ND	ND	ND	ND	1.78
60935	2017-01-09T22:00:00	41.6	ND	ND	ND	0.43	3.81	ND	ND	ND	ND	ND	0.76
60936	2017-01-09T23:00:00	32.5	ND	ND	ND	0.22	2.92	ND	ND	ND	ND	ND	0.51
60937	2017-01-10T00:00:00	31.1	ND	ND	ND	0.60	2.94	ND	ND	ND	ND	ND	0.76
60938	2017-01-10T01:00:00	26.6	ND	ND	ND	0.95	2.57	ND	ND	ND	ND	ND	0.25
60939	2017-01-10T02:00:00	23.2	ND	ND	ND	1.06	3.12	ND	ND	ND	ND	ND	0.51
60940	2017-01-10T03:00:00	18	ND	ND	ND	1.45	3.26	ND	ND	ND	ND	ND	0
60941	2017-01-10T04:00:00	20.9	ND	ND	ND	2.10	3.71	ND	ND	ND	ND	ND	0.25
60942	2017-01-10T05:00:00	34.5	ND	ND	ND	2.01	3.30	ND	ND	ND	ND	ND	0
60943	2017-01-10T06:00:00	44.1	ND	ND	ND	1.52	3.63	ND	ND	ND	ND	ND	0
60944	2017-01-10T07:00:00	66.6	ND	ND	ND	1.13	4.14	ND	ND	ND	ND	ND	0
60945	2017-01-10T08:00:00	61.3	ND	ND	ND	0.21	4.32	ND	ND	ND	ND	ND	0
60946	2017-01-10T09:00:00	59.9	ND	ND	ND	0.25	9.54	ND	ND	ND	ND	ND	0
60947	2017-01-10T10:00:00	63.5	ND	ND	ND	0.74	19.17	ND	ND	ND	ND	ND	0
60948	2017-01-10T11:00:00	50.2	ND	ND	ND	0.92	26.34	ND	ND	ND	ND	ND	0
60949	2017-01-10T12:00:00	31.6	ND	ND	ND	0.98	38.68	ND	ND	ND	ND	ND	0
60950	2017-01-10T13:00:00	25.8	ND	ND	ND	0.81	49.14	ND	ND	ND	ND	ND	0
60951	2017-01-10T14:00:00	45.1	ND	ND	ND	0.86	82.18	ND	ND	ND	ND	ND	0
60952	2017-01-10T15:00:00	43	ND	ND	ND	0.71	89.84	ND	ND	ND	ND	ND	0
60953	2017-01-10T16:00:00	76.3	ND	ND	ND	0.56	40.60	ND	ND	ND	ND	ND	0
60954	2017-01-10T17:00:00	87	ND	ND	ND	0.31	20.00	ND	ND	ND	ND	ND	0
60955	2017-01-10T18:00:00	54.1	ND	ND	ND	0.20	7.79	ND	ND	ND	ND	ND	0
60956	2017-01-10T19:00:00	19.4	ND	ND	ND	0.20	6.77	ND	ND	ND	ND	ND	0
60957	2017-01-10T20:00:00	10.1	ND	ND	ND	0.18	9.97	ND	ND	ND	ND	ND	0
60958	2017-01-10T21:00:00	3.2	ND	ND	ND	0.82	9.50	ND	ND	ND	ND	ND	0
60959	2017-01-10T22:00:00	35.9	ND	ND	ND	0.50	2.98	ND	ND	ND	ND	ND	0
60960	2017-01-10T23:00:00	60.3	ND	ND	ND	0.52	2.55	ND	ND	ND	ND	ND	0
60961	2017-01-11T00:00:00	46	ND	ND	ND	0.85	3.89	ND	ND	ND	ND	ND	0
60962	2017-01-11T01:00:00	34.8	ND	ND	ND	1.73	8.48	ND	ND	ND	ND	ND	0
60963	2017-01-11T02:00:00	32.2	ND	ND	ND	1.39	13.32	ND	ND	ND	ND	ND	0
60964	2017-01-11T03:00:00	31	ND	ND	ND	1.12	10.89	ND	ND	ND	ND	ND	0
60965	2017-01-11T04:00:00	17.8	ND	ND	ND	1.38	13.03	ND	ND	ND	ND	ND	0
60966	2017-01-11T05:00:00	18	ND	ND	ND	1.28	8.89	ND	ND	ND	ND	ND	0
60967	2017-01-11T06:00:00	11.5	ND	ND	ND	0.85	4.85	ND	ND	ND	ND	ND	0
60968	2017-01-11T07:00:00	19.8	ND	ND	ND	0.24	4.16	ND	ND	ND	ND	ND	0
60969	2017-01-11T08:00:00	52.7	ND	ND	ND	0.14	4.57	ND	ND	ND	ND	ND	0
60970	2017-01-11T09:00:00	58.7	ND	ND	ND	0.59	6.44	ND	ND	ND	ND	ND	0
60971	2017-01-11T10:00:00	45.2	ND	ND	ND	0.46	6.65	ND	ND	ND	ND	ND	3.81
60972	2017-01-11T11:00:00	41.6	ND	ND	ND	0.47	12.83	ND	ND	ND	ND	ND	0.25
60973	2017-01-11T12:00:00	40.9	ND	ND	ND	0.88	33.14	ND	ND	ND	ND	ND	0
60974	2017-01-11T13:00:00	51.5	ND	ND	ND	0.84	43.53	ND	ND	ND	ND	ND	0
60975	2017-01-11T14:00:00	29.6	ND	ND	ND	0.89	51.85	ND	ND	ND	ND	ND	0
60976	2017-01-11T15:00:00	51.9	ND	ND	ND	0.70	48.29	ND	ND	ND	ND	ND	0
60977	2017-01-11T16:00:00	44.4	ND	ND	ND	0.75	63.05	ND	ND	ND	ND	ND	0
60978	2017-01-11T17:00:00	38.6	ND	ND	ND	0.72	33.22	ND	ND	ND	ND	ND	27.43
60979	2017-01-11T18:00:00	27.9	ND	ND	ND	0.01	6.38	ND	ND	ND	ND	ND	0.25
60980	2017-01-11T19:00:00	45.5	ND	ND	ND	0.00	5.22	ND	ND	ND	ND	ND	0
60981	2017-01-11T20:00:00	73	ND	ND	ND	0.07	5.81	ND	ND	ND	ND	ND	0
60982	2017-01-11T21:00:00	78.6	ND	ND	ND	0.33	4.71	ND	ND	ND	ND	ND	0
60983	2017-01-11T22:00:00	48.4	ND	ND	ND	0.60	4.16	ND	ND	ND	ND	ND	0
60984	2017-01-11T23:00:00	34.5	ND	ND	ND	0.53	4.20	ND	ND	ND	ND	ND	0
60985	2017-01-12T00:00:00	39.3	ND	ND	ND	0.70	3.04	ND	ND	ND	ND	ND	0
60986	2017-01-12T01:00:00	26.2	ND	ND	ND	1.09	7.65	ND	ND	ND	ND	ND	0
60987	2017-01-12T02:00:00	5.3	ND	ND	ND	1.21	9.26	ND	ND	ND	ND	ND	20.57
60988	2017-01-12T03:00:00	7.4	ND	ND	ND	1.07	11.22	ND	ND	ND	ND	ND	9.65
60989	2017-01-12T04:00:00	8.3	ND	ND	ND	1.31	5.32	ND	ND	ND	ND	ND	2.79
60990	2017-01-12T05:00:00	12.6	ND	ND	ND	1.16	4.83	ND	ND	ND	ND	ND	0.25
60991	2017-01-12T06:00:00	4.6	ND	ND	ND	0.93	3.08	ND	ND	ND	ND	ND	0
60992	2017-01-12T07:00:00	26.3	ND	ND	ND	0.24	4.06	ND	ND	ND	ND	ND	0
60993	2017-01-12T08:00:00	47.3	ND	ND	ND	0.18	5.24	ND	ND	ND	ND	ND	0.25
60994	2017-01-12T09:00:00	63.9	ND	ND	ND	1.05	5.26	ND	ND	ND	ND	ND	0
60995	2017-01-12T10:00:00	80.9	ND	ND	ND	1.06	12.99	ND	ND	ND	ND	ND	0
60996	2017-01-12T11:00:00	84.1	ND	ND	ND	1.23	37.13	ND	ND	ND	ND	ND	0
60997	2017-01-12T12:00:00	78.3	ND	ND	ND	0.88	60.30	ND	ND	ND	ND	ND	0
60998	2017-01-12T13:00:00	66.7	ND	ND	ND	0.68	70.84	ND	ND	ND	ND	ND	0
60999	2017-01-12T14:00:00	51	ND	ND	ND	0.93	54.51	ND	ND	ND	ND	ND	0
61000	2017-01-12T15:00:00	42.2	ND	ND	ND	0.95	61.64	ND	ND	ND	ND	ND	0
61001	2017-01-12T16:00:00	49.8	ND	ND	ND	0.52	51.55	ND	ND	ND	ND	ND	0
61002	2017-01-12T17:00:00	65.9	ND	ND	ND	1.00	61.46	ND	ND	ND	ND	ND	0
61003	2017-01-12T18:00:00	50.1	ND	ND	ND	0.35	10.68	ND	ND	ND	ND	ND	0
61004	2017-01-12T19:00:00	43	ND	ND	ND	0.42	9.46	ND	ND	ND	ND	ND	0
61005	2017-01-12T20:00:00	29.4	ND	ND	ND	0.49	10.85	ND	ND	ND	ND	ND	0
61006	2017-01-12T21:00:00	20.7	ND	ND	ND	0.93	11.68	ND	ND	ND	ND	ND	0
61007	2017-01-12T22:00:00	4.6	ND	ND	ND	0.40	7.81	ND	ND	ND	ND	ND	0
61008	2017-01-12T23:00:00	32.5	ND	ND	ND	0.17	3.10	ND	ND	ND	ND	ND	0
61009	2017-01-13T00:00:00	41.2	ND	ND	ND	0.79	6.65	ND	ND	ND	ND	ND	0
61010	2017-01-13T01:00:00	46.7	ND	ND	ND	0.98	6.93	ND	ND	ND	ND	ND	0
61011	2017-01-13T02:00:00	21.6	ND	ND	ND	1.64	4.96	ND	ND	ND	ND	ND	0
61012	2017-01-13T03:00:00	23.5	ND	ND	ND	1.63	5.00	ND	ND	ND	ND	ND	0
61013	2017-01-13T04:00:00	31.2	ND	ND	ND	1.88	4.43	ND	ND	ND	ND	ND	0
61014	2017-01-13T05:00:00	26.2	ND	ND	ND	1.48	5.67	ND	ND	ND	ND	ND	0
61015	2017-01-13T06:00:00	32.7	ND	ND	ND	1.13	3.83	ND	ND	ND	ND	ND	0
61016	2017-01-13T07:00:00	75.6	ND	ND	ND	1.06	5.89	ND	ND	ND	ND	ND	0
61017	2017-01-13T08:00:00	92.3	ND	ND	ND	0.42	4.55	ND	ND	ND	ND	ND	0
61018	2017-01-13T09:00:00	92.8	ND	ND	ND	0.64	5.65	ND	ND	ND	ND	ND	0
61019	2017-01-13T10:00:00	85.1	ND	ND	ND	0.71	8.67	ND	ND	ND	ND	ND	0
61020	2017-01-13T11:00:00	66.6	ND	ND	ND	1.27	25.63	ND	ND	ND	ND	ND	0
61021	2017-01-13T12:00:00	80.3	ND	ND	ND	1.25	65.01	ND	ND	ND	ND	ND	0
61022	2017-01-13T13:00:00	85.5	ND	ND	ND	1.07	76.67	ND	ND	ND	ND	ND	0
61023	2017-01-13T14:00:00	60.2	ND	ND	ND	1.16	53.93	ND	ND	ND	ND	ND	0
61024	2017-01-13T15:00:00	44.5	ND	ND	ND	0.70	17.33	ND	ND	ND	ND	ND	0
61025	2017-01-13T16:00:00	34.3	ND	ND	ND	0.81	16.50	ND	ND	ND	ND	ND	0
61026	2017-01-13T17:00:00	34	ND	ND	ND	0.53	11.62	ND	ND	ND	ND	ND	0
61027	2017-01-13T18:00:00	44.1	ND	ND	ND	0.25	10.24	ND	ND	ND	ND	ND	0
61028	2017-01-13T19:00:00	38.1	ND	ND	ND	0.49	9.09	ND	ND	ND	ND	ND	0
61029	2017-01-13T20:00:00	24	ND	ND	ND	0.61	9.22	ND	ND	ND	ND	ND	0
61030	2017-01-13T21:00:00	13.3	ND	ND	ND	0.96	11.46	ND	ND	ND	ND	ND	0
61031	2017-01-13T22:00:00	23.7	ND	ND	ND	0.54	7.06	ND	ND	ND	ND	ND	0
61032	2017-01-13T23:00:00	21.5	ND	ND	ND	0.86	6.08	ND	ND	ND	ND	ND	0
61033	2017-01-14T00:00:00	22	ND	ND	ND	1.56	2.45	ND	ND	ND	ND	ND	0
61034	2017-01-14T01:00:00	38.3	ND	ND	ND	0.86	4.28	ND	ND	ND	ND	ND	0
61035	2017-01-14T02:00:00	27.9	ND	ND	ND	1.37	5.36	ND	ND	ND	ND	ND	0
61036	2017-01-14T03:00:00	43.5	ND	ND	ND	1.88	3.57	ND	ND	ND	ND	ND	0
61037	2017-01-14T04:00:00	49.2	ND	ND	ND	3.55	3.71	ND	ND	ND	ND	ND	0
61038	2017-01-14T05:00:00	53.5	ND	ND	ND	2.68	2.98	ND	ND	ND	ND	ND	0
61039	2017-01-14T06:00:00	27.1	ND	ND	ND	1.12	2.20	ND	ND	ND	ND	ND	0
61040	2017-01-14T07:00:00	23.9	ND	ND	ND	1.59	2.30	ND	ND	ND	ND	ND	0
61041	2017-01-14T08:00:00	38.3	ND	ND	ND	0.67	4.40	ND	ND	ND	ND	ND	0
61042	2017-01-14T09:00:00	66.6	ND	ND	ND	1.28	5.71	ND	ND	ND	ND	ND	0
61043	2017-01-14T10:00:00	77.9	ND	ND	ND	0.46	7.56	ND	ND	ND	ND	ND	0
61044	2017-01-14T11:00:00	68.9	ND	ND	ND	1.03	9.13	ND	ND	ND	ND	ND	0
61045	2017-01-14T12:00:00	50.9	ND	ND	ND	1.60	22.10	ND	ND	ND	ND	ND	0
61046	2017-01-14T13:00:00	67.3	ND	ND	ND	1.16	57.73	ND	ND	ND	ND	ND	0
61047	2017-01-14T14:00:00	82.4	ND	ND	ND	0.82	59.05	ND	ND	ND	ND	ND	0
61048	2017-01-14T15:00:00	45	ND	ND	ND	0.84	56.54	ND	ND	ND	ND	ND	0
61049	2017-01-14T16:00:00	34.2	ND	ND	ND	0.66	46.17	ND	ND	ND	ND	ND	0
61050	2017-01-14T17:00:00	44	ND	ND	ND	1.32	28.40	ND	ND	ND	ND	ND	0
61051	2017-01-14T18:00:00	36.6	ND	ND	ND	0.68	9.89	ND	ND	ND	ND	ND	0
61052	2017-01-14T19:00:00	30.4	ND	ND	ND	0.21	6.38	ND	ND	ND	ND	ND	0
61053	2017-01-14T20:00:00	22.1	ND	ND	ND	0.39	6.38	ND	ND	ND	ND	ND	0
61054	2017-01-14T21:00:00	11.3	ND	ND	ND	0.45	8.16	ND	ND	ND	ND	ND	0
61055	2017-01-14T22:00:00	12.1	ND	ND	ND	1.05	12.32	ND	ND	ND	ND	ND	0
61056	2017-01-14T23:00:00	28.1	ND	ND	ND	0.17	3.36	ND	ND	ND	ND	ND	0
61057	2017-01-15T00:00:00	49.3	ND	ND	ND	0.06	3.47	ND	ND	ND	ND	ND	0
61058	2017-01-15T01:00:00	70.1	ND	ND	ND	0.28	3.55	ND	ND	ND	ND	ND	0
61059	2017-01-15T02:00:00	54.2	ND	ND	ND	0.77	2.98	ND	ND	ND	ND	ND	0
61060	2017-01-15T03:00:00	28.5	ND	ND	ND	0.68	1.83	ND	ND	ND	ND	ND	0
61061	2017-01-15T04:00:00	42.7	ND	ND	ND	0.75	2.39	ND	ND	ND	ND	ND	0
61062	2017-01-15T05:00:00	36	ND	ND	ND	1.06	2.06	ND	ND	ND	ND	ND	0
61063	2017-01-15T06:00:00	37.4	ND	ND	ND	0.88	2.41	ND	ND	ND	ND	ND	0
61064	2017-01-15T07:00:00	42.3	ND	ND	ND	0.74	3.45	ND	ND	ND	ND	ND	0
61065	2017-01-15T08:00:00	56.9	ND	ND	ND	1.25	6.16	ND	ND	ND	ND	ND	0
61066	2017-01-15T09:00:00	63.6	ND	ND	ND	1.45	15.97	ND	ND	ND	ND	ND	0
61067	2017-01-15T10:00:00	63.9	ND	ND	ND	1.18	23.35	ND	ND	ND	ND	ND	0
61068	2017-01-15T11:00:00	49.4	ND	ND	ND	1.34	34.07	ND	ND	ND	ND	ND	0
61069	2017-01-15T12:00:00	41.8	ND	ND	ND	1.60	51.75	ND	ND	ND	ND	ND	0
61070	2017-01-15T13:00:00	39.3	ND	ND	ND	1.16	64.29	ND	ND	ND	ND	ND	0
61071	2017-01-15T14:00:00	38.1	ND	ND	ND	0.96	67.56	ND	ND	ND	ND	ND	0
61072	2017-01-15T15:00:00	25.3	ND	ND	ND	1.27	31.22	ND	ND	ND	ND	ND	0
61073	2017-01-15T16:00:00	1.9	ND	ND	ND	1.05	25.18	ND	ND	ND	ND	ND	0
61074	2017-01-15T17:00:00	14.2	ND	ND	ND	0.81	16.46	ND	ND	ND	ND	ND	0
61075	2017-01-15T18:00:00	4.5	ND	ND	ND	1.06	15.27	ND	ND	ND	ND	ND	0
61076	2017-01-15T19:00:00	11.5	ND	ND	ND	0.78	14.60	ND	ND	ND	ND	ND	0
61077	2017-01-15T20:00:00	28.5	ND	ND	ND	0.92	16.09	ND	ND	ND	ND	ND	0
61078	2017-01-15T21:00:00	18.4	ND	ND	ND	1.02	18.66	ND	ND	ND	ND	ND	0
61079	2017-01-15T22:00:00	15.8	ND	ND	ND	1.09	16.97	ND	ND	ND	ND	ND	0
61080	2017-01-15T23:00:00	1.8	ND	ND	ND	0.81	10.17	ND	ND	ND	ND	ND	0
61081	2017-01-16T00:00:00	15.3	ND	ND	ND	1.10	3.26	ND	ND	ND	ND	ND	0
61082	2017-01-16T01:00:00	28.3	ND	ND	ND	1.35	4.83	ND	ND	ND	ND	ND	0
61083	2017-01-16T02:00:00	18.3	ND	ND	ND	2.09	3.51	ND	ND	ND	ND	ND	0
61084	2017-01-16T03:00:00	22.6	ND	ND	ND	2.33	4.12	ND	ND	ND	ND	ND	0
61085	2017-01-16T04:00:00	23.2	ND	ND	ND	3.18	4.61	ND	ND	ND	ND	ND	0
61086	2017-01-16T05:00:00	23.2	ND	ND	ND	2.48	4.04	ND	ND	ND	ND	ND	0
61087	2017-01-16T06:00:00	30.6	ND	ND	ND	1.90	2.45	ND	ND	ND	ND	ND	0
61088	2017-01-16T07:00:00	1.9	ND	ND	ND	0.99	3.53	ND	ND	ND	ND	ND	0
61089	2017-01-16T08:00:00	20.3	ND	ND	ND	0.38	4.22	ND	ND	ND	ND	ND	0
61090	2017-01-16T09:00:00	68.3	ND	ND	ND	0.72	5.83	ND	ND	ND	ND	ND	0
61091	2017-01-16T10:00:00	54.4	ND	ND	ND	1.10	12.48	ND	ND	ND	ND	ND	0
61092	2017-01-16T11:00:00	43.1	ND	ND	ND	1.35	29.10	ND	ND	ND	ND	ND	0
61093	2017-01-16T12:00:00	25.4	ND	ND	ND	1.09	61.87	ND	ND	ND	ND	ND	0
61094	2017-01-16T13:00:00	43	ND	ND	ND	0.82	77.45	ND	ND	ND	ND	ND	0
61095	2017-01-16T14:00:00	52.7	ND	ND	ND	1.03	97.47	ND	ND	ND	ND	ND	0
61096	2017-01-16T15:00:00	39.3	ND	ND	ND	1.02	61.07	ND	ND	ND	ND	ND	0
61097	2017-01-16T16:00:00	31.6	ND	ND	ND	0.59	11.75	ND	ND	ND	ND	ND	0
61098	2017-01-16T17:00:00	38	ND	ND	ND	0.49	11.03	ND	ND	ND	ND	ND	0
61099	2017-01-16T18:00:00	32.1	ND	ND	ND	0.22	6.63	ND	ND	ND	ND	ND	0
61100	2017-01-16T19:00:00	25.5	ND	ND	ND	0.26	5.73	ND	ND	ND	ND	ND	0
61101	2017-01-16T20:00:00	26.7	ND	ND	ND	0.60	8.08	ND	ND	ND	ND	ND	0
61102	2017-01-16T21:00:00	16.9	ND	ND	ND	1.05	9.36	ND	ND	ND	ND	ND	0
61103	2017-01-16T22:00:00	8.2	ND	ND	ND	1.24	7.36	ND	ND	ND	ND	ND	0
61104	2017-01-16T23:00:00	16.5	ND	ND	ND	0.66	5.08	ND	ND	ND	ND	ND	0
61105	2017-01-17T00:00:00	15.5	ND	ND	ND	1.06	9.81	ND	ND	ND	ND	ND	0
61106	2017-01-17T01:00:00	7.7	ND	ND	ND	0.89	12.81	ND	ND	ND	ND	ND	0
61107	2017-01-17T02:00:00	11.1	ND	ND	ND	1.60	5.63	ND	ND	ND	ND	ND	0
61108	2017-01-17T03:00:00	24.8	ND	ND	ND	2.61	2.61	ND	ND	ND	ND	ND	0
61109	2017-01-17T04:00:00	55.2	ND	ND	ND	2.36	2.65	ND	ND	ND	ND	ND	0
61110	2017-01-17T05:00:00	53.3	ND	ND	ND	1.88	2.35	ND	ND	ND	ND	ND	0
61111	2017-01-17T06:00:00	43.8	ND	ND	ND	1.34	3.12	ND	ND	ND	ND	ND	0
61112	2017-01-17T07:00:00	69.1	ND	ND	ND	0.28	4.55	ND	ND	ND	ND	ND	0
61113	2017-01-17T08:00:00	88.9	ND	ND	ND	0.00	4.89	ND	ND	ND	ND	ND	0
61114	2017-01-17T09:00:00	89.2	ND	ND	ND	0.14	4.55	ND	ND	ND	ND	ND	0
61115	2017-01-17T10:00:00	83.1	ND	ND	ND	0.38	6.16	ND	ND	ND	ND	ND	0
61116	2017-01-17T11:00:00	60.1	ND	ND	ND	0.92	15.60	ND	ND	ND	ND	ND	0
61117	2017-01-17T12:00:00	54.6	ND	ND	ND	1.03	37.99	ND	ND	ND	ND	ND	0
61118	2017-01-17T13:00:00	52.8	ND	ND	ND	1.13	62.03	ND	ND	ND	ND	ND	0
61119	2017-01-17T14:00:00	46.7	ND	ND	ND	0.99	41.11	ND	ND	ND	ND	ND	0
61120	2017-01-17T15:00:00	25.8	ND	ND	ND	0.75	14.66	ND	ND	ND	ND	ND	0
61121	2017-01-17T16:00:00	5.6	ND	ND	ND	0.67	13.17	ND	ND	ND	ND	ND	0
61122	2017-01-17T17:00:00	21.4	ND	ND	ND	0.96	12.23	ND	ND	ND	ND	ND	0
61123	2017-01-17T18:00:00	21	ND	ND	ND	0.45	10.38	ND	ND	ND	ND	ND	0
61124	2017-01-17T19:00:00	10	ND	ND	ND	0.71	9.91	ND	ND	ND	ND	ND	0
61125	2017-01-17T20:00:00	23.1	ND	ND	ND	0.68	10.81	ND	ND	ND	ND	ND	0
61126	2017-01-17T21:00:00	16.4	ND	ND	ND	0.98	12.56	ND	ND	ND	ND	ND	0
61127	2017-01-17T22:00:00	13.1	ND	ND	ND	0.79	12.50	ND	ND	ND	ND	ND	0
61128	2017-01-17T23:00:00	16.4	ND	ND	ND	1.34	5.79	ND	ND	ND	ND	ND	0
61129	2017-01-18T00:00:00	35	ND	ND	ND	1.48	7.03	ND	ND	ND	ND	ND	0
61130	2017-01-18T01:00:00	20.2	ND	ND	ND	1.31	4.00	ND	ND	ND	ND	ND	0
61131	2017-01-18T02:00:00	29.5	ND	ND	ND	1.69	5.81	ND	ND	ND	ND	ND	0
61132	2017-01-18T03:00:00	25.1	ND	ND	ND	1.77	9.58	ND	ND	ND	ND	ND	0
61133	2017-01-18T04:00:00	2.7	ND	ND	ND	1.42	7.75	ND	ND	ND	ND	ND	0
61134	2017-01-18T05:00:00	15.4	ND	ND	ND	1.95	5.30	ND	ND	ND	ND	ND	0
61135	2017-01-18T06:00:00	4.7	ND	ND	ND	1.18	3.73	ND	ND	ND	ND	ND	0.25
61136	2017-01-18T07:00:00	22.9	ND	ND	ND	1.00	2.81	ND	ND	ND	ND	ND	0.25
61137	2017-01-18T08:00:00	10.9	ND	ND	ND	0.77	3.45	ND	ND	ND	ND	ND	0.51
61138	2017-01-18T09:00:00	2.8	ND	ND	ND	0.46	4.79	ND	ND	ND	ND	ND	1.27
61139	2017-01-18T10:00:00	20.6	ND	ND	ND	1.00	7.06	ND	ND	ND	ND	ND	1.27
61140	2017-01-18T11:00:00	32.5	ND	ND	ND	0.88	12.21	ND	ND	ND	ND	ND	0.25
61141	2017-01-18T12:00:00	31.6	ND	ND	ND	0.92	25.59	ND	ND	ND	ND	ND	0
61142	2017-01-18T13:00:00	33.7	ND	ND	ND	0.77	41.43	ND	ND	ND	ND	ND	0
61143	2017-01-18T14:00:00	26.2	ND	ND	ND	1.06	56.54	ND	ND	ND	ND	ND	0
61144	2017-01-18T15:00:00	28.8	ND	ND	ND	0.78	66.90	ND	ND	ND	ND	ND	0
61145	2017-01-18T16:00:00	26.5	ND	ND	ND	0.68	33.18	ND	ND	ND	ND	ND	2.29
61146	2017-01-18T17:00:00	48.5	ND	ND	ND	0.49	13.19	ND	ND	ND	ND	ND	0
61147	2017-01-18T18:00:00	46.8	ND	ND	ND	0.25	5.00	ND	ND	ND	ND	ND	0
61148	2017-01-18T19:00:00	40.2	ND	ND	ND	0.00	4.26	ND	ND	ND	ND	ND	0
61149	2017-01-18T20:00:00	54.2	ND	ND	ND	0.17	5.20	ND	ND	ND	ND	ND	0
61150	2017-01-18T21:00:00	59.3	ND	ND	ND	0.38	5.87	ND	ND	ND	ND	ND	0
61151	2017-01-18T22:00:00	45.8	ND	ND	ND	0.50	3.30	ND	ND	ND	ND	ND	0
61152	2017-01-18T23:00:00	38.5	ND	ND	ND	0.59	3.65	ND	ND	ND	ND	ND	0
61153	2017-01-19T00:00:00	41.3	ND	ND	ND	1.03	4.51	ND	ND	ND	ND	ND	0
61154	2017-01-19T01:00:00	32.6	ND	ND	ND	1.66	5.20	ND	ND	ND	ND	ND	0
61155	2017-01-19T02:00:00	33.4	ND	ND	ND	1.78	9.16	ND	ND	ND	ND	ND	0
61156	2017-01-19T03:00:00	25.7	ND	ND	ND	2.04	10.79	ND	ND	ND	ND	ND	0
61157	2017-01-19T04:00:00	24.8	ND	ND	ND	1.69	5.08	ND	ND	ND	ND	ND	0
61158	2017-01-19T05:00:00	38.7	ND	ND	ND	1.98	4.10	ND	ND	ND	ND	ND	0
61159	2017-01-19T06:00:00	56	ND	ND	ND	1.39	3.32	ND	ND	ND	ND	ND	0
61160	2017-01-19T07:00:00	56.2	ND	ND	ND	0.38	3.69	ND	ND	ND	ND	ND	0
61161	2017-01-19T08:00:00	56.3	ND	ND	ND	0.33	7.22	ND	ND	ND	ND	ND	0
61162	2017-01-19T09:00:00	111.4	ND	ND	ND	1.28	10.66	ND	ND	ND	ND	ND	0
61163	2017-01-19T10:00:00	158.3	ND	ND	ND	2.16	21.82	ND	ND	ND	ND	ND	0
61164	2017-01-19T11:00:00	121.6	ND	ND	ND	2.72	42.90	ND	ND	ND	ND	ND	0
61165	2017-01-19T12:00:00	144.7	ND	ND	ND	1.62	46.90	ND	ND	ND	ND	ND	0
61166	2017-01-19T13:00:00	70.5	ND	ND	ND	1.81	77.79	ND	ND	ND	ND	ND	0
61167	2017-01-19T14:00:00	85.5	ND	ND	ND	0.70	90.68	ND	ND	ND	ND	ND	0
61168	2017-01-19T15:00:00	74.3	ND	ND	ND	0.82	110.03	ND	ND	ND	ND	ND	0
61169	2017-01-19T16:00:00	55.3	ND	ND	ND	0.54	12.85	ND	ND	ND	ND	ND	0
61170	2017-01-19T17:00:00	18.4	ND	ND	ND	0.59	12.17	ND	ND	ND	ND	ND	0
61171	2017-01-19T18:00:00	18.1	ND	ND	ND	0.57	10.44	ND	ND	ND	ND	ND	0
61172	2017-01-19T19:00:00	25.1	ND	ND	ND	0.60	6.16	ND	ND	ND	ND	ND	0
61173	2017-01-19T20:00:00	13.5	ND	ND	ND	1.06	5.53	ND	ND	ND	ND	ND	0
61174	2017-01-19T21:00:00	25.8	ND	ND	ND	0.78	3.91	ND	ND	ND	ND	ND	0
61175	2017-01-19T22:00:00	24.2	ND	ND	ND	1.02	4.93	ND	ND	ND	ND	ND	0
61176	2017-01-19T23:00:00	29.9	ND	ND	ND	0.57	7.40	ND	ND	ND	ND	ND	0
61177	2017-01-20T00:00:00	19.8	ND	ND	ND	0.71	4.22	ND	ND	ND	ND	ND	0
61178	2017-01-20T01:00:00	22.7	ND	ND	ND	0.84	2.53	ND	ND	ND	ND	ND	0
61179	2017-01-20T02:00:00	14.6	ND	ND	ND	0.78	5.73	ND	ND	ND	ND	ND	0
61180	2017-01-20T03:00:00	13.9	ND	ND	ND	0.98	13.52	ND	ND	ND	ND	ND	0
61181	2017-01-20T04:00:00	10	ND	ND	ND	0.72	10.66	ND	ND	ND	ND	ND	0
61182	2017-01-20T05:00:00	10	ND	ND	ND	0.95	14.82	ND	ND	ND	ND	ND	0
61183	2017-01-20T06:00:00	4.5	ND	ND	ND	0.59	9.65	ND	ND	ND	ND	ND	0
61184	2017-01-20T07:00:00	19.6	ND	ND	ND	0.60	1.16	ND	ND	ND	ND	ND	0
61185	2017-01-20T08:00:00	56.6	ND	ND	ND	0.64	2.18	ND	ND	ND	ND	ND	0
61186	2017-01-20T09:00:00	72.1	ND	ND	ND	1.18	8.75	ND	ND	ND	ND	ND	0
61187	2017-01-20T10:00:00	68.9	ND	ND	ND	0.96	19.76	ND	ND	ND	ND	ND	0
61188	2017-01-20T11:00:00	74.8	ND	ND	ND	0.68	33.11	ND	ND	ND	ND	ND	0
61189	2017-01-20T12:00:00	53.7	ND	ND	ND	0.98	62.09	ND	ND	ND	ND	ND	0
61190	2017-01-20T13:00:00	58.5	ND	ND	ND	0.70	62.58	ND	ND	ND	ND	ND	0
61191	2017-01-20T14:00:00	19.5	ND	ND	ND	0.81	48.33	ND	ND	ND	ND	ND	0
61192	2017-01-20T15:00:00	27.6	ND	ND	ND	0.82	55.20	ND	ND	ND	ND	ND	0
61193	2017-01-20T16:00:00	47.1	ND	ND	ND	0.74	26.83	ND	ND	ND	ND	ND	0
61194	2017-01-20T17:00:00	50.2	ND	ND	ND	0.43	20.00	ND	ND	ND	ND	ND	0
61195	2017-01-20T18:00:00	33.5	ND	ND	ND	0.77	15.40	ND	ND	ND	ND	ND	0
61196	2017-01-20T19:00:00	30.5	ND	ND	ND	0.53	15.52	ND	ND	ND	ND	ND	0
61197	2017-01-20T20:00:00	28.4	ND	ND	ND	0.57	18.68	ND	ND	ND	ND	ND	0
61198	2017-01-20T21:00:00	22.4	ND	ND	ND	0.36	16.86	ND	ND	ND	ND	ND	0
61199	2017-01-20T22:00:00	24.9	ND	ND	ND	0.71	12.17	ND	ND	ND	ND	ND	0
61200	2017-01-20T23:00:00	34.6	ND	ND	ND	0.72	12.72	ND	ND	ND	ND	ND	0
61201	2017-01-21T00:00:00	22.8	ND	ND	ND	0.81	14.31	ND	ND	ND	ND	ND	0
61202	2017-01-21T01:00:00	23.2	ND	ND	ND	2.05	3.71	ND	ND	ND	ND	ND	2.03
61203	2017-01-21T02:00:00	17.2	ND	ND	ND	0.88	5.65	ND	ND	ND	ND	ND	0.51
61204	2017-01-21T03:00:00	24.3	ND	ND	ND	1.09	5.02	ND	ND	ND	ND	ND	0.25
61205	2017-01-21T04:00:00	27.7	ND	ND	ND	1.18	4.63	ND	ND	ND	ND	ND	1.78
61206	2017-01-21T05:00:00	18.5	ND	ND	ND	1.13	4.63	ND	ND	ND	ND	ND	2.03
61207	2017-01-21T06:00:00	9.5	ND	ND	ND	0.95	4.63	ND	ND	ND	ND	ND	2.79
61208	2017-01-21T07:00:00	13.5	ND	ND	ND	1.05	2.41	ND	ND	ND	ND	ND	0.25
61209	2017-01-21T08:00:00	30.4	ND	ND	ND	1.42	2.39	ND	ND	ND	ND	ND	0
61210	2017-01-21T09:00:00	36.4	ND	ND	ND	0.93	5.38	ND	ND	ND	ND	ND	0
61211	2017-01-21T10:00:00	45.7	ND	ND	ND	1.30	10.30	ND	ND	ND	ND	ND	0.25
61212	2017-01-21T11:00:00	40.4	ND	ND	ND	0.75	24.67	ND	ND	ND	ND	ND	0
61213	2017-01-21T12:00:00	45.8	ND	ND	ND	0.61	24.53	ND	ND	ND	ND	ND	0
61214	2017-01-21T13:00:00	31.8	ND	ND	ND	0.70	40.35	ND	ND	ND	ND	ND	0
61215	2017-01-21T14:00:00	38.1	ND	ND	ND	0.88	60.85	ND	ND	ND	ND	ND	0
61216	2017-01-21T15:00:00	50.5	ND	ND	ND	1.09	89.97	ND	ND	ND	ND	ND	0
61217	2017-01-21T16:00:00	55.5	ND	ND	ND	0.70	57.11	ND	ND	ND	ND	ND	0
61218	2017-01-21T17:00:00	73	ND	ND	ND	0.92	47.31	ND	ND	ND	ND	ND	0
61219	2017-01-21T18:00:00	68.1	ND	ND	ND	0.74	40.13	ND	ND	ND	ND	ND	0
61220	2017-01-21T19:00:00	72.8	ND	ND	ND	1.21	15.35	ND	ND	ND	ND	ND	0
61221	2017-01-21T20:00:00	78.5	ND	ND	ND	1.05	2.83	ND	ND	ND	ND	ND	0
61222	2017-01-21T21:00:00	80.3	ND	ND	ND	0.96	1.30	ND	ND	ND	ND	ND	0
61223	2017-01-21T22:00:00	51.3	ND	ND	ND	1.18	2.96	ND	ND	ND	ND	ND	0
61224	2017-01-21T23:00:00	29.4	ND	ND	ND	0.53	5.32	ND	ND	ND	ND	ND	0
61225	2017-01-22T00:00:00	ND	ND	ND	ND	0.91	3.77	ND	ND	ND	ND	ND	0
61226	2017-01-22T01:00:00	18.5	ND	ND	ND	0.66	8.24	ND	ND	ND	ND	ND	0
61227	2017-01-22T02:00:00	12.7	ND	ND	ND	0.84	12.30	ND	ND	ND	ND	ND	0
61228	2017-01-22T03:00:00	ND	ND	ND	ND	0.64	14.23	ND	ND	ND	ND	ND	0
61229	2017-01-22T04:00:00	3.8	ND	ND	ND	0.84	4.93	ND	ND	ND	ND	ND	0
61230	2017-01-22T05:00:00	94.8	ND	ND	ND	1.00	1.45	ND	ND	ND	ND	ND	0
61231	2017-01-22T06:00:00	100.7	ND	ND	ND	2.72	2.08	ND	ND	ND	ND	ND	0
61232	2017-01-22T07:00:00	122.4	ND	ND	ND	2.89	1.88	ND	ND	ND	ND	ND	0
61233	2017-01-22T08:00:00	100.2	ND	ND	ND	3.11	3.26	ND	ND	ND	ND	ND	0
61234	2017-01-22T09:00:00	103.2	ND	ND	ND	3.04	17.82	ND	ND	ND	ND	ND	0
61235	2017-01-22T10:00:00	86.6	ND	ND	ND	1.64	48.24	ND	ND	ND	ND	ND	0
61236	2017-01-22T11:00:00	45.4	ND	ND	ND	0.74	52.36	ND	ND	ND	ND	ND	0
61237	2017-01-22T12:00:00	34.2	ND	ND	ND	0.86	55.32	ND	ND	ND	ND	ND	0
61238	2017-01-22T13:00:00	22.2	ND	ND	ND	0.53	62.76	ND	ND	ND	ND	ND	0
61239	2017-01-22T14:00:00	21.1	ND	ND	ND	0.56	71.72	ND	ND	ND	ND	ND	0
61240	2017-01-22T15:00:00	23.5	ND	ND	ND	0.79	71.14	ND	ND	ND	ND	ND	0
61241	2017-01-22T16:00:00	19.4	ND	ND	ND	0.78	75.81	ND	ND	ND	ND	ND	0
61242	2017-01-22T17:00:00	32.2	ND	ND	ND	0.63	65.94	ND	ND	ND	ND	ND	0
61243	2017-01-22T18:00:00	35.1	ND	ND	ND	1.14	65.07	ND	ND	ND	ND	ND	0
61244	2017-01-22T19:00:00	22.7	ND	ND	ND	0.77	21.92	ND	ND	ND	ND	ND	0
61245	2017-01-22T20:00:00	31	ND	ND	ND	0.77	14.82	ND	ND	ND	ND	ND	0
61246	2017-01-22T21:00:00	34.2	ND	ND	ND	0.63	9.93	ND	ND	ND	ND	ND	0
61247	2017-01-22T22:00:00	8.9	ND	ND	ND	0.85	12.93	ND	ND	ND	ND	ND	0
61248	2017-01-22T23:00:00	ND	ND	ND	ND	0.93	16.25	ND	ND	ND	ND	ND	0
61249	2017-01-23T00:00:00	1.7	ND	ND	ND	0.46	25.82	ND	ND	ND	ND	ND	0
61250	2017-01-23T01:00:00	12	ND	ND	ND	0.95	29.69	ND	ND	ND	ND	ND	0
61251	2017-01-23T02:00:00	3.7	ND	ND	ND	1.06	20.19	ND	ND	ND	ND	ND	0
61252	2017-01-23T03:00:00	16	ND	ND	ND	0.98	24.80	ND	ND	ND	ND	ND	0
61253	2017-01-23T04:00:00	11.1	ND	ND	ND	2.51	13.34	ND	ND	ND	ND	ND	0
61254	2017-01-23T05:00:00	147.7	ND	ND	ND	2.97	1.59	ND	ND	ND	ND	ND	0
61255	2017-01-23T06:00:00	156.5	ND	ND	ND	2.48	1.63	ND	ND	ND	ND	ND	0
61256	2017-01-23T07:00:00	79.7	ND	ND	ND	1.46	2.12	ND	ND	ND	ND	ND	0
61257	2017-01-23T08:00:00	23	ND	ND	ND	1.10	6.38	ND	ND	ND	ND	ND	0
61258	2017-01-23T09:00:00	150.1	ND	ND	ND	1.34	19.68	ND	ND	ND	ND	ND	0
61259	2017-01-23T10:00:00	110.6	ND	ND	ND	0.46	46.39	ND	ND	ND	ND	ND	0
61260	2017-01-23T11:00:00	66.2	ND	ND	ND	1.02	72.41	ND	ND	ND	ND	ND	0
61261	2017-01-23T12:00:00	74.7	ND	ND	ND	0.93	100.02	ND	ND	ND	ND	ND	0
61262	2017-01-23T13:00:00	76.7	ND	ND	ND	0.68	100.41	ND	ND	ND	ND	ND	0
61263	2017-01-23T14:00:00	62.8	ND	ND	ND	1.05	117.06	ND	ND	ND	ND	ND	0
61264	2017-01-23T15:00:00	65.7	ND	ND	ND	1.07	120.82	ND	ND	ND	ND	ND	0
61265	2017-01-23T16:00:00	65.4	ND	ND	ND	0.61	46.74	ND	ND	ND	ND	ND	0
61266	2017-01-23T17:00:00	56.6	ND	ND	ND	0.70	24.20	ND	ND	ND	ND	ND	0
61267	2017-01-23T18:00:00	44.2	ND	ND	ND	0.56	19.07	ND	ND	ND	ND	ND	0
61268	2017-01-23T19:00:00	43.9	ND	ND	ND	0.39	17.23	ND	ND	ND	ND	ND	0
61269	2017-01-23T20:00:00	44.3	ND	ND	ND	0.85	14.54	ND	ND	ND	ND	ND	0
61270	2017-01-23T21:00:00	29.7	ND	ND	ND	0.75	20.49	ND	ND	ND	ND	ND	0
61271	2017-01-23T22:00:00	20.2	ND	ND	ND	0.82	20.43	ND	ND	ND	ND	ND	0
61272	2017-01-23T23:00:00	19.9	ND	ND	ND	1.00	16.48	ND	ND	ND	ND	ND	0
61273	2017-01-24T00:00:00	47.5	ND	ND	ND	1.90	2.10	ND	ND	ND	ND	ND	0
61274	2017-01-24T01:00:00	70	ND	ND	ND	1.46	1.41	ND	ND	ND	ND	ND	0
61275	2017-01-24T02:00:00	68.3	ND	ND	ND	1.90	5.28	ND	ND	ND	ND	ND	0
61276	2017-01-24T03:00:00	49.6	ND	ND	ND	1.66	1.94	ND	ND	ND	ND	ND	0
61277	2017-01-24T04:00:00	50.4	ND	ND	ND	1.84	7.81	ND	ND	ND	ND	ND	0
61278	2017-01-24T05:00:00	51.8	ND	ND	ND	2.27	1.61	ND	ND	ND	ND	ND	0
61279	2017-01-24T06:00:00	48.4	ND	ND	ND	1.98	2.04	ND	ND	ND	ND	ND	0
61280	2017-01-24T07:00:00	71.9	ND	ND	ND	1.30	1.77	ND	ND	ND	ND	ND	0
61281	2017-01-24T08:00:00	92.3	ND	ND	ND	1.14	3.16	ND	ND	ND	ND	ND	0
61282	2017-01-24T09:00:00	89.1	ND	ND	ND	1.10	11.30	ND	ND	ND	ND	ND	0
61283	2017-01-24T10:00:00	107.2	ND	ND	ND	1.16	36.32	ND	ND	ND	ND	ND	0
61284	2017-01-24T11:00:00	74.9	ND	ND	ND	0.93	50.85	ND	ND	ND	ND	ND	0
61285	2017-01-24T12:00:00	67.3	ND	ND	ND	0.93	82.56	ND	ND	ND	ND	ND	0
61286	2017-01-24T13:00:00	64.4	ND	ND	ND	1.07	98.33	ND	ND	ND	ND	ND	0
61287	2017-01-24T14:00:00	70	ND	ND	ND	0.96	126.85	ND	ND	ND	ND	ND	0
61288	2017-01-24T15:00:00	63.1	ND	ND	ND	0.81	70.61	ND	ND	ND	ND	ND	0
61289	2017-01-24T16:00:00	30	ND	ND	ND	0.70	34.77	ND	ND	ND	ND	ND	0
61290	2017-01-24T17:00:00	26.7	ND	ND	ND	0.68	30.57	ND	ND	ND	ND	ND	0
61291	2017-01-24T18:00:00	25.2	ND	ND	ND	0.57	22.86	ND	ND	ND	ND	ND	0
61292	2017-01-24T19:00:00	51	ND	ND	ND	0.59	24.24	ND	ND	ND	ND	ND	0
61293	2017-01-24T20:00:00	54.5	ND	ND	ND	0.81	30.26	ND	ND	ND	ND	ND	0
61294	2017-01-24T21:00:00	43.2	ND	ND	ND	0.53	32.10	ND	ND	ND	ND	ND	0
61295	2017-01-24T22:00:00	35.8	ND	ND	ND	0.66	30.46	ND	ND	ND	ND	ND	0
61296	2017-01-24T23:00:00	22	ND	ND	ND	0.50	23.16	ND	ND	ND	ND	ND	0
61297	2017-01-25T00:00:00	37.4	ND	ND	ND	1.69	1.73	ND	ND	ND	ND	ND	0
61298	2017-01-25T01:00:00	39.9	ND	ND	ND	0.84	12.40	ND	ND	ND	ND	ND	0
61299	2017-01-25T02:00:00	29.5	ND	ND	ND	0.91	17.03	ND	ND	ND	ND	ND	0
61300	2017-01-25T03:00:00	50.8	ND	ND	ND	1.49	9.11	ND	ND	ND	ND	ND	0
61301	2017-01-25T04:00:00	51.2	ND	ND	ND	1.23	8.46	ND	ND	ND	ND	ND	0
61302	2017-01-25T05:00:00	50.1	ND	ND	ND	1.58	3.30	ND	ND	ND	ND	ND	0
61303	2017-01-25T06:00:00	43.6	ND	ND	ND	0.75	5.73	ND	ND	ND	ND	ND	0
61304	2017-01-25T07:00:00	16.1	ND	ND	ND	0.60	3.89	ND	ND	ND	ND	ND	0
61305	2017-01-25T08:00:00	73.6	ND	ND	ND	1.97	3.61	ND	ND	ND	ND	ND	0
61306	2017-01-25T09:00:00	128.6	ND	ND	ND	2.47	13.58	ND	ND	ND	ND	ND	0
61307	2017-01-25T10:00:00	117.1	ND	ND	ND	1.84	31.67	ND	ND	ND	ND	ND	0
61308	2017-01-25T11:00:00	112.4	ND	ND	ND	1.30	59.66	ND	ND	ND	ND	ND	0
61309	2017-01-25T12:00:00	76.7	ND	ND	ND	1.06	83.95	ND	ND	ND	ND	ND	0
61310	2017-01-25T13:00:00	62.5	ND	ND	ND	0.64	119.21	ND	ND	ND	ND	ND	0
61311	2017-01-25T14:00:00	71.9	ND	ND	ND	0.92	136.01	ND	ND	ND	ND	ND	0
61312	2017-01-25T15:00:00	68.6	ND	ND	ND	0.92	149.47	ND	ND	ND	ND	ND	0
61313	2017-01-25T16:00:00	65.9	ND	ND	ND	0.75	69.84	ND	ND	ND	ND	ND	0
61314	2017-01-25T17:00:00	64.5	ND	ND	ND	0.66	37.56	ND	ND	ND	ND	ND	0
61315	2017-01-25T18:00:00	56.7	ND	ND	ND	0.68	25.37	ND	ND	ND	ND	ND	0
61316	2017-01-25T19:00:00	38.3	ND	ND	ND	0.81	22.92	ND	ND	ND	ND	ND	0
61317	2017-01-25T20:00:00	38.9	ND	ND	ND	0.68	19.82	ND	ND	ND	ND	ND	0
61318	2017-01-25T21:00:00	54.5	ND	ND	ND	0.66	15.40	ND	ND	ND	ND	ND	0
61319	2017-01-25T22:00:00	49.3	ND	ND	ND	0.78	15.84	ND	ND	ND	ND	ND	0
61320	2017-01-25T23:00:00	40.4	ND	ND	ND	0.89	15.40	ND	ND	ND	ND	ND	0
61321	2017-01-26T00:00:00	43.4	ND	ND	ND	0.96	10.81	ND	ND	ND	ND	ND	0
61322	2017-01-26T01:00:00	47.6	ND	ND	ND	1.37	3.98	ND	ND	ND	ND	ND	0
61323	2017-01-26T02:00:00	53.7	ND	ND	ND	2.12	4.42	ND	ND	ND	ND	ND	0
61324	2017-01-26T03:00:00	56.1	ND	ND	ND	2.36	1.51	ND	ND	ND	ND	ND	0
61325	2017-01-26T04:00:00	68.5	ND	ND	ND	1.94	3.16	ND	ND	ND	ND	ND	0
61326	2017-01-26T05:00:00	100.7	ND	ND	ND	1.92	2.16	ND	ND	ND	ND	ND	0
61327	2017-01-26T06:00:00	98.9	ND	ND	ND	2.27	1.69	ND	ND	ND	ND	ND	0
61328	2017-01-26T07:00:00	101.6	ND	ND	ND	2.50	2.22	ND	ND	ND	ND	ND	0
61329	2017-01-26T08:00:00	121.5	ND	ND	ND	2.31	2.22	ND	ND	ND	ND	ND	0
61330	2017-01-26T09:00:00	130.4	ND	ND	ND	1.98	6.53	ND	ND	ND	ND	ND	0
61331	2017-01-26T10:00:00	106	ND	ND	ND	0.89	24.86	ND	ND	ND	ND	ND	0
61332	2017-01-26T11:00:00	90.9	ND	ND	ND	1.13	32.32	ND	ND	ND	ND	ND	0
61333	2017-01-26T12:00:00	103.5	ND	ND	ND	1.00	77.44	ND	ND	ND	ND	ND	0
61334	2017-01-26T13:00:00	111.3	ND	ND	ND	ND	112.52	ND	ND	ND	ND	ND	0
61335	2017-01-26T14:00:00	79.5	ND	ND	ND	1.02	120.47	ND	ND	ND	ND	ND	0
61336	2017-01-26T15:00:00	78.3	ND	ND	ND	1.52	122.53	ND	ND	ND	ND	ND	0
61337	2017-01-26T16:00:00	81.4	ND	ND	ND	0.57	60.89	ND	ND	ND	ND	ND	0
61338	2017-01-26T17:00:00	51.7	ND	ND	ND	0.49	22.65	ND	ND	ND	ND	ND	0
61339	2017-01-26T18:00:00	40.3	ND	ND	ND	0.81	14.89	ND	ND	ND	ND	ND	0
61340	2017-01-26T19:00:00	26.9	ND	ND	ND	0.28	10.18	ND	ND	ND	ND	ND	0
61341	2017-01-26T20:00:00	23.8	ND	ND	ND	ND	17.47	ND	ND	ND	ND	ND	0
61342	2017-01-26T21:00:00	3.1	ND	ND	ND	0.82	19.11	ND	ND	ND	ND	ND	0
61343	2017-01-26T22:00:00	6.5	ND	ND	ND	0.67	14.95	ND	ND	ND	ND	ND	0
61344	2017-01-26T23:00:00	11.7	ND	ND	ND	0.70	13.21	ND	ND	ND	ND	ND	0
61345	2017-01-27T00:00:00	33	ND	ND	ND	0.43	12.46	ND	ND	ND	ND	ND	0
61346	2017-01-27T01:00:00	55.9	ND	ND	ND	2.08	1.47	ND	ND	ND	ND	ND	0
61347	2017-01-27T02:00:00	83.5	ND	ND	ND	1.07	10.60	ND	ND	ND	ND	ND	0
61348	2017-01-27T03:00:00	66.5	ND	ND	ND	1.38	9.30	ND	ND	ND	ND	ND	0
61349	2017-01-27T04:00:00	45.8	ND	ND	ND	1.37	7.01	ND	ND	ND	ND	ND	0
61350	2017-01-27T05:00:00	34.8	ND	ND	ND	1.73	3.43	ND	ND	ND	ND	ND	0
61351	2017-01-27T06:00:00	60.3	ND	ND	ND	1.77	1.39	ND	ND	ND	ND	ND	0
61352	2017-01-27T07:00:00	83.4	ND	ND	ND	1.77	2.02	ND	ND	ND	ND	ND	0
61353	2017-01-27T08:00:00	94.1	ND	ND	ND	1.41	2.34	ND	ND	ND	ND	ND	0
61354	2017-01-27T09:00:00	112.6	ND	ND	ND	1.10	8.05	ND	ND	ND	ND	ND	0
61355	2017-01-27T10:00:00	107.6	ND	ND	ND	1.31	35.07	ND	ND	ND	ND	ND	0
61356	2017-01-27T11:00:00	99.3	ND	ND	ND	1.23	58.03	ND	ND	ND	ND	ND	0
61357	2017-01-27T12:00:00	53.1	ND	ND	ND	1.32	84.99	ND	ND	ND	ND	ND	0
61358	2017-01-27T13:00:00	62.5	ND	ND	ND	0.93	74.12	ND	ND	ND	ND	ND	0
61359	2017-01-27T14:00:00	58	ND	ND	ND	1.09	96.67	ND	ND	ND	ND	ND	0
61360	2017-01-27T15:00:00	70.2	ND	ND	ND	0.92	74.94	ND	ND	ND	ND	ND	0
61361	2017-01-27T16:00:00	49.9	ND	ND	ND	0.82	34.16	ND	ND	ND	ND	ND	0
61362	2017-01-27T17:00:00	57.2	ND	ND	ND	0.26	23.63	ND	ND	ND	ND	ND	0
61363	2017-01-27T18:00:00	14.9	ND	ND	ND	0.60	18.35	ND	ND	ND	ND	ND	0
61364	2017-01-27T19:00:00	4.6	ND	ND	ND	0.35	16.01	ND	ND	ND	ND	ND	0
61365	2017-01-27T20:00:00	29	ND	ND	ND	0.98	7.83	ND	ND	ND	ND	ND	0
61366	2017-01-27T21:00:00	66	ND	ND	ND	0.56	7.54	ND	ND	ND	ND	ND	0
61367	2017-01-27T22:00:00	84.6	ND	ND	ND	2.02	5.22	ND	ND	ND	ND	ND	0
61368	2017-01-27T23:00:00	106.2	ND	ND	ND	1.69	8.03	ND	ND	ND	ND	ND	0
61369	2017-01-28T00:00:00	75.4	ND	ND	ND	1.10	14.09	ND	ND	ND	ND	ND	0
61370	2017-01-28T01:00:00	65.7	ND	ND	ND	1.13	5.69	ND	ND	ND	ND	ND	0
61371	2017-01-28T02:00:00	47.9	ND	ND	ND	1.35	5.91	ND	ND	ND	ND	ND	0
61372	2017-01-28T03:00:00	51.2	ND	ND	ND	1.12	6.34	ND	ND	ND	ND	ND	0
61373	2017-01-28T04:00:00	53.3	ND	ND	ND	0.95	3.69	ND	ND	ND	ND	ND	0
61374	2017-01-28T05:00:00	45.5	ND	ND	ND	1.44	1.53	ND	ND	ND	ND	ND	0
61375	2017-01-28T06:00:00	43.5	ND	ND	ND	2.52	1.33	ND	ND	ND	ND	ND	0
61376	2017-01-28T07:00:00	78.5	ND	ND	ND	1.91	1.47	ND	ND	ND	ND	ND	0
61377	2017-01-28T08:00:00	102.6	ND	ND	ND	1.25	2.65	ND	ND	ND	ND	ND	0
61378	2017-01-28T09:00:00	102.8	ND	ND	ND	1.42	8.16	ND	ND	ND	ND	ND	0
61379	2017-01-28T10:00:00	93.1	ND	ND	ND	0.86	43.25	ND	ND	ND	ND	ND	0
61380	2017-01-28T11:00:00	73.7	ND	ND	ND	0.89	71.47	ND	ND	ND	ND	ND	0
61381	2017-01-28T12:00:00	58.7	ND	ND	ND	0.81	89.23	ND	ND	ND	ND	ND	0
61382	2017-01-28T13:00:00	56.5	ND	ND	ND	1.06	103.99	ND	ND	ND	ND	ND	0
61383	2017-01-28T14:00:00	76.3	ND	ND	ND	0.93	81.14	ND	ND	ND	ND	ND	0
61384	2017-01-28T15:00:00	71.5	ND	ND	ND	0.86	83.26	ND	ND	ND	ND	ND	0
61385	2017-01-28T16:00:00	54.9	ND	ND	ND	1.14	43.33	ND	ND	ND	ND	ND	0
61386	2017-01-28T17:00:00	34.7	ND	ND	ND	0.50	35.66	ND	ND	ND	ND	ND	0
61387	2017-01-28T18:00:00	20.6	ND	ND	ND	0.74	19.23	ND	ND	ND	ND	ND	0
61388	2017-01-28T19:00:00	1.2	ND	ND	ND	0.31	11.46	ND	ND	ND	ND	ND	0
61389	2017-01-28T20:00:00	19.4	ND	ND	ND	0.63	4.79	ND	ND	ND	ND	ND	0
61390	2017-01-28T21:00:00	34.7	ND	ND	ND	0.86	5.85	ND	ND	ND	ND	ND	0
61391	2017-01-28T22:00:00	26.5	ND	ND	ND	0.47	5.12	ND	ND	ND	ND	ND	0
61392	2017-01-28T23:00:00	23.8	ND	ND	ND	1.21	2.63	ND	ND	ND	ND	ND	0
61393	2017-01-29T00:00:00	32.9	ND	ND	ND	0.82	6.30	ND	ND	ND	ND	ND	0
61394	2017-01-29T01:00:00	32	ND	ND	ND	1.66	1.75	ND	ND	ND	ND	ND	0
61395	2017-01-29T02:00:00	58	ND	ND	ND	1.95	1.63	ND	ND	ND	ND	ND	0
61396	2017-01-29T03:00:00	58.1	ND	ND	ND	2.09	2.14	ND	ND	ND	ND	ND	0
61397	2017-01-29T04:00:00	42.9	ND	ND	ND	1.78	2.34	ND	ND	ND	ND	ND	0
61398	2017-01-29T05:00:00	51.6	ND	ND	ND	2.72	1.47	ND	ND	ND	ND	ND	0
61399	2017-01-29T06:00:00	55.3	ND	ND	ND	1.90	1.53	ND	ND	ND	ND	ND	0
61400	2017-01-29T07:00:00	54.1	ND	ND	ND	2.15	1.41	ND	ND	ND	ND	ND	0
61401	2017-01-29T08:00:00	64.3	ND	ND	ND	2.27	2.39	ND	ND	ND	ND	ND	0
61402	2017-01-29T09:00:00	76	ND	ND	ND	1.51	10.91	ND	ND	ND	ND	ND	0
61403	2017-01-29T10:00:00	82.4	ND	ND	ND	1.62	36.42	ND	ND	ND	ND	ND	0
61404	2017-01-29T11:00:00	74.2	ND	ND	ND	1.58	66.88	ND	ND	ND	ND	ND	0
61405	2017-01-29T12:00:00	56.1	ND	ND	ND	1.00	84.36	ND	ND	ND	ND	ND	0
61406	2017-01-29T13:00:00	62.4	ND	ND	ND	0.79	92.35	ND	ND	ND	ND	ND	0
61407	2017-01-29T14:00:00	63.1	ND	ND	ND	1.05	62.38	ND	ND	ND	ND	ND	0
61408	2017-01-29T15:00:00	40.6	ND	ND	ND	0.72	59.95	ND	ND	ND	ND	ND	0
61409	2017-01-29T16:00:00	32	ND	ND	ND	0.98	55.16	ND	ND	ND	ND	ND	0
61410	2017-01-29T17:00:00	24.9	ND	ND	ND	0.68	27.20	ND	ND	ND	ND	ND	0
61411	2017-01-29T18:00:00	9.4	ND	ND	ND	0.46	26.12	ND	ND	ND	ND	ND	0
61412	2017-01-29T19:00:00	15.8	ND	ND	ND	0.46	17.35	ND	ND	ND	ND	ND	0
61413	2017-01-29T20:00:00	15.1	ND	ND	ND	0.70	11.75	ND	ND	ND	ND	ND	0
61414	2017-01-29T21:00:00	32.7	ND	ND	ND	1.06	3.57	ND	ND	ND	ND	ND	0
61415	2017-01-29T22:00:00	50	ND	ND	ND	1.51	2.90	ND	ND	ND	ND	ND	0
61416	2017-01-29T23:00:00	35.7	ND	ND	ND	0.56	9.30	ND	ND	ND	ND	ND	0
61417	2017-01-30T00:00:00	22.3	ND	ND	ND	0.86	6.16	ND	ND	ND	ND	ND	0
61418	2017-01-30T01:00:00	26.4	ND	ND	ND	1.97	4.91	ND	ND	ND	ND	ND	0
61419	2017-01-30T02:00:00	63.1	ND	ND	ND	1.77	7.12	ND	ND	ND	ND	ND	0
61420	2017-01-30T03:00:00	72.6	ND	ND	ND	1.71	5.91	ND	ND	ND	ND	ND	0
61421	2017-01-30T04:00:00	51.8	ND	ND	ND	1.17	22.92	ND	ND	ND	ND	ND	0
61422	2017-01-30T05:00:00	14.4	ND	ND	ND	0.57	22.14	ND	ND	ND	ND	ND	0
61423	2017-01-30T06:00:00	22.9	ND	ND	ND	1.52	4.06	ND	ND	ND	ND	ND	0
61424	2017-01-30T07:00:00	75.7	ND	ND	ND	2.27	2.20	ND	ND	ND	ND	ND	0
61425	2017-01-30T08:00:00	90.3	ND	ND	ND	2.19	2.81	ND	ND	ND	ND	ND	0
61426	2017-01-30T09:00:00	110.6	ND	ND	ND	2.31	10.44	ND	ND	ND	ND	ND	0
61427	2017-01-30T10:00:00	125.9	ND	ND	ND	1.87	26.92	ND	ND	ND	ND	ND	0
61428	2017-01-30T11:00:00	107.2	ND	ND	ND	1.73	55.40	ND	ND	ND	ND	ND	0
61429	2017-01-30T12:00:00	83.9	ND	ND	ND	0.96	55.81	ND	ND	ND	ND	ND	0
61430	2017-01-30T13:00:00	67.7	ND	ND	ND	1.18	60.09	ND	ND	ND	ND	ND	0
61431	2017-01-30T14:00:00	66.7	ND	ND	ND	0.50	77.42	ND	ND	ND	ND	ND	0
61432	2017-01-30T15:00:00	58.6	ND	ND	ND	0.84	82.38	ND	ND	ND	ND	ND	0
61433	2017-01-30T16:00:00	46.8	ND	ND	ND	1.02	64.93	ND	ND	ND	ND	ND	0
61434	2017-01-30T17:00:00	36.8	ND	ND	ND	0.46	21.29	ND	ND	ND	ND	ND	0
61435	2017-01-30T18:00:00	27.2	ND	ND	ND	0.42	17.80	ND	ND	ND	ND	ND	0
61436	2017-01-30T19:00:00	34	ND	ND	ND	0.68	3.24	ND	ND	ND	ND	ND	6.86
61437	2017-01-30T20:00:00	54.2	ND	ND	ND	0.79	2.41	ND	ND	ND	ND	ND	0.25
61438	2017-01-30T21:00:00	60.7	ND	ND	ND	1.80	1.71	ND	ND	ND	ND	ND	0
61439	2017-01-30T22:00:00	51.7	ND	ND	ND	1.35	1.61	ND	ND	ND	ND	ND	0
61440	2017-01-30T23:00:00	52.4	ND	ND	ND	1.41	1.77	ND	ND	ND	ND	ND	0.25
61441	2017-01-31T00:00:00	48.2	ND	ND	ND	1.59	1.28	ND	ND	ND	ND	ND	0
61442	2017-01-31T01:00:00	36.5	ND	ND	ND	1.67	1.63	ND	ND	ND	ND	ND	0
61443	2017-01-31T02:00:00	31.3	ND	ND	ND	0.77	4.51	ND	ND	ND	ND	ND	0
61444	2017-01-31T03:00:00	39.2	ND	ND	ND	1.00	3.65	ND	ND	ND	ND	ND	0
61445	2017-01-31T04:00:00	28.2	ND	ND	ND	1.35	4.06	ND	ND	ND	ND	ND	0
61446	2017-01-31T05:00:00	48.2	ND	ND	ND	2.26	1.31	ND	ND	ND	ND	ND	0
61447	2017-01-31T06:00:00	62.3	ND	ND	ND	2.37	1.65	ND	ND	ND	ND	ND	0
61448	2017-01-31T07:00:00	99.9	ND	ND	ND	2.86	1.30	ND	ND	ND	ND	ND	0
61449	2017-01-31T08:00:00	80.7	ND	ND	ND	3.33	2.18	ND	ND	ND	ND	ND	0
61450	2017-01-31T09:00:00	105.2	ND	ND	ND	2.83	5.02	ND	ND	ND	ND	ND	0
61451	2017-01-31T10:00:00	120.4	ND	ND	ND	1.49	15.99	ND	ND	ND	ND	ND	0
61452	2017-01-31T11:00:00	72.3	ND	ND	ND	1.38	40.54	ND	ND	ND	ND	ND	0
61453	2017-01-31T12:00:00	72.3	ND	ND	ND	1.35	65.94	ND	ND	ND	ND	ND	0
61454	2017-01-31T13:00:00	66.4	ND	ND	ND	0.96	85.40	ND	ND	ND	ND	ND	0
61455	2017-01-31T14:00:00	73.2	ND	ND	ND	1.27	110.89	ND	ND	ND	ND	ND	0
61456	2017-01-31T15:00:00	55.5	ND	ND	ND	0.53	53.42	ND	ND	ND	ND	ND	0
61457	2017-01-31T16:00:00	31.7	ND	ND	ND	0.64	35.89	ND	ND	ND	ND	ND	0
61458	2017-01-31T17:00:00	26.7	ND	ND	ND	0.70	19.60	ND	ND	ND	ND	ND	0
61459	2017-01-31T18:00:00	24.2	ND	ND	ND	0.79	12.83	ND	ND	ND	ND	ND	0
61460	2017-01-31T19:00:00	72.5	ND	ND	ND	0.77	2.00	ND	ND	ND	ND	ND	0
61461	2017-01-31T20:00:00	73.4	ND	ND	ND	0.85	7.01	ND	ND	ND	ND	ND	0
61462	2017-01-31T21:00:00	35.8	ND	ND	ND	0.95	4.24	ND	ND	ND	ND	ND	0
61463	2017-01-31T22:00:00	3.2	ND	ND	ND	1.28	1.20	ND	ND	ND	ND	ND	0
61464	2017-01-31T23:00:00	61.9	ND	ND	ND	1.53	1.51	ND	ND	ND	ND	ND	0
61465	2017-02-01T00:00:00	89	ND	ND	ND	3.23	1.84	ND	ND	ND	ND	ND	0
61466	2017-02-01T01:00:00	52.8	ND	ND	ND	1.59	7.65	ND	ND	ND	ND	ND	0
61467	2017-02-01T02:00:00	29.8	ND	ND	ND	1.51	2.53	ND	ND	ND	ND	ND	0
61468	2017-02-01T03:00:00	38.9	ND	ND	ND	1.39	1.37	ND	ND	ND	ND	ND	0
61469	2017-02-01T04:00:00	26	ND	ND	ND	1.24	0.88	ND	ND	ND	ND	ND	0
61470	2017-02-01T05:00:00	29.1	ND	ND	ND	0.86	1.41	ND	ND	ND	ND	ND	0
61471	2017-02-01T06:00:00	53.5	ND	ND	ND	2.05	1.10	ND	ND	ND	ND	ND	0
61472	2017-02-01T07:00:00	70.6	ND	ND	ND	2.08	1.24	ND	ND	ND	ND	ND	0
61473	2017-02-01T08:00:00	88.8	ND	ND	ND	2.47	2.24	ND	ND	ND	ND	ND	0
61474	2017-02-01T09:00:00	150.4	ND	ND	ND	2.48	7.65	ND	ND	ND	ND	ND	0
61475	2017-02-01T10:00:00	114.5	ND	ND	ND	1.35	42.37	ND	ND	ND	ND	ND	0
61476	2017-02-01T11:00:00	86.5	ND	ND	ND	0.68	54.51	ND	ND	ND	ND	ND	0
61477	2017-02-01T12:00:00	41.9	ND	ND	ND	0.82	57.87	ND	ND	ND	ND	ND	0
61478	2017-02-01T13:00:00	39.2	ND	ND	ND	0.57	65.66	ND	ND	ND	ND	ND	0
61479	2017-02-01T14:00:00	49.4	ND	ND	ND	0.54	78.53	ND	ND	ND	ND	ND	0
61480	2017-02-01T15:00:00	58.8	ND	ND	ND	0.71	80.99	ND	ND	ND	ND	ND	0
61481	2017-02-01T16:00:00	64.6	ND	ND	ND	0.82	77.95	ND	ND	ND	ND	ND	0
61482	2017-02-01T17:00:00	45.5	ND	ND	ND	0.52	23.88	ND	ND	ND	ND	ND	0
61483	2017-02-01T18:00:00	40.5	ND	ND	ND	0.39	14.74	ND	ND	ND	ND	ND	0
61484	2017-02-01T19:00:00	45	ND	ND	ND	0.31	11.68	ND	ND	ND	ND	ND	0
61485	2017-02-01T20:00:00	18.1	ND	ND	ND	0.67	10.28	ND	ND	ND	ND	ND	0
61486	2017-02-01T21:00:00	26.5	ND	ND	ND	0.40	13.17	ND	ND	ND	ND	ND	0
61487	2017-02-01T22:00:00	35	ND	ND	ND	0.95	3.16	ND	ND	ND	ND	ND	0
61488	2017-02-01T23:00:00	37.5	ND	ND	ND	0.45	9.79	ND	ND	ND	ND	ND	0
61489	2017-02-02T00:00:00	28.8	ND	ND	ND	0.78	7.67	ND	ND	ND	ND	ND	0
61490	2017-02-02T01:00:00	26.4	ND	ND	ND	1.02	10.60	ND	ND	ND	ND	ND	0
61491	2017-02-02T02:00:00	38.3	ND	ND	ND	1.67	4.14	ND	ND	ND	ND	ND	0
61492	2017-02-02T03:00:00	52	ND	ND	ND	1.84	4.06	ND	ND	ND	ND	ND	0
61493	2017-02-02T04:00:00	50	ND	ND	ND	0.78	8.77	ND	ND	ND	ND	ND	0
61494	2017-02-02T05:00:00	46.9	ND	ND	ND	1.16	4.95	ND	ND	ND	ND	ND	0
61495	2017-02-02T06:00:00	41.9	ND	ND	ND	1.05	3.69	ND	ND	ND	ND	ND	0
61496	2017-02-02T07:00:00	65.4	ND	ND	ND	1.30	1.43	ND	ND	ND	ND	ND	0
61497	2017-02-02T08:00:00	96.7	ND	ND	ND	1.31	2.59	ND	ND	ND	ND	ND	0
61498	2017-02-02T09:00:00	122.3	ND	ND	ND	1.70	12.11	ND	ND	ND	ND	ND	0
61499	2017-02-02T10:00:00	125.4	ND	ND	ND	2.06	44.94	ND	ND	ND	ND	ND	0
61500	2017-02-02T11:00:00	134.2	ND	ND	ND	1.12	89.07	ND	ND	ND	ND	ND	0
61501	2017-02-02T12:00:00	81.7	ND	ND	ND	0.74	88.86	ND	ND	ND	ND	ND	0
61502	2017-02-02T13:00:00	62.4	ND	ND	ND	0.64	99.69	ND	ND	ND	ND	ND	0
61503	2017-02-02T14:00:00	52.5	ND	ND	ND	0.32	77.44	ND	ND	ND	ND	ND	0
61504	2017-02-02T15:00:00	10.7	ND	ND	ND	0.50	30.10	ND	ND	ND	ND	ND	0
61505	2017-02-02T16:00:00	16.3	ND	ND	ND	0.17	28.79	ND	ND	ND	ND	ND	0
61506	2017-02-02T17:00:00	34.9	ND	ND	ND	0.28	25.22	ND	ND	ND	ND	ND	0
61507	2017-02-02T18:00:00	44	ND	ND	ND	0.50	18.92	ND	ND	ND	ND	ND	0
61508	2017-02-02T19:00:00	26.1	ND	ND	ND	0.42	14.97	ND	ND	ND	ND	ND	0
61509	2017-02-02T20:00:00	51.5	ND	ND	ND	0.38	17.15	ND	ND	ND	ND	ND	0
61510	2017-02-02T21:00:00	38	ND	ND	ND	0.56	18.90	ND	ND	ND	ND	ND	0
61511	2017-02-02T22:00:00	33.6	ND	ND	ND	0.39	18.17	ND	ND	ND	ND	ND	0
61512	2017-02-02T23:00:00	22.5	ND	ND	ND	0.72	10.62	ND	ND	ND	ND	ND	0
61513	2017-02-03T00:00:00	43.2	ND	ND	ND	1.25	3.43	ND	ND	ND	ND	ND	0
61514	2017-02-03T01:00:00	48.9	ND	ND	ND	1.20	4.00	ND	ND	ND	ND	ND	0
61515	2017-02-03T02:00:00	33.7	ND	ND	ND	1.59	4.69	ND	ND	ND	ND	ND	0
61516	2017-02-03T03:00:00	36	ND	ND	ND	1.42	5.57	ND	ND	ND	ND	ND	0
61517	2017-02-03T04:00:00	22.5	ND	ND	ND	1.59	5.67	ND	ND	ND	ND	ND	0
61518	2017-02-03T05:00:00	31	ND	ND	ND	1.69	3.83	ND	ND	ND	ND	ND	0
61519	2017-02-03T06:00:00	21.8	ND	ND	ND	1.31	1.49	ND	ND	ND	ND	ND	0
61520	2017-02-03T07:00:00	80	ND	ND	ND	3.14	1.83	ND	ND	ND	ND	ND	0
61521	2017-02-03T08:00:00	115	ND	ND	ND	2.98	3.32	ND	ND	ND	ND	ND	0
61522	2017-02-03T09:00:00	98.4	ND	ND	ND	1.87	12.44	ND	ND	ND	ND	ND	0
61523	2017-02-03T10:00:00	101.5	ND	ND	ND	2.04	25.90	ND	ND	ND	ND	ND	0
61524	2017-02-03T11:00:00	78.1	ND	ND	ND	1.09	53.51	ND	ND	ND	ND	ND	0
61525	2017-02-03T12:00:00	72.5	ND	ND	ND	0.57	83.17	ND	ND	ND	ND	ND	0
61526	2017-02-03T13:00:00	66.1	ND	ND	ND	1.00	119.16	ND	ND	ND	ND	ND	0
61527	2017-02-03T14:00:00	71.9	ND	ND	ND	0.42	129.71	ND	ND	ND	ND	ND	0
61528	2017-02-03T15:00:00	45	ND	ND	ND	0.39	60.30	ND	ND	ND	ND	ND	0
61529	2017-02-03T16:00:00	32.5	ND	ND	ND	0.26	31.16	ND	ND	ND	ND	ND	0
61530	2017-02-03T17:00:00	36.3	ND	ND	ND	0.61	26.14	ND	ND	ND	ND	ND	0
61531	2017-02-03T18:00:00	40.4	ND	ND	ND	0.63	21.84	ND	ND	ND	ND	ND	0
61532	2017-02-03T19:00:00	40.1	ND	ND	ND	0.33	17.05	ND	ND	ND	ND	ND	0
61533	2017-02-03T20:00:00	40	ND	ND	ND	0.64	20.98	ND	ND	ND	ND	ND	0
61534	2017-02-03T21:00:00	30	ND	ND	ND	0.20	17.94	ND	ND	ND	ND	ND	0
61535	2017-02-03T22:00:00	17.1	ND	ND	ND	0.82	10.30	ND	ND	ND	ND	ND	0
61536	2017-02-03T23:00:00	44.2	ND	ND	ND	0.86	10.17	ND	ND	ND	ND	ND	0
61537	2017-02-04T00:00:00	39.8	ND	ND	ND	0.35	7.75	ND	ND	ND	ND	ND	0
61538	2017-02-04T01:00:00	30.4	ND	ND	ND	1.23	3.85	ND	ND	ND	ND	ND	0
61539	2017-02-04T02:00:00	38.3	ND	ND	ND	0.85	7.30	ND	ND	ND	ND	ND	0
61540	2017-02-04T03:00:00	28.7	ND	ND	ND	0.50	9.36	ND	ND	ND	ND	ND	0
61541	2017-02-04T04:00:00	25.3	ND	ND	ND	0.68	7.73	ND	ND	ND	ND	ND	0
61542	2017-02-04T05:00:00	24.6	ND	ND	ND	1.39	2.24	ND	ND	ND	ND	ND	0
61543	2017-02-04T06:00:00	47.1	ND	ND	ND	1.70	1.43	ND	ND	ND	ND	ND	0
61544	2017-02-04T07:00:00	74.4	ND	ND	ND	1.99	1.57	ND	ND	ND	ND	ND	0
61545	2017-02-04T08:00:00	76.8	ND	ND	ND	2.58	2.35	ND	ND	ND	ND	ND	0
61546	2017-02-04T09:00:00	103.5	ND	ND	ND	2.65	4.55	ND	ND	ND	ND	ND	0
61547	2017-02-04T10:00:00	121.6	ND	ND	ND	1.98	24.02	ND	ND	ND	ND	ND	0
61548	2017-02-04T11:00:00	107.2	ND	ND	ND	1.45	49.26	ND	ND	ND	ND	ND	0
61549	2017-02-04T12:00:00	82	ND	ND	ND	0.96	61.13	ND	ND	ND	ND	ND	0
61550	2017-02-04T13:00:00	68.2	ND	ND	ND	1.06	96.74	ND	ND	ND	ND	ND	0
61551	2017-02-04T14:00:00	65.8	ND	ND	ND	0.74	87.44	ND	ND	ND	ND	ND	0
61552	2017-02-04T15:00:00	59.4	ND	ND	ND	0.75	84.75	ND	ND	ND	ND	ND	0
61553	2017-02-04T16:00:00	47.2	ND	ND	ND	0.53	112.03	ND	ND	ND	ND	ND	0
61554	2017-02-04T17:00:00	48.9	ND	ND	ND	0.75	95.06	ND	ND	ND	ND	ND	0
61555	2017-02-04T18:00:00	48.5	ND	ND	ND	0.40	39.44	ND	ND	ND	ND	ND	0
61556	2017-02-04T19:00:00	40.4	ND	ND	ND	0.36	29.77	ND	ND	ND	ND	ND	0
61557	2017-02-04T20:00:00	45.1	ND	ND	ND	0.25	24.25	ND	ND	ND	ND	ND	0
61558	2017-02-04T21:00:00	38.9	ND	ND	ND	0.49	24.06	ND	ND	ND	ND	ND	0
61559	2017-02-04T22:00:00	30.2	ND	ND	ND	0.46	21.10	ND	ND	ND	ND	ND	0
61560	2017-02-04T23:00:00	22.8	ND	ND	ND	0.89	11.05	ND	ND	ND	ND	ND	0
61561	2017-02-05T00:00:00	44.5	ND	ND	ND	2.13	2.28	ND	ND	ND	ND	ND	0
61562	2017-02-05T01:00:00	54.2	ND	ND	ND	0.92	7.95	ND	ND	ND	ND	ND	0
61563	2017-02-05T02:00:00	37.5	ND	ND	ND	0.70	13.89	ND	ND	ND	ND	ND	0
61564	2017-02-05T03:00:00	25.6	ND	ND	ND	0.64	9.09	ND	ND	ND	ND	ND	0
61565	2017-02-05T04:00:00	37	ND	ND	ND	0.70	4.57	ND	ND	ND	ND	ND	0
61566	2017-02-05T05:00:00	60.4	ND	ND	ND	1.42	4.51	ND	ND	ND	ND	ND	0
61567	2017-02-05T06:00:00	64.7	ND	ND	ND	1.17	1.61	ND	ND	ND	ND	ND	0
61568	2017-02-05T07:00:00	72.9	ND	ND	ND	1.55	1.49	ND	ND	ND	ND	ND	0
61569	2017-02-05T08:00:00	82.9	ND	ND	ND	2.41	5.42	ND	ND	ND	ND	ND	0
61570	2017-02-05T09:00:00	91.1	ND	ND	ND	1.94	22.41	ND	ND	ND	ND	ND	0
61571	2017-02-05T10:00:00	81.3	ND	ND	ND	0.71	35.48	ND	ND	ND	ND	ND	0
61572	2017-02-05T11:00:00	55.1	ND	ND	ND	0.46	63.70	ND	ND	ND	ND	ND	0
61573	2017-02-05T12:00:00	51	ND	ND	ND	0.56	95.16	ND	ND	ND	ND	ND	0
61574	2017-02-05T13:00:00	53.1	ND	ND	ND	0.42	108.44	ND	ND	ND	ND	ND	0
61575	2017-02-05T14:00:00	56.7	ND	ND	ND	0.77	125.40	ND	ND	ND	ND	ND	0
61576	2017-02-05T15:00:00	60.8	ND	ND	ND	0.33	140.76	ND	ND	ND	ND	ND	0
61577	2017-02-05T16:00:00	59.4	ND	ND	ND	0.79	103.91	ND	ND	ND	ND	ND	0
61578	2017-02-05T17:00:00	42.6	ND	ND	ND	0.26	57.32	ND	ND	ND	ND	ND	0
61579	2017-02-05T18:00:00	37.2	ND	ND	ND	0.11	46.68	ND	ND	ND	ND	ND	0
61580	2017-02-05T19:00:00	36.4	ND	ND	ND	0.33	40.29	ND	ND	ND	ND	ND	0
61581	2017-02-05T20:00:00	31.7	ND	ND	ND	0.38	23.20	ND	ND	ND	ND	ND	0
61582	2017-02-05T21:00:00	23	ND	ND	ND	0.14	27.57	ND	ND	ND	ND	ND	0
61583	2017-02-05T22:00:00	17.9	ND	ND	ND	0.33	17.72	ND	ND	ND	ND	ND	0
61584	2017-02-05T23:00:00	28.5	ND	ND	ND	1.51	4.73	ND	ND	ND	ND	ND	0
61585	2017-02-06T00:00:00	46.9	ND	ND	ND	1.51	1.26	ND	ND	ND	ND	ND	0
61586	2017-02-06T01:00:00	52.4	ND	ND	ND	1.27	2.75	ND	ND	ND	ND	ND	0
61587	2017-02-06T02:00:00	60.7	ND	ND	ND	2.06	2.81	ND	ND	ND	ND	ND	0
61588	2017-02-06T03:00:00	60.3	ND	ND	ND	1.71	3.49	ND	ND	ND	ND	ND	0
61589	2017-02-06T04:00:00	60.2	ND	ND	ND	1.30	3.92	ND	ND	ND	ND	ND	0
61590	2017-02-06T05:00:00	60.9	ND	ND	ND	1.05	3.02	ND	ND	ND	ND	ND	0
61591	2017-02-06T06:00:00	40.5	ND	ND	ND	1.02	3.67	ND	ND	ND	ND	ND	0
61592	2017-02-06T07:00:00	56.2	ND	ND	ND	0.96	1.65	ND	ND	ND	ND	ND	0
61593	2017-02-06T08:00:00	69.1	ND	ND	ND	1.25	3.77	ND	ND	ND	ND	ND	0
61594	2017-02-06T09:00:00	127.4	ND	ND	ND	1.06	10.32	ND	ND	ND	ND	ND	0
61595	2017-02-06T10:00:00	105.3	ND	ND	ND	0.85	36.11	ND	ND	ND	ND	ND	0
61596	2017-02-06T11:00:00	77	ND	ND	ND	0.54	50.45	ND	ND	ND	ND	ND	0
61597	2017-02-06T12:00:00	66.6	ND	ND	ND	0.43	66.41	ND	ND	ND	ND	ND	0
61598	2017-02-06T13:00:00	59.7	ND	ND	ND	0.89	106.14	ND	ND	ND	ND	ND	0
61599	2017-02-06T14:00:00	70.2	ND	ND	ND	0.60	143.33	ND	ND	ND	ND	ND	0
61600	2017-02-06T15:00:00	67.9	ND	ND	ND	0.33	92.02	ND	ND	ND	ND	ND	0
61601	2017-02-06T16:00:00	51.6	ND	ND	ND	0.63	32.10	ND	ND	ND	ND	ND	0
61602	2017-02-06T17:00:00	46.7	ND	ND	ND	0.40	28.63	ND	ND	ND	ND	ND	0
61603	2017-02-06T18:00:00	46.1	ND	ND	ND	0.42	21.17	ND	ND	ND	ND	ND	0
61604	2017-02-06T19:00:00	39.1	ND	ND	ND	0.47	19.96	ND	ND	ND	ND	ND	0
61605	2017-02-06T20:00:00	36.5	ND	ND	ND	0.42	20.21	ND	ND	ND	ND	ND	0
61606	2017-02-06T21:00:00	35.1	ND	ND	ND	0.40	18.23	ND	ND	ND	ND	ND	0
61607	2017-02-06T22:00:00	25.1	ND	ND	ND	0.46	15.13	ND	ND	ND	ND	ND	0
61608	2017-02-06T23:00:00	17.2	ND	ND	ND	0.53	15.13	ND	ND	ND	ND	ND	0
61609	2017-02-07T00:00:00	22.8	ND	ND	ND	0.32	15.66	ND	ND	ND	ND	ND	0
61610	2017-02-07T01:00:00	37.9	ND	ND	ND	1.03	11.30	ND	ND	ND	ND	ND	0
61611	2017-02-07T02:00:00	27.6	ND	ND	ND	0.78	22.25	ND	ND	ND	ND	ND	0
61612	2017-02-07T03:00:00	28	ND	ND	ND	2.40	1.73	ND	ND	ND	ND	ND	0
61613	2017-02-07T04:00:00	60.3	ND	ND	ND	1.44	1.55	ND	ND	ND	ND	ND	0
61614	2017-02-07T05:00:00	62.9	ND	ND	ND	1.62	1.24	ND	ND	ND	ND	ND	0
61615	2017-02-07T06:00:00	75.3	ND	ND	ND	1.31	2.00	ND	ND	ND	ND	ND	0
61616	2017-02-07T07:00:00	58.6	ND	ND	ND	1.05	2.00	ND	ND	ND	ND	ND	0
61617	2017-02-07T08:00:00	90.2	ND	ND	ND	1.41	2.00	ND	ND	ND	ND	ND	0
61618	2017-02-07T09:00:00	123.3	ND	ND	ND	1.39	8.67	ND	ND	ND	ND	ND	0
61619	2017-02-07T10:00:00	121	ND	ND	ND	1.12	32.03	ND	ND	ND	ND	ND	0
61620	2017-02-07T11:00:00	82.6	ND	ND	ND	0.66	58.73	ND	ND	ND	ND	ND	0
61621	2017-02-07T12:00:00	79.2	ND	ND	ND	0.86	78.97	ND	ND	ND	ND	ND	0
61622	2017-02-07T13:00:00	78.1	ND	ND	ND	1.05	103.10	ND	ND	ND	ND	ND	0
61623	2017-02-07T14:00:00	80.6	ND	ND	ND	0.49	120.10	ND	ND	ND	ND	ND	0
61624	2017-02-07T15:00:00	56.8	ND	ND	ND	0.46	65.45	ND	ND	ND	ND	ND	0
61625	2017-02-07T16:00:00	46	ND	ND	ND	0.61	37.40	ND	ND	ND	ND	ND	0
61626	2017-02-07T17:00:00	42.7	ND	ND	ND	0.63	29.00	ND	ND	ND	ND	ND	0
61627	2017-02-07T18:00:00	41.2	ND	ND	ND	0.29	21.84	ND	ND	ND	ND	ND	0
61628	2017-02-07T19:00:00	47.6	ND	ND	ND	0.81	15.91	ND	ND	ND	ND	ND	0
61629	2017-02-07T20:00:00	27	ND	ND	ND	0.63	15.15	ND	ND	ND	ND	ND	0
61630	2017-02-07T21:00:00	31.9	ND	ND	ND	0.66	21.94	ND	ND	ND	ND	ND	0
61631	2017-02-07T22:00:00	41.4	ND	ND	ND	1.05	5.85	ND	ND	ND	ND	ND	0
61632	2017-02-07T23:00:00	51.4	ND	ND	ND	1.60	1.94	ND	ND	ND	ND	ND	0
61633	2017-02-08T00:00:00	56.2	ND	ND	ND	1.16	1.65	ND	ND	ND	ND	ND	0
61634	2017-02-08T01:00:00	79.7	ND	ND	ND	1.58	1.26	ND	ND	ND	ND	ND	0
61635	2017-02-08T02:00:00	71.4	ND	ND	ND	1.76	2.10	ND	ND	ND	ND	ND	0
61636	2017-02-08T03:00:00	60.4	ND	ND	ND	1.31	3.47	ND	ND	ND	ND	ND	0
61637	2017-02-08T04:00:00	59.5	ND	ND	ND	1.18	1.96	ND	ND	ND	ND	ND	0
61638	2017-02-08T05:00:00	56.4	ND	ND	ND	1.09	1.96	ND	ND	ND	ND	ND	0
61639	2017-02-08T06:00:00	60.7	ND	ND	ND	1.03	1.51	ND	ND	ND	ND	ND	0
61640	2017-02-08T07:00:00	75.4	ND	ND	ND	1.18	1.98	ND	ND	ND	ND	ND	0
61641	2017-02-08T08:00:00	120.4	ND	ND	ND	1.67	2.51	ND	ND	ND	ND	ND	0
61642	2017-02-08T09:00:00	137.7	ND	ND	ND	1.34	13.91	ND	ND	ND	ND	ND	0
61643	2017-02-08T10:00:00	109.7	ND	ND	ND	1.14	36.28	ND	ND	ND	ND	ND	0
61644	2017-02-08T11:00:00	79.7	ND	ND	ND	1.14	54.10	ND	ND	ND	ND	ND	0
61645	2017-02-08T12:00:00	70.4	ND	ND	ND	0.75	83.73	ND	ND	ND	ND	ND	0
61646	2017-02-08T13:00:00	75.1	ND	ND	ND	0.68	120.47	ND	ND	ND	ND	ND	0
61647	2017-02-08T14:00:00	76	ND	ND	ND	0.32	87.62	ND	ND	ND	ND	ND	0
61648	2017-02-08T15:00:00	53.4	ND	ND	ND	0.38	41.19	ND	ND	ND	ND	ND	0
61649	2017-02-08T16:00:00	53.6	ND	ND	ND	0.52	30.97	ND	ND	ND	ND	ND	0
61650	2017-02-08T17:00:00	46.8	ND	ND	ND	0.91	27.14	ND	ND	ND	ND	ND	0
61651	2017-02-08T18:00:00	50.3	ND	ND	ND	0.14	24.20	ND	ND	ND	ND	ND	0
61652	2017-02-08T19:00:00	39.3	ND	ND	ND	0.28	22.00	ND	ND	ND	ND	ND	0
61653	2017-02-08T20:00:00	36.3	ND	ND	ND	0.31	24.45	ND	ND	ND	ND	ND	0
61654	2017-02-08T21:00:00	21.6	ND	ND	ND	0.57	26.10	ND	ND	ND	ND	ND	0
61655	2017-02-08T22:00:00	20.6	ND	ND	ND	0.50	23.94	ND	ND	ND	ND	ND	0
61656	2017-02-08T23:00:00	18.4	ND	ND	ND	0.53	25.00	ND	ND	ND	ND	ND	0
61657	2017-02-09T00:00:00	4.9	ND	ND	ND	0.56	28.93	ND	ND	ND	ND	ND	0
61658	2017-02-09T01:00:00	27.6	ND	ND	ND	1.30	8.03	ND	ND	ND	ND	ND	0
61659	2017-02-09T02:00:00	65.1	ND	ND	ND	1.38	2.94	ND	ND	ND	ND	ND	0
61660	2017-02-09T03:00:00	52.7	ND	ND	ND	1.55	5.61	ND	ND	ND	ND	ND	0
61661	2017-02-09T04:00:00	58.7	ND	ND	ND	1.16	5.02	ND	ND	ND	ND	ND	0
61662	2017-02-09T05:00:00	47.6	ND	ND	ND	1.34	5.18	ND	ND	ND	ND	ND	0
61663	2017-02-09T06:00:00	49.7	ND	ND	ND	1.84	1.67	ND	ND	ND	ND	ND	0
61664	2017-02-09T07:00:00	84.8	ND	ND	ND	0.81	2.14	ND	ND	ND	ND	ND	14.73
61665	2017-02-09T08:00:00	64.4	ND	ND	ND	0.71	5.00	ND	ND	ND	ND	ND	0.25
61666	2017-02-09T09:00:00	49.3	ND	ND	ND	0.67	4.73	ND	ND	ND	ND	ND	0
61667	2017-02-09T10:00:00	49.1	ND	ND	ND	0.54	13.21	ND	ND	ND	ND	ND	0
61668	2017-02-09T11:00:00	60.3	ND	ND	ND	0.70	51.75	ND	ND	ND	ND	ND	0
61669	2017-02-09T12:00:00	75.4	ND	ND	ND	0.50	81.22	ND	ND	ND	ND	ND	0
61670	2017-02-09T13:00:00	69.9	ND	ND	ND	0.39	102.71	ND	ND	ND	ND	ND	0
61671	2017-02-09T14:00:00	73	ND	ND	ND	0.57	73.27	ND	ND	ND	ND	ND	0
61672	2017-02-09T15:00:00	65.6	ND	ND	ND	0.72	46.55	ND	ND	ND	ND	ND	0
61673	2017-02-09T16:00:00	22	ND	ND	ND	0.47	31.65	ND	ND	ND	ND	ND	0
61674	2017-02-09T17:00:00	28.8	ND	ND	ND	0.38	28.12	ND	ND	ND	ND	ND	0
61675	2017-02-09T18:00:00	34.4	ND	ND	ND	0.22	19.82	ND	ND	ND	ND	ND	0
61676	2017-02-09T19:00:00	14.8	ND	ND	ND	0.20	23.23	ND	ND	ND	ND	ND	0
61677	2017-02-09T20:00:00	24.6	ND	ND	ND	0.59	21.47	ND	ND	ND	ND	ND	0
61678	2017-02-09T21:00:00	44.2	ND	ND	ND	0.72	12.32	ND	ND	ND	ND	ND	0
61679	2017-02-09T22:00:00	57.3	ND	ND	ND	1.17	4.91	ND	ND	ND	ND	ND	0
61680	2017-02-09T23:00:00	64	ND	ND	ND	0.61	15.93	ND	ND	ND	ND	ND	0
61681	2017-02-10T00:00:00	49.6	ND	ND	ND	0.63	5.57	ND	ND	ND	ND	ND	0
61682	2017-02-10T01:00:00	57.1	ND	ND	ND	0.82	13.97	ND	ND	ND	ND	ND	0
61683	2017-02-10T02:00:00	31.6	ND	ND	ND	0.53	20.78	ND	ND	ND	ND	ND	0
61684	2017-02-10T03:00:00	29.5	ND	ND	ND	0.72	14.91	ND	ND	ND	ND	ND	0
61685	2017-02-10T04:00:00	33.1	ND	ND	ND	0.92	16.07	ND	ND	ND	ND	ND	0
61686	2017-02-10T05:00:00	17.3	ND	ND	ND	1.30	17.11	ND	ND	ND	ND	ND	0
61687	2017-02-10T06:00:00	23.3	ND	ND	ND	1.63	1.55	ND	ND	ND	ND	ND	0
61688	2017-02-10T07:00:00	51.3	ND	ND	ND	1.77	2.45	ND	ND	ND	ND	ND	0
61689	2017-02-10T08:00:00	57.5	ND	ND	ND	1.46	4.24	ND	ND	ND	ND	ND	0
61690	2017-02-10T09:00:00	81.3	ND	ND	ND	0.86	8.07	ND	ND	ND	ND	ND	0
61691	2017-02-10T10:00:00	80.3	ND	ND	ND	0.57	20.33	ND	ND	ND	ND	ND	0
61692	2017-02-10T11:00:00	66.1	ND	ND	ND	0.77	19.86	ND	ND	ND	ND	ND	0
61693	2017-02-10T12:00:00	57	ND	ND	ND	0.60	33.18	ND	ND	ND	ND	ND	0
61694	2017-02-10T13:00:00	51.7	ND	ND	ND	0.46	44.00	ND	ND	ND	ND	ND	0
61695	2017-02-10T14:00:00	28.8	ND	ND	ND	0.40	58.40	ND	ND	ND	ND	ND	0
61696	2017-02-10T15:00:00	24	ND	ND	ND	0.47	94.63	ND	ND	ND	ND	ND	0
61697	2017-02-10T16:00:00	41.8	ND	ND	ND	0.61	66.21	ND	ND	ND	ND	ND	0
61698	2017-02-10T17:00:00	49.3	ND	ND	ND	0.47	25.04	ND	ND	ND	ND	ND	0
61699	2017-02-10T18:00:00	50.4	ND	ND	ND	0.25	19.55	ND	ND	ND	ND	ND	0
61700	2017-02-10T19:00:00	64.9	ND	ND	ND	ND	14.99	ND	ND	ND	ND	ND	0
61701	2017-02-10T20:00:00	48.2	ND	ND	ND	0.35	5.83	ND	ND	ND	ND	ND	0
61702	2017-02-10T21:00:00	30.9	ND	ND	ND	0.33	12.32	ND	ND	ND	ND	ND	0
61703	2017-02-10T22:00:00	37.9	ND	ND	ND	0.39	9.34	ND	ND	ND	ND	ND	0
61704	2017-02-10T23:00:00	35.5	ND	ND	ND	0.25	15.88	ND	ND	ND	ND	ND	0
61705	2017-02-11T00:00:00	25.7	ND	ND	ND	0.35	16.88	ND	ND	ND	ND	ND	0
61706	2017-02-11T01:00:00	26.2	ND	ND	ND	1.70	9.18	ND	ND	ND	ND	ND	0
61707	2017-02-11T02:00:00	43.6	ND	ND	ND	0.46	19.00	ND	ND	ND	ND	ND	0
61708	2017-02-11T03:00:00	13.9	ND	ND	ND	0.68	22.06	ND	ND	ND	ND	ND	0
61709	2017-02-11T04:00:00	15.4	ND	ND	ND	0.32	20.74	ND	ND	ND	ND	ND	0
61710	2017-02-11T05:00:00	27.5	ND	ND	ND	1.78	1.88	ND	ND	ND	ND	ND	0
61711	2017-02-11T06:00:00	61.5	ND	ND	ND	0.79	5.71	ND	ND	ND	ND	ND	0
61712	2017-02-11T07:00:00	57.8	ND	ND	ND	1.14	5.83	ND	ND	ND	ND	ND	0
61713	2017-02-11T08:00:00	85.2	ND	ND	ND	0.96	3.77	ND	ND	ND	ND	ND	0
61714	2017-02-11T09:00:00	107.7	ND	ND	ND	1.21	12.62	ND	ND	ND	ND	ND	0
61715	2017-02-11T10:00:00	89	ND	ND	ND	0.70	45.47	ND	ND	ND	ND	ND	0
61716	2017-02-11T11:00:00	61.6	ND	ND	ND	0.78	84.05	ND	ND	ND	ND	ND	0
61717	2017-02-11T12:00:00	59.5	ND	ND	ND	0.67	125.61	ND	ND	ND	ND	ND	0
61718	2017-02-11T13:00:00	71.9	ND	ND	ND	0.78	135.66	ND	ND	ND	ND	ND	0
61719	2017-02-11T14:00:00	88.9	ND	ND	ND	0.61	122.53	ND	ND	ND	ND	ND	0
61720	2017-02-11T15:00:00	70.3	ND	ND	ND	0.53	74.20	ND	ND	ND	ND	ND	0
61721	2017-02-11T16:00:00	35.7	ND	ND	ND	0.49	33.32	ND	ND	ND	ND	ND	0
61722	2017-02-11T17:00:00	23	ND	ND	ND	0.32	27.16	ND	ND	ND	ND	ND	0
61723	2017-02-11T18:00:00	24.8	ND	ND	ND	0.53	23.47	ND	ND	ND	ND	ND	0
61724	2017-02-11T19:00:00	20.5	ND	ND	ND	0.18	16.72	ND	ND	ND	ND	ND	0
61725	2017-02-11T20:00:00	28	ND	ND	ND	0.00	18.94	ND	ND	ND	ND	ND	0
61726	2017-02-11T21:00:00	8.6	ND	ND	ND	0.31	18.11	ND	ND	ND	ND	ND	0
61727	2017-02-11T22:00:00	0.1	ND	ND	ND	0.36	17.76	ND	ND	ND	ND	ND	0
61728	2017-02-11T23:00:00	0.5	ND	ND	ND	0.42	15.66	ND	ND	ND	ND	ND	0
61729	2017-02-12T00:00:00	35.1	ND	ND	ND	0.36	14.21	ND	ND	ND	ND	ND	0
61730	2017-02-12T01:00:00	37.8	ND	ND	ND	2.54	1.69	ND	ND	ND	ND	ND	0
61731	2017-02-12T02:00:00	47.5	ND	ND	ND	2.69	4.18	ND	ND	ND	ND	ND	0
61732	2017-02-12T03:00:00	75.9	ND	ND	ND	2.55	5.46	ND	ND	ND	ND	ND	0
61733	2017-02-12T04:00:00	59.5	ND	ND	ND	1.99	3.73	ND	ND	ND	ND	ND	0
61734	2017-02-12T05:00:00	66	ND	ND	ND	1.25	4.81	ND	ND	ND	ND	ND	0
61735	2017-02-12T06:00:00	58.5	ND	ND	ND	1.00	2.51	ND	ND	ND	ND	ND	0
61736	2017-02-12T07:00:00	53.9	ND	ND	ND	1.07	2.35	ND	ND	ND	ND	ND	0
61737	2017-02-12T08:00:00	48	ND	ND	ND	0.88	4.67	ND	ND	ND	ND	ND	0
61738	2017-02-12T09:00:00	40.2	ND	ND	ND	0.56	9.93	ND	ND	ND	ND	ND	0
61739	2017-02-12T10:00:00	16.8	ND	ND	ND	0.77	9.62	ND	ND	ND	ND	ND	7.62
61740	2017-02-12T11:00:00	21	ND	ND	ND	0.82	20.25	ND	ND	ND	ND	ND	0.51
61741	2017-02-12T12:00:00	29.5	ND	ND	ND	0.42	39.70	ND	ND	ND	ND	ND	0.25
61742	2017-02-12T13:00:00	35.3	ND	ND	ND	0.50	77.75	ND	ND	ND	ND	ND	0
61743	2017-02-12T14:00:00	48.4	ND	ND	ND	0.61	96.06	ND	ND	ND	ND	ND	0
61744	2017-02-12T15:00:00	16.2	ND	ND	ND	0.46	81.85	ND	ND	ND	ND	ND	0
61745	2017-02-12T16:00:00	10	ND	ND	ND	0.45	68.31	ND	ND	ND	ND	ND	0
61746	2017-02-12T17:00:00	26.7	ND	ND	ND	0.36	27.53	ND	ND	ND	ND	ND	0
61747	2017-02-12T18:00:00	5.6	ND	ND	ND	0.28	28.51	ND	ND	ND	ND	ND	0
61748	2017-02-12T19:00:00	9.4	ND	ND	ND	0.53	26.81	ND	ND	ND	ND	ND	0
61749	2017-02-12T20:00:00	9.1	ND	ND	ND	0.35	30.53	ND	ND	ND	ND	ND	0
61750	2017-02-12T21:00:00	6	ND	ND	ND	0.50	19.37	ND	ND	ND	ND	ND	0
61751	2017-02-12T22:00:00	21.8	ND	ND	ND	0.33	17.80	ND	ND	ND	ND	ND	0
61752	2017-02-12T23:00:00	31.7	ND	ND	ND	0.68	10.68	ND	ND	ND	ND	ND	0
61753	2017-02-13T00:00:00	32.2	ND	ND	ND	0.60	15.80	ND	ND	ND	ND	ND	0
61754	2017-02-13T01:00:00	24.7	ND	ND	ND	0.42	21.41	ND	ND	ND	ND	ND	0
61755	2017-02-13T02:00:00	23.9	ND	ND	ND	0.67	14.89	ND	ND	ND	ND	ND	0
61756	2017-02-13T03:00:00	25.1	ND	ND	ND	1.39	2.53	ND	ND	ND	ND	ND	0
61757	2017-02-13T04:00:00	31.3	ND	ND	ND	1.53	1.06	ND	ND	ND	ND	ND	0
61758	2017-02-13T05:00:00	46.4	ND	ND	ND	1.38	1.06	ND	ND	ND	ND	ND	0
61759	2017-02-13T06:00:00	34.3	ND	ND	ND	0.71	1.16	ND	ND	ND	ND	ND	0
61760	2017-02-13T07:00:00	47.6	ND	ND	ND	0.85	1.26	ND	ND	ND	ND	ND	0
61761	2017-02-13T08:00:00	45.2	ND	ND	ND	1.09	4.59	ND	ND	ND	ND	ND	0
61762	2017-02-13T09:00:00	52.1	ND	ND	ND	0.61	13.99	ND	ND	ND	ND	ND	0
61763	2017-02-13T10:00:00	66	ND	ND	ND	0.53	35.52	ND	ND	ND	ND	ND	0
61764	2017-02-13T11:00:00	70.4	ND	ND	ND	0.66	51.28	ND	ND	ND	ND	ND	0
61765	2017-02-13T12:00:00	63.1	ND	ND	ND	0.36	77.44	ND	ND	ND	ND	ND	0
61766	2017-02-13T13:00:00	47.1	ND	ND	ND	0.67	95.63	ND	ND	ND	ND	ND	0
61767	2017-02-13T14:00:00	51.4	ND	ND	ND	0.84	127.14	ND	ND	ND	ND	ND	0
61768	2017-02-13T15:00:00	67.9	ND	ND	ND	0.29	51.51	ND	ND	ND	ND	ND	0
61769	2017-02-13T16:00:00	44.3	ND	ND	ND	0.54	8.36	ND	ND	ND	ND	ND	0
61770	2017-02-13T17:00:00	53.1	ND	ND	ND	0.24	19.88	ND	ND	ND	ND	ND	0
61771	2017-02-13T18:00:00	23.5	ND	ND	ND	0.18	17.05	ND	ND	ND	ND	ND	0
61772	2017-02-13T19:00:00	5.5	ND	ND	ND	0.25	11.36	ND	ND	ND	ND	ND	0
61773	2017-02-13T20:00:00	12.3	ND	ND	ND	0.35	15.42	ND	ND	ND	ND	ND	0
61774	2017-02-13T21:00:00	17.5	ND	ND	ND	0.33	24.65	ND	ND	ND	ND	ND	0
61775	2017-02-13T22:00:00	33	ND	ND	ND	0.63	14.01	ND	ND	ND	ND	ND	0
61776	2017-02-13T23:00:00	7.9	ND	ND	ND	0.47	17.54	ND	ND	ND	ND	ND	0
61777	2017-02-14T00:00:00	4.3	ND	ND	ND	0.75	14.62	ND	ND	ND	ND	ND	0
61778	2017-02-14T01:00:00	68.7	ND	ND	ND	1.73	2.85	ND	ND	ND	ND	ND	0
61779	2017-02-14T02:00:00	44.1	ND	ND	ND	0.63	8.22	ND	ND	ND	ND	ND	0
61780	2017-02-14T03:00:00	39.5	ND	ND	ND	1.77	2.63	ND	ND	ND	ND	ND	0
61781	2017-02-14T04:00:00	44.3	ND	ND	ND	1.91	2.04	ND	ND	ND	ND	ND	0
61782	2017-02-14T05:00:00	37.4	ND	ND	ND	1.35	3.79	ND	ND	ND	ND	ND	0
61783	2017-02-14T06:00:00	32.1	ND	ND	ND	0.64	3.10	ND	ND	ND	ND	ND	0
61784	2017-02-14T07:00:00	14.4	ND	ND	ND	0.47	1.61	ND	ND	ND	ND	ND	0
61785	2017-02-14T08:00:00	65.6	ND	ND	ND	1.10	3.61	ND	ND	ND	ND	ND	0
61786	2017-02-14T09:00:00	117.5	ND	ND	ND	1.39	19.74	ND	ND	ND	ND	ND	0
61787	2017-02-14T10:00:00	95.5	ND	ND	ND	0.31	36.77	ND	ND	ND	ND	ND	0
61788	2017-02-14T11:00:00	65.2	ND	ND	ND	0.66	60.58	ND	ND	ND	ND	ND	0
61789	2017-02-14T12:00:00	54.2	ND	ND	ND	0.82	82.22	ND	ND	ND	ND	ND	0
61790	2017-02-14T13:00:00	39	ND	ND	ND	0.67	93.64	ND	ND	ND	ND	ND	0
61791	2017-02-14T14:00:00	39.2	ND	ND	ND	0.42	102.99	ND	ND	ND	ND	ND	0
61792	2017-02-14T15:00:00	59.2	ND	ND	ND	0.60	132.11	ND	ND	ND	ND	ND	0
61793	2017-02-14T16:00:00	73.4	ND	ND	ND	0.25	95.08	ND	ND	ND	ND	ND	0
61794	2017-02-14T17:00:00	23.1	ND	ND	ND	0.28	25.84	ND	ND	ND	ND	ND	0
61795	2017-02-14T18:00:00	ND	ND	ND	ND	0.32	18.51	ND	ND	ND	ND	ND	0
61796	2017-02-14T19:00:00	11.2	ND	ND	ND	0.18	10.83	ND	ND	ND	ND	ND	0
61797	2017-02-14T20:00:00	83.8	ND	ND	ND	0.63	4.26	ND	ND	ND	ND	ND	0
61798	2017-02-14T21:00:00	59.2	ND	ND	ND	0.50	8.73	ND	ND	ND	ND	ND	0
61799	2017-02-14T22:00:00	18.6	ND	ND	ND	0.42	14.97	ND	ND	ND	ND	ND	0
61800	2017-02-14T23:00:00	ND	ND	ND	ND	0.47	16.94	ND	ND	ND	ND	ND	0
61801	2017-02-15T00:00:00	ND	ND	ND	ND	0.39	22.51	ND	ND	ND	ND	ND	0
61802	2017-02-15T01:00:00	19.9	ND	ND	ND	0.43	26.47	ND	ND	ND	ND	ND	0
61803	2017-02-15T02:00:00	50.9	ND	ND	ND	0.43	18.27	ND	ND	ND	ND	ND	0
61804	2017-02-15T03:00:00	78.5	ND	ND	ND	1.45	3.14	ND	ND	ND	ND	ND	0
61805	2017-02-15T04:00:00	107.5	ND	ND	ND	1.99	1.53	ND	ND	ND	ND	ND	0
61806	2017-02-15T05:00:00	92	ND	ND	ND	1.41	2.12	ND	ND	ND	ND	ND	0
61807	2017-02-15T06:00:00	85.8	ND	ND	ND	1.41	1.73	ND	ND	ND	ND	ND	0
61808	2017-02-15T07:00:00	97.5	ND	ND	ND	1.21	1.86	ND	ND	ND	ND	ND	0
61809	2017-02-15T08:00:00	119.9	ND	ND	ND	1.56	4.77	ND	ND	ND	ND	ND	0
61810	2017-02-15T09:00:00	103.7	ND	ND	ND	1.35	18.84	ND	ND	ND	ND	ND	0
61811	2017-02-15T10:00:00	ND	ND	ND	ND	ND	ND	ND	ND	ND	ND	ND	ND
61812	2017-02-15T11:00:00	74.3	ND	ND	ND	0.66	70.92	ND	ND	ND	ND	ND	0
61813	2017-02-15T12:00:00	3.3	ND	ND	ND	0.88	90.58	ND	ND	ND	ND	ND	0
61814	2017-02-15T13:00:00	43.5	ND	ND	ND	0.31	85.85	ND	ND	ND	ND	ND	0
61815	2017-02-15T14:00:00	60.8	ND	ND	ND	0.59	103.65	ND	ND	ND	ND	ND	0
61816	2017-02-15T15:00:00	36.8	ND	ND	ND	0.35	89.21	ND	ND	ND	ND	ND	0
61817	2017-02-15T16:00:00	19.1	ND	ND	ND	0.61	47.96	ND	ND	ND	ND	ND	0
61818	2017-02-15T17:00:00	77.8	ND	ND	ND	0.40	28.34	ND	ND	ND	ND	ND	0
61819	2017-02-15T18:00:00	84.1	ND	ND	ND	0.45	17.23	ND	ND	ND	ND	ND	0
61820	2017-02-15T19:00:00	29.9	ND	ND	ND	0.53	13.05	ND	ND	ND	ND	ND	0
61821	2017-02-15T20:00:00	51.7	ND	ND	ND	0.53	15.84	ND	ND	ND	ND	ND	0
61822	2017-02-15T21:00:00	31.1	ND	ND	ND	0.57	18.23	ND	ND	ND	ND	ND	0
61823	2017-02-15T22:00:00	36.4	ND	ND	ND	0.38	15.97	ND	ND	ND	ND	ND	0
61824	2017-02-15T23:00:00	17.3	ND	ND	ND	0.71	15.05	ND	ND	ND	ND	ND	0
61825	2017-02-16T00:00:00	18.1	ND	ND	ND	0.91	10.89	ND	ND	ND	ND	ND	0
61826	2017-02-16T01:00:00	57.7	ND	ND	ND	2.40	1.84	ND	ND	ND	ND	ND	0
61827	2017-02-16T02:00:00	61.8	ND	ND	ND	1.51	1.96	ND	ND	ND	ND	ND	0
61828	2017-02-16T03:00:00	47.8	ND	ND	ND	1.20	6.38	ND	ND	ND	ND	ND	0
61829	2017-02-16T04:00:00	26.7	ND	ND	ND	0.77	13.76	ND	ND	ND	ND	ND	0
61830	2017-02-16T05:00:00	ND	ND	ND	ND	0.86	13.11	ND	ND	ND	ND	ND	0
61831	2017-02-16T06:00:00	4.8	ND	ND	ND	0.28	7.89	ND	ND	ND	ND	ND	0
61832	2017-02-16T07:00:00	19.2	ND	ND	ND	1.44	2.88	ND	ND	ND	ND	ND	0
61833	2017-02-16T08:00:00	132.8	ND	ND	ND	2.68	4.75	ND	ND	ND	ND	ND	0
61834	2017-02-16T09:00:00	159.7	ND	ND	ND	1.62	20.76	ND	ND	ND	ND	ND	0
61835	2017-02-16T10:00:00	129.4	ND	ND	ND	1.59	63.80	ND	ND	ND	ND	ND	0
61836	2017-02-16T11:00:00	99.9	ND	ND	ND	1.14	99.71	ND	ND	ND	ND	ND	0
61837	2017-02-16T12:00:00	82.6	ND	ND	ND	0.88	124.38	ND	ND	ND	ND	ND	0
61838	2017-02-16T13:00:00	67.8	ND	ND	ND	0.42	110.46	ND	ND	ND	ND	ND	0
61839	2017-02-16T14:00:00	56.1	ND	ND	ND	0.71	110.03	ND	ND	ND	ND	ND	0
61840	2017-02-16T15:00:00	64.5	ND	ND	ND	0.79	106.89	ND	ND	ND	ND	ND	0
61841	2017-02-16T16:00:00	41.7	ND	ND	ND	0.56	23.73	ND	ND	ND	ND	ND	0
61842	2017-02-16T17:00:00	3.2	ND	ND	ND	0.39	17.62	ND	ND	ND	ND	ND	0
61843	2017-02-16T18:00:00	18.7	ND	ND	ND	0.31	13.38	ND	ND	ND	ND	ND	0
61844	2017-02-16T19:00:00	49.6	ND	ND	ND	0.43	14.68	ND	ND	ND	ND	ND	0
61845	2017-02-16T20:00:00	50.3	ND	ND	ND	0.42	13.91	ND	ND	ND	ND	ND	0
61846	2017-02-16T21:00:00	20.3	ND	ND	ND	0.43	15.19	ND	ND	ND	ND	ND	0
61847	2017-02-16T22:00:00	21.2	ND	ND	ND	0.35	13.82	ND	ND	ND	ND	ND	0
61848	2017-02-16T23:00:00	2	ND	ND	ND	0.25	12.64	ND	ND	ND	ND	ND	0
61849	2017-02-17T00:00:00	1.9	ND	ND	ND	0.24	14.46	ND	ND	ND	ND	ND	0
61850	2017-02-17T01:00:00	15.3	ND	ND	ND	0.39	18.27	ND	ND	ND	ND	ND	0
61851	2017-02-17T02:00:00	7.7	ND	ND	ND	0.29	17.82	ND	ND	ND	ND	ND	0
61852	2017-02-17T03:00:00	2.3	ND	ND	ND	0.78	6.95	ND	ND	ND	ND	ND	0
61853	2017-02-17T04:00:00	43.5	ND	ND	ND	1.87	2.08	ND	ND	ND	ND	ND	0
61854	2017-02-17T05:00:00	73.2	ND	ND	ND	1.27	1.65	ND	ND	ND	ND	ND	0
61855	2017-02-17T06:00:00	53.2	ND	ND	ND	1.14	1.49	ND	ND	ND	ND	ND	0
61856	2017-02-17T07:00:00	41.7	ND	ND	ND	0.77	2.02	ND	ND	ND	ND	ND	0
61857	2017-02-17T08:00:00	15.9	ND	ND	ND	0.61	3.77	ND	ND	ND	ND	ND	0
61858	2017-02-17T09:00:00	67.6	ND	ND	ND	0.67	23.43	ND	ND	ND	ND	ND	0
61859	2017-02-17T10:00:00	141.7	ND	ND	ND	0.33	57.95	ND	ND	ND	ND	ND	0
61860	2017-02-17T11:00:00	95	ND	ND	ND	1.05	88.56	ND	ND	ND	ND	ND	0
61861	2017-02-17T12:00:00	60.4	ND	ND	ND	0.75	84.50	ND	ND	ND	ND	ND	0
61862	2017-02-17T13:00:00	53.8	ND	ND	ND	0.15	78.40	ND	ND	ND	ND	ND	0
61863	2017-02-17T14:00:00	32.9	ND	ND	ND	0.18	106.87	ND	ND	ND	ND	ND	0
61864	2017-02-17T15:00:00	69.7	ND	ND	ND	0.53	41.78	ND	ND	ND	ND	ND	0
61865	2017-02-17T16:00:00	30.2	ND	ND	ND	0.36	13.21	ND	ND	ND	ND	ND	0
61866	2017-02-17T17:00:00	21.4	ND	ND	ND	0.36	13.99	ND	ND	ND	ND	ND	0
61867	2017-02-17T18:00:00	60	ND	ND	ND	0.60	11.85	ND	ND	ND	ND	ND	0
61868	2017-02-17T19:00:00	61.6	ND	ND	ND	0.39	11.73	ND	ND	ND	ND	ND	0
61869	2017-02-17T20:00:00	37.2	ND	ND	ND	0.67	8.54	ND	ND	ND	ND	ND	0
61870	2017-02-17T21:00:00	3.8	ND	ND	ND	0.46	8.26	ND	ND	ND	ND	ND	0
61871	2017-02-17T22:00:00	6.7	ND	ND	ND	0.33	4.79	ND	ND	ND	ND	ND	0
61872	2017-02-17T23:00:00	45.3	ND	ND	ND	ND	6.04	ND	ND	ND	ND	ND	0
61873	2017-02-18T00:00:00	1	ND	ND	ND	0.67	8.97	ND	ND	ND	ND	ND	0
61874	2017-02-18T01:00:00	16.4	ND	ND	ND	0.67	9.38	ND	ND	ND	ND	ND	0
61875	2017-02-18T02:00:00	13.2	ND	ND	ND	0.61	11.40	ND	ND	ND	ND	ND	0
61876	2017-02-18T03:00:00	45.8	ND	ND	ND	1.85	2.18	ND	ND	ND	ND	ND	0
61877	2017-02-18T04:00:00	103	ND	ND	ND	1.13	1.96	ND	ND	ND	ND	ND	0
61878	2017-02-18T05:00:00	81.7	ND	ND	ND	ND	1.65	ND	ND	ND	ND	ND	0
61879	2017-02-18T06:00:00	87.3	ND	ND	ND	2.08	1.43	ND	ND	ND	ND	ND	0
61880	2017-02-18T07:00:00	81.4	ND	ND	ND	1.91	2.12	ND	ND	ND	ND	ND	0
61881	2017-02-18T08:00:00	47.9	ND	ND	ND	1.32	3.81	ND	ND	ND	ND	ND	0
61882	2017-02-18T09:00:00	87.3	ND	ND	ND	1.41	10.01	ND	ND	ND	ND	ND	0
61883	2017-02-18T10:00:00	117.4	ND	ND	ND	0.54	41.82	ND	ND	ND	ND	ND	0
61884	2017-02-18T11:00:00	65.4	ND	ND	ND	0.84	74.67	ND	ND	ND	ND	ND	0
61885	2017-02-18T12:00:00	58	ND	ND	ND	0.63	101.95	ND	ND	ND	ND	ND	0
61886	2017-02-18T13:00:00	65.4	ND	ND	ND	0.50	102.46	ND	ND	ND	ND	ND	0
61887	2017-02-18T14:00:00	70.4	ND	ND	ND	0.67	113.13	ND	ND	ND	ND	ND	0
61888	2017-02-18T15:00:00	51.1	ND	ND	ND	0.49	121.16	ND	ND	ND	ND	ND	0
61889	2017-02-18T16:00:00	46.7	ND	ND	ND	0.59	33.01	ND	ND	ND	ND	ND	0
61890	2017-02-18T17:00:00	45.1	ND	ND	ND	0.33	25.82	ND	ND	ND	ND	ND	0
61891	2017-02-18T18:00:00	39.4	ND	ND	ND	0.15	29.02	ND	ND	ND	ND	ND	0
61892	2017-02-18T19:00:00	45	ND	ND	ND	0.17	21.10	ND	ND	ND	ND	ND	0
61893	2017-02-18T20:00:00	33.4	ND	ND	ND	0.49	13.74	ND	ND	ND	ND	ND	0
61894	2017-02-18T21:00:00	30.8	ND	ND	ND	0.56	21.82	ND	ND	ND	ND	ND	0
61895	2017-02-18T22:00:00	27.5	ND	ND	ND	0.74	16.88	ND	ND	ND	ND	ND	0
61896	2017-02-18T23:00:00	30.2	ND	ND	ND	0.75	11.95	ND	ND	ND	ND	ND	0
61897	2017-02-19T00:00:00	67.7	ND	ND	ND	1.97	4.22	ND	ND	ND	ND	ND	0
61898	2017-02-19T01:00:00	70.5	ND	ND	ND	1.05	2.41	ND	ND	ND	ND	ND	0
61899	2017-02-19T02:00:00	52.4	ND	ND	ND	0.85	5.79	ND	ND	ND	ND	ND	0
61900	2017-02-19T03:00:00	50.3	ND	ND	ND	1.21	8.16	ND	ND	ND	ND	ND	0
61901	2017-02-19T04:00:00	49.8	ND	ND	ND	ND	4.81	ND	ND	ND	ND	ND	0
61902	2017-02-19T05:00:00	29.4	ND	ND	ND	0.60	9.01	ND	ND	ND	ND	ND	0
61903	2017-02-19T06:00:00	24.9	ND	ND	ND	1.34	3.24	ND	ND	ND	ND	ND	0
61904	2017-02-19T07:00:00	77.7	ND	ND	ND	1.48	1.77	ND	ND	ND	ND	ND	0
61905	2017-02-19T08:00:00	96.2	ND	ND	ND	2.41	4.47	ND	ND	ND	ND	ND	0
61906	2017-02-19T09:00:00	97.7	ND	ND	ND	2.08	12.34	ND	ND	ND	ND	ND	0
61907	2017-02-19T10:00:00	94.5	ND	ND	ND	1.51	45.39	ND	ND	ND	ND	ND	0
61908	2017-02-19T11:00:00	96.8	ND	ND	ND	1.27	85.83	ND	ND	ND	ND	ND	0
61909	2017-02-19T12:00:00	81	ND	ND	ND	0.66	108.72	ND	ND	ND	ND	ND	0
61910	2017-02-19T13:00:00	55.2	ND	ND	ND	0.66	110.36	ND	ND	ND	ND	ND	0
61911	2017-02-19T14:00:00	57.8	ND	ND	ND	0.81	115.35	ND	ND	ND	ND	ND	0
61912	2017-02-19T15:00:00	44.9	ND	ND	ND	0.53	59.34	ND	ND	ND	ND	ND	0
61913	2017-02-19T16:00:00	21.5	ND	ND	ND	0.47	33.79	ND	ND	ND	ND	ND	0
61914	2017-02-19T17:00:00	14.4	ND	ND	ND	0.26	33.91	ND	ND	ND	ND	ND	0
61915	2017-02-19T18:00:00	26.3	ND	ND	ND	0.79	33.40	ND	ND	ND	ND	ND	0
61916	2017-02-19T19:00:00	32.7	ND	ND	ND	0.53	35.13	ND	ND	ND	ND	ND	0
61917	2017-02-19T20:00:00	23.9	ND	ND	ND	0.49	35.48	ND	ND	ND	ND	ND	0
61918	2017-02-19T21:00:00	33.1	ND	ND	ND	0.60	32.01	ND	ND	ND	ND	ND	0
61919	2017-02-19T22:00:00	45.3	ND	ND	ND	0.78	3.73	ND	ND	ND	ND	ND	0
61920	2017-02-19T23:00:00	65.2	ND	ND	ND	0.95	9.40	ND	ND	ND	ND	ND	0
61921	2017-02-20T00:00:00	37	ND	ND	ND	0.70	1.59	ND	ND	ND	ND	ND	0
61922	2017-02-20T01:00:00	47.6	ND	ND	ND	0.79	7.59	ND	ND	ND	ND	ND	0
61923	2017-02-20T02:00:00	39.4	ND	ND	ND	0.77	12.34	ND	ND	ND	ND	ND	0
61924	2017-02-20T03:00:00	43.6	ND	ND	ND	0.88	8.63	ND	ND	ND	ND	ND	0
61925	2017-02-20T04:00:00	55	ND	ND	ND	2.02	1.84	ND	ND	ND	ND	ND	0
61926	2017-02-20T05:00:00	62.2	ND	ND	ND	2.83	1.53	ND	ND	ND	ND	ND	0
61927	2017-02-20T06:00:00	60.9	ND	ND	ND	2.79	1.06	ND	ND	ND	ND	ND	11.18
61928	2017-02-20T07:00:00	51.1	ND	ND	ND	2.87	0.80	ND	ND	ND	ND	ND	2.29
61929	2017-02-20T08:00:00	55.9	ND	ND	ND	1.92	1.02	ND	ND	ND	ND	ND	0.25
61930	2017-02-20T09:00:00	60.8	ND	ND	ND	1.66	2.18	ND	ND	ND	ND	ND	0.25
61931	2017-02-20T10:00:00	86	ND	ND	ND	1.32	24.04	ND	ND	ND	ND	ND	0
61932	2017-02-20T11:00:00	85.5	ND	ND	ND	1.02	52.63	ND	ND	ND	ND	ND	0
61933	2017-02-20T12:00:00	71	ND	ND	ND	0.60	84.72	ND	ND	ND	ND	ND	0
61934	2017-02-20T13:00:00	54.2	ND	ND	ND	0.46	126.12	ND	ND	ND	ND	ND	0
61935	2017-02-20T14:00:00	44.5	ND	ND	ND	0.68	104.59	ND	ND	ND	ND	ND	0
61936	2017-02-20T15:00:00	50.4	ND	ND	ND	0.85	97.82	ND	ND	ND	ND	ND	0
61937	2017-02-20T16:00:00	54.2	ND	ND	ND	0.31	68.58	ND	ND	ND	ND	ND	0
61938	2017-02-20T17:00:00	43.5	ND	ND	ND	0.70	16.11	ND	ND	ND	ND	ND	10.92
61939	2017-02-20T18:00:00	33.2	ND	ND	ND	0.25	7.32	ND	ND	ND	ND	ND	0
61940	2017-02-20T19:00:00	51.2	ND	ND	ND	0.11	10.26	ND	ND	ND	ND	ND	0.25
61941	2017-02-20T20:00:00	38.7	ND	ND	ND	0.70	3.22	ND	ND	ND	ND	ND	0
61942	2017-02-20T21:00:00	65.3	ND	ND	ND	0.71	1.41	ND	ND	ND	ND	ND	0
61943	2017-02-20T22:00:00	58.7	ND	ND	ND	0.88	2.96	ND	ND	ND	ND	ND	0
61944	2017-02-20T23:00:00	47.5	ND	ND	ND	0.68	2.73	ND	ND	ND	ND	ND	0
61945	2017-02-21T00:00:00	36.4	ND	ND	ND	0.91	1.28	ND	ND	ND	ND	ND	0
61946	2017-02-21T01:00:00	29.5	ND	ND	ND	1.06	0.88	ND	ND	ND	ND	ND	0
61947	2017-02-21T02:00:00	61.3	ND	ND	ND	1.42	1.06	ND	ND	ND	ND	ND	0
61948	2017-02-21T03:00:00	59	ND	ND	ND	2.04	0.63	ND	ND	ND	ND	ND	0
61949	2017-02-21T04:00:00	55.5	ND	ND	ND	0.84	3.20	ND	ND	ND	ND	ND	0
61950	2017-02-21T05:00:00	41.6	ND	ND	ND	1.24	2.73	ND	ND	ND	ND	ND	0
61951	2017-02-21T06:00:00	48.9	ND	ND	ND	1.71	0.75	ND	ND	ND	ND	ND	0
61952	2017-02-21T07:00:00	84.6	ND	ND	ND	1.77	1.26	ND	ND	ND	ND	ND	0
61953	2017-02-21T08:00:00	113.4	ND	ND	ND	1.03	2.53	ND	ND	ND	ND	ND	0
61954	2017-02-21T09:00:00	70.4	ND	ND	ND	1.07	12.68	ND	ND	ND	ND	ND	0
61955	2017-02-21T10:00:00	115.4	ND	ND	ND	1.13	17.39	ND	ND	ND	ND	ND	0
61956	2017-02-21T11:00:00	90.7	ND	ND	ND	1.06	52.43	ND	ND	ND	ND	ND	0
61957	2017-02-21T12:00:00	64.1	ND	ND	ND	0.77	73.86	ND	ND	ND	ND	ND	0
61958	2017-02-21T13:00:00	57.3	ND	ND	ND	0.53	101.00	ND	ND	ND	ND	ND	0
61959	2017-02-21T14:00:00	42.2	ND	ND	ND	0.70	102.10	ND	ND	ND	ND	ND	0
61960	2017-02-21T15:00:00	48.5	ND	ND	ND	0.53	69.29	ND	ND	ND	ND	ND	0
61961	2017-02-21T16:00:00	47.8	ND	ND	ND	0.36	27.30	ND	ND	ND	ND	ND	0
61962	2017-02-21T17:00:00	16.5	ND	ND	ND	0.21	23.23	ND	ND	ND	ND	ND	0
61963	2017-02-21T18:00:00	1.6	ND	ND	ND	0.18	19.96	ND	ND	ND	ND	ND	0
61964	2017-02-21T19:00:00	ND	ND	ND	ND	0.21	14.78	ND	ND	ND	ND	ND	0
61965	2017-02-21T20:00:00	29.4	ND	ND	ND	0.57	13.19	ND	ND	ND	ND	ND	0
61966	2017-02-21T21:00:00	72.4	ND	ND	ND	0.26	16.15	ND	ND	ND	ND	ND	0
61967	2017-02-21T22:00:00	46.3	ND	ND	ND	0.31	16.56	ND	ND	ND	ND	ND	0
61968	2017-02-21T23:00:00	30.4	ND	ND	ND	0.50	16.88	ND	ND	ND	ND	ND	0
61969	2017-02-22T00:00:00	12.1	ND	ND	ND	0.53	7.38	ND	ND	ND	ND	ND	0
61970	2017-02-22T01:00:00	29.2	ND	ND	ND	1.14	9.30	ND	ND	ND	ND	ND	0
61971	2017-02-22T02:00:00	27	ND	ND	ND	0.85	17.48	ND	ND	ND	ND	ND	0
61972	2017-02-22T03:00:00	2.8	ND	ND	ND	0.53	25.43	ND	ND	ND	ND	ND	0
61973	2017-02-22T04:00:00	10.3	ND	ND	ND	0.53	15.82	ND	ND	ND	ND	ND	0
61974	2017-02-22T05:00:00	36.4	ND	ND	ND	0.40	19.09	ND	ND	ND	ND	ND	0
61975	2017-02-22T06:00:00	35.7	ND	ND	ND	0.46	6.53	ND	ND	ND	ND	ND	0
61976	2017-02-22T07:00:00	62.7	ND	ND	ND	0.49	2.14	ND	ND	ND	ND	ND	0
61977	2017-02-22T08:00:00	75.6	ND	ND	ND	0.82	2.83	ND	ND	ND	ND	ND	0
61978	2017-02-22T09:00:00	97.2	ND	ND	ND	0.54	9.56	ND	ND	ND	ND	ND	0
61979	2017-02-22T10:00:00	73.4	ND	ND	ND	0.88	11.73	ND	ND	ND	ND	ND	0
61980	2017-02-22T11:00:00	73.7	ND	ND	ND	0.81	13.40	ND	ND	ND	ND	ND	0
61981	2017-02-22T12:00:00	66.3	ND	ND	ND	0.75	5.10	ND	ND	ND	ND	ND	5.59
61982	2017-02-22T13:00:00	50.5	ND	ND	ND	0.54	5.77	ND	ND	ND	ND	ND	0.51
61983	2017-02-22T14:00:00	42.5	ND	ND	ND	0.57	15.66	ND	ND	ND	ND	ND	0.25
61984	2017-02-22T15:00:00	59.5	ND	ND	ND	1.06	22.25	ND	ND	ND	ND	ND	0
61985	2017-02-22T16:00:00	67.3	ND	ND	ND	1.09	28.55	ND	ND	ND	ND	ND	0
61986	2017-02-22T17:00:00	67.7	ND	ND	ND	0.92	20.06	ND	ND	ND	ND	ND	0
61987	2017-02-22T18:00:00	75.7	ND	ND	ND	1.34	7.81	ND	ND	ND	ND	ND	0
61988	2017-02-22T19:00:00	60.4	ND	ND	ND	2.27	2.96	ND	ND	ND	ND	ND	0
61989	2017-02-22T20:00:00	73.4	ND	ND	ND	1.28	1.43	ND	ND	ND	ND	ND	0
61990	2017-02-22T21:00:00	76.9	ND	ND	ND	0.71	2.02	ND	ND	ND	ND	ND	0
61991	2017-02-22T22:00:00	70.5	ND	ND	ND	0.47	1.16	ND	ND	ND	ND	ND	0
61992	2017-02-22T23:00:00	53.1	ND	ND	ND	0.54	3.28	ND	ND	ND	ND	ND	0
61993	2017-02-23T00:00:00	37.9	ND	ND	ND	2.12	1.26	ND	ND	ND	ND	ND	0
61994	2017-02-23T01:00:00	59.8	ND	ND	ND	2.41	1.14	ND	ND	ND	ND	ND	0
61995	2017-02-23T02:00:00	67.2	ND	ND	ND	4.25	1.14	ND	ND	ND	ND	ND	0
61996	2017-02-23T03:00:00	50.2	ND	ND	ND	1.45	5.75	ND	ND	ND	ND	ND	0
61997	2017-02-23T04:00:00	14.8	ND	ND	ND	1.00	9.73	ND	ND	ND	ND	ND	0
61998	2017-02-23T05:00:00	ND	ND	ND	ND	0.82	4.47	ND	ND	ND	ND	ND	0
61999	2017-02-23T06:00:00	1.7	ND	ND	ND	1.48	3.36	ND	ND	ND	ND	ND	0
62000	2017-02-23T07:00:00	85.8	ND	ND	ND	4.60	2.12	ND	ND	ND	ND	ND	0
62001	2017-02-23T08:00:00	184.1	ND	ND	ND	4.21	3.55	ND	ND	ND	ND	ND	0
62002	2017-02-23T09:00:00	138.9	ND	ND	ND	1.99	9.01	ND	ND	ND	ND	ND	0
62003	2017-02-23T10:00:00	146	ND	ND	ND	2.89	45.21	ND	ND	ND	ND	ND	0
62004	2017-02-23T11:00:00	142.8	ND	ND	ND	1.41	72.75	ND	ND	ND	ND	ND	0
62005	2017-02-23T12:00:00	90.5	ND	ND	ND	0.88	102.28	ND	ND	ND	ND	ND	0
62006	2017-02-23T13:00:00	87.9	ND	ND	ND	0.89	105.95	ND	ND	ND	ND	ND	0
62007	2017-02-23T14:00:00	75.9	ND	ND	ND	1.00	111.07	ND	ND	ND	ND	ND	0
62008	2017-02-23T15:00:00	63.8	ND	ND	ND	1.07	116.62	ND	ND	ND	ND	ND	0
62009	2017-02-23T16:00:00	65.7	ND	ND	ND	0.68	65.97	ND	ND	ND	ND	ND	0
62010	2017-02-23T17:00:00	50.4	ND	ND	ND	0.47	25.73	ND	ND	ND	ND	ND	0
62011	2017-02-23T18:00:00	33.5	ND	ND	ND	0.42	18.70	ND	ND	ND	ND	ND	0
62012	2017-02-23T19:00:00	31.2	ND	ND	ND	0.67	11.22	ND	ND	ND	ND	ND	0
62013	2017-02-23T20:00:00	23.1	ND	ND	ND	0.54	11.46	ND	ND	ND	ND	ND	0
62014	2017-02-23T21:00:00	14.6	ND	ND	ND	0.35	18.82	ND	ND	ND	ND	ND	0
62015	2017-02-23T22:00:00	21.2	ND	ND	ND	0.18	18.07	ND	ND	ND	ND	ND	0
62016	2017-02-23T23:00:00	14.5	ND	ND	ND	0.64	15.38	ND	ND	ND	ND	ND	0
62017	2017-02-24T00:00:00	38.6	ND	ND	ND	1.67	2.02	ND	ND	ND	ND	ND	0
62018	2017-02-24T01:00:00	69.1	ND	ND	ND	1.46	4.69	ND	ND	ND	ND	ND	0
62019	2017-02-24T02:00:00	83.4	ND	ND	ND	1.14	6.04	ND	ND	ND	ND	ND	0
62020	2017-02-24T03:00:00	94.8	ND	ND	ND	1.85	2.30	ND	ND	ND	ND	ND	0
62021	2017-02-24T04:00:00	78.6	ND	ND	ND	ND	2.51	ND	ND	ND	ND	ND	0
62022	2017-02-24T05:00:00	79.4	ND	ND	ND	ND	1.65	ND	ND	ND	ND	ND	0
62023	2017-02-24T06:00:00	88.9	ND	ND	ND	1.17	2.00	ND	ND	ND	ND	ND	0
62024	2017-02-24T07:00:00	119.1	ND	ND	ND	ND	1.90	ND	ND	ND	ND	ND	0
62025	2017-02-24T08:00:00	103	ND	ND	ND	1.64	2.35	ND	ND	ND	ND	ND	0
62026	2017-02-24T09:00:00	112.9	ND	ND	ND	1.81	6.57	ND	ND	ND	ND	ND	0
62027	2017-02-24T10:00:00	100.2	ND	ND	ND	1.48	18.39	ND	ND	ND	ND	ND	0
62028	2017-02-24T11:00:00	99.3	ND	ND	ND	0.98	60.48	ND	ND	ND	ND	ND	0
62029	2017-02-24T12:00:00	86.7	ND	ND	ND	0.82	88.58	ND	ND	ND	ND	ND	0
62030	2017-02-24T13:00:00	83.9	ND	ND	ND	0.60	86.91	ND	ND	ND	ND	ND	0
62031	2017-02-24T14:00:00	56.7	ND	ND	ND	0.42	97.04	ND	ND	ND	ND	ND	0
62032	2017-02-24T15:00:00	60.9	ND	ND	ND	0.54	111.15	ND	ND	ND	ND	ND	0
62033	2017-02-24T16:00:00	78.9	ND	ND	ND	0.45	125.95	ND	ND	ND	ND	ND	0
62034	2017-02-24T17:00:00	84.4	ND	ND	ND	0.29	85.50	ND	ND	ND	ND	ND	0
62035	2017-02-24T18:00:00	64	ND	ND	ND	0.40	25.04	ND	ND	ND	ND	ND	0
62036	2017-02-24T19:00:00	34.7	ND	ND	ND	0.64	20.02	ND	ND	ND	ND	ND	0
62037	2017-02-24T20:00:00	17.7	ND	ND	ND	0.54	20.25	ND	ND	ND	ND	ND	0
62038	2017-02-24T21:00:00	27.7	ND	ND	ND	0.40	14.68	ND	ND	ND	ND	ND	0
62039	2017-02-24T22:00:00	27.5	ND	ND	ND	0.53	15.72	ND	ND	ND	ND	ND	0
62040	2017-02-24T23:00:00	42.4	ND	ND	ND	1.67	1.77	ND	ND	ND	ND	ND	0
62041	2017-02-25T00:00:00	63.9	ND	ND	ND	1.45	1.31	ND	ND	ND	ND	ND	0
62042	2017-02-25T01:00:00	70.7	ND	ND	ND	2.06	1.59	ND	ND	ND	ND	ND	0
62043	2017-02-25T02:00:00	48.4	ND	ND	ND	1.16	2.65	ND	ND	ND	ND	ND	0
62044	2017-02-25T03:00:00	42.3	ND	ND	ND	1.34	2.18	ND	ND	ND	ND	ND	0
62045	2017-02-25T04:00:00	46.2	ND	ND	ND	1.48	3.51	ND	ND	ND	ND	ND	0
62046	2017-02-25T05:00:00	65.1	ND	ND	ND	2.33	1.24	ND	ND	ND	ND	ND	0
62047	2017-02-25T06:00:00	72	ND	ND	ND	2.06	1.14	ND	ND	ND	ND	ND	0
62048	2017-02-25T07:00:00	89.1	ND	ND	ND	2.24	1.22	ND	ND	ND	ND	ND	0.25
62049	2017-02-25T08:00:00	82.4	ND	ND	ND	1.46	1.77	ND	ND	ND	ND	ND	1.02
62050	2017-02-25T09:00:00	87.1	ND	ND	ND	1.31	5.22	ND	ND	ND	ND	ND	0.25
62051	2017-02-25T10:00:00	92.4	ND	ND	ND	1.16	3.12	ND	ND	ND	ND	ND	15.24
62052	2017-02-25T11:00:00	81.6	ND	ND	ND	0.33	9.60	ND	ND	ND	ND	ND	0.25
62053	2017-02-25T12:00:00	69.4	ND	ND	ND	0.57	10.93	ND	ND	ND	ND	ND	0
62054	2017-02-25T13:00:00	51	ND	ND	ND	0.60	47.61	ND	ND	ND	ND	ND	0
62055	2017-02-25T14:00:00	58	ND	ND	ND	0.77	86.89	ND	ND	ND	ND	ND	0
62056	2017-02-25T15:00:00	58.6	ND	ND	ND	0.29	109.38	ND	ND	ND	ND	ND	0
62057	2017-02-25T16:00:00	96.4	ND	ND	ND	0.42	44.11	ND	ND	ND	ND	ND	0
62058	2017-02-25T17:00:00	83.4	ND	ND	ND	0.67	21.86	ND	ND	ND	ND	ND	0
62059	2017-02-25T18:00:00	94.3	ND	ND	ND	0.93	16.95	ND	ND	ND	ND	ND	0
62060	2017-02-25T19:00:00	62	ND	ND	ND	0.63	12.46	ND	ND	ND	ND	ND	0
62061	2017-02-25T20:00:00	33	ND	ND	ND	0.42	6.32	ND	ND	ND	ND	ND	0
62062	2017-02-25T21:00:00	37.4	ND	ND	ND	0.57	0.67	ND	ND	ND	ND	ND	0
62063	2017-02-25T22:00:00	65.2	ND	ND	ND	0.50	1.06	ND	ND	ND	ND	ND	0
62064	2017-02-25T23:00:00	65	ND	ND	ND	0.93	2.61	ND	ND	ND	ND	ND	0
62065	2017-02-26T00:00:00	59.4	ND	ND	ND	1.44	3.22	ND	ND	ND	ND	ND	0
62066	2017-02-26T01:00:00	50.8	ND	ND	ND	3.09	1.53	ND	ND	ND	ND	ND	0
62067	2017-02-26T02:00:00	43.5	ND	ND	ND	2.02	5.73	ND	ND	ND	ND	ND	0
62068	2017-02-26T03:00:00	56.8	ND	ND	ND	2.10	0.86	ND	ND	ND	ND	ND	0
62069	2017-02-26T04:00:00	64.8	ND	ND	ND	1.02	0.51	ND	ND	ND	ND	ND	0
62070	2017-02-26T05:00:00	46.5	ND	ND	ND	1.27	0.43	ND	ND	ND	ND	ND	0
62071	2017-02-26T06:00:00	52.1	ND	ND	ND	0.79	0.37	ND	ND	ND	ND	ND	0
62072	2017-02-26T07:00:00	55.3	ND	ND	ND	1.84	0.55	ND	ND	ND	ND	ND	0
62073	2017-02-26T08:00:00	82.4	ND	ND	ND	4.06	1.77	ND	ND	ND	ND	ND	0
62074	2017-02-26T09:00:00	57.8	ND	ND	ND	2.52	4.43	ND	ND	ND	ND	ND	0
62075	2017-02-26T10:00:00	45.1	ND	ND	ND	2.04	12.42	ND	ND	ND	ND	ND	0
62076	2017-02-26T11:00:00	64.5	ND	ND	ND	1.06	30.55	ND	ND	ND	ND	ND	0
62077	2017-02-26T12:00:00	79.4	ND	ND	ND	1.07	58.01	ND	ND	ND	ND	ND	0
62078	2017-02-26T13:00:00	76.2	ND	ND	ND	0.77	90.68	ND	ND	ND	ND	ND	0
62079	2017-02-26T14:00:00	59.3	ND	ND	ND	0.88	95.21	ND	ND	ND	ND	ND	0
62080	2017-02-26T15:00:00	59	ND	ND	ND	0.59	65.17	ND	ND	ND	ND	ND	0
62081	2017-02-26T16:00:00	20.4	ND	ND	ND	0.46	36.15	ND	ND	ND	ND	ND	0
62082	2017-02-26T17:00:00	7.6	ND	ND	ND	0.25	38.33	ND	ND	ND	ND	ND	0
62083	2017-02-26T18:00:00	39.4	ND	ND	ND	0.74	32.58	ND	ND	ND	ND	ND	0
62084	2017-02-26T19:00:00	55	ND	ND	ND	0.91	31.50	ND	ND	ND	ND	ND	0
62085	2017-02-26T20:00:00	45.9	ND	ND	ND	0.29	19.27	ND	ND	ND	ND	ND	0
62086	2017-02-26T21:00:00	27.6	ND	ND	ND	0.46	9.67	ND	ND	ND	ND	ND	0
62087	2017-02-26T22:00:00	18	ND	ND	ND	0.60	10.81	ND	ND	ND	ND	ND	0
62088	2017-02-26T23:00:00	23	ND	ND	ND	0.57	11.58	ND	ND	ND	ND	ND	0
62089	2017-02-27T00:00:00	13.4	ND	ND	ND	0.71	8.08	ND	ND	ND	ND	ND	0
62090	2017-02-27T01:00:00	26.4	ND	ND	ND	0.61	4.43	ND	ND	ND	ND	ND	0
62091	2017-02-27T02:00:00	38	ND	ND	ND	0.49	6.14	ND	ND	ND	ND	ND	0
62092	2017-02-27T03:00:00	32	ND	ND	ND	1.77	2.00	ND	ND	ND	ND	ND	0
62093	2017-02-27T04:00:00	32.5	ND	ND	ND	1.83	2.28	ND	ND	ND	ND	ND	4.57
62094	2017-02-27T05:00:00	26.7	ND	ND	ND	0.84	5.61	ND	ND	ND	ND	ND	0.25
62095	2017-02-27T06:00:00	37.7	ND	ND	ND	0.86	3.83	ND	ND	ND	ND	ND	0
62096	2017-02-27T07:00:00	38.1	ND	ND	ND	0.50	1.10	ND	ND	ND	ND	ND	0
62097	2017-02-27T08:00:00	49.4	ND	ND	ND	1.48	1.31	ND	ND	ND	ND	ND	0
62098	2017-02-27T09:00:00	70.7	ND	ND	ND	1.60	4.34	ND	ND	ND	ND	ND	0
62099	2017-02-27T10:00:00	85	ND	ND	ND	1.32	19.19	ND	ND	ND	ND	ND	0
62100	2017-02-27T11:00:00	77.7	ND	ND	ND	0.86	50.20	ND	ND	ND	ND	ND	0
62101	2017-02-27T12:00:00	76.9	ND	ND	ND	0.77	73.18	ND	ND	ND	ND	ND	0
62102	2017-02-27T13:00:00	65.6	ND	ND	ND	0.64	91.13	ND	ND	ND	ND	ND	0
62103	2017-02-27T14:00:00	56.4	ND	ND	ND	0.57	107.75	ND	ND	ND	ND	ND	0
62104	2017-02-27T15:00:00	64.5	ND	ND	ND	0.43	43.62	ND	ND	ND	ND	ND	0
62105	2017-02-27T16:00:00	43.6	ND	ND	ND	0.38	39.15	ND	ND	ND	ND	ND	0
62106	2017-02-27T17:00:00	33.2	ND	ND	ND	0.54	36.87	ND	ND	ND	ND	ND	0
62107	2017-02-27T18:00:00	34.4	ND	ND	ND	0.26	23.63	ND	ND	ND	ND	ND	0
62108	2017-02-27T19:00:00	29.8	ND	ND	ND	0.61	17.64	ND	ND	ND	ND	ND	0
62109	2017-02-27T20:00:00	15	ND	ND	ND	0.57	19.86	ND	ND	ND	ND	ND	0
62110	2017-02-27T21:00:00	16.3	ND	ND	ND	0.33	19.45	ND	ND	ND	ND	ND	0
62111	2017-02-27T22:00:00	15.9	ND	ND	ND	0.78	16.76	ND	ND	ND	ND	ND	0
62112	2017-02-27T23:00:00	9.1	ND	ND	ND	0.24	17.41	ND	ND	ND	ND	ND	0
62113	2017-02-28T00:00:00	6.4	ND	ND	ND	0.22	22.80	ND	ND	ND	ND	ND	0
62114	2017-02-28T01:00:00	10.1	ND	ND	ND	0.38	17.25	ND	ND	ND	ND	ND	11.94
62115	2017-02-28T02:00:00	13.7	ND	ND	ND	0.40	18.29	ND	ND	ND	ND	ND	3.56
62116	2017-02-28T03:00:00	7.2	ND	ND	ND	0.64	12.93	ND	ND	ND	ND	ND	2.54
62117	2017-02-28T04:00:00	14.4	ND	ND	ND	0.42	7.59	ND	ND	ND	ND	ND	6.35
62118	2017-02-28T05:00:00	19	ND	ND	ND	0.71	5.20	ND	ND	ND	ND	ND	2.79
62119	2017-02-28T06:00:00	36.9	ND	ND	ND	0.82	1.88	ND	ND	ND	ND	ND	0
62120	2017-02-28T07:00:00	38.3	ND	ND	ND	ND	0.75	ND	ND	ND	ND	ND	0.25
62121	2017-02-28T08:00:00	36.1	ND	ND	ND	1.23	1.28	ND	ND	ND	ND	ND	0
62122	2017-02-28T09:00:00	53	ND	ND	ND	ND	1.53	ND	ND	ND	ND	ND	0
62123	2017-02-28T10:00:00	67.6	ND	ND	ND	0.66	13.30	ND	ND	ND	ND	ND	0
62124	2017-02-28T11:00:00	79.3	ND	ND	ND	0.91	45.53	ND	ND	ND	ND	ND	0
62125	2017-02-28T12:00:00	84.5	ND	ND	ND	1.76	69.70	ND	ND	ND	ND	ND	0
62126	2017-02-28T13:00:00	65.6	ND	ND	ND	1.48	76.06	ND	ND	ND	ND	ND	0
62127	2017-02-28T14:00:00	60	ND	ND	ND	1.69	50.81	ND	ND	ND	ND	ND	0
62128	2017-02-28T15:00:00	41.8	ND	ND	ND	1.53	21.80	ND	ND	ND	ND	ND	0
62129	2017-02-28T16:00:00	21.5	ND	ND	ND	1.42	8.73	ND	ND	ND	ND	ND	1.02
62130	2017-02-28T17:00:00	25.6	ND	ND	ND	1.34	6.75	ND	ND	ND	ND	ND	0.25
62131	2017-02-28T18:00:00	43.5	ND	ND	ND	1.46	3.10	ND	ND	ND	ND	ND	0
62132	2017-02-28T19:00:00	49.7	ND	ND	ND	1.30	7.50	ND	ND	ND	ND	ND	0
62133	2017-02-28T20:00:00	42.7	ND	ND	ND	1.38	5.26	ND	ND	ND	ND	ND	0
62134	2017-02-28T21:00:00	33.4	ND	ND	ND	1.67	1.14	ND	ND	ND	ND	ND	0
62135	2017-02-28T22:00:00	50.6	ND	ND	ND	1.83	0.98	ND	ND	ND	ND	ND	0
62136	2017-02-28T23:00:00	78.9	ND	ND	ND	2.43	0.65	ND	ND	ND	ND	ND	0
62137	2017-03-01T00:00:00	53.6	ND	ND	ND	2.02	0.92	ND	ND	ND	ND	ND	0
62138	2017-03-01T01:00:00	48.8	ND	ND	ND	1.49	0.77	ND	ND	ND	ND	ND	0
62139	2017-03-01T02:00:00	60.8	ND	ND	ND	1.91	0.57	ND	ND	ND	ND	ND	0
62140	2017-03-01T03:00:00	55.8	ND	ND	ND	1.60	0.61	ND	ND	ND	ND	ND	0
62141	2017-03-01T04:00:00	48.1	ND	ND	ND	1.30	0.55	ND	ND	ND	ND	ND	0
62142	2017-03-01T05:00:00	27.1	ND	ND	ND	0.98	0.55	ND	ND	ND	ND	ND	0
62143	2017-03-01T06:00:00	38.3	ND	ND	ND	0.96	0.71	ND	ND	ND	ND	ND	0
62144	2017-03-01T07:00:00	81.8	ND	ND	ND	1.44	1.20	ND	ND	ND	ND	ND	0
62145	2017-03-01T08:00:00	95.1	ND	ND	ND	1.27	1.08	ND	ND	ND	ND	ND	0
62146	2017-03-01T09:00:00	105.9	ND	ND	ND	1.91	8.20	ND	ND	ND	ND	ND	0
62147	2017-03-01T10:00:00	140.9	ND	ND	ND	2.70	11.22	ND	ND	ND	ND	ND	0
62148	2017-03-01T11:00:00	110.1	ND	ND	ND	1.39	26.90	ND	ND	ND	ND	ND	0
62149	2017-03-01T12:00:00	70.6	ND	ND	ND	0.75	73.27	ND	ND	ND	ND	ND	0
62150	2017-03-01T13:00:00	83.2	ND	ND	ND	0.67	115.05	ND	ND	ND	ND	ND	0
62151	2017-03-01T14:00:00	88.8	ND	ND	ND	0.46	95.69	ND	ND	ND	ND	ND	0
62152	2017-03-01T15:00:00	53.7	ND	ND	ND	0.46	29.22	ND	ND	ND	ND	ND	0
62153	2017-03-01T16:00:00	11.4	ND	ND	ND	0.53	29.24	ND	ND	ND	ND	ND	0
62154	2017-03-01T17:00:00	31.2	ND	ND	ND	0.42	22.43	ND	ND	ND	ND	ND	0
62155	2017-03-01T18:00:00	42.4	ND	ND	ND	0.36	15.50	ND	ND	ND	ND	ND	0
62156	2017-03-01T19:00:00	25.5	ND	ND	ND	0.52	10.09	ND	ND	ND	ND	ND	0
62157	2017-03-01T20:00:00	19	ND	ND	ND	0.63	16.74	ND	ND	ND	ND	ND	0
62158	2017-03-01T21:00:00	25.7	ND	ND	ND	0.77	25.10	ND	ND	ND	ND	ND	0
62159	2017-03-01T22:00:00	37.3	ND	ND	ND	0.57	20.82	ND	ND	ND	ND	ND	0
62160	2017-03-01T23:00:00	29.7	ND	ND	ND	0.53	11.64	ND	ND	ND	ND	ND	0
62161	2017-03-02T00:00:00	53.1	ND	ND	ND	0.61	4.53	ND	ND	ND	ND	ND	0
62162	2017-03-02T01:00:00	30.6	ND	ND	ND	0.79	3.94	ND	ND	ND	ND	ND	0
62163	2017-03-02T02:00:00	30.8	ND	ND	ND	2.89	1.33	ND	ND	ND	ND	ND	0
62164	2017-03-02T03:00:00	54.3	ND	ND	ND	3.57	3.49	ND	ND	ND	ND	ND	0
62165	2017-03-02T04:00:00	30	ND	ND	ND	1.16	7.30	ND	ND	ND	ND	ND	0
62166	2017-03-02T05:00:00	34.8	ND	ND	ND	1.31	2.69	ND	ND	ND	ND	ND	0
62167	2017-03-02T06:00:00	49	ND	ND	ND	1.05	2.08	ND	ND	ND	ND	ND	0
62168	2017-03-02T07:00:00	58.8	ND	ND	ND	0.63	1.00	ND	ND	ND	ND	ND	0
62169	2017-03-02T08:00:00	70.2	ND	ND	ND	0.93	1.81	ND	ND	ND	ND	ND	0
62170	2017-03-02T09:00:00	77.5	ND	ND	ND	1.73	6.46	ND	ND	ND	ND	ND	0
62171	2017-03-02T10:00:00	94.7	ND	ND	ND	1.14	24.88	ND	ND	ND	ND	ND	0
62172	2017-03-02T11:00:00	86	ND	ND	ND	0.81	51.63	ND	ND	ND	ND	ND	0
62173	2017-03-02T12:00:00	72.2	ND	ND	ND	0.70	76.87	ND	ND	ND	ND	ND	0
62174	2017-03-02T13:00:00	77.3	ND	ND	ND	ND	110.64	ND	ND	ND	ND	ND	0
62175	2017-03-02T14:00:00	64.2	ND	ND	ND	ND	99.41	ND	ND	ND	ND	ND	0
62176	2017-03-02T15:00:00	68.3	ND	ND	ND	ND	58.05	ND	ND	ND	ND	ND	0
62177	2017-03-02T16:00:00	52.2	ND	ND	ND	ND	33.69	ND	ND	ND	ND	ND	0
62178	2017-03-02T17:00:00	31.4	ND	ND	ND	ND	22.49	ND	ND	ND	ND	ND	0
62179	2017-03-02T18:00:00	41.1	ND	ND	ND	ND	11.83	ND	ND	ND	ND	ND	0
62180	2017-03-02T19:00:00	36.8	ND	ND	ND	ND	9.79	ND	ND	ND	ND	ND	0
62181	2017-03-02T20:00:00	27.1	ND	ND	ND	ND	15.17	ND	ND	ND	ND	ND	0
62182	2017-03-02T21:00:00	22.9	ND	ND	ND	ND	12.25	ND	ND	ND	ND	ND	0
62183	2017-03-02T22:00:00	35.2	ND	ND	ND	ND	10.71	ND	ND	ND	ND	ND	0
62184	2017-03-02T23:00:00	26.3	ND	ND	ND	ND	17.19	ND	ND	ND	ND	ND	0
62185	2017-03-03T00:00:00	13.5	ND	ND	ND	ND	8.42	ND	ND	ND	ND	ND	0
62186	2017-03-03T01:00:00	33	ND	ND	ND	ND	7.69	ND	ND	ND	ND	ND	0
62187	2017-03-03T02:00:00	35.3	ND	ND	ND	0.89	6.50	ND	ND	ND	ND	ND	0
62188	2017-03-03T03:00:00	25.7	ND	ND	ND	1.16	5.02	ND	ND	ND	ND	ND	0
62189	2017-03-03T04:00:00	81.4	ND	ND	ND	1.21	2.87	ND	ND	ND	ND	ND	0
62190	2017-03-03T05:00:00	39.4	ND	ND	ND	1.48	4.22	ND	ND	ND	ND	ND	0
62191	2017-03-03T06:00:00	44.6	ND	ND	ND	1.37	2.53	ND	ND	ND	ND	ND	0
62192	2017-03-03T07:00:00	53.7	ND	ND	ND	0.72	1.10	ND	ND	ND	ND	ND	0
62193	2017-03-03T08:00:00	73	ND	ND	ND	0.22	2.06	ND	ND	ND	ND	ND	0
62194	2017-03-03T09:00:00	61	ND	ND	ND	0.35	2.94	ND	ND	ND	ND	ND	3.05
62195	2017-03-03T10:00:00	34.7	ND	ND	ND	0.39	12.70	ND	ND	ND	ND	ND	1.27
62196	2017-03-03T11:00:00	29.4	ND	ND	ND	0.79	39.46	ND	ND	ND	ND	ND	0
62197	2017-03-03T12:00:00	44.7	ND	ND	ND	0.67	66.88	ND	ND	ND	ND	ND	0
62198	2017-03-03T13:00:00	41.7	ND	ND	ND	0.77	73.55	ND	ND	ND	ND	ND	0
62199	2017-03-03T14:00:00	45.4	ND	ND	ND	0.36	68.31	ND	ND	ND	ND	ND	0
62200	2017-03-03T15:00:00	31.9	ND	ND	ND	0.47	39.27	ND	ND	ND	ND	ND	0
62201	2017-03-03T16:00:00	37.6	ND	ND	ND	0.38	39.40	ND	ND	ND	ND	ND	0
62202	2017-03-03T17:00:00	29	ND	ND	ND	0.35	35.79	ND	ND	ND	ND	ND	0
62203	2017-03-03T18:00:00	12.3	ND	ND	ND	0.32	28.08	ND	ND	ND	ND	ND	0
62204	2017-03-03T19:00:00	7.3	ND	ND	ND	0.10	23.71	ND	ND	ND	ND	ND	0
62205	2017-03-03T20:00:00	19.3	ND	ND	ND	0.21	21.31	ND	ND	ND	ND	ND	0
62206	2017-03-03T21:00:00	20.2	ND	ND	ND	0.11	12.79	ND	ND	ND	ND	ND	0
62207	2017-03-03T22:00:00	30.2	ND	ND	ND	0.45	14.50	ND	ND	ND	ND	ND	0
62208	2017-03-03T23:00:00	32.7	ND	ND	ND	0.38	7.97	ND	ND	ND	ND	ND	0
62209	2017-03-04T00:00:00	27.2	ND	ND	ND	0.71	12.26	ND	ND	ND	ND	ND	0
62210	2017-03-04T01:00:00	22	ND	ND	ND	0.77	8.91	ND	ND	ND	ND	ND	0
62211	2017-03-04T02:00:00	21.5	ND	ND	ND	0.70	13.38	ND	ND	ND	ND	ND	0
62212	2017-03-04T03:00:00	24.9	ND	ND	ND	0.92	9.18	ND	ND	ND	ND	ND	0
62213	2017-03-04T04:00:00	30.2	ND	ND	ND	1.34	4.81	ND	ND	ND	ND	ND	0
62214	2017-03-04T05:00:00	27.3	ND	ND	ND	0.99	10.26	ND	ND	ND	ND	ND	0
62215	2017-03-04T06:00:00	10	ND	ND	ND	1.10	4.32	ND	ND	ND	ND	ND	0
62216	2017-03-04T07:00:00	25.2	ND	ND	ND	0.77	1.79	ND	ND	ND	ND	ND	0
62217	2017-03-04T08:00:00	67.3	ND	ND	ND	0.67	4.49	ND	ND	ND	ND	ND	0
62218	2017-03-04T09:00:00	146.3	ND	ND	ND	0.70	19.92	ND	ND	ND	ND	ND	0
62219	2017-03-04T10:00:00	150	ND	ND	ND	1.03	51.57	ND	ND	ND	ND	ND	0
62220	2017-03-04T11:00:00	105	ND	ND	ND	0.42	74.98	ND	ND	ND	ND	ND	0
62221	2017-03-04T12:00:00	66.6	ND	ND	ND	0.70	89.96	ND	ND	ND	ND	ND	0
62222	2017-03-04T13:00:00	70.9	ND	ND	ND	0.84	104.93	ND	ND	ND	ND	ND	0
62223	2017-03-04T14:00:00	70.8	ND	ND	ND	0.29	118.25	ND	ND	ND	ND	ND	0
62224	2017-03-04T15:00:00	74.5	ND	ND	ND	0.61	140.60	ND	ND	ND	ND	ND	0
62225	2017-03-04T16:00:00	73.6	ND	ND	ND	0.57	105.93	ND	ND	ND	ND	ND	0
62226	2017-03-04T17:00:00	45.4	ND	ND	ND	0.25	63.42	ND	ND	ND	ND	ND	0
62227	2017-03-04T18:00:00	33.3	ND	ND	ND	0.25	42.43	ND	ND	ND	ND	ND	0
62228	2017-03-04T19:00:00	27.6	ND	ND	ND	0.15	24.77	ND	ND	ND	ND	ND	0
62229	2017-03-04T20:00:00	24.1	ND	ND	ND	0.49	32.18	ND	ND	ND	ND	ND	0
62230	2017-03-04T21:00:00	30.1	ND	ND	ND	0.67	34.18	ND	ND	ND	ND	ND	0
62231	2017-03-04T22:00:00	30.4	ND	ND	ND	0.18	16.64	ND	ND	ND	ND	ND	0
62232	2017-03-04T23:00:00	59.9	ND	ND	ND	ND	2.18	ND	ND	ND	ND	ND	0
62233	2017-03-05T00:00:00	54.1	ND	ND	ND	0.31	6.12	ND	ND	ND	ND	ND	0
62234	2017-03-05T01:00:00	33.6	ND	ND	ND	0.59	18.09	ND	ND	ND	ND	ND	0
62235	2017-03-05T02:00:00	37.6	ND	ND	ND	0.91	3.16	ND	ND	ND	ND	ND	0
62236	2017-03-05T03:00:00	54.4	ND	ND	ND	1.14	3.94	ND	ND	ND	ND	ND	0
62237	2017-03-05T04:00:00	69.3	ND	ND	ND	1.27	4.38	ND	ND	ND	ND	ND	0
62238	2017-03-05T05:00:00	61.3	ND	ND	ND	1.18	4.40	ND	ND	ND	ND	ND	0
62239	2017-03-05T06:00:00	61.1	ND	ND	ND	0.85	1.41	ND	ND	ND	ND	ND	0
62240	2017-03-05T07:00:00	61.2	ND	ND	ND	0.60	0.84	ND	ND	ND	ND	ND	0
62241	2017-03-05T08:00:00	57.7	ND	ND	ND	0.71	5.99	ND	ND	ND	ND	ND	0
62242	2017-03-05T09:00:00	54.8	ND	ND	ND	0.81	23.33	ND	ND	ND	ND	ND	0
62243	2017-03-05T10:00:00	61	ND	ND	ND	0.70	43.92	ND	ND	ND	ND	ND	0
62244	2017-03-05T11:00:00	68.7	ND	ND	ND	1.07	70.08	ND	ND	ND	ND	ND	0
62245	2017-03-05T12:00:00	59.2	ND	ND	ND	0.72	70.57	ND	ND	ND	ND	ND	0
62246	2017-03-05T13:00:00	53.6	ND	ND	ND	1.18	78.22	ND	ND	ND	ND	ND	0
62247	2017-03-05T14:00:00	48.8	ND	ND	ND	0.89	86.01	ND	ND	ND	ND	ND	0
62248	2017-03-05T15:00:00	50.3	ND	ND	ND	0.85	88.44	ND	ND	ND	ND	ND	0
62249	2017-03-05T16:00:00	46.9	ND	ND	ND	0.68	75.63	ND	ND	ND	ND	ND	0
62250	2017-03-05T17:00:00	41.5	ND	ND	ND	0.61	42.92	ND	ND	ND	ND	ND	0
62251	2017-03-05T18:00:00	20	ND	ND	ND	1.02	27.94	ND	ND	ND	ND	ND	0
62252	2017-03-05T19:00:00	18.9	ND	ND	ND	0.67	26.10	ND	ND	ND	ND	ND	0
62253	2017-03-05T20:00:00	20.3	ND	ND	ND	0.67	18.01	ND	ND	ND	ND	ND	0
62254	2017-03-05T21:00:00	17.4	ND	ND	ND	0.50	25.06	ND	ND	ND	ND	ND	0
62255	2017-03-05T22:00:00	4	ND	ND	ND	0.40	22.17	ND	ND	ND	ND	ND	0
62256	2017-03-05T23:00:00	23.7	ND	ND	ND	0.08	7.04	ND	ND	ND	ND	ND	0
62257	2017-03-06T00:00:00	27.6	ND	ND	ND	0.43	5.83	ND	ND	ND	ND	ND	0
62258	2017-03-06T01:00:00	35.4	ND	ND	ND	0.86	3.34	ND	ND	ND	ND	ND	0
62259	2017-03-06T02:00:00	31	ND	ND	ND	1.18	5.55	ND	ND	ND	ND	ND	0
62260	2017-03-06T03:00:00	23.8	ND	ND	ND	1.24	9.13	ND	ND	ND	ND	ND	0
62261	2017-03-06T04:00:00	42.3	ND	ND	ND	1.71	8.38	ND	ND	ND	ND	ND	0
62262	2017-03-06T05:00:00	54.8	ND	ND	ND	1.45	4.14	ND	ND	ND	ND	ND	0
62263	2017-03-06T06:00:00	58.5	ND	ND	ND	1.17	1.12	ND	ND	ND	ND	ND	0
62264	2017-03-06T07:00:00	77.8	ND	ND	ND	1.45	0.88	ND	ND	ND	ND	ND	0
62265	2017-03-06T08:00:00	99.6	ND	ND	ND	ND	2.08	ND	ND	ND	ND	ND	0
62266	2017-03-06T09:00:00	108.5	ND	ND	ND	0.63	8.83	ND	ND	ND	ND	ND	0
62267	2017-03-06T10:00:00	94.6	ND	ND	ND	1.30	32.71	ND	ND	ND	ND	ND	0
62268	2017-03-06T11:00:00	83.9	ND	ND	ND	0.89	56.81	ND	ND	ND	ND	ND	0
62269	2017-03-06T12:00:00	67	ND	ND	ND	0.74	96.33	ND	ND	ND	ND	ND	0
62270	2017-03-06T13:00:00	57.4	ND	ND	ND	0.92	126.46	ND	ND	ND	ND	ND	0
62271	2017-03-06T14:00:00	66.1	ND	ND	ND	0.61	122.35	ND	ND	ND	ND	ND	0
62272	2017-03-06T15:00:00	67.6	ND	ND	ND	0.63	131.07	ND	ND	ND	ND	ND	0
62273	2017-03-06T16:00:00	46.3	ND	ND	ND	0.45	74.33	ND	ND	ND	ND	ND	0
62274	2017-03-06T17:00:00	31	ND	ND	ND	0.66	26.39	ND	ND	ND	ND	ND	0
62275	2017-03-06T18:00:00	29.2	ND	ND	ND	0.78	21.61	ND	ND	ND	ND	ND	0
62276	2017-03-06T19:00:00	32.3	ND	ND	ND	0.53	18.15	ND	ND	ND	ND	ND	0
62277	2017-03-06T20:00:00	48.8	ND	ND	ND	1.06	15.97	ND	ND	ND	ND	ND	5.08
62278	2017-03-06T21:00:00	37.9	ND	ND	ND	1.23	22.82	ND	ND	ND	ND	ND	1.02
62279	2017-03-06T22:00:00	7.9	ND	ND	ND	1.31	1.24	ND	ND	ND	ND	ND	0.25
62280	2017-03-06T23:00:00	24.9	ND	ND	ND	1.51	1.16	ND	ND	ND	ND	ND	0
62281	2017-03-07T00:00:00	33.6	ND	ND	ND	1.41	10.07	ND	ND	ND	ND	ND	0
62282	2017-03-07T01:00:00	11.9	ND	ND	ND	1.64	14.42	ND	ND	ND	ND	ND	0
62283	2017-03-07T02:00:00	20.8	ND	ND	ND	1.59	7.52	ND	ND	ND	ND	ND	0
62284	2017-03-07T03:00:00	31.5	ND	ND	ND	1.35	5.22	ND	ND	ND	ND	ND	0
62285	2017-03-07T04:00:00	23.7	ND	ND	ND	1.84	0.71	ND	ND	ND	ND	ND	0
62286	2017-03-07T05:00:00	35	ND	ND	ND	1.74	3.00	ND	ND	ND	ND	ND	0
62287	2017-03-07T06:00:00	31.4	ND	ND	ND	1.49	5.36	ND	ND	ND	ND	ND	0
62288	2017-03-07T07:00:00	49.8	ND	ND	ND	1.17	1.20	ND	ND	ND	ND	ND	0
62289	2017-03-07T08:00:00	61.1	ND	ND	ND	0.35	1.04	ND	ND	ND	ND	ND	0
62290	2017-03-07T09:00:00	53.1	ND	ND	ND	0.56	6.08	ND	ND	ND	ND	ND	0
62291	2017-03-07T10:00:00	44.8	ND	ND	ND	1.06	20.96	ND	ND	ND	ND	ND	0
62292	2017-03-07T11:00:00	44.8	ND	ND	ND	1.44	60.81	ND	ND	ND	ND	ND	0
62293	2017-03-07T12:00:00	52.4	ND	ND	ND	1.13	79.79	ND	ND	ND	ND	ND	0
62294	2017-03-07T13:00:00	59	ND	ND	ND	1.24	72.35	ND	ND	ND	ND	ND	0
62295	2017-03-07T14:00:00	44.8	ND	ND	ND	0.81	79.55	ND	ND	ND	ND	ND	0
62296	2017-03-07T15:00:00	65	ND	ND	ND	1.23	33.11	ND	ND	ND	ND	ND	0
62297	2017-03-07T16:00:00	42.2	ND	ND	ND	1.14	13.17	ND	ND	ND	ND	ND	0
62298	2017-03-07T17:00:00	37.7	ND	ND	ND	0.72	30.38	ND	ND	ND	ND	ND	0.25
62299	2017-03-07T18:00:00	36.2	ND	ND	ND	0.35	16.23	ND	ND	ND	ND	ND	0
62300	2017-03-07T19:00:00	65.1	ND	ND	ND	0.08	3.81	ND	ND	ND	ND	ND	0
62301	2017-03-07T20:00:00	93	ND	ND	ND	0.60	3.34	ND	ND	ND	ND	ND	0
62302	2017-03-07T21:00:00	73.5	ND	ND	ND	1.10	2.02	ND	ND	ND	ND	ND	0
62303	2017-03-07T22:00:00	67.7	ND	ND	ND	0.63	0.88	ND	ND	ND	ND	ND	0
62304	2017-03-07T23:00:00	52.4	ND	ND	ND	1.24	0.77	ND	ND	ND	ND	ND	0
62305	2017-03-08T00:00:00	64.9	ND	ND	ND	1.03	1.22	ND	ND	ND	ND	ND	0
62306	2017-03-08T01:00:00	51.1	ND	ND	ND	1.70	4.83	ND	ND	ND	ND	ND	1.78
62307	2017-03-08T02:00:00	28.2	ND	ND	ND	1.62	5.59	ND	ND	ND	ND	ND	1.27
62308	2017-03-08T03:00:00	18.5	ND	ND	ND	1.58	7.08	ND	ND	ND	ND	ND	0.76
62309	2017-03-08T04:00:00	9	ND	ND	ND	1.46	6.52	ND	ND	ND	ND	ND	0.25
62310	2017-03-08T05:00:00	24.1	ND	ND	ND	1.56	5.91	ND	ND	ND	ND	ND	2.29
62311	2017-03-08T06:00:00	14.7	ND	ND	ND	1.56	2.41	ND	ND	ND	ND	ND	34.04
62312	2017-03-08T07:00:00	14.9	ND	ND	ND	1.09	1.20	ND	ND	ND	ND	ND	7.87
62313	2017-03-08T08:00:00	35	ND	ND	ND	0.39	0.84	ND	ND	ND	ND	ND	3.56
62314	2017-03-08T09:00:00	31.6	ND	ND	ND	0.78	1.22	ND	ND	ND	ND	ND	1.27
62315	2017-03-08T10:00:00	34	ND	ND	ND	0.59	1.83	ND	ND	ND	ND	ND	0.51
62316	2017-03-08T11:00:00	47.3	ND	ND	ND	0.81	7.83	ND	ND	ND	ND	ND	0
62317	2017-03-08T12:00:00	62.8	ND	ND	ND	1.14	10.38	ND	ND	ND	ND	ND	0
62318	2017-03-08T13:00:00	58.3	ND	ND	ND	1.27	14.09	ND	ND	ND	ND	ND	0
62319	2017-03-08T14:00:00	66.2	ND	ND	ND	1.27	24.08	ND	ND	ND	ND	ND	0
62320	2017-03-08T15:00:00	54.9	ND	ND	ND	1.20	34.30	ND	ND	ND	ND	ND	0
62321	2017-03-08T16:00:00	46.8	ND	ND	ND	1.09	33.40	ND	ND	ND	ND	ND	0
62322	2017-03-08T17:00:00	59.2	ND	ND	ND	0.82	28.16	ND	ND	ND	ND	ND	0
62323	2017-03-08T18:00:00	68.3	ND	ND	ND	0.70	21.96	ND	ND	ND	ND	ND	0
62324	2017-03-08T19:00:00	66.2	ND	ND	ND	0.60	4.06	ND	ND	ND	ND	ND	0
62325	2017-03-08T20:00:00	62.3	ND	ND	ND	0.39	2.14	ND	ND	ND	ND	ND	0
62326	2017-03-08T21:00:00	70.5	ND	ND	ND	0.57	0.88	ND	ND	ND	ND	ND	0
62327	2017-03-08T22:00:00	72	ND	ND	ND	0.18	0.65	ND	ND	ND	ND	ND	0
62328	2017-03-08T23:00:00	65.9	ND	ND	ND	0.72	0.57	ND	ND	ND	ND	ND	0
62329	2017-03-09T00:00:00	50	ND	ND	ND	1.30	0.65	ND	ND	ND	ND	ND	0
62330	2017-03-09T01:00:00	47.3	ND	ND	ND	1.30	0.88	ND	ND	ND	ND	ND	0
62331	2017-03-09T02:00:00	53.8	ND	ND	ND	1.70	2.45	ND	ND	ND	ND	ND	0
62332	2017-03-09T03:00:00	47	ND	ND	ND	1.31	1.81	ND	ND	ND	ND	ND	0
62333	2017-03-09T04:00:00	40.5	ND	ND	ND	0.52	3.12	ND	ND	ND	ND	ND	0
62334	2017-03-09T05:00:00	33.5	ND	ND	ND	0.82	1.12	ND	ND	ND	ND	ND	0
62335	2017-03-09T06:00:00	28.7	ND	ND	ND	0.86	0.67	ND	ND	ND	ND	ND	0
62336	2017-03-09T07:00:00	52	ND	ND	ND	0.66	0.78	ND	ND	ND	ND	ND	0.76
62337	2017-03-09T08:00:00	60.2	ND	ND	ND	0.15	1.59	ND	ND	ND	ND	ND	0.25
62338	2017-03-09T09:00:00	72.2	ND	ND	ND	0.28	10.15	ND	ND	ND	ND	ND	0
62339	2017-03-09T10:00:00	91.6	ND	ND	ND	0.82	36.44	ND	ND	ND	ND	ND	0
62340	2017-03-09T11:00:00	88	ND	ND	ND	0.64	52.10	ND	ND	ND	ND	ND	0
62341	2017-03-09T12:00:00	70.5	ND	ND	ND	0.46	78.04	ND	ND	ND	ND	ND	0
62342	2017-03-09T13:00:00	61.9	ND	ND	ND	0.70	106.28	ND	ND	ND	ND	ND	0
62343	2017-03-09T14:00:00	53.4	ND	ND	ND	0.61	69.43	ND	ND	ND	ND	ND	0
62344	2017-03-09T15:00:00	46.3	ND	ND	ND	0.60	48.96	ND	ND	ND	ND	ND	0
62345	2017-03-09T16:00:00	37.5	ND	ND	ND	0.60	20.60	ND	ND	ND	ND	ND	0
62346	2017-03-09T17:00:00	30.7	ND	ND	ND	0.63	12.81	ND	ND	ND	ND	ND	0
62347	2017-03-09T18:00:00	45.8	ND	ND	ND	0.70	7.59	ND	ND	ND	ND	ND	0
62348	2017-03-09T19:00:00	50.5	ND	ND	ND	0.61	3.53	ND	ND	ND	ND	ND	0
62349	2017-03-09T20:00:00	48.8	ND	ND	ND	1.00	4.20	ND	ND	ND	ND	ND	0
62350	2017-03-09T21:00:00	55.8	ND	ND	ND	ND	5.04	ND	ND	ND	ND	ND	0
62351	2017-03-09T22:00:00	67.3	ND	ND	ND	1.09	1.02	ND	ND	ND	ND	ND	0
62352	2017-03-09T23:00:00	88.9	ND	ND	ND	ND	0.96	ND	ND	ND	ND	ND	0
62353	2017-03-10T00:00:00	76.3	ND	ND	ND	1.98	1.04	ND	ND	ND	ND	ND	0
62354	2017-03-10T01:00:00	65.7	ND	ND	ND	2.10	0.63	ND	ND	ND	ND	ND	0
62355	2017-03-10T02:00:00	56.6	ND	ND	ND	1.95	0.90	ND	ND	ND	ND	ND	0
62356	2017-03-10T03:00:00	58.7	ND	ND	ND	1.97	1.33	ND	ND	ND	ND	ND	0
62357	2017-03-10T04:00:00	69.8	ND	ND	ND	ND	2.83	ND	ND	ND	ND	ND	0
62358	2017-03-10T05:00:00	29.8	ND	ND	ND	0.47	6.12	ND	ND	ND	ND	ND	14.73
62359	2017-03-10T06:00:00	9.2	ND	ND	ND	0.46	5.18	ND	ND	ND	ND	ND	39.88
62360	2017-03-10T07:00:00	14.5	ND	ND	ND	0.46	1.41	ND	ND	ND	ND	ND	11.43
62361	2017-03-10T08:00:00	12.8	ND	ND	ND	1.21	1.31	ND	ND	ND	ND	ND	8.38
62362	2017-03-10T09:00:00	26.7	ND	ND	ND	1.02	2.02	ND	ND	ND	ND	ND	2.79
62363	2017-03-10T10:00:00	20.9	ND	ND	ND	0.54	14.11	ND	ND	ND	ND	ND	0
62364	2017-03-10T11:00:00	41.2	ND	ND	ND	0.03	26.77	ND	ND	ND	ND	ND	0
62365	2017-03-10T12:00:00	38.2	ND	ND	ND	0.35	56.08	ND	ND	ND	ND	ND	0
62366	2017-03-10T13:00:00	39	ND	ND	ND	0.74	69.74	ND	ND	ND	ND	ND	0
62367	2017-03-10T14:00:00	35.4	ND	ND	ND	0.46	54.55	ND	ND	ND	ND	ND	0
62368	2017-03-10T15:00:00	43.1	ND	ND	ND	0.79	57.01	ND	ND	ND	ND	ND	0
62369	2017-03-10T16:00:00	48	ND	ND	ND	0.33	44.47	ND	ND	ND	ND	ND	0
62370	2017-03-10T17:00:00	60.3	ND	ND	ND	0.43	29.57	ND	ND	ND	ND	ND	0
62371	2017-03-10T18:00:00	65.2	ND	ND	ND	0.77	13.21	ND	ND	ND	ND	ND	0
62372	2017-03-10T19:00:00	63.6	ND	ND	ND	1.03	7.26	ND	ND	ND	ND	ND	0
62373	2017-03-10T20:00:00	66.2	ND	ND	ND	1.21	2.24	ND	ND	ND	ND	ND	0
62374	2017-03-10T21:00:00	51.3	ND	ND	ND	0.59	2.06	ND	ND	ND	ND	ND	0
62375	2017-03-10T22:00:00	34.8	ND	ND	ND	0.59	2.18	ND	ND	ND	ND	ND	0
62376	2017-03-10T23:00:00	38.1	ND	ND	ND	0.91	4.87	ND	ND	ND	ND	ND	0
62377	2017-03-11T00:00:00	28.8	ND	ND	ND	0.47	1.55	ND	ND	ND	ND	ND	0
62378	2017-03-11T01:00:00	22.5	ND	ND	ND	0.52	7.83	ND	ND	ND	ND	ND	0
62379	2017-03-11T02:00:00	31.5	ND	ND	ND	0.54	6.04	ND	ND	ND	ND	ND	0
62380	2017-03-11T03:00:00	33.3	ND	ND	ND	0.68	5.10	ND	ND	ND	ND	ND	0
62381	2017-03-11T04:00:00	39.6	ND	ND	ND	0.98	4.45	ND	ND	ND	ND	ND	0
62382	2017-03-11T05:00:00	42.6	ND	ND	ND	1.12	3.30	ND	ND	ND	ND	ND	0
62383	2017-03-11T06:00:00	38	ND	ND	ND	1.13	2.81	ND	ND	ND	ND	ND	0
62384	2017-03-11T07:00:00	46.7	ND	ND	ND	0.60	1.79	ND	ND	ND	ND	ND	0
62385	2017-03-11T08:00:00	72	ND	ND	ND	0.17	1.45	ND	ND	ND	ND	ND	0
62386	2017-03-11T09:00:00	97	ND	ND	ND	0.68	3.34	ND	ND	ND	ND	ND	0
62387	2017-03-11T10:00:00	96.6	ND	ND	ND	0.95	19.25	ND	ND	ND	ND	ND	0
62388	2017-03-11T11:00:00	96.2	ND	ND	ND	0.92	66.64	ND	ND	ND	ND	ND	0
62389	2017-03-11T12:00:00	97.5	ND	ND	ND	0.84	57.26	ND	ND	ND	ND	ND	0
62390	2017-03-11T13:00:00	80.8	ND	ND	ND	0.50	59.77	ND	ND	ND	ND	ND	0
62391	2017-03-11T14:00:00	55.8	ND	ND	ND	0.33	27.71	ND	ND	ND	ND	ND	0
62392	2017-03-11T15:00:00	19.5	ND	ND	ND	0.25	36.23	ND	ND	ND	ND	ND	0
62393	2017-03-11T16:00:00	19.5	ND	ND	ND	0.17	26.30	ND	ND	ND	ND	ND	0
62394	2017-03-11T17:00:00	16	ND	ND	ND	0.07	12.81	ND	ND	ND	ND	ND	1.78
62395	2017-03-11T18:00:00	19	ND	ND	ND	0.32	14.33	ND	ND	ND	ND	ND	0.51
62396	2017-03-11T19:00:00	15.2	ND	ND	ND	0.01	5.42	ND	ND	ND	ND	ND	0
62397	2017-03-11T20:00:00	19	ND	ND	ND	0.82	12.56	ND	ND	ND	ND	ND	0
62398	2017-03-11T21:00:00	13.4	ND	ND	ND	0.28	9.60	ND	ND	ND	ND	ND	2.29
62399	2017-03-11T22:00:00	12.6	ND	ND	ND	0.33	4.22	ND	ND	ND	ND	ND	2.29
62400	2017-03-11T23:00:00	11	ND	ND	ND	0.14	4.30	ND	ND	ND	ND	ND	5.33
62401	2017-03-12T00:00:00	9.5	ND	ND	ND	0.81	2.20	ND	ND	ND	ND	ND	0.76
62402	2017-03-12T01:00:00	21.2	ND	ND	ND	0.96	4.04	ND	ND	ND	ND	ND	0.76
62403	2017-03-12T02:00:00	13	ND	ND	ND	0.66	8.42	ND	ND	ND	ND	ND	0.25
62404	2017-03-12T03:00:00	6.1	ND	ND	ND	ND	5.00	ND	ND	ND	ND	ND	2.03
62405	2017-03-12T04:00:00	14.2	ND	ND	ND	ND	0.67	ND	ND	ND	ND	ND	0.76
62406	2017-03-12T05:00:00	4.8	ND	ND	ND	ND	2.69	ND	ND	ND	ND	ND	0
62407	2017-03-12T06:00:00	12.6	ND	ND	ND	ND	5.08	ND	ND	ND	ND	ND	0.25
62408	2017-03-12T07:00:00	13.8	ND	ND	ND	0.82	1.67	ND	ND	ND	ND	ND	0
62409	2017-03-12T08:00:00	22.3	ND	ND	ND	ND	2.53	ND	ND	ND	ND	ND	0
62410	2017-03-12T09:00:00	27.4	ND	ND	ND	ND	4.02	ND	ND	ND	ND	ND	0.76
62411	2017-03-12T10:00:00	17.6	ND	ND	ND	ND	7.28	ND	ND	ND	ND	ND	0.76
62412	2017-03-12T11:00:00	25.2	ND	ND	ND	ND	14.60	ND	ND	ND	ND	ND	0.51
62413	2017-03-12T12:00:00	20.9	ND	ND	ND	ND	20.25	ND	ND	ND	ND	ND	0.25
62414	2017-03-12T13:00:00	19.4	ND	ND	ND	ND	37.80	ND	ND	ND	ND	ND	0.25
62415	2017-03-12T14:00:00	22	ND	ND	ND	ND	35.17	ND	ND	ND	ND	ND	0
62416	2017-03-12T15:00:00	14.8	ND	ND	ND	ND	39.11	ND	ND	ND	ND	ND	0
62417	2017-03-12T16:00:00	15.8	ND	ND	ND	ND	49.29	ND	ND	ND	ND	ND	0
62418	2017-03-12T17:00:00	16.9	ND	ND	ND	ND	44.23	ND	ND	ND	ND	ND	0
62419	2017-03-12T18:00:00	23	ND	ND	ND	ND	32.52	ND	ND	ND	ND	ND	0
62420	2017-03-12T19:00:00	41.2	ND	ND	ND	ND	9.07	ND	ND	ND	ND	ND	0
62421	2017-03-12T20:00:00	49.7	ND	ND	ND	ND	5.77	ND	ND	ND	ND	ND	0
62422	2017-03-12T21:00:00	40.9	ND	ND	ND	ND	1.26	ND	ND	ND	ND	ND	0
62423	2017-03-12T22:00:00	43.1	ND	ND	ND	ND	2.20	ND	ND	ND	ND	ND	0
62424	2017-03-12T23:00:00	35.7	ND	ND	ND	ND	2.30	ND	ND	ND	ND	ND	0
62425	2017-03-13T00:00:00	36.6	ND	ND	ND	ND	1.71	ND	ND	ND	ND	ND	0
62426	2017-03-13T01:00:00	48.9	ND	ND	ND	ND	1.79	ND	ND	ND	ND	ND	0
62427	2017-03-13T02:00:00	38.5	ND	ND	ND	ND	3.14	ND	ND	ND	ND	ND	0
62428	2017-03-13T03:00:00	20.2	ND	ND	ND	ND	2.43	ND	ND	ND	ND	ND	0
62429	2017-03-13T04:00:00	27.6	ND	ND	ND	ND	4.28	ND	ND	ND	ND	ND	0
62430	2017-03-13T05:00:00	11.2	ND	ND	ND	ND	3.04	ND	ND	ND	ND	ND	0
62431	2017-03-13T06:00:00	36.4	ND	ND	ND	ND	1.31	ND	ND	ND	ND	ND	0
62432	2017-03-13T07:00:00	81.4	ND	ND	ND	ND	1.39	ND	ND	ND	ND	ND	0
62433	2017-03-13T08:00:00	72.7	ND	ND	ND	ND	2.30	ND	ND	ND	ND	ND	0
62434	2017-03-13T09:00:00	90.2	ND	ND	ND	ND	5.18	ND	ND	ND	ND	ND	0
62435	2017-03-13T10:00:00	117.9	ND	ND	ND	ND	ND	ND	ND	ND	ND	ND	0
62436	2017-03-13T11:00:00	110.9	ND	ND	ND	ND	ND	ND	ND	ND	ND	ND	0
62437	2017-03-13T12:00:00	96	ND	ND	ND	ND	68.62	ND	ND	ND	ND	ND	0
62438	2017-03-13T13:00:00	75.8	ND	ND	ND	ND	93.59	ND	ND	ND	ND	ND	0
62439	2017-03-13T14:00:00	42.9	ND	ND	ND	ND	118.80	ND	ND	ND	ND	ND	0
62440	2017-03-13T15:00:00	47.1	ND	ND	ND	ND	81.85	ND	ND	ND	ND	ND	0
62441	2017-03-13T16:00:00	52.3	ND	ND	ND	ND	64.66	ND	ND	ND	ND	ND	0
62442	2017-03-13T17:00:00	48.6	ND	ND	ND	ND	24.94	ND	ND	ND	ND	ND	18.03
62443	2017-03-13T18:00:00	20.1	ND	ND	ND	ND	4.57	ND	ND	ND	ND	ND	0.51
62444	2017-03-13T19:00:00	33.1	ND	ND	ND	ND	12.50	ND	ND	ND	ND	ND	0.25
62445	2017-03-13T20:00:00	28.8	ND	ND	ND	0.06	1.51	ND	ND	ND	ND	ND	5.59
62446	2017-03-13T21:00:00	25.8	ND	ND	ND	0.21	0.16	ND	ND	ND	ND	ND	6.86
62447	2017-03-13T22:00:00	25.5	ND	ND	ND	0.00	0.08	ND	ND	ND	ND	ND	0.25
62448	2017-03-13T23:00:00	28.8	ND	ND	ND	0.01	0.08	ND	ND	ND	ND	ND	0
62449	2017-03-14T00:00:00	18.2	ND	ND	ND	0.00	0.63	ND	ND	ND	ND	ND	0.25
62450	2017-03-14T01:00:00	21.4	ND	ND	ND	0.10	0.24	ND	ND	ND	ND	ND	0
62451	2017-03-14T02:00:00	24.9	ND	ND	ND	0.00	0.24	ND	ND	ND	ND	ND	0
62452	2017-03-14T03:00:00	40.4	ND	ND	ND	0.00	0.24	ND	ND	ND	ND	ND	0
62453	2017-03-14T04:00:00	46.5	ND	ND	ND	0.39	0.41	ND	ND	ND	ND	ND	0
62454	2017-03-14T05:00:00	48.7	ND	ND	ND	0.07	0.33	ND	ND	ND	ND	ND	0
62455	2017-03-14T06:00:00	61.3	ND	ND	ND	0.15	0.16	ND	ND	ND	ND	ND	0.25
62456	2017-03-14T07:00:00	54.2	ND	ND	ND	0.04	0.18	ND	ND	ND	ND	ND	0
62457	2017-03-14T08:00:00	62.8	ND	ND	ND	0.01	0.33	ND	ND	ND	ND	ND	0
62458	2017-03-14T09:00:00	104	ND	ND	ND	0.06	5.49	ND	ND	ND	ND	ND	0
62459	2017-03-14T10:00:00	76.9	ND	ND	ND	0.08	40.84	ND	ND	ND	ND	ND	0
62460	2017-03-14T11:00:00	74.6	ND	ND	ND	0.06	78.99	ND	ND	ND	ND	ND	0
62461	2017-03-14T12:00:00	53.4	ND	ND	ND	0.00	60.54	ND	ND	ND	ND	ND	0
62462	2017-03-14T13:00:00	41	ND	ND	ND	0.04	14.86	ND	ND	ND	ND	ND	0
62463	2017-03-14T14:00:00	27.2	ND	ND	ND	0.00	20.57	ND	ND	ND	ND	ND	0.51
62464	2017-03-14T15:00:00	17	ND	ND	ND	0.03	43.60	ND	ND	ND	ND	ND	0
62465	2017-03-14T16:00:00	1.4	ND	ND	ND	0.00	57.05	ND	ND	ND	ND	ND	0
62466	2017-03-14T17:00:00	ND	ND	ND	ND	0.03	48.20	ND	ND	ND	ND	ND	0
62467	2017-03-14T18:00:00	36.7	ND	ND	ND	0.03	10.64	ND	ND	ND	ND	ND	0
62468	2017-03-14T19:00:00	76.7	ND	ND	ND	0.01	6.87	ND	ND	ND	ND	ND	0
62469	2017-03-14T20:00:00	58.4	ND	ND	ND	0.01	4.53	ND	ND	ND	ND	ND	0
62470	2017-03-14T21:00:00	25.1	ND	ND	ND	0.13	3.10	ND	ND	ND	ND	ND	0
62471	2017-03-14T22:00:00	41	ND	ND	ND	0.01	0.73	ND	ND	ND	ND	ND	0
62472	2017-03-14T23:00:00	55.8	ND	ND	ND	0.00	0.22	ND	ND	ND	ND	ND	0
62473	2017-03-15T00:00:00	43.1	ND	ND	ND	0.08	0.02	ND	ND	ND	ND	ND	0
62474	2017-03-15T01:00:00	35.9	ND	ND	ND	0.00	0.00	ND	ND	ND	ND	ND	0
62475	2017-03-15T02:00:00	52.7	ND	ND	ND	0.22	0.47	ND	ND	ND	ND	ND	0
62476	2017-03-15T03:00:00	37.6	ND	ND	ND	0.13	2.00	ND	ND	ND	ND	ND	0
62477	2017-03-15T04:00:00	36	ND	ND	ND	0.28	0.02	ND	ND	ND	ND	ND	0
62478	2017-03-15T05:00:00	47.6	ND	ND	ND	0.18	0.00	ND	ND	ND	ND	ND	0
62479	2017-03-15T06:00:00	54	ND	ND	ND	0.38	0.14	ND	ND	ND	ND	ND	0
62480	2017-03-15T07:00:00	67.3	ND	ND	ND	0.06	0.02	ND	ND	ND	ND	ND	0
62481	2017-03-15T08:00:00	70.8	ND	ND	ND	0.13	0.16	ND	ND	ND	ND	ND	0
62482	2017-03-15T09:00:00	78.5	ND	ND	ND	0.08	0.04	ND	ND	ND	ND	ND	0.25
62483	2017-03-15T10:00:00	56	ND	ND	ND	0.03	0.78	ND	ND	ND	ND	ND	1.52
62484	2017-03-15T11:00:00	38	ND	ND	ND	0.00	4.12	ND	ND	ND	ND	ND	0
62485	2017-03-15T12:00:00	31.2	ND	ND	ND	0.01	8.83	ND	ND	ND	ND	ND	0.25
62486	2017-03-15T13:00:00	42.4	ND	ND	ND	0.06	20.59	ND	ND	ND	ND	ND	0
62487	2017-03-15T14:00:00	43.3	ND	ND	ND	0.01	50.77	ND	ND	ND	ND	ND	0
62488	2017-03-15T15:00:00	46.5	ND	ND	ND	0.03	63.13	ND	ND	ND	ND	ND	0
62489	2017-03-15T16:00:00	43	ND	ND	ND	0.00	53.42	ND	ND	ND	ND	ND	0
62490	2017-03-15T17:00:00	39.2	ND	ND	ND	0.03	55.57	ND	ND	ND	ND	ND	0
62491	2017-03-15T18:00:00	32.6	ND	ND	ND	0.00	38.89	ND	ND	ND	ND	ND	0
62492	2017-03-15T19:00:00	63.4	ND	ND	ND	0.01	1.10	ND	ND	ND	ND	ND	0
62493	2017-03-15T20:00:00	103.4	ND	ND	ND	0.10	0.04	ND	ND	ND	ND	ND	0
62494	2017-03-15T21:00:00	110	ND	ND	ND	0.17	0.00	ND	ND	ND	ND	ND	0
62495	2017-03-15T22:00:00	72.9	ND	ND	ND	0.18	0.00	ND	ND	ND	ND	ND	0
62496	2017-03-15T23:00:00	39.6	ND	ND	ND	0.03	0.00	ND	ND	ND	ND	ND	0
62497	2017-03-16T00:00:00	29.8	ND	ND	ND	0.04	0.00	ND	ND	ND	ND	ND	0
62498	2017-03-16T01:00:00	11.2	ND	ND	ND	0.01	0.02	ND	ND	ND	ND	ND	0
62499	2017-03-16T02:00:00	1.6	ND	ND	ND	0.03	0.02	ND	ND	ND	ND	ND	0
62500	2017-03-16T03:00:00	17.5	ND	ND	ND	0.04	1.26	ND	ND	ND	ND	ND	0
62501	2017-03-16T04:00:00	15.6	ND	ND	ND	0.01	4.65	ND	ND	ND	ND	ND	0
62502	2017-03-16T05:00:00	18.6	ND	ND	ND	0.08	1.45	ND	ND	ND	ND	ND	0
62503	2017-03-16T06:00:00	39.1	ND	ND	ND	0.13	0.00	ND	ND	ND	ND	ND	0
62504	2017-03-16T07:00:00	85.2	ND	ND	ND	0.18	0.02	ND	ND	ND	ND	ND	0
62505	2017-03-16T08:00:00	134.5	ND	ND	ND	0.60	0.00	ND	ND	ND	ND	ND	0
62506	2017-03-16T09:00:00	144.3	ND	ND	ND	2.75	4.08	ND	ND	ND	ND	ND	0
62507	2017-03-16T10:00:00	150.8	ND	ND	ND	1.56	27.53	ND	ND	ND	ND	ND	0
62508	2017-03-16T11:00:00	89.2	ND	ND	ND	0.17	61.25	ND	ND	ND	ND	ND	0
62509	2017-03-16T12:00:00	52.9	ND	ND	ND	0.03	89.62	ND	ND	ND	ND	ND	0
62510	2017-03-16T13:00:00	49.4	ND	ND	ND	0.06	116.66	ND	ND	ND	ND	ND	0
62511	2017-03-16T14:00:00	63.3	ND	ND	ND	0.08	123.51	ND	ND	ND	ND	ND	0
62512	2017-03-16T15:00:00	49.3	ND	ND	ND	0.01	133.76	ND	ND	ND	ND	ND	0
62513	2017-03-16T16:00:00	49.1	ND	ND	ND	0.00	55.04	ND	ND	ND	ND	ND	0
62514	2017-03-16T17:00:00	34.5	ND	ND	ND	0.00	22.82	ND	ND	ND	ND	ND	0
62515	2017-03-16T18:00:00	42.5	ND	ND	ND	0.36	20.92	ND	ND	ND	ND	ND	0
62516	2017-03-16T19:00:00	41.1	ND	ND	ND	0.00	20.29	ND	ND	ND	ND	ND	0
62517	2017-03-16T20:00:00	42.9	ND	ND	ND	0.01	28.81	ND	ND	ND	ND	ND	0
62518	2017-03-16T21:00:00	32.7	ND	ND	ND	0.06	32.26	ND	ND	ND	ND	ND	0
62519	2017-03-16T22:00:00	31	ND	ND	ND	0.00	32.03	ND	ND	ND	ND	ND	0
62520	2017-03-16T23:00:00	20.1	ND	ND	ND	0.00	18.68	ND	ND	ND	ND	ND	0
62521	2017-03-17T00:00:00	10.7	ND	ND	ND	ND	6.69	ND	ND	ND	ND	ND	0
62522	2017-03-17T01:00:00	19.2	ND	ND	ND	0.00	28.10	ND	ND	ND	ND	ND	0
62523	2017-03-17T02:00:00	14.8	ND	ND	ND	ND	12.34	ND	ND	ND	ND	ND	0
62524	2017-03-17T03:00:00	27	ND	ND	ND	0.00	11.42	ND	ND	ND	ND	ND	0
62525	2017-03-17T04:00:00	20.9	ND	ND	ND	0.00	7.30	ND	ND	ND	ND	ND	0
62526	2017-03-17T05:00:00	33	ND	ND	ND	ND	6.06	ND	ND	ND	ND	ND	0
62527	2017-03-17T06:00:00	22.7	ND	ND	ND	0.01	6.81	ND	ND	ND	ND	ND	0
62528	2017-03-17T07:00:00	29.6	ND	ND	ND	0.06	1.14	ND	ND	ND	ND	ND	4.83
62529	2017-03-17T08:00:00	29.2	ND	ND	ND	ND	0.04	ND	ND	ND	ND	ND	0.51
62530	2017-03-17T09:00:00	50.2	ND	ND	ND	0.01	0.26	ND	ND	ND	ND	ND	0
62531	2017-03-17T10:00:00	55.8	ND	ND	ND	0.43	3.89	ND	ND	ND	ND	ND	0
62532	2017-03-17T11:00:00	77.8	ND	ND	ND	0.06	16.03	ND	ND	ND	ND	ND	0
62533	2017-03-17T12:00:00	71.5	ND	ND	ND	0.59	47.84	ND	ND	ND	ND	ND	0
62534	2017-03-17T13:00:00	44.1	ND	ND	ND	0.00	65.29	ND	ND	ND	ND	ND	0
62535	2017-03-17T14:00:00	36.5	ND	ND	ND	0.07	77.75	ND	ND	ND	ND	ND	0
62536	2017-03-17T15:00:00	42.7	ND	ND	ND	0.22	64.41	ND	ND	ND	ND	ND	0
62537	2017-03-17T16:00:00	42.2	ND	ND	ND	0.08	64.23	ND	ND	ND	ND	ND	0
62538	2017-03-17T17:00:00	39.9	ND	ND	ND	0.00	30.99	ND	ND	ND	ND	ND	0
62539	2017-03-17T18:00:00	38	ND	ND	ND	ND	14.42	ND	ND	ND	ND	ND	0
62540	2017-03-17T19:00:00	29.7	ND	ND	ND	0.08	4.06	ND	ND	ND	ND	ND	0
62541	2017-03-17T20:00:00	33.9	ND	ND	ND	0.00	8.40	ND	ND	ND	ND	ND	0
62542	2017-03-17T21:00:00	23.6	ND	ND	ND	0.00	6.32	ND	ND	ND	ND	ND	0
62543	2017-03-17T22:00:00	35.9	ND	ND	ND	0.03	3.38	ND	ND	ND	ND	ND	0
62544	2017-03-17T23:00:00	42.8	ND	ND	ND	0.14	0.04	ND	ND	ND	ND	ND	0
62545	2017-03-18T00:00:00	58.7	ND	ND	ND	ND	9.14	ND	ND	ND	ND	ND	0
62546	2017-03-18T01:00:00	23.5	ND	ND	ND	0.14	1.47	ND	ND	ND	ND	ND	0
62547	2017-03-18T02:00:00	37.1	ND	ND	ND	0.03	0.00	ND	ND	ND	ND	ND	0
62548	2017-03-18T03:00:00	47.4	ND	ND	ND	0.00	0.10	ND	ND	ND	ND	ND	0
62549	2017-03-18T04:00:00	39.9	ND	ND	ND	0.04	0.33	ND	ND	ND	ND	ND	0
62550	2017-03-18T05:00:00	47.7	ND	ND	ND	0.06	0.02	ND	ND	ND	ND	ND	0
62551	2017-03-18T06:00:00	43.2	ND	ND	ND	0.08	0.02	ND	ND	ND	ND	ND	0
62552	2017-03-18T07:00:00	54.9	ND	ND	ND	0.03	0.02	ND	ND	ND	ND	ND	0
62553	2017-03-18T08:00:00	61.5	ND	ND	ND	0.00	1.30	ND	ND	ND	ND	ND	0
62554	2017-03-18T09:00:00	80.1	ND	ND	ND	0.04	7.42	ND	ND	ND	ND	ND	0
62555	2017-03-18T10:00:00	80	ND	ND	ND	0.18	22.98	ND	ND	ND	ND	ND	0
62556	2017-03-18T11:00:00	79.1	ND	ND	ND	0.00	26.39	ND	ND	ND	ND	ND	0
62557	2017-03-18T12:00:00	63.8	ND	ND	ND	0.08	44.94	ND	ND	ND	ND	ND	0
62558	2017-03-18T13:00:00	46.9	ND	ND	ND	ND	51.41	ND	ND	ND	ND	ND	0
62559	2017-03-18T14:00:00	39.1	ND	ND	ND	0.00	46.17	ND	ND	ND	ND	ND	0
62560	2017-03-18T15:00:00	41.6	ND	ND	ND	0.00	55.71	ND	ND	ND	ND	ND	0
62561	2017-03-18T16:00:00	50.2	ND	ND	ND	0.00	46.02	ND	ND	ND	ND	ND	0
62562	2017-03-18T17:00:00	52.9	ND	ND	ND	0.00	29.10	ND	ND	ND	ND	ND	0
62563	2017-03-18T18:00:00	42.3	ND	ND	ND	0.00	28.98	ND	ND	ND	ND	ND	0
62564	2017-03-18T19:00:00	32.3	ND	ND	ND	ND	11.77	ND	ND	ND	ND	ND	0
62565	2017-03-18T20:00:00	53.4	ND	ND	ND	ND	4.87	ND	ND	ND	ND	ND	0
62566	2017-03-18T21:00:00	56.5	ND	ND	ND	ND	14.38	ND	ND	ND	ND	ND	0
62567	2017-03-18T22:00:00	45.7	ND	ND	ND	ND	0.10	ND	ND	ND	ND	ND	0
62568	2017-03-18T23:00:00	53.3	ND	ND	ND	ND	0.06	ND	ND	ND	ND	ND	0
62569	2017-03-19T00:00:00	52.5	ND	ND	ND	ND	4.10	ND	ND	ND	ND	ND	0
62570	2017-03-19T01:00:00	46.2	ND	ND	ND	0.10	3.81	ND	ND	ND	ND	ND	0
62571	2017-03-19T02:00:00	37.5	ND	ND	ND	0.04	0.67	ND	ND	ND	ND	ND	0
62572	2017-03-19T03:00:00	35.7	ND	ND	ND	0.22	1.12	ND	ND	ND	ND	ND	0
62573	2017-03-19T04:00:00	48.7	ND	ND	ND	0.07	4.85	ND	ND	ND	ND	ND	0.25
62574	2017-03-19T05:00:00	42.6	ND	ND	ND	0.25	1.49	ND	ND	ND	ND	ND	3.3
62575	2017-03-19T06:00:00	31	ND	ND	ND	0.24	2.75	ND	ND	ND	ND	ND	1.27
62576	2017-03-19T07:00:00	27.3	ND	ND	ND	0.04	5.71	ND	ND	ND	ND	ND	1.02
62577	2017-03-19T08:00:00	32.2	ND	ND	ND	0.00	1.06	ND	ND	ND	ND	ND	0.76
62578	2017-03-19T09:00:00	42.8	ND	ND	ND	0.14	5.77	ND	ND	ND	ND	ND	0.76
62579	2017-03-19T10:00:00	38.7	ND	ND	ND	0.03	15.37	ND	ND	ND	ND	ND	0
62580	2017-03-19T11:00:00	41.7	ND	ND	ND	0.07	43.66	ND	ND	ND	ND	ND	0
62581	2017-03-19T12:00:00	66	ND	ND	ND	ND	58.81	ND	ND	ND	ND	ND	0
62582	2017-03-19T13:00:00	43.4	ND	ND	ND	0.00	82.99	ND	ND	ND	ND	ND	0
62583	2017-03-19T14:00:00	37.5	ND	ND	ND	0.01	105.36	ND	ND	ND	ND	ND	0
62584	2017-03-19T15:00:00	47.6	ND	ND	ND	0.03	129.07	ND	ND	ND	ND	ND	0
62585	2017-03-19T16:00:00	66.7	ND	ND	ND	0.06	96.80	ND	ND	ND	ND	ND	0
62586	2017-03-19T17:00:00	25.4	ND	ND	ND	0.03	28.36	ND	ND	ND	ND	ND	0
62587	2017-03-19T18:00:00	15	ND	ND	ND	0.01	16.46	ND	ND	ND	ND	ND	0
62588	2017-03-19T19:00:00	36.5	ND	ND	ND	0.08	6.57	ND	ND	ND	ND	ND	0
62589	2017-03-19T20:00:00	40.9	ND	ND	ND	0.04	8.20	ND	ND	ND	ND	ND	0
62590	2017-03-19T21:00:00	40.5	ND	ND	ND	0.00	0.12	ND	ND	ND	ND	ND	0
62591	2017-03-19T22:00:00	43.4	ND	ND	ND	0.10	1.28	ND	ND	ND	ND	ND	0
62592	2017-03-19T23:00:00	47.5	ND	ND	ND	0.20	0.12	ND	ND	ND	ND	ND	0
62593	2017-03-20T00:00:00	86.7	ND	ND	ND	0.38	0.16	ND	ND	ND	ND	ND	0
62594	2017-03-20T01:00:00	82.5	ND	ND	ND	0.06	0.10	ND	ND	ND	ND	ND	0
62595	2017-03-20T02:00:00	68.5	ND	ND	ND	0.11	0.08	ND	ND	ND	ND	ND	0
62596	2017-03-20T03:00:00	52.6	ND	ND	ND	0.49	1.20	ND	ND	ND	ND	ND	0
62597	2017-03-20T04:00:00	50.4	ND	ND	ND	1.13	0.02	ND	ND	ND	ND	ND	0
62598	2017-03-20T05:00:00	51.8	ND	ND	ND	1.31	0.22	ND	ND	ND	ND	ND	0
62599	2017-03-20T06:00:00	40.3	ND	ND	ND	1.05	0.02	ND	ND	ND	ND	ND	0
62600	2017-03-20T07:00:00	55.1	ND	ND	ND	0.67	0.02	ND	ND	ND	ND	ND	0
62601	2017-03-20T08:00:00	72.6	ND	ND	ND	0.38	8.75	ND	ND	ND	ND	ND	5.84
62602	2017-03-20T09:00:00	27.4	ND	ND	ND	0.01	5.28	ND	ND	ND	ND	ND	0.25
62603	2017-03-20T10:00:00	36.5	ND	ND	ND	0.03	13.64	ND	ND	ND	ND	ND	0.76
62604	2017-03-20T11:00:00	40.8	ND	ND	ND	0.01	37.42	ND	ND	ND	ND	ND	0
62605	2017-03-20T12:00:00	54.6	ND	ND	ND	0.15	78.04	ND	ND	ND	ND	ND	0
62606	2017-03-20T13:00:00	39.8	ND	ND	ND	0.01	101.34	ND	ND	ND	ND	ND	0
62607	2017-03-20T14:00:00	31.6	ND	ND	ND	0.06	116.90	ND	ND	ND	ND	ND	0
62608	2017-03-20T15:00:00	29.1	ND	ND	ND	0.00	131.97	ND	ND	ND	ND	ND	0
62609	2017-03-20T16:00:00	26.4	ND	ND	ND	0.00	73.53	ND	ND	ND	ND	ND	0
62610	2017-03-20T17:00:00	14.2	ND	ND	ND	0.00	49.08	ND	ND	ND	ND	ND	0
62611	2017-03-20T18:00:00	21.4	ND	ND	ND	0.00	48.63	ND	ND	ND	ND	ND	0
62612	2017-03-20T19:00:00	14.6	ND	ND	ND	0.08	33.20	ND	ND	ND	ND	ND	0
62613	2017-03-20T20:00:00	32.4	ND	ND	ND	0.01	15.09	ND	ND	ND	ND	ND	0.76
62614	2017-03-20T21:00:00	26.1	ND	ND	ND	0.00	5.61	ND	ND	ND	ND	ND	1.02
62615	2017-03-20T22:00:00	31.7	ND	ND	ND	0.01	5.30	ND	ND	ND	ND	ND	0
62616	2017-03-20T23:00:00	30.1	ND	ND	ND	0.01	3.41	ND	ND	ND	ND	ND	0
62617	2017-03-21T00:00:00	39.4	ND	ND	ND	0.15	0.75	ND	ND	ND	ND	ND	0.25
62618	2017-03-21T01:00:00	34	ND	ND	ND	0.08	0.27	ND	ND	ND	ND	ND	0
62619	2017-03-21T02:00:00	35.2	ND	ND	ND	0.10	0.12	ND	ND	ND	ND	ND	0
62620	2017-03-21T03:00:00	47.5	ND	ND	ND	0.14	0.35	ND	ND	ND	ND	ND	0
62621	2017-03-21T04:00:00	47.7	ND	ND	ND	0.24	0.94	ND	ND	ND	ND	ND	0
62622	2017-03-21T05:00:00	39.2	ND	ND	ND	0.57	0.20	ND	ND	ND	ND	ND	0
62623	2017-03-21T06:00:00	48.6	ND	ND	ND	0.17	0.24	ND	ND	ND	ND	ND	0
62624	2017-03-21T07:00:00	61.5	ND	ND	ND	0.01	0.02	ND	ND	ND	ND	ND	0
62625	2017-03-21T08:00:00	64.9	ND	ND	ND	0.66	0.24	ND	ND	ND	ND	ND	0
62626	2017-03-21T09:00:00	120.9	ND	ND	ND	1.21	2.69	ND	ND	ND	ND	ND	0
62627	2017-03-21T10:00:00	132.6	ND	ND	ND	0.71	14.86	ND	ND	ND	ND	ND	0
62628	2017-03-21T11:00:00	124.2	ND	ND	ND	0.15	131.89	ND	ND	ND	ND	ND	0
62629	2017-03-21T12:00:00	92.6	ND	ND	ND	0.08	53.34	ND	ND	ND	ND	ND	0
62630	2017-03-21T13:00:00	52	ND	ND	ND	0.06	68.98	ND	ND	ND	ND	ND	0
62631	2017-03-21T14:00:00	60.3	ND	ND	ND	0.00	87.89	ND	ND	ND	ND	ND	0
62632	2017-03-21T15:00:00	58.7	ND	ND	ND	0.00	92.49	ND	ND	ND	ND	ND	0
62633	2017-03-21T16:00:00	54.9	ND	ND	ND	0.07	76.24	ND	ND	ND	ND	ND	0
62634	2017-03-21T17:00:00	50.9	ND	ND	ND	0.00	31.97	ND	ND	ND	ND	ND	0
62635	2017-03-21T18:00:00	33.8	ND	ND	ND	0.00	10.91	ND	ND	ND	ND	ND	0
62636	2017-03-21T19:00:00	32.9	ND	ND	ND	0.00	4.93	ND	ND	ND	ND	ND	0
62637	2017-03-21T20:00:00	41.5	ND	ND	ND	0.00	5.36	ND	ND	ND	ND	ND	0
62638	2017-03-21T21:00:00	33.1	ND	ND	ND	0.00	5.71	ND	ND	ND	ND	ND	0
62639	2017-03-21T22:00:00	32.5	ND	ND	ND	0.00	5.14	ND	ND	ND	ND	ND	0
62640	2017-03-21T23:00:00	30.5	ND	ND	ND	0.08	6.93	ND	ND	ND	ND	ND	0
62641	2017-03-22T00:00:00	42.8	ND	ND	ND	0.14	1.20	ND	ND	ND	ND	ND	0
62642	2017-03-22T01:00:00	51	ND	ND	ND	0.04	0.61	ND	ND	ND	ND	ND	0
62643	2017-03-22T02:00:00	62.6	ND	ND	ND	0.14	5.87	ND	ND	ND	ND	ND	0
62644	2017-03-22T03:00:00	48.6	ND	ND	ND	0.06	4.28	ND	ND	ND	ND	ND	0
62645	2017-03-22T04:00:00	47.8	ND	ND	ND	0.43	3.75	ND	ND	ND	ND	ND	0
62646	2017-03-22T05:00:00	46.7	ND	ND	ND	0.13	4.59	ND	ND	ND	ND	ND	0
62647	2017-03-22T06:00:00	41.6	ND	ND	ND	0.00	1.94	ND	ND	ND	ND	ND	0.25
62648	2017-03-22T07:00:00	43.7	ND	ND	ND	0.07	3.92	ND	ND	ND	ND	ND	0.51
62649	2017-03-22T08:00:00	67.3	ND	ND	ND	0.01	4.08	ND	ND	ND	ND	ND	0.76
62650	2017-03-22T09:00:00	69.3	ND	ND	ND	0.07	7.04	ND	ND	ND	ND	ND	1.02
62651	2017-03-22T10:00:00	68.4	ND	ND	ND	0.03	26.47	ND	ND	ND	ND	ND	0
62652	2017-03-22T11:00:00	101.5	ND	ND	ND	0.01	67.09	ND	ND	ND	ND	ND	0
62653	2017-03-22T12:00:00	67.2	ND	ND	ND	0.00	68.21	ND	ND	ND	ND	ND	0
62654	2017-03-22T13:00:00	50.5	ND	ND	ND	0.00	98.18	ND	ND	ND	ND	ND	0
62655	2017-03-22T14:00:00	42.1	ND	ND	ND	0.01	46.84	ND	ND	ND	ND	ND	0
62656	2017-03-22T15:00:00	27.5	ND	ND	ND	0.04	48.14	ND	ND	ND	ND	ND	0
62657	2017-03-22T16:00:00	50.4	ND	ND	ND	0.00	20.49	ND	ND	ND	ND	ND	0
62658	2017-03-22T17:00:00	26.2	ND	ND	ND	0.00	15.58	ND	ND	ND	ND	ND	0
62659	2017-03-22T18:00:00	24.5	ND	ND	ND	0.00	6.59	ND	ND	ND	ND	ND	6.86
62660	2017-03-22T19:00:00	23.7	ND	ND	ND	0.06	5.06	ND	ND	ND	ND	ND	3.81
62661	2017-03-22T20:00:00	20.1	ND	ND	ND	0.03	0.96	ND	ND	ND	ND	ND	0.51
62662	2017-03-22T21:00:00	29.5	ND	ND	ND	0.00	2.28	ND	ND	ND	ND	ND	0.25
62663	2017-03-22T22:00:00	45.3	ND	ND	ND	0.04	0.96	ND	ND	ND	ND	ND	1.02
62664	2017-03-22T23:00:00	35.9	ND	ND	ND	0.03	0.88	ND	ND	ND	ND	ND	0.25
62665	2017-03-23T00:00:00	39.9	ND	ND	ND	0.03	0.75	ND	ND	ND	ND	ND	0
62666	2017-03-23T01:00:00	29.8	ND	ND	ND	0.10	0.33	ND	ND	ND	ND	ND	0
62667	2017-03-23T02:00:00	25.8	ND	ND	ND	0.00	0.51	ND	ND	ND	ND	ND	0
62668	2017-03-23T03:00:00	32.2	ND	ND	ND	0.00	2.00	ND	ND	ND	ND	ND	0
62669	2017-03-23T04:00:00	24.4	ND	ND	ND	0.00	0.78	ND	ND	ND	ND	ND	0
62670	2017-03-23T05:00:00	29.5	ND	ND	ND	0.01	0.37	ND	ND	ND	ND	ND	0
62671	2017-03-23T06:00:00	36.5	ND	ND	ND	0.42	0.96	ND	ND	ND	ND	ND	0
62672	2017-03-23T07:00:00	64.2	ND	ND	ND	0.10	3.04	ND	ND	ND	ND	ND	0
62673	2017-03-23T08:00:00	107.9	ND	ND	ND	2.36	4.40	ND	ND	ND	ND	ND	0
62674	2017-03-23T09:00:00	122.4	ND	ND	ND	1.12	8.05	ND	ND	ND	ND	ND	0
62675	2017-03-23T10:00:00	131.7	ND	ND	ND	0.31	22.35	ND	ND	ND	ND	ND	0
62676	2017-03-23T11:00:00	95.2	ND	ND	ND	0.00	38.70	ND	ND	ND	ND	ND	0
62677	2017-03-23T12:00:00	51.1	ND	ND	ND	0.00	82.05	ND	ND	ND	ND	ND	0
62678	2017-03-23T13:00:00	60.9	ND	ND	ND	0.15	121.80	ND	ND	ND	ND	ND	0
62679	2017-03-23T14:00:00	63.7	ND	ND	ND	0.01	116.88	ND	ND	ND	ND	ND	0
62680	2017-03-23T15:00:00	65.7	ND	ND	ND	0.14	52.32	ND	ND	ND	ND	ND	0
62681	2017-03-23T16:00:00	52.1	ND	ND	ND	0.03	26.88	ND	ND	ND	ND	ND	0
62682	2017-03-23T17:00:00	20.2	ND	ND	ND	0.00	8.83	ND	ND	ND	ND	ND	0
62683	2017-03-23T18:00:00	36.9	ND	ND	ND	0.06	11.26	ND	ND	ND	ND	ND	0
62684	2017-03-23T19:00:00	26.9	ND	ND	ND	0.01	16.88	ND	ND	ND	ND	ND	0
62685	2017-03-23T20:00:00	19.1	ND	ND	ND	0.00	10.91	ND	ND	ND	ND	ND	0
62686	2017-03-23T21:00:00	33.9	ND	ND	ND	0.15	4.06	ND	ND	ND	ND	ND	0
62687	2017-03-23T22:00:00	36.5	ND	ND	ND	0.01	4.47	ND	ND	ND	ND	ND	1.02
62688	2017-03-23T23:00:00	29.1	ND	ND	ND	0.52	1.51	ND	ND	ND	ND	ND	2.03
62689	2017-03-24T00:00:00	30.1	ND	ND	ND	1.00	0.80	ND	ND	ND	ND	ND	0.25
62690	2017-03-24T01:00:00	26.3	ND	ND	ND	0.11	1.35	ND	ND	ND	ND	ND	0.25
62691	2017-03-24T02:00:00	23.6	ND	ND	ND	0.00	5.51	ND	ND	ND	ND	ND	0
62692	2017-03-24T03:00:00	20.4	ND	ND	ND	0.01	5.91	ND	ND	ND	ND	ND	0
62693	2017-03-24T04:00:00	24.5	ND	ND	ND	0.88	5.10	ND	ND	ND	ND	ND	0
62694	2017-03-24T05:00:00	32.5	ND	ND	ND	0.21	3.67	ND	ND	ND	ND	ND	0
62695	2017-03-24T06:00:00	38.9	ND	ND	ND	0.10	1.28	ND	ND	ND	ND	ND	3.81
62696	2017-03-24T07:00:00	36.8	ND	ND	ND	0.25	0.71	ND	ND	ND	ND	ND	1.78
62697	2017-03-24T08:00:00	21.1	ND	ND	ND	0.00	1.02	ND	ND	ND	ND	ND	2.54
62698	2017-03-24T09:00:00	20.7	ND	ND	ND	0.04	4.40	ND	ND	ND	ND	ND	0.51
62699	2017-03-24T10:00:00	23.5	ND	ND	ND	0.00	8.42	ND	ND	ND	ND	ND	0
62700	2017-03-24T11:00:00	41.6	ND	ND	ND	0.00	15.40	ND	ND	ND	ND	ND	0
62701	2017-03-24T12:00:00	47.8	ND	ND	ND	0.08	27.51	ND	ND	ND	ND	ND	0
62702	2017-03-24T13:00:00	53.5	ND	ND	ND	0.00	33.42	ND	ND	ND	ND	ND	0
62703	2017-03-24T14:00:00	49.7	ND	ND	ND	0.00	54.34	ND	ND	ND	ND	ND	0
62704	2017-03-24T15:00:00	44.2	ND	ND	ND	0.22	48.82	ND	ND	ND	ND	ND	0
62705	2017-03-24T16:00:00	58.3	ND	ND	ND	0.03	49.81	ND	ND	ND	ND	ND	0
62706	2017-03-24T17:00:00	70	ND	ND	ND	0.01	61.54	ND	ND	ND	ND	ND	0
62707	2017-03-24T18:00:00	58.7	ND	ND	ND	0.00	16.74	ND	ND	ND	ND	ND	0
62708	2017-03-24T19:00:00	32.4	ND	ND	ND	0.13	4.24	ND	ND	ND	ND	ND	0
62709	2017-03-24T20:00:00	23.9	ND	ND	ND	0.01	1.90	ND	ND	ND	ND	ND	0
62710	2017-03-24T21:00:00	24.4	ND	ND	ND	0.00	0.22	ND	ND	ND	ND	ND	0
62711	2017-03-24T22:00:00	44.6	ND	ND	ND	0.07	1.47	ND	ND	ND	ND	ND	0
62712	2017-03-24T23:00:00	84.8	ND	ND	ND	0.18	1.49	ND	ND	ND	ND	ND	0
62713	2017-03-25T00:00:00	72.4	ND	ND	ND	0.00	0.71	ND	ND	ND	ND	ND	0
62714	2017-03-25T01:00:00	34.3	ND	ND	ND	0.00	4.95	ND	ND	ND	ND	ND	0
62715	2017-03-25T02:00:00	2.5	ND	ND	ND	0.00	3.30	ND	ND	ND	ND	ND	0
62716	2017-03-25T03:00:00	23.9	ND	ND	ND	0.24	0.27	ND	ND	ND	ND	ND	0
62717	2017-03-25T04:00:00	67.1	ND	ND	ND	0.14	0.08	ND	ND	ND	ND	ND	0
62718	2017-03-25T05:00:00	54.1	ND	ND	ND	0.26	0.10	ND	ND	ND	ND	ND	0
62719	2017-03-25T06:00:00	53.2	ND	ND	ND	0.25	0.14	ND	ND	ND	ND	ND	0
62720	2017-03-25T07:00:00	43	ND	ND	ND	0.10	0.59	ND	ND	ND	ND	ND	0
62721	2017-03-25T08:00:00	75.6	ND	ND	ND	0.11	4.36	ND	ND	ND	ND	ND	0
62722	2017-03-25T09:00:00	107.2	ND	ND	ND	0.00	19.17	ND	ND	ND	ND	ND	0
62723	2017-03-25T10:00:00	100.7	ND	ND	ND	0.07	42.27	ND	ND	ND	ND	ND	0
62724	2017-03-25T11:00:00	87.7	ND	ND	ND	0.00	52.02	ND	ND	ND	ND	ND	0
62725	2017-03-25T12:00:00	70.5	ND	ND	ND	0.00	75.61	ND	ND	ND	ND	ND	0
62726	2017-03-25T13:00:00	71.9	ND	ND	ND	0.01	80.42	ND	ND	ND	ND	ND	0
62727	2017-03-25T14:00:00	62.3	ND	ND	ND	0.06	84.58	ND	ND	ND	ND	ND	0
62728	2017-03-25T15:00:00	57.6	ND	ND	ND	0.03	71.19	ND	ND	ND	ND	ND	0
62729	2017-03-25T16:00:00	56.9	ND	ND	ND	0.03	81.03	ND	ND	ND	ND	ND	0
62730	2017-03-25T17:00:00	53.1	ND	ND	ND	0.03	14.66	ND	ND	ND	ND	ND	2.03
62731	2017-03-25T18:00:00	21.9	ND	ND	ND	0.00	3.10	ND	ND	ND	ND	ND	0.76
62732	2017-03-25T19:00:00	35	ND	ND	ND	0.11	2.59	ND	ND	ND	ND	ND	0
62733	2017-03-25T20:00:00	50.4	ND	ND	ND	0.00	9.09	ND	ND	ND	ND	ND	0.25
62734	2017-03-25T21:00:00	42.5	ND	ND	ND	0.03	1.65	ND	ND	ND	ND	ND	0
62735	2017-03-25T22:00:00	40.3	ND	ND	ND	0.15	1.53	ND	ND	ND	ND	ND	0
62736	2017-03-25T23:00:00	63.1	ND	ND	ND	0.01	2.14	ND	ND	ND	ND	ND	0
62737	2017-03-26T00:00:00	48.4	ND	ND	ND	0.03	0.53	ND	ND	ND	ND	ND	0
62738	2017-03-26T01:00:00	48.6	ND	ND	ND	0.18	1.24	ND	ND	ND	ND	ND	0
62739	2017-03-26T02:00:00	58.1	ND	ND	ND	0.89	1.86	ND	ND	ND	ND	ND	0
62740	2017-03-26T03:00:00	40.8	ND	ND	ND	0.03	1.94	ND	ND	ND	ND	ND	0.51
62741	2017-03-26T04:00:00	21.2	ND	ND	ND	0.03	3.18	ND	ND	ND	ND	ND	0.25
62742	2017-03-26T05:00:00	25.8	ND	ND	ND	0.15	2.81	ND	ND	ND	ND	ND	0.25
62743	2017-03-26T06:00:00	32.5	ND	ND	ND	0.17	2.18	ND	ND	ND	ND	ND	51.05
62744	2017-03-26T07:00:00	38.6	ND	ND	ND	0.14	2.10	ND	ND	ND	ND	ND	26.16
62745	2017-03-26T08:00:00	21.3	ND	ND	ND	0.03	2.92	ND	ND	ND	ND	ND	18.54
62746	2017-03-26T09:00:00	19.9	ND	ND	ND	0.17	2.28	ND	ND	ND	ND	ND	5.59
62747	2017-03-26T10:00:00	17.2	ND	ND	ND	0.38	3.20	ND	ND	ND	ND	ND	2.29
62748	2017-03-26T11:00:00	21.7	ND	ND	ND	0.04	7.42	ND	ND	ND	ND	ND	1.02
62749	2017-03-26T12:00:00	28.6	ND	ND	ND	0.06	9.36	ND	ND	ND	ND	ND	0.51
62750	2017-03-26T13:00:00	18.9	ND	ND	ND	0.04	16.66	ND	ND	ND	ND	ND	0
62751	2017-03-26T14:00:00	9.2	ND	ND	ND	0.00	24.29	ND	ND	ND	ND	ND	0
62752	2017-03-26T15:00:00	16.8	ND	ND	ND	0.04	39.86	ND	ND	ND	ND	ND	0
62753	2017-03-26T16:00:00	25.8	ND	ND	ND	0.00	62.95	ND	ND	ND	ND	ND	0
62754	2017-03-26T17:00:00	23.6	ND	ND	ND	0.04	73.16	ND	ND	ND	ND	ND	0
62755	2017-03-26T18:00:00	33.5	ND	ND	ND	0.15	63.36	ND	ND	ND	ND	ND	0
62756	2017-03-26T19:00:00	41.9	ND	ND	ND	0.03	24.65	ND	ND	ND	ND	ND	0
62757	2017-03-26T20:00:00	49.6	ND	ND	ND	0.10	2.22	ND	ND	ND	ND	ND	0
62758	2017-03-26T21:00:00	52.9	ND	ND	ND	0.03	2.10	ND	ND	ND	ND	ND	0
62759	2017-03-26T22:00:00	48.3	ND	ND	ND	0.10	0.69	ND	ND	ND	ND	ND	0
62760	2017-03-26T23:00:00	47.6	ND	ND	ND	0.07	0.45	ND	ND	ND	ND	ND	0
62761	2017-03-27T00:00:00	37.8	ND	ND	ND	0.03	1.45	ND	ND	ND	ND	ND	0
62762	2017-03-27T01:00:00	36.6	ND	ND	ND	0.04	2.43	ND	ND	ND	ND	ND	0
62763	2017-03-27T02:00:00	31.1	ND	ND	ND	0.00	2.12	ND	ND	ND	ND	ND	0
62764	2017-03-27T03:00:00	30.5	ND	ND	ND	0.00	1.84	ND	ND	ND	ND	ND	0
62765	2017-03-27T04:00:00	37.1	ND	ND	ND	0.21	0.53	ND	ND	ND	ND	ND	0
62766	2017-03-27T05:00:00	32	ND	ND	ND	0.14	0.37	ND	ND	ND	ND	ND	0
62767	2017-03-27T06:00:00	37.2	ND	ND	ND	0.00	0.53	ND	ND	ND	ND	ND	0
62768	2017-03-27T07:00:00	52.6	ND	ND	ND	2.75	2.41	ND	ND	ND	ND	ND	0
62769	2017-03-27T08:00:00	95.7	ND	ND	ND	3.07	0.16	ND	ND	ND	ND	ND	0
62770	2017-03-27T09:00:00	77.8	ND	ND	ND	0.66	0.57	ND	ND	ND	ND	ND	0.25
62771	2017-03-27T10:00:00	74.4	ND	ND	ND	0.57	5.95	ND	ND	ND	ND	ND	0
62772	2017-03-27T11:00:00	68.3	ND	ND	ND	0.26	23.47	ND	ND	ND	ND	ND	0
62773	2017-03-27T12:00:00	38.5	ND	ND	ND	0.49	56.97	ND	ND	ND	ND	ND	0
62774	2017-03-27T13:00:00	93.7	ND	ND	ND	0.01	46.82	ND	ND	ND	ND	ND	0
62775	2017-03-27T14:00:00	80.6	ND	ND	ND	0.21	45.90	ND	ND	ND	ND	ND	0
62776	2017-03-27T15:00:00	60.4	ND	ND	ND	0.00	68.31	ND	ND	ND	ND	ND	0
62777	2017-03-27T16:00:00	58.4	ND	ND	ND	0.00	84.89	ND	ND	ND	ND	ND	0
62778	2017-03-27T17:00:00	89.1	ND	ND	ND	0.11	52.69	ND	ND	ND	ND	ND	0
62779	2017-03-27T18:00:00	104.8	ND	ND	ND	0.03	48.98	ND	ND	ND	ND	ND	0
62780	2017-03-27T19:00:00	116.6	ND	ND	ND	ND	16.97	ND	ND	ND	ND	ND	0
62781	2017-03-27T20:00:00	73.2	ND	ND	ND	ND	9.99	ND	ND	ND	ND	ND	0
62782	2017-03-27T21:00:00	40.4	ND	ND	ND	ND	6.20	ND	ND	ND	ND	ND	0
62783	2017-03-27T22:00:00	34.4	ND	ND	ND	0.10	5.28	ND	ND	ND	ND	ND	0
62784	2017-03-27T23:00:00	33.7	ND	ND	ND	0.01	7.22	ND	ND	ND	ND	ND	0
62785	2017-03-28T00:00:00	48.9	ND	ND	ND	ND	2.02	ND	ND	ND	ND	ND	0
62786	2017-03-28T01:00:00	64.5	ND	ND	ND	0.10	1.98	ND	ND	ND	ND	ND	0
62787	2017-03-28T02:00:00	50.9	ND	ND	ND	0.00	13.23	ND	ND	ND	ND	ND	0
62788	2017-03-28T03:00:00	73	ND	ND	ND	0.00	6.99	ND	ND	ND	ND	ND	0
62789	2017-03-28T04:00:00	59.6	ND	ND	ND	0.26	0.45	ND	ND	ND	ND	ND	0
62790	2017-03-28T05:00:00	78.2	ND	ND	ND	0.13	0.51	ND	ND	ND	ND	ND	0
62791	2017-03-28T06:00:00	60.5	ND	ND	ND	0.03	0.12	ND	ND	ND	ND	ND	0
62792	2017-03-28T07:00:00	108.2	ND	ND	ND	0.07	0.08	ND	ND	ND	ND	ND	0
62793	2017-03-28T08:00:00	140.9	ND	ND	ND	0.13	0.41	ND	ND	ND	ND	ND	0
62794	2017-03-28T09:00:00	152.4	ND	ND	ND	0.10	13.50	ND	ND	ND	ND	ND	0
62795	2017-03-28T10:00:00	124.2	ND	ND	ND	0.10	34.16	ND	ND	ND	ND	ND	0
62796	2017-03-28T11:00:00	104.4	ND	ND	ND	0.00	37.25	ND	ND	ND	ND	ND	0
62797	2017-03-28T12:00:00	83.9	ND	ND	ND	0.00	74.41	ND	ND	ND	ND	ND	0
62798	2017-03-28T13:00:00	75	ND	ND	ND	0.07	88.84	ND	ND	ND	ND	ND	0
62799	2017-03-28T14:00:00	79.5	ND	ND	ND	0.13	94.57	ND	ND	ND	ND	ND	0
62800	2017-03-28T15:00:00	81.3	ND	ND	ND	0.11	74.86	ND	ND	ND	ND	ND	0
62801	2017-03-28T16:00:00	62.2	ND	ND	ND	0.01	27.28	ND	ND	ND	ND	ND	0
62802	2017-03-28T17:00:00	40.4	ND	ND	ND	0.06	12.26	ND	ND	ND	ND	ND	0
62803	2017-03-28T18:00:00	44	ND	ND	ND	0.00	6.12	ND	ND	ND	ND	ND	0
62804	2017-03-28T19:00:00	81.9	ND	ND	ND	0.00	0.84	ND	ND	ND	ND	ND	0
62805	2017-03-28T20:00:00	107	ND	ND	ND	0.01	0.22	ND	ND	ND	ND	ND	0
62806	2017-03-28T21:00:00	93.6	ND	ND	ND	0.03	0.53	ND	ND	ND	ND	ND	0
62807	2017-03-28T22:00:00	62.4	ND	ND	ND	0.06	1.94	ND	ND	ND	ND	ND	0
62808	2017-03-28T23:00:00	56.3	ND	ND	ND	0.00	0.06	ND	ND	ND	ND	ND	0
62809	2017-03-29T00:00:00	89.1	ND	ND	ND	0.00	0.02	ND	ND	ND	ND	ND	0
62810	2017-03-29T01:00:00	94.3	ND	ND	ND	0.07	0.06	ND	ND	ND	ND	ND	0
62811	2017-03-29T02:00:00	71.4	ND	ND	ND	0.00	0.10	ND	ND	ND	ND	ND	0
62812	2017-03-29T03:00:00	67.4	ND	ND	ND	0.07	0.22	ND	ND	ND	ND	ND	0
62813	2017-03-29T04:00:00	51.8	ND	ND	ND	0.00	0.24	ND	ND	ND	ND	ND	0
62814	2017-03-29T05:00:00	65.3	ND	ND	ND	0.11	0.29	ND	ND	ND	ND	ND	0
62815	2017-03-29T06:00:00	66.6	ND	ND	ND	0.01	0.10	ND	ND	ND	ND	ND	0
62816	2017-03-29T07:00:00	75.3	ND	ND	ND	0.14	0.10	ND	ND	ND	ND	ND	0
62817	2017-03-29T08:00:00	108.1	ND	ND	ND	ND	0.20	ND	ND	ND	ND	ND	0
62818	2017-03-29T09:00:00	128.6	ND	ND	ND	0.10	4.06	ND	ND	ND	ND	ND	0
62819	2017-03-29T10:00:00	143.1	ND	ND	ND	0.28	25.67	ND	ND	ND	ND	ND	0
62820	2017-03-29T11:00:00	101.3	ND	ND	ND	0.01	25.43	ND	ND	ND	ND	ND	0
62821	2017-03-29T12:00:00	94.1	ND	ND	ND	0.03	66.19	ND	ND	ND	ND	ND	0
62822	2017-03-29T13:00:00	84.8	ND	ND	ND	0.00	54.53	ND	ND	ND	ND	ND	0
62823	2017-03-29T14:00:00	79.2	ND	ND	ND	0.00	10.79	ND	ND	ND	ND	ND	66.55
62824	2017-03-29T15:00:00	56.1	ND	ND	ND	0.00	3.73	ND	ND	ND	ND	ND	0.76
62825	2017-03-29T16:00:00	46.9	ND	ND	ND	0.00	7.22	ND	ND	ND	ND	ND	0.25
62826	2017-03-29T17:00:00	47.4	ND	ND	ND	0.01	1.83	ND	ND	ND	ND	ND	0
62827	2017-03-29T18:00:00	73.7	ND	ND	ND	0.00	5.69	ND	ND	ND	ND	ND	0
62828	2017-03-29T19:00:00	54.3	ND	ND	ND	0.17	3.83	ND	ND	ND	ND	ND	0
62829	2017-03-29T20:00:00	51.3	ND	ND	ND	0.00	0.26	ND	ND	ND	ND	ND	0
62830	2017-03-29T21:00:00	59.6	ND	ND	ND	0.10	0.02	ND	ND	ND	ND	ND	0
62831	2017-03-29T22:00:00	66.9	ND	ND	ND	0.00	0.04	ND	ND	ND	ND	ND	0
62832	2017-03-29T23:00:00	95.4	ND	ND	ND	0.15	0.06	ND	ND	ND	ND	ND	0
62833	2017-03-30T00:00:00	75.2	ND	ND	ND	0.21	0.04	ND	ND	ND	ND	ND	0
62834	2017-03-30T01:00:00	61.8	ND	ND	ND	0.18	0.08	ND	ND	ND	ND	ND	0
62835	2017-03-30T02:00:00	77.1	ND	ND	ND	0.22	0.06	ND	ND	ND	ND	ND	0
62836	2017-03-30T03:00:00	94.2	ND	ND	ND	1.07	0.08	ND	ND	ND	ND	ND	0
62837	2017-03-30T04:00:00	101.3	ND	ND	ND	1.09	0.10	ND	ND	ND	ND	ND	0
62838	2017-03-30T05:00:00	97.1	ND	ND	ND	0.66	0.12	ND	ND	ND	ND	ND	0.25
62839	2017-03-30T06:00:00	74.2	ND	ND	ND	0.63	0.08	ND	ND	ND	ND	ND	0
62840	2017-03-30T07:00:00	80	ND	ND	ND	2.02	0.16	ND	ND	ND	ND	ND	0.25
62841	2017-03-30T08:00:00	114.8	ND	ND	ND	ND	0.14	ND	ND	ND	ND	ND	0
62842	2017-03-30T09:00:00	131.8	ND	ND	ND	0.79	0.94	ND	ND	ND	ND	ND	0
62843	2017-03-30T10:00:00	108.2	ND	ND	ND	0.31	7.54	ND	ND	ND	ND	ND	0
62844	2017-03-30T11:00:00	107.7	ND	ND	ND	0.46	18.41	ND	ND	ND	ND	ND	0
62845	2017-03-30T12:00:00	70.6	ND	ND	ND	0.20	25.94	ND	ND	ND	ND	ND	0
62846	2017-03-30T13:00:00	39.4	ND	ND	ND	0.14	32.54	ND	ND	ND	ND	ND	0
62847	2017-03-30T14:00:00	45.6	ND	ND	ND	0.03	36.26	ND	ND	ND	ND	ND	0
62848	2017-03-30T15:00:00	56.6	ND	ND	ND	0.00	19.17	ND	ND	ND	ND	ND	5.33
62849	2017-03-30T16:00:00	45.9	ND	ND	ND	0.00	2.77	ND	ND	ND	ND	ND	23.62
62850	2017-03-30T17:00:00	49.7	ND	ND	ND	0.01	0.53	ND	ND	ND	ND	ND	0.51
62851	2017-03-30T18:00:00	71.9	ND	ND	ND	ND	0.47	ND	ND	ND	ND	ND	0
62852	2017-03-30T19:00:00	94.2	ND	ND	ND	0.01	0.20	ND	ND	ND	ND	ND	0
62853	2017-03-30T20:00:00	78.4	ND	ND	ND	0.03	0.12	ND	ND	ND	ND	ND	0
62854	2017-03-30T21:00:00	51.6	ND	ND	ND	0.03	0.14	ND	ND	ND	ND	ND	0
62855	2017-03-30T22:00:00	46.4	ND	ND	ND	0.00	0.06	ND	ND	ND	ND	ND	1.78
62856	2017-03-30T23:00:00	27.3	ND	ND	ND	0.00	0.88	ND	ND	ND	ND	ND	1.78
62857	2017-03-31T00:00:00	7.3	ND	ND	ND	0.00	0.71	ND	ND	ND	ND	ND	0.51
62858	2017-03-31T01:00:00	18	ND	ND	ND	0.00	0.35	ND	ND	ND	ND	ND	0
62859	2017-03-31T02:00:00	20.8	ND	ND	ND	0.00	0.37	ND	ND	ND	ND	ND	1.02
62860	2017-03-31T03:00:00	8.6	ND	ND	ND	0.00	3.32	ND	ND	ND	ND	ND	12.7
62861	2017-03-31T04:00:00	5.1	ND	ND	ND	0.01	6.00	ND	ND	ND	ND	ND	8.38
62862	2017-03-31T05:00:00	7.5	ND	ND	ND	0.06	2.45	ND	ND	ND	ND	ND	1.78
62863	2017-03-31T06:00:00	15.7	ND	ND	ND	0.03	0.14	ND	ND	ND	ND	ND	0.25
62864	2017-03-31T07:00:00	28.6	ND	ND	ND	0.04	0.04	ND	ND	ND	ND	ND	0.51
62865	2017-03-31T08:00:00	27.9	ND	ND	ND	0.00	0.16	ND	ND	ND	ND	ND	0.25
62866	2017-03-31T09:00:00	42.7	ND	ND	ND	0.00	0.31	ND	ND	ND	ND	ND	1.27
62867	2017-03-31T10:00:00	ND	ND	ND	ND	0.00	0.33	ND	ND	ND	ND	ND	1.52
62868	2017-03-31T11:00:00	ND	ND	ND	ND	0.00	0.65	ND	ND	ND	ND	ND	0.25
62869	2017-03-31T12:00:00	ND	ND	ND	ND	ND	ND	ND	ND	ND	ND	ND	0
62870	2017-03-31T13:00:00	ND	ND	ND	ND	0.35	44.51	ND	ND	ND	ND	ND	0
62871	2017-03-31T14:00:00	168.6	ND	ND	ND	0.14	82.16	ND	ND	ND	ND	ND	0
62872	2017-03-31T15:00:00	200.9	ND	ND	ND	0.21	68.47	ND	ND	ND	ND	ND	0
62873	2017-03-31T16:00:00	76	ND	ND	ND	0.39	51.92	ND	ND	ND	ND	ND	0
62874	2017-03-31T17:00:00	57.2	ND	ND	ND	1.02	42.60	ND	ND	ND	ND	ND	0
62875	2017-03-31T18:00:00	62.7	ND	ND	ND	0.01	18.21	ND	ND	ND	ND	ND	0
62876	2017-03-31T19:00:00	59.6	ND	ND	ND	0.43	0.55	ND	ND	ND	ND	ND	0
62877	2017-03-31T20:00:00	31.2	ND	ND	ND	ND	0.10	ND	ND	ND	ND	ND	0
62878	2017-03-31T21:00:00	18.9	ND	ND	ND	0.22	0.08	ND	ND	ND	ND	ND	0
62879	2017-03-31T22:00:00	22.6	ND	ND	ND	0.70	0.06	ND	ND	ND	ND	ND	0
62880	2017-03-31T23:00:00	18.3	ND	ND	ND	0.54	0.12	ND	ND	ND	ND	ND	0
62881	2017-04-01T00:00:00	78.3	ND	ND	ND	3.12	0.06	ND	ND	ND	ND	ND	0
62882	2017-04-01T01:00:00	177.7	ND	ND	ND	1.64	0.12	ND	ND	ND	ND	ND	0
62883	2017-04-01T02:00:00	120.2	ND	ND	ND	3.89	0.16	ND	ND	ND	ND	ND	2.79
62884	2017-04-01T03:00:00	68.8	ND	ND	ND	2.50	0.33	ND	ND	ND	ND	ND	4.32
62885	2017-04-01T04:00:00	42.1	ND	ND	ND	1.58	0.18	ND	ND	ND	ND	ND	1.78
62886	2017-04-01T05:00:00	33.6	ND	ND	ND	0.54	0.18	ND	ND	ND	ND	ND	0.51
62887	2017-04-01T06:00:00	51.8	ND	ND	ND	0.81	0.20	ND	ND	ND	ND	ND	0.25
62888	2017-04-01T07:00:00	69.8	ND	ND	ND	0.61	0.27	ND	ND	ND	ND	ND	0.25
62889	2017-04-01T08:00:00	71.6	ND	ND	ND	1.37	0.35	ND	ND	ND	ND	ND	0
62890	2017-04-01T09:00:00	107.3	ND	ND	ND	1.67	1.61	ND	ND	ND	ND	ND	0
62891	2017-04-01T10:00:00	138.4	ND	ND	ND	1.77	14.72	ND	ND	ND	ND	ND	0
62892	2017-04-01T11:00:00	118.2	ND	ND	ND	0.17	39.13	ND	ND	ND	ND	ND	0
62893	2017-04-01T12:00:00	65.4	ND	ND	ND	0.07	39.80	ND	ND	ND	ND	ND	0
62894	2017-04-01T13:00:00	65.5	ND	ND	ND	0.03	35.85	ND	ND	ND	ND	ND	0
62895	2017-04-01T14:00:00	57.3	ND	ND	ND	0.45	50.24	ND	ND	ND	ND	ND	0
62896	2017-04-01T15:00:00	55.6	ND	ND	ND	0.91	63.70	ND	ND	ND	ND	ND	0
62897	2017-04-01T16:00:00	70.1	ND	ND	ND	0.59	71.00	ND	ND	ND	ND	ND	0
62898	2017-04-01T17:00:00	72.6	ND	ND	ND	0.11	59.71	ND	ND	ND	ND	ND	0
62899	2017-04-01T18:00:00	69.9	ND	ND	ND	1.07	58.36	ND	ND	ND	ND	ND	0
62900	2017-04-01T19:00:00	34	ND	ND	ND	ND	12.32	ND	ND	ND	ND	ND	0
62901	2017-04-01T20:00:00	31.1	ND	ND	ND	0.63	5.53	ND	ND	ND	ND	ND	0
62902	2017-04-01T21:00:00	47	ND	ND	ND	0.24	2.12	ND	ND	ND	ND	ND	0
62903	2017-04-01T22:00:00	67.5	ND	ND	ND	0.33	0.24	ND	ND	ND	ND	ND	0
62904	2017-04-01T23:00:00	81	ND	ND	ND	0.08	0.41	ND	ND	ND	ND	ND	0
62905	2017-04-02T00:00:00	72.4	ND	ND	ND	0.89	0.51	ND	ND	ND	ND	ND	0
62906	2017-04-02T01:00:00	64.8	ND	ND	ND	0.67	1.20	ND	ND	ND	ND	ND	0
62907	2017-04-02T02:00:00	47.9	ND	ND	ND	2.76	0.35	ND	ND	ND	ND	ND	0
62908	2017-04-02T03:00:00	109.3	ND	ND	ND	3.42	0.51	ND	ND	ND	ND	ND	0
62909	2017-04-02T04:00:00	104	ND	ND	ND	0.91	0.55	ND	ND	ND	ND	ND	0
62910	2017-04-02T05:00:00	74.8	ND	ND	ND	1.46	0.49	ND	ND	ND	ND	ND	0
62911	2017-04-02T06:00:00	89.4	ND	ND	ND	1.05	0.27	ND	ND	ND	ND	ND	0
62912	2017-04-02T07:00:00	97.1	ND	ND	ND	1.94	0.47	ND	ND	ND	ND	ND	0
62913	2017-04-02T08:00:00	82.9	ND	ND	ND	1.34	0.45	ND	ND	ND	ND	ND	0
62914	2017-04-02T09:00:00	111.6	ND	ND	ND	2.94	3.69	ND	ND	ND	ND	ND	0
62915	2017-04-02T10:00:00	134.6	ND	ND	ND	0.54	40.11	ND	ND	ND	ND	ND	0
62916	2017-04-02T11:00:00	90.2	ND	ND	ND	0.81	70.23	ND	ND	ND	ND	ND	0
62917	2017-04-02T12:00:00	81.6	ND	ND	ND	1.06	76.59	ND	ND	ND	ND	ND	0
62918	2017-04-02T13:00:00	55.6	ND	ND	ND	0.45	103.08	ND	ND	ND	ND	ND	0
62919	2017-04-02T14:00:00	68	ND	ND	ND	0.24	96.88	ND	ND	ND	ND	ND	0
62920	2017-04-02T15:00:00	63.4	ND	ND	ND	0.33	113.80	ND	ND	ND	ND	ND	0
62921	2017-04-02T16:00:00	75	ND	ND	ND	0.63	106.36	ND	ND	ND	ND	ND	0
62922	2017-04-02T17:00:00	63.4	ND	ND	ND	0.61	33.93	ND	ND	ND	ND	ND	0
62923	2017-04-02T18:00:00	17.7	ND	ND	ND	ND	21.13	ND	ND	ND	ND	ND	0
62924	2017-04-02T19:00:00	ND	ND	ND	ND	0.50	13.83	ND	ND	ND	ND	ND	0
62925	2017-04-02T20:00:00	28.1	ND	ND	ND	0.25	11.93	ND	ND	ND	ND	ND	0
62926	2017-04-02T21:00:00	42.3	ND	ND	ND	ND	8.26	ND	ND	ND	ND	ND	0
62927	2017-04-02T22:00:00	67.4	ND	ND	ND	0.98	0.35	ND	ND	ND	ND	ND	0
62928	2017-04-02T23:00:00	47.1	ND	ND	ND	ND	10.18	ND	ND	ND	ND	ND	0
62929	2017-04-03T00:00:00	17.9	ND	ND	ND	0.96	8.65	ND	ND	ND	ND	ND	0
62930	2017-04-03T01:00:00	46.8	ND	ND	ND	1.00	0.27	ND	ND	ND	ND	ND	0
62931	2017-04-03T02:00:00	52	ND	ND	ND	0.25	1.06	ND	ND	ND	ND	ND	0
62932	2017-04-03T03:00:00	27.1	ND	ND	ND	0.74	2.55	ND	ND	ND	ND	ND	0
62933	2017-04-03T04:00:00	30.7	ND	ND	ND	1.05	2.26	ND	ND	ND	ND	ND	0
62934	2017-04-03T05:00:00	41.2	ND	ND	ND	1.31	0.71	ND	ND	ND	ND	ND	0
62935	2017-04-03T06:00:00	57	ND	ND	ND	1.63	0.29	ND	ND	ND	ND	ND	0
62936	2017-04-03T07:00:00	65.3	ND	ND	ND	0.89	0.31	ND	ND	ND	ND	ND	0
62937	2017-04-03T08:00:00	100.8	ND	ND	ND	0.56	0.65	ND	ND	ND	ND	ND	0
62938	2017-04-03T09:00:00	137.7	ND	ND	ND	0.22	7.65	ND	ND	ND	ND	ND	0
62939	2017-04-03T10:00:00	127.3	ND	ND	ND	1.13	23.82	ND	ND	ND	ND	ND	0
62940	2017-04-03T11:00:00	108	ND	ND	ND	0.45	37.62	ND	ND	ND	ND	ND	0
62941	2017-04-03T12:00:00	92.1	ND	ND	ND	0.39	74.69	ND	ND	ND	ND	ND	0
62942	2017-04-03T13:00:00	72.7	ND	ND	ND	ND	111.86	ND	ND	ND	ND	ND	0
62943	2017-04-03T14:00:00	70	ND	ND	ND	ND	117.11	ND	ND	ND	ND	ND	0
62944	2017-04-03T15:00:00	76.7	ND	ND	ND	1.18	90.21	ND	ND	ND	ND	ND	0
62945	2017-04-03T16:00:00	65.3	ND	ND	ND	0.77	55.65	ND	ND	ND	ND	ND	0
62946	2017-04-03T17:00:00	42.3	ND	ND	ND	0.68	28.18	ND	ND	ND	ND	ND	0
62947	2017-04-03T18:00:00	35.9	ND	ND	ND	1.00	18.35	ND	ND	ND	ND	ND	0
62948	2017-04-03T19:00:00	20.5	ND	ND	ND	0.43	14.23	ND	ND	ND	ND	ND	0
62949	2017-04-03T20:00:00	40	ND	ND	ND	0.61	13.68	ND	ND	ND	ND	ND	0
62950	2017-04-03T21:00:00	39.3	ND	ND	ND	0.52	14.89	ND	ND	ND	ND	ND	0
62951	2017-04-03T22:00:00	65.1	ND	ND	ND	0.71	6.06	ND	ND	ND	ND	ND	0
62952	2017-04-03T23:00:00	56.9	ND	ND	ND	0.86	10.28	ND	ND	ND	ND	ND	0
62953	2017-04-04T00:00:00	31.6	ND	ND	ND	0.72	11.17	ND	ND	ND	ND	ND	0
62954	2017-04-04T01:00:00	56.1	ND	ND	ND	1.81	0.33	ND	ND	ND	ND	ND	0
62955	2017-04-04T02:00:00	88.9	ND	ND	ND	1.91	0.75	ND	ND	ND	ND	ND	0
62956	2017-04-04T03:00:00	67.8	ND	ND	ND	2.52	1.79	ND	ND	ND	ND	ND	0
62957	2017-04-04T04:00:00	59.9	ND	ND	ND	1.74	1.59	ND	ND	ND	ND	ND	0
62958	2017-04-04T05:00:00	53.3	ND	ND	ND	1.88	0.98	ND	ND	ND	ND	ND	0
62959	2017-04-04T06:00:00	110.5	ND	ND	ND	2.23	0.27	ND	ND	ND	ND	ND	0
62960	2017-04-04T07:00:00	107.2	ND	ND	ND	1.60	0.24	ND	ND	ND	ND	ND	0
62961	2017-04-04T08:00:00	141.8	ND	ND	ND	2.37	0.77	ND	ND	ND	ND	ND	0
62962	2017-04-04T09:00:00	125.5	ND	ND	ND	1.53	8.16	ND	ND	ND	ND	ND	0
62963	2017-04-04T10:00:00	123.5	ND	ND	ND	0.82	33.85	ND	ND	ND	ND	ND	0
62964	2017-04-04T11:00:00	102.1	ND	ND	ND	0.64	45.06	ND	ND	ND	ND	ND	0
62965	2017-04-04T12:00:00	79.6	ND	ND	ND	0.26	74.65	ND	ND	ND	ND	ND	0
62966	2017-04-04T13:00:00	75.6	ND	ND	ND	0.66	89.84	ND	ND	ND	ND	ND	0
62967	2017-04-04T14:00:00	83.9	ND	ND	ND	0.79	111.44	ND	ND	ND	ND	ND	0
62968	2017-04-04T15:00:00	84.4	ND	ND	ND	0.91	47.51	ND	ND	ND	ND	ND	0
62969	2017-04-04T16:00:00	56.3	ND	ND	ND	0.45	28.32	ND	ND	ND	ND	ND	0
62970	2017-04-04T17:00:00	51.2	ND	ND	ND	0.57	23.82	ND	ND	ND	ND	ND	0
62971	2017-04-04T18:00:00	54.8	ND	ND	ND	0.71	19.21	ND	ND	ND	ND	ND	0
62972	2017-04-04T19:00:00	51.9	ND	ND	ND	0.71	15.01	ND	ND	ND	ND	ND	0
62973	2017-04-04T20:00:00	45.7	ND	ND	ND	0.36	17.76	ND	ND	ND	ND	ND	0
62974	2017-04-04T21:00:00	33	ND	ND	ND	0.66	14.91	ND	ND	ND	ND	ND	0
62975	2017-04-04T22:00:00	37.8	ND	ND	ND	0.85	8.63	ND	ND	ND	ND	ND	0
62976	2017-04-04T23:00:00	33.9	ND	ND	ND	1.09	11.77	ND	ND	ND	ND	ND	0
62977	2017-04-05T00:00:00	28	ND	ND	ND	1.53	6.06	ND	ND	ND	ND	ND	0
62978	2017-04-05T01:00:00	53.4	ND	ND	ND	2.19	2.24	ND	ND	ND	ND	ND	0
62979	2017-04-05T02:00:00	47.3	ND	ND	ND	0.68	9.22	ND	ND	ND	ND	ND	0
62980	2017-04-05T03:00:00	58	ND	ND	ND	3.67	0.29	ND	ND	ND	ND	ND	0
62981	2017-04-05T04:00:00	71.4	ND	ND	ND	1.31	0.65	ND	ND	ND	ND	ND	0
62982	2017-04-05T05:00:00	75.5	ND	ND	ND	2.10	0.31	ND	ND	ND	ND	ND	0
62983	2017-04-05T06:00:00	62.7	ND	ND	ND	0.95	0.96	ND	ND	ND	ND	ND	0
62984	2017-04-05T07:00:00	33.1	ND	ND	ND	2.31	0.18	ND	ND	ND	ND	ND	0
62985	2017-04-05T08:00:00	73.4	ND	ND	ND	1.91	2.90	ND	ND	ND	ND	ND	0
62986	2017-04-05T09:00:00	124.4	ND	ND	ND	1.69	12.70	ND	ND	ND	ND	ND	0
62987	2017-04-05T10:00:00	131.3	ND	ND	ND	1.00	43.47	ND	ND	ND	ND	ND	0
62988	2017-04-05T11:00:00	104	ND	ND	ND	1.24	70.78	ND	ND	ND	ND	ND	0
62989	2017-04-05T12:00:00	104.3	ND	ND	ND	1.52	64.74	ND	ND	ND	ND	ND	0
62990	2017-04-05T13:00:00	86.8	ND	ND	ND	0.53	80.71	ND	ND	ND	ND	ND	0
62991	2017-04-05T14:00:00	89.4	ND	ND	ND	0.72	108.38	ND	ND	ND	ND	ND	0
62992	2017-04-05T15:00:00	72.7	ND	ND	ND	0.82	50.79	ND	ND	ND	ND	ND	0
62993	2017-04-05T16:00:00	24.1	ND	ND	ND	0.64	27.77	ND	ND	ND	ND	ND	0
62994	2017-04-05T17:00:00	51.8	ND	ND	ND	0.78	24.71	ND	ND	ND	ND	ND	0
62995	2017-04-05T18:00:00	56.1	ND	ND	ND	0.42	18.31	ND	ND	ND	ND	ND	0
62996	2017-04-05T19:00:00	56.7	ND	ND	ND	0.68	9.36	ND	ND	ND	ND	ND	0
62997	2017-04-05T20:00:00	50.5	ND	ND	ND	0.96	3.65	ND	ND	ND	ND	ND	0
62998	2017-04-05T21:00:00	48.7	ND	ND	ND	0.54	1.84	ND	ND	ND	ND	ND	0
62999	2017-04-05T22:00:00	56	ND	ND	ND	1.27	10.22	ND	ND	ND	ND	ND	0
63000	2017-04-05T23:00:00	47	ND	ND	ND	0.98	22.57	ND	ND	ND	ND	ND	0
63001	2017-04-06T00:00:00	51.9	ND	ND	ND	0.63	11.44	ND	ND	ND	ND	ND	0
63002	2017-04-06T01:00:00	71.7	ND	ND	ND	1.09	22.82	ND	ND	ND	ND	ND	0
63003	2017-04-06T02:00:00	46.8	ND	ND	ND	0.67	15.91	ND	ND	ND	ND	ND	0
63004	2017-04-06T03:00:00	54.6	ND	ND	ND	0.53	18.11	ND	ND	ND	ND	ND	0
63005	2017-04-06T04:00:00	59.2	ND	ND	ND	1.45	6.34	ND	ND	ND	ND	ND	0
63006	2017-04-06T05:00:00	97.3	ND	ND	ND	2.68	0.51	ND	ND	ND	ND	ND	0
63007	2017-04-06T06:00:00	123.4	ND	ND	ND	2.59	1.08	ND	ND	ND	ND	ND	0
63008	2017-04-06T07:00:00	134.8	ND	ND	ND	3.04	0.16	ND	ND	ND	ND	ND	0
63009	2017-04-06T08:00:00	145.8	ND	ND	ND	3.19	1.77	ND	ND	ND	ND	ND	0
63010	2017-04-06T09:00:00	154.3	ND	ND	ND	1.27	25.20	ND	ND	ND	ND	ND	0
63011	2017-04-06T10:00:00	136.9	ND	ND	ND	1.06	51.14	ND	ND	ND	ND	ND	0
63012	2017-04-06T11:00:00	123	ND	ND	ND	1.62	85.87	ND	ND	ND	ND	ND	0
63013	2017-04-06T12:00:00	109.2	ND	ND	ND	0.57	90.39	ND	ND	ND	ND	ND	0
63014	2017-04-06T13:00:00	109.3	ND	ND	ND	1.18	84.21	ND	ND	ND	ND	ND	0
63015	2017-04-06T14:00:00	102.3	ND	ND	ND	1.00	108.30	ND	ND	ND	ND	ND	0
63016	2017-04-06T15:00:00	113.3	ND	ND	ND	1.18	105.36	ND	ND	ND	ND	ND	0
63017	2017-04-06T16:00:00	92.4	ND	ND	ND	0.64	36.32	ND	ND	ND	ND	ND	0
63018	2017-04-06T17:00:00	48.6	ND	ND	ND	0.67	21.35	ND	ND	ND	ND	ND	0
63019	2017-04-06T18:00:00	56.6	ND	ND	ND	0.45	13.15	ND	ND	ND	ND	ND	0
63020	2017-04-06T19:00:00	50	ND	ND	ND	1.30	12.28	ND	ND	ND	ND	ND	0
63021	2017-04-06T20:00:00	42.2	ND	ND	ND	0.71	8.75	ND	ND	ND	ND	ND	0
63022	2017-04-06T21:00:00	42.7	ND	ND	ND	2.16	4.00	ND	ND	ND	ND	ND	0
63023	2017-04-06T22:00:00	81.5	ND	ND	ND	2.01	0.18	ND	ND	ND	ND	ND	0
63024	2017-04-06T23:00:00	110.6	ND	ND	ND	1.52	0.24	ND	ND	ND	ND	ND	0
63025	2017-04-07T00:00:00	87.2	ND	ND	ND	0.64	5.24	ND	ND	ND	ND	ND	0
63026	2017-04-07T01:00:00	62.5	ND	ND	ND	1.58	0.41	ND	ND	ND	ND	ND	0
63027	2017-04-07T02:00:00	69.1	ND	ND	ND	0.88	1.30	ND	ND	ND	ND	ND	0
63028	2017-04-07T03:00:00	57.9	ND	ND	ND	1.70	1.41	ND	ND	ND	ND	ND	0
63029	2017-04-07T04:00:00	64	ND	ND	ND	2.08	1.35	ND	ND	ND	ND	ND	0
63030	2017-04-07T05:00:00	66.4	ND	ND	ND	1.77	1.20	ND	ND	ND	ND	ND	0
63031	2017-04-07T06:00:00	62.8	ND	ND	ND	1.85	0.47	ND	ND	ND	ND	ND	0
63032	2017-04-07T07:00:00	97	ND	ND	ND	3.15	0.33	ND	ND	ND	ND	ND	0
63033	2017-04-07T08:00:00	145	ND	ND	ND	1.09	1.86	ND	ND	ND	ND	ND	0
63034	2017-04-07T09:00:00	108.1	ND	ND	ND	0.91	14.64	ND	ND	ND	ND	ND	0
63035	2017-04-07T10:00:00	113.6	ND	ND	ND	1.17	31.99	ND	ND	ND	ND	ND	0
63036	2017-04-07T11:00:00	120.5	ND	ND	ND	0.63	47.71	ND	ND	ND	ND	ND	0
63037	2017-04-07T12:00:00	104.4	ND	ND	ND	0.85	66.88	ND	ND	ND	ND	ND	0
63038	2017-04-07T13:00:00	98.3	ND	ND	ND	1.06	101.91	ND	ND	ND	ND	ND	0
63039	2017-04-07T14:00:00	73	ND	ND	ND	0.82	75.00	ND	ND	ND	ND	ND	0
63040	2017-04-07T15:00:00	84	ND	ND	ND	0.96	57.42	ND	ND	ND	ND	ND	0
63041	2017-04-07T16:00:00	72.4	ND	ND	ND	1.12	23.96	ND	ND	ND	ND	ND	0
63042	2017-04-07T17:00:00	58.6	ND	ND	ND	1.03	12.83	ND	ND	ND	ND	ND	0
63043	2017-04-07T18:00:00	56.1	ND	ND	ND	0.57	12.03	ND	ND	ND	ND	ND	0.51
63044	2017-04-07T19:00:00	50.7	ND	ND	ND	0.70	8.63	ND	ND	ND	ND	ND	0.25
63045	2017-04-07T20:00:00	41.6	ND	ND	ND	0.53	5.38	ND	ND	ND	ND	ND	0
63046	2017-04-07T21:00:00	39.2	ND	ND	ND	0.45	4.00	ND	ND	ND	ND	ND	0
63047	2017-04-07T22:00:00	66.1	ND	ND	ND	1.59	7.01	ND	ND	ND	ND	ND	0
63048	2017-04-07T23:00:00	41.7	ND	ND	ND	1.80	7.46	ND	ND	ND	ND	ND	0
63049	2017-04-08T00:00:00	80.7	ND	ND	ND	1.95	0.35	ND	ND	ND	ND	ND	0
63050	2017-04-08T01:00:00	87.7	ND	ND	ND	0.60	1.39	ND	ND	ND	ND	ND	0
63051	2017-04-08T02:00:00	59.8	ND	ND	ND	0.75	9.69	ND	ND	ND	ND	ND	0
63052	2017-04-08T03:00:00	59.2	ND	ND	ND	0.95	4.26	ND	ND	ND	ND	ND	0
63053	2017-04-08T04:00:00	51.7	ND	ND	ND	0.98	1.02	ND	ND	ND	ND	ND	0
63054	2017-04-08T05:00:00	51.4	ND	ND	ND	2.04	0.98	ND	ND	ND	ND	ND	0
63055	2017-04-08T06:00:00	71.3	ND	ND	ND	1.45	1.22	ND	ND	ND	ND	ND	0
63056	2017-04-08T07:00:00	63.2	ND	ND	ND	0.49	1.86	ND	ND	ND	ND	ND	0.25
63057	2017-04-08T08:00:00	62.8	ND	ND	ND	2.20	1.10	ND	ND	ND	ND	ND	0
63058	2017-04-08T09:00:00	88.3	ND	ND	ND	1.37	5.99	ND	ND	ND	ND	ND	0
63059	2017-04-08T10:00:00	76.1	ND	ND	ND	1.05	28.42	ND	ND	ND	ND	ND	0
63060	2017-04-08T11:00:00	63.7	ND	ND	ND	0.46	66.37	ND	ND	ND	ND	ND	0
63061	2017-04-08T12:00:00	82.5	ND	ND	ND	1.05	95.86	ND	ND	ND	ND	ND	0
63062	2017-04-08T13:00:00	91.1	ND	ND	ND	1.25	143.80	ND	ND	ND	ND	ND	0
63063	2017-04-08T14:00:00	84.1	ND	ND	ND	0.45	83.52	ND	ND	ND	ND	ND	0
63064	2017-04-08T15:00:00	71.2	ND	ND	ND	1.64	74.39	ND	ND	ND	ND	ND	0
63065	2017-04-08T16:00:00	36.9	ND	ND	ND	0.86	24.22	ND	ND	ND	ND	ND	0
63066	2017-04-08T17:00:00	10.7	ND	ND	ND	1.39	18.39	ND	ND	ND	ND	ND	0
63067	2017-04-08T18:00:00	19.2	ND	ND	ND	1.10	16.54	ND	ND	ND	ND	ND	2.03
63068	2017-04-08T19:00:00	47.3	ND	ND	ND	0.99	1.83	ND	ND	ND	ND	ND	0.51
63069	2017-04-08T20:00:00	44.7	ND	ND	ND	1.30	0.90	ND	ND	ND	ND	ND	0
63070	2017-04-08T21:00:00	41.2	ND	ND	ND	1.17	0.84	ND	ND	ND	ND	ND	0.25
63071	2017-04-08T22:00:00	61.7	ND	ND	ND	0.88	1.22	ND	ND	ND	ND	ND	0
63072	2017-04-08T23:00:00	56.7	ND	ND	ND	2.29	0.65	ND	ND	ND	ND	ND	0
63073	2017-04-09T00:00:00	42.4	ND	ND	ND	2.93	2.04	ND	ND	ND	ND	ND	11.18
63074	2017-04-09T01:00:00	25.6	ND	ND	ND	0.57	4.08	ND	ND	ND	ND	ND	9.65
63075	2017-04-09T02:00:00	17.5	ND	ND	ND	1.17	2.26	ND	ND	ND	ND	ND	0.25
63076	2017-04-09T03:00:00	18.3	ND	ND	ND	1.58	3.51	ND	ND	ND	ND	ND	4.57
63077	2017-04-09T04:00:00	28.3	ND	ND	ND	1.30	3.63	ND	ND	ND	ND	ND	5.84
63078	2017-04-09T05:00:00	31.4	ND	ND	ND	1.31	1.26	ND	ND	ND	ND	ND	2.29
63079	2017-04-09T06:00:00	25.5	ND	ND	ND	2.27	0.77	ND	ND	ND	ND	ND	0.25
63080	2017-04-09T07:00:00	28.1	ND	ND	ND	1.37	5.36	ND	ND	ND	ND	ND	0.25
63081	2017-04-09T08:00:00	18.8	ND	ND	ND	1.07	2.69	ND	ND	ND	ND	ND	17.02
63082	2017-04-09T09:00:00	15.6	ND	ND	ND	0.84	2.02	ND	ND	ND	ND	ND	2.54
63083	2017-04-09T10:00:00	8.9	ND	ND	ND	1.32	7.24	ND	ND	ND	ND	ND	0.25
63084	2017-04-09T11:00:00	19.6	ND	ND	ND	0.50	16.48	ND	ND	ND	ND	ND	0.25
63085	2017-04-09T12:00:00	20.3	ND	ND	ND	1.02	29.81	ND	ND	ND	ND	ND	0
63086	2017-04-09T13:00:00	29.7	ND	ND	ND	0.81	47.57	ND	ND	ND	ND	ND	0
63087	2017-04-09T14:00:00	39.2	ND	ND	ND	0.54	60.07	ND	ND	ND	ND	ND	0
63088	2017-04-09T15:00:00	43.7	ND	ND	ND	1.13	54.06	ND	ND	ND	ND	ND	0
63089	2017-04-09T16:00:00	42.5	ND	ND	ND	0.40	74.45	ND	ND	ND	ND	ND	0
63090	2017-04-09T17:00:00	46.7	ND	ND	ND	0.81	37.34	ND	ND	ND	ND	ND	0
63091	2017-04-09T18:00:00	33.6	ND	ND	ND	1.78	4.65	ND	ND	ND	ND	ND	0
63092	2017-04-09T19:00:00	37.4	ND	ND	ND	4.43	0.45	ND	ND	ND	ND	ND	0
63093	2017-04-09T20:00:00	41.6	ND	ND	ND	1.83	1.24	ND	ND	ND	ND	ND	0
63094	2017-04-09T21:00:00	46.1	ND	ND	ND	3.93	0.08	ND	ND	ND	ND	ND	0
63095	2017-04-09T22:00:00	62.3	ND	ND	ND	1.80	0.41	ND	ND	ND	ND	ND	0
63096	2017-04-09T23:00:00	37.4	ND	ND	ND	0.53	3.71	ND	ND	ND	ND	ND	0
63097	2017-04-10T00:00:00	30.6	ND	ND	ND	0.95	1.24	ND	ND	ND	ND	ND	0
63098	2017-04-10T01:00:00	30.3	ND	ND	ND	0.82	0.51	ND	ND	ND	ND	ND	0
63099	2017-04-10T02:00:00	21.5	ND	ND	ND	1.25	3.22	ND	ND	ND	ND	ND	0
63100	2017-04-10T03:00:00	28.2	ND	ND	ND	1.25	3.38	ND	ND	ND	ND	ND	0
63101	2017-04-10T04:00:00	27	ND	ND	ND	2.27	1.35	ND	ND	ND	ND	ND	0
63102	2017-04-10T05:00:00	39.4	ND	ND	ND	2.70	0.04	ND	ND	ND	ND	ND	0
63103	2017-04-10T06:00:00	39.7	ND	ND	ND	10.23	0.02	ND	ND	ND	ND	ND	0
63104	2017-04-10T07:00:00	67.5	ND	ND	ND	ND	0.04	ND	ND	ND	ND	ND	0
63105	2017-04-10T08:00:00	85.7	ND	ND	ND	ND	0.55	ND	ND	ND	ND	ND	0
63106	2017-04-10T09:00:00	86	ND	ND	ND	7.26	11.52	ND	ND	ND	ND	ND	0
63107	2017-04-10T10:00:00	66.5	ND	ND	ND	2.96	29.32	ND	ND	ND	ND	ND	0
63108	2017-04-10T11:00:00	65.2	ND	ND	ND	1.71	36.91	ND	ND	ND	ND	ND	0
63109	2017-04-10T12:00:00	60.7	ND	ND	ND	1.90	51.71	ND	ND	ND	ND	ND	0
63110	2017-04-10T13:00:00	72.3	ND	ND	ND	1.85	75.26	ND	ND	ND	ND	ND	0
63111	2017-04-10T14:00:00	69.1	ND	ND	ND	1.42	105.38	ND	ND	ND	ND	ND	0
63112	2017-04-10T15:00:00	76.9	ND	ND	ND	1.52	107.52	ND	ND	ND	ND	ND	0
63113	2017-04-10T16:00:00	64.3	ND	ND	ND	1.35	99.35	ND	ND	ND	ND	ND	0
63114	2017-04-10T17:00:00	58.9	ND	ND	ND	0.74	63.44	ND	ND	ND	ND	ND	16.76
63115	2017-04-10T18:00:00	2.8	ND	ND	ND	0.46	10.07	ND	ND	ND	ND	ND	6.1
63116	2017-04-10T19:00:00	46.2	ND	ND	ND	1.05	7.01	ND	ND	ND	ND	ND	0
63117	2017-04-10T20:00:00	46.9	ND	ND	ND	0.92	3.22	ND	ND	ND	ND	ND	0
63118	2017-04-10T21:00:00	40.3	ND	ND	ND	0.81	9.87	ND	ND	ND	ND	ND	0
63119	2017-04-10T22:00:00	43.8	ND	ND	ND	0.77	2.12	ND	ND	ND	ND	ND	0
63120	2017-04-10T23:00:00	67.6	ND	ND	ND	1.56	3.10	ND	ND	ND	ND	ND	0
63121	2017-04-11T00:00:00	71.4	ND	ND	ND	1.00	2.34	ND	ND	ND	ND	ND	0
63122	2017-04-11T01:00:00	53.8	ND	ND	ND	1.00	10.46	ND	ND	ND	ND	ND	0
63123	2017-04-11T02:00:00	33.3	ND	ND	ND	0.79	14.95	ND	ND	ND	ND	ND	0
63124	2017-04-11T03:00:00	28.7	ND	ND	ND	0.99	3.85	ND	ND	ND	ND	ND	0
63125	2017-04-11T04:00:00	37.8	ND	ND	ND	1.07	1.12	ND	ND	ND	ND	ND	0
63126	2017-04-11T05:00:00	54.5	ND	ND	ND	5.14	0.82	ND	ND	ND	ND	ND	0
63127	2017-04-11T06:00:00	77.1	ND	ND	ND	5.53	0.69	ND	ND	ND	ND	ND	0
63128	2017-04-11T07:00:00	99.4	ND	ND	ND	4.82	1.00	ND	ND	ND	ND	ND	0
63129	2017-04-11T08:00:00	100.3	ND	ND	ND	3.68	1.31	ND	ND	ND	ND	ND	11.18
63130	2017-04-11T09:00:00	62.2	ND	ND	ND	3.02	2.30	ND	ND	ND	ND	ND	1.52
63131	2017-04-11T10:00:00	49.3	ND	ND	ND	1.21	2.04	ND	ND	ND	ND	ND	1.27
63132	2017-04-11T11:00:00	52.8	ND	ND	ND	1.07	4.00	ND	ND	ND	ND	ND	1.52
63133	2017-04-11T12:00:00	47.1	ND	ND	ND	1.51	17.54	ND	ND	ND	ND	ND	0.25
63134	2017-04-11T13:00:00	47.5	ND	ND	ND	1.05	47.16	ND	ND	ND	ND	ND	0
63135	2017-04-11T14:00:00	51.8	ND	ND	ND	1.70	77.81	ND	ND	ND	ND	ND	0
63136	2017-04-11T15:00:00	45.9	ND	ND	ND	1.18	76.41	ND	ND	ND	ND	ND	0
63137	2017-04-11T16:00:00	37.5	ND	ND	ND	0.71	28.47	ND	ND	ND	ND	ND	0
63138	2017-04-11T17:00:00	33.8	ND	ND	ND	0.39	17.11	ND	ND	ND	ND	ND	0
63139	2017-04-11T18:00:00	11.3	ND	ND	ND	1.05	9.03	ND	ND	ND	ND	ND	0
63140	2017-04-11T19:00:00	27.1	ND	ND	ND	1.32	7.87	ND	ND	ND	ND	ND	0
63141	2017-04-11T20:00:00	32.8	ND	ND	ND	0.71	8.46	ND	ND	ND	ND	ND	0
63142	2017-04-11T21:00:00	36.3	ND	ND	ND	0.64	0.41	ND	ND	ND	ND	ND	0
63143	2017-04-11T22:00:00	40.9	ND	ND	ND	1.34	0.35	ND	ND	ND	ND	ND	0
63144	2017-04-11T23:00:00	52.1	ND	ND	ND	1.18	1.53	ND	ND	ND	ND	ND	0
63145	2017-04-12T00:00:00	60.7	ND	ND	ND	1.05	0.73	ND	ND	ND	ND	ND	0
63146	2017-04-12T01:00:00	49.6	ND	ND	ND	2.20	0.98	ND	ND	ND	ND	ND	0
63147	2017-04-12T02:00:00	84.4	ND	ND	ND	4.89	0.53	ND	ND	ND	ND	ND	0
63148	2017-04-12T03:00:00	83.3	ND	ND	ND	5.83	1.59	ND	ND	ND	ND	ND	0
63149	2017-04-12T04:00:00	35.2	ND	ND	ND	3.35	1.94	ND	ND	ND	ND	ND	0.25
63150	2017-04-12T05:00:00	17.8	ND	ND	ND	1.94	3.10	ND	ND	ND	ND	ND	10.16
63151	2017-04-12T06:00:00	20.7	ND	ND	ND	1.92	1.90	ND	ND	ND	ND	ND	1.27
63152	2017-04-12T07:00:00	26.7	ND	ND	ND	1.48	1.57	ND	ND	ND	ND	ND	0.25
63153	2017-04-12T08:00:00	28.8	ND	ND	ND	1.17	4.10	ND	ND	ND	ND	ND	0
63154	2017-04-12T09:00:00	46.4	ND	ND	ND	0.78	11.66	ND	ND	ND	ND	ND	0
63155	2017-04-12T10:00:00	59.4	ND	ND	ND	1.06	37.21	ND	ND	ND	ND	ND	0
63156	2017-04-12T11:00:00	67.7	ND	ND	ND	1.28	43.00	ND	ND	ND	ND	ND	0
63157	2017-04-12T12:00:00	58.3	ND	ND	ND	1.41	49.20	ND	ND	ND	ND	ND	0
63158	2017-04-12T13:00:00	53.8	ND	ND	ND	0.45	71.86	ND	ND	ND	ND	ND	0
63159	2017-04-12T14:00:00	46.3	ND	ND	ND	1.27	106.11	ND	ND	ND	ND	ND	0
63160	2017-04-12T15:00:00	54.4	ND	ND	ND	0.82	89.27	ND	ND	ND	ND	ND	0
63161	2017-04-12T16:00:00	57.1	ND	ND	ND	1.14	59.36	ND	ND	ND	ND	ND	0
63162	2017-04-12T17:00:00	64.8	ND	ND	ND	1.46	36.66	ND	ND	ND	ND	ND	0
63163	2017-04-12T18:00:00	73.5	ND	ND	ND	0.66	27.51	ND	ND	ND	ND	ND	0
63164	2017-04-12T19:00:00	61	ND	ND	ND	0.67	14.40	ND	ND	ND	ND	ND	0
63165	2017-04-12T20:00:00	40.8	ND	ND	ND	1.23	13.87	ND	ND	ND	ND	ND	0
63166	2017-04-12T21:00:00	28.2	ND	ND	ND	1.12	6.67	ND	ND	ND	ND	ND	0
63167	2017-04-12T22:00:00	34.2	ND	ND	ND	0.89	0.51	ND	ND	ND	ND	ND	0
63168	2017-04-12T23:00:00	76.3	ND	ND	ND	5.35	1.49	ND	ND	ND	ND	ND	0
63169	2017-04-13T00:00:00	69.5	ND	ND	ND	0.67	3.14	ND	ND	ND	ND	ND	0
63170	2017-04-13T01:00:00	41.6	ND	ND	ND	1.21	1.77	ND	ND	ND	ND	ND	0
63171	2017-04-13T02:00:00	36.1	ND	ND	ND	1.28	1.04	ND	ND	ND	ND	ND	0
63172	2017-04-13T03:00:00	38.2	ND	ND	ND	2.22	1.77	ND	ND	ND	ND	ND	0
63173	2017-04-13T04:00:00	27.6	ND	ND	ND	1.91	1.00	ND	ND	ND	ND	ND	0
63174	2017-04-13T05:00:00	36.4	ND	ND	ND	4.59	1.22	ND	ND	ND	ND	ND	0
63175	2017-04-13T06:00:00	47.2	ND	ND	ND	2.54	1.18	ND	ND	ND	ND	ND	0
63176	2017-04-13T07:00:00	68.2	ND	ND	ND	3.21	1.18	ND	ND	ND	ND	ND	0
63177	2017-04-13T08:00:00	73.4	ND	ND	ND	4.13	3.55	ND	ND	ND	ND	ND	0
63178	2017-04-13T09:00:00	76.8	ND	ND	ND	2.12	16.11	ND	ND	ND	ND	ND	0
63179	2017-04-13T10:00:00	73.7	ND	ND	ND	1.17	40.56	ND	ND	ND	ND	ND	0
63180	2017-04-13T11:00:00	64.2	ND	ND	ND	1.23	79.40	ND	ND	ND	ND	ND	0
63181	2017-04-13T12:00:00	59.9	ND	ND	ND	1.81	84.62	ND	ND	ND	ND	ND	0
63182	2017-04-13T13:00:00	48.1	ND	ND	ND	0.47	71.37	ND	ND	ND	ND	ND	0
63183	2017-04-13T14:00:00	46.7	ND	ND	ND	0.36	73.18	ND	ND	ND	ND	ND	0
63184	2017-04-13T15:00:00	41.3	ND	ND	ND	1.05	73.14	ND	ND	ND	ND	ND	0
63185	2017-04-13T16:00:00	39.5	ND	ND	ND	1.53	52.75	ND	ND	ND	ND	ND	0
63186	2017-04-13T17:00:00	26	ND	ND	ND	0.53	30.51	ND	ND	ND	ND	ND	0
63187	2017-04-13T18:00:00	23.1	ND	ND	ND	1.03	24.71	ND	ND	ND	ND	ND	0
63188	2017-04-13T19:00:00	21.8	ND	ND	ND	0.50	22.59	ND	ND	ND	ND	ND	0
63189	2017-04-13T20:00:00	10.6	ND	ND	ND	0.82	19.90	ND	ND	ND	ND	ND	0
63190	2017-04-13T21:00:00	7.2	ND	ND	ND	0.43	17.05	ND	ND	ND	ND	ND	11.43
63191	2017-04-13T22:00:00	10.2	ND	ND	ND	0.54	20.74	ND	ND	ND	ND	ND	2.29
63192	2017-04-13T23:00:00	17.6	ND	ND	ND	0.84	16.43	ND	ND	ND	ND	ND	0.25
63193	2017-04-14T00:00:00	9.4	ND	ND	ND	0.47	19.51	ND	ND	ND	ND	ND	1.52
63194	2017-04-14T01:00:00	8.1	ND	ND	ND	0.91	21.21	ND	ND	ND	ND	ND	0
63195	2017-04-14T02:00:00	4	ND	ND	ND	0.57	13.60	ND	ND	ND	ND	ND	0
63196	2017-04-14T03:00:00	12	ND	ND	ND	0.85	15.74	ND	ND	ND	ND	ND	10.16
63197	2017-04-14T04:00:00	15.7	ND	ND	ND	1.05	12.46	ND	ND	ND	ND	ND	2.29
63198	2017-04-14T05:00:00	15.5	ND	ND	ND	0.89	6.18	ND	ND	ND	ND	ND	0.76
63199	2017-04-14T06:00:00	22.3	ND	ND	ND	0.59	3.16	ND	ND	ND	ND	ND	0.51
63200	2017-04-14T07:00:00	30.4	ND	ND	ND	0.77	3.77	ND	ND	ND	ND	ND	1.27
63201	2017-04-14T08:00:00	17.5	ND	ND	ND	2.04	4.59	ND	ND	ND	ND	ND	6.6
63202	2017-04-14T09:00:00	10.6	ND	ND	ND	3.64	9.42	ND	ND	ND	ND	ND	0.25
63203	2017-04-14T10:00:00	22.1	ND	ND	ND	2.52	24.69	ND	ND	ND	ND	ND	0
63204	2017-04-14T11:00:00	17.2	ND	ND	ND	1.56	43.17	ND	ND	ND	ND	ND	0
63205	2017-04-14T12:00:00	19.9	ND	ND	ND	0.72	52.77	ND	ND	ND	ND	ND	0
63206	2017-04-14T13:00:00	21.6	ND	ND	ND	1.37	42.72	ND	ND	ND	ND	ND	0
63207	2017-04-14T14:00:00	19.4	ND	ND	ND	1.00	36.97	ND	ND	ND	ND	ND	0
63208	2017-04-14T15:00:00	10.7	ND	ND	ND	0.91	27.02	ND	ND	ND	ND	ND	0
63209	2017-04-14T16:00:00	14.5	ND	ND	ND	0.82	28.94	ND	ND	ND	ND	ND	0
63210	2017-04-14T17:00:00	16	ND	ND	ND	1.37	25.82	ND	ND	ND	ND	ND	0
63211	2017-04-14T18:00:00	21.9	ND	ND	ND	0.26	14.31	ND	ND	ND	ND	ND	0
63212	2017-04-14T19:00:00	20.7	ND	ND	ND	0.35	8.20	ND	ND	ND	ND	ND	0
63213	2017-04-14T20:00:00	16.5	ND	ND	ND	1.31	2.85	ND	ND	ND	ND	ND	0
63214	2017-04-14T21:00:00	24.2	ND	ND	ND	0.82	1.92	ND	ND	ND	ND	ND	0
63215	2017-04-14T22:00:00	33.7	ND	ND	ND	0.68	1.02	ND	ND	ND	ND	ND	0
63216	2017-04-14T23:00:00	28.6	ND	ND	ND	0.63	1.28	ND	ND	ND	ND	ND	0
63217	2017-04-15T00:00:00	30.6	ND	ND	ND	0.25	0.96	ND	ND	ND	ND	ND	0
63218	2017-04-15T01:00:00	36.2	ND	ND	ND	1.24	0.73	ND	ND	ND	ND	ND	0
63219	2017-04-15T02:00:00	18.9	ND	ND	ND	1.24	0.71	ND	ND	ND	ND	ND	0
63220	2017-04-15T03:00:00	30.1	ND	ND	ND	2.80	1.02	ND	ND	ND	ND	ND	0
63221	2017-04-15T04:00:00	34.5	ND	ND	ND	3.32	1.55	ND	ND	ND	ND	ND	0
63222	2017-04-15T05:00:00	34.7	ND	ND	ND	1.64	1.10	ND	ND	ND	ND	ND	0
63223	2017-04-15T06:00:00	ND	ND	ND	ND	ND	ND	ND	ND	ND	ND	ND	ND
63224	2017-04-15T07:00:00	ND	ND	ND	ND	0.71	0.24	ND	ND	ND	ND	ND	0
63225	2017-04-15T08:00:00	30.9	ND	ND	ND	3.14	1.14	ND	ND	ND	ND	ND	0
63226	2017-04-15T09:00:00	81.8	ND	ND	ND	2.66	5.79	ND	ND	ND	ND	ND	0
63227	2017-04-15T10:00:00	73.5	ND	ND	ND	2.86	20.74	ND	ND	ND	ND	ND	0
63228	2017-04-15T11:00:00	67.4	ND	ND	ND	1.48	44.74	ND	ND	ND	ND	ND	0
63229	2017-04-15T12:00:00	69.7	ND	ND	ND	1.24	60.99	ND	ND	ND	ND	ND	0
63230	2017-04-15T13:00:00	58.5	ND	ND	ND	1.12	86.78	ND	ND	ND	ND	ND	0
63231	2017-04-15T14:00:00	54.7	ND	ND	ND	1.13	105.50	ND	ND	ND	ND	ND	0
63232	2017-04-15T15:00:00	45.1	ND	ND	ND	0.99	84.44	ND	ND	ND	ND	ND	0
63233	2017-04-15T16:00:00	60.5	ND	ND	ND	1.10	85.36	ND	ND	ND	ND	ND	0
63234	2017-04-15T17:00:00	42.5	ND	ND	ND	1.00	19.74	ND	ND	ND	ND	ND	0
63235	2017-04-15T18:00:00	16.5	ND	ND	ND	1.03	17.11	ND	ND	ND	ND	ND	0
63236	2017-04-15T19:00:00	15.7	ND	ND	ND	0.88	11.44	ND	ND	ND	ND	ND	0
63237	2017-04-15T20:00:00	11.3	ND	ND	ND	0.78	11.30	ND	ND	ND	ND	ND	0
63238	2017-04-15T21:00:00	20.3	ND	ND	ND	0.99	8.95	ND	ND	ND	ND	ND	0
63239	2017-04-15T22:00:00	18.2	ND	ND	ND	1.09	5.59	ND	ND	ND	ND	ND	0
63240	2017-04-15T23:00:00	37.3	ND	ND	ND	1.44	4.32	ND	ND	ND	ND	ND	0
63241	2017-04-16T00:00:00	38.7	ND	ND	ND	1.13	3.18	ND	ND	ND	ND	ND	0
63242	2017-04-16T01:00:00	36.5	ND	ND	ND	0.71	2.35	ND	ND	ND	ND	ND	0
63243	2017-04-16T02:00:00	39	ND	ND	ND	1.31	2.18	ND	ND	ND	ND	ND	0
63244	2017-04-16T03:00:00	40	ND	ND	ND	1.07	2.63	ND	ND	ND	ND	ND	0
63245	2017-04-16T04:00:00	34	ND	ND	ND	2.59	1.57	ND	ND	ND	ND	ND	0
63246	2017-04-16T05:00:00	35.5	ND	ND	ND	1.92	1.73	ND	ND	ND	ND	ND	0
63247	2017-04-16T06:00:00	39.2	ND	ND	ND	0.85	1.61	ND	ND	ND	ND	ND	0
63248	2017-04-16T07:00:00	53.8	ND	ND	ND	2.29	2.32	ND	ND	ND	ND	ND	22.86
63249	2017-04-16T08:00:00	36.8	ND	ND	ND	1.83	4.10	ND	ND	ND	ND	ND	0.25
63250	2017-04-16T09:00:00	53	ND	ND	ND	1.24	11.07	ND	ND	ND	ND	ND	0.25
63251	2017-04-16T10:00:00	61.3	ND	ND	ND	1.76	25.57	ND	ND	ND	ND	ND	0
63252	2017-04-16T11:00:00	49.7	ND	ND	ND	1.05	30.14	ND	ND	ND	ND	ND	0
63253	2017-04-16T12:00:00	37.4	ND	ND	ND	0.85	40.01	ND	ND	ND	ND	ND	0
63254	2017-04-16T13:00:00	35	ND	ND	ND	1.18	52.18	ND	ND	ND	ND	ND	0
63255	2017-04-16T14:00:00	30.6	ND	ND	ND	1.23	61.64	ND	ND	ND	ND	ND	0
63256	2017-04-16T15:00:00	24.7	ND	ND	ND	0.71	47.23	ND	ND	ND	ND	ND	0
63257	2017-04-16T16:00:00	18.3	ND	ND	ND	0.95	39.58	ND	ND	ND	ND	ND	0
63258	2017-04-16T17:00:00	29	ND	ND	ND	1.34	23.80	ND	ND	ND	ND	ND	0
63259	2017-04-16T18:00:00	39.7	ND	ND	ND	0.46	15.76	ND	ND	ND	ND	ND	0
63260	2017-04-16T19:00:00	11.9	ND	ND	ND	0.81	15.19	ND	ND	ND	ND	ND	0
63261	2017-04-16T20:00:00	5.9	ND	ND	ND	0.86	12.11	ND	ND	ND	ND	ND	0
63262	2017-04-16T21:00:00	14.7	ND	ND	ND	0.86	7.89	ND	ND	ND	ND	ND	0
63263	2017-04-16T22:00:00	32.4	ND	ND	ND	1.38	1.98	ND	ND	ND	ND	ND	0
63264	2017-04-16T23:00:00	40.8	ND	ND	ND	1.58	5.85	ND	ND	ND	ND	ND	0
63265	2017-04-17T00:00:00	35.7	ND	ND	ND	1.23	3.28	ND	ND	ND	ND	ND	0.25
63266	2017-04-17T01:00:00	33	ND	ND	ND	0.64	10.58	ND	ND	ND	ND	ND	13.46
63267	2017-04-17T02:00:00	10.2	ND	ND	ND	1.17	6.28	ND	ND	ND	ND	ND	7.62
63268	2017-04-17T03:00:00	19.1	ND	ND	ND	1.27	6.46	ND	ND	ND	ND	ND	1.27
63269	2017-04-17T04:00:00	6.9	ND	ND	ND	1.44	2.96	ND	ND	ND	ND	ND	12.7
63270	2017-04-17T05:00:00	2	ND	ND	ND	0.77	3.12	ND	ND	ND	ND	ND	8.64
63271	2017-04-17T06:00:00	8.1	ND	ND	ND	0.79	2.41	ND	ND	ND	ND	ND	3.3
63272	2017-04-17T07:00:00	6.6	ND	ND	ND	1.02	1.30	ND	ND	ND	ND	ND	5.33
63273	2017-04-17T08:00:00	19.7	ND	ND	ND	2.06	1.37	ND	ND	ND	ND	ND	4.83
63274	2017-04-17T09:00:00	22.7	ND	ND	ND	1.03	2.43	ND	ND	ND	ND	ND	0.51
63275	2017-04-17T10:00:00	35.1	ND	ND	ND	0.91	4.47	ND	ND	ND	ND	ND	0
63276	2017-04-17T11:00:00	39.7	ND	ND	ND	0.68	17.66	ND	ND	ND	ND	ND	0
63277	2017-04-17T12:00:00	41.9	ND	ND	ND	1.27	53.75	ND	ND	ND	ND	ND	0
63278	2017-04-17T13:00:00	49	ND	ND	ND	1.34	79.24	ND	ND	ND	ND	ND	0
63279	2017-04-17T14:00:00	62.4	ND	ND	ND	1.91	68.88	ND	ND	ND	ND	ND	0
63280	2017-04-17T15:00:00	61.1	ND	ND	ND	1.28	30.75	ND	ND	ND	ND	ND	1.78
63281	2017-04-17T16:00:00	49.9	ND	ND	ND	0.64	7.69	ND	ND	ND	ND	ND	1.27
63282	2017-04-17T17:00:00	30.1	ND	ND	ND	0.42	3.20	ND	ND	ND	ND	ND	6.6
63283	2017-04-17T18:00:00	32.2	ND	ND	ND	2.44	2.51	ND	ND	ND	ND	ND	0
63284	2017-04-17T19:00:00	29.7	ND	ND	ND	6.55	2.16	ND	ND	ND	ND	ND	0
63285	2017-04-17T20:00:00	47.3	ND	ND	ND	3.01	2.22	ND	ND	ND	ND	ND	0.25
63286	2017-04-17T21:00:00	50.8	ND	ND	ND	1.69	1.94	ND	ND	ND	ND	ND	0.25
63287	2017-04-17T22:00:00	27.6	ND	ND	ND	0.98	1.94	ND	ND	ND	ND	ND	4.83
63288	2017-04-17T23:00:00	23.7	ND	ND	ND	0.95	1.35	ND	ND	ND	ND	ND	0.76
63289	2017-04-18T00:00:00	17.7	ND	ND	ND	1.17	1.73	ND	ND	ND	ND	ND	0.76
63290	2017-04-18T01:00:00	9.2	ND	ND	ND	1.09	1.31	ND	ND	ND	ND	ND	0.76
63291	2017-04-18T02:00:00	5.5	ND	ND	ND	0.75	1.22	ND	ND	ND	ND	ND	0.76
63292	2017-04-18T03:00:00	16.1	ND	ND	ND	1.64	1.65	ND	ND	ND	ND	ND	0.25
63293	2017-04-18T04:00:00	24.9	ND	ND	ND	2.93	1.28	ND	ND	ND	ND	ND	0
63294	2017-04-18T05:00:00	36.7	ND	ND	ND	1.48	1.22	ND	ND	ND	ND	ND	0
63295	2017-04-18T06:00:00	26	ND	ND	ND	1.83	1.18	ND	ND	ND	ND	ND	0.51
63296	2017-04-18T07:00:00	16.7	ND	ND	ND	0.43	1.28	ND	ND	ND	ND	ND	1.27
63297	2017-04-18T08:00:00	34.6	ND	ND	ND	0.74	2.92	ND	ND	ND	ND	ND	0.25
63298	2017-04-18T09:00:00	58.9	ND	ND	ND	0.82	7.71	ND	ND	ND	ND	ND	0
63299	2017-04-18T10:00:00	52.9	ND	ND	ND	0.82	42.82	ND	ND	ND	ND	ND	0
63300	2017-04-18T11:00:00	32.9	ND	ND	ND	0.75	63.01	ND	ND	ND	ND	ND	0
63301	2017-04-18T12:00:00	69.7	ND	ND	ND	1.37	46.80	ND	ND	ND	ND	ND	0
63302	2017-04-18T13:00:00	64.3	ND	ND	ND	0.81	53.36	ND	ND	ND	ND	ND	0
63303	2017-04-18T14:00:00	108.3	ND	ND	ND	1.16	50.28	ND	ND	ND	ND	ND	0
63304	2017-04-18T15:00:00	140.3	ND	ND	ND	0.11	28.73	ND	ND	ND	ND	ND	0
63305	2017-04-18T16:00:00	84	ND	ND	ND	0.00	10.20	ND	ND	ND	ND	ND	0
63306	2017-04-18T17:00:00	17.4	ND	ND	ND	ND	2.81	ND	ND	ND	ND	ND	0
63307	2017-04-18T18:00:00	27.9	ND	ND	ND	0.99	1.10	ND	ND	ND	ND	ND	0
63308	2017-04-18T19:00:00	39.6	ND	ND	ND	0.95	0.00	ND	ND	ND	ND	ND	0
63309	2017-04-18T20:00:00	38.4	ND	ND	ND	0.40	0.18	ND	ND	ND	ND	ND	0
63310	2017-04-18T21:00:00	62.9	ND	ND	ND	1.24	5.20	ND	ND	ND	ND	ND	6.1
63311	2017-04-18T22:00:00	17.2	ND	ND	ND	1.06	8.87	ND	ND	ND	ND	ND	1.78
63312	2017-04-18T23:00:00	2.7	ND	ND	ND	0.79	0.39	ND	ND	ND	ND	ND	0
63313	2017-04-19T00:00:00	19.2	ND	ND	ND	0.53	1.04	ND	ND	ND	ND	ND	2.29
63314	2017-04-19T01:00:00	20.2	ND	ND	ND	1.41	0.98	ND	ND	ND	ND	ND	2.79
63315	2017-04-19T02:00:00	16	ND	ND	ND	0.49	1.35	ND	ND	ND	ND	ND	2.03
63316	2017-04-19T03:00:00	7.6	ND	ND	ND	0.47	2.41	ND	ND	ND	ND	ND	0.76
63317	2017-04-19T04:00:00	10.4	ND	ND	ND	0.78	1.51	ND	ND	ND	ND	ND	0.25
63318	2017-04-19T05:00:00	16.4	ND	ND	ND	1.34	0.51	ND	ND	ND	ND	ND	0
63319	2017-04-19T06:00:00	26	ND	ND	ND	1.00	0.29	ND	ND	ND	ND	ND	0
63320	2017-04-19T07:00:00	28	ND	ND	ND	1.30	0.06	ND	ND	ND	ND	ND	0
63321	2017-04-19T08:00:00	35.3	ND	ND	ND	1.78	0.06	ND	ND	ND	ND	ND	2.29
63322	2017-04-19T09:00:00	31.9	ND	ND	ND	0.78	0.16	ND	ND	ND	ND	ND	2.03
63323	2017-04-19T10:00:00	28.1	ND	ND	ND	ND	ND	ND	ND	ND	ND	ND	1.78
63324	2017-04-19T11:00:00	2.4	ND	ND	ND	ND	14.76	ND	ND	ND	ND	ND	0.25
63325	2017-04-19T12:00:00	55	ND	ND	ND	ND	40.29	ND	ND	ND	ND	ND	0
63326	2017-04-19T13:00:00	65.1	ND	ND	ND	ND	80.01	ND	ND	ND	ND	ND	0
63327	2017-04-19T14:00:00	57.6	ND	ND	ND	ND	117.04	ND	ND	ND	ND	ND	0
63328	2017-04-19T15:00:00	63.7	ND	ND	ND	ND	95.23	ND	ND	ND	ND	ND	0
63329	2017-04-19T16:00:00	63.2	ND	ND	ND	0.32	39.19	ND	ND	ND	ND	ND	0
63330	2017-04-19T17:00:00	36.5	ND	ND	ND	ND	23.04	ND	ND	ND	ND	ND	0
63331	2017-04-19T18:00:00	39.7	ND	ND	ND	0.33	8.42	ND	ND	ND	ND	ND	0
63332	2017-04-19T19:00:00	30.9	ND	ND	ND	0.89	2.18	ND	ND	ND	ND	ND	0
63333	2017-04-19T20:00:00	55	ND	ND	ND	1.41	0.69	ND	ND	ND	ND	ND	0
63334	2017-04-19T21:00:00	49.5	ND	ND	ND	1.17	1.90	ND	ND	ND	ND	ND	0
63335	2017-04-19T22:00:00	49.8	ND	ND	ND	0.77	3.26	ND	ND	ND	ND	ND	0
63336	2017-04-19T23:00:00	46.5	ND	ND	ND	1.46	3.38	ND	ND	ND	ND	ND	0
63337	2017-04-20T00:00:00	42.5	ND	ND	ND	0.57	3.98	ND	ND	ND	ND	ND	0
63338	2017-04-20T01:00:00	25.6	ND	ND	ND	1.24	3.53	ND	ND	ND	ND	ND	0
63339	2017-04-20T02:00:00	14.3	ND	ND	ND	0.95	4.85	ND	ND	ND	ND	ND	0
63340	2017-04-20T03:00:00	13.6	ND	ND	ND	1.66	2.71	ND	ND	ND	ND	ND	0
63341	2017-04-20T04:00:00	35	ND	ND	ND	1.27	2.69	ND	ND	ND	ND	ND	0
63342	2017-04-20T05:00:00	36.7	ND	ND	ND	3.53	1.51	ND	ND	ND	ND	ND	0
63343	2017-04-20T06:00:00	64.1	ND	ND	ND	3.54	1.94	ND	ND	ND	ND	ND	0
63344	2017-04-20T07:00:00	66.4	ND	ND	ND	0.74	1.30	ND	ND	ND	ND	ND	0
63345	2017-04-20T08:00:00	70.4	ND	ND	ND	0.63	2.41	ND	ND	ND	ND	ND	0
63346	2017-04-20T09:00:00	89	ND	ND	ND	ND	5.36	ND	ND	ND	ND	ND	0
63347	2017-04-20T10:00:00	77.9	ND	ND	ND	0.26	15.25	ND	ND	ND	ND	ND	0
63348	2017-04-20T11:00:00	74	ND	ND	ND	ND	19.33	ND	ND	ND	ND	ND	0
63349	2017-04-20T12:00:00	55.4	ND	ND	ND	ND	25.00	ND	ND	ND	ND	ND	0
63350	2017-04-20T13:00:00	50.3	ND	ND	ND	ND	14.34	ND	ND	ND	ND	ND	3.56
63351	2017-04-20T14:00:00	46.2	ND	ND	ND	ND	7.50	ND	ND	ND	ND	ND	0.25
63352	2017-04-20T15:00:00	49.8	ND	ND	ND	ND	3.36	ND	ND	ND	ND	ND	0
63353	2017-04-20T16:00:00	40.6	ND	ND	ND	ND	5.14	ND	ND	ND	ND	ND	0.25
63354	2017-04-20T17:00:00	38.7	ND	ND	ND	1.87	2.94	ND	ND	ND	ND	ND	29.72
63355	2017-04-20T18:00:00	25.9	ND	ND	ND	1.59	1.65	ND	ND	ND	ND	ND	14.48
63356	2017-04-20T19:00:00	20.2	ND	ND	ND	1.39	1.18	ND	ND	ND	ND	ND	10.41
63357	2017-04-20T20:00:00	3.9	ND	ND	ND	0.68	0.29	ND	ND	ND	ND	ND	1.78
63358	2017-04-20T21:00:00	12.3	ND	ND	ND	0.88	0.26	ND	ND	ND	ND	ND	0
63359	2017-04-20T22:00:00	10.5	ND	ND	ND	0.75	0.24	ND	ND	ND	ND	ND	0.25
63360	2017-04-20T23:00:00	16.6	ND	ND	ND	0.74	0.26	ND	ND	ND	ND	ND	0
63361	2017-04-21T00:00:00	19.3	ND	ND	ND	1.10	0.16	ND	ND	ND	ND	ND	0
63362	2017-04-21T01:00:00	19.6	ND	ND	ND	0.91	0.22	ND	ND	ND	ND	ND	0
63363	2017-04-21T02:00:00	20.6	ND	ND	ND	1.30	0.31	ND	ND	ND	ND	ND	0
63364	2017-04-21T03:00:00	10.9	ND	ND	ND	1.09	0.16	ND	ND	ND	ND	ND	0
63365	2017-04-21T04:00:00	16.5	ND	ND	ND	0.88	0.20	ND	ND	ND	ND	ND	0
63366	2017-04-21T05:00:00	38.4	ND	ND	ND	1.87	0.31	ND	ND	ND	ND	ND	0.25
63367	2017-04-21T06:00:00	56.1	ND	ND	ND	3.15	1.12	ND	ND	ND	ND	ND	0
63368	2017-04-21T07:00:00	81.2	ND	ND	ND	2.68	2.02	ND	ND	ND	ND	ND	0
63369	2017-04-21T08:00:00	101	ND	ND	ND	1.21	3.10	ND	ND	ND	ND	ND	0
63370	2017-04-21T09:00:00	98.7	ND	ND	ND	0.43	7.54	ND	ND	ND	ND	ND	0
63371	2017-04-21T10:00:00	96.6	ND	ND	ND	ND	20.41	ND	ND	ND	ND	ND	0
63372	2017-04-21T11:00:00	91.2	ND	ND	ND	0.26	24.10	ND	ND	ND	ND	ND	0
63373	2017-04-21T12:00:00	64.4	ND	ND	ND	ND	32.42	ND	ND	ND	ND	ND	0
63374	2017-04-21T13:00:00	60	ND	ND	ND	ND	51.18	ND	ND	ND	ND	ND	0
63375	2017-04-21T14:00:00	50.8	ND	ND	ND	ND	79.53	ND	ND	ND	ND	ND	0
63376	2017-04-21T15:00:00	45.2	ND	ND	ND	ND	62.29	ND	ND	ND	ND	ND	0
63377	2017-04-21T16:00:00	48.6	ND	ND	ND	ND	52.14	ND	ND	ND	ND	ND	0
63378	2017-04-21T17:00:00	46.3	ND	ND	ND	ND	41.01	ND	ND	ND	ND	ND	0
63379	2017-04-21T18:00:00	56.4	ND	ND	ND	0.40	32.05	ND	ND	ND	ND	ND	0
63380	2017-04-21T19:00:00	80.5	ND	ND	ND	1.05	6.93	ND	ND	ND	ND	ND	0
63381	2017-04-21T20:00:00	106.8	ND	ND	ND	0.60	5.87	ND	ND	ND	ND	ND	0
63382	2017-04-21T21:00:00	126	ND	ND	ND	1.49	3.67	ND	ND	ND	ND	ND	0
63383	2017-04-21T22:00:00	78.2	ND	ND	ND	1.85	0.92	ND	ND	ND	ND	ND	0
63384	2017-04-21T23:00:00	38	ND	ND	ND	1.24	2.16	ND	ND	ND	ND	ND	0
63385	2017-04-22T00:00:00	52.1	ND	ND	ND	1.64	0.84	ND	ND	ND	ND	ND	0
63386	2017-04-22T01:00:00	32.9	ND	ND	ND	0.91	2.00	ND	ND	ND	ND	ND	0
63387	2017-04-22T02:00:00	29.5	ND	ND	ND	1.34	1.98	ND	ND	ND	ND	ND	0
63388	2017-04-22T03:00:00	45.7	ND	ND	ND	1.70	2.73	ND	ND	ND	ND	ND	0
63389	2017-04-22T04:00:00	78.2	ND	ND	ND	2.96	3.08	ND	ND	ND	ND	ND	0
63390	2017-04-22T05:00:00	109.9	ND	ND	ND	3.76	4.67	ND	ND	ND	ND	ND	0
63391	2017-04-22T06:00:00	123.8	ND	ND	ND	4.84	5.63	ND	ND	ND	ND	ND	0
63392	2017-04-22T07:00:00	120.3	ND	ND	ND	4.39	4.95	ND	ND	ND	ND	ND	0
63393	2017-04-22T08:00:00	105.8	ND	ND	ND	4.35	6.97	ND	ND	ND	ND	ND	0
63394	2017-04-22T09:00:00	124.7	ND	ND	ND	4.28	26.30	ND	ND	ND	ND	ND	0
63395	2017-04-22T10:00:00	129.2	ND	ND	ND	0.38	61.03	ND	ND	ND	ND	ND	0
63396	2017-04-22T11:00:00	95.7	ND	ND	ND	ND	78.83	ND	ND	ND	ND	ND	0
63397	2017-04-22T12:00:00	62.9	ND	ND	ND	ND	70.67	ND	ND	ND	ND	ND	0
63398	2017-04-22T13:00:00	37.3	ND	ND	ND	ND	75.88	ND	ND	ND	ND	ND	0
63399	2017-04-22T14:00:00	48.7	ND	ND	ND	ND	101.32	ND	ND	ND	ND	ND	0
63400	2017-04-22T15:00:00	49.4	ND	ND	ND	ND	99.98	ND	ND	ND	ND	ND	0
63401	2017-04-22T16:00:00	64	ND	ND	ND	0.26	95.69	ND	ND	ND	ND	ND	0
63402	2017-04-22T17:00:00	43.2	ND	ND	ND	ND	53.10	ND	ND	ND	ND	ND	0
63403	2017-04-22T18:00:00	34	ND	ND	ND	ND	17.56	ND	ND	ND	ND	ND	0
63404	2017-04-22T19:00:00	21	ND	ND	ND	0.84	9.89	ND	ND	ND	ND	ND	0
63405	2017-04-22T20:00:00	19	ND	ND	ND	0.74	7.16	ND	ND	ND	ND	ND	0
63406	2017-04-22T21:00:00	27.5	ND	ND	ND	1.09	5.26	ND	ND	ND	ND	ND	0
63407	2017-04-22T22:00:00	43.7	ND	ND	ND	1.24	1.67	ND	ND	ND	ND	ND	0
63408	2017-04-22T23:00:00	48.4	ND	ND	ND	1.05	1.31	ND	ND	ND	ND	ND	0
63409	2017-04-23T00:00:00	45.6	ND	ND	ND	1.62	0.84	ND	ND	ND	ND	ND	0
63410	2017-04-23T01:00:00	84.3	ND	ND	ND	1.42	1.86	ND	ND	ND	ND	ND	0
63411	2017-04-23T02:00:00	83.1	ND	ND	ND	1.56	1.69	ND	ND	ND	ND	ND	0
63412	2017-04-23T03:00:00	69.2	ND	ND	ND	3.40	0.90	ND	ND	ND	ND	ND	0
63413	2017-04-23T04:00:00	63.3	ND	ND	ND	1.27	0.57	ND	ND	ND	ND	ND	0
63414	2017-04-23T05:00:00	55.8	ND	ND	ND	1.27	0.47	ND	ND	ND	ND	ND	0
63415	2017-04-23T06:00:00	57.4	ND	ND	ND	3.81	0.90	ND	ND	ND	ND	ND	0
63416	2017-04-23T07:00:00	72.2	ND	ND	ND	2.12	2.39	ND	ND	ND	ND	ND	0
63417	2017-04-23T08:00:00	77	ND	ND	ND	1.60	6.95	ND	ND	ND	ND	ND	0
63418	2017-04-23T09:00:00	98.6	ND	ND	ND	4.22	26.22	ND	ND	ND	ND	ND	0
63419	2017-04-23T10:00:00	74.8	ND	ND	ND	1.98	51.39	ND	ND	ND	ND	ND	0
63420	2017-04-23T11:00:00	36.4	ND	ND	ND	ND	78.24	ND	ND	ND	ND	ND	0
63421	2017-04-23T12:00:00	33.6	ND	ND	ND	ND	85.32	ND	ND	ND	ND	ND	0
63422	2017-04-23T13:00:00	50.5	ND	ND	ND	0.46	72.88	ND	ND	ND	ND	ND	0
63423	2017-04-23T14:00:00	57.5	ND	ND	ND	ND	80.97	ND	ND	ND	ND	ND	0
63424	2017-04-23T15:00:00	52.2	ND	ND	ND	ND	63.46	ND	ND	ND	ND	ND	0
63425	2017-04-23T16:00:00	39.5	ND	ND	ND	ND	19.98	ND	ND	ND	ND	ND	0
63426	2017-04-23T17:00:00	21.5	ND	ND	ND	ND	17.07	ND	ND	ND	ND	ND	0
63427	2017-04-23T18:00:00	22.6	ND	ND	ND	0.84	13.01	ND	ND	ND	ND	ND	0
63428	2017-04-23T19:00:00	16.7	ND	ND	ND	0.63	13.68	ND	ND	ND	ND	ND	0
63429	2017-04-23T20:00:00	23.5	ND	ND	ND	0.59	13.07	ND	ND	ND	ND	ND	0
63430	2017-04-23T21:00:00	17.3	ND	ND	ND	0.82	15.01	ND	ND	ND	ND	ND	0
63431	2017-04-23T22:00:00	15.7	ND	ND	ND	0.96	10.95	ND	ND	ND	ND	ND	0
63432	2017-04-23T23:00:00	23.2	ND	ND	ND	1.13	5.00	ND	ND	ND	ND	ND	0
63433	2017-04-24T00:00:00	32.5	ND	ND	ND	0.50	7.56	ND	ND	ND	ND	ND	0
63434	2017-04-24T01:00:00	35.7	ND	ND	ND	2.06	5.49	ND	ND	ND	ND	ND	0
63435	2017-04-24T02:00:00	30.8	ND	ND	ND	0.92	2.85	ND	ND	ND	ND	ND	0
63436	2017-04-24T03:00:00	32.7	ND	ND	ND	1.20	5.83	ND	ND	ND	ND	ND	0
63437	2017-04-24T04:00:00	28.5	ND	ND	ND	1.94	7.89	ND	ND	ND	ND	ND	0
63438	2017-04-24T05:00:00	19.9	ND	ND	ND	1.83	6.81	ND	ND	ND	ND	ND	0
63439	2017-04-24T06:00:00	29.3	ND	ND	ND	0.61	2.55	ND	ND	ND	ND	ND	0
63440	2017-04-24T07:00:00	54.6	ND	ND	ND	0.36	1.79	ND	ND	ND	ND	ND	0
63441	2017-04-24T08:00:00	76.3	ND	ND	ND	2.90	3.77	ND	ND	ND	ND	ND	0
63442	2017-04-24T09:00:00	84.5	ND	ND	ND	1.05	9.07	ND	ND	ND	ND	ND	0
63443	2017-04-24T10:00:00	93.4	ND	ND	ND	0.85	24.55	ND	ND	ND	ND	ND	0
63444	2017-04-24T11:00:00	81.5	ND	ND	ND	1.74	17.64	ND	ND	ND	ND	ND	0
63445	2017-04-24T12:00:00	75	ND	ND	ND	ND	22.43	ND	ND	ND	ND	ND	0
63446	2017-04-24T13:00:00	65.4	ND	ND	ND	ND	15.56	ND	ND	ND	ND	ND	0
63447	2017-04-24T14:00:00	72.6	ND	ND	ND	0.42	20.98	ND	ND	ND	ND	ND	0
63448	2017-04-24T15:00:00	62.1	ND	ND	ND	ND	21.41	ND	ND	ND	ND	ND	0
63449	2017-04-24T16:00:00	47.4	ND	ND	ND	ND	17.47	ND	ND	ND	ND	ND	0
63450	2017-04-24T17:00:00	46.7	ND	ND	ND	ND	12.72	ND	ND	ND	ND	ND	0
63451	2017-04-24T18:00:00	29.2	ND	ND	ND	ND	8.67	ND	ND	ND	ND	ND	0
63452	2017-04-24T19:00:00	15.3	ND	ND	ND	0.88	2.98	ND	ND	ND	ND	ND	0
63453	2017-04-24T20:00:00	21.1	ND	ND	ND	0.68	0.86	ND	ND	ND	ND	ND	0
63454	2017-04-24T21:00:00	33	ND	ND	ND	0.60	3.49	ND	ND	ND	ND	ND	0
63455	2017-04-24T22:00:00	15.2	ND	ND	ND	0.82	2.83	ND	ND	ND	ND	ND	0
63456	2017-04-24T23:00:00	48.9	ND	ND	ND	2.31	0.69	ND	ND	ND	ND	ND	0
63457	2017-04-25T00:00:00	29.4	ND	ND	ND	1.37	2.53	ND	ND	ND	ND	ND	0
63458	2017-04-25T01:00:00	27	ND	ND	ND	1.27	0.41	ND	ND	ND	ND	ND	0
63459	2017-04-25T02:00:00	37.6	ND	ND	ND	2.70	0.78	ND	ND	ND	ND	ND	0
63460	2017-04-25T03:00:00	28	ND	ND	ND	1.64	0.88	ND	ND	ND	ND	ND	0
63461	2017-04-25T04:00:00	28.7	ND	ND	ND	1.73	1.22	ND	ND	ND	ND	ND	0
63462	2017-04-25T05:00:00	29.2	ND	ND	ND	2.44	0.90	ND	ND	ND	ND	ND	0
63463	2017-04-25T06:00:00	46.7	ND	ND	ND	2.68	1.37	ND	ND	ND	ND	ND	0
63464	2017-04-25T07:00:00	70.6	ND	ND	ND	3.62	3.73	ND	ND	ND	ND	ND	0
63465	2017-04-25T08:00:00	89.2	ND	ND	ND	ND	5.46	ND	ND	ND	ND	ND	0
63466	2017-04-25T09:00:00	185.3	ND	ND	ND	ND	9.26	ND	ND	ND	ND	ND	0
63467	2017-04-25T10:00:00	ND	ND	ND	ND	ND	ND	ND	ND	ND	ND	ND	0
63468	2017-04-25T11:00:00	68.1	ND	ND	ND	0.17	97.79	ND	ND	ND	ND	ND	0
63469	2017-04-25T12:00:00	33.1	ND	ND	ND	4.77	50.16	ND	ND	ND	ND	ND	0
63470	2017-04-25T13:00:00	55	ND	ND	ND	0.21	24.20	ND	ND	ND	ND	ND	0
63471	2017-04-25T14:00:00	45.5	ND	ND	ND	1.58	10.89	ND	ND	ND	ND	ND	0
63472	2017-04-25T15:00:00	37	ND	ND	ND	ND	12.26	ND	ND	ND	ND	ND	0
63473	2017-04-25T16:00:00	43.9	ND	ND	ND	2.06	14.33	ND	ND	ND	ND	ND	0
63474	2017-04-25T17:00:00	22.7	ND	ND	ND	2.01	12.25	ND	ND	ND	ND	ND	0
63475	2017-04-25T18:00:00	15.3	ND	ND	ND	2.41	8.87	ND	ND	ND	ND	ND	0
63476	2017-04-25T19:00:00	24	ND	ND	ND	2.63	6.32	ND	ND	ND	ND	ND	0
63477	2017-04-25T20:00:00	23.8	ND	ND	ND	3.68	5.20	ND	ND	ND	ND	ND	0
63478	2017-04-25T21:00:00	21.9	ND	ND	ND	4.59	1.41	ND	ND	ND	ND	ND	0
63479	2017-04-25T22:00:00	33	ND	ND	ND	4.34	3.39	ND	ND	ND	ND	ND	0
63480	2017-04-25T23:00:00	53.9	ND	ND	ND	6.20	1.73	ND	ND	ND	ND	ND	0
63481	2017-04-26T00:00:00	43.9	ND	ND	ND	7.50	2.83	ND	ND	ND	ND	ND	0
63482	2017-04-26T01:00:00	38.9	ND	ND	ND	5.66	3.41	ND	ND	ND	ND	ND	0
63483	2017-04-26T02:00:00	32.5	ND	ND	ND	7.07	3.59	ND	ND	ND	ND	ND	0
63484	2017-04-26T03:00:00	23.6	ND	ND	ND	5.59	7.18	ND	ND	ND	ND	ND	0
63485	2017-04-26T04:00:00	21.8	ND	ND	ND	2.79	13.30	ND	ND	ND	ND	ND	10.67
63486	2017-04-26T05:00:00	13.1	ND	ND	ND	3.23	12.40	ND	ND	ND	ND	ND	5.08
63487	2017-04-26T06:00:00	3.8	ND	ND	ND	4.50	6.10	ND	ND	ND	ND	ND	6.35
63488	2017-04-26T07:00:00	7.3	ND	ND	ND	2.98	2.59	ND	ND	ND	ND	ND	14.73
63489	2017-04-26T08:00:00	18.9	ND	ND	ND	3.57	2.39	ND	ND	ND	ND	ND	2.79
63490	2017-04-26T09:00:00	21.9	ND	ND	ND	3.32	0.96	ND	ND	ND	ND	ND	0.76
63491	2017-04-26T10:00:00	32.4	ND	ND	ND	3.21	5.36	ND	ND	ND	ND	ND	0.51
63492	2017-04-26T11:00:00	23.9	ND	ND	ND	2.76	11.60	ND	ND	ND	ND	ND	0.25
63493	2017-04-26T12:00:00	34.1	ND	ND	ND	2.48	21.86	ND	ND	ND	ND	ND	0
63494	2017-04-26T13:00:00	36.4	ND	ND	ND	3.01	57.54	ND	ND	ND	ND	ND	0
63495	2017-04-26T14:00:00	41.3	ND	ND	ND	3.61	83.81	ND	ND	ND	ND	ND	0
63496	2017-04-26T15:00:00	59.2	ND	ND	ND	2.68	93.57	ND	ND	ND	ND	ND	0
63497	2017-04-26T16:00:00	57.8	ND	ND	ND	3.44	62.19	ND	ND	ND	ND	ND	0
63498	2017-04-26T17:00:00	51.2	ND	ND	ND	1.46	33.11	ND	ND	ND	ND	ND	0
63499	2017-04-26T18:00:00	38.2	ND	ND	ND	1.67	19.11	ND	ND	ND	ND	ND	0
63500	2017-04-26T19:00:00	47.9	ND	ND	ND	4.89	5.12	ND	ND	ND	ND	ND	0
63501	2017-04-26T20:00:00	56.1	ND	ND	ND	4.75	2.85	ND	ND	ND	ND	ND	0
63502	2017-04-26T21:00:00	63.3	ND	ND	ND	3.96	2.75	ND	ND	ND	ND	ND	0
63503	2017-04-26T22:00:00	61.1	ND	ND	ND	2.66	2.41	ND	ND	ND	ND	ND	0
63504	2017-04-26T23:00:00	76.9	ND	ND	ND	4.68	2.51	ND	ND	ND	ND	ND	0
63505	2017-04-27T00:00:00	47.9	ND	ND	ND	4.52	1.61	ND	ND	ND	ND	ND	0
63506	2017-04-27T01:00:00	31.6	ND	ND	ND	4.70	1.20	ND	ND	ND	ND	ND	0
63507	2017-04-27T02:00:00	27.8	ND	ND	ND	3.74	4.65	ND	ND	ND	ND	ND	0
63508	2017-04-27T03:00:00	28.4	ND	ND	ND	3.99	1.59	ND	ND	ND	ND	ND	0
63509	2017-04-27T04:00:00	50.9	ND	ND	ND	5.97	1.73	ND	ND	ND	ND	ND	0
63510	2017-04-27T05:00:00	45.3	ND	ND	ND	4.07	1.45	ND	ND	ND	ND	ND	0
63511	2017-04-27T06:00:00	48.2	ND	ND	ND	10.40	1.16	ND	ND	ND	ND	ND	0
63512	2017-04-27T07:00:00	78.1	ND	ND	ND	6.27	1.24	ND	ND	ND	ND	ND	0
63513	2017-04-27T08:00:00	94	ND	ND	ND	5.45	ND	ND	ND	ND	ND	ND	0
63514	2017-04-27T09:00:00	111.6	ND	ND	ND	5.51	12.83	ND	ND	ND	ND	ND	0
63515	2017-04-27T10:00:00	128.2	ND	ND	ND	2.97	50.53	ND	ND	ND	ND	ND	0
63516	2017-04-27T11:00:00	110.2	ND	ND	ND	3.07	57.60	ND	ND	ND	ND	ND	0
63517	2017-04-27T12:00:00	93.4	ND	ND	ND	3.00	82.16	ND	ND	ND	ND	ND	0
63518	2017-04-27T13:00:00	68.9	ND	ND	ND	2.98	100.39	ND	ND	ND	ND	ND	0
63519	2017-04-27T14:00:00	68	ND	ND	ND	1.55	119.06	ND	ND	ND	ND	ND	0
63520	2017-04-27T15:00:00	71.6	ND	ND	ND	1.53	96.71	ND	ND	ND	ND	ND	0
63521	2017-04-27T16:00:00	72.1	ND	ND	ND	1.13	54.10	ND	ND	ND	ND	ND	0
63522	2017-04-27T17:00:00	45.4	ND	ND	ND	1.91	20.84	ND	ND	ND	ND	ND	0
63523	2017-04-27T18:00:00	35	ND	ND	ND	2.38	12.25	ND	ND	ND	ND	ND	0
63524	2017-04-27T19:00:00	30.2	ND	ND	ND	2.38	5.06	ND	ND	ND	ND	ND	0
63525	2017-04-27T20:00:00	26.2	ND	ND	ND	3.69	5.93	ND	ND	ND	ND	ND	0
63526	2017-04-27T21:00:00	23.7	ND	ND	ND	4.06	3.34	ND	ND	ND	ND	ND	0
63527	2017-04-27T22:00:00	35	ND	ND	ND	2.72	1.06	ND	ND	ND	ND	ND	0
63528	2017-04-27T23:00:00	31.6	ND	ND	ND	2.68	3.83	ND	ND	ND	ND	ND	0
63529	2017-04-28T00:00:00	31.2	ND	ND	ND	3.14	8.05	ND	ND	ND	ND	ND	0
63530	2017-04-28T01:00:00	33.1	ND	ND	ND	4.29	0.35	ND	ND	ND	ND	ND	0
63531	2017-04-28T02:00:00	52.1	ND	ND	ND	4.25	1.02	ND	ND	ND	ND	ND	0
63532	2017-04-28T03:00:00	44.7	ND	ND	ND	3.57	7.73	ND	ND	ND	ND	ND	0
63533	2017-04-28T04:00:00	23.9	ND	ND	ND	4.40	0.63	ND	ND	ND	ND	ND	0
63534	2017-04-28T05:00:00	45.7	ND	ND	ND	3.82	0.29	ND	ND	ND	ND	ND	0
63535	2017-04-28T06:00:00	50.6	ND	ND	ND	4.64	0.24	ND	ND	ND	ND	ND	0
63536	2017-04-28T07:00:00	75	ND	ND	ND	5.63	ND	ND	ND	ND	ND	ND	0
63537	2017-04-28T08:00:00	107.2	ND	ND	ND	6.22	ND	ND	ND	ND	ND	ND	0
63538	2017-04-28T09:00:00	132.2	ND	ND	ND	3.85	7.56	ND	ND	ND	ND	ND	0
63539	2017-04-28T10:00:00	124.8	ND	ND	ND	4.25	40.19	ND	ND	ND	ND	ND	0
63540	2017-04-28T11:00:00	112.5	ND	ND	ND	1.09	54.99	ND	ND	ND	ND	ND	0
63541	2017-04-28T12:00:00	83.4	ND	ND	ND	3.33	79.28	ND	ND	ND	ND	ND	0
63542	2017-04-28T13:00:00	70.7	ND	ND	ND	1.09	120.43	ND	ND	ND	ND	ND	0
63543	2017-04-28T14:00:00	68.3	ND	ND	ND	1.16	77.75	ND	ND	ND	ND	ND	0
63544	2017-04-28T15:00:00	57.2	ND	ND	ND	3.71	77.26	ND	ND	ND	ND	ND	0
63545	2017-04-28T16:00:00	48.1	ND	ND	ND	2.94	78.24	ND	ND	ND	ND	ND	0
63546	2017-04-28T17:00:00	59.1	ND	ND	ND	2.68	35.70	ND	ND	ND	ND	ND	0
63547	2017-04-28T18:00:00	29.6	ND	ND	ND	3.02	23.43	ND	ND	ND	ND	ND	0
63548	2017-04-28T19:00:00	40.5	ND	ND	ND	2.72	15.23	ND	ND	ND	ND	ND	0
63549	2017-04-28T20:00:00	30.7	ND	ND	ND	4.15	4.69	ND	ND	ND	ND	ND	0
63550	2017-04-28T21:00:00	31.6	ND	ND	ND	5.76	1.90	ND	ND	ND	ND	ND	0
63551	2017-04-28T22:00:00	57.2	ND	ND	ND	4.03	0.24	ND	ND	ND	ND	ND	0
63552	2017-04-28T23:00:00	52.6	ND	ND	ND	4.15	1.39	ND	ND	ND	ND	ND	0
63553	2017-04-29T00:00:00	36.1	ND	ND	ND	4.49	4.30	ND	ND	ND	ND	ND	0
63554	2017-04-29T01:00:00	36.1	ND	ND	ND	4.22	0.43	ND	ND	ND	ND	ND	0
63555	2017-04-29T02:00:00	34.6	ND	ND	ND	5.85	1.28	ND	ND	ND	ND	ND	0
63556	2017-04-29T03:00:00	46.3	ND	ND	ND	4.75	2.12	ND	ND	ND	ND	ND	0
63557	2017-04-29T04:00:00	53.5	ND	ND	ND	5.32	4.32	ND	ND	ND	ND	ND	0
63558	2017-04-29T05:00:00	38.6	ND	ND	ND	5.31	1.94	ND	ND	ND	ND	ND	0
63559	2017-04-29T06:00:00	38	ND	ND	ND	5.05	0.75	ND	ND	ND	ND	ND	0
63560	2017-04-29T07:00:00	78.2	ND	ND	ND	5.92	ND	ND	ND	ND	ND	ND	0
63561	2017-04-29T08:00:00	85	ND	ND	ND	4.57	1.55	ND	ND	ND	ND	ND	0
63562	2017-04-29T09:00:00	108.7	ND	ND	ND	4.21	13.15	ND	ND	ND	ND	ND	0
63563	2017-04-29T10:00:00	100.1	ND	ND	ND	1.70	23.67	ND	ND	ND	ND	ND	0
63564	2017-04-29T11:00:00	83.9	ND	ND	ND	0.00	53.22	ND	ND	ND	ND	ND	0
63565	2017-04-29T12:00:00	64.1	ND	ND	ND	0.28	67.88	ND	ND	ND	ND	ND	0
63566	2017-04-29T13:00:00	62.8	ND	ND	ND	2.54	70.47	ND	ND	ND	ND	ND	0
63567	2017-04-29T14:00:00	56.7	ND	ND	ND	1.13	63.68	ND	ND	ND	ND	ND	0
63568	2017-04-29T15:00:00	43.3	ND	ND	ND	1.32	33.40	ND	ND	ND	ND	ND	0
63569	2017-04-29T16:00:00	29.8	ND	ND	ND	3.11	20.72	ND	ND	ND	ND	ND	0
63570	2017-04-29T17:00:00	18.6	ND	ND	ND	2.68	14.19	ND	ND	ND	ND	ND	0
63571	2017-04-29T18:00:00	15	ND	ND	ND	3.37	9.83	ND	ND	ND	ND	ND	0
63572	2017-04-29T19:00:00	12.7	ND	ND	ND	3.55	12.30	ND	ND	ND	ND	ND	0
63573	2017-04-29T20:00:00	11	ND	ND	ND	2.43	9.48	ND	ND	ND	ND	ND	0
63574	2017-04-29T21:00:00	4.7	ND	ND	ND	0.77	17.23	ND	ND	ND	ND	ND	0
63575	2017-04-29T22:00:00	5.2	ND	ND	ND	3.93	10.52	ND	ND	ND	ND	ND	0
63576	2017-04-29T23:00:00	11.1	ND	ND	ND	4.60	2.24	ND	ND	ND	ND	ND	0
63577	2017-04-30T00:00:00	43.3	ND	ND	ND	4.31	0.86	ND	ND	ND	ND	ND	0
63578	2017-04-30T01:00:00	45.5	ND	ND	ND	4.27	2.14	ND	ND	ND	ND	ND	0
63579	2017-04-30T02:00:00	34	ND	ND	ND	3.19	1.14	ND	ND	ND	ND	ND	0
63580	2017-04-30T03:00:00	22.3	ND	ND	ND	4.38	4.08	ND	ND	ND	ND	ND	0
63581	2017-04-30T04:00:00	26.4	ND	ND	ND	4.20	1.04	ND	ND	ND	ND	ND	0.51
63582	2017-04-30T05:00:00	23.2	ND	ND	ND	5.91	0.61	ND	ND	ND	ND	ND	0
63583	2017-04-30T06:00:00	31.1	ND	ND	ND	5.80	0.59	ND	ND	ND	ND	ND	0
63584	2017-04-30T07:00:00	44.1	ND	ND	ND	6.16	0.29	ND	ND	ND	ND	ND	0
63585	2017-04-30T08:00:00	30.4	ND	ND	ND	5.09	ND	ND	ND	ND	ND	ND	0
63586	2017-04-30T09:00:00	47.6	ND	ND	ND	4.93	13.11	ND	ND	ND	ND	ND	0.25
63587	2017-04-30T10:00:00	67.7	ND	ND	ND	4.27	26.67	ND	ND	ND	ND	ND	0
63588	2017-04-30T11:00:00	76.3	ND	ND	ND	3.65	17.60	ND	ND	ND	ND	ND	1.02
63589	2017-04-30T12:00:00	55.9	ND	ND	ND	5.63	36.03	ND	ND	ND	ND	ND	0.25
63590	2017-04-30T13:00:00	38.3	ND	ND	ND	3.00	61.25	ND	ND	ND	ND	ND	0
63591	2017-04-30T14:00:00	44.6	ND	ND	ND	3.28	64.60	ND	ND	ND	ND	ND	0
63592	2017-04-30T15:00:00	45.9	ND	ND	ND	2.55	29.42	ND	ND	ND	ND	ND	116.08
63593	2017-04-30T16:00:00	10.8	ND	ND	ND	3.85	8.14	ND	ND	ND	ND	ND	29.97
63594	2017-04-30T17:00:00	4.7	ND	ND	ND	4.52	0.86	ND	ND	ND	ND	ND	0.76
63595	2017-04-30T18:00:00	20.1	ND	ND	ND	5.30	0.75	ND	ND	ND	ND	ND	0.76
63596	2017-04-30T19:00:00	28.1	ND	ND	ND	2.82	0.61	ND	ND	ND	ND	ND	0
63597	2017-04-30T20:00:00	25.5	ND	ND	ND	4.52	0.47	ND	ND	ND	ND	ND	2.79
63598	2017-04-30T21:00:00	15.7	ND	ND	ND	3.68	0.51	ND	ND	ND	ND	ND	2.79
63599	2017-04-30T22:00:00	22.2	ND	ND	ND	5.49	0.53	ND	ND	ND	ND	ND	0
63600	2017-04-30T23:00:00	23.3	ND	ND	ND	4.61	0.49	ND	ND	ND	ND	ND	0.25
63601	2017-05-01T00:00:00	7.3	ND	ND	ND	4.27	0.31	ND	ND	ND	ND	ND	0
63602	2017-05-01T01:00:00	15.9	ND	ND	ND	2.62	0.39	ND	ND	ND	ND	ND	0
63603	2017-05-01T02:00:00	24.5	ND	ND	ND	4.38	0.41	ND	ND	ND	ND	ND	0
63604	2017-05-01T03:00:00	18.1	ND	ND	ND	3.50	0.31	ND	ND	ND	ND	ND	0
63605	2017-05-01T04:00:00	20.1	ND	ND	ND	3.11	0.37	ND	ND	ND	ND	ND	0
63606	2017-05-01T05:00:00	31.4	ND	ND	ND	3.26	0.53	ND	ND	ND	ND	ND	0
63607	2017-05-01T06:00:00	30.3	ND	ND	ND	5.37	0.33	ND	ND	ND	ND	ND	0
63608	2017-05-01T07:00:00	36.4	ND	ND	ND	4.75	ND	ND	ND	ND	ND	ND	0
63609	2017-05-01T08:00:00	31.6	ND	ND	ND	3.93	ND	ND	ND	ND	ND	ND	0
63610	2017-05-01T09:00:00	57.6	ND	ND	ND	3.01	12.95	ND	ND	ND	ND	ND	0
63611	2017-05-01T10:00:00	56.5	ND	ND	ND	2.96	21.63	ND	ND	ND	ND	ND	0
63612	2017-05-01T11:00:00	52.2	ND	ND	ND	3.79	41.62	ND	ND	ND	ND	ND	0
63613	2017-05-01T12:00:00	51.8	ND	ND	ND	2.97	67.02	ND	ND	ND	ND	ND	0
63614	2017-05-01T13:00:00	61	ND	ND	ND	1.76	76.81	ND	ND	ND	ND	ND	0
63615	2017-05-01T14:00:00	45.2	ND	ND	ND	2.09	50.35	ND	ND	ND	ND	ND	0
63616	2017-05-01T15:00:00	40.9	ND	ND	ND	1.91	32.05	ND	ND	ND	ND	ND	0
63617	2017-05-01T16:00:00	16.9	ND	ND	ND	4.43	11.89	ND	ND	ND	ND	ND	0
63618	2017-05-01T17:00:00	19.4	ND	ND	ND	3.55	0.78	ND	ND	ND	ND	ND	0
63619	2017-05-01T18:00:00	33.3	ND	ND	ND	7.12	0.63	ND	ND	ND	ND	ND	0
63620	2017-05-01T19:00:00	42.1	ND	ND	ND	2.06	0.75	ND	ND	ND	ND	ND	0
63621	2017-05-01T20:00:00	26	ND	ND	ND	5.94	0.53	ND	ND	ND	ND	ND	0
63622	2017-05-01T21:00:00	31.3	ND	ND	ND	5.07	0.37	ND	ND	ND	ND	ND	0
63623	2017-05-01T22:00:00	40.4	ND	ND	ND	4.14	0.55	ND	ND	ND	ND	ND	0
63624	2017-05-01T23:00:00	46.7	ND	ND	ND	1.69	0.35	ND	ND	ND	ND	ND	0
63625	2017-05-02T00:00:00	48.5	ND	ND	ND	6.15	0.61	ND	ND	ND	ND	ND	0
63626	2017-05-02T01:00:00	18.6	ND	ND	ND	4.45	0.61	ND	ND	ND	ND	ND	4.83
63627	2017-05-02T02:00:00	17.4	ND	ND	ND	6.13	0.49	ND	ND	ND	ND	ND	2.54
63628	2017-05-02T03:00:00	21.6	ND	ND	ND	8.06	0.43	ND	ND	ND	ND	ND	20.57
63629	2017-05-02T04:00:00	12.5	ND	ND	ND	4.56	0.31	ND	ND	ND	ND	ND	9.4
63630	2017-05-02T05:00:00	10.8	ND	ND	ND	6.34	0.33	ND	ND	ND	ND	ND	5.33
63631	2017-05-02T06:00:00	8.9	ND	ND	ND	5.90	0.41	ND	ND	ND	ND	ND	0.25
63632	2017-05-02T07:00:00	17.8	ND	ND	ND	10.59	ND	ND	ND	ND	ND	ND	0.25
63633	2017-05-02T08:00:00	44.9	ND	ND	ND	11.00	ND	ND	ND	ND	ND	ND	0
63634	2017-05-02T09:00:00	54.5	ND	ND	ND	4.85	ND	ND	ND	ND	ND	ND	0
63635	2017-05-02T10:00:00	50.6	ND	ND	ND	3.07	5.34	ND	ND	ND	ND	ND	0
63636	2017-05-02T11:00:00	53.8	ND	ND	ND	3.11	17.09	ND	ND	ND	ND	ND	0
63637	2017-05-02T12:00:00	43.8	ND	ND	ND	3.25	32.65	ND	ND	ND	ND	ND	0
63638	2017-05-02T13:00:00	53.8	ND	ND	ND	0.01	46.12	ND	ND	ND	ND	ND	0
63639	2017-05-02T14:00:00	50.1	ND	ND	ND	1.56	46.59	ND	ND	ND	ND	ND	0
63640	2017-05-02T15:00:00	52.5	ND	ND	ND	2.55	22.41	ND	ND	ND	ND	ND	0
63641	2017-05-02T16:00:00	39.4	ND	ND	ND	2.22	23.02	ND	ND	ND	ND	ND	0
63642	2017-05-02T17:00:00	40.5	ND	ND	ND	1.64	15.25	ND	ND	ND	ND	ND	0
63643	2017-05-02T18:00:00	28.1	ND	ND	ND	3.78	1.47	ND	ND	ND	ND	ND	0
63644	2017-05-02T19:00:00	30.7	ND	ND	ND	1.78	0.06	ND	ND	ND	ND	ND	0
63645	2017-05-02T20:00:00	34.5	ND	ND	ND	1.91	0.22	ND	ND	ND	ND	ND	0
63646	2017-05-02T21:00:00	26.3	ND	ND	ND	1.53	0.53	ND	ND	ND	ND	ND	0
63647	2017-05-02T22:00:00	43.1	ND	ND	ND	3.29	0.55	ND	ND	ND	ND	ND	0
63648	2017-05-02T23:00:00	49.2	ND	ND	ND	3.18	0.49	ND	ND	ND	ND	ND	0
63649	2017-05-03T00:00:00	49.7	ND	ND	ND	2.63	0.65	ND	ND	ND	ND	ND	0
63650	2017-05-03T01:00:00	31.3	ND	ND	ND	2.97	0.27	ND	ND	ND	ND	ND	0
63651	2017-05-03T02:00:00	31.9	ND	ND	ND	5.16	0.49	ND	ND	ND	ND	ND	0
63652	2017-05-03T03:00:00	47.8	ND	ND	ND	5.00	0.43	ND	ND	ND	ND	ND	0
63653	2017-05-03T04:00:00	54.7	ND	ND	ND	3.51	0.37	ND	ND	ND	ND	ND	0
63654	2017-05-03T05:00:00	31.1	ND	ND	ND	2.83	0.41	ND	ND	ND	ND	ND	0
63655	2017-05-03T06:00:00	19.1	ND	ND	ND	3.96	0.00	ND	ND	ND	ND	ND	0
63656	2017-05-03T07:00:00	40.8	ND	ND	ND	4.75	0.26	ND	ND	ND	ND	ND	0
63657	2017-05-03T08:00:00	99.2	ND	ND	ND	5.39	0.51	ND	ND	ND	ND	ND	0
63658	2017-05-03T09:00:00	123.7	ND	ND	ND	4.42	5.48	ND	ND	ND	ND	ND	0
63659	2017-05-03T10:00:00	131.7	ND	ND	ND	3.64	29.36	ND	ND	ND	ND	ND	0
63660	2017-05-03T11:00:00	113.3	ND	ND	ND	1.00	41.17	ND	ND	ND	ND	ND	0
63661	2017-05-03T12:00:00	83.9	ND	ND	ND	0.82	48.94	ND	ND	ND	ND	ND	0
63662	2017-05-03T13:00:00	51.2	ND	ND	ND	1.28	54.50	ND	ND	ND	ND	ND	0
63663	2017-05-03T14:00:00	10.7	ND	ND	ND	1.23	39.09	ND	ND	ND	ND	ND	0
63664	2017-05-03T15:00:00	12.5	ND	ND	ND	1.20	30.22	ND	ND	ND	ND	ND	0
63665	2017-05-03T16:00:00	28.7	ND	ND	ND	0.99	25.16	ND	ND	ND	ND	ND	0
63666	2017-05-03T17:00:00	50.2	ND	ND	ND	3.05	17.23	ND	ND	ND	ND	ND	0
63667	2017-05-03T18:00:00	63.6	ND	ND	ND	2.68	3.61	ND	ND	ND	ND	ND	0
63668	2017-05-03T19:00:00	67.9	ND	ND	ND	2.76	1.35	ND	ND	ND	ND	ND	0
63669	2017-05-03T20:00:00	71.6	ND	ND	ND	1.84	1.33	ND	ND	ND	ND	ND	0
63670	2017-05-03T21:00:00	46.9	ND	ND	ND	2.59	1.24	ND	ND	ND	ND	ND	0
63671	2017-05-03T22:00:00	30.6	ND	ND	ND	2.76	1.10	ND	ND	ND	ND	ND	0
63672	2017-05-03T23:00:00	52.6	ND	ND	ND	1.90	1.39	ND	ND	ND	ND	ND	0
63673	2017-05-04T00:00:00	55.1	ND	ND	ND	4.01	0.77	ND	ND	ND	ND	ND	0
63674	2017-05-04T01:00:00	69	ND	ND	ND	3.01	0.49	ND	ND	ND	ND	ND	0
63675	2017-05-04T02:00:00	77	ND	ND	ND	8.70	0.43	ND	ND	ND	ND	ND	0
63676	2017-05-04T03:00:00	49.1	ND	ND	ND	4.67	1.59	ND	ND	ND	ND	ND	0
63677	2017-05-04T04:00:00	41.4	ND	ND	ND	4.24	1.30	ND	ND	ND	ND	ND	0
63678	2017-05-04T05:00:00	38.3	ND	ND	ND	5.62	1.41	ND	ND	ND	ND	ND	0
63679	2017-05-04T06:00:00	75.2	ND	ND	ND	4.49	1.53	ND	ND	ND	ND	ND	0
63680	2017-05-04T07:00:00	85.5	ND	ND	ND	6.30	0.96	ND	ND	ND	ND	ND	0
63681	2017-05-04T08:00:00	133.6	ND	ND	ND	7.04	1.53	ND	ND	ND	ND	ND	0
63682	2017-05-04T09:00:00	129.7	ND	ND	ND	4.42	3.04	ND	ND	ND	ND	ND	0
63683	2017-05-04T10:00:00	100.4	ND	ND	ND	1.98	18.31	ND	ND	ND	ND	ND	0
63684	2017-05-04T11:00:00	89	ND	ND	ND	1.94	58.60	ND	ND	ND	ND	ND	0
63685	2017-05-04T12:00:00	95.6	ND	ND	ND	0.95	80.18	ND	ND	ND	ND	ND	0
63686	2017-05-04T13:00:00	86.7	ND	ND	ND	2.41	71.88	ND	ND	ND	ND	ND	0
63687	2017-05-04T14:00:00	57.8	ND	ND	ND	1.46	106.62	ND	ND	ND	ND	ND	0
63688	2017-05-04T15:00:00	60.9	ND	ND	ND	3.78	44.55	ND	ND	ND	ND	ND	0
63689	2017-05-04T16:00:00	55.9	ND	ND	ND	1.32	44.06	ND	ND	ND	ND	ND	0
63690	2017-05-04T17:00:00	83.1	ND	ND	ND	2.51	13.17	ND	ND	ND	ND	ND	0.25
63691	2017-05-04T18:00:00	16.7	ND	ND	ND	1.95	4.26	ND	ND	ND	ND	ND	14.73
63692	2017-05-04T19:00:00	22.2	ND	ND	ND	2.24	0.98	ND	ND	ND	ND	ND	0
63693	2017-05-04T20:00:00	28.6	ND	ND	ND	2.20	1.04	ND	ND	ND	ND	ND	0.25
63694	2017-05-04T21:00:00	46.9	ND	ND	ND	1.53	0.75	ND	ND	ND	ND	ND	0
63695	2017-05-04T22:00:00	71.8	ND	ND	ND	2.22	1.00	ND	ND	ND	ND	ND	0
63696	2017-05-04T23:00:00	47.1	ND	ND	ND	2.04	0.98	ND	ND	ND	ND	ND	0
63697	2017-05-05T00:00:00	18	ND	ND	ND	4.10	0.82	ND	ND	ND	ND	ND	0
63698	2017-05-05T01:00:00	9.3	ND	ND	ND	4.01	0.65	ND	ND	ND	ND	ND	0
63699	2017-05-05T02:00:00	0.8	ND	ND	ND	4.52	0.57	ND	ND	ND	ND	ND	0
63700	2017-05-05T03:00:00	0.1	ND	ND	ND	2.54	0.61	ND	ND	ND	ND	ND	0
63701	2017-05-05T04:00:00	7.3	ND	ND	ND	4.14	0.61	ND	ND	ND	ND	ND	0
63702	2017-05-05T05:00:00	26.6	ND	ND	ND	3.50	0.80	ND	ND	ND	ND	ND	0
63703	2017-05-05T06:00:00	56.4	ND	ND	ND	1.59	0.80	ND	ND	ND	ND	ND	0
63704	2017-05-05T07:00:00	116.1	ND	ND	ND	1.44	1.26	ND	ND	ND	ND	ND	0
63705	2017-05-05T08:00:00	114	ND	ND	ND	2.61	1.51	ND	ND	ND	ND	ND	0
63706	2017-05-05T09:00:00	114.9	ND	ND	ND	3.86	2.73	ND	ND	ND	ND	ND	0
63707	2017-05-05T10:00:00	144	ND	ND	ND	2.51	12.81	ND	ND	ND	ND	ND	0
63708	2017-05-05T11:00:00	108.9	ND	ND	ND	2.55	35.20	ND	ND	ND	ND	ND	0
63709	2017-05-05T12:00:00	70	ND	ND	ND	3.09	41.25	ND	ND	ND	ND	ND	0
63710	2017-05-05T13:00:00	51.9	ND	ND	ND	2.90	42.19	ND	ND	ND	ND	ND	0
63711	2017-05-05T14:00:00	44.1	ND	ND	ND	2.56	66.64	ND	ND	ND	ND	ND	0
63712	2017-05-05T15:00:00	60.2	ND	ND	ND	1.24	76.06	ND	ND	ND	ND	ND	0
63713	2017-05-05T16:00:00	74.2	ND	ND	ND	0.10	43.31	ND	ND	ND	ND	ND	0
63714	2017-05-05T17:00:00	56.9	ND	ND	ND	0.11	6.48	ND	ND	ND	ND	ND	0
63715	2017-05-05T18:00:00	23	ND	ND	ND	1.70	3.28	ND	ND	ND	ND	ND	0
63716	2017-05-05T19:00:00	15.6	ND	ND	ND	2.80	1.55	ND	ND	ND	ND	ND	0
63717	2017-05-05T20:00:00	35.6	ND	ND	ND	2.30	1.41	ND	ND	ND	ND	ND	0
63718	2017-05-05T21:00:00	25.7	ND	ND	ND	1.05	1.59	ND	ND	ND	ND	ND	0
63719	2017-05-05T22:00:00	17.8	ND	ND	ND	3.16	1.59	ND	ND	ND	ND	ND	6.35
63720	2017-05-05T23:00:00	11.8	ND	ND	ND	3.14	0.47	ND	ND	ND	ND	ND	5.33
63721	2017-05-06T00:00:00	15	ND	ND	ND	3.65	0.59	ND	ND	ND	ND	ND	7.87
63722	2017-05-06T01:00:00	10.5	ND	ND	ND	3.76	1.28	ND	ND	ND	ND	ND	3.05
63723	2017-05-06T02:00:00	ND	ND	ND	ND	4.29	2.53	ND	ND	ND	ND	ND	1.52
63724	2017-05-06T03:00:00	0.9	ND	ND	ND	3.90	3.28	ND	ND	ND	ND	ND	0.25
63725	2017-05-06T04:00:00	2.7	ND	ND	ND	3.85	3.49	ND	ND	ND	ND	ND	0
63726	2017-05-06T05:00:00	1.2	ND	ND	ND	1.30	3.00	ND	ND	ND	ND	ND	0
63727	2017-05-06T06:00:00	ND	ND	ND	ND	2.79	1.41	ND	ND	ND	ND	ND	0.25
63728	2017-05-06T07:00:00	0.3	ND	ND	ND	3.62	1.02	ND	ND	ND	ND	ND	0
63729	2017-05-06T08:00:00	18.4	ND	ND	ND	3.88	1.37	ND	ND	ND	ND	ND	0.25
63730	2017-05-06T09:00:00	25.5	ND	ND	ND	2.47	1.81	ND	ND	ND	ND	ND	0.51
63731	2017-05-06T10:00:00	42	ND	ND	ND	3.72	4.83	ND	ND	ND	ND	ND	0
63732	2017-05-06T11:00:00	47.6	ND	ND	ND	2.97	19.72	ND	ND	ND	ND	ND	0
63733	2017-05-06T12:00:00	59.1	ND	ND	ND	2.69	34.68	ND	ND	ND	ND	ND	0
63734	2017-05-06T13:00:00	75	ND	ND	ND	2.34	47.14	ND	ND	ND	ND	ND	0
63735	2017-05-06T14:00:00	46.1	ND	ND	ND	1.42	62.50	ND	ND	ND	ND	ND	0
63736	2017-05-06T15:00:00	55	ND	ND	ND	2.69	44.64	ND	ND	ND	ND	ND	0
63737	2017-05-06T16:00:00	46.4	ND	ND	ND	2.29	27.39	ND	ND	ND	ND	ND	0
63738	2017-05-06T17:00:00	54.9	ND	ND	ND	2.97	17.37	ND	ND	ND	ND	ND	0
63739	2017-05-06T18:00:00	57	ND	ND	ND	3.04	8.65	ND	ND	ND	ND	ND	0
63740	2017-05-06T19:00:00	56.5	ND	ND	ND	1.74	6.52	ND	ND	ND	ND	ND	0
63741	2017-05-06T20:00:00	42.3	ND	ND	ND	3.26	1.79	ND	ND	ND	ND	ND	0
63742	2017-05-06T21:00:00	45.6	ND	ND	ND	2.02	1.39	ND	ND	ND	ND	ND	0
63743	2017-05-06T22:00:00	56.7	ND	ND	ND	4.84	0.84	ND	ND	ND	ND	ND	0
63744	2017-05-06T23:00:00	61.9	ND	ND	ND	4.68	0.16	ND	ND	ND	ND	ND	0
63745	2017-05-07T00:00:00	58	ND	ND	ND	3.08	0.33	ND	ND	ND	ND	ND	0
63746	2017-05-07T01:00:00	27.2	ND	ND	ND	1.63	0.41	ND	ND	ND	ND	ND	0
63747	2017-05-07T02:00:00	19.2	ND	ND	ND	2.48	0.43	ND	ND	ND	ND	ND	0
63748	2017-05-07T03:00:00	38.7	ND	ND	ND	3.30	0.43	ND	ND	ND	ND	ND	0
63749	2017-05-07T04:00:00	28.9	ND	ND	ND	2.20	0.43	ND	ND	ND	ND	ND	0
63750	2017-05-07T05:00:00	23.4	ND	ND	ND	3.86	0.61	ND	ND	ND	ND	ND	0
63751	2017-05-07T06:00:00	27.1	ND	ND	ND	4.29	0.90	ND	ND	ND	ND	ND	4.57
63752	2017-05-07T07:00:00	15.1	ND	ND	ND	5.69	0.45	ND	ND	ND	ND	ND	1.78
63753	2017-05-07T08:00:00	35.3	ND	ND	ND	4.80	0.41	ND	ND	ND	ND	ND	0.25
63754	2017-05-07T09:00:00	44	ND	ND	ND	3.78	0.69	ND	ND	ND	ND	ND	1.27
63755	2017-05-07T10:00:00	41.6	ND	ND	ND	4.31	2.12	ND	ND	ND	ND	ND	0
63756	2017-05-07T11:00:00	38.7	ND	ND	ND	3.14	8.50	ND	ND	ND	ND	ND	0
63757	2017-05-07T12:00:00	43.2	ND	ND	ND	4.10	26.86	ND	ND	ND	ND	ND	0
63758	2017-05-07T13:00:00	46.5	ND	ND	ND	4.18	37.99	ND	ND	ND	ND	ND	0
63759	2017-05-07T14:00:00	41.1	ND	ND	ND	3.74	49.59	ND	ND	ND	ND	ND	0
63760	2017-05-07T15:00:00	23.2	ND	ND	ND	2.08	55.71	ND	ND	ND	ND	ND	0
63761	2017-05-07T16:00:00	16.6	ND	ND	ND	4.88	55.65	ND	ND	ND	ND	ND	0
63762	2017-05-07T17:00:00	25.1	ND	ND	ND	1.20	33.12	ND	ND	ND	ND	ND	14.48
63763	2017-05-07T18:00:00	21.4	ND	ND	ND	3.54	6.50	ND	ND	ND	ND	ND	22.61
63764	2017-05-07T19:00:00	10.5	ND	ND	ND	3.94	0.61	ND	ND	ND	ND	ND	0.25
63765	2017-05-07T20:00:00	28.4	ND	ND	ND	2.65	0.45	ND	ND	ND	ND	ND	0
63766	2017-05-07T21:00:00	26.4	ND	ND	ND	4.06	0.47	ND	ND	ND	ND	ND	0
63767	2017-05-07T22:00:00	32.2	ND	ND	ND	6.70	0.41	ND	ND	ND	ND	ND	0
63768	2017-05-07T23:00:00	31.3	ND	ND	ND	4.18	0.35	ND	ND	ND	ND	ND	0.25
63769	2017-05-08T00:00:00	21.6	ND	ND	ND	4.59	0.37	ND	ND	ND	ND	ND	0.25
63770	2017-05-08T01:00:00	18.8	ND	ND	ND	3.19	0.35	ND	ND	ND	ND	ND	0
63771	2017-05-08T02:00:00	17	ND	ND	ND	2.23	1.94	ND	ND	ND	ND	ND	0
63772	2017-05-08T03:00:00	6	ND	ND	ND	2.70	1.31	ND	ND	ND	ND	ND	0
63773	2017-05-08T04:00:00	18.7	ND	ND	ND	2.70	1.28	ND	ND	ND	ND	ND	0
63774	2017-05-08T05:00:00	27.8	ND	ND	ND	2.77	0.96	ND	ND	ND	ND	ND	0
63775	2017-05-08T06:00:00	32.7	ND	ND	ND	2.73	0.80	ND	ND	ND	ND	ND	0
63776	2017-05-08T07:00:00	27.1	ND	ND	ND	3.14	0.84	ND	ND	ND	ND	ND	0
63777	2017-05-08T08:00:00	45.2	ND	ND	ND	3.97	0.65	ND	ND	ND	ND	ND	0
63778	2017-05-08T09:00:00	59.2	ND	ND	ND	3.12	1.31	ND	ND	ND	ND	ND	0
63779	2017-05-08T10:00:00	66.7	ND	ND	ND	5.02	4.28	ND	ND	ND	ND	ND	0
63780	2017-05-08T11:00:00	85.5	ND	ND	ND	2.48	20.17	ND	ND	ND	ND	ND	0
63781	2017-05-08T12:00:00	75.9	ND	ND	ND	0.54	22.86	ND	ND	ND	ND	ND	0
63782	2017-05-08T13:00:00	43	ND	ND	ND	1.80	22.63	ND	ND	ND	ND	ND	0
63783	2017-05-08T14:00:00	40	ND	ND	ND	1.73	50.37	ND	ND	ND	ND	ND	0
63784	2017-05-08T15:00:00	63.2	ND	ND	ND	2.86	68.98	ND	ND	ND	ND	ND	0
63785	2017-05-08T16:00:00	52.6	ND	ND	ND	2.55	38.62	ND	ND	ND	ND	ND	0
63786	2017-05-08T17:00:00	50	ND	ND	ND	3.12	7.42	ND	ND	ND	ND	ND	42.16
63787	2017-05-08T18:00:00	25.4	ND	ND	ND	2.22	0.86	ND	ND	ND	ND	ND	1.02
63788	2017-05-08T19:00:00	40.3	ND	ND	ND	0.77	0.78	ND	ND	ND	ND	ND	1.27
63789	2017-05-08T20:00:00	52.4	ND	ND	ND	0.04	0.53	ND	ND	ND	ND	ND	0.51
63790	2017-05-08T21:00:00	37.7	ND	ND	ND	0.46	0.35	ND	ND	ND	ND	ND	0.25
63791	2017-05-08T22:00:00	22.9	ND	ND	ND	0.72	0.41	ND	ND	ND	ND	ND	0
63792	2017-05-08T23:00:00	27	ND	ND	ND	1.90	0.29	ND	ND	ND	ND	ND	0
63793	2017-05-09T00:00:00	31.2	ND	ND	ND	4.03	0.12	ND	ND	ND	ND	ND	0
63794	2017-05-09T01:00:00	18	ND	ND	ND	2.29	0.18	ND	ND	ND	ND	ND	0
63795	2017-05-09T02:00:00	11	ND	ND	ND	3.79	0.14	ND	ND	ND	ND	ND	0.25
63796	2017-05-09T03:00:00	32.4	ND	ND	ND	3.76	0.10	ND	ND	ND	ND	ND	0
63797	2017-05-09T04:00:00	25.7	ND	ND	ND	3.40	0.10	ND	ND	ND	ND	ND	0
63798	2017-05-09T05:00:00	31.7	ND	ND	ND	2.83	0.20	ND	ND	ND	ND	ND	0
63799	2017-05-09T06:00:00	35.4	ND	ND	ND	2.59	0.63	ND	ND	ND	ND	ND	0
63800	2017-05-09T07:00:00	54.2	ND	ND	ND	1.77	0.67	ND	ND	ND	ND	ND	0
63801	2017-05-09T08:00:00	52.4	ND	ND	ND	4.14	0.37	ND	ND	ND	ND	ND	2.54
63802	2017-05-09T09:00:00	37.8	ND	ND	ND	5.02	0.51	ND	ND	ND	ND	ND	0.51
63803	2017-05-09T10:00:00	38.7	ND	ND	ND	4.57	1.73	ND	ND	ND	ND	ND	0
63804	2017-05-09T11:00:00	47.8	ND	ND	ND	3.11	ND	ND	ND	ND	ND	ND	0
63805	2017-05-09T12:00:00	54.9	ND	ND	ND	1.28	ND	ND	ND	ND	ND	ND	0
63806	2017-05-09T13:00:00	46.2	ND	ND	ND	0.42	ND	ND	ND	ND	ND	ND	0
63807	2017-05-09T14:00:00	50.1	ND	ND	ND	1.53	ND	ND	ND	ND	ND	ND	0
63808	2017-05-09T15:00:00	52	ND	ND	ND	ND	ND	ND	ND	ND	ND	ND	1.52
63809	2017-05-09T16:00:00	8.1	ND	ND	ND	0.63	ND	ND	ND	ND	ND	ND	0
63810	2017-05-09T17:00:00	13.5	ND	ND	ND	1.49	ND	ND	ND	ND	ND	ND	0
63811	2017-05-09T18:00:00	60.9	ND	ND	ND	0.26	ND	ND	ND	ND	ND	ND	0
63812	2017-05-09T19:00:00	59.8	ND	ND	ND	1.69	ND	ND	ND	ND	ND	ND	0
63813	2017-05-09T20:00:00	59.8	ND	ND	ND	0.96	ND	ND	ND	ND	ND	ND	0
63814	2017-05-09T21:00:00	57	ND	ND	ND	1.18	ND	ND	ND	ND	ND	ND	0
63815	2017-05-09T22:00:00	60.7	ND	ND	ND	1.12	ND	ND	ND	ND	ND	ND	0
63816	2017-05-09T23:00:00	36.6	ND	ND	ND	3.89	ND	ND	ND	ND	ND	ND	0
63817	2017-05-10T00:00:00	31.9	ND	ND	ND	4.03	ND	ND	ND	ND	ND	ND	0
63818	2017-05-10T01:00:00	27.5	ND	ND	ND	2.58	ND	ND	ND	ND	ND	ND	0
63819	2017-05-10T02:00:00	16.7	ND	ND	ND	3.67	ND	ND	ND	ND	ND	ND	3.3
63820	2017-05-10T03:00:00	7.2	ND	ND	ND	1.84	ND	ND	ND	ND	ND	ND	1.78
63821	2017-05-10T04:00:00	0.8	ND	ND	ND	3.35	ND	ND	ND	ND	ND	ND	9.14
63822	2017-05-10T05:00:00	ND	ND	ND	ND	2.01	ND	ND	ND	ND	ND	ND	9.91
63823	2017-05-10T06:00:00	8.5	ND	ND	ND	3.00	ND	ND	ND	ND	ND	ND	0.25
63824	2017-05-10T07:00:00	25.9	ND	ND	ND	1.99	ND	ND	ND	ND	ND	ND	0
63825	2017-05-10T08:00:00	35.5	ND	ND	ND	2.45	ND	ND	ND	ND	ND	ND	0
63826	2017-05-10T09:00:00	63.2	ND	ND	ND	3.39	ND	ND	ND	ND	ND	ND	0.25
63827	2017-05-10T10:00:00	59.6	ND	ND	ND	ND	15.40	ND	ND	ND	ND	ND	0
63828	2017-05-10T11:00:00	57	ND	ND	ND	ND	35.72	ND	ND	ND	ND	ND	0
63829	2017-05-10T12:00:00	46	ND	ND	ND	ND	39.60	ND	ND	ND	ND	ND	0
63830	2017-05-10T13:00:00	39	ND	ND	ND	ND	37.01	ND	ND	ND	ND	ND	0
63831	2017-05-10T14:00:00	41.8	ND	ND	ND	ND	46.82	ND	ND	ND	ND	ND	0
63832	2017-05-10T15:00:00	45.8	ND	ND	ND	ND	28.02	ND	ND	ND	ND	ND	12.7
63833	2017-05-10T16:00:00	29	ND	ND	ND	ND	6.32	ND	ND	ND	ND	ND	3.05
63834	2017-05-10T17:00:00	16.1	ND	ND	ND	ND	4.28	ND	ND	ND	ND	ND	0.25
63835	2017-05-10T18:00:00	33.2	ND	ND	ND	ND	3.49	ND	ND	ND	ND	ND	2.03
63836	2017-05-10T19:00:00	32	ND	ND	ND	ND	2.83	ND	ND	ND	ND	ND	0.76
63837	2017-05-10T20:00:00	18.4	ND	ND	ND	ND	3.28	ND	ND	ND	ND	ND	0
63838	2017-05-10T21:00:00	24.9	ND	ND	ND	ND	3.26	ND	ND	ND	ND	ND	0
63839	2017-05-10T22:00:00	37.6	ND	ND	ND	ND	2.88	ND	ND	ND	ND	ND	0.25
63840	2017-05-10T23:00:00	17.5	ND	ND	ND	ND	2.88	ND	ND	ND	ND	ND	0.76
63841	2017-05-11T00:00:00	6.6	ND	ND	ND	ND	2.94	ND	ND	ND	ND	ND	0.25
63842	2017-05-11T01:00:00	6.3	ND	ND	ND	ND	2.71	ND	ND	ND	ND	ND	3.05
63843	2017-05-11T02:00:00	11.4	ND	ND	ND	ND	3.26	ND	ND	ND	ND	ND	0.25
63844	2017-05-11T03:00:00	14.7	ND	ND	ND	ND	3.43	ND	ND	ND	ND	ND	0
63845	2017-05-11T04:00:00	8.4	ND	ND	ND	ND	2.75	ND	ND	ND	ND	ND	0.25
63846	2017-05-11T05:00:00	ND	ND	ND	ND	ND	2.49	ND	ND	ND	ND	ND	0
63847	2017-05-11T06:00:00	6.8	ND	ND	ND	ND	2.65	ND	ND	ND	ND	ND	0
63848	2017-05-11T07:00:00	28.6	ND	ND	ND	ND	2.41	ND	ND	ND	ND	ND	0
63849	2017-05-11T08:00:00	49.3	ND	ND	ND	ND	3.39	ND	ND	ND	ND	ND	0
63850	2017-05-11T09:00:00	59.5	ND	ND	ND	ND	4.59	ND	ND	ND	ND	ND	0
63851	2017-05-11T10:00:00	72.4	ND	ND	ND	ND	8.26	ND	ND	ND	ND	ND	0
63852	2017-05-11T11:00:00	67.4	ND	ND	ND	ND	21.15	ND	ND	ND	ND	ND	0
63853	2017-05-11T12:00:00	52.4	ND	ND	ND	ND	46.45	ND	ND	ND	ND	ND	0
63854	2017-05-11T13:00:00	70.5	ND	ND	ND	ND	78.40	ND	ND	ND	ND	ND	0
63855	2017-05-11T14:00:00	61.5	ND	ND	ND	ND	68.45	ND	ND	ND	ND	ND	0
63856	2017-05-11T15:00:00	40.9	ND	ND	ND	ND	52.71	ND	ND	ND	ND	ND	0
63857	2017-05-11T16:00:00	37.4	ND	ND	ND	ND	27.81	ND	ND	ND	ND	ND	0
63858	2017-05-11T17:00:00	14	ND	ND	ND	ND	10.03	ND	ND	ND	ND	ND	0
63859	2017-05-11T18:00:00	0.8	ND	ND	ND	ND	7.50	ND	ND	ND	ND	ND	0
63860	2017-05-11T19:00:00	ND	ND	ND	ND	ND	8.97	ND	ND	ND	ND	ND	0
63861	2017-05-11T20:00:00	0.7	ND	ND	ND	ND	9.18	ND	ND	ND	ND	ND	0
63862	2017-05-11T21:00:00	10.1	ND	ND	ND	ND	5.95	ND	ND	ND	ND	ND	0
63863	2017-05-11T22:00:00	91.4	ND	ND	ND	ND	4.65	ND	ND	ND	ND	ND	0
63864	2017-05-11T23:00:00	68.1	ND	ND	ND	ND	5.67	ND	ND	ND	ND	ND	0
63865	2017-05-12T00:00:00	32.4	ND	ND	ND	ND	10.89	ND	ND	ND	ND	ND	0
63866	2017-05-12T01:00:00	8.5	ND	ND	ND	ND	7.12	ND	ND	ND	ND	ND	0
63867	2017-05-12T02:00:00	ND	ND	ND	ND	ND	6.40	ND	ND	ND	ND	ND	4.32
63868	2017-05-12T03:00:00	3	ND	ND	ND	ND	8.46	ND	ND	ND	ND	ND	0.51
63869	2017-05-12T04:00:00	9.5	ND	ND	ND	ND	5.22	ND	ND	ND	ND	ND	0.25
63870	2017-05-12T05:00:00	7.5	ND	ND	ND	ND	7.32	ND	ND	ND	ND	ND	0
63871	2017-05-12T06:00:00	16.3	ND	ND	ND	ND	3.83	ND	ND	ND	ND	ND	0
63872	2017-05-12T07:00:00	23.7	ND	ND	ND	ND	2.77	ND	ND	ND	ND	ND	0.25
63873	2017-05-12T08:00:00	28.6	ND	ND	ND	ND	4.85	ND	ND	ND	ND	ND	0
63874	2017-05-12T09:00:00	39.9	ND	ND	ND	ND	14.44	ND	ND	ND	ND	ND	0
63875	2017-05-12T10:00:00	53.6	ND	ND	ND	ND	18.56	ND	ND	ND	ND	ND	0
63876	2017-05-12T11:00:00	51.6	ND	ND	ND	ND	19.17	ND	ND	ND	ND	ND	0
63877	2017-05-12T12:00:00	67	ND	ND	ND	ND	21.94	ND	ND	ND	ND	ND	0
63878	2017-05-12T13:00:00	55.5	ND	ND	ND	ND	41.92	ND	ND	ND	ND	ND	0
63879	2017-05-12T14:00:00	62.1	ND	ND	ND	ND	84.99	ND	ND	ND	ND	ND	0
63880	2017-05-12T15:00:00	60.3	ND	ND	ND	ND	98.30	ND	ND	ND	ND	ND	0
63881	2017-05-12T16:00:00	72.5	ND	ND	ND	ND	90.98	ND	ND	ND	ND	ND	0
63882	2017-05-12T17:00:00	59.6	ND	ND	ND	ND	10.42	ND	ND	ND	ND	ND	34.54
63883	2017-05-12T18:00:00	13.4	ND	ND	ND	ND	3.14	ND	ND	ND	ND	ND	0.25
63884	2017-05-12T19:00:00	23.4	ND	ND	ND	ND	3.04	ND	ND	ND	ND	ND	0
63885	2017-05-12T20:00:00	41.8	ND	ND	ND	ND	3.51	ND	ND	ND	ND	ND	0.25
63886	2017-05-12T21:00:00	59.5	ND	ND	ND	ND	3.71	ND	ND	ND	ND	ND	0
63887	2017-05-12T22:00:00	49.6	ND	ND	ND	ND	2.57	ND	ND	ND	ND	ND	0
63888	2017-05-12T23:00:00	18.9	ND	ND	ND	ND	3.00	ND	ND	ND	ND	ND	0
63889	2017-05-13T00:00:00	29.4	ND	ND	ND	ND	3.04	ND	ND	ND	ND	ND	0
63890	2017-05-13T01:00:00	33.3	ND	ND	ND	ND	3.18	ND	ND	ND	ND	ND	0
63891	2017-05-13T02:00:00	30.6	ND	ND	ND	ND	3.26	ND	ND	ND	ND	ND	0
63892	2017-05-13T03:00:00	22.4	ND	ND	ND	ND	4.30	ND	ND	ND	ND	ND	11.43
63893	2017-05-13T04:00:00	10.5	ND	ND	ND	ND	4.67	ND	ND	ND	ND	ND	9.91
63894	2017-05-13T05:00:00	0.2	ND	ND	ND	ND	3.45	ND	ND	ND	ND	ND	1.52
63895	2017-05-13T06:00:00	2.9	ND	ND	ND	ND	2.75	ND	ND	ND	ND	ND	1.02
63896	2017-05-13T07:00:00	4.5	ND	ND	ND	ND	3.16	ND	ND	ND	ND	ND	1.52
63897	2017-05-13T08:00:00	15.4	ND	ND	ND	ND	4.69	ND	ND	ND	ND	ND	0
63898	2017-05-13T09:00:00	36.3	ND	ND	ND	ND	3.79	ND	ND	ND	ND	ND	0.25
63899	2017-05-13T10:00:00	47.4	ND	ND	ND	ND	4.63	ND	ND	ND	ND	ND	0
63900	2017-05-13T11:00:00	42.2	ND	ND	ND	ND	7.18	ND	ND	ND	ND	ND	0.25
63901	2017-05-13T12:00:00	27.4	ND	ND	ND	ND	17.35	ND	ND	ND	ND	ND	0
63902	2017-05-13T13:00:00	34.3	ND	ND	ND	ND	38.97	ND	ND	ND	ND	ND	0
63903	2017-05-13T14:00:00	52.6	ND	ND	ND	ND	58.46	ND	ND	ND	ND	ND	0
63904	2017-05-13T15:00:00	41.9	ND	ND	ND	ND	71.33	ND	ND	ND	ND	ND	0
63905	2017-05-13T16:00:00	37.8	ND	ND	ND	ND	76.67	ND	ND	ND	ND	ND	0
63906	2017-05-13T17:00:00	43.4	ND	ND	ND	ND	67.45	ND	ND	ND	ND	ND	0
63907	2017-05-13T18:00:00	64.6	ND	ND	ND	ND	27.38	ND	ND	ND	ND	ND	0
63908	2017-05-13T19:00:00	50.2	ND	ND	ND	ND	13.58	ND	ND	ND	ND	ND	0
63909	2017-05-13T20:00:00	56.7	ND	ND	ND	ND	3.18	ND	ND	ND	ND	ND	0
63910	2017-05-13T21:00:00	33.8	ND	ND	ND	ND	2.94	ND	ND	ND	ND	ND	0
63911	2017-05-13T22:00:00	28.8	ND	ND	ND	ND	2.30	ND	ND	ND	ND	ND	0
63912	2017-05-13T23:00:00	28.4	ND	ND	ND	ND	2.79	ND	ND	ND	ND	ND	0
63913	2017-05-14T00:00:00	45.7	ND	ND	ND	ND	3.47	ND	ND	ND	ND	ND	0
63914	2017-05-14T01:00:00	53.5	ND	ND	ND	ND	3.65	ND	ND	ND	ND	ND	0
63915	2017-05-14T02:00:00	38.2	ND	ND	ND	ND	3.43	ND	ND	ND	ND	ND	0
63916	2017-05-14T03:00:00	26.4	ND	ND	ND	ND	3.85	ND	ND	ND	ND	ND	0
63917	2017-05-14T04:00:00	28.6	ND	ND	ND	ND	3.00	ND	ND	ND	ND	ND	0.25
63918	2017-05-14T05:00:00	30.6	ND	ND	ND	ND	3.49	ND	ND	ND	ND	ND	1.27
63919	2017-05-14T06:00:00	16.8	ND	ND	ND	ND	4.71	ND	ND	ND	ND	ND	16.76
63920	2017-05-14T07:00:00	3.2	ND	ND	ND	ND	3.49	ND	ND	ND	ND	ND	0.76
63921	2017-05-14T08:00:00	21.1	ND	ND	ND	ND	3.94	ND	ND	ND	ND	ND	0.51
63922	2017-05-14T09:00:00	24.2	ND	ND	ND	ND	3.87	ND	ND	ND	ND	ND	0
63923	2017-05-14T10:00:00	23.4	ND	ND	ND	ND	5.40	ND	ND	ND	ND	ND	0
63924	2017-05-14T11:00:00	29.4	ND	ND	ND	ND	8.50	ND	ND	ND	ND	ND	0
63925	2017-05-14T12:00:00	23.3	ND	ND	ND	ND	17.47	ND	ND	ND	ND	ND	0.25
63926	2017-05-14T13:00:00	32.8	ND	ND	ND	ND	28.10	ND	ND	ND	ND	ND	0
63927	2017-05-14T14:00:00	31.6	ND	ND	ND	ND	40.60	ND	ND	ND	ND	ND	0
63928	2017-05-14T15:00:00	27.5	ND	ND	ND	ND	58.03	ND	ND	ND	ND	ND	0
63929	2017-05-14T16:00:00	49.6	ND	ND	ND	ND	56.05	ND	ND	ND	ND	ND	0
63930	2017-05-14T17:00:00	30.1	ND	ND	ND	ND	39.74	ND	ND	ND	ND	ND	0
63931	2017-05-14T18:00:00	24.7	ND	ND	ND	ND	30.61	ND	ND	ND	ND	ND	0
63932	2017-05-14T19:00:00	27.6	ND	ND	ND	ND	14.68	ND	ND	ND	ND	ND	0
63933	2017-05-14T20:00:00	41.3	ND	ND	ND	ND	3.81	ND	ND	ND	ND	ND	0
63934	2017-05-14T21:00:00	65.6	ND	ND	ND	ND	3.81	ND	ND	ND	ND	ND	0
63935	2017-05-14T22:00:00	50.2	ND	ND	ND	ND	3.24	ND	ND	ND	ND	ND	0
63936	2017-05-14T23:00:00	39.8	ND	ND	ND	ND	2.98	ND	ND	ND	ND	ND	0
63937	2017-05-15T00:00:00	31.6	ND	ND	ND	ND	3.14	ND	ND	ND	ND	ND	0
63938	2017-05-15T01:00:00	47.3	ND	ND	ND	ND	3.10	ND	ND	ND	ND	ND	0
63939	2017-05-15T02:00:00	46.8	ND	ND	ND	ND	2.85	ND	ND	ND	ND	ND	0
63940	2017-05-15T03:00:00	31.6	ND	ND	ND	ND	4.14	ND	ND	ND	ND	ND	0.51
63941	2017-05-15T04:00:00	17.5	ND	ND	ND	ND	4.34	ND	ND	ND	ND	ND	1.27
63942	2017-05-15T05:00:00	26.3	ND	ND	ND	ND	2.96	ND	ND	ND	ND	ND	0.76
63943	2017-05-15T06:00:00	27.2	ND	ND	ND	ND	3.36	ND	ND	ND	ND	ND	0
63944	2017-05-15T07:00:00	30.2	ND	ND	ND	ND	3.59	ND	ND	ND	ND	ND	0
63945	2017-05-15T08:00:00	51.2	ND	ND	ND	ND	3.92	ND	ND	ND	ND	ND	0.25
63946	2017-05-15T09:00:00	86.4	ND	ND	ND	ND	5.40	ND	ND	ND	ND	ND	0
63947	2017-05-15T10:00:00	104	ND	ND	ND	ND	22.17	ND	ND	ND	ND	ND	0
63948	2017-05-15T11:00:00	94.1	ND	ND	ND	ND	67.39	ND	ND	ND	ND	ND	0
63949	2017-05-15T12:00:00	67.6	ND	ND	ND	ND	100.87	ND	ND	ND	ND	ND	0
63950	2017-05-15T13:00:00	54.5	ND	ND	ND	ND	77.95	ND	ND	ND	ND	ND	0
63951	2017-05-15T14:00:00	57.1	ND	ND	ND	ND	88.78	ND	ND	ND	ND	ND	0
63952	2017-05-15T15:00:00	63.7	ND	ND	ND	ND	44.11	ND	ND	ND	ND	ND	0
63953	2017-05-15T16:00:00	35.1	ND	ND	ND	ND	30.38	ND	ND	ND	ND	ND	0
63954	2017-05-15T17:00:00	19.1	ND	ND	ND	ND	10.71	ND	ND	ND	ND	ND	19.3
63955	2017-05-15T18:00:00	18.7	ND	ND	ND	ND	4.95	ND	ND	ND	ND	ND	1.27
63956	2017-05-15T19:00:00	20.9	ND	ND	ND	ND	3.55	ND	ND	ND	ND	ND	3.56
63957	2017-05-15T20:00:00	10.7	ND	ND	ND	ND	4.10	ND	ND	ND	ND	ND	2.54
63958	2017-05-15T21:00:00	7	ND	ND	ND	ND	3.47	ND	ND	ND	ND	ND	2.03
63959	2017-05-15T22:00:00	6.2	ND	ND	ND	ND	2.57	ND	ND	ND	ND	ND	0
63960	2017-05-15T23:00:00	19.7	ND	ND	ND	ND	2.85	ND	ND	ND	ND	ND	0
63961	2017-05-16T00:00:00	19.9	ND	ND	ND	ND	2.83	ND	ND	ND	ND	ND	2.03
63962	2017-05-16T01:00:00	24.8	ND	ND	ND	ND	3.16	ND	ND	ND	ND	ND	1.78
63963	2017-05-16T02:00:00	18.6	ND	ND	ND	ND	3.43	ND	ND	ND	ND	ND	2.03
63964	2017-05-16T03:00:00	7.6	ND	ND	ND	ND	9.89	ND	ND	ND	ND	ND	2.29
63965	2017-05-16T04:00:00	ND	ND	ND	ND	ND	12.89	ND	ND	ND	ND	ND	1.02
63966	2017-05-16T05:00:00	9.3	ND	ND	ND	ND	5.16	ND	ND	ND	ND	ND	1.02
63967	2017-05-16T06:00:00	7.8	ND	ND	ND	ND	2.71	ND	ND	ND	ND	ND	0.25
63968	2017-05-16T07:00:00	9.1	ND	ND	ND	ND	2.79	ND	ND	ND	ND	ND	0
63969	2017-05-16T08:00:00	35.4	ND	ND	ND	ND	3.26	ND	ND	ND	ND	ND	0.25
63970	2017-05-16T09:00:00	54.5	ND	ND	ND	ND	4.20	ND	ND	ND	ND	ND	0
63971	2017-05-16T10:00:00	37.9	ND	ND	ND	ND	14.15	ND	ND	ND	ND	ND	0
63972	2017-05-16T11:00:00	29.5	ND	ND	ND	2.26	29.34	ND	ND	ND	ND	ND	0
63973	2017-05-16T12:00:00	11.5	ND	ND	ND	1.42	52.00	ND	ND	ND	ND	ND	0
63974	2017-05-16T13:00:00	ND	ND	ND	ND	1.05	60.28	ND	ND	ND	ND	ND	0
63975	2017-05-16T14:00:00	17.6	ND	ND	ND	3.22	56.67	ND	ND	ND	ND	ND	0
63976	2017-05-16T15:00:00	90.3	ND	ND	ND	3.43	56.42	ND	ND	ND	ND	ND	0
63977	2017-05-16T16:00:00	86.8	ND	ND	ND	1.95	36.36	ND	ND	ND	ND	ND	0
63978	2017-05-16T17:00:00	97	ND	ND	ND	2.63	53.16	ND	ND	ND	ND	ND	0
63979	2017-05-16T18:00:00	111.5	ND	ND	ND	3.55	21.57	ND	ND	ND	ND	ND	0
63980	2017-05-16T19:00:00	96.1	ND	ND	ND	1.48	8.54	ND	ND	ND	ND	ND	0
63981	2017-05-16T20:00:00	40.3	ND	ND	ND	2.09	6.22	ND	ND	ND	ND	ND	0
63982	2017-05-16T21:00:00	22.8	ND	ND	ND	2.31	9.13	ND	ND	ND	ND	ND	0
63983	2017-05-16T22:00:00	23	ND	ND	ND	1.80	17.90	ND	ND	ND	ND	ND	0
63984	2017-05-16T23:00:00	12.9	ND	ND	ND	2.38	11.50	ND	ND	ND	ND	ND	0
63985	2017-05-17T00:00:00	26.1	ND	ND	ND	1.23	8.99	ND	ND	ND	ND	ND	0
63986	2017-05-17T01:00:00	25.7	ND	ND	ND	2.16	11.30	ND	ND	ND	ND	ND	0
63987	2017-05-17T02:00:00	22.9	ND	ND	ND	2.87	9.32	ND	ND	ND	ND	ND	0
63988	2017-05-17T03:00:00	20.2	ND	ND	ND	1.70	7.14	ND	ND	ND	ND	ND	0
63989	2017-05-17T04:00:00	18.8	ND	ND	ND	4.27	5.69	ND	ND	ND	ND	ND	0
63990	2017-05-17T05:00:00	34.5	ND	ND	ND	4.47	6.75	ND	ND	ND	ND	ND	0
63991	2017-05-17T06:00:00	47.9	ND	ND	ND	4.29	7.77	ND	ND	ND	ND	ND	0
63992	2017-05-17T07:00:00	86.8	ND	ND	ND	5.19	7.95	ND	ND	ND	ND	ND	0
63993	2017-05-17T08:00:00	103.9	ND	ND	ND	4.27	9.24	ND	ND	ND	ND	ND	0
63994	2017-05-17T09:00:00	88.6	ND	ND	ND	3.29	13.93	ND	ND	ND	ND	ND	0
63995	2017-05-17T10:00:00	99.6	ND	ND	ND	2.68	25.41	ND	ND	ND	ND	ND	0
63996	2017-05-17T11:00:00	90	ND	ND	ND	2.41	43.11	ND	ND	ND	ND	ND	0
63997	2017-05-17T12:00:00	75.6	ND	ND	ND	1.70	68.53	ND	ND	ND	ND	ND	0
63998	2017-05-17T13:00:00	41.6	ND	ND	ND	1.55	100.26	ND	ND	ND	ND	ND	0
63999	2017-05-17T14:00:00	45.7	ND	ND	ND	1.31	101.40	ND	ND	ND	ND	ND	0
64000	2017-05-17T15:00:00	60.9	ND	ND	ND	2.36	75.16	ND	ND	ND	ND	ND	0
64001	2017-05-17T16:00:00	47	ND	ND	ND	1.70	39.72	ND	ND	ND	ND	ND	0
64002	2017-05-17T17:00:00	12	ND	ND	ND	1.97	21.51	ND	ND	ND	ND	ND	0
64003	2017-05-17T18:00:00	21.6	ND	ND	ND	2.02	15.56	ND	ND	ND	ND	ND	0
64004	2017-05-17T19:00:00	33.7	ND	ND	ND	ND	8.05	ND	ND	ND	ND	ND	0
64005	2017-05-17T20:00:00	32.8	ND	ND	ND	1.60	7.36	ND	ND	ND	ND	ND	0
64006	2017-05-17T21:00:00	26.1	ND	ND	ND	ND	7.65	ND	ND	ND	ND	ND	0
64007	2017-05-17T22:00:00	9.5	ND	ND	ND	ND	8.36	ND	ND	ND	ND	ND	0
64008	2017-05-17T23:00:00	27.2	ND	ND	ND	1.83	9.54	ND	ND	ND	ND	ND	0
64009	2017-05-18T00:00:00	39.5	ND	ND	ND	2.98	10.50	ND	ND	ND	ND	ND	0
64010	2017-05-18T01:00:00	54.8	ND	ND	ND	ND	9.54	ND	ND	ND	ND	ND	0
64011	2017-05-18T02:00:00	50.6	ND	ND	ND	3.74	8.50	ND	ND	ND	ND	ND	0
64012	2017-05-18T03:00:00	30.1	ND	ND	ND	2.93	9.18	ND	ND	ND	ND	ND	0
64013	2017-05-18T04:00:00	30.1	ND	ND	ND	3.32	8.42	ND	ND	ND	ND	ND	0
64014	2017-05-18T05:00:00	29.1	ND	ND	ND	4.35	8.50	ND	ND	ND	ND	ND	0
64015	2017-05-18T06:00:00	20.3	ND	ND	ND	5.02	7.24	ND	ND	ND	ND	ND	0
64016	2017-05-18T07:00:00	60.1	ND	ND	ND	7.23	7.52	ND	ND	ND	ND	ND	0
64017	2017-05-18T08:00:00	73.4	ND	ND	ND	ND	8.93	ND	ND	ND	ND	ND	0
64018	2017-05-18T09:00:00	83.9	ND	ND	ND	3.60	12.60	ND	ND	ND	ND	ND	0
64019	2017-05-18T10:00:00	75.7	ND	ND	ND	3.61	18.80	ND	ND	ND	ND	ND	0
64020	2017-05-18T11:00:00	95.4	ND	ND	ND	1.85	22.35	ND	ND	ND	ND	ND	0
64021	2017-05-18T12:00:00	59.2	ND	ND	ND	2.48	30.12	ND	ND	ND	ND	ND	0
64022	2017-05-18T13:00:00	48.6	ND	ND	ND	2.05	43.13	ND	ND	ND	ND	ND	0
64023	2017-05-18T14:00:00	58.3	ND	ND	ND	2.23	78.26	ND	ND	ND	ND	ND	0
64024	2017-05-18T15:00:00	57.7	ND	ND	ND	ND	58.73	ND	ND	ND	ND	ND	0
64025	2017-05-18T16:00:00	31.7	ND	ND	ND	2.08	33.71	ND	ND	ND	ND	ND	0
64026	2017-05-18T17:00:00	34.1	ND	ND	ND	2.82	32.58	ND	ND	ND	ND	ND	0
64027	2017-05-18T18:00:00	10.9	ND	ND	ND	2.33	22.29	ND	ND	ND	ND	ND	0
64028	2017-05-18T19:00:00	75.7	ND	ND	ND	2.26	10.97	ND	ND	ND	ND	ND	0
64029	2017-05-18T20:00:00	54.9	ND	ND	ND	1.83	8.18	ND	ND	ND	ND	ND	0
64030	2017-05-18T21:00:00	46.1	ND	ND	ND	2.38	8.54	ND	ND	ND	ND	ND	0
64031	2017-05-18T22:00:00	36	ND	ND	ND	2.80	10.89	ND	ND	ND	ND	ND	0
64032	2017-05-18T23:00:00	20.8	ND	ND	ND	1.28	12.64	ND	ND	ND	ND	ND	0
64033	2017-05-19T00:00:00	32.1	ND	ND	ND	2.27	15.88	ND	ND	ND	ND	ND	0
64034	2017-05-19T01:00:00	22.3	ND	ND	ND	2.26	18.03	ND	ND	ND	ND	ND	0
64035	2017-05-19T02:00:00	3.9	ND	ND	ND	3.54	14.89	ND	ND	ND	ND	ND	0
64036	2017-05-19T03:00:00	50.2	ND	ND	ND	5.09	6.93	ND	ND	ND	ND	ND	0
64037	2017-05-19T04:00:00	89.4	ND	ND	ND	7.23	7.77	ND	ND	ND	ND	ND	0
64038	2017-05-19T05:00:00	47.7	ND	ND	ND	9.95	7.06	ND	ND	ND	ND	ND	0
64039	2017-05-19T06:00:00	53.9	ND	ND	ND	6.43	7.85	ND	ND	ND	ND	ND	0
64040	2017-05-19T07:00:00	87.7	ND	ND	ND	7.99	7.85	ND	ND	ND	ND	ND	0
64041	2017-05-19T08:00:00	95.3	ND	ND	ND	8.61	7.99	ND	ND	ND	ND	ND	0
64042	2017-05-19T09:00:00	103.6	ND	ND	ND	5.26	11.85	ND	ND	ND	ND	ND	0
64043	2017-05-19T10:00:00	72.5	ND	ND	ND	3.53	18.92	ND	ND	ND	ND	ND	0
64044	2017-05-19T11:00:00	74.2	ND	ND	ND	3.16	50.61	ND	ND	ND	ND	ND	0
64045	2017-05-19T12:00:00	50.1	ND	ND	ND	2.17	56.79	ND	ND	ND	ND	ND	0
64046	2017-05-19T13:00:00	51.8	ND	ND	ND	1.62	67.92	ND	ND	ND	ND	ND	0
64047	2017-05-19T14:00:00	64	ND	ND	ND	ND	91.54	ND	ND	ND	ND	ND	0
64048	2017-05-19T15:00:00	54	ND	ND	ND	1.85	50.65	ND	ND	ND	ND	ND	0
64049	2017-05-19T16:00:00	36.4	ND	ND	ND	1.06	24.61	ND	ND	ND	ND	ND	0
64050	2017-05-19T17:00:00	16.6	ND	ND	ND	2.05	21.41	ND	ND	ND	ND	ND	0
64051	2017-05-19T18:00:00	38	ND	ND	ND	2.48	19.02	ND	ND	ND	ND	ND	0
64052	2017-05-19T19:00:00	17.1	ND	ND	ND	2.61	13.13	ND	ND	ND	ND	ND	0
64053	2017-05-19T20:00:00	40.3	ND	ND	ND	2.77	11.99	ND	ND	ND	ND	ND	0
64054	2017-05-19T21:00:00	35.8	ND	ND	ND	2.30	11.22	ND	ND	ND	ND	ND	0
64055	2017-05-19T22:00:00	41.3	ND	ND	ND	2.82	9.20	ND	ND	ND	ND	ND	0
64056	2017-05-19T23:00:00	51.4	ND	ND	ND	3.37	9.50	ND	ND	ND	ND	ND	0
64057	2017-05-20T00:00:00	41.2	ND	ND	ND	2.31	8.14	ND	ND	ND	ND	ND	0
64058	2017-05-20T01:00:00	37.9	ND	ND	ND	3.11	7.85	ND	ND	ND	ND	ND	0
64059	2017-05-20T02:00:00	43.7	ND	ND	ND	ND	8.38	ND	ND	ND	ND	ND	0
64060	2017-05-20T03:00:00	46.4	ND	ND	ND	4.66	9.52	ND	ND	ND	ND	ND	0
64061	2017-05-20T04:00:00	60.5	ND	ND	ND	6.29	9.83	ND	ND	ND	ND	ND	0
64062	2017-05-20T05:00:00	51	ND	ND	ND	6.90	9.48	ND	ND	ND	ND	ND	0
64063	2017-05-20T06:00:00	54.3	ND	ND	ND	6.90	9.34	ND	ND	ND	ND	ND	0
64064	2017-05-20T07:00:00	87.1	ND	ND	ND	8.28	10.20	ND	ND	ND	ND	ND	0
64065	2017-05-20T08:00:00	114.8	ND	ND	ND	7.42	11.03	ND	ND	ND	ND	ND	0
64066	2017-05-20T09:00:00	110.8	ND	ND	ND	5.16	11.73	ND	ND	ND	ND	ND	0
64067	2017-05-20T10:00:00	98.3	ND	ND	ND	3.04	18.80	ND	ND	ND	ND	ND	0
64068	2017-05-20T11:00:00	88.3	ND	ND	ND	2.27	35.03	ND	ND	ND	ND	ND	0
64069	2017-05-20T12:00:00	72.8	ND	ND	ND	1.21	47.51	ND	ND	ND	ND	ND	0
64070	2017-05-20T13:00:00	81.9	ND	ND	ND	1.39	49.86	ND	ND	ND	ND	ND	0
64071	2017-05-20T14:00:00	76.1	ND	ND	ND	0.63	37.29	ND	ND	ND	ND	ND	0
64072	2017-05-20T15:00:00	45.6	ND	ND	ND	ND	25.86	ND	ND	ND	ND	ND	0
64073	2017-05-20T16:00:00	9.4	ND	ND	ND	1.90	15.15	ND	ND	ND	ND	ND	0
64074	2017-05-20T17:00:00	ND	ND	ND	ND	1.66	12.74	ND	ND	ND	ND	ND	0
64075	2017-05-20T18:00:00	ND	ND	ND	ND	ND	10.22	ND	ND	ND	ND	ND	0
64076	2017-05-20T19:00:00	3	ND	ND	ND	0.86	12.07	ND	ND	ND	ND	ND	0
64077	2017-05-20T20:00:00	4.6	ND	ND	ND	1.48	7.22	ND	ND	ND	ND	ND	0
64078	2017-05-20T21:00:00	21.6	ND	ND	ND	2.66	5.40	ND	ND	ND	ND	ND	0
64079	2017-05-20T22:00:00	34	ND	ND	ND	3.67	5.95	ND	ND	ND	ND	ND	0
64080	2017-05-20T23:00:00	75.9	ND	ND	ND	2.97	6.38	ND	ND	ND	ND	ND	0
64081	2017-05-21T00:00:00	23.1	ND	ND	ND	3.97	6.16	ND	ND	ND	ND	ND	0
64082	2017-05-21T01:00:00	47.4	ND	ND	ND	2.44	6.26	ND	ND	ND	ND	ND	0
64083	2017-05-21T02:00:00	41.3	ND	ND	ND	3.07	6.77	ND	ND	ND	ND	ND	0
64084	2017-05-21T03:00:00	35.1	ND	ND	ND	2.33	8.71	ND	ND	ND	ND	ND	0
64085	2017-05-21T04:00:00	30.2	ND	ND	ND	3.94	9.50	ND	ND	ND	ND	ND	0
64086	2017-05-21T05:00:00	15.5	ND	ND	ND	2.52	8.83	ND	ND	ND	ND	ND	0
64087	2017-05-21T06:00:00	26.7	ND	ND	ND	2.51	8.69	ND	ND	ND	ND	ND	0
64088	2017-05-21T07:00:00	44.2	ND	ND	ND	2.69	9.64	ND	ND	ND	ND	ND	0
64089	2017-05-21T08:00:00	41.5	ND	ND	ND	4.45	9.46	ND	ND	ND	ND	ND	0.25
64090	2017-05-21T09:00:00	36.8	ND	ND	ND	1.91	14.64	ND	ND	ND	ND	ND	0
64091	2017-05-21T10:00:00	49	ND	ND	ND	3.44	16.95	ND	ND	ND	ND	ND	0
64092	2017-05-21T11:00:00	48.1	ND	ND	ND	1.62	28.10	ND	ND	ND	ND	ND	0
64093	2017-05-21T12:00:00	43.7	ND	ND	ND	ND	56.67	ND	ND	ND	ND	ND	0
64094	2017-05-21T13:00:00	36.6	ND	ND	ND	2.17	59.87	ND	ND	ND	ND	ND	0
64095	2017-05-21T14:00:00	23	ND	ND	ND	2.65	58.46	ND	ND	ND	ND	ND	0
64096	2017-05-21T15:00:00	23.3	ND	ND	ND	ND	38.68	ND	ND	ND	ND	ND	0
64097	2017-05-21T16:00:00	3.4	ND	ND	ND	ND	26.20	ND	ND	ND	ND	ND	0
64098	2017-05-21T17:00:00	ND	ND	ND	ND	ND	23.25	ND	ND	ND	ND	ND	0
64099	2017-05-21T18:00:00	ND	ND	ND	ND	ND	23.41	ND	ND	ND	ND	ND	0
64100	2017-05-21T19:00:00	1.9	ND	ND	ND	3.25	18.15	ND	ND	ND	ND	ND	0
64101	2017-05-21T20:00:00	16.3	ND	ND	ND	2.02	11.52	ND	ND	ND	ND	ND	0
64102	2017-05-21T21:00:00	9.5	ND	ND	ND	ND	7.85	ND	ND	ND	ND	ND	0
64103	2017-05-21T22:00:00	34.5	ND	ND	ND	ND	10.60	ND	ND	ND	ND	ND	6.6
64104	2017-05-21T23:00:00	52.8	ND	ND	ND	2.56	11.32	ND	ND	ND	ND	ND	0.25
64105	2017-05-22T00:00:00	39.4	ND	ND	ND	4.00	10.77	ND	ND	ND	ND	ND	0
64106	2017-05-22T01:00:00	19.6	ND	ND	ND	1.71	10.66	ND	ND	ND	ND	ND	0
64107	2017-05-22T02:00:00	23.6	ND	ND	ND	ND	12.97	ND	ND	ND	ND	ND	0
64108	2017-05-22T03:00:00	14	ND	ND	ND	ND	14.50	ND	ND	ND	ND	ND	2.79
64109	2017-05-22T04:00:00	14.9	ND	ND	ND	ND	14.29	ND	ND	ND	ND	ND	3.81
64110	2017-05-22T05:00:00	9.1	ND	ND	ND	ND	11.83	ND	ND	ND	ND	ND	4.32
64111	2017-05-22T06:00:00	12.1	ND	ND	ND	ND	9.22	ND	ND	ND	ND	ND	0
64112	2017-05-22T07:00:00	19.8	ND	ND	ND	ND	9.38	ND	ND	ND	ND	ND	0
64113	2017-05-22T08:00:00	34.3	ND	ND	ND	ND	9.97	ND	ND	ND	ND	ND	0
64114	2017-05-22T09:00:00	57.4	ND	ND	ND	0.71	10.68	ND	ND	ND	ND	ND	0.25
64115	2017-05-22T10:00:00	62.1	ND	ND	ND	0.42	14.17	ND	ND	ND	ND	ND	0
64116	2017-05-22T11:00:00	78.1	ND	ND	ND	ND	17.37	ND	ND	ND	ND	ND	0
64117	2017-05-22T12:00:00	60.9	ND	ND	ND	1.66	17.86	ND	ND	ND	ND	ND	0
64118	2017-05-22T13:00:00	43.7	ND	ND	ND	2.44	15.09	ND	ND	ND	ND	ND	0.51
64119	2017-05-22T14:00:00	21.8	ND	ND	ND	2.98	10.30	ND	ND	ND	ND	ND	0
64120	2017-05-22T15:00:00	43.5	ND	ND	ND	3.16	7.89	ND	ND	ND	ND	ND	0.25
64121	2017-05-22T16:00:00	46.2	ND	ND	ND	1.97	11.77	ND	ND	ND	ND	ND	0
64122	2017-05-22T17:00:00	49.1	ND	ND	ND	2.06	18.45	ND	ND	ND	ND	ND	0
64123	2017-05-22T18:00:00	46.1	ND	ND	ND	1.80	10.95	ND	ND	ND	ND	ND	0
64124	2017-05-22T19:00:00	65.5	ND	ND	ND	2.02	5.32	ND	ND	ND	ND	ND	0
64125	2017-05-22T20:00:00	36.3	ND	ND	ND	8.92	3.16	ND	ND	ND	ND	ND	0
64126	2017-05-22T21:00:00	51.6	ND	ND	ND	7.42	6.63	ND	ND	ND	ND	ND	0
64127	2017-05-22T22:00:00	74.8	ND	ND	ND	3.26	4.95	ND	ND	ND	ND	ND	0
64128	2017-05-22T23:00:00	27.8	ND	ND	ND	2.36	4.32	ND	ND	ND	ND	ND	0
64129	2017-05-23T00:00:00	7.7	ND	ND	ND	3.62	5.02	ND	ND	ND	ND	ND	0
64130	2017-05-23T01:00:00	39.1	ND	ND	ND	3.76	4.28	ND	ND	ND	ND	ND	0
64131	2017-05-23T02:00:00	20.4	ND	ND	ND	2.61	3.36	ND	ND	ND	ND	ND	0
64132	2017-05-23T03:00:00	5.1	ND	ND	ND	3.42	4.04	ND	ND	ND	ND	ND	0
64133	2017-05-23T04:00:00	20.5	ND	ND	ND	4.03	3.85	ND	ND	ND	ND	ND	0
64134	2017-05-23T05:00:00	47.3	ND	ND	ND	5.62	4.47	ND	ND	ND	ND	ND	0
64135	2017-05-23T06:00:00	114.4	ND	ND	ND	ND	4.36	ND	ND	ND	ND	ND	0
64136	2017-05-23T07:00:00	119.7	ND	ND	ND	ND	6.91	ND	ND	ND	ND	ND	0
64137	2017-05-23T08:00:00	140.4	ND	ND	ND	ND	7.22	ND	ND	ND	ND	ND	0
64138	2017-05-23T09:00:00	144	ND	ND	ND	8.80	9.05	ND	ND	ND	ND	ND	0
64139	2017-05-23T10:00:00	102.8	ND	ND	ND	3.11	33.77	ND	ND	ND	ND	ND	0
64140	2017-05-23T11:00:00	75.9	ND	ND	ND	ND	66.01	ND	ND	ND	ND	ND	0
64141	2017-05-23T12:00:00	52.9	ND	ND	ND	3.18	91.76	ND	ND	ND	ND	ND	0
64142	2017-05-23T13:00:00	39.9	ND	ND	ND	ND	82.13	ND	ND	ND	ND	ND	0
64143	2017-05-23T14:00:00	25.9	ND	ND	ND	ND	69.13	ND	ND	ND	ND	ND	0
64144	2017-05-23T15:00:00	9.7	ND	ND	ND	1.81	77.45	ND	ND	ND	ND	ND	0
64145	2017-05-23T16:00:00	39.7	ND	ND	ND	ND	85.85	ND	ND	ND	ND	ND	0
64146	2017-05-23T17:00:00	60.6	ND	ND	ND	ND	64.70	ND	ND	ND	ND	ND	0
64147	2017-05-23T18:00:00	45.2	ND	ND	ND	ND	29.55	ND	ND	ND	ND	ND	0
64148	2017-05-23T19:00:00	43.5	ND	ND	ND	ND	23.14	ND	ND	ND	ND	ND	0
64149	2017-05-23T20:00:00	35.6	ND	ND	ND	2.26	9.69	ND	ND	ND	ND	ND	0
64150	2017-05-23T21:00:00	29.2	ND	ND	ND	2.69	8.75	ND	ND	ND	ND	ND	0
64151	2017-05-23T22:00:00	12.8	ND	ND	ND	2.09	10.28	ND	ND	ND	ND	ND	0
64152	2017-05-23T23:00:00	0.1	ND	ND	ND	2.17	12.60	ND	ND	ND	ND	ND	0
64153	2017-05-24T00:00:00	16.4	ND	ND	ND	2.96	19.33	ND	ND	ND	ND	ND	0
64154	2017-05-24T01:00:00	31.8	ND	ND	ND	2.52	24.71	ND	ND	ND	ND	ND	0
64155	2017-05-24T02:00:00	36.4	ND	ND	ND	2.04	20.96	ND	ND	ND	ND	ND	0
64156	2017-05-24T03:00:00	30.5	ND	ND	ND	3.02	23.55	ND	ND	ND	ND	ND	0
64157	2017-05-24T04:00:00	31.3	ND	ND	ND	ND	6.85	ND	ND	ND	ND	ND	0
64158	2017-05-24T05:00:00	76.8	ND	ND	ND	ND	7.59	ND	ND	ND	ND	ND	0
64159	2017-05-24T06:00:00	89.7	ND	ND	ND	7.50	6.99	ND	ND	ND	ND	ND	0
64160	2017-05-24T07:00:00	87	ND	ND	ND	5.34	6.06	ND	ND	ND	ND	ND	0
64161	2017-05-24T08:00:00	75.9	ND	ND	ND	ND	10.24	ND	ND	ND	ND	ND	0
64162	2017-05-24T09:00:00	84.8	ND	ND	ND	2.56	29.20	ND	ND	ND	ND	ND	0
64163	2017-05-24T10:00:00	100.9	ND	ND	ND	ND	62.36	ND	ND	ND	ND	ND	0
64164	2017-05-24T11:00:00	79.4	ND	ND	ND	ND	84.99	ND	ND	ND	ND	ND	0
64165	2017-05-24T12:00:00	66.4	ND	ND	ND	ND	111.25	ND	ND	ND	ND	ND	0
64166	2017-05-24T13:00:00	69.4	ND	ND	ND	ND	128.38	ND	ND	ND	ND	ND	0
64167	2017-05-24T14:00:00	85.4	ND	ND	ND	ND	134.74	ND	ND	ND	ND	ND	0
64168	2017-05-24T15:00:00	79.4	ND	ND	ND	ND	128.54	ND	ND	ND	ND	ND	0
64169	2017-05-24T16:00:00	68.4	ND	ND	ND	ND	65.01	ND	ND	ND	ND	ND	0
64170	2017-05-24T17:00:00	40.3	ND	ND	ND	ND	28.28	ND	ND	ND	ND	ND	0
64171	2017-05-24T18:00:00	29	ND	ND	ND	1.94	20.31	ND	ND	ND	ND	ND	0
64172	2017-05-24T19:00:00	42	ND	ND	ND	ND	16.64	ND	ND	ND	ND	ND	0
64173	2017-05-24T20:00:00	25.9	ND	ND	ND	ND	11.68	ND	ND	ND	ND	ND	0
64174	2017-05-24T21:00:00	18.3	ND	ND	ND	2.37	14.93	ND	ND	ND	ND	ND	0
64175	2017-05-24T22:00:00	13	ND	ND	ND	2.05	13.56	ND	ND	ND	ND	ND	0
64176	2017-05-24T23:00:00	11	ND	ND	ND	3.72	11.52	ND	ND	ND	ND	ND	0
64177	2017-05-25T00:00:00	35.9	ND	ND	ND	3.94	12.17	ND	ND	ND	ND	ND	0
64178	2017-05-25T01:00:00	23.4	ND	ND	ND	3.81	10.11	ND	ND	ND	ND	ND	0
64179	2017-05-25T02:00:00	28.3	ND	ND	ND	ND	11.19	ND	ND	ND	ND	ND	0.25
64180	2017-05-25T03:00:00	21.5	ND	ND	ND	ND	11.30	ND	ND	ND	ND	ND	0
64181	2017-05-25T04:00:00	23.9	ND	ND	ND	ND	10.20	ND	ND	ND	ND	ND	0
64182	2017-05-25T05:00:00	28.8	ND	ND	ND	3.75	9.56	ND	ND	ND	ND	ND	0
64183	2017-05-25T06:00:00	44.9	ND	ND	ND	3.04	9.83	ND	ND	ND	ND	ND	0
64184	2017-05-25T07:00:00	28.3	ND	ND	ND	2.56	9.60	ND	ND	ND	ND	ND	0
64185	2017-05-25T08:00:00	93.1	ND	ND	ND	ND	11.46	ND	ND	ND	ND	ND	0
64186	2017-05-25T09:00:00	105.7	ND	ND	ND	ND	16.62	ND	ND	ND	ND	ND	0
64187	2017-05-25T10:00:00	69.4	ND	ND	ND	3.15	19.74	ND	ND	ND	ND	ND	0
64188	2017-05-25T11:00:00	71.5	ND	ND	ND	2.24	26.26	ND	ND	ND	ND	ND	0
64189	2017-05-25T12:00:00	70	ND	ND	ND	ND	43.19	ND	ND	ND	ND	ND	0
64190	2017-05-25T13:00:00	54	ND	ND	ND	ND	103.20	ND	ND	ND	ND	ND	0
64191	2017-05-25T14:00:00	68.2	ND	ND	ND	2.36	84.52	ND	ND	ND	ND	ND	0
64192	2017-05-25T15:00:00	58.5	ND	ND	ND	ND	103.57	ND	ND	ND	ND	ND	0
64193	2017-05-25T16:00:00	47	ND	ND	ND	ND	18.49	ND	ND	ND	ND	ND	0
64194	2017-05-25T17:00:00	25.7	ND	ND	ND	2.23	16.88	ND	ND	ND	ND	ND	0
64195	2017-05-25T18:00:00	29.8	ND	ND	ND	2.91	14.54	ND	ND	ND	ND	ND	0
64196	2017-05-25T19:00:00	34.5	ND	ND	ND	2.24	16.66	ND	ND	ND	ND	ND	0
64197	2017-05-25T20:00:00	23.5	ND	ND	ND	2.05	14.64	ND	ND	ND	ND	ND	0
64198	2017-05-25T21:00:00	11.7	ND	ND	ND	ND	16.23	ND	ND	ND	ND	ND	0
64199	2017-05-25T22:00:00	31	ND	ND	ND	ND	10.62	ND	ND	ND	ND	ND	0
64200	2017-05-25T23:00:00	32.6	ND	ND	ND	2.77	8.10	ND	ND	ND	ND	ND	0
64201	2017-05-26T00:00:00	32.2	ND	ND	ND	3.11	9.09	ND	ND	ND	ND	ND	0
64202	2017-05-26T01:00:00	28.5	ND	ND	ND	ND	8.32	ND	ND	ND	ND	ND	0
64203	2017-05-26T02:00:00	152.2	ND	ND	ND	ND	9.56	ND	ND	ND	ND	ND	0
64204	2017-05-26T03:00:00	117	ND	ND	ND	ND	8.30	ND	ND	ND	ND	ND	0
64205	2017-05-26T04:00:00	42.4	ND	ND	ND	3.00	7.56	ND	ND	ND	ND	ND	0
64206	2017-05-26T05:00:00	15	ND	ND	ND	3.55	6.12	ND	ND	ND	ND	ND	0
64207	2017-05-26T06:00:00	31.3	ND	ND	ND	2.93	5.79	ND	ND	ND	ND	ND	0
64208	2017-05-26T07:00:00	48.3	ND	ND	ND	2.69	4.79	ND	ND	ND	ND	ND	0
64209	2017-05-26T08:00:00	94.6	ND	ND	ND	8.08	7.77	ND	ND	ND	ND	ND	0
64210	2017-05-26T09:00:00	110.3	ND	ND	ND	4.27	20.43	ND	ND	ND	ND	ND	0
64211	2017-05-26T10:00:00	73.8	ND	ND	ND	2.87	56.24	ND	ND	ND	ND	ND	0
64212	2017-05-26T11:00:00	84	ND	ND	ND	1.95	95.53	ND	ND	ND	ND	ND	0
64213	2017-05-26T12:00:00	73.2	ND	ND	ND	0.86	73.82	ND	ND	ND	ND	ND	0
64214	2017-05-26T13:00:00	68.2	ND	ND	ND	2.45	80.40	ND	ND	ND	ND	ND	0
64215	2017-05-26T14:00:00	54.5	ND	ND	ND	3.21	81.85	ND	ND	ND	ND	ND	0
64216	2017-05-26T15:00:00	59.2	ND	ND	ND	2.54	57.09	ND	ND	ND	ND	ND	0
64217	2017-05-26T16:00:00	32.1	ND	ND	ND	1.64	20.00	ND	ND	ND	ND	ND	0
64218	2017-05-26T17:00:00	26.5	ND	ND	ND	1.16	18.37	ND	ND	ND	ND	ND	0
64219	2017-05-26T18:00:00	16.1	ND	ND	ND	1.37	13.83	ND	ND	ND	ND	ND	0
64220	2017-05-26T19:00:00	27.2	ND	ND	ND	1.71	9.62	ND	ND	ND	ND	ND	0
64221	2017-05-26T20:00:00	22.5	ND	ND	ND	1.23	8.40	ND	ND	ND	ND	ND	0
64222	2017-05-26T21:00:00	19.6	ND	ND	ND	3.64	7.06	ND	ND	ND	ND	ND	0
64223	2017-05-26T22:00:00	25.2	ND	ND	ND	3.39	7.87	ND	ND	ND	ND	ND	0
64224	2017-05-26T23:00:00	16.4	ND	ND	ND	2.06	9.77	ND	ND	ND	ND	ND	0
64225	2017-05-27T00:00:00	9.1	ND	ND	ND	2.98	9.77	ND	ND	ND	ND	ND	0
64226	2017-05-27T01:00:00	31.5	ND	ND	ND	3.40	10.48	ND	ND	ND	ND	ND	0
64227	2017-05-27T02:00:00	45	ND	ND	ND	4.17	10.03	ND	ND	ND	ND	ND	0
64228	2017-05-27T03:00:00	41.9	ND	ND	ND	4.22	10.38	ND	ND	ND	ND	ND	0
64229	2017-05-27T04:00:00	34.2	ND	ND	ND	ND	9.28	ND	ND	ND	ND	ND	0
64230	2017-05-27T05:00:00	32.2	ND	ND	ND	6.61	8.38	ND	ND	ND	ND	ND	0
64231	2017-05-27T06:00:00	46.9	ND	ND	ND	5.49	8.61	ND	ND	ND	ND	ND	0
64232	2017-05-27T07:00:00	87.7	ND	ND	ND	4.52	9.62	ND	ND	ND	ND	ND	0
64233	2017-05-27T08:00:00	95.1	ND	ND	ND	ND	10.15	ND	ND	ND	ND	ND	0
64234	2017-05-27T09:00:00	77.9	ND	ND	ND	ND	13.54	ND	ND	ND	ND	ND	0
64235	2017-05-27T10:00:00	69.7	ND	ND	ND	2.33	27.20	ND	ND	ND	ND	ND	0
64236	2017-05-27T11:00:00	64.9	ND	ND	ND	3.29	37.50	ND	ND	ND	ND	ND	0
64237	2017-05-27T12:00:00	53.6	ND	ND	ND	ND	82.14	ND	ND	ND	ND	ND	0
64238	2017-05-27T13:00:00	65.4	ND	ND	ND	3.40	124.41	ND	ND	ND	ND	ND	0
64239	2017-05-27T14:00:00	72.5	ND	ND	ND	2.66	89.43	ND	ND	ND	ND	ND	0
64240	2017-05-27T15:00:00	55	ND	ND	ND	1.74	44.45	ND	ND	ND	ND	ND	0
64241	2017-05-27T16:00:00	32.3	ND	ND	ND	ND	35.91	ND	ND	ND	ND	ND	0
64242	2017-05-27T17:00:00	10.3	ND	ND	ND	0.84	25.33	ND	ND	ND	ND	ND	0
64243	2017-05-27T18:00:00	6.5	ND	ND	ND	2.76	18.07	ND	ND	ND	ND	ND	0
64244	2017-05-27T19:00:00	22.8	ND	ND	ND	1.37	15.76	ND	ND	ND	ND	ND	0
64245	2017-05-27T20:00:00	8.6	ND	ND	ND	2.91	10.95	ND	ND	ND	ND	ND	0
64246	2017-05-27T21:00:00	10.6	ND	ND	ND	3.00	5.91	ND	ND	ND	ND	ND	0
64247	2017-05-27T22:00:00	34.3	ND	ND	ND	4.56	4.83	ND	ND	ND	ND	ND	0
64248	2017-05-27T23:00:00	48.8	ND	ND	ND	4.52	6.97	ND	ND	ND	ND	ND	0
64249	2017-05-28T00:00:00	81.9	ND	ND	ND	3.21	6.79	ND	ND	ND	ND	ND	0
64250	2017-05-28T01:00:00	9.6	ND	ND	ND	1.73	7.03	ND	ND	ND	ND	ND	0
64251	2017-05-28T02:00:00	37.9	ND	ND	ND	3.12	6.48	ND	ND	ND	ND	ND	0
64252	2017-05-28T03:00:00	22.6	ND	ND	ND	3.43	5.99	ND	ND	ND	ND	ND	0
64253	2017-05-28T04:00:00	10.1	ND	ND	ND	3.76	4.34	ND	ND	ND	ND	ND	0
64254	2017-05-28T05:00:00	51.4	ND	ND	ND	7.75	5.89	ND	ND	ND	ND	ND	0
64255	2017-05-28T06:00:00	73.9	ND	ND	ND	4.03	5.93	ND	ND	ND	ND	ND	0
64256	2017-05-28T07:00:00	39.7	ND	ND	ND	4.43	5.48	ND	ND	ND	ND	ND	0
64257	2017-05-28T08:00:00	48.3	ND	ND	ND	3.29	15.70	ND	ND	ND	ND	ND	0
64258	2017-05-28T09:00:00	124.7	ND	ND	ND	5.14	42.25	ND	ND	ND	ND	ND	0
64259	2017-05-28T10:00:00	112.6	ND	ND	ND	3.83	61.95	ND	ND	ND	ND	ND	0
64260	2017-05-28T11:00:00	64.1	ND	ND	ND	3.08	66.52	ND	ND	ND	ND	ND	0
64261	2017-05-28T12:00:00	36.5	ND	ND	ND	2.90	66.25	ND	ND	ND	ND	ND	0
64262	2017-05-28T13:00:00	34.1	ND	ND	ND	2.26	74.30	ND	ND	ND	ND	ND	0
64263	2017-05-28T14:00:00	33.8	ND	ND	ND	2.43	77.65	ND	ND	ND	ND	ND	0
64264	2017-05-28T15:00:00	16.1	ND	ND	ND	2.31	35.79	ND	ND	ND	ND	ND	0
64265	2017-05-28T16:00:00	1.6	ND	ND	ND	2.54	37.19	ND	ND	ND	ND	ND	0
64266	2017-05-28T17:00:00	7.7	ND	ND	ND	3.69	32.01	ND	ND	ND	ND	ND	0
64267	2017-05-28T18:00:00	9.5	ND	ND	ND	2.30	23.18	ND	ND	ND	ND	ND	0
64268	2017-05-28T19:00:00	25.1	ND	ND	ND	2.87	18.84	ND	ND	ND	ND	ND	0
64269	2017-05-28T20:00:00	64.6	ND	ND	ND	3.97	20.35	ND	ND	ND	ND	ND	0
64270	2017-05-28T21:00:00	28.6	ND	ND	ND	ND	19.98	ND	ND	ND	ND	ND	0
64271	2017-05-28T22:00:00	13.2	ND	ND	ND	2.75	13.42	ND	ND	ND	ND	ND	0
64272	2017-05-28T23:00:00	24.6	ND	ND	ND	2.68	7.91	ND	ND	ND	ND	ND	0
64273	2017-05-29T00:00:00	46.2	ND	ND	ND	ND	7.91	ND	ND	ND	ND	ND	0
64274	2017-05-29T01:00:00	50.7	ND	ND	ND	ND	7.26	ND	ND	ND	ND	ND	0
64275	2017-05-29T02:00:00	39.8	ND	ND	ND	4.17	8.69	ND	ND	ND	ND	ND	0
64276	2017-05-29T03:00:00	35	ND	ND	ND	4.46	8.99	ND	ND	ND	ND	ND	0
64277	2017-05-29T04:00:00	44.7	ND	ND	ND	4.11	7.63	ND	ND	ND	ND	ND	0
64278	2017-05-29T05:00:00	40.9	ND	ND	ND	ND	6.57	ND	ND	ND	ND	ND	0
64279	2017-05-29T06:00:00	48.4	ND	ND	ND	ND	6.97	ND	ND	ND	ND	ND	0
64280	2017-05-29T07:00:00	41.3	ND	ND	ND	4.22	5.67	ND	ND	ND	ND	ND	0
64281	2017-05-29T08:00:00	10.1	ND	ND	ND	ND	7.81	ND	ND	ND	ND	ND	0
64282	2017-05-29T09:00:00	3.9	ND	ND	ND	ND	13.17	ND	ND	ND	ND	ND	0
64283	2017-05-29T10:00:00	93.5	ND	ND	ND	ND	30.04	ND	ND	ND	ND	ND	0
64284	2017-05-29T11:00:00	114.1	ND	ND	ND	ND	50.73	ND	ND	ND	ND	ND	0
64285	2017-05-29T12:00:00	83.2	ND	ND	ND	ND	75.41	ND	ND	ND	ND	ND	0
64286	2017-05-29T13:00:00	56.5	ND	ND	ND	ND	81.22	ND	ND	ND	ND	ND	0
64287	2017-05-29T14:00:00	42.3	ND	ND	ND	ND	62.13	ND	ND	ND	ND	ND	0
64288	2017-05-29T15:00:00	23.8	ND	ND	ND	ND	58.66	ND	ND	ND	ND	ND	0
64289	2017-05-29T16:00:00	30.3	ND	ND	ND	ND	42.25	ND	ND	ND	ND	ND	0
64290	2017-05-29T17:00:00	10.2	ND	ND	ND	ND	20.57	ND	ND	ND	ND	ND	0
64291	2017-05-29T18:00:00	18.1	ND	ND	ND	ND	16.82	ND	ND	ND	ND	ND	0
64292	2017-05-29T19:00:00	12.6	ND	ND	ND	ND	15.76	ND	ND	ND	ND	ND	0
64293	2017-05-29T20:00:00	2.5	ND	ND	ND	ND	14.58	ND	ND	ND	ND	ND	0
64294	2017-05-29T21:00:00	9.6	ND	ND	ND	ND	13.93	ND	ND	ND	ND	ND	0
64295	2017-05-29T22:00:00	32	ND	ND	ND	ND	5.28	ND	ND	ND	ND	ND	0
64296	2017-05-29T23:00:00	69.8	ND	ND	ND	ND	5.89	ND	ND	ND	ND	ND	0
64297	2017-05-30T00:00:00	53.1	ND	ND	ND	ND	6.57	ND	ND	ND	ND	ND	0
64298	2017-05-30T01:00:00	47.8	ND	ND	ND	ND	6.38	ND	ND	ND	ND	ND	0
64299	2017-05-30T02:00:00	19.8	ND	ND	ND	ND	9.89	ND	ND	ND	ND	ND	0
64300	2017-05-30T03:00:00	7.2	ND	ND	ND	ND	5.87	ND	ND	ND	ND	ND	0
64301	2017-05-30T04:00:00	20	ND	ND	ND	ND	7.91	ND	ND	ND	ND	ND	0
64302	2017-05-30T05:00:00	6.2	ND	ND	ND	ND	5.95	ND	ND	ND	ND	ND	0
64303	2017-05-30T06:00:00	43.8	ND	ND	ND	ND	3.96	ND	ND	ND	ND	ND	0
64304	2017-05-30T07:00:00	82.4	ND	ND	ND	ND	5.06	ND	ND	ND	ND	ND	0
64305	2017-05-30T08:00:00	97.7	ND	ND	ND	ND	5.77	ND	ND	ND	ND	ND	0
64306	2017-05-30T09:00:00	105.7	ND	ND	ND	ND	17.68	ND	ND	ND	ND	ND	0
64307	2017-05-30T10:00:00	76	ND	ND	ND	ND	37.89	ND	ND	ND	ND	ND	0
64308	2017-05-30T11:00:00	70.2	ND	ND	ND	ND	74.33	ND	ND	ND	ND	ND	0
64309	2017-05-30T12:00:00	87.3	ND	ND	ND	ND	129.20	ND	ND	ND	ND	ND	0
64310	2017-05-30T13:00:00	102.9	ND	ND	ND	ND	72.12	ND	ND	ND	ND	ND	0
64311	2017-05-30T14:00:00	35.7	ND	ND	ND	ND	34.93	ND	ND	ND	ND	ND	0
64312	2017-05-30T15:00:00	2.2	ND	ND	ND	ND	22.69	ND	ND	ND	ND	ND	0
64313	2017-05-30T16:00:00	8.3	ND	ND	ND	ND	23.84	ND	ND	ND	ND	ND	0
64314	2017-05-30T17:00:00	27	ND	ND	ND	ND	20.57	ND	ND	ND	ND	ND	0
64315	2017-05-30T18:00:00	27.4	ND	ND	ND	ND	17.82	ND	ND	ND	ND	ND	0
64316	2017-05-30T19:00:00	24	ND	ND	ND	ND	15.68	ND	ND	ND	ND	ND	0
64317	2017-05-30T20:00:00	33.6	ND	ND	ND	ND	14.05	ND	ND	ND	ND	ND	0
64318	2017-05-30T21:00:00	37.7	ND	ND	ND	ND	18.09	ND	ND	ND	ND	ND	0
64319	2017-05-30T22:00:00	19.9	ND	ND	ND	ND	12.74	ND	ND	ND	ND	ND	0
64320	2017-05-30T23:00:00	40.6	ND	ND	ND	ND	9.48	ND	ND	ND	ND	ND	0
64321	2017-05-31T00:00:00	51.9	ND	ND	ND	ND	9.89	ND	ND	ND	ND	ND	0
64322	2017-05-31T01:00:00	51	ND	ND	ND	ND	10.07	ND	ND	ND	ND	ND	0
64323	2017-05-31T02:00:00	48.3	ND	ND	ND	ND	11.48	ND	ND	ND	ND	ND	0
64324	2017-05-31T03:00:00	53.5	ND	ND	ND	ND	11.44	ND	ND	ND	ND	ND	0
64325	2017-05-31T04:00:00	37.7	ND	ND	ND	ND	12.25	ND	ND	ND	ND	ND	0
64326	2017-05-31T05:00:00	37.7	ND	ND	ND	ND	10.81	ND	ND	ND	ND	ND	0
64327	2017-05-31T06:00:00	41.8	ND	ND	ND	ND	10.46	ND	ND	ND	ND	ND	0
64328	2017-05-31T07:00:00	63.3	ND	ND	ND	ND	10.11	ND	ND	ND	ND	ND	0
64329	2017-05-31T08:00:00	66.3	ND	ND	ND	ND	11.40	ND	ND	ND	ND	ND	0
64330	2017-05-31T09:00:00	45.7	ND	ND	ND	ND	17.15	ND	ND	ND	ND	ND	0
64331	2017-05-31T10:00:00	88.3	ND	ND	ND	ND	34.93	ND	ND	ND	ND	ND	0
64332	2017-05-31T11:00:00	97.2	ND	ND	ND	ND	28.65	ND	ND	ND	ND	ND	0
64333	2017-05-31T12:00:00	82.6	ND	ND	ND	ND	49.10	ND	ND	ND	ND	ND	0
64334	2017-05-31T13:00:00	99.9	ND	ND	ND	ND	51.79	ND	ND	ND	ND	ND	0
64335	2017-05-31T14:00:00	114.1	ND	ND	ND	ND	59.73	ND	ND	ND	ND	ND	0
64336	2017-05-31T15:00:00	86.6	ND	ND	ND	ND	42.35	ND	ND	ND	ND	ND	0
64337	2017-05-31T16:00:00	46.4	ND	ND	ND	ND	17.76	ND	ND	ND	ND	ND	0
64338	2017-05-31T17:00:00	15.7	ND	ND	ND	ND	14.66	ND	ND	ND	ND	ND	0
64339	2017-05-31T18:00:00	14.3	ND	ND	ND	ND	15.44	ND	ND	ND	ND	ND	0
64340	2017-05-31T19:00:00	10.9	ND	ND	ND	ND	8.38	ND	ND	ND	ND	ND	0
64341	2017-05-31T20:00:00	2	ND	ND	ND	ND	4.81	ND	ND	ND	ND	ND	0
64342	2017-05-31T21:00:00	6.4	ND	ND	ND	ND	6.28	ND	ND	ND	ND	ND	0
64343	2017-05-31T22:00:00	18.8	ND	ND	ND	ND	6.57	ND	ND	ND	ND	ND	0
64344	2017-05-31T23:00:00	46.8	ND	ND	ND	ND	8.14	ND	ND	ND	ND	ND	0
64345	2017-06-01T00:00:00	70.1	ND	ND	ND	ND	9.32	ND	ND	ND	ND	ND	0
64346	2017-06-01T01:00:00	52.1	ND	ND	ND	ND	9.34	ND	ND	ND	ND	0	0
64347	2017-06-01T02:00:00	40.9	ND	ND	ND	ND	10.18	ND	ND	ND	ND	0	0
64348	2017-06-01T03:00:00	38.4	ND	ND	ND	ND	9.95	ND	ND	ND	ND	0	0
64349	2017-06-01T04:00:00	27.4	ND	ND	ND	ND	8.16	ND	ND	ND	ND	0	0
64350	2017-06-01T05:00:00	30	ND	ND	ND	ND	8.12	ND	ND	ND	ND	0	0
64351	2017-06-01T06:00:00	29.2	ND	ND	ND	ND	9.56	ND	ND	ND	ND	0	0
64352	2017-06-01T07:00:00	50.2	ND	ND	ND	ND	8.07	ND	ND	ND	ND	44.9	0
64353	2017-06-01T08:00:00	75.7	ND	ND	ND	ND	10.89	ND	ND	ND	ND	346.3	0
64354	2017-06-01T09:00:00	115.9	ND	ND	ND	ND	19.27	ND	ND	ND	ND	629.1	0
64355	2017-06-01T10:00:00	129.8	ND	ND	ND	ND	61.91	ND	ND	ND	ND	641.3	0
64356	2017-06-01T11:00:00	106.6	ND	ND	ND	ND	73.67	ND	ND	ND	ND	648.1	0
64357	2017-06-01T12:00:00	71.6	ND	ND	ND	ND	92.64	ND	ND	ND	ND	647.8	0
64358	2017-06-01T13:00:00	71.4	ND	ND	ND	ND	101.51	ND	ND	ND	ND	647.7	0
64359	2017-06-01T14:00:00	69.2	ND	ND	ND	ND	57.28	ND	ND	ND	ND	581.4	0
64360	2017-06-01T15:00:00	54.7	ND	ND	ND	ND	79.67	ND	ND	ND	ND	628.3	0
64361	2017-06-01T16:00:00	59.2	ND	ND	ND	ND	52.51	ND	ND	ND	ND	635.2	0
64362	2017-06-01T17:00:00	36.1	ND	ND	ND	ND	28.34	ND	ND	ND	ND	529.4	0
64363	2017-06-01T18:00:00	17.1	ND	ND	ND	ND	20.39	ND	ND	ND	ND	163.9	0
64364	2017-06-01T19:00:00	16.3	ND	ND	ND	ND	15.11	ND	ND	ND	ND	4.4	0
64365	2017-06-01T20:00:00	37	ND	ND	ND	ND	17.90	ND	ND	ND	ND	0	0
64366	2017-06-01T21:00:00	30.7	ND	ND	ND	ND	16.92	ND	ND	ND	ND	0	0
64367	2017-06-01T22:00:00	48.4	ND	ND	ND	ND	12.01	ND	ND	ND	ND	0	0
64368	2017-06-01T23:00:00	54.2	ND	ND	ND	ND	10.56	ND	ND	ND	ND	0	0
64369	2017-06-02T00:00:00	48.3	ND	ND	ND	ND	13.03	ND	ND	ND	ND	0	0
64370	2017-06-02T01:00:00	27.7	ND	ND	ND	ND	12.28	ND	ND	ND	ND	0	0
64371	2017-06-02T02:00:00	38.9	ND	ND	ND	ND	12.23	ND	ND	ND	ND	0	0
64372	2017-06-02T03:00:00	38.6	ND	ND	ND	ND	11.91	ND	ND	ND	ND	0	0
64373	2017-06-02T04:00:00	42.3	ND	ND	ND	ND	11.87	ND	ND	ND	ND	0	0
64374	2017-06-02T05:00:00	46.2	ND	ND	ND	ND	10.81	ND	ND	ND	ND	0	0
64375	2017-06-02T06:00:00	58.3	ND	ND	ND	ND	11.22	ND	ND	ND	ND	0	0
64376	2017-06-02T07:00:00	48.8	ND	ND	ND	ND	11.30	ND	ND	ND	ND	165.2	0
64377	2017-06-02T08:00:00	3.2	ND	ND	ND	ND	12.38	ND	ND	ND	ND	572.4	0
64378	2017-06-02T09:00:00	141.6	ND	ND	ND	ND	10.26	ND	ND	ND	ND	596.3	0
64379	2017-06-02T10:00:00	133	ND	ND	ND	ND	30.53	ND	ND	ND	ND	647.7	0
64380	2017-06-02T11:00:00	95.1	ND	ND	ND	ND	51.34	ND	ND	ND	ND	648.3	0
64381	2017-06-02T12:00:00	73.4	ND	ND	ND	ND	65.82	ND	ND	ND	ND	647.9	0
64382	2017-06-02T13:00:00	64.6	ND	ND	ND	ND	91.19	ND	ND	ND	ND	644.3	0
64383	2017-06-02T14:00:00	77.7	ND	ND	ND	ND	105.50	ND	ND	ND	ND	644.3	0
64384	2017-06-02T15:00:00	79.3	ND	ND	ND	ND	98.43	ND	ND	ND	ND	447.6	0
64385	2017-06-02T16:00:00	37.3	ND	ND	ND	ND	19.51	ND	ND	ND	ND	614	0
64386	2017-06-02T17:00:00	46.4	ND	ND	ND	ND	33.67	ND	ND	ND	ND	387	0
64387	2017-06-02T18:00:00	30.8	ND	ND	ND	ND	24.80	ND	ND	ND	ND	87.9	0
64388	2017-06-02T19:00:00	45.5	ND	ND	ND	ND	24.27	ND	ND	ND	ND	5.2	0
64389	2017-06-02T20:00:00	35	ND	ND	ND	ND	15.78	ND	ND	ND	ND	0	0
64390	2017-06-02T21:00:00	43.8	ND	ND	ND	ND	10.95	ND	ND	ND	ND	0	0
64391	2017-06-02T22:00:00	31.1	ND	ND	ND	ND	12.89	ND	ND	ND	ND	0	0
64392	2017-06-02T23:00:00	42.4	ND	ND	ND	ND	12.01	ND	ND	ND	ND	0	0
64393	2017-06-03T00:00:00	66.8	ND	ND	ND	ND	11.11	ND	ND	ND	ND	0	0
64394	2017-06-03T01:00:00	79.4	ND	ND	ND	ND	11.75	ND	ND	ND	ND	0	0
64395	2017-06-03T02:00:00	53.5	ND	ND	ND	ND	10.81	ND	ND	ND	ND	0	0
64396	2017-06-03T03:00:00	38.4	ND	ND	ND	ND	10.95	ND	ND	ND	ND	0	0
64397	2017-06-03T04:00:00	40.3	ND	ND	ND	ND	10.83	ND	ND	ND	ND	0	0
64398	2017-06-03T05:00:00	41.8	ND	ND	ND	ND	9.32	ND	ND	ND	ND	0	0
64399	2017-06-03T06:00:00	37.4	ND	ND	ND	ND	8.16	ND	ND	ND	ND	0	0
64400	2017-06-03T07:00:00	50.1	ND	ND	ND	ND	10.24	ND	ND	ND	ND	80.2	0
64401	2017-06-03T08:00:00	113.4	ND	ND	ND	ND	12.66	ND	ND	ND	ND	520.5	0
64402	2017-06-03T09:00:00	119.4	ND	ND	ND	ND	21.86	ND	ND	ND	ND	634.5	0
64403	2017-06-03T10:00:00	95.6	ND	ND	ND	ND	39.64	ND	ND	ND	ND	648.2	0
64404	2017-06-03T11:00:00	86.2	ND	ND	ND	ND	55.52	ND	ND	ND	ND	648.2	0
64405	2017-06-03T12:00:00	70.5	ND	ND	ND	ND	58.69	ND	ND	ND	ND	647.7	0
64406	2017-06-03T13:00:00	74.4	ND	ND	ND	ND	106.46	ND	ND	ND	ND	648	0
64407	2017-06-03T14:00:00	75	ND	ND	ND	ND	133.81	ND	ND	ND	ND	647.9	0
64408	2017-06-03T15:00:00	93.2	ND	ND	ND	ND	118.21	ND	ND	ND	ND	617.5	0
64409	2017-06-03T16:00:00	77.7	ND	ND	ND	ND	59.97	ND	ND	ND	ND	375.7	0
64410	2017-06-03T17:00:00	36.5	ND	ND	ND	ND	22.10	ND	ND	ND	ND	236.1	0
64411	2017-06-03T18:00:00	26.7	ND	ND	ND	ND	15.64	ND	ND	ND	ND	97.5	0
64412	2017-06-03T19:00:00	28	ND	ND	ND	ND	12.56	ND	ND	ND	ND	0	0
64413	2017-06-03T20:00:00	23.2	ND	ND	ND	ND	20.27	ND	ND	ND	ND	0	0
64414	2017-06-03T21:00:00	47.2	ND	ND	ND	ND	23.76	ND	ND	ND	ND	0	0
64415	2017-06-03T22:00:00	22.4	ND	ND	ND	ND	6.20	ND	ND	ND	ND	0	0
64416	2017-06-03T23:00:00	34.8	ND	ND	ND	ND	8.61	ND	ND	ND	ND	0	0
64417	2017-06-04T00:00:00	43.5	ND	ND	ND	ND	8.81	ND	ND	ND	ND	0	0
64418	2017-06-04T01:00:00	45.4	ND	ND	ND	ND	6.85	ND	ND	ND	ND	0	0
64419	2017-06-04T02:00:00	49.3	ND	ND	ND	ND	6.83	ND	ND	ND	ND	0	0
64420	2017-06-04T03:00:00	46	ND	ND	ND	ND	6.77	ND	ND	ND	ND	0	0
64421	2017-06-04T04:00:00	51.1	ND	ND	ND	ND	6.61	ND	ND	ND	ND	0	0
64422	2017-06-04T05:00:00	49.6	ND	ND	ND	ND	6.63	ND	ND	ND	ND	0	0
64423	2017-06-04T06:00:00	62.8	ND	ND	ND	ND	5.42	ND	ND	ND	ND	0	0
64424	2017-06-04T07:00:00	62.1	ND	ND	ND	ND	7.36	ND	ND	ND	ND	98.4	0
64425	2017-06-04T08:00:00	67.8	ND	ND	ND	ND	7.85	ND	ND	ND	ND	309.6	0
64426	2017-06-04T09:00:00	53.2	ND	ND	ND	ND	19.45	ND	ND	ND	ND	637.9	0
64427	2017-06-04T10:00:00	60.9	ND	ND	ND	ND	35.13	ND	ND	ND	ND	647.5	0
64428	2017-06-04T11:00:00	61.4	ND	ND	ND	ND	38.25	ND	ND	ND	ND	648.3	0
64429	2017-06-04T12:00:00	50.2	ND	ND	ND	ND	38.46	ND	ND	ND	ND	647.9	0
64430	2017-06-04T13:00:00	56.4	ND	ND	ND	ND	64.70	ND	ND	ND	ND	648.2	0
64431	2017-06-04T14:00:00	55.2	ND	ND	ND	ND	85.03	ND	ND	ND	ND	648	0
64432	2017-06-04T15:00:00	50.5	ND	ND	ND	ND	95.80	ND	ND	ND	ND	640.8	0
64433	2017-06-04T16:00:00	61.7	ND	ND	ND	ND	88.66	ND	ND	ND	ND	501.7	0
64434	2017-06-04T17:00:00	66.3	ND	ND	ND	ND	76.32	ND	ND	ND	ND	237.4	0
64435	2017-06-04T18:00:00	46.5	ND	ND	ND	ND	29.02	ND	ND	ND	ND	55	0
64436	2017-06-04T19:00:00	17.8	ND	ND	ND	ND	18.80	ND	ND	ND	ND	0	0
64437	2017-06-04T20:00:00	1.8	ND	ND	ND	ND	15.17	ND	ND	ND	ND	0	0
64438	2017-06-04T21:00:00	10.2	ND	ND	ND	ND	13.62	ND	ND	ND	ND	0	0
64439	2017-06-04T22:00:00	24.1	ND	ND	ND	ND	10.95	ND	ND	ND	ND	0	0
64440	2017-06-04T23:00:00	35.6	ND	ND	ND	ND	11.52	ND	ND	ND	ND	0	0
64441	2017-06-05T00:00:00	66.3	ND	ND	ND	ND	12.28	ND	ND	ND	ND	0	0
64442	2017-06-05T01:00:00	70	ND	ND	ND	ND	11.24	ND	ND	ND	ND	0	0
64443	2017-06-05T02:00:00	56.8	ND	ND	ND	ND	12.07	ND	ND	ND	ND	0	0
64444	2017-06-05T03:00:00	35.8	ND	ND	ND	ND	11.85	ND	ND	ND	ND	0	0
64445	2017-06-05T04:00:00	32.8	ND	ND	ND	ND	11.87	ND	ND	ND	ND	0	0
64446	2017-06-05T05:00:00	46.8	ND	ND	ND	ND	12.03	ND	ND	ND	ND	0	0
64447	2017-06-05T06:00:00	57	ND	ND	ND	ND	12.25	ND	ND	ND	ND	0	0
64448	2017-06-05T07:00:00	67.1	ND	ND	ND	ND	12.52	ND	ND	ND	ND	93.5	0
64449	2017-06-05T08:00:00	75.5	ND	ND	ND	ND	13.30	ND	ND	ND	ND	283.7	0
64450	2017-06-05T09:00:00	87.6	ND	ND	ND	ND	16.95	ND	ND	ND	ND	536	0
64451	2017-06-05T10:00:00	93	ND	ND	ND	ND	40.41	ND	ND	ND	ND	629.8	0
64452	2017-06-05T11:00:00	87.8	ND	ND	ND	ND	51.96	ND	ND	ND	ND	601.7	0
64453	2017-06-05T12:00:00	73.4	ND	ND	ND	ND	72.39	ND	ND	ND	ND	647.8	0
64454	2017-06-05T13:00:00	73.2	ND	ND	ND	ND	87.03	ND	ND	ND	ND	630.1	0
64455	2017-06-05T14:00:00	71.5	ND	ND	ND	ND	94.76	ND	ND	ND	ND	630.9	0
64456	2017-06-05T15:00:00	51.1	ND	ND	ND	ND	89.78	ND	ND	ND	ND	565.3	0
64457	2017-06-05T16:00:00	45.4	ND	ND	ND	ND	67.45	ND	ND	ND	ND	593	0
64458	2017-06-05T17:00:00	39.2	ND	ND	ND	ND	68.64	ND	ND	ND	ND	539.9	0
64459	2017-06-05T18:00:00	61.7	ND	ND	ND	ND	46.27	ND	ND	ND	ND	148.8	0
64460	2017-06-05T19:00:00	69.7	ND	ND	ND	ND	27.85	ND	ND	ND	ND	0	0
64461	2017-06-05T20:00:00	55.7	ND	ND	ND	ND	22.17	ND	ND	ND	ND	0	0
64462	2017-06-05T21:00:00	45.7	ND	ND	ND	ND	16.17	ND	ND	ND	ND	0	0
64463	2017-06-05T22:00:00	31.6	ND	ND	ND	ND	15.23	ND	ND	ND	ND	0	0
64464	2017-06-05T23:00:00	44.9	ND	ND	ND	ND	10.62	ND	ND	ND	ND	0	0
64465	2017-06-06T00:00:00	31.2	ND	ND	ND	ND	13.70	ND	ND	ND	ND	0	0
64466	2017-06-06T01:00:00	30.7	ND	ND	ND	ND	10.44	ND	ND	ND	ND	0	0
64467	2017-06-06T02:00:00	61.3	ND	ND	ND	ND	11.56	ND	ND	ND	ND	0	0
64468	2017-06-06T03:00:00	61.8	ND	ND	ND	ND	8.08	ND	ND	ND	ND	0	0
64469	2017-06-06T04:00:00	19.2	ND	ND	ND	ND	7.36	ND	ND	ND	ND	0	0
64470	2017-06-06T05:00:00	11.3	ND	ND	ND	ND	5.40	ND	ND	ND	ND	0	0
64471	2017-06-06T06:00:00	34.1	ND	ND	ND	ND	3.75	ND	ND	ND	ND	0	0
64472	2017-06-06T07:00:00	52.9	ND	ND	ND	ND	4.49	ND	ND	ND	ND	195	0
64473	2017-06-06T08:00:00	82.2	ND	ND	ND	ND	12.07	ND	ND	ND	ND	606	0
64474	2017-06-06T09:00:00	99.1	ND	ND	ND	ND	21.19	ND	ND	ND	ND	648.1	0
64475	2017-06-06T10:00:00	162.1	ND	ND	ND	ND	39.80	ND	ND	ND	ND	647.8	0
64476	2017-06-06T11:00:00	118.3	ND	ND	ND	ND	50.85	ND	ND	ND	ND	645.6	0
64477	2017-06-06T12:00:00	63.5	ND	ND	ND	ND	64.21	ND	ND	ND	ND	648.2	0
64478	2017-06-06T13:00:00	69.6	ND	ND	ND	ND	72.49	ND	ND	ND	ND	647.9	0
64479	2017-06-06T14:00:00	71.7	ND	ND	ND	ND	75.49	ND	ND	ND	ND	647.8	0
64480	2017-06-06T15:00:00	68.5	ND	ND	ND	ND	72.25	ND	ND	ND	ND	645.8	0
64481	2017-06-06T16:00:00	43.1	ND	ND	ND	ND	30.24	ND	ND	ND	ND	570	0
64482	2017-06-06T17:00:00	6.3	ND	ND	ND	ND	23.35	ND	ND	ND	ND	641.9	0
64483	2017-06-06T18:00:00	23.5	ND	ND	ND	ND	17.37	ND	ND	ND	ND	218.3	0
64484	2017-06-06T19:00:00	39	ND	ND	ND	ND	21.78	ND	ND	ND	ND	0	0
64485	2017-06-06T20:00:00	33.3	ND	ND	ND	ND	25.20	ND	ND	ND	ND	0	0
64486	2017-06-06T21:00:00	10.7	ND	ND	ND	ND	20.74	ND	ND	ND	ND	0	0
64487	2017-06-06T22:00:00	ND	ND	ND	ND	ND	30.22	ND	ND	ND	ND	0	0
64488	2017-06-06T23:00:00	25.6	ND	ND	ND	ND	8.71	ND	ND	ND	ND	0	0
64489	2017-06-07T00:00:00	94.8	ND	ND	ND	ND	10.11	ND	ND	ND	ND	0	0
64490	2017-06-07T01:00:00	83.2	ND	ND	ND	ND	11.56	ND	ND	ND	ND	0	0
64491	2017-06-07T02:00:00	42	ND	ND	ND	ND	10.18	ND	ND	ND	ND	0	0
64492	2017-06-07T03:00:00	46.4	ND	ND	ND	ND	6.14	ND	ND	ND	ND	0	0
64493	2017-06-07T04:00:00	52.5	ND	ND	ND	ND	8.30	ND	ND	ND	ND	0	0
64494	2017-06-07T05:00:00	35.1	ND	ND	ND	ND	7.50	ND	ND	ND	ND	0	0
64495	2017-06-07T06:00:00	53.2	ND	ND	ND	ND	8.61	ND	ND	ND	ND	0	0
64496	2017-06-07T07:00:00	73.1	ND	ND	ND	ND	8.60	ND	ND	ND	ND	31.5	3.56
64497	2017-06-07T08:00:00	64.5	ND	ND	ND	ND	11.21	ND	ND	ND	ND	77.1	5.33
64498	2017-06-07T09:00:00	70.7	ND	ND	ND	ND	12.42	ND	ND	ND	ND	414.2	0.51
64499	2017-06-07T10:00:00	53.9	ND	ND	ND	ND	15.15	ND	ND	ND	ND	644.6	0
64500	2017-06-07T11:00:00	61.7	ND	ND	ND	ND	20.02	ND	ND	ND	ND	648.2	0
64501	2017-06-07T12:00:00	84.3	ND	ND	ND	ND	41.09	ND	ND	ND	ND	647.8	0
64502	2017-06-07T13:00:00	82.9	ND	ND	ND	ND	68.35	ND	ND	ND	ND	633.7	0
64503	2017-06-07T14:00:00	73.9	ND	ND	ND	ND	23.00	ND	ND	ND	ND	195.5	1.78
64504	2017-06-07T15:00:00	27.3	ND	ND	ND	ND	14.82	ND	ND	ND	ND	289.9	4.06
64505	2017-06-07T16:00:00	29.8	ND	ND	ND	ND	21.70	ND	ND	ND	ND	455.1	0.25
64506	2017-06-07T17:00:00	4.1	ND	ND	ND	ND	13.36	ND	ND	ND	ND	172.1	0
64507	2017-06-07T18:00:00	1.5	ND	ND	ND	ND	6.99	ND	ND	ND	ND	77.8	0
64508	2017-06-07T19:00:00	35	ND	ND	ND	ND	4.98	ND	ND	ND	ND	0	0
64509	2017-06-07T20:00:00	50.9	ND	ND	ND	ND	5.97	ND	ND	ND	ND	0	2.03
64510	2017-06-07T21:00:00	40.4	ND	ND	ND	ND	6.87	ND	ND	ND	ND	0	8.13
64511	2017-06-07T22:00:00	12.6	ND	ND	ND	ND	7.73	ND	ND	ND	ND	0	1.27
64512	2017-06-07T23:00:00	8.7	ND	ND	ND	ND	7.04	ND	ND	ND	ND	0	0.25
64513	2017-06-08T00:00:00	20.5	ND	ND	ND	ND	5.99	ND	ND	ND	ND	0	0.25
64514	2017-06-08T01:00:00	1	ND	ND	ND	ND	6.95	ND	ND	ND	ND	0	1.27
64515	2017-06-08T02:00:00	6.6	ND	ND	ND	ND	9.22	ND	ND	ND	ND	0	0.25
64516	2017-06-08T03:00:00	8.6	ND	ND	ND	ND	12.87	ND	ND	ND	ND	0	0.76
64517	2017-06-08T04:00:00	ND	ND	ND	ND	ND	14.76	ND	ND	ND	ND	0	0.25
64518	2017-06-08T05:00:00	3.9	ND	ND	ND	ND	9.40	ND	ND	ND	ND	0	0
64519	2017-06-08T06:00:00	ND	ND	ND	ND	ND	7.04	ND	ND	ND	ND	0	0.25
64520	2017-06-08T07:00:00	29.4	ND	ND	ND	ND	5.32	ND	ND	ND	ND	69.3	0.25
64521	2017-06-08T08:00:00	26	ND	ND	ND	ND	6.87	ND	ND	ND	ND	262.6	0.51
64522	2017-06-08T09:00:00	42.4	ND	ND	ND	ND	16.60	ND	ND	ND	ND	629.3	0
64523	2017-06-08T10:00:00	53.5	ND	ND	ND	ND	32.01	ND	ND	ND	ND	647.8	0
64524	2017-06-08T11:00:00	41.9	ND	ND	ND	ND	29.46	ND	ND	ND	ND	648	0
64525	2017-06-08T12:00:00	38.2	ND	ND	ND	ND	45.37	ND	ND	ND	ND	648.3	0
64526	2017-06-08T13:00:00	32.5	ND	ND	ND	ND	62.76	ND	ND	ND	ND	626.1	0
64527	2017-06-08T14:00:00	43.2	ND	ND	ND	ND	72.29	ND	ND	ND	ND	648.3	0
64528	2017-06-08T15:00:00	47.8	ND	ND	ND	ND	61.48	ND	ND	ND	ND	635	0
64529	2017-06-08T16:00:00	50.5	ND	ND	ND	ND	51.02	ND	ND	ND	ND	585.2	0
64530	2017-06-08T17:00:00	45.9	ND	ND	ND	ND	60.60	ND	ND	ND	ND	253.8	0
64531	2017-06-08T18:00:00	67.2	ND	ND	ND	ND	19.76	ND	ND	ND	ND	50.9	0
64532	2017-06-08T19:00:00	83.7	ND	ND	ND	ND	13.21	ND	ND	ND	ND	0	2.03
64533	2017-06-08T20:00:00	51.7	ND	ND	ND	ND	11.75	ND	ND	ND	ND	0	1.02
64534	2017-06-08T21:00:00	39.2	ND	ND	ND	ND	10.71	ND	ND	ND	ND	0	0.76
64535	2017-06-08T22:00:00	56.2	ND	ND	ND	ND	10.32	ND	ND	ND	ND	0	1.02
64536	2017-06-08T23:00:00	33.1	ND	ND	ND	ND	10.64	ND	ND	ND	ND	0	0.51
64537	2017-06-09T00:00:00	24.5	ND	ND	ND	ND	9.62	ND	ND	ND	ND	0	0.51
64538	2017-06-09T01:00:00	14.8	ND	ND	ND	ND	10.01	ND	ND	ND	ND	0	0
64539	2017-06-09T02:00:00	24	ND	ND	ND	ND	11.42	ND	ND	ND	ND	0	0.25
64540	2017-06-09T03:00:00	16.3	ND	ND	ND	ND	8.99	ND	ND	ND	ND	0	0
64541	2017-06-09T04:00:00	23.1	ND	ND	ND	ND	8.60	ND	ND	ND	ND	0	0
64542	2017-06-09T05:00:00	25.8	ND	ND	ND	ND	9.32	ND	ND	ND	ND	0	0
64543	2017-06-09T06:00:00	22.4	ND	ND	ND	ND	7.61	ND	ND	ND	ND	0	0
64544	2017-06-09T07:00:00	40.8	ND	ND	ND	ND	6.99	ND	ND	ND	ND	115.1	0
64545	2017-06-09T08:00:00	58.2	ND	ND	ND	ND	7.54	ND	ND	ND	ND	241.6	0
64546	2017-06-09T09:00:00	89.5	ND	ND	ND	ND	9.91	ND	ND	ND	ND	559.4	0
64547	2017-06-09T10:00:00	102.2	ND	ND	ND	ND	19.27	ND	ND	ND	ND	647.8	0
64548	2017-06-09T11:00:00	115.2	ND	ND	ND	ND	33.26	ND	ND	ND	ND	648.4	0
64549	2017-06-09T12:00:00	92.3	ND	ND	ND	ND	56.58	ND	ND	ND	ND	648.2	0
64550	2017-06-09T13:00:00	53.2	ND	ND	ND	ND	54.16	ND	ND	ND	ND	648.6	0
64551	2017-06-09T14:00:00	45.9	ND	ND	ND	ND	66.58	ND	ND	ND	ND	631.5	0
64552	2017-06-09T15:00:00	50.1	ND	ND	ND	ND	68.25	ND	ND	ND	ND	637.1	0
64553	2017-06-09T16:00:00	61.8	ND	ND	ND	ND	82.13	ND	ND	ND	ND	572.1	0
64554	2017-06-09T17:00:00	57.7	ND	ND	ND	ND	57.83	ND	ND	ND	ND	597.2	0
64555	2017-06-09T18:00:00	46.5	ND	ND	ND	ND	27.20	ND	ND	ND	ND	222.6	0
64556	2017-06-09T19:00:00	69	ND	ND	ND	ND	12.79	ND	ND	ND	ND	8.1	0
64557	2017-06-09T20:00:00	34.4	ND	ND	ND	ND	6.79	ND	ND	ND	ND	0	0
64558	2017-06-09T21:00:00	31.5	ND	ND	ND	ND	5.24	ND	ND	ND	ND	0	0
64559	2017-06-09T22:00:00	15.1	ND	ND	ND	ND	9.24	ND	ND	ND	ND	0	0
64560	2017-06-09T23:00:00	23.5	ND	ND	ND	ND	9.36	ND	ND	ND	ND	0	0
64561	2017-06-10T00:00:00	31.5	ND	ND	ND	ND	8.18	ND	ND	ND	ND	0	0
64562	2017-06-10T01:00:00	78.4	ND	ND	ND	ND	7.14	ND	ND	ND	ND	0	0
64563	2017-06-10T02:00:00	64.2	ND	ND	ND	ND	7.77	ND	ND	ND	ND	0	0
64564	2017-06-10T03:00:00	56.8	ND	ND	ND	ND	7.63	ND	ND	ND	ND	0	0
64565	2017-06-10T04:00:00	30.9	ND	ND	ND	ND	7.01	ND	ND	ND	ND	0	0
64566	2017-06-10T05:00:00	38.6	ND	ND	ND	ND	7.95	ND	ND	ND	ND	0	0
64567	2017-06-10T06:00:00	48.3	ND	ND	ND	ND	6.40	ND	ND	ND	ND	0	0
64568	2017-06-10T07:00:00	53.3	ND	ND	ND	ND	6.28	ND	ND	ND	ND	147	0
64569	2017-06-10T08:00:00	61.4	ND	ND	ND	ND	8.79	ND	ND	ND	ND	477.6	0
64570	2017-06-10T09:00:00	99.1	ND	ND	ND	ND	17.84	ND	ND	ND	ND	611.6	0
64571	2017-06-10T10:00:00	103.9	ND	ND	ND	ND	31.65	ND	ND	ND	ND	627.1	0
64572	2017-06-10T11:00:00	91	ND	ND	ND	ND	73.00	ND	ND	ND	ND	647.6	0
64573	2017-06-10T12:00:00	99.1	ND	ND	ND	ND	111.68	ND	ND	ND	ND	648.5	0
64574	2017-06-10T13:00:00	85.2	ND	ND	ND	ND	127.34	ND	ND	ND	ND	647.4	0
64575	2017-06-10T14:00:00	86.9	ND	ND	ND	ND	119.33	ND	ND	ND	ND	638.3	0
64576	2017-06-10T15:00:00	76.1	ND	ND	ND	ND	93.51	ND	ND	ND	ND	640.6	0
64577	2017-06-10T16:00:00	62.7	ND	ND	ND	ND	53.38	ND	ND	ND	ND	612.9	0
64578	2017-06-10T17:00:00	45.6	ND	ND	ND	ND	35.70	ND	ND	ND	ND	364.2	0
64579	2017-06-10T18:00:00	39.1	ND	ND	ND	ND	26.35	ND	ND	ND	ND	234.5	0
64580	2017-06-10T19:00:00	31.4	ND	ND	ND	ND	21.33	ND	ND	ND	ND	10.7	0
64581	2017-06-10T20:00:00	20.4	ND	ND	ND	ND	16.35	ND	ND	ND	ND	0	0
64582	2017-06-10T21:00:00	21.6	ND	ND	ND	ND	13.83	ND	ND	ND	ND	0	0
64583	2017-06-10T22:00:00	54.6	ND	ND	ND	ND	10.64	ND	ND	ND	ND	0	0
64584	2017-06-10T23:00:00	53.2	ND	ND	ND	ND	13.23	ND	ND	ND	ND	0	0
64585	2017-06-11T00:00:00	36.6	ND	ND	ND	ND	12.01	ND	ND	ND	ND	0	0
64586	2017-06-11T01:00:00	45.3	ND	ND	ND	ND	11.72	ND	ND	ND	ND	0	0
64587	2017-06-11T02:00:00	48.2	ND	ND	ND	ND	11.42	ND	ND	ND	ND	0	0
64588	2017-06-11T03:00:00	39.5	ND	ND	ND	ND	10.30	ND	ND	ND	ND	0	0
64589	2017-06-11T04:00:00	35.4	ND	ND	ND	ND	9.56	ND	ND	ND	ND	0	3.56
64590	2017-06-11T05:00:00	22.7	ND	ND	ND	ND	9.71	ND	ND	ND	ND	0	3.3
64591	2017-06-11T06:00:00	30.1	ND	ND	ND	ND	8.67	ND	ND	ND	ND	0	0.51
64592	2017-06-11T07:00:00	28.3	ND	ND	ND	ND	9.54	ND	ND	ND	ND	112.2	0
64593	2017-06-11T08:00:00	27.2	ND	ND	ND	ND	12.40	ND	ND	ND	ND	449.4	0
64594	2017-06-11T09:00:00	25.3	ND	ND	ND	ND	14.97	ND	ND	ND	ND	645	0
64595	2017-06-11T10:00:00	41.7	ND	ND	ND	ND	27.34	ND	ND	ND	ND	614.6	0
64596	2017-06-11T11:00:00	30.6	ND	ND	ND	ND	39.48	ND	ND	ND	ND	648.2	0
64597	2017-06-11T12:00:00	21.7	ND	ND	ND	ND	42.64	ND	ND	ND	ND	648.2	0
64598	2017-06-11T13:00:00	22.8	ND	ND	ND	ND	61.62	ND	ND	ND	ND	645.9	0
64599	2017-06-11T14:00:00	27.3	ND	ND	ND	ND	41.98	ND	ND	ND	ND	296.7	0
64600	2017-06-11T15:00:00	17.3	ND	ND	ND	ND	19.86	ND	ND	ND	ND	574	0
64601	2017-06-11T16:00:00	22.6	ND	ND	ND	ND	20.72	ND	ND	ND	ND	423.8	0
64602	2017-06-11T17:00:00	19.6	ND	ND	ND	ND	25.08	ND	ND	ND	ND	468.6	0
64603	2017-06-11T18:00:00	2.6	ND	ND	ND	ND	25.28	ND	ND	ND	ND	182.6	0
64604	2017-06-11T19:00:00	0.2	ND	ND	ND	ND	21.00	ND	ND	ND	ND	5.3	0
64605	2017-06-11T20:00:00	1.9	ND	ND	ND	ND	20.96	ND	ND	ND	ND	0	0
64606	2017-06-11T21:00:00	1	ND	ND	ND	ND	26.67	ND	ND	ND	ND	0	11.43
64607	2017-06-11T22:00:00	8.5	ND	ND	ND	ND	18.35	ND	ND	ND	ND	0	3.81
64608	2017-06-11T23:00:00	16	ND	ND	ND	ND	16.39	ND	ND	ND	ND	0	0.25
64609	2017-06-12T00:00:00	4.4	ND	ND	ND	ND	16.37	ND	ND	ND	ND	0	0
64610	2017-06-12T01:00:00	11.5	ND	ND	ND	ND	17.13	ND	ND	ND	ND	0	0
64611	2017-06-12T02:00:00	22.3	ND	ND	ND	ND	5.95	ND	ND	ND	ND	0	0
64612	2017-06-12T03:00:00	53.3	ND	ND	ND	ND	7.75	ND	ND	ND	ND	0	1.27
64613	2017-06-12T04:00:00	46.3	ND	ND	ND	ND	9.30	ND	ND	ND	ND	0	2.54
64614	2017-06-12T05:00:00	34.3	ND	ND	ND	ND	6.50	ND	ND	ND	ND	0	5.08
64615	2017-06-12T06:00:00	20	ND	ND	ND	ND	6.83	ND	ND	ND	ND	0	2.79
64616	2017-06-12T07:00:00	8.9	ND	ND	ND	ND	4.71	ND	ND	ND	ND	25.1	0.25
64617	2017-06-12T08:00:00	6.4	ND	ND	ND	ND	4.65	ND	ND	ND	ND	79.3	0
64618	2017-06-12T09:00:00	5.6	ND	ND	ND	ND	5.57	ND	ND	ND	ND	325.7	0
64619	2017-06-12T10:00:00	21.3	ND	ND	ND	ND	12.38	ND	ND	ND	ND	633.8	0
64620	2017-06-12T11:00:00	33.7	ND	ND	ND	ND	18.03	ND	ND	ND	ND	647.8	0
64621	2017-06-12T12:00:00	25.1	ND	ND	ND	ND	26.61	ND	ND	ND	ND	648.2	0
64622	2017-06-12T13:00:00	30.2	ND	ND	ND	ND	43.17	ND	ND	ND	ND	647.4	0
64623	2017-06-12T14:00:00	38.9	ND	ND	ND	ND	58.89	ND	ND	ND	ND	648.1	0
64624	2017-06-12T15:00:00	32.3	ND	ND	ND	ND	48.08	ND	ND	ND	ND	434.2	0
64625	2017-06-12T16:00:00	28.5	ND	ND	ND	ND	50.04	ND	ND	ND	ND	340.6	0
64626	2017-06-12T17:00:00	60.8	ND	ND	ND	ND	31.36	ND	ND	ND	ND	206.7	0
64627	2017-06-12T18:00:00	93.2	ND	ND	ND	ND	27.20	ND	ND	ND	ND	66.2	0
64628	2017-06-12T19:00:00	92.9	ND	ND	ND	ND	15.48	ND	ND	ND	ND	7.3	0
64629	2017-06-12T20:00:00	83.5	ND	ND	ND	ND	9.75	ND	ND	ND	ND	0	0
64630	2017-06-12T21:00:00	45.5	ND	ND	ND	ND	10.97	ND	ND	ND	ND	0	0
64631	2017-06-12T22:00:00	43.6	ND	ND	ND	ND	14.27	ND	ND	ND	ND	0	12.45
64632	2017-06-12T23:00:00	23	ND	ND	ND	ND	12.70	ND	ND	ND	ND	0	6.6
64633	2017-06-13T00:00:00	14.7	ND	ND	ND	ND	11.52	ND	ND	ND	ND	0	0.51
64634	2017-06-13T01:00:00	13.8	ND	ND	ND	ND	10.50	ND	ND	ND	ND	0	0
64635	2017-06-13T02:00:00	13.1	ND	ND	ND	ND	8.54	ND	ND	ND	ND	0	0
64636	2017-06-13T03:00:00	5.7	ND	ND	ND	ND	8.24	ND	ND	ND	ND	0	0.25
64637	2017-06-13T04:00:00	10.8	ND	ND	ND	ND	8.89	ND	ND	ND	ND	0	1.27
64638	2017-06-13T05:00:00	8.5	ND	ND	ND	ND	8.34	ND	ND	ND	ND	0	1.02
64639	2017-06-13T06:00:00	29.2	ND	ND	ND	ND	6.83	ND	ND	ND	ND	0	0.51
64640	2017-06-13T07:00:00	43.3	ND	ND	ND	ND	8.20	ND	ND	ND	ND	29.9	0.25
64641	2017-06-13T08:00:00	50.6	ND	ND	ND	ND	8.77	ND	ND	ND	ND	134.4	0.25
64642	2017-06-13T09:00:00	66	ND	ND	ND	ND	10.05	ND	ND	ND	ND	454.2	0
64643	2017-06-13T10:00:00	74.4	ND	ND	ND	ND	13.32	ND	ND	ND	ND	628.1	0.25
64644	2017-06-13T11:00:00	72.8	ND	ND	ND	0.82	18.96	ND	ND	ND	ND	648.1	0
64645	2017-06-13T12:00:00	54.6	ND	ND	ND	ND	31.54	ND	ND	ND	ND	648.3	0
64646	2017-06-13T13:00:00	56.9	ND	ND	ND	ND	37.07	ND	ND	ND	ND	647	0
64647	2017-06-13T14:00:00	39.2	ND	ND	ND	ND	49.16	ND	ND	ND	ND	648.7	0
64648	2017-06-13T15:00:00	39.9	ND	ND	ND	ND	79.24	ND	ND	ND	ND	647.5	0
64649	2017-06-13T16:00:00	36	ND	ND	ND	ND	44.90	ND	ND	ND	ND	439	0
64650	2017-06-13T17:00:00	46.8	ND	ND	ND	ND	29.73	ND	ND	ND	ND	485.4	0
64651	2017-06-13T18:00:00	74.3	ND	ND	ND	ND	22.76	ND	ND	ND	ND	127.3	0
64652	2017-06-13T19:00:00	80.1	ND	ND	ND	ND	13.74	ND	ND	ND	ND	6.7	0
64653	2017-06-13T20:00:00	64.4	ND	ND	ND	ND	11.17	ND	ND	ND	ND	0	0
64654	2017-06-13T21:00:00	74.4	ND	ND	ND	ND	8.38	ND	ND	ND	ND	0	0
64655	2017-06-13T22:00:00	86.2	ND	ND	ND	ND	7.50	ND	ND	ND	ND	0	0
64656	2017-06-13T23:00:00	76.4	ND	ND	ND	0.49	9.60	ND	ND	ND	ND	0	0
64657	2017-06-14T00:00:00	63.7	ND	ND	ND	ND	9.24	ND	ND	ND	ND	0	0
64658	2017-06-14T01:00:00	45.3	ND	ND	ND	ND	8.63	ND	ND	ND	ND	0	0
64659	2017-06-14T02:00:00	51.3	ND	ND	ND	ND	9.26	ND	ND	ND	ND	0	0
64660	2017-06-14T03:00:00	54.7	ND	ND	ND	ND	7.89	ND	ND	ND	ND	0	0
64661	2017-06-14T04:00:00	27.5	ND	ND	ND	0.56	5.71	ND	ND	ND	ND	0	0
64662	2017-06-14T05:00:00	22.5	ND	ND	ND	ND	4.32	ND	ND	ND	ND	0	0
64663	2017-06-14T06:00:00	35.3	ND	ND	ND	ND	5.12	ND	ND	ND	ND	0	0
64664	2017-06-14T07:00:00	65.1	ND	ND	ND	ND	5.26	ND	ND	ND	ND	72.4	0
64665	2017-06-14T08:00:00	95	ND	ND	ND	ND	5.06	ND	ND	ND	ND	220.1	0
64666	2017-06-14T09:00:00	114.3	ND	ND	ND	ND	7.61	ND	ND	ND	ND	521.4	0
64667	2017-06-14T10:00:00	136.9	ND	ND	ND	ND	23.94	ND	ND	ND	ND	647.6	0
64668	2017-06-14T11:00:00	135.1	ND	ND	ND	ND	ND	ND	ND	ND	ND	649	0
64669	2017-06-14T12:00:00	92	ND	ND	ND	ND	76.40	ND	ND	ND	ND	647.3	0
64670	2017-06-14T13:00:00	28.5	ND	ND	ND	6.97	66.74	ND	ND	ND	ND	648.6	0
64671	2017-06-14T14:00:00	13.5	ND	ND	ND	7.60	53.00	ND	ND	ND	ND	647.6	0
64672	2017-06-14T15:00:00	28.1	ND	ND	ND	7.35	48.22	ND	ND	ND	ND	644.8	0
64673	2017-06-14T16:00:00	49	ND	ND	ND	7.46	61.03	ND	ND	ND	ND	573.8	0
64674	2017-06-14T17:00:00	56.7	ND	ND	ND	7.51	44.98	ND	ND	ND	ND	477.4	0
64675	2017-06-14T18:00:00	26.2	ND	ND	ND	7.50	17.23	ND	ND	ND	ND	125.6	0
64676	2017-06-14T19:00:00	28.6	ND	ND	ND	4.50	4.18	ND	ND	ND	ND	5.7	0
64677	2017-06-14T20:00:00	24.8	ND	ND	ND	2.63	3.10	ND	ND	ND	ND	0	0
64678	2017-06-14T21:00:00	19	ND	ND	ND	3.85	5.14	ND	ND	ND	ND	0	0
64679	2017-06-14T22:00:00	4.4	ND	ND	ND	3.69	4.47	ND	ND	ND	ND	0	0
64680	2017-06-14T23:00:00	5.9	ND	ND	ND	4.22	5.12	ND	ND	ND	ND	0	0
64681	2017-06-15T00:00:00	17.6	ND	ND	ND	3.75	9.36	ND	ND	ND	ND	0	0
64682	2017-06-15T01:00:00	10.1	ND	ND	ND	3.37	14.07	ND	ND	ND	ND	0	0
64683	2017-06-15T02:00:00	22.5	ND	ND	ND	4.67	3.89	ND	ND	ND	ND	0	0
64684	2017-06-15T03:00:00	72.8	ND	ND	ND	8.39	3.61	ND	ND	ND	ND	0	0
64685	2017-06-15T04:00:00	80.4	ND	ND	ND	8.49	3.55	ND	ND	ND	ND	0	0
64686	2017-06-15T05:00:00	73.5	ND	ND	ND	7.12	3.67	ND	ND	ND	ND	0	0
64687	2017-06-15T06:00:00	81.9	ND	ND	ND	6.96	3.49	ND	ND	ND	ND	0	0
64688	2017-06-15T07:00:00	71.4	ND	ND	ND	5.49	2.71	ND	ND	ND	ND	100.5	0
64689	2017-06-15T08:00:00	61.7	ND	ND	ND	4.80	3.96	ND	ND	ND	ND	254	0
64690	2017-06-15T09:00:00	134.2	ND	ND	ND	6.04	5.79	ND	ND	ND	ND	564	0
64691	2017-06-15T10:00:00	104.3	ND	ND	ND	5.06	9.14	ND	ND	ND	ND	632.4	0
64692	2017-06-15T11:00:00	88.8	ND	ND	ND	1.41	14.17	ND	ND	ND	ND	648	0
64693	2017-06-15T12:00:00	76	ND	ND	ND	1.59	29.40	ND	ND	ND	ND	648.2	0
64694	2017-06-15T13:00:00	63.2	ND	ND	ND	5.65	65.39	ND	ND	ND	ND	647.8	0
64695	2017-06-15T14:00:00	59.8	ND	ND	ND	2.26	77.45	ND	ND	ND	ND	647.2	0
64696	2017-06-15T15:00:00	42.5	ND	ND	ND	0.92	89.07	ND	ND	ND	ND	645.6	0
64697	2017-06-15T16:00:00	43.5	ND	ND	ND	3.89	57.50	ND	ND	ND	ND	574.5	0
64698	2017-06-15T17:00:00	58.6	ND	ND	ND	3.08	64.15	ND	ND	ND	ND	389.5	0
64699	2017-06-15T18:00:00	65.7	ND	ND	ND	2.65	32.50	ND	ND	ND	ND	331.4	0
64700	2017-06-15T19:00:00	45.1	ND	ND	ND	1.67	14.19	ND	ND	ND	ND	6.4	0
64701	2017-06-15T20:00:00	26.3	ND	ND	ND	3.50	15.05	ND	ND	ND	ND	0	0
64702	2017-06-15T21:00:00	22.9	ND	ND	ND	2.30	18.56	ND	ND	ND	ND	0	0
64703	2017-06-15T22:00:00	20.2	ND	ND	ND	5.59	10.66	ND	ND	ND	ND	0	0
64704	2017-06-15T23:00:00	46.2	ND	ND	ND	6.22	4.00	ND	ND	ND	ND	0	0
64705	2017-06-16T00:00:00	40.9	ND	ND	ND	4.28	6.34	ND	ND	ND	ND	0	0
64706	2017-06-16T01:00:00	33.4	ND	ND	ND	4.93	9.56	ND	ND	ND	ND	0	0
64707	2017-06-16T02:00:00	31.8	ND	ND	ND	3.88	11.56	ND	ND	ND	ND	0	0
64708	2017-06-16T03:00:00	27.7	ND	ND	ND	4.68	14.72	ND	ND	ND	ND	0	0
64709	2017-06-16T04:00:00	20	ND	ND	ND	5.17	7.97	ND	ND	ND	ND	0	0
64710	2017-06-16T05:00:00	29.8	ND	ND	ND	6.34	7.10	ND	ND	ND	ND	0	0
64711	2017-06-16T06:00:00	39.5	ND	ND	ND	4.22	5.32	ND	ND	ND	ND	0	0
64712	2017-06-16T07:00:00	62.1	ND	ND	ND	6.33	6.71	ND	ND	ND	ND	69.3	0
64713	2017-06-16T08:00:00	107.4	ND	ND	ND	9.59	7.04	ND	ND	ND	ND	193.6	0
64714	2017-06-16T09:00:00	103.5	ND	ND	ND	7.26	9.14	ND	ND	ND	ND	351.1	0
64715	2017-06-16T10:00:00	92.5	ND	ND	ND	3.94	22.70	ND	ND	ND	ND	647.9	0
64716	2017-06-16T11:00:00	77.9	ND	ND	ND	1.97	44.13	ND	ND	ND	ND	634.7	0
64717	2017-06-16T12:00:00	74	ND	ND	ND	1.45	60.91	ND	ND	ND	ND	648	0
64718	2017-06-16T13:00:00	54.8	ND	ND	ND	3.79	96.94	ND	ND	ND	ND	648.5	0
64719	2017-06-16T14:00:00	67.1	ND	ND	ND	4.22	91.62	ND	ND	ND	ND	645.6	0
64720	2017-06-16T15:00:00	68.4	ND	ND	ND	3.88	74.77	ND	ND	ND	ND	437.9	0
64721	2017-06-16T16:00:00	52.7	ND	ND	ND	3.33	26.28	ND	ND	ND	ND	397.5	0
64722	2017-06-16T17:00:00	21	ND	ND	ND	3.22	17.48	ND	ND	ND	ND	477.5	0
64723	2017-06-16T18:00:00	32	ND	ND	ND	2.79	13.85	ND	ND	ND	ND	153.2	0
64724	2017-06-16T19:00:00	43.5	ND	ND	ND	3.36	17.78	ND	ND	ND	ND	5.7	0
64725	2017-06-16T20:00:00	29.1	ND	ND	ND	3.39	18.86	ND	ND	ND	ND	0	0
64726	2017-06-16T21:00:00	7.5	ND	ND	ND	4.01	20.51	ND	ND	ND	ND	0	0
64727	2017-06-16T22:00:00	20.8	ND	ND	ND	4.31	5.67	ND	ND	ND	ND	0	0
64728	2017-06-16T23:00:00	33.4	ND	ND	ND	3.08	14.60	ND	ND	ND	ND	0	0
64729	2017-06-17T00:00:00	4	ND	ND	ND	3.60	7.16	ND	ND	ND	ND	0	0
64730	2017-06-17T01:00:00	48.7	ND	ND	ND	3.62	4.53	ND	ND	ND	ND	0	0
64731	2017-06-17T02:00:00	59.1	ND	ND	ND	4.73	6.02	ND	ND	ND	ND	0	0
64732	2017-06-17T03:00:00	37.1	ND	ND	ND	4.10	6.20	ND	ND	ND	ND	0	0
64733	2017-06-17T04:00:00	24.8	ND	ND	ND	6.94	4.59	ND	ND	ND	ND	0	0
64734	2017-06-17T05:00:00	30.5	ND	ND	ND	5.99	5.49	ND	ND	ND	ND	0	0
64735	2017-06-17T06:00:00	27.4	ND	ND	ND	5.53	5.04	ND	ND	ND	ND	0	0
64736	2017-06-17T07:00:00	49.3	ND	ND	ND	6.08	5.28	ND	ND	ND	ND	86.6	0
64737	2017-06-17T08:00:00	81.2	ND	ND	ND	6.63	6.89	ND	ND	ND	ND	350.9	0
64738	2017-06-17T09:00:00	76.5	ND	ND	ND	5.34	8.40	ND	ND	ND	ND	622.8	0
64739	2017-06-17T10:00:00	67.3	ND	ND	ND	3.23	18.86	ND	ND	ND	ND	581.7	0
64740	2017-06-17T11:00:00	71.3	ND	ND	ND	3.14	28.94	ND	ND	ND	ND	619.3	0
64741	2017-06-17T12:00:00	62.8	ND	ND	ND	3.55	31.59	ND	ND	ND	ND	566.7	0
64742	2017-06-17T13:00:00	17.7	ND	ND	ND	1.64	21.72	ND	ND	ND	ND	647.9	0
64743	2017-06-17T14:00:00	ND	ND	ND	ND	3.79	25.37	ND	ND	ND	ND	647.8	0
64744	2017-06-17T15:00:00	2.2	ND	ND	ND	4.14	24.80	ND	ND	ND	ND	648.3	0
64745	2017-06-17T16:00:00	ND	ND	ND	ND	3.01	22.14	ND	ND	ND	ND	648.4	0
64746	2017-06-17T17:00:00	ND	ND	ND	ND	2.58	20.29	ND	ND	ND	ND	498.4	0
64747	2017-06-17T18:00:00	ND	ND	ND	ND	4.84	13.87	ND	ND	ND	ND	33.5	0
64748	2017-06-17T19:00:00	81	ND	ND	ND	5.48	9.71	ND	ND	ND	ND	0	0
64749	2017-06-17T20:00:00	143.8	ND	ND	ND	6.20	8.14	ND	ND	ND	ND	0	0
64750	2017-06-17T21:00:00	105.3	ND	ND	ND	5.51	7.08	ND	ND	ND	ND	0	0
64751	2017-06-17T22:00:00	51.4	ND	ND	ND	3.94	4.85	ND	ND	ND	ND	0	0
64752	2017-06-17T23:00:00	43.6	ND	ND	ND	3.26	3.96	ND	ND	ND	ND	0	0
64753	2017-06-18T00:00:00	52.1	ND	ND	ND	6.44	4.06	ND	ND	ND	ND	0	0
64754	2017-06-18T01:00:00	53.3	ND	ND	ND	8.03	4.04	ND	ND	ND	ND	0	0
64755	2017-06-18T02:00:00	57.9	ND	ND	ND	6.34	3.87	ND	ND	ND	ND	0	0
64756	2017-06-18T03:00:00	34.4	ND	ND	ND	6.97	3.55	ND	ND	ND	ND	0	0
64757	2017-06-18T04:00:00	41.4	ND	ND	ND	7.40	3.38	ND	ND	ND	ND	0	0
64758	2017-06-18T05:00:00	24.9	ND	ND	ND	6.16	2.90	ND	ND	ND	ND	0	0
64759	2017-06-18T06:00:00	35	ND	ND	ND	9.59	3.24	ND	ND	ND	ND	0	0
64760	2017-06-18T07:00:00	44.1	ND	ND	ND	5.74	2.98	ND	ND	ND	ND	78.6	0
64761	2017-06-18T08:00:00	56.1	ND	ND	ND	10.61	5.59	ND	ND	ND	ND	343.4	0
64762	2017-06-18T09:00:00	75	ND	ND	ND	8.78	18.43	ND	ND	ND	ND	627	0
64763	2017-06-18T10:00:00	91.7	ND	ND	ND	6.11	44.41	ND	ND	ND	ND	647.8	0
64764	2017-06-18T11:00:00	80	ND	ND	ND	2.98	58.11	ND	ND	ND	ND	648.2	0
64765	2017-06-18T12:00:00	63.2	ND	ND	ND	4.57	72.45	ND	ND	ND	ND	647.9	0
64766	2017-06-18T13:00:00	56.5	ND	ND	ND	3.04	73.67	ND	ND	ND	ND	648.2	0
64767	2017-06-18T14:00:00	44.8	ND	ND	ND	1.00	58.97	ND	ND	ND	ND	648	0
64768	2017-06-18T15:00:00	29.1	ND	ND	ND	3.97	61.80	ND	ND	ND	ND	503.2	0
64769	2017-06-18T16:00:00	29	ND	ND	ND	0.08	37.58	ND	ND	ND	ND	163.9	1.52
64770	2017-06-18T17:00:00	22.9	ND	ND	ND	3.93	15.90	ND	ND	ND	ND	411	1.27
64771	2017-06-18T18:00:00	46.7	ND	ND	ND	4.59	11.60	ND	ND	ND	ND	277.3	0
64772	2017-06-18T19:00:00	36.6	ND	ND	ND	3.48	8.44	ND	ND	ND	ND	0	0
64773	2017-06-18T20:00:00	7.6	ND	ND	ND	3.21	7.28	ND	ND	ND	ND	0	0
64774	2017-06-18T21:00:00	12.7	ND	ND	ND	3.05	9.64	ND	ND	ND	ND	0	0
64775	2017-06-18T22:00:00	15.4	ND	ND	ND	4.61	8.07	ND	ND	ND	ND	0	0
64776	2017-06-18T23:00:00	23.1	ND	ND	ND	3.39	5.40	ND	ND	ND	ND	0	0
64777	2017-06-19T00:00:00	43.6	ND	ND	ND	5.02	6.34	ND	ND	ND	ND	0	0
64778	2017-06-19T01:00:00	42.9	ND	ND	ND	5.62	8.44	ND	ND	ND	ND	0	1.52
64779	2017-06-19T02:00:00	37.6	ND	ND	ND	5.44	9.34	ND	ND	ND	ND	0	0.51
64780	2017-06-19T03:00:00	24.7	ND	ND	ND	4.57	8.42	ND	ND	ND	ND	0	0.51
64781	2017-06-19T04:00:00	16.9	ND	ND	ND	4.22	9.09	ND	ND	ND	ND	0	0.76
64782	2017-06-19T05:00:00	3.5	ND	ND	ND	5.74	9.24	ND	ND	ND	ND	0	0
64783	2017-06-19T06:00:00	5.4	ND	ND	ND	5.60	6.77	ND	ND	ND	ND	0	0.76
64784	2017-06-19T07:00:00	9.5	ND	ND	ND	4.77	5.44	ND	ND	ND	ND	27.4	0.25
64785	2017-06-19T08:00:00	6.7	ND	ND	ND	6.65	5.81	ND	ND	ND	ND	159.7	0.25
64786	2017-06-19T09:00:00	27.6	ND	ND	ND	3.43	8.52	ND	ND	ND	ND	342.9	0
64787	2017-06-19T10:00:00	20.8	ND	ND	ND	6.26	17.45	ND	ND	ND	ND	643.3	0
64788	2017-06-19T11:00:00	31.7	ND	ND	ND	3.58	37.25	ND	ND	ND	ND	648.3	0
64789	2017-06-19T12:00:00	23.5	ND	ND	ND	2.96	56.77	ND	ND	ND	ND	648.7	0
64790	2017-06-19T13:00:00	28.2	ND	ND	ND	4.82	62.13	ND	ND	ND	ND	648.3	0
64791	2017-06-19T14:00:00	23.5	ND	ND	ND	4.42	74.33	ND	ND	ND	ND	641.1	0
64792	2017-06-19T15:00:00	27.8	ND	ND	ND	2.13	94.61	ND	ND	ND	ND	647.5	0
64793	2017-06-19T16:00:00	33	ND	ND	ND	5.56	89.92	ND	ND	ND	ND	541	0
64794	2017-06-19T17:00:00	30.6	ND	ND	ND	2.94	41.58	ND	ND	ND	ND	347.9	0
64795	2017-06-19T18:00:00	11.4	ND	ND	ND	3.40	22.00	ND	ND	ND	ND	125.5	0
64796	2017-06-19T19:00:00	11.4	ND	ND	ND	2.63	19.72	ND	ND	ND	ND	0	0
64797	2017-06-19T20:00:00	8.8	ND	ND	ND	4.57	15.25	ND	ND	ND	ND	0	0
64798	2017-06-19T21:00:00	11	ND	ND	ND	4.64	7.95	ND	ND	ND	ND	0	0
64799	2017-06-19T22:00:00	20.5	ND	ND	ND	3.60	4.91	ND	ND	ND	ND	0	0
64800	2017-06-19T23:00:00	27	ND	ND	ND	4.22	6.12	ND	ND	ND	ND	0	0
64801	2017-06-20T00:00:00	39.2	ND	ND	ND	4.25	7.22	ND	ND	ND	ND	0	0
64802	2017-06-20T01:00:00	11.7	ND	ND	ND	4.82	10.95	ND	ND	ND	ND	0	0
64803	2017-06-20T02:00:00	4.4	ND	ND	ND	5.80	13.91	ND	ND	ND	ND	0	0
64804	2017-06-20T03:00:00	8.7	ND	ND	ND	4.08	10.34	ND	ND	ND	ND	0	0
64805	2017-06-20T04:00:00	30.9	ND	ND	ND	3.28	11.30	ND	ND	ND	ND	0	0
64806	2017-06-20T05:00:00	30.7	ND	ND	ND	7.43	4.32	ND	ND	ND	ND	0	0
64807	2017-06-20T06:00:00	60.2	ND	ND	ND	8.31	4.61	ND	ND	ND	ND	0	0
64808	2017-06-20T07:00:00	83.3	ND	ND	ND	7.25	5.04	ND	ND	ND	ND	69.1	0
64809	2017-06-20T08:00:00	77.8	ND	ND	ND	8.91	6.42	ND	ND	ND	ND	482.1	0
64810	2017-06-20T09:00:00	99.2	ND	ND	ND	7.26	11.07	ND	ND	ND	ND	648.1	0
64811	2017-06-20T10:00:00	95.6	ND	ND	ND	4.32	23.23	ND	ND	ND	ND	647.9	0
64812	2017-06-20T11:00:00	77	ND	ND	ND	5.17	44.59	ND	ND	ND	ND	648.1	0
64813	2017-06-20T12:00:00	63.5	ND	ND	ND	3.50	66.58	ND	ND	ND	ND	648.1	0
64814	2017-06-20T13:00:00	48.5	ND	ND	ND	3.90	102.40	ND	ND	ND	ND	644.3	0
64815	2017-06-20T14:00:00	44.9	ND	ND	ND	4.32	90.27	ND	ND	ND	ND	641	0
64816	2017-06-20T15:00:00	64.5	ND	ND	ND	2.66	58.62	ND	ND	ND	ND	534.3	0
64817	2017-06-20T16:00:00	47.5	ND	ND	ND	1.28	15.19	ND	ND	ND	ND	510	0
64818	2017-06-20T17:00:00	31.8	ND	ND	ND	2.59	13.17	ND	ND	ND	ND	277.6	0
64819	2017-06-20T18:00:00	28.6	ND	ND	ND	2.76	12.99	ND	ND	ND	ND	99.5	0
64820	2017-06-20T19:00:00	25.9	ND	ND	ND	2.20	7.61	ND	ND	ND	ND	0	0
64821	2017-06-20T20:00:00	20.1	ND	ND	ND	3.53	10.18	ND	ND	ND	ND	0	40.13
64822	2017-06-20T21:00:00	15.8	ND	ND	ND	4.80	6.53	ND	ND	ND	ND	0	5.08
64823	2017-06-20T22:00:00	26.7	ND	ND	ND	4.46	6.89	ND	ND	ND	ND	0	6.86
64824	2017-06-20T23:00:00	16.7	ND	ND	ND	4.42	5.26	ND	ND	ND	ND	0	5.33
64825	2017-06-21T00:00:00	10.5	ND	ND	ND	4.70	6.10	ND	ND	ND	ND	0	2.03
64826	2017-06-21T01:00:00	17.7	ND	ND	ND	5.31	5.97	ND	ND	ND	ND	0	2.29
64827	2017-06-21T02:00:00	19.6	ND	ND	ND	5.65	5.97	ND	ND	ND	ND	0	0.25
64828	2017-06-21T03:00:00	18.3	ND	ND	ND	4.08	6.50	ND	ND	ND	ND	0	0
64829	2017-06-21T04:00:00	5.2	ND	ND	ND	4.73	6.12	ND	ND	ND	ND	0	0
64830	2017-06-21T05:00:00	8.1	ND	ND	ND	4.28	4.85	ND	ND	ND	ND	0	0
64831	2017-06-21T06:00:00	11.9	ND	ND	ND	4.54	5.18	ND	ND	ND	ND	0	0.25
64832	2017-06-21T07:00:00	34.6	ND	ND	ND	6.36	5.61	ND	ND	ND	ND	67.6	0
64833	2017-06-21T08:00:00	58.9	ND	ND	ND	5.14	6.14	ND	ND	ND	ND	202.7	0
64834	2017-06-21T09:00:00	69.3	ND	ND	ND	6.43	6.00	ND	ND	ND	ND	130.3	0
64835	2017-06-21T10:00:00	67.5	ND	ND	ND	5.46	6.48	ND	ND	ND	ND	503.7	0
64836	2017-06-21T11:00:00	80.1	ND	ND	ND	4.34	15.17	ND	ND	ND	ND	647.3	0
64837	2017-06-21T12:00:00	77.4	ND	ND	ND	4.34	32.22	ND	ND	ND	ND	648.3	0
64838	2017-06-21T13:00:00	64.2	ND	ND	ND	2.22	42.56	ND	ND	ND	ND	648	0
64839	2017-06-21T14:00:00	43.4	ND	ND	ND	3.01	50.16	ND	ND	ND	ND	648.3	0
64840	2017-06-21T15:00:00	43.2	ND	ND	ND	3.48	52.89	ND	ND	ND	ND	618.2	0
64841	2017-06-21T16:00:00	50.8	ND	ND	ND	4.70	51.85	ND	ND	ND	ND	375	0
64842	2017-06-21T17:00:00	48.1	ND	ND	ND	3.18	25.92	ND	ND	ND	ND	152	0
64843	2017-06-21T18:00:00	40.6	ND	ND	ND	4.17	9.46	ND	ND	ND	ND	152.4	0
64844	2017-06-21T19:00:00	35.1	ND	ND	ND	2.27	6.73	ND	ND	ND	ND	6.5	0
64845	2017-06-21T20:00:00	17.1	ND	ND	ND	3.96	4.36	ND	ND	ND	ND	0	0
64846	2017-06-21T21:00:00	39.3	ND	ND	ND	4.77	6.08	ND	ND	ND	ND	0	0
64847	2017-06-21T22:00:00	63.1	ND	ND	ND	3.79	5.02	ND	ND	ND	ND	0	0
64848	2017-06-21T23:00:00	59.6	ND	ND	ND	4.04	4.51	ND	ND	ND	ND	0	0
64849	2017-06-22T00:00:00	40.7	ND	ND	ND	4.34	3.79	ND	ND	ND	ND	0	0
64850	2017-06-22T01:00:00	33	ND	ND	ND	3.83	4.63	ND	ND	ND	ND	0	0
64851	2017-06-22T02:00:00	34.2	ND	ND	ND	4.36	5.49	ND	ND	ND	ND	0	0
64852	2017-06-22T03:00:00	31.7	ND	ND	ND	5.30	5.63	ND	ND	ND	ND	0	0
64853	2017-06-22T04:00:00	31.5	ND	ND	ND	3.37	3.75	ND	ND	ND	ND	0	0
64854	2017-06-22T05:00:00	26.6	ND	ND	ND	6.68	3.73	ND	ND	ND	ND	0	0
64855	2017-06-22T06:00:00	42	ND	ND	ND	5.14	4.96	ND	ND	ND	ND	0	0
64856	2017-06-22T07:00:00	68.2	ND	ND	ND	5.78	6.52	ND	ND	ND	ND	95.8	0
64857	2017-06-22T08:00:00	93.8	ND	ND	ND	5.81	7.16	ND	ND	ND	ND	314.9	0
64858	2017-06-22T09:00:00	114.6	ND	ND	ND	3.51	11.48	ND	ND	ND	ND	615.8	0
64859	2017-06-22T10:00:00	122.5	ND	ND	ND	2.80	28.12	ND	ND	ND	ND	648	0
64860	2017-06-22T11:00:00	102.3	ND	ND	ND	2.04	30.48	ND	ND	ND	ND	636.8	0
64861	2017-06-22T12:00:00	75.2	ND	ND	ND	2.22	39.58	ND	ND	ND	ND	638.1	0
64862	2017-06-22T13:00:00	68.6	ND	ND	ND	0.81	40.23	ND	ND	ND	ND	648	0
64863	2017-06-22T14:00:00	71.1	ND	ND	ND	2.20	47.94	ND	ND	ND	ND	645.4	0
64864	2017-06-22T15:00:00	61.1	ND	ND	ND	2.69	42.54	ND	ND	ND	ND	287.8	0
64865	2017-06-22T16:00:00	43.3	ND	ND	ND	0.96	15.33	ND	ND	ND	ND	517.1	0
64866	2017-06-22T17:00:00	26.9	ND	ND	ND	2.96	14.87	ND	ND	ND	ND	607.8	0
64867	2017-06-22T18:00:00	19.4	ND	ND	ND	0.50	10.62	ND	ND	ND	ND	208.1	0
64868	2017-06-22T19:00:00	8.8	ND	ND	ND	1.05	6.32	ND	ND	ND	ND	8.6	0
64869	2017-06-22T20:00:00	16.6	ND	ND	ND	2.84	7.40	ND	ND	ND	ND	0	0
64870	2017-06-22T21:00:00	15.5	ND	ND	ND	3.88	8.60	ND	ND	ND	ND	0	0
64871	2017-06-22T22:00:00	15.9	ND	ND	ND	2.05	10.64	ND	ND	ND	ND	0	0
64872	2017-06-22T23:00:00	15.1	ND	ND	ND	3.37	10.05	ND	ND	ND	ND	0	0
64873	2017-06-23T00:00:00	23.8	ND	ND	ND	5.13	10.40	ND	ND	ND	ND	0	0
64874	2017-06-23T01:00:00	46	ND	ND	ND	2.93	8.87	ND	ND	ND	ND	0	0
64875	2017-06-23T02:00:00	35.3	ND	ND	ND	2.44	10.24	ND	ND	ND	ND	0	0
64876	2017-06-23T03:00:00	34.3	ND	ND	ND	2.86	7.95	ND	ND	ND	ND	0	0
64877	2017-06-23T04:00:00	36.9	ND	ND	ND	3.46	6.20	ND	ND	ND	ND	0	0
64878	2017-06-23T05:00:00	42	ND	ND	ND	3.46	5.20	ND	ND	ND	ND	0	0
64879	2017-06-23T06:00:00	34	ND	ND	ND	3.79	6.26	ND	ND	ND	ND	0	0
64880	2017-06-23T07:00:00	52.1	ND	ND	ND	5.41	6.30	ND	ND	ND	ND	55.8	0
64881	2017-06-23T08:00:00	56	ND	ND	ND	3.42	5.06	ND	ND	ND	ND	309.8	0
64882	2017-06-23T09:00:00	74.3	ND	ND	ND	2.33	7.93	ND	ND	ND	ND	569.5	0
64883	2017-06-23T10:00:00	108.6	ND	ND	ND	2.68	11.36	ND	ND	ND	ND	535.6	0
64884	2017-06-23T11:00:00	89.2	ND	ND	ND	2.10	23.25	ND	ND	ND	ND	647.5	0
64885	2017-06-23T12:00:00	64.4	ND	ND	ND	0.32	50.73	ND	ND	ND	ND	648.1	0
64886	2017-06-23T13:00:00	55.3	ND	ND	ND	0.84	53.53	ND	ND	ND	ND	648.3	0
64887	2017-06-23T14:00:00	31.7	ND	ND	ND	1.77	59.38	ND	ND	ND	ND	608.1	0
64888	2017-06-23T15:00:00	24.7	ND	ND	ND	1.49	48.00	ND	ND	ND	ND	648.2	0
64889	2017-06-23T16:00:00	30.3	ND	ND	ND	3.37	43.68	ND	ND	ND	ND	610.4	0
64890	2017-06-23T17:00:00	32.5	ND	ND	ND	1.52	32.58	ND	ND	ND	ND	624.9	0
64891	2017-06-23T18:00:00	24.5	ND	ND	ND	0.47	21.72	ND	ND	ND	ND	264.8	0
64892	2017-06-23T19:00:00	26.9	ND	ND	ND	2.01	9.85	ND	ND	ND	ND	5.8	0
64893	2017-06-23T20:00:00	37.6	ND	ND	ND	1.38	4.77	ND	ND	ND	ND	0	0
64894	2017-06-23T21:00:00	27.6	ND	ND	ND	1.77	4.77	ND	ND	ND	ND	0	0
64895	2017-06-23T22:00:00	18	ND	ND	ND	4.17	5.57	ND	ND	ND	ND	0	0
64896	2017-06-23T23:00:00	14	ND	ND	ND	0.71	5.38	ND	ND	ND	ND	0	0
64897	2017-06-24T00:00:00	30.3	ND	ND	ND	3.42	5.14	ND	ND	ND	ND	0	0
64898	2017-06-24T01:00:00	53.9	ND	ND	ND	3.09	6.36	ND	ND	ND	ND	0	0
64899	2017-06-24T02:00:00	44.5	ND	ND	ND	3.07	13.40	ND	ND	ND	ND	0	0
64900	2017-06-24T03:00:00	12.3	ND	ND	ND	2.84	11.44	ND	ND	ND	ND	0	0
64901	2017-06-24T04:00:00	14	ND	ND	ND	2.08	8.34	ND	ND	ND	ND	0	0
64902	2017-06-24T05:00:00	22.1	ND	ND	ND	3.25	6.65	ND	ND	ND	ND	0	0
64903	2017-06-24T06:00:00	38.4	ND	ND	ND	4.75	3.87	ND	ND	ND	ND	0	0
64904	2017-06-24T07:00:00	66.1	ND	ND	ND	3.04	3.98	ND	ND	ND	ND	118.2	0
64905	2017-06-24T08:00:00	80.7	ND	ND	ND	4.93	4.93	ND	ND	ND	ND	281.4	0
64906	2017-06-24T09:00:00	115.4	ND	ND	ND	6.41	11.91	ND	ND	ND	ND	572.1	0
64907	2017-06-24T10:00:00	121.6	ND	ND	ND	3.26	47.43	ND	ND	ND	ND	647.8	0
64908	2017-06-24T11:00:00	100.4	ND	ND	ND	1.55	61.32	ND	ND	ND	ND	647.2	0
64909	2017-06-24T12:00:00	72.8	ND	ND	ND	1.18	81.93	ND	ND	ND	ND	648.5	0
64910	2017-06-24T13:00:00	75.2	ND	ND	ND	2.73	100.85	ND	ND	ND	ND	648.1	0
64911	2017-06-24T14:00:00	75.2	ND	ND	ND	2.61	122.00	ND	ND	ND	ND	646.7	0
64912	2017-06-24T15:00:00	83	ND	ND	ND	2.69	87.15	ND	ND	ND	ND	549.8	0
64913	2017-06-24T16:00:00	33.1	ND	ND	ND	1.60	26.08	ND	ND	ND	ND	648.3	0
64914	2017-06-24T17:00:00	20.1	ND	ND	ND	2.48	22.70	ND	ND	ND	ND	513.6	0
64915	2017-06-24T18:00:00	8.6	ND	ND	ND	2.34	18.90	ND	ND	ND	ND	287.5	0
64916	2017-06-24T19:00:00	18.2	ND	ND	ND	2.40	16.09	ND	ND	ND	ND	6.4	0
64917	2017-06-24T20:00:00	28.5	ND	ND	ND	2.93	13.21	ND	ND	ND	ND	0	0
64918	2017-06-24T21:00:00	39.9	ND	ND	ND	2.29	13.07	ND	ND	ND	ND	0	0.25
64919	2017-06-24T22:00:00	41.9	ND	ND	ND	3.26	12.34	ND	ND	ND	ND	0	0
64920	2017-06-24T23:00:00	28.2	ND	ND	ND	0.89	10.32	ND	ND	ND	ND	0	0
64921	2017-06-25T00:00:00	27.4	ND	ND	ND	3.28	6.34	ND	ND	ND	ND	0	0
64922	2017-06-25T01:00:00	28.6	ND	ND	ND	4.73	5.30	ND	ND	ND	ND	0	0
64923	2017-06-25T02:00:00	45.9	ND	ND	ND	2.47	6.26	ND	ND	ND	ND	0	0
64924	2017-06-25T03:00:00	46.1	ND	ND	ND	2.13	7.10	ND	ND	ND	ND	0	0
64925	2017-06-25T04:00:00	34.6	ND	ND	ND	2.63	6.10	ND	ND	ND	ND	0	0
64926	2017-06-25T05:00:00	45.7	ND	ND	ND	2.59	5.95	ND	ND	ND	ND	0	0
64927	2017-06-25T06:00:00	33.8	ND	ND	ND	5.23	7.69	ND	ND	ND	ND	0	0.25
64928	2017-06-25T07:00:00	31.7	ND	ND	ND	2.51	6.81	ND	ND	ND	ND	71.3	0
64929	2017-06-25T08:00:00	31.9	ND	ND	ND	1.32	7.59	ND	ND	ND	ND	241.1	0
64930	2017-06-25T09:00:00	29.2	ND	ND	ND	3.75	11.77	ND	ND	ND	ND	529	0
64931	2017-06-25T10:00:00	43.2	ND	ND	ND	1.46	21.41	ND	ND	ND	ND	647.8	0
64932	2017-06-25T11:00:00	56.5	ND	ND	ND	3.22	39.60	ND	ND	ND	ND	648	0
64933	2017-06-25T12:00:00	39	ND	ND	ND	2.70	64.21	ND	ND	ND	ND	647.8	0
64934	2017-06-25T13:00:00	33.8	ND	ND	ND	1.98	84.01	ND	ND	ND	ND	648.5	0
64935	2017-06-25T14:00:00	39.4	ND	ND	ND	2.41	78.83	ND	ND	ND	ND	647.8	0
64936	2017-06-25T15:00:00	38.7	ND	ND	ND	1.55	59.50	ND	ND	ND	ND	630.1	0
64937	2017-06-25T16:00:00	36.5	ND	ND	ND	1.34	53.85	ND	ND	ND	ND	519.9	0
64938	2017-06-25T17:00:00	42.1	ND	ND	ND	2.31	35.87	ND	ND	ND	ND	489.2	0
64939	2017-06-25T18:00:00	14.8	ND	ND	ND	1.62	25.92	ND	ND	ND	ND	108.7	0
64940	2017-06-25T19:00:00	2.3	ND	ND	ND	0.70	18.13	ND	ND	ND	ND	0	0
64941	2017-06-25T20:00:00	10.6	ND	ND	ND	2.44	17.25	ND	ND	ND	ND	0	0
64942	2017-06-25T21:00:00	16.6	ND	ND	ND	2.77	17.52	ND	ND	ND	ND	0	0
64943	2017-06-25T22:00:00	8.6	ND	ND	ND	2.43	12.66	ND	ND	ND	ND	0	0
64944	2017-06-25T23:00:00	17.5	ND	ND	ND	1.78	9.52	ND	ND	ND	ND	0	0
64945	2017-06-26T00:00:00	46.9	ND	ND	ND	1.73	7.91	ND	ND	ND	ND	0	0
64946	2017-06-26T01:00:00	52.8	ND	ND	ND	1.94	8.54	ND	ND	ND	ND	0	0
64947	2017-06-26T02:00:00	40	ND	ND	ND	4.21	8.95	ND	ND	ND	ND	0	0
64948	2017-06-26T03:00:00	26.8	ND	ND	ND	1.44	8.87	ND	ND	ND	ND	0	0
64949	2017-06-26T04:00:00	35.2	ND	ND	ND	5.17	6.55	ND	ND	ND	ND	0	0
64950	2017-06-26T05:00:00	43.8	ND	ND	ND	6.36	7.56	ND	ND	ND	ND	0	0
64951	2017-06-26T06:00:00	52.9	ND	ND	ND	6.59	5.79	ND	ND	ND	ND	0	0
64952	2017-06-26T07:00:00	45	ND	ND	ND	3.58	4.14	ND	ND	ND	ND	97.8	0
64953	2017-06-26T08:00:00	27.9	ND	ND	ND	4.15	7.26	ND	ND	ND	ND	305.8	0
64954	2017-06-26T09:00:00	61.2	ND	ND	ND	5.59	9.28	ND	ND	ND	ND	567.5	0
64955	2017-06-26T10:00:00	75	ND	ND	ND	3.42	23.69	ND	ND	ND	ND	592.1	0
64956	2017-06-26T11:00:00	64.2	ND	ND	ND	1.31	40.62	ND	ND	ND	ND	624	0
64957	2017-06-26T12:00:00	54.1	ND	ND	ND	0.00	64.29	ND	ND	ND	ND	645.2	0
64958	2017-06-26T13:00:00	37	ND	ND	ND	1.52	85.68	ND	ND	ND	ND	648.2	0
64959	2017-06-26T14:00:00	39.3	ND	ND	ND	0.99	79.99	ND	ND	ND	ND	646.5	0
64960	2017-06-26T15:00:00	41.1	ND	ND	ND	1.38	76.71	ND	ND	ND	ND	476	0
64961	2017-06-26T16:00:00	29.3	ND	ND	ND	1.58	ND	ND	ND	ND	ND	231.4	0
64962	2017-06-26T17:00:00	18.3	ND	ND	ND	1.58	ND	ND	ND	ND	ND	626.1	0
64963	2017-06-26T18:00:00	25.9	ND	ND	ND	2.01	ND	ND	ND	ND	ND	243.6	0
64964	2017-06-26T19:00:00	8.8	ND	ND	ND	2.52	ND	ND	ND	ND	ND	4.2	0
64965	2017-06-26T20:00:00	14.1	ND	ND	ND	2.17	ND	ND	ND	ND	ND	0	0
64966	2017-06-26T21:00:00	19.2	ND	ND	ND	3.57	6.12	ND	ND	ND	ND	0	0
64967	2017-06-26T22:00:00	39	ND	ND	ND	2.04	12.76	ND	ND	ND	ND	0	0
64968	2017-06-26T23:00:00	12.7	ND	ND	ND	3.11	ND	ND	ND	ND	ND	0	0
64969	2017-06-27T00:00:00	2.3	ND	ND	ND	2.68	18.72	ND	ND	ND	ND	0	0
64970	2017-06-27T01:00:00	34.5	ND	ND	ND	2.01	17.13	ND	ND	ND	ND	0	0
64971	2017-06-27T02:00:00	18.1	ND	ND	ND	2.04	18.33	ND	ND	ND	ND	0	5.59
64972	2017-06-27T03:00:00	20	ND	ND	ND	3.14	13.60	ND	ND	ND	ND	0	3.81
64973	2017-06-27T04:00:00	22.1	ND	ND	ND	2.82	12.40	ND	ND	ND	ND	0	5.08
64974	2017-06-27T05:00:00	24.1	ND	ND	ND	3.05	10.62	ND	ND	ND	ND	0	14.99
64975	2017-06-27T06:00:00	23.6	ND	ND	ND	3.26	8.26	ND	ND	ND	ND	0	19.3
64976	2017-06-27T07:00:00	28.9	ND	ND	ND	2.34	8.20	ND	ND	ND	ND	93.3	2.29
64977	2017-06-27T08:00:00	36.4	ND	ND	ND	1.90	8.56	ND	ND	ND	ND	317.9	0
64978	2017-06-27T09:00:00	44.1	ND	ND	ND	2.66	8.85	ND	ND	ND	ND	398.6	0.25
64979	2017-06-27T10:00:00	63.6	ND	ND	ND	3.92	ND	ND	ND	ND	ND	519.2	0
64980	2017-06-27T11:00:00	69.7	ND	ND	ND	3.67	25.47	ND	ND	ND	ND	649.2	0
64981	2017-06-27T12:00:00	67.8	ND	ND	ND	2.93	55.46	ND	ND	ND	ND	649.6	0
64982	2017-06-27T13:00:00	62	ND	ND	ND	1.88	56.63	ND	ND	ND	ND	649.4	0
64983	2017-06-27T14:00:00	37.9	ND	ND	ND	2.44	60.64	ND	ND	ND	ND	647.3	0
64984	2017-06-27T15:00:00	34.9	ND	ND	ND	3.22	53.69	ND	ND	ND	ND	649.3	0
64985	2017-06-27T16:00:00	ND	ND	ND	ND	3.01	38.27	ND	ND	ND	ND	516.8	0
64986	2017-06-27T17:00:00	ND	ND	ND	ND	3.12	26.49	ND	ND	ND	ND	515.4	0
64987	2017-06-27T18:00:00	6.7	ND	ND	ND	1.45	11.83	ND	ND	ND	ND	180.9	0
64988	2017-06-27T19:00:00	39.3	ND	ND	ND	1.45	6.22	ND	ND	ND	ND	5	0
64989	2017-06-27T20:00:00	140.6	ND	ND	ND	1.31	5.49	ND	ND	ND	ND	0	0
64990	2017-06-27T21:00:00	111.2	ND	ND	ND	1.83	5.30	ND	ND	ND	ND	0	0
64991	2017-06-27T22:00:00	53.6	ND	ND	ND	1.37	4.47	ND	ND	ND	ND	0	0
64992	2017-06-27T23:00:00	35.1	ND	ND	ND	2.08	5.53	ND	ND	ND	ND	0	0
64993	2017-06-28T00:00:00	18	ND	ND	ND	1.77	6.28	ND	ND	ND	ND	0	0
64994	2017-06-28T01:00:00	4.2	ND	ND	ND	4.01	9.09	ND	ND	ND	ND	0	0
64995	2017-06-28T02:00:00	18.1	ND	ND	ND	2.58	8.05	ND	ND	ND	ND	0	0
64996	2017-06-28T03:00:00	24.7	ND	ND	ND	3.82	8.56	ND	ND	ND	ND	0	0
64997	2017-06-28T04:00:00	28	ND	ND	ND	3.07	6.00	ND	ND	ND	ND	0	0
64998	2017-06-28T05:00:00	44.1	ND	ND	ND	3.19	6.89	ND	ND	ND	ND	0	0
64999	2017-06-28T06:00:00	62.5	ND	ND	ND	5.49	5.08	ND	ND	ND	ND	0	0
65000	2017-06-28T07:00:00	101.9	ND	ND	ND	4.80	5.42	ND	ND	ND	ND	48.8	0
65001	2017-06-28T08:00:00	124.6	ND	ND	ND	4.50	5.46	ND	ND	ND	ND	167.3	0
65002	2017-06-28T09:00:00	131.8	ND	ND	ND	3.18	6.06	ND	ND	ND	ND	369.3	0
65003	2017-06-28T10:00:00	115.7	ND	ND	ND	1.62	8.99	ND	ND	ND	ND	598.2	0
65004	2017-06-28T11:00:00	90.6	ND	ND	ND	3.09	26.20	ND	ND	ND	ND	647.9	0
65005	2017-06-28T12:00:00	85.6	ND	ND	ND	2.63	36.03	ND	ND	ND	ND	647.8	0
65006	2017-06-28T13:00:00	68.2	ND	ND	ND	0.89	34.40	ND	ND	ND	ND	647.4	0
65007	2017-06-28T14:00:00	41.3	ND	ND	ND	1.06	65.70	ND	ND	ND	ND	648.2	0
65008	2017-06-28T15:00:00	41.7	ND	ND	ND	2.59	54.18	ND	ND	ND	ND	546.4	0
65009	2017-06-28T16:00:00	46.4	ND	ND	ND	0.45	31.93	ND	ND	ND	ND	160.6	0
65010	2017-06-28T17:00:00	29.6	ND	ND	ND	0.61	11.40	ND	ND	ND	ND	157.7	1.02
65011	2017-06-28T18:00:00	32.1	ND	ND	ND	2.10	7.18	ND	ND	ND	ND	131.4	0
65012	2017-06-28T19:00:00	32.4	ND	ND	ND	1.13	5.99	ND	ND	ND	ND	4.2	0
65013	2017-06-28T20:00:00	11.4	ND	ND	ND	0.24	5.08	ND	ND	ND	ND	0	0
65014	2017-06-28T21:00:00	13.6	ND	ND	ND	1.71	5.38	ND	ND	ND	ND	0	0
65015	2017-06-28T22:00:00	42.3	ND	ND	ND	2.44	5.63	ND	ND	ND	ND	0	0
65016	2017-06-28T23:00:00	65.4	ND	ND	ND	3.46	4.30	ND	ND	ND	ND	0	0
65017	2017-06-29T00:00:00	42.4	ND	ND	ND	1.24	5.99	ND	ND	ND	ND	0	0
65018	2017-06-29T01:00:00	19.2	ND	ND	ND	2.13	7.40	ND	ND	ND	ND	0	0
65019	2017-06-29T02:00:00	33.8	ND	ND	ND	2.51	5.79	ND	ND	ND	ND	0	0
65020	2017-06-29T03:00:00	39.4	ND	ND	ND	3.46	4.85	ND	ND	ND	ND	0	0
65021	2017-06-29T04:00:00	30.6	ND	ND	ND	5.78	4.36	ND	ND	ND	ND	0	0
65022	2017-06-29T05:00:00	37.8	ND	ND	ND	4.35	4.77	ND	ND	ND	ND	0	0
65023	2017-06-29T06:00:00	46	ND	ND	ND	3.33	4.81	ND	ND	ND	ND	0	0
65024	2017-06-29T07:00:00	57.2	ND	ND	ND	5.13	5.24	ND	ND	ND	ND	47.1	0
65025	2017-06-29T08:00:00	80.3	ND	ND	ND	6.37	5.28	ND	ND	ND	ND	294.3	0
65026	2017-06-29T09:00:00	95.9	ND	ND	ND	3.53	12.11	ND	ND	ND	ND	606.4	0
65027	2017-06-29T10:00:00	103.9	ND	ND	ND	1.23	27.59	ND	ND	ND	ND	648.1	0
65028	2017-06-29T11:00:00	75.2	ND	ND	ND	3.11	44.45	ND	ND	ND	ND	644.8	0
65029	2017-06-29T12:00:00	68.9	ND	ND	ND	2.04	68.80	ND	ND	ND	ND	646.2	0
65030	2017-06-29T13:00:00	58.2	ND	ND	ND	1.28	77.89	ND	ND	ND	ND	648.9	0
65031	2017-06-29T14:00:00	68.6	ND	ND	ND	1.39	87.35	ND	ND	ND	ND	606.8	0
65032	2017-06-29T15:00:00	61.7	ND	ND	ND	3.97	100.77	ND	ND	ND	ND	592.2	0
65033	2017-06-29T16:00:00	69.7	ND	ND	ND	3.02	66.78	ND	ND	ND	ND	393.6	0
65034	2017-06-29T17:00:00	41	ND	ND	ND	0.89	17.17	ND	ND	ND	ND	272.4	0
65035	2017-06-29T18:00:00	19.5	ND	ND	ND	0.78	10.05	ND	ND	ND	ND	27	0
65036	2017-06-29T19:00:00	29.7	ND	ND	ND	1.02	9.75	ND	ND	ND	ND	0	0
65037	2017-06-29T20:00:00	27.6	ND	ND	ND	1.32	12.42	ND	ND	ND	ND	0	0
65038	2017-06-29T21:00:00	8.9	ND	ND	ND	3.57	13.42	ND	ND	ND	ND	0	0
65039	2017-06-29T22:00:00	7.2	ND	ND	ND	2.12	17.25	ND	ND	ND	ND	0	0
65040	2017-06-29T23:00:00	11.2	ND	ND	ND	2.45	10.73	ND	ND	ND	ND	0	0
65041	2017-06-30T00:00:00	37.4	ND	ND	ND	2.76	11.66	ND	ND	ND	ND	0	0
65042	2017-06-30T01:00:00	32.8	ND	ND	ND	3.02	12.25	ND	ND	ND	ND	0	0
65043	2017-06-30T02:00:00	24.4	ND	ND	ND	2.16	11.48	ND	ND	ND	ND	0	0.25
65044	2017-06-30T03:00:00	25.9	ND	ND	ND	3.23	14.87	ND	ND	ND	ND	0	3.05
65045	2017-06-30T04:00:00	9	ND	ND	ND	3.21	8.56	ND	ND	ND	ND	0	0
65046	2017-06-30T05:00:00	21.3	ND	ND	ND	2.65	6.93	ND	ND	ND	ND	0	3.05
65047	2017-06-30T06:00:00	31.5	ND	ND	ND	3.74	5.97	ND	ND	ND	ND	0	55.63
65048	2017-06-30T07:00:00	24.8	ND	ND	ND	3.75	6.18	ND	ND	ND	ND	71.4	11.68
65049	2017-06-30T08:00:00	21.8	ND	ND	ND	4.39	6.61	ND	ND	ND	ND	362.4	0.25
65050	2017-06-30T09:00:00	49.3	ND	ND	ND	2.24	13.19	ND	ND	ND	ND	567.9	0
65051	2017-06-30T10:00:00	73.2	ND	ND	ND	3.40	34.62	ND	ND	ND	ND	648	0
65052	2017-06-30T11:00:00	70.5	ND	ND	ND	3.28	57.16	ND	ND	ND	ND	627.9	0
65053	2017-06-30T12:00:00	41.7	ND	ND	ND	2.59	89.37	ND	ND	ND	ND	644.1	0
65054	2017-06-30T13:00:00	44.8	ND	ND	ND	1.48	80.34	ND	ND	ND	ND	648.3	0
65055	2017-06-30T14:00:00	43.5	ND	ND	ND	1.51	80.85	ND	ND	ND	ND	637.5	0
65056	2017-06-30T15:00:00	31.6	ND	ND	ND	1.12	75.20	ND	ND	ND	ND	648.2	0
65057	2017-06-30T16:00:00	40.8	ND	ND	ND	3.09	58.89	ND	ND	ND	ND	648.6	0
65058	2017-06-30T17:00:00	42.3	ND	ND	ND	2.09	47.04	ND	ND	ND	ND	607.2	0
65059	2017-06-30T18:00:00	48.4	ND	ND	ND	1.45	27.94	ND	ND	ND	ND	247.6	0
65060	2017-06-30T19:00:00	89	ND	ND	ND	2.52	13.54	ND	ND	ND	ND	8	0
65061	2017-06-30T20:00:00	88	ND	ND	ND	0.60	17.39	ND	ND	ND	ND	0	0
65062	2017-06-30T21:00:00	73.6	ND	ND	ND	0.84	17.17	ND	ND	ND	ND	0	0
65063	2017-06-30T22:00:00	46	ND	ND	ND	2.13	15.21	ND	ND	ND	ND	0	0
65064	2017-06-30T23:00:00	34.3	ND	ND	ND	3.89	11.58	ND	ND	ND	ND	0	0
65065	2017-07-01T00:00:00	68	ND	ND	ND	1.28	6.99	ND	ND	ND	ND	0	0
65066	2017-07-01T01:00:00	69.9	ND	ND	ND	2.34	6.81	ND	ND	ND	ND	0	0
65067	2017-07-01T02:00:00	61.9	ND	ND	ND	0.81	6.12	ND	ND	ND	ND	0	0
65068	2017-07-01T03:00:00	44.3	ND	ND	ND	3.23	7.46	ND	ND	ND	ND	0	0
65069	2017-07-01T04:00:00	58.8	ND	ND	ND	2.75	6.44	ND	ND	ND	ND	0	0
65070	2017-07-01T05:00:00	44	ND	ND	ND	2.38	5.32	ND	ND	ND	ND	0	0
65071	2017-07-01T06:00:00	29.2	ND	ND	ND	3.36	5.40	ND	ND	ND	ND	0	0
65072	2017-07-01T07:00:00	62.6	ND	ND	ND	3.33	6.34	ND	ND	ND	ND	68.9	0
65073	2017-07-01T08:00:00	138.5	ND	ND	ND	4.03	8.56	ND	ND	ND	ND	356.9	0
65074	2017-07-01T09:00:00	135.1	ND	ND	ND	2.58	11.17	ND	ND	ND	ND	545.3	0
65075	2017-07-01T10:00:00	107.4	ND	ND	ND	3.94	33.67	ND	ND	ND	ND	643	0
65076	2017-07-01T11:00:00	92.5	ND	ND	ND	3.50	49.71	ND	ND	ND	ND	648.1	0
65077	2017-07-01T12:00:00	89.2	ND	ND	ND	1.35	64.54	ND	ND	ND	ND	648.4	0
65078	2017-07-01T13:00:00	65.5	ND	ND	ND	1.63	67.88	ND	ND	ND	ND	632.6	0
65079	2017-07-01T14:00:00	59.8	ND	ND	ND	1.56	75.53	ND	ND	ND	ND	621.9	0
65080	2017-07-01T15:00:00	45	ND	ND	ND	1.45	87.72	ND	ND	ND	ND	645	0
65081	2017-07-01T16:00:00	46.6	ND	ND	ND	1.67	83.34	ND	ND	ND	ND	595.2	0
65082	2017-07-01T17:00:00	46.5	ND	ND	ND	2.38	39.80	ND	ND	ND	ND	504.7	0
65083	2017-07-01T18:00:00	21.3	ND	ND	ND	0.84	22.33	ND	ND	ND	ND	248.7	0
65084	2017-07-01T19:00:00	30	ND	ND	ND	1.67	17.58	ND	ND	ND	ND	0	0
65085	2017-07-01T20:00:00	25.4	ND	ND	ND	2.22	17.29	ND	ND	ND	ND	0	0
65086	2017-07-01T21:00:00	12.1	ND	ND	ND	2.91	10.56	ND	ND	ND	ND	0	0
65087	2017-07-01T22:00:00	32	ND	ND	ND	2.63	7.50	ND	ND	ND	ND	0	0
65088	2017-07-01T23:00:00	51.6	ND	ND	ND	1.91	8.54	ND	ND	ND	ND	0	0
65089	2017-07-02T00:00:00	67.9	ND	ND	ND	1.83	7.46	ND	ND	ND	ND	0	0
65090	2017-07-02T01:00:00	57.5	ND	ND	ND	0.93	8.42	ND	ND	ND	ND	0	0
65091	2017-07-02T02:00:00	28.2	ND	ND	ND	3.35	8.32	ND	ND	ND	ND	0	0
65092	2017-07-02T03:00:00	36.4	ND	ND	ND	3.26	6.99	ND	ND	ND	ND	0	0
65093	2017-07-02T04:00:00	47.1	ND	ND	ND	2.86	6.67	ND	ND	ND	ND	0	0
65094	2017-07-02T05:00:00	46.4	ND	ND	ND	3.35	5.81	ND	ND	ND	ND	0	0
65095	2017-07-02T06:00:00	53.5	ND	ND	ND	4.21	4.45	ND	ND	ND	ND	0	0
65096	2017-07-02T07:00:00	49.1	ND	ND	ND	2.13	5.18	ND	ND	ND	ND	117	0
65097	2017-07-02T08:00:00	48.9	ND	ND	ND	3.16	6.89	ND	ND	ND	ND	305.7	0
65098	2017-07-02T09:00:00	84.3	ND	ND	ND	3.26	9.91	ND	ND	ND	ND	518.9	0
65099	2017-07-02T10:00:00	64.2	ND	ND	ND	1.14	23.16	ND	ND	ND	ND	644.8	0
65100	2017-07-02T11:00:00	69.7	ND	ND	ND	2.54	55.55	ND	ND	ND	ND	648.2	0
65101	2017-07-02T12:00:00	53	ND	ND	ND	3.16	60.03	ND	ND	ND	ND	648.4	0
65102	2017-07-02T13:00:00	28.6	ND	ND	ND	1.31	75.12	ND	ND	ND	ND	648.7	0
65103	2017-07-02T14:00:00	19.1	ND	ND	ND	1.23	63.78	ND	ND	ND	ND	648	0
65104	2017-07-02T15:00:00	20.6	ND	ND	ND	2.66	81.28	ND	ND	ND	ND	635.5	0
65105	2017-07-02T16:00:00	32	ND	ND	ND	2.55	86.13	ND	ND	ND	ND	555	0
65106	2017-07-02T17:00:00	37.3	ND	ND	ND	2.20	62.23	ND	ND	ND	ND	337	0
65107	2017-07-02T18:00:00	32.6	ND	ND	ND	2.09	39.78	ND	ND	ND	ND	117.2	0
65108	2017-07-02T19:00:00	29.1	ND	ND	ND	1.80	32.87	ND	ND	ND	ND	7.7	0
65109	2017-07-02T20:00:00	17.1	ND	ND	ND	2.77	33.30	ND	ND	ND	ND	0	0
65110	2017-07-02T21:00:00	2	ND	ND	ND	1.55	27.41	ND	ND	ND	ND	0	0
65111	2017-07-02T22:00:00	35.3	ND	ND	ND	2.56	10.05	ND	ND	ND	ND	0	0
65112	2017-07-02T23:00:00	72.6	ND	ND	ND	4.13	9.54	ND	ND	ND	ND	0	0
65113	2017-07-03T00:00:00	68.7	ND	ND	ND	1.97	8.30	ND	ND	ND	ND	0	0
65114	2017-07-03T01:00:00	55.9	ND	ND	ND	3.48	6.89	ND	ND	ND	ND	0	0
65115	2017-07-03T02:00:00	54.4	ND	ND	ND	4.17	5.51	ND	ND	ND	ND	0	0
65116	2017-07-03T03:00:00	63.1	ND	ND	ND	5.37	6.83	ND	ND	ND	ND	0	0
65117	2017-07-03T04:00:00	57.3	ND	ND	ND	3.62	7.69	ND	ND	ND	ND	0	0
65118	2017-07-03T05:00:00	34.4	ND	ND	ND	3.90	6.38	ND	ND	ND	ND	0	0
65119	2017-07-03T06:00:00	36.5	ND	ND	ND	4.27	9.50	ND	ND	ND	ND	0	0
65120	2017-07-03T07:00:00	32.6	ND	ND	ND	2.77	4.95	ND	ND	ND	ND	116.9	0
65121	2017-07-03T08:00:00	82	ND	ND	ND	3.58	11.13	ND	ND	ND	ND	544.5	0
65122	2017-07-03T09:00:00	97.3	ND	ND	ND	3.61	24.94	ND	ND	ND	ND	647.8	0
65123	2017-07-03T10:00:00	64.4	ND	ND	ND	3.58	37.99	ND	ND	ND	ND	648.2	0
65124	2017-07-03T11:00:00	45.1	ND	ND	ND	4.04	58.05	ND	ND	ND	ND	648.1	0
65125	2017-07-03T12:00:00	51.4	ND	ND	ND	1.05	75.22	ND	ND	ND	ND	648.1	0
65126	2017-07-03T13:00:00	46.7	ND	ND	ND	2.43	86.68	ND	ND	ND	ND	637.3	0
65127	2017-07-03T14:00:00	37.4	ND	ND	ND	0.82	72.78	ND	ND	ND	ND	576	0
65128	2017-07-03T15:00:00	27	ND	ND	ND	2.82	55.12	ND	ND	ND	ND	559.4	0
65129	2017-07-03T16:00:00	21.1	ND	ND	ND	0.91	38.64	ND	ND	ND	ND	246.4	0
65130	2017-07-03T17:00:00	12	ND	ND	ND	2.16	26.73	ND	ND	ND	ND	203.3	0
65131	2017-07-03T18:00:00	30.3	ND	ND	ND	2.72	24.06	ND	ND	ND	ND	89.6	1.02
65132	2017-07-03T19:00:00	18.8	ND	ND	ND	2.13	14.66	ND	ND	ND	ND	0	1.27
65133	2017-07-03T20:00:00	28	ND	ND	ND	3.19	10.69	ND	ND	ND	ND	0	0
65134	2017-07-03T21:00:00	21.2	ND	ND	ND	3.74	7.32	ND	ND	ND	ND	0	0
65135	2017-07-03T22:00:00	22	ND	ND	ND	3.33	5.87	ND	ND	ND	ND	0	0
65136	2017-07-03T23:00:00	27.9	ND	ND	ND	1.97	8.58	ND	ND	ND	ND	0	0
65137	2017-07-04T00:00:00	20.3	ND	ND	ND	2.38	5.97	ND	ND	ND	ND	0	0
65138	2017-07-04T01:00:00	43.1	ND	ND	ND	2.29	8.77	ND	ND	ND	ND	0	0
65139	2017-07-04T02:00:00	32.3	ND	ND	ND	3.39	14.80	ND	ND	ND	ND	0	0
65140	2017-07-04T03:00:00	10.9	ND	ND	ND	3.29	5.53	ND	ND	ND	ND	0	0
65141	2017-07-04T04:00:00	35.5	ND	ND	ND	2.76	5.34	ND	ND	ND	ND	0	0
65142	2017-07-04T05:00:00	64.5	ND	ND	ND	3.02	5.34	ND	ND	ND	ND	0	0
65143	2017-07-04T06:00:00	65	ND	ND	ND	2.41	6.22	ND	ND	ND	ND	0	0
65144	2017-07-04T07:00:00	58.3	ND	ND	ND	3.88	8.16	ND	ND	ND	ND	114.3	0.25
65145	2017-07-04T08:00:00	51.4	ND	ND	ND	2.86	8.67	ND	ND	ND	ND	216.7	0
65146	2017-07-04T09:00:00	78.6	ND	ND	ND	4.24	12.13	ND	ND	ND	ND	547	0
65147	2017-07-04T10:00:00	91.8	ND	ND	ND	4.88	33.56	ND	ND	ND	ND	647.9	0
65148	2017-07-04T11:00:00	101	ND	ND	ND	3.62	66.17	ND	ND	ND	ND	647.8	0
65149	2017-07-04T12:00:00	67.9	ND	ND	ND	0.00	81.07	ND	ND	ND	ND	648.1	0
65150	2017-07-04T13:00:00	68.8	ND	ND	ND	1.44	78.63	ND	ND	ND	ND	624.3	0
65151	2017-07-04T14:00:00	65.4	ND	ND	ND	2.20	93.41	ND	ND	ND	ND	647.9	0
65152	2017-07-04T15:00:00	56.8	ND	ND	ND	2.51	107.42	ND	ND	ND	ND	593.9	0
65153	2017-07-04T16:00:00	60.6	ND	ND	ND	0.26	95.86	ND	ND	ND	ND	645.5	0
65154	2017-07-04T17:00:00	38.9	ND	ND	ND	1.60	30.97	ND	ND	ND	ND	634	0
65155	2017-07-04T18:00:00	13.1	ND	ND	ND	2.06	19.86	ND	ND	ND	ND	220.3	0
65156	2017-07-04T19:00:00	10.7	ND	ND	ND	1.39	18.19	ND	ND	ND	ND	6.5	0
65157	2017-07-04T20:00:00	25.1	ND	ND	ND	1.95	18.19	ND	ND	ND	ND	0	0
65158	2017-07-04T21:00:00	27.2	ND	ND	ND	2.55	17.43	ND	ND	ND	ND	0	0
65159	2017-07-04T22:00:00	25.7	ND	ND	ND	3.36	6.40	ND	ND	ND	ND	0	0
65160	2017-07-04T23:00:00	58.1	ND	ND	ND	2.65	7.16	ND	ND	ND	ND	0	0
65161	2017-07-05T00:00:00	51.4	ND	ND	ND	3.82	6.85	ND	ND	ND	ND	0	0
65162	2017-07-05T01:00:00	34.4	ND	ND	ND	2.62	10.46	ND	ND	ND	ND	0	0
65163	2017-07-05T02:00:00	28.3	ND	ND	ND	1.41	8.61	ND	ND	ND	ND	0	0
65164	2017-07-05T03:00:00	25.8	ND	ND	ND	2.15	6.44	ND	ND	ND	ND	0	0
65165	2017-07-05T04:00:00	37.5	ND	ND	ND	3.35	6.95	ND	ND	ND	ND	0	0
65166	2017-07-05T05:00:00	34.7	ND	ND	ND	2.86	5.51	ND	ND	ND	ND	0	0
65167	2017-07-05T06:00:00	26.7	ND	ND	ND	2.12	5.32	ND	ND	ND	ND	0	0
65168	2017-07-05T07:00:00	44.3	ND	ND	ND	2.17	5.18	ND	ND	ND	ND	52	0
65169	2017-07-05T08:00:00	64.8	ND	ND	ND	2.97	5.81	ND	ND	ND	ND	388.4	0
65170	2017-07-05T09:00:00	97.7	ND	ND	ND	3.93	14.84	ND	ND	ND	ND	647.7	0
65171	2017-07-05T10:00:00	84.7	ND	ND	ND	2.05	33.36	ND	ND	ND	ND	648	0
65172	2017-07-05T11:00:00	54.2	ND	ND	ND	3.00	53.98	ND	ND	ND	ND	644.1	0
65173	2017-07-05T12:00:00	45.9	ND	ND	ND	2.12	51.98	ND	ND	ND	ND	648.4	0
65174	2017-07-05T13:00:00	37.6	ND	ND	ND	0.63	52.53	ND	ND	ND	ND	648.4	0
65175	2017-07-05T14:00:00	29.5	ND	ND	ND	0.98	59.58	ND	ND	ND	ND	648.7	0
65176	2017-07-05T15:00:00	42.8	ND	ND	ND	1.38	65.41	ND	ND	ND	ND	648.3	0
65177	2017-07-05T16:00:00	61.9	ND	ND	ND	2.27	67.58	ND	ND	ND	ND	595.6	0
65178	2017-07-05T17:00:00	65.3	ND	ND	ND	2.65	47.69	ND	ND	ND	ND	400.1	0
65179	2017-07-05T18:00:00	53.1	ND	ND	ND	2.24	28.42	ND	ND	ND	ND	161.4	0
65180	2017-07-05T19:00:00	35.8	ND	ND	ND	1.53	19.72	ND	ND	ND	ND	7.8	0
65181	2017-07-05T20:00:00	42.5	ND	ND	ND	1.31	14.54	ND	ND	ND	ND	0	0
65182	2017-07-05T21:00:00	26.2	ND	ND	ND	2.16	19.55	ND	ND	ND	ND	0	0
65183	2017-07-05T22:00:00	24.8	ND	ND	ND	1.38	10.95	ND	ND	ND	ND	0	0
65184	2017-07-05T23:00:00	27.5	ND	ND	ND	4.10	9.56	ND	ND	ND	ND	0	0
65185	2017-07-06T00:00:00	36.1	ND	ND	ND	2.77	11.77	ND	ND	ND	ND	0	0
65186	2017-07-06T01:00:00	26.4	ND	ND	ND	3.83	8.20	ND	ND	ND	ND	0	0
65187	2017-07-06T02:00:00	45.8	ND	ND	ND	3.37	9.24	ND	ND	ND	ND	0	0
65188	2017-07-06T03:00:00	45.9	ND	ND	ND	3.30	7.26	ND	ND	ND	ND	0	0
65189	2017-07-06T04:00:00	39	ND	ND	ND	2.43	7.48	ND	ND	ND	ND	0	0
65190	2017-07-06T05:00:00	29.7	ND	ND	ND	3.93	7.16	ND	ND	ND	ND	0	0
65191	2017-07-06T06:00:00	48.3	ND	ND	ND	3.97	5.24	ND	ND	ND	ND	0	0
65192	2017-07-06T07:00:00	86.6	ND	ND	ND	5.03	5.42	ND	ND	ND	ND	60.8	0
65193	2017-07-06T08:00:00	107.4	ND	ND	ND	3.53	5.97	ND	ND	ND	ND	480	0
65194	2017-07-06T09:00:00	123.7	ND	ND	ND	2.66	12.03	ND	ND	ND	ND	644.2	0
65195	2017-07-06T10:00:00	124.6	ND	ND	ND	3.05	38.54	ND	ND	ND	ND	647.6	0
65196	2017-07-06T11:00:00	103.9	ND	ND	ND	3.36	82.09	ND	ND	ND	ND	648.1	0
65197	2017-07-06T12:00:00	90.5	ND	ND	ND	1.41	111.36	ND	ND	ND	ND	647.8	0
65198	2017-07-06T13:00:00	78.1	ND	ND	ND	2.29	104.91	ND	ND	ND	ND	648	0
65199	2017-07-06T14:00:00	73.6	ND	ND	ND	2.24	109.70	ND	ND	ND	ND	648.1	0
65200	2017-07-06T15:00:00	61.7	ND	ND	ND	1.98	127.10	ND	ND	ND	ND	629.5	0
65201	2017-07-06T16:00:00	67.7	ND	ND	ND	1.84	101.87	ND	ND	ND	ND	478	0
65202	2017-07-06T17:00:00	60.8	ND	ND	ND	1.32	64.82	ND	ND	ND	ND	537.8	0
65203	2017-07-06T18:00:00	36.6	ND	ND	ND	0.64	38.54	ND	ND	ND	ND	206.6	0
65204	2017-07-06T19:00:00	39.3	ND	ND	ND	2.19	24.80	ND	ND	ND	ND	9.3	0
65205	2017-07-06T20:00:00	23.8	ND	ND	ND	1.46	14.36	ND	ND	ND	ND	0	0
65206	2017-07-06T21:00:00	27	ND	ND	ND	0.07	13.36	ND	ND	ND	ND	0	0
65207	2017-07-06T22:00:00	26.1	ND	ND	ND	1.64	8.05	ND	ND	ND	ND	0	0
65208	2017-07-06T23:00:00	38	ND	ND	ND	0.86	12.52	ND	ND	ND	ND	0	0
65209	2017-07-07T00:00:00	18.1	ND	ND	ND	2.15	19.23	ND	ND	ND	ND	0	0
65210	2017-07-07T01:00:00	19.4	ND	ND	ND	2.40	8.42	ND	ND	ND	ND	0	0
65211	2017-07-07T02:00:00	55.4	ND	ND	ND	4.60	8.30	ND	ND	ND	ND	0	0
65212	2017-07-07T03:00:00	56.5	ND	ND	ND	2.54	16.74	ND	ND	ND	ND	0	0
65213	2017-07-07T04:00:00	40.8	ND	ND	ND	2.44	7.65	ND	ND	ND	ND	0	0
65214	2017-07-07T05:00:00	52.3	ND	ND	ND	2.47	7.42	ND	ND	ND	ND	0	0
65215	2017-07-07T06:00:00	58.1	ND	ND	ND	4.07	6.06	ND	ND	ND	ND	0	0
65216	2017-07-07T07:00:00	72.6	ND	ND	ND	3.23	5.04	ND	ND	ND	ND	73.3	0
65217	2017-07-07T08:00:00	93.8	ND	ND	ND	3.60	6.53	ND	ND	ND	ND	308.5	0
65218	2017-07-07T09:00:00	128.6	ND	ND	ND	0.93	9.36	ND	ND	ND	ND	515.2	0
65219	2017-07-07T10:00:00	138.1	ND	ND	ND	3.40	27.77	ND	ND	ND	ND	648.1	0
65220	2017-07-07T11:00:00	105.4	ND	ND	ND	1.76	53.65	ND	ND	ND	ND	647.5	0
65221	2017-07-07T12:00:00	79.6	ND	ND	ND	3.01	52.83	ND	ND	ND	ND	647.8	0
65222	2017-07-07T13:00:00	53.2	ND	ND	ND	1.20	57.14	ND	ND	ND	ND	648.1	0
65223	2017-07-07T14:00:00	53.1	ND	ND	ND	1.12	88.54	ND	ND	ND	ND	634.8	0
65224	2017-07-07T15:00:00	60.1	ND	ND	ND	2.27	52.43	ND	ND	ND	ND	304.1	0
65225	2017-07-07T16:00:00	40.5	ND	ND	ND	0.32	23.21	ND	ND	ND	ND	325.4	0
65226	2017-07-07T17:00:00	28.2	ND	ND	ND	2.13	21.88	ND	ND	ND	ND	420.2	0
65227	2017-07-07T18:00:00	25.5	ND	ND	ND	2.06	18.01	ND	ND	ND	ND	205.2	0
65228	2017-07-07T19:00:00	29.5	ND	ND	ND	2.52	12.44	ND	ND	ND	ND	7	0
65229	2017-07-07T20:00:00	22.9	ND	ND	ND	0.57	9.28	ND	ND	ND	ND	0	0
65230	2017-07-07T21:00:00	30.2	ND	ND	ND	2.82	8.30	ND	ND	ND	ND	0	0
65231	2017-07-07T22:00:00	23	ND	ND	ND	1.78	11.50	ND	ND	ND	ND	0	0
65232	2017-07-07T23:00:00	46.8	ND	ND	ND	3.47	5.73	ND	ND	ND	ND	0	0
65233	2017-07-08T00:00:00	17.4	ND	ND	ND	0.42	11.58	ND	ND	ND	ND	0	0
65234	2017-07-08T01:00:00	10.8	ND	ND	ND	3.76	8.40	ND	ND	ND	ND	0	0
65235	2017-07-08T02:00:00	53.6	ND	ND	ND	3.54	6.40	ND	ND	ND	ND	0	0
65236	2017-07-08T03:00:00	44.4	ND	ND	ND	2.93	6.16	ND	ND	ND	ND	0	0
65237	2017-07-08T04:00:00	44.3	ND	ND	ND	2.45	8.12	ND	ND	ND	ND	0	0
65238	2017-07-08T05:00:00	68.5	ND	ND	ND	3.43	7.73	ND	ND	ND	ND	0	0
65239	2017-07-08T06:00:00	38.1	ND	ND	ND	3.12	6.14	ND	ND	ND	ND	0	0
65240	2017-07-08T07:00:00	43.2	ND	ND	ND	3.28	5.51	ND	ND	ND	ND	99.5	0
65241	2017-07-08T08:00:00	55.3	ND	ND	ND	3.39	7.40	ND	ND	ND	ND	368.4	0
65242	2017-07-08T09:00:00	89.7	ND	ND	ND	2.48	12.48	ND	ND	ND	ND	566.8	0
65243	2017-07-08T10:00:00	96.3	ND	ND	ND	2.10	24.71	ND	ND	ND	ND	648	0
65244	2017-07-08T11:00:00	76.6	ND	ND	ND	1.63	45.11	ND	ND	ND	ND	648	0
65245	2017-07-08T12:00:00	73.2	ND	ND	ND	3.12	60.44	ND	ND	ND	ND	648.7	0
65246	2017-07-08T13:00:00	85.4	ND	ND	ND	1.32	55.10	ND	ND	ND	ND	610.1	0
65247	2017-07-08T14:00:00	75.4	ND	ND	ND	0.82	82.38	ND	ND	ND	ND	634.2	0
65248	2017-07-08T15:00:00	70.4	ND	ND	ND	1.12	81.36	ND	ND	ND	ND	547.3	0
65249	2017-07-08T16:00:00	60.7	ND	ND	ND	2.17	50.49	ND	ND	ND	ND	176.3	0
65250	2017-07-08T17:00:00	28.4	ND	ND	ND	1.62	21.55	ND	ND	ND	ND	68.3	20.07
65251	2017-07-08T18:00:00	12.9	ND	ND	ND	2.43	12.07	ND	ND	ND	ND	85.8	0.76
65252	2017-07-08T19:00:00	36.2	ND	ND	ND	1.59	8.30	ND	ND	ND	ND	8.4	0
65253	2017-07-08T20:00:00	24.5	ND	ND	ND	0.64	5.48	ND	ND	ND	ND	0	0
65254	2017-07-08T21:00:00	24	ND	ND	ND	1.78	5.36	ND	ND	ND	ND	0	0
65255	2017-07-08T22:00:00	19.3	ND	ND	ND	2.02	4.85	ND	ND	ND	ND	0	0
65256	2017-07-08T23:00:00	24.3	ND	ND	ND	2.12	6.08	ND	ND	ND	ND	0	0
65257	2017-07-09T00:00:00	27.7	ND	ND	ND	1.95	7.04	ND	ND	ND	ND	0	0
65258	2017-07-09T01:00:00	27.2	ND	ND	ND	0.63	6.71	ND	ND	ND	ND	0	0
65259	2017-07-09T02:00:00	44.6	ND	ND	ND	2.19	5.28	ND	ND	ND	ND	0	0
65260	2017-07-09T03:00:00	61.9	ND	ND	ND	4.22	5.26	ND	ND	ND	ND	0	0
65261	2017-07-09T04:00:00	64.9	ND	ND	ND	2.90	5.18	ND	ND	ND	ND	0	0
65262	2017-07-09T05:00:00	65.8	ND	ND	ND	3.18	5.16	ND	ND	ND	ND	0	0
65263	2017-07-09T06:00:00	69.4	ND	ND	ND	3.71	5.12	ND	ND	ND	ND	0	0
65264	2017-07-09T07:00:00	74.9	ND	ND	ND	3.53	5.44	ND	ND	ND	ND	52	0
65265	2017-07-09T08:00:00	97.8	ND	ND	ND	3.08	5.73	ND	ND	ND	ND	321.3	0
65266	2017-07-09T09:00:00	90.6	ND	ND	ND	6.36	14.52	ND	ND	ND	ND	645.4	0
65267	2017-07-09T10:00:00	84.8	ND	ND	ND	4.84	25.14	ND	ND	ND	ND	648.2	0
65268	2017-07-09T11:00:00	63.4	ND	ND	ND	2.98	55.34	ND	ND	ND	ND	648.5	0
65269	2017-07-09T12:00:00	52.7	ND	ND	ND	1.83	78.87	ND	ND	ND	ND	648.4	0
65270	2017-07-09T13:00:00	64	ND	ND	ND	2.89	103.59	ND	ND	ND	ND	648.5	0
65271	2017-07-09T14:00:00	51.5	ND	ND	ND	2.37	134.91	ND	ND	ND	ND	648.4	0
65272	2017-07-09T15:00:00	46.9	ND	ND	ND	1.95	130.22	ND	ND	ND	ND	648.3	0
65273	2017-07-09T16:00:00	50.5	ND	ND	ND	1.77	124.30	ND	ND	ND	ND	617.1	0
65274	2017-07-09T17:00:00	41.5	ND	ND	ND	1.90	63.50	ND	ND	ND	ND	420	0
65275	2017-07-09T18:00:00	30.6	ND	ND	ND	3.01	31.10	ND	ND	ND	ND	141.4	0
65276	2017-07-09T19:00:00	32.6	ND	ND	ND	2.76	25.63	ND	ND	ND	ND	7.9	0
65277	2017-07-09T20:00:00	24.5	ND	ND	ND	2.05	18.41	ND	ND	ND	ND	0	0
65278	2017-07-09T21:00:00	28.3	ND	ND	ND	1.81	16.25	ND	ND	ND	ND	0	0
65279	2017-07-09T22:00:00	34.7	ND	ND	ND	0.40	6.81	ND	ND	ND	ND	0	0
65280	2017-07-09T23:00:00	24.7	ND	ND	ND	1.45	8.50	ND	ND	ND	ND	0	0
65281	2017-07-10T00:00:00	43.2	ND	ND	ND	3.04	6.32	ND	ND	ND	ND	0	0
65282	2017-07-10T01:00:00	56	ND	ND	ND	2.06	6.22	ND	ND	ND	ND	0	0
65283	2017-07-10T02:00:00	37.8	ND	ND	ND	3.23	5.67	ND	ND	ND	ND	0	0
65284	2017-07-10T03:00:00	34.7	ND	ND	ND	2.80	6.10	ND	ND	ND	ND	0	0
65285	2017-07-10T04:00:00	32.4	ND	ND	ND	3.42	5.61	ND	ND	ND	ND	0	0
65286	2017-07-10T05:00:00	35	ND	ND	ND	2.56	6.06	ND	ND	ND	ND	0	0
65287	2017-07-10T06:00:00	20.8	ND	ND	ND	2.37	4.47	ND	ND	ND	ND	0	0
65288	2017-07-10T07:00:00	40.9	ND	ND	ND	2.36	5.00	ND	ND	ND	ND	134	0
65289	2017-07-10T08:00:00	46.5	ND	ND	ND	3.16	7.56	ND	ND	ND	ND	560.7	0
65290	2017-07-10T09:00:00	54	ND	ND	ND	2.52	18.35	ND	ND	ND	ND	643	0
65291	2017-07-10T10:00:00	63.7	ND	ND	ND	2.80	27.02	ND	ND	ND	ND	647.9	0
65292	2017-07-10T11:00:00	51.2	ND	ND	ND	2.52	41.39	ND	ND	ND	ND	648.7	0
65293	2017-07-10T12:00:00	62.2	ND	ND	ND	2.56	61.58	ND	ND	ND	ND	648.2	0
65294	2017-07-10T13:00:00	70.4	ND	ND	ND	2.01	52.63	ND	ND	ND	ND	648.3	0
65295	2017-07-10T14:00:00	63.1	ND	ND	ND	1.92	48.08	ND	ND	ND	ND	648.2	0
65296	2017-07-10T15:00:00	51	ND	ND	ND	3.40	47.51	ND	ND	ND	ND	615.2	0
65297	2017-07-10T16:00:00	69.9	ND	ND	ND	1.58	35.46	ND	ND	ND	ND	506	0
65298	2017-07-10T17:00:00	72.4	ND	ND	ND	1.21	27.45	ND	ND	ND	ND	296	0
65299	2017-07-10T18:00:00	68.3	ND	ND	ND	1.70	20.72	ND	ND	ND	ND	61.1	0
65300	2017-07-10T19:00:00	51	ND	ND	ND	0.86	8.24	ND	ND	ND	ND	6.9	0
65301	2017-07-10T20:00:00	22.8	ND	ND	ND	1.28	7.71	ND	ND	ND	ND	0	0
65302	2017-07-10T21:00:00	20	ND	ND	ND	2.50	6.75	ND	ND	ND	ND	0	0
65303	2017-07-10T22:00:00	14.4	ND	ND	ND	1.71	6.75	ND	ND	ND	ND	0	0
65304	2017-07-10T23:00:00	27.8	ND	ND	ND	1.83	4.87	ND	ND	ND	ND	0	0
65305	2017-07-11T00:00:00	33.5	ND	ND	ND	2.13	5.59	ND	ND	ND	ND	0	0
65306	2017-07-11T01:00:00	38.7	ND	ND	ND	1.45	4.85	ND	ND	ND	ND	0	0
65307	2017-07-11T02:00:00	32.2	ND	ND	ND	3.05	4.73	ND	ND	ND	ND	0	0
65308	2017-07-11T03:00:00	35.6	ND	ND	ND	4.06	5.14	ND	ND	ND	ND	0	0
65309	2017-07-11T04:00:00	45.3	ND	ND	ND	1.62	5.16	ND	ND	ND	ND	0	0
65310	2017-07-11T05:00:00	52.9	ND	ND	ND	3.60	4.45	ND	ND	ND	ND	0	0
65311	2017-07-11T06:00:00	56.7	ND	ND	ND	2.68	4.91	ND	ND	ND	ND	0	0
65312	2017-07-11T07:00:00	74.4	ND	ND	ND	2.23	4.75	ND	ND	ND	ND	80.6	0
65313	2017-07-11T08:00:00	96.3	ND	ND	ND	2.73	5.16	ND	ND	ND	ND	224.9	0
65314	2017-07-11T09:00:00	124.7	ND	ND	ND	2.96	7.24	ND	ND	ND	ND	576.2	0
65315	2017-07-11T10:00:00	127.5	ND	ND	ND	3.93	14.54	ND	ND	ND	ND	647.8	0
65316	2017-07-11T11:00:00	96.9	ND	ND	ND	3.28	27.36	ND	ND	ND	ND	648.6	0
65317	2017-07-11T12:00:00	50.8	ND	ND	ND	ND	86.29	ND	ND	ND	ND	648	0
65318	2017-07-11T13:00:00	11.7	ND	ND	ND	ND	34.81	ND	ND	ND	ND	647.6	0
65319	2017-07-11T14:00:00	37.3	ND	ND	ND	ND	54.46	ND	ND	ND	ND	648.4	0
65320	2017-07-11T15:00:00	38.3	ND	ND	ND	ND	44.70	ND	ND	ND	ND	647.7	0
65321	2017-07-11T16:00:00	0.7	ND	ND	ND	ND	45.29	ND	ND	ND	ND	626	0
65322	2017-07-11T17:00:00	13.9	ND	ND	ND	ND	48.35	ND	ND	ND	ND	568.1	0
65323	2017-07-11T18:00:00	57.3	ND	ND	ND	ND	29.97	ND	ND	ND	ND	131.8	0
65324	2017-07-11T19:00:00	86.6	ND	ND	ND	ND	20.21	ND	ND	ND	ND	0	0
65325	2017-07-11T20:00:00	126.5	ND	ND	ND	ND	16.23	ND	ND	ND	ND	0	0
65326	2017-07-11T21:00:00	77.6	ND	ND	ND	ND	19.33	ND	ND	ND	ND	0	0
65327	2017-07-11T22:00:00	42.5	ND	ND	ND	ND	18.37	ND	ND	ND	ND	0	0
65328	2017-07-11T23:00:00	23	ND	ND	ND	ND	18.05	ND	ND	ND	ND	0	0
65329	2017-07-12T00:00:00	21	ND	ND	ND	ND	20.60	ND	ND	ND	ND	0	0
65330	2017-07-12T01:00:00	15.1	ND	ND	ND	ND	23.39	ND	ND	ND	ND	0	0
65331	2017-07-12T02:00:00	9.1	ND	ND	ND	ND	19.68	ND	ND	ND	ND	0	0
65332	2017-07-12T03:00:00	2.4	ND	ND	ND	ND	19.09	ND	ND	ND	ND	0	0
65333	2017-07-12T04:00:00	2.5	ND	ND	ND	ND	15.84	ND	ND	ND	ND	0	0
65334	2017-07-12T05:00:00	30.4	ND	ND	ND	ND	4.81	ND	ND	ND	ND	0	0
65335	2017-07-12T06:00:00	53.5	ND	ND	ND	ND	4.79	ND	ND	ND	ND	0	0
65336	2017-07-12T07:00:00	33.5	ND	ND	ND	ND	4.59	ND	ND	ND	ND	147.1	0
65337	2017-07-12T08:00:00	87.7	ND	ND	ND	ND	7.40	ND	ND	ND	ND	562.1	0
65338	2017-07-12T09:00:00	133.4	ND	ND	ND	ND	19.96	ND	ND	ND	ND	637.2	0
65339	2017-07-12T10:00:00	93.2	ND	ND	ND	ND	30.95	ND	ND	ND	ND	647.7	0
65340	2017-07-12T11:00:00	47.1	ND	ND	ND	ND	56.69	ND	ND	ND	ND	648	0
65341	2017-07-12T12:00:00	37.7	ND	ND	ND	ND	83.75	ND	ND	ND	ND	647.8	0
65342	2017-07-12T13:00:00	42.8	ND	ND	ND	ND	85.13	ND	ND	ND	ND	637.3	0
65343	2017-07-12T14:00:00	49.7	ND	ND	ND	ND	78.34	ND	ND	ND	ND	633.2	0
65344	2017-07-12T15:00:00	62.2	ND	ND	ND	ND	88.72	ND	ND	ND	ND	642.2	0
65345	2017-07-12T16:00:00	65.5	ND	ND	ND	ND	59.79	ND	ND	ND	ND	638.4	0
65346	2017-07-12T17:00:00	51.1	ND	ND	ND	ND	39.76	ND	ND	ND	ND	469.5	0
65347	2017-07-12T18:00:00	29	ND	ND	ND	ND	39.11	ND	ND	ND	ND	254.1	0
65348	2017-07-12T19:00:00	100.2	ND	ND	ND	ND	20.09	ND	ND	ND	ND	12.1	0
65349	2017-07-12T20:00:00	93.5	ND	ND	ND	ND	15.82	ND	ND	ND	ND	0	0
65350	2017-07-12T21:00:00	62	ND	ND	ND	ND	16.33	ND	ND	ND	ND	0	0
65351	2017-07-12T22:00:00	35.7	ND	ND	ND	ND	18.90	ND	ND	ND	ND	0	0
65352	2017-07-12T23:00:00	25	ND	ND	ND	ND	20.35	ND	ND	ND	ND	0	0
65353	2017-07-13T00:00:00	22.7	ND	ND	ND	ND	11.40	ND	ND	ND	ND	0	0
65354	2017-07-13T01:00:00	47.4	ND	ND	ND	ND	8.24	ND	ND	ND	ND	0	0
65355	2017-07-13T02:00:00	55.6	ND	ND	ND	ND	9.05	ND	ND	ND	ND	0	0
65356	2017-07-13T03:00:00	23.1	ND	ND	ND	ND	17.52	ND	ND	ND	ND	0	0
65357	2017-07-13T04:00:00	ND	ND	ND	ND	ND	14.19	ND	ND	ND	ND	0	0
65358	2017-07-13T05:00:00	ND	ND	ND	ND	ND	13.38	ND	ND	ND	ND	0	0
65359	2017-07-13T06:00:00	10	ND	ND	ND	ND	7.28	ND	ND	ND	ND	0	0
65360	2017-07-13T07:00:00	71.2	ND	ND	ND	ND	5.24	ND	ND	ND	ND	139.9	0
65361	2017-07-13T08:00:00	151.2	ND	ND	ND	ND	8.32	ND	ND	ND	ND	568.3	0
65362	2017-07-13T09:00:00	145.9	ND	ND	ND	ND	26.61	ND	ND	ND	ND	647.7	0
65363	2017-07-13T10:00:00	101.7	ND	ND	ND	ND	52.96	ND	ND	ND	ND	647.9	0
65364	2017-07-13T11:00:00	25.7	ND	ND	ND	ND	80.30	ND	ND	ND	ND	647.4	0
65365	2017-07-13T12:00:00	31.9	ND	ND	ND	ND	112.40	ND	ND	ND	ND	648.1	0
65366	2017-07-13T13:00:00	68.1	ND	ND	ND	ND	123.18	ND	ND	ND	ND	638.4	0
65367	2017-07-13T14:00:00	71.6	ND	ND	ND	ND	132.44	ND	ND	ND	ND	586.4	0
65368	2017-07-13T15:00:00	90.5	ND	ND	ND	ND	86.58	ND	ND	ND	ND	622	0
65369	2017-07-13T16:00:00	61.4	ND	ND	ND	ND	41.50	ND	ND	ND	ND	429	0
65370	2017-07-13T17:00:00	56.9	ND	ND	ND	ND	28.75	ND	ND	ND	ND	330.4	0
65371	2017-07-13T18:00:00	47.8	ND	ND	ND	ND	26.77	ND	ND	ND	ND	94.9	0
65372	2017-07-13T19:00:00	40.7	ND	ND	ND	ND	24.77	ND	ND	ND	ND	6.7	0
65373	2017-07-13T20:00:00	37.4	ND	ND	ND	ND	23.67	ND	ND	ND	ND	0	0
65374	2017-07-13T21:00:00	29	ND	ND	ND	ND	17.23	ND	ND	ND	ND	0	0
65375	2017-07-13T22:00:00	39.8	ND	ND	ND	ND	14.13	ND	ND	ND	ND	0	0
65376	2017-07-13T23:00:00	14.1	ND	ND	ND	ND	19.41	ND	ND	ND	ND	0	0
65377	2017-07-14T00:00:00	25.1	ND	ND	ND	ND	7.61	ND	ND	ND	ND	0	0
65378	2017-07-14T01:00:00	35	ND	ND	ND	ND	18.86	ND	ND	ND	ND	0	0
65379	2017-07-14T02:00:00	17.7	ND	ND	ND	ND	9.81	ND	ND	ND	ND	0	0
65380	2017-07-14T03:00:00	43.9	ND	ND	ND	ND	8.87	ND	ND	ND	ND	0	0
65381	2017-07-14T04:00:00	45.8	ND	ND	ND	ND	8.16	ND	ND	ND	ND	0	0
65382	2017-07-14T05:00:00	40.2	ND	ND	ND	ND	7.12	ND	ND	ND	ND	0	0
65383	2017-07-14T06:00:00	45.9	ND	ND	ND	ND	6.10	ND	ND	ND	ND	0	0
65384	2017-07-14T07:00:00	70.4	ND	ND	ND	ND	5.83	ND	ND	ND	ND	109.7	0
65385	2017-07-14T08:00:00	85.2	ND	ND	ND	ND	8.79	ND	ND	ND	ND	599.2	0
65386	2017-07-14T09:00:00	73.3	ND	ND	ND	ND	19.41	ND	ND	ND	ND	647.4	0
65387	2017-07-14T10:00:00	62.7	ND	ND	ND	ND	28.18	ND	ND	ND	ND	648	0
65388	2017-07-14T11:00:00	55.8	ND	ND	ND	ND	57.79	ND	ND	ND	ND	645.3	0
65389	2017-07-14T12:00:00	50.8	ND	ND	ND	ND	73.73	ND	ND	ND	ND	648.2	0
65390	2017-07-14T13:00:00	55.2	ND	ND	ND	ND	85.36	ND	ND	ND	ND	563.9	0
65391	2017-07-14T14:00:00	34	ND	ND	ND	ND	29.77	ND	ND	ND	ND	587.3	0
65392	2017-07-14T15:00:00	18.8	ND	ND	ND	ND	33.07	ND	ND	ND	ND	648	0
65393	2017-07-14T16:00:00	23.6	ND	ND	ND	ND	26.34	ND	ND	ND	ND	647.8	0
65394	2017-07-14T17:00:00	23.3	ND	ND	ND	ND	27.77	ND	ND	ND	ND	582.5	0
65395	2017-07-14T18:00:00	27.3	ND	ND	ND	ND	24.16	ND	ND	ND	ND	344.5	0
65396	2017-07-14T19:00:00	23.4	ND	ND	ND	ND	15.80	ND	ND	ND	ND	8.3	0
65397	2017-07-14T20:00:00	35.4	ND	ND	ND	ND	16.13	ND	ND	ND	ND	0	0
65398	2017-07-14T21:00:00	27.4	ND	ND	ND	ND	21.98	ND	ND	ND	ND	0	0
65399	2017-07-14T22:00:00	8	ND	ND	ND	ND	19.56	ND	ND	ND	ND	0	0
65400	2017-07-14T23:00:00	30.4	ND	ND	ND	ND	4.30	ND	ND	ND	ND	0	0
65401	2017-07-15T00:00:00	53.5	ND	ND	ND	ND	4.71	ND	ND	ND	ND	0	0
65402	2017-07-15T01:00:00	34.3	ND	ND	ND	ND	19.58	ND	ND	ND	ND	0	0
65403	2017-07-15T02:00:00	0.4	ND	ND	ND	ND	13.85	ND	ND	ND	ND	0	0
65404	2017-07-15T03:00:00	34.1	ND	ND	ND	ND	8.10	ND	ND	ND	ND	0	0
65405	2017-07-15T04:00:00	41.7	ND	ND	ND	ND	5.53	ND	ND	ND	ND	0	0
65406	2017-07-15T05:00:00	45	ND	ND	ND	ND	6.95	ND	ND	ND	ND	0	0
65407	2017-07-15T06:00:00	60.8	ND	ND	ND	ND	4.73	ND	ND	ND	ND	0	0
65408	2017-07-15T07:00:00	71.6	ND	ND	ND	ND	5.81	ND	ND	ND	ND	107.2	0
65409	2017-07-15T08:00:00	71.7	ND	ND	ND	ND	9.24	ND	ND	ND	ND	571.3	0
65410	2017-07-15T09:00:00	95.1	ND	ND	ND	ND	17.37	ND	ND	ND	ND	601.9	0
65411	2017-07-15T10:00:00	56.2	ND	ND	ND	ND	37.05	ND	ND	ND	ND	647.3	0
65412	2017-07-15T11:00:00	57.3	ND	ND	ND	ND	61.72	ND	ND	ND	ND	633.1	0
65413	2017-07-15T12:00:00	56.4	ND	ND	ND	ND	90.45	ND	ND	ND	ND	647.4	0
65414	2017-07-15T13:00:00	42.7	ND	ND	ND	ND	85.13	ND	ND	ND	ND	641.5	0
65415	2017-07-15T14:00:00	58.8	ND	ND	ND	ND	71.14	ND	ND	ND	ND	639.1	0
65416	2017-07-15T15:00:00	49	ND	ND	ND	ND	73.92	ND	ND	ND	ND	631.3	0
65417	2017-07-15T16:00:00	49.1	ND	ND	ND	ND	49.35	ND	ND	ND	ND	562.1	0
65418	2017-07-15T17:00:00	30.2	ND	ND	ND	ND	21.10	ND	ND	ND	ND	191.4	0
65419	2017-07-15T18:00:00	26.2	ND	ND	ND	ND	12.64	ND	ND	ND	ND	103.3	0
65420	2017-07-15T19:00:00	36.9	ND	ND	ND	ND	9.58	ND	ND	ND	ND	6.6	0
65421	2017-07-15T20:00:00	73.2	ND	ND	ND	ND	7.69	ND	ND	ND	ND	0	0
65422	2017-07-15T21:00:00	57.8	ND	ND	ND	ND	17.41	ND	ND	ND	ND	0	0
65423	2017-07-15T22:00:00	31.5	ND	ND	ND	ND	19.70	ND	ND	ND	ND	0	0
65424	2017-07-15T23:00:00	20.9	ND	ND	ND	ND	15.88	ND	ND	ND	ND	0	0
65425	2017-07-16T00:00:00	20	ND	ND	ND	ND	17.17	ND	ND	ND	ND	0	0
65426	2017-07-16T01:00:00	26.7	ND	ND	ND	ND	20.57	ND	ND	ND	ND	0	0
65427	2017-07-16T02:00:00	13.4	ND	ND	ND	ND	22.14	ND	ND	ND	ND	0	0
65428	2017-07-16T03:00:00	8.3	ND	ND	ND	ND	16.80	ND	ND	ND	ND	0	0
65429	2017-07-16T04:00:00	20.5	ND	ND	ND	ND	9.79	ND	ND	ND	ND	0	0
65430	2017-07-16T05:00:00	19	ND	ND	ND	ND	8.93	ND	ND	ND	ND	0	0
65431	2017-07-16T06:00:00	43.7	ND	ND	ND	ND	6.14	ND	ND	ND	ND	0	0
65432	2017-07-16T07:00:00	59.1	ND	ND	ND	ND	6.65	ND	ND	ND	ND	154.1	0
65433	2017-07-16T08:00:00	55.7	ND	ND	ND	ND	13.44	ND	ND	ND	ND	583.7	0
65434	2017-07-16T09:00:00	50.5	ND	ND	ND	ND	24.63	ND	ND	ND	ND	647.3	0
65435	2017-07-16T10:00:00	54.4	ND	ND	ND	ND	37.58	ND	ND	ND	ND	646.5	0
65436	2017-07-16T11:00:00	47.3	ND	ND	ND	ND	49.31	ND	ND	ND	ND	644	0
65437	2017-07-16T12:00:00	43	ND	ND	ND	ND	69.78	ND	ND	ND	ND	647.1	0
65438	2017-07-16T13:00:00	45.2	ND	ND	ND	ND	89.37	ND	ND	ND	ND	648	0
65439	2017-07-16T14:00:00	42.5	ND	ND	ND	ND	95.65	ND	ND	ND	ND	639.7	0
65440	2017-07-16T15:00:00	35.7	ND	ND	ND	ND	41.74	ND	ND	ND	ND	645.9	0
65441	2017-07-16T16:00:00	10.4	ND	ND	ND	ND	33.18	ND	ND	ND	ND	632.5	0
65442	2017-07-16T17:00:00	4.8	ND	ND	ND	ND	32.44	ND	ND	ND	ND	611.4	0
65443	2017-07-16T18:00:00	16.4	ND	ND	ND	ND	26.85	ND	ND	ND	ND	209.1	0
65444	2017-07-16T19:00:00	14.5	ND	ND	ND	ND	24.94	ND	ND	ND	ND	8.2	0
65445	2017-07-16T20:00:00	10.4	ND	ND	ND	ND	17.86	ND	ND	ND	ND	0	0
65446	2017-07-16T21:00:00	6	ND	ND	ND	ND	21.25	ND	ND	ND	ND	0	0
65447	2017-07-16T22:00:00	17.2	ND	ND	ND	ND	21.68	ND	ND	ND	ND	0	0
65448	2017-07-16T23:00:00	8.9	ND	ND	ND	ND	10.38	ND	ND	ND	ND	0	0
65449	2017-07-17T00:00:00	21.3	ND	ND	ND	ND	5.97	ND	ND	ND	ND	0	0
65450	2017-07-17T01:00:00	34.1	ND	ND	ND	ND	7.89	ND	ND	ND	ND	0	0
65451	2017-07-17T02:00:00	38.1	ND	ND	ND	ND	7.89	ND	ND	ND	ND	0	0
65452	2017-07-17T03:00:00	37.2	ND	ND	ND	ND	11.42	ND	ND	ND	ND	0	0
65453	2017-07-17T04:00:00	47.2	ND	ND	ND	ND	11.32	ND	ND	ND	ND	0	0
65454	2017-07-17T05:00:00	33.5	ND	ND	ND	ND	9.44	ND	ND	ND	ND	0	0
65455	2017-07-17T06:00:00	44.8	ND	ND	ND	ND	8.97	ND	ND	ND	ND	0	0
65456	2017-07-17T07:00:00	62.3	ND	ND	ND	ND	9.71	ND	ND	ND	ND	77.1	0
65457	2017-07-17T08:00:00	57.3	ND	ND	ND	ND	9.89	ND	ND	ND	ND	290.9	0
65458	2017-07-17T09:00:00	67.3	ND	ND	ND	ND	10.81	ND	ND	ND	ND	298.8	0
65459	2017-07-17T10:00:00	78	ND	ND	ND	ND	20.27	ND	ND	ND	ND	641.3	0
65460	2017-07-17T11:00:00	83.7	ND	ND	ND	ND	45.04	ND	ND	ND	ND	647.4	0
65461	2017-07-17T12:00:00	64.4	ND	ND	ND	ND	65.76	ND	ND	ND	ND	648.1	0
65462	2017-07-17T13:00:00	69.4	ND	ND	ND	ND	64.93	ND	ND	ND	ND	647.4	0
65463	2017-07-17T14:00:00	47.2	ND	ND	ND	ND	52.89	ND	ND	ND	ND	647.9	0
65464	2017-07-17T15:00:00	30.3	ND	ND	ND	ND	44.04	ND	ND	ND	ND	608.1	0
65465	2017-07-17T16:00:00	30.4	ND	ND	ND	ND	32.58	ND	ND	ND	ND	403.6	0
65466	2017-07-17T17:00:00	21.2	ND	ND	ND	ND	27.43	ND	ND	ND	ND	574.8	0
65467	2017-07-17T18:00:00	24	ND	ND	ND	ND	17.41	ND	ND	ND	ND	238.2	0
65468	2017-07-17T19:00:00	21.9	ND	ND	ND	ND	8.73	ND	ND	ND	ND	9.2	0
65469	2017-07-17T20:00:00	34	ND	ND	ND	ND	5.53	ND	ND	ND	ND	0	0
65470	2017-07-17T21:00:00	31.5	ND	ND	ND	ND	7.10	ND	ND	ND	ND	0	0
65471	2017-07-17T22:00:00	32.4	ND	ND	ND	ND	7.36	ND	ND	ND	ND	0	0
65472	2017-07-17T23:00:00	62.4	ND	ND	ND	ND	10.83	ND	ND	ND	ND	0	0
65473	2017-07-18T00:00:00	53.5	ND	ND	ND	ND	9.11	ND	ND	ND	ND	0	0
65474	2017-07-18T01:00:00	33.4	ND	ND	ND	ND	10.01	ND	ND	ND	ND	0	0
65475	2017-07-18T02:00:00	54.5	ND	ND	ND	ND	13.48	ND	ND	ND	ND	0	0
65476	2017-07-18T03:00:00	47.6	ND	ND	ND	ND	11.32	ND	ND	ND	ND	0	0
65477	2017-07-18T04:00:00	43.5	ND	ND	ND	ND	11.42	ND	ND	ND	ND	0	0
65478	2017-07-18T05:00:00	32	ND	ND	ND	ND	6.75	ND	ND	ND	ND	0	0
65479	2017-07-18T06:00:00	49.4	ND	ND	ND	ND	5.55	ND	ND	ND	ND	0	0
65480	2017-07-18T07:00:00	61.7	ND	ND	ND	ND	5.79	ND	ND	ND	ND	94.7	0
65481	2017-07-18T08:00:00	53.5	ND	ND	ND	ND	8.52	ND	ND	ND	ND	422.4	0
65482	2017-07-18T09:00:00	61.1	ND	ND	ND	ND	20.98	ND	ND	ND	ND	644.3	0
65483	2017-07-18T10:00:00	79.3	ND	ND	ND	ND	37.66	ND	ND	ND	ND	647.7	0
65484	2017-07-18T11:00:00	71.9	ND	ND	ND	ND	50.49	ND	ND	ND	ND	648.1	0
65485	2017-07-18T12:00:00	59.8	ND	ND	ND	ND	71.57	ND	ND	ND	ND	647.9	0
65486	2017-07-18T13:00:00	65.4	ND	ND	ND	ND	82.83	ND	ND	ND	ND	648.5	0
65487	2017-07-18T14:00:00	62.6	ND	ND	ND	ND	127.89	ND	ND	ND	ND	648.4	0
65488	2017-07-18T15:00:00	71.7	ND	ND	ND	ND	107.30	ND	ND	ND	ND	487.7	0
65489	2017-07-18T16:00:00	66.5	ND	ND	ND	ND	96.80	ND	ND	ND	ND	573.4	0
65490	2017-07-18T17:00:00	48	ND	ND	ND	ND	40.25	ND	ND	ND	ND	340.8	0
65491	2017-07-18T18:00:00	40.5	ND	ND	ND	ND	28.83	ND	ND	ND	ND	173.6	0
65492	2017-07-18T19:00:00	40.7	ND	ND	ND	ND	21.72	ND	ND	ND	ND	5.8	0
65493	2017-07-18T20:00:00	31.3	ND	ND	ND	ND	22.65	ND	ND	ND	ND	0	0
65494	2017-07-18T21:00:00	21.3	ND	ND	ND	ND	26.63	ND	ND	ND	ND	0	0
65495	2017-07-18T22:00:00	15.7	ND	ND	ND	ND	17.90	ND	ND	ND	ND	0	0
65496	2017-07-18T23:00:00	24.9	ND	ND	ND	ND	10.91	ND	ND	ND	ND	0	6.6
65497	2017-07-19T00:00:00	22.3	ND	ND	ND	ND	10.97	ND	ND	ND	ND	0	0.25
65498	2017-07-19T01:00:00	26.1	ND	ND	ND	ND	10.28	ND	ND	ND	ND	0	0
65499	2017-07-19T02:00:00	30.9	ND	ND	ND	ND	10.77	ND	ND	ND	ND	0	0
65500	2017-07-19T03:00:00	12.2	ND	ND	ND	ND	10.73	ND	ND	ND	ND	0	0
65501	2017-07-19T04:00:00	8.6	ND	ND	ND	ND	9.46	ND	ND	ND	ND	0	0
65502	2017-07-19T05:00:00	8.9	ND	ND	ND	ND	8.75	ND	ND	ND	ND	0	0
65503	2017-07-19T06:00:00	29.4	ND	ND	ND	ND	9.71	ND	ND	ND	ND	0	0
65504	2017-07-19T07:00:00	52.2	ND	ND	ND	ND	10.48	ND	ND	ND	ND	65.9	0
65505	2017-07-19T08:00:00	ND	ND	ND	ND	ND	ND	ND	ND	ND	ND	ND	ND
65506	2017-07-19T09:00:00	ND	ND	ND	ND	ND	ND	ND	ND	ND	ND	ND	ND
65507	2017-07-19T10:00:00	ND	ND	ND	ND	ND	ND	ND	ND	ND	ND	ND	ND
65508	2017-07-19T11:00:00	ND	ND	ND	ND	ND	ND	ND	ND	ND	ND	637.6	0
65509	2017-07-19T12:00:00	ND	ND	ND	ND	ND	ND	ND	ND	ND	ND	648.3	0
65510	2017-07-19T13:00:00	ND	ND	ND	ND	ND	ND	ND	ND	ND	ND	643.8	0
65511	2017-07-19T14:00:00	ND	ND	ND	ND	ND	ND	ND	ND	ND	ND	614.1	0
65512	2017-07-19T15:00:00	ND	ND	ND	ND	ND	ND	ND	ND	ND	ND	582	0
65513	2017-07-19T16:00:00	ND	ND	ND	ND	ND	ND	ND	ND	ND	ND	611.2	0
65514	2017-07-19T17:00:00	ND	ND	ND	ND	ND	ND	ND	ND	ND	ND	577.8	0
65515	2017-07-19T18:00:00	ND	ND	ND	ND	ND	ND	ND	ND	ND	ND	156.4	0
65516	2017-07-19T19:00:00	ND	ND	ND	ND	ND	ND	ND	ND	ND	ND	0	0
65517	2017-07-19T20:00:00	ND	ND	ND	ND	ND	ND	ND	ND	ND	ND	0	0
65518	2017-07-19T21:00:00	ND	ND	ND	ND	ND	ND	ND	ND	ND	ND	0	0
65519	2017-07-19T22:00:00	ND	ND	ND	ND	ND	ND	ND	ND	ND	ND	0	0
65520	2017-07-19T23:00:00	ND	ND	ND	ND	ND	ND	ND	ND	ND	ND	0	0
65521	2017-07-20T00:00:00	ND	ND	ND	ND	ND	ND	ND	ND	ND	ND	0	0
65522	2017-07-20T01:00:00	ND	ND	ND	ND	ND	ND	ND	ND	ND	ND	0	0
65523	2017-07-20T02:00:00	ND	ND	ND	ND	ND	ND	ND	ND	ND	ND	0	0
65524	2017-07-20T03:00:00	ND	ND	ND	ND	ND	ND	ND	ND	ND	ND	0	0
65525	2017-07-20T04:00:00	ND	ND	ND	ND	ND	ND	ND	ND	ND	ND	0	0
65526	2017-07-20T05:00:00	ND	ND	ND	ND	ND	ND	ND	ND	ND	ND	0	0
65527	2017-07-20T06:00:00	ND	ND	ND	ND	ND	ND	ND	ND	ND	ND	0	0
65528	2017-07-20T07:00:00	ND	ND	ND	ND	ND	ND	ND	ND	ND	ND	59.7	0
65529	2017-07-20T08:00:00	ND	ND	ND	ND	ND	ND	ND	ND	ND	ND	232.6	0
65530	2017-07-20T09:00:00	ND	ND	ND	ND	ND	ND	ND	ND	ND	ND	545.9	0
65531	2017-07-20T10:00:00	ND	ND	ND	ND	ND	ND	ND	ND	ND	ND	610.4	0
65532	2017-07-20T11:00:00	ND	ND	ND	ND	ND	ND	ND	ND	ND	ND	647.7	0
65533	2017-07-20T12:00:00	ND	ND	ND	ND	ND	ND	ND	ND	ND	ND	648.4	0
65534	2017-07-20T13:00:00	ND	ND	ND	ND	ND	ND	ND	ND	ND	ND	648.7	0
65535	2017-07-20T14:00:00	ND	ND	ND	ND	ND	ND	ND	ND	ND	ND	648.5	0
65536	2017-07-20T15:00:00	ND	ND	ND	ND	ND	ND	ND	ND	ND	ND	616	0
65537	2017-07-20T16:00:00	ND	ND	ND	ND	ND	ND	ND	ND	ND	ND	547	0
65538	2017-07-20T17:00:00	ND	ND	ND	ND	ND	ND	ND	ND	ND	ND	508.3	0
65539	2017-07-20T18:00:00	ND	ND	ND	ND	ND	ND	ND	ND	ND	ND	207.1	0
65540	2017-07-20T19:00:00	ND	ND	ND	ND	ND	ND	ND	ND	ND	ND	12.9	0
65541	2017-07-20T20:00:00	ND	ND	ND	ND	ND	ND	ND	ND	ND	ND	0	0
65542	2017-07-20T21:00:00	ND	ND	ND	ND	ND	ND	ND	ND	ND	ND	0	0
65543	2017-07-20T22:00:00	ND	ND	ND	ND	ND	ND	ND	ND	ND	ND	0	0
65544	2017-07-20T23:00:00	ND	ND	ND	ND	ND	ND	ND	ND	ND	ND	0	0
65545	2017-07-21T00:00:00	ND	ND	ND	ND	ND	ND	ND	ND	ND	ND	0	0
65546	2017-07-21T01:00:00	ND	ND	ND	ND	ND	ND	ND	ND	ND	ND	0	0
65547	2017-07-21T02:00:00	ND	ND	ND	ND	ND	ND	ND	ND	ND	ND	0	0
65548	2017-07-21T03:00:00	ND	ND	ND	ND	ND	ND	ND	ND	ND	ND	0	0
65549	2017-07-21T04:00:00	ND	ND	ND	ND	ND	ND	ND	ND	ND	ND	0	0
65550	2017-07-21T05:00:00	ND	ND	ND	ND	ND	ND	ND	ND	ND	ND	0	0
65551	2017-07-21T06:00:00	ND	ND	ND	ND	ND	ND	ND	ND	ND	ND	0	0
65552	2017-07-21T07:00:00	ND	ND	ND	ND	ND	ND	ND	ND	ND	ND	167.1	0
65553	2017-07-21T08:00:00	ND	ND	ND	ND	ND	ND	ND	ND	ND	ND	343.7	0
65554	2017-07-21T09:00:00	ND	ND	ND	ND	ND	ND	ND	ND	ND	ND	644.7	0
65555	2017-07-21T10:00:00	ND	ND	ND	ND	ND	ND	ND	ND	ND	ND	648.3	0
65556	2017-07-21T11:00:00	ND	ND	ND	ND	ND	ND	ND	ND	ND	ND	648	0
65557	2017-07-21T12:00:00	ND	ND	ND	ND	ND	ND	ND	ND	ND	ND	631.4	0
65558	2017-07-21T13:00:00	ND	ND	ND	ND	ND	ND	ND	ND	ND	ND	647.8	0
65559	2017-07-21T14:00:00	ND	ND	ND	ND	ND	ND	ND	ND	ND	ND	645.1	0
65560	2017-07-21T15:00:00	ND	ND	ND	ND	ND	ND	ND	ND	ND	ND	596.2	0
65561	2017-07-21T16:00:00	ND	ND	ND	ND	ND	ND	ND	ND	ND	ND	561	0
65562	2017-07-21T17:00:00	ND	ND	ND	ND	ND	ND	ND	ND	ND	ND	501.8	0
65563	2017-07-21T18:00:00	ND	ND	ND	ND	1.00	21.04	ND	ND	ND	ND	139.8	0
65564	2017-07-21T19:00:00	ND	ND	ND	ND	2.84	18.70	ND	ND	ND	ND	11.1	0
65565	2017-07-21T20:00:00	92	ND	ND	ND	1.38	21.94	ND	ND	ND	ND	0	0
65566	2017-07-21T21:00:00	46.9	ND	ND	ND	2.23	21.08	ND	ND	ND	ND	0	0
65567	2017-07-21T22:00:00	33.1	ND	ND	ND	2.13	19.90	ND	ND	ND	ND	0	0
65568	2017-07-21T23:00:00	19.6	ND	ND	ND	0.75	16.54	ND	ND	ND	ND	0	0
65569	2017-07-22T00:00:00	30.9	ND	ND	ND	3.33	12.72	ND	ND	ND	ND	0	0
65570	2017-07-22T01:00:00	66.3	ND	ND	ND	3.89	12.78	ND	ND	ND	ND	0	0
65571	2017-07-22T02:00:00	63.1	ND	ND	ND	3.23	12.32	ND	ND	ND	ND	0	0
65572	2017-07-22T03:00:00	50	ND	ND	ND	3.02	13.11	ND	ND	ND	ND	0	0
65573	2017-07-22T04:00:00	56.1	ND	ND	ND	3.60	12.32	ND	ND	ND	ND	0	0
65574	2017-07-22T05:00:00	67.7	ND	ND	ND	3.83	9.85	ND	ND	ND	ND	0	0
65575	2017-07-22T06:00:00	108.8	ND	ND	ND	2.93	7.50	ND	ND	ND	ND	0	0
65576	2017-07-22T07:00:00	56.3	ND	ND	ND	2.73	6.26	ND	ND	ND	ND	122.3	0
65577	2017-07-22T08:00:00	54.5	ND	ND	ND	4.24	8.85	ND	ND	ND	ND	474.2	0
65578	2017-07-22T09:00:00	86.2	ND	ND	ND	3.36	14.84	ND	ND	ND	ND	646.9	0
65579	2017-07-22T10:00:00	64.6	ND	ND	ND	2.40	23.73	ND	ND	ND	ND	647	0
65580	2017-07-22T11:00:00	61.3	ND	ND	ND	3.60	37.52	ND	ND	ND	ND	647.1	0
65581	2017-07-22T12:00:00	80.1	ND	ND	ND	1.94	61.66	ND	ND	ND	ND	647.1	0
65582	2017-07-22T13:00:00	68.9	ND	ND	ND	2.84	79.32	ND	ND	ND	ND	647	0
65583	2017-07-22T14:00:00	57.8	ND	ND	ND	2.22	61.54	ND	ND	ND	ND	646.6	0
65584	2017-07-22T15:00:00	44.3	ND	ND	ND	3.04	75.87	ND	ND	ND	ND	604.6	0
65585	2017-07-22T16:00:00	46.5	ND	ND	ND	1.53	54.91	ND	ND	ND	ND	560.5	0
65586	2017-07-22T17:00:00	36.2	ND	ND	ND	2.31	43.55	ND	ND	ND	ND	457.6	0
65587	2017-07-22T18:00:00	22.4	ND	ND	ND	3.53	23.37	ND	ND	ND	ND	153.1	0
65588	2017-07-22T19:00:00	13.8	ND	ND	ND	1.63	14.15	ND	ND	ND	ND	6.9	0
65589	2017-07-22T20:00:00	23.4	ND	ND	ND	2.12	9.46	ND	ND	ND	ND	0	0
65590	2017-07-22T21:00:00	29.9	ND	ND	ND	1.28	12.05	ND	ND	ND	ND	0	0
65591	2017-07-22T22:00:00	37.5	ND	ND	ND	2.91	12.30	ND	ND	ND	ND	0	0
65592	2017-07-22T23:00:00	67.8	ND	ND	ND	1.53	12.85	ND	ND	ND	ND	0	0
65593	2017-07-23T00:00:00	53.2	ND	ND	ND	3.74	10.07	ND	ND	ND	ND	0	0
65594	2017-07-23T01:00:00	38	ND	ND	ND	1.78	13.68	ND	ND	ND	ND	0	0
65595	2017-07-23T02:00:00	44.7	ND	ND	ND	4.56	12.11	ND	ND	ND	ND	0	0
65596	2017-07-23T03:00:00	36	ND	ND	ND	2.43	10.77	ND	ND	ND	ND	0	0
65597	2017-07-23T04:00:00	31.3	ND	ND	ND	2.56	9.69	ND	ND	ND	ND	0	0
65598	2017-07-23T05:00:00	10.9	ND	ND	ND	3.23	8.12	ND	ND	ND	ND	0	0
65599	2017-07-23T06:00:00	21.2	ND	ND	ND	1.39	6.04	ND	ND	ND	ND	0	0
65600	2017-07-23T07:00:00	25.4	ND	ND	ND	2.20	7.71	ND	ND	ND	ND	92.4	0
65601	2017-07-23T08:00:00	69.2	ND	ND	ND	4.21	9.93	ND	ND	ND	ND	361.9	0
65602	2017-07-23T09:00:00	75.7	ND	ND	ND	3.09	16.58	ND	ND	ND	ND	647	0
65603	2017-07-23T10:00:00	38.9	ND	ND	ND	3.68	33.34	ND	ND	ND	ND	647.3	0
65604	2017-07-23T11:00:00	28.9	ND	ND	ND	2.52	62.21	ND	ND	ND	ND	646.9	0
65605	2017-07-23T12:00:00	44.3	ND	ND	ND	2.10	85.74	ND	ND	ND	ND	647.1	0
65606	2017-07-23T13:00:00	53.3	ND	ND	ND	2.76	90.54	ND	ND	ND	ND	641.2	0
65607	2017-07-23T14:00:00	53.1	ND	ND	ND	3.96	87.17	ND	ND	ND	ND	641.1	0
65608	2017-07-23T15:00:00	36.6	ND	ND	ND	1.27	75.83	ND	ND	ND	ND	466.7	0
65609	2017-07-23T16:00:00	14.3	ND	ND	ND	2.38	30.75	ND	ND	ND	ND	506.2	0
65610	2017-07-23T17:00:00	9.5	ND	ND	ND	1.42	27.00	ND	ND	ND	ND	386	0
65611	2017-07-23T18:00:00	1.8	ND	ND	ND	2.87	25.53	ND	ND	ND	ND	128.2	0
65612	2017-07-23T19:00:00	15.6	ND	ND	ND	1.81	22.14	ND	ND	ND	ND	10.5	0
65613	2017-07-23T20:00:00	27.3	ND	ND	ND	2.12	20.29	ND	ND	ND	ND	0	0
65614	2017-07-23T21:00:00	21.3	ND	ND	ND	1.13	17.96	ND	ND	ND	ND	0	0
65615	2017-07-23T22:00:00	19.9	ND	ND	ND	2.63	16.15	ND	ND	ND	ND	0	0
65616	2017-07-23T23:00:00	32.8	ND	ND	ND	3.75	17.21	ND	ND	ND	ND	0	0
65617	2017-07-24T00:00:00	31.2	ND	ND	ND	2.84	22.80	ND	ND	ND	ND	0	0
65618	2017-07-24T01:00:00	27.5	ND	ND	ND	2.19	19.51	ND	ND	ND	ND	0	0
65619	2017-07-24T02:00:00	12.6	ND	ND	ND	2.75	15.19	ND	ND	ND	ND	0	0
65620	2017-07-24T03:00:00	13.9	ND	ND	ND	2.01	16.72	ND	ND	ND	ND	0	0
65621	2017-07-24T04:00:00	36.9	ND	ND	ND	1.66	20.39	ND	ND	ND	ND	0	0
65622	2017-07-24T05:00:00	42.7	ND	ND	ND	2.34	16.88	ND	ND	ND	ND	0	0
65623	2017-07-24T06:00:00	34.2	ND	ND	ND	4.07	14.29	ND	ND	ND	ND	0	0
65624	2017-07-24T07:00:00	41.1	ND	ND	ND	4.46	10.36	ND	ND	ND	ND	97	0
65625	2017-07-24T08:00:00	60.9	ND	ND	ND	3.81	12.66	ND	ND	ND	ND	507.7	0
65626	2017-07-24T09:00:00	79.6	ND	ND	ND	1.24	20.55	ND	ND	ND	ND	646.5	0
65627	2017-07-24T10:00:00	87.5	ND	ND	ND	3.39	35.60	ND	ND	ND	ND	647.4	0
65628	2017-07-24T11:00:00	71.6	ND	ND	ND	3.39	60.28	ND	ND	ND	ND	647.7	0
65629	2017-07-24T12:00:00	58.6	ND	ND	ND	3.09	74.71	ND	ND	ND	ND	647.6	0
65630	2017-07-24T13:00:00	63.4	ND	ND	ND	2.96	75.85	ND	ND	ND	ND	646.8	0
65631	2017-07-24T14:00:00	62.2	ND	ND	ND	1.83	69.64	ND	ND	ND	ND	647.2	0
65632	2017-07-24T15:00:00	61.4	ND	ND	ND	1.37	80.56	ND	ND	ND	ND	647.2	0
65633	2017-07-24T16:00:00	86.9	ND	ND	ND	0.00	65.76	ND	ND	ND	ND	496.8	0
65634	2017-07-24T17:00:00	88	ND	ND	ND	1.94	39.40	ND	ND	ND	ND	300.6	0
65635	2017-07-24T18:00:00	37.1	ND	ND	ND	2.13	25.88	ND	ND	ND	ND	155.8	0
65636	2017-07-24T19:00:00	28.6	ND	ND	ND	2.37	12.76	ND	ND	ND	ND	11.2	0
65637	2017-07-24T20:00:00	15.4	ND	ND	ND	1.99	12.56	ND	ND	ND	ND	0	0
65638	2017-07-24T21:00:00	30.9	ND	ND	ND	1.07	17.62	ND	ND	ND	ND	0	0
65639	2017-07-24T22:00:00	15.2	ND	ND	ND	3.00	16.27	ND	ND	ND	ND	0	0
65640	2017-07-24T23:00:00	33.9	ND	ND	ND	2.89	16.68	ND	ND	ND	ND	0	0
65641	2017-07-25T00:00:00	33.8	ND	ND	ND	0.86	20.80	ND	ND	ND	ND	0	0
65642	2017-07-25T01:00:00	0.1	ND	ND	ND	2.13	17.62	ND	ND	ND	ND	0	0
65643	2017-07-25T02:00:00	27.4	ND	ND	ND	4.25	19.07	ND	ND	ND	ND	0	0
65644	2017-07-25T03:00:00	55.4	ND	ND	ND	2.72	21.57	ND	ND	ND	ND	0	0
65645	2017-07-25T04:00:00	60.3	ND	ND	ND	4.45	21.02	ND	ND	ND	ND	0	0
65646	2017-07-25T05:00:00	55.6	ND	ND	ND	2.79	18.52	ND	ND	ND	ND	0	0
65647	2017-07-25T06:00:00	50.5	ND	ND	ND	3.97	17.23	ND	ND	ND	ND	0	0
65648	2017-07-25T07:00:00	66	ND	ND	ND	2.63	13.56	ND	ND	ND	ND	69.9	0
65649	2017-07-25T08:00:00	57.4	ND	ND	ND	1.85	11.05	ND	ND	ND	ND	269.8	0
65650	2017-07-25T09:00:00	77.5	ND	ND	ND	4.13	16.03	ND	ND	ND	ND	644.6	0
65651	2017-07-25T10:00:00	66.7	ND	ND	ND	3.36	32.69	ND	ND	ND	ND	647.2	0
65652	2017-07-25T11:00:00	56.6	ND	ND	ND	4.34	51.41	ND	ND	ND	ND	646.7	0
65653	2017-07-25T12:00:00	70.5	ND	ND	ND	2.45	87.48	ND	ND	ND	ND	646.7	0
65654	2017-07-25T13:00:00	62.5	ND	ND	ND	2.90	75.24	ND	ND	ND	ND	647.2	0
65655	2017-07-25T14:00:00	61.5	ND	ND	ND	2.87	67.25	ND	ND	ND	ND	647	0
65656	2017-07-25T15:00:00	69.1	ND	ND	ND	1.51	79.02	ND	ND	ND	ND	631.9	0
65657	2017-07-25T16:00:00	66.8	ND	ND	ND	3.23	78.91	ND	ND	ND	ND	625.3	0
65658	2017-07-25T17:00:00	76.6	ND	ND	ND	1.70	55.22	ND	ND	ND	ND	320.9	0
65659	2017-07-25T18:00:00	60.5	ND	ND	ND	1.77	31.14	ND	ND	ND	ND	66.5	0
65660	2017-07-25T19:00:00	35.4	ND	ND	ND	1.25	21.82	ND	ND	ND	ND	6.1	0
65661	2017-07-25T20:00:00	23.3	ND	ND	ND	0.84	17.68	ND	ND	ND	ND	0	0
65662	2017-07-25T21:00:00	27.7	ND	ND	ND	1.67	14.66	ND	ND	ND	ND	0	0
65663	2017-07-25T22:00:00	25.4	ND	ND	ND	2.77	18.58	ND	ND	ND	ND	0	0
65664	2017-07-25T23:00:00	13.4	ND	ND	ND	2.47	15.84	ND	ND	ND	ND	0	0
65665	2017-07-26T00:00:00	25.8	ND	ND	ND	3.57	17.37	ND	ND	ND	ND	0	0
65666	2017-07-26T01:00:00	18.4	ND	ND	ND	2.56	14.27	ND	ND	ND	ND	0	0
65667	2017-07-26T02:00:00	14.4	ND	ND	ND	3.81	12.01	ND	ND	ND	ND	0	0
65668	2017-07-26T03:00:00	24.4	ND	ND	ND	2.63	8.50	ND	ND	ND	ND	0	0
65669	2017-07-26T04:00:00	27.4	ND	ND	ND	2.62	11.40	ND	ND	ND	ND	0	0
65670	2017-07-26T05:00:00	29.6	ND	ND	ND	2.91	8.46	ND	ND	ND	ND	0	0
65671	2017-07-26T06:00:00	19.3	ND	ND	ND	3.92	7.18	ND	ND	ND	ND	0	0
65672	2017-07-26T07:00:00	24.5	ND	ND	ND	3.88	5.16	ND	ND	ND	ND	107.3	0
65673	2017-07-26T08:00:00	45.9	ND	ND	ND	3.26	8.30	ND	ND	ND	ND	589.6	0
65674	2017-07-26T09:00:00	54	ND	ND	ND	ND	ND	ND	ND	ND	ND	646.9	0
65675	2017-07-26T10:00:00	50.9	ND	ND	ND	ND	28.81	ND	ND	ND	ND	648.7	0
65676	2017-07-26T11:00:00	85.8	ND	ND	ND	3.15	50.85	ND	ND	ND	ND	648.7	0
65677	2017-07-26T12:00:00	79.3	ND	ND	ND	1.30	67.13	ND	ND	ND	ND	649.1	0
65678	2017-07-26T13:00:00	68.2	ND	ND	ND	0.39	67.90	ND	ND	ND	ND	649.1	0
65679	2017-07-26T14:00:00	66.3	ND	ND	ND	1.52	75.45	ND	ND	ND	ND	649.5	0
65680	2017-07-26T15:00:00	64.3	ND	ND	ND	1.14	71.45	ND	ND	ND	ND	649.3	0
65681	2017-07-26T16:00:00	75.6	ND	ND	ND	2.93	55.85	ND	ND	ND	ND	632.7	0
65682	2017-07-26T17:00:00	76.7	ND	ND	ND	1.41	44.04	ND	ND	ND	ND	346.6	0
65683	2017-07-26T18:00:00	86.3	ND	ND	ND	0.38	42.98	ND	ND	ND	ND	139.1	0
65684	2017-07-26T19:00:00	64.5	ND	ND	ND	1.34	30.16	ND	ND	ND	ND	5.1	0
65685	2017-07-26T20:00:00	29.6	ND	ND	ND	2.27	25.06	ND	ND	ND	ND	0	0
65686	2017-07-26T21:00:00	34	ND	ND	ND	1.98	21.78	ND	ND	ND	ND	0	0
65687	2017-07-26T22:00:00	26.2	ND	ND	ND	1.67	17.27	ND	ND	ND	ND	0	0
65688	2017-07-26T23:00:00	39.2	ND	ND	ND	1.00	10.99	ND	ND	ND	ND	0	0
65689	2017-07-27T00:00:00	30.5	ND	ND	ND	2.43	21.27	ND	ND	ND	ND	0	0
65690	2017-07-27T01:00:00	7.8	ND	ND	ND	2.06	16.33	ND	ND	ND	ND	0	0
65691	2017-07-27T02:00:00	21.3	ND	ND	ND	2.50	8.67	ND	ND	ND	ND	0	0
65692	2017-07-27T03:00:00	29	ND	ND	ND	1.64	12.95	ND	ND	ND	ND	0	0
65693	2017-07-27T04:00:00	39.8	ND	ND	ND	2.56	15.76	ND	ND	ND	ND	0	0
65694	2017-07-27T05:00:00	37.5	ND	ND	ND	1.66	10.28	ND	ND	ND	ND	0	0
65695	2017-07-27T06:00:00	19.9	ND	ND	ND	2.19	6.46	ND	ND	ND	ND	0	0
65696	2017-07-27T07:00:00	29.8	ND	ND	ND	2.51	5.26	ND	ND	ND	ND	85.2	0
65697	2017-07-27T08:00:00	48.1	ND	ND	ND	1.69	8.32	ND	ND	ND	ND	466.9	0
65698	2017-07-27T09:00:00	65	ND	ND	ND	1.95	21.08	ND	ND	ND	ND	601.8	0
65699	2017-07-27T10:00:00	84.6	ND	ND	ND	2.79	40.76	ND	ND	ND	ND	645.9	0
65700	2017-07-27T11:00:00	81.5	ND	ND	ND	0.67	56.18	ND	ND	ND	ND	648	0
65701	2017-07-27T12:00:00	65.7	ND	ND	ND	1.55	54.95	ND	ND	ND	ND	649	0
65702	2017-07-27T13:00:00	66.6	ND	ND	ND	2.97	60.93	ND	ND	ND	ND	648.8	0
65703	2017-07-27T14:00:00	58.5	ND	ND	ND	2.08	61.81	ND	ND	ND	ND	649	0
65704	2017-07-27T15:00:00	52.6	ND	ND	ND	1.45	60.46	ND	ND	ND	ND	649.6	0
65705	2017-07-27T16:00:00	57.5	ND	ND	ND	2.04	54.08	ND	ND	ND	ND	625.9	0
65706	2017-07-27T17:00:00	75.9	ND	ND	ND	2.89	34.79	ND	ND	ND	ND	559.4	0
65707	2017-07-27T18:00:00	77.6	ND	ND	ND	2.86	32.10	ND	ND	ND	ND	345.4	0
65708	2017-07-27T19:00:00	80	ND	ND	ND	0.46	19.70	ND	ND	ND	ND	8.5	0
65709	2017-07-27T20:00:00	36.8	ND	ND	ND	2.27	16.46	ND	ND	ND	ND	0	0
65710	2017-07-27T21:00:00	25.1	ND	ND	ND	1.05	15.97	ND	ND	ND	ND	0	0
65711	2017-07-27T22:00:00	22.2	ND	ND	ND	0.92	15.56	ND	ND	ND	ND	0	0
65712	2017-07-27T23:00:00	20.3	ND	ND	ND	2.29	11.70	ND	ND	ND	ND	0	0
65713	2017-07-28T00:00:00	29.9	ND	ND	ND	3.71	7.83	ND	ND	ND	ND	0	0
65714	2017-07-28T01:00:00	56.6	ND	ND	ND	0.35	14.50	ND	ND	ND	ND	0	0
65715	2017-07-28T02:00:00	43.1	ND	ND	ND	0.75	20.19	ND	ND	ND	ND	0	0
65716	2017-07-28T03:00:00	26.2	ND	ND	ND	1.67	17.72	ND	ND	ND	ND	0	0
65717	2017-07-28T04:00:00	13.7	ND	ND	ND	1.18	16.50	ND	ND	ND	ND	0	0
65718	2017-07-28T05:00:00	16.4	ND	ND	ND	1.71	14.01	ND	ND	ND	ND	0	0
65719	2017-07-28T06:00:00	29.5	ND	ND	ND	2.17	7.24	ND	ND	ND	ND	0	0
65720	2017-07-28T07:00:00	45.4	ND	ND	ND	2.43	4.96	ND	ND	ND	ND	76.4	0
65721	2017-07-28T08:00:00	59.4	ND	ND	ND	2.79	7.65	ND	ND	ND	ND	316	0
65722	2017-07-28T09:00:00	69.5	ND	ND	ND	4.21	20.98	ND	ND	ND	ND	645.9	0
65723	2017-07-28T10:00:00	87.2	ND	ND	ND	2.31	32.87	ND	ND	ND	ND	647.6	0
65724	2017-07-28T11:00:00	53.3	ND	ND	ND	0.99	41.54	ND	ND	ND	ND	648.8	0
65725	2017-07-28T12:00:00	34.5	ND	ND	ND	2.52	52.06	ND	ND	ND	ND	648.7	0
65726	2017-07-28T13:00:00	53.7	ND	ND	ND	0.60	67.78	ND	ND	ND	ND	649.3	0
65727	2017-07-28T14:00:00	61.6	ND	ND	ND	1.99	86.60	ND	ND	ND	ND	649.1	0
65728	2017-07-28T15:00:00	64.8	ND	ND	ND	3.00	67.78	ND	ND	ND	ND	649.3	0
65729	2017-07-28T16:00:00	55.5	ND	ND	ND	1.10	42.98	ND	ND	ND	ND	648.9	0
65730	2017-07-28T17:00:00	30	ND	ND	ND	0.61	58.99	ND	ND	ND	ND	643.3	0
65731	2017-07-28T18:00:00	37.4	ND	ND	ND	2.26	31.40	ND	ND	ND	ND	186.7	0
65732	2017-07-28T19:00:00	44.8	ND	ND	ND	2.04	16.17	ND	ND	ND	ND	6.6	0
65733	2017-07-28T20:00:00	39.6	ND	ND	ND	2.56	16.03	ND	ND	ND	ND	0	0
65734	2017-07-28T21:00:00	25.2	ND	ND	ND	1.58	13.40	ND	ND	ND	ND	0	0
65735	2017-07-28T22:00:00	25.2	ND	ND	ND	1.53	10.17	ND	ND	ND	ND	0	0
65736	2017-07-28T23:00:00	34.1	ND	ND	ND	3.39	11.60	ND	ND	ND	ND	0	0
65737	2017-07-29T00:00:00	17.6	ND	ND	ND	0.45	20.21	ND	ND	ND	ND	0	0
65738	2017-07-29T01:00:00	10	ND	ND	ND	2.72	16.31	ND	ND	ND	ND	0	0
65739	2017-07-29T02:00:00	16.5	ND	ND	ND	4.07	9.97	ND	ND	ND	ND	0	0
65740	2017-07-29T03:00:00	34.1	ND	ND	ND	3.46	9.28	ND	ND	ND	ND	0	0
65741	2017-07-29T04:00:00	40.9	ND	ND	ND	3.61	9.34	ND	ND	ND	ND	0	0
65742	2017-07-29T05:00:00	30.6	ND	ND	ND	2.33	6.77	ND	ND	ND	ND	0	0
65743	2017-07-29T06:00:00	29.1	ND	ND	ND	2.05	6.32	ND	ND	ND	ND	0	0
65744	2017-07-29T07:00:00	60	ND	ND	ND	4.78	8.32	ND	ND	ND	ND	52.2	0
65745	2017-07-29T08:00:00	106	ND	ND	ND	2.89	7.04	ND	ND	ND	ND	290.4	0
65746	2017-07-29T09:00:00	87.8	ND	ND	ND	1.90	9.16	ND	ND	ND	ND	509.6	0
65747	2017-07-29T10:00:00	65.3	ND	ND	ND	1.98	22.51	ND	ND	ND	ND	638.5	0
65748	2017-07-29T11:00:00	34.6	ND	ND	ND	ND	38.54	ND	ND	ND	ND	648.3	0
65749	2017-07-29T12:00:00	47.4	ND	ND	ND	ND	54.97	ND	ND	ND	ND	648.6	0
65750	2017-07-29T13:00:00	69	ND	ND	ND	ND	43.23	ND	ND	ND	ND	649	0
65751	2017-07-29T14:00:00	64.1	ND	ND	ND	1.35	64.92	ND	ND	ND	ND	648.5	0
65752	2017-07-29T15:00:00	71.4	ND	ND	ND	2.54	65.03	ND	ND	ND	ND	647.2	0
65753	2017-07-29T16:00:00	80.1	ND	ND	ND	2.58	48.65	ND	ND	ND	ND	618.7	0
65754	2017-07-29T17:00:00	105.3	ND	ND	ND	1.62	33.93	ND	ND	ND	ND	366.2	0
65755	2017-07-29T18:00:00	77.8	ND	ND	ND	1.18	16.86	ND	ND	ND	ND	171.6	0
65756	2017-07-29T19:00:00	51.4	ND	ND	ND	1.42	13.68	ND	ND	ND	ND	7.9	0
65757	2017-07-29T20:00:00	47.5	ND	ND	ND	1.55	4.57	ND	ND	ND	ND	0	0
65758	2017-07-29T21:00:00	49.8	ND	ND	ND	1.85	9.50	ND	ND	ND	ND	0	0
65759	2017-07-29T22:00:00	39.3	ND	ND	ND	0.35	13.60	ND	ND	ND	ND	0	0
65760	2017-07-29T23:00:00	67.1	ND	ND	ND	1.21	6.46	ND	ND	ND	ND	0	0
65761	2017-07-30T00:00:00	83.4	ND	ND	ND	4.77	7.93	ND	ND	ND	ND	0	0
65762	2017-07-30T01:00:00	45.7	ND	ND	ND	3.60	11.89	ND	ND	ND	ND	0	0
65763	2017-07-30T02:00:00	14.7	ND	ND	ND	3.43	7.71	ND	ND	ND	ND	0	0
65764	2017-07-30T03:00:00	37.9	ND	ND	ND	5.58	7.85	ND	ND	ND	ND	0	0
65765	2017-07-30T04:00:00	86.1	ND	ND	ND	5.02	4.67	ND	ND	ND	ND	0	0
65766	2017-07-30T05:00:00	53.2	ND	ND	ND	2.96	4.04	ND	ND	ND	ND	0	0
65767	2017-07-30T06:00:00	60.5	ND	ND	ND	4.68	4.63	ND	ND	ND	ND	0	0
65768	2017-07-30T07:00:00	84.4	ND	ND	ND	3.35	5.79	ND	ND	ND	ND	101	0
65769	2017-07-30T08:00:00	73	ND	ND	ND	3.08	9.65	ND	ND	ND	ND	340.3	0
65770	2017-07-30T09:00:00	66.6	ND	ND	ND	4.24	15.70	ND	ND	ND	ND	570.7	0
65771	2017-07-30T10:00:00	64.5	ND	ND	ND	2.43	32.12	ND	ND	ND	ND	647.6	0
65772	2017-07-30T11:00:00	42.8	ND	ND	ND	0.46	47.47	ND	ND	ND	ND	648.2	0
65773	2017-07-30T12:00:00	42.3	ND	ND	ND	0.98	58.77	ND	ND	ND	ND	648.6	0
65774	2017-07-30T13:00:00	31.2	ND	ND	ND	0.46	79.20	ND	ND	ND	ND	648.8	0
65775	2017-07-30T14:00:00	42.8	ND	ND	ND	1.44	78.32	ND	ND	ND	ND	648.6	0
65776	2017-07-30T15:00:00	48.5	ND	ND	ND	0.96	58.28	ND	ND	ND	ND	580	0
65777	2017-07-30T16:00:00	47.9	ND	ND	ND	0.36	59.58	ND	ND	ND	ND	440.3	0
65778	2017-07-30T17:00:00	65.7	ND	ND	ND	2.82	75.43	ND	ND	ND	ND	397.3	0
65779	2017-07-30T18:00:00	65.7	ND	ND	ND	2.10	56.48	ND	ND	ND	ND	146.9	0
65780	2017-07-30T19:00:00	63.3	ND	ND	ND	2.65	29.40	ND	ND	ND	ND	6.3	0
65781	2017-07-30T20:00:00	40.4	ND	ND	ND	3.07	13.85	ND	ND	ND	ND	0	0
65782	2017-07-30T21:00:00	28.3	ND	ND	ND	0.11	11.87	ND	ND	ND	ND	0	0
65783	2017-07-30T22:00:00	28.9	ND	ND	ND	1.00	9.46	ND	ND	ND	ND	0	0
65784	2017-07-30T23:00:00	25.9	ND	ND	ND	1.78	6.02	ND	ND	ND	ND	0	0
65785	2017-07-31T00:00:00	33.3	ND	ND	ND	2.20	8.12	ND	ND	ND	ND	0	0
65786	2017-07-31T01:00:00	45.9	ND	ND	ND	3.92	6.71	ND	ND	ND	ND	0	0
65787	2017-07-31T02:00:00	32.1	ND	ND	ND	2.44	10.42	ND	ND	ND	ND	0	0
65788	2017-07-31T03:00:00	37.7	ND	ND	ND	4.07	12.01	ND	ND	ND	ND	0	0
65789	2017-07-31T04:00:00	22.6	ND	ND	ND	2.23	10.30	ND	ND	ND	ND	0	0
65790	2017-07-31T05:00:00	15.8	ND	ND	ND	1.05	8.08	ND	ND	ND	ND	0	0
65791	2017-07-31T06:00:00	26.5	ND	ND	ND	3.42	4.08	ND	ND	ND	ND	0	0
65792	2017-07-31T07:00:00	65	ND	ND	ND	2.40	4.45	ND	ND	ND	ND	98.9	0
65793	2017-07-31T08:00:00	64.7	ND	ND	ND	3.05	7.24	ND	ND	ND	ND	473.7	0
65794	2017-07-31T09:00:00	66.7	ND	ND	ND	2.06	16.56	ND	ND	ND	ND	635.8	0
65795	2017-07-31T10:00:00	74.9	ND	ND	ND	1.62	44.45	ND	ND	ND	ND	647.9	0
65796	2017-07-31T11:00:00	45.6	ND	ND	ND	0.56	57.58	ND	ND	ND	ND	648.6	0
65797	2017-07-31T12:00:00	44.8	ND	ND	ND	1.63	56.67	ND	ND	ND	ND	648.8	0
65798	2017-07-31T13:00:00	55	ND	ND	ND	2.79	49.26	ND	ND	ND	ND	639.6	0
65799	2017-07-31T14:00:00	43.4	ND	ND	ND	2.02	44.59	ND	ND	ND	ND	649.3	0
65800	2017-07-31T15:00:00	40.6	ND	ND	ND	2.56	39.99	ND	ND	ND	ND	650.2	0
65801	2017-07-31T16:00:00	6.8	ND	ND	ND	ND	41.62	ND	ND	ND	ND	648.8	0
65802	2017-07-31T17:00:00	21.6	ND	ND	ND	ND	45.17	ND	ND	ND	ND	638.9	0
65803	2017-07-31T18:00:00	39.6	ND	ND	ND	ND	40.23	ND	ND	ND	ND	363.1	0
65804	2017-07-31T19:00:00	71.1	ND	ND	ND	ND	17.66	ND	ND	ND	ND	13.2	0
65805	2017-07-31T20:00:00	73.9	ND	ND	ND	ND	22.14	ND	ND	ND	ND	0	0
65806	2017-07-31T21:00:00	44.8	ND	ND	ND	ND	20.51	ND	ND	ND	ND	0	0
65807	2017-07-31T22:00:00	29.4	ND	ND	ND	ND	22.94	ND	ND	ND	ND	0	0
65808	2017-07-31T23:00:00	14.6	ND	ND	ND	ND	24.08	ND	ND	ND	ND	0	0
65809	2017-08-01T00:00:00	11.1	ND	ND	ND	ND	13.72	ND	ND	ND	ND	0	0
65810	2017-08-01T01:00:00	33.2	ND	ND	ND	4.15	7.18	ND	ND	ND	ND	0	0
65811	2017-08-01T02:00:00	36	ND	ND	ND	4.59	4.42	ND	ND	ND	ND	0	0
65812	2017-08-01T03:00:00	43.9	ND	ND	ND	4.31	10.85	ND	ND	ND	ND	0	0
65813	2017-08-01T04:00:00	11.7	ND	ND	ND	4.18	19.09	ND	ND	ND	ND	0	0
65814	2017-08-01T05:00:00	13.5	ND	ND	ND	2.93	6.28	ND	ND	ND	ND	0	0
65815	2017-08-01T06:00:00	65.2	ND	ND	ND	6.51	4.12	ND	ND	ND	ND	0	0
65816	2017-08-01T07:00:00	80.5	ND	ND	ND	6.13	4.30	ND	ND	ND	ND	141.7	0
65817	2017-08-01T08:00:00	120.3	ND	ND	ND	4.91	6.06	ND	ND	ND	ND	322.2	0
65818	2017-08-01T09:00:00	136.3	ND	ND	ND	5.56	16.07	ND	ND	ND	ND	536.2	0
65819	2017-08-01T10:00:00	25.5	ND	ND	ND	1.83	41.98	ND	ND	ND	ND	647.7	0
65820	2017-08-01T11:00:00	38.6	ND	ND	ND	1.21	54.46	ND	ND	ND	ND	647.6	0
65821	2017-08-01T12:00:00	82.7	ND	ND	ND	1.59	70.90	ND	ND	ND	ND	648.1	0
65822	2017-08-01T13:00:00	93.2	ND	ND	ND	3.22	85.89	ND	ND	ND	ND	647.3	0
65823	2017-08-01T14:00:00	82.1	ND	ND	ND	3.42	99.92	ND	ND	ND	ND	648.7	0
65824	2017-08-01T15:00:00	78.9	ND	ND	ND	1.84	93.04	ND	ND	ND	ND	615.3	0
65825	2017-08-01T16:00:00	59.8	ND	ND	ND	5.03	74.67	ND	ND	ND	ND	484.7	0
65826	2017-08-01T17:00:00	45.3	ND	ND	ND	2.27	36.19	ND	ND	ND	ND	647.6	0
65827	2017-08-01T18:00:00	53.5	ND	ND	ND	3.12	30.69	ND	ND	ND	ND	286.1	0
65828	2017-08-01T19:00:00	42.8	ND	ND	ND	3.23	23.08	ND	ND	ND	ND	8.8	0
65829	2017-08-01T20:00:00	20.3	ND	ND	ND	3.11	21.74	ND	ND	ND	ND	0	0
65830	2017-08-01T21:00:00	18.2	ND	ND	ND	1.74	19.92	ND	ND	ND	ND	0	0
65831	2017-08-01T22:00:00	26.7	ND	ND	ND	4.03	19.78	ND	ND	ND	ND	0	0
65832	2017-08-01T23:00:00	20.3	ND	ND	ND	0.93	22.55	ND	ND	ND	ND	0	0
65833	2017-08-02T00:00:00	41.2	ND	ND	ND	4.86	4.87	ND	ND	ND	ND	0	0
65834	2017-08-02T01:00:00	65	ND	ND	ND	7.29	4.65	ND	ND	ND	ND	0	0
65835	2017-08-02T02:00:00	63.8	ND	ND	ND	4.95	8.65	ND	ND	ND	ND	0	0
65836	2017-08-02T03:00:00	58.5	ND	ND	ND	3.97	14.42	ND	ND	ND	ND	0	0
65837	2017-08-02T04:00:00	47.4	ND	ND	ND	3.88	16.35	ND	ND	ND	ND	0	0
65838	2017-08-02T05:00:00	29	ND	ND	ND	3.62	18.72	ND	ND	ND	ND	0	0
65839	2017-08-02T06:00:00	34.4	ND	ND	ND	4.50	4.98	ND	ND	ND	ND	0	0
65840	2017-08-02T07:00:00	83.5	ND	ND	ND	6.62	4.79	ND	ND	ND	ND	115.3	0
65841	2017-08-02T08:00:00	122.7	ND	ND	ND	3.21	8.63	ND	ND	ND	ND	533	0
65842	2017-08-02T09:00:00	89.6	ND	ND	ND	2.79	28.93	ND	ND	ND	ND	647.4	0
65843	2017-08-02T10:00:00	91.5	ND	ND	ND	4.75	54.48	ND	ND	ND	ND	648.1	0
65844	2017-08-02T11:00:00	82.4	ND	ND	ND	3.75	80.14	ND	ND	ND	ND	648.1	0
65845	2017-08-02T12:00:00	82.3	ND	ND	ND	2.98	89.15	ND	ND	ND	ND	648.2	0
65846	2017-08-02T13:00:00	88.5	ND	ND	ND	3.89	130.89	ND	ND	ND	ND	645.2	0
65847	2017-08-02T14:00:00	81.6	ND	ND	ND	1.92	154.75	ND	ND	ND	ND	581.9	0
65848	2017-08-02T15:00:00	73.7	ND	ND	ND	2.19	64.31	ND	ND	ND	ND	649.1	0
65849	2017-08-02T16:00:00	51.9	ND	ND	ND	1.45	38.54	ND	ND	ND	ND	636.6	0
65850	2017-08-02T17:00:00	41	ND	ND	ND	4.15	32.85	ND	ND	ND	ND	627.2	0
65851	2017-08-02T18:00:00	33.1	ND	ND	ND	3.64	25.28	ND	ND	ND	ND	213.3	0
65852	2017-08-02T19:00:00	29.9	ND	ND	ND	4.86	14.62	ND	ND	ND	ND	7.2	0
65853	2017-08-02T20:00:00	11.6	ND	ND	ND	2.27	17.01	ND	ND	ND	ND	0	0
65854	2017-08-02T21:00:00	17.9	ND	ND	ND	1.37	19.51	ND	ND	ND	ND	0	0
65855	2017-08-02T22:00:00	21.7	ND	ND	ND	3.65	19.17	ND	ND	ND	ND	0	0
65856	2017-08-02T23:00:00	13.5	ND	ND	ND	3.29	18.74	ND	ND	ND	ND	0	0
65857	2017-08-03T00:00:00	23.2	ND	ND	ND	3.88	10.30	ND	ND	ND	ND	0	0
65858	2017-08-03T01:00:00	52.7	ND	ND	ND	5.02	10.18	ND	ND	ND	ND	0	0
65859	2017-08-03T02:00:00	46.3	ND	ND	ND	5.62	15.54	ND	ND	ND	ND	0	0
65860	2017-08-03T03:00:00	39.7	ND	ND	ND	5.91	8.18	ND	ND	ND	ND	0	0
65861	2017-08-03T04:00:00	34.4	ND	ND	ND	2.91	15.88	ND	ND	ND	ND	0	0
65862	2017-08-03T05:00:00	33.1	ND	ND	ND	5.28	10.60	ND	ND	ND	ND	0	0
65863	2017-08-03T06:00:00	49.6	ND	ND	ND	3.62	6.28	ND	ND	ND	ND	0	0
65864	2017-08-03T07:00:00	66.3	ND	ND	ND	6.04	5.32	ND	ND	ND	ND	119.8	0
65865	2017-08-03T08:00:00	126.7	ND	ND	ND	7.44	6.61	ND	ND	ND	ND	522.7	0
65866	2017-08-03T09:00:00	144.4	ND	ND	ND	5.73	18.29	ND	ND	ND	ND	647.5	0
65867	2017-08-03T10:00:00	117	ND	ND	ND	4.11	47.27	ND	ND	ND	ND	647.5	0
65868	2017-08-03T11:00:00	95.5	ND	ND	ND	3.14	79.73	ND	ND	ND	ND	646.9	0
65869	2017-08-03T12:00:00	82.3	ND	ND	ND	0.85	76.12	ND	ND	ND	ND	648.1	0
65870	2017-08-03T13:00:00	81.5	ND	ND	ND	3.37	95.12	ND	ND	ND	ND	634.6	0
65871	2017-08-03T14:00:00	73.9	ND	ND	ND	1.59	115.09	ND	ND	ND	ND	649.2	0
65872	2017-08-03T15:00:00	76.1	ND	ND	ND	1.97	130.42	ND	ND	ND	ND	628.8	0
65873	2017-08-03T16:00:00	71.3	ND	ND	ND	1.58	93.80	ND	ND	ND	ND	649.3	0
65874	2017-08-03T17:00:00	70.4	ND	ND	ND	2.76	41.05	ND	ND	ND	ND	637.6	0
65875	2017-08-03T18:00:00	57.4	ND	ND	ND	2.65	26.96	ND	ND	ND	ND	245	0
65876	2017-08-03T19:00:00	41.2	ND	ND	ND	4.53	24.22	ND	ND	ND	ND	8.1	0
65877	2017-08-03T20:00:00	33.9	ND	ND	ND	2.48	25.22	ND	ND	ND	ND	0	0
65878	2017-08-03T21:00:00	15.6	ND	ND	ND	1.48	24.75	ND	ND	ND	ND	0	0
65879	2017-08-03T22:00:00	16.9	ND	ND	ND	3.35	18.21	ND	ND	ND	ND	0	0
65880	2017-08-03T23:00:00	19.2	ND	ND	ND	2.31	19.68	ND	ND	ND	ND	0	0
65881	2017-08-04T00:00:00	23.2	ND	ND	ND	5.24	16.76	ND	ND	ND	ND	0	0
65882	2017-08-04T01:00:00	33.8	ND	ND	ND	3.74	17.29	ND	ND	ND	ND	0	0
65883	2017-08-04T02:00:00	17.3	ND	ND	ND	3.64	18.54	ND	ND	ND	ND	0	0
65884	2017-08-04T03:00:00	12	ND	ND	ND	3.39	11.09	ND	ND	ND	ND	0	0
65885	2017-08-04T04:00:00	28.4	ND	ND	ND	4.70	12.09	ND	ND	ND	ND	0	0
65886	2017-08-04T05:00:00	19.3	ND	ND	ND	3.18	12.34	ND	ND	ND	ND	0	0
65887	2017-08-04T06:00:00	34.4	ND	ND	ND	4.61	8.65	ND	ND	ND	ND	0	0
65888	2017-08-04T07:00:00	78.6	ND	ND	ND	7.30	10.30	ND	ND	ND	ND	60.3	0
65889	2017-08-04T08:00:00	139.1	ND	ND	ND	6.19	10.32	ND	ND	ND	ND	256.9	0
65890	2017-08-04T09:00:00	109.8	ND	ND	ND	4.27	10.87	ND	ND	ND	ND	492.1	0
65891	2017-08-04T10:00:00	83.1	ND	ND	ND	5.67	19.62	ND	ND	ND	ND	647.6	0
65892	2017-08-04T11:00:00	68.5	ND	ND	ND	3.37	44.13	ND	ND	ND	ND	647.6	0
65893	2017-08-04T12:00:00	64.6	ND	ND	ND	3.90	49.08	ND	ND	ND	ND	647.5	0
65894	2017-08-04T13:00:00	70.9	ND	ND	ND	3.22	44.33	ND	ND	ND	ND	584	0
65895	2017-08-04T14:00:00	33.1	ND	ND	ND	3.18	32.24	ND	ND	ND	ND	565	0
65896	2017-08-04T15:00:00	19.5	ND	ND	ND	2.87	42.49	ND	ND	ND	ND	647.8	0
65897	2017-08-04T16:00:00	30.6	ND	ND	ND	3.14	32.07	ND	ND	ND	ND	621.2	0
65898	2017-08-04T17:00:00	42.9	ND	ND	ND	3.67	19.51	ND	ND	ND	ND	530.6	0
65899	2017-08-04T18:00:00	63.1	ND	ND	ND	3.37	15.01	ND	ND	ND	ND	265	0
65900	2017-08-04T19:00:00	41.7	ND	ND	ND	2.50	8.40	ND	ND	ND	ND	11.3	0
65901	2017-08-04T20:00:00	32.5	ND	ND	ND	3.01	6.24	ND	ND	ND	ND	0	0
65902	2017-08-04T21:00:00	48.7	ND	ND	ND	3.50	5.69	ND	ND	ND	ND	0	0
65903	2017-08-04T22:00:00	59.3	ND	ND	ND	2.34	4.77	ND	ND	ND	ND	0	0
65904	2017-08-04T23:00:00	19.9	ND	ND	ND	1.18	7.04	ND	ND	ND	ND	0	0
65905	2017-08-05T00:00:00	8.2	ND	ND	ND	2.50	10.36	ND	ND	ND	ND	0	0
65906	2017-08-05T01:00:00	2.4	ND	ND	ND	0.54	15.80	ND	ND	ND	ND	0	0
65907	2017-08-05T02:00:00	24	ND	ND	ND	4.20	8.95	ND	ND	ND	ND	0	0
65908	2017-08-05T03:00:00	60.5	ND	ND	ND	2.93	10.89	ND	ND	ND	ND	0	0
65909	2017-08-05T04:00:00	41.7	ND	ND	ND	5.41	5.02	ND	ND	ND	ND	0	0
65910	2017-08-05T05:00:00	46	ND	ND	ND	4.78	5.24	ND	ND	ND	ND	0	0
65911	2017-08-05T06:00:00	35.2	ND	ND	ND	5.66	5.02	ND	ND	ND	ND	0	0
65912	2017-08-05T07:00:00	58.7	ND	ND	ND	4.75	5.53	ND	ND	ND	ND	96.1	0
65913	2017-08-05T08:00:00	64.9	ND	ND	ND	2.84	6.67	ND	ND	ND	ND	458	0
65914	2017-08-05T09:00:00	98.8	ND	ND	ND	6.04	15.29	ND	ND	ND	ND	626.1	0
65915	2017-08-05T10:00:00	103.6	ND	ND	ND	2.98	39.25	ND	ND	ND	ND	643.3	0
65916	2017-08-05T11:00:00	80.5	ND	ND	ND	3.48	64.76	ND	ND	ND	ND	648.5	0
65917	2017-08-05T12:00:00	85.1	ND	ND	ND	6.06	60.09	ND	ND	ND	ND	648	0
65918	2017-08-05T13:00:00	90.3	ND	ND	ND	3.93	90.11	ND	ND	ND	ND	646.8	0
65919	2017-08-05T14:00:00	87.5	ND	ND	ND	1.67	99.88	ND	ND	ND	ND	648.7	0
65920	2017-08-05T15:00:00	70.7	ND	ND	ND	2.44	103.06	ND	ND	ND	ND	648.6	0
65921	2017-08-05T16:00:00	73.2	ND	ND	ND	3.82	81.14	ND	ND	ND	ND	473.6	0
65922	2017-08-05T17:00:00	45.7	ND	ND	ND	1.55	45.76	ND	ND	ND	ND	482.9	0
65923	2017-08-05T18:00:00	23	ND	ND	ND	0.04	33.32	ND	ND	ND	ND	281.4	0
65924	2017-08-05T19:00:00	19.9	ND	ND	ND	1.64	33.48	ND	ND	ND	ND	16.7	0
65925	2017-08-05T20:00:00	6.1	ND	ND	ND	2.68	35.60	ND	ND	ND	ND	0	0
65926	2017-08-05T21:00:00	16.2	ND	ND	ND	1.74	30.69	ND	ND	ND	ND	0	0
65927	2017-08-05T22:00:00	28.8	ND	ND	ND	3.81	10.83	ND	ND	ND	ND	0	0
65928	2017-08-05T23:00:00	46.8	ND	ND	ND	2.36	13.64	ND	ND	ND	ND	0	0
65929	2017-08-06T00:00:00	54.6	ND	ND	ND	3.71	5.75	ND	ND	ND	ND	0	0
65930	2017-08-06T01:00:00	64	ND	ND	ND	6.30	5.63	ND	ND	ND	ND	0	0
65931	2017-08-06T02:00:00	46.1	ND	ND	ND	4.96	8.05	ND	ND	ND	ND	0	0
65932	2017-08-06T03:00:00	56.3	ND	ND	ND	6.11	9.67	ND	ND	ND	ND	0	0
65933	2017-08-06T04:00:00	56.4	ND	ND	ND	5.91	10.79	ND	ND	ND	ND	0	0
65934	2017-08-06T05:00:00	45.2	ND	ND	ND	4.13	7.83	ND	ND	ND	ND	0	0
65935	2017-08-06T06:00:00	51.1	ND	ND	ND	7.32	5.69	ND	ND	ND	ND	0	0
65936	2017-08-06T07:00:00	58.4	ND	ND	ND	5.80	6.79	ND	ND	ND	ND	98.5	0
65937	2017-08-06T08:00:00	56	ND	ND	ND	4.11	12.68	ND	ND	ND	ND	555.7	0
65938	2017-08-06T09:00:00	69.2	ND	ND	ND	3.05	30.77	ND	ND	ND	ND	646.9	0
65939	2017-08-06T10:00:00	83.7	ND	ND	ND	5.42	53.32	ND	ND	ND	ND	641.6	0
65940	2017-08-06T11:00:00	59.9	ND	ND	ND	3.79	78.14	ND	ND	ND	ND	647.8	0
65941	2017-08-06T12:00:00	50	ND	ND	ND	2.93	87.58	ND	ND	ND	ND	647.8	0
65942	2017-08-06T13:00:00	56.1	ND	ND	ND	2.90	89.41	ND	ND	ND	ND	649	0
65943	2017-08-06T14:00:00	62.1	ND	ND	ND	2.44	94.00	ND	ND	ND	ND	649	0
65944	2017-08-06T15:00:00	56.8	ND	ND	ND	2.45	107.44	ND	ND	ND	ND	649.1	0
65945	2017-08-06T16:00:00	38.3	ND	ND	ND	3.46	70.68	ND	ND	ND	ND	524	0
65946	2017-08-06T17:00:00	30.3	ND	ND	ND	2.34	55.77	ND	ND	ND	ND	646.1	0
65947	2017-08-06T18:00:00	23.2	ND	ND	ND	3.90	45.61	ND	ND	ND	ND	306.4	0
65948	2017-08-06T19:00:00	15	ND	ND	ND	2.54	37.01	ND	ND	ND	ND	6.6	0
65949	2017-08-06T20:00:00	11.1	ND	ND	ND	3.09	28.91	ND	ND	ND	ND	0	0
65950	2017-08-06T21:00:00	17.8	ND	ND	ND	3.32	31.61	ND	ND	ND	ND	0	0
65951	2017-08-06T22:00:00	7.3	ND	ND	ND	1.83	23.86	ND	ND	ND	ND	0	0
65952	2017-08-06T23:00:00	9.6	ND	ND	ND	2.62	22.43	ND	ND	ND	ND	0	0
65953	2017-08-07T00:00:00	15.5	ND	ND	ND	4.63	15.44	ND	ND	ND	ND	0	0
65954	2017-08-07T01:00:00	52.9	ND	ND	ND	5.13	7.24	ND	ND	ND	ND	0	0
65955	2017-08-07T02:00:00	104.6	ND	ND	ND	6.75	10.69	ND	ND	ND	ND	0	0
65956	2017-08-07T03:00:00	125.5	ND	ND	ND	7.83	13.50	ND	ND	ND	ND	0	0
65957	2017-08-07T04:00:00	134.2	ND	ND	ND	7.54	11.48	ND	ND	ND	ND	0	0
65958	2017-08-07T05:00:00	97.4	ND	ND	ND	5.83	8.89	ND	ND	ND	ND	0	0
65959	2017-08-07T06:00:00	60.4	ND	ND	ND	5.59	5.99	ND	ND	ND	ND	0	0
65960	2017-08-07T07:00:00	62.4	ND	ND	ND	3.25	7.04	ND	ND	ND	ND	83.2	0
65961	2017-08-07T08:00:00	75	ND	ND	ND	5.85	12.62	ND	ND	ND	ND	493.7	0
65962	2017-08-07T09:00:00	77.8	ND	ND	ND	4.82	24.22	ND	ND	ND	ND	573.2	0
65963	2017-08-07T10:00:00	68.8	ND	ND	ND	4.54	39.17	ND	ND	ND	ND	647.8	0
65964	2017-08-07T11:00:00	50.2	ND	ND	ND	2.90	51.10	ND	ND	ND	ND	648.1	0
65965	2017-08-07T12:00:00	46.4	ND	ND	ND	4.04	66.94	ND	ND	ND	ND	648.1	0
65966	2017-08-07T13:00:00	54.6	ND	ND	ND	3.78	75.02	ND	ND	ND	ND	648.6	0
65967	2017-08-07T14:00:00	57	ND	ND	ND	2.73	94.27	ND	ND	ND	ND	649	0
65968	2017-08-07T15:00:00	48.5	ND	ND	ND	2.29	107.34	ND	ND	ND	ND	647.9	0
65969	2017-08-07T16:00:00	39.9	ND	ND	ND	2.73	60.03	ND	ND	ND	ND	649.4	0
65970	2017-08-07T17:00:00	33.7	ND	ND	ND	3.05	37.76	ND	ND	ND	ND	647	0
65971	2017-08-07T18:00:00	26.4	ND	ND	ND	4.54	31.18	ND	ND	ND	ND	177.5	0
65972	2017-08-07T19:00:00	15.9	ND	ND	ND	2.97	28.10	ND	ND	ND	ND	7.7	0
65973	2017-08-07T20:00:00	7.7	ND	ND	ND	3.14	31.28	ND	ND	ND	ND	0	0
65974	2017-08-07T21:00:00	14.5	ND	ND	ND	1.90	30.91	ND	ND	ND	ND	0	0
65975	2017-08-07T22:00:00	14.5	ND	ND	ND	2.62	27.00	ND	ND	ND	ND	0	0
65976	2017-08-07T23:00:00	17.9	ND	ND	ND	3.97	11.46	ND	ND	ND	ND	0	0
65977	2017-08-08T00:00:00	19	ND	ND	ND	3.67	18.86	ND	ND	ND	ND	0	0
65978	2017-08-08T01:00:00	19.7	ND	ND	ND	3.26	11.52	ND	ND	ND	ND	0	0
65979	2017-08-08T02:00:00	34.2	ND	ND	ND	4.73	8.40	ND	ND	ND	ND	0	0
65980	2017-08-08T03:00:00	34.3	ND	ND	ND	5.70	11.19	ND	ND	ND	ND	0	0
65981	2017-08-08T04:00:00	19.5	ND	ND	ND	4.50	13.05	ND	ND	ND	ND	0	0
65982	2017-08-08T05:00:00	26.1	ND	ND	ND	4.08	8.20	ND	ND	ND	ND	0	0
65983	2017-08-08T06:00:00	29.6	ND	ND	ND	4.84	6.95	ND	ND	ND	ND	0	0
65984	2017-08-08T07:00:00	52.7	ND	ND	ND	3.86	7.04	ND	ND	ND	ND	120	0
65985	2017-08-08T08:00:00	68.9	ND	ND	ND	5.58	9.62	ND	ND	ND	ND	508.9	0
65986	2017-08-08T09:00:00	89.4	ND	ND	ND	5.17	21.06	ND	ND	ND	ND	647	0
65987	2017-08-08T10:00:00	69.5	ND	ND	ND	4.89	38.33	ND	ND	ND	ND	647.3	0
65988	2017-08-08T11:00:00	73.1	ND	ND	ND	4.07	42.52	ND	ND	ND	ND	648.5	0
65989	2017-08-08T12:00:00	70.9	ND	ND	ND	3.02	57.24	ND	ND	ND	ND	648.4	0
65990	2017-08-08T13:00:00	50.8	ND	ND	ND	3.64	83.13	ND	ND	ND	ND	641.5	0
65991	2017-08-08T14:00:00	72.2	ND	ND	ND	3.82	84.28	ND	ND	ND	ND	630.7	0
65992	2017-08-08T15:00:00	65.2	ND	ND	ND	2.75	102.81	ND	ND	ND	ND	644.9	0
65993	2017-08-08T16:00:00	55	ND	ND	ND	3.57	75.30	ND	ND	ND	ND	561.8	0
65994	2017-08-08T17:00:00	50.3	ND	ND	ND	2.62	71.23	ND	ND	ND	ND	521.6	0
65995	2017-08-08T18:00:00	42.1	ND	ND	ND	2.19	40.92	ND	ND	ND	ND	156	0
65996	2017-08-08T19:00:00	34.8	ND	ND	ND	3.72	24.82	ND	ND	ND	ND	5.6	0
65997	2017-08-08T20:00:00	14.1	ND	ND	ND	2.87	25.18	ND	ND	ND	ND	0	0
65998	2017-08-08T21:00:00	9.6	ND	ND	ND	1.97	23.29	ND	ND	ND	ND	0	0
65999	2017-08-08T22:00:00	12.2	ND	ND	ND	4.59	22.49	ND	ND	ND	ND	0	0
66000	2017-08-08T23:00:00	25.8	ND	ND	ND	2.55	23.31	ND	ND	ND	ND	0	0
66001	2017-08-09T00:00:00	41.9	ND	ND	ND	5.10	11.93	ND	ND	ND	ND	0	0
66002	2017-08-09T01:00:00	42.6	ND	ND	ND	3.96	21.70	ND	ND	ND	ND	0	0
66003	2017-08-09T02:00:00	27.1	ND	ND	ND	3.26	27.24	ND	ND	ND	ND	0	0
66004	2017-08-09T03:00:00	38.5	ND	ND	ND	6.58	12.17	ND	ND	ND	ND	0	0
66005	2017-08-09T04:00:00	44.5	ND	ND	ND	4.18	14.60	ND	ND	ND	ND	0	0
66006	2017-08-09T05:00:00	8.5	ND	ND	ND	4.64	13.19	ND	ND	ND	ND	0	0
66007	2017-08-09T06:00:00	10	ND	ND	ND	3.33	10.87	ND	ND	ND	ND	0	0
66008	2017-08-09T07:00:00	34.7	ND	ND	ND	4.70	9.42	ND	ND	ND	ND	43.3	0
66009	2017-08-09T08:00:00	69.6	ND	ND	ND	5.17	10.11	ND	ND	ND	ND	217.9	0
66010	2017-08-09T09:00:00	109.7	ND	ND	ND	4.82	11.72	ND	ND	ND	ND	456.5	0
66011	2017-08-09T10:00:00	110.7	ND	ND	ND	5.41	23.53	ND	ND	ND	ND	645.5	0
66012	2017-08-09T11:00:00	94.7	ND	ND	ND	6.19	40.15	ND	ND	ND	ND	647.5	0
66013	2017-08-09T12:00:00	65.5	ND	ND	ND	3.35	38.05	ND	ND	ND	ND	648.1	0
66014	2017-08-09T13:00:00	48.2	ND	ND	ND	4.03	91.56	ND	ND	ND	ND	648.1	0
66015	2017-08-09T14:00:00	57.3	ND	ND	ND	2.97	92.09	ND	ND	ND	ND	649	0
66016	2017-08-09T15:00:00	56.3	ND	ND	ND	2.89	73.63	ND	ND	ND	ND	542.2	0
66017	2017-08-09T16:00:00	46.4	ND	ND	ND	3.60	53.08	ND	ND	ND	ND	329.7	0
66018	2017-08-09T17:00:00	39.8	ND	ND	ND	2.82	34.93	ND	ND	ND	ND	92.9	0
66019	2017-08-09T18:00:00	21.3	ND	ND	ND	2.82	19.64	ND	ND	ND	ND	146.9	0
66020	2017-08-09T19:00:00	28.8	ND	ND	ND	3.64	7.18	ND	ND	ND	ND	7.9	0
66021	2017-08-09T20:00:00	64.7	ND	ND	ND	6.54	8.93	ND	ND	ND	ND	0	0
66022	2017-08-09T21:00:00	60	ND	ND	ND	6.12	7.85	ND	ND	ND	ND	0	0
66023	2017-08-09T22:00:00	61.3	ND	ND	ND	4.53	6.55	ND	ND	ND	ND	0	0
66024	2017-08-09T23:00:00	57.8	ND	ND	ND	4.84	7.69	ND	ND	ND	ND	0	0
66025	2017-08-10T00:00:00	62.9	ND	ND	ND	6.44	9.85	ND	ND	ND	ND	0	0
66026	2017-08-10T01:00:00	51	ND	ND	ND	4.95	13.38	ND	ND	ND	ND	0	0
66027	2017-08-10T02:00:00	41.2	ND	ND	ND	2.40	6.57	ND	ND	ND	ND	0	0
66028	2017-08-10T03:00:00	36.6	ND	ND	ND	4.32	11.13	ND	ND	ND	ND	0	0
66029	2017-08-10T04:00:00	18.3	ND	ND	ND	5.49	8.42	ND	ND	ND	ND	0	0
66030	2017-08-10T05:00:00	50.4	ND	ND	ND	8.36	6.02	ND	ND	ND	ND	0	0
66031	2017-08-10T06:00:00	74.6	ND	ND	ND	9.21	6.10	ND	ND	ND	ND	0	0
66032	2017-08-10T07:00:00	94.6	ND	ND	ND	6.97	5.40	ND	ND	ND	ND	69.1	0
66033	2017-08-10T08:00:00	98.4	ND	ND	ND	5.74	5.81	ND	ND	ND	ND	288.1	0
66034	2017-08-10T09:00:00	104.6	ND	ND	ND	7.46	9.75	ND	ND	ND	ND	572.3	0
66035	2017-08-10T10:00:00	98	ND	ND	ND	5.26	26.92	ND	ND	ND	ND	645.2	0
66036	2017-08-10T11:00:00	86.8	ND	ND	ND	4.86	58.16	ND	ND	ND	ND	647.5	0
66037	2017-08-10T12:00:00	73.1	ND	ND	ND	2.12	76.30	ND	ND	ND	ND	648.3	0
66038	2017-08-10T13:00:00	65.5	ND	ND	ND	3.12	83.83	ND	ND	ND	ND	648.4	0
66039	2017-08-10T14:00:00	62.4	ND	ND	ND	2.54	106.34	ND	ND	ND	ND	648.8	0
66040	2017-08-10T15:00:00	61.2	ND	ND	ND	2.61	137.66	ND	ND	ND	ND	601.8	0
66041	2017-08-10T16:00:00	79.4	ND	ND	ND	2.61	87.17	ND	ND	ND	ND	569.1	0
66042	2017-08-10T17:00:00	50.4	ND	ND	ND	1.98	49.18	ND	ND	ND	ND	581.9	0
66043	2017-08-10T18:00:00	35	ND	ND	ND	2.59	33.05	ND	ND	ND	ND	147	0
66044	2017-08-10T19:00:00	26.8	ND	ND	ND	3.11	25.94	ND	ND	ND	ND	0	0
66045	2017-08-10T20:00:00	16	ND	ND	ND	1.55	22.51	ND	ND	ND	ND	0	0
66046	2017-08-10T21:00:00	9.4	ND	ND	ND	2.36	27.65	ND	ND	ND	ND	0	0
66047	2017-08-10T22:00:00	12.2	ND	ND	ND	1.13	24.57	ND	ND	ND	ND	0	0
66048	2017-08-10T23:00:00	4.3	ND	ND	ND	2.05	25.71	ND	ND	ND	ND	0	0
66049	2017-08-11T00:00:00	5.7	ND	ND	ND	2.94	20.25	ND	ND	ND	ND	0	0
66050	2017-08-11T01:00:00	22	ND	ND	ND	3.62	7.20	ND	ND	ND	ND	0	0
66051	2017-08-11T02:00:00	35.7	ND	ND	ND	5.27	10.30	ND	ND	ND	ND	0	0.51
66052	2017-08-11T03:00:00	38.7	ND	ND	ND	4.59	10.58	ND	ND	ND	ND	0	0.25
66053	2017-08-11T04:00:00	43.2	ND	ND	ND	6.58	11.26	ND	ND	ND	ND	0	0
66054	2017-08-11T05:00:00	36.1	ND	ND	ND	6.24	12.21	ND	ND	ND	ND	0	0.25
66055	2017-08-11T06:00:00	46.1	ND	ND	ND	5.19	12.78	ND	ND	ND	ND	0	0
66056	2017-08-11T07:00:00	44.2	ND	ND	ND	3.32	9.89	ND	ND	ND	ND	21.6	2.29
66057	2017-08-11T08:00:00	31.6	ND	ND	ND	4.63	9.67	ND	ND	ND	ND	110.3	6.1
66058	2017-08-11T09:00:00	38.8	ND	ND	ND	4.40	9.93	ND	ND	ND	ND	287.7	0.51
66059	2017-08-11T10:00:00	44.2	ND	ND	ND	3.39	10.32	ND	ND	ND	ND	371.9	0
66060	2017-08-11T11:00:00	35.9	ND	ND	ND	3.99	14.23	ND	ND	ND	ND	613.9	0
66061	2017-08-11T12:00:00	62.8	ND	ND	ND	2.26	78.87	ND	ND	ND	ND	522	0
66062	2017-08-11T13:00:00	105.3	ND	ND	ND	2.48	31.06	ND	ND	ND	ND	650.5	0
66063	2017-08-11T14:00:00	93.5	ND	ND	ND	3.21	68.04	ND	ND	ND	ND	649.8	0
66064	2017-08-11T15:00:00	57.9	ND	ND	ND	2.91	74.79	ND	ND	ND	ND	649.9	0
66065	2017-08-11T16:00:00	54.2	ND	ND	ND	3.05	59.89	ND	ND	ND	ND	346.5	0
66066	2017-08-11T17:00:00	56.9	ND	ND	ND	3.88	40.29	ND	ND	ND	ND	134.9	0
66067	2017-08-11T18:00:00	36.6	ND	ND	ND	3.29	17.07	ND	ND	ND	ND	167.2	0
66068	2017-08-11T19:00:00	32.4	ND	ND	ND	1.98	14.70	ND	ND	ND	ND	9.2	0
66069	2017-08-11T20:00:00	24.1	ND	ND	ND	2.55	17.31	ND	ND	ND	ND	0	0
66070	2017-08-11T21:00:00	17.2	ND	ND	ND	1.98	26.86	ND	ND	ND	ND	0	0
66071	2017-08-11T22:00:00	7.2	ND	ND	ND	4.14	20.80	ND	ND	ND	ND	0	0
66072	2017-08-11T23:00:00	10.9	ND	ND	ND	3.96	9.67	ND	ND	ND	ND	0	0
66073	2017-08-12T00:00:00	25	ND	ND	ND	3.29	6.67	ND	ND	ND	ND	0	0
66074	2017-08-12T01:00:00	32.8	ND	ND	ND	3.83	6.46	ND	ND	ND	ND	0	0
66075	2017-08-12T02:00:00	29.5	ND	ND	ND	4.17	9.05	ND	ND	ND	ND	0	0
66076	2017-08-12T03:00:00	23.5	ND	ND	ND	3.79	9.20	ND	ND	ND	ND	0	0
66077	2017-08-12T04:00:00	24.4	ND	ND	ND	4.25	6.67	ND	ND	ND	ND	0	0
66078	2017-08-12T05:00:00	10.2	ND	ND	ND	2.31	6.50	ND	ND	ND	ND	0	0
66079	2017-08-12T06:00:00	33.5	ND	ND	ND	5.90	6.69	ND	ND	ND	ND	0	0
66080	2017-08-12T07:00:00	100.5	ND	ND	ND	6.08	7.73	ND	ND	ND	ND	98.9	0
66081	2017-08-12T08:00:00	96.4	ND	ND	ND	3.46	8.73	ND	ND	ND	ND	359.7	0
66082	2017-08-12T09:00:00	63.9	ND	ND	ND	5.10	13.82	ND	ND	ND	ND	590.9	0
66083	2017-08-12T10:00:00	80.7	ND	ND	ND	6.22	26.92	ND	ND	ND	ND	650.6	0
66084	2017-08-12T11:00:00	101.8	ND	ND	ND	4.28	46.45	ND	ND	ND	ND	650.4	0
66085	2017-08-12T12:00:00	94	ND	ND	ND	3.64	58.69	ND	ND	ND	ND	650.8	0
66086	2017-08-12T13:00:00	82.6	ND	ND	ND	5.83	86.34	ND	ND	ND	ND	650.5	0
66087	2017-08-12T14:00:00	77	ND	ND	ND	2.73	117.27	ND	ND	ND	ND	650.7	0
66088	2017-08-12T15:00:00	81.1	ND	ND	ND	2.98	107.28	ND	ND	ND	ND	650.9	0
66089	2017-08-12T16:00:00	61.5	ND	ND	ND	4.46	85.38	ND	ND	ND	ND	485.3	0
66090	2017-08-12T17:00:00	75.2	ND	ND	ND	4.28	50.65	ND	ND	ND	ND	139.4	0
66091	2017-08-12T18:00:00	48.6	ND	ND	ND	2.04	28.57	ND	ND	ND	ND	63	0
66092	2017-08-12T19:00:00	12.1	ND	ND	ND	0.82	20.57	ND	ND	ND	ND	4.6	0
66093	2017-08-12T20:00:00	11	ND	ND	ND	2.30	13.23	ND	ND	ND	ND	0	0
66094	2017-08-12T21:00:00	22.5	ND	ND	ND	2.63	14.86	ND	ND	ND	ND	0	0
66095	2017-08-12T22:00:00	23	ND	ND	ND	2.19	11.26	ND	ND	ND	ND	0	0
66096	2017-08-12T23:00:00	18.2	ND	ND	ND	3.65	19.13	ND	ND	ND	ND	0	0
66097	2017-08-13T00:00:00	15.6	ND	ND	ND	2.69	9.40	ND	ND	ND	ND	0	0
66098	2017-08-13T01:00:00	29.1	ND	ND	ND	2.91	9.01	ND	ND	ND	ND	0	0
66099	2017-08-13T02:00:00	47.1	ND	ND	ND	4.22	7.93	ND	ND	ND	ND	0	0
66100	2017-08-13T03:00:00	39.1	ND	ND	ND	1.55	7.67	ND	ND	ND	ND	0	0
66101	2017-08-13T04:00:00	21.6	ND	ND	ND	2.90	9.64	ND	ND	ND	ND	0	0
66102	2017-08-13T05:00:00	11.5	ND	ND	ND	4.74	8.81	ND	ND	ND	ND	0	0
66103	2017-08-13T06:00:00	30.1	ND	ND	ND	4.96	6.12	ND	ND	ND	ND	0	0
66104	2017-08-13T07:00:00	30.2	ND	ND	ND	2.41	6.79	ND	ND	ND	ND	113.2	0
66105	2017-08-13T08:00:00	45.7	ND	ND	ND	4.34	10.34	ND	ND	ND	ND	328.9	0
66106	2017-08-13T09:00:00	51.6	ND	ND	ND	3.25	23.00	ND	ND	ND	ND	616.5	0
66107	2017-08-13T10:00:00	64.2	ND	ND	ND	2.02	41.56	ND	ND	ND	ND	643	0
66108	2017-08-13T11:00:00	66	ND	ND	ND	3.39	66.80	ND	ND	ND	ND	618.6	0
66109	2017-08-13T12:00:00	63.8	ND	ND	ND	3.29	92.74	ND	ND	ND	ND	644.2	0
66110	2017-08-13T13:00:00	53	ND	ND	ND	1.98	115.45	ND	ND	ND	ND	649.9	0
66111	2017-08-13T14:00:00	54.4	ND	ND	ND	3.33	124.83	ND	ND	ND	ND	636.7	0
66112	2017-08-13T15:00:00	51.7	ND	ND	ND	4.61	98.35	ND	ND	ND	ND	611.3	0
66113	2017-08-13T16:00:00	41.6	ND	ND	ND	0.39	48.63	ND	ND	ND	ND	566	0
66114	2017-08-13T17:00:00	21.3	ND	ND	ND	4.13	44.59	ND	ND	ND	ND	619.1	0
66115	2017-08-13T18:00:00	15.3	ND	ND	ND	3.96	41.52	ND	ND	ND	ND	232.2	0
66116	2017-08-13T19:00:00	11.7	ND	ND	ND	3.58	35.07	ND	ND	ND	ND	8.4	0
66117	2017-08-13T20:00:00	6.5	ND	ND	ND	3.86	31.69	ND	ND	ND	ND	0	0
66118	2017-08-13T21:00:00	10.5	ND	ND	ND	3.29	25.82	ND	ND	ND	ND	0	0
66119	2017-08-13T22:00:00	6.9	ND	ND	ND	3.71	25.37	ND	ND	ND	ND	0	0
66120	2017-08-13T23:00:00	10.1	ND	ND	ND	2.31	19.02	ND	ND	ND	ND	0	0
66121	2017-08-14T00:00:00	23.5	ND	ND	ND	3.35	6.69	ND	ND	ND	ND	0	0
66122	2017-08-14T01:00:00	18.5	ND	ND	ND	3.62	6.93	ND	ND	ND	ND	0	0
66123	2017-08-14T02:00:00	32.1	ND	ND	ND	4.07	8.30	ND	ND	ND	ND	0	0
66124	2017-08-14T03:00:00	30.3	ND	ND	ND	5.14	11.70	ND	ND	ND	ND	0	0
66125	2017-08-14T04:00:00	28.6	ND	ND	ND	3.67	9.16	ND	ND	ND	ND	0	0
66126	2017-08-14T05:00:00	25.9	ND	ND	ND	4.99	12.07	ND	ND	ND	ND	0	0
66127	2017-08-14T06:00:00	27.7	ND	ND	ND	3.89	10.42	ND	ND	ND	ND	0	0
66128	2017-08-14T07:00:00	39.3	ND	ND	ND	5.26	7.12	ND	ND	ND	ND	123.2	0
66129	2017-08-14T08:00:00	82	ND	ND	ND	3.53	8.01	ND	ND	ND	ND	491.6	0
66130	2017-08-14T09:00:00	108.1	ND	ND	ND	4.10	19.15	ND	ND	ND	ND	649.8	0
66131	2017-08-14T10:00:00	81	ND	ND	ND	3.33	31.24	ND	ND	ND	ND	650.2	0
66132	2017-08-14T11:00:00	56.6	ND	ND	ND	2.93	47.47	ND	ND	ND	ND	650.5	0
66133	2017-08-14T12:00:00	55.7	ND	ND	ND	2.90	64.58	ND	ND	ND	ND	641.2	0
66134	2017-08-14T13:00:00	54.9	ND	ND	ND	3.65	99.35	ND	ND	ND	ND	611.6	0
66135	2017-08-14T14:00:00	60.9	ND	ND	ND	2.50	128.01	ND	ND	ND	ND	633.5	0
66136	2017-08-14T15:00:00	65.9	ND	ND	ND	3.86	68.70	ND	ND	ND	ND	614.1	0
66137	2017-08-14T16:00:00	44.6	ND	ND	ND	1.55	34.22	ND	ND	ND	ND	649.3	0
66138	2017-08-14T17:00:00	36.5	ND	ND	ND	5.31	29.46	ND	ND	ND	ND	644.4	0
66139	2017-08-14T18:00:00	24.9	ND	ND	ND	4.24	22.45	ND	ND	ND	ND	303.9	0
66140	2017-08-14T19:00:00	18	ND	ND	ND	2.44	17.54	ND	ND	ND	ND	9	0
66141	2017-08-14T20:00:00	12.8	ND	ND	ND	4.15	20.62	ND	ND	ND	ND	0	0
66142	2017-08-14T21:00:00	13.9	ND	ND	ND	2.02	15.05	ND	ND	ND	ND	0	0
66143	2017-08-14T22:00:00	19.6	ND	ND	ND	1.78	20.04	ND	ND	ND	ND	0	0
66144	2017-08-14T23:00:00	5.2	ND	ND	ND	2.50	20.84	ND	ND	ND	ND	0	0
66145	2017-08-15T00:00:00	18.4	ND	ND	ND	4.85	7.63	ND	ND	ND	ND	0	0
66146	2017-08-15T01:00:00	31.3	ND	ND	ND	1.94	7.40	ND	ND	ND	ND	0	0
66147	2017-08-15T02:00:00	37.9	ND	ND	ND	4.61	9.09	ND	ND	ND	ND	0	0
66148	2017-08-15T03:00:00	37.9	ND	ND	ND	4.45	9.95	ND	ND	ND	ND	0	0
66149	2017-08-15T04:00:00	43.1	ND	ND	ND	5.24	9.58	ND	ND	ND	ND	0	0
66150	2017-08-15T05:00:00	31	ND	ND	ND	2.50	12.78	ND	ND	ND	ND	0	0
66151	2017-08-15T06:00:00	19.3	ND	ND	ND	4.14	7.75	ND	ND	ND	ND	0	0
66152	2017-08-15T07:00:00	65.3	ND	ND	ND	3.35	6.93	ND	ND	ND	ND	91.6	0
66153	2017-08-15T08:00:00	76.8	ND	ND	ND	3.69	8.95	ND	ND	ND	ND	486.8	0
66154	2017-08-15T09:00:00	118.2	ND	ND	ND	3.76	20.41	ND	ND	ND	ND	649.8	0
66155	2017-08-15T10:00:00	115.6	ND	ND	ND	4.10	42.74	ND	ND	ND	ND	650	0
66156	2017-08-15T11:00:00	88.4	ND	ND	ND	4.01	66.33	ND	ND	ND	ND	650	0
66157	2017-08-15T12:00:00	75.1	ND	ND	ND	2.91	88.01	ND	ND	ND	ND	650.4	0
66158	2017-08-15T13:00:00	76.8	ND	ND	ND	4.70	93.82	ND	ND	ND	ND	651.3	0
66159	2017-08-15T14:00:00	84	ND	ND	ND	3.43	112.46	ND	ND	ND	ND	651.3	0
66160	2017-08-15T15:00:00	80.8	ND	ND	ND	4.36	82.91	ND	ND	ND	ND	506.7	0
66161	2017-08-15T16:00:00	66.9	ND	ND	ND	4.54	40.03	ND	ND	ND	ND	601.1	0
66162	2017-08-15T17:00:00	31	ND	ND	ND	2.13	29.49	ND	ND	ND	ND	608.5	0
66163	2017-08-15T18:00:00	27.8	ND	ND	ND	1.63	24.16	ND	ND	ND	ND	218.5	0
66164	2017-08-15T19:00:00	37.2	ND	ND	ND	1.46	20.96	ND	ND	ND	ND	0	0
66165	2017-08-15T20:00:00	19.7	ND	ND	ND	1.63	21.66	ND	ND	ND	ND	0	0
66166	2017-08-15T21:00:00	24.1	ND	ND	ND	3.61	11.68	ND	ND	ND	ND	0	0
66167	2017-08-15T22:00:00	41.2	ND	ND	ND	2.29	24.33	ND	ND	ND	ND	0	0
66168	2017-08-15T23:00:00	10	ND	ND	ND	2.54	25.71	ND	ND	ND	ND	0	0
66169	2017-08-16T00:00:00	17.3	ND	ND	ND	3.37	10.01	ND	ND	ND	ND	0	0
66170	2017-08-16T01:00:00	37	ND	ND	ND	3.00	8.38	ND	ND	ND	ND	0	0
66171	2017-08-16T02:00:00	55.8	ND	ND	ND	1.13	7.83	ND	ND	ND	ND	0	0
66172	2017-08-16T03:00:00	53	ND	ND	ND	5.41	7.93	ND	ND	ND	ND	0	0
66173	2017-08-16T04:00:00	39.6	ND	ND	ND	3.76	8.30	ND	ND	ND	ND	0	0
66174	2017-08-16T05:00:00	46.4	ND	ND	ND	6.75	8.77	ND	ND	ND	ND	0	0
66175	2017-08-16T06:00:00	68.7	ND	ND	ND	2.16	8.58	ND	ND	ND	ND	0	0
66176	2017-08-16T07:00:00	78.4	ND	ND	ND	5.00	10.66	ND	ND	ND	ND	67.8	0
66177	2017-08-16T08:00:00	52.3	ND	ND	ND	1.87	10.62	ND	ND	ND	ND	292.7	0
66178	2017-08-16T09:00:00	103.1	ND	ND	ND	4.52	11.48	ND	ND	ND	ND	470	0
66179	2017-08-16T10:00:00	94	ND	ND	ND	4.50	32.56	ND	ND	ND	ND	649.8	0
66180	2017-08-16T11:00:00	73.2	ND	ND	ND	4.59	42.52	ND	ND	ND	ND	650.9	0
66181	2017-08-16T12:00:00	56.2	ND	ND	ND	2.73	52.98	ND	ND	ND	ND	650.6	0
66182	2017-08-16T13:00:00	56.7	ND	ND	ND	2.83	65.46	ND	ND	ND	ND	650.9	0
66183	2017-08-16T14:00:00	33.6	ND	ND	ND	2.44	73.94	ND	ND	ND	ND	649.4	0
66184	2017-08-16T15:00:00	39.9	ND	ND	ND	1.49	65.27	ND	ND	ND	ND	622.4	0
66185	2017-08-16T16:00:00	32.5	ND	ND	ND	3.58	54.87	ND	ND	ND	ND	648.9	0
66186	2017-08-16T17:00:00	27.5	ND	ND	ND	3.40	48.61	ND	ND	ND	ND	645.5	0
66187	2017-08-16T18:00:00	28.1	ND	ND	ND	0.61	44.31	ND	ND	ND	ND	270	0
66188	2017-08-16T19:00:00	35.2	ND	ND	ND	3.01	41.94	ND	ND	ND	ND	7	0
66189	2017-08-16T20:00:00	28	ND	ND	ND	3.05	50.12	ND	ND	ND	ND	0	0
66190	2017-08-16T21:00:00	31.1	ND	ND	ND	3.85	54.99	ND	ND	ND	ND	0	0
66191	2017-08-16T22:00:00	15.8	ND	ND	ND	3.54	37.93	ND	ND	ND	ND	0	0
66192	2017-08-16T23:00:00	27.8	ND	ND	ND	2.77	33.28	ND	ND	ND	ND	0	0
66193	2017-08-17T00:00:00	35	ND	ND	ND	3.35	19.35	ND	ND	ND	ND	0	0
66194	2017-08-17T01:00:00	38.7	ND	ND	ND	3.64	18.64	ND	ND	ND	ND	0	0
66195	2017-08-17T02:00:00	36.1	ND	ND	ND	4.00	26.39	ND	ND	ND	ND	0	0
66196	2017-08-17T03:00:00	30.2	ND	ND	ND	4.50	25.18	ND	ND	ND	ND	0	0
66197	2017-08-17T04:00:00	29.6	ND	ND	ND	2.59	22.88	ND	ND	ND	ND	0	0
66198	2017-08-17T05:00:00	33.8	ND	ND	ND	3.08	23.37	ND	ND	ND	ND	0	0
66199	2017-08-17T06:00:00	30.2	ND	ND	ND	3.88	12.74	ND	ND	ND	ND	0	0
66200	2017-08-17T07:00:00	51.3	ND	ND	ND	3.71	7.89	ND	ND	ND	ND	138.4	0
66201	2017-08-17T08:00:00	79	ND	ND	ND	3.85	17.39	ND	ND	ND	ND	576.4	0
66202	2017-08-17T09:00:00	79.7	ND	ND	ND	3.28	33.93	ND	ND	ND	ND	650.1	0
66203	2017-08-17T10:00:00	67.9	ND	ND	ND	2.73	55.06	ND	ND	ND	ND	637.6	0
66204	2017-08-17T11:00:00	67	ND	ND	ND	4.07	76.59	ND	ND	ND	ND	640.3	0
66205	2017-08-17T12:00:00	62.9	ND	ND	ND	2.27	120.92	ND	ND	ND	ND	646.9	0
66206	2017-08-17T13:00:00	80	ND	ND	ND	3.26	135.87	ND	ND	ND	ND	651	0
66207	2017-08-17T14:00:00	82.3	ND	ND	ND	2.98	123.79	ND	ND	ND	ND	651.4	0
66208	2017-08-17T15:00:00	59.4	ND	ND	ND	3.46	118.08	ND	ND	ND	ND	651.4	0
66209	2017-08-17T16:00:00	70.1	ND	ND	ND	4.10	73.73	ND	ND	ND	ND	651.3	0
66210	2017-08-17T17:00:00	49.3	ND	ND	ND	3.25	49.41	ND	ND	ND	ND	495.4	0
66211	2017-08-17T18:00:00	48	ND	ND	ND	2.20	37.54	ND	ND	ND	ND	180.2	0
66212	2017-08-17T19:00:00	21.8	ND	ND	ND	2.66	37.70	ND	ND	ND	ND	5.3	0
66213	2017-08-17T20:00:00	29.5	ND	ND	ND	4.22	40.21	ND	ND	ND	ND	0	0
66214	2017-08-17T21:00:00	17.9	ND	ND	ND	2.41	41.23	ND	ND	ND	ND	0	0
66215	2017-08-17T22:00:00	23.1	ND	ND	ND	3.65	38.44	ND	ND	ND	ND	0	0
66216	2017-08-17T23:00:00	18.1	ND	ND	ND	2.24	22.86	ND	ND	ND	ND	0	0
66217	2017-08-18T00:00:00	29.1	ND	ND	ND	2.50	26.96	ND	ND	ND	ND	0	0
66218	2017-08-18T01:00:00	8.7	ND	ND	ND	2.58	32.97	ND	ND	ND	ND	0	0
66219	2017-08-18T02:00:00	24.6	ND	ND	ND	3.43	14.99	ND	ND	ND	ND	0	0
66220	2017-08-18T03:00:00	28.3	ND	ND	ND	3.30	13.54	ND	ND	ND	ND	0	0
66221	2017-08-18T04:00:00	37.3	ND	ND	ND	4.85	11.32	ND	ND	ND	ND	0	0
66222	2017-08-18T05:00:00	40.3	ND	ND	ND	4.08	10.11	ND	ND	ND	ND	0	0
66223	2017-08-18T06:00:00	41.3	ND	ND	ND	5.66	22.84	ND	ND	ND	ND	0	2.29
66224	2017-08-18T07:00:00	14.4	ND	ND	ND	3.21	20.04	ND	ND	ND	ND	87.6	4.57
66225	2017-08-18T08:00:00	13.9	ND	ND	ND	0.72	13.80	ND	ND	ND	ND	587.5	0
66226	2017-08-18T09:00:00	34.5	ND	ND	ND	4.49	23.63	ND	ND	ND	ND	638.8	0
66227	2017-08-18T10:00:00	36.2	ND	ND	ND	2.06	34.20	ND	ND	ND	ND	648.6	0
66228	2017-08-18T11:00:00	31.3	ND	ND	ND	2.86	48.94	ND	ND	ND	ND	649.8	0
66229	2017-08-18T12:00:00	30.4	ND	ND	ND	3.92	75.37	ND	ND	ND	ND	650.3	0
66230	2017-08-18T13:00:00	44.9	ND	ND	ND	3.51	87.82	ND	ND	ND	ND	651.1	0
66231	2017-08-18T14:00:00	46.7	ND	ND	ND	2.97	100.41	ND	ND	ND	ND	650.9	0
66232	2017-08-18T15:00:00	46.2	ND	ND	ND	1.85	71.76	ND	ND	ND	ND	640.7	0
66233	2017-08-18T16:00:00	43.6	ND	ND	ND	5.13	48.10	ND	ND	ND	ND	651.1	0
66234	2017-08-18T17:00:00	26	ND	ND	ND	5.19	44.04	ND	ND	ND	ND	632.2	0
66235	2017-08-18T18:00:00	14.8	ND	ND	ND	2.68	39.44	ND	ND	ND	ND	236.5	0
66236	2017-08-18T19:00:00	16.3	ND	ND	ND	1.74	28.73	ND	ND	ND	ND	6.9	0
66237	2017-08-18T20:00:00	19.6	ND	ND	ND	3.47	29.69	ND	ND	ND	ND	0	0
66238	2017-08-18T21:00:00	27.9	ND	ND	ND	3.37	24.12	ND	ND	ND	ND	0	0
66239	2017-08-18T22:00:00	22	ND	ND	ND	2.87	13.68	ND	ND	ND	ND	0	0
66240	2017-08-18T23:00:00	27.3	ND	ND	ND	3.35	20.19	ND	ND	ND	ND	0	0
66241	2017-08-19T00:00:00	17.3	ND	ND	ND	3.71	31.55	ND	ND	ND	ND	0	0
66242	2017-08-19T01:00:00	11.8	ND	ND	ND	3.19	25.65	ND	ND	ND	ND	0	0
66243	2017-08-19T02:00:00	14.4	ND	ND	ND	3.22	8.08	ND	ND	ND	ND	0	0
66244	2017-08-19T03:00:00	37	ND	ND	ND	4.40	10.22	ND	ND	ND	ND	0	0
66245	2017-08-19T04:00:00	28.1	ND	ND	ND	3.07	17.50	ND	ND	ND	ND	0	6.1
66246	2017-08-19T05:00:00	27.1	ND	ND	ND	3.90	15.33	ND	ND	ND	ND	0	3.81
66247	2017-08-19T06:00:00	7.7	ND	ND	ND	3.44	11.19	ND	ND	ND	ND	0	0.25
66248	2017-08-19T07:00:00	21.8	ND	ND	ND	3.47	10.85	ND	ND	ND	ND	25.3	0
66249	2017-08-19T08:00:00	31.5	ND	ND	ND	4.68	14.87	ND	ND	ND	ND	180.5	0
66250	2017-08-19T09:00:00	33.9	ND	ND	ND	3.81	18.41	ND	ND	ND	ND	447.4	0
66251	2017-08-19T10:00:00	35.2	ND	ND	ND	3.19	28.55	ND	ND	ND	ND	649.3	0
66252	2017-08-19T11:00:00	71.6	ND	ND	ND	3.11	34.93	ND	ND	ND	ND	649.6	0
66253	2017-08-19T12:00:00	51.3	ND	ND	ND	1.80	38.70	ND	ND	ND	ND	650.2	0
66254	2017-08-19T13:00:00	37.7	ND	ND	ND	3.39	67.13	ND	ND	ND	ND	650.5	0
66255	2017-08-19T14:00:00	40.5	ND	ND	ND	2.70	101.65	ND	ND	ND	ND	650.4	0
66256	2017-08-19T15:00:00	43.5	ND	ND	ND	2.70	118.04	ND	ND	ND	ND	649.6	0
66257	2017-08-19T16:00:00	54.6	ND	ND	ND	2.29	92.53	ND	ND	ND	ND	599.5	0
66258	2017-08-19T17:00:00	52.9	ND	ND	ND	2.96	63.42	ND	ND	ND	ND	350.9	0
66259	2017-08-19T18:00:00	56.4	ND	ND	ND	1.24	42.52	ND	ND	ND	ND	140.8	0
66260	2017-08-19T19:00:00	56.8	ND	ND	ND	2.33	32.89	ND	ND	ND	ND	6.8	0
66261	2017-08-19T20:00:00	36	ND	ND	ND	4.01	21.68	ND	ND	ND	ND	0	0
66262	2017-08-19T21:00:00	39.7	ND	ND	ND	2.44	11.15	ND	ND	ND	ND	0	0
66263	2017-08-19T22:00:00	42.9	ND	ND	ND	3.90	8.12	ND	ND	ND	ND	0	0
66264	2017-08-19T23:00:00	53.1	ND	ND	ND	4.38	7.16	ND	ND	ND	ND	0	0
66265	2017-08-20T00:00:00	66.7	ND	ND	ND	5.16	6.26	ND	ND	ND	ND	0	0
66266	2017-08-20T01:00:00	62.4	ND	ND	ND	4.38	6.26	ND	ND	ND	ND	0	0
66267	2017-08-20T02:00:00	51.2	ND	ND	ND	5.35	7.22	ND	ND	ND	ND	0	0
66268	2017-08-20T03:00:00	44.7	ND	ND	ND	5.88	7.12	ND	ND	ND	ND	0	0
66269	2017-08-20T04:00:00	37.5	ND	ND	ND	5.21	6.48	ND	ND	ND	ND	0	0
66270	2017-08-20T05:00:00	26.5	ND	ND	ND	5.67	6.22	ND	ND	ND	ND	0	1.02
66271	2017-08-20T06:00:00	15.6	ND	ND	ND	5.62	6.77	ND	ND	ND	ND	0	0.25
66272	2017-08-20T07:00:00	26.9	ND	ND	ND	4.71	6.81	ND	ND	ND	ND	25.9	0
66273	2017-08-20T08:00:00	30.2	ND	ND	ND	5.70	8.69	ND	ND	ND	ND	298.3	0
66274	2017-08-20T09:00:00	30.1	ND	ND	ND	3.26	15.70	ND	ND	ND	ND	535.4	0
66275	2017-08-20T10:00:00	57.7	ND	ND	ND	3.75	38.46	ND	ND	ND	ND	650.2	0
66276	2017-08-20T11:00:00	66.9	ND	ND	ND	3.72	61.99	ND	ND	ND	ND	650.4	0
66277	2017-08-20T12:00:00	39.9	ND	ND	ND	3.46	78.65	ND	ND	ND	ND	649.9	0
66278	2017-08-20T13:00:00	34.5	ND	ND	ND	2.80	96.20	ND	ND	ND	ND	650.4	0
66279	2017-08-20T14:00:00	34.4	ND	ND	ND	4.61	90.90	ND	ND	ND	ND	598	0
66280	2017-08-20T15:00:00	33.1	ND	ND	ND	2.98	65.43	ND	ND	ND	ND	579.3	0
66281	2017-08-20T16:00:00	25	ND	ND	ND	0.66	64.76	ND	ND	ND	ND	637.2	0
66282	2017-08-20T17:00:00	13.8	ND	ND	ND	0.17	44.21	ND	ND	ND	ND	430.2	0
66283	2017-08-20T18:00:00	8.6	ND	ND	ND	3.30	35.99	ND	ND	ND	ND	170	0
66284	2017-08-20T19:00:00	7.4	ND	ND	ND	4.07	39.82	ND	ND	ND	ND	4.7	0
66285	2017-08-20T20:00:00	14.5	ND	ND	ND	3.68	33.77	ND	ND	ND	ND	0	0.51
66286	2017-08-20T21:00:00	3.1	ND	ND	ND	1.13	14.42	ND	ND	ND	ND	0	2.29
66287	2017-08-20T22:00:00	10.8	ND	ND	ND	4.03	6.85	ND	ND	ND	ND	0	0.25
66288	2017-08-20T23:00:00	29.8	ND	ND	ND	2.56	6.89	ND	ND	ND	ND	0	0
66289	2017-08-21T00:00:00	27.6	ND	ND	ND	2.87	6.77	ND	ND	ND	ND	0	0
66290	2017-08-21T01:00:00	21.5	ND	ND	ND	4.29	7.40	ND	ND	ND	ND	0	0
66291	2017-08-21T02:00:00	25.2	ND	ND	ND	3.29	7.32	ND	ND	ND	ND	0	0
66292	2017-08-21T03:00:00	19.8	ND	ND	ND	2.36	6.02	ND	ND	ND	ND	0	0
66293	2017-08-21T04:00:00	21.6	ND	ND	ND	3.58	7.24	ND	ND	ND	ND	0	0
66294	2017-08-21T05:00:00	23.6	ND	ND	ND	4.54	9.54	ND	ND	ND	ND	0	0
66295	2017-08-21T06:00:00	15.7	ND	ND	ND	3.25	6.89	ND	ND	ND	ND	0	0
66296	2017-08-21T07:00:00	30.5	ND	ND	ND	3.69	6.12	ND	ND	ND	ND	43.9	0
66297	2017-08-21T08:00:00	60	ND	ND	ND	4.80	6.95	ND	ND	ND	ND	272	0
66298	2017-08-21T09:00:00	83.8	ND	ND	ND	3.82	10.85	ND	ND	ND	ND	591.5	0
66299	2017-08-21T10:00:00	73.9	ND	ND	ND	6.63	19.96	ND	ND	ND	ND	649.8	0
66300	2017-08-21T11:00:00	77.5	ND	ND	ND	4.75	41.70	ND	ND	ND	ND	650.4	0
66301	2017-08-21T12:00:00	67.8	ND	ND	ND	5.20	69.02	ND	ND	ND	ND	650.6	0
66302	2017-08-21T13:00:00	49.3	ND	ND	ND	3.19	104.06	ND	ND	ND	ND	651.2	0
66303	2017-08-21T14:00:00	43.5	ND	ND	ND	2.56	128.40	ND	ND	ND	ND	651.1	0
66304	2017-08-21T15:00:00	47.9	ND	ND	ND	2.73	107.85	ND	ND	ND	ND	651.1	0
66305	2017-08-21T16:00:00	41.9	ND	ND	ND	2.79	85.17	ND	ND	ND	ND	637.7	0
66306	2017-08-21T17:00:00	27.3	ND	ND	ND	1.28	76.67	ND	ND	ND	ND	562.8	0
66307	2017-08-21T18:00:00	25.2	ND	ND	ND	1.78	45.64	ND	ND	ND	ND	294.8	0
66308	2017-08-21T19:00:00	22.6	ND	ND	ND	1.92	34.07	ND	ND	ND	ND	5.5	0
66309	2017-08-21T20:00:00	6	ND	ND	ND	3.14	28.16	ND	ND	ND	ND	0	0
66310	2017-08-21T21:00:00	18.9	ND	ND	ND	2.94	21.66	ND	ND	ND	ND	0	0
66311	2017-08-21T22:00:00	35	ND	ND	ND	2.52	7.04	ND	ND	ND	ND	0	0
66312	2017-08-21T23:00:00	50.8	ND	ND	ND	4.32	6.52	ND	ND	ND	ND	0	0
66313	2017-08-22T00:00:00	51.7	ND	ND	ND	2.94	13.54	ND	ND	ND	ND	0	0
66314	2017-08-22T01:00:00	24.7	ND	ND	ND	5.35	10.46	ND	ND	ND	ND	0	0
66315	2017-08-22T02:00:00	22.1	ND	ND	ND	4.50	9.73	ND	ND	ND	ND	0	0
66316	2017-08-22T03:00:00	35.9	ND	ND	ND	2.97	12.72	ND	ND	ND	ND	0	0
66317	2017-08-22T04:00:00	31.6	ND	ND	ND	3.78	9.73	ND	ND	ND	ND	0	0
66318	2017-08-22T05:00:00	27.4	ND	ND	ND	3.89	8.44	ND	ND	ND	ND	0	0
66319	2017-08-22T06:00:00	46	ND	ND	ND	3.35	8.40	ND	ND	ND	ND	0	0
66320	2017-08-22T07:00:00	44.5	ND	ND	ND	2.31	6.97	ND	ND	ND	ND	109.4	0
66321	2017-08-22T08:00:00	40.6	ND	ND	ND	2.72	10.77	ND	ND	ND	ND	605.1	0
66322	2017-08-22T09:00:00	82.3	ND	ND	ND	4.03	23.04	ND	ND	ND	ND	636.2	0
66323	2017-08-22T10:00:00	110.5	ND	ND	ND	4.36	46.51	ND	ND	ND	ND	640.8	0
66324	2017-08-22T11:00:00	76.7	ND	ND	ND	2.31	73.27	ND	ND	ND	ND	646.3	0
66325	2017-08-22T12:00:00	68.8	ND	ND	ND	2.87	112.78	ND	ND	ND	ND	651	0
66326	2017-08-22T13:00:00	81	ND	ND	ND	2.56	97.26	ND	ND	ND	ND	650.9	0
66327	2017-08-22T14:00:00	53	ND	ND	ND	3.78	127.81	ND	ND	ND	ND	650.7	0
66328	2017-08-22T15:00:00	64.8	ND	ND	ND	4.66	111.64	ND	ND	ND	ND	650.2	0
66329	2017-08-22T16:00:00	71.8	ND	ND	ND	4.84	78.91	ND	ND	ND	ND	650.8	0
66330	2017-08-22T17:00:00	51.3	ND	ND	ND	3.90	56.40	ND	ND	ND	ND	650.5	0
66331	2017-08-22T18:00:00	41.8	ND	ND	ND	3.64	32.87	ND	ND	ND	ND	213	0
66332	2017-08-22T19:00:00	35.4	ND	ND	ND	1.94	17.76	ND	ND	ND	ND	8.9	0
66333	2017-08-22T20:00:00	24.7	ND	ND	ND	2.93	24.14	ND	ND	ND	ND	0	0
66334	2017-08-22T21:00:00	19.3	ND	ND	ND	2.62	20.25	ND	ND	ND	ND	0	0
66335	2017-08-22T22:00:00	37.3	ND	ND	ND	2.59	6.79	ND	ND	ND	ND	0	0
66336	2017-08-22T23:00:00	56.3	ND	ND	ND	2.27	6.55	ND	ND	ND	ND	0	0
66337	2017-08-23T00:00:00	48.7	ND	ND	ND	4.96	6.50	ND	ND	ND	ND	0	0
66338	2017-08-23T01:00:00	31.2	ND	ND	ND	2.45	27.22	ND	ND	ND	ND	0	0
66339	2017-08-23T02:00:00	22	ND	ND	ND	2.86	16.82	ND	ND	ND	ND	0	0
66340	2017-08-23T03:00:00	41	ND	ND	ND	4.63	15.54	ND	ND	ND	ND	0	0
66341	2017-08-23T04:00:00	47.8	ND	ND	ND	2.84	9.14	ND	ND	ND	ND	0	0
66342	2017-08-23T05:00:00	45.2	ND	ND	ND	5.44	10.89	ND	ND	ND	ND	0	0
66343	2017-08-23T06:00:00	40.6	ND	ND	ND	6.23	8.85	ND	ND	ND	ND	0	0
66344	2017-08-23T07:00:00	73.7	ND	ND	ND	2.84	6.85	ND	ND	ND	ND	99.6	0
66345	2017-08-23T08:00:00	98.7	ND	ND	ND	4.70	8.36	ND	ND	ND	ND	380.4	0
66346	2017-08-23T09:00:00	110.3	ND	ND	ND	2.76	12.78	ND	ND	ND	ND	634.9	0
66347	2017-08-23T10:00:00	113.6	ND	ND	ND	3.15	26.92	ND	ND	ND	ND	649.3	0
66348	2017-08-23T11:00:00	80.3	ND	ND	ND	2.10	65.86	ND	ND	ND	ND	649	0
66349	2017-08-23T12:00:00	71.5	ND	ND	ND	3.00	79.42	ND	ND	ND	ND	649.7	0
66350	2017-08-23T13:00:00	70.7	ND	ND	ND	2.17	105.91	ND	ND	ND	ND	650.1	0
66351	2017-08-23T14:00:00	53.2	ND	ND	ND	2.82	119.63	ND	ND	ND	ND	650.6	0
66352	2017-08-23T15:00:00	72.5	ND	ND	ND	1.74	93.43	ND	ND	ND	ND	651.1	0
66353	2017-08-23T16:00:00	90.4	ND	ND	ND	2.23	36.72	ND	ND	ND	ND	612.7	0
66354	2017-08-23T17:00:00	33.6	ND	ND	ND	2.06	27.43	ND	ND	ND	ND	495.2	0
66355	2017-08-23T18:00:00	19.3	ND	ND	ND	1.92	21.98	ND	ND	ND	ND	149.3	0
66356	2017-08-23T19:00:00	22.4	ND	ND	ND	3.93	23.73	ND	ND	ND	ND	0	0
66357	2017-08-23T20:00:00	19.8	ND	ND	ND	2.82	27.65	ND	ND	ND	ND	0	0
66358	2017-08-23T21:00:00	14.5	ND	ND	ND	3.43	29.95	ND	ND	ND	ND	0	0
66359	2017-08-23T22:00:00	9.6	ND	ND	ND	2.33	27.85	ND	ND	ND	ND	0	0
66360	2017-08-23T23:00:00	15.6	ND	ND	ND	3.94	11.62	ND	ND	ND	ND	0	0
66361	2017-08-24T00:00:00	26.1	ND	ND	ND	2.69	13.95	ND	ND	ND	ND	0	0
66362	2017-08-24T01:00:00	27.1	ND	ND	ND	4.06	13.03	ND	ND	ND	ND	0	0
66363	2017-08-24T02:00:00	24.8	ND	ND	ND	3.86	13.42	ND	ND	ND	ND	0	0
66364	2017-08-24T03:00:00	22.6	ND	ND	ND	5.32	12.62	ND	ND	ND	ND	0	0
66365	2017-08-24T04:00:00	27.7	ND	ND	ND	3.89	10.30	ND	ND	ND	ND	0	0
66366	2017-08-24T05:00:00	26.5	ND	ND	ND	3.01	9.34	ND	ND	ND	ND	0	0
66367	2017-08-24T06:00:00	39.9	ND	ND	ND	4.31	6.24	ND	ND	ND	ND	0	0
66368	2017-08-24T07:00:00	56.7	ND	ND	ND	3.58	6.75	ND	ND	ND	ND	63.4	0
66369	2017-08-24T08:00:00	80.6	ND	ND	ND	2.79	8.18	ND	ND	ND	ND	292.6	0
66370	2017-08-24T09:00:00	87.1	ND	ND	ND	2.69	18.05	ND	ND	ND	ND	623.7	0
66371	2017-08-24T10:00:00	97.2	ND	ND	ND	0.88	26.22	ND	ND	ND	ND	649.4	0
66372	2017-08-24T11:00:00	73.1	ND	ND	ND	1.37	49.59	ND	ND	ND	ND	649.4	0
66373	2017-08-24T12:00:00	59.8	ND	ND	ND	2.51	72.82	ND	ND	ND	ND	650.1	0
66374	2017-08-24T13:00:00	73.9	ND	ND	ND	1.56	112.64	ND	ND	ND	ND	650.5	0
66375	2017-08-24T14:00:00	70.8	ND	ND	ND	3.53	151.02	ND	ND	ND	ND	564	0
66376	2017-08-24T15:00:00	77.8	ND	ND	ND	1.05	79.04	ND	ND	ND	ND	480	0
66377	2017-08-24T16:00:00	45.9	ND	ND	ND	1.27	45.78	ND	ND	ND	ND	520.8	0
66378	2017-08-24T17:00:00	31.9	ND	ND	ND	2.51	52.28	ND	ND	ND	ND	541.8	0
66379	2017-08-24T18:00:00	28	ND	ND	ND	2.50	39.46	ND	ND	ND	ND	186.6	0
66380	2017-08-24T19:00:00	33.5	ND	ND	ND	3.48	30.14	ND	ND	ND	ND	0	0
66381	2017-08-24T20:00:00	24.7	ND	ND	ND	1.73	26.24	ND	ND	ND	ND	0	0
66382	2017-08-24T21:00:00	20.6	ND	ND	ND	2.86	32.38	ND	ND	ND	ND	0	0
66383	2017-08-24T22:00:00	9.5	ND	ND	ND	3.22	32.97	ND	ND	ND	ND	0	0
66384	2017-08-24T23:00:00	28.6	ND	ND	ND	3.25	14.82	ND	ND	ND	ND	0	0
66385	2017-08-25T00:00:00	39.6	ND	ND	ND	3.67	11.50	ND	ND	ND	ND	0	0
66386	2017-08-25T01:00:00	35.3	ND	ND	ND	3.69	15.95	ND	ND	ND	ND	0	0
66387	2017-08-25T02:00:00	41.6	ND	ND	ND	3.37	11.40	ND	ND	ND	ND	0	0
66388	2017-08-25T03:00:00	42.1	ND	ND	ND	5.37	11.75	ND	ND	ND	ND	0	0
66389	2017-08-25T04:00:00	47.2	ND	ND	ND	5.06	12.28	ND	ND	ND	ND	0	0
66390	2017-08-25T05:00:00	51.1	ND	ND	ND	4.46	10.97	ND	ND	ND	ND	0	0
66391	2017-08-25T06:00:00	57.3	ND	ND	ND	4.43	7.04	ND	ND	ND	ND	0	1.02
66392	2017-08-25T07:00:00	57.8	ND	ND	ND	4.03	6.02	ND	ND	ND	ND	50.4	0.25
66393	2017-08-25T08:00:00	58.1	ND	ND	ND	3.02	7.52	ND	ND	ND	ND	435.9	0
66394	2017-08-25T09:00:00	77	ND	ND	ND	4.56	26.26	ND	ND	ND	ND	626	0.25
66395	2017-08-25T10:00:00	89.9	ND	ND	ND	4.63	46.57	ND	ND	ND	ND	624.8	0
66396	2017-08-25T11:00:00	91.7	ND	ND	ND	3.42	62.80	ND	ND	ND	ND	649.8	0
66397	2017-08-25T12:00:00	74.9	ND	ND	ND	3.50	64.15	ND	ND	ND	ND	650.1	0
66398	2017-08-25T13:00:00	46.9	ND	ND	ND	2.37	98.94	ND	ND	ND	ND	649.7	0
66399	2017-08-25T14:00:00	52.2	ND	ND	ND	2.29	113.95	ND	ND	ND	ND	650	0
66400	2017-08-25T15:00:00	60.1	ND	ND	ND	1.52	98.16	ND	ND	ND	ND	649.5	0
66401	2017-08-25T16:00:00	50.7	ND	ND	ND	1.31	87.68	ND	ND	ND	ND	642.5	0
66402	2017-08-25T17:00:00	59	ND	ND	ND	0.81	49.94	ND	ND	ND	ND	399.8	0
66403	2017-08-25T18:00:00	37.8	ND	ND	ND	3.53	32.65	ND	ND	ND	ND	300	0
66404	2017-08-25T19:00:00	35.2	ND	ND	ND	2.04	32.50	ND	ND	ND	ND	4.7	0
66405	2017-08-25T20:00:00	19.8	ND	ND	ND	2.15	30.02	ND	ND	ND	ND	0	0
66406	2017-08-25T21:00:00	20.7	ND	ND	ND	2.73	24.31	ND	ND	ND	ND	0	0
66407	2017-08-25T22:00:00	17.5	ND	ND	ND	3.39	18.27	ND	ND	ND	ND	0	0
66408	2017-08-25T23:00:00	25.7	ND	ND	ND	4.50	6.63	ND	ND	ND	ND	0	0
66409	2017-08-26T00:00:00	36.9	ND	ND	ND	3.01	14.99	ND	ND	ND	ND	0	0
66410	2017-08-26T01:00:00	21.7	ND	ND	ND	3.28	24.04	ND	ND	ND	ND	0	0
66411	2017-08-26T02:00:00	26.6	ND	ND	ND	3.53	10.56	ND	ND	ND	ND	0	0
66412	2017-08-26T03:00:00	48.3	ND	ND	ND	5.10	8.99	ND	ND	ND	ND	0	0
66413	2017-08-26T04:00:00	55.8	ND	ND	ND	4.03	11.21	ND	ND	ND	ND	0	0
66414	2017-08-26T05:00:00	33.8	ND	ND	ND	2.82	18.17	ND	ND	ND	ND	0	0
66415	2017-08-26T06:00:00	31.4	ND	ND	ND	4.56	11.32	ND	ND	ND	ND	0	0
66416	2017-08-26T07:00:00	72.2	ND	ND	ND	3.43	7.36	ND	ND	ND	ND	75.6	0
66417	2017-08-26T08:00:00	59.5	ND	ND	ND	2.75	11.60	ND	ND	ND	ND	411	0
66418	2017-08-26T09:00:00	72	ND	ND	ND	1.74	23.43	ND	ND	ND	ND	632.2	0
66419	2017-08-26T10:00:00	91	ND	ND	ND	0.95	38.42	ND	ND	ND	ND	649.6	0
66420	2017-08-26T11:00:00	79.5	ND	ND	ND	0.79	58.71	ND	ND	ND	ND	649.8	0
66421	2017-08-26T12:00:00	75.9	ND	ND	ND	1.30	68.39	ND	ND	ND	ND	650.7	0
66422	2017-08-26T13:00:00	79.2	ND	ND	ND	1.85	86.27	ND	ND	ND	ND	651	0
66423	2017-08-26T14:00:00	68.4	ND	ND	ND	1.60	132.38	ND	ND	ND	ND	625.3	0
66424	2017-08-26T15:00:00	64.1	ND	ND	ND	3.62	43.51	ND	ND	ND	ND	583.8	0
66425	2017-08-26T16:00:00	37.4	ND	ND	ND	1.98	38.80	ND	ND	ND	ND	650.9	0
66426	2017-08-26T17:00:00	29.9	ND	ND	ND	2.98	40.27	ND	ND	ND	ND	596.4	0
66427	2017-08-26T18:00:00	17	ND	ND	ND	3.58	37.40	ND	ND	ND	ND	241.4	0
66428	2017-08-26T19:00:00	13.6	ND	ND	ND	2.19	38.34	ND	ND	ND	ND	6.6	0
66429	2017-08-26T20:00:00	14	ND	ND	ND	3.07	42.35	ND	ND	ND	ND	0	0
66430	2017-08-26T21:00:00	12	ND	ND	ND	3.69	60.36	ND	ND	ND	ND	0	0
66431	2017-08-26T22:00:00	3	ND	ND	ND	3.58	51.55	ND	ND	ND	ND	0	0
66432	2017-08-26T23:00:00	7.9	ND	ND	ND	4.64	26.63	ND	ND	ND	ND	0	0
66433	2017-08-27T00:00:00	30.2	ND	ND	ND	4.50	14.97	ND	ND	ND	ND	0	0
66434	2017-08-27T01:00:00	37.2	ND	ND	ND	4.40	15.07	ND	ND	ND	ND	0	0
66435	2017-08-27T02:00:00	30.2	ND	ND	ND	5.66	17.41	ND	ND	ND	ND	0	0
66436	2017-08-27T03:00:00	32.7	ND	ND	ND	4.75	16.15	ND	ND	ND	ND	0	0
66437	2017-08-27T04:00:00	27.6	ND	ND	ND	8.24	13.89	ND	ND	ND	ND	0	0
66438	2017-08-27T05:00:00	30.6	ND	ND	ND	5.60	14.29	ND	ND	ND	ND	0	0
66439	2017-08-27T06:00:00	27.3	ND	ND	ND	4.38	13.30	ND	ND	ND	ND	0	0
66440	2017-08-27T07:00:00	30.9	ND	ND	ND	5.45	10.52	ND	ND	ND	ND	81.7	0
66441	2017-08-27T08:00:00	45.5	ND	ND	ND	3.46	19.62	ND	ND	ND	ND	402.8	0
66442	2017-08-27T09:00:00	51.8	ND	ND	ND	3.23	32.56	ND	ND	ND	ND	648.5	0
66443	2017-08-27T10:00:00	68.8	ND	ND	ND	2.84	52.85	ND	ND	ND	ND	638.4	0
66444	2017-08-27T11:00:00	69.5	ND	ND	ND	3.75	74.65	ND	ND	ND	ND	648.7	0
66445	2017-08-27T12:00:00	61.8	ND	ND	ND	3.86	104.36	ND	ND	ND	ND	649.6	0
66446	2017-08-27T13:00:00	63.9	ND	ND	ND	4.43	123.18	ND	ND	ND	ND	648.8	0
66447	2017-08-27T14:00:00	59.4	ND	ND	ND	0.63	116.66	ND	ND	ND	ND	615.8	0
66448	2017-08-27T15:00:00	52.7	ND	ND	ND	2.47	68.51	ND	ND	ND	ND	398.3	0
66449	2017-08-27T16:00:00	24.7	ND	ND	ND	4.81	43.72	ND	ND	ND	ND	499.6	0
66450	2017-08-27T17:00:00	3	ND	ND	ND	2.83	42.84	ND	ND	ND	ND	364.4	0
66451	2017-08-27T18:00:00	12.2	ND	ND	ND	3.21	41.99	ND	ND	ND	ND	211.1	0
66452	2017-08-27T19:00:00	18.8	ND	ND	ND	1.00	45.70	ND	ND	ND	ND	6.4	0
66453	2017-08-27T20:00:00	10.6	ND	ND	ND	4.27	41.25	ND	ND	ND	ND	0	0
66454	2017-08-27T21:00:00	9.7	ND	ND	ND	4.96	32.52	ND	ND	ND	ND	0	0
66455	2017-08-27T22:00:00	23	ND	ND	ND	4.03	23.39	ND	ND	ND	ND	0	0
66456	2017-08-27T23:00:00	34.1	ND	ND	ND	4.28	22.21	ND	ND	ND	ND	0	0
66457	2017-08-28T00:00:00	28.2	ND	ND	ND	2.27	16.64	ND	ND	ND	ND	0	0
66458	2017-08-28T01:00:00	25.1	ND	ND	ND	5.02	12.23	ND	ND	ND	ND	0	0
66459	2017-08-28T02:00:00	39.1	ND	ND	ND	4.21	9.50	ND	ND	ND	ND	0	0
66460	2017-08-28T03:00:00	39.9	ND	ND	ND	5.65	10.91	ND	ND	ND	ND	0	0
66461	2017-08-28T04:00:00	36.1	ND	ND	ND	5.12	15.17	ND	ND	ND	ND	0	0
66462	2017-08-28T05:00:00	30.3	ND	ND	ND	3.89	13.23	ND	ND	ND	ND	0	0
66463	2017-08-28T06:00:00	32.1	ND	ND	ND	4.64	6.87	ND	ND	ND	ND	0	0
66464	2017-08-28T07:00:00	55.5	ND	ND	ND	4.14	6.32	ND	ND	ND	ND	71.5	0
66465	2017-08-28T08:00:00	65.6	ND	ND	ND	4.34	7.24	ND	ND	ND	ND	340.2	0
66466	2017-08-28T09:00:00	91	ND	ND	ND	2.43	13.15	ND	ND	ND	ND	550.5	0
66467	2017-08-28T10:00:00	92.8	ND	ND	ND	1.97	70.55	ND	ND	ND	ND	623.3	0
66468	2017-08-28T11:00:00	71	ND	ND	ND	1.60	39.15	ND	ND	ND	ND	649.3	0
66469	2017-08-28T12:00:00	47.7	ND	ND	ND	2.27	58.50	ND	ND	ND	ND	633.4	0
66470	2017-08-28T13:00:00	45.2	ND	ND	ND	2.89	85.32	ND	ND	ND	ND	639.2	0
66471	2017-08-28T14:00:00	51	ND	ND	ND	2.66	97.57	ND	ND	ND	ND	650.3	0
66472	2017-08-28T15:00:00	48.7	ND	ND	ND	0.82	83.40	ND	ND	ND	ND	646.2	0
66473	2017-08-28T16:00:00	41.6	ND	ND	ND	1.13	36.11	ND	ND	ND	ND	599.7	0
66474	2017-08-28T17:00:00	27.1	ND	ND	ND	3.47	38.15	ND	ND	ND	ND	476.5	0
66475	2017-08-28T18:00:00	26.6	ND	ND	ND	2.05	30.87	ND	ND	ND	ND	90.1	0
66476	2017-08-28T19:00:00	16.3	ND	ND	ND	2.19	26.53	ND	ND	ND	ND	0	0
66477	2017-08-28T20:00:00	16.9	ND	ND	ND	3.33	22.39	ND	ND	ND	ND	0	0
66478	2017-08-28T21:00:00	15.2	ND	ND	ND	3.12	31.22	ND	ND	ND	ND	0	0
66479	2017-08-28T22:00:00	5.5	ND	ND	ND	3.08	36.19	ND	ND	ND	ND	0	0
66480	2017-08-28T23:00:00	8.5	ND	ND	ND	3.55	28.42	ND	ND	ND	ND	0	0
66481	2017-08-29T00:00:00	20.4	ND	ND	ND	4.96	13.13	ND	ND	ND	ND	0	0
66482	2017-08-29T01:00:00	44	ND	ND	ND	4.81	13.27	ND	ND	ND	ND	0	0
66483	2017-08-29T02:00:00	39.2	ND	ND	ND	4.49	13.29	ND	ND	ND	ND	0	0
66484	2017-08-29T03:00:00	22.2	ND	ND	ND	4.77	13.27	ND	ND	ND	ND	0	0
66485	2017-08-29T04:00:00	21.1	ND	ND	ND	3.88	13.11	ND	ND	ND	ND	0	0
66486	2017-08-29T05:00:00	42.4	ND	ND	ND	3.72	9.99	ND	ND	ND	ND	0	0
66487	2017-08-29T06:00:00	42.2	ND	ND	ND	4.56	7.42	ND	ND	ND	ND	0	0
66488	2017-08-29T07:00:00	34.9	ND	ND	ND	4.36	7.40	ND	ND	ND	ND	129.4	0
66489	2017-08-29T08:00:00	49.1	ND	ND	ND	3.07	13.21	ND	ND	ND	ND	584.2	0
66490	2017-08-29T09:00:00	73.3	ND	ND	ND	3.81	16.15	ND	ND	ND	ND	607.1	0
66491	2017-08-29T10:00:00	81.7	ND	ND	ND	2.09	24.18	ND	ND	ND	ND	649.1	0
66492	2017-08-29T11:00:00	73.5	ND	ND	ND	2.24	38.93	ND	ND	ND	ND	649.2	0
66493	2017-08-29T12:00:00	67.6	ND	ND	ND	2.62	58.56	ND	ND	ND	ND	649.8	0
66494	2017-08-29T13:00:00	63	ND	ND	ND	0.60	76.00	ND	ND	ND	ND	650.5	0
66495	2017-08-29T14:00:00	46.6	ND	ND	ND	2.02	91.68	ND	ND	ND	ND	650.1	0
66496	2017-08-29T15:00:00	52.8	ND	ND	ND	2.04	106.46	ND	ND	ND	ND	650.9	0
66497	2017-08-29T16:00:00	57.4	ND	ND	ND	0.64	73.65	ND	ND	ND	ND	522.5	0
66498	2017-08-29T17:00:00	37.4	ND	ND	ND	0.70	40.44	ND	ND	ND	ND	491.2	0
66499	2017-08-29T18:00:00	21.5	ND	ND	ND	2.73	28.77	ND	ND	ND	ND	125.7	0
66500	2017-08-29T19:00:00	20.7	ND	ND	ND	1.76	27.04	ND	ND	ND	ND	0	0
66501	2017-08-29T20:00:00	19.3	ND	ND	ND	2.76	21.21	ND	ND	ND	ND	0	0
66502	2017-08-29T21:00:00	26	ND	ND	ND	3.62	18.82	ND	ND	ND	ND	0	9.4
66503	2017-08-29T22:00:00	22.4	ND	ND	ND	3.53	26.90	ND	ND	ND	ND	0	0
66504	2017-08-29T23:00:00	23.9	ND	ND	ND	2.09	36.48	ND	ND	ND	ND	0	9.4
66505	2017-08-30T00:00:00	21.2	ND	ND	ND	4.10	23.00	ND	ND	ND	ND	0	2.03
66506	2017-08-30T01:00:00	8.4	ND	ND	ND	1.85	12.25	ND	ND	ND	ND	0	0
66507	2017-08-30T02:00:00	22.3	ND	ND	ND	3.75	16.27	ND	ND	ND	ND	0	0
66508	2017-08-30T03:00:00	26	ND	ND	ND	4.77	10.30	ND	ND	ND	ND	0	0
66509	2017-08-30T04:00:00	39	ND	ND	ND	6.26	6.06	ND	ND	ND	ND	0	0
66510	2017-08-30T05:00:00	39	ND	ND	ND	1.46	9.46	ND	ND	ND	ND	0	0
66511	2017-08-30T06:00:00	29	ND	ND	ND	3.72	8.30	ND	ND	ND	ND	0	0
66512	2017-08-30T07:00:00	35.2	ND	ND	ND	1.83	7.01	ND	ND	ND	ND	63.4	0
66513	2017-08-30T08:00:00	44.8	ND	ND	ND	3.32	6.95	ND	ND	ND	ND	216.9	0
66514	2017-08-30T09:00:00	90.4	ND	ND	ND	2.27	11.89	ND	ND	ND	ND	565.5	0
66515	2017-08-30T10:00:00	91.6	ND	ND	ND	1.41	23.84	ND	ND	ND	ND	649.4	0
66516	2017-08-30T11:00:00	72.3	ND	ND	ND	1.81	34.62	ND	ND	ND	ND	650.5	0
66517	2017-08-30T12:00:00	52.1	ND	ND	ND	3.04	58.05	ND	ND	ND	ND	649.9	0
66518	2017-08-30T13:00:00	52.3	ND	ND	ND	2.05	81.22	ND	ND	ND	ND	650.4	0
66519	2017-08-30T14:00:00	52.4	ND	ND	ND	1.81	88.68	ND	ND	ND	ND	645	0
66520	2017-08-30T15:00:00	41.8	ND	ND	ND	2.73	84.44	ND	ND	ND	ND	650.4	0
66521	2017-08-30T16:00:00	41	ND	ND	ND	2.61	66.84	ND	ND	ND	ND	610.7	0
66522	2017-08-30T17:00:00	45	ND	ND	ND	3.47	38.56	ND	ND	ND	ND	385	0
66523	2017-08-30T18:00:00	26.4	ND	ND	ND	2.61	29.18	ND	ND	ND	ND	248.9	0
66524	2017-08-30T19:00:00	30	ND	ND	ND	1.52	21.45	ND	ND	ND	ND	4.5	0
66525	2017-08-30T20:00:00	27.7	ND	ND	ND	2.16	25.86	ND	ND	ND	ND	0	0
66526	2017-08-30T21:00:00	25.4	ND	ND	ND	1.37	24.37	ND	ND	ND	ND	0	0
66527	2017-08-30T22:00:00	26.7	ND	ND	ND	4.32	25.22	ND	ND	ND	ND	0	0
66528	2017-08-30T23:00:00	35.1	ND	ND	ND	4.11	7.46	ND	ND	ND	ND	0	0
66529	2017-08-31T00:00:00	45.8	ND	ND	ND	2.10	6.67	ND	ND	ND	ND	0	0
66530	2017-08-31T01:00:00	48.9	ND	ND	ND	2.84	6.52	ND	ND	ND	ND	0	0
66531	2017-08-31T02:00:00	45.3	ND	ND	ND	3.09	10.54	ND	ND	ND	ND	0	0
66532	2017-08-31T03:00:00	35.5	ND	ND	ND	4.06	14.56	ND	ND	ND	ND	0	0
66533	2017-08-31T04:00:00	27	ND	ND	ND	4.45	11.52	ND	ND	ND	ND	0	0
66534	2017-08-31T05:00:00	39	ND	ND	ND	5.67	7.99	ND	ND	ND	ND	0	0
66535	2017-08-31T06:00:00	57.5	ND	ND	ND	4.15	6.50	ND	ND	ND	ND	0	0
66536	2017-08-31T07:00:00	70.7	ND	ND	ND	5.60	6.87	ND	ND	ND	ND	29.1	0
66537	2017-08-31T08:00:00	87.7	ND	ND	ND	3.12	8.75	ND	ND	ND	ND	357.5	0
66538	2017-08-31T09:00:00	95.9	ND	ND	ND	4.60	18.39	ND	ND	ND	ND	569	0
66539	2017-08-31T10:00:00	101.6	ND	ND	ND	2.47	36.93	ND	ND	ND	ND	645.7	0
66540	2017-08-31T11:00:00	92.2	ND	ND	ND	1.94	58.69	ND	ND	ND	ND	649.6	0
66541	2017-08-31T12:00:00	73.8	ND	ND	ND	1.67	75.71	ND	ND	ND	ND	650	0
66542	2017-08-31T13:00:00	46.5	ND	ND	ND	2.09	78.14	ND	ND	ND	ND	650.3	0
66543	2017-08-31T14:00:00	41.7	ND	ND	ND	2.10	58.79	ND	ND	ND	ND	639.7	0
66544	2017-08-31T15:00:00	32.3	ND	ND	ND	1.52	61.89	ND	ND	ND	ND	648.3	0
66545	2017-08-31T16:00:00	39.3	ND	ND	ND	2.31	65.58	ND	ND	ND	ND	632.2	0
66546	2017-08-31T17:00:00	45.5	ND	ND	ND	2.75	58.73	ND	ND	ND	ND	517.4	0
66547	2017-08-31T18:00:00	46.1	ND	ND	ND	3.04	54.30	ND	ND	ND	ND	266.5	0
66548	2017-08-31T19:00:00	61.2	ND	ND	ND	1.71	27.65	ND	ND	ND	ND	4.4	0
66549	2017-08-31T20:00:00	49	ND	ND	ND	3.40	22.23	ND	ND	ND	ND	0	0
66550	2017-08-31T21:00:00	41.7	ND	ND	ND	1.80	28.73	ND	ND	ND	ND	0	0
66551	2017-08-31T22:00:00	30.7	ND	ND	ND	2.44	33.07	ND	ND	ND	ND	0	0
66552	2017-08-31T23:00:00	26.3	ND	ND	ND	2.58	33.32	ND	ND	ND	ND	0	0
66553	2017-09-01T00:00:00	18	ND	ND	ND	2.83	20.92	ND	ND	ND	ND	0	0
66554	2017-09-01T01:00:00	13.1	ND	ND	ND	2.89	38.40	ND	ND	ND	ND	0	0
66555	2017-09-01T02:00:00	6.8	ND	ND	ND	2.77	27.08	ND	ND	ND	ND	0	0
66556	2017-09-01T03:00:00	23.1	ND	ND	ND	1.71	40.72	ND	ND	ND	ND	0	0
66557	2017-09-01T04:00:00	19.7	ND	ND	ND	3.58	32.24	ND	ND	ND	ND	0	0
66558	2017-09-01T05:00:00	18.9	ND	ND	ND	1.51	32.34	ND	ND	ND	ND	0	0
66559	2017-09-01T06:00:00	31.4	ND	ND	ND	2.69	10.48	ND	ND	ND	ND	0	0
66560	2017-09-01T07:00:00	108.4	ND	ND	ND	5.80	8.03	ND	ND	ND	ND	114.3	0
66561	2017-09-01T08:00:00	125.3	ND	ND	ND	1.10	12.78	ND	ND	ND	ND	596.6	0
66562	2017-09-01T09:00:00	121.3	ND	ND	ND	1.28	33.97	ND	ND	ND	ND	648.5	0
66563	2017-09-01T10:00:00	127.1	ND	ND	ND	0.99	58.56	ND	ND	ND	ND	649.4	0
66564	2017-09-01T11:00:00	86.8	ND	ND	ND	2.36	75.41	ND	ND	ND	ND	649.4	0
66565	2017-09-01T12:00:00	75.3	ND	ND	ND	1.74	101.34	ND	ND	ND	ND	649.7	0
66566	2017-09-01T13:00:00	71.1	ND	ND	ND	0.52	108.38	ND	ND	ND	ND	649.5	0
66567	2017-09-01T14:00:00	74.7	ND	ND	ND	2.24	101.71	ND	ND	ND	ND	651	0
66568	2017-09-01T15:00:00	56.2	ND	ND	ND	1.53	99.22	ND	ND	ND	ND	651.2	0
66569	2017-09-01T16:00:00	69.4	ND	ND	ND	1.58	96.08	ND	ND	ND	ND	650.9	0
66570	2017-09-01T17:00:00	81.5	ND	ND	ND	1.64	91.00	ND	ND	ND	ND	612.9	0
66571	2017-09-01T18:00:00	79.5	ND	ND	ND	1.90	55.16	ND	ND	ND	ND	252	0
66572	2017-09-01T19:00:00	39.2	ND	ND	ND	1.97	34.83	ND	ND	ND	ND	4.4	0
66573	2017-09-01T20:00:00	10.2	ND	ND	ND	2.30	30.57	ND	ND	ND	ND	0	0
66574	2017-09-01T21:00:00	24.9	ND	ND	ND	2.48	27.73	ND	ND	ND	ND	0	0
66575	2017-09-01T22:00:00	31.7	ND	ND	ND	1.85	27.16	ND	ND	ND	ND	0	0
66576	2017-09-01T23:00:00	30.6	ND	ND	ND	4.24	14.15	ND	ND	ND	ND	0	0
66577	2017-09-02T00:00:00	57.1	ND	ND	ND	3.28	10.32	ND	ND	ND	ND	0	0
66578	2017-09-02T01:00:00	60.4	ND	ND	ND	2.13	26.34	ND	ND	ND	ND	0	0
66579	2017-09-02T02:00:00	55.3	ND	ND	ND	4.56	10.32	ND	ND	ND	ND	0	0
66580	2017-09-02T03:00:00	99.1	ND	ND	ND	5.13	8.32	ND	ND	ND	ND	0	0
66581	2017-09-02T04:00:00	120.7	ND	ND	ND	3.42	12.79	ND	ND	ND	ND	0	0
66582	2017-09-02T05:00:00	118.6	ND	ND	ND	4.32	7.59	ND	ND	ND	ND	0	0
66583	2017-09-02T06:00:00	126.7	ND	ND	ND	3.51	7.54	ND	ND	ND	ND	0	0
66584	2017-09-02T07:00:00	89.6	ND	ND	ND	3.50	9.52	ND	ND	ND	ND	51.8	0
66585	2017-09-02T08:00:00	98.3	ND	ND	ND	4.75	8.77	ND	ND	ND	ND	332.1	0
66586	2017-09-02T09:00:00	150.1	ND	ND	ND	3.92	29.18	ND	ND	ND	ND	642	0
66587	2017-09-02T10:00:00	152.3	ND	ND	ND	0.92	61.07	ND	ND	ND	ND	623.6	0
66588	2017-09-02T11:00:00	85.9	ND	ND	ND	1.70	97.45	ND	ND	ND	ND	649.8	0
66589	2017-09-02T12:00:00	86.5	ND	ND	ND	0.00	79.61	ND	ND	ND	ND	649.7	0
66590	2017-09-02T13:00:00	78.4	ND	ND	ND	ND	65.88	ND	ND	ND	ND	649.5	0
66591	2017-09-02T14:00:00	77	ND	ND	ND	ND	82.79	ND	ND	ND	ND	649.8	0
66592	2017-09-02T15:00:00	81.7	ND	ND	ND	0.25	88.58	ND	ND	ND	ND	650.2	0
66593	2017-09-02T16:00:00	70.2	ND	ND	ND	1.63	76.36	ND	ND	ND	ND	633.6	0
66594	2017-09-02T17:00:00	48.3	ND	ND	ND	1.35	44.86	ND	ND	ND	ND	469.6	0
66595	2017-09-02T18:00:00	39.5	ND	ND	ND	1.58	28.04	ND	ND	ND	ND	87.2	0
66596	2017-09-02T19:00:00	13.9	ND	ND	ND	3.21	27.22	ND	ND	ND	ND	0	0
66597	2017-09-02T20:00:00	11.9	ND	ND	ND	1.92	32.38	ND	ND	ND	ND	0	0
66598	2017-09-02T21:00:00	18.7	ND	ND	ND	3.39	27.67	ND	ND	ND	ND	0	0
66599	2017-09-02T22:00:00	14.9	ND	ND	ND	3.22	27.49	ND	ND	ND	ND	0	0
66600	2017-09-02T23:00:00	16	ND	ND	ND	1.73	25.14	ND	ND	ND	ND	0	0
66601	2017-09-03T00:00:00	25	ND	ND	ND	2.97	7.04	ND	ND	ND	ND	0	0
66602	2017-09-03T01:00:00	47.2	ND	ND	ND	3.05	6.59	ND	ND	ND	ND	0	0
66603	2017-09-03T02:00:00	41.8	ND	ND	ND	3.50	7.24	ND	ND	ND	ND	0	0
66604	2017-09-03T03:00:00	49.5	ND	ND	ND	4.38	9.62	ND	ND	ND	ND	0	0
66605	2017-09-03T04:00:00	42.1	ND	ND	ND	3.62	9.07	ND	ND	ND	ND	0	0
66606	2017-09-03T05:00:00	33.5	ND	ND	ND	2.94	9.60	ND	ND	ND	ND	0	0
66607	2017-09-03T06:00:00	43.7	ND	ND	ND	4.52	7.36	ND	ND	ND	ND	0	0
66608	2017-09-03T07:00:00	59.1	ND	ND	ND	4.53	7.22	ND	ND	ND	ND	98.8	0
66609	2017-09-03T08:00:00	69.1	ND	ND	ND	3.85	15.82	ND	ND	ND	ND	578.4	0
66610	2017-09-03T09:00:00	69.5	ND	ND	ND	3.50	39.03	ND	ND	ND	ND	648.9	0
66611	2017-09-03T10:00:00	63.3	ND	ND	ND	2.33	53.73	ND	ND	ND	ND	649.3	0
66612	2017-09-03T11:00:00	53.1	ND	ND	ND	0.64	79.24	ND	ND	ND	ND	649.7	0
66613	2017-09-03T12:00:00	50	ND	ND	ND	2.65	97.12	ND	ND	ND	ND	650.6	0
66614	2017-09-03T13:00:00	40.7	ND	ND	ND	2.47	90.72	ND	ND	ND	ND	650.7	0
66615	2017-09-03T14:00:00	49.5	ND	ND	ND	1.90	83.18	ND	ND	ND	ND	651.1	0
66616	2017-09-03T15:00:00	22.7	ND	ND	ND	2.90	76.77	ND	ND	ND	ND	651.5	0
66617	2017-09-03T16:00:00	28	ND	ND	ND	3.33	75.39	ND	ND	ND	ND	622.6	0
66618	2017-09-03T17:00:00	35.7	ND	ND	ND	1.83	76.06	ND	ND	ND	ND	382.9	0
66619	2017-09-03T18:00:00	177.4	ND	ND	ND	2.38	58.46	ND	ND	ND	ND	156.9	0
66620	2017-09-03T19:00:00	131.7	ND	ND	ND	1.78	44.07	ND	ND	ND	ND	0	0
66621	2017-09-03T20:00:00	111.9	ND	ND	ND	4.07	36.48	ND	ND	ND	ND	0	0
66622	2017-09-03T21:00:00	70.9	ND	ND	ND	2.40	37.70	ND	ND	ND	ND	0	0
66623	2017-09-03T22:00:00	56	ND	ND	ND	3.42	24.47	ND	ND	ND	ND	0	0
66624	2017-09-03T23:00:00	42.9	ND	ND	ND	4.00	24.39	ND	ND	ND	ND	0	0
66625	2017-09-04T00:00:00	60	ND	ND	ND	3.15	14.07	ND	ND	ND	ND	0	0
66626	2017-09-04T01:00:00	84.9	ND	ND	ND	5.21	19.13	ND	ND	ND	ND	0	0
66627	2017-09-04T02:00:00	93.2	ND	ND	ND	4.43	20.00	ND	ND	ND	ND	0	0
66628	2017-09-04T03:00:00	62.8	ND	ND	ND	2.89	19.86	ND	ND	ND	ND	0	0
66629	2017-09-04T04:00:00	59.3	ND	ND	ND	5.03	11.83	ND	ND	ND	ND	0	0
66630	2017-09-04T05:00:00	73.5	ND	ND	ND	5.00	14.07	ND	ND	ND	ND	0	0
66631	2017-09-04T06:00:00	95.7	ND	ND	ND	2.59	12.03	ND	ND	ND	ND	0	0
66632	2017-09-04T07:00:00	98.3	ND	ND	ND	6.29	9.75	ND	ND	ND	ND	168.1	0
66633	2017-09-04T08:00:00	81	ND	ND	ND	1.51	11.89	ND	ND	ND	ND	605.8	0
66634	2017-09-04T09:00:00	85.2	ND	ND	ND	4.00	27.14	ND	ND	ND	ND	665.7	0
66635	2017-09-04T10:00:00	94.5	ND	ND	ND	1.76	58.38	ND	ND	ND	ND	666.5	0
66636	2017-09-04T11:00:00	105.2	ND	ND	ND	1.02	83.38	ND	ND	ND	ND	667.2	0
66637	2017-09-04T12:00:00	117.1	ND	ND	ND	1.94	100.92	ND	ND	ND	ND	668.1	0
66638	2017-09-04T13:00:00	114.3	ND	ND	ND	0.71	113.23	ND	ND	ND	ND	669	0
66639	2017-09-04T14:00:00	103.1	ND	ND	ND	2.43	58.81	ND	ND	ND	ND	669.8	0
66640	2017-09-04T15:00:00	85.6	ND	ND	ND	1.83	43.53	ND	ND	ND	ND	665.7	0
66641	2017-09-04T16:00:00	76.6	ND	ND	ND	2.38	43.47	ND	ND	ND	ND	670.9	0
66642	2017-09-04T17:00:00	91.5	ND	ND	ND	2.19	33.03	ND	ND	ND	ND	639.8	0
66643	2017-09-04T18:00:00	70.8	ND	ND	ND	2.16	26.39	ND	ND	ND	ND	222.4	0
66644	2017-09-04T19:00:00	55	ND	ND	ND	2.15	24.35	ND	ND	ND	ND	0	0
66645	2017-09-04T20:00:00	22.8	ND	ND	ND	2.96	30.85	ND	ND	ND	ND	0	0
66646	2017-09-04T21:00:00	0.3	ND	ND	ND	3.18	32.87	ND	ND	ND	ND	0	0
66647	2017-09-04T22:00:00	ND	ND	ND	ND	2.56	32.42	ND	ND	ND	ND	0	0
66648	2017-09-04T23:00:00	0.4	ND	ND	ND	2.83	17.72	ND	ND	ND	ND	0	0
66649	2017-09-05T00:00:00	31.4	ND	ND	ND	3.97	10.73	ND	ND	ND	ND	0	0
66650	2017-09-05T01:00:00	66.3	ND	ND	ND	4.03	11.15	ND	ND	ND	ND	0	0
66651	2017-09-05T02:00:00	62.1	ND	ND	ND	3.46	12.83	ND	ND	ND	ND	0	0
66652	2017-09-05T03:00:00	49.5	ND	ND	ND	3.51	13.54	ND	ND	ND	ND	0	0
66653	2017-09-05T04:00:00	44.4	ND	ND	ND	3.43	9.75	ND	ND	ND	ND	0	0
66654	2017-09-05T05:00:00	45.3	ND	ND	ND	4.24	8.16	ND	ND	ND	ND	0	0
66655	2017-09-05T06:00:00	0.4	ND	ND	ND	4.71	8.40	ND	ND	ND	ND	0	0
66656	2017-09-05T07:00:00	55.4	ND	ND	ND	3.60	9.13	ND	ND	ND	ND	114.4	0
66657	2017-09-05T08:00:00	85.1	ND	ND	ND	2.70	9.40	ND	ND	ND	ND	342.5	0
66658	2017-09-05T09:00:00	74	ND	ND	ND	2.55	18.41	ND	ND	ND	ND	649.2	0
66659	2017-09-05T10:00:00	71.2	ND	ND	ND	2.22	43.49	ND	ND	ND	ND	666.7	0
66660	2017-09-05T11:00:00	89.5	ND	ND	ND	2.76	82.77	ND	ND	ND	ND	667.5	0
66661	2017-09-05T12:00:00	120.1	ND	ND	ND	2.23	107.89	ND	ND	ND	ND	668.3	0
66662	2017-09-05T13:00:00	139.4	ND	ND	ND	2.26	120.53	ND	ND	ND	ND	669.1	0
66663	2017-09-05T14:00:00	125.5	ND	ND	ND	1.76	115.33	ND	ND	ND	ND	659.4	0
66664	2017-09-05T15:00:00	87.8	ND	ND	ND	2.70	56.08	ND	ND	ND	ND	646.4	0
66665	2017-09-05T16:00:00	65.5	ND	ND	ND	2.91	41.56	ND	ND	ND	ND	657.6	0
66666	2017-09-05T17:00:00	52.1	ND	ND	ND	3.89	33.89	ND	ND	ND	ND	383.2	0
66667	2017-09-05T18:00:00	27.4	ND	ND	ND	2.23	29.71	ND	ND	ND	ND	239.4	0
66668	2017-09-05T19:00:00	26.6	ND	ND	ND	2.44	24.27	ND	ND	ND	ND	0	0
66669	2017-09-05T20:00:00	18.9	ND	ND	ND	3.68	26.96	ND	ND	ND	ND	0	0
66670	2017-09-05T21:00:00	11.6	ND	ND	ND	2.97	29.87	ND	ND	ND	ND	0	0
66671	2017-09-05T22:00:00	9.9	ND	ND	ND	2.56	25.77	ND	ND	ND	ND	0	0
66672	2017-09-05T23:00:00	7.2	ND	ND	ND	3.02	11.99	ND	ND	ND	ND	0	0
66673	2017-09-06T00:00:00	9.8	ND	ND	ND	3.68	9.81	ND	ND	ND	ND	0	0
66674	2017-09-06T01:00:00	12.7	ND	ND	ND	2.96	11.66	ND	ND	ND	ND	0	0
66675	2017-09-06T02:00:00	30.1	ND	ND	ND	4.32	13.38	ND	ND	ND	ND	0	0
66676	2017-09-06T03:00:00	28.7	ND	ND	ND	3.83	15.09	ND	ND	ND	ND	0	0
66677	2017-09-06T04:00:00	25.8	ND	ND	ND	4.06	14.89	ND	ND	ND	ND	0	0
66678	2017-09-06T05:00:00	7.7	ND	ND	ND	2.69	10.18	ND	ND	ND	ND	0	0
66679	2017-09-06T06:00:00	22.3	ND	ND	ND	3.47	7.18	ND	ND	ND	ND	0	0
66680	2017-09-06T07:00:00	43.7	ND	ND	ND	4.53	6.00	ND	ND	ND	ND	22.7	21.84
66681	2017-09-06T08:00:00	53.2	ND	ND	ND	3.05	4.08	ND	ND	ND	ND	160.6	15.24
66682	2017-09-06T09:00:00	59.7	ND	ND	ND	2.70	7.69	ND	ND	ND	ND	649.8	0.25
66683	2017-09-06T10:00:00	74.5	ND	ND	ND	3.28	24.18	ND	ND	ND	ND	665.9	0
66684	2017-09-06T11:00:00	80.6	ND	ND	ND	2.56	52.36	ND	ND	ND	ND	666.3	0
66685	2017-09-06T12:00:00	81.1	ND	ND	ND	2.93	87.50	ND	ND	ND	ND	667.1	0
66686	2017-09-06T13:00:00	81.6	ND	ND	ND	3.50	99.43	ND	ND	ND	ND	667.9	0
66687	2017-09-06T14:00:00	85.3	ND	ND	ND	3.44	116.43	ND	ND	ND	ND	663.8	0
66688	2017-09-06T15:00:00	94.8	ND	ND	ND	2.87	103.71	ND	ND	ND	ND	613	0
66689	2017-09-06T16:00:00	83.1	ND	ND	ND	2.37	47.69	ND	ND	ND	ND	522.4	0
66690	2017-09-06T17:00:00	60.5	ND	ND	ND	3.11	38.64	ND	ND	ND	ND	439.4	0.51
66691	2017-09-06T18:00:00	45.4	ND	ND	ND	1.98	27.32	ND	ND	ND	ND	172.3	0
66692	2017-09-06T19:00:00	6.4	ND	ND	ND	1.39	19.23	ND	ND	ND	ND	0	0
66693	2017-09-06T20:00:00	11.2	ND	ND	ND	2.80	25.55	ND	ND	ND	ND	0	0
66694	2017-09-06T21:00:00	9.7	ND	ND	ND	3.39	28.51	ND	ND	ND	ND	0	0
66695	2017-09-06T22:00:00	0.4	ND	ND	ND	3.19	22.78	ND	ND	ND	ND	0	4.57
66696	2017-09-06T23:00:00	4.8	ND	ND	ND	4.21	6.14	ND	ND	ND	ND	0	0
66697	2017-09-07T00:00:00	17.6	ND	ND	ND	2.89	6.30	ND	ND	ND	ND	0	0
66698	2017-09-07T01:00:00	28.6	ND	ND	ND	4.53	7.30	ND	ND	ND	ND	0	0
66699	2017-09-07T02:00:00	27	ND	ND	ND	3.48	8.46	ND	ND	ND	ND	0	0.25
66700	2017-09-07T03:00:00	48.7	ND	ND	ND	3.96	9.89	ND	ND	ND	ND	0	2.54
66701	2017-09-07T04:00:00	35.4	ND	ND	ND	4.95	11.03	ND	ND	ND	ND	0	46.99
66702	2017-09-07T05:00:00	13.3	ND	ND	ND	3.81	9.50	ND	ND	ND	ND	0	2.03
66703	2017-09-07T06:00:00	40.1	ND	ND	ND	4.59	6.00	ND	ND	ND	ND	0	5.59
66704	2017-09-07T07:00:00	28.2	ND	ND	ND	3.51	5.53	ND	ND	ND	ND	57.3	2.79
66705	2017-09-07T08:00:00	15	ND	ND	ND	3.28	6.63	ND	ND	ND	ND	261	0.25
66706	2017-09-07T09:00:00	23	ND	ND	ND	3.04	18.09	ND	ND	ND	ND	649.4	0
66707	2017-09-07T10:00:00	30.6	ND	ND	ND	3.30	36.01	ND	ND	ND	ND	664.8	0
66708	2017-09-07T11:00:00	66.5	ND	ND	ND	3.85	77.18	ND	ND	ND	ND	665.6	0
66709	2017-09-07T12:00:00	88.4	ND	ND	ND	4.08	106.56	ND	ND	ND	ND	666.5	0
66710	2017-09-07T13:00:00	91.9	ND	ND	ND	2.04	91.56	ND	ND	ND	ND	666.4	0
66711	2017-09-07T14:00:00	87.6	ND	ND	ND	2.98	81.26	ND	ND	ND	ND	597.6	0
66712	2017-09-07T15:00:00	86.2	ND	ND	ND	2.65	62.87	ND	ND	ND	ND	585.1	0
66713	2017-09-07T16:00:00	54.2	ND	ND	ND	3.19	36.83	ND	ND	ND	ND	654	0
66714	2017-09-07T17:00:00	46.6	ND	ND	ND	3.26	32.85	ND	ND	ND	ND	569	0
66715	2017-09-07T18:00:00	55.5	ND	ND	ND	1.45	25.61	ND	ND	ND	ND	154.7	0
66716	2017-09-07T19:00:00	33.5	ND	ND	ND	3.51	20.21	ND	ND	ND	ND	0	0
66717	2017-09-07T20:00:00	5.7	ND	ND	ND	2.52	25.73	ND	ND	ND	ND	0	0
66718	2017-09-07T21:00:00	6.4	ND	ND	ND	3.71	29.00	ND	ND	ND	ND	0	0
66719	2017-09-07T22:00:00	ND	ND	ND	ND	3.35	30.24	ND	ND	ND	ND	0	0
66720	2017-09-07T23:00:00	ND	ND	ND	ND	3.61	20.96	ND	ND	ND	ND	0	0
66721	2017-09-08T00:00:00	6.9	ND	ND	ND	2.50	8.89	ND	ND	ND	ND	0	0
66722	2017-09-08T01:00:00	15.5	ND	ND	ND	3.88	8.28	ND	ND	ND	ND	0	0
66723	2017-09-08T02:00:00	11.9	ND	ND	ND	1.73	8.26	ND	ND	ND	ND	0	0
66724	2017-09-08T03:00:00	3.8	ND	ND	ND	4.73	8.58	ND	ND	ND	ND	0	0
66725	2017-09-08T04:00:00	8.2	ND	ND	ND	4.52	8.50	ND	ND	ND	ND	0	0
66726	2017-09-08T05:00:00	26.8	ND	ND	ND	5.06	7.93	ND	ND	ND	ND	0	0
66727	2017-09-08T06:00:00	23.8	ND	ND	ND	3.19	5.57	ND	ND	ND	ND	0	0
66728	2017-09-08T07:00:00	37	ND	ND	ND	3.23	5.16	ND	ND	ND	ND	77	0
66729	2017-09-08T08:00:00	73.7	ND	ND	ND	2.73	6.85	ND	ND	ND	ND	234.9	0
66730	2017-09-08T09:00:00	70.6	ND	ND	ND	2.94	11.58	ND	ND	ND	ND	521.6	0
66731	2017-09-08T10:00:00	75.4	ND	ND	ND	1.84	16.80	ND	ND	ND	ND	557.8	0
66732	2017-09-08T11:00:00	101.2	ND	ND	ND	2.15	20.84	ND	ND	ND	ND	285.7	0
66733	2017-09-08T12:00:00	109.7	ND	ND	ND	3.57	10.20	ND	ND	ND	ND	341.3	55.88
66734	2017-09-08T13:00:00	29.3	ND	ND	ND	2.29	10.64	ND	ND	ND	ND	409.3	3.56
66735	2017-09-08T14:00:00	20.3	ND	ND	ND	2.30	15.78	ND	ND	ND	ND	568.7	0.25
66736	2017-09-08T15:00:00	16	ND	ND	ND	2.65	24.84	ND	ND	ND	ND	578.1	0
66737	2017-09-08T16:00:00	48.3	ND	ND	ND	2.90	38.89	ND	ND	ND	ND	612	0
66738	2017-09-08T17:00:00	47	ND	ND	ND	4.25	24.94	ND	ND	ND	ND	256.8	0
66739	2017-09-08T18:00:00	49	ND	ND	ND	2.08	23.39	ND	ND	ND	ND	80.8	0
66740	2017-09-08T19:00:00	60.9	ND	ND	ND	3.72	13.13	ND	ND	ND	ND	0	0
66741	2017-09-08T20:00:00	34.2	ND	ND	ND	3.14	14.25	ND	ND	ND	ND	0	0
66742	2017-09-08T21:00:00	105.7	ND	ND	ND	1.13	7.44	ND	ND	ND	ND	0	0
66743	2017-09-08T22:00:00	44.4	ND	ND	ND	3.11	5.93	ND	ND	ND	ND	0	0
66744	2017-09-08T23:00:00	76.7	ND	ND	ND	4.14	6.48	ND	ND	ND	ND	0	0
66745	2017-09-09T00:00:00	80.9	ND	ND	ND	3.53	6.97	ND	ND	ND	ND	0	0
66746	2017-09-09T01:00:00	53.4	ND	ND	ND	3.90	5.67	ND	ND	ND	ND	0	0
66747	2017-09-09T02:00:00	23.4	ND	ND	ND	3.72	6.00	ND	ND	ND	ND	0	0
66748	2017-09-09T03:00:00	21.2	ND	ND	ND	2.84	5.16	ND	ND	ND	ND	0	0
66749	2017-09-09T04:00:00	69.2	ND	ND	ND	3.48	4.30	ND	ND	ND	ND	0	0
66750	2017-09-09T05:00:00	50.3	ND	ND	ND	2.98	4.30	ND	ND	ND	ND	0	0
66751	2017-09-09T06:00:00	38.7	ND	ND	ND	3.50	4.36	ND	ND	ND	ND	0	0
66752	2017-09-09T07:00:00	51.3	ND	ND	ND	5.05	6.12	ND	ND	ND	ND	54.4	0
66753	2017-09-09T08:00:00	55.8	ND	ND	ND	3.32	5.71	ND	ND	ND	ND	264.4	0
66754	2017-09-09T09:00:00	64	ND	ND	ND	2.91	6.69	ND	ND	ND	ND	461	0
66755	2017-09-09T10:00:00	49.8	ND	ND	ND	3.30	25.55	ND	ND	ND	ND	664.5	0
66756	2017-09-09T11:00:00	42.5	ND	ND	ND	2.63	73.84	ND	ND	ND	ND	665.3	0
66757	2017-09-09T12:00:00	93.6	ND	ND	ND	2.58	81.46	ND	ND	ND	ND	666	0
66758	2017-09-09T13:00:00	84.8	ND	ND	ND	2.58	64.88	ND	ND	ND	ND	666.7	0
66759	2017-09-09T14:00:00	80.6	ND	ND	ND	2.54	65.74	ND	ND	ND	ND	630.7	0
66760	2017-09-09T15:00:00	86	ND	ND	ND	2.70	74.53	ND	ND	ND	ND	638.4	0
66761	2017-09-09T16:00:00	58.2	ND	ND	ND	3.61	31.67	ND	ND	ND	ND	657.5	0
66762	2017-09-09T17:00:00	41.9	ND	ND	ND	4.07	25.79	ND	ND	ND	ND	356.7	0
66763	2017-09-09T18:00:00	37.6	ND	ND	ND	3.76	22.37	ND	ND	ND	ND	47.5	0
66764	2017-09-09T19:00:00	16.9	ND	ND	ND	3.65	18.78	ND	ND	ND	ND	0	0
66765	2017-09-09T20:00:00	4.4	ND	ND	ND	3.69	16.44	ND	ND	ND	ND	0	2.03
66766	2017-09-09T21:00:00	7.6	ND	ND	ND	2.86	14.21	ND	ND	ND	ND	0	5.59
66767	2017-09-09T22:00:00	ND	ND	ND	ND	3.65	10.97	ND	ND	ND	ND	0	0
66768	2017-09-09T23:00:00	1.9	ND	ND	ND	2.89	8.30	ND	ND	ND	ND	0	0.25
66769	2017-09-10T00:00:00	9.6	ND	ND	ND	3.14	5.83	ND	ND	ND	ND	0	0
66770	2017-09-10T01:00:00	15.3	ND	ND	ND	4.60	6.69	ND	ND	ND	ND	0	0
66771	2017-09-10T02:00:00	37.9	ND	ND	ND	4.54	7.63	ND	ND	ND	ND	0	0
66772	2017-09-10T03:00:00	15	ND	ND	ND	4.78	7.08	ND	ND	ND	ND	0	0
66773	2017-09-10T04:00:00	23.9	ND	ND	ND	3.25	7.85	ND	ND	ND	ND	0	3.56
66774	2017-09-10T05:00:00	36.2	ND	ND	ND	3.51	3.41	ND	ND	ND	ND	0	0.25
66775	2017-09-10T06:00:00	39.8	ND	ND	ND	4.34	5.14	ND	ND	ND	ND	0	0
66776	2017-09-10T07:00:00	41.9	ND	ND	ND	3.05	5.95	ND	ND	ND	ND	33.5	0
66777	2017-09-10T08:00:00	30.3	ND	ND	ND	4.25	5.06	ND	ND	ND	ND	200.9	0
66778	2017-09-10T09:00:00	34.3	ND	ND	ND	3.93	8.91	ND	ND	ND	ND	497.7	0
66779	2017-09-10T10:00:00	52	ND	ND	ND	3.18	23.59	ND	ND	ND	ND	655.1	0
66780	2017-09-10T11:00:00	85.9	ND	ND	ND	2.69	48.49	ND	ND	ND	ND	665.8	0
66781	2017-09-10T12:00:00	83.2	ND	ND	ND	2.83	77.81	ND	ND	ND	ND	666.4	0
66782	2017-09-10T13:00:00	62.2	ND	ND	ND	2.61	78.83	ND	ND	ND	ND	667.1	0
66783	2017-09-10T14:00:00	60.8	ND	ND	ND	2.33	74.61	ND	ND	ND	ND	668	0
66784	2017-09-10T15:00:00	76.6	ND	ND	ND	4.08	52.28	ND	ND	ND	ND	668.8	0
66785	2017-09-10T16:00:00	57.1	ND	ND	ND	3.75	46.98	ND	ND	ND	ND	655.9	0
66786	2017-09-10T17:00:00	44.2	ND	ND	ND	2.04	39.66	ND	ND	ND	ND	486.8	0
66787	2017-09-10T18:00:00	26.5	ND	ND	ND	2.84	26.34	ND	ND	ND	ND	112	0
66788	2017-09-10T19:00:00	7.8	ND	ND	ND	3.40	18.70	ND	ND	ND	ND	0	0
66789	2017-09-10T20:00:00	ND	ND	ND	ND	3.92	16.23	ND	ND	ND	ND	0	0
66790	2017-09-10T21:00:00	ND	ND	ND	ND	4.49	11.62	ND	ND	ND	ND	0	0
66791	2017-09-10T22:00:00	ND	ND	ND	ND	3.19	11.26	ND	ND	ND	ND	0	0
66792	2017-09-10T23:00:00	2.5	ND	ND	ND	3.50	10.09	ND	ND	ND	ND	0	0
66793	2017-09-11T00:00:00	1	ND	ND	ND	2.73	10.15	ND	ND	ND	ND	0	0
66794	2017-09-11T01:00:00	31.6	ND	ND	ND	5.35	7.20	ND	ND	ND	ND	0	0
66795	2017-09-11T02:00:00	3.8	ND	ND	ND	3.65	9.30	ND	ND	ND	ND	0	0
66796	2017-09-11T03:00:00	8.7	ND	ND	ND	5.34	7.77	ND	ND	ND	ND	0	0
66797	2017-09-11T04:00:00	17.5	ND	ND	ND	5.02	5.73	ND	ND	ND	ND	0	0
66798	2017-09-11T05:00:00	21.5	ND	ND	ND	4.86	5.18	ND	ND	ND	ND	0	0
66799	2017-09-11T06:00:00	25.8	ND	ND	ND	3.94	6.42	ND	ND	ND	ND	0	0
66800	2017-09-11T07:00:00	69.2	ND	ND	ND	2.59	6.04	ND	ND	ND	ND	58.8	0
66801	2017-09-11T08:00:00	73.2	ND	ND	ND	3.16	6.22	ND	ND	ND	ND	285.5	0
66802	2017-09-11T09:00:00	72.4	ND	ND	ND	3.12	14.99	ND	ND	ND	ND	642	0
66803	2017-09-11T10:00:00	64.4	ND	ND	ND	3.57	42.39	ND	ND	ND	ND	665.9	0
66804	2017-09-11T11:00:00	91.6	ND	ND	ND	2.96	69.43	ND	ND	ND	ND	664.6	0
66805	2017-09-11T12:00:00	ND	ND	ND	ND	ND	ND	ND	ND	ND	ND	ND	ND
66806	2017-09-11T13:00:00	ND	ND	ND	ND	ND	ND	ND	ND	ND	ND	ND	ND
66807	2017-09-11T14:00:00	ND	ND	ND	ND	ND	ND	ND	ND	ND	ND	ND	ND
66808	2017-09-11T15:00:00	ND	ND	ND	ND	ND	ND	ND	ND	ND	ND	ND	ND
66809	2017-09-11T16:00:00	ND	ND	ND	ND	ND	ND	ND	ND	ND	ND	ND	ND
66810	2017-09-11T17:00:00	ND	ND	ND	ND	ND	ND	ND	ND	ND	ND	ND	ND
66811	2017-09-11T18:00:00	ND	ND	ND	ND	ND	ND	ND	ND	ND	ND	ND	ND
66812	2017-09-11T19:00:00	ND	ND	ND	ND	ND	ND	ND	ND	ND	ND	ND	ND
66813	2017-09-11T20:00:00	ND	ND	ND	ND	ND	ND	ND	ND	ND	ND	ND	ND
66814	2017-09-11T21:00:00	ND	ND	ND	ND	ND	ND	ND	ND	ND	ND	ND	ND
66815	2017-09-11T22:00:00	ND	ND	ND	ND	ND	ND	ND	ND	ND	ND	ND	ND
66816	2017-09-11T23:00:00	ND	ND	ND	ND	ND	ND	ND	ND	ND	ND	ND	ND
66817	2017-09-12T00:00:00	ND	ND	ND	ND	ND	ND	ND	ND	ND	ND	ND	ND
66818	2017-09-12T01:00:00	ND	ND	ND	ND	ND	ND	ND	ND	ND	ND	ND	ND
66819	2017-09-12T02:00:00	ND	ND	ND	ND	ND	ND	ND	ND	ND	ND	ND	ND
66820	2017-09-12T03:00:00	ND	ND	ND	ND	ND	ND	ND	ND	ND	ND	ND	ND
66821	2017-09-12T04:00:00	ND	ND	ND	ND	ND	ND	ND	ND	ND	ND	ND	ND
66822	2017-09-12T05:00:00	ND	ND	ND	ND	ND	ND	ND	ND	ND	ND	ND	ND
66823	2017-09-12T06:00:00	ND	ND	ND	ND	ND	ND	ND	ND	ND	ND	ND	ND
66824	2017-09-12T07:00:00	ND	ND	ND	ND	ND	ND	ND	ND	ND	ND	ND	ND
66825	2017-09-12T08:00:00	ND	ND	ND	ND	ND	ND	ND	ND	ND	ND	ND	ND
66826	2017-09-12T09:00:00	ND	ND	ND	ND	ND	ND	ND	ND	ND	ND	ND	ND
66827	2017-09-12T10:00:00	ND	ND	ND	ND	ND	ND	ND	ND	ND	ND	ND	ND
66828	2017-09-12T11:00:00	ND	ND	ND	ND	ND	ND	ND	ND	ND	ND	ND	ND
66829	2017-09-12T12:00:00	ND	ND	ND	ND	ND	ND	ND	ND	ND	ND	ND	ND
66830	2017-09-12T13:00:00	ND	ND	ND	ND	ND	ND	ND	ND	ND	ND	ND	ND
66831	2017-09-12T14:00:00	ND	ND	ND	ND	ND	ND	ND	ND	ND	ND	ND	ND
66832	2017-09-12T15:00:00	ND	ND	ND	ND	ND	ND	ND	ND	ND	ND	ND	ND
66833	2017-09-12T16:00:00	ND	ND	ND	ND	ND	ND	ND	ND	ND	ND	ND	ND
66834	2017-09-12T17:00:00	ND	ND	ND	ND	ND	ND	ND	ND	ND	ND	ND	ND
66835	2017-09-12T18:00:00	ND	ND	ND	ND	ND	ND	ND	ND	ND	ND	ND	ND
66836	2017-09-12T19:00:00	ND	ND	ND	ND	ND	ND	ND	ND	ND	ND	ND	ND
66837	2017-09-12T20:00:00	ND	ND	ND	ND	ND	ND	ND	ND	ND	ND	ND	ND
66838	2017-09-12T21:00:00	ND	ND	ND	ND	ND	ND	ND	ND	ND	ND	ND	ND
66839	2017-09-12T22:00:00	ND	ND	ND	ND	ND	ND	ND	ND	ND	ND	ND	ND
66840	2017-09-12T23:00:00	ND	ND	ND	ND	ND	ND	ND	ND	ND	ND	ND	ND
66841	2017-09-13T00:00:00	ND	ND	ND	ND	ND	ND	ND	ND	ND	ND	ND	ND
66842	2017-09-13T01:00:00	ND	ND	ND	ND	ND	ND	ND	ND	ND	ND	ND	ND
66843	2017-09-13T02:00:00	ND	ND	ND	ND	ND	ND	ND	ND	ND	ND	ND	ND
66844	2017-09-13T03:00:00	ND	ND	ND	ND	ND	ND	ND	ND	ND	ND	ND	ND
66845	2017-09-13T04:00:00	ND	ND	ND	ND	ND	ND	ND	ND	ND	ND	ND	ND
66846	2017-09-13T05:00:00	ND	ND	ND	ND	ND	ND	ND	ND	ND	ND	ND	ND
66847	2017-09-13T06:00:00	ND	ND	ND	ND	ND	ND	ND	ND	ND	ND	ND	ND
66848	2017-09-13T07:00:00	ND	ND	ND	ND	ND	ND	ND	ND	ND	ND	ND	ND
66849	2017-09-13T08:00:00	ND	ND	ND	ND	ND	ND	ND	ND	ND	ND	ND	ND
66850	2017-09-13T09:00:00	ND	ND	ND	ND	ND	ND	ND	ND	ND	ND	ND	ND
66851	2017-09-13T10:00:00	ND	ND	ND	ND	ND	ND	ND	ND	ND	ND	ND	ND
66852	2017-09-13T11:00:00	ND	ND	ND	ND	ND	ND	ND	ND	ND	ND	ND	ND
66853	2017-09-13T12:00:00	ND	ND	ND	ND	ND	ND	ND	ND	ND	ND	ND	ND
66854	2017-09-13T13:00:00	ND	ND	ND	ND	ND	ND	ND	ND	ND	ND	ND	ND
66855	2017-09-13T14:00:00	ND	ND	ND	ND	ND	ND	ND	ND	ND	ND	ND	ND
66856	2017-09-13T15:00:00	ND	ND	ND	ND	ND	ND	ND	ND	ND	ND	ND	ND
66857	2017-09-13T16:00:00	ND	ND	ND	ND	ND	ND	ND	ND	ND	ND	ND	ND
66858	2017-09-13T17:00:00	ND	ND	ND	ND	ND	ND	ND	ND	ND	ND	ND	ND
66859	2017-09-13T18:00:00	ND	ND	ND	ND	ND	ND	ND	ND	ND	ND	ND	ND
66860	2017-09-13T19:00:00	ND	ND	ND	ND	ND	ND	ND	ND	ND	ND	ND	ND
66861	2017-09-13T20:00:00	ND	ND	ND	ND	ND	ND	ND	ND	ND	ND	ND	ND
66862	2017-09-13T21:00:00	ND	ND	ND	ND	ND	ND	ND	ND	ND	ND	ND	ND
66863	2017-09-13T22:00:00	ND	ND	ND	ND	ND	ND	ND	ND	ND	ND	ND	ND
66864	2017-09-13T23:00:00	ND	ND	ND	ND	ND	ND	ND	ND	ND	ND	ND	ND
66865	2017-09-14T00:00:00	ND	ND	ND	ND	ND	ND	ND	ND	ND	ND	ND	ND
66866	2017-09-14T01:00:00	ND	ND	ND	ND	ND	ND	ND	ND	ND	ND	ND	ND
66867	2017-09-14T02:00:00	ND	ND	ND	ND	ND	ND	ND	ND	ND	ND	ND	ND
66868	2017-09-14T03:00:00	ND	ND	ND	ND	ND	ND	ND	ND	ND	ND	ND	ND
66869	2017-09-14T04:00:00	ND	ND	ND	ND	ND	ND	ND	ND	ND	ND	ND	ND
66870	2017-09-14T05:00:00	ND	ND	ND	ND	ND	ND	ND	ND	ND	ND	ND	ND
66871	2017-09-14T06:00:00	ND	ND	ND	ND	ND	ND	ND	ND	ND	ND	ND	ND
66872	2017-09-14T07:00:00	ND	ND	ND	ND	ND	ND	ND	ND	ND	ND	ND	ND
66873	2017-09-14T08:00:00	ND	ND	ND	ND	ND	ND	ND	ND	ND	ND	ND	ND
66874	2017-09-14T09:00:00	ND	ND	ND	ND	ND	ND	ND	ND	ND	ND	ND	ND
66875	2017-09-14T10:00:00	ND	ND	ND	ND	ND	ND	ND	ND	ND	ND	ND	ND
66876	2017-09-14T11:00:00	ND	ND	ND	ND	ND	ND	ND	ND	ND	ND	ND	ND
66877	2017-09-14T12:00:00	ND	ND	ND	ND	ND	ND	ND	ND	ND	ND	ND	ND
66878	2017-09-14T13:00:00	ND	ND	ND	ND	ND	ND	ND	ND	ND	ND	ND	ND
66879	2017-09-14T14:00:00	ND	ND	ND	ND	ND	ND	ND	ND	ND	ND	ND	ND
66880	2017-09-14T15:00:00	ND	ND	ND	ND	ND	ND	ND	ND	ND	ND	ND	ND
66881	2017-09-14T16:00:00	ND	ND	ND	ND	ND	ND	ND	ND	ND	ND	ND	ND
66882	2017-09-14T17:00:00	ND	ND	ND	ND	ND	ND	ND	ND	ND	ND	ND	ND
66883	2017-09-14T18:00:00	ND	ND	ND	ND	ND	ND	ND	ND	ND	ND	ND	ND
66884	2017-09-14T19:00:00	ND	ND	ND	ND	ND	ND	ND	ND	ND	ND	ND	ND
66885	2017-09-14T20:00:00	ND	ND	ND	ND	ND	ND	ND	ND	ND	ND	ND	ND
66886	2017-09-14T21:00:00	ND	ND	ND	ND	ND	ND	ND	ND	ND	ND	ND	ND
66887	2017-09-14T22:00:00	ND	ND	ND	ND	ND	ND	ND	ND	ND	ND	ND	ND
66888	2017-09-14T23:00:00	ND	ND	ND	ND	ND	ND	ND	ND	ND	ND	ND	ND
66889	2017-09-15T00:00:00	ND	ND	ND	ND	ND	ND	ND	ND	ND	ND	ND	ND
66890	2017-09-15T01:00:00	ND	ND	ND	ND	ND	ND	ND	ND	ND	ND	ND	ND
66891	2017-09-15T02:00:00	ND	ND	ND	ND	ND	ND	ND	ND	ND	ND	ND	ND
66892	2017-09-15T03:00:00	ND	ND	ND	ND	ND	ND	ND	ND	ND	ND	ND	ND
66893	2017-09-15T04:00:00	ND	ND	ND	ND	ND	ND	ND	ND	ND	ND	ND	ND
66894	2017-09-15T05:00:00	ND	ND	ND	ND	ND	ND	ND	ND	ND	ND	ND	ND
66895	2017-09-15T06:00:00	ND	ND	ND	ND	ND	ND	ND	ND	ND	ND	ND	ND
66896	2017-09-15T07:00:00	ND	ND	ND	ND	ND	ND	ND	ND	ND	ND	ND	ND
66897	2017-09-15T08:00:00	ND	ND	ND	ND	ND	ND	ND	ND	ND	ND	ND	ND
66898	2017-09-15T09:00:00	ND	ND	ND	ND	ND	ND	ND	ND	ND	ND	ND	ND
66899	2017-09-15T10:00:00	ND	ND	ND	ND	ND	ND	ND	ND	ND	ND	ND	ND
66900	2017-09-15T11:00:00	ND	ND	ND	ND	ND	ND	ND	ND	ND	ND	ND	ND
66901	2017-09-15T12:00:00	ND	ND	ND	ND	ND	ND	ND	ND	ND	ND	ND	ND
66902	2017-09-15T13:00:00	ND	ND	ND	ND	ND	ND	ND	ND	ND	ND	ND	ND
66903	2017-09-15T14:00:00	ND	ND	ND	ND	ND	ND	ND	ND	ND	ND	ND	ND
66904	2017-09-15T15:00:00	ND	ND	ND	ND	ND	ND	ND	ND	ND	ND	ND	ND
66905	2017-09-15T16:00:00	ND	ND	ND	ND	ND	ND	ND	ND	ND	ND	ND	ND
66906	2017-09-15T17:00:00	ND	ND	ND	ND	ND	ND	ND	ND	ND	ND	ND	ND
66907	2017-09-15T18:00:00	ND	ND	ND	ND	ND	ND	ND	ND	ND	ND	ND	ND
66908	2017-09-15T19:00:00	ND	ND	ND	ND	ND	ND	ND	ND	ND	ND	ND	ND
66909	2017-09-15T20:00:00	ND	ND	ND	ND	ND	ND	ND	ND	ND	ND	ND	ND
66910	2017-09-15T21:00:00	ND	ND	ND	ND	ND	ND	ND	ND	ND	ND	ND	ND
66911	2017-09-15T22:00:00	ND	ND	ND	ND	ND	ND	ND	ND	ND	ND	ND	ND
66912	2017-09-15T23:00:00	ND	ND	ND	ND	ND	ND	ND	ND	ND	ND	ND	ND
66913	2017-09-16T00:00:00	ND	ND	ND	ND	ND	ND	ND	ND	ND	ND	ND	ND
66914	2017-09-16T01:00:00	ND	ND	ND	ND	ND	ND	ND	ND	ND	ND	ND	ND
66915	2017-09-16T02:00:00	ND	ND	ND	ND	ND	ND	ND	ND	ND	ND	ND	ND
66916	2017-09-16T03:00:00	ND	ND	ND	ND	ND	ND	ND	ND	ND	ND	ND	ND
66917	2017-09-16T04:00:00	ND	ND	ND	ND	ND	ND	ND	ND	ND	ND	ND	ND
66918	2017-09-16T05:00:00	ND	ND	ND	ND	ND	ND	ND	ND	ND	ND	ND	ND
66919	2017-09-16T06:00:00	ND	ND	ND	ND	ND	ND	ND	ND	ND	ND	ND	ND
66920	2017-09-16T07:00:00	ND	ND	ND	ND	ND	ND	ND	ND	ND	ND	ND	ND
66921	2017-09-16T08:00:00	ND	ND	ND	ND	ND	ND	ND	ND	ND	ND	ND	ND
66922	2017-09-16T09:00:00	ND	ND	ND	ND	ND	ND	ND	ND	ND	ND	ND	ND
66923	2017-09-16T10:00:00	ND	ND	ND	ND	ND	ND	ND	ND	ND	ND	ND	ND
66924	2017-09-16T11:00:00	ND	ND	ND	ND	3.08	ND	ND	ND	ND	ND	644	0
66925	2017-09-16T12:00:00	ND	ND	ND	ND	2.91	71.04	ND	ND	ND	ND	648	0
66926	2017-09-16T13:00:00	ND	ND	ND	ND	2.56	65.80	ND	ND	ND	ND	645	0
66927	2017-09-16T14:00:00	ND	ND	ND	ND	3.18	44.80	ND	ND	ND	ND	643.1	0
66928	2017-09-16T15:00:00	ND	ND	ND	ND	3.39	71.78	ND	ND	ND	ND	636.4	0
66929	2017-09-16T16:00:00	72.7	ND	ND	ND	1.97	65.82	ND	ND	ND	ND	625.9	0
66930	2017-09-16T17:00:00	ND	ND	ND	ND	2.13	33.36	ND	ND	ND	ND	479.3	0
66931	2017-09-16T18:00:00	ND	ND	ND	ND	1.91	26.73	ND	ND	ND	ND	153.4	0
66932	2017-09-16T19:00:00	ND	ND	ND	ND	2.04	23.33	ND	ND	ND	ND	0	0
66933	2017-09-16T20:00:00	31.7	ND	ND	ND	3.36	25.90	ND	ND	ND	ND	0	0
66934	2017-09-16T21:00:00	33.9	ND	ND	ND	2.48	30.24	ND	ND	ND	ND	0	0
66935	2017-09-16T22:00:00	21.8	ND	ND	ND	2.82	25.22	ND	ND	ND	ND	0	0
66936	2017-09-16T23:00:00	6.4	ND	ND	ND	3.29	10.42	ND	ND	ND	ND	0	0
66937	2017-09-17T00:00:00	51.2	ND	ND	ND	2.79	9.48	ND	ND	ND	ND	0	0
66938	2017-09-17T01:00:00	59.1	ND	ND	ND	2.50	10.03	ND	ND	ND	ND	0	0
66939	2017-09-17T02:00:00	28.7	ND	ND	ND	2.91	7.48	ND	ND	ND	ND	0	0
66940	2017-09-17T03:00:00	52.4	ND	ND	ND	4.11	8.08	ND	ND	ND	ND	0	0
66941	2017-09-17T04:00:00	45.7	ND	ND	ND	3.25	8.81	ND	ND	ND	ND	0	0
66942	2017-09-17T05:00:00	37.6	ND	ND	ND	5.16	6.57	ND	ND	ND	ND	0	0
66943	2017-09-17T06:00:00	70	ND	ND	ND	4.89	8.10	ND	ND	ND	ND	0	0
66944	2017-09-17T07:00:00	82	ND	ND	ND	2.79	9.20	ND	ND	ND	ND	86.4	0
66945	2017-09-17T08:00:00	39.6	ND	ND	ND	4.52	14.46	ND	ND	ND	ND	339.9	0
66946	2017-09-17T09:00:00	47.6	ND	ND	ND	3.36	17.92	ND	ND	ND	ND	542.4	0
66947	2017-09-17T10:00:00	66.1	ND	ND	ND	3.71	37.80	ND	ND	ND	ND	645.7	0
66948	2017-09-17T11:00:00	63.1	ND	ND	ND	3.94	32.26	ND	ND	ND	ND	596.5	0
66949	2017-09-17T12:00:00	33.3	ND	ND	ND	2.75	42.15	ND	ND	ND	ND	645.6	0
66950	2017-09-17T13:00:00	43.1	ND	ND	ND	4.32	45.39	ND	ND	ND	ND	645.9	0
66951	2017-09-17T14:00:00	76.8	ND	ND	ND	2.59	99.12	ND	ND	ND	ND	646.1	0
66952	2017-09-17T15:00:00	31.8	ND	ND	ND	2.62	117.74	ND	ND	ND	ND	646.3	0
66953	2017-09-17T16:00:00	2	ND	ND	ND	2.17	88.86	ND	ND	ND	ND	367.5	0
66954	2017-09-17T17:00:00	ND	ND	ND	ND	2.90	39.52	ND	ND	ND	ND	274.7	0
66955	2017-09-17T18:00:00	ND	ND	ND	ND	2.62	37.25	ND	ND	ND	ND	62.8	0
66956	2017-09-17T19:00:00	24.3	ND	ND	ND	2.30	29.38	ND	ND	ND	ND	0	0
66957	2017-09-17T20:00:00	59.1	ND	ND	ND	4.07	27.02	ND	ND	ND	ND	0	0
66958	2017-09-17T21:00:00	52.5	ND	ND	ND	3.37	26.67	ND	ND	ND	ND	0	0
66959	2017-09-17T22:00:00	33.5	ND	ND	ND	2.34	21.80	ND	ND	ND	ND	0	0
66960	2017-09-17T23:00:00	87.8	ND	ND	ND	3.88	7.77	ND	ND	ND	ND	0	0
66961	2017-09-18T00:00:00	75.8	ND	ND	ND	3.93	12.74	ND	ND	ND	ND	0	0
66962	2017-09-18T01:00:00	25.4	ND	ND	ND	2.58	18.37	ND	ND	ND	ND	0	0
66963	2017-09-18T02:00:00	49.3	ND	ND	ND	4.54	12.30	ND	ND	ND	ND	0	0
66964	2017-09-18T03:00:00	38.7	ND	ND	ND	5.03	12.72	ND	ND	ND	ND	0	0
66965	2017-09-18T04:00:00	28.4	ND	ND	ND	5.12	13.15	ND	ND	ND	ND	0	0
66966	2017-09-18T05:00:00	13.1	ND	ND	ND	3.83	9.60	ND	ND	ND	ND	0	0
66967	2017-09-18T06:00:00	15.5	ND	ND	ND	3.12	7.48	ND	ND	ND	ND	0	0
66968	2017-09-18T07:00:00	27.9	ND	ND	ND	3.54	7.12	ND	ND	ND	ND	101.8	0
66969	2017-09-18T08:00:00	107.2	ND	ND	ND	8.93	8.46	ND	ND	ND	ND	405.8	0
66970	2017-09-18T09:00:00	133.8	ND	ND	ND	2.84	17.17	ND	ND	ND	ND	645.5	0
66971	2017-09-18T10:00:00	111.7	ND	ND	ND	4.10	48.00	ND	ND	ND	ND	646.3	0
66972	2017-09-18T11:00:00	80.2	ND	ND	ND	2.13	73.69	ND	ND	ND	ND	646.7	0
66973	2017-09-18T12:00:00	42.5	ND	ND	ND	1.76	91.15	ND	ND	ND	ND	646.5	0
66974	2017-09-18T13:00:00	50.3	ND	ND	ND	1.97	91.84	ND	ND	ND	ND	646.5	0
66975	2017-09-18T14:00:00	17.2	ND	ND	ND	1.53	104.40	ND	ND	ND	ND	646.5	0
66976	2017-09-18T15:00:00	ND	ND	ND	ND	1.41	106.32	ND	ND	ND	ND	642.3	0
66977	2017-09-18T16:00:00	18.6	ND	ND	ND	3.93	67.17	ND	ND	ND	ND	618.1	0
66978	2017-09-18T17:00:00	49.7	ND	ND	ND	3.47	48.71	ND	ND	ND	ND	518.5	0
66979	2017-09-18T18:00:00	75.2	ND	ND	ND	2.94	30.89	ND	ND	ND	ND	100.2	0
66980	2017-09-18T19:00:00	53.3	ND	ND	ND	1.94	29.65	ND	ND	ND	ND	0	0
66981	2017-09-18T20:00:00	44.3	ND	ND	ND	2.17	25.88	ND	ND	ND	ND	0	0
66982	2017-09-18T21:00:00	16.3	ND	ND	ND	3.21	26.45	ND	ND	ND	ND	0	0
66983	2017-09-18T22:00:00	11.1	ND	ND	ND	3.75	31.50	ND	ND	ND	ND	0	0
66984	2017-09-18T23:00:00	17.4	ND	ND	ND	2.72	24.84	ND	ND	ND	ND	0	0
66985	2017-09-19T00:00:00	9.2	ND	ND	ND	2.50	40.27	ND	ND	ND	ND	0	5.08
66986	2017-09-19T01:00:00	7	ND	ND	ND	3.36	23.25	ND	ND	ND	ND	0	2.54
66987	2017-09-19T02:00:00	47.6	ND	ND	ND	2.43	18.76	ND	ND	ND	ND	0	30.99
66988	2017-09-19T03:00:00	26.3	ND	ND	ND	3.50	13.21	ND	ND	ND	ND	0	9.14
66989	2017-09-19T04:00:00	16.5	ND	ND	ND	7.37	7.50	ND	ND	ND	ND	0	4.57
66990	2017-09-19T05:00:00	20.8	ND	ND	ND	5.67	8.87	ND	ND	ND	ND	0	0
66991	2017-09-19T06:00:00	14.9	ND	ND	ND	2.82	6.73	ND	ND	ND	ND	4	0.51
66992	2017-09-19T07:00:00	11.3	ND	ND	ND	4.20	8.10	ND	ND	ND	ND	222.6	0
66993	2017-09-19T08:00:00	32.1	ND	ND	ND	4.46	9.16	ND	ND	ND	ND	452.4	0
66994	2017-09-19T09:00:00	62.1	ND	ND	ND	4.15	15.74	ND	ND	ND	ND	638.9	0
66995	2017-09-19T10:00:00	57.2	ND	ND	ND	3.35	26.96	ND	ND	ND	ND	619.4	0
66996	2017-09-19T11:00:00	61.8	ND	ND	ND	3.05	52.89	ND	ND	ND	ND	646.8	0
66997	2017-09-19T12:00:00	70	ND	ND	ND	1.69	79.69	ND	ND	ND	ND	646.9	0
66998	2017-09-19T13:00:00	61.7	ND	ND	ND	3.39	96.92	ND	ND	ND	ND	647.4	0
66999	2017-09-19T14:00:00	53.5	ND	ND	ND	1.17	112.86	ND	ND	ND	ND	646.8	0
67000	2017-09-19T15:00:00	27.8	ND	ND	ND	2.61	126.20	ND	ND	ND	ND	647.4	0
67001	2017-09-19T16:00:00	30.9	ND	ND	ND	1.70	101.77	ND	ND	ND	ND	646.9	0
67002	2017-09-19T17:00:00	36	ND	ND	ND	1.88	79.22	ND	ND	ND	ND	586.4	0
67003	2017-09-19T18:00:00	43.6	ND	ND	ND	3.09	52.71	ND	ND	ND	ND	218.7	0
67004	2017-09-19T19:00:00	73.1	ND	ND	ND	3.29	34.15	ND	ND	ND	ND	0	0
67005	2017-09-19T20:00:00	38.7	ND	ND	ND	2.40	30.95	ND	ND	ND	ND	0	0
67006	2017-09-19T21:00:00	21.6	ND	ND	ND	3.85	35.19	ND	ND	ND	ND	0	0
67007	2017-09-19T22:00:00	12.8	ND	ND	ND	2.15	26.85	ND	ND	ND	ND	0	0
67008	2017-09-19T23:00:00	7	ND	ND	ND	2.82	29.51	ND	ND	ND	ND	0	0
67009	2017-09-20T00:00:00	15.7	ND	ND	ND	4.27	12.66	ND	ND	ND	ND	0	0
67010	2017-09-20T01:00:00	36.4	ND	ND	ND	3.12	10.56	ND	ND	ND	ND	0	0
67011	2017-09-20T02:00:00	43.6	ND	ND	ND	4.15	18.80	ND	ND	ND	ND	0	0
67012	2017-09-20T03:00:00	16.5	ND	ND	ND	3.12	16.58	ND	ND	ND	ND	0	0
67013	2017-09-20T04:00:00	38.2	ND	ND	ND	3.19	9.79	ND	ND	ND	ND	0	0
67014	2017-09-20T05:00:00	40.8	ND	ND	ND	3.47	10.58	ND	ND	ND	ND	0	0
67015	2017-09-20T06:00:00	46.3	ND	ND	ND	4.89	8.52	ND	ND	ND	ND	0	0
67016	2017-09-20T07:00:00	71.5	ND	ND	ND	4.20	7.65	ND	ND	ND	ND	67.2	0
67017	2017-09-20T08:00:00	108.3	ND	ND	ND	3.22	8.30	ND	ND	ND	ND	378	0
67018	2017-09-20T09:00:00	113.9	ND	ND	ND	2.51	16.48	ND	ND	ND	ND	576.9	0
67019	2017-09-20T10:00:00	92.4	ND	ND	ND	3.05	24.82	ND	ND	ND	ND	626.3	0
67020	2017-09-20T11:00:00	100.7	ND	ND	ND	2.48	32.71	ND	ND	ND	ND	600.3	0
67021	2017-09-20T12:00:00	62.8	ND	ND	ND	2.33	55.79	ND	ND	ND	ND	647.1	0
67022	2017-09-20T13:00:00	43.9	ND	ND	ND	1.78	74.49	ND	ND	ND	ND	647.1	0
67023	2017-09-20T14:00:00	26.4	ND	ND	ND	1.31	81.71	ND	ND	ND	ND	636.8	0
67024	2017-09-20T15:00:00	11.4	ND	ND	ND	2.36	66.09	ND	ND	ND	ND	574	0
67025	2017-09-20T16:00:00	9.7	ND	ND	ND	2.76	44.98	ND	ND	ND	ND	646.9	0
67026	2017-09-20T17:00:00	20.9	ND	ND	ND	1.83	38.46	ND	ND	ND	ND	606.7	0
67027	2017-09-20T18:00:00	23.6	ND	ND	ND	2.86	34.75	ND	ND	ND	ND	117.1	0
67028	2017-09-20T19:00:00	32.1	ND	ND	ND	2.97	29.12	ND	ND	ND	ND	0	0
67029	2017-09-20T20:00:00	21.9	ND	ND	ND	2.50	21.57	ND	ND	ND	ND	0	0
67030	2017-09-20T21:00:00	20.8	ND	ND	ND	3.21	25.12	ND	ND	ND	ND	0	0
67031	2017-09-20T22:00:00	31.6	ND	ND	ND	4.03	8.46	ND	ND	ND	ND	0	0
67032	2017-09-20T23:00:00	70.2	ND	ND	ND	3.72	7.97	ND	ND	ND	ND	0	0
67033	2017-09-21T00:00:00	68.3	ND	ND	ND	4.64	7.77	ND	ND	ND	ND	0	0
67034	2017-09-21T01:00:00	55.5	ND	ND	ND	3.29	14.97	ND	ND	ND	ND	0	0
67035	2017-09-21T02:00:00	32.2	ND	ND	ND	2.58	9.89	ND	ND	ND	ND	0	0
67036	2017-09-21T03:00:00	34.1	ND	ND	ND	4.24	12.30	ND	ND	ND	ND	0	0
67037	2017-09-21T04:00:00	13.7	ND	ND	ND	3.18	19.51	ND	ND	ND	ND	0	0
67038	2017-09-21T05:00:00	9	ND	ND	ND	4.99	10.83	ND	ND	ND	ND	0	0
67039	2017-09-21T06:00:00	58.4	ND	ND	ND	4.74	9.93	ND	ND	ND	ND	0	0
67040	2017-09-21T07:00:00	48.8	ND	ND	ND	1.41	7.30	ND	ND	ND	ND	140.7	0
67041	2017-09-21T08:00:00	83.9	ND	ND	ND	4.92	10.62	ND	ND	ND	ND	376.5	0
67042	2017-09-21T09:00:00	98	ND	ND	ND	2.43	24.14	ND	ND	ND	ND	624.9	0
67043	2017-09-21T10:00:00	76.5	ND	ND	ND	3.53	55.59	ND	ND	ND	ND	644.4	0
67044	2017-09-21T11:00:00	71.6	ND	ND	ND	3.61	77.87	ND	ND	ND	ND	646.9	0
67045	2017-09-21T12:00:00	56	ND	ND	ND	1.66	79.67	ND	ND	ND	ND	646.6	0
67046	2017-09-21T13:00:00	43.6	ND	ND	ND	3.08	93.49	ND	ND	ND	ND	628.5	0
67047	2017-09-21T14:00:00	36	ND	ND	ND	2.26	71.18	ND	ND	ND	ND	646	0
67048	2017-09-21T15:00:00	15.4	ND	ND	ND	1.20	43.07	ND	ND	ND	ND	643.2	0
67049	2017-09-21T16:00:00	5.9	ND	ND	ND	1.42	33.40	ND	ND	ND	ND	628.9	0
67050	2017-09-21T17:00:00	19.6	ND	ND	ND	1.62	24.37	ND	ND	ND	ND	324	0
67051	2017-09-21T18:00:00	35.4	ND	ND	ND	2.56	19.33	ND	ND	ND	ND	124.2	0
67052	2017-09-21T19:00:00	34.6	ND	ND	ND	2.05	20.98	ND	ND	ND	ND	0	0
67053	2017-09-21T20:00:00	22	ND	ND	ND	3.37	15.62	ND	ND	ND	ND	0	0
67054	2017-09-21T21:00:00	31.5	ND	ND	ND	2.50	14.42	ND	ND	ND	ND	0	0
67055	2017-09-21T22:00:00	19.4	ND	ND	ND	2.13	23.43	ND	ND	ND	ND	0	0
67056	2017-09-21T23:00:00	9.4	ND	ND	ND	2.50	18.58	ND	ND	ND	ND	0	0
67057	2017-09-22T00:00:00	22.9	ND	ND	ND	5.10	11.70	ND	ND	ND	ND	0	0
67058	2017-09-22T01:00:00	42.2	ND	ND	ND	3.29	9.81	ND	ND	ND	ND	0	0
67059	2017-09-22T02:00:00	45.9	ND	ND	ND	5.17	8.08	ND	ND	ND	ND	0	0
67060	2017-09-22T03:00:00	49.6	ND	ND	ND	6.22	8.85	ND	ND	ND	ND	0	0
67061	2017-09-22T04:00:00	45.6	ND	ND	ND	4.21	10.09	ND	ND	ND	ND	0	0
67062	2017-09-22T05:00:00	40.1	ND	ND	ND	5.12	8.34	ND	ND	ND	ND	0	0
67063	2017-09-22T06:00:00	52.4	ND	ND	ND	3.47	7.95	ND	ND	ND	ND	0	0
67064	2017-09-22T07:00:00	39	ND	ND	ND	4.45	7.59	ND	ND	ND	ND	91.1	0
67065	2017-09-22T08:00:00	66.6	ND	ND	ND	3.75	9.16	ND	ND	ND	ND	488.4	0
67066	2017-09-22T09:00:00	90.4	ND	ND	ND	2.19	14.29	ND	ND	ND	ND	532.5	0
67067	2017-09-22T10:00:00	74.2	ND	ND	ND	1.74	37.34	ND	ND	ND	ND	646.7	0
67068	2017-09-22T11:00:00	62.7	ND	ND	ND	1.55	65.80	ND	ND	ND	ND	647.2	0
67069	2017-09-22T12:00:00	62.3	ND	ND	ND	1.76	96.71	ND	ND	ND	ND	647.6	0
67070	2017-09-22T13:00:00	62.3	ND	ND	ND	1.41	93.53	ND	ND	ND	ND	646.9	0
67071	2017-09-22T14:00:00	59.6	ND	ND	ND	2.44	102.87	ND	ND	ND	ND	647.2	0
67072	2017-09-22T15:00:00	48.2	ND	ND	ND	2.69	76.92	ND	ND	ND	ND	647.6	0
67073	2017-09-22T16:00:00	18.3	ND	ND	ND	0.74	41.52	ND	ND	ND	ND	646.3	0
67074	2017-09-22T17:00:00	27.6	ND	ND	ND	1.99	30.85	ND	ND	ND	ND	591.4	0
67075	2017-09-22T18:00:00	42.3	ND	ND	ND	2.30	23.96	ND	ND	ND	ND	82.2	0
67076	2017-09-22T19:00:00	37.7	ND	ND	ND	2.76	23.76	ND	ND	ND	ND	0	0
67077	2017-09-22T20:00:00	ND	ND	ND	ND	ND	24.33	ND	ND	ND	ND	0	0
67078	2017-09-22T21:00:00	7.1	ND	ND	ND	2.70	27.65	ND	ND	ND	ND	0	0
67079	2017-09-22T22:00:00	19	ND	ND	ND	2.68	20.72	ND	ND	ND	ND	0	0
67080	2017-09-22T23:00:00	28.1	ND	ND	ND	2.69	16.48	ND	ND	ND	ND	0	0
67081	2017-09-23T00:00:00	25.9	ND	ND	ND	3.39	7.59	ND	ND	ND	ND	0	0
67082	2017-09-23T01:00:00	50.6	ND	ND	ND	4.11	15.52	ND	ND	ND	ND	0	0
67083	2017-09-23T02:00:00	28.8	ND	ND	ND	1.73	20.88	ND	ND	ND	ND	0	0
67084	2017-09-23T03:00:00	45.4	ND	ND	ND	4.27	14.01	ND	ND	ND	ND	0	0
67085	2017-09-23T04:00:00	51.6	ND	ND	ND	4.29	11.62	ND	ND	ND	ND	0	0
67086	2017-09-23T05:00:00	43.2	ND	ND	ND	3.44	11.42	ND	ND	ND	ND	0	3.05
67087	2017-09-23T06:00:00	28.4	ND	ND	ND	2.41	9.97	ND	ND	ND	ND	0	0.25
67088	2017-09-23T07:00:00	31.1	ND	ND	ND	0.95	8.48	ND	ND	ND	ND	118	0
67089	2017-09-23T08:00:00	37.7	ND	ND	ND	4.31	9.58	ND	ND	ND	ND	366.7	0
67090	2017-09-23T09:00:00	62.8	ND	ND	ND	2.44	12.66	ND	ND	ND	ND	560.1	0
67091	2017-09-23T10:00:00	82.5	ND	ND	ND	4.34	20.78	ND	ND	ND	ND	588.3	0
67092	2017-09-23T11:00:00	87	ND	ND	ND	1.71	45.96	ND	ND	ND	ND	646.2	0
67093	2017-09-23T12:00:00	93.1	ND	ND	ND	1.31	77.47	ND	ND	ND	ND	646.3	0
67094	2017-09-23T13:00:00	69.9	ND	ND	ND	1.67	99.88	ND	ND	ND	ND	646.6	0
67095	2017-09-23T14:00:00	65.2	ND	ND	ND	0.60	82.56	ND	ND	ND	ND	647.2	0
67096	2017-09-23T15:00:00	61.1	ND	ND	ND	1.16	56.14	ND	ND	ND	ND	301.6	0
67097	2017-09-23T16:00:00	36.6	ND	ND	ND	1.23	37.03	ND	ND	ND	ND	418.5	0
67098	2017-09-23T17:00:00	15.5	ND	ND	ND	2.29	30.04	ND	ND	ND	ND	585.6	0
67099	2017-09-23T18:00:00	36.2	ND	ND	ND	0.86	27.92	ND	ND	ND	ND	188.5	0
67100	2017-09-23T19:00:00	11.3	ND	ND	ND	1.23	22.74	ND	ND	ND	ND	0	0
67101	2017-09-23T20:00:00	11.8	ND	ND	ND	1.60	24.14	ND	ND	ND	ND	0	0
67102	2017-09-23T21:00:00	25.9	ND	ND	ND	2.50	33.54	ND	ND	ND	ND	0	12.45
67103	2017-09-23T22:00:00	17.1	ND	ND	ND	1.85	22.12	ND	ND	ND	ND	0	34.29
67104	2017-09-23T23:00:00	14.8	ND	ND	ND	2.02	13.09	ND	ND	ND	ND	0	2.29
67105	2017-09-24T00:00:00	19.7	ND	ND	ND	2.75	7.54	ND	ND	ND	ND	0	3.05
67106	2017-09-24T01:00:00	27.9	ND	ND	ND	3.05	7.69	ND	ND	ND	ND	0	0.25
67107	2017-09-24T02:00:00	20.2	ND	ND	ND	1.46	8.16	ND	ND	ND	ND	0	3.05
67108	2017-09-24T03:00:00	26.5	ND	ND	ND	3.96	11.30	ND	ND	ND	ND	0	17.53
67109	2017-09-24T04:00:00	4.8	ND	ND	ND	3.46	9.71	ND	ND	ND	ND	0	2.03
67110	2017-09-24T05:00:00	2.2	ND	ND	ND	2.89	7.93	ND	ND	ND	ND	0	0
67111	2017-09-24T06:00:00	19.6	ND	ND	ND	2.77	7.75	ND	ND	ND	ND	0	0.25
67112	2017-09-24T07:00:00	25.3	ND	ND	ND	3.47	8.40	ND	ND	ND	ND	146	0
67113	2017-09-24T08:00:00	22.6	ND	ND	ND	3.36	12.78	ND	ND	ND	ND	479.3	0
67114	2017-09-24T09:00:00	20.4	ND	ND	ND	4.00	37.01	ND	ND	ND	ND	645.5	0
67115	2017-09-24T10:00:00	23.1	ND	ND	ND	3.61	50.02	ND	ND	ND	ND	646.2	0
67116	2017-09-24T11:00:00	30.1	ND	ND	ND	3.30	59.11	ND	ND	ND	ND	646.7	0
67117	2017-09-24T12:00:00	28.3	ND	ND	ND	2.13	78.26	ND	ND	ND	ND	646.7	0
67118	2017-09-24T13:00:00	31.4	ND	ND	ND	2.17	74.45	ND	ND	ND	ND	647.5	0
67119	2017-09-24T14:00:00	29.4	ND	ND	ND	1.95	79.08	ND	ND	ND	ND	647.1	0
67120	2017-09-24T15:00:00	29.2	ND	ND	ND	1.97	96.39	ND	ND	ND	ND	645.7	0
67121	2017-09-24T16:00:00	52.7	ND	ND	ND	2.47	95.37	ND	ND	ND	ND	647.2	0
67122	2017-09-24T17:00:00	34.4	ND	ND	ND	1.41	80.58	ND	ND	ND	ND	302	0
67123	2017-09-24T18:00:00	21.3	ND	ND	ND	2.17	37.56	ND	ND	ND	ND	112.9	0
67124	2017-09-24T19:00:00	18.9	ND	ND	ND	1.94	32.01	ND	ND	ND	ND	0	0
67125	2017-09-24T20:00:00	17.4	ND	ND	ND	1.95	32.67	ND	ND	ND	ND	0	0
67126	2017-09-24T21:00:00	12.2	ND	ND	ND	3.82	28.49	ND	ND	ND	ND	0	0
67127	2017-09-24T22:00:00	17.8	ND	ND	ND	3.50	17.31	ND	ND	ND	ND	0	0
67128	2017-09-24T23:00:00	32.1	ND	ND	ND	2.75	7.40	ND	ND	ND	ND	0	0
67129	2017-09-25T00:00:00	33.5	ND	ND	ND	2.91	7.52	ND	ND	ND	ND	0	0
67130	2017-09-25T01:00:00	22.9	ND	ND	ND	2.06	24.71	ND	ND	ND	ND	0	0
67131	2017-09-25T02:00:00	8	ND	ND	ND	4.21	12.52	ND	ND	ND	ND	0	0
67132	2017-09-25T03:00:00	33.9	ND	ND	ND	5.38	9.52	ND	ND	ND	ND	0	5.08
67133	2017-09-25T04:00:00	31.1	ND	ND	ND	4.78	20.86	ND	ND	ND	ND	0	38.1
67134	2017-09-25T05:00:00	10.9	ND	ND	ND	3.75	11.85	ND	ND	ND	ND	0	0
67135	2017-09-25T06:00:00	14.2	ND	ND	ND	2.37	8.03	ND	ND	ND	ND	0	0.25
67136	2017-09-25T07:00:00	31.2	ND	ND	ND	3.94	7.85	ND	ND	ND	ND	75.3	0
67137	2017-09-25T08:00:00	47.5	ND	ND	ND	3.29	9.24	ND	ND	ND	ND	320.3	0
67138	2017-09-25T09:00:00	54.5	ND	ND	ND	1.84	12.89	ND	ND	ND	ND	618.6	0
67139	2017-09-25T10:00:00	72	ND	ND	ND	2.56	26.22	ND	ND	ND	ND	647	0
67140	2017-09-25T11:00:00	55.3	ND	ND	ND	3.90	60.95	ND	ND	ND	ND	646.7	0
67141	2017-09-25T12:00:00	55.5	ND	ND	ND	2.61	87.99	ND	ND	ND	ND	646.6	0
67142	2017-09-25T13:00:00	49.1	ND	ND	ND	1.64	117.78	ND	ND	ND	ND	647.2	0
67143	2017-09-25T14:00:00	46.4	ND	ND	ND	2.68	108.03	ND	ND	ND	ND	636	0
67144	2017-09-25T15:00:00	41.3	ND	ND	ND	2.37	58.28	ND	ND	ND	ND	647.8	0
67145	2017-09-25T16:00:00	27.1	ND	ND	ND	1.90	35.54	ND	ND	ND	ND	405.4	0
67146	2017-09-25T17:00:00	12.7	ND	ND	ND	1.62	29.53	ND	ND	ND	ND	486	0
67147	2017-09-25T18:00:00	10.8	ND	ND	ND	3.81	26.04	ND	ND	ND	ND	102.7	0
67148	2017-09-25T19:00:00	5.3	ND	ND	ND	3.02	27.59	ND	ND	ND	ND	0	0
67149	2017-09-25T20:00:00	17.1	ND	ND	ND	3.42	20.51	ND	ND	ND	ND	0	0
67150	2017-09-25T21:00:00	29.2	ND	ND	ND	1.66	18.03	ND	ND	ND	ND	0	0
67151	2017-09-25T22:00:00	40.2	ND	ND	ND	3.36	14.19	ND	ND	ND	ND	0	0
67152	2017-09-25T23:00:00	54.9	ND	ND	ND	4.66	9.20	ND	ND	ND	ND	0	0
67153	2017-09-26T00:00:00	46.7	ND	ND	ND	3.82	9.65	ND	ND	ND	ND	0	0
67154	2017-09-26T01:00:00	39.5	ND	ND	ND	4.91	8.03	ND	ND	ND	ND	0	0
67155	2017-09-26T02:00:00	30.9	ND	ND	ND	2.84	10.28	ND	ND	ND	ND	0	0
67156	2017-09-26T03:00:00	23.8	ND	ND	ND	4.81	12.72	ND	ND	ND	ND	0	0
67157	2017-09-26T04:00:00	27.3	ND	ND	ND	2.56	11.13	ND	ND	ND	ND	0	0
67158	2017-09-26T05:00:00	28.9	ND	ND	ND	2.47	13.82	ND	ND	ND	ND	0	0
67159	2017-09-26T06:00:00	37.8	ND	ND	ND	1.98	8.24	ND	ND	ND	ND	0	0
67160	2017-09-26T07:00:00	67.8	ND	ND	ND	3.30	7.24	ND	ND	ND	ND	179.8	0
67161	2017-09-26T08:00:00	73.7	ND	ND	ND	4.46	12.44	ND	ND	ND	ND	641	0
67162	2017-09-26T09:00:00	89.8	ND	ND	ND	2.38	26.83	ND	ND	ND	ND	645.4	0
67163	2017-09-26T10:00:00	73.5	ND	ND	ND	2.84	43.92	ND	ND	ND	ND	638.9	0
67164	2017-09-26T11:00:00	59.4	ND	ND	ND	1.49	76.98	ND	ND	ND	ND	647.2	0
67165	2017-09-26T12:00:00	40.4	ND	ND	ND	3.79	96.43	ND	ND	ND	ND	633.5	0
67166	2017-09-26T13:00:00	39.5	ND	ND	ND	2.90	99.20	ND	ND	ND	ND	647	0
67167	2017-09-26T14:00:00	44.8	ND	ND	ND	0.95	122.22	ND	ND	ND	ND	642.9	0
67168	2017-09-26T15:00:00	51.1	ND	ND	ND	0.96	102.08	ND	ND	ND	ND	466.6	0
67169	2017-09-26T16:00:00	41.8	ND	ND	ND	1.98	43.03	ND	ND	ND	ND	256.5	0
67170	2017-09-26T17:00:00	35.6	ND	ND	ND	2.52	32.26	ND	ND	ND	ND	213.3	0
67171	2017-09-26T18:00:00	30.1	ND	ND	ND	2.20	25.61	ND	ND	ND	ND	68	0
67172	2017-09-26T19:00:00	30.1	ND	ND	ND	2.93	19.51	ND	ND	ND	ND	0	0
67173	2017-09-26T20:00:00	19.4	ND	ND	ND	1.06	23.94	ND	ND	ND	ND	0	0
67174	2017-09-26T21:00:00	26.8	ND	ND	ND	2.52	16.11	ND	ND	ND	ND	0	0
67175	2017-09-26T22:00:00	49.7	ND	ND	ND	2.17	9.36	ND	ND	ND	ND	0	0
67176	2017-09-26T23:00:00	37.2	ND	ND	ND	0.24	15.56	ND	ND	ND	ND	0	0
67177	2017-09-27T00:00:00	34.3	ND	ND	ND	3.16	10.30	ND	ND	ND	ND	0	0
67178	2017-09-27T01:00:00	44.2	ND	ND	ND	4.52	9.89	ND	ND	ND	ND	0	0
67179	2017-09-27T02:00:00	41.9	ND	ND	ND	3.23	12.56	ND	ND	ND	ND	0	0
67180	2017-09-27T03:00:00	36.2	ND	ND	ND	3.62	8.52	ND	ND	ND	ND	0	0
67181	2017-09-27T04:00:00	36.8	ND	ND	ND	2.10	7.54	ND	ND	ND	ND	0	0
67182	2017-09-27T05:00:00	30.4	ND	ND	ND	3.78	7.28	ND	ND	ND	ND	0	0
67183	2017-09-27T06:00:00	32.7	ND	ND	ND	3.14	7.24	ND	ND	ND	ND	0	0
67184	2017-09-27T07:00:00	59.7	ND	ND	ND	4.68	7.44	ND	ND	ND	ND	140.8	0
67185	2017-09-27T08:00:00	67.6	ND	ND	ND	3.58	10.20	ND	ND	ND	ND	552	0
67186	2017-09-27T09:00:00	80.2	ND	ND	ND	1.99	22.35	ND	ND	ND	ND	646.7	0
67187	2017-09-27T10:00:00	66.4	ND	ND	ND	2.23	43.56	ND	ND	ND	ND	646.3	0
67188	2017-09-27T11:00:00	52.3	ND	ND	ND	ND	ND	ND	ND	ND	ND	647.4	0
67189	2017-09-27T12:00:00	31.4	ND	ND	ND	2.77	91.98	ND	ND	ND	ND	647.8	0
67190	2017-09-27T13:00:00	54.5	ND	ND	ND	2.56	111.52	ND	ND	ND	ND	634.9	0
67191	2017-09-27T14:00:00	65.3	ND	ND	ND	2.76	117.35	ND	ND	ND	ND	633.7	0
67192	2017-09-27T15:00:00	42.7	ND	ND	ND	1.58	91.51	ND	ND	ND	ND	613.5	0
67193	2017-09-27T16:00:00	37.2	ND	ND	ND	0.99	47.00	ND	ND	ND	ND	647.5	0
67194	2017-09-27T17:00:00	27.4	ND	ND	ND	2.89	40.54	ND	ND	ND	ND	647.9	0
67195	2017-09-27T18:00:00	26.4	ND	ND	ND	2.89	30.48	ND	ND	ND	ND	193.8	0
67196	2017-09-27T19:00:00	20.3	ND	ND	ND	2.38	27.65	ND	ND	ND	ND	0	0
67197	2017-09-27T20:00:00	14.6	ND	ND	ND	2.59	28.94	ND	ND	ND	ND	0	0
67198	2017-09-27T21:00:00	12.4	ND	ND	ND	3.14	32.24	ND	ND	ND	ND	0	0
67199	2017-09-27T22:00:00	11.7	ND	ND	ND	2.40	34.30	ND	ND	ND	ND	0	0
67200	2017-09-27T23:00:00	2.6	ND	ND	ND	1.88	29.69	ND	ND	ND	ND	0	0
67201	2017-09-28T00:00:00	11.8	ND	ND	ND	2.13	15.44	ND	ND	ND	ND	0	0
67202	2017-09-28T01:00:00	26.8	ND	ND	ND	3.21	18.92	ND	ND	ND	ND	0	0
67203	2017-09-28T02:00:00	28.6	ND	ND	ND	2.04	19.56	ND	ND	ND	ND	0	0
67204	2017-09-28T03:00:00	25.6	ND	ND	ND	3.07	22.08	ND	ND	ND	ND	0	0
67205	2017-09-28T04:00:00	23.7	ND	ND	ND	2.80	22.14	ND	ND	ND	ND	0	0
67206	2017-09-28T05:00:00	21.8	ND	ND	ND	2.26	23.86	ND	ND	ND	ND	0	0
67207	2017-09-28T06:00:00	31.6	ND	ND	ND	3.50	15.31	ND	ND	ND	ND	0	0
67208	2017-09-28T07:00:00	38.2	ND	ND	ND	2.90	13.32	ND	ND	ND	ND	104.4	0
67209	2017-09-28T08:00:00	42.2	ND	ND	ND	1.99	17.01	ND	ND	ND	ND	351.5	0
67210	2017-09-28T09:00:00	37	ND	ND	ND	1.09	23.80	ND	ND	ND	ND	553.7	0
67211	2017-09-28T10:00:00	30.4	ND	ND	ND	2.55	27.45	ND	ND	ND	ND	646.5	0
67212	2017-09-28T11:00:00	29.2	ND	ND	ND	1.62	38.52	ND	ND	ND	ND	646.6	0
67213	2017-09-28T12:00:00	44.3	ND	ND	ND	2.54	39.23	ND	ND	ND	ND	646.9	0
67214	2017-09-28T13:00:00	40.6	ND	ND	ND	2.51	52.12	ND	ND	ND	ND	647.1	0
67215	2017-09-28T14:00:00	35	ND	ND	ND	4.52	90.23	ND	ND	ND	ND	647.3	0
67216	2017-09-28T15:00:00	32.2	ND	ND	ND	2.36	54.02	ND	ND	ND	ND	647.2	0
67217	2017-09-28T16:00:00	25.6	ND	ND	ND	2.06	39.48	ND	ND	ND	ND	641.6	0
67218	2017-09-28T17:00:00	15.4	ND	ND	ND	2.01	34.11	ND	ND	ND	ND	366.8	0
67219	2017-09-28T18:00:00	39.1	ND	ND	ND	2.27	30.57	ND	ND	ND	ND	10.4	0
67220	2017-09-28T19:00:00	57.1	ND	ND	ND	2.54	30.30	ND	ND	ND	ND	0	0
67221	2017-09-28T20:00:00	48.7	ND	ND	ND	3.29	24.80	ND	ND	ND	ND	0	0.76
67222	2017-09-28T21:00:00	38.5	ND	ND	ND	1.52	20.06	ND	ND	ND	ND	0	0
67223	2017-09-28T22:00:00	38.2	ND	ND	ND	2.44	13.34	ND	ND	ND	ND	0	0
67224	2017-09-28T23:00:00	30.9	ND	ND	ND	3.23	12.91	ND	ND	ND	ND	0	0.25
67225	2017-09-29T00:00:00	22.4	ND	ND	ND	2.13	15.60	ND	ND	ND	ND	0	0
67226	2017-09-29T01:00:00	20.3	ND	ND	ND	3.78	19.41	ND	ND	ND	ND	0	0
67227	2017-09-29T02:00:00	33.8	ND	ND	ND	6.43	16.76	ND	ND	ND	ND	0	0
67228	2017-09-29T03:00:00	41.4	ND	ND	ND	6.75	19.11	ND	ND	ND	ND	0	0
67229	2017-09-29T04:00:00	41.4	ND	ND	ND	3.94	17.05	ND	ND	ND	ND	0	0
67230	2017-09-29T05:00:00	43.1	ND	ND	ND	2.72	12.93	ND	ND	ND	ND	0	0
67231	2017-09-29T06:00:00	54.6	ND	ND	ND	4.39	11.75	ND	ND	ND	ND	0	0
67232	2017-09-29T07:00:00	71.7	ND	ND	ND	3.39	12.68	ND	ND	ND	ND	95.9	0
67233	2017-09-29T08:00:00	58.2	ND	ND	ND	3.25	14.64	ND	ND	ND	ND	314.6	0
67234	2017-09-29T09:00:00	68	ND	ND	ND	3.22	21.74	ND	ND	ND	ND	559.4	0
67235	2017-09-29T10:00:00	83	ND	ND	ND	2.41	50.92	ND	ND	ND	ND	642.6	0
67236	2017-09-29T11:00:00	77.2	ND	ND	ND	2.41	71.71	ND	ND	ND	ND	646.7	0
67237	2017-09-29T12:00:00	71.3	ND	ND	ND	0.74	84.89	ND	ND	ND	ND	647	0
67238	2017-09-29T13:00:00	62.1	ND	ND	ND	1.64	104.03	ND	ND	ND	ND	647.2	0
67239	2017-09-29T14:00:00	54.1	ND	ND	ND	2.10	70.17	ND	ND	ND	ND	605.7	0
67240	2017-09-29T15:00:00	26.3	ND	ND	ND	1.55	43.11	ND	ND	ND	ND	647.4	0
67241	2017-09-29T16:00:00	17	ND	ND	ND	3.01	33.26	ND	ND	ND	ND	508.5	0
67242	2017-09-29T17:00:00	24.4	ND	ND	ND	2.89	24.47	ND	ND	ND	ND	228.9	0
67243	2017-09-29T18:00:00	20.2	ND	ND	ND	3.51	24.16	ND	ND	ND	ND	44.4	0
67244	2017-09-29T19:00:00	24.6	ND	ND	ND	3.14	13.66	ND	ND	ND	ND	0	0
67245	2017-09-29T20:00:00	44.1	ND	ND	ND	0.72	16.17	ND	ND	ND	ND	0	0
67246	2017-09-29T21:00:00	34.6	ND	ND	ND	3.75	18.05	ND	ND	ND	ND	0	0
67247	2017-09-29T22:00:00	24.8	ND	ND	ND	3.04	22.65	ND	ND	ND	ND	0	0.51
67248	2017-09-29T23:00:00	32.7	ND	ND	ND	2.36	23.04	ND	ND	ND	ND	0	0
67249	2017-09-30T00:00:00	41.9	ND	ND	ND	2.37	22.70	ND	ND	ND	ND	0	0.25
67250	2017-09-30T01:00:00	29.9	ND	ND	ND	3.35	19.27	ND	ND	ND	ND	0	0
67251	2017-09-30T02:00:00	28.2	ND	ND	ND	3.57	19.09	ND	ND	ND	ND	0	0
67252	2017-09-30T03:00:00	26.6	ND	ND	ND	1.56	20.92	ND	ND	ND	ND	0	0.25
67253	2017-09-30T04:00:00	27.1	ND	ND	ND	3.64	20.25	ND	ND	ND	ND	0	0
67254	2017-09-30T05:00:00	25.2	ND	ND	ND	2.48	19.00	ND	ND	ND	ND	0	0
67255	2017-09-30T06:00:00	35.6	ND	ND	ND	2.70	17.47	ND	ND	ND	ND	0	0
67256	2017-09-30T07:00:00	29.9	ND	ND	ND	3.75	18.66	ND	ND	ND	ND	12	0.76
67257	2017-09-30T08:00:00	34.7	ND	ND	ND	2.96	16.70	ND	ND	ND	ND	52.3	8.38
67258	2017-09-30T09:00:00	24.2	ND	ND	ND	2.58	12.56	ND	ND	ND	ND	119.5	4.32
67259	2017-09-30T10:00:00	19.5	ND	ND	ND	2.48	16.27	ND	ND	ND	ND	349.9	0.51
67260	2017-09-30T11:00:00	38.4	ND	ND	ND	5.48	27.16	ND	ND	ND	ND	646	0
67261	2017-09-30T12:00:00	53.7	ND	ND	ND	1.56	38.70	ND	ND	ND	ND	646.7	0
67262	2017-09-30T13:00:00	49.3	ND	ND	ND	2.76	53.04	ND	ND	ND	ND	646.9	0
67263	2017-09-30T14:00:00	47.2	ND	ND	ND	1.95	58.89	ND	ND	ND	ND	625.7	0
67264	2017-09-30T15:00:00	31.5	ND	ND	ND	2.56	52.04	ND	ND	ND	ND	630	0
67265	2017-09-30T16:00:00	43.6	ND	ND	ND	1.52	57.93	ND	ND	ND	ND	559.9	0
67266	2017-09-30T17:00:00	39.4	ND	ND	ND	0.00	62.50	ND	ND	ND	ND	434.2	0
67267	2017-09-30T18:00:00	37.4	ND	ND	ND	3.16	65.48	ND	ND	ND	ND	86.6	0
67268	2017-09-30T19:00:00	59.1	ND	ND	ND	1.87	37.05	ND	ND	ND	ND	0	0
67269	2017-09-30T20:00:00	54.3	ND	ND	ND	2.05	30.34	ND	ND	ND	ND	0	0
67270	2017-09-30T21:00:00	67.7	ND	ND	ND	2.26	22.45	ND	ND	ND	ND	0	0
67271	2017-09-30T22:00:00	78	ND	ND	ND	1.70	21.06	ND	ND	ND	ND	0	0
67272	2017-09-30T23:00:00	81.4	ND	ND	ND	3.54	18.13	ND	ND	ND	ND	0	0
67273	2017-10-01T00:00:00	85.6	ND	ND	ND	1.64	20.02	ND	ND	ND	ND	0	0
67274	2017-10-01T01:00:00	64.7	ND	ND	ND	5.38	15.70	ND	ND	ND	ND	0	0
67275	2017-10-01T02:00:00	58.2	ND	ND	ND	5.60	11.83	ND	ND	ND	ND	0	0
67276	2017-10-01T03:00:00	41.8	ND	ND	ND	5.32	11.58	ND	ND	ND	ND	0	0
67277	2017-10-01T04:00:00	33.6	ND	ND	ND	5.52	11.56	ND	ND	ND	ND	0	0
67278	2017-10-01T05:00:00	33.6	ND	ND	ND	5.77	11.87	ND	ND	ND	ND	0	0
67279	2017-10-01T06:00:00	52	ND	ND	ND	7.86	17.88	ND	ND	ND	ND	0	0
67280	2017-10-01T07:00:00	64	ND	ND	ND	8.15	15.74	ND	ND	ND	ND	58.5	0
67281	2017-10-01T08:00:00	74.6	ND	ND	ND	7.00	17.68	ND	ND	ND	ND	305.9	0
67282	2017-10-01T09:00:00	65.5	ND	ND	ND	7.39	24.80	ND	ND	ND	ND	522.5	0
67283	2017-10-01T10:00:00	73.7	ND	ND	ND	5.13	33.11	ND	ND	ND	ND	488.2	0
67284	2017-10-01T11:00:00	65.3	ND	ND	ND	6.06	72.65	ND	ND	ND	ND	646.9	0
67285	2017-10-01T12:00:00	73.9	ND	ND	ND	5.35	108.38	ND	ND	ND	ND	647.1	0
67286	2017-10-01T13:00:00	57.2	ND	ND	ND	6.16	109.21	ND	ND	ND	ND	647.4	0
67287	2017-10-01T14:00:00	46.8	ND	ND	ND	4.07	102.16	ND	ND	ND	ND	648.2	0
67288	2017-10-01T15:00:00	37.4	ND	ND	ND	6.55	71.92	ND	ND	ND	ND	596.7	0
67289	2017-10-01T16:00:00	21.8	ND	ND	ND	5.97	41.68	ND	ND	ND	ND	644.7	0
67290	2017-10-01T17:00:00	5	ND	ND	ND	5.55	36.54	ND	ND	ND	ND	473.3	0
67291	2017-10-01T18:00:00	4.4	ND	ND	ND	4.22	34.03	ND	ND	ND	ND	95.9	0
67292	2017-10-01T19:00:00	3.7	ND	ND	ND	6.33	33.24	ND	ND	ND	ND	0	0
67293	2017-10-01T20:00:00	6.7	ND	ND	ND	6.27	34.56	ND	ND	ND	ND	0	0
67294	2017-10-01T21:00:00	10.5	ND	ND	ND	5.67	31.10	ND	ND	ND	ND	0	0
67295	2017-10-01T22:00:00	19.1	ND	ND	ND	6.12	24.75	ND	ND	ND	ND	0	0
67296	2017-10-01T23:00:00	29.3	ND	ND	ND	5.21	24.00	ND	ND	ND	ND	0	0
67297	2017-10-02T00:00:00	23.7	ND	ND	ND	6.02	23.98	ND	ND	ND	ND	0	0
67298	2017-10-02T01:00:00	13.3	ND	ND	ND	4.91	20.29	ND	ND	ND	ND	0	0
67299	2017-10-02T02:00:00	12.2	ND	ND	ND	5.60	17.66	ND	ND	ND	ND	0	0
67300	2017-10-02T03:00:00	20.6	ND	ND	ND	6.24	19.33	ND	ND	ND	ND	0	0
67301	2017-10-02T04:00:00	21.1	ND	ND	ND	6.93	18.09	ND	ND	ND	ND	0	0
67302	2017-10-02T05:00:00	27.1	ND	ND	ND	6.83	16.01	ND	ND	ND	ND	0	0
67303	2017-10-02T06:00:00	41.4	ND	ND	ND	7.53	13.72	ND	ND	ND	ND	0	0
67304	2017-10-02T07:00:00	39.5	ND	ND	ND	5.06	14.74	ND	ND	ND	ND	140.4	0
67305	2017-10-02T08:00:00	56	ND	ND	ND	6.06	16.68	ND	ND	ND	ND	290.2	0
67306	2017-10-02T09:00:00	59.5	ND	ND	ND	5.95	21.47	ND	ND	ND	ND	544.9	0
67307	2017-10-02T10:00:00	47.5	ND	ND	ND	5.66	26.53	ND	ND	ND	ND	588.8	0
67308	2017-10-02T11:00:00	54	ND	ND	ND	5.31	32.67	ND	ND	ND	ND	622.1	0
67309	2017-10-02T12:00:00	57.9	ND	ND	ND	6.29	44.33	ND	ND	ND	ND	646.7	0
67310	2017-10-02T13:00:00	55.7	ND	ND	ND	4.63	71.14	ND	ND	ND	ND	646.8	0
67311	2017-10-02T14:00:00	72	ND	ND	ND	5.83	94.15	ND	ND	ND	ND	647.2	0
67312	2017-10-02T15:00:00	65.1	ND	ND	ND	5.34	88.56	ND	ND	ND	ND	399.1	0
67313	2017-10-02T16:00:00	69	ND	ND	ND	4.91	48.45	ND	ND	ND	ND	150.8	0
67314	2017-10-02T17:00:00	52.3	ND	ND	ND	5.26	27.06	ND	ND	ND	ND	368.9	0
67315	2017-10-02T18:00:00	42.9	ND	ND	ND	5.37	18.07	ND	ND	ND	ND	121.1	0
67316	2017-10-02T19:00:00	45.4	ND	ND	ND	3.89	11.66	ND	ND	ND	ND	0	0
67317	2017-10-02T20:00:00	35.1	ND	ND	ND	4.70	13.11	ND	ND	ND	ND	0	0
67318	2017-10-02T21:00:00	22.5	ND	ND	ND	4.93	16.95	ND	ND	ND	ND	0	0
67319	2017-10-02T22:00:00	15.9	ND	ND	ND	7.12	26.73	ND	ND	ND	ND	0	0
67320	2017-10-02T23:00:00	14.8	ND	ND	ND	5.52	14.19	ND	ND	ND	ND	0	0
67321	2017-10-03T00:00:00	48.6	ND	ND	ND	5.53	14.93	ND	ND	ND	ND	0	0
67322	2017-10-03T01:00:00	46.2	ND	ND	ND	5.23	17.41	ND	ND	ND	ND	0	0
67323	2017-10-03T02:00:00	44.1	ND	ND	ND	7.19	16.78	ND	ND	ND	ND	0	0
67324	2017-10-03T03:00:00	31.6	ND	ND	ND	7.68	15.07	ND	ND	ND	ND	0	0
67325	2017-10-03T04:00:00	18.6	ND	ND	ND	5.85	14.13	ND	ND	ND	ND	0	0
67326	2017-10-03T05:00:00	16.5	ND	ND	ND	6.02	11.81	ND	ND	ND	ND	0	3.56
67327	2017-10-03T06:00:00	25.7	ND	ND	ND	6.17	10.50	ND	ND	ND	ND	0	2.29
67328	2017-10-03T07:00:00	33.3	ND	ND	ND	6.63	11.52	ND	ND	ND	ND	145.6	0.25
67329	2017-10-03T08:00:00	37.7	ND	ND	ND	6.22	15.23	ND	ND	ND	ND	555.5	0
67330	2017-10-03T09:00:00	58.2	ND	ND	ND	7.08	26.71	ND	ND	ND	ND	631.3	0
67331	2017-10-03T10:00:00	60	ND	ND	ND	3.89	37.91	ND	ND	ND	ND	646.7	0
67332	2017-10-03T11:00:00	56.4	ND	ND	ND	5.42	45.74	ND	ND	ND	ND	614.1	0
67333	2017-10-03T12:00:00	33	ND	ND	ND	5.73	60.91	ND	ND	ND	ND	647.2	0
67334	2017-10-03T13:00:00	43.9	ND	ND	ND	5.21	100.65	ND	ND	ND	ND	647.4	0
67335	2017-10-03T14:00:00	45.7	ND	ND	ND	5.95	98.79	ND	ND	ND	ND	637	0
67336	2017-10-03T15:00:00	37.5	ND	ND	ND	4.49	40.09	ND	ND	ND	ND	646.8	0
67337	2017-10-03T16:00:00	20.8	ND	ND	ND	6.20	34.75	ND	ND	ND	ND	647.6	0
67338	2017-10-03T17:00:00	22.4	ND	ND	ND	4.78	27.75	ND	ND	ND	ND	358.8	0
67339	2017-10-03T18:00:00	14.2	ND	ND	ND	5.17	23.08	ND	ND	ND	ND	54	0
67340	2017-10-03T19:00:00	17.4	ND	ND	ND	5.02	17.96	ND	ND	ND	ND	0	0
67341	2017-10-03T20:00:00	19.1	ND	ND	ND	5.52	19.05	ND	ND	ND	ND	0	0
67342	2017-10-03T21:00:00	15	ND	ND	ND	4.95	17.80	ND	ND	ND	ND	0	0
67343	2017-10-03T22:00:00	34.8	ND	ND	ND	6.31	19.56	ND	ND	ND	ND	0	0
67344	2017-10-03T23:00:00	25.5	ND	ND	ND	6.90	26.10	ND	ND	ND	ND	0	0
67345	2017-10-04T00:00:00	25.3	ND	ND	ND	6.13	28.98	ND	ND	ND	ND	0	0
67346	2017-10-04T01:00:00	25.3	ND	ND	ND	5.73	26.47	ND	ND	ND	ND	0	0
67347	2017-10-04T02:00:00	26.4	ND	ND	ND	6.37	23.92	ND	ND	ND	ND	0	0
67348	2017-10-04T03:00:00	20.1	ND	ND	ND	6.40	28.06	ND	ND	ND	ND	0	0
67349	2017-10-04T04:00:00	10.3	ND	ND	ND	5.60	25.47	ND	ND	ND	ND	0	1.78
67350	2017-10-04T05:00:00	3.7	ND	ND	ND	5.85	19.05	ND	ND	ND	ND	0	4.57
67351	2017-10-04T06:00:00	1.2	ND	ND	ND	6.82	14.66	ND	ND	ND	ND	0	8.38
67352	2017-10-04T07:00:00	11.2	ND	ND	ND	6.62	11.99	ND	ND	ND	ND	48.1	0.76
67353	2017-10-04T08:00:00	27.3	ND	ND	ND	5.10	13.29	ND	ND	ND	ND	239	0
67354	2017-10-04T09:00:00	35.6	ND	ND	ND	6.93	18.47	ND	ND	ND	ND	589.7	0
67355	2017-10-04T10:00:00	53.5	ND	ND	ND	4.80	34.73	ND	ND	ND	ND	634.5	0
67356	2017-10-04T11:00:00	52.7	ND	ND	ND	4.74	51.49	ND	ND	ND	ND	647	0
67357	2017-10-04T12:00:00	38.7	ND	ND	ND	4.20	36.83	ND	ND	ND	ND	647	0
67358	2017-10-04T13:00:00	22.7	ND	ND	ND	3.89	56.01	ND	ND	ND	ND	647.6	0
67359	2017-10-04T14:00:00	30.7	ND	ND	ND	4.29	50.33	ND	ND	ND	ND	647.6	0
67360	2017-10-04T15:00:00	32.3	ND	ND	ND	4.53	50.49	ND	ND	ND	ND	644.9	0
67361	2017-10-04T16:00:00	45.1	ND	ND	ND	6.33	59.15	ND	ND	ND	ND	526.2	0
67362	2017-10-04T17:00:00	43	ND	ND	ND	6.43	46.45	ND	ND	ND	ND	252.2	0
67363	2017-10-04T18:00:00	34.5	ND	ND	ND	4.91	17.74	ND	ND	ND	ND	121.8	0
67364	2017-10-04T19:00:00	19.7	ND	ND	ND	5.42	16.58	ND	ND	ND	ND	0	0
67365	2017-10-04T20:00:00	16.4	ND	ND	ND	4.57	19.37	ND	ND	ND	ND	0	0
67366	2017-10-04T21:00:00	24.3	ND	ND	ND	6.34	21.70	ND	ND	ND	ND	0	0
67367	2017-10-04T22:00:00	54.1	ND	ND	ND	5.45	20.35	ND	ND	ND	ND	0	0
67368	2017-10-04T23:00:00	57	ND	ND	ND	5.20	27.06	ND	ND	ND	ND	0	16
67369	2017-10-05T00:00:00	30.5	ND	ND	ND	4.99	17.56	ND	ND	ND	ND	0	10.67
67370	2017-10-05T01:00:00	15.7	ND	ND	ND	6.52	16.54	ND	ND	ND	ND	0	1.78
67371	2017-10-05T02:00:00	7.8	ND	ND	ND	6.48	15.01	ND	ND	ND	ND	0	2.79
67372	2017-10-05T03:00:00	5.2	ND	ND	ND	4.95	17.09	ND	ND	ND	ND	0	0.25
67373	2017-10-05T04:00:00	12.6	ND	ND	ND	6.05	14.40	ND	ND	ND	ND	0	0.51
67374	2017-10-05T05:00:00	22.9	ND	ND	ND	6.26	12.62	ND	ND	ND	ND	0	0.25
67375	2017-10-05T06:00:00	29.5	ND	ND	ND	6.26	12.21	ND	ND	ND	ND	0	0
67376	2017-10-05T07:00:00	31.3	ND	ND	ND	3.94	12.03	ND	ND	ND	ND	28.2	0
67377	2017-10-05T08:00:00	36.6	ND	ND	ND	6.08	17.39	ND	ND	ND	ND	306.6	1.02
67378	2017-10-05T09:00:00	34.1	ND	ND	ND	5.67	19.05	ND	ND	ND	ND	485.6	0
67379	2017-10-05T10:00:00	40.3	ND	ND	ND	4.96	30.20	ND	ND	ND	ND	646.5	0
67380	2017-10-05T11:00:00	47.6	ND	ND	ND	5.45	46.94	ND	ND	ND	ND	646.2	0.25
67381	2017-10-05T12:00:00	70.3	ND	ND	ND	5.73	43.33	ND	ND	ND	ND	646.4	0
67382	2017-10-05T13:00:00	42.9	ND	ND	ND	4.64	39.84	ND	ND	ND	ND	646.5	0
67383	2017-10-05T14:00:00	41.1	ND	ND	ND	4.40	34.26	ND	ND	ND	ND	481.2	0
67384	2017-10-05T15:00:00	21.2	ND	ND	ND	4.54	33.16	ND	ND	ND	ND	503.1	0
67385	2017-10-05T16:00:00	157.9	ND	ND	ND	6.05	13.66	ND	ND	ND	ND	544.8	0
67386	2017-10-05T17:00:00	51.7	ND	ND	ND	6.15	12.54	ND	ND	ND	ND	306.5	0
67387	2017-10-05T18:00:00	48.6	ND	ND	ND	4.18	8.32	ND	ND	ND	ND	57.8	0
67388	2017-10-05T19:00:00	60.9	ND	ND	ND	5.12	7.36	ND	ND	ND	ND	0	0
67389	2017-10-05T20:00:00	37.9	ND	ND	ND	5.13	8.05	ND	ND	ND	ND	0	0
67390	2017-10-05T21:00:00	42	ND	ND	ND	7.19	6.53	ND	ND	ND	ND	0	0
67391	2017-10-05T22:00:00	41.7	ND	ND	ND	5.34	6.97	ND	ND	ND	ND	0	0
67392	2017-10-05T23:00:00	33.6	ND	ND	ND	5.21	7.03	ND	ND	ND	ND	0	0
67393	2017-10-06T00:00:00	29.9	ND	ND	ND	7.00	6.93	ND	ND	ND	ND	0	0
67394	2017-10-06T01:00:00	36.2	ND	ND	ND	6.43	6.99	ND	ND	ND	ND	0	0
67395	2017-10-06T02:00:00	27	ND	ND	ND	6.37	8.91	ND	ND	ND	ND	0	0
67396	2017-10-06T03:00:00	24.4	ND	ND	ND	5.84	11.07	ND	ND	ND	ND	0	0
67397	2017-10-06T04:00:00	30.9	ND	ND	ND	6.34	11.13	ND	ND	ND	ND	0	0
67398	2017-10-06T05:00:00	20.2	ND	ND	ND	7.25	10.81	ND	ND	ND	ND	0	0
67399	2017-10-06T06:00:00	43.6	ND	ND	ND	5.94	6.79	ND	ND	ND	ND	0	0
67400	2017-10-06T07:00:00	4.4	ND	ND	ND	7.71	6.83	ND	ND	ND	ND	97.1	0
67401	2017-10-06T08:00:00	33.7	ND	ND	ND	5.87	7.81	ND	ND	ND	ND	257	0
67402	2017-10-06T09:00:00	84.4	ND	ND	ND	7.61	8.32	ND	ND	ND	ND	305.8	0
67403	2017-10-06T10:00:00	60.6	ND	ND	ND	5.58	20.09	ND	ND	ND	ND	646.4	0
67404	2017-10-06T11:00:00	57.1	ND	ND	ND	6.69	31.55	ND	ND	ND	ND	646.9	0
67405	2017-10-06T12:00:00	67	ND	ND	ND	5.06	45.88	ND	ND	ND	ND	647.3	0
67406	2017-10-06T13:00:00	52.1	ND	ND	ND	5.45	100.04	ND	ND	ND	ND	647.1	0
67407	2017-10-06T14:00:00	61.8	ND	ND	ND	4.50	119.27	ND	ND	ND	ND	647.1	0
67408	2017-10-06T15:00:00	77	ND	ND	ND	5.42	105.18	ND	ND	ND	ND	630.4	0
67409	2017-10-06T16:00:00	53.3	ND	ND	ND	3.48	62.19	ND	ND	ND	ND	645.9	0
67410	2017-10-06T17:00:00	32.9	ND	ND	ND	4.01	32.71	ND	ND	ND	ND	639.3	0
67411	2017-10-06T18:00:00	26.8	ND	ND	ND	5.65	20.90	ND	ND	ND	ND	180.5	0
67412	2017-10-06T19:00:00	23.5	ND	ND	ND	4.53	16.74	ND	ND	ND	ND	0	0
67413	2017-10-06T20:00:00	32.2	ND	ND	ND	6.48	14.97	ND	ND	ND	ND	0	0
67414	2017-10-06T21:00:00	17.7	ND	ND	ND	5.39	21.47	ND	ND	ND	ND	0	0
67415	2017-10-06T22:00:00	19.9	ND	ND	ND	5.52	8.77	ND	ND	ND	ND	0	0
67416	2017-10-06T23:00:00	44.7	ND	ND	ND	4.89	10.62	ND	ND	ND	ND	0	0
67417	2017-10-07T00:00:00	29.8	ND	ND	ND	4.04	6.71	ND	ND	ND	ND	0	0
67418	2017-10-07T01:00:00	41	ND	ND	ND	5.98	6.50	ND	ND	ND	ND	0	0
67419	2017-10-07T02:00:00	43.2	ND	ND	ND	6.48	6.87	ND	ND	ND	ND	0	0
67420	2017-10-07T03:00:00	38.1	ND	ND	ND	3.72	7.18	ND	ND	ND	ND	0	0
67421	2017-10-07T04:00:00	32.1	ND	ND	ND	7.14	7.01	ND	ND	ND	ND	0	0
67422	2017-10-07T05:00:00	31.9	ND	ND	ND	6.65	6.57	ND	ND	ND	ND	0	0
67423	2017-10-07T06:00:00	9.3	ND	ND	ND	6.44	7.06	ND	ND	ND	ND	0	0
67424	2017-10-07T07:00:00	42.2	ND	ND	ND	5.60	7.97	ND	ND	ND	ND	104.4	0
67425	2017-10-07T08:00:00	41.7	ND	ND	ND	4.66	9.24	ND	ND	ND	ND	286.3	0
67426	2017-10-07T09:00:00	57.7	ND	ND	ND	3.32	12.97	ND	ND	ND	ND	578.3	0
67427	2017-10-07T10:00:00	75	ND	ND	ND	6.82	22.55	ND	ND	ND	ND	647.1	0
67428	2017-10-07T11:00:00	87.5	ND	ND	ND	5.34	38.46	ND	ND	ND	ND	647.1	0
67429	2017-10-07T12:00:00	94.6	ND	ND	ND	6.20	73.12	ND	ND	ND	ND	647.6	0
67430	2017-10-07T13:00:00	93.9	ND	ND	ND	4.22	77.32	ND	ND	ND	ND	647.5	0
67431	2017-10-07T14:00:00	65.2	ND	ND	ND	3.85	85.99	ND	ND	ND	ND	639.4	0
67432	2017-10-07T15:00:00	48.8	ND	ND	ND	5.23	76.10	ND	ND	ND	ND	624.1	0
67433	2017-10-07T16:00:00	36.8	ND	ND	ND	4.38	77.89	ND	ND	ND	ND	527.5	0
67434	2017-10-07T17:00:00	37	ND	ND	ND	4.82	53.97	ND	ND	ND	ND	432.1	0
67435	2017-10-07T18:00:00	41.9	ND	ND	ND	5.46	31.04	ND	ND	ND	ND	53.7	0
67436	2017-10-07T19:00:00	16.6	ND	ND	ND	4.74	23.63	ND	ND	ND	ND	0	0
67437	2017-10-07T20:00:00	28.6	ND	ND	ND	5.05	17.37	ND	ND	ND	ND	0	0
67438	2017-10-07T21:00:00	25.2	ND	ND	ND	5.80	20.45	ND	ND	ND	ND	0	0
67439	2017-10-07T22:00:00	27.9	ND	ND	ND	4.45	13.56	ND	ND	ND	ND	0	0
67440	2017-10-07T23:00:00	47.7	ND	ND	ND	5.53	13.56	ND	ND	ND	ND	0	0
67441	2017-10-08T00:00:00	36.8	ND	ND	ND	5.98	23.31	ND	ND	ND	ND	0	0
67442	2017-10-08T01:00:00	39.1	ND	ND	ND	6.51	23.90	ND	ND	ND	ND	0	0
67443	2017-10-08T02:00:00	48.1	ND	ND	ND	5.95	6.55	ND	ND	ND	ND	0	0
67444	2017-10-08T03:00:00	59.3	ND	ND	ND	7.29	15.56	ND	ND	ND	ND	0	0
67445	2017-10-08T04:00:00	37.6	ND	ND	ND	6.90	10.85	ND	ND	ND	ND	0	0
67446	2017-10-08T05:00:00	48.4	ND	ND	ND	6.58	7.61	ND	ND	ND	ND	0	0
67447	2017-10-08T06:00:00	69.2	ND	ND	ND	8.93	6.28	ND	ND	ND	ND	0	0
67448	2017-10-08T07:00:00	79.7	ND	ND	ND	6.66	7.59	ND	ND	ND	ND	219.9	0
67449	2017-10-08T08:00:00	81.4	ND	ND	ND	9.63	17.92	ND	ND	ND	ND	622.5	0
67450	2017-10-08T09:00:00	77.9	ND	ND	ND	6.93	34.77	ND	ND	ND	ND	646.5	0
67451	2017-10-08T10:00:00	59.6	ND	ND	ND	5.83	53.49	ND	ND	ND	ND	647.2	0
67452	2017-10-08T11:00:00	75.8	ND	ND	ND	5.05	79.75	ND	ND	ND	ND	646.5	0
67453	2017-10-08T12:00:00	43.7	ND	ND	ND	4.56	88.42	ND	ND	ND	ND	647.6	0
67454	2017-10-08T13:00:00	33.9	ND	ND	ND	5.55	95.59	ND	ND	ND	ND	647.4	0
67455	2017-10-08T14:00:00	35	ND	ND	ND	4.47	106.01	ND	ND	ND	ND	645.7	0
67456	2017-10-08T15:00:00	46.5	ND	ND	ND	5.00	110.32	ND	ND	ND	ND	552.2	0
67457	2017-10-08T16:00:00	34.8	ND	ND	ND	5.66	45.61	ND	ND	ND	ND	139.9	0
67458	2017-10-08T17:00:00	24.8	ND	ND	ND	5.23	33.52	ND	ND	ND	ND	226.3	0
67459	2017-10-08T18:00:00	20.8	ND	ND	ND	5.20	31.87	ND	ND	ND	ND	43.8	0
67460	2017-10-08T19:00:00	18.1	ND	ND	ND	5.67	27.20	ND	ND	ND	ND	0	0
67461	2017-10-08T20:00:00	26.2	ND	ND	ND	5.32	32.03	ND	ND	ND	ND	0	0
67462	2017-10-08T21:00:00	23.9	ND	ND	ND	5.92	32.30	ND	ND	ND	ND	0	0
67463	2017-10-08T22:00:00	17.1	ND	ND	ND	8.59	10.46	ND	ND	ND	ND	0	0
67464	2017-10-08T23:00:00	26.9	ND	ND	ND	5.99	20.23	ND	ND	ND	ND	0	0
67465	2017-10-09T00:00:00	25.6	ND	ND	ND	6.34	32.18	ND	ND	ND	ND	0	0
67466	2017-10-09T01:00:00	19.6	ND	ND	ND	6.57	8.07	ND	ND	ND	ND	0	0
67467	2017-10-09T02:00:00	36.4	ND	ND	ND	7.54	9.44	ND	ND	ND	ND	0	0
67468	2017-10-09T03:00:00	35.8	ND	ND	ND	6.31	13.40	ND	ND	ND	ND	0	0
67469	2017-10-09T04:00:00	28.5	ND	ND	ND	7.57	15.21	ND	ND	ND	ND	0	0
67470	2017-10-09T05:00:00	30.1	ND	ND	ND	7.26	10.26	ND	ND	ND	ND	0	0
67471	2017-10-09T06:00:00	31.4	ND	ND	ND	6.45	6.71	ND	ND	ND	ND	4.9	0
67472	2017-10-09T07:00:00	53.3	ND	ND	ND	5.77	7.04	ND	ND	ND	ND	138.7	0
67473	2017-10-09T08:00:00	69.4	ND	ND	ND	6.52	8.56	ND	ND	ND	ND	449.1	0
67474	2017-10-09T09:00:00	83.1	ND	ND	ND	6.44	16.39	ND	ND	ND	ND	643.2	0
67475	2017-10-09T10:00:00	91.8	ND	ND	ND	5.90	30.40	ND	ND	ND	ND	646.6	0
67476	2017-10-09T11:00:00	86.4	ND	ND	ND	5.06	48.49	ND	ND	ND	ND	647	0
67477	2017-10-09T12:00:00	54	ND	ND	ND	5.24	50.32	ND	ND	ND	ND	647.2	0
67478	2017-10-09T13:00:00	52.4	ND	ND	ND	4.39	49.86	ND	ND	ND	ND	647.6	0
67479	2017-10-09T14:00:00	41.9	ND	ND	ND	4.32	40.95	ND	ND	ND	ND	455.7	0
67480	2017-10-09T15:00:00	26.4	ND	ND	ND	4.66	27.65	ND	ND	ND	ND	401.7	4.57
67481	2017-10-09T16:00:00	20.6	ND	ND	ND	4.52	26.20	ND	ND	ND	ND	509.7	0
67482	2017-10-09T17:00:00	34	ND	ND	ND	5.60	20.92	ND	ND	ND	ND	138.6	0
67483	2017-10-09T18:00:00	40.2	ND	ND	ND	4.43	11.79	ND	ND	ND	ND	21.4	0
67484	2017-10-09T19:00:00	77.7	ND	ND	ND	4.18	8.75	ND	ND	ND	ND	0	0
67485	2017-10-09T20:00:00	65.4	ND	ND	ND	4.89	9.13	ND	ND	ND	ND	0	0
67486	2017-10-09T21:00:00	52.9	ND	ND	ND	4.99	7.12	ND	ND	ND	ND	0	0
67487	2017-10-09T22:00:00	70.7	ND	ND	ND	5.27	6.67	ND	ND	ND	ND	0	0
67488	2017-10-09T23:00:00	57.2	ND	ND	ND	4.81	5.59	ND	ND	ND	ND	0	0
67489	2017-10-10T00:00:00	45.7	ND	ND	ND	6.91	6.28	ND	ND	ND	ND	0	0
67490	2017-10-10T01:00:00	33.4	ND	ND	ND	7.09	6.32	ND	ND	ND	ND	0	0
67491	2017-10-10T02:00:00	35.8	ND	ND	ND	6.40	6.48	ND	ND	ND	ND	0	0
67492	2017-10-10T03:00:00	47.9	ND	ND	ND	7.74	6.28	ND	ND	ND	ND	0	0
67493	2017-10-10T04:00:00	53.9	ND	ND	ND	9.60	6.57	ND	ND	ND	ND	0	0
67494	2017-10-10T05:00:00	56.5	ND	ND	ND	10.98	6.53	ND	ND	ND	ND	0	0
67495	2017-10-10T06:00:00	58.5	ND	ND	ND	8.73	6.22	ND	ND	ND	ND	0	0
67496	2017-10-10T07:00:00	61	ND	ND	ND	9.19	6.61	ND	ND	ND	ND	82.7	0
67497	2017-10-10T08:00:00	79.8	ND	ND	ND	9.88	7.63	ND	ND	ND	ND	317.8	0
67498	2017-10-10T09:00:00	92.9	ND	ND	ND	6.08	9.44	ND	ND	ND	ND	457.3	0
67499	2017-10-10T10:00:00	93.5	ND	ND	ND	5.16	14.54	ND	ND	ND	ND	625	0
67500	2017-10-10T11:00:00	101.6	ND	ND	ND	3.90	38.46	ND	ND	ND	ND	647.9	0
67501	2017-10-10T12:00:00	87.8	ND	ND	ND	3.53	69.13	ND	ND	ND	ND	648.3	0
67502	2017-10-10T13:00:00	73.9	ND	ND	ND	4.61	95.80	ND	ND	ND	ND	648.7	0
67503	2017-10-10T14:00:00	50	ND	ND	ND	3.30	101.73	ND	ND	ND	ND	648.7	0
67504	2017-10-10T15:00:00	51.9	ND	ND	ND	4.07	88.44	ND	ND	ND	ND	649.3	0
67505	2017-10-10T16:00:00	55.8	ND	ND	ND	3.81	55.54	ND	ND	ND	ND	539.4	0
67506	2017-10-10T17:00:00	48	ND	ND	ND	5.28	29.99	ND	ND	ND	ND	336.5	0
67507	2017-10-10T18:00:00	40.4	ND	ND	ND	6.84	25.96	ND	ND	ND	ND	119.2	0
67508	2017-10-10T19:00:00	36.1	ND	ND	ND	4.78	21.35	ND	ND	ND	ND	0	0
67509	2017-10-10T20:00:00	23.5	ND	ND	ND	5.37	25.43	ND	ND	ND	ND	0	0
67510	2017-10-10T21:00:00	15.6	ND	ND	ND	4.71	12.91	ND	ND	ND	ND	0	0
67511	2017-10-10T22:00:00	37.1	ND	ND	ND	4.81	9.30	ND	ND	ND	ND	0	0
67512	2017-10-10T23:00:00	27.7	ND	ND	ND	6.26	6.75	ND	ND	ND	ND	0	0
67513	2017-10-11T00:00:00	34	ND	ND	ND	5.42	16.13	ND	ND	ND	ND	0	0
67514	2017-10-11T01:00:00	15.4	ND	ND	ND	5.83	13.56	ND	ND	ND	ND	0	0
67515	2017-10-11T02:00:00	33.4	ND	ND	ND	5.26	8.75	ND	ND	ND	ND	0	0
67516	2017-10-11T03:00:00	36.7	ND	ND	ND	5.19	13.03	ND	ND	ND	ND	0	0
67517	2017-10-11T04:00:00	34.5	ND	ND	ND	5.69	12.93	ND	ND	ND	ND	0	0
67518	2017-10-11T05:00:00	46.6	ND	ND	ND	6.77	7.56	ND	ND	ND	ND	0	0
67519	2017-10-11T06:00:00	50.3	ND	ND	ND	6.52	6.87	ND	ND	ND	ND	0	0
67520	2017-10-11T07:00:00	68.2	ND	ND	ND	5.52	7.91	ND	ND	ND	ND	36.9	0
67521	2017-10-11T08:00:00	81.6	ND	ND	ND	6.41	8.03	ND	ND	ND	ND	109.3	0
67522	2017-10-11T09:00:00	70.1	ND	ND	ND	6.12	7.73	ND	ND	ND	ND	71.5	0
67523	2017-10-11T10:00:00	87.6	ND	ND	ND	5.42	8.44	ND	ND	ND	ND	288.1	0
67524	2017-10-11T11:00:00	56.5	ND	ND	ND	3.72	13.42	ND	ND	ND	ND	549.2	0.51
67525	2017-10-11T12:00:00	51.9	ND	ND	ND	4.57	13.76	ND	ND	ND	ND	585.9	0
67526	2017-10-11T13:00:00	44.7	ND	ND	ND	3.12	66.56	ND	ND	ND	ND	648	0
67527	2017-10-11T14:00:00	45.5	ND	ND	ND	4.24	55.87	ND	ND	ND	ND	647.9	0
67528	2017-10-11T15:00:00	49.6	ND	ND	ND	5.27	58.24	ND	ND	ND	ND	647.9	0
67529	2017-10-11T16:00:00	53.6	ND	ND	ND	3.60	67.62	ND	ND	ND	ND	563.9	0
67530	2017-10-11T17:00:00	59.6	ND	ND	ND	1.80	39.44	ND	ND	ND	ND	343.2	0
67531	2017-10-11T18:00:00	71	ND	ND	ND	1.16	16.46	ND	ND	ND	ND	47.4	0
67532	2017-10-11T19:00:00	63.8	ND	ND	ND	0.00	8.79	ND	ND	ND	ND	0	0
67533	2017-10-11T20:00:00	59.4	ND	ND	ND	0.93	7.10	ND	ND	ND	ND	0	0
67534	2017-10-11T21:00:00	52.3	ND	ND	ND	1.12	6.89	ND	ND	ND	ND	0	0
67535	2017-10-11T22:00:00	63.9	ND	ND	ND	4.29	6.42	ND	ND	ND	ND	0	0
67536	2017-10-11T23:00:00	64.9	ND	ND	ND	2.38	6.28	ND	ND	ND	ND	0	0
67537	2017-10-12T00:00:00	40.6	ND	ND	ND	4.82	6.71	ND	ND	ND	ND	0	0
67538	2017-10-12T01:00:00	40.6	ND	ND	ND	4.35	6.22	ND	ND	ND	ND	0	0
67539	2017-10-12T02:00:00	39.3	ND	ND	ND	4.45	6.53	ND	ND	ND	ND	0	0
67540	2017-10-12T03:00:00	29.1	ND	ND	ND	5.81	8.58	ND	ND	ND	ND	0	0
67541	2017-10-12T04:00:00	33.3	ND	ND	ND	5.78	15.03	ND	ND	ND	ND	0	0
67542	2017-10-12T05:00:00	20.1	ND	ND	ND	4.14	11.38	ND	ND	ND	ND	0	0
67543	2017-10-12T06:00:00	11.4	ND	ND	ND	4.42	6.42	ND	ND	ND	ND	0	0
67544	2017-10-12T07:00:00	53.2	ND	ND	ND	4.73	6.93	ND	ND	ND	ND	156.8	0
67545	2017-10-12T08:00:00	70.7	ND	ND	ND	4.70	9.97	ND	ND	ND	ND	522.4	0
67546	2017-10-12T09:00:00	78.3	ND	ND	ND	3.62	21.17	ND	ND	ND	ND	645	0
67547	2017-10-12T10:00:00	54.8	ND	ND	ND	3.42	39.78	ND	ND	ND	ND	638	0
67548	2017-10-12T11:00:00	59.5	ND	ND	ND	4.32	74.10	ND	ND	ND	ND	641.2	0
67549	2017-10-12T12:00:00	68.7	ND	ND	ND	3.85	102.73	ND	ND	ND	ND	648.8	0
67550	2017-10-12T13:00:00	72.9	ND	ND	ND	4.56	112.97	ND	ND	ND	ND	646.8	0
67551	2017-10-12T14:00:00	62.5	ND	ND	ND	3.94	98.94	ND	ND	ND	ND	645.3	0
67552	2017-10-12T15:00:00	40.7	ND	ND	ND	5.23	56.81	ND	ND	ND	ND	584.5	0
67553	2017-10-12T16:00:00	37.7	ND	ND	ND	5.59	39.72	ND	ND	ND	ND	647.5	0
67554	2017-10-12T17:00:00	34	ND	ND	ND	3.28	32.54	ND	ND	ND	ND	428.9	0
67555	2017-10-12T18:00:00	29.3	ND	ND	ND	3.12	20.08	ND	ND	ND	ND	66.1	0
67556	2017-10-12T19:00:00	27.9	ND	ND	ND	1.74	19.64	ND	ND	ND	ND	0	0
67557	2017-10-12T20:00:00	23	ND	ND	ND	1.66	18.70	ND	ND	ND	ND	0	0
67558	2017-10-12T21:00:00	17.8	ND	ND	ND	2.73	17.80	ND	ND	ND	ND	0	0
67559	2017-10-12T22:00:00	12.1	ND	ND	ND	2.90	14.66	ND	ND	ND	ND	0	0
67560	2017-10-12T23:00:00	33.5	ND	ND	ND	4.22	10.22	ND	ND	ND	ND	0	0
67561	2017-10-13T00:00:00	53.9	ND	ND	ND	3.60	8.24	ND	ND	ND	ND	0	0
67562	2017-10-13T01:00:00	48.5	ND	ND	ND	4.89	9.22	ND	ND	ND	ND	0	0
67563	2017-10-13T02:00:00	44.8	ND	ND	ND	4.80	10.77	ND	ND	ND	ND	0	0
67564	2017-10-13T03:00:00	27.6	ND	ND	ND	6.82	10.71	ND	ND	ND	ND	0	0
67565	2017-10-13T04:00:00	46.8	ND	ND	ND	4.84	9.40	ND	ND	ND	ND	0	0
67566	2017-10-13T05:00:00	56.4	ND	ND	ND	7.50	7.04	ND	ND	ND	ND	0	0
67567	2017-10-13T06:00:00	63.7	ND	ND	ND	5.03	6.91	ND	ND	ND	ND	0	0
67568	2017-10-13T07:00:00	73.4	ND	ND	ND	4.77	7.40	ND	ND	ND	ND	47.6	0
67569	2017-10-13T08:00:00	86.1	ND	ND	ND	5.60	8.97	ND	ND	ND	ND	500.8	0
67570	2017-10-13T09:00:00	83	ND	ND	ND	4.53	14.40	ND	ND	ND	ND	642.5	0
67571	2017-10-13T10:00:00	77	ND	ND	ND	2.87	35.46	ND	ND	ND	ND	648.2	0
67572	2017-10-13T11:00:00	59	ND	ND	ND	3.75	47.98	ND	ND	ND	ND	647.9	0
67573	2017-10-13T12:00:00	70.2	ND	ND	ND	2.37	53.61	ND	ND	ND	ND	645.3	0
67574	2017-10-13T13:00:00	62.3	ND	ND	ND	4.38	92.92	ND	ND	ND	ND	648.2	0
67575	2017-10-13T14:00:00	70.4	ND	ND	ND	3.76	121.25	ND	ND	ND	ND	540.1	0
67576	2017-10-13T15:00:00	82	ND	ND	ND	4.38	92.00	ND	ND	ND	ND	317.7	0
67577	2017-10-13T16:00:00	49.3	ND	ND	ND	4.07	26.81	ND	ND	ND	ND	211.9	0
67578	2017-10-13T17:00:00	26.6	ND	ND	ND	1.77	20.74	ND	ND	ND	ND	244.5	0
67579	2017-10-13T18:00:00	26.9	ND	ND	ND	0.52	17.07	ND	ND	ND	ND	47.1	0
67580	2017-10-13T19:00:00	23.5	ND	ND	ND	0.93	15.03	ND	ND	ND	ND	0	0
67581	2017-10-13T20:00:00	21.2	ND	ND	ND	1.63	11.68	ND	ND	ND	ND	0	0
67582	2017-10-13T21:00:00	18.1	ND	ND	ND	2.91	15.88	ND	ND	ND	ND	0	0
67583	2017-10-13T22:00:00	14.3	ND	ND	ND	2.96	16.11	ND	ND	ND	ND	0	0
67584	2017-10-13T23:00:00	26.8	ND	ND	ND	2.02	11.83	ND	ND	ND	ND	0	0
67585	2017-10-14T00:00:00	28.7	ND	ND	ND	2.87	7.18	ND	ND	ND	ND	0	0
67586	2017-10-14T01:00:00	46.9	ND	ND	ND	4.31	6.52	ND	ND	ND	ND	0	0
67587	2017-10-14T02:00:00	38.4	ND	ND	ND	5.17	7.08	ND	ND	ND	ND	0	0
67588	2017-10-14T03:00:00	32.6	ND	ND	ND	5.83	9.30	ND	ND	ND	ND	0	0
67589	2017-10-14T04:00:00	34.5	ND	ND	ND	5.65	7.48	ND	ND	ND	ND	0	0
67590	2017-10-14T05:00:00	32.7	ND	ND	ND	5.21	9.56	ND	ND	ND	ND	0	0
67591	2017-10-14T06:00:00	43.3	ND	ND	ND	5.34	6.73	ND	ND	ND	ND	0	0
67592	2017-10-14T07:00:00	82	ND	ND	ND	5.06	6.95	ND	ND	ND	ND	74	0
67593	2017-10-14T08:00:00	77.1	ND	ND	ND	4.66	8.01	ND	ND	ND	ND	342.3	0
67594	2017-10-14T09:00:00	79.9	ND	ND	ND	4.53	10.01	ND	ND	ND	ND	449.6	0
67595	2017-10-14T10:00:00	66.4	ND	ND	ND	5.26	18.43	ND	ND	ND	ND	641.3	0
67596	2017-10-14T11:00:00	50.8	ND	ND	ND	5.02	35.54	ND	ND	ND	ND	647.8	0
67597	2017-10-14T12:00:00	66	ND	ND	ND	4.77	35.99	ND	ND	ND	ND	649	0
67598	2017-10-14T13:00:00	59.1	ND	ND	ND	2.82	51.14	ND	ND	ND	ND	648.4	0
67599	2017-10-14T14:00:00	58.5	ND	ND	ND	4.25	58.48	ND	ND	ND	ND	645.5	0
67600	2017-10-14T15:00:00	75.7	ND	ND	ND	4.24	51.36	ND	ND	ND	ND	566.5	0
67601	2017-10-14T16:00:00	63.8	ND	ND	ND	4.40	66.43	ND	ND	ND	ND	513.1	0
67602	2017-10-14T17:00:00	38.9	ND	ND	ND	5.09	48.82	ND	ND	ND	ND	582.5	0
67603	2017-10-14T18:00:00	42.8	ND	ND	ND	5.20	22.17	ND	ND	ND	ND	149.3	0
67604	2017-10-14T19:00:00	33.2	ND	ND	ND	3.00	13.17	ND	ND	ND	ND	0	0
67605	2017-10-14T20:00:00	19.4	ND	ND	ND	2.68	15.27	ND	ND	ND	ND	0	0
67606	2017-10-14T21:00:00	12.4	ND	ND	ND	3.46	16.95	ND	ND	ND	ND	0	0
67607	2017-10-14T22:00:00	13.1	ND	ND	ND	1.59	11.28	ND	ND	ND	ND	0	0
67608	2017-10-14T23:00:00	19.5	ND	ND	ND	4.28	7.14	ND	ND	ND	ND	0	0
67609	2017-10-15T00:00:00	31.6	ND	ND	ND	4.24	11.68	ND	ND	ND	ND	0	0
67610	2017-10-15T01:00:00	34.2	ND	ND	ND	4.84	7.34	ND	ND	ND	ND	0	0
67611	2017-10-15T02:00:00	32.5	ND	ND	ND	3.92	8.40	ND	ND	ND	ND	0	0
67612	2017-10-15T03:00:00	28	ND	ND	ND	5.35	9.71	ND	ND	ND	ND	0	0
67613	2017-10-15T04:00:00	41.6	ND	ND	ND	6.01	8.16	ND	ND	ND	ND	0	0
67614	2017-10-15T05:00:00	44.1	ND	ND	ND	3.46	6.69	ND	ND	ND	ND	0	0
67615	2017-10-15T06:00:00	32.6	ND	ND	ND	5.44	7.14	ND	ND	ND	ND	0	0
67616	2017-10-15T07:00:00	41.5	ND	ND	ND	7.04	8.44	ND	ND	ND	ND	97	0
67617	2017-10-15T08:00:00	52.8	ND	ND	ND	4.80	15.38	ND	ND	ND	ND	380.6	0
67618	2017-10-15T09:00:00	53.1	ND	ND	ND	4.46	25.28	ND	ND	ND	ND	647	0
67619	2017-10-15T10:00:00	53.7	ND	ND	ND	4.71	35.54	ND	ND	ND	ND	647.7	0
67620	2017-10-15T11:00:00	57.7	ND	ND	ND	5.88	52.18	ND	ND	ND	ND	617.6	0
67621	2017-10-15T12:00:00	54.4	ND	ND	ND	2.43	67.25	ND	ND	ND	ND	635.4	0
67622	2017-10-15T13:00:00	54.4	ND	ND	ND	5.69	85.68	ND	ND	ND	ND	648.5	0
67623	2017-10-15T14:00:00	66.7	ND	ND	ND	5.07	107.34	ND	ND	ND	ND	648.5	0
67624	2017-10-15T15:00:00	67.7	ND	ND	ND	4.63	119.41	ND	ND	ND	ND	623.9	0
67625	2017-10-15T16:00:00	76.4	ND	ND	ND	3.21	106.48	ND	ND	ND	ND	492.2	0
67626	2017-10-15T17:00:00	66.1	ND	ND	ND	3.68	105.65	ND	ND	ND	ND	486.7	0
67627	2017-10-15T18:00:00	62.9	ND	ND	ND	3.83	83.52	ND	ND	ND	ND	71.3	0
67628	2017-10-15T19:00:00	47.3	ND	ND	ND	4.14	27.38	ND	ND	ND	ND	0	0
67629	2017-10-15T20:00:00	25	ND	ND	ND	3.61	22.88	ND	ND	ND	ND	0	0
67630	2017-10-15T21:00:00	27.2	ND	ND	ND	4.57	18.43	ND	ND	ND	ND	0	0
67631	2017-10-15T22:00:00	29.9	ND	ND	ND	3.53	11.17	ND	ND	ND	ND	0	0
67632	2017-10-15T23:00:00	49.8	ND	ND	ND	3.26	8.63	ND	ND	ND	ND	0	0
67633	2017-10-16T00:00:00	36.2	ND	ND	ND	4.68	20.06	ND	ND	ND	ND	0	0
67634	2017-10-16T01:00:00	12.5	ND	ND	ND	5.81	15.03	ND	ND	ND	ND	0	0
67635	2017-10-16T02:00:00	27.4	ND	ND	ND	4.20	7.42	ND	ND	ND	ND	0	0
67636	2017-10-16T03:00:00	50.1	ND	ND	ND	5.28	11.81	ND	ND	ND	ND	0	0
67637	2017-10-16T04:00:00	57.1	ND	ND	ND	5.65	10.73	ND	ND	ND	ND	0.1	0
67638	2017-10-16T05:00:00	46	ND	ND	ND	5.56	9.65	ND	ND	ND	ND	0.1	0
67639	2017-10-16T06:00:00	47.4	ND	ND	ND	5.07	8.07	ND	ND	ND	ND	2	0
67640	2017-10-16T07:00:00	98	ND	ND	ND	5.09	9.56	ND	ND	ND	ND	188.3	0
67641	2017-10-16T08:00:00	72.8	ND	ND	ND	5.53	15.74	ND	ND	ND	ND	426.5	0
67642	2017-10-16T09:00:00	51.4	ND	ND	ND	5.14	35.22	ND	ND	ND	ND	646.5	0
67643	2017-10-16T10:00:00	55.1	ND	ND	ND	6.19	53.44	ND	ND	ND	ND	647.9	0
67644	2017-10-16T11:00:00	60.9	ND	ND	ND	5.71	71.63	ND	ND	ND	ND	648.6	0
67645	2017-10-16T12:00:00	73	ND	ND	ND	5.30	94.37	ND	ND	ND	ND	648.9	0
67646	2017-10-16T13:00:00	58.1	ND	ND	ND	3.89	93.31	ND	ND	ND	ND	649.3	0
67647	2017-10-16T14:00:00	52	ND	ND	ND	3.71	49.22	ND	ND	ND	ND	648.5	0
67648	2017-10-16T15:00:00	22.6	ND	ND	ND	4.06	37.83	ND	ND	ND	ND	649.2	0
67649	2017-10-16T16:00:00	12	ND	ND	ND	4.84	33.65	ND	ND	ND	ND	526.9	0
67650	2017-10-16T17:00:00	3.9	ND	ND	ND	6.22	28.06	ND	ND	ND	ND	324.6	0
67651	2017-10-16T18:00:00	12.4	ND	ND	ND	6.45	20.82	ND	ND	ND	ND	46.6	0
67652	2017-10-16T19:00:00	15.8	ND	ND	ND	5.52	18.68	ND	ND	ND	ND	0.8	0
67653	2017-10-16T20:00:00	7.1	ND	ND	ND	5.95	18.29	ND	ND	ND	ND	0.1	0
67654	2017-10-16T21:00:00	12.5	ND	ND	ND	6.69	10.77	ND	ND	ND	ND	0.1	0
67655	2017-10-16T22:00:00	40.1	ND	ND	ND	5.14	6.75	ND	ND	ND	ND	0.1	0
67656	2017-10-16T23:00:00	34.7	ND	ND	ND	3.92	9.77	ND	ND	ND	ND	0.1	0
67657	2017-10-17T00:00:00	34.7	ND	ND	ND	7.33	11.05	ND	ND	ND	ND	0.1	0
67658	2017-10-17T01:00:00	33	ND	ND	ND	5.32	7.85	ND	ND	ND	ND	0.1	0
67659	2017-10-17T02:00:00	44.9	ND	ND	ND	6.55	9.85	ND	ND	ND	ND	0.1	0
67660	2017-10-17T03:00:00	38.3	ND	ND	ND	7.29	11.38	ND	ND	ND	ND	0.1	0
67661	2017-10-17T04:00:00	37.1	ND	ND	ND	6.69	7.91	ND	ND	ND	ND	0.1	0
67662	2017-10-17T05:00:00	55.6	ND	ND	ND	7.57	6.75	ND	ND	ND	ND	0.1	0
67663	2017-10-17T06:00:00	53.7	ND	ND	ND	7.12	6.93	ND	ND	ND	ND	3.5	0
67664	2017-10-17T07:00:00	68.4	ND	ND	ND	6.20	7.04	ND	ND	ND	ND	226.8	0
67665	2017-10-17T08:00:00	66.6	ND	ND	ND	5.00	10.73	ND	ND	ND	ND	630.4	0
67666	2017-10-17T09:00:00	82.9	ND	ND	ND	4.56	20.82	ND	ND	ND	ND	647.6	0
67667	2017-10-17T10:00:00	75	ND	ND	ND	6.20	40.03	ND	ND	ND	ND	647.9	0
67668	2017-10-17T11:00:00	78.6	ND	ND	ND	4.47	70.94	ND	ND	ND	ND	648.7	0
67669	2017-10-17T12:00:00	76.1	ND	ND	ND	5.53	112.42	ND	ND	ND	ND	649	0
67670	2017-10-17T13:00:00	73.7	ND	ND	ND	4.96	127.04	ND	ND	ND	ND	649.1	0
67671	2017-10-17T14:00:00	62.2	ND	ND	ND	6.17	96.57	ND	ND	ND	ND	622.8	0
67672	2017-10-17T15:00:00	52.9	ND	ND	ND	4.82	51.41	ND	ND	ND	ND	616.1	0
67673	2017-10-17T16:00:00	40.6	ND	ND	ND	3.15	49.24	ND	ND	ND	ND	639.1	0
67674	2017-10-17T17:00:00	36.9	ND	ND	ND	4.49	26.32	ND	ND	ND	ND	337.4	0
67675	2017-10-17T18:00:00	36.5	ND	ND	ND	3.76	16.15	ND	ND	ND	ND	35.6	0
67676	2017-10-17T19:00:00	27.6	ND	ND	ND	5.20	15.01	ND	ND	ND	ND	0	0
67677	2017-10-17T20:00:00	17.4	ND	ND	ND	3.33	15.42	ND	ND	ND	ND	0	0
67678	2017-10-17T21:00:00	15.7	ND	ND	ND	5.30	13.93	ND	ND	ND	ND	0	0
67679	2017-10-17T22:00:00	5.7	ND	ND	ND	5.90	15.95	ND	ND	ND	ND	0	0
67680	2017-10-17T23:00:00	3.5	ND	ND	ND	5.48	14.56	ND	ND	ND	ND	0	0
67681	2017-10-18T00:00:00	24.9	ND	ND	ND	7.23	10.85	ND	ND	ND	ND	0	0
67682	2017-10-18T01:00:00	33.2	ND	ND	ND	6.26	10.07	ND	ND	ND	ND	0	0
67683	2017-10-18T02:00:00	41.2	ND	ND	ND	8.04	7.75	ND	ND	ND	ND	0	0
67684	2017-10-18T03:00:00	56.7	ND	ND	ND	7.49	7.04	ND	ND	ND	ND	0	0
67685	2017-10-18T04:00:00	54.7	ND	ND	ND	6.61	7.99	ND	ND	ND	ND	0	0
67686	2017-10-18T05:00:00	53.3	ND	ND	ND	7.65	8.08	ND	ND	ND	ND	0	0
67687	2017-10-18T06:00:00	48.7	ND	ND	ND	6.23	7.18	ND	ND	ND	ND	0	0
67688	2017-10-18T07:00:00	75	ND	ND	ND	5.05	7.10	ND	ND	ND	ND	122.5	0
67689	2017-10-18T08:00:00	73.3	ND	ND	ND	5.85	8.75	ND	ND	ND	ND	421.6	0
67690	2017-10-18T09:00:00	56.4	ND	ND	ND	5.78	13.40	ND	ND	ND	ND	642.6	0
67691	2017-10-18T10:00:00	73.6	ND	ND	ND	4.88	19.56	ND	ND	ND	ND	647.7	0
67692	2017-10-18T11:00:00	82.2	ND	ND	ND	4.98	50.67	ND	ND	ND	ND	648.5	0
67693	2017-10-18T12:00:00	91.9	ND	ND	ND	5.34	72.84	ND	ND	ND	ND	648.5	0
67694	2017-10-18T13:00:00	99.7	ND	ND	ND	4.08	97.39	ND	ND	ND	ND	648.6	0
67695	2017-10-18T14:00:00	75.2	ND	ND	ND	5.00	86.31	ND	ND	ND	ND	648.6	0
67696	2017-10-18T15:00:00	41.2	ND	ND	ND	5.00	52.36	ND	ND	ND	ND	649.3	0
67697	2017-10-18T16:00:00	59.5	ND	ND	ND	3.94	30.85	ND	ND	ND	ND	646.2	0
67698	2017-10-18T17:00:00	54.2	ND	ND	ND	4.64	28.59	ND	ND	ND	ND	526.1	0
67699	2017-10-18T18:00:00	40.4	ND	ND	ND	3.60	20.35	ND	ND	ND	ND	148.1	0
67700	2017-10-18T19:00:00	39	ND	ND	ND	2.83	16.64	ND	ND	ND	ND	0	0
67701	2017-10-18T20:00:00	35.1	ND	ND	ND	4.45	16.99	ND	ND	ND	ND	0	0
67702	2017-10-18T21:00:00	22.3	ND	ND	ND	5.07	21.25	ND	ND	ND	ND	0	0
67703	2017-10-18T22:00:00	11.9	ND	ND	ND	4.99	15.03	ND	ND	ND	ND	0	0
67704	2017-10-18T23:00:00	26.5	ND	ND	ND	4.86	7.08	ND	ND	ND	ND	0	0
67705	2017-10-19T00:00:00	34.9	ND	ND	ND	6.37	7.67	ND	ND	ND	ND	0	0
67706	2017-10-19T01:00:00	47.5	ND	ND	ND	7.69	8.20	ND	ND	ND	ND	0	0
67707	2017-10-19T02:00:00	37	ND	ND	ND	6.04	11.26	ND	ND	ND	ND	0	0
67708	2017-10-19T03:00:00	50.3	ND	ND	ND	7.99	9.03	ND	ND	ND	ND	0	0
67709	2017-10-19T04:00:00	44	ND	ND	ND	6.66	25.92	ND	ND	ND	ND	0	41.66
67710	2017-10-19T05:00:00	12.1	ND	ND	ND	7.04	16.03	ND	ND	ND	ND	0	3.81
67711	2017-10-19T06:00:00	15.5	ND	ND	ND	6.50	10.20	ND	ND	ND	ND	0	1.02
67712	2017-10-19T07:00:00	28.5	ND	ND	ND	5.65	7.14	ND	ND	ND	ND	50.9	0
67713	2017-10-19T08:00:00	43.9	ND	ND	ND	3.93	7.12	ND	ND	ND	ND	248.6	0
67714	2017-10-19T09:00:00	63.2	ND	ND	ND	4.75	11.17	ND	ND	ND	ND	606.1	0
67715	2017-10-19T10:00:00	67.4	ND	ND	ND	4.63	18.98	ND	ND	ND	ND	647.6	0
67716	2017-10-19T11:00:00	49.3	ND	ND	ND	6.43	33.71	ND	ND	ND	ND	647.8	0
67717	2017-10-19T12:00:00	60.2	ND	ND	ND	4.56	67.86	ND	ND	ND	ND	648	0
67718	2017-10-19T13:00:00	53.4	ND	ND	ND	6.08	61.44	ND	ND	ND	ND	648.7	0
67719	2017-10-19T14:00:00	50.3	ND	ND	ND	5.85	67.19	ND	ND	ND	ND	649	0
67720	2017-10-19T15:00:00	48.7	ND	ND	ND	4.85	60.68	ND	ND	ND	ND	648.7	0
67721	2017-10-19T16:00:00	44.4	ND	ND	ND	4.06	67.13	ND	ND	ND	ND	614.6	0
67722	2017-10-19T17:00:00	39.8	ND	ND	ND	5.09	29.00	ND	ND	ND	ND	364.4	0
67723	2017-10-19T18:00:00	42.2	ND	ND	ND	3.04	18.27	ND	ND	ND	ND	74.3	0
67724	2017-10-19T19:00:00	22.4	ND	ND	ND	1.99	18.78	ND	ND	ND	ND	0	0
67725	2017-10-19T20:00:00	21.3	ND	ND	ND	3.12	17.54	ND	ND	ND	ND	0	0
67726	2017-10-19T21:00:00	18.5	ND	ND	ND	5.71	15.60	ND	ND	ND	ND	0	0
67727	2017-10-19T22:00:00	25.2	ND	ND	ND	4.66	9.42	ND	ND	ND	ND	0	0
67728	2017-10-19T23:00:00	31.5	ND	ND	ND	5.74	8.22	ND	ND	ND	ND	0	0
67729	2017-10-20T00:00:00	40.4	ND	ND	ND	5.31	6.46	ND	ND	ND	ND	0	0
67730	2017-10-20T01:00:00	40.3	ND	ND	ND	5.69	7.08	ND	ND	ND	ND	0	0
67731	2017-10-20T02:00:00	30.1	ND	ND	ND	5.69	7.12	ND	ND	ND	ND	0	0
67732	2017-10-20T03:00:00	30	ND	ND	ND	8.25	6.77	ND	ND	ND	ND	0	0
67733	2017-10-20T04:00:00	44.1	ND	ND	ND	6.82	8.08	ND	ND	ND	ND	0	0
67734	2017-10-20T05:00:00	42.3	ND	ND	ND	6.62	6.87	ND	ND	ND	ND	0	0
67735	2017-10-20T06:00:00	24.9	ND	ND	ND	6.66	6.61	ND	ND	ND	ND	0	0
67736	2017-10-20T07:00:00	62.1	ND	ND	ND	5.62	6.83	ND	ND	ND	ND	65.6	0
67737	2017-10-20T08:00:00	79.7	ND	ND	ND	5.90	8.81	ND	ND	ND	ND	301.6	0
67738	2017-10-20T09:00:00	73.8	ND	ND	ND	4.80	21.88	ND	ND	ND	ND	639.2	0
67739	2017-10-20T10:00:00	84.8	ND	ND	ND	6.48	44.82	ND	ND	ND	ND	648.1	0
67740	2017-10-20T11:00:00	75.5	ND	ND	ND	7.82	55.97	ND	ND	ND	ND	647.3	0
67741	2017-10-20T12:00:00	77	ND	ND	ND	4.38	84.09	ND	ND	ND	ND	649	0
67742	2017-10-20T13:00:00	62.4	ND	ND	ND	5.92	58.62	ND	ND	ND	ND	645.4	0
67743	2017-10-20T14:00:00	24.4	ND	ND	ND	4.64	36.11	ND	ND	ND	ND	648.7	0
67744	2017-10-20T15:00:00	17.3	ND	ND	ND	4.74	28.49	ND	ND	ND	ND	649.1	0
67745	2017-10-20T16:00:00	25.1	ND	ND	ND	3.82	23.06	ND	ND	ND	ND	625.3	0
67746	2017-10-20T17:00:00	20.9	ND	ND	ND	3.89	21.06	ND	ND	ND	ND	418.6	0
67747	2017-10-20T18:00:00	16.7	ND	ND	ND	3.89	15.21	ND	ND	ND	ND	84.2	0
67748	2017-10-20T19:00:00	24.9	ND	ND	ND	3.35	11.75	ND	ND	ND	ND	0	0
67749	2017-10-20T20:00:00	21.9	ND	ND	ND	3.89	13.11	ND	ND	ND	ND	0	0
67750	2017-10-20T21:00:00	14.6	ND	ND	ND	2.87	14.52	ND	ND	ND	ND	0	0
67751	2017-10-20T22:00:00	7.7	ND	ND	ND	4.08	12.38	ND	ND	ND	ND	0	0
67752	2017-10-20T23:00:00	30.1	ND	ND	ND	3.65	6.85	ND	ND	ND	ND	0	0
67753	2017-10-21T00:00:00	45.8	ND	ND	ND	5.38	9.71	ND	ND	ND	ND	0	0
67754	2017-10-21T01:00:00	23.6	ND	ND	ND	5.77	10.85	ND	ND	ND	ND	0	0
67755	2017-10-21T02:00:00	36.4	ND	ND	ND	6.80	6.57	ND	ND	ND	ND	0	0
67756	2017-10-21T03:00:00	40.7	ND	ND	ND	5.58	6.75	ND	ND	ND	ND	0	0
67757	2017-10-21T04:00:00	32.4	ND	ND	ND	6.87	7.52	ND	ND	ND	ND	0	0
67758	2017-10-21T05:00:00	35.9	ND	ND	ND	7.00	6.71	ND	ND	ND	ND	0	0
67759	2017-10-21T06:00:00	47	ND	ND	ND	6.77	6.87	ND	ND	ND	ND	4.1	0
67760	2017-10-21T07:00:00	57.6	ND	ND	ND	4.38	6.99	ND	ND	ND	ND	89.3	0
67761	2017-10-21T08:00:00	70.3	ND	ND	ND	5.27	7.56	ND	ND	ND	ND	344.4	0
67762	2017-10-21T09:00:00	74.4	ND	ND	ND	5.23	9.79	ND	ND	ND	ND	483.6	0
67763	2017-10-21T10:00:00	102.9	ND	ND	ND	5.98	29.30	ND	ND	ND	ND	647.7	0
67764	2017-10-21T11:00:00	100.3	ND	ND	ND	5.85	43.09	ND	ND	ND	ND	645.3	0
67765	2017-10-21T12:00:00	88.3	ND	ND	ND	3.88	61.66	ND	ND	ND	ND	648.3	0
67766	2017-10-21T13:00:00	74.2	ND	ND	ND	4.96	59.75	ND	ND	ND	ND	631.6	0
67767	2017-10-21T14:00:00	71.9	ND	ND	ND	5.02	70.76	ND	ND	ND	ND	648.8	0
67768	2017-10-21T15:00:00	70	ND	ND	ND	5.34	62.64	ND	ND	ND	ND	490.2	0
67769	2017-10-21T16:00:00	35.4	ND	ND	ND	5.45	28.14	ND	ND	ND	ND	601.9	0
67770	2017-10-21T17:00:00	10.3	ND	ND	ND	4.45	27.04	ND	ND	ND	ND	362.9	0
67771	2017-10-21T18:00:00	18.3	ND	ND	ND	5.02	19.96	ND	ND	ND	ND	78.6	0
67772	2017-10-21T19:00:00	12.8	ND	ND	ND	4.74	14.40	ND	ND	ND	ND	0	0
67773	2017-10-21T20:00:00	13.2	ND	ND	ND	3.37	11.24	ND	ND	ND	ND	0	0
67774	2017-10-21T21:00:00	14.9	ND	ND	ND	5.10	17.64	ND	ND	ND	ND	0	0
67775	2017-10-21T22:00:00	6	ND	ND	ND	5.38	15.80	ND	ND	ND	ND	0	0
67776	2017-10-21T23:00:00	21.9	ND	ND	ND	3.74	8.16	ND	ND	ND	ND	0	0
67777	2017-10-22T00:00:00	34.6	ND	ND	ND	4.66	7.42	ND	ND	ND	ND	0	0
67778	2017-10-22T01:00:00	35.5	ND	ND	ND	6.29	7.10	ND	ND	ND	ND	0	0
67779	2017-10-22T02:00:00	30.7	ND	ND	ND	5.28	8.20	ND	ND	ND	ND	0	0
67780	2017-10-22T03:00:00	ND	ND	ND	ND	ND	ND	ND	ND	ND	ND	ND	ND
67781	2017-10-22T04:00:00	55.1	ND	ND	ND	6.27	7.04	ND	ND	ND	ND	0	0
67782	2017-10-22T05:00:00	44.6	ND	ND	ND	5.76	7.48	ND	ND	ND	ND	0	0
67783	2017-10-22T06:00:00	36.2	ND	ND	ND	7.29	6.53	ND	ND	ND	ND	0	0
67784	2017-10-22T07:00:00	49.9	ND	ND	ND	7.09	6.89	ND	ND	ND	ND	35.3	0
67785	2017-10-22T08:00:00	54.5	ND	ND	ND	6.30	8.52	ND	ND	ND	ND	279.7	0
67786	2017-10-22T09:00:00	57.6	ND	ND	ND	5.67	11.26	ND	ND	ND	ND	429.8	0
67787	2017-10-22T10:00:00	61.3	ND	ND	ND	6.77	10.11	ND	ND	ND	ND	210.6	0
67788	2017-10-22T11:00:00	33.7	ND	ND	ND	6.38	15.78	ND	ND	ND	ND	351.9	0
67789	2017-10-22T12:00:00	17.2	ND	ND	ND	8.50	20.43	ND	ND	ND	ND	435.1	0
67790	2017-10-22T13:00:00	10.8	ND	ND	ND	6.65	30.02	ND	ND	ND	ND	647.7	0
67791	2017-10-22T14:00:00	24.1	ND	ND	ND	7.97	24.22	ND	ND	ND	ND	611.4	0
67792	2017-10-22T15:00:00	36.9	ND	ND	ND	6.82	34.46	ND	ND	ND	ND	598.2	0
67793	2017-10-22T16:00:00	13.6	ND	ND	ND	6.57	49.08	ND	ND	ND	ND	497	0
67794	2017-10-22T17:00:00	18	ND	ND	ND	4.77	35.62	ND	ND	ND	ND	217.8	0
67795	2017-10-22T18:00:00	27.9	ND	ND	ND	6.43	23.29	ND	ND	ND	ND	42.1	0
67796	2017-10-22T19:00:00	20.9	ND	ND	ND	6.36	21.80	ND	ND	ND	ND	0	0
67797	2017-10-22T20:00:00	22.4	ND	ND	ND	6.27	10.52	ND	ND	ND	ND	0	0
67798	2017-10-22T21:00:00	36.7	ND	ND	ND	4.34	7.16	ND	ND	ND	ND	0	0
67799	2017-10-22T22:00:00	54.7	ND	ND	ND	5.21	7.48	ND	ND	ND	ND	0	0
67800	2017-10-22T23:00:00	51.5	ND	ND	ND	5.91	9.56	ND	ND	ND	ND	0	0
67801	2017-10-23T00:00:00	49	ND	ND	ND	6.15	9.22	ND	ND	ND	ND	0	0
67802	2017-10-23T01:00:00	23.6	ND	ND	ND	6.44	8.26	ND	ND	ND	ND	0	0
67803	2017-10-23T02:00:00	14.5	ND	ND	ND	5.10	9.32	ND	ND	ND	ND	0	0
67804	2017-10-23T03:00:00	11.8	ND	ND	ND	5.69	8.81	ND	ND	ND	ND	0	1.27
67805	2017-10-23T04:00:00	18.2	ND	ND	ND	7.57	7.26	ND	ND	ND	ND	0	0
67806	2017-10-23T05:00:00	28.7	ND	ND	ND	6.61	6.48	ND	ND	ND	ND	0	0.25
67807	2017-10-23T06:00:00	30	ND	ND	ND	7.89	6.61	ND	ND	ND	ND	0	0
67808	2017-10-23T07:00:00	44.3	ND	ND	ND	5.30	6.85	ND	ND	ND	ND	85.3	0
67809	2017-10-23T08:00:00	51.7	ND	ND	ND	5.35	7.12	ND	ND	ND	ND	259.6	0
67810	2017-10-23T09:00:00	53.1	ND	ND	ND	6.69	12.05	ND	ND	ND	ND	647.1	0
67811	2017-10-23T10:00:00	68.7	ND	ND	ND	5.17	21.15	ND	ND	ND	ND	647.8	0
67812	2017-10-23T11:00:00	89.6	ND	ND	ND	6.62	39.78	ND	ND	ND	ND	648.2	0
67813	2017-10-23T12:00:00	96.2	ND	ND	ND	7.09	58.66	ND	ND	ND	ND	648.6	0
67814	2017-10-23T13:00:00	74.7	ND	ND	ND	4.10	71.31	ND	ND	ND	ND	648.7	0
67815	2017-10-23T14:00:00	57	ND	ND	ND	5.44	78.97	ND	ND	ND	ND	647.8	0
67816	2017-10-23T15:00:00	50.5	ND	ND	ND	5.73	57.28	ND	ND	ND	ND	648.3	0
67817	2017-10-23T16:00:00	41.7	ND	ND	ND	5.92	28.91	ND	ND	ND	ND	644	0
67818	2017-10-23T17:00:00	36.8	ND	ND	ND	5.46	17.23	ND	ND	ND	ND	258.3	0
67819	2017-10-23T18:00:00	32	ND	ND	ND	3.55	12.60	ND	ND	ND	ND	25.4	0
67820	2017-10-23T19:00:00	28.3	ND	ND	ND	3.37	24.31	ND	ND	ND	ND	0	0
67821	2017-10-23T20:00:00	26.7	ND	ND	ND	3.74	22.69	ND	ND	ND	ND	0	0
67822	2017-10-23T21:00:00	27	ND	ND	ND	5.81	15.33	ND	ND	ND	ND	0	0
67823	2017-10-23T22:00:00	12	ND	ND	ND	4.85	10.93	ND	ND	ND	ND	0	0
67824	2017-10-23T23:00:00	16.4	ND	ND	ND	5.85	15.91	ND	ND	ND	ND	0	0
67825	2017-10-24T00:00:00	34.6	ND	ND	ND	6.37	17.21	ND	ND	ND	ND	0	9.4
67826	2017-10-24T01:00:00	17.8	ND	ND	ND	5.20	12.97	ND	ND	ND	ND	0	14.99
67827	2017-10-24T02:00:00	9.1	ND	ND	ND	4.24	11.62	ND	ND	ND	ND	0	13.46
67828	2017-10-24T03:00:00	12.5	ND	ND	ND	6.23	11.66	ND	ND	ND	ND	0	7.62
67829	2017-10-24T04:00:00	10.2	ND	ND	ND	5.52	11.19	ND	ND	ND	ND	0	4.57
67830	2017-10-24T05:00:00	8.5	ND	ND	ND	ND	8.54	ND	ND	ND	ND	0	1.52
67831	2017-10-24T06:00:00	5.7	ND	ND	ND	ND	7.01	ND	ND	ND	ND	0	1.78
67832	2017-10-24T07:00:00	16.3	ND	ND	ND	ND	6.48	ND	ND	ND	ND	9.5	2.29
67833	2017-10-24T08:00:00	33.8	ND	ND	ND	ND	6.65	ND	ND	ND	ND	41.3	1.52
67834	2017-10-24T09:00:00	48.2	ND	ND	ND	ND	6.67	ND	ND	ND	ND	105.2	0.51
67835	2017-10-24T10:00:00	40.1	ND	ND	ND	ND	ND	ND	ND	ND	ND	242.8	0.51
67836	2017-10-24T11:00:00	57.2	ND	ND	ND	ND	27.28	ND	ND	ND	ND	379.4	0
67837	2017-10-24T12:00:00	65.1	ND	ND	ND	ND	6.75	ND	ND	ND	ND	423	0
67838	2017-10-24T13:00:00	44.1	ND	ND	ND	ND	7.28	ND	ND	ND	ND	495.5	0
67839	2017-10-24T14:00:00	59.3	ND	ND	ND	ND	9.44	ND	ND	ND	ND	495.8	0
67840	2017-10-24T15:00:00	66.2	ND	ND	ND	ND	11.44	ND	ND	ND	ND	583.4	0
67841	2017-10-24T16:00:00	72.2	ND	ND	ND	ND	9.60	ND	ND	ND	ND	435.5	0
67842	2017-10-24T17:00:00	76.4	ND	ND	ND	ND	9.36	ND	ND	ND	ND	211.4	0
67843	2017-10-24T18:00:00	70	ND	ND	ND	ND	8.12	ND	ND	ND	ND	47.5	0
67844	2017-10-24T19:00:00	59.6	ND	ND	ND	ND	6.50	ND	ND	ND	ND	0	0
67845	2017-10-24T20:00:00	76	ND	ND	ND	ND	6.04	ND	ND	ND	ND	0	0
67846	2017-10-24T21:00:00	58.8	ND	ND	ND	ND	5.97	ND	ND	ND	ND	0	0
67847	2017-10-24T22:00:00	57.8	ND	ND	ND	ND	5.91	ND	ND	ND	ND	0	0
67848	2017-10-24T23:00:00	53	ND	ND	ND	ND	5.57	ND	ND	ND	ND	0	0
67849	2017-10-25T00:00:00	38.2	ND	ND	ND	ND	5.53	ND	ND	ND	ND	0	0
67850	2017-10-25T01:00:00	37.6	ND	ND	ND	ND	5.87	ND	ND	ND	ND	0	0
67851	2017-10-25T02:00:00	34.8	ND	ND	ND	ND	5.87	ND	ND	ND	ND	0	0
67852	2017-10-25T03:00:00	33.1	ND	ND	ND	ND	5.79	ND	ND	ND	ND	0	0
67853	2017-10-25T04:00:00	32	ND	ND	ND	ND	5.59	ND	ND	ND	ND	0	0
67854	2017-10-25T05:00:00	46.2	ND	ND	ND	ND	6.02	ND	ND	ND	ND	0	0
67855	2017-10-25T06:00:00	35.1	ND	ND	ND	ND	5.97	ND	ND	ND	ND	0	0
67856	2017-10-25T07:00:00	76.7	ND	ND	ND	ND	6.16	ND	ND	ND	ND	112.7	0
67857	2017-10-25T08:00:00	109.1	ND	ND	ND	ND	6.63	ND	ND	ND	ND	447.3	0
67858	2017-10-25T09:00:00	127.1	ND	ND	ND	ND	8.65	ND	ND	ND	ND	612.5	0
67859	2017-10-25T10:00:00	126.9	ND	ND	ND	ND	24.53	ND	ND	ND	ND	647.4	0
67860	2017-10-25T11:00:00	103.5	ND	ND	ND	ND	40.58	ND	ND	ND	ND	626	0
67861	2017-10-25T12:00:00	90.7	ND	ND	ND	ND	61.50	ND	ND	ND	ND	648.2	0
67862	2017-10-25T13:00:00	94.6	ND	ND	ND	ND	73.39	ND	ND	ND	ND	648.3	0
67863	2017-10-25T14:00:00	92.1	ND	ND	ND	ND	97.98	ND	ND	ND	ND	648.5	0
67864	2017-10-25T15:00:00	87.3	ND	ND	ND	ND	119.63	ND	ND	ND	ND	648.3	0
67865	2017-10-25T16:00:00	92.7	ND	ND	ND	ND	101.89	ND	ND	ND	ND	521.3	0
67866	2017-10-25T17:00:00	94.3	ND	ND	ND	ND	55.89	ND	ND	ND	ND	244.4	0
67867	2017-10-25T18:00:00	68.9	ND	ND	ND	ND	11.17	ND	ND	ND	ND	40.9	0
67868	2017-10-25T19:00:00	40	ND	ND	ND	ND	7.12	ND	ND	ND	ND	0	0
67869	2017-10-25T20:00:00	30.1	ND	ND	ND	2.20	7.40	ND	ND	ND	ND	0	0
67870	2017-10-25T21:00:00	17.4	ND	ND	ND	1.81	11.75	ND	ND	ND	ND	0	0
67871	2017-10-25T22:00:00	16.1	ND	ND	ND	3.09	14.34	ND	ND	ND	ND	0	0
67872	2017-10-25T23:00:00	31.7	ND	ND	ND	3.42	5.93	ND	ND	ND	ND	0	0
67873	2017-10-26T00:00:00	41.2	ND	ND	ND	3.67	11.42	ND	ND	ND	ND	0	0
67874	2017-10-26T01:00:00	27.1	ND	ND	ND	3.26	8.28	ND	ND	ND	ND	0	0
67875	2017-10-26T02:00:00	27	ND	ND	ND	3.37	8.40	ND	ND	ND	ND	0	0
67876	2017-10-26T03:00:00	38.3	ND	ND	ND	3.40	8.79	ND	ND	ND	ND	0	0
67877	2017-10-26T04:00:00	28.4	ND	ND	ND	2.98	10.50	ND	ND	ND	ND	0	13.46
67878	2017-10-26T05:00:00	34.6	ND	ND	ND	3.44	16.09	ND	ND	ND	ND	0	0.51
67879	2017-10-26T06:00:00	16.6	ND	ND	ND	3.35	9.20	ND	ND	ND	ND	0	10.16
67880	2017-10-26T07:00:00	11.8	ND	ND	ND	4.25	7.04	ND	ND	ND	ND	27	4.83
67881	2017-10-26T08:00:00	20.5	ND	ND	ND	3.32	6.16	ND	ND	ND	ND	213.2	0.76
67882	2017-10-26T09:00:00	38.7	ND	ND	ND	1.64	7.22	ND	ND	ND	ND	426.4	0.25
67883	2017-10-26T10:00:00	62.3	ND	ND	ND	2.34	11.32	ND	ND	ND	ND	451.1	0
67884	2017-10-26T11:00:00	85	ND	ND	ND	2.62	9.64	ND	ND	ND	ND	622.5	0
67885	2017-10-26T12:00:00	65.9	ND	ND	ND	3.05	23.92	ND	ND	ND	ND	647.5	0
67886	2017-10-26T13:00:00	75.1	ND	ND	ND	1.38	27.04	ND	ND	ND	ND	647.8	0
67887	2017-10-26T14:00:00	57.8	ND	ND	ND	1.41	35.87	ND	ND	ND	ND	648.4	0
67888	2017-10-26T15:00:00	39	ND	ND	ND	2.16	31.69	ND	ND	ND	ND	648.5	0
67889	2017-10-26T16:00:00	31.3	ND	ND	ND	2.34	29.53	ND	ND	ND	ND	618.2	0
67890	2017-10-26T17:00:00	39.2	ND	ND	ND	2.38	29.12	ND	ND	ND	ND	477.6	0
67891	2017-10-26T18:00:00	70.4	ND	ND	ND	1.90	10.60	ND	ND	ND	ND	36.9	0
67892	2017-10-26T19:00:00	68.4	ND	ND	ND	4.70	6.61	ND	ND	ND	ND	0	0
67893	2017-10-26T20:00:00	68.6	ND	ND	ND	1.35	6.85	ND	ND	ND	ND	0	0
67894	2017-10-26T21:00:00	58.8	ND	ND	ND	2.30	7.12	ND	ND	ND	ND	0	0
67895	2017-10-26T22:00:00	39.2	ND	ND	ND	1.91	6.22	ND	ND	ND	ND	0	0
67896	2017-10-26T23:00:00	45.7	ND	ND	ND	2.86	6.34	ND	ND	ND	ND	0	0
67897	2017-10-27T00:00:00	48.5	ND	ND	ND	4.21	6.55	ND	ND	ND	ND	0	0
67898	2017-10-27T01:00:00	36.5	ND	ND	ND	4.61	7.77	ND	ND	ND	ND	0	0
67899	2017-10-27T02:00:00	28.5	ND	ND	ND	3.15	6.46	ND	ND	ND	ND	0	0
67900	2017-10-27T03:00:00	25.1	ND	ND	ND	2.84	6.14	ND	ND	ND	ND	0	0
67901	2017-10-27T04:00:00	46.5	ND	ND	ND	3.71	5.59	ND	ND	ND	ND	0	0
67902	2017-10-27T05:00:00	31.4	ND	ND	ND	3.92	6.00	ND	ND	ND	ND	0	0
67903	2017-10-27T06:00:00	40.3	ND	ND	ND	3.83	6.28	ND	ND	ND	ND	0	0
67904	2017-10-27T07:00:00	50.2	ND	ND	ND	2.52	6.50	ND	ND	ND	ND	108.3	0
67905	2017-10-27T08:00:00	55.3	ND	ND	ND	1.80	6.52	ND	ND	ND	ND	261.8	0
67906	2017-10-27T09:00:00	63.7	ND	ND	ND	1.24	13.80	ND	ND	ND	ND	622.2	0
67907	2017-10-27T10:00:00	61.5	ND	ND	ND	3.93	32.52	ND	ND	ND	ND	647.5	0
67908	2017-10-27T11:00:00	86.3	ND	ND	ND	1.71	54.75	ND	ND	ND	ND	648.2	0
67909	2017-10-27T12:00:00	100.4	ND	ND	ND	2.96	74.94	ND	ND	ND	ND	648.7	0
67910	2017-10-27T13:00:00	81.6	ND	ND	ND	3.43	80.32	ND	ND	ND	ND	649	0
67911	2017-10-27T14:00:00	43.9	ND	ND	ND	1.48	90.54	ND	ND	ND	ND	649.3	0
67912	2017-10-27T15:00:00	30.7	ND	ND	ND	1.55	50.02	ND	ND	ND	ND	649.2	0
67913	2017-10-27T16:00:00	28.2	ND	ND	ND	3.28	31.40	ND	ND	ND	ND	639.1	0
67914	2017-10-27T17:00:00	23.9	ND	ND	ND	2.68	20.35	ND	ND	ND	ND	337.4	0
67915	2017-10-27T18:00:00	30.4	ND	ND	ND	2.82	13.62	ND	ND	ND	ND	26.8	0
67916	2017-10-27T19:00:00	29.4	ND	ND	ND	3.02	12.56	ND	ND	ND	ND	0	0
67917	2017-10-27T20:00:00	19.1	ND	ND	ND	3.19	10.60	ND	ND	ND	ND	0	0
67918	2017-10-27T21:00:00	28	ND	ND	ND	3.01	8.73	ND	ND	ND	ND	0	2.79
67919	2017-10-27T22:00:00	38.6	ND	ND	ND	4.00	9.09	ND	ND	ND	ND	0	11.18
67920	2017-10-27T23:00:00	32.2	ND	ND	ND	3.43	9.56	ND	ND	ND	ND	0	14.73
67921	2017-10-28T00:00:00	22.6	ND	ND	ND	2.82	7.59	ND	ND	ND	ND	0	3.81
67922	2017-10-28T01:00:00	17.1	ND	ND	ND	4.38	6.52	ND	ND	ND	ND	0	0.25
67923	2017-10-28T02:00:00	13.8	ND	ND	ND	5.23	7.16	ND	ND	ND	ND	0	0
67924	2017-10-28T03:00:00	12.7	ND	ND	ND	4.25	9.42	ND	ND	ND	ND	0	0
67925	2017-10-28T04:00:00	9.5	ND	ND	ND	3.11	7.69	ND	ND	ND	ND	0	0
67926	2017-10-28T05:00:00	11.5	ND	ND	ND	2.76	6.53	ND	ND	ND	ND	0	0
67927	2017-10-28T06:00:00	16.9	ND	ND	ND	4.18	5.49	ND	ND	ND	ND	0	0
67928	2017-10-28T07:00:00	42.1	ND	ND	ND	2.72	6.06	ND	ND	ND	ND	38.6	0.51
67929	2017-10-28T08:00:00	57.6	ND	ND	ND	4.20	5.87	ND	ND	ND	ND	94.8	0
67930	2017-10-28T09:00:00	71.7	ND	ND	ND	4.78	6.18	ND	ND	ND	ND	192.6	0
67931	2017-10-28T10:00:00	70.5	ND	ND	ND	3.75	7.12	ND	ND	ND	ND	234.3	0
67932	2017-10-28T11:00:00	45	ND	ND	ND	0.67	9.09	ND	ND	ND	ND	534.5	0
67933	2017-10-28T12:00:00	39.7	ND	ND	ND	1.21	17.15	ND	ND	ND	ND	646	0
67934	2017-10-28T13:00:00	52.7	ND	ND	ND	3.00	28.02	ND	ND	ND	ND	647.7	0
67935	2017-10-28T14:00:00	65.2	ND	ND	ND	3.15	50.06	ND	ND	ND	ND	647.5	0
67936	2017-10-28T15:00:00	69.1	ND	ND	ND	2.61	47.65	ND	ND	ND	ND	605	0
67937	2017-10-28T16:00:00	57.1	ND	ND	ND	2.62	40.90	ND	ND	ND	ND	308.2	0
67938	2017-10-28T17:00:00	46.4	ND	ND	ND	2.19	28.91	ND	ND	ND	ND	200.3	0.25
67939	2017-10-28T18:00:00	29.4	ND	ND	ND	3.12	13.09	ND	ND	ND	ND	37.7	1.52
67940	2017-10-28T19:00:00	34.2	ND	ND	ND	3.51	5.85	ND	ND	ND	ND	0	0.25
67941	2017-10-28T20:00:00	33.9	ND	ND	ND	3.64	5.87	ND	ND	ND	ND	0	0
67942	2017-10-28T21:00:00	48	ND	ND	ND	3.61	5.79	ND	ND	ND	ND	0	0
67943	2017-10-28T22:00:00	44.7	ND	ND	ND	2.15	5.63	ND	ND	ND	ND	0	0
67944	2017-10-28T23:00:00	44.9	ND	ND	ND	2.23	5.79	ND	ND	ND	ND	0	0
67945	2017-10-29T00:00:00	43.2	ND	ND	ND	2.91	5.36	ND	ND	ND	ND	0	0
67946	2017-10-29T01:00:00	39.6	ND	ND	ND	3.18	5.85	ND	ND	ND	ND	0	0
67947	2017-10-29T02:00:00	30.8	ND	ND	ND	4.17	5.67	ND	ND	ND	ND	0	0
67948	2017-10-29T03:00:00	26.5	ND	ND	ND	2.73	5.44	ND	ND	ND	ND	0	0.25
67949	2017-10-29T04:00:00	26.8	ND	ND	ND	3.08	5.49	ND	ND	ND	ND	0	0
67950	2017-10-29T05:00:00	36	ND	ND	ND	3.82	5.55	ND	ND	ND	ND	0	0
67951	2017-10-29T06:00:00	47.8	ND	ND	ND	3.11	5.61	ND	ND	ND	ND	0	0
67952	2017-10-29T07:00:00	37.3	ND	ND	ND	4.39	5.65	ND	ND	ND	ND	60.4	0
67953	2017-10-29T08:00:00	36.4	ND	ND	ND	4.00	5.81	ND	ND	ND	ND	155.2	0
67954	2017-10-29T09:00:00	52.3	ND	ND	ND	3.47	6.52	ND	ND	ND	ND	370.6	0
67955	2017-10-29T10:00:00	65.7	ND	ND	ND	3.29	8.97	ND	ND	ND	ND	583.3	0
67956	2017-10-29T11:00:00	72.3	ND	ND	ND	2.62	19.04	ND	ND	ND	ND	647.7	0
67957	2017-10-29T12:00:00	52.8	ND	ND	ND	3.54	35.36	ND	ND	ND	ND	647.5	0
67958	2017-10-29T13:00:00	60.4	ND	ND	ND	2.13	55.30	ND	ND	ND	ND	648	0
67959	2017-10-29T14:00:00	69.3	ND	ND	ND	0.85	64.84	ND	ND	ND	ND	648	0
67960	2017-10-29T15:00:00	70.4	ND	ND	ND	2.10	70.19	ND	ND	ND	ND	592.2	0
67961	2017-10-29T16:00:00	69.1	ND	ND	ND	2.73	69.70	ND	ND	ND	ND	564.6	0
67962	2017-10-29T17:00:00	66.3	ND	ND	ND	1.37	80.20	ND	ND	ND	ND	426.3	0
67963	2017-10-29T18:00:00	65.5	ND	ND	ND	2.59	61.89	ND	ND	ND	ND	61.4	0
67964	2017-10-29T19:00:00	75.9	ND	ND	ND	5.05	13.23	ND	ND	ND	ND	0	0
67965	2017-10-29T20:00:00	76.2	ND	ND	ND	2.94	6.81	ND	ND	ND	ND	0	0
67966	2017-10-29T21:00:00	66.9	ND	ND	ND	2.13	6.99	ND	ND	ND	ND	0	0
67967	2017-10-29T22:00:00	36.4	ND	ND	ND	2.89	9.40	ND	ND	ND	ND	0	0
67968	2017-10-29T23:00:00	17.2	ND	ND	ND	1.56	8.95	ND	ND	ND	ND	0	0
67969	2017-10-30T00:00:00	50.9	ND	ND	ND	4.46	5.73	ND	ND	ND	ND	0	0
67970	2017-10-30T01:00:00	55.6	ND	ND	ND	2.83	6.02	ND	ND	ND	ND	0	0
67971	2017-10-30T02:00:00	53.1	ND	ND	ND	4.28	9.22	ND	ND	ND	ND	0	0
67972	2017-10-30T03:00:00	39.4	ND	ND	ND	3.12	9.89	ND	ND	ND	ND	0	0
67973	2017-10-30T04:00:00	26.1	ND	ND	ND	4.17	9.67	ND	ND	ND	ND	0	0
67974	2017-10-30T05:00:00	25.3	ND	ND	ND	2.84	7.87	ND	ND	ND	ND	0	0
67975	2017-10-30T06:00:00	21.1	ND	ND	ND	3.01	5.85	ND	ND	ND	ND	0	0
67976	2017-10-30T07:00:00	75	ND	ND	ND	3.60	6.32	ND	ND	ND	ND	47.8	0
67977	2017-10-30T08:00:00	128.8	ND	ND	ND	3.53	6.81	ND	ND	ND	ND	169.8	0
67978	2017-10-30T09:00:00	143.6	ND	ND	ND	3.37	8.32	ND	ND	ND	ND	425.5	0
67979	2017-10-30T10:00:00	95.5	ND	ND	ND	1.87	14.52	ND	ND	ND	ND	632.9	0
67980	2017-10-30T11:00:00	68.6	ND	ND	ND	1.90	23.35	ND	ND	ND	ND	647.4	0
67981	2017-10-30T12:00:00	64.6	ND	ND	ND	1.16	37.81	ND	ND	ND	ND	648	0
67982	2017-10-30T13:00:00	50.5	ND	ND	ND	0.70	48.41	ND	ND	ND	ND	648.6	0
67983	2017-10-30T14:00:00	56.5	ND	ND	ND	1.46	59.36	ND	ND	ND	ND	648.6	0
67984	2017-10-30T15:00:00	55.3	ND	ND	ND	2.79	54.40	ND	ND	ND	ND	593.2	0
67985	2017-10-30T16:00:00	55.8	ND	ND	ND	3.05	30.87	ND	ND	ND	ND	404.3	0
67986	2017-10-30T17:00:00	57.8	ND	ND	ND	2.08	19.82	ND	ND	ND	ND	391.6	0
67987	2017-10-30T18:00:00	42.7	ND	ND	ND	2.91	12.26	ND	ND	ND	ND	39.7	0
67988	2017-10-30T19:00:00	23.4	ND	ND	ND	2.31	9.38	ND	ND	ND	ND	0	0
67989	2017-10-30T20:00:00	25.2	ND	ND	ND	2.30	9.50	ND	ND	ND	ND	0	0
67990	2017-10-30T21:00:00	25.2	ND	ND	ND	3.08	9.13	ND	ND	ND	ND	0	0
67991	2017-10-30T22:00:00	23.5	ND	ND	ND	2.97	8.85	ND	ND	ND	ND	0	0
67992	2017-10-30T23:00:00	19.2	ND	ND	ND	2.31	6.02	ND	ND	ND	ND	0	0
67993	2017-10-31T00:00:00	24.7	ND	ND	ND	3.14	6.52	ND	ND	ND	ND	0	0
67994	2017-10-31T01:00:00	27.9	ND	ND	ND	3.35	6.32	ND	ND	ND	ND	0	0
67995	2017-10-31T02:00:00	34.9	ND	ND	ND	5.44	7.79	ND	ND	ND	ND	0	0
67996	2017-10-31T03:00:00	27.4	ND	ND	ND	2.59	7.03	ND	ND	ND	ND	0	0
67997	2017-10-31T04:00:00	35.4	ND	ND	ND	3.67	6.99	ND	ND	ND	ND	0	0
67998	2017-10-31T05:00:00	35.5	ND	ND	ND	4.63	6.52	ND	ND	ND	ND	0	0
67999	2017-10-31T06:00:00	26	ND	ND	ND	4.78	5.91	ND	ND	ND	ND	0	0
68000	2017-10-31T07:00:00	52.6	ND	ND	ND	4.42	6.61	ND	ND	ND	ND	110.4	0
68001	2017-10-31T08:00:00	95.5	ND	ND	ND	5.34	6.61	ND	ND	ND	ND	134.3	0
68002	2017-10-31T09:00:00	95.9	ND	ND	ND	3.14	8.54	ND	ND	ND	ND	504.9	0
68003	2017-10-31T10:00:00	74.9	ND	ND	ND	ND	22.67	ND	ND	ND	ND	647.5	0
68004	2017-10-31T11:00:00	83.1	ND	ND	ND	0.79	37.68	ND	ND	ND	ND	648.2	0
68005	2017-10-31T12:00:00	67.5	ND	ND	ND	3.07	60.44	ND	ND	ND	ND	649.2	0
68006	2017-10-31T13:00:00	50.7	ND	ND	ND	1.83	80.40	ND	ND	ND	ND	649.1	0
68007	2017-10-31T14:00:00	45.8	ND	ND	ND	2.90	81.28	ND	ND	ND	ND	649.1	0
68008	2017-10-31T15:00:00	32.6	ND	ND	ND	2.08	65.15	ND	ND	ND	ND	649	0
68009	2017-10-31T16:00:00	42.1	ND	ND	ND	2.55	55.55	ND	ND	ND	ND	529.5	0
68010	2017-10-31T17:00:00	70.2	ND	ND	ND	2.75	49.75	ND	ND	ND	ND	197.8	0
68011	2017-10-31T18:00:00	77.7	ND	ND	ND	2.43	20.82	ND	ND	ND	ND	13.8	0
68012	2017-10-31T19:00:00	34.5	ND	ND	ND	1.76	14.91	ND	ND	ND	ND	0	0
68013	2017-10-31T20:00:00	21.3	ND	ND	ND	3.01	9.85	ND	ND	ND	ND	0	0
68014	2017-10-31T21:00:00	20.7	ND	ND	ND	1.67	8.50	ND	ND	ND	ND	0	0
68015	2017-10-31T22:00:00	28.6	ND	ND	ND	4.08	6.42	ND	ND	ND	ND	0	0
68016	2017-10-31T23:00:00	58	ND	ND	ND	3.75	5.87	ND	ND	ND	ND	0	0
68017	2017-11-01T00:00:00	58.6	ND	ND	ND	2.90	6.50	ND	ND	ND	ND	0	0
68018	2017-11-01T01:00:00	65.6	ND	ND	ND	3.75	6.81	ND	ND	ND	ND	0	0
68019	2017-11-01T02:00:00	60.3	ND	ND	ND	3.37	6.42	ND	ND	ND	ND	0	0
68020	2017-11-01T03:00:00	59.1	ND	ND	ND	3.97	6.34	ND	ND	ND	ND	0	0
68021	2017-11-01T04:00:00	58.9	ND	ND	ND	4.10	7.40	ND	ND	ND	ND	0	0
68022	2017-11-01T05:00:00	59.3	ND	ND	ND	4.28	6.57	ND	ND	ND	ND	0	0
68023	2017-11-01T06:00:00	59.1	ND	ND	ND	6.36	5.75	ND	ND	ND	ND	0	0
68024	2017-11-01T07:00:00	91.6	ND	ND	ND	4.42	6.85	ND	ND	ND	ND	235.8	0
68025	2017-11-01T08:00:00	126.6	ND	ND	ND	6.58	9.03	ND	ND	ND	ND	406.3	0
68026	2017-11-01T09:00:00	112.6	ND	ND	ND	3.79	23.08	ND	ND	ND	ND	642.7	0
68027	2017-11-01T10:00:00	100.6	ND	ND	ND	2.22	36.97	ND	ND	ND	ND	647.3	0
68028	2017-11-01T11:00:00	74.2	ND	ND	ND	2.29	52.67	ND	ND	ND	ND	647.9	0
68029	2017-11-01T12:00:00	60.3	ND	ND	ND	0.84	64.54	ND	ND	ND	ND	648.9	0
68030	2017-11-01T13:00:00	50.4	ND	ND	ND	2.65	83.03	ND	ND	ND	ND	649.1	0
68031	2017-11-01T14:00:00	60.1	ND	ND	ND	1.10	97.49	ND	ND	ND	ND	598.4	0
68032	2017-11-01T15:00:00	60.1	ND	ND	ND	3.69	61.17	ND	ND	ND	ND	522.4	0
68033	2017-11-01T16:00:00	27.2	ND	ND	ND	3.54	28.12	ND	ND	ND	ND	611.2	0
68034	2017-11-01T17:00:00	32.4	ND	ND	ND	1.64	16.64	ND	ND	ND	ND	205.5	0
68035	2017-11-01T18:00:00	20.8	ND	ND	ND	2.30	17.52	ND	ND	ND	ND	44.5	0
68036	2017-11-01T19:00:00	18.7	ND	ND	ND	2.36	16.68	ND	ND	ND	ND	0	0
68037	2017-11-01T20:00:00	9.5	ND	ND	ND	4.03	19.21	ND	ND	ND	ND	0	0
68038	2017-11-01T21:00:00	20.5	ND	ND	ND	3.61	23.49	ND	ND	ND	ND	0	0
68039	2017-11-01T22:00:00	34	ND	ND	ND	4.11	24.71	ND	ND	ND	ND	0	0
68040	2017-11-01T23:00:00	32	ND	ND	ND	3.60	18.98	ND	ND	ND	ND	0	0
68041	2017-11-02T00:00:00	21.3	ND	ND	ND	0.92	19.41	ND	ND	ND	ND	0	0
68042	2017-11-02T01:00:00	15	ND	ND	ND	3.57	19.17	ND	ND	ND	ND	0	0
68043	2017-11-02T02:00:00	20	ND	ND	ND	4.50	20.92	ND	ND	ND	ND	0	1.02
68044	2017-11-02T03:00:00	6.1	ND	ND	ND	3.40	12.25	ND	ND	ND	ND	0	0.25
68045	2017-11-02T04:00:00	19.6	ND	ND	ND	2.36	9.83	ND	ND	ND	ND	0	0
68046	2017-11-02T05:00:00	21.2	ND	ND	ND	2.45	14.03	ND	ND	ND	ND	0	0
68047	2017-11-02T06:00:00	8.4	ND	ND	ND	4.13	7.65	ND	ND	ND	ND	4.3	0
68048	2017-11-02T07:00:00	42.8	ND	ND	ND	4.17	6.89	ND	ND	ND	ND	302.5	0
68049	2017-11-02T08:00:00	43.9	ND	ND	ND	1.94	11.42	ND	ND	ND	ND	586.6	0
68050	2017-11-02T09:00:00	61.5	ND	ND	ND	3.94	26.98	ND	ND	ND	ND	636.1	0
68051	2017-11-02T10:00:00	60.7	ND	ND	ND	2.87	40.84	ND	ND	ND	ND	646.9	0
68052	2017-11-02T11:00:00	52.6	ND	ND	ND	3.40	76.63	ND	ND	ND	ND	648	0
68053	2017-11-02T12:00:00	48.7	ND	ND	ND	2.83	87.97	ND	ND	ND	ND	648.9	0
68054	2017-11-02T13:00:00	45.2	ND	ND	ND	3.07	98.79	ND	ND	ND	ND	638.8	0
68055	2017-11-02T14:00:00	51.8	ND	ND	ND	2.06	63.05	ND	ND	ND	ND	648.3	0
68056	2017-11-02T15:00:00	34.8	ND	ND	ND	3.11	36.50	ND	ND	ND	ND	473.1	0
68057	2017-11-02T16:00:00	26.5	ND	ND	ND	2.23	26.12	ND	ND	ND	ND	609.1	0
68058	2017-11-02T17:00:00	38.2	ND	ND	ND	2.89	24.88	ND	ND	ND	ND	136.4	0
68059	2017-11-02T18:00:00	24.3	ND	ND	ND	3.60	29.49	ND	ND	ND	ND	35.9	0
68060	2017-11-02T19:00:00	9.1	ND	ND	ND	2.40	23.82	ND	ND	ND	ND	0	0.25
68061	2017-11-02T20:00:00	15	ND	ND	ND	2.37	15.50	ND	ND	ND	ND	0	0
68062	2017-11-02T21:00:00	18.9	ND	ND	ND	2.16	10.13	ND	ND	ND	ND	0	0
68063	2017-11-02T22:00:00	42.6	ND	ND	ND	2.34	9.75	ND	ND	ND	ND	0	0
68064	2017-11-02T23:00:00	35	ND	ND	ND	3.54	12.36	ND	ND	ND	ND	0	0
68065	2017-11-03T00:00:00	14.9	ND	ND	ND	3.28	13.01	ND	ND	ND	ND	0	0
68066	2017-11-03T01:00:00	14.9	ND	ND	ND	2.87	10.30	ND	ND	ND	ND	0	0
68067	2017-11-03T02:00:00	19.2	ND	ND	ND	3.55	10.30	ND	ND	ND	ND	0	0
68068	2017-11-03T03:00:00	28.7	ND	ND	ND	3.60	10.40	ND	ND	ND	ND	0	0
68069	2017-11-03T04:00:00	31.9	ND	ND	ND	2.30	8.65	ND	ND	ND	ND	0	0
68070	2017-11-03T05:00:00	22.1	ND	ND	ND	3.39	7.01	ND	ND	ND	ND	0	0
68071	2017-11-03T06:00:00	27.3	ND	ND	ND	4.84	5.89	ND	ND	ND	ND	0	0
68072	2017-11-03T07:00:00	62.8	ND	ND	ND	4.14	6.40	ND	ND	ND	ND	76.7	0
68073	2017-11-03T08:00:00	61.4	ND	ND	ND	5.85	8.79	ND	ND	ND	ND	487.6	0
68074	2017-11-03T09:00:00	86	ND	ND	ND	3.44	14.91	ND	ND	ND	ND	647.4	0
68075	2017-11-03T10:00:00	75.2	ND	ND	ND	2.72	26.16	ND	ND	ND	ND	647.9	0
68076	2017-11-03T11:00:00	67	ND	ND	ND	1.16	36.64	ND	ND	ND	ND	643.9	0
68077	2017-11-03T12:00:00	65	ND	ND	ND	0.40	60.01	ND	ND	ND	ND	648.5	0
68078	2017-11-03T13:00:00	73.1	ND	ND	ND	1.05	66.47	ND	ND	ND	ND	648.7	0
68079	2017-11-03T14:00:00	71.2	ND	ND	ND	1.18	61.40	ND	ND	ND	ND	424.9	0
68080	2017-11-03T15:00:00	56.3	ND	ND	ND	1.62	40.97	ND	ND	ND	ND	441.6	0
68081	2017-11-03T16:00:00	18.5	ND	ND	ND	2.68	24.55	ND	ND	ND	ND	607	0
68082	2017-11-03T17:00:00	30.9	ND	ND	ND	2.52	14.84	ND	ND	ND	ND	98.6	0
68083	2017-11-03T18:00:00	31.3	ND	ND	ND	2.82	18.76	ND	ND	ND	ND	9.6	0
68084	2017-11-03T19:00:00	16	ND	ND	ND	2.36	10.87	ND	ND	ND	ND	0	0
68085	2017-11-03T20:00:00	23.6	ND	ND	ND	2.08	7.65	ND	ND	ND	ND	0	0
68086	2017-11-03T21:00:00	31.5	ND	ND	ND	2.08	7.18	ND	ND	ND	ND	0	0
68087	2017-11-03T22:00:00	24.6	ND	ND	ND	3.32	5.65	ND	ND	ND	ND	0	0
68088	2017-11-03T23:00:00	21.5	ND	ND	ND	3.47	7.14	ND	ND	ND	ND	0	6.1
68089	2017-11-04T00:00:00	20.2	ND	ND	ND	3.22	8.12	ND	ND	ND	ND	0	11.43
68090	2017-11-04T01:00:00	8.2	ND	ND	ND	3.92	9.56	ND	ND	ND	ND	0	6.35
68091	2017-11-04T02:00:00	11.1	ND	ND	ND	3.37	11.83	ND	ND	ND	ND	0	4.83
68092	2017-11-04T03:00:00	1.8	ND	ND	ND	3.93	11.68	ND	ND	ND	ND	0	4.57
68093	2017-11-04T04:00:00	7.6	ND	ND	ND	4.38	13.07	ND	ND	ND	ND	0	2.79
68094	2017-11-04T05:00:00	5.2	ND	ND	ND	2.34	7.61	ND	ND	ND	ND	0	0
68095	2017-11-04T06:00:00	27.7	ND	ND	ND	3.30	6.16	ND	ND	ND	ND	0	0
68096	2017-11-04T07:00:00	18.8	ND	ND	ND	3.26	6.16	ND	ND	ND	ND	56.9	0.76
68097	2017-11-04T08:00:00	27.4	ND	ND	ND	2.62	6.30	ND	ND	ND	ND	206.2	0.51
68098	2017-11-04T09:00:00	32.2	ND	ND	ND	2.96	7.10	ND	ND	ND	ND	451.3	0
68099	2017-11-04T10:00:00	43.1	ND	ND	ND	2.48	19.80	ND	ND	ND	ND	642.2	0
68100	2017-11-04T11:00:00	40.7	ND	ND	ND	2.80	34.16	ND	ND	ND	ND	647.8	0
68101	2017-11-04T12:00:00	51.6	ND	ND	ND	3.05	43.66	ND	ND	ND	ND	648.2	0
68102	2017-11-04T13:00:00	43.4	ND	ND	ND	2.13	55.04	ND	ND	ND	ND	647.5	0
68103	2017-11-04T14:00:00	46.3	ND	ND	ND	3.64	51.75	ND	ND	ND	ND	308.4	0
68104	2017-11-04T15:00:00	34.2	ND	ND	ND	1.74	46.67	ND	ND	ND	ND	541.5	0.51
68105	2017-11-04T16:00:00	36	ND	ND	ND	3.08	65.21	ND	ND	ND	ND	630.3	0
68106	2017-11-04T17:00:00	65.4	ND	ND	ND	2.96	23.71	ND	ND	ND	ND	149.9	0
68107	2017-11-04T18:00:00	16.7	ND	ND	ND	2.09	12.48	ND	ND	ND	ND	22.2	0
68108	2017-11-04T19:00:00	0.3	ND	ND	ND	2.94	8.89	ND	ND	ND	ND	0	0
68109	2017-11-04T20:00:00	17.1	ND	ND	ND	4.28	7.42	ND	ND	ND	ND	0	0
68110	2017-11-04T21:00:00	26	ND	ND	ND	1.92	7.71	ND	ND	ND	ND	0	0
68111	2017-11-04T22:00:00	16.3	ND	ND	ND	3.58	17.35	ND	ND	ND	ND	0	0
68112	2017-11-04T23:00:00	8.7	ND	ND	ND	2.48	9.44	ND	ND	ND	ND	0	0
68113	2017-11-05T00:00:00	24.6	ND	ND	ND	2.40	6.55	ND	ND	ND	ND	0	0
68114	2017-11-05T01:00:00	47.9	ND	ND	ND	3.99	9.14	ND	ND	ND	ND	0	0
68115	2017-11-05T02:00:00	30.1	ND	ND	ND	3.68	10.97	ND	ND	ND	ND	0	0
68116	2017-11-05T03:00:00	20.5	ND	ND	ND	2.61	6.65	ND	ND	ND	ND	0	1.02
68117	2017-11-05T04:00:00	11.8	ND	ND	ND	2.87	5.93	ND	ND	ND	ND	0	1.52
68118	2017-11-05T05:00:00	22.6	ND	ND	ND	4.95	5.73	ND	ND	ND	ND	0	0
68119	2017-11-05T06:00:00	41.1	ND	ND	ND	4.22	5.67	ND	ND	ND	ND	0	0
68120	2017-11-05T07:00:00	32.9	ND	ND	ND	4.04	6.08	ND	ND	ND	ND	110	0
68121	2017-11-05T08:00:00	46.7	ND	ND	ND	5.98	6.14	ND	ND	ND	ND	313	0.25
68122	2017-11-05T09:00:00	73.2	ND	ND	ND	5.00	8.38	ND	ND	ND	ND	639.3	0
68123	2017-11-05T10:00:00	64.3	ND	ND	ND	2.15	19.82	ND	ND	ND	ND	647.7	0
68124	2017-11-05T11:00:00	52.5	ND	ND	ND	ND	51.37	ND	ND	ND	ND	613.6	0
68125	2017-11-05T12:00:00	42.7	ND	ND	ND	1.28	78.40	ND	ND	ND	ND	644.4	0
68126	2017-11-05T13:00:00	35.9	ND	ND	ND	1.78	89.09	ND	ND	ND	ND	648.9	0
68127	2017-11-05T14:00:00	31	ND	ND	ND	2.17	81.46	ND	ND	ND	ND	640.5	0
68128	2017-11-05T15:00:00	19.4	ND	ND	ND	2.79	33.54	ND	ND	ND	ND	648.3	0
68129	2017-11-05T16:00:00	7.9	ND	ND	ND	2.52	31.10	ND	ND	ND	ND	649.1	0
68130	2017-11-05T17:00:00	9.4	ND	ND	ND	3.39	27.90	ND	ND	ND	ND	540.9	0
68131	2017-11-05T18:00:00	6.5	ND	ND	ND	3.37	26.75	ND	ND	ND	ND	55.5	0
68132	2017-11-05T19:00:00	2.2	ND	ND	ND	2.52	19.49	ND	ND	ND	ND	0	0
68133	2017-11-05T20:00:00	3.7	ND	ND	ND	3.51	18.27	ND	ND	ND	ND	0	0
68134	2017-11-05T21:00:00	16	ND	ND	ND	2.59	11.70	ND	ND	ND	ND	0	0
68135	2017-11-05T22:00:00	18.5	ND	ND	ND	3.21	13.23	ND	ND	ND	ND	0	0
68136	2017-11-05T23:00:00	19.2	ND	ND	ND	2.98	6.77	ND	ND	ND	ND	0	0
68137	2017-11-06T00:00:00	37.1	ND	ND	ND	2.12	6.06	ND	ND	ND	ND	0	0
68138	2017-11-06T01:00:00	47.5	ND	ND	ND	3.54	5.97	ND	ND	ND	ND	0	0
68139	2017-11-06T02:00:00	43.9	ND	ND	ND	4.42	7.28	ND	ND	ND	ND	0	0
68140	2017-11-06T03:00:00	23.7	ND	ND	ND	3.43	5.97	ND	ND	ND	ND	0	0
68141	2017-11-06T04:00:00	30.2	ND	ND	ND	4.29	5.81	ND	ND	ND	ND	0	0
68142	2017-11-06T05:00:00	31.8	ND	ND	ND	3.11	5.48	ND	ND	ND	ND	0	0
68143	2017-11-06T06:00:00	27.1	ND	ND	ND	3.40	5.93	ND	ND	ND	ND	0	0
68144	2017-11-06T07:00:00	30.9	ND	ND	ND	4.88	6.63	ND	ND	ND	ND	211.1	0
68145	2017-11-06T08:00:00	42.2	ND	ND	ND	3.79	8.71	ND	ND	ND	ND	446.8	0
68146	2017-11-06T09:00:00	54.5	ND	ND	ND	3.78	19.92	ND	ND	ND	ND	648	0
68147	2017-11-06T10:00:00	62.7	ND	ND	ND	0.52	35.46	ND	ND	ND	ND	597.6	0
68148	2017-11-06T11:00:00	44.3	ND	ND	ND	0.40	37.46	ND	ND	ND	ND	616.6	0
68149	2017-11-06T12:00:00	24.7	ND	ND	ND	1.27	42.09	ND	ND	ND	ND	639	0
68150	2017-11-06T13:00:00	21.3	ND	ND	ND	2.08	43.72	ND	ND	ND	ND	625.2	0
68151	2017-11-06T14:00:00	17.4	ND	ND	ND	0.60	48.90	ND	ND	ND	ND	626.7	0
68152	2017-11-06T15:00:00	17.5	ND	ND	ND	0.92	57.26	ND	ND	ND	ND	602.3	0
68153	2017-11-06T16:00:00	20.8	ND	ND	ND	1.97	37.19	ND	ND	ND	ND	627.4	0
68154	2017-11-06T17:00:00	19	ND	ND	ND	2.02	25.77	ND	ND	ND	ND	400.6	0
68155	2017-11-06T18:00:00	18.5	ND	ND	ND	1.70	21.25	ND	ND	ND	ND	63.6	0
68156	2017-11-06T19:00:00	16	ND	ND	ND	2.36	18.52	ND	ND	ND	ND	0	0
68157	2017-11-06T20:00:00	12	ND	ND	ND	4.49	19.60	ND	ND	ND	ND	0	0
68158	2017-11-06T21:00:00	10.2	ND	ND	ND	3.12	17.88	ND	ND	ND	ND	0	0
68159	2017-11-06T22:00:00	6.7	ND	ND	ND	2.77	14.78	ND	ND	ND	ND	0	0
68160	2017-11-06T23:00:00	6.8	ND	ND	ND	2.72	11.64	ND	ND	ND	ND	0	0
68161	2017-11-07T00:00:00	18.1	ND	ND	ND	3.61	8.10	ND	ND	ND	ND	0	0
68162	2017-11-07T01:00:00	17.5	ND	ND	ND	3.65	6.48	ND	ND	ND	ND	0	0
68163	2017-11-07T02:00:00	18	ND	ND	ND	4.67	9.62	ND	ND	ND	ND	0	0
68164	2017-11-07T03:00:00	35.8	ND	ND	ND	4.13	5.85	ND	ND	ND	ND	0	0
68165	2017-11-07T04:00:00	35.9	ND	ND	ND	3.81	6.77	ND	ND	ND	ND	0	0
68166	2017-11-07T05:00:00	40	ND	ND	ND	4.66	6.08	ND	ND	ND	ND	0	0
68167	2017-11-07T06:00:00	46.2	ND	ND	ND	3.39	5.81	ND	ND	ND	ND	0	0
68168	2017-11-07T07:00:00	51.8	ND	ND	ND	3.97	6.65	ND	ND	ND	ND	174.4	0
68169	2017-11-07T08:00:00	51.1	ND	ND	ND	3.25	10.46	ND	ND	ND	ND	622.6	0
68170	2017-11-07T09:00:00	67.7	ND	ND	ND	2.82	20.25	ND	ND	ND	ND	647.7	0
68171	2017-11-07T10:00:00	71.6	ND	ND	ND	2.30	29.55	ND	ND	ND	ND	644.4	0
68172	2017-11-07T11:00:00	67.7	ND	ND	ND	1.77	40.11	ND	ND	ND	ND	637.6	0
68173	2017-11-07T12:00:00	60.3	ND	ND	ND	1.58	56.54	ND	ND	ND	ND	624.4	0
68174	2017-11-07T13:00:00	48.5	ND	ND	ND	0.91	56.50	ND	ND	ND	ND	590	0
68175	2017-11-07T14:00:00	41.5	ND	ND	ND	2.20	46.14	ND	ND	ND	ND	627.1	0
68176	2017-11-07T15:00:00	25	ND	ND	ND	1.99	22.25	ND	ND	ND	ND	648.8	0
68177	2017-11-07T16:00:00	25.7	ND	ND	ND	2.24	20.09	ND	ND	ND	ND	535.2	0
68178	2017-11-07T17:00:00	29.9	ND	ND	ND	2.90	19.27	ND	ND	ND	ND	404.7	0
68179	2017-11-07T18:00:00	30.3	ND	ND	ND	3.39	17.98	ND	ND	ND	ND	53.5	0
68180	2017-11-07T19:00:00	25.3	ND	ND	ND	4.75	17.13	ND	ND	ND	ND	0	0
68181	2017-11-07T20:00:00	26.6	ND	ND	ND	3.94	7.63	ND	ND	ND	ND	0	0
68182	2017-11-07T21:00:00	37.2	ND	ND	ND	3.32	6.52	ND	ND	ND	ND	0	0
68183	2017-11-07T22:00:00	29.5	ND	ND	ND	1.59	5.81	ND	ND	ND	ND	0	0
68184	2017-11-07T23:00:00	46.7	ND	ND	ND	2.48	6.85	ND	ND	ND	ND	0	0
68185	2017-11-08T00:00:00	37.3	ND	ND	ND	1.95	5.95	ND	ND	ND	ND	0	0
68186	2017-11-08T01:00:00	36.2	ND	ND	ND	2.84	6.04	ND	ND	ND	ND	0	0
68187	2017-11-08T02:00:00	23.8	ND	ND	ND	3.11	9.93	ND	ND	ND	ND	0	0
68188	2017-11-08T03:00:00	5.3	ND	ND	ND	3.02	10.73	ND	ND	ND	ND	0	0
68189	2017-11-08T04:00:00	3.8	ND	ND	ND	2.50	7.87	ND	ND	ND	ND	0	0
68190	2017-11-08T05:00:00	15	ND	ND	ND	3.21	7.71	ND	ND	ND	ND	0	0
68191	2017-11-08T06:00:00	30.8	ND	ND	ND	3.26	5.79	ND	ND	ND	ND	0	0
68192	2017-11-08T07:00:00	55.2	ND	ND	ND	3.51	6.65	ND	ND	ND	ND	297.1	0
68193	2017-11-08T08:00:00	71.8	ND	ND	ND	4.15	9.93	ND	ND	ND	ND	618.6	0
68194	2017-11-08T09:00:00	76.8	ND	ND	ND	4.77	15.13	ND	ND	ND	ND	604.9	0
68195	2017-11-08T10:00:00	56.4	ND	ND	ND	1.69	27.51	ND	ND	ND	ND	648.4	0
68196	2017-11-08T11:00:00	46.7	ND	ND	ND	1.80	36.87	ND	ND	ND	ND	581.1	0
68197	2017-11-08T12:00:00	47	ND	ND	ND	2.27	45.23	ND	ND	ND	ND	648.9	0
68198	2017-11-08T13:00:00	37.8	ND	ND	ND	2.15	43.68	ND	ND	ND	ND	648.9	0
68199	2017-11-08T14:00:00	32.1	ND	ND	ND	2.24	32.07	ND	ND	ND	ND	649.1	0
68200	2017-11-08T15:00:00	18	ND	ND	ND	3.18	21.47	ND	ND	ND	ND	649.1	0
68201	2017-11-08T16:00:00	18.8	ND	ND	ND	2.52	18.52	ND	ND	ND	ND	469.9	0
68202	2017-11-08T17:00:00	29.4	ND	ND	ND	2.15	20.41	ND	ND	ND	ND	107.3	0
68203	2017-11-08T18:00:00	18.5	ND	ND	ND	3.25	14.48	ND	ND	ND	ND	21.5	0
68204	2017-11-08T19:00:00	17.5	ND	ND	ND	2.20	13.05	ND	ND	ND	ND	0	0
68205	2017-11-08T20:00:00	20.9	ND	ND	ND	2.94	10.42	ND	ND	ND	ND	0	0
68206	2017-11-08T21:00:00	26.2	ND	ND	ND	2.83	11.13	ND	ND	ND	ND	0	0
68207	2017-11-08T22:00:00	26	ND	ND	ND	1.99	7.06	ND	ND	ND	ND	0	0
68208	2017-11-08T23:00:00	21.3	ND	ND	ND	3.36	7.12	ND	ND	ND	ND	0	0
68209	2017-11-09T00:00:00	17.6	ND	ND	ND	1.74	7.65	ND	ND	ND	ND	0	0
68210	2017-11-09T01:00:00	13.3	ND	ND	ND	2.63	14.27	ND	ND	ND	ND	0	0
68211	2017-11-09T02:00:00	16.4	ND	ND	ND	3.46	13.23	ND	ND	ND	ND	0	0
68212	2017-11-09T03:00:00	15.1	ND	ND	ND	3.65	12.09	ND	ND	ND	ND	0	0
68213	2017-11-09T04:00:00	14.4	ND	ND	ND	2.70	9.46	ND	ND	ND	ND	0	0
68214	2017-11-09T05:00:00	21.9	ND	ND	ND	4.07	7.20	ND	ND	ND	ND	0	0
68215	2017-11-09T06:00:00	19.2	ND	ND	ND	3.68	6.00	ND	ND	ND	ND	0	0
68216	2017-11-09T07:00:00	42.8	ND	ND	ND	6.16	6.26	ND	ND	ND	ND	161	0
68217	2017-11-09T08:00:00	70	ND	ND	ND	5.19	9.58	ND	ND	ND	ND	524.4	0
68218	2017-11-09T09:00:00	82.4	ND	ND	ND	3.05	10.91	ND	ND	ND	ND	331.4	0
68219	2017-11-09T10:00:00	63.4	ND	ND	ND	2.59	11.42	ND	ND	ND	ND	470.5	0
68220	2017-11-09T11:00:00	51.9	ND	ND	ND	2.31	22.72	ND	ND	ND	ND	604.5	0
68221	2017-11-09T12:00:00	50.7	ND	ND	ND	2.77	41.05	ND	ND	ND	ND	647.9	0
68222	2017-11-09T13:00:00	40.8	ND	ND	ND	1.48	73.96	ND	ND	ND	ND	625.3	0
68223	2017-11-09T14:00:00	36.6	ND	ND	ND	3.11	92.72	ND	ND	ND	ND	649	0
68224	2017-11-09T15:00:00	39.4	ND	ND	ND	2.59	60.36	ND	ND	ND	ND	602.5	0
68225	2017-11-09T16:00:00	27.2	ND	ND	ND	3.28	24.22	ND	ND	ND	ND	623.6	0
68226	2017-11-09T17:00:00	23.3	ND	ND	ND	1.66	21.10	ND	ND	ND	ND	330.7	0
68227	2017-11-09T18:00:00	32.2	ND	ND	ND	1.77	16.68	ND	ND	ND	ND	60.4	0
68228	2017-11-09T19:00:00	22.5	ND	ND	ND	2.34	19.86	ND	ND	ND	ND	0.3	0
68229	2017-11-09T20:00:00	17	ND	ND	ND	3.08	21.02	ND	ND	ND	ND	0.1	0
68230	2017-11-09T21:00:00	12.6	ND	ND	ND	3.21	17.90	ND	ND	ND	ND	0.1	0
68231	2017-11-09T22:00:00	14.1	ND	ND	ND	4.04	10.54	ND	ND	ND	ND	0.1	10.16
68232	2017-11-09T23:00:00	16.4	ND	ND	ND	3.26	8.65	ND	ND	ND	ND	0.1	1.52
68233	2017-11-10T00:00:00	17.1	ND	ND	ND	2.62	7.28	ND	ND	ND	ND	0.1	0
68234	2017-11-10T01:00:00	22.8	ND	ND	ND	3.40	10.73	ND	ND	ND	ND	0.1	0
68235	2017-11-10T02:00:00	25.4	ND	ND	ND	2.63	13.80	ND	ND	ND	ND	0.1	0
68236	2017-11-10T03:00:00	16	ND	ND	ND	3.47	14.27	ND	ND	ND	ND	0.1	0.25
68237	2017-11-10T04:00:00	30.3	ND	ND	ND	3.72	6.87	ND	ND	ND	ND	0.1	0
68238	2017-11-10T05:00:00	59.4	ND	ND	ND	5.31	6.00	ND	ND	ND	ND	0.1	0
68239	2017-11-10T06:00:00	55.9	ND	ND	ND	3.37	6.00	ND	ND	ND	ND	0.6	0
68240	2017-11-10T07:00:00	34.6	ND	ND	ND	3.96	6.38	ND	ND	ND	ND	224	0
68241	2017-11-10T08:00:00	49.5	ND	ND	ND	2.75	8.22	ND	ND	ND	ND	533.5	0
68242	2017-11-10T09:00:00	57.9	ND	ND	ND	2.87	16.19	ND	ND	ND	ND	572.9	0
68243	2017-11-10T10:00:00	45.9	ND	ND	ND	3.30	32.38	ND	ND	ND	ND	645.7	0
68244	2017-11-10T11:00:00	39	ND	ND	ND	2.48	ND	ND	ND	ND	ND	640	0
68245	2017-11-10T12:00:00	41.1	ND	ND	ND	2.23	54.55	ND	ND	ND	ND	642.5	0
68246	2017-11-10T13:00:00	41.9	ND	ND	ND	2.87	84.19	ND	ND	ND	ND	649.2	0
68247	2017-11-10T14:00:00	52	ND	ND	ND	2.98	97.45	ND	ND	ND	ND	643.6	0
68248	2017-11-10T15:00:00	50.3	ND	ND	ND	3.76	43.31	ND	ND	ND	ND	649	0
68249	2017-11-10T16:00:00	26.8	ND	ND	ND	2.52	24.25	ND	ND	ND	ND	649	0
68250	2017-11-10T17:00:00	17.8	ND	ND	ND	2.38	22.21	ND	ND	ND	ND	498.6	0
68251	2017-11-10T18:00:00	35.8	ND	ND	ND	1.59	14.95	ND	ND	ND	ND	90.7	0
68252	2017-11-10T19:00:00	28.7	ND	ND	ND	2.24	14.66	ND	ND	ND	ND	0	0
68253	2017-11-10T20:00:00	21.4	ND	ND	ND	0.57	13.82	ND	ND	ND	ND	0	0
68254	2017-11-10T21:00:00	15.5	ND	ND	ND	3.64	13.68	ND	ND	ND	ND	0	0
68255	2017-11-10T22:00:00	6.3	ND	ND	ND	2.48	15.46	ND	ND	ND	ND	0	0
68256	2017-11-10T23:00:00	22	ND	ND	ND	2.27	7.18	ND	ND	ND	ND	0	0
68257	2017-11-11T00:00:00	43.9	ND	ND	ND	3.29	6.87	ND	ND	ND	ND	0	0
68258	2017-11-11T01:00:00	42.2	ND	ND	ND	2.51	6.71	ND	ND	ND	ND	0	0
68259	2017-11-11T02:00:00	26.2	ND	ND	ND	3.19	8.30	ND	ND	ND	ND	0	0
68260	2017-11-11T03:00:00	33.5	ND	ND	ND	3.61	6.06	ND	ND	ND	ND	0	0
68261	2017-11-11T04:00:00	34.8	ND	ND	ND	4.28	6.20	ND	ND	ND	ND	0	0
68262	2017-11-11T05:00:00	32.1	ND	ND	ND	4.53	6.61	ND	ND	ND	ND	0	0
68263	2017-11-11T06:00:00	39.1	ND	ND	ND	2.83	6.44	ND	ND	ND	ND	0	0
68264	2017-11-11T07:00:00	50.9	ND	ND	ND	2.79	8.44	ND	ND	ND	ND	87.5	0
68265	2017-11-11T08:00:00	66.7	ND	ND	ND	2.15	9.97	ND	ND	ND	ND	171.8	0
68266	2017-11-11T09:00:00	68.4	ND	ND	ND	2.27	11.77	ND	ND	ND	ND	604.1	1.27
68267	2017-11-11T10:00:00	53.2	ND	ND	ND	0.99	22.88	ND	ND	ND	ND	563.4	0
68268	2017-11-11T11:00:00	67	ND	ND	ND	2.69	47.67	ND	ND	ND	ND	637.7	0
68269	2017-11-11T12:00:00	60.1	ND	ND	ND	3.02	98.06	ND	ND	ND	ND	648.9	0
68270	2017-11-11T13:00:00	67.1	ND	ND	ND	3.36	118.82	ND	ND	ND	ND	649.2	0
68271	2017-11-11T14:00:00	55.3	ND	ND	ND	2.33	73.65	ND	ND	ND	ND	620.3	0
68272	2017-11-11T15:00:00	47.7	ND	ND	ND	2.45	64.80	ND	ND	ND	ND	567	0
68273	2017-11-11T16:00:00	46.3	ND	ND	ND	2.24	34.01	ND	ND	ND	ND	405.7	0
68274	2017-11-11T17:00:00	30	ND	ND	ND	2.83	23.80	ND	ND	ND	ND	395.5	0
68275	2017-11-11T18:00:00	23	ND	ND	ND	0.11	15.11	ND	ND	ND	ND	64.6	0
68276	2017-11-11T19:00:00	22	ND	ND	ND	1.69	14.03	ND	ND	ND	ND	0	0
68277	2017-11-11T20:00:00	22.7	ND	ND	ND	3.30	15.58	ND	ND	ND	ND	0	0
68278	2017-11-11T21:00:00	21	ND	ND	ND	3.65	12.87	ND	ND	ND	ND	0	0
68279	2017-11-11T22:00:00	27.7	ND	ND	ND	2.61	7.44	ND	ND	ND	ND	0	0
68280	2017-11-11T23:00:00	42.2	ND	ND	ND	3.92	9.52	ND	ND	ND	ND	0	0
68281	2017-11-12T00:00:00	35.4	ND	ND	ND	3.75	10.77	ND	ND	ND	ND	0	0
68282	2017-11-12T01:00:00	19.2	ND	ND	ND	3.23	9.14	ND	ND	ND	ND	0	0
68283	2017-11-12T02:00:00	33.5	ND	ND	ND	4.18	6.12	ND	ND	ND	ND	0	0
68284	2017-11-12T03:00:00	45.9	ND	ND	ND	3.50	6.30	ND	ND	ND	ND	0	0
68285	2017-11-12T04:00:00	42.7	ND	ND	ND	3.30	6.28	ND	ND	ND	ND	0	0
68286	2017-11-12T05:00:00	47.9	ND	ND	ND	3.04	6.08	ND	ND	ND	ND	0	0
68287	2017-11-12T06:00:00	45.6	ND	ND	ND	4.32	6.22	ND	ND	ND	ND	0	0
68288	2017-11-12T07:00:00	68.4	ND	ND	ND	4.34	6.50	ND	ND	ND	ND	105.8	0
68289	2017-11-12T08:00:00	60.2	ND	ND	ND	3.81	9.81	ND	ND	ND	ND	414.1	0
68290	2017-11-12T09:00:00	56	ND	ND	ND	2.16	18.29	ND	ND	ND	ND	632.8	0
68291	2017-11-12T10:00:00	56.9	ND	ND	ND	2.62	27.20	ND	ND	ND	ND	648.9	0
68292	2017-11-12T11:00:00	54.2	ND	ND	ND	2.19	47.31	ND	ND	ND	ND	649	0
68293	2017-11-12T12:00:00	35.1	ND	ND	ND	3.39	66.68	ND	ND	ND	ND	649.5	0
68294	2017-11-12T13:00:00	36.8	ND	ND	ND	2.55	88.78	ND	ND	ND	ND	646.3	0
68295	2017-11-12T14:00:00	43.5	ND	ND	ND	2.65	78.65	ND	ND	ND	ND	602.1	0
68296	2017-11-12T15:00:00	20.7	ND	ND	ND	3.11	31.30	ND	ND	ND	ND	636.7	0
68297	2017-11-12T16:00:00	13	ND	ND	ND	2.55	27.26	ND	ND	ND	ND	649.4	0
68298	2017-11-12T17:00:00	10.5	ND	ND	ND	2.59	24.41	ND	ND	ND	ND	413.4	0
68299	2017-11-12T18:00:00	6.9	ND	ND	ND	3.93	20.23	ND	ND	ND	ND	137	0
68300	2017-11-12T19:00:00	14.3	ND	ND	ND	3.37	16.46	ND	ND	ND	ND	0	0
68301	2017-11-12T20:00:00	8.1	ND	ND	ND	3.25	17.80	ND	ND	ND	ND	0	0
68302	2017-11-12T21:00:00	11.7	ND	ND	ND	3.22	14.93	ND	ND	ND	ND	0	0
68303	2017-11-12T22:00:00	9.6	ND	ND	ND	2.86	15.74	ND	ND	ND	ND	0	0
68304	2017-11-12T23:00:00	10.5	ND	ND	ND	3.50	16.07	ND	ND	ND	ND	0	0
68305	2017-11-13T00:00:00	3.9	ND	ND	ND	3.89	16.94	ND	ND	ND	ND	0	0
68306	2017-11-13T01:00:00	13.1	ND	ND	ND	2.31	9.62	ND	ND	ND	ND	0	0
68307	2017-11-13T02:00:00	23	ND	ND	ND	2.26	8.38	ND	ND	ND	ND	0	0
68308	2017-11-13T03:00:00	29.5	ND	ND	ND	3.15	8.50	ND	ND	ND	ND	0	0
68309	2017-11-13T04:00:00	32.8	ND	ND	ND	1.58	8.26	ND	ND	ND	ND	0	0
68310	2017-11-13T05:00:00	30.2	ND	ND	ND	3.25	7.03	ND	ND	ND	ND	0	0
68311	2017-11-13T06:00:00	34.6	ND	ND	ND	2.63	6.32	ND	ND	ND	ND	0	0
68312	2017-11-13T07:00:00	36	ND	ND	ND	2.58	6.81	ND	ND	ND	ND	104.8	0
68313	2017-11-13T08:00:00	51	ND	ND	ND	1.67	8.71	ND	ND	ND	ND	347.5	0
68314	2017-11-13T09:00:00	60.3	ND	ND	ND	3.61	12.60	ND	ND	ND	ND	555	0
68315	2017-11-13T10:00:00	76.1	ND	ND	ND	2.68	24.51	ND	ND	ND	ND	644	0
68316	2017-11-13T11:00:00	70.1	ND	ND	ND	4.14	34.34	ND	ND	ND	ND	613	0
68317	2017-11-13T12:00:00	55.6	ND	ND	ND	2.75	46.65	ND	ND	ND	ND	648.9	0
68318	2017-11-13T13:00:00	44.1	ND	ND	ND	3.68	60.97	ND	ND	ND	ND	648.7	0
68319	2017-11-13T14:00:00	30.7	ND	ND	ND	3.39	30.63	ND	ND	ND	ND	649.2	0
68320	2017-11-13T15:00:00	10.7	ND	ND	ND	3.08	26.75	ND	ND	ND	ND	649.3	0
68321	2017-11-13T16:00:00	9.7	ND	ND	ND	3.14	26.12	ND	ND	ND	ND	591.5	0
68322	2017-11-13T17:00:00	14.4	ND	ND	ND	3.57	21.23	ND	ND	ND	ND	176.1	0
68323	2017-11-13T18:00:00	20.1	ND	ND	ND	3.15	10.58	ND	ND	ND	ND	32.8	0
68324	2017-11-13T19:00:00	31.1	ND	ND	ND	4.40	11.46	ND	ND	ND	ND	0	0
68325	2017-11-13T20:00:00	33.8	ND	ND	ND	3.07	13.85	ND	ND	ND	ND	0	0
68326	2017-11-13T21:00:00	24.4	ND	ND	ND	2.24	9.09	ND	ND	ND	ND	0	0
68327	2017-11-13T22:00:00	27.2	ND	ND	ND	2.58	6.24	ND	ND	ND	ND	0	0
68328	2017-11-13T23:00:00	52.4	ND	ND	ND	2.96	6.73	ND	ND	ND	ND	0	0
68329	2017-11-14T00:00:00	59.4	ND	ND	ND	3.97	6.22	ND	ND	ND	ND	0	0
68330	2017-11-14T01:00:00	44.6	ND	ND	ND	3.85	6.95	ND	ND	ND	ND	0	0
68331	2017-11-14T02:00:00	31.4	ND	ND	ND	3.99	10.52	ND	ND	ND	ND	0	0
68332	2017-11-14T03:00:00	21.9	ND	ND	ND	3.82	13.82	ND	ND	ND	ND	0	0
68333	2017-11-14T04:00:00	23.4	ND	ND	ND	2.44	8.28	ND	ND	ND	ND	0	0
68334	2017-11-14T05:00:00	25.6	ND	ND	ND	3.26	7.12	ND	ND	ND	ND	0	12.7
68335	2017-11-14T06:00:00	23.9	ND	ND	ND	2.38	7.65	ND	ND	ND	ND	0	1.27
68336	2017-11-14T07:00:00	17.3	ND	ND	ND	2.50	6.28	ND	ND	ND	ND	41.8	0.25
68337	2017-11-14T08:00:00	28.6	ND	ND	ND	2.05	6.59	ND	ND	ND	ND	164	0
68338	2017-11-14T09:00:00	47.6	ND	ND	ND	2.36	6.77	ND	ND	ND	ND	315	5.08
68339	2017-11-14T10:00:00	25.7	ND	ND	ND	4.03	10.15	ND	ND	ND	ND	611.5	0
68340	2017-11-14T11:00:00	35.8	ND	ND	ND	2.83	23.84	ND	ND	ND	ND	648.2	0
68341	2017-11-14T12:00:00	63.9	ND	ND	ND	3.39	39.90	ND	ND	ND	ND	649	0
68342	2017-11-14T13:00:00	47.3	ND	ND	ND	2.90	37.89	ND	ND	ND	ND	594.5	0
68343	2017-11-14T14:00:00	18.3	ND	ND	ND	2.19	16.29	ND	ND	ND	ND	648.9	0.25
68344	2017-11-14T15:00:00	20.6	ND	ND	ND	3.07	16.23	ND	ND	ND	ND	648.8	0
68345	2017-11-14T16:00:00	7.5	ND	ND	ND	3.37	15.19	ND	ND	ND	ND	638.3	0
68346	2017-11-14T17:00:00	11.7	ND	ND	ND	2.76	15.01	ND	ND	ND	ND	232.4	0
68347	2017-11-14T18:00:00	31.7	ND	ND	ND	3.35	11.77	ND	ND	ND	ND	14.4	48.77
68348	2017-11-14T19:00:00	24.5	ND	ND	ND	2.58	7.24	ND	ND	ND	ND	0	7.37
68349	2017-11-14T20:00:00	21.6	ND	ND	ND	1.78	6.83	ND	ND	ND	ND	0	3.81
68350	2017-11-14T21:00:00	23.7	ND	ND	ND	2.84	6.93	ND	ND	ND	ND	0	12.45
68351	2017-11-14T22:00:00	12	ND	ND	ND	2.16	6.46	ND	ND	ND	ND	0	37.34
68352	2017-11-14T23:00:00	5.4	ND	ND	ND	2.93	6.48	ND	ND	ND	ND	0	43.18
68353	2017-11-15T00:00:00	6.6	ND	ND	ND	1.81	6.95	ND	ND	ND	ND	0	20.32
68354	2017-11-15T01:00:00	5.3	ND	ND	ND	2.15	7.77	ND	ND	ND	ND	0	72.64
68355	2017-11-15T02:00:00	3.1	ND	ND	ND	3.86	10.05	ND	ND	ND	ND	0	21.08
68356	2017-11-15T03:00:00	2.5	ND	ND	ND	2.27	9.75	ND	ND	ND	ND	0	6.35
68357	2017-11-15T04:00:00	1.1	ND	ND	ND	3.57	8.26	ND	ND	ND	ND	0	4.57
68358	2017-11-15T05:00:00	3.7	ND	ND	ND	3.82	9.67	ND	ND	ND	ND	0	3.05
68359	2017-11-15T06:00:00	1.9	ND	ND	ND	2.40	8.03	ND	ND	ND	ND	0	3.05
68360	2017-11-15T07:00:00	7	ND	ND	ND	2.94	6.20	ND	ND	ND	ND	25.6	0.76
68361	2017-11-15T08:00:00	13.8	ND	ND	ND	3.19	6.42	ND	ND	ND	ND	211.4	0
68362	2017-11-15T09:00:00	21.5	ND	ND	ND	2.72	6.83	ND	ND	ND	ND	421.1	0
68363	2017-11-15T10:00:00	39.5	ND	ND	ND	3.69	12.26	ND	ND	ND	ND	647.3	0
68364	2017-11-15T11:00:00	47.4	ND	ND	ND	2.58	19.58	ND	ND	ND	ND	648.3	0
68365	2017-11-15T12:00:00	51	ND	ND	ND	2.79	33.73	ND	ND	ND	ND	648.2	0
68366	2017-11-15T13:00:00	65.5	ND	ND	ND	3.14	44.02	ND	ND	ND	ND	649.3	0
68367	2017-11-15T14:00:00	63.7	ND	ND	ND	1.83	60.52	ND	ND	ND	ND	592.5	0
68368	2017-11-15T15:00:00	55.2	ND	ND	ND	2.17	77.79	ND	ND	ND	ND	628.6	0
68369	2017-11-15T16:00:00	59	ND	ND	ND	3.62	54.04	ND	ND	ND	ND	511.4	0
68370	2017-11-15T17:00:00	60.4	ND	ND	ND	2.01	20.88	ND	ND	ND	ND	219.3	0
68371	2017-11-15T18:00:00	72.8	ND	ND	ND	4.34	11.32	ND	ND	ND	ND	35.7	0
68372	2017-11-15T19:00:00	102.1	ND	ND	ND	3.19	8.16	ND	ND	ND	ND	0	0
68373	2017-11-15T20:00:00	104.3	ND	ND	ND	2.34	6.73	ND	ND	ND	ND	0	0
68374	2017-11-15T21:00:00	60.4	ND	ND	ND	2.13	5.99	ND	ND	ND	ND	0	0
68375	2017-11-15T22:00:00	46.4	ND	ND	ND	2.29	6.40	ND	ND	ND	ND	0	0
68376	2017-11-15T23:00:00	63.1	ND	ND	ND	2.23	6.30	ND	ND	ND	ND	0	0
68377	2017-11-16T00:00:00	51.2	ND	ND	ND	2.87	5.95	ND	ND	ND	ND	0	0
68378	2017-11-16T01:00:00	45.7	ND	ND	ND	3.09	5.63	ND	ND	ND	ND	0	0
68379	2017-11-16T02:00:00	33	ND	ND	ND	1.91	6.65	ND	ND	ND	ND	0	0
68380	2017-11-16T03:00:00	17.4	ND	ND	ND	3.55	10.75	ND	ND	ND	ND	0	0
68381	2017-11-16T04:00:00	18.2	ND	ND	ND	2.01	7.59	ND	ND	ND	ND	0	1.78
68382	2017-11-16T05:00:00	7.9	ND	ND	ND	3.65	6.14	ND	ND	ND	ND	0	1.02
68383	2017-11-16T06:00:00	16.5	ND	ND	ND	5.17	5.89	ND	ND	ND	ND	0	1.78
68384	2017-11-16T07:00:00	32.8	ND	ND	ND	3.62	5.97	ND	ND	ND	ND	43.6	0.25
68385	2017-11-16T08:00:00	36.7	ND	ND	ND	2.83	6.46	ND	ND	ND	ND	115.7	0
68386	2017-11-16T09:00:00	37.9	ND	ND	ND	2.50	6.65	ND	ND	ND	ND	561.1	0
68387	2017-11-16T10:00:00	47.8	ND	ND	ND	1.91	14.72	ND	ND	ND	ND	648.4	0.25
68388	2017-11-16T11:00:00	70.4	ND	ND	ND	4.70	22.74	ND	ND	ND	ND	649.1	0
68389	2017-11-16T12:00:00	68	ND	ND	ND	3.11	49.61	ND	ND	ND	ND	603.9	0
68390	2017-11-16T13:00:00	57.3	ND	ND	ND	1.45	69.90	ND	ND	ND	ND	649.3	0
68391	2017-11-16T14:00:00	54.1	ND	ND	ND	2.75	87.42	ND	ND	ND	ND	625	0
68392	2017-11-16T15:00:00	61.1	ND	ND	ND	1.78	60.19	ND	ND	ND	ND	527.5	0.76
68393	2017-11-16T16:00:00	33.3	ND	ND	ND	3.04	20.86	ND	ND	ND	ND	624.9	0
68394	2017-11-16T17:00:00	37.4	ND	ND	ND	2.19	12.15	ND	ND	ND	ND	215.1	0
68395	2017-11-16T18:00:00	28	ND	ND	ND	3.15	12.83	ND	ND	ND	ND	70.1	0
68396	2017-11-16T19:00:00	22.3	ND	ND	ND	3.02	13.42	ND	ND	ND	ND	0	0
68397	2017-11-16T20:00:00	10.6	ND	ND	ND	2.29	11.24	ND	ND	ND	ND	0	0
68398	2017-11-16T21:00:00	6	ND	ND	ND	2.68	14.60	ND	ND	ND	ND	0	0
68399	2017-11-16T22:00:00	13.5	ND	ND	ND	3.14	9.65	ND	ND	ND	ND	0	0
68400	2017-11-16T23:00:00	18.5	ND	ND	ND	1.69	7.50	ND	ND	ND	ND	0	0
68401	2017-11-17T00:00:00	19.5	ND	ND	ND	3.71	6.93	ND	ND	ND	ND	0	0
68402	2017-11-17T01:00:00	30.3	ND	ND	ND	2.10	6.32	ND	ND	ND	ND	0	0
68403	2017-11-17T02:00:00	34.9	ND	ND	ND	4.20	6.93	ND	ND	ND	ND	0	0
68404	2017-11-17T03:00:00	31.2	ND	ND	ND	4.67	9.34	ND	ND	ND	ND	0	0
68405	2017-11-17T04:00:00	23.6	ND	ND	ND	4.67	7.46	ND	ND	ND	ND	0	1.52
68406	2017-11-17T05:00:00	18.3	ND	ND	ND	3.96	6.32	ND	ND	ND	ND	0	3.05
68407	2017-11-17T06:00:00	18.5	ND	ND	ND	2.96	6.16	ND	ND	ND	ND	0	1.52
68408	2017-11-17T07:00:00	25.7	ND	ND	ND	2.91	6.16	ND	ND	ND	ND	68.9	3.05
68409	2017-11-17T08:00:00	18.7	ND	ND	ND	3.18	6.65	ND	ND	ND	ND	415	1.02
68410	2017-11-17T09:00:00	24.6	ND	ND	ND	2.62	7.38	ND	ND	ND	ND	502	0
68411	2017-11-17T10:00:00	40.5	ND	ND	ND	3.51	8.48	ND	ND	ND	ND	451.2	0
68412	2017-11-17T11:00:00	35.1	ND	ND	ND	3.69	21.72	ND	ND	ND	ND	648.3	0
68413	2017-11-17T12:00:00	58.3	ND	ND	ND	3.09	40.95	ND	ND	ND	ND	647.4	0
68414	2017-11-17T13:00:00	51.7	ND	ND	ND	2.52	65.96	ND	ND	ND	ND	648.6	0
68415	2017-11-17T14:00:00	62.4	ND	ND	ND	1.97	39.29	ND	ND	ND	ND	429.8	38.86
68416	2017-11-17T15:00:00	22.7	ND	ND	ND	2.97	27.20	ND	ND	ND	ND	647.2	0.25
68417	2017-11-17T16:00:00	46.1	ND	ND	ND	3.23	47.72	ND	ND	ND	ND	646.9	0
68418	2017-11-17T17:00:00	66.9	ND	ND	ND	2.69	27.36	ND	ND	ND	ND	428	0
68419	2017-11-17T18:00:00	51.3	ND	ND	ND	2.80	13.05	ND	ND	ND	ND	50	0
68420	2017-11-17T19:00:00	68.3	ND	ND	ND	1.41	7.61	ND	ND	ND	ND	0	0
68421	2017-11-17T20:00:00	92.1	ND	ND	ND	1.35	6.14	ND	ND	ND	ND	0	0
68422	2017-11-17T21:00:00	76.8	ND	ND	ND	2.40	6.14	ND	ND	ND	ND	0	0
68423	2017-11-17T22:00:00	29.6	ND	ND	ND	2.73	6.30	ND	ND	ND	ND	0	0
68424	2017-11-17T23:00:00	22.4	ND	ND	ND	2.48	6.38	ND	ND	ND	ND	0	0
68425	2017-11-18T00:00:00	38.8	ND	ND	ND	1.70	6.10	ND	ND	ND	ND	0	0
68426	2017-11-18T01:00:00	50.5	ND	ND	ND	2.23	5.65	ND	ND	ND	ND	0	0
68427	2017-11-18T02:00:00	54.3	ND	ND	ND	1.60	6.20	ND	ND	ND	ND	0	0
68428	2017-11-18T03:00:00	37.5	ND	ND	ND	3.09	5.79	ND	ND	ND	ND	0	0
68429	2017-11-18T04:00:00	42.8	ND	ND	ND	3.19	5.79	ND	ND	ND	ND	0	0
68430	2017-11-18T05:00:00	51.2	ND	ND	ND	1.28	6.10	ND	ND	ND	ND	0	0
68431	2017-11-18T06:00:00	57.4	ND	ND	ND	2.40	6.26	ND	ND	ND	ND	0	0
68432	2017-11-18T07:00:00	66.7	ND	ND	ND	3.04	6.08	ND	ND	ND	ND	26.8	0
68433	2017-11-18T08:00:00	78.4	ND	ND	ND	2.50	6.20	ND	ND	ND	ND	145.9	0
68434	2017-11-18T09:00:00	66	ND	ND	ND	3.50	8.65	ND	ND	ND	ND	570.3	0
68435	2017-11-18T10:00:00	82.8	ND	ND	ND	3.69	19.41	ND	ND	ND	ND	648.9	0
68436	2017-11-18T11:00:00	84.3	ND	ND	ND	2.87	31.04	ND	ND	ND	ND	648.9	0
68437	2017-11-18T12:00:00	69.7	ND	ND	ND	2.55	40.01	ND	ND	ND	ND	648.9	0
68438	2017-11-18T13:00:00	61.6	ND	ND	ND	3.44	47.37	ND	ND	ND	ND	639	0
68439	2017-11-18T14:00:00	67.9	ND	ND	ND	2.22	52.98	ND	ND	ND	ND	614.9	0
68440	2017-11-18T15:00:00	57.5	ND	ND	ND	2.63	69.94	ND	ND	ND	ND	649.4	0
68441	2017-11-18T16:00:00	54.1	ND	ND	ND	2.80	75.49	ND	ND	ND	ND	625.4	0
68442	2017-11-18T17:00:00	68.8	ND	ND	ND	1.91	61.21	ND	ND	ND	ND	598	0
68443	2017-11-18T18:00:00	64.2	ND	ND	ND	2.34	26.10	ND	ND	ND	ND	88.3	0
68444	2017-11-18T19:00:00	32	ND	ND	ND	2.56	13.50	ND	ND	ND	ND	0	0
68445	2017-11-18T20:00:00	13.1	ND	ND	ND	2.82	12.36	ND	ND	ND	ND	0	0
68446	2017-11-18T21:00:00	9.4	ND	ND	ND	2.41	13.19	ND	ND	ND	ND	0	0
68447	2017-11-18T22:00:00	8	ND	ND	ND	2.36	14.66	ND	ND	ND	ND	0	0
68448	2017-11-18T23:00:00	6.7	ND	ND	ND	3.35	11.44	ND	ND	ND	ND	0	0
68449	2017-11-19T00:00:00	12.8	ND	ND	ND	2.61	13.09	ND	ND	ND	ND	0	0
68450	2017-11-19T01:00:00	3.7	ND	ND	ND	2.68	11.93	ND	ND	ND	ND	0	0
68451	2017-11-19T02:00:00	16.8	ND	ND	ND	3.55	6.38	ND	ND	ND	ND	0	0
68452	2017-11-19T03:00:00	27.4	ND	ND	ND	2.69	8.24	ND	ND	ND	ND	0	0
68453	2017-11-19T04:00:00	18.3	ND	ND	ND	4.10	8.14	ND	ND	ND	ND	0	0
68454	2017-11-19T05:00:00	11.1	ND	ND	ND	3.99	7.54	ND	ND	ND	ND	0	0
68455	2017-11-19T06:00:00	26.2	ND	ND	ND	1.84	6.95	ND	ND	ND	ND	0	0
68456	2017-11-19T07:00:00	27.2	ND	ND	ND	3.97	6.67	ND	ND	ND	ND	40.5	0
68457	2017-11-19T08:00:00	31.9	ND	ND	ND	2.66	7.40	ND	ND	ND	ND	149.5	0
68458	2017-11-19T09:00:00	30.8	ND	ND	ND	3.00	10.71	ND	ND	ND	ND	361.7	0
68459	2017-11-19T10:00:00	31.6	ND	ND	ND	2.77	11.95	ND	ND	ND	ND	504.9	0
68460	2017-11-19T11:00:00	39.1	ND	ND	ND	3.22	16.62	ND	ND	ND	ND	648.5	0
68461	2017-11-19T12:00:00	35.4	ND	ND	ND	2.40	28.59	ND	ND	ND	ND	648.7	0
68462	2017-11-19T13:00:00	26.6	ND	ND	ND	2.80	44.88	ND	ND	ND	ND	648.8	0
68463	2017-11-19T14:00:00	18.7	ND	ND	ND	3.35	45.06	ND	ND	ND	ND	649	0
68464	2017-11-19T15:00:00	20.6	ND	ND	ND	3.14	36.70	ND	ND	ND	ND	649.4	0
68465	2017-11-19T16:00:00	25	ND	ND	ND	2.82	34.62	ND	ND	ND	ND	474.1	0
68466	2017-11-19T17:00:00	30.7	ND	ND	ND	3.82	20.25	ND	ND	ND	ND	333	0
68467	2017-11-19T18:00:00	27.7	ND	ND	ND	2.90	15.46	ND	ND	ND	ND	37.4	0
68468	2017-11-19T19:00:00	9.3	ND	ND	ND	2.98	13.91	ND	ND	ND	ND	0	0
68469	2017-11-19T20:00:00	7	ND	ND	ND	1.67	18.33	ND	ND	ND	ND	0	0
68470	2017-11-19T21:00:00	6.1	ND	ND	ND	1.13	13.23	ND	ND	ND	ND	0	0
68471	2017-11-19T22:00:00	11.3	ND	ND	ND	1.17	7.22	ND	ND	ND	ND	0	0
68472	2017-11-19T23:00:00	25	ND	ND	ND	3.78	7.32	ND	ND	ND	ND	0	0
68473	2017-11-20T00:00:00	17.5	ND	ND	ND	3.68	10.85	ND	ND	ND	ND	0	0
68474	2017-11-20T01:00:00	13.6	ND	ND	ND	3.51	8.63	ND	ND	ND	ND	0	9.91
68475	2017-11-20T02:00:00	4.1	ND	ND	ND	2.48	7.79	ND	ND	ND	ND	0	1.52
68476	2017-11-20T03:00:00	10.1	ND	ND	ND	1.37	8.07	ND	ND	ND	ND	0	6.1
68477	2017-11-20T04:00:00	10.8	ND	ND	ND	4.03	7.52	ND	ND	ND	ND	0	6.1
68478	2017-11-20T05:00:00	6.2	ND	ND	ND	2.54	6.57	ND	ND	ND	ND	0	2.29
68479	2017-11-20T06:00:00	21	ND	ND	ND	4.10	5.95	ND	ND	ND	ND	0	1.52
68480	2017-11-20T07:00:00	25.7	ND	ND	ND	2.48	5.91	ND	ND	ND	ND	132.8	0.76
68481	2017-11-20T08:00:00	19.1	ND	ND	ND	2.45	6.59	ND	ND	ND	ND	405.2	0.25
68482	2017-11-20T09:00:00	37.6	ND	ND	ND	2.79	6.75	ND	ND	ND	ND	515.8	0
68483	2017-11-20T10:00:00	46.3	ND	ND	ND	2.80	11.75	ND	ND	ND	ND	590.8	0
68484	2017-11-20T11:00:00	59.4	ND	ND	ND	1.90	23.27	ND	ND	ND	ND	509.3	0
68485	2017-11-20T12:00:00	53.8	ND	ND	ND	3.46	34.87	ND	ND	ND	ND	587.9	0
68486	2017-11-20T13:00:00	53	ND	ND	ND	1.87	35.73	ND	ND	ND	ND	487.3	0
68487	2017-11-20T14:00:00	35.2	ND	ND	ND	3.21	37.44	ND	ND	ND	ND	649	0
68488	2017-11-20T15:00:00	35.6	ND	ND	ND	2.89	14.82	ND	ND	ND	ND	376.5	10.16
68489	2017-11-20T16:00:00	25.1	ND	ND	ND	2.90	9.11	ND	ND	ND	ND	351.6	0.25
68490	2017-11-20T17:00:00	46.6	ND	ND	ND	3.04	7.85	ND	ND	ND	ND	157.5	0
68491	2017-11-20T18:00:00	56.3	ND	ND	ND	2.66	6.83	ND	ND	ND	ND	83.9	0
68492	2017-11-20T19:00:00	81.9	ND	ND	ND	1.70	6.40	ND	ND	ND	ND	0	0
68493	2017-11-20T20:00:00	104.4	ND	ND	ND	0.01	6.44	ND	ND	ND	ND	0	0
68494	2017-11-20T21:00:00	79.3	ND	ND	ND	1.34	6.18	ND	ND	ND	ND	0	0
68495	2017-11-20T22:00:00	58.9	ND	ND	ND	1.70	6.28	ND	ND	ND	ND	0	0
68496	2017-11-20T23:00:00	63.6	ND	ND	ND	2.15	6.06	ND	ND	ND	ND	0	0
68497	2017-11-21T00:00:00	66.8	ND	ND	ND	2.20	6.16	ND	ND	ND	ND	0	2.29
68498	2017-11-21T01:00:00	67.5	ND	ND	ND	3.44	5.77	ND	ND	ND	ND	0	0.25
68499	2017-11-21T02:00:00	36.6	ND	ND	ND	3.64	6.38	ND	ND	ND	ND	0	0
68500	2017-11-21T03:00:00	31	ND	ND	ND	3.25	5.97	ND	ND	ND	ND	0	0
68501	2017-11-21T04:00:00	22.1	ND	ND	ND	3.76	6.12	ND	ND	ND	ND	0	0
68502	2017-11-21T05:00:00	13	ND	ND	ND	3.90	6.08	ND	ND	ND	ND	0	0
68503	2017-11-21T06:00:00	7.1	ND	ND	ND	2.44	6.30	ND	ND	ND	ND	0	0
68504	2017-11-21T07:00:00	26.6	ND	ND	ND	3.32	6.02	ND	ND	ND	ND	59.7	0
68505	2017-11-21T08:00:00	36	ND	ND	ND	3.33	6.34	ND	ND	ND	ND	301.7	0
68506	2017-11-21T09:00:00	41.6	ND	ND	ND	1.80	6.93	ND	ND	ND	ND	580.2	0
68507	2017-11-21T10:00:00	46	ND	ND	ND	2.29	16.11	ND	ND	ND	ND	648.3	0
68508	2017-11-21T11:00:00	51.9	ND	ND	ND	3.21	18.62	ND	ND	ND	ND	648.9	0
68509	2017-11-21T12:00:00	50.9	ND	ND	ND	3.93	26.81	ND	ND	ND	ND	649.1	0
68510	2017-11-21T13:00:00	42.2	ND	ND	ND	3.43	44.19	ND	ND	ND	ND	649	0
68511	2017-11-21T14:00:00	51.3	ND	ND	ND	3.15	48.53	ND	ND	ND	ND	649.3	0
68512	2017-11-21T15:00:00	60.1	ND	ND	ND	3.44	33.46	ND	ND	ND	ND	370	0
68513	2017-11-21T16:00:00	35.8	ND	ND	ND	3.14	16.27	ND	ND	ND	ND	503.8	0
68514	2017-11-21T17:00:00	30.7	ND	ND	ND	2.75	15.46	ND	ND	ND	ND	481.8	0
68515	2017-11-21T18:00:00	27.1	ND	ND	ND	1.99	12.74	ND	ND	ND	ND	62.9	0
68516	2017-11-21T19:00:00	18.3	ND	ND	ND	2.09	10.93	ND	ND	ND	ND	0	0
68517	2017-11-21T20:00:00	16.1	ND	ND	ND	3.00	10.77	ND	ND	ND	ND	0	0
68518	2017-11-21T21:00:00	21.1	ND	ND	ND	2.23	16.27	ND	ND	ND	ND	0	0
68519	2017-11-21T22:00:00	4.5	ND	ND	ND	3.04	12.93	ND	ND	ND	ND	0	0
68520	2017-11-21T23:00:00	15.2	ND	ND	ND	2.94	6.02	ND	ND	ND	ND	0	0
68521	2017-11-22T00:00:00	24	ND	ND	ND	3.54	7.34	ND	ND	ND	ND	0	0
68522	2017-11-22T01:00:00	27.9	ND	ND	ND	3.99	6.08	ND	ND	ND	ND	0	0
68523	2017-11-22T02:00:00	57.8	ND	ND	ND	1.85	6.08	ND	ND	ND	ND	0	0
68524	2017-11-22T03:00:00	53.4	ND	ND	ND	4.34	6.16	ND	ND	ND	ND	0	0
68525	2017-11-22T04:00:00	56.9	ND	ND	ND	3.97	6.20	ND	ND	ND	ND	0	0
68526	2017-11-22T05:00:00	48	ND	ND	ND	3.11	5.97	ND	ND	ND	ND	0	0
68527	2017-11-22T06:00:00	53.9	ND	ND	ND	3.15	6.08	ND	ND	ND	ND	0	0
68528	2017-11-22T07:00:00	74	ND	ND	ND	3.81	6.53	ND	ND	ND	ND	116.3	0
68529	2017-11-22T08:00:00	71.7	ND	ND	ND	2.89	6.77	ND	ND	ND	ND	362.7	0
68530	2017-11-22T09:00:00	72.5	ND	ND	ND	3.94	11.91	ND	ND	ND	ND	648.1	0
68531	2017-11-22T10:00:00	74	ND	ND	ND	2.51	21.33	ND	ND	ND	ND	635	0
68532	2017-11-22T11:00:00	62.1	ND	ND	ND	1.95	32.61	ND	ND	ND	ND	630.8	0
68533	2017-11-22T12:00:00	41.3	ND	ND	ND	2.69	47.78	ND	ND	ND	ND	648.9	0
68534	2017-11-22T13:00:00	48.9	ND	ND	ND	2.16	55.06	ND	ND	ND	ND	643.5	0
68535	2017-11-22T14:00:00	53.4	ND	ND	ND	0.99	53.81	ND	ND	ND	ND	634.4	0
68536	2017-11-22T15:00:00	38.5	ND	ND	ND	0.75	34.42	ND	ND	ND	ND	591.5	0
68537	2017-11-22T16:00:00	17.5	ND	ND	ND	3.29	23.49	ND	ND	ND	ND	638.1	0
68538	2017-11-22T17:00:00	29.3	ND	ND	ND	1.87	19.68	ND	ND	ND	ND	530.3	0
68539	2017-11-22T18:00:00	30.2	ND	ND	ND	2.17	15.58	ND	ND	ND	ND	53.9	0
68540	2017-11-22T19:00:00	30.9	ND	ND	ND	2.79	11.40	ND	ND	ND	ND	0	0
68541	2017-11-22T20:00:00	13.3	ND	ND	ND	2.93	9.79	ND	ND	ND	ND	0	0
68542	2017-11-22T21:00:00	17.2	ND	ND	ND	2.73	13.99	ND	ND	ND	ND	0	0
68543	2017-11-22T22:00:00	8.9	ND	ND	ND	3.02	12.23	ND	ND	ND	ND	0	0
68544	2017-11-22T23:00:00	27.6	ND	ND	ND	3.57	6.38	ND	ND	ND	ND	0	0
68545	2017-11-23T00:00:00	42.8	ND	ND	ND	4.32	6.06	ND	ND	ND	ND	0	0
68546	2017-11-23T01:00:00	34.8	ND	ND	ND	2.91	5.79	ND	ND	ND	ND	0	0
68547	2017-11-23T02:00:00	35.3	ND	ND	ND	2.86	6.69	ND	ND	ND	ND	0	0
68548	2017-11-23T03:00:00	39.5	ND	ND	ND	3.82	7.56	ND	ND	ND	ND	0	0
68549	2017-11-23T04:00:00	35.6	ND	ND	ND	2.65	7.14	ND	ND	ND	ND	0	0
68550	2017-11-23T05:00:00	38.4	ND	ND	ND	4.31	6.57	ND	ND	ND	ND	0	0
68551	2017-11-23T06:00:00	37.2	ND	ND	ND	2.24	6.06	ND	ND	ND	ND	0	0
68552	2017-11-23T07:00:00	49.6	ND	ND	ND	2.75	6.79	ND	ND	ND	ND	109.2	0
68553	2017-11-23T08:00:00	52.3	ND	ND	ND	1.49	8.60	ND	ND	ND	ND	535.9	0
68554	2017-11-23T09:00:00	61.1	ND	ND	ND	4.13	17.74	ND	ND	ND	ND	647.6	0
68555	2017-11-23T10:00:00	64.6	ND	ND	ND	2.68	29.10	ND	ND	ND	ND	648.7	0
68556	2017-11-23T11:00:00	64.4	ND	ND	ND	3.12	38.46	ND	ND	ND	ND	648.1	0
68557	2017-11-23T12:00:00	63.2	ND	ND	ND	2.26	58.97	ND	ND	ND	ND	554.1	0
68558	2017-11-23T13:00:00	63.7	ND	ND	ND	2.16	75.10	ND	ND	ND	ND	623.1	0
68559	2017-11-23T14:00:00	57.4	ND	ND	ND	2.77	23.16	ND	ND	ND	ND	538.7	0
68560	2017-11-23T15:00:00	27.3	ND	ND	ND	2.79	22.98	ND	ND	ND	ND	648.4	0
68561	2017-11-23T16:00:00	15.6	ND	ND	ND	2.09	20.27	ND	ND	ND	ND	593.3	0
68562	2017-11-23T17:00:00	19	ND	ND	ND	2.54	18.62	ND	ND	ND	ND	347.8	0
68563	2017-11-23T18:00:00	19.8	ND	ND	ND	3.90	19.58	ND	ND	ND	ND	50.4	0
68564	2017-11-23T19:00:00	26.8	ND	ND	ND	2.04	17.48	ND	ND	ND	ND	0	0
68565	2017-11-23T20:00:00	38.9	ND	ND	ND	1.90	15.72	ND	ND	ND	ND	0	0
68566	2017-11-23T21:00:00	30.9	ND	ND	ND	3.18	14.58	ND	ND	ND	ND	0	7.11
68567	2017-11-23T22:00:00	23.9	ND	ND	ND	3.07	11.66	ND	ND	ND	ND	0	8.89
68568	2017-11-23T23:00:00	9.7	ND	ND	ND	1.94	12.46	ND	ND	ND	ND	0	7.87
68569	2017-11-24T00:00:00	7	ND	ND	ND	3.26	7.04	ND	ND	ND	ND	0	6.86
68570	2017-11-24T01:00:00	16.6	ND	ND	ND	3.32	8.83	ND	ND	ND	ND	0	0.51
68571	2017-11-24T02:00:00	10.3	ND	ND	ND	3.18	7.95	ND	ND	ND	ND	0	0.25
68572	2017-11-24T03:00:00	4	ND	ND	ND	2.48	6.81	ND	ND	ND	ND	0	0
68573	2017-11-24T04:00:00	7.9	ND	ND	ND	3.48	7.63	ND	ND	ND	ND	0	0
68574	2017-11-24T05:00:00	14.5	ND	ND	ND	3.16	6.48	ND	ND	ND	ND	0	0
68575	2017-11-24T06:00:00	20.5	ND	ND	ND	4.10	6.02	ND	ND	ND	ND	0	0
68576	2017-11-24T07:00:00	42.8	ND	ND	ND	3.75	6.34	ND	ND	ND	ND	32.4	0
68577	2017-11-24T08:00:00	76.5	ND	ND	ND	3.01	6.48	ND	ND	ND	ND	164.6	0
68578	2017-11-24T09:00:00	73	ND	ND	ND	3.68	6.99	ND	ND	ND	ND	492	0
68579	2017-11-24T10:00:00	72.6	ND	ND	ND	3.09	18.45	ND	ND	ND	ND	640.9	0
68580	2017-11-24T11:00:00	79.7	ND	ND	ND	2.73	35.36	ND	ND	ND	ND	648.4	0
68581	2017-11-24T12:00:00	81.2	ND	ND	ND	3.69	73.61	ND	ND	ND	ND	648.8	0
68582	2017-11-24T13:00:00	83	ND	ND	ND	1.90	70.45	ND	ND	ND	ND	565.9	0
68583	2017-11-24T14:00:00	62.8	ND	ND	ND	1.97	46.86	ND	ND	ND	ND	601.3	0
68584	2017-11-24T15:00:00	52.9	ND	ND	ND	1.39	13.21	ND	ND	ND	ND	212.7	3.56
68585	2017-11-24T16:00:00	18.3	ND	ND	ND	2.91	11.09	ND	ND	ND	ND	609	0
68586	2017-11-24T17:00:00	35.6	ND	ND	ND	2.63	9.91	ND	ND	ND	ND	424.8	0
68587	2017-11-24T18:00:00	83.8	ND	ND	ND	2.77	7.04	ND	ND	ND	ND	78.9	0
68588	2017-11-24T19:00:00	69.5	ND	ND	ND	1.39	6.36	ND	ND	ND	ND	0	0
68589	2017-11-24T20:00:00	64.3	ND	ND	ND	0.47	6.65	ND	ND	ND	ND	0	0
68590	2017-11-24T21:00:00	64.5	ND	ND	ND	0.57	6.79	ND	ND	ND	ND	0	0
68591	2017-11-24T22:00:00	91.2	ND	ND	ND	1.28	6.48	ND	ND	ND	ND	0	0
68592	2017-11-24T23:00:00	86.6	ND	ND	ND	1.74	6.24	ND	ND	ND	ND	0	0
68593	2017-11-25T00:00:00	58.2	ND	ND	ND	3.12	6.28	ND	ND	ND	ND	0	0
68594	2017-11-25T01:00:00	69.8	ND	ND	ND	3.82	6.91	ND	ND	ND	ND	0	0
68595	2017-11-25T02:00:00	88.2	ND	ND	ND	2.13	6.08	ND	ND	ND	ND	0	0
68596	2017-11-25T03:00:00	64.7	ND	ND	ND	2.19	6.32	ND	ND	ND	ND	0	0
68597	2017-11-25T04:00:00	49.7	ND	ND	ND	1.84	5.53	ND	ND	ND	ND	0	0
68598	2017-11-25T05:00:00	55.2	ND	ND	ND	3.51	6.57	ND	ND	ND	ND	0	0
68599	2017-11-25T06:00:00	84.7	ND	ND	ND	3.58	6.00	ND	ND	ND	ND	0	0
68600	2017-11-25T07:00:00	60.5	ND	ND	ND	2.26	6.24	ND	ND	ND	ND	43.3	0
68601	2017-11-25T08:00:00	58.1	ND	ND	ND	2.69	7.18	ND	ND	ND	ND	215	0
68602	2017-11-25T09:00:00	98.7	ND	ND	ND	3.93	6.79	ND	ND	ND	ND	409.1	0
68603	2017-11-25T10:00:00	75.1	ND	ND	ND	3.12	13.87	ND	ND	ND	ND	628	0
68604	2017-11-25T11:00:00	87.4	ND	ND	ND	0.66	25.28	ND	ND	ND	ND	626.5	0
68605	2017-11-25T12:00:00	86.2	ND	ND	ND	4.11	27.55	ND	ND	ND	ND	569.1	0
68606	2017-11-25T13:00:00	46.3	ND	ND	ND	3.05	57.46	ND	ND	ND	ND	648.8	0
68607	2017-11-25T14:00:00	57	ND	ND	ND	2.83	80.44	ND	ND	ND	ND	637.3	0
68608	2017-11-25T15:00:00	70.5	ND	ND	ND	0.74	105.36	ND	ND	ND	ND	577.3	0
68609	2017-11-25T16:00:00	55.9	ND	ND	ND	2.98	73.90	ND	ND	ND	ND	483.1	0
68610	2017-11-25T17:00:00	52.8	ND	ND	ND	2.54	31.32	ND	ND	ND	ND	369.7	0
68611	2017-11-25T18:00:00	36.2	ND	ND	ND	2.96	13.87	ND	ND	ND	ND	48.1	0
68612	2017-11-25T19:00:00	22.9	ND	ND	ND	2.27	11.36	ND	ND	ND	ND	0	0
68613	2017-11-25T20:00:00	13.5	ND	ND	ND	2.30	9.52	ND	ND	ND	ND	0	0
68614	2017-11-25T21:00:00	12.7	ND	ND	ND	3.69	9.48	ND	ND	ND	ND	0	0
68615	2017-11-25T22:00:00	33.7	ND	ND	ND	1.91	6.16	ND	ND	ND	ND	0	0
68616	2017-11-25T23:00:00	57.9	ND	ND	ND	2.77	6.48	ND	ND	ND	ND	0	0
68617	2017-11-26T00:00:00	61.2	ND	ND	ND	3.01	5.81	ND	ND	ND	ND	0	0
68618	2017-11-26T01:00:00	48.7	ND	ND	ND	2.38	5.93	ND	ND	ND	ND	0	0
68619	2017-11-26T02:00:00	39.4	ND	ND	ND	0.35	5.91	ND	ND	ND	ND	0	0
68620	2017-11-26T03:00:00	35.5	ND	ND	ND	2.61	8.07	ND	ND	ND	ND	0	0
68621	2017-11-26T04:00:00	35.3	ND	ND	ND	2.50	8.24	ND	ND	ND	ND	0	0
68622	2017-11-26T05:00:00	34.6	ND	ND	ND	3.86	6.12	ND	ND	ND	ND	0	0
68623	2017-11-26T06:00:00	45	ND	ND	ND	3.53	6.12	ND	ND	ND	ND	0	0
68624	2017-11-26T07:00:00	60.3	ND	ND	ND	4.54	6.36	ND	ND	ND	ND	69.1	0
68625	2017-11-26T08:00:00	65.6	ND	ND	ND	4.66	7.63	ND	ND	ND	ND	260.4	0
68626	2017-11-26T09:00:00	61.9	ND	ND	ND	3.69	13.99	ND	ND	ND	ND	595.3	0
68627	2017-11-26T10:00:00	76.9	ND	ND	ND	3.50	14.72	ND	ND	ND	ND	633	0
68628	2017-11-26T11:00:00	73.1	ND	ND	ND	3.28	35.09	ND	ND	ND	ND	648.5	0
68629	2017-11-26T12:00:00	57.1	ND	ND	ND	1.66	64.07	ND	ND	ND	ND	648.9	0
68630	2017-11-26T13:00:00	50.4	ND	ND	ND	2.22	78.10	ND	ND	ND	ND	649.4	0
68631	2017-11-26T14:00:00	41.4	ND	ND	ND	2.79	83.52	ND	ND	ND	ND	624	0
68632	2017-11-26T15:00:00	41.7	ND	ND	ND	2.91	52.85	ND	ND	ND	ND	552.9	0
68633	2017-11-26T16:00:00	26.3	ND	ND	ND	0.86	27.92	ND	ND	ND	ND	592	0
68634	2017-11-26T17:00:00	18.7	ND	ND	ND	3.05	19.86	ND	ND	ND	ND	540.5	0
68635	2017-11-26T18:00:00	14.8	ND	ND	ND	2.62	17.96	ND	ND	ND	ND	83.1	0
68636	2017-11-26T19:00:00	11	ND	ND	ND	3.19	14.91	ND	ND	ND	ND	0	0
68637	2017-11-26T20:00:00	4.5	ND	ND	ND	3.86	15.64	ND	ND	ND	ND	0	0
68638	2017-11-26T21:00:00	7.9	ND	ND	ND	2.50	17.25	ND	ND	ND	ND	0	0
68639	2017-11-26T22:00:00	3	ND	ND	ND	3.30	11.11	ND	ND	ND	ND	0	0
68640	2017-11-26T23:00:00	21.4	ND	ND	ND	1.83	12.32	ND	ND	ND	ND	0	0
68641	2017-11-27T00:00:00	23.8	ND	ND	ND	2.97	13.23	ND	ND	ND	ND	0	0
68642	2017-11-27T01:00:00	14.8	ND	ND	ND	3.18	13.56	ND	ND	ND	ND	0	0
68643	2017-11-27T02:00:00	23.3	ND	ND	ND	4.20	13.23	ND	ND	ND	ND	0	0
68644	2017-11-27T03:00:00	13.2	ND	ND	ND	3.14	11.72	ND	ND	ND	ND	0	0
68645	2017-11-27T04:00:00	27.7	ND	ND	ND	3.92	6.57	ND	ND	ND	ND	0	0
68646	2017-11-27T05:00:00	40.5	ND	ND	ND	4.45	6.12	ND	ND	ND	ND	0	0
68647	2017-11-27T06:00:00	49.5	ND	ND	ND	3.78	6.28	ND	ND	ND	ND	0	0
68648	2017-11-27T07:00:00	56.7	ND	ND	ND	3.44	6.38	ND	ND	ND	ND	80.6	0
68649	2017-11-27T08:00:00	50.1	ND	ND	ND	3.19	6.99	ND	ND	ND	ND	535.8	0
68650	2017-11-27T09:00:00	57	ND	ND	ND	2.83	11.77	ND	ND	ND	ND	635.6	0
68651	2017-11-27T10:00:00	84.1	ND	ND	ND	1.62	15.58	ND	ND	ND	ND	508.8	0
68652	2017-11-27T11:00:00	66.5	ND	ND	ND	2.62	33.07	ND	ND	ND	ND	633.9	0
68653	2017-11-27T12:00:00	59.9	ND	ND	ND	2.37	42.41	ND	ND	ND	ND	649	0
68654	2017-11-27T13:00:00	56.6	ND	ND	ND	2.61	42.90	ND	ND	ND	ND	649	0
68655	2017-11-27T14:00:00	53.6	ND	ND	ND	2.05	40.66	ND	ND	ND	ND	649.3	0
68656	2017-11-27T15:00:00	39.1	ND	ND	ND	2.08	24.59	ND	ND	ND	ND	539.4	0
68657	2017-11-27T16:00:00	40.6	ND	ND	ND	1.95	14.58	ND	ND	ND	ND	386.4	0
68658	2017-11-27T17:00:00	32.8	ND	ND	ND	1.41	11.05	ND	ND	ND	ND	156.5	0
68659	2017-11-27T18:00:00	27.5	ND	ND	ND	1.78	9.26	ND	ND	ND	ND	35	0
68660	2017-11-27T19:00:00	20.9	ND	ND	ND	2.79	7.54	ND	ND	ND	ND	0	0
68661	2017-11-27T20:00:00	28.9	ND	ND	ND	2.72	8.75	ND	ND	ND	ND	0	0
68662	2017-11-27T21:00:00	15.4	ND	ND	ND	2.87	8.97	ND	ND	ND	ND	0	0
68663	2017-11-27T22:00:00	24.6	ND	ND	ND	1.84	6.79	ND	ND	ND	ND	0	0
68664	2017-11-27T23:00:00	57.1	ND	ND	ND	2.56	6.26	ND	ND	ND	ND	0	0
68665	2017-11-28T00:00:00	45.7	ND	ND	ND	2.79	5.81	ND	ND	ND	ND	0	0
68666	2017-11-28T01:00:00	31.8	ND	ND	ND	2.20	5.93	ND	ND	ND	ND	0	0
68667	2017-11-28T02:00:00	26.7	ND	ND	ND	3.32	5.79	ND	ND	ND	ND	0	0
68668	2017-11-28T03:00:00	31.6	ND	ND	ND	3.07	5.99	ND	ND	ND	ND	0	0
68669	2017-11-28T04:00:00	28.5	ND	ND	ND	4.01	5.81	ND	ND	ND	ND	0	0
68670	2017-11-28T05:00:00	39.6	ND	ND	ND	6.02	6.04	ND	ND	ND	ND	0	0
68671	2017-11-28T06:00:00	39.5	ND	ND	ND	4.13	5.83	ND	ND	ND	ND	0	0
68672	2017-11-28T07:00:00	42.2	ND	ND	ND	3.39	6.26	ND	ND	ND	ND	55.8	0
68673	2017-11-28T08:00:00	53.6	ND	ND	ND	1.99	7.54	ND	ND	ND	ND	500.7	0
68674	2017-11-28T09:00:00	67	ND	ND	ND	4.04	16.50	ND	ND	ND	ND	647.3	0
68675	2017-11-28T10:00:00	78	ND	ND	ND	2.82	22.86	ND	ND	ND	ND	628.2	0
68676	2017-11-28T11:00:00	68.3	ND	ND	ND	0.22	32.93	ND	ND	ND	ND	647.6	0
68677	2017-11-28T12:00:00	59.9	ND	ND	ND	2.12	55.97	ND	ND	ND	ND	641.3	0
68678	2017-11-28T13:00:00	52.1	ND	ND	ND	2.94	68.49	ND	ND	ND	ND	644.7	0
68679	2017-11-28T14:00:00	55	ND	ND	ND	2.43	64.60	ND	ND	ND	ND	584.3	0
68680	2017-11-28T15:00:00	35.3	ND	ND	ND	2.16	43.25	ND	ND	ND	ND	451	0
68681	2017-11-28T16:00:00	38.4	ND	ND	ND	1.88	19.90	ND	ND	ND	ND	458.4	0
68682	2017-11-28T17:00:00	32.1	ND	ND	ND	3.22	18.47	ND	ND	ND	ND	524.7	0
68683	2017-11-28T18:00:00	31.9	ND	ND	ND	1.71	13.07	ND	ND	ND	ND	62	0
68684	2017-11-28T19:00:00	27.3	ND	ND	ND	1.30	11.42	ND	ND	ND	ND	0	0
68685	2017-11-28T20:00:00	26.3	ND	ND	ND	2.86	13.56	ND	ND	ND	ND	0	0
68686	2017-11-28T21:00:00	8.1	ND	ND	ND	3.25	12.15	ND	ND	ND	ND	0	0
68687	2017-11-28T22:00:00	16.6	ND	ND	ND	2.62	12.46	ND	ND	ND	ND	0	0
68688	2017-11-28T23:00:00	25.8	ND	ND	ND	2.90	14.86	ND	ND	ND	ND	0	0
68689	2017-11-29T00:00:00	13.1	ND	ND	ND	2.72	9.11	ND	ND	ND	ND	0	0
68690	2017-11-29T01:00:00	28.7	ND	ND	ND	3.30	6.55	ND	ND	ND	ND	0	0
68691	2017-11-29T02:00:00	44.1	ND	ND	ND	2.97	6.36	ND	ND	ND	ND	0	0
68692	2017-11-29T03:00:00	38.5	ND	ND	ND	2.61	6.65	ND	ND	ND	ND	0	0
68693	2017-11-29T04:00:00	36.2	ND	ND	ND	2.96	6.52	ND	ND	ND	ND	0	0
68694	2017-11-29T05:00:00	42.4	ND	ND	ND	4.34	6.22	ND	ND	ND	ND	0	0
68695	2017-11-29T06:00:00	35.7	ND	ND	ND	3.90	6.50	ND	ND	ND	ND	0	0
68696	2017-11-29T07:00:00	67.5	ND	ND	ND	4.64	6.67	ND	ND	ND	ND	94.7	0
68697	2017-11-29T08:00:00	76.1	ND	ND	ND	4.31	7.44	ND	ND	ND	ND	491.8	0
68698	2017-11-29T09:00:00	77.9	ND	ND	ND	3.00	16.39	ND	ND	ND	ND	644.2	0
68699	2017-11-29T10:00:00	77.6	ND	ND	ND	2.22	23.59	ND	ND	ND	ND	552	0
68700	2017-11-29T11:00:00	68.7	ND	ND	ND	4.03	36.30	ND	ND	ND	ND	538.1	0
68701	2017-11-29T12:00:00	53.4	ND	ND	ND	2.76	75.85	ND	ND	ND	ND	649.1	0
68702	2017-11-29T13:00:00	69.8	ND	ND	ND	2.48	108.81	ND	ND	ND	ND	647	0
68703	2017-11-29T14:00:00	74.9	ND	ND	ND	3.78	47.96	ND	ND	ND	ND	513.6	0
68704	2017-11-29T15:00:00	44.8	ND	ND	ND	2.77	22.08	ND	ND	ND	ND	574.7	0
68705	2017-11-29T16:00:00	35.7	ND	ND	ND	2.01	21.76	ND	ND	ND	ND	570.3	0
68706	2017-11-29T17:00:00	24.7	ND	ND	ND	2.52	18.70	ND	ND	ND	ND	468.2	0
68707	2017-11-29T18:00:00	26.2	ND	ND	ND	2.55	13.29	ND	ND	ND	ND	103.5	0
68708	2017-11-29T19:00:00	23.7	ND	ND	ND	2.33	10.01	ND	ND	ND	ND	0	0
68709	2017-11-29T20:00:00	21.4	ND	ND	ND	2.33	10.26	ND	ND	ND	ND	0	0
68710	2017-11-29T21:00:00	16.9	ND	ND	ND	3.82	14.52	ND	ND	ND	ND	0	0
68711	2017-11-29T22:00:00	10.6	ND	ND	ND	4.38	13.99	ND	ND	ND	ND	0	0
68712	2017-11-29T23:00:00	14.4	ND	ND	ND	3.33	13.11	ND	ND	ND	ND	0	0
68713	2017-11-30T00:00:00	6.7	ND	ND	ND	3.60	9.75	ND	ND	ND	ND	0	0
68714	2017-11-30T01:00:00	21.4	ND	ND	ND	4.24	8.46	ND	ND	ND	ND	0	0
68715	2017-11-30T02:00:00	30.1	ND	ND	ND	3.89	6.32	ND	ND	ND	ND	0	0
68716	2017-11-30T03:00:00	35.7	ND	ND	ND	5.27	7.01	ND	ND	ND	ND	0	0
68717	2017-11-30T04:00:00	35.1	ND	ND	ND	2.65	7.71	ND	ND	ND	ND	0	0
68718	2017-11-30T05:00:00	38	ND	ND	ND	4.36	6.71	ND	ND	ND	ND	0	0
68719	2017-11-30T06:00:00	41.5	ND	ND	ND	4.98	6.28	ND	ND	ND	ND	0	0
68720	2017-11-30T07:00:00	58.6	ND	ND	ND	4.15	6.65	ND	ND	ND	ND	63.7	0
68721	2017-11-30T08:00:00	78.6	ND	ND	ND	4.43	9.07	ND	ND	ND	ND	436.8	0
68722	2017-11-30T09:00:00	62.2	ND	ND	ND	2.66	12.52	ND	ND	ND	ND	605.1	0
68723	2017-11-30T10:00:00	64.6	ND	ND	ND	2.13	17.31	ND	ND	ND	ND	648.4	0
68724	2017-11-30T11:00:00	58.9	ND	ND	ND	0.59	14.44	ND	ND	ND	ND	648.8	0
68725	2017-11-30T12:00:00	66.4	ND	ND	ND	1.45	18.68	ND	ND	ND	ND	593.5	0
68726	2017-11-30T13:00:00	50.3	ND	ND	ND	2.47	23.88	ND	ND	ND	ND	574.4	0
68727	2017-11-30T14:00:00	53.9	ND	ND	ND	3.15	21.49	ND	ND	ND	ND	487.1	0
68728	2017-11-30T15:00:00	30.8	ND	ND	ND	2.56	13.72	ND	ND	ND	ND	606.4	0
68729	2017-11-30T16:00:00	27.8	ND	ND	ND	2.44	12.76	ND	ND	ND	ND	649.6	0
68730	2017-11-30T17:00:00	23.5	ND	ND	ND	3.64	11.54	ND	ND	ND	ND	519	0
68731	2017-11-30T18:00:00	23.3	ND	ND	ND	1.97	10.42	ND	ND	ND	ND	69.2	0
68732	2017-11-30T19:00:00	24.9	ND	ND	ND	1.48	9.56	ND	ND	ND	ND	0	0
68733	2017-11-30T20:00:00	22.1	ND	ND	ND	1.42	9.44	ND	ND	ND	ND	0	0
68734	2017-11-30T21:00:00	15.7	ND	ND	ND	1.91	9.56	ND	ND	ND	ND	0	0
68735	2017-11-30T22:00:00	16.2	ND	ND	ND	2.48	8.50	ND	ND	ND	ND	0	0
68736	2017-11-30T23:00:00	40.9	ND	ND	ND	3.97	9.26	ND	ND	ND	ND	0	0
68737	2017-12-01T00:00:00	37.2	ND	ND	ND	2.79	7.42	ND	ND	ND	ND	0	0
68738	2017-12-01T01:00:00	47.3	ND	ND	ND	3.33	7.54	ND	ND	ND	ND	0	0
68739	2017-12-01T02:00:00	33.1	ND	ND	ND	4.11	8.16	ND	ND	ND	ND	0	0
68740	2017-12-01T03:00:00	23.2	ND	ND	ND	4.03	8.30	ND	ND	ND	ND	0	0
68741	2017-12-01T04:00:00	28.9	ND	ND	ND	3.55	8.05	ND	ND	ND	ND	0	0
68742	2017-12-01T05:00:00	29.2	ND	ND	ND	4.11	7.24	ND	ND	ND	ND	0	0
68743	2017-12-01T06:00:00	33.4	ND	ND	ND	3.71	7.42	ND	ND	ND	ND	0	0
68744	2017-12-01T07:00:00	45.3	ND	ND	ND	4.17	7.36	ND	ND	ND	ND	82.3	0
68745	2017-12-01T08:00:00	52.9	ND	ND	ND	4.40	7.81	ND	ND	ND	ND	478.6	0
68746	2017-12-01T09:00:00	63.6	ND	ND	ND	3.96	8.85	ND	ND	ND	ND	403.2	0
68747	2017-12-01T10:00:00	78.6	ND	ND	ND	2.62	9.38	ND	ND	ND	ND	565.4	0
68748	2017-12-01T11:00:00	60.6	ND	ND	ND	3.60	13.95	ND	ND	ND	ND	648.3	0
68749	2017-12-01T12:00:00	61.2	ND	ND	ND	3.07	17.78	ND	ND	ND	ND	625.9	0
68750	2017-12-01T13:00:00	63	ND	ND	ND	2.12	15.48	ND	ND	ND	ND	442.3	0
68751	2017-12-01T14:00:00	45.8	ND	ND	ND	2.50	9.18	ND	ND	ND	ND	563.1	10.16
68752	2017-12-01T15:00:00	19.7	ND	ND	ND	2.04	9.20	ND	ND	ND	ND	648.6	0
68753	2017-12-01T16:00:00	36.8	ND	ND	ND	3.11	8.85	ND	ND	ND	ND	616.5	0
68754	2017-12-01T17:00:00	35.5	ND	ND	ND	3.18	8.85	ND	ND	ND	ND	206.5	0
68755	2017-12-01T18:00:00	5.6	ND	ND	ND	2.05	8.63	ND	ND	ND	ND	25.3	0
68756	2017-12-01T19:00:00	10.7	ND	ND	ND	2.89	8.69	ND	ND	ND	ND	0	0
68757	2017-12-01T20:00:00	12.5	ND	ND	ND	3.39	8.20	ND	ND	ND	ND	0	0
68758	2017-12-01T21:00:00	6.4	ND	ND	ND	3.05	7.28	ND	ND	ND	ND	0	5.59
68759	2017-12-01T22:00:00	14.3	ND	ND	ND	3.64	6.95	ND	ND	ND	ND	0	4.83
68760	2017-12-01T23:00:00	9.9	ND	ND	ND	2.94	6.99	ND	ND	ND	ND	0	0
68761	2017-12-02T00:00:00	21	ND	ND	ND	4.43	7.04	ND	ND	ND	ND	0	0.25
68762	2017-12-02T01:00:00	18.4	ND	ND	ND	4.38	7.34	ND	ND	ND	ND	0	0
68763	2017-12-02T02:00:00	15.8	ND	ND	ND	2.26	6.73	ND	ND	ND	ND	0	0.25
68764	2017-12-02T03:00:00	5	ND	ND	ND	1.71	6.53	ND	ND	ND	ND	0	0
68765	2017-12-02T04:00:00	5.1	ND	ND	ND	3.43	7.04	ND	ND	ND	ND	0	13.97
68766	2017-12-02T05:00:00	7.1	ND	ND	ND	2.63	6.69	ND	ND	ND	ND	0	13.97
68767	2017-12-02T06:00:00	4	ND	ND	ND	3.89	7.04	ND	ND	ND	ND	0	0
68768	2017-12-02T07:00:00	21.3	ND	ND	ND	3.19	7.50	ND	ND	ND	ND	8.8	0.51
68769	2017-12-02T08:00:00	27.9	ND	ND	ND	3.08	7.48	ND	ND	ND	ND	93.1	0
68770	2017-12-02T09:00:00	30	ND	ND	ND	2.16	7.97	ND	ND	ND	ND	391.9	0
68771	2017-12-02T10:00:00	51	ND	ND	ND	3.78	8.46	ND	ND	ND	ND	611.2	0
68772	2017-12-02T11:00:00	57.2	ND	ND	ND	4.46	9.16	ND	ND	ND	ND	648.1	0
68773	2017-12-02T12:00:00	58.5	ND	ND	ND	2.56	13.93	ND	ND	ND	ND	648.4	0
68774	2017-12-02T13:00:00	47.9	ND	ND	ND	2.12	18.76	ND	ND	ND	ND	649.4	0
68775	2017-12-02T14:00:00	48.7	ND	ND	ND	3.16	20.06	ND	ND	ND	ND	648.9	0
68776	2017-12-02T15:00:00	43.5	ND	ND	ND	3.51	21.76	ND	ND	ND	ND	603.1	0
68777	2017-12-02T16:00:00	52.4	ND	ND	ND	3.75	21.74	ND	ND	ND	ND	643.7	0
68778	2017-12-02T17:00:00	55.8	ND	ND	ND	3.18	13.91	ND	ND	ND	ND	326.9	0
68779	2017-12-02T18:00:00	24.4	ND	ND	ND	1.27	8.83	ND	ND	ND	ND	84.2	0
68780	2017-12-02T19:00:00	19.1	ND	ND	ND	2.12	8.32	ND	ND	ND	ND	0	0
68781	2017-12-02T20:00:00	7.1	ND	ND	ND	4.03	8.56	ND	ND	ND	ND	0	0
68782	2017-12-02T21:00:00	7.3	ND	ND	ND	2.96	7.48	ND	ND	ND	ND	0	0
68783	2017-12-02T22:00:00	22.5	ND	ND	ND	3.08	7.52	ND	ND	ND	ND	0	0
68784	2017-12-02T23:00:00	29.6	ND	ND	ND	2.93	7.38	ND	ND	ND	ND	0	0
68785	2017-12-03T00:00:00	37.2	ND	ND	ND	4.46	7.32	ND	ND	ND	ND	0	0
68786	2017-12-03T01:00:00	25.3	ND	ND	ND	3.21	8.52	ND	ND	ND	ND	0	0
68787	2017-12-03T02:00:00	26	ND	ND	ND	4.21	8.18	ND	ND	ND	ND	0	0
68788	2017-12-03T03:00:00	23.8	ND	ND	ND	2.91	7.71	ND	ND	ND	ND	0	2.03
68789	2017-12-03T04:00:00	19.7	ND	ND	ND	4.29	7.61	ND	ND	ND	ND	0	2.03
68790	2017-12-03T05:00:00	22.7	ND	ND	ND	2.17	7.30	ND	ND	ND	ND	0	0.51
68791	2017-12-03T06:00:00	20.2	ND	ND	ND	3.33	7.69	ND	ND	ND	ND	0	0.25
68792	2017-12-03T07:00:00	33.7	ND	ND	ND	3.72	7.52	ND	ND	ND	ND	126.2	0
68793	2017-12-03T08:00:00	51.3	ND	ND	ND	3.90	8.07	ND	ND	ND	ND	201.4	0
68794	2017-12-03T09:00:00	67	ND	ND	ND	3.64	8.71	ND	ND	ND	ND	431.8	0
68795	2017-12-03T10:00:00	72.1	ND	ND	ND	4.42	11.28	ND	ND	ND	ND	647.7	0
68796	2017-12-03T11:00:00	66.1	ND	ND	ND	2.34	16.74	ND	ND	ND	ND	642.7	0
68797	2017-12-03T12:00:00	56.4	ND	ND	ND	2.37	18.94	ND	ND	ND	ND	648.7	0
68798	2017-12-03T13:00:00	46.2	ND	ND	ND	3.04	22.70	ND	ND	ND	ND	647.7	0
68799	2017-12-03T14:00:00	42.2	ND	ND	ND	3.32	27.34	ND	ND	ND	ND	619.7	0
68800	2017-12-03T15:00:00	39.1	ND	ND	ND	3.47	32.73	ND	ND	ND	ND	494.6	0
68801	2017-12-03T16:00:00	37.5	ND	ND	ND	3.21	31.71	ND	ND	ND	ND	536.7	0
68802	2017-12-03T17:00:00	17.7	ND	ND	ND	3.67	14.78	ND	ND	ND	ND	593.3	0
68803	2017-12-03T18:00:00	16.7	ND	ND	ND	1.91	10.83	ND	ND	ND	ND	87.9	0
68804	2017-12-03T19:00:00	8.8	ND	ND	ND	2.68	10.03	ND	ND	ND	ND	0	0
68805	2017-12-03T20:00:00	2	ND	ND	ND	2.01	9.69	ND	ND	ND	ND	0	0
68806	2017-12-03T21:00:00	2.8	ND	ND	ND	3.48	8.69	ND	ND	ND	ND	0	0
68807	2017-12-03T22:00:00	15.7	ND	ND	ND	3.01	7.54	ND	ND	ND	ND	0	0
68808	2017-12-03T23:00:00	38.4	ND	ND	ND	5.19	7.63	ND	ND	ND	ND	0	0
68809	2017-12-04T00:00:00	38.9	ND	ND	ND	2.96	7.50	ND	ND	ND	ND	0	0
68810	2017-12-04T01:00:00	29.7	ND	ND	ND	2.80	7.44	ND	ND	ND	ND	0	0
68811	2017-12-04T02:00:00	26.3	ND	ND	ND	3.29	7.48	ND	ND	ND	ND	0	0
68812	2017-12-04T03:00:00	15.6	ND	ND	ND	3.90	7.40	ND	ND	ND	ND	0	0
68813	2017-12-04T04:00:00	19.8	ND	ND	ND	2.97	6.89	ND	ND	ND	ND	0	0
68814	2017-12-04T05:00:00	22.4	ND	ND	ND	4.57	7.12	ND	ND	ND	ND	0	0
68815	2017-12-04T06:00:00	27.6	ND	ND	ND	3.50	7.42	ND	ND	ND	ND	0	0
68816	2017-12-04T07:00:00	58.7	ND	ND	ND	4.71	7.95	ND	ND	ND	ND	81.3	0
68817	2017-12-04T08:00:00	45.6	ND	ND	ND	4.11	8.05	ND	ND	ND	ND	419.8	0
68818	2017-12-04T09:00:00	62.9	ND	ND	ND	3.55	8.36	ND	ND	ND	ND	615.9	0
68819	2017-12-04T10:00:00	64.9	ND	ND	ND	1.76	11.21	ND	ND	ND	ND	648.6	0
68820	2017-12-04T11:00:00	71.3	ND	ND	ND	1.63	11.89	ND	ND	ND	ND	648.8	0
68821	2017-12-04T12:00:00	62	ND	ND	ND	1.87	18.05	ND	ND	ND	ND	648.9	0
68822	2017-12-04T13:00:00	69.5	ND	ND	ND	3.89	23.96	ND	ND	ND	ND	503	0
68823	2017-12-04T14:00:00	76.5	ND	ND	ND	3.64	22.41	ND	ND	ND	ND	467.3	0
68824	2017-12-04T15:00:00	50.9	ND	ND	ND	3.40	10.60	ND	ND	ND	ND	531.8	0
68825	2017-12-04T16:00:00	27.3	ND	ND	ND	2.04	10.26	ND	ND	ND	ND	648.4	0
68826	2017-12-04T17:00:00	27.4	ND	ND	ND	1.53	10.03	ND	ND	ND	ND	380.8	0
68827	2017-12-04T18:00:00	28.8	ND	ND	ND	1.94	8.22	ND	ND	ND	ND	55.4	0
68828	2017-12-04T19:00:00	20.9	ND	ND	ND	1.92	8.32	ND	ND	ND	ND	0	0
68829	2017-12-04T20:00:00	30.4	ND	ND	ND	1.80	8.52	ND	ND	ND	ND	0	0
68830	2017-12-04T21:00:00	15.8	ND	ND	ND	2.75	7.91	ND	ND	ND	ND	0	0
68831	2017-12-04T22:00:00	53.7	ND	ND	ND	1.56	8.20	ND	ND	ND	ND	0	0
68832	2017-12-04T23:00:00	30	ND	ND	ND	2.37	7.95	ND	ND	ND	ND	0	0
68833	2017-12-05T00:00:00	46.6	ND	ND	ND	3.89	7.63	ND	ND	ND	ND	0	0
68834	2017-12-05T01:00:00	40.9	ND	ND	ND	2.70	9.14	ND	ND	ND	ND	0	0
68835	2017-12-05T02:00:00	21.2	ND	ND	ND	5.14	7.85	ND	ND	ND	ND	0	0
68836	2017-12-05T03:00:00	41.4	ND	ND	ND	5.45	7.54	ND	ND	ND	ND	0	0
68837	2017-12-05T04:00:00	42.5	ND	ND	ND	4.35	7.93	ND	ND	ND	ND	0	0
68838	2017-12-05T05:00:00	57.5	ND	ND	ND	5.30	8.08	ND	ND	ND	ND	0	0
68839	2017-12-05T06:00:00	58.4	ND	ND	ND	3.19	7.91	ND	ND	ND	ND	0	0
68840	2017-12-05T07:00:00	86.2	ND	ND	ND	3.86	7.91	ND	ND	ND	ND	52.6	0
68841	2017-12-05T08:00:00	75.1	ND	ND	ND	4.03	8.42	ND	ND	ND	ND	488	0
68842	2017-12-05T09:00:00	77.9	ND	ND	ND	2.73	9.60	ND	ND	ND	ND	630.9	0
68843	2017-12-05T10:00:00	93	ND	ND	ND	4.10	12.56	ND	ND	ND	ND	497.6	0
68844	2017-12-05T11:00:00	79.6	ND	ND	ND	2.65	15.31	ND	ND	ND	ND	600.3	0
68845	2017-12-05T12:00:00	80.2	ND	ND	ND	3.42	25.47	ND	ND	ND	ND	642.2	0
68846	2017-12-05T13:00:00	86.8	ND	ND	ND	3.26	31.97	ND	ND	ND	ND	649.3	0
68847	2017-12-05T14:00:00	80.5	ND	ND	ND	2.96	28.08	ND	ND	ND	ND	625.9	0
68848	2017-12-05T15:00:00	53.3	ND	ND	ND	2.56	27.94	ND	ND	ND	ND	423.1	0
68849	2017-12-05T16:00:00	48.3	ND	ND	ND	3.39	16.86	ND	ND	ND	ND	633.6	0
68850	2017-12-05T17:00:00	21.5	ND	ND	ND	1.59	11.58	ND	ND	ND	ND	540.4	0
68851	2017-12-05T18:00:00	25.2	ND	ND	ND	1.78	10.81	ND	ND	ND	ND	77.3	0
68852	2017-12-05T19:00:00	33.1	ND	ND	ND	2.08	9.42	ND	ND	ND	ND	0	0
68853	2017-12-05T20:00:00	29.3	ND	ND	ND	2.56	8.85	ND	ND	ND	ND	0	0
68854	2017-12-05T21:00:00	21.9	ND	ND	ND	2.27	8.32	ND	ND	ND	ND	0	0
68855	2017-12-05T22:00:00	14.4	ND	ND	ND	3.82	7.99	ND	ND	ND	ND	0	0
68856	2017-12-05T23:00:00	21.4	ND	ND	ND	2.84	8.34	ND	ND	ND	ND	0	0
68857	2017-12-06T00:00:00	13.9	ND	ND	ND	2.41	9.75	ND	ND	ND	ND	0	0
68858	2017-12-06T01:00:00	24.5	ND	ND	ND	3.55	7.67	ND	ND	ND	ND	0	0
68859	2017-12-06T02:00:00	36.1	ND	ND	ND	3.62	7.65	ND	ND	ND	ND	0	0
68860	2017-12-06T03:00:00	43.9	ND	ND	ND	3.16	7.99	ND	ND	ND	ND	0	0
68861	2017-12-06T04:00:00	37.1	ND	ND	ND	3.65	7.95	ND	ND	ND	ND	0	0
68862	2017-12-06T05:00:00	41.7	ND	ND	ND	3.88	8.18	ND	ND	ND	ND	0	0
68863	2017-12-06T06:00:00	46.2	ND	ND	ND	4.43	8.05	ND	ND	ND	ND	0	0
68864	2017-12-06T07:00:00	71.8	ND	ND	ND	1.73	8.16	ND	ND	ND	ND	66.2	0
68865	2017-12-06T08:00:00	77.4	ND	ND	ND	2.62	8.63	ND	ND	ND	ND	325.6	0
68866	2017-12-06T09:00:00	60.7	ND	ND	ND	3.75	9.50	ND	ND	ND	ND	647.5	0
68867	2017-12-06T10:00:00	59.8	ND	ND	ND	3.39	10.54	ND	ND	ND	ND	648	0
68868	2017-12-06T11:00:00	124.5	ND	ND	ND	1.69	16.48	ND	ND	ND	ND	648.9	0
68869	2017-12-06T12:00:00	106.7	ND	ND	ND	2.41	24.98	ND	ND	ND	ND	648.9	0
68870	2017-12-06T13:00:00	73.8	ND	ND	ND	3.36	36.77	ND	ND	ND	ND	648.8	0
68871	2017-12-06T14:00:00	76.1	ND	ND	ND	2.80	44.51	ND	ND	ND	ND	612.3	0
68872	2017-12-06T15:00:00	115.6	ND	ND	ND	1.32	ND	ND	ND	ND	ND	496.6	0
68873	2017-12-06T16:00:00	ND	ND	ND	ND	2.66	15.09	ND	ND	ND	ND	649.9	0
68874	2017-12-06T17:00:00	ND	ND	ND	ND	1.30	12.34	ND	ND	ND	ND	516.3	0
68875	2017-12-06T18:00:00	74.9	ND	ND	ND	1.58	10.17	ND	ND	ND	ND	82.9	0
68876	2017-12-06T19:00:00	28.4	ND	ND	ND	3.43	9.26	ND	ND	ND	ND	0	0
68877	2017-12-06T20:00:00	39.5	ND	ND	ND	2.40	9.46	ND	ND	ND	ND	0	0
68878	2017-12-06T21:00:00	24.7	ND	ND	ND	2.55	9.26	ND	ND	ND	ND	0	0
68879	2017-12-06T22:00:00	16.3	ND	ND	ND	3.94	8.18	ND	ND	ND	ND	0	0
68880	2017-12-06T23:00:00	38.8	ND	ND	ND	2.75	7.79	ND	ND	ND	ND	0	0
68881	2017-12-07T00:00:00	51.4	ND	ND	ND	4.25	8.10	ND	ND	ND	ND	0	0
68882	2017-12-07T01:00:00	51	ND	ND	ND	3.44	7.97	ND	ND	ND	ND	0	0
68883	2017-12-07T02:00:00	50.9	ND	ND	ND	3.02	7.69	ND	ND	ND	ND	0	0
68884	2017-12-07T03:00:00	49.2	ND	ND	ND	5.09	7.63	ND	ND	ND	ND	0	0
68885	2017-12-07T04:00:00	49.4	ND	ND	ND	2.77	7.46	ND	ND	ND	ND	0	0
68886	2017-12-07T05:00:00	44	ND	ND	ND	3.78	7.48	ND	ND	ND	ND	0	0
68887	2017-12-07T06:00:00	39	ND	ND	ND	3.23	8.18	ND	ND	ND	ND	0	0
68888	2017-12-07T07:00:00	73.6	ND	ND	ND	4.88	8.36	ND	ND	ND	ND	61.4	0
68889	2017-12-07T08:00:00	89.7	ND	ND	ND	2.48	8.63	ND	ND	ND	ND	354.6	0
68890	2017-12-07T09:00:00	97.7	ND	ND	ND	2.63	9.42	ND	ND	ND	ND	625.5	0
68891	2017-12-07T10:00:00	86.6	ND	ND	ND	3.50	10.75	ND	ND	ND	ND	600.2	0
68892	2017-12-07T11:00:00	72.5	ND	ND	ND	2.24	15.97	ND	ND	ND	ND	647.2	0
68893	2017-12-07T12:00:00	85.8	ND	ND	ND	2.15	22.82	ND	ND	ND	ND	639	0
68894	2017-12-07T13:00:00	72.3	ND	ND	ND	1.13	29.73	ND	ND	ND	ND	637	0
68895	2017-12-07T14:00:00	64.2	ND	ND	ND	2.59	24.75	ND	ND	ND	ND	635.1	0
68896	2017-12-07T15:00:00	36.5	ND	ND	ND	2.56	14.60	ND	ND	ND	ND	640.2	0
68897	2017-12-07T16:00:00	9.8	ND	ND	ND	2.69	11.01	ND	ND	ND	ND	649.8	0
68898	2017-12-07T17:00:00	12.8	ND	ND	ND	1.39	10.03	ND	ND	ND	ND	543.6	0
68899	2017-12-07T18:00:00	28.7	ND	ND	ND	3.53	9.38	ND	ND	ND	ND	63.1	0
68900	2017-12-07T19:00:00	29.9	ND	ND	ND	3.01	9.24	ND	ND	ND	ND	0	0
68901	2017-12-07T20:00:00	10.5	ND	ND	ND	2.20	8.83	ND	ND	ND	ND	0	0
68902	2017-12-07T21:00:00	25.6	ND	ND	ND	2.90	8.22	ND	ND	ND	ND	0	0
68903	2017-12-07T22:00:00	43.9	ND	ND	ND	0.24	9.22	ND	ND	ND	ND	0	0
68904	2017-12-07T23:00:00	27.4	ND	ND	ND	1.06	8.81	ND	ND	ND	ND	0	0
68905	2017-12-08T00:00:00	34.2	ND	ND	ND	5.69	7.97	ND	ND	ND	ND	0	0
68906	2017-12-08T01:00:00	49	ND	ND	ND	4.57	7.44	ND	ND	ND	ND	0	0
68907	2017-12-08T02:00:00	38.6	ND	ND	ND	3.55	7.42	ND	ND	ND	ND	0	0
68908	2017-12-08T03:00:00	30.7	ND	ND	ND	3.15	7.56	ND	ND	ND	ND	0	0
68909	2017-12-08T04:00:00	41.3	ND	ND	ND	4.82	7.57	ND	ND	ND	ND	0	0
68910	2017-12-08T05:00:00	40.3	ND	ND	ND	3.64	7.48	ND	ND	ND	ND	0	0
68911	2017-12-08T06:00:00	31.7	ND	ND	ND	4.52	7.44	ND	ND	ND	ND	0	0
68912	2017-12-08T07:00:00	45.5	ND	ND	ND	2.56	7.48	ND	ND	ND	ND	84.7	0
68913	2017-12-08T08:00:00	58.4	ND	ND	ND	4.66	8.01	ND	ND	ND	ND	330.8	0
68914	2017-12-08T09:00:00	78.7	ND	ND	ND	3.22	10.05	ND	ND	ND	ND	647.7	0
68915	2017-12-08T10:00:00	80.9	ND	ND	ND	4.13	12.44	ND	ND	ND	ND	648.5	0
68916	2017-12-08T11:00:00	61.4	ND	ND	ND	3.08	14.97	ND	ND	ND	ND	648.5	0
68917	2017-12-08T12:00:00	60.6	ND	ND	ND	1.03	20.82	ND	ND	ND	ND	650.3	0
68918	2017-12-08T13:00:00	64.3	ND	ND	ND	2.05	29.26	ND	ND	ND	ND	646.1	0
68919	2017-12-08T14:00:00	48.5	ND	ND	ND	1.48	28.89	ND	ND	ND	ND	585.1	0
68920	2017-12-08T15:00:00	33.7	ND	ND	ND	2.24	12.72	ND	ND	ND	ND	436.7	0
68921	2017-12-08T16:00:00	13.9	ND	ND	ND	2.51	11.21	ND	ND	ND	ND	598.1	0
68922	2017-12-08T17:00:00	10.6	ND	ND	ND	2.29	10.44	ND	ND	ND	ND	324.8	0
68923	2017-12-08T18:00:00	8.2	ND	ND	ND	3.51	10.01	ND	ND	ND	ND	73.1	0
68924	2017-12-08T19:00:00	2.4	ND	ND	ND	4.93	9.71	ND	ND	ND	ND	0	0
68925	2017-12-08T20:00:00	1.1	ND	ND	ND	2.97	9.03	ND	ND	ND	ND	0	0
68926	2017-12-08T21:00:00	6.2	ND	ND	ND	2.83	10.30	ND	ND	ND	ND	0	0
68927	2017-12-08T22:00:00	13.1	ND	ND	ND	2.02	8.60	ND	ND	ND	ND	0	0
68928	2017-12-08T23:00:00	23.6	ND	ND	ND	2.87	7.85	ND	ND	ND	ND	0	0
68929	2017-12-09T00:00:00	34.2	ND	ND	ND	3.39	7.77	ND	ND	ND	ND	0	0
68930	2017-12-09T01:00:00	34.1	ND	ND	ND	4.15	7.69	ND	ND	ND	ND	0	0
68931	2017-12-09T02:00:00	33.1	ND	ND	ND	4.07	7.54	ND	ND	ND	ND	0	0
68932	2017-12-09T03:00:00	32.7	ND	ND	ND	4.63	7.52	ND	ND	ND	ND	0	0
68933	2017-12-09T04:00:00	34.8	ND	ND	ND	4.20	7.30	ND	ND	ND	ND	0	0
68934	2017-12-09T05:00:00	27.8	ND	ND	ND	4.77	7.28	ND	ND	ND	ND	0	0.25
68935	2017-12-09T06:00:00	27.5	ND	ND	ND	4.59	7.30	ND	ND	ND	ND	0	0
68936	2017-12-09T07:00:00	35.2	ND	ND	ND	7.22	7.61	ND	ND	ND	ND	17.1	0.25
68937	2017-12-09T08:00:00	48.3	ND	ND	ND	2.97	7.36	ND	ND	ND	ND	213.5	5.33
68938	2017-12-09T09:00:00	31.2	ND	ND	ND	4.21	7.44	ND	ND	ND	ND	509.6	0
68939	2017-12-09T10:00:00	51.2	ND	ND	ND	4.08	8.03	ND	ND	ND	ND	627.8	0
68940	2017-12-09T11:00:00	56.8	ND	ND	ND	2.80	9.83	ND	ND	ND	ND	648.7	0
68941	2017-12-09T12:00:00	53.6	ND	ND	ND	3.28	12.99	ND	ND	ND	ND	649	0
68942	2017-12-09T13:00:00	55.4	ND	ND	ND	3.09	22.96	ND	ND	ND	ND	649.5	0
68943	2017-12-09T14:00:00	41	ND	ND	ND	2.84	29.97	ND	ND	ND	ND	649.5	0
68944	2017-12-09T15:00:00	33.1	ND	ND	ND	3.43	30.63	ND	ND	ND	ND	649.5	0
68945	2017-12-09T16:00:00	40	ND	ND	ND	2.22	30.65	ND	ND	ND	ND	424.1	0
68946	2017-12-09T17:00:00	33	ND	ND	ND	4.28	11.01	ND	ND	ND	ND	350.1	0
68947	2017-12-09T18:00:00	24.7	ND	ND	ND	3.32	9.48	ND	ND	ND	ND	93.1	0
68948	2017-12-09T19:00:00	19.6	ND	ND	ND	3.15	9.07	ND	ND	ND	ND	0	0
68949	2017-12-09T20:00:00	16.4	ND	ND	ND	3.15	7.69	ND	ND	ND	ND	0	0
68950	2017-12-09T21:00:00	28	ND	ND	ND	3.46	7.44	ND	ND	ND	ND	0	0
68951	2017-12-09T22:00:00	25	ND	ND	ND	3.43	7.93	ND	ND	ND	ND	0	0
68952	2017-12-09T23:00:00	20.9	ND	ND	ND	4.25	7.63	ND	ND	ND	ND	0	0
68953	2017-12-10T00:00:00	24.5	ND	ND	ND	2.72	7.97	ND	ND	ND	ND	0	0
68954	2017-12-10T01:00:00	21.8	ND	ND	ND	2.41	7.83	ND	ND	ND	ND	0	0
68955	2017-12-10T02:00:00	19.8	ND	ND	ND	4.60	7.56	ND	ND	ND	ND	0	0
68956	2017-12-10T03:00:00	13.8	ND	ND	ND	3.61	7.48	ND	ND	ND	ND	0	0
68957	2017-12-10T04:00:00	22.2	ND	ND	ND	4.36	7.26	ND	ND	ND	ND	0	0
68958	2017-12-10T05:00:00	36.4	ND	ND	ND	3.54	7.40	ND	ND	ND	ND	0	0
68959	2017-12-10T06:00:00	36.3	ND	ND	ND	4.42	7.22	ND	ND	ND	ND	0	0
68960	2017-12-10T07:00:00	25.5	ND	ND	ND	5.60	6.87	ND	ND	ND	ND	13.7	10.41
68961	2017-12-10T08:00:00	19.7	ND	ND	ND	4.18	6.95	ND	ND	ND	ND	151.3	6.1
68962	2017-12-10T09:00:00	10.7	ND	ND	ND	4.35	7.30	ND	ND	ND	ND	451.5	0
68963	2017-12-10T10:00:00	22.1	ND	ND	ND	2.83	7.30	ND	ND	ND	ND	113.3	0.25
68964	2017-12-10T11:00:00	20.5	ND	ND	ND	3.43	6.87	ND	ND	ND	ND	151.8	2.54
68965	2017-12-10T12:00:00	2.7	ND	ND	ND	4.43	7.75	ND	ND	ND	ND	399.8	1.02
68966	2017-12-10T13:00:00	10	ND	ND	ND	2.77	8.83	ND	ND	ND	ND	616.4	0
68967	2017-12-10T14:00:00	21.1	ND	ND	ND	2.65	10.77	ND	ND	ND	ND	648.2	0
68968	2017-12-10T15:00:00	28.4	ND	ND	ND	3.65	12.05	ND	ND	ND	ND	648.8	0
68969	2017-12-10T16:00:00	17.5	ND	ND	ND	3.64	14.19	ND	ND	ND	ND	604.4	0
68970	2017-12-10T17:00:00	15.3	ND	ND	ND	1.80	12.78	ND	ND	ND	ND	293.8	0
68971	2017-12-10T18:00:00	19.5	ND	ND	ND	2.34	10.91	ND	ND	ND	ND	71.8	0
68972	2017-12-10T19:00:00	34.8	ND	ND	ND	3.46	8.24	ND	ND	ND	ND	0	0
68973	2017-12-10T20:00:00	36	ND	ND	ND	2.43	7.57	ND	ND	ND	ND	0	0
68974	2017-12-10T21:00:00	34.4	ND	ND	ND	2.27	7.71	ND	ND	ND	ND	0	0
68975	2017-12-10T22:00:00	35.2	ND	ND	ND	2.80	8.05	ND	ND	ND	ND	0	0
68976	2017-12-10T23:00:00	59.3	ND	ND	ND	3.90	7.79	ND	ND	ND	ND	0	0
68977	2017-12-11T00:00:00	41.4	ND	ND	ND	2.97	7.36	ND	ND	ND	ND	0	0
68978	2017-12-11T01:00:00	31.7	ND	ND	ND	2.30	7.18	ND	ND	ND	ND	0	0
68979	2017-12-11T02:00:00	15.9	ND	ND	ND	2.40	7.08	ND	ND	ND	ND	0	0
68980	2017-12-11T03:00:00	20.7	ND	ND	ND	3.01	7.36	ND	ND	ND	ND	0	0
68981	2017-12-11T04:00:00	19.6	ND	ND	ND	4.59	6.97	ND	ND	ND	ND	0	0
68982	2017-12-11T05:00:00	23.7	ND	ND	ND	3.29	6.85	ND	ND	ND	ND	0	0
68983	2017-12-11T06:00:00	33.7	ND	ND	ND	4.14	7.20	ND	ND	ND	ND	0	0
68984	2017-12-11T07:00:00	41.9	ND	ND	ND	3.42	7.10	ND	ND	ND	ND	48.6	0
68985	2017-12-11T08:00:00	37.8	ND	ND	ND	3.61	7.48	ND	ND	ND	ND	201.4	0
68986	2017-12-11T09:00:00	30.4	ND	ND	ND	1.99	7.52	ND	ND	ND	ND	358.7	0
68987	2017-12-11T10:00:00	49.2	ND	ND	ND	2.30	8.14	ND	ND	ND	ND	516.6	0
68988	2017-12-11T11:00:00	42.2	ND	ND	ND	2.10	8.89	ND	ND	ND	ND	607.2	0
68989	2017-12-11T12:00:00	35.3	ND	ND	ND	2.89	9.42	ND	ND	ND	ND	363.5	0
68990	2017-12-11T13:00:00	35	ND	ND	ND	3.44	8.38	ND	ND	ND	ND	464.1	2.79
68991	2017-12-11T14:00:00	28.3	ND	ND	ND	2.24	9.09	ND	ND	ND	ND	632.1	0
68992	2017-12-11T15:00:00	43	ND	ND	ND	ND	19.27	ND	ND	ND	ND	648.3	0
68993	2017-12-11T16:00:00	52.2	ND	ND	ND	ND	13.85	ND	ND	ND	ND	520.7	0
68994	2017-12-11T17:00:00	45.7	ND	ND	ND	ND	9.26	ND	ND	ND	ND	227.9	0
68995	2017-12-11T18:00:00	43.6	ND	ND	ND	1.80	8.65	ND	ND	ND	ND	44.8	0
68996	2017-12-11T19:00:00	37.8	ND	ND	ND	0.47	8.03	ND	ND	ND	ND	0	0
68997	2017-12-11T20:00:00	57.3	ND	ND	ND	2.04	8.08	ND	ND	ND	ND	0	0
68998	2017-12-11T21:00:00	60.2	ND	ND	ND	2.23	8.34	ND	ND	ND	ND	0	0
68999	2017-12-11T22:00:00	58.7	ND	ND	ND	2.68	7.85	ND	ND	ND	ND	0	0
69000	2017-12-11T23:00:00	32.9	ND	ND	ND	3.07	9.34	ND	ND	ND	ND	0	0
69001	2017-12-12T00:00:00	29	ND	ND	ND	3.30	8.01	ND	ND	ND	ND	0	0
69002	2017-12-12T01:00:00	38.8	ND	ND	ND	2.70	7.20	ND	ND	ND	ND	0	0
69003	2017-12-12T02:00:00	20.8	ND	ND	ND	4.20	7.44	ND	ND	ND	ND	0	0
69004	2017-12-12T03:00:00	28.1	ND	ND	ND	2.59	7.24	ND	ND	ND	ND	0	0
69005	2017-12-12T04:00:00	24.7	ND	ND	ND	3.60	7.22	ND	ND	ND	ND	0	0.76
69006	2017-12-12T05:00:00	15	ND	ND	ND	3.85	7.03	ND	ND	ND	ND	0	0.25
69007	2017-12-12T06:00:00	17.8	ND	ND	ND	1.74	7.22	ND	ND	ND	ND	0	0.25
69008	2017-12-12T07:00:00	22.2	ND	ND	ND	3.26	7.18	ND	ND	ND	ND	41.7	0.25
69009	2017-12-12T08:00:00	26	ND	ND	ND	3.69	7.28	ND	ND	ND	ND	85.5	0
69010	2017-12-12T09:00:00	28.3	ND	ND	ND	2.70	7.73	ND	ND	ND	ND	185.7	3.05
69011	2017-12-12T10:00:00	30	ND	ND	ND	2.68	7.71	ND	ND	ND	ND	598.1	0.25
69012	2017-12-12T11:00:00	42.1	ND	ND	ND	3.53	8.44	ND	ND	ND	ND	637.8	0
69013	2017-12-12T12:00:00	54.9	ND	ND	ND	2.44	9.58	ND	ND	ND	ND	634.6	0
69014	2017-12-12T13:00:00	30.1	ND	ND	ND	2.68	11.28	ND	ND	ND	ND	648.2	0
69015	2017-12-12T14:00:00	40.9	ND	ND	ND	2.10	11.22	ND	ND	ND	ND	649.1	0
69016	2017-12-12T15:00:00	42.8	ND	ND	ND	3.62	12.72	ND	ND	ND	ND	425.7	0
69017	2017-12-12T16:00:00	35.8	ND	ND	ND	1.74	10.07	ND	ND	ND	ND	335.9	0.51
69018	2017-12-12T17:00:00	30.6	ND	ND	ND	2.15	8.10	ND	ND	ND	ND	330.3	0
69019	2017-12-12T18:00:00	68.3	ND	ND	ND	3.15	8.63	ND	ND	ND	ND	100.8	0
69020	2017-12-12T19:00:00	95	ND	ND	ND	3.35	8.34	ND	ND	ND	ND	0	0
69021	2017-12-12T20:00:00	73.6	ND	ND	ND	2.84	8.24	ND	ND	ND	ND	0	0
69022	2017-12-12T21:00:00	72.7	ND	ND	ND	4.46	8.12	ND	ND	ND	ND	0	0
69023	2017-12-12T22:00:00	62.3	ND	ND	ND	3.04	7.61	ND	ND	ND	ND	0	0
69024	2017-12-12T23:00:00	52.1	ND	ND	ND	2.48	7.46	ND	ND	ND	ND	0	0
69025	2017-12-13T00:00:00	11.6	ND	ND	ND	3.18	6.81	ND	ND	ND	ND	0	0
69026	2017-12-13T01:00:00	3.2	ND	ND	ND	3.79	7.28	ND	ND	ND	ND	0	0
69027	2017-12-13T02:00:00	29.3	ND	ND	ND	3.74	7.36	ND	ND	ND	ND	0	0
69028	2017-12-13T03:00:00	32.7	ND	ND	ND	4.25	7.36	ND	ND	ND	ND	0	0
69029	2017-12-13T04:00:00	35.9	ND	ND	ND	2.87	7.28	ND	ND	ND	ND	0	0
69030	2017-12-13T05:00:00	23.2	ND	ND	ND	4.53	7.18	ND	ND	ND	ND	0	0
69031	2017-12-13T06:00:00	32.8	ND	ND	ND	3.09	7.14	ND	ND	ND	ND	0	0
69032	2017-12-13T07:00:00	39.4	ND	ND	ND	3.02	7.50	ND	ND	ND	ND	68.4	0
69033	2017-12-13T08:00:00	75	ND	ND	ND	6.23	8.69	ND	ND	ND	ND	400.4	0
69034	2017-12-13T09:00:00	105.2	ND	ND	ND	4.49	8.69	ND	ND	ND	ND	647.5	0
69035	2017-12-13T10:00:00	95.5	ND	ND	ND	4.31	9.71	ND	ND	ND	ND	648.3	0
69036	2017-12-13T11:00:00	94.3	ND	ND	ND	0.82	14.46	ND	ND	ND	ND	648.7	0
69037	2017-12-13T12:00:00	88.7	ND	ND	ND	1.58	19.27	ND	ND	ND	ND	649.2	0
69038	2017-12-13T13:00:00	87.9	ND	ND	ND	1.92	25.63	ND	ND	ND	ND	649.6	0
69039	2017-12-13T14:00:00	70.7	ND	ND	ND	3.05	32.97	ND	ND	ND	ND	649.9	0
69040	2017-12-13T15:00:00	73	ND	ND	ND	1.39	27.41	ND	ND	ND	ND	613.6	0
69041	2017-12-13T16:00:00	66.4	ND	ND	ND	2.02	23.21	ND	ND	ND	ND	646.1	0
69042	2017-12-13T17:00:00	62.2	ND	ND	ND	0.74	16.43	ND	ND	ND	ND	352.4	0
69043	2017-12-13T18:00:00	59.7	ND	ND	ND	1.81	10.38	ND	ND	ND	ND	46.6	0
69044	2017-12-13T19:00:00	38.5	ND	ND	ND	2.04	9.03	ND	ND	ND	ND	0	0
69045	2017-12-13T20:00:00	36.3	ND	ND	ND	2.41	8.81	ND	ND	ND	ND	0	0
69046	2017-12-13T21:00:00	26.1	ND	ND	ND	1.23	8.32	ND	ND	ND	ND	0	0
69047	2017-12-13T22:00:00	45.5	ND	ND	ND	3.76	8.46	ND	ND	ND	ND	0	0
69048	2017-12-13T23:00:00	42	ND	ND	ND	3.18	8.20	ND	ND	ND	ND	0	0
69049	2017-12-14T00:00:00	40.3	ND	ND	ND	4.47	8.10	ND	ND	ND	ND	0	0
69050	2017-12-14T01:00:00	61.1	ND	ND	ND	2.38	7.95	ND	ND	ND	ND	0	0
69051	2017-12-14T02:00:00	65	ND	ND	ND	5.39	7.40	ND	ND	ND	ND	0	0
69052	2017-12-14T03:00:00	49.9	ND	ND	ND	3.90	8.14	ND	ND	ND	ND	0	0
69053	2017-12-14T04:00:00	40.2	ND	ND	ND	2.15	8.22	ND	ND	ND	ND	0	0
69054	2017-12-14T05:00:00	34.8	ND	ND	ND	2.83	7.89	ND	ND	ND	ND	0	0
69055	2017-12-14T06:00:00	32.9	ND	ND	ND	1.99	7.79	ND	ND	ND	ND	0	0
69056	2017-12-14T07:00:00	50.3	ND	ND	ND	2.41	7.71	ND	ND	ND	ND	77.5	0
69057	2017-12-14T08:00:00	51	ND	ND	ND	3.64	7.87	ND	ND	ND	ND	419.4	0
69058	2017-12-14T09:00:00	59.8	ND	ND	ND	2.37	9.24	ND	ND	ND	ND	645.6	0
69059	2017-12-14T10:00:00	86.2	ND	ND	ND	2.70	11.60	ND	ND	ND	ND	647.9	0
69060	2017-12-14T11:00:00	82.3	ND	ND	ND	2.06	14.27	ND	ND	ND	ND	648.9	0
69061	2017-12-14T12:00:00	82.7	ND	ND	ND	2.51	20.11	ND	ND	ND	ND	649.1	0
69062	2017-12-14T13:00:00	78.9	ND	ND	ND	2.90	22.94	ND	ND	ND	ND	649.6	0
69063	2017-12-14T14:00:00	72.1	ND	ND	ND	3.25	26.37	ND	ND	ND	ND	634.2	0
69064	2017-12-14T15:00:00	73.2	ND	ND	ND	2.43	27.04	ND	ND	ND	ND	496.5	0
69065	2017-12-14T16:00:00	52	ND	ND	ND	2.59	11.77	ND	ND	ND	ND	612.3	0
69066	2017-12-14T17:00:00	39.3	ND	ND	ND	2.87	9.52	ND	ND	ND	ND	276	0
69067	2017-12-14T18:00:00	31.9	ND	ND	ND	2.87	8.99	ND	ND	ND	ND	76.5	0
69068	2017-12-14T19:00:00	26.7	ND	ND	ND	2.69	9.14	ND	ND	ND	ND	0	0
69069	2017-12-14T20:00:00	18.8	ND	ND	ND	2.01	8.36	ND	ND	ND	ND	0	0
69070	2017-12-14T21:00:00	46.3	ND	ND	ND	3.12	8.14	ND	ND	ND	ND	0	0
69071	2017-12-14T22:00:00	77.2	ND	ND	ND	2.77	7.85	ND	ND	ND	ND	0	0
69072	2017-12-14T23:00:00	41.2	ND	ND	ND	4.31	8.03	ND	ND	ND	ND	0	0
69073	2017-12-15T00:00:00	54.8	ND	ND	ND	3.26	8.10	ND	ND	ND	ND	0	0
69074	2017-12-15T01:00:00	54.7	ND	ND	ND	3.90	7.48	ND	ND	ND	ND	0	0
69075	2017-12-15T02:00:00	44.8	ND	ND	ND	4.57	7.57	ND	ND	ND	ND	0	0
69076	2017-12-15T03:00:00	50.8	ND	ND	ND	4.46	7.59	ND	ND	ND	ND	0	0
69077	2017-12-15T04:00:00	45.3	ND	ND	ND	3.47	7.89	ND	ND	ND	ND	0	0
69078	2017-12-15T05:00:00	32.2	ND	ND	ND	5.20	7.30	ND	ND	ND	ND	0	0
69079	2017-12-15T06:00:00	49.5	ND	ND	ND	5.10	8.16	ND	ND	ND	ND	0	0
69080	2017-12-15T07:00:00	68.8	ND	ND	ND	3.36	7.63	ND	ND	ND	ND	84.2	0
69081	2017-12-15T08:00:00	79.3	ND	ND	ND	4.46	8.85	ND	ND	ND	ND	342.6	0
69082	2017-12-15T09:00:00	124.7	ND	ND	ND	3.96	9.07	ND	ND	ND	ND	638.5	0
69083	2017-12-15T10:00:00	120.1	ND	ND	ND	3.89	10.11	ND	ND	ND	ND	648.4	0
69084	2017-12-15T11:00:00	81.8	ND	ND	ND	3.68	13.15	ND	ND	ND	ND	643.6	0
69085	2017-12-15T12:00:00	74.2	ND	ND	ND	3.11	16.39	ND	ND	ND	ND	648.9	0
69086	2017-12-15T13:00:00	79.6	ND	ND	ND	2.17	25.96	ND	ND	ND	ND	630.8	0
69087	2017-12-15T14:00:00	70.2	ND	ND	ND	2.59	32.77	ND	ND	ND	ND	649.3	0
69088	2017-12-15T15:00:00	75.7	ND	ND	ND	2.86	35.52	ND	ND	ND	ND	615.8	0
69089	2017-12-15T16:00:00	75	ND	ND	ND	2.56	28.22	ND	ND	ND	ND	535.2	0
69090	2017-12-15T17:00:00	61.5	ND	ND	ND	3.21	11.91	ND	ND	ND	ND	493.6	0
69091	2017-12-15T18:00:00	54.7	ND	ND	ND	2.01	10.30	ND	ND	ND	ND	77.8	0
69092	2017-12-15T19:00:00	44.7	ND	ND	ND	3.15	9.69	ND	ND	ND	ND	0	0
69093	2017-12-15T20:00:00	22.2	ND	ND	ND	2.94	9.26	ND	ND	ND	ND	0	0
69094	2017-12-15T21:00:00	50.1	ND	ND	ND	1.97	8.97	ND	ND	ND	ND	0	0
69095	2017-12-15T22:00:00	59.9	ND	ND	ND	3.33	8.07	ND	ND	ND	ND	0	0
69096	2017-12-15T23:00:00	44.7	ND	ND	ND	2.45	8.08	ND	ND	ND	ND	0	0
69097	2017-12-16T00:00:00	46.1	ND	ND	ND	1.67	7.95	ND	ND	ND	ND	0	0
69098	2017-12-16T01:00:00	57	ND	ND	ND	1.71	7.63	ND	ND	ND	ND	0	0
69099	2017-12-16T02:00:00	66.2	ND	ND	ND	4.67	7.99	ND	ND	ND	ND	0	0
69100	2017-12-16T03:00:00	58.3	ND	ND	ND	4.80	7.63	ND	ND	ND	ND	0	0
69101	2017-12-16T04:00:00	62.4	ND	ND	ND	4.56	7.30	ND	ND	ND	ND	0	0
69102	2017-12-16T05:00:00	62.2	ND	ND	ND	3.46	7.52	ND	ND	ND	ND	0	0
69103	2017-12-16T06:00:00	59.3	ND	ND	ND	2.73	7.85	ND	ND	ND	ND	0	0
69104	2017-12-16T07:00:00	84.1	ND	ND	ND	4.01	8.28	ND	ND	ND	ND	66.7	0
69105	2017-12-16T08:00:00	109.2	ND	ND	ND	3.67	8.46	ND	ND	ND	ND	335.6	0
69106	2017-12-16T09:00:00	103.7	ND	ND	ND	4.17	9.46	ND	ND	ND	ND	615	0
69107	2017-12-16T10:00:00	88.7	ND	ND	ND	3.68	9.85	ND	ND	ND	ND	644	0
69108	2017-12-16T11:00:00	83.2	ND	ND	ND	2.02	13.50	ND	ND	ND	ND	635.2	0
69109	2017-12-16T12:00:00	77.6	ND	ND	ND	1.87	19.04	ND	ND	ND	ND	649.5	0
69110	2017-12-16T13:00:00	68.3	ND	ND	ND	2.12	21.29	ND	ND	ND	ND	649.1	0
69111	2017-12-16T14:00:00	64.2	ND	ND	ND	1.77	22.88	ND	ND	ND	ND	607.3	0
69112	2017-12-16T15:00:00	71.4	ND	ND	ND	2.19	18.76	ND	ND	ND	ND	589.4	0
69113	2017-12-16T16:00:00	50.6	ND	ND	ND	1.94	16.70	ND	ND	ND	ND	633.6	0
69114	2017-12-16T17:00:00	38.9	ND	ND	ND	1.64	11.79	ND	ND	ND	ND	376.3	0
69115	2017-12-16T18:00:00	37.3	ND	ND	ND	3.22	10.20	ND	ND	ND	ND	104	0
69116	2017-12-16T19:00:00	28.7	ND	ND	ND	2.62	9.24	ND	ND	ND	ND	0	0
69117	2017-12-16T20:00:00	24.4	ND	ND	ND	2.68	9.52	ND	ND	ND	ND	0	0
69118	2017-12-16T21:00:00	22.2	ND	ND	ND	2.01	8.38	ND	ND	ND	ND	0	0
69119	2017-12-16T22:00:00	33.1	ND	ND	ND	1.53	8.14	ND	ND	ND	ND	0	0
69120	2017-12-16T23:00:00	21.9	ND	ND	ND	3.57	8.54	ND	ND	ND	ND	0	0
69121	2017-12-17T00:00:00	29.5	ND	ND	ND	2.29	7.81	ND	ND	ND	ND	0	0
69122	2017-12-17T01:00:00	47.7	ND	ND	ND	3.86	7.67	ND	ND	ND	ND	0	0
69123	2017-12-17T02:00:00	53.7	ND	ND	ND	4.11	8.24	ND	ND	ND	ND	0	0
69124	2017-12-17T03:00:00	54	ND	ND	ND	4.92	7.95	ND	ND	ND	ND	0	0
69125	2017-12-17T04:00:00	59.7	ND	ND	ND	3.44	7.85	ND	ND	ND	ND	0	0
69126	2017-12-17T05:00:00	47.7	ND	ND	ND	4.31	7.69	ND	ND	ND	ND	0	0
69127	2017-12-17T06:00:00	28.3	ND	ND	ND	3.18	7.52	ND	ND	ND	ND	0	0
69128	2017-12-17T07:00:00	41.1	ND	ND	ND	3.61	7.87	ND	ND	ND	ND	68.2	0
69129	2017-12-17T08:00:00	42.1	ND	ND	ND	3.15	8.20	ND	ND	ND	ND	420.9	0
69130	2017-12-17T09:00:00	62.2	ND	ND	ND	3.61	10.01	ND	ND	ND	ND	648.1	0
69131	2017-12-17T10:00:00	62.1	ND	ND	ND	4.27	11.62	ND	ND	ND	ND	648.5	0
69132	2017-12-17T11:00:00	72.7	ND	ND	ND	3.04	16.35	ND	ND	ND	ND	648.7	0
69133	2017-12-17T12:00:00	91.7	ND	ND	ND	2.61	19.96	ND	ND	ND	ND	645.9	0
69134	2017-12-17T13:00:00	72.8	ND	ND	ND	2.87	20.96	ND	ND	ND	ND	629.9	0
69135	2017-12-17T14:00:00	55.4	ND	ND	ND	2.65	25.61	ND	ND	ND	ND	616.7	0
69136	2017-12-17T15:00:00	37.8	ND	ND	ND	2.45	15.99	ND	ND	ND	ND	640.7	0
69137	2017-12-17T16:00:00	19.3	ND	ND	ND	2.40	13.03	ND	ND	ND	ND	649.8	0
69138	2017-12-17T17:00:00	22.6	ND	ND	ND	2.77	11.42	ND	ND	ND	ND	535.8	0
69139	2017-12-17T18:00:00	30.5	ND	ND	ND	3.33	11.50	ND	ND	ND	ND	71.2	0
69140	2017-12-17T19:00:00	32.6	ND	ND	ND	3.60	9.85	ND	ND	ND	ND	0	0
69141	2017-12-17T20:00:00	15.8	ND	ND	ND	3.78	9.34	ND	ND	ND	ND	0	0
69142	2017-12-17T21:00:00	24.1	ND	ND	ND	3.83	8.10	ND	ND	ND	ND	0	0
69143	2017-12-17T22:00:00	47	ND	ND	ND	3.79	8.05	ND	ND	ND	ND	0	0
69144	2017-12-17T23:00:00	26.8	ND	ND	ND	4.80	7.50	ND	ND	ND	ND	0	0
69145	2017-12-18T00:00:00	18.1	ND	ND	ND	3.50	8.18	ND	ND	ND	ND	0	0
69146	2017-12-18T01:00:00	28.4	ND	ND	ND	3.00	7.71	ND	ND	ND	ND	0	0
69147	2017-12-18T02:00:00	46.1	ND	ND	ND	3.57	7.54	ND	ND	ND	ND	0	0
69148	2017-12-18T03:00:00	32.9	ND	ND	ND	4.59	7.75	ND	ND	ND	ND	0	0
69149	2017-12-18T04:00:00	20	ND	ND	ND	4.28	8.07	ND	ND	ND	ND	0	0
69150	2017-12-18T05:00:00	26.2	ND	ND	ND	3.69	7.61	ND	ND	ND	ND	0	0
69151	2017-12-18T06:00:00	36.1	ND	ND	ND	2.93	7.73	ND	ND	ND	ND	0	0
69152	2017-12-18T07:00:00	35.8	ND	ND	ND	3.75	7.67	ND	ND	ND	ND	69.8	0
69153	2017-12-18T08:00:00	60.4	ND	ND	ND	5.10	7.73	ND	ND	ND	ND	436.1	0
69154	2017-12-18T09:00:00	79.7	ND	ND	ND	3.86	9.05	ND	ND	ND	ND	638.6	0
69155	2017-12-18T10:00:00	88.2	ND	ND	ND	3.54	11.85	ND	ND	ND	ND	645.3	0
69156	2017-12-18T11:00:00	87.9	ND	ND	ND	4.11	15.58	ND	ND	ND	ND	649.1	0
69157	2017-12-18T12:00:00	78.4	ND	ND	ND	2.51	16.82	ND	ND	ND	ND	649.4	0
69158	2017-12-18T13:00:00	64.3	ND	ND	ND	1.44	20.90	ND	ND	ND	ND	649.4	0
69159	2017-12-18T14:00:00	50.5	ND	ND	ND	3.11	24.51	ND	ND	ND	ND	626.3	0
69160	2017-12-18T15:00:00	62.1	ND	ND	ND	3.39	21.17	ND	ND	ND	ND	494.3	0
69161	2017-12-18T16:00:00	41.9	ND	ND	ND	3.33	11.85	ND	ND	ND	ND	649.5	0
69162	2017-12-18T17:00:00	37.7	ND	ND	ND	3.54	10.62	ND	ND	ND	ND	537.9	0
69163	2017-12-18T18:00:00	46.7	ND	ND	ND	2.41	9.93	ND	ND	ND	ND	72.8	0
69164	2017-12-18T19:00:00	40.9	ND	ND	ND	2.06	9.11	ND	ND	ND	ND	0	0
69165	2017-12-18T20:00:00	24.4	ND	ND	ND	3.81	9.01	ND	ND	ND	ND	0	0
69166	2017-12-18T21:00:00	18.4	ND	ND	ND	2.56	8.30	ND	ND	ND	ND	0	0
69167	2017-12-18T22:00:00	49.5	ND	ND	ND	3.39	7.61	ND	ND	ND	ND	0	0
69168	2017-12-18T23:00:00	27.7	ND	ND	ND	3.89	8.05	ND	ND	ND	ND	0	0
69169	2017-12-19T00:00:00	20.1	ND	ND	ND	2.20	7.57	ND	ND	ND	ND	0	0
69170	2017-12-19T01:00:00	31.7	ND	ND	ND	3.26	7.42	ND	ND	ND	ND	0	0
69171	2017-12-19T02:00:00	55	ND	ND	ND	4.98	7.83	ND	ND	ND	ND	0	0
69172	2017-12-19T03:00:00	46.8	ND	ND	ND	5.80	7.67	ND	ND	ND	ND	0	0
69173	2017-12-19T04:00:00	38.2	ND	ND	ND	3.11	7.69	ND	ND	ND	ND	0	0
69174	2017-12-19T05:00:00	33.6	ND	ND	ND	2.37	7.57	ND	ND	ND	ND	0	0
69175	2017-12-19T06:00:00	37.5	ND	ND	ND	5.13	7.16	ND	ND	ND	ND	0	0
69176	2017-12-19T07:00:00	37.4	ND	ND	ND	3.64	7.61	ND	ND	ND	ND	126.1	0
69177	2017-12-19T08:00:00	45.8	ND	ND	ND	2.91	7.75	ND	ND	ND	ND	408.2	0
69178	2017-12-19T09:00:00	95.2	ND	ND	ND	2.40	11.97	ND	ND	ND	ND	540.9	0
69179	2017-12-19T10:00:00	92.9	ND	ND	ND	3.65	21.29	ND	ND	ND	ND	630.3	0
69180	2017-12-19T11:00:00	89.7	ND	ND	ND	2.59	30.99	ND	ND	ND	ND	637.4	0
69181	2017-12-19T12:00:00	80.4	ND	ND	ND	2.48	35.19	ND	ND	ND	ND	649.6	0
69182	2017-12-19T13:00:00	63.5	ND	ND	ND	1.64	40.48	ND	ND	ND	ND	641	0
69183	2017-12-19T14:00:00	52.9	ND	ND	ND	3.32	40.95	ND	ND	ND	ND	624.2	0
69184	2017-12-19T15:00:00	36.7	ND	ND	ND	2.27	22.86	ND	ND	ND	ND	649.6	0
69185	2017-12-19T16:00:00	21.6	ND	ND	ND	1.97	18.62	ND	ND	ND	ND	649.3	0
69186	2017-12-19T17:00:00	25.8	ND	ND	ND	3.22	14.48	ND	ND	ND	ND	561.9	0
69187	2017-12-19T18:00:00	32.5	ND	ND	ND	4.14	12.97	ND	ND	ND	ND	106.1	0
69188	2017-12-19T19:00:00	35.7	ND	ND	ND	2.48	13.01	ND	ND	ND	ND	0	0
69189	2017-12-19T20:00:00	20.7	ND	ND	ND	4.39	12.26	ND	ND	ND	ND	0	0
69190	2017-12-19T21:00:00	16.7	ND	ND	ND	4.17	8.95	ND	ND	ND	ND	0	0
69191	2017-12-19T22:00:00	23.1	ND	ND	ND	2.29	7.73	ND	ND	ND	ND	0	0
69192	2017-12-19T23:00:00	16.3	ND	ND	ND	5.34	8.63	ND	ND	ND	ND	0	0
69193	2017-12-20T00:00:00	20.9	ND	ND	ND	3.94	7.24	ND	ND	ND	ND	0	0
69194	2017-12-20T01:00:00	44.6	ND	ND	ND	2.98	7.16	ND	ND	ND	ND	0	0
69195	2017-12-20T02:00:00	54.7	ND	ND	ND	3.68	7.14	ND	ND	ND	ND	0	0
69196	2017-12-20T03:00:00	51.7	ND	ND	ND	2.63	7.16	ND	ND	ND	ND	0	0
69197	2017-12-20T04:00:00	39.2	ND	ND	ND	4.08	7.01	ND	ND	ND	ND	0	0
69198	2017-12-20T05:00:00	40	ND	ND	ND	3.76	6.87	ND	ND	ND	ND	0	0
69199	2017-12-20T06:00:00	49.1	ND	ND	ND	2.36	7.16	ND	ND	ND	ND	0	0
69200	2017-12-20T07:00:00	71	ND	ND	ND	3.94	7.69	ND	ND	ND	ND	88.8	0
69201	2017-12-20T08:00:00	72.2	ND	ND	ND	3.51	8.14	ND	ND	ND	ND	410.8	0
69202	2017-12-20T09:00:00	82.7	ND	ND	ND	3.82	11.73	ND	ND	ND	ND	639.6	0
69203	2017-12-20T10:00:00	89.8	ND	ND	ND	2.30	20.72	ND	ND	ND	ND	647.8	0
69204	2017-12-20T11:00:00	81.7	ND	ND	ND	3.51	26.73	ND	ND	ND	ND	631.8	0
69205	2017-12-20T12:00:00	68.3	ND	ND	ND	2.72	31.20	ND	ND	ND	ND	648.2	0
69206	2017-12-20T13:00:00	54.6	ND	ND	ND	3.29	43.60	ND	ND	ND	ND	613.2	0
69207	2017-12-20T14:00:00	44.2	ND	ND	ND	1.18	44.29	ND	ND	ND	ND	620.9	0
69208	2017-12-20T15:00:00	58.2	ND	ND	ND	2.55	27.08	ND	ND	ND	ND	345.9	0
69209	2017-12-20T16:00:00	39.2	ND	ND	ND	3.22	16.68	ND	ND	ND	ND	458.5	0
69210	2017-12-20T17:00:00	30.2	ND	ND	ND	2.61	15.66	ND	ND	ND	ND	533.7	0
69211	2017-12-20T18:00:00	38.8	ND	ND	ND	2.08	12.58	ND	ND	ND	ND	111.6	0
69212	2017-12-20T19:00:00	36.1	ND	ND	ND	2.22	12.25	ND	ND	ND	ND	0	0
69213	2017-12-20T20:00:00	23.9	ND	ND	ND	2.66	11.62	ND	ND	ND	ND	0	0
69214	2017-12-20T21:00:00	15.9	ND	ND	ND	3.15	10.93	ND	ND	ND	ND	0	0
69215	2017-12-20T22:00:00	14.9	ND	ND	ND	3.46	8.85	ND	ND	ND	ND	0	0
69216	2017-12-20T23:00:00	23.2	ND	ND	ND	2.91	9.07	ND	ND	ND	ND	0	0
69217	2017-12-21T00:00:00	18.5	ND	ND	ND	3.82	7.71	ND	ND	ND	ND	0	0
69218	2017-12-21T01:00:00	42.4	ND	ND	ND	3.90	7.38	ND	ND	ND	ND	0	0
69219	2017-12-21T02:00:00	53	ND	ND	ND	3.30	7.48	ND	ND	ND	ND	0	0
69220	2017-12-21T03:00:00	53	ND	ND	ND	4.54	7.38	ND	ND	ND	ND	0	0
69221	2017-12-21T04:00:00	42.3	ND	ND	ND	2.50	7.22	ND	ND	ND	ND	0	0
69222	2017-12-21T05:00:00	45.4	ND	ND	ND	3.11	7.22	ND	ND	ND	ND	0	0
69223	2017-12-21T06:00:00	23.8	ND	ND	ND	4.38	7.22	ND	ND	ND	ND	0	0
69224	2017-12-21T07:00:00	53.7	ND	ND	ND	4.00	7.97	ND	ND	ND	ND	61	0
69225	2017-12-21T08:00:00	74.1	ND	ND	ND	3.12	8.34	ND	ND	ND	ND	249.7	0
69226	2017-12-21T09:00:00	75.9	ND	ND	ND	4.29	9.32	ND	ND	ND	ND	462.8	0
69227	2017-12-21T10:00:00	76.6	ND	ND	ND	4.24	15.42	ND	ND	ND	ND	607.6	0
69228	2017-12-21T11:00:00	81.6	ND	ND	ND	4.53	ND	ND	ND	ND	ND	639.5	0
69229	2017-12-21T12:00:00	83.9	ND	ND	ND	ND	ND	ND	ND	ND	ND	581.1	0
69230	2017-12-21T13:00:00	53.8	ND	ND	ND	ND	ND	ND	ND	ND	ND	645.5	0
69231	2017-12-21T14:00:00	70	ND	ND	ND	ND	ND	ND	ND	ND	ND	624.6	0
69232	2017-12-21T15:00:00	60.1	ND	ND	ND	1.39	ND	ND	ND	ND	ND	509.9	0
69233	2017-12-21T16:00:00	40.7	ND	ND	ND	0.40	ND	ND	ND	ND	ND	583.1	0
69234	2017-12-21T17:00:00	43	ND	ND	ND	1.12	18.33	ND	ND	ND	ND	560.2	0
69235	2017-12-21T18:00:00	42.3	ND	ND	ND	1.94	16.23	ND	ND	ND	ND	112.3	0
69236	2017-12-21T19:00:00	30.5	ND	ND	ND	0.91	12.15	ND	ND	ND	ND	0	0
69237	2017-12-21T20:00:00	28.6	ND	ND	ND	1.17	17.88	ND	ND	ND	ND	0	0
69238	2017-12-21T21:00:00	22.3	ND	ND	ND	2.55	17.03	ND	ND	ND	ND	0	0
69239	2017-12-21T22:00:00	15.7	ND	ND	ND	1.84	15.50	ND	ND	ND	ND	0	0
69240	2017-12-21T23:00:00	13.7	ND	ND	ND	0.70	13.62	ND	ND	ND	ND	0	0
69241	2017-12-22T00:00:00	19.8	ND	ND	ND	1.90	7.26	ND	ND	ND	ND	0	0
69242	2017-12-22T01:00:00	34.8	ND	ND	ND	3.15	11.24	ND	ND	ND	ND	0	0
69243	2017-12-22T02:00:00	34.2	ND	ND	ND	3.28	6.87	ND	ND	ND	ND	0	0
69244	2017-12-22T03:00:00	37.3	ND	ND	ND	2.96	7.81	ND	ND	ND	ND	0	0
69245	2017-12-22T04:00:00	34.3	ND	ND	ND	3.22	6.06	ND	ND	ND	ND	0	0
69246	2017-12-22T05:00:00	38.9	ND	ND	ND	3.55	5.69	ND	ND	ND	ND	0	0
69247	2017-12-22T06:00:00	48.5	ND	ND	ND	2.80	5.81	ND	ND	ND	ND	0	0
69248	2017-12-22T07:00:00	52.6	ND	ND	ND	1.14	5.42	ND	ND	ND	ND	79.6	0
69249	2017-12-22T08:00:00	81.8	ND	ND	ND	0.79	6.73	ND	ND	ND	ND	283.2	0
69250	2017-12-22T09:00:00	106.4	ND	ND	ND	1.91	9.87	ND	ND	ND	ND	568.2	0
69251	2017-12-22T10:00:00	108.4	ND	ND	ND	1.46	15.70	ND	ND	ND	ND	538.3	0
69252	2017-12-22T11:00:00	77.3	ND	ND	ND	0.77	41.05	ND	ND	ND	ND	649	0
69253	2017-12-22T12:00:00	57	ND	ND	ND	1.48	48.71	ND	ND	ND	ND	633.5	0
69254	2017-12-22T13:00:00	55	ND	ND	ND	0.22	65.58	ND	ND	ND	ND	611.1	0
69255	2017-12-22T14:00:00	45.7	ND	ND	ND	0.40	83.58	ND	ND	ND	ND	650.1	0
69256	2017-12-22T15:00:00	57.8	ND	ND	ND	0.67	65.96	ND	ND	ND	ND	531.3	0
69257	2017-12-22T16:00:00	48.4	ND	ND	ND	1.30	27.47	ND	ND	ND	ND	552.3	0
69258	2017-12-22T17:00:00	45.8	ND	ND	ND	1.51	21.55	ND	ND	ND	ND	543.1	0
69259	2017-12-22T18:00:00	41.4	ND	ND	ND	1.38	20.19	ND	ND	ND	ND	100.8	0
69260	2017-12-22T19:00:00	32.2	ND	ND	ND	3.72	17.70	ND	ND	ND	ND	0	0
69261	2017-12-22T20:00:00	32	ND	ND	ND	1.51	13.05	ND	ND	ND	ND	0	0
69262	2017-12-22T21:00:00	29.5	ND	ND	ND	1.18	11.75	ND	ND	ND	ND	0	0
69263	2017-12-22T22:00:00	19.4	ND	ND	ND	2.24	13.44	ND	ND	ND	ND	0	0
69264	2017-12-22T23:00:00	14.2	ND	ND	ND	1.91	11.09	ND	ND	ND	ND	0	0
69265	2017-12-23T00:00:00	33.5	ND	ND	ND	1.25	6.65	ND	ND	ND	ND	0	0
69266	2017-12-23T01:00:00	82.7	ND	ND	ND	0.03	7.65	ND	ND	ND	ND	0	0
69267	2017-12-23T02:00:00	60.4	ND	ND	ND	2.20	5.91	ND	ND	ND	ND	0	0
69268	2017-12-23T03:00:00	56.2	ND	ND	ND	1.70	5.67	ND	ND	ND	ND	0	0
69269	2017-12-23T04:00:00	56.7	ND	ND	ND	1.58	5.53	ND	ND	ND	ND	0	0
69270	2017-12-23T05:00:00	47.4	ND	ND	ND	3.90	5.61	ND	ND	ND	ND	0	0
69271	2017-12-23T06:00:00	37.9	ND	ND	ND	2.61	6.69	ND	ND	ND	ND	0	0
69272	2017-12-23T07:00:00	50.1	ND	ND	ND	2.63	6.28	ND	ND	ND	ND	71.9	0
69273	2017-12-23T08:00:00	64	ND	ND	ND	1.05	6.97	ND	ND	ND	ND	375.1	0
69274	2017-12-23T09:00:00	84.5	ND	ND	ND	1.51	12.68	ND	ND	ND	ND	580	0
69275	2017-12-23T10:00:00	94.6	ND	ND	ND	1.62	28.65	ND	ND	ND	ND	648.9	0
69276	2017-12-23T11:00:00	82.8	ND	ND	ND	0.91	41.23	ND	ND	ND	ND	649.2	0
69277	2017-12-23T12:00:00	78.3	ND	ND	ND	0.82	71.35	ND	ND	ND	ND	607.4	0
69278	2017-12-23T13:00:00	75.1	ND	ND	ND	2.58	99.73	ND	ND	ND	ND	640.3	0
69279	2017-12-23T14:00:00	69.3	ND	ND	ND	0.45	86.95	ND	ND	ND	ND	590.3	0
69280	2017-12-23T15:00:00	42.5	ND	ND	ND	0.33	43.55	ND	ND	ND	ND	506.3	0
69281	2017-12-23T16:00:00	41.5	ND	ND	ND	ND	27.04	ND	ND	ND	ND	355.1	0
69282	2017-12-23T17:00:00	31	ND	ND	ND	1.67	24.08	ND	ND	ND	ND	319.6	0
69283	2017-12-23T18:00:00	18.8	ND	ND	ND	0.46	20.64	ND	ND	ND	ND	74.2	0
69284	2017-12-23T19:00:00	18.2	ND	ND	ND	2.75	15.86	ND	ND	ND	ND	0	0
69285	2017-12-23T20:00:00	2.8	ND	ND	ND	1.00	17.52	ND	ND	ND	ND	0	0
69286	2017-12-23T21:00:00	0.3	ND	ND	ND	1.95	16.35	ND	ND	ND	ND	0	0
69287	2017-12-23T22:00:00	16.3	ND	ND	ND	2.54	14.84	ND	ND	ND	ND	0	0
69288	2017-12-23T23:00:00	13.9	ND	ND	ND	2.12	16.03	ND	ND	ND	ND	0	0
69289	2017-12-24T00:00:00	6.6	ND	ND	ND	3.15	12.83	ND	ND	ND	ND	0	0
69290	2017-12-24T01:00:00	36.8	ND	ND	ND	2.58	6.99	ND	ND	ND	ND	0	0
69291	2017-12-24T02:00:00	49.4	ND	ND	ND	1.84	8.32	ND	ND	ND	ND	0	0
69292	2017-12-24T03:00:00	32.6	ND	ND	ND	2.40	7.97	ND	ND	ND	ND	0	0
69293	2017-12-24T04:00:00	22.6	ND	ND	ND	3.96	8.26	ND	ND	ND	ND	0	0
69294	2017-12-24T05:00:00	36.9	ND	ND	ND	2.17	9.32	ND	ND	ND	ND	0	0
69295	2017-12-24T06:00:00	41.1	ND	ND	ND	3.08	6.75	ND	ND	ND	ND	0	0
69296	2017-12-24T07:00:00	40.7	ND	ND	ND	4.21	6.18	ND	ND	ND	ND	66.3	0
69297	2017-12-24T08:00:00	52.2	ND	ND	ND	2.17	7.93	ND	ND	ND	ND	176.8	0
69298	2017-12-24T09:00:00	59.1	ND	ND	ND	3.68	15.66	ND	ND	ND	ND	480.3	0
69299	2017-12-24T10:00:00	56.4	ND	ND	ND	3.07	29.04	ND	ND	ND	ND	647.7	0
69300	2017-12-24T11:00:00	66.9	ND	ND	ND	2.70	52.34	ND	ND	ND	ND	640	0
69301	2017-12-24T12:00:00	63.5	ND	ND	ND	1.14	56.34	ND	ND	ND	ND	575.5	0
69302	2017-12-24T13:00:00	39.9	ND	ND	ND	1.60	42.86	ND	ND	ND	ND	648.3	0
69303	2017-12-24T14:00:00	16.6	ND	ND	ND	1.09	50.67	ND	ND	ND	ND	648.7	0
69304	2017-12-24T15:00:00	14.5	ND	ND	ND	2.24	44.59	ND	ND	ND	ND	642.6	0
69305	2017-12-24T16:00:00	15.1	ND	ND	ND	1.92	28.08	ND	ND	ND	ND	267.5	0
69306	2017-12-24T17:00:00	20.8	ND	ND	ND	1.23	17.86	ND	ND	ND	ND	56.4	5.84
69307	2017-12-24T18:00:00	13.9	ND	ND	ND	2.52	9.54	ND	ND	ND	ND	43.9	1.27
69308	2017-12-24T19:00:00	36	ND	ND	ND	1.60	7.14	ND	ND	ND	ND	0	0.25
69309	2017-12-24T20:00:00	42.5	ND	ND	ND	ND	8.05	ND	ND	ND	ND	0	0
69310	2017-12-24T21:00:00	42.6	ND	ND	ND	4.03	8.60	ND	ND	ND	ND	0	0
69311	2017-12-24T22:00:00	25.1	ND	ND	ND	4.07	6.32	ND	ND	ND	ND	0	0
69312	2017-12-24T23:00:00	37.3	ND	ND	ND	2.82	8.44	ND	ND	ND	ND	0	0
69313	2017-12-25T00:00:00	38	ND	ND	ND	1.52	12.03	ND	ND	ND	ND	0	0
69314	2017-12-25T01:00:00	40.8	ND	ND	ND	2.13	7.75	ND	ND	ND	ND	0	0.51
69315	2017-12-25T02:00:00	42.5	ND	ND	ND	2.68	7.24	ND	ND	ND	ND	0	0.25
69316	2017-12-25T03:00:00	40.5	ND	ND	ND	2.17	5.53	ND	ND	ND	ND	0	0
69317	2017-12-25T04:00:00	35.4	ND	ND	ND	2.10	5.38	ND	ND	ND	ND	0	0
69318	2017-12-25T05:00:00	35.3	ND	ND	ND	2.59	6.14	ND	ND	ND	ND	0	0
69319	2017-12-25T06:00:00	35.6	ND	ND	ND	2.55	5.57	ND	ND	ND	ND	0	0
69320	2017-12-25T07:00:00	31	ND	ND	ND	2.97	6.26	ND	ND	ND	ND	23.8	0
69321	2017-12-25T08:00:00	42.8	ND	ND	ND	4.38	5.93	ND	ND	ND	ND	133.2	0
69322	2017-12-25T09:00:00	44.7	ND	ND	ND	3.35	7.71	ND	ND	ND	ND	283.2	0
69323	2017-12-25T10:00:00	29.1	ND	ND	ND	2.16	12.09	ND	ND	ND	ND	290.6	5.33
69324	2017-12-25T11:00:00	13.4	ND	ND	ND	2.10	19.19	ND	ND	ND	ND	635.4	0.25
69325	2017-12-25T12:00:00	18.7	ND	ND	ND	0.29	38.19	ND	ND	ND	ND	647.8	0
69326	2017-12-25T13:00:00	38.3	ND	ND	ND	2.01	51.34	ND	ND	ND	ND	641.7	0
69327	2017-12-25T14:00:00	11.7	ND	ND	ND	2.08	23.21	ND	ND	ND	ND	517.4	0
69328	2017-12-25T15:00:00	0.3	ND	ND	ND	1.77	23.14	ND	ND	ND	ND	645	0
69329	2017-12-25T16:00:00	4.9	ND	ND	ND	2.17	23.27	ND	ND	ND	ND	639	0
69330	2017-12-25T17:00:00	4.3	ND	ND	ND	2.20	22.21	ND	ND	ND	ND	281.4	0
69331	2017-12-25T18:00:00	ND	ND	ND	ND	1.74	20.47	ND	ND	ND	ND	108.6	0
69332	2017-12-25T19:00:00	5.8	ND	ND	ND	1.99	14.54	ND	ND	ND	ND	0	0
69333	2017-12-25T20:00:00	17.8	ND	ND	ND	0.36	8.79	ND	ND	ND	ND	0	1.27
69334	2017-12-25T21:00:00	30.6	ND	ND	ND	1.30	6.65	ND	ND	ND	ND	0	9.91
69335	2017-12-25T22:00:00	25.6	ND	ND	ND	1.91	5.44	ND	ND	ND	ND	0	4.57
69336	2017-12-25T23:00:00	24.6	ND	ND	ND	1.63	5.81	ND	ND	ND	ND	0	2.54
69337	2017-12-26T00:00:00	18.8	ND	ND	ND	3.19	5.24	ND	ND	ND	ND	0	0.25
69338	2017-12-26T01:00:00	8.4	ND	ND	ND	2.89	5.85	ND	ND	ND	ND	0	0
69339	2017-12-26T02:00:00	4.9	ND	ND	ND	2.04	5.67	ND	ND	ND	ND	0	3.56
69340	2017-12-26T03:00:00	7.7	ND	ND	ND	2.48	7.04	ND	ND	ND	ND	0	6.86
69341	2017-12-26T04:00:00	1.5	ND	ND	ND	2.98	7.77	ND	ND	ND	ND	0	1.02
69342	2017-12-26T05:00:00	7.6	ND	ND	ND	2.91	7.26	ND	ND	ND	ND	0	0.76
69343	2017-12-26T06:00:00	12	ND	ND	ND	1.38	6.36	ND	ND	ND	ND	0	0
69344	2017-12-26T07:00:00	20.9	ND	ND	ND	1.42	5.65	ND	ND	ND	ND	59.1	0.76
69345	2017-12-26T08:00:00	17	ND	ND	ND	3.01	5.34	ND	ND	ND	ND	163.1	0
69346	2017-12-26T09:00:00	27.6	ND	ND	ND	2.30	6.50	ND	ND	ND	ND	314.6	0
69347	2017-12-26T10:00:00	32.2	ND	ND	ND	2.77	10.81	ND	ND	ND	ND	647.9	0
69348	2017-12-26T11:00:00	28.3	ND	ND	ND	2.56	24.53	ND	ND	ND	ND	648.2	0
69349	2017-12-26T12:00:00	34.8	ND	ND	ND	1.10	48.37	ND	ND	ND	ND	647.7	0
69350	2017-12-26T13:00:00	40.5	ND	ND	ND	2.19	61.17	ND	ND	ND	ND	648.5	0
69351	2017-12-26T14:00:00	52.4	ND	ND	ND	2.73	56.03	ND	ND	ND	ND	588.5	0
69352	2017-12-26T15:00:00	52.9	ND	ND	ND	2.23	42.15	ND	ND	ND	ND	568.4	0
69353	2017-12-26T16:00:00	44.3	ND	ND	ND	1.84	36.17	ND	ND	ND	ND	356	0
69354	2017-12-26T17:00:00	47.3	ND	ND	ND	2.47	14.64	ND	ND	ND	ND	124.8	1.27
69355	2017-12-26T18:00:00	33.9	ND	ND	ND	1.85	7.93	ND	ND	ND	ND	74.7	0.51
69356	2017-12-26T19:00:00	32.4	ND	ND	ND	0.67	6.46	ND	ND	ND	ND	0	0
69357	2017-12-26T20:00:00	48.1	ND	ND	ND	1.67	5.59	ND	ND	ND	ND	0	0
69358	2017-12-26T21:00:00	57.7	ND	ND	ND	1.81	7.30	ND	ND	ND	ND	0	0
69359	2017-12-26T22:00:00	28.6	ND	ND	ND	0.85	6.75	ND	ND	ND	ND	0	0
69360	2017-12-26T23:00:00	23.9	ND	ND	ND	1.34	5.26	ND	ND	ND	ND	0	0
69361	2017-12-27T00:00:00	32.6	ND	ND	ND	0.06	5.83	ND	ND	ND	ND	0	0
69362	2017-12-27T01:00:00	40.2	ND	ND	ND	1.90	5.71	ND	ND	ND	ND	0	0
69363	2017-12-27T02:00:00	50.4	ND	ND	ND	1.77	5.79	ND	ND	ND	ND	0	0
69364	2017-12-27T03:00:00	41.3	ND	ND	ND	1.38	5.48	ND	ND	ND	ND	0	0
69365	2017-12-27T04:00:00	29.6	ND	ND	ND	1.55	5.57	ND	ND	ND	ND	0	0
69366	2017-12-27T05:00:00	31.8	ND	ND	ND	2.51	5.71	ND	ND	ND	ND	0	0
69367	2017-12-27T06:00:00	50.2	ND	ND	ND	2.76	5.49	ND	ND	ND	ND	0	0
69368	2017-12-27T07:00:00	59.6	ND	ND	ND	1.84	5.75	ND	ND	ND	ND	35.3	0
69369	2017-12-27T08:00:00	71	ND	ND	ND	1.67	6.22	ND	ND	ND	ND	137.3	0
69370	2017-12-27T09:00:00	80.6	ND	ND	ND	1.20	6.75	ND	ND	ND	ND	309.4	0
69371	2017-12-27T10:00:00	98.9	ND	ND	ND	1.91	10.22	ND	ND	ND	ND	616.1	0
69372	2017-12-27T11:00:00	78.9	ND	ND	ND	1.98	24.49	ND	ND	ND	ND	628.8	0
69373	2017-12-27T12:00:00	50.6	ND	ND	ND	1.52	28.79	ND	ND	ND	ND	648.6	0
69374	2017-12-27T13:00:00	35.2	ND	ND	ND	2.89	41.86	ND	ND	ND	ND	647.9	0
69375	2017-12-27T14:00:00	37.9	ND	ND	ND	0.42	41.03	ND	ND	ND	ND	648.3	0
69376	2017-12-27T15:00:00	44.5	ND	ND	ND	1.94	45.27	ND	ND	ND	ND	588.7	0
69377	2017-12-27T16:00:00	35.2	ND	ND	ND	0.24	47.71	ND	ND	ND	ND	582.1	0
69378	2017-12-27T17:00:00	26.4	ND	ND	ND	0.99	23.78	ND	ND	ND	ND	370.5	0
69379	2017-12-27T18:00:00	19.6	ND	ND	ND	0.32	10.66	ND	ND	ND	ND	133.4	0
69380	2017-12-27T19:00:00	17.5	ND	ND	ND	1.67	9.38	ND	ND	ND	ND	0	0
69381	2017-12-27T20:00:00	23.2	ND	ND	ND	1.23	11.52	ND	ND	ND	ND	0	0
69382	2017-12-27T21:00:00	25.7	ND	ND	ND	0.88	11.79	ND	ND	ND	ND	0	0
69383	2017-12-27T22:00:00	28.7	ND	ND	ND	1.73	9.89	ND	ND	ND	ND	0	0
69384	2017-12-27T23:00:00	32.7	ND	ND	ND	2.84	9.65	ND	ND	ND	ND	0	0
69385	2017-12-28T00:00:00	23.8	ND	ND	ND	3.05	12.15	ND	ND	ND	ND	0	0
69386	2017-12-28T01:00:00	4.9	ND	ND	ND	2.08	13.15	ND	ND	ND	ND	0	0
69387	2017-12-28T02:00:00	21.4	ND	ND	ND	1.42	7.65	ND	ND	ND	ND	0	2.03
69388	2017-12-28T03:00:00	29.8	ND	ND	ND	1.58	9.32	ND	ND	ND	ND	0	0.76
69389	2017-12-28T04:00:00	13.7	ND	ND	ND	1.05	7.85	ND	ND	ND	ND	0	6.86
69390	2017-12-28T05:00:00	18	ND	ND	ND	2.04	7.30	ND	ND	ND	ND	0	19.81
69391	2017-12-28T06:00:00	6.8	ND	ND	ND	2.15	6.38	ND	ND	ND	ND	0	6.86
69392	2017-12-28T07:00:00	4.5	ND	ND	ND	2.54	5.77	ND	ND	ND	ND	0	9.4
69393	2017-12-28T08:00:00	19.2	ND	ND	ND	1.21	5.46	ND	ND	ND	ND	39.6	8.13
69394	2017-12-28T09:00:00	20.7	ND	ND	ND	1.84	5.83	ND	ND	ND	ND	126.4	3.3
69395	2017-12-28T10:00:00	28.9	ND	ND	ND	2.34	5.59	ND	ND	ND	ND	192.7	2.29
69396	2017-12-28T11:00:00	42.3	ND	ND	ND	2.17	6.26	ND	ND	ND	ND	320.2	2.29
69397	2017-12-28T12:00:00	27.6	ND	ND	ND	1.55	16.15	ND	ND	ND	ND	648	0
69398	2017-12-28T13:00:00	41.8	ND	ND	ND	2.22	28.91	ND	ND	ND	ND	648.3	0
69399	2017-12-28T14:00:00	49.4	ND	ND	ND	ND	29.59	ND	ND	ND	ND	648.3	0
69400	2017-12-28T15:00:00	39.7	ND	ND	ND	1.59	39.74	ND	ND	ND	ND	644.7	0
69401	2017-12-28T16:00:00	36	ND	ND	ND	1.20	44.21	ND	ND	ND	ND	628.1	0
69402	2017-12-28T17:00:00	31.4	ND	ND	ND	2.08	20.09	ND	ND	ND	ND	316.9	0
69403	2017-12-28T18:00:00	17.3	ND	ND	ND	1.95	14.50	ND	ND	ND	ND	79.6	0
69404	2017-12-28T19:00:00	7.1	ND	ND	ND	0.54	9.64	ND	ND	ND	ND	0	0
69405	2017-12-28T20:00:00	22.8	ND	ND	ND	1.51	6.65	ND	ND	ND	ND	0	0
69406	2017-12-28T21:00:00	30.5	ND	ND	ND	0.57	6.79	ND	ND	ND	ND	0	0
69407	2017-12-28T22:00:00	53.5	ND	ND	ND	0.21	6.02	ND	ND	ND	ND	0	0
69408	2017-12-28T23:00:00	80.8	ND	ND	ND	1.46	5.85	ND	ND	ND	ND	0	0
69409	2017-12-29T00:00:00	77.6	ND	ND	ND	1.27	5.91	ND	ND	ND	ND	0	0
69410	2017-12-29T01:00:00	46.5	ND	ND	ND	2.36	7.32	ND	ND	ND	ND	0	0
69411	2017-12-29T02:00:00	31	ND	ND	ND	2.97	7.93	ND	ND	ND	ND	0	2.03
69412	2017-12-29T03:00:00	21.7	ND	ND	ND	2.34	7.46	ND	ND	ND	ND	0	50.04
69413	2017-12-29T04:00:00	14.2	ND	ND	ND	2.22	8.16	ND	ND	ND	ND	0	3.81
69414	2017-12-29T05:00:00	4.8	ND	ND	ND	2.51	5.97	ND	ND	ND	ND	0	0.76
69415	2017-12-29T06:00:00	20.5	ND	ND	ND	1.49	5.87	ND	ND	ND	ND	0	0
69416	2017-12-29T07:00:00	31.1	ND	ND	ND	0.85	5.55	ND	ND	ND	ND	10.3	0.51
69417	2017-12-29T08:00:00	33.2	ND	ND	ND	1.67	5.55	ND	ND	ND	ND	50.1	1.02
69418	2017-12-29T09:00:00	41.4	ND	ND	ND	2.96	5.51	ND	ND	ND	ND	84.5	2.29
69419	2017-12-29T10:00:00	28.8	ND	ND	ND	2.65	6.14	ND	ND	ND	ND	327.3	0
69420	2017-12-29T11:00:00	28.1	ND	ND	ND	2.31	12.21	ND	ND	ND	ND	648.9	0.25
69421	2017-12-29T12:00:00	54.7	ND	ND	ND	1.24	33.46	ND	ND	ND	ND	647.4	0
69422	2017-12-29T13:00:00	63.8	ND	ND	ND	2.19	64.07	ND	ND	ND	ND	648.6	0
69423	2017-12-29T14:00:00	54.1	ND	ND	ND	2.52	65.88	ND	ND	ND	ND	648.4	0
69424	2017-12-29T15:00:00	42.7	ND	ND	ND	1.66	43.53	ND	ND	ND	ND	624.6	0
69425	2017-12-29T16:00:00	27.3	ND	ND	ND	2.04	21.76	ND	ND	ND	ND	612.8	0
69426	2017-12-29T17:00:00	30.9	ND	ND	ND	0.07	10.97	ND	ND	ND	ND	129.4	0
69427	2017-12-29T18:00:00	43.8	ND	ND	ND	ND	7.04	ND	ND	ND	ND	76	0
69428	2017-12-29T19:00:00	52.9	ND	ND	ND	1.97	8.14	ND	ND	ND	ND	0	0
69429	2017-12-29T20:00:00	54	ND	ND	ND	0.28	8.89	ND	ND	ND	ND	0	0
69430	2017-12-29T21:00:00	28.1	ND	ND	ND	1.35	6.59	ND	ND	ND	ND	0	0
69431	2017-12-29T22:00:00	40.4	ND	ND	ND	2.12	7.59	ND	ND	ND	ND	0	0
69432	2017-12-29T23:00:00	53.8	ND	ND	ND	2.83	6.83	ND	ND	ND	ND	0	0
69433	2017-12-30T00:00:00	35.8	ND	ND	ND	1.38	6.28	ND	ND	ND	ND	0	5.08
69434	2017-12-30T01:00:00	10.8	ND	ND	ND	2.05	7.69	ND	ND	ND	ND	0	0.51
69435	2017-12-30T02:00:00	10	ND	ND	ND	2.66	7.34	ND	ND	ND	ND	0	0
69436	2017-12-30T03:00:00	11.2	ND	ND	ND	1.49	6.79	ND	ND	ND	ND	0	0
69437	2017-12-30T04:00:00	9.9	ND	ND	ND	1.91	6.22	ND	ND	ND	ND	0	0.25
69438	2017-12-30T05:00:00	21.1	ND	ND	ND	2.43	5.91	ND	ND	ND	ND	0	22.1
69439	2017-12-30T06:00:00	41.7	ND	ND	ND	2.19	5.28	ND	ND	ND	ND	0	5.33
69440	2017-12-30T07:00:00	32	ND	ND	ND	1.91	5.87	ND	ND	ND	ND	42.4	0
69441	2017-12-30T08:00:00	34.6	ND	ND	ND	1.41	6.10	ND	ND	ND	ND	189.5	0.51
69442	2017-12-30T09:00:00	40.6	ND	ND	ND	2.17	6.20	ND	ND	ND	ND	387.4	0
69443	2017-12-30T10:00:00	51.5	ND	ND	ND	2.31	10.07	ND	ND	ND	ND	611.8	0
69444	2017-12-30T11:00:00	57	ND	ND	ND	1.91	29.26	ND	ND	ND	ND	648.5	0
69445	2017-12-30T12:00:00	56.2	ND	ND	ND	2.22	47.94	ND	ND	ND	ND	648.1	0
69446	2017-12-30T13:00:00	42.2	ND	ND	ND	0.61	57.62	ND	ND	ND	ND	648.4	0
69447	2017-12-30T14:00:00	42.5	ND	ND	ND	0.77	56.32	ND	ND	ND	ND	648.2	0
69448	2017-12-30T15:00:00	50.1	ND	ND	ND	2.73	61.64	ND	ND	ND	ND	642.2	0
69449	2017-12-30T16:00:00	57.4	ND	ND	ND	2.01	44.70	ND	ND	ND	ND	192.1	0
69450	2017-12-30T17:00:00	32.4	ND	ND	ND	1.18	24.02	ND	ND	ND	ND	84.7	0
69451	2017-12-30T18:00:00	ND	ND	ND	ND	0.99	19.55	ND	ND	ND	ND	58.4	0
69452	2017-12-30T19:00:00	12.7	ND	ND	ND	ND	6.34	ND	ND	ND	ND	0	0
69453	2017-12-30T20:00:00	59.4	ND	ND	ND	1.13	7.26	ND	ND	ND	ND	0	0
69454	2017-12-30T21:00:00	57.9	ND	ND	ND	1.37	8.48	ND	ND	ND	ND	0	0
69455	2017-12-30T22:00:00	64.6	ND	ND	ND	1.97	6.48	ND	ND	ND	ND	0	0
69456	2017-12-30T23:00:00	54.3	ND	ND	ND	1.18	5.97	ND	ND	ND	ND	0	0
69457	2017-12-31T00:00:00	71.8	ND	ND	ND	1.63	6.16	ND	ND	ND	ND	0	0
69458	2017-12-31T01:00:00	61.1	ND	ND	ND	1.77	5.57	ND	ND	ND	ND	0	11.18
69459	2017-12-31T02:00:00	36.3	ND	ND	ND	0.46	5.48	ND	ND	ND	ND	0	10.92
69460	2017-12-31T03:00:00	19.2	ND	ND	ND	2.12	5.61	ND	ND	ND	ND	0	2.54
69461	2017-12-31T04:00:00	12.4	ND	ND	ND	2.44	5.38	ND	ND	ND	ND	0	0
69462	2017-12-31T05:00:00	17.4	ND	ND	ND	2.20	5.63	ND	ND	ND	ND	0	0
69463	2017-12-31T06:00:00	28.2	ND	ND	ND	1.87	5.36	ND	ND	ND	ND	0	0
69464	2017-12-31T07:00:00	21.3	ND	ND	ND	1.76	5.57	ND	ND	ND	ND	11	0.51
69465	2017-12-31T08:00:00	17.2	ND	ND	ND	1.88	5.79	ND	ND	ND	ND	81.9	0.25
69466	2017-12-31T09:00:00	13.6	ND	ND	ND	1.13	9.62	ND	ND	ND	ND	523.6	0.25
69467	2017-12-31T10:00:00	22.8	ND	ND	ND	2.77	23.65	ND	ND	ND	ND	604.7	0
69468	2017-12-31T11:00:00	42	ND	ND	ND	2.55	34.22	ND	ND	ND	ND	648.4	0
69469	2017-12-31T12:00:00	37.8	ND	ND	ND	1.62	40.48	ND	ND	ND	ND	648.4	0
69470	2017-12-31T13:00:00	33.1	ND	ND	ND	2.33	39.19	ND	ND	ND	ND	643.8	0
69471	2017-12-31T14:00:00	33.3	ND	ND	ND	2.65	42.70	ND	ND	ND	ND	568.7	0
69472	2017-12-31T15:00:00	27.7	ND	ND	ND	2.54	40.86	ND	ND	ND	ND	602.5	0
69473	2017-12-31T16:00:00	20.7	ND	ND	ND	0.61	41.21	ND	ND	ND	ND	546.5	0
69474	2017-12-31T17:00:00	38.2	ND	ND	ND	3.72	34.50	ND	ND	ND	ND	489.1	0
69475	2017-12-31T18:00:00	16.3	ND	ND	ND	2.17	29.12	ND	ND	ND	ND	140.6	0
69476	2017-12-31T19:00:00	9.4	ND	ND	ND	1.58	11.72	ND	ND	ND	ND	0	0
69477	2017-12-31T20:00:00	21.4	ND	ND	ND	2.98	7.77	ND	ND	ND	ND	0	0
69478	2017-12-31T21:00:00	24.9	ND	ND	ND	0.57	7.77	ND	ND	ND	ND	0	0
69479	2017-12-31T22:00:00	26.4	ND	ND	ND	1.41	8.52	ND	ND	ND	ND	0	0
69480	2017-12-31T23:00:00	35.5	ND	ND	ND	2.36	6.63	ND	ND	ND	ND	0	0
69481	2018-01-01T00:00:00	63.9	ND	ND	ND	1.10	6.22	ND	ND	ND	ND	0	0
69482	2018-01-01T01:00:00	121.5	ND	ND	ND	2.676291534	7.692498978	ND	ND	ND	ND	0	0
69483	2018-01-01T02:00:00	239.4	ND	ND	ND	1.449657914	8.320458078	ND	ND	ND	ND	0	0
69484	2018-01-01T03:00:00	192.6	ND	ND	ND	1.31026773	6.57394683	ND	ND	ND	ND	0	0
69485	2018-01-01T04:00:00	126.8	ND	ND	ND	1.547231043	6.161848671	ND	ND	ND	ND	0	0
69486	2018-01-01T05:00:00	86.9	ND	ND	ND	1.463596933	5.867492843	ND	ND	ND	ND	0	5.84
69487	2018-01-01T06:00:00	74	ND	ND	ND	1.04542638	6.613194274	ND	ND	ND	ND	0	17.02
69488	2018-01-01T07:00:00	23.6	ND	ND	ND	1.39390184	8.595190184	ND	ND	ND	ND	17.9	19.56
69489	2018-01-01T08:00:00	8	ND	ND	ND	1.324206748	8.006478528	ND	ND	ND	ND	24.7	1.02
69490	2018-01-01T09:00:00	15.1	ND	ND	ND	2.439328221	7.162658487	ND	ND	ND	ND	83.2	16.51
69491	2018-01-01T10:00:00	7.6	ND	ND	ND	1.477535951	7.064539877	ND	ND	ND	ND	88.4	7.62
69492	2018-01-01T11:00:00	11	ND	ND	ND	1.700560245	8.850298569	ND	ND	ND	ND	208.3	6.35
69493	2018-01-01T12:00:00	1.5	ND	ND	ND	3.373242454	13.87397137	ND	ND	ND	ND	568.1	3.05
69494	2018-01-01T13:00:00	15.8	ND	ND	ND	2.383572147	17.40624131	ND	ND	ND	ND	585.8	0
69495	2018-01-01T14:00:00	17.4	ND	ND	ND	2.27206	23.01862577	ND	ND	ND	ND	641.9	0
69496	2018-01-01T15:00:00	17	ND	ND	ND	0.933914233	39.05120654	ND	ND	ND	ND	648.2	0
69497	2018-01-01T16:00:00	21.9	ND	ND	ND	1.826011411	50.62920245	ND	ND	ND	ND	504.3	0
69498	2018-01-01T17:00:00	12.3	ND	ND	ND	2.285999018	45.05606544	ND	ND	ND	ND	299	0
69499	2018-01-01T18:00:00	3.5	ND	ND	ND	1.798133374	27.90493252	ND	ND	ND	ND	43.1	0
69500	2018-01-01T19:00:00	15.4	ND	ND	ND	1.142999509	12.51993456	ND	ND	ND	ND	0	0
69501	2018-01-01T20:00:00	13.5	ND	ND	ND	1.644804172	10.89116564	ND	ND	ND	ND	0	1.78
69502	2018-01-01T21:00:00	11.1	ND	ND	ND	2.327816074	8.457824131	ND	ND	ND	ND	0	2.29
69503	2018-01-01T22:00:00	12.5	ND	ND	ND	1.212694601	5.769374233	ND	ND	ND	ND	0	0.25
69504	2018-01-01T23:00:00	17.8	ND	ND	ND	1.31026773	5.396523517	ND	ND	ND	ND	0	0
69505	2018-01-02T00:00:00	20.3	ND	ND	ND	1.184816564	5.533889571	ND	ND	ND	ND	0	0
69506	2018-01-02T01:00:00	25.7	ND	ND	ND	1.826011411	5.651631902	ND	ND	ND	ND	0	0
69507	2018-01-02T02:00:00	16.1	ND	ND	ND	2.174486871	6.613194274	ND	ND	ND	ND	0	0
69508	2018-01-02T03:00:00	6.6	ND	ND	ND	2.801742699	6.122601227	ND	ND	ND	ND	0	0
69509	2018-01-02T04:00:00	11.5	ND	ND	ND	2.439328221	6.083353783	ND	ND	ND	ND	0	0
69510	2018-01-02T05:00:00	16.9	ND	ND	ND	2.718108589	5.710503067	ND	ND	ND	ND	0	0
69511	2018-01-02T06:00:00	14.6	ND	ND	ND	3.401120491	5.730126789	ND	ND	ND	ND	0	0
69512	2018-01-02T07:00:00	28.4	ND	ND	ND	2.815681718	5.710503067	ND	ND	ND	ND	40.5	0.51
69513	2018-01-02T08:00:00	45.4	ND	ND	ND	2.467206258	5.926364008	ND	ND	ND	ND	291	0
69514	2018-01-02T09:00:00	71.2	ND	ND	ND	4.000498282	6.868302658	ND	ND	ND	ND	609.3	0
69515	2018-01-02T10:00:00	77.3	ND	ND	ND	3.122340123	14.10945603	ND	ND	ND	ND	630.6	0
69516	2018-01-02T11:00:00	55	ND	ND	ND	1.115121472	32.35951738	ND	ND	ND	ND	648.1	0
69517	2018-01-02T12:00:00	47.1	ND	ND	ND	1.282389693	40.60148057	ND	ND	ND	ND	648.4	0
69518	2018-01-02T13:00:00	36.3	ND	ND	ND	1.993279632	43.34880164	ND	ND	ND	ND	648.1	0
69519	2018-01-02T14:00:00	33.8	ND	ND	ND	2.27206	65.52360736	ND	ND	ND	ND	648.4	0
69520	2018-01-02T15:00:00	41.1	ND	ND	ND	2.495084294	57.94885072	ND	ND	ND	ND	607.9	0
69521	2018-01-02T16:00:00	37.2	ND	ND	ND	2.313877055	48.82382004	ND	ND	ND	ND	597.1	0
69522	2018-01-02T17:00:00	25.2	ND	ND	ND	1.129060491	18.46592229	ND	ND	ND	ND	574.2	0
69523	2018-01-02T18:00:00	19.6	ND	ND	ND	1.296328712	11.59761963	ND	ND	ND	ND	65.5	0
69524	2018-01-02T19:00:00	2.1	ND	ND	ND	1.184816564	8.163468303	ND	ND	ND	ND	0	0
69525	2018-01-02T20:00:00	12.2	ND	ND	ND	1.240572638	10.53793865	ND	ND	ND	ND	0	0
69526	2018-01-02T21:00:00	16.9	ND	ND	ND	0.69695092	10.18471166	ND	ND	ND	ND	0	0
69527	2018-01-02T22:00:00	26	ND	ND	ND	2.592657423	6.907550102	ND	ND	ND	ND	0	0
69528	2018-01-02T23:00:00	33.6	ND	ND	ND	2.913254847	13.01052761	ND	ND	ND	ND	0	0
69529	2018-01-03T00:00:00	17.6	ND	ND	ND	3.136279141	9.654871166	ND	ND	ND	ND	0	0
69530	2018-01-03T01:00:00	33.4	ND	ND	ND	2.327816074	6.495451943	ND	ND	ND	ND	0	0
69531	2018-01-03T02:00:00	28	ND	ND	ND	1.57510908	6.397333333	ND	ND	ND	ND	0	0
69532	2018-01-03T03:00:00	33.9	ND	ND	ND	2.857498773	6.122601227	ND	ND	ND	ND	0	0
69533	2018-01-03T04:00:00	42.5	ND	ND	ND	2.132669816	6.57394683	ND	ND	ND	ND	0	0
69534	2018-01-03T05:00:00	34.7	ND	ND	ND	1.352084785	6.534699387	ND	ND	ND	ND	0	0
69535	2018-01-03T06:00:00	54.8	ND	ND	ND	1.561170061	5.710503067	ND	ND	ND	ND	0	0
69536	2018-01-03T07:00:00	42.4	ND	ND	ND	2.230242945	6.044106339	ND	ND	ND	ND	34.9	0
69537	2018-01-03T08:00:00	43.1	ND	ND	ND	1.115121472	6.632817996	ND	ND	ND	ND	260	0
69538	2018-01-03T09:00:00	68.8	ND	ND	ND	3.401120491	10.02772188	ND	ND	ND	ND	568.4	0
69539	2018-01-03T10:00:00	80.9	ND	ND	ND	2.383572147	25.0202454	ND	ND	ND	ND	635.9	0
69540	2018-01-03T11:00:00	67.8	ND	ND	ND	2.606596442	38.71760327	ND	ND	ND	ND	648	0
69541	2018-01-03T12:00:00	59.1	ND	ND	ND	1.198755583	50.21710429	ND	ND	ND	ND	635.7	0
69542	2018-01-03T13:00:00	44.9	ND	ND	ND	2.132669816	66.23006135	ND	ND	ND	ND	640.5	0
69543	2018-01-03T14:00:00	45.1	ND	ND	ND	2.076913742	68.62415542	ND	ND	ND	ND	648.7	0
69544	2018-01-03T15:00:00	43.8	ND	ND	ND	2.035096687	66.15156646	ND	ND	ND	ND	648.6	0
69545	2018-01-03T16:00:00	44	ND	ND	ND	1.39390184	53.71012679	ND	ND	ND	ND	523	0
69546	2018-01-03T17:00:00	31.8	ND	ND	ND	0.669072883	43.15256442	ND	ND	ND	ND	495.4	0
69547	2018-01-03T18:00:00	39.7	ND	ND	ND	1.798133374	24.35303885	ND	ND	ND	ND	111.3	0
69548	2018-01-03T19:00:00	22	ND	ND	ND	1.04542638	15.69897751	ND	ND	ND	ND	0	0
69549	2018-01-03T20:00:00	24.1	ND	ND	ND	1.770255337	28.04229857	ND	ND	ND	ND	0	2.54
69550	2018-01-03T21:00:00	8	ND	ND	ND	2.425389202	17.81833947	ND	ND	ND	ND	0	0
69551	2018-01-03T22:00:00	33.9	ND	ND	ND	0.794524049	11.28364008	ND	ND	ND	ND	0	0.25
69552	2018-01-03T23:00:00	24.9	ND	ND	ND	3.986559264	7.947607362	ND	ND	ND	ND	0	0
69553	2018-01-04T00:00:00	31.7	ND	ND	ND	3.219913252	6.35808589	ND	ND	ND	ND	0	0
69554	2018-01-04T01:00:00	33.4	ND	ND	ND	3.205974233	5.808621677	ND	ND	ND	ND	0	3.05
69555	2018-01-04T02:00:00	26.5	ND	ND	ND	3.164157178	5.94598773	ND	ND	ND	ND	0	0.25
69556	2018-01-04T03:00:00	22	ND	ND	ND	2.160547853	5.749750511	ND	ND	ND	ND	0	0.25
69557	2018-01-04T04:00:00	33.5	ND	ND	ND	2.815681718	5.867492843	ND	ND	ND	ND	0	0
69558	2018-01-04T05:00:00	27.7	ND	ND	ND	2.53690135	5.31802863	ND	ND	ND	ND	0	0
69559	2018-01-04T06:00:00	41.1	ND	ND	ND	2.955071902	6.102977505	ND	ND	ND	ND	0	0
69560	2018-01-04T07:00:00	45	ND	ND	ND	3.275669325	5.906740286	ND	ND	ND	ND	30.9	0
69561	2018-01-04T08:00:00	44.7	ND	ND	ND	2.690230552	6.024482618	ND	ND	ND	ND	190.7	0
69562	2018-01-04T09:00:00	46.7	ND	ND	ND	1.22663362	7.339271984	ND	ND	ND	ND	387	0
69563	2018-01-04T10:00:00	43.8	ND	ND	ND	0.125451166	18.62291207	ND	ND	ND	ND	647.6	0
69564	2018-01-04T11:00:00	56.1	ND	ND	ND	2.18842589	37.46168507	ND	ND	ND	ND	647.5	0
69565	2018-01-04T12:00:00	48.1	ND	ND	ND	0.933914233	51.13941922	ND	ND	ND	ND	648.1	0
69566	2018-01-04T13:00:00	40.1	ND	ND	ND	1.04542638	67.91770143	ND	ND	ND	ND	640.8	0
69567	2018-01-04T14:00:00	36.3	ND	ND	ND	1.31026773	62.30531697	ND	ND	ND	ND	646.6	0
69568	2018-01-04T15:00:00	34.7	ND	ND	ND	2.899315828	77.04273211	ND	ND	ND	ND	539.3	0
69569	2018-01-04T16:00:00	32.3	ND	ND	ND	2.62053546	62.79591002	ND	ND	ND	ND	571	0
69570	2018-01-04T17:00:00	25.5	ND	ND	ND	1.909645521	28.59176278	ND	ND	ND	ND	451.5	0
69571	2018-01-04T18:00:00	9.2	ND	ND	ND	1.366023804	19.97694888	ND	ND	ND	ND	97.6	0
69572	2018-01-04T19:00:00	30.2	ND	ND	ND	1.073304417	17.4847362	ND	ND	ND	ND	0	0
69573	2018-01-04T20:00:00	26.6	ND	ND	ND	0.69695092	13.44224949	ND	ND	ND	ND	0	0
69574	2018-01-04T21:00:00	24.1	ND	ND	ND	2.397511166	10.6753047	ND	ND	ND	ND	0	0
69575	2018-01-04T22:00:00	54.2	ND	ND	ND	3.66596184	6.201096115	ND	ND	ND	ND	0	0
69576	2018-01-04T23:00:00	61.3	ND	ND	ND	2.606596442	6.809431493	ND	ND	ND	ND	0	0
69577	2018-01-05T00:00:00	43.3	ND	ND	ND	0.989670307	6.946797546	ND	ND	ND	ND	0	0
69578	2018-01-05T01:00:00	35.9	ND	ND	ND	1.184816564	8.987664622	ND	ND	ND	ND	0	0
69579	2018-01-05T02:00:00	26.9	ND	ND	ND	2.021157669	15.79709611	ND	ND	ND	ND	0	0
69580	2018-01-05T03:00:00	13.9	ND	ND	ND	1.268450675	19.44710838	ND	ND	ND	ND	0	0
69581	2018-01-05T04:00:00	1.8	ND	ND	ND	1.240572638	23.03824949	ND	ND	ND	ND	0	0
69582	2018-01-05T05:00:00	2.3	ND	ND	ND	2.913254847	12.79466667	ND	ND	ND	ND	0	0
69583	2018-01-05T06:00:00	32.9	ND	ND	ND	3.164157178	6.613194274	ND	ND	ND	ND	0	0
69584	2018-01-05T07:00:00	25.8	ND	ND	ND	2.425389202	6.279591002	ND	ND	ND	ND	43.5	0
69585	2018-01-05T08:00:00	33.3	ND	ND	ND	1.352084785	7.221529652	ND	ND	ND	ND	179.6	0
69586	2018-01-05T09:00:00	38.8	ND	ND	ND	1.156938528	9.164278119	ND	ND	ND	ND	482.8	0
69587	2018-01-05T10:00:00	38.3	ND	ND	ND	1.700560245	21.33098569	ND	ND	ND	ND	647.8	0
69588	2018-01-05T11:00:00	38.1	ND	ND	ND	1.839950429	36.71598364	ND	ND	ND	ND	623.9	0
69589	2018-01-05T12:00:00	33.2	ND	ND	ND	0.836341104	35.44044172	ND	ND	ND	ND	648.4	0
69590	2018-01-05T13:00:00	26.2	ND	ND	ND	2.090852761	36.6767362	ND	ND	ND	ND	648.5	0
69591	2018-01-05T14:00:00	16.7	ND	ND	ND	2.941132883	37.08883436	ND	ND	ND	ND	648.9	0
69592	2018-01-05T15:00:00	26.9	ND	ND	ND	2.509023313	39.58104703	ND	ND	ND	ND	648.4	0
69593	2018-01-05T16:00:00	26.6	ND	ND	ND	0.989670307	48.03887117	ND	ND	ND	ND	559.4	0
69594	2018-01-05T17:00:00	12.7	ND	ND	ND	1.184816564	38.85496933	ND	ND	ND	ND	454.9	0
69595	2018-01-05T18:00:00	156.9	ND	ND	ND	2.982949939	29.2393456	ND	ND	ND	ND	146.5	0
69596	2018-01-05T19:00:00	108.4	ND	ND	ND	1.839950429	13.28525971	ND	ND	ND	ND	0	0
69597	2018-01-05T20:00:00	34.2	ND	ND	ND	1.421779877	12.85353783	ND	ND	ND	ND	0	0
69598	2018-01-05T21:00:00	24.5	ND	ND	ND	1.296328712	9.439010225	ND	ND	ND	ND	0	0
69599	2018-01-05T22:00:00	24.5	ND	ND	ND	0.195146258	10.98928425	ND	ND	ND	ND	0	0
69600	2018-01-05T23:00:00	23.9	ND	ND	ND	2.648413497	9.478257669	ND	ND	ND	ND	0	0
69601	2018-01-06T00:00:00	34.9	ND	ND	ND	2.759925644	6.613194274	ND	ND	ND	ND	0	0
69602	2018-01-06T01:00:00	48.2	ND	ND	ND	1.003609325	6.044106339	ND	ND	ND	ND	0	0
69603	2018-01-06T02:00:00	39.6	ND	ND	ND	3.136279141	6.279591002	ND	ND	ND	ND	0	0
69604	2018-01-06T03:00:00	34.2	ND	ND	ND	1.714499264	7.61400409	ND	ND	ND	ND	0	0
69605	2018-01-06T04:00:00	43.7	ND	ND	ND	0.989670307	6.279591002	ND	ND	ND	ND	0	0
69606	2018-01-06T05:00:00	38.3	ND	ND	ND	2.509023313	5.730126789	ND	ND	ND	ND	0	0
69607	2018-01-06T06:00:00	39.2	ND	ND	ND	3.902925153	5.847869121	ND	ND	ND	ND	0	0
69608	2018-01-06T07:00:00	68.6	ND	ND	ND	2.118730798	6.829055215	ND	ND	ND	ND	25.6	0
69609	2018-01-06T08:00:00	72	ND	ND	ND	3.470815583	7.025292434	ND	ND	ND	ND	108.1	0
69610	2018-01-06T09:00:00	123	ND	ND	ND	3.679900859	7.751370143	ND	ND	ND	ND	389.2	0
69611	2018-01-06T10:00:00	106.1	ND	ND	ND	3.136279141	12.48068712	ND	ND	ND	ND	583.7	0
69612	2018-01-06T11:00:00	92	ND	ND	ND	ND	34.67511656	ND	ND	ND	ND	648.2	0
69613	2018-01-06T12:00:00	86.5	ND	ND	ND	ND	62.9528998	ND	ND	ND	ND	648.4	0
69614	2018-01-06T13:00:00	74.2	ND	ND	ND	ND	67.09350511	ND	ND	ND	ND	648.6	0
69615	2018-01-06T14:00:00	58.1	ND	ND	ND	1.519353006	67.36823722	ND	ND	ND	ND	648.4	0
69616	2018-01-06T15:00:00	52.8	ND	ND	ND	0.933914233	99.08017178	ND	ND	ND	ND	614	0
69617	2018-01-06T16:00:00	48.6	ND	ND	ND	0.125451166	47.84263395	ND	ND	ND	ND	412.5	0
69618	2018-01-06T17:00:00	18.7	ND	ND	ND	1.059365399	22.44953783	ND	ND	ND	ND	211.4	0
69619	2018-01-06T18:00:00	22.8	ND	ND	ND	1.268450675	17.72022086	ND	ND	ND	ND	165.4	0
69620	2018-01-06T19:00:00	20.4	ND	ND	ND	1.449657914	13.97208998	ND	ND	ND	ND	0	0
69621	2018-01-06T20:00:00	34.4	ND	ND	ND	1.519353006	11.46025358	ND	ND	ND	ND	0	0
69622	2018-01-06T21:00:00	39.5	ND	ND	ND	1.714499264	18.19119018	ND	ND	ND	ND	0	0
69623	2018-01-06T22:00:00	36.2	ND	ND	ND	2.62053546	11.46025358	ND	ND	ND	ND	0	0
69624	2018-01-06T23:00:00	44.1	ND	ND	ND	1.435718896	15.16913701	ND	ND	ND	ND	0	0
69625	2018-01-07T00:00:00	30.1	ND	ND	ND	1.839950429	15.03177096	ND	ND	ND	ND	0	0
69626	2018-01-07T01:00:00	19.1	ND	ND	ND	2.550840368	19.27049489	ND	ND	ND	ND	0	0
69627	2018-01-07T02:00:00	19.4	ND	ND	ND	1.547231043	12.06858896	ND	ND	ND	ND	0	0
69628	2018-01-07T03:00:00	26.3	ND	ND	ND	2.076913742	8.379329243	ND	ND	ND	ND	0	0
69629	2018-01-07T04:00:00	29.9	ND	ND	ND	3.958681227	8.261586912	ND	ND	ND	ND	0	0
69630	2018-01-07T05:00:00	28.3	ND	ND	ND	2.383572147	7.280400818	ND	ND	ND	ND	0	0
69631	2018-01-07T06:00:00	41.7	ND	ND	ND	2.076913742	5.553513292	ND	ND	ND	ND	0	0
69632	2018-01-07T07:00:00	49.3	ND	ND	ND	3.303547362	5.985235174	ND	ND	ND	ND	77.9	0
69633	2018-01-07T08:00:00	45.4	ND	ND	ND	2.021157669	9.478257669	ND	ND	ND	ND	397	0
69634	2018-01-07T09:00:00	56.7	ND	ND	ND	0.766646012	23.09712065	ND	ND	ND	ND	640.9	0
69635	2018-01-07T10:00:00	63	ND	ND	ND	3.094462086	39.0119591	ND	ND	ND	ND	633.2	0
69636	2018-01-07T11:00:00	62	ND	ND	ND	1.839950429	47.60714928	ND	ND	ND	ND	648.3	0
69637	2018-01-07T12:00:00	45.4	ND	ND	ND	0.013939018	62.97252352	ND	ND	ND	ND	648.3	0
69638	2018-01-07T13:00:00	38.6	ND	ND	ND	0.404231534	64.56204499	ND	ND	ND	ND	641.3	0
69639	2018-01-07T14:00:00	35.4	ND	ND	ND	ND	63.26687935	ND	ND	ND	ND	624.1	0
69640	2018-01-07T15:00:00	34.3	ND	ND	ND	0.027878037	54.69131288	ND	ND	ND	ND	519.3	0
69641	2018-01-07T16:00:00	12.6	ND	ND	ND	1.04542638	36.51974642	ND	ND	ND	ND	648.7	0
69642	2018-01-07T17:00:00	17.8	ND	ND	ND	2.021157669	32.61462577	ND	ND	ND	ND	577.5	0
69643	2018-01-07T18:00:00	7.6	ND	ND	ND	2.146608834	30.47564008	ND	ND	ND	ND	105.4	0
69644	2018-01-07T19:00:00	2.1	ND	ND	ND	1.672682209	29.51407771	ND	ND	ND	ND	0	0
69645	2018-01-07T20:00:00	14.7	ND	ND	ND	1.352084785	26.82562781	ND	ND	ND	ND	0	0
69646	2018-01-07T21:00:00	15.6	ND	ND	ND	1.491474969	25.70707566	ND	ND	ND	ND	0	0
69647	2018-01-07T22:00:00	32.6	ND	ND	ND	1.937523558	19.11350511	ND	ND	ND	ND	0	0
69648	2018-01-07T23:00:00	43.5	ND	ND	ND	2.132669816	14.3449407	ND	ND	ND	ND	0	4.06
69649	2018-01-08T00:00:00	18.1	ND	ND	ND	2.118730798	15.40462168	ND	ND	ND	ND	0	0
69650	2018-01-08T01:00:00	15.5	ND	ND	ND	1.826011411	20.8992638	ND	ND	ND	ND	0	0
69651	2018-01-08T02:00:00	14.9	ND	ND	ND	2.076913742	14.05058487	ND	ND	ND	ND	0	0
69652	2018-01-08T03:00:00	15.7	ND	ND	ND	1.602987117	11.63686708	ND	ND	ND	ND	0	0
69653	2018-01-08T04:00:00	25.9	ND	ND	ND	2.439328221	12.32369734	ND	ND	ND	ND	0	0
69654	2018-01-08T05:00:00	29.1	ND	ND	ND	3.080523067	14.42343558	ND	ND	ND	ND	0	0
69655	2018-01-08T06:00:00	27.9	ND	ND	ND	3.512632638	10.32207771	ND	ND	ND	ND	0	0
69656	2018-01-08T07:00:00	27.6	ND	ND	ND	2.258120982	7.358895706	ND	ND	ND	ND	101.8	0
69657	2018-01-08T08:00:00	27.1	ND	ND	ND	2.230242945	12.42181595	ND	ND	ND	ND	513.3	0
69658	2018-01-08T09:00:00	21.6	ND	ND	ND	3.205974233	21.58609407	ND	ND	ND	ND	648	0
69659	2018-01-08T10:00:00	42.5	ND	ND	ND	3.15021816	32.02591411	ND	ND	ND	ND	647.7	0
69660	2018-01-08T11:00:00	56.1	ND	ND	ND	2.843559755	52.02248671	ND	ND	ND	ND	648.4	0
69661	2018-01-08T12:00:00	50.2	ND	ND	ND	1.57510908	65.03301431	ND	ND	ND	ND	648.4	0
69662	2018-01-08T13:00:00	29.3	ND	ND	ND	1.463596933	66.97576278	ND	ND	ND	ND	648.4	0
69663	2018-01-08T14:00:00	26.1	ND	ND	ND	1.672682209	74.4327771	ND	ND	ND	ND	648	0
69664	2018-01-08T15:00:00	26.6	ND	ND	ND	1.826011411	62.10907975	ND	ND	ND	ND	620.8	0
69665	2018-01-08T16:00:00	ND	ND	ND	ND	ND	ND	ND	ND	ND	ND	ND	ND
69666	2018-01-08T17:00:00	ND	ND	ND	ND	ND	ND	ND	ND	ND	ND	ND	ND
69667	2018-01-08T18:00:00	ND	ND	ND	ND	ND	ND	ND	ND	ND	ND	ND	ND
69668	2018-01-08T19:00:00	ND	ND	ND	ND	ND	ND	ND	ND	ND	ND	ND	ND
69669	2018-01-08T20:00:00	ND	ND	ND	ND	ND	ND	ND	ND	ND	ND	ND	ND
69670	2018-01-08T21:00:00	ND	ND	ND	ND	ND	ND	ND	ND	ND	ND	ND	ND
69671	2018-01-08T22:00:00	ND	ND	ND	ND	ND	ND	ND	ND	ND	ND	ND	ND
69672	2018-01-08T23:00:00	ND	ND	ND	ND	ND	ND	ND	ND	ND	ND	ND	ND
69673	2018-01-09T00:00:00	ND	ND	ND	ND	ND	ND	ND	ND	ND	ND	ND	ND
69674	2018-01-09T01:00:00	ND	ND	ND	ND	ND	ND	ND	ND	ND	ND	ND	ND
69675	2018-01-09T02:00:00	ND	ND	ND	ND	ND	ND	ND	ND	ND	ND	ND	ND
69676	2018-01-09T03:00:00	ND	ND	ND	ND	ND	ND	ND	ND	ND	ND	ND	ND
69677	2018-01-09T04:00:00	ND	ND	ND	ND	ND	ND	ND	ND	ND	ND	ND	ND
69678	2018-01-09T05:00:00	ND	ND	ND	ND	ND	ND	ND	ND	ND	ND	ND	ND
69679	2018-01-09T06:00:00	ND	ND	ND	ND	ND	ND	ND	ND	ND	ND	ND	ND
69680	2018-01-09T07:00:00	ND	ND	ND	ND	ND	ND	ND	ND	ND	ND	ND	ND
69681	2018-01-09T08:00:00	ND	ND	ND	ND	ND	ND	ND	ND	ND	ND	ND	ND
69682	2018-01-09T09:00:00	51	ND	ND	ND	2.564779387	7.92798364	ND	ND	ND	ND	584.9	0
69683	2018-01-09T10:00:00	50.8	ND	ND	ND	4.209583558	14.91402863	ND	ND	ND	ND	647.6	0
69684	2018-01-09T11:00:00	62.2	ND	ND	ND	2.467206258	ND	ND	ND	ND	ND	647.1	0
69685	2018-01-09T12:00:00	45.8	ND	ND	ND	ND	22.48878528	ND	ND	ND	ND	637.5	0
69686	2018-01-09T13:00:00	58.3	ND	ND	ND	4.89259546	14.48230675	ND	ND	ND	ND	504.8	0
69687	2018-01-09T14:00:00	54.2	ND	ND	ND	5.728936564	23.92131697	ND	ND	ND	ND	649.4	0
69688	2018-01-09T15:00:00	37.9	ND	ND	ND	4.599876074	29.5925726	ND	ND	ND	ND	649.3	0
69689	2018-01-09T16:00:00	10.2	ND	ND	ND	4.571998037	32.3791411	ND	ND	ND	ND	434	0
69690	2018-01-09T17:00:00	3	ND	ND	ND	4.948351534	25.471591	ND	ND	ND	ND	163.4	0
69691	2018-01-09T18:00:00	11.6	ND	ND	ND	4.781083313	14.4430593	ND	ND	ND	ND	23.2	0
69692	2018-01-09T19:00:00	29	ND	ND	ND	5.659241472	8.261586912	ND	ND	ND	ND	0	1.02
69693	2018-01-09T20:00:00	15.1	ND	ND	ND	6.314375337	6.652441718	ND	ND	ND	ND	0	0.51
69694	2018-01-09T21:00:00	21.9	ND	ND	ND	5.631363436	4.748940695	ND	ND	ND	ND	0	1.52
69695	2018-01-09T22:00:00	17.4	ND	ND	ND	6.161046135	2.138985685	ND	ND	ND	ND	0	0.25
69696	2018-01-09T23:00:00	29.7	ND	ND	ND	5.491973252	1.825006135	ND	ND	ND	ND	0	0
69697	2018-01-10T00:00:00	38.4	ND	ND	ND	6.579216687	1.216670757	ND	ND	ND	ND	0	0.25
69698	2018-01-10T01:00:00	32.9	ND	ND	ND	6.913753129	3.689259714	ND	ND	ND	ND	0	0
69699	2018-01-10T02:00:00	22.8	ND	ND	ND	6.105290061	6.024482618	ND	ND	ND	ND	0	0
69700	2018-01-10T03:00:00	22.6	ND	ND	ND	7.16465546	3.375280164	ND	ND	ND	ND	0	0
69701	2018-01-10T04:00:00	21.8	ND	ND	ND	4.976229571	3.807002045	ND	ND	ND	ND	0	0
69702	2018-01-10T05:00:00	13.2	ND	ND	ND	5.603485399	4.37608998	ND	ND	ND	ND	0	0
69703	2018-01-10T06:00:00	24	ND	ND	ND	5.547729325	1.059680982	ND	ND	ND	ND	0	0
69704	2018-01-10T07:00:00	55.7	ND	ND	ND	6.091351043	1.177423313	ND	ND	ND	ND	11	0
69705	2018-01-10T08:00:00	54.7	ND	ND	ND	5.045924663	1.079304703	ND	ND	ND	ND	82	0
69706	2018-01-10T09:00:00	52.8	ND	ND	ND	6.73254589	3.414527607	ND	ND	ND	ND	436.8	0
69707	2018-01-10T10:00:00	76.6	ND	ND	ND	4.822900368	3.296785276	ND	ND	ND	ND	268.4	0
69708	2018-01-10T11:00:00	63	ND	ND	ND	6.244680245	20.42829448	ND	ND	ND	ND	648.7	0
69709	2018-01-10T12:00:00	64.2	ND	ND	ND	6.230741227	50.19748057	ND	ND	ND	ND	624.9	0
69710	2018-01-10T13:00:00	34.1	ND	ND	ND	6.258619264	39.12970143	ND	ND	ND	ND	626.8	0
69711	2018-01-10T14:00:00	18.4	ND	ND	ND	5.380461104	48.07811861	ND	ND	ND	ND	644.7	0
69712	2018-01-10T15:00:00	19.3	ND	ND	ND	6.411948466	76.88574233	ND	ND	ND	ND	649.7	0
69713	2018-01-10T16:00:00	23.1	ND	ND	ND	5.24107092	55.39776687	ND	ND	ND	ND	571.1	0
69714	2018-01-10T17:00:00	68.1	ND	ND	ND	5.826509693	46.35123108	ND	ND	ND	ND	253.3	0
69715	2018-01-10T18:00:00	75.9	ND	ND	ND	5.631363436	19.15275256	ND	ND	ND	ND	90.1	0
69716	2018-01-10T19:00:00	23.3	ND	ND	ND	5.394400123	9.321267894	ND	ND	ND	ND	4.2	0
69717	2018-01-10T20:00:00	11.9	ND	ND	ND	6.718606871	7.967231084	ND	ND	ND	ND	0	0
69718	2018-01-10T21:00:00	16.4	ND	ND	ND	5.310766012	4.356466258	ND	ND	ND	ND	0	0
69719	2018-01-10T22:00:00	28	ND	ND	ND	7.136777423	1.66801636	ND	ND	ND	ND	0	0
69720	2018-01-10T23:00:00	47.8	ND	ND	ND	6.523460613	0.961562372	ND	ND	ND	ND	0	0
69721	2018-01-11T00:00:00	55.7	ND	ND	ND	6.662850798	1.177423313	ND	ND	ND	ND	0	0
69722	2018-01-11T01:00:00	49.7	ND	ND	ND	7.08102135	7.417766871	ND	ND	ND	ND	0	0
69723	2018-01-11T02:00:00	29.3	ND	ND	ND	5.255009939	5.730126789	ND	ND	ND	ND	0	0
69724	2018-01-11T03:00:00	55.5	ND	ND	ND	6.955570184	0.765325153	ND	ND	ND	ND	0	0
69725	2018-01-11T04:00:00	60.5	ND	ND	ND	6.411948466	1.314789366	ND	ND	ND	ND	0	0
69726	2018-01-11T05:00:00	45.5	ND	ND	ND	6.885875092	1.177423313	ND	ND	ND	ND	0	0
69727	2018-01-11T06:00:00	28.3	ND	ND	ND	5.561668344	0.961562372	ND	ND	ND	ND	0	0
69728	2018-01-11T07:00:00	50.5	ND	ND	ND	5.93802184	0.922314928	ND	ND	ND	ND	44.4	0
69729	2018-01-11T08:00:00	48.6	ND	ND	ND	4.822900368	1.825006135	ND	ND	ND	ND	351.5	0
69730	2018-01-11T09:00:00	89.8	ND	ND	ND	6.648911779	4.886306748	ND	ND	ND	ND	643.3	0
69731	2018-01-11T10:00:00	158.8	ND	ND	ND	6.495582577	20.76189775	ND	ND	ND	ND	649	0
69732	2018-01-11T11:00:00	142.9	ND	ND	ND	5.004107607	55.59400409	ND	ND	ND	ND	646.9	0
69733	2018-01-11T12:00:00	96.5	ND	ND	ND	5.77075362	68.93813497	ND	ND	ND	ND	646.7	0
69734	2018-01-11T13:00:00	80.6	ND	ND	ND	5.42227816	85.22582413	ND	ND	ND	ND	649.4	0
69735	2018-01-11T14:00:00	60.4	ND	ND	ND	5.645302454	88.05164008	ND	ND	ND	ND	634.6	0
69736	2018-01-11T15:00:00	60.1	ND	ND	ND	4.669571166	67.91770143	ND	ND	ND	ND	528.9	0
69737	2018-01-11T16:00:00	36.5	ND	ND	ND	4.948351534	21.48797546	ND	ND	ND	ND	646.6	0
69738	2018-01-11T17:00:00	25.4	ND	ND	ND	4.070193374	19.25087117	ND	ND	ND	ND	528.6	0
69739	2018-01-11T18:00:00	23.1	ND	ND	ND	5.910143804	13.16751738	ND	ND	ND	ND	143.2	0
69740	2018-01-11T19:00:00	35.6	ND	ND	ND	5.268948957	27.59095297	ND	ND	ND	ND	0	0
69741	2018-01-11T20:00:00	60.6	ND	ND	ND	6.662850798	17.83796319	ND	ND	ND	ND	0	0
69742	2018-01-11T21:00:00	44.7	ND	ND	ND	7.86160638	5.867492843	ND	ND	ND	ND	0	0
69743	2018-01-11T22:00:00	77.3	ND	ND	ND	6.89981411	7.967231084	ND	ND	ND	ND	0	0
69744	2018-01-11T23:00:00	74.1	ND	ND	ND	7.457374847	3.65001227	ND	ND	ND	ND	0	0
69745	2018-01-12T00:00:00	84.3	ND	ND	ND	6.20286319	2.354846626	ND	ND	ND	ND	0	0
69746	2018-01-12T01:00:00	74	ND	ND	ND	6.342253374	1.334413088	ND	ND	ND	ND	0	0
69747	2018-01-12T02:00:00	79.6	ND	ND	ND	6.509521595	0.981186094	ND	ND	ND	ND	0	0
69748	2018-01-12T03:00:00	80.1	ND	ND	ND	7.791911288	1.314789366	ND	ND	ND	ND	0	0
69749	2018-01-12T04:00:00	71.7	ND	ND	ND	5.673180491	1.2559182	ND	ND	ND	ND	0	0
69750	2018-01-12T05:00:00	42.1	ND	ND	ND	6.607094724	0.961562372	ND	ND	ND	ND	0	0
69751	2018-01-12T06:00:00	55.9	ND	ND	ND	4.976229571	0.824196319	ND	ND	ND	ND	0	0
69752	2018-01-12T07:00:00	65.1	ND	ND	ND	6.523460613	0.863443763	ND	ND	ND	ND	41.2	0
69753	2018-01-12T08:00:00	91.2	ND	ND	ND	6.021655951	1.314789366	ND	ND	ND	ND	249.2	0
69754	2018-01-12T09:00:00	108.9	ND	ND	ND	5.185314847	3.846249489	ND	ND	ND	ND	522.9	0
69755	2018-01-12T10:00:00	130.7	ND	ND	ND	6.676789816	6.809431493	ND	ND	ND	ND	529.1	0
69756	2018-01-12T11:00:00	124.7	ND	ND	ND	2.481145276	11.14627403	ND	ND	ND	ND	606.1	0
69757	2018-01-12T12:00:00	101.8	ND	ND	ND	1.324206748	37.77566462	ND	ND	ND	ND	649.5	0
69758	2018-01-12T13:00:00	72.5	ND	ND	ND	2.690230552	47.99962372	ND	ND	ND	ND	649.7	0
69759	2018-01-12T14:00:00	48	ND	ND	ND	5.101680736	39.97352147	ND	ND	ND	ND	649.3	0
69760	2018-01-12T15:00:00	38.2	ND	ND	ND	6.384070429	33.3603272	ND	ND	ND	ND	462.8	8.13
69761	2018-01-12T16:00:00	51	ND	ND	ND	7.178594479	10.49869121	ND	ND	ND	ND	250.5	25.65
69762	2018-01-12T17:00:00	30.7	ND	ND	ND	5.617424417	4.062110429	ND	ND	ND	ND	249.9	0.25
69763	2018-01-12T18:00:00	45.4	ND	ND	ND	4.223522577	4.493832311	ND	ND	ND	ND	131.2	0
69764	2018-01-12T19:00:00	31.5	ND	ND	ND	5.143497791	3.179042945	ND	ND	ND	ND	0	0
69765	2018-01-12T20:00:00	23.9	ND	ND	ND	3.568388712	3.355656442	ND	ND	ND	ND	0	0
69766	2018-01-12T21:00:00	19.6	ND	ND	ND	3.84716908	4.003239264	ND	ND	ND	ND	0	0
69767	2018-01-12T22:00:00	19.4	ND	ND	ND	5.366522086	1.079304703	ND	ND	ND	ND	0	0
69768	2018-01-12T23:00:00	42.5	ND	ND	ND	6.356192393	2.649202454	ND	ND	ND	ND	0	0
69769	2018-01-13T00:00:00	53.7	ND	ND	ND	5.004107607	5.278781186	ND	ND	ND	ND	0	0
69770	2018-01-13T01:00:00	32	ND	ND	ND	4.571998037	3.316408998	ND	ND	ND	ND	0	0
69771	2018-01-13T02:00:00	26.9	ND	ND	ND	6.147107117	2.217480573	ND	ND	ND	ND	0	0
69772	2018-01-13T03:00:00	29.5	ND	ND	ND	5.701058528	1.334413088	ND	ND	ND	ND	0	0
69773	2018-01-13T04:00:00	49.4	ND	ND	ND	6.509521595	1.197047035	ND	ND	ND	ND	0	0
69774	2018-01-13T05:00:00	54.7	ND	ND	ND	6.439826503	1.373660532	ND	ND	ND	ND	0	0
69775	2018-01-13T06:00:00	49.4	ND	ND	ND	8.82339865	1.2559182	ND	ND	ND	ND	0	0
69776	2018-01-13T07:00:00	52.5	ND	ND	ND	6.216802209	1.236294479	ND	ND	ND	ND	29.7	0
69777	2018-01-13T08:00:00	74.5	ND	ND	ND	7.039204294	1.35403681	ND	ND	ND	ND	205.5	0
69778	2018-01-13T09:00:00	108	ND	ND	ND	7.122838405	3.689259714	ND	ND	ND	ND	501.1	0
69779	2018-01-13T10:00:00	84.8	ND	ND	ND	5.018046626	23.01862577	ND	ND	ND	ND	648.8	0
69780	2018-01-13T11:00:00	75.5	ND	ND	ND	4.516241963	44.05525562	ND	ND	ND	ND	640.2	0
69781	2018-01-13T12:00:00	85	ND	ND	ND	5.310766012	56.67330879	ND	ND	ND	ND	648.2	0
69782	2018-01-13T13:00:00	72.8	ND	ND	ND	4.028376319	66.91689162	ND	ND	ND	ND	614.8	0
69783	2018-01-13T14:00:00	59.7	ND	ND	ND	4.251400613	39.40443354	ND	ND	ND	ND	587.1	0
69784	2018-01-13T15:00:00	25.6	ND	ND	ND	5.687119509	21.11512474	ND	ND	ND	ND	648.2	0
69785	2018-01-13T16:00:00	3.8	ND	ND	ND	5.812570675	24.11755419	ND	ND	ND	ND	609.3	0
69786	2018-01-13T17:00:00	26.6	ND	ND	ND	5.603485399	10.96966053	ND	ND	ND	ND	103.1	9.4
69787	2018-01-13T18:00:00	34.7	ND	ND	ND	4.516241963	6.25996728	ND	ND	ND	ND	22.6	0.76
69788	2018-01-13T19:00:00	39.7	ND	ND	ND	5.031985644	3.748130879	ND	ND	ND	ND	0	2.03
69789	2018-01-13T20:00:00	38.8	ND	ND	ND	4.558059018	2.217480573	ND	ND	ND	ND	0	3.3
69790	2018-01-13T21:00:00	30.5	ND	ND	ND	5.255009939	1.785758691	ND	ND	ND	ND	0	2.54
69791	2018-01-13T22:00:00	32.5	ND	ND	ND	5.282887975	1.609145194	ND	ND	ND	ND	0	2.54
69792	2018-01-13T23:00:00	16	ND	ND	ND	5.645302454	1.883877301	ND	ND	ND	ND	0	0
69793	2018-01-14T00:00:00	21.9	ND	ND	ND	5.15743681	1.079304703	ND	ND	ND	ND	0	0.25
69794	2018-01-14T01:00:00	27.7	ND	ND	ND	6.077412025	1.157799591	ND	ND	ND	ND	0	0
69795	2018-01-14T02:00:00	23.3	ND	ND	ND	5.659241472	1.079304703	ND	ND	ND	ND	0	0
69796	2018-01-14T03:00:00	18.5	ND	ND	ND	6.73254589	1.138175869	ND	ND	ND	ND	0	0
69797	2018-01-14T04:00:00	25.5	ND	ND	ND	4.934412515	0.922314928	ND	ND	ND	ND	0	0
69798	2018-01-14T05:00:00	21.2	ND	ND	ND	5.268948957	0.883067485	ND	ND	ND	ND	0	0
69799	2018-01-14T06:00:00	31.2	ND	ND	ND	6.411948466	1.098928425	ND	ND	ND	ND	0	0
69800	2018-01-14T07:00:00	38.6	ND	ND	ND	5.450156196	1.334413088	ND	ND	ND	ND	66.4	0
69801	2018-01-14T08:00:00	34.4	ND	ND	ND	5.533790307	1.609145194	ND	ND	ND	ND	320.7	0
69802	2018-01-14T09:00:00	64.6	ND	ND	ND	7.387679755	3.080924335	ND	ND	ND	ND	454.3	0
69803	2018-01-14T10:00:00	76.1	ND	ND	ND	6.593155706	14.95327607	ND	ND	ND	ND	645.3	0
69804	2018-01-14T11:00:00	59.2	ND	ND	ND	4.990168589	32.28102249	ND	ND	ND	ND	649	0
69805	2018-01-14T12:00:00	42.5	ND	ND	ND	4.641693129	44.58509611	ND	ND	ND	ND	649.3	0
69806	2018-01-14T13:00:00	40.3	ND	ND	ND	5.687119509	50.13860941	ND	ND	ND	ND	649.6	0
69807	2018-01-14T14:00:00	41.6	ND	ND	ND	5.296826994	48.23510838	ND	ND	ND	ND	508.5	0
69808	2018-01-14T15:00:00	36.7	ND	ND	ND	4.836839387	40.69959918	ND	ND	ND	ND	216.7	50.55
69809	2018-01-14T16:00:00	23.3	ND	ND	ND	5.213192883	24.51002863	ND	ND	ND	ND	21.1	43.69
69810	2018-01-14T17:00:00	ND	ND	ND	ND	6.830119018	3.807002045	ND	ND	ND	ND	88.6	7.62
69811	2018-01-14T18:00:00	27	ND	ND	ND	6.147107117	1.138175869	ND	ND	ND	ND	110.3	0.25
69812	2018-01-14T19:00:00	45.6	ND	ND	ND	6.495582577	1.609145194	ND	ND	ND	ND	0	0
69813	2018-01-14T20:00:00	23.5	ND	ND	ND	6.063473006	1.138175869	ND	ND	ND	ND	0	0
69814	2018-01-14T21:00:00	29.9	ND	ND	ND	7.945240491	1.138175869	ND	ND	ND	ND	0	0
69815	2018-01-14T22:00:00	37.8	ND	ND	ND	7.69433816	1.275541922	ND	ND	ND	ND	0	0
69816	2018-01-14T23:00:00	39.2	ND	ND	ND	5.924082822	0.961562372	ND	ND	ND	ND	0	0
69817	2018-01-15T00:00:00	40.3	ND	ND	ND	6.648911779	0.843820041	ND	ND	ND	ND	0	0
69818	2018-01-15T01:00:00	24.5	ND	ND	ND	5.199253865	0.883067485	ND	ND	ND	ND	0	0
69819	2018-01-15T02:00:00	32.4	ND	ND	ND	6.453765521	1.059680982	ND	ND	ND	ND	0	0
69820	2018-01-15T03:00:00	42.1	ND	ND	ND	6.844058037	1.020433538	ND	ND	ND	ND	0	0
69821	2018-01-15T04:00:00	57.2	ND	ND	ND	7.08102135	1.138175869	ND	ND	ND	ND	0	0
69822	2018-01-15T05:00:00	58.9	ND	ND	ND	8.307654969	1.138175869	ND	ND	ND	ND	0	0
69823	2018-01-15T06:00:00	50.8	ND	ND	ND	4.976229571	1.197047035	ND	ND	ND	ND	0	0
69824	2018-01-15T07:00:00	77.5	ND	ND	ND	6.077412025	1.177423313	ND	ND	ND	ND	60.5	0
69825	2018-01-15T08:00:00	112.8	ND	ND	ND	7.722216196	1.35403681	ND	ND	ND	ND	345.4	0
69826	2018-01-15T09:00:00	133.5	ND	ND	ND	9.199752147	2.29597546	ND	ND	ND	ND	631.6	0
69827	2018-01-15T10:00:00	128.6	ND	ND	ND	6.11922908	12.77504294	ND	ND	ND	ND	647.7	0
69828	2018-01-15T11:00:00	82.1	ND	ND	ND	4.767144294	22.92050716	ND	ND	ND	ND	648.4	0
69829	2018-01-15T12:00:00	56.7	ND	ND	ND	3.15021816	37.97190184	ND	ND	ND	ND	648.3	0
69830	2018-01-15T13:00:00	52.9	ND	ND	ND	3.721717914	41.62191411	ND	ND	ND	ND	648.4	0
69831	2018-01-15T14:00:00	40.5	ND	ND	ND	5.213192883	50.07973824	ND	ND	ND	ND	600.7	0
69832	2018-01-15T15:00:00	26.2	ND	ND	ND	5.42227816	31.14284663	ND	ND	ND	ND	612.1	0
69833	2018-01-15T16:00:00	38.7	ND	ND	ND	3.805352025	25.824818	ND	ND	ND	ND	269.3	0
69834	2018-01-15T17:00:00	55.1	ND	ND	ND	4.209583558	10.79304703	ND	ND	ND	ND	144.3	0
69835	2018-01-15T18:00:00	38.9	ND	ND	ND	4.781083313	4.297595092	ND	ND	ND	ND	160.6	3.05
69836	2018-01-15T19:00:00	56.1	ND	ND	ND	5.310766012	1.648392638	ND	ND	ND	ND	0	0.51
69837	2018-01-15T20:00:00	39.8	ND	ND	ND	4.976229571	1.334413088	ND	ND	ND	ND	0	4.32
69838	2018-01-15T21:00:00	33.5	ND	ND	ND	6.857997055	1.452155419	ND	ND	ND	ND	0	3.05
69839	2018-01-15T22:00:00	37.5	ND	ND	ND	7.108899387	1.295165644	ND	ND	ND	ND	0	0.51
69840	2018-01-15T23:00:00	28.9	ND	ND	ND	5.394400123	1.491402863	ND	ND	ND	ND	0	1.27
69841	2018-01-16T00:00:00	26.5	ND	ND	ND	7.067082331	1.138175869	ND	ND	ND	ND	0	0
69842	2018-01-16T01:00:00	12.5	ND	ND	ND	5.77075362	1.569897751	ND	ND	ND	ND	0	0
69843	2018-01-16T02:00:00	23.9	ND	ND	ND	5.143497791	2.315599182	ND	ND	ND	ND	0	0
69844	2018-01-16T03:00:00	15	ND	ND	ND	5.24107092	4.062110429	ND	ND	ND	ND	0	0
69845	2018-01-16T04:00:00	6.8	ND	ND	ND	6.439826503	7.712122699	ND	ND	ND	ND	0	0.25
69846	2018-01-16T05:00:00	9.8	ND	ND	ND	5.324705031	3.944368098	ND	ND	ND	ND	0	0
69847	2018-01-16T06:00:00	7	ND	ND	ND	6.007716933	1.550274029	ND	ND	ND	ND	0	0
69848	2018-01-16T07:00:00	27.2	ND	ND	ND	5.882265767	1.118552147	ND	ND	ND	ND	40.3	0
69849	2018-01-16T08:00:00	40.3	ND	ND	ND	5.045924663	1.825006135	ND	ND	ND	ND	219.6	0
69850	2018-01-16T09:00:00	49.4	ND	ND	ND	3.735656933	4.258347648	ND	ND	ND	ND	561.3	0.25
69851	2018-01-16T10:00:00	69	ND	ND	ND	7.206472515	17.58285481	ND	ND	ND	ND	126.1	0
69852	2018-01-16T11:00:00	89.2	ND	ND	ND	4.000498282	21.91969734	ND	ND	ND	ND	9.1	0
69853	2018-01-16T12:00:00	69.2	ND	ND	ND	5.310766012	31.57456851	ND	ND	ND	ND	8.8	0
69854	2018-01-16T13:00:00	64.2	ND	ND	ND	7.234350552	36.73560736	ND	ND	ND	ND	8.9	0
69855	2018-01-16T14:00:00	49.5	ND	ND	ND	4.781083313	38.34475256	ND	ND	ND	ND	8.6	0
69856	2018-01-16T15:00:00	46.4	ND	ND	ND	4.237461595	27.63020041	ND	ND	ND	ND	8.4	0
69857	2018-01-16T16:00:00	61.3	ND	ND	ND	4.112010429	17.79871575	ND	ND	ND	ND	8.3	0
69858	2018-01-16T17:00:00	50.5	ND	ND	ND	2.35569411	10.0473456	ND	ND	ND	ND	8.5	0.76
69859	2018-01-16T18:00:00	31.1	ND	ND	ND	5.826509693	5.337652352	ND	ND	ND	ND	ND	3.81
69860	2018-01-16T19:00:00	44.1	ND	ND	ND	2.927193865	1.66801636	ND	ND	ND	ND	ND	0
69861	2018-01-16T20:00:00	38.2	ND	ND	ND	5.798631656	1.334413088	ND	ND	ND	ND	ND	0
69862	2018-01-16T21:00:00	55.8	ND	ND	ND	3.875047117	2.39409407	ND	ND	ND	ND	ND	0
69863	2018-01-16T22:00:00	60.9	ND	ND	ND	5.227131902	1.020433538	ND	ND	ND	ND	ND	0
69864	2018-01-16T23:00:00	57.8	ND	ND	ND	4.753205276	0.883067485	ND	ND	ND	ND	ND	0
69865	2018-01-17T00:00:00	57.6	ND	ND	ND	5.673180491	1.000809816	ND	ND	ND	ND	ND	0
69866	2018-01-17T01:00:00	60.3	ND	ND	ND	6.244680245	0.883067485	ND	ND	ND	ND	ND	0
69867	2018-01-17T02:00:00	30.6	ND	ND	ND	5.714997546	1.314789366	ND	ND	ND	ND	ND	0
69868	2018-01-17T03:00:00	19.1	ND	ND	ND	5.714997546	0.686830266	ND	ND	ND	ND	ND	0
69869	2018-01-17T04:00:00	33.7	ND	ND	ND	7.08102135	0.843820041	ND	ND	ND	ND	ND	0
69870	2018-01-17T05:00:00	37.6	ND	ND	ND	3.15021816	0.784948875	ND	ND	ND	ND	ND	0
69871	2018-01-17T06:00:00	49.4	ND	ND	ND	6.370131411	0.883067485	ND	ND	ND	ND	ND	0
69872	2018-01-17T07:00:00	61.5	ND	ND	ND	6.300436319	1.079304703	ND	ND	ND	ND	ND	0
69873	2018-01-17T08:00:00	70.1	ND	ND	ND	6.704667853	1.020433538	ND	ND	ND	ND	ND	0
69874	2018-01-17T09:00:00	115.9	ND	ND	ND	6.704667853	1.530650307	ND	ND	ND	ND	ND	0
69875	2018-01-17T10:00:00	128.7	ND	ND	ND	5.603485399	2.39409407	ND	ND	ND	ND	ND	0
69876	2018-01-17T11:00:00	114.9	ND	ND	ND	6.133168098	15.36537423	ND	ND	ND	ND	ND	0
69877	2018-01-17T12:00:00	91.6	ND	ND	ND	5.50591227	28.47402045	ND	ND	ND	ND	ND	0
69878	2018-01-17T13:00:00	81.8	ND	ND	ND	4.753205276	44.70283845	ND	ND	ND	ND	ND	0
69879	2018-01-17T14:00:00	48.6	ND	ND	ND	4.711388221	56.7714274	ND	ND	ND	ND	ND	0
69880	2018-01-17T15:00:00	57.5	ND	ND	ND	4.878656442	66.28893252	ND	ND	ND	ND	ND	0
69881	2018-01-17T16:00:00	51.5	ND	ND	ND	7.011326258	40.99395501	ND	ND	ND	ND	ND	0
69882	2018-01-17T17:00:00	60	ND	ND	ND	5.561668344	9.537128834	ND	ND	ND	ND	ND	0
69883	2018-01-17T18:00:00	48.3	ND	ND	ND	4.62775411	5.435770961	ND	ND	ND	ND	ND	0
69884	2018-01-17T19:00:00	58.2	ND	ND	ND	5.826509693	1.275541922	ND	ND	ND	ND	ND	0
69885	2018-01-17T20:00:00	58.6	ND	ND	ND	5.519851288	1.118552147	ND	ND	ND	ND	ND	0
69886	2018-01-17T21:00:00	32.1	ND	ND	ND	5.282887975	2.197856851	ND	ND	ND	ND	ND	0
69887	2018-01-17T22:00:00	48.8	ND	ND	ND	6.133168098	3.061300613	ND	ND	ND	ND	ND	0
69888	2018-01-17T23:00:00	56.2	ND	ND	ND	5.50591227	4.297595092	ND	ND	ND	ND	ND	0
69889	2018-01-18T00:00:00	43.8	ND	ND	ND	6.384070429	1.628768916	ND	ND	ND	ND	ND	0
69890	2018-01-18T01:00:00	45.9	ND	ND	ND	5.993777914	1.236294479	ND	ND	ND	ND	ND	0
69891	2018-01-18T02:00:00	38.2	ND	ND	ND	5.059863681	3.355656442	ND	ND	ND	ND	ND	0
69892	2018-01-18T03:00:00	22.6	ND	ND	ND	7.638582086	2.806192229	ND	ND	ND	ND	ND	0
69893	2018-01-18T04:00:00	24.1	ND	ND	ND	6.314375337	0.981186094	ND	ND	ND	ND	ND	0
69894	2018-01-18T05:00:00	41.1	ND	ND	ND	4.976229571	1.883877301	ND	ND	ND	ND	ND	0
69895	2018-01-18T06:00:00	50.3	ND	ND	ND	7.568886994	0.667206544	ND	ND	ND	ND	ND	0
69896	2018-01-18T07:00:00	76.3	ND	ND	ND	6.509521595	0.883067485	ND	ND	ND	ND	ND	0
69897	2018-01-18T08:00:00	72.4	ND	ND	ND	7.192533497	1.079304703	ND	ND	ND	ND	ND	0
69898	2018-01-18T09:00:00	98.9	ND	ND	ND	6.258619264	2.590331288	ND	ND	ND	ND	ND	0
69899	2018-01-18T10:00:00	104.3	ND	ND	ND	5.896204785	5.828245399	ND	ND	ND	ND	ND	0
69900	2018-01-18T11:00:00	69.3	ND	ND	ND	5.101680736	13.28525971	ND	ND	ND	ND	ND	0
69901	2018-01-18T12:00:00	54.7	ND	ND	ND	4.934412515	23.96056442	ND	ND	ND	ND	ND	0
69902	2018-01-18T13:00:00	59.3	ND	ND	ND	4.139888466	42.74046626	ND	ND	ND	ND	ND	0
69903	2018-01-18T14:00:00	62.1	ND	ND	ND	4.014437301	39.95389775	ND	ND	ND	ND	ND	0
69904	2018-01-18T15:00:00	48.2	ND	ND	ND	5.296826994	54.259591	ND	ND	ND	ND	ND	0
69905	2018-01-18T16:00:00	42.4	ND	ND	ND	5.519851288	23.86244581	ND	ND	ND	ND	ND	0
69906	2018-01-18T17:00:00	25.1	ND	ND	ND	6.161046135	14.18795092	ND	ND	ND	ND	ND	0
69907	2018-01-18T18:00:00	31	ND	ND	ND	6.133168098	10.28283027	ND	ND	ND	ND	ND	0
69908	2018-01-18T19:00:00	20.5	ND	ND	ND	6.342253374	6.436580777	ND	ND	ND	ND	ND	0
69909	2018-01-18T20:00:00	27	ND	ND	ND	5.519851288	2.649202454	ND	ND	ND	ND	ND	0
69910	2018-01-18T21:00:00	12.7	ND	ND	ND	5.728936564	4.062110429	ND	ND	ND	ND	ND	0
69911	2018-01-18T22:00:00	37.5	ND	ND	ND	5.910143804	1.197047035	ND	ND	ND	ND	ND	0
69912	2018-01-18T23:00:00	65	ND	ND	ND	7.485252883	1.197047035	ND	ND	ND	ND	ND	0
69913	2018-01-19T00:00:00	59.8	ND	ND	ND	6.411948466	1.216670757	ND	ND	ND	ND	ND	0
69914	2018-01-19T01:00:00	42	ND	ND	ND	5.645302454	1.020433538	ND	ND	ND	ND	ND	0
69915	2018-01-19T02:00:00	41	ND	ND	ND	5.199253865	1.314789366	ND	ND	ND	ND	ND	0
69916	2018-01-19T03:00:00	41.9	ND	ND	ND	5.171375828	3.532269939	ND	ND	ND	ND	ND	0
69917	2018-01-19T04:00:00	42.5	ND	ND	ND	5.979838896	2.786568507	ND	ND	ND	ND	ND	0
69918	2018-01-19T05:00:00	35.3	ND	ND	ND	5.784692638	1.746511247	ND	ND	ND	ND	ND	0
69919	2018-01-19T06:00:00	45.6	ND	ND	ND	5.282887975	1.04005726	ND	ND	ND	ND	ND	0
69920	2018-01-19T07:00:00	62.3	ND	ND	ND	5.255009939	1.04005726	ND	ND	ND	ND	ND	0
69921	2018-01-19T08:00:00	76.4	ND	ND	ND	5.742875583	1.452155419	ND	ND	ND	ND	ND	0
69922	2018-01-19T09:00:00	90.5	ND	ND	ND	4.502302945	6.809431493	ND	ND	ND	ND	ND	0
69923	2018-01-19T10:00:00	56.6	ND	ND	ND	5.268948957	19.38823722	ND	ND	ND	ND	ND	0
69924	2018-01-19T11:00:00	63.2	ND	ND	ND	5.659241472	30.47564008	ND	ND	ND	ND	ND	0
69925	2018-01-19T12:00:00	55	ND	ND	ND	5.129558773	57.90960327	ND	ND	ND	ND	ND	0
69926	2018-01-19T13:00:00	51.9	ND	ND	ND	3.373242454	95.19467485	ND	ND	ND	ND	ND	0
69927	2018-01-19T14:00:00	67.8	ND	ND	ND	4.850778405	100.7678119	ND	ND	ND	ND	ND	0
69928	2018-01-19T15:00:00	59.1	ND	ND	ND	4.585937055	94.27235992	ND	ND	ND	ND	ND	0
69929	2018-01-19T16:00:00	66	ND	ND	ND	3.219913252	44.54584867	ND	ND	ND	ND	ND	0
69930	2018-01-19T17:00:00	49.7	ND	ND	ND	4.697449202	12.06858896	ND	ND	ND	ND	ND	0
69931	2018-01-19T18:00:00	49.5	ND	ND	ND	5.603485399	7.633627812	ND	ND	ND	ND	ND	0
69932	2018-01-19T19:00:00	45.8	ND	ND	ND	5.255009939	6.122601227	ND	ND	ND	ND	ND	0
69933	2018-01-19T20:00:00	34.3	ND	ND	ND	4.836839387	8.065349693	ND	ND	ND	ND	ND	0
69934	2018-01-19T21:00:00	29.5	ND	ND	ND	4.781083313	5.31802863	ND	ND	ND	ND	ND	0
69935	2018-01-19T22:00:00	39.1	ND	ND	ND	5.24107092	2.276351738	ND	ND	ND	ND	ND	0
69936	2018-01-19T23:00:00	63.4	ND	ND	ND	5.687119509	1.962372188	ND	ND	ND	ND	ND	0
69937	2018-01-20T00:00:00	41.8	ND	ND	ND	5.756814601	3.414527607	ND	ND	ND	ND	ND	0
69938	2018-01-20T01:00:00	38	ND	ND	ND	5.631363436	1.2559182	ND	ND	ND	ND	ND	0
69939	2018-01-20T02:00:00	48.2	ND	ND	ND	5.868326748	1.020433538	ND	ND	ND	ND	ND	0
69940	2018-01-20T03:00:00	42.4	ND	ND	ND	6.565277669	1.079304703	ND	ND	ND	ND	ND	0
69941	2018-01-20T04:00:00	40.1	ND	ND	ND	4.558059018	0.961562372	ND	ND	ND	ND	ND	0
69942	2018-01-20T05:00:00	42.4	ND	ND	ND	7.624643067	0.922314928	ND	ND	ND	ND	ND	0
69943	2018-01-20T06:00:00	39.8	ND	ND	ND	5.059863681	0.981186094	ND	ND	ND	ND	ND	0
69944	2018-01-20T07:00:00	61.5	ND	ND	ND	5.965899877	1.098928425	ND	ND	ND	ND	ND	0
69945	2018-01-20T08:00:00	85.1	ND	ND	ND	6.035594969	1.530650307	ND	ND	ND	ND	ND	0
69946	2018-01-20T09:00:00	117.3	ND	ND	ND	8.321593988	2.472588957	ND	ND	ND	ND	ND	0
69947	2018-01-20T10:00:00	144.7	ND	ND	ND	5.93802184	9.439010225	ND	ND	ND	ND	ND	0
69948	2018-01-20T11:00:00	121.3	ND	ND	ND	6.035594969	33.0071002	ND	ND	ND	ND	ND	0
69949	2018-01-20T12:00:00	110.8	ND	ND	ND	5.840448712	45.31117382	ND	ND	ND	ND	ND	0
69950	2018-01-20T13:00:00	99.3	ND	ND	ND	4.62775411	54.67168916	ND	ND	ND	ND	ND	0
69951	2018-01-20T14:00:00	90.5	ND	ND	ND	6.174985153	47.68564417	ND	ND	ND	ND	ND	0
69952	2018-01-20T15:00:00	60.7	ND	ND	ND	5.227131902	59.2832638	ND	ND	ND	ND	ND	0
69953	2018-01-20T16:00:00	60.8	ND	ND	ND	3.23385227	48.80419632	ND	ND	ND	ND	ND	0
69954	2018-01-20T17:00:00	70.4	ND	ND	ND	4.502302945	58.75342331	ND	ND	ND	ND	ND	0
69955	2018-01-20T18:00:00	79.8	ND	ND	ND	5.366522086	52.47383231	ND	ND	ND	ND	ND	0
69956	2018-01-20T19:00:00	64.3	ND	ND	ND	4.795022331	6.515075665	ND	ND	ND	ND	ND	0
69957	2018-01-20T20:00:00	26.9	ND	ND	ND	5.15743681	5.651631902	ND	ND	ND	ND	ND	0
69958	2018-01-20T21:00:00	28.3	ND	ND	ND	5.059863681	2.040867076	ND	ND	ND	ND	ND	0
69959	2018-01-20T22:00:00	30.7	ND	ND	ND	5.087741718	1.805382413	ND	ND	ND	ND	ND	0
69960	2018-01-20T23:00:00	42.8	ND	ND	ND	5.868326748	1.864253579	ND	ND	ND	ND	ND	0
69961	2018-01-21T00:00:00	32.3	ND	ND	ND	4.725327239	1.942748466	ND	ND	ND	ND	ND	0
69962	2018-01-21T01:00:00	18.3	ND	ND	ND	5.868326748	4.042486708	ND	ND	ND	ND	ND	0
69963	2018-01-21T02:00:00	22.7	ND	ND	ND	6.188924172	1.844629857	ND	ND	ND	ND	ND	0
69964	2018-01-21T03:00:00	44.6	ND	ND	ND	6.077412025	0.824196319	ND	ND	ND	ND	ND	0
69965	2018-01-21T04:00:00	42.6	ND	ND	ND	7.401618773	0.72607771	ND	ND	ND	ND	ND	0
69966	2018-01-21T05:00:00	59	ND	ND	ND	6.885875092	1.236294479	ND	ND	ND	ND	ND	0
69967	2018-01-21T06:00:00	78.4	ND	ND	ND	5.115619755	0.824196319	ND	ND	ND	ND	ND	0
69968	2018-01-21T07:00:00	69.8	ND	ND	ND	5.268948957	1.098928425	ND	ND	ND	ND	ND	0
69969	2018-01-21T08:00:00	66.7	ND	ND	ND	6.844058037	4.827435583	ND	ND	ND	ND	ND	0
69970	2018-01-21T09:00:00	62	ND	ND	ND	5.547729325	10.30245399	ND	ND	ND	ND	ND	0
69971	2018-01-21T10:00:00	3.4	ND	ND	ND	5.603485399	22.09631084	ND	ND	ND	ND	ND	0
69972	2018-01-21T11:00:00	0.3	ND	ND	ND	5.756814601	37.85415951	ND	ND	ND	ND	ND	0
69973	2018-01-21T12:00:00	46.6	ND	ND	ND	5.394400123	49.37328425	ND	ND	ND	ND	ND	0
69974	2018-01-21T13:00:00	69.3	ND	ND	ND	6.857997055	59.4598773	ND	ND	ND	ND	ND	0
69975	2018-01-21T14:00:00	61.3	ND	ND	ND	6.035594969	76.10079346	ND	ND	ND	ND	ND	0
69976	2018-01-21T15:00:00	64.9	ND	ND	ND	6.216802209	66.81877301	ND	ND	ND	ND	ND	0
69977	2018-01-21T16:00:00	58	ND	ND	ND	4.404729816	38.61948466	ND	ND	ND	ND	ND	0
69978	2018-01-21T17:00:00	35.6	ND	ND	ND	5.965899877	34.00791002	ND	ND	ND	ND	ND	0
69979	2018-01-21T18:00:00	19.4	ND	ND	ND	6.314375337	22.97937832	ND	ND	ND	ND	ND	0
69980	2018-01-21T19:00:00	22.1	ND	ND	ND	7.053143313	17.58285481	ND	ND	ND	ND	ND	0
69981	2018-01-21T20:00:00	11.6	ND	ND	ND	5.561668344	14.52155419	ND	ND	ND	ND	ND	0
69982	2018-01-21T21:00:00	12.3	ND	ND	ND	5.478034233	9.497881391	ND	ND	ND	ND	ND	0
69983	2018-01-21T22:00:00	20.9	ND	ND	ND	6.746484908	5.94598773	ND	ND	ND	ND	ND	0
69984	2018-01-21T23:00:00	48.2	ND	ND	ND	6.091351043	1.216670757	ND	ND	ND	ND	ND	0
69985	2018-01-22T00:00:00	59.7	ND	ND	ND	4.753205276	2.629578732	ND	ND	ND	ND	ND	0
69986	2018-01-22T01:00:00	54.7	ND	ND	ND	5.464095215	5.082543967	ND	ND	ND	ND	ND	0
69987	2018-01-22T02:00:00	26.4	ND	ND	ND	6.216802209	5.239533742	ND	ND	ND	ND	ND	0
69988	2018-01-22T03:00:00	33	ND	ND	ND	8.21008184	4.454584867	ND	ND	ND	ND	ND	0
69989	2018-01-22T04:00:00	58.9	ND	ND	ND	6.286497301	4.27797137	ND	ND	ND	ND	ND	0
69990	2018-01-22T05:00:00	63.1	ND	ND	ND	7.108899387	1.569897751	ND	ND	ND	ND	ND	0
69991	2018-01-22T06:00:00	65.8	ND	ND	ND	5.965899877	1.079304703	ND	ND	ND	ND	ND	0
69992	2018-01-22T07:00:00	61.6	ND	ND	ND	6.621033742	1.373660532	ND	ND	ND	ND	ND	0
69993	2018-01-22T08:00:00	112	ND	ND	ND	9.116118037	1.726887526	ND	ND	ND	ND	ND	0
69994	2018-01-22T09:00:00	121.9	ND	ND	ND	7.499191902	4.219100204	ND	ND	ND	ND	ND	0
69995	2018-01-22T10:00:00	86.3	ND	ND	ND	7.136777423	8.595190184	ND	ND	ND	ND	ND	0
69996	2018-01-22T11:00:00	69.2	ND	ND	ND	5.073802699	17.07263804	ND	ND	ND	ND	ND	0
69997	2018-01-22T12:00:00	51.2	ND	ND	ND	5.464095215	22.84201227	ND	ND	ND	ND	ND	0
69998	2018-01-22T13:00:00	43.4	ND	ND	ND	6.523460613	44.15337423	ND	ND	ND	ND	ND	0
69999	2018-01-22T14:00:00	43.1	ND	ND	ND	5.004107607	53.10179141	ND	ND	ND	ND	ND	0
70000	2018-01-22T15:00:00	47.5	ND	ND	ND	4.920473497	24.27454397	ND	ND	ND	ND	ND	0
70001	2018-01-22T16:00:00	42.1	ND	ND	ND	5.882265767	11.91159918	ND	ND	ND	ND	ND	0
70002	2018-01-22T17:00:00	20.4	ND	ND	ND	4.167766503	16.95489571	ND	ND	ND	ND	ND	0
70003	2018-01-22T18:00:00	17.5	ND	ND	ND	4.62775411	8.752179959	ND	ND	ND	ND	ND	0
70004	2018-01-22T19:00:00	17.9	ND	ND	ND	3.540510675	5.200286299	ND	ND	ND	ND	ND	0
70005	2018-01-22T20:00:00	22.1	ND	ND	ND	5.812570675	2.452965235	ND	ND	ND	ND	ND	0
70006	2018-01-22T21:00:00	48.4	ND	ND	ND	5.171375828	4.003239264	ND	ND	ND	ND	ND	0
70007	2018-01-22T22:00:00	25.3	ND	ND	ND	5.004107607	8.497071575	ND	ND	ND	ND	ND	0
70008	2018-01-22T23:00:00	26.3	ND	ND	ND	7.220411534	3.905120654	ND	ND	ND	ND	ND	0
70009	2018-01-23T00:00:00	38.1	ND	ND	ND	5.924082822	1.785758691	ND	ND	ND	ND	ND	0
70010	2018-01-23T01:00:00	44	ND	ND	ND	7.875545399	1.569897751	ND	ND	ND	ND	ND	0
70011	2018-01-23T02:00:00	39	ND	ND	ND	6.035594969	2.982805726	ND	ND	ND	ND	ND	0
70012	2018-01-23T03:00:00	24.9	ND	ND	ND	4.321095706	3.748130879	ND	ND	ND	ND	ND	2.03
70013	2018-01-23T04:00:00	9.8	ND	ND	ND	8.948849816	1.903501022	ND	ND	ND	ND	ND	1.27
70014	2018-01-23T05:00:00	36.6	ND	ND	ND	7.652521104	1.216670757	ND	ND	ND	ND	ND	0.25
70015	2018-01-23T06:00:00	40.1	ND	ND	ND	6.857997055	1.275541922	ND	ND	ND	ND	ND	0
70016	2018-01-23T07:00:00	62.7	ND	ND	ND	5.58954638	1.275541922	ND	ND	ND	ND	ND	0
70017	2018-01-23T08:00:00	61.1	ND	ND	ND	6.244680245	1.511026585	ND	ND	ND	ND	ND	0
70018	2018-01-23T09:00:00	103.1	ND	ND	ND	6.272558282	1.942748466	ND	ND	ND	ND	ND	0
70019	2018-01-23T10:00:00	118.2	ND	ND	ND	6.760423926	6.868302658	ND	ND	ND	ND	ND	0
70020	2018-01-23T11:00:00	97.5	ND	ND	ND	5.742875583	27.10035992	ND	ND	ND	ND	ND	0
70021	2018-01-23T12:00:00	77	ND	ND	ND	5.979838896	48.25473211	ND	ND	ND	ND	ND	0
70022	2018-01-23T13:00:00	51	ND	ND	ND	6.495582577	52.78781186	ND	ND	ND	ND	ND	0
70023	2018-01-23T14:00:00	53	ND	ND	ND	4.265339632	54.37733333	ND	ND	ND	ND	ND	0
70024	2018-01-23T15:00:00	41.3	ND	ND	ND	5.268948957	42.62272393	ND	ND	ND	ND	ND	0
70025	2018-01-23T16:00:00	54	ND	ND	ND	5.338644049	27.13960736	ND	ND	ND	ND	ND	0
70026	2018-01-23T17:00:00	30.9	ND	ND	ND	4.683510184	18.01457669	ND	ND	ND	ND	ND	0
70027	2018-01-23T18:00:00	21.8	ND	ND	ND	4.502302945	9.988474438	ND	ND	ND	ND	ND	0
70028	2018-01-23T19:00:00	3.4	ND	ND	ND	4.46048589	4.533079755	ND	ND	ND	ND	ND	0
70029	2018-01-23T20:00:00	6.4	ND	ND	ND	4.711388221	5.141415133	ND	ND	ND	ND	ND	0
70030	2018-01-23T21:00:00	19.1	ND	ND	ND	4.795022331	6.436580777	ND	ND	ND	ND	ND	0
70031	2018-01-23T22:00:00	23.2	ND	ND	ND	4.19564454	3.905120654	ND	ND	ND	ND	ND	0
70032	2018-01-23T23:00:00	49.6	ND	ND	ND	6.063473006	1.491402863	ND	ND	ND	ND	ND	0
70033	2018-01-24T00:00:00	43.4	ND	ND	ND	5.603485399	2.354846626	ND	ND	ND	ND	ND	0
70034	2018-01-24T01:00:00	40.6	ND	ND	ND	6.579216687	1.2559182	ND	ND	ND	ND	ND	0
70035	2018-01-24T02:00:00	48.5	ND	ND	ND	6.133168098	1.511026585	ND	ND	ND	ND	ND	0
70036	2018-01-24T03:00:00	41.1	ND	ND	ND	6.230741227	1.589521472	ND	ND	ND	ND	ND	0
70037	2018-01-24T04:00:00	35.5	ND	ND	ND	6.174985153	3.65001227	ND	ND	ND	ND	ND	0
70038	2018-01-24T05:00:00	12.3	ND	ND	ND	6.216802209	3.159419223	ND	ND	ND	ND	ND	0
70039	2018-01-24T06:00:00	7.9	ND	ND	ND	6.983448221	1.098928425	ND	ND	ND	ND	ND	0
70040	2018-01-24T07:00:00	91.6	ND	ND	ND	7.331923681	1.530650307	ND	ND	ND	ND	ND	0
70041	2018-01-24T08:00:00	151.5	ND	ND	ND	5.519851288	2.040867076	ND	ND	ND	ND	ND	0
70042	2018-01-24T09:00:00	137.2	ND	ND	ND	4.669571166	7.908359918	ND	ND	ND	ND	ND	0
70043	2018-01-24T10:00:00	103.1	ND	ND	ND	6.565277669	23.82319836	ND	ND	ND	ND	ND	0
70044	2018-01-24T11:00:00	95.6	ND	ND	ND	4.795022331	42.68159509	ND	ND	ND	ND	ND	0
70045	2018-01-24T12:00:00	90.3	ND	ND	ND	3.526571656	59.6364908	ND	ND	ND	ND	ND	0
70046	2018-01-24T13:00:00	89	ND	ND	ND	5.408339141	83.73442127	ND	ND	ND	ND	ND	0
70047	2018-01-24T14:00:00	79.5	ND	ND	ND	5.798631656	89.75890389	ND	ND	ND	ND	ND	0
70048	2018-01-24T15:00:00	58	ND	ND	ND	6.676789816	115.3482372	ND	ND	ND	ND	ND	0
70049	2018-01-24T16:00:00	82.3	ND	ND	ND	6.105290061	70.46878528	ND	ND	ND	ND	ND	0
70050	2018-01-24T17:00:00	46.9	ND	ND	ND	4.585937055	25.17723517	ND	ND	ND	ND	ND	0
70051	2018-01-24T18:00:00	24.9	ND	ND	ND	6.621033742	20.05544376	ND	ND	ND	ND	ND	0
70052	2018-01-24T19:00:00	25.8	ND	ND	ND	5.77075362	13.24601227	ND	ND	ND	ND	ND	0
70053	2018-01-24T20:00:00	19.6	ND	ND	ND	5.031985644	12.12746012	ND	ND	ND	ND	ND	0
70054	2018-01-24T21:00:00	30.4	ND	ND	ND	5.687119509	19.3686135	ND	ND	ND	ND	ND	0
70055	2018-01-24T22:00:00	39	ND	ND	ND	5.93802184	10.06696933	ND	ND	ND	ND	ND	0
70056	2018-01-24T23:00:00	36.3	ND	ND	ND	7.053143313	5.651631902	ND	ND	ND	ND	ND	0
70057	2018-01-25T00:00:00	51.3	ND	ND	ND	6.565277669	2.138985685	ND	ND	ND	ND	ND	0
70058	2018-01-25T01:00:00	70.9	ND	ND	ND	6.439826503	1.373660532	ND	ND	ND	ND	ND	0
70059	2018-01-25T02:00:00	71.1	ND	ND	ND	6.286497301	1.118552147	ND	ND	ND	ND	ND	0
70060	2018-01-25T03:00:00	54.2	ND	ND	ND	7.178594479	1.098928425	ND	ND	ND	ND	ND	0
70061	2018-01-25T04:00:00	60.6	ND	ND	ND	5.199253865	2.492212679	ND	ND	ND	ND	ND	0
70062	2018-01-25T05:00:00	58.9	ND	ND	ND	6.258619264	3.944368098	ND	ND	ND	ND	ND	0
70063	2018-01-25T06:00:00	42.6	ND	ND	ND	6.007716933	2.982805726	ND	ND	ND	ND	ND	0
70064	2018-01-25T07:00:00	40.7	ND	ND	ND	4.613815092	1.314789366	ND	ND	ND	ND	ND	0
70065	2018-01-25T08:00:00	86.6	ND	ND	ND	7.415557791	1.66801636	ND	ND	ND	ND	ND	0
70066	2018-01-25T09:00:00	147.3	ND	ND	ND	5.910143804	1.864253579	ND	ND	ND	ND	ND	0
70067	2018-01-25T10:00:00	156.6	ND	ND	ND	6.035594969	9.556752556	ND	ND	ND	ND	ND	0
70068	2018-01-25T11:00:00	118.4	ND	ND	ND	6.049533988	31.04472802	ND	ND	ND	ND	ND	0
70069	2018-01-25T12:00:00	78.4	ND	ND	ND	4.683510184	47.74451534	ND	ND	ND	ND	ND	0
70070	2018-01-25T13:00:00	58	ND	ND	ND	6.063473006	56.3200818	ND	ND	ND	ND	ND	0
70071	2018-01-25T14:00:00	38	ND	ND	ND	5.450156196	64.208818	ND	ND	ND	ND	ND	0
70072	2018-01-25T15:00:00	40.6	ND	ND	ND	5.575607362	65.24887526	ND	ND	ND	ND	ND	0
70073	2018-01-25T16:00:00	47.2	ND	ND	ND	4.376851779	61.3437546	ND	ND	ND	ND	ND	0
70074	2018-01-25T17:00:00	58.9	ND	ND	ND	6.955570184	28.47402045	ND	ND	ND	ND	ND	0
70075	2018-01-25T18:00:00	52.4	ND	ND	ND	4.753205276	23.25411043	ND	ND	ND	ND	ND	0
70076	2018-01-25T19:00:00	48.3	ND	ND	ND	5.004107607	11.18552147	ND	ND	ND	ND	ND	0
70077	2018-01-25T20:00:00	32.2	ND	ND	ND	4.850778405	11.18552147	ND	ND	ND	ND	ND	0
70078	2018-01-25T21:00:00	19.8	ND	ND	ND	5.143497791	11.55837219	ND	ND	ND	ND	ND	0
70079	2018-01-25T22:00:00	21.9	ND	ND	ND	6.774362945	8.261586912	ND	ND	ND	ND	ND	0
70080	2018-01-25T23:00:00	27.1	ND	ND	ND	6.969509202	3.473398773	ND	ND	ND	ND	ND	0
70081	2018-01-26T00:00:00	58.1	ND	ND	ND	5.478034233	1.746511247	ND	ND	ND	ND	ND	0
70082	2018-01-26T01:00:00	65.5	ND	ND	ND	6.537399632	1.962372188	ND	ND	ND	ND	ND	0
70083	2018-01-26T02:00:00	65.2	ND	ND	ND	6.676789816	1.766134969	ND	ND	ND	ND	ND	0
70084	2018-01-26T03:00:00	54.9	ND	ND	ND	6.077412025	1.98199591	ND	ND	ND	ND	ND	0
70085	2018-01-26T04:00:00	43.6	ND	ND	ND	7.025265276	1.491402863	ND	ND	ND	ND	ND	0
70086	2018-01-26T05:00:00	66	ND	ND	ND	6.244680245	1.491402863	ND	ND	ND	ND	ND	0
70087	2018-01-26T06:00:00	65	ND	ND	ND	6.913753129	1.2559182	ND	ND	ND	ND	ND	0
70088	2018-01-26T07:00:00	85.9	ND	ND	ND	6.760423926	1.609145194	ND	ND	ND	ND	ND	0
70089	2018-01-26T08:00:00	105.4	ND	ND	ND	7.666460123	1.452155419	ND	ND	ND	ND	ND	0
70090	2018-01-26T09:00:00	100	ND	ND	ND	7.722216196	2.982805726	ND	ND	ND	ND	ND	0
70091	2018-01-26T10:00:00	114	ND	ND	ND	5.85438773	2.786568507	ND	ND	ND	ND	ND	0
70092	2018-01-26T11:00:00	122.9	ND	ND	ND	7.067082331	9.360515337	ND	ND	ND	ND	ND	0
70093	2018-01-26T12:00:00	103	ND	ND	ND	5.366522086	26.57051943	ND	ND	ND	ND	ND	0
70094	2018-01-26T13:00:00	89.6	ND	ND	ND	5.129558773	58.04696933	ND	ND	ND	ND	ND	0
70095	2018-01-26T14:00:00	103.3	ND	ND	ND	5.714997546	90.54385276	ND	ND	ND	ND	ND	0
70096	2018-01-26T15:00:00	117	ND	ND	ND	7.011326258	103.9468548	ND	ND	ND	ND	ND	0
70097	2018-01-26T16:00:00	112.5	ND	ND	ND	4.376851779	57.53675256	ND	ND	ND	ND	ND	0
70098	2018-01-26T17:00:00	49.7	ND	ND	ND	5.087741718	25.13798773	ND	ND	ND	ND	ND	0
70099	2018-01-26T18:00:00	40.5	ND	ND	ND	5.24107092	20.93851125	ND	ND	ND	ND	ND	0
70100	2018-01-26T19:00:00	69.6	ND	ND	ND	6.830119018	8.86992229	ND	ND	ND	ND	ND	0
70101	2018-01-26T20:00:00	17.5	ND	ND	ND	4.739266258	7.790617587	ND	ND	ND	ND	ND	0
70102	2018-01-26T21:00:00	18.2	ND	ND	ND	6.021655951	3.33603272	ND	ND	ND	ND	ND	0
70103	2018-01-26T22:00:00	70.2	ND	ND	ND	5.798631656	1.511026585	ND	ND	ND	ND	ND	0
70104	2018-01-26T23:00:00	117.7	ND	ND	ND	6.73254589	4.120981595	ND	ND	ND	ND	ND	0
70105	2018-01-27T00:00:00	54.5	ND	ND	ND	5.296826994	5.00404908	ND	ND	ND	ND	ND	0
70106	2018-01-27T01:00:00	28.9	ND	ND	ND	6.955570184	5.573137014	ND	ND	ND	ND	ND	0
70107	2018-01-27T02:00:00	65.8	ND	ND	ND	7.011326258	1.275541922	ND	ND	ND	ND	ND	0
70108	2018-01-27T03:00:00	81.1	ND	ND	ND	7.359801718	1.098928425	ND	ND	ND	ND	ND	0
70109	2018-01-27T04:00:00	64.3	ND	ND	ND	6.398009448	2.39409407	ND	ND	ND	ND	ND	0
70110	2018-01-27T05:00:00	20.2	ND	ND	ND	7.276167607	9.870732106	ND	ND	ND	ND	ND	0
70111	2018-01-27T06:00:00	7.9	ND	ND	ND	4.739266258	4.866683027	ND	ND	ND	ND	ND	0
70112	2018-01-27T07:00:00	34.5	ND	ND	ND	6.509521595	1.275541922	ND	ND	ND	ND	ND	0
70113	2018-01-27T08:00:00	111.6	ND	ND	ND	4.850778405	2.629578732	ND	ND	ND	ND	ND	0
70114	2018-01-27T09:00:00	148.9	ND	ND	ND	6.81618	6.063730061	ND	ND	ND	ND	ND	0
70115	2018-01-27T10:00:00	161.2	ND	ND	ND	6.398009448	19.91807771	ND	ND	ND	ND	ND	0
70116	2018-01-27T11:00:00	139.5	ND	ND	ND	7.025265276	47.70526789	ND	ND	ND	ND	ND	0
70117	2018-01-27T12:00:00	110.9	ND	ND	ND	5.728936564	71.66583231	ND	ND	ND	ND	ND	0
70118	2018-01-27T13:00:00	101.3	ND	ND	ND	4.655632147	69.07550102	ND	ND	ND	ND	ND	0
70119	2018-01-27T14:00:00	83.8	ND	ND	ND	6.398009448	78.69112474	ND	ND	ND	ND	ND	0
70120	2018-01-27T15:00:00	74.2	ND	ND	ND	4.80896135	90.85783231	ND	ND	ND	ND	ND	0
70121	2018-01-27T16:00:00	81.4	ND	ND	ND	3.986559264	97.52989775	ND	ND	ND	ND	ND	0
70122	2018-01-27T17:00:00	86	ND	ND	ND	6.370131411	63.44349284	ND	ND	ND	ND	ND	0
70123	2018-01-27T18:00:00	53.5	ND	ND	ND	4.293217669	15.99333333	ND	ND	ND	ND	ND	0
70124	2018-01-27T19:00:00	36.8	ND	ND	ND	5.631363436	5.788997955	ND	ND	ND	ND	ND	0
70125	2018-01-27T20:00:00	43.6	ND	ND	ND	6.384070429	6.004858896	ND	ND	ND	ND	ND	0
70126	2018-01-27T21:00:00	34.7	ND	ND	ND	5.478034233	11.77423313	ND	ND	ND	ND	ND	0
70127	2018-01-27T22:00:00	40.3	ND	ND	ND	5.268948957	2.766944785	ND	ND	ND	ND	ND	0
70128	2018-01-27T23:00:00	76	ND	ND	ND	4.599876074	1.491402863	ND	ND	ND	ND	ND	0
70129	2018-01-28T00:00:00	57.1	ND	ND	ND	5.85438773	2.70807362	ND	ND	ND	ND	ND	0
70130	2018-01-28T01:00:00	48.3	ND	ND	ND	6.272558282	1.511026585	ND	ND	ND	ND	ND	0
70131	2018-01-28T02:00:00	93.1	ND	ND	ND	5.255009939	4.101357873	ND	ND	ND	ND	ND	0
70132	2018-01-28T03:00:00	119.3	ND	ND	ND	6.021655951	4.729316973	ND	ND	ND	ND	ND	0
70133	2018-01-28T04:00:00	113.9	ND	ND	ND	8.893093742	3.767754601	ND	ND	ND	ND	ND	0
70134	2018-01-28T05:00:00	94.6	ND	ND	ND	7.039204294	5.102167689	ND	ND	ND	ND	ND	0
70135	2018-01-28T06:00:00	69.6	ND	ND	ND	6.258619264	7.103787321	ND	ND	ND	ND	ND	0
70136	2018-01-28T07:00:00	64.1	ND	ND	ND	8.684008466	3.198666667	ND	ND	ND	ND	ND	0
70137	2018-01-28T08:00:00	114.5	ND	ND	ND	6.411948466	1.844629857	ND	ND	ND	ND	ND	0
70138	2018-01-28T09:00:00	134.6	ND	ND	ND	7.987057546	6.377709611	ND	ND	ND	ND	ND	0
70139	2018-01-28T10:00:00	129.6	ND	ND	ND	7.736155215	12.79466667	ND	ND	ND	ND	ND	0
70140	2018-01-28T11:00:00	33.8	ND	ND	ND	3.373242454	31.86892434	ND	ND	ND	ND	ND	0
70141	2018-01-28T12:00:00	40.9	ND	ND	ND	5.93802184	44.663591	ND	ND	ND	ND	ND	0
70142	2018-01-28T13:00:00	78.6	ND	ND	ND	4.19564454	54.35770961	ND	ND	ND	ND	ND	0
70143	2018-01-28T14:00:00	84.2	ND	ND	ND	5.687119509	57.41901022	ND	ND	ND	ND	ND	0
70144	2018-01-28T15:00:00	86.1	ND	ND	ND	6.007716933	57.92922699	ND	ND	ND	ND	ND	0
70145	2018-01-28T16:00:00	68.9	ND	ND	ND	6.147107117	51.39452761	ND	ND	ND	ND	ND	0
70146	2018-01-28T17:00:00	51.6	ND	ND	ND	4.54412	29.69069121	ND	ND	ND	ND	ND	0
70147	2018-01-28T18:00:00	32.1	ND	ND	ND	4.878656442	15.32612679	ND	ND	ND	ND	ND	0
70148	2018-01-28T19:00:00	17.9	ND	ND	ND	4.265339632	12.71617178	ND	ND	ND	ND	ND	0
70149	2018-01-28T20:00:00	13.9	ND	ND	ND	6.007716933	10.75379959	ND	ND	ND	ND	ND	0
70150	2018-01-28T21:00:00	14.4	ND	ND	ND	6.091351043	9.046535787	ND	ND	ND	ND	ND	0
70151	2018-01-28T22:00:00	17.2	ND	ND	ND	5.840448712	11.32288753	ND	ND	ND	ND	ND	0
70152	2018-01-28T23:00:00	31.7	ND	ND	ND	6.049533988	4.042486708	ND	ND	ND	ND	ND	0
70153	2018-01-29T00:00:00	51.6	ND	ND	ND	6.216802209	1.334413088	ND	ND	ND	ND	ND	0
70154	2018-01-29T01:00:00	65.7	ND	ND	ND	4.516241963	2.39409407	ND	ND	ND	ND	ND	0
70155	2018-01-29T02:00:00	31.8	ND	ND	ND	6.607094724	8.183092025	ND	ND	ND	ND	ND	0
70156	2018-01-29T03:00:00	26.2	ND	ND	ND	8.837337669	1.197047035	ND	ND	ND	ND	ND	0
70157	2018-01-29T04:00:00	66.4	ND	ND	ND	6.802240982	1.589521472	ND	ND	ND	ND	ND	0
70158	2018-01-29T05:00:00	65.8	ND	ND	ND	7.150716442	1.334413088	ND	ND	ND	ND	ND	0
70159	2018-01-29T06:00:00	54.7	ND	ND	ND	7.819789325	1.020433538	ND	ND	ND	ND	ND	0
70160	2018-01-29T07:00:00	64.5	ND	ND	ND	3.693839877	1.2559182	ND	ND	ND	ND	ND	0
70161	2018-01-29T08:00:00	77.3	ND	ND	ND	4.432607853	1.942748466	ND	ND	ND	ND	ND	0
70162	2018-01-29T09:00:00	104.4	ND	ND	ND	4.711388221	2.256728016	ND	ND	ND	ND	ND	0
70163	2018-01-29T10:00:00	100	ND	ND	ND	4.641693129	16.15032311	ND	ND	ND	ND	ND	0
70164	2018-01-29T11:00:00	104.9	ND	ND	ND	5.840448712	53.39614724	ND	ND	ND	ND	ND	0
70165	2018-01-29T12:00:00	111.7	ND	ND	ND	4.530180982	63.38462168	ND	ND	ND	ND	ND	0
70166	2018-01-29T13:00:00	76	ND	ND	ND	3.303547362	67.3486135	ND	ND	ND	ND	ND	0
70167	2018-01-29T14:00:00	68.8	ND	ND	ND	6.188924172	106.1250879	ND	ND	ND	ND	ND	0
70168	2018-01-29T15:00:00	55.3	ND	ND	ND	4.167766503	27.5320818	ND	ND	ND	ND	ND	0
70169	2018-01-29T16:00:00	34.4	ND	ND	ND	4.753205276	22.508409	ND	ND	ND	ND	ND	0
70170	2018-01-29T17:00:00	37.3	ND	ND	ND	8.251898896	14.95327607	ND	ND	ND	ND	ND	0
70171	2018-01-29T18:00:00	38.9	ND	ND	ND	6.453765521	10.96966053	ND	ND	ND	ND	ND	0
70172	2018-01-29T19:00:00	40.3	ND	ND	ND	6.537399632	11.18552147	ND	ND	ND	ND	ND	0
70173	2018-01-29T20:00:00	25.9	ND	ND	ND	6.20286319	15.14951329	ND	ND	ND	ND	ND	0
70174	2018-01-29T21:00:00	23.2	ND	ND	ND	5.310766012	15.85596728	ND	ND	ND	ND	ND	0
70175	2018-01-29T22:00:00	18.1	ND	ND	ND	7.150716442	12.08821268	ND	ND	ND	ND	ND	0
70176	2018-01-29T23:00:00	10.9	ND	ND	ND	5.993777914	6.142224949	ND	ND	ND	ND	ND	0
70177	2018-01-30T00:00:00	36.1	ND	ND	ND	6.105290061	1.471779141	ND	ND	ND	ND	ND	0
70178	2018-01-30T01:00:00	53.8	ND	ND	ND	6.997387239	1.844629857	ND	ND	ND	ND	ND	0
70179	2018-01-30T02:00:00	65.4	ND	ND	ND	7.457374847	2.590331288	ND	ND	ND	ND	ND	0
70180	2018-01-30T03:00:00	49.9	ND	ND	ND	5.464095215	1.98199591	ND	ND	ND	ND	ND	0
70181	2018-01-30T04:00:00	49.6	ND	ND	ND	4.878656442	2.747321063	ND	ND	ND	ND	ND	0
70182	2018-01-30T05:00:00	30.7	ND	ND	ND	7.401618773	1.511026585	ND	ND	ND	ND	ND	0
70183	2018-01-30T06:00:00	49.8	ND	ND	ND	7.304045644	1.275541922	ND	ND	ND	ND	ND	0
70184	2018-01-30T07:00:00	74.9	ND	ND	ND	6.46770454	1.2559182	ND	ND	ND	ND	ND	0
70185	2018-01-30T08:00:00	89	ND	ND	ND	5.924082822	1.412907975	ND	ND	ND	ND	ND	0
70186	2018-01-30T09:00:00	104.2	ND	ND	ND	6.425887485	1.569897751	ND	ND	ND	ND	ND	0
70187	2018-01-30T10:00:00	98.7	ND	ND	ND	6.20286319	2.237104294	ND	ND	ND	ND	ND	0
70188	2018-01-30T11:00:00	137	ND	ND	ND	5.575607362	3.924744376	ND	ND	ND	ND	ND	0
70189	2018-01-30T12:00:00	129.1	ND	ND	ND	6.356192393	5.847869121	ND	ND	ND	ND	ND	0
70190	2018-01-30T13:00:00	97.5	ND	ND	ND	6.439826503	16.73903476	ND	ND	ND	ND	ND	0
70191	2018-01-30T14:00:00	40.6	ND	ND	ND	5.310766012	30.20090798	ND	ND	ND	ND	ND	0
70192	2018-01-30T15:00:00	43	ND	ND	ND	4.376851779	35.53856033	ND	ND	ND	ND	ND	0
70193	2018-01-30T16:00:00	61.3	ND	ND	ND	5.840448712	23.25411043	ND	ND	ND	ND	ND	0
70194	2018-01-30T17:00:00	44.8	ND	ND	ND	4.27927865	23.25411043	ND	ND	ND	ND	ND	0
70195	2018-01-30T18:00:00	15	ND	ND	ND	4.502302945	8.732556237	ND	ND	ND	ND	ND	0
70196	2018-01-30T19:00:00	20.2	ND	ND	ND	5.213192883	5.514265849	ND	ND	ND	ND	ND	0
70197	2018-01-30T20:00:00	23	ND	ND	ND	5.951960859	8.614813906	ND	ND	ND	ND	ND	0
70198	2018-01-30T21:00:00	21.2	ND	ND	ND	5.073802699	8.084973415	ND	ND	ND	ND	ND	0
70199	2018-01-30T22:00:00	21	ND	ND	ND	6.871936074	4.238723926	ND	ND	ND	ND	ND	0
70200	2018-01-30T23:00:00	70.1	ND	ND	ND	6.634972761	1.197047035	ND	ND	ND	ND	ND	0
70201	2018-01-31T00:00:00	67.8	ND	ND	ND	7.276167607	1.295165644	ND	ND	ND	ND	ND	0
70202	2018-01-31T01:00:00	61.2	ND	ND	ND	7.819789325	1.157799591	ND	ND	ND	ND	ND	0
70203	2018-01-31T02:00:00	58	ND	ND	ND	4.54412	1.216670757	ND	ND	ND	ND	ND	0
70204	2018-01-31T03:00:00	47.6	ND	ND	ND	8.628252393	1.118552147	ND	ND	ND	ND	ND	0
70205	2018-01-31T04:00:00	45.7	ND	ND	ND	4.836839387	3.375280164	ND	ND	ND	ND	ND	0
70206	2018-01-31T05:00:00	27.8	ND	ND	ND	6.648911779	2.335222904	ND	ND	ND	ND	ND	0
70207	2018-01-31T06:00:00	40.4	ND	ND	ND	8.879154724	1.098928425	ND	ND	ND	ND	ND	0
70208	2018-01-31T07:00:00	56.4	ND	ND	ND	6.662850798	1.138175869	ND	ND	ND	ND	ND	0
70209	2018-01-31T08:00:00	72.7	ND	ND	ND	ND	51.08054806	ND	ND	ND	ND	ND	0
70210	2018-01-31T09:00:00	131.7	ND	ND	ND	1.686621227	5.788997955	ND	ND	ND	ND	ND	0
70211	2018-01-31T10:00:00	118.9	ND	ND	ND	4.878656442	24.43153374	ND	ND	ND	ND	ND	0
70212	2018-01-31T11:00:00	91.1	ND	ND	ND	3.805352025	47.94075256	ND	ND	ND	ND	ND	0
70213	2018-01-31T12:00:00	77.1	ND	ND	ND	3.484754601	67.9765726	ND	ND	ND	ND	ND	0
70214	2018-01-31T13:00:00	86.1	ND	ND	ND	4.767144294	80.47688344	ND	ND	ND	ND	ND	0
70215	2018-01-31T14:00:00	71.5	ND	ND	ND	3.610205767	91.28955419	ND	ND	ND	ND	ND	0
70216	2018-01-31T15:00:00	64	ND	ND	ND	4.223522577	100.9248016	ND	ND	ND	ND	ND	0
70217	2018-01-31T16:00:00	68.8	ND	ND	ND	5.282887975	67.25049489	ND	ND	ND	ND	ND	0
70218	2018-01-31T17:00:00	60.3	ND	ND	ND	4.850778405	31.1232229	ND	ND	ND	ND	ND	0
70219	2018-01-31T18:00:00	57.5	ND	ND	ND	5.659241472	18.66215951	ND	ND	ND	ND	ND	0
70220	2018-01-31T19:00:00	50.7	ND	ND	ND	5.50591227	10.55756237	ND	ND	ND	ND	ND	0
70221	2018-01-31T20:00:00	31.9	ND	ND	ND	3.066584049	17.1315092	ND	ND	ND	ND	ND	0
70222	2018-01-31T21:00:00	25.3	ND	ND	ND	4.641693129	17.91645808	ND	ND	ND	ND	ND	0
70223	2018-01-31T22:00:00	14.4	ND	ND	ND	4.488363926	16.56242127	ND	ND	ND	ND	ND	0
70224	2018-01-31T23:00:00	20.2	ND	ND	ND	5.645302454	10.77342331	ND	ND	ND	ND	ND	0
70225	2018-02-01T00:00:00	30.4	ND	ND	ND	5.756814601	9.890355828	ND	ND	ND	ND	ND	0
70226	2018-02-01T01:00:00	34.6	ND	ND	ND	3.707778896	2.413717791	ND	ND	ND	ND	ND	0
70227	2018-02-01T02:00:00	42.9	ND	ND	ND	5.575607362	1.923124744	ND	ND	ND	ND	ND	0
70228	2018-02-01T03:00:00	49.9	ND	ND	ND	7.443435828	1.707263804	ND	ND	ND	ND	ND	0
70229	2018-02-01T04:00:00	40.8	ND	ND	ND	6.384070429	1.726887526	ND	ND	ND	ND	ND	0
70230	2018-02-01T05:00:00	34.4	ND	ND	ND	6.565277669	1.883877301	ND	ND	ND	ND	ND	0
70231	2018-02-01T06:00:00	41.6	ND	ND	ND	3.66596184	1.275541922	ND	ND	ND	ND	ND	0
70232	2018-02-01T07:00:00	85.8	ND	ND	ND	5.296826994	1.491402863	ND	ND	ND	ND	ND	0
70233	2018-02-01T08:00:00	114.8	ND	ND	ND	5.673180491	1.628768916	ND	ND	ND	ND	ND	0
70234	2018-02-01T09:00:00	118.5	ND	ND	ND	5.77075362	2.629578732	ND	ND	ND	ND	ND	0
70235	2018-02-01T10:00:00	135.3	ND	ND	ND	6.105290061	6.750560327	ND	ND	ND	ND	ND	0
70236	2018-02-01T11:00:00	127.5	ND	ND	ND	3.888986135	30.90736196	ND	ND	ND	ND	ND	0
70237	2018-02-01T12:00:00	108.3	ND	ND	ND	4.711388221	50.62920245	ND	ND	ND	ND	ND	0
70238	2018-02-01T13:00:00	79.4	ND	ND	ND	3.707778896	59.71498569	ND	ND	ND	ND	ND	0
70239	2018-02-01T14:00:00	66.8	ND	ND	ND	4.070193374	87.50217587	ND	ND	ND	ND	ND	0
70240	2018-02-01T15:00:00	61.2	ND	ND	ND	3.484754601	85.18657669	ND	ND	ND	ND	ND	0
70241	2018-02-01T16:00:00	48.4	ND	ND	ND	4.474424908	33.0071002	ND	ND	ND	ND	ND	0
70242	2018-02-01T17:00:00	31	ND	ND	ND	4.432607853	24.41191002	ND	ND	ND	ND	ND	0
70243	2018-02-01T18:00:00	36.6	ND	ND	ND	4.125949448	13.55999182	ND	ND	ND	ND	ND	0
70244	2018-02-01T19:00:00	32.9	ND	ND	ND	5.519851288	11.81348057	ND	ND	ND	ND	ND	0
70245	2018-02-01T20:00:00	28.3	ND	ND	ND	5.255009939	12.32369734	ND	ND	ND	ND	ND	0
70246	2018-02-01T21:00:00	29.1	ND	ND	ND	5.031985644	12.24520245	ND	ND	ND	ND	ND	0
70247	2018-02-01T22:00:00	14	ND	ND	ND	6.55133865	15.54198773	ND	ND	ND	ND	ND	0
70248	2018-02-01T23:00:00	15.6	ND	ND	ND	4.906534479	12.02934151	ND	ND	ND	ND	ND	0
70249	2018-02-02T00:00:00	14.2	ND	ND	ND	4.906534479	17.38661759	ND	ND	ND	ND	ND	0
70250	2018-02-02T01:00:00	2.6	ND	ND	ND	3.679900859	21.72346012	ND	ND	ND	ND	ND	0
70251	2018-02-02T02:00:00	23.3	ND	ND	ND	5.77075362	7.790617587	ND	ND	ND	ND	ND	12.7
70252	2018-02-02T03:00:00	25.2	ND	ND	ND	4.822900368	5.867492843	ND	ND	ND	ND	ND	4.06
70253	2018-02-02T04:00:00	26.3	ND	ND	ND	5.031985644	5.612384458	ND	ND	ND	ND	ND	4.32
70254	2018-02-02T05:00:00	22.1	ND	ND	ND	3.568388712	4.513456033	ND	ND	ND	ND	ND	0.51
70255	2018-02-02T06:00:00	21.9	ND	ND	ND	7.791911288	1.314789366	ND	ND	ND	ND	ND	0.51
70256	2018-02-02T07:00:00	39.1	ND	ND	ND	6.161046135	1.059680982	ND	ND	ND	ND	ND	9.91
70257	2018-02-02T08:00:00	40.8	ND	ND	ND	6.188924172	1.079304703	ND	ND	ND	ND	ND	1.52
70258	2018-02-02T09:00:00	58.9	ND	ND	ND	3.610205767	1.452155419	ND	ND	ND	ND	ND	0.51
70259	2018-02-02T10:00:00	58.6	ND	ND	ND	6.091351043	4.670445808	ND	ND	ND	ND	ND	0
70260	2018-02-02T11:00:00	75.8	ND	ND	ND	5.366522086	26.39390593	ND	ND	ND	ND	ND	0
70261	2018-02-02T12:00:00	91.7	ND	ND	ND	5.50591227	45.72327198	ND	ND	ND	ND	ND	0
70262	2018-02-02T13:00:00	102.6	ND	ND	ND	4.335034724	44.52622495	ND	ND	ND	ND	ND	0
70263	2018-02-02T14:00:00	84.4	ND	ND	ND	5.380461104	80.45725971	ND	ND	ND	ND	ND	0
70264	2018-02-02T15:00:00	59.8	ND	ND	ND	5.185314847	18.58366462	ND	ND	ND	ND	ND	0
70265	2018-02-02T16:00:00	19.4	ND	ND	ND	3.512632638	14.08983231	ND	ND	ND	ND	ND	0
70266	2018-02-02T17:00:00	13.6	ND	ND	ND	5.50591227	10.63605726	ND	ND	ND	ND	ND	0
70267	2018-02-02T18:00:00	15.5	ND	ND	ND	4.335034724	8.438200409	ND	ND	ND	ND	ND	0
70268	2018-02-02T19:00:00	22.6	ND	ND	ND	5.004107607	5.435770961	ND	ND	ND	ND	ND	0
70269	2018-02-02T20:00:00	36.1	ND	ND	ND	4.376851779	11.53874847	ND	ND	ND	ND	ND	0
70270	2018-02-02T21:00:00	36.6	ND	ND	ND	4.920473497	6.907550102	ND	ND	ND	ND	ND	0
70271	2018-02-02T22:00:00	40.6	ND	ND	ND	3.512632638	1.491402863	ND	ND	ND	ND	ND	0
70272	2018-02-02T23:00:00	61.2	ND	ND	ND	5.004107607	2.551083845	ND	ND	ND	ND	ND	0
70273	2018-02-03T00:00:00	50.6	ND	ND	ND	4.223522577	1.707263804	ND	ND	ND	ND	ND	0
70274	2018-02-03T01:00:00	52.8	ND	ND	ND	4.864717423	1.138175869	ND	ND	ND	ND	ND	0
70275	2018-02-03T02:00:00	67.9	ND	ND	ND	5.380461104	1.883877301	ND	ND	ND	ND	ND	0
70276	2018-02-03T03:00:00	85.6	ND	ND	ND	6.774362945	2.452965235	ND	ND	ND	ND	ND	0
70277	2018-02-03T04:00:00	86.3	ND	ND	ND	7.16465546	1.118552147	ND	ND	ND	ND	ND	0.25
70278	2018-02-03T05:00:00	65.5	ND	ND	ND	5.631363436	1.059680982	ND	ND	ND	ND	ND	0
70279	2018-02-03T06:00:00	73.6	ND	ND	ND	4.446546871	1.118552147	ND	ND	ND	ND	ND	0
70280	2018-02-03T07:00:00	85.3	ND	ND	ND	5.659241472	1.903501022	ND	ND	ND	ND	ND	0
70281	2018-02-03T08:00:00	98.3	ND	ND	ND	3.875047117	2.413717791	ND	ND	ND	ND	ND	0
70282	2018-02-03T09:00:00	76	ND	ND	ND	2.495084294	2.119361963	ND	ND	ND	ND	ND	0
70283	2018-02-03T10:00:00	75.5	ND	ND	ND	3.707778896	10.32207771	ND	ND	ND	ND	ND	0
70284	2018-02-03T11:00:00	86.6	ND	ND	ND	4.321095706	14.69816769	ND	ND	ND	ND	ND	0
70285	2018-02-03T12:00:00	87.2	ND	ND	ND	4.62775411	27.94417996	ND	ND	ND	ND	ND	0
70286	2018-02-03T13:00:00	74.1	ND	ND	ND	3.49869362	31.86892434	ND	ND	ND	ND	ND	0
70287	2018-02-03T14:00:00	59.5	ND	ND	ND	4.223522577	45.50741104	ND	ND	ND	ND	ND	0
70288	2018-02-03T15:00:00	48.3	ND	ND	ND	5.24107092	48.64720654	ND	ND	ND	ND	ND	0
70289	2018-02-03T16:00:00	30.5	ND	ND	ND	6.035594969	23.72507975	ND	ND	ND	ND	ND	0
70290	2018-02-03T17:00:00	20	ND	ND	ND	4.836839387	15.62048262	ND	ND	ND	ND	ND	0
70291	2018-02-03T18:00:00	7.2	ND	ND	ND	3.456876564	14.28606953	ND	ND	ND	ND	ND	0
70292	2018-02-03T19:00:00	16.8	ND	ND	ND	2.941132883	8.320458078	ND	ND	ND	ND	ND	0
70293	2018-02-03T20:00:00	8.3	ND	ND	ND	5.004107607	8.536319018	ND	ND	ND	ND	ND	0
70294	2018-02-03T21:00:00	32.6	ND	ND	ND	4.767144294	1.138175869	ND	ND	ND	ND	ND	0
70295	2018-02-03T22:00:00	45.3	ND	ND	ND	4.362912761	8.300834356	ND	ND	ND	ND	ND	0
70296	2018-02-03T23:00:00	24.6	ND	ND	ND	5.171375828	2.70807362	ND	ND	ND	ND	ND	0
70297	2018-02-04T00:00:00	47	ND	ND	ND	4.014437301	1.66801636	ND	ND	ND	ND	ND	0
70298	2018-02-04T01:00:00	37.8	ND	ND	ND	5.533790307	0.981186094	ND	ND	ND	ND	ND	0
70299	2018-02-04T02:00:00	47.1	ND	ND	ND	6.621033742	1.314789366	ND	ND	ND	ND	ND	0
70300	2018-02-04T03:00:00	39.2	ND	ND	ND	6.063473006	1.295165644	ND	ND	ND	ND	ND	0
70301	2018-02-04T04:00:00	29.4	ND	ND	ND	4.390790798	1.785758691	ND	ND	ND	ND	ND	0
70302	2018-02-04T05:00:00	12.6	ND	ND	ND	4.976229571	1.334413088	ND	ND	ND	ND	ND	0
70303	2018-02-04T06:00:00	49.5	ND	ND	ND	7.401618773	1.491402863	ND	ND	ND	ND	ND	0
70304	2018-02-04T07:00:00	88	ND	ND	ND	6.537399632	1.118552147	ND	ND	ND	ND	ND	0
70305	2018-02-04T08:00:00	52.6	ND	ND	ND	6.272558282	2.413717791	ND	ND	ND	ND	ND	0
70306	2018-02-04T09:00:00	48.4	ND	ND	ND	4.516241963	9.439010225	ND	ND	ND	ND	ND	0
70307	2018-02-04T10:00:00	58.6	ND	ND	ND	2.564779387	23.68583231	ND	ND	ND	ND	ND	0
70308	2018-02-04T11:00:00	91.5	ND	ND	ND	5.296826994	45.54665849	ND	ND	ND	ND	ND	0
70309	2018-02-04T12:00:00	69.4	ND	ND	ND	3.916864172	49.92274847	ND	ND	ND	ND	ND	0
70310	2018-02-04T13:00:00	48.2	ND	ND	ND	5.185314847	63.79671984	ND	ND	ND	ND	ND	0
70311	2018-02-04T14:00:00	36.5	ND	ND	ND	3.944742209	59.40100613	ND	ND	ND	ND	ND	0
70312	2018-02-04T15:00:00	44	ND	ND	ND	4.293217669	62.52117791	ND	ND	ND	ND	ND	0
70313	2018-02-04T16:00:00	44.8	ND	ND	ND	4.348973742	57.83110838	ND	ND	ND	ND	ND	0
70314	2018-02-04T17:00:00	31.4	ND	ND	ND	4.028376319	27.41433947	ND	ND	ND	ND	ND	0
70315	2018-02-04T18:00:00	31.1	ND	ND	ND	4.641693129	16.62129243	ND	ND	ND	ND	ND	0
70316	2018-02-04T19:00:00	8.8	ND	ND	ND	4.376851779	15.2476319	ND	ND	ND	ND	ND	0
70317	2018-02-04T20:00:00	9.7	ND	ND	ND	3.84716908	15.46349284	ND	ND	ND	ND	ND	0
70318	2018-02-04T21:00:00	11.8	ND	ND	ND	4.962290552	14.69816769	ND	ND	ND	ND	ND	0
70319	2018-02-04T22:00:00	32.6	ND	ND	ND	3.442937546	2.472588957	ND	ND	ND	ND	ND	0
70320	2018-02-04T23:00:00	35	ND	ND	ND	3.693839877	5.612384458	ND	ND	ND	ND	ND	0
70321	2018-02-05T00:00:00	27.1	ND	ND	ND	4.014437301	16.58204499	ND	ND	ND	ND	ND	0
70322	2018-02-05T01:00:00	8.9	ND	ND	ND	5.631363436	12.04896524	ND	ND	ND	ND	ND	0
70323	2018-02-05T02:00:00	26.7	ND	ND	ND	6.007716933	4.140605317	ND	ND	ND	ND	ND	0
70324	2018-02-05T03:00:00	32.7	ND	ND	ND	5.115619755	8.006478528	ND	ND	ND	ND	ND	0
70325	2018-02-05T04:00:00	40.5	ND	ND	ND	4.46048589	6.750560327	ND	ND	ND	ND	ND	0
70326	2018-02-05T05:00:00	26.7	ND	ND	ND	5.004107607	5.730126789	ND	ND	ND	ND	ND	0.25
70327	2018-02-05T06:00:00	44.1	ND	ND	ND	5.255009939	1.098928425	ND	ND	ND	ND	ND	0.51
70328	2018-02-05T07:00:00	50.3	ND	ND	ND	7.094960368	1.020433538	ND	ND	ND	ND	ND	0.25
70329	2018-02-05T08:00:00	53.6	ND	ND	ND	5.310766012	1.393284254	ND	ND	ND	ND	ND	0
70330	2018-02-05T09:00:00	68	ND	ND	ND	3.707778896	2.511836401	ND	ND	ND	ND	ND	0
70331	2018-02-05T10:00:00	69.4	ND	ND	ND	5.324705031	9.164278119	ND	ND	ND	ND	ND	0
70332	2018-02-05T11:00:00	63	ND	ND	ND	3.080523067	24.76513701	ND	ND	ND	ND	ND	0
70333	2018-02-05T12:00:00	52.7	ND	ND	ND	5.714997546	36.16651943	ND	ND	ND	ND	ND	0
70334	2018-02-05T13:00:00	40.5	ND	ND	ND	5.199253865	29.25896933	ND	ND	ND	ND	ND	0
70335	2018-02-05T14:00:00	18.6	ND	ND	ND	2.941132883	30.8484908	ND	ND	ND	ND	ND	0
70336	2018-02-05T15:00:00	25.3	ND	ND	ND	4.223522577	29.76918609	ND	ND	ND	ND	ND	0
70337	2018-02-05T16:00:00	14.5	ND	ND	ND	3.707778896	15.6008589	ND	ND	ND	ND	ND	0
70338	2018-02-05T17:00:00	17.4	ND	ND	ND	4.781083313	13.01052761	ND	ND	ND	ND	ND	0
70339	2018-02-05T18:00:00	28.8	ND	ND	ND	4.112010429	12.34332106	ND	ND	ND	ND	ND	0
70340	2018-02-05T19:00:00	42.4	ND	ND	ND	6.161046135	8.398952965	ND	ND	ND	ND	ND	0
70341	2018-02-05T20:00:00	45.5	ND	ND	ND	4.251400613	4.434961145	ND	ND	ND	ND	ND	0
70342	2018-02-05T21:00:00	44.5	ND	ND	ND	3.707778896	5.200286299	ND	ND	ND	ND	ND	0
70343	2018-02-05T22:00:00	26	ND	ND	ND	6.384070429	7.712122699	ND	ND	ND	ND	ND	0
70344	2018-02-05T23:00:00	59.8	ND	ND	ND	4.641693129	1.511026585	ND	ND	ND	ND	ND	0
70345	2018-02-06T00:00:00	57.6	ND	ND	ND	5.993777914	2.060490798	ND	ND	ND	ND	ND	0
70346	2018-02-06T01:00:00	52	ND	ND	ND	5.073802699	1.844629857	ND	ND	ND	ND	ND	0
70347	2018-02-06T02:00:00	42	ND	ND	ND	5.213192883	3.748130879	ND	ND	ND	ND	ND	0
70348	2018-02-06T03:00:00	37.1	ND	ND	ND	6.063473006	2.806192229	ND	ND	ND	ND	ND	0
70349	2018-02-06T04:00:00	43.8	ND	ND	ND	5.213192883	2.060490798	ND	ND	ND	ND	ND	0
70350	2018-02-06T05:00:00	40.4	ND	ND	ND	5.812570675	3.65001227	ND	ND	ND	ND	ND	0
70351	2018-02-06T06:00:00	33.3	ND	ND	ND	3.512632638	3.179042945	ND	ND	ND	ND	ND	0
70352	2018-02-06T07:00:00	52.1	ND	ND	ND	4.530180982	1.412907975	ND	ND	ND	ND	ND	0
70353	2018-02-06T08:00:00	75.5	ND	ND	ND	6.314375337	1.883877301	ND	ND	ND	ND	ND	0
70354	2018-02-06T09:00:00	67.6	ND	ND	ND	4.404729816	6.67206544	ND	ND	ND	ND	ND	0
70355	2018-02-06T10:00:00	73.2	ND	ND	ND	4.488363926	17.24925153	ND	ND	ND	ND	ND	0
70356	2018-02-06T11:00:00	76.6	ND	ND	ND	4.516241963	35.65630266	ND	ND	ND	ND	ND	0
70357	2018-02-06T12:00:00	83.5	ND	ND	ND	4.139888466	46.50822086	ND	ND	ND	ND	ND	ND
70358	2018-02-06T13:00:00	70.4	ND	ND	ND	4.028376319	46.0961227	ND	ND	ND	ND	ND	ND
70359	2018-02-06T14:00:00	54.6	ND	ND	ND	5.185314847	30.76999591	ND	ND	ND	ND	ND	ND
70360	2018-02-06T15:00:00	25.9	ND	ND	ND	4.655632147	38.40362372	ND	ND	ND	ND	ND	ND
70361	2018-02-06T16:00:00	37.8	ND	ND	ND	6.11922908	29.72993865	ND	ND	ND	ND	ND	ND
70362	2018-02-06T17:00:00	36.7	ND	ND	ND	4.641693129	17.50435992	ND	ND	ND	ND	ND	ND
70363	2018-02-06T18:00:00	34	ND	ND	ND	3.958681227	12.51993456	ND	ND	ND	ND	ND	ND
70364	2018-02-06T19:00:00	26.3	ND	ND	ND	4.683510184	9.321267894	ND	ND	ND	ND	ND	ND
70365	2018-02-06T20:00:00	25	ND	ND	ND	4.641693129	10.49869121	ND	ND	ND	ND	ND	ND
70366	2018-02-06T21:00:00	24.7	ND	ND	ND	4.906534479	11.75460941	ND	ND	ND	ND	ND	ND
70367	2018-02-06T22:00:00	30.5	ND	ND	ND	4.739266258	12.67692434	ND	ND	ND	ND	ND	ND
70368	2018-02-06T23:00:00	28.6	ND	ND	ND	4.976229571	9.792237219	ND	ND	ND	ND	ND	ND
70369	2018-02-07T00:00:00	25	ND	ND	ND	5.366522086	8.379329243	ND	ND	ND	ND	ND	ND
70370	2018-02-07T01:00:00	27.1	ND	ND	ND	6.46770454	2.138985685	ND	ND	ND	ND	ND	ND
70371	2018-02-07T02:00:00	56.6	ND	ND	ND	6.523460613	4.356466258	ND	ND	ND	ND	ND	ND
70372	2018-02-07T03:00:00	56.8	ND	ND	ND	8.000996564	3.905120654	ND	ND	ND	ND	ND	ND
70373	2018-02-07T04:00:00	55	ND	ND	ND	5.575607362	3.453775051	ND	ND	ND	ND	ND	ND
70374	2018-02-07T05:00:00	55.1	ND	ND	ND	7.053143313	2.865063395	ND	ND	ND	ND	ND	ND
70375	2018-02-07T06:00:00	57.4	ND	ND	ND	5.199253865	2.138985685	ND	ND	ND	ND	ND	ND
70376	2018-02-07T07:00:00	67.3	ND	ND	ND	5.756814601	2.060490798	ND	ND	ND	ND	ND	ND
70377	2018-02-07T08:00:00	84.8	ND	ND	ND	5.868326748	3.434151329	ND	ND	ND	ND	ND	ND
70378	2018-02-07T09:00:00	98.5	ND	ND	ND	6.621033742	3.551893661	ND	ND	ND	ND	ND	ND
70379	2018-02-07T10:00:00	87.4	ND	ND	ND	5.714997546	7.947607362	ND	ND	ND	ND	ND	ND
70380	2018-02-07T11:00:00	90.2	ND	ND	ND	4.000498282	13.77585276	ND	ND	ND	ND	ND	ND
70381	2018-02-07T12:00:00	84.8	ND	ND	ND	5.993777914	29.78880982	ND	ND	ND	ND	ND	ND
70382	2018-02-07T13:00:00	76.6	ND	ND	ND	3.31748638	45.2915501	ND	ND	ND	ND	ND	ND
70383	2018-02-07T14:00:00	63	ND	ND	ND	3.638083804	55.80986503	ND	ND	ND	ND	ND	ND
70384	2018-02-07T15:00:00	59.8	ND	ND	ND	4.404729816	30.61300613	ND	ND	ND	ND	ND	ND
70385	2018-02-07T16:00:00	36.5	ND	ND	ND	4.80896135	18.1126953	ND	ND	ND	ND	ND	ND
70386	2018-02-07T17:00:00	22.3	ND	ND	ND	4.990168589	12.7357955	ND	ND	ND	ND	ND	ND
70387	2018-02-07T18:00:00	18.8	ND	ND	ND	5.282887975	9.811860941	ND	ND	ND	ND	ND	ND
70388	2018-02-07T19:00:00	21.8	ND	ND	ND	2.982949939	6.57394683	ND	ND	ND	ND	ND	ND
70389	2018-02-07T20:00:00	27.9	ND	ND	ND	3.610205767	10.34170143	ND	ND	ND	ND	ND	ND
70390	2018-02-07T21:00:00	19.9	ND	ND	ND	4.432607853	11.26401636	ND	ND	ND	ND	ND	ND
70391	2018-02-07T22:00:00	11.4	ND	ND	ND	4.181705521	7.986854806	ND	ND	ND	ND	ND	ND
70392	2018-02-07T23:00:00	14.3	ND	ND	ND	4.585937055	5.671255624	ND	ND	ND	ND	ND	ND
70393	2018-02-08T00:00:00	14.1	ND	ND	ND	4.446546871	8.516695297	ND	ND	ND	ND	ND	ND
70394	2018-02-08T01:00:00	20.1	ND	ND	ND	6.690728834	3.257537832	ND	ND	ND	ND	ND	ND
70395	2018-02-08T02:00:00	38.9	ND	ND	ND	3.31748638	1.452155419	ND	ND	ND	ND	ND	ND
70396	2018-02-08T03:00:00	40	ND	ND	ND	3.610205767	2.080114519	ND	ND	ND	ND	ND	ND
70397	2018-02-08T04:00:00	40.1	ND	ND	ND	5.868326748	2.511836401	ND	ND	ND	ND	ND	ND
70398	2018-02-08T05:00:00	37	ND	ND	ND	6.425887485	1.766134969	ND	ND	ND	ND	ND	ND
70399	2018-02-08T06:00:00	48.4	ND	ND	ND	5.394400123	1.35403681	ND	ND	ND	ND	ND	ND
70400	2018-02-08T07:00:00	73.2	ND	ND	ND	4.948351534	2.178233129	ND	ND	ND	ND	ND	ND
70401	2018-02-08T08:00:00	91.3	ND	ND	ND	6.035594969	2.237104294	ND	ND	ND	ND	ND	ND
70402	2018-02-08T09:00:00	68.9	ND	ND	ND	5.993777914	2.747321063	ND	ND	ND	ND	ND	ND
70403	2018-02-08T10:00:00	71.3	ND	ND	ND	4.641693129	5.357276074	ND	ND	ND	ND	ND	ND
70404	2018-02-08T11:00:00	86.7	ND	ND	ND	1.853889448	9.968850716	ND	ND	ND	ND	ND	ND
70405	2018-02-08T12:00:00	63.7	ND	ND	ND	2.174486871	21.09550102	ND	ND	ND	ND	ND	ND
70406	2018-02-08T13:00:00	43.4	ND	ND	ND	2.857498773	34.53775051	ND	ND	ND	ND	ND	ND
70407	2018-02-08T14:00:00	26.8	ND	ND	ND	4.46048589	41.85739877	ND	ND	ND	ND	ND	ND
70408	2018-02-08T15:00:00	31.1	ND	ND	ND	4.014437301	33.08559509	ND	ND	ND	ND	ND	ND
70409	2018-02-08T16:00:00	27.8	ND	ND	ND	3.275669325	25.03986912	ND	ND	ND	ND	ND	ND
70410	2018-02-08T17:00:00	37.9	ND	ND	ND	4.335034724	15.09064213	ND	ND	ND	ND	ND	ND
70411	2018-02-08T18:00:00	21.9	ND	ND	ND	3.84716908	11.71536196	ND	ND	ND	ND	ND	ND
70412	2018-02-08T19:00:00	21.5	ND	ND	ND	5.129558773	7.515885481	ND	ND	ND	ND	ND	ND
70413	2018-02-08T20:00:00	22.8	ND	ND	ND	3.387181472	9.478257669	ND	ND	ND	ND	ND	ND
70414	2018-02-08T21:00:00	22.1	ND	ND	ND	4.139888466	11.18552147	ND	ND	ND	ND	ND	ND
70415	2018-02-08T22:00:00	12.2	ND	ND	ND	4.54412	10.59680982	ND	ND	ND	ND	ND	ND
70416	2018-02-08T23:00:00	16.3	ND	ND	ND	4.836839387	7.574756646	ND	ND	ND	ND	ND	ND
70417	2018-02-09T00:00:00	11.8	ND	ND	ND	5.115619755	8.536319018	ND	ND	ND	ND	ND	ND
70418	2018-02-09T01:00:00	12.9	ND	ND	ND	5.296826994	2.472588957	ND	ND	ND	ND	ND	ND
70419	2018-02-09T02:00:00	28.2	ND	ND	ND	5.631363436	1.923124744	ND	ND	ND	ND	ND	ND
70420	2018-02-09T03:00:00	39.2	ND	ND	ND	4.613815092	4.474208589	ND	ND	ND	ND	ND	ND
70421	2018-02-09T04:00:00	21.2	ND	ND	ND	4.098071411	4.356466258	ND	ND	ND	ND	ND	ND
70422	2018-02-09T05:00:00	15.9	ND	ND	ND	6.439826503	4.120981595	ND	ND	ND	ND	ND	ND
70423	2018-02-09T06:00:00	33.3	ND	ND	ND	5.213192883	2.119361963	ND	ND	ND	ND	ND	ND
70424	2018-02-09T07:00:00	42.4	ND	ND	ND	4.251400613	1.746511247	ND	ND	ND	ND	ND	ND
70425	2018-02-09T08:00:00	53.3	ND	ND	ND	5.059863681	2.845439673	ND	ND	ND	ND	ND	ND
70426	2018-02-09T09:00:00	78.8	ND	ND	ND	5.366522086	4.454584867	ND	ND	ND	ND	ND	ND
70427	2018-02-09T10:00:00	80.4	ND	ND	ND	3.707778896	15.36537423	ND	ND	ND	ND	ND	ND
70428	2018-02-09T11:00:00	60.4	ND	ND	ND	4.739266258	24.94175051	ND	ND	ND	ND	ND	ND
70429	2018-02-09T12:00:00	58.7	ND	ND	ND	5.087741718	45.48778732	ND	ND	ND	ND	ND	ND
70430	2018-02-09T13:00:00	61.3	ND	ND	ND	5.659241472	60.73541922	ND	ND	ND	ND	ND	ND
70431	2018-02-09T14:00:00	45.1	ND	ND	ND	3.303547362	49.25554192	ND	ND	ND	ND	ND	ND
70432	2018-02-09T15:00:00	45.9	ND	ND	ND	3.693839877	35.89178732	ND	ND	ND	ND	ND	ND
70433	2018-02-09T16:00:00	32.4	ND	ND	ND	4.209583558	24.70626585	ND	ND	ND	ND	ND	ND
70434	2018-02-09T17:00:00	29.7	ND	ND	ND	4.153827485	16.69978732	ND	ND	ND	ND	ND	ND
70435	2018-02-09T18:00:00	32.2	ND	ND	ND	4.321095706	12.38256851	ND	ND	ND	ND	ND	ND
70436	2018-02-09T19:00:00	37.5	ND	ND	ND	3.888986135	10.12584049	ND	ND	ND	ND	ND	ND
70437	2018-02-09T20:00:00	34	ND	ND	ND	2.369633129	11.40138241	ND	ND	ND	ND	ND	ND
70438	2018-02-09T21:00:00	23.5	ND	ND	ND	4.878656442	10.87154192	ND	ND	ND	ND	ND	ND
70439	2018-02-09T22:00:00	2.7	ND	ND	ND	2.996888957	9.262396728	ND	ND	ND	ND	ND	ND
70440	2018-02-09T23:00:00	9.9	ND	ND	ND	3.289608344	6.377709611	ND	ND	ND	ND	ND	ND
70441	2018-02-10T00:00:00	32.7	ND	ND	ND	5.171375828	4.886306748	ND	ND	ND	ND	ND	ND
70442	2018-02-10T01:00:00	47.4	ND	ND	ND	5.282887975	1.569897751	ND	ND	ND	ND	ND	ND
70443	2018-02-10T02:00:00	46.7	ND	ND	ND	5.603485399	1.707263804	ND	ND	ND	ND	ND	ND
70444	2018-02-10T03:00:00	50.6	ND	ND	ND	5.408339141	2.629578732	ND	ND	ND	ND	ND	ND
70445	2018-02-10T04:00:00	54.9	ND	ND	ND	6.648911779	1.962372188	ND	ND	ND	ND	ND	ND
70446	2018-02-10T05:00:00	55.7	ND	ND	ND	7.875545399	3.394903885	ND	ND	ND	ND	ND	ND
70447	2018-02-10T06:00:00	57.4	ND	ND	ND	5.631363436	2.845439673	ND	ND	ND	ND	ND	ND
70448	2018-02-10T07:00:00	44.3	ND	ND	ND	5.15743681	2.237104294	ND	ND	ND	ND	ND	ND
70449	2018-02-10T08:00:00	68.4	ND	ND	ND	3.624144785	2.943558282	ND	ND	ND	ND	ND	ND
70450	2018-02-10T09:00:00	81.5	ND	ND	ND	4.348973742	4.199476483	ND	ND	ND	ND	ND	ND
70451	2018-02-10T10:00:00	71.7	ND	ND	ND	5.533790307	12.32369734	ND	ND	ND	ND	ND	ND
70452	2018-02-10T11:00:00	72	ND	ND	ND	5.255009939	21.97856851	ND	ND	ND	ND	ND	ND
70453	2018-02-10T12:00:00	54.6	ND	ND	ND	4.641693129	36.14689571	ND	ND	ND	ND	ND	ND
70454	2018-02-10T13:00:00	41.5	ND	ND	ND	4.028376319	46.97919018	ND	ND	ND	ND	ND	ND
70455	2018-02-10T14:00:00	31.3	ND	ND	ND	5.185314847	55.39776687	ND	ND	ND	ND	ND	ND
70456	2018-02-10T15:00:00	74.4	ND	ND	ND	4.934412515	57.67411861	ND	ND	ND	ND	ND	ND
70457	2018-02-10T16:00:00	36.9	ND	ND	ND	3.805352025	29.04310838	ND	ND	ND	ND	ND	ND
70458	2018-02-10T17:00:00	18.2	ND	ND	ND	4.265339632	17.21000409	ND	ND	ND	ND	ND	ND
70459	2018-02-10T18:00:00	24.2	ND	ND	ND	3.93080319	14.50193047	ND	ND	ND	ND	ND	ND
70460	2018-02-10T19:00:00	30.5	ND	ND	ND	3.66596184	14.73741513	ND	ND	ND	ND	ND	ND
70461	2018-02-10T20:00:00	34.9	ND	ND	ND	3.763534969	13.46187321	ND	ND	ND	ND	ND	ND
70462	2018-02-10T21:00:00	19.1	ND	ND	ND	4.362912761	11.61724335	ND	ND	ND	ND	ND	ND
70463	2018-02-10T22:00:00	19.6	ND	ND	ND	5.701058528	10.93041309	ND	ND	ND	ND	ND	ND
70464	2018-02-10T23:00:00	7.4	ND	ND	ND	4.934412515	7.829865031	ND	ND	ND	ND	ND	ND
70465	2018-02-11T00:00:00	21.8	ND	ND	ND	6.188924172	3.885496933	ND	ND	ND	ND	ND	ND
70466	2018-02-11T01:00:00	43.3	ND	ND	ND	6.021655951	6.338462168	ND	ND	ND	ND	ND	ND
70467	2018-02-11T02:00:00	41.2	ND	ND	ND	4.558059018	13.26563599	ND	ND	ND	ND	ND	ND
70468	2018-02-11T03:00:00	13.8	ND	ND	ND	5.408339141	8.084973415	ND	ND	ND	ND	ND	ND
70469	2018-02-11T04:00:00	18.8	ND	ND	ND	4.293217669	4.513456033	ND	ND	ND	ND	ND	ND
70470	2018-02-11T05:00:00	28	ND	ND	ND	4.599876074	1.66801636	ND	ND	ND	ND	ND	ND
70471	2018-02-11T06:00:00	34.2	ND	ND	ND	6.634972761	1.923124744	ND	ND	ND	ND	ND	ND
70472	2018-02-11T07:00:00	26.9	ND	ND	ND	4.488363926	1.903501022	ND	ND	ND	ND	ND	ND
70473	2018-02-11T08:00:00	12.6	ND	ND	ND	4.62775411	1.569897751	ND	ND	ND	ND	ND	ND
70474	2018-02-11T09:00:00	11.6	ND	ND	ND	4.19564454	5.239533742	ND	ND	ND	ND	ND	ND
70475	2018-02-11T10:00:00	18.5	ND	ND	ND	4.753205276	13.22638855	ND	ND	ND	ND	ND	ND
70476	2018-02-11T11:00:00	41.2	ND	ND	ND	4.599876074	27.00224131	ND	ND	ND	ND	ND	ND
70477	2018-02-11T12:00:00	50.5	ND	ND	ND	6.244680245	42.9563272	ND	ND	ND	ND	ND	ND
70478	2018-02-11T13:00:00	33.3	ND	ND	ND	4.251400613	51.82624949	ND	ND	ND	ND	ND	ND
70479	2018-02-11T14:00:00	31.4	ND	ND	ND	5.394400123	37.04958691	ND	ND	ND	ND	ND	ND
70480	2018-02-11T15:00:00	2.6	ND	ND	ND	3.624144785	19.44710838	ND	ND	ND	ND	ND	ND
70481	2018-02-11T16:00:00	0.7	ND	ND	ND	5.645302454	21.29173824	ND	ND	ND	ND	ND	ND
70482	2018-02-11T17:00:00	16	ND	ND	ND	4.739266258	17.95570552	ND	ND	ND	ND	ND	ND
70483	2018-02-11T18:00:00	19.7	ND	ND	ND	4.348973742	17.58285481	ND	ND	ND	ND	ND	ND
70484	2018-02-11T19:00:00	8.6	ND	ND	ND	5.714997546	19.72184049	ND	ND	ND	ND	ND	ND
70485	2018-02-11T20:00:00	7.3	ND	ND	ND	4.446546871	20.91888753	ND	ND	ND	ND	ND	ND
70486	2018-02-11T21:00:00	7.4	ND	ND	ND	4.864717423	19.72184049	ND	ND	ND	ND	ND	ND
70487	2018-02-11T22:00:00	3.2	ND	ND	ND	4.669571166	20.31055215	ND	ND	ND	ND	ND	ND
70488	2018-02-11T23:00:00	6.5	ND	ND	ND	3.902925153	19.95732515	ND	ND	ND	ND	ND	ND
70489	2018-02-12T00:00:00	4.1	ND	ND	ND	3.833230061	14.05058487	ND	ND	ND	ND	ND	ND
70490	2018-02-12T01:00:00	34.2	ND	ND	ND	5.85438773	4.670445808	ND	ND	ND	ND	ND	ND
70491	2018-02-12T02:00:00	46.6	ND	ND	ND	7.415557791	7.967231084	ND	ND	ND	ND	ND	ND
70492	2018-02-12T03:00:00	25.6	ND	ND	ND	4.585937055	3.002429448	ND	ND	ND	ND	ND	ND
70493	2018-02-12T04:00:00	34	ND	ND	ND	5.045924663	2.825815951	ND	ND	ND	ND	ND	ND
70494	2018-02-12T05:00:00	37.9	ND	ND	ND	5.24107092	2.452965235	ND	ND	ND	ND	ND	ND
70495	2018-02-12T06:00:00	42.8	ND	ND	ND	6.035594969	1.314789366	ND	ND	ND	ND	ND	ND
70496	2018-02-12T07:00:00	62.7	ND	ND	ND	5.143497791	2.138985685	ND	ND	ND	ND	ND	ND
70497	2018-02-12T08:00:00	76.2	ND	ND	ND	6.927692147	3.120171779	ND	ND	ND	ND	ND	ND
70498	2018-02-12T09:00:00	63.6	ND	ND	ND	3.763534969	8.104597137	ND	ND	ND	ND	ND	ND
70499	2018-02-12T10:00:00	86.2	ND	ND	ND	5.756814601	21.5272229	ND	ND	ND	ND	ND	ND
70500	2018-02-12T11:00:00	54.4	ND	ND	ND	5.255009939	34.67511656	ND	ND	ND	ND	ND	ND
70501	2018-02-12T12:00:00	56.3	ND	ND	ND	5.408339141	45.35042127	ND	ND	ND	ND	ND	ND
70502	2018-02-12T13:00:00	55.5	ND	ND	ND	3.707778896	61.44187321	ND	ND	ND	ND	ND	ND
70503	2018-02-12T14:00:00	50.5	ND	ND	ND	5.394400123	65.05263804	ND	ND	ND	ND	ND	ND
70504	2018-02-12T15:00:00	44.8	ND	ND	ND	3.972620245	46.56709202	ND	ND	ND	ND	ND	ND
70505	2018-02-12T16:00:00	38.3	ND	ND	ND	4.836839387	22.54765644	ND	ND	ND	ND	ND	ND
70506	2018-02-12T17:00:00	53.4	ND	ND	ND	4.362912761	22.17480573	ND	ND	ND	ND	ND	ND
70507	2018-02-12T18:00:00	32.9	ND	ND	ND	5.687119509	19.192	ND	ND	ND	ND	ND	ND
70508	2018-02-12T19:00:00	60.8	ND	ND	ND	3.526571656	17.32774642	ND	ND	ND	ND	ND	ND
70509	2018-02-12T20:00:00	43.8	ND	ND	ND	5.965899877	15.2476319	ND	ND	ND	ND	ND	ND
70510	2018-02-12T21:00:00	31.7	ND	ND	ND	4.153827485	16.11107566	ND	ND	ND	ND	ND	ND
70511	2018-02-12T22:00:00	29.4	ND	ND	ND	4.502302945	8.065349693	ND	ND	ND	ND	ND	ND
70512	2018-02-12T23:00:00	44.4	ND	ND	ND	4.878656442	8.634437628	ND	ND	ND	ND	ND	ND
70513	2018-02-13T00:00:00	47.9	ND	ND	ND	7.276167607	6.436580777	ND	ND	ND	ND	ND	ND
70514	2018-02-13T01:00:00	47.1	ND	ND	ND	5.673180491	6.142224949	ND	ND	ND	ND	ND	ND
70515	2018-02-13T02:00:00	44.9	ND	ND	ND	4.948351534	6.829055215	ND	ND	ND	ND	ND	ND
70516	2018-02-13T03:00:00	44.2	ND	ND	ND	5.756814601	7.476638037	ND	ND	ND	ND	ND	ND
70517	2018-02-13T04:00:00	45.4	ND	ND	ND	5.045924663	5.141415133	ND	ND	ND	ND	ND	ND
70518	2018-02-13T05:00:00	60.2	ND	ND	ND	7.471313865	4.356466258	ND	ND	ND	ND	ND	ND
70519	2018-02-13T06:00:00	67.4	ND	ND	ND	4.990168589	2.472588957	ND	ND	ND	ND	ND	ND
70520	2018-02-13T07:00:00	83	ND	ND	ND	4.795022331	2.747321063	ND	ND	ND	ND	ND	ND
70521	2018-02-13T08:00:00	101.1	ND	ND	ND	4.19564454	3.100548057	ND	ND	ND	ND	ND	ND
70522	2018-02-13T09:00:00	126.3	ND	ND	ND	6.704667853	5.926364008	ND	ND	ND	ND	ND	ND
70523	2018-02-13T10:00:00	132.9	ND	ND	ND	4.530180982	10.57718609	ND	ND	ND	ND	ND	ND
70524	2018-02-13T11:00:00	108.7	ND	ND	ND	4.599876074	40.75847035	ND	ND	ND	ND	ND	ND
70525	2018-02-13T12:00:00	111.1	ND	ND	ND	3.819291043	65.54323108	ND	ND	ND	ND	ND	ND
70526	2018-02-13T13:00:00	76.4	ND	ND	ND	5.631363436	83.00834356	ND	ND	ND	ND	ND	ND
70527	2018-02-13T14:00:00	63.2	ND	ND	ND	6.398009448	67.15237628	ND	ND	ND	ND	ND	ND
70528	2018-02-13T15:00:00	45.4	ND	ND	ND	4.000498282	28.29740695	ND	ND	ND	ND	ND	ND
70529	2018-02-13T16:00:00	25.6	ND	ND	ND	4.976229571	19.70221677	ND	ND	ND	ND	ND	ND
70530	2018-02-13T17:00:00	24.7	ND	ND	ND	4.153827485	20.68340286	ND	ND	ND	ND	ND	ND
70531	2018-02-13T18:00:00	31.6	ND	ND	ND	4.362912761	13.14789366	ND	ND	ND	ND	ND	ND
70532	2018-02-13T19:00:00	33.2	ND	ND	ND	3.861108098	11.14627403	ND	ND	ND	ND	ND	ND
70533	2018-02-13T20:00:00	37.1	ND	ND	ND	3.66596184	6.868302658	ND	ND	ND	ND	ND	ND
70534	2018-02-13T21:00:00	30.6	ND	ND	ND	2.425389202	7.025292434	ND	ND	ND	ND	ND	ND
70535	2018-02-13T22:00:00	23	ND	ND	ND	2.718108589	12.08821268	ND	ND	ND	ND	ND	ND
70536	2018-02-13T23:00:00	26.3	ND	ND	ND	4.265339632	12.04896524	ND	ND	ND	ND	ND	ND
70537	2018-02-14T00:00:00	30	ND	ND	ND	5.24107092	7.653251534	ND	ND	ND	ND	ND	ND
70538	2018-02-14T01:00:00	31.9	ND	ND	ND	4.725327239	5.514265849	ND	ND	ND	ND	ND	ND
70539	2018-02-14T02:00:00	48.1	ND	ND	ND	6.244680245	5.926364008	ND	ND	ND	ND	ND	ND
70540	2018-02-14T03:00:00	56.6	ND	ND	ND	5.603485399	4.748940695	ND	ND	ND	ND	ND	ND
70541	2018-02-14T04:00:00	54.3	ND	ND	ND	4.348973742	6.024482618	ND	ND	ND	ND	ND	ND
70542	2018-02-14T05:00:00	46.2	ND	ND	ND	5.993777914	4.474208589	ND	ND	ND	ND	ND	ND
70543	2018-02-14T06:00:00	55.9	ND	ND	ND	6.314375337	2.492212679	ND	ND	ND	ND	ND	ND
70544	2018-02-14T07:00:00	73.1	ND	ND	ND	5.951960859	2.570707566	ND	ND	ND	ND	ND	ND
70545	2018-02-14T08:00:00	95.7	ND	ND	ND	3.596266748	3.375280164	ND	ND	ND	ND	ND	ND
70546	2018-02-14T09:00:00	115.8	ND	ND	ND	5.85438773	6.397333333	ND	ND	ND	ND	ND	ND
70547	2018-02-14T10:00:00	125.3	ND	ND	ND	6.188924172	17.64172597	ND	ND	ND	ND	ND	ND
70548	2018-02-14T11:00:00	109.2	ND	ND	ND	4.795022331	22.31217178	ND	ND	ND	ND	ND	ND
70549	2018-02-14T12:00:00	68.4	ND	ND	ND	5.087741718	40.18938241	ND	ND	ND	ND	ND	ND
70550	2018-02-14T13:00:00	52.8	ND	ND	ND	6.718606871	57.98809816	ND	ND	ND	ND	ND	ND
70551	2018-02-14T14:00:00	32	ND	ND	ND	2.383572147	72.98062168	ND	ND	ND	ND	ND	ND
70552	2018-02-14T15:00:00	7.8	ND	ND	ND	5.812570675	45.05606544	ND	ND	ND	ND	646.7	0
70553	2018-02-14T16:00:00	0.3	ND	ND	ND	4.19564454	23.09712065	ND	ND	ND	ND	638	0
70554	2018-02-14T17:00:00	30.8	ND	ND	ND	4.084132393	17.4847362	ND	ND	ND	ND	647.3	0
70555	2018-02-14T18:00:00	58.6	ND	ND	ND	4.084132393	12.559182	ND	ND	ND	ND	347.7	0
70556	2018-02-14T19:00:00	45.4	ND	ND	ND	3.888986135	9.635247444	ND	ND	ND	ND	26.4	0
70557	2018-02-14T20:00:00	55.2	ND	ND	ND	4.585937055	5.357276074	ND	ND	ND	ND	0	0
70558	2018-02-14T21:00:00	38	ND	ND	ND	4.990168589	6.004858896	ND	ND	ND	ND	0	0.25
70559	2018-02-14T22:00:00	42.3	ND	ND	ND	4.683510184	7.515885481	ND	ND	ND	ND	0	2.03
70560	2018-02-14T23:00:00	46.6	ND	ND	ND	7.443435828	2.374470348	ND	ND	ND	ND	0	1.52
70561	2018-02-15T00:00:00	42.6	ND	ND	ND	5.85438773	2.374470348	ND	ND	ND	ND	0	0
70562	2018-02-15T01:00:00	45.5	ND	ND	ND	6.55133865	2.374470348	ND	ND	ND	ND	0	0.25
70563	2018-02-15T02:00:00	40	ND	ND	ND	6.788301963	2.943558282	ND	ND	ND	ND	0	0
70564	2018-02-15T03:00:00	22	ND	ND	ND	5.714997546	2.747321063	ND	ND	ND	ND	0	23.37
70565	2018-02-15T04:00:00	2.4	ND	ND	ND	6.704667853	3.198666667	ND	ND	ND	ND	0	0
70566	2018-02-15T05:00:00	ND	ND	ND	ND	5.380461104	2.806192229	ND	ND	ND	ND	0	0.51
70567	2018-02-15T06:00:00	27.8	ND	ND	ND	5.143497791	2.099738241	ND	ND	ND	ND	0	0
70568	2018-02-15T07:00:00	35.8	ND	ND	ND	6.857997055	2.276351738	ND	ND	ND	ND	19.6	0.25
70569	2018-02-15T08:00:00	32.1	ND	ND	ND	5.687119509	2.413717791	ND	ND	ND	ND	162.2	0.51
70570	2018-02-15T09:00:00	65.7	ND	ND	ND	3.805352025	2.766944785	ND	ND	ND	ND	362.3	0
70571	2018-02-15T10:00:00	53.6	ND	ND	ND	4.80896135	7.653251534	ND	ND	ND	ND	641	0
70572	2018-02-15T11:00:00	62.2	ND	ND	ND	5.185314847	21.97856851	ND	ND	ND	ND	647.9	0
70573	2018-02-15T12:00:00	48.8	ND	ND	ND	5.087741718	42.76008998	ND	ND	ND	ND	647.5	0
70574	2018-02-15T13:00:00	51.6	ND	ND	ND	5.282887975	70.35104294	ND	ND	ND	ND	647.6	0
70575	2018-02-15T14:00:00	54.8	ND	ND	ND	6.73254589	61.71660532	ND	ND	ND	ND	647.7	0
70576	2018-02-15T15:00:00	59.2	ND	ND	ND	4.753205276	70.80238855	ND	ND	ND	ND	645.8	0
70577	2018-02-15T16:00:00	56	ND	ND	ND	4.753205276	58.81229448	ND	ND	ND	ND	582.5	0
70578	2018-02-15T17:00:00	52.9	ND	ND	ND	3.84716908	14.26644581	ND	ND	ND	ND	368.1	0
70579	2018-02-15T18:00:00	27.8	ND	ND	ND	4.293217669	8.712932515	ND	ND	ND	ND	48	0
70580	2018-02-15T19:00:00	27.2	ND	ND	ND	5.087741718	5.926364008	ND	ND	ND	ND	4	0
70581	2018-02-15T20:00:00	26.8	ND	ND	ND	2.773864663	5.121791411	ND	ND	ND	ND	0	0
70582	2018-02-15T21:00:00	59.8	ND	ND	ND	4.878656442	8.850298569	ND	ND	ND	ND	0	0
70583	2018-02-15T22:00:00	31.9	ND	ND	ND	4.80896135	9.066159509	ND	ND	ND	ND	0	0
70584	2018-02-15T23:00:00	28.5	ND	ND	ND	4.376851779	4.297595092	ND	ND	ND	ND	0	0
70585	2018-02-16T00:00:00	30.9	ND	ND	ND	3.944742209	5.494642127	ND	ND	ND	ND	0	0
70586	2018-02-16T01:00:00	14.6	ND	ND	ND	6.857997055	6.515075665	ND	ND	ND	ND	0	0
70587	2018-02-16T02:00:00	20.3	ND	ND	ND	6.007716933	5.259157464	ND	ND	ND	ND	0	0
70588	2018-02-16T03:00:00	36.7	ND	ND	ND	6.105290061	7.064539877	ND	ND	ND	ND	0	0
70589	2018-02-16T04:00:00	41.5	ND	ND	ND	3.721717914	7.319648262	ND	ND	ND	ND	0	0.25
70590	2018-02-16T05:00:00	20	ND	ND	ND	5.645302454	5.690879346	ND	ND	ND	ND	0	0
70591	2018-02-16T06:00:00	23.9	ND	ND	ND	5.045924663	4.434961145	ND	ND	ND	ND	0	0
70592	2018-02-16T07:00:00	54.3	ND	ND	ND	4.54412	2.354846626	ND	ND	ND	ND	46.2	0
70593	2018-02-16T08:00:00	47.9	ND	ND	ND	5.255009939	3.33603272	ND	ND	ND	ND	335	0
70594	2018-02-16T09:00:00	72.4	ND	ND	ND	5.659241472	6.338462168	ND	ND	ND	ND	572.6	0
70595	2018-02-16T10:00:00	64.8	ND	ND	ND	4.530180982	13.89359509	ND	ND	ND	ND	647.5	0
70596	2018-02-16T11:00:00	53.5	ND	ND	ND	4.585937055	23.1363681	ND	ND	ND	ND	633.5	0
70597	2018-02-16T12:00:00	37.5	ND	ND	ND	6.495582577	32.18290389	ND	ND	ND	ND	618.5	0
70598	2018-02-16T13:00:00	28.8	ND	ND	ND	3.972620245	39.40443354	ND	ND	ND	ND	642.3	0
70599	2018-02-16T14:00:00	15	ND	ND	ND	5.645302454	49.98161963	ND	ND	ND	ND	633	0
70600	2018-02-16T15:00:00	39.6	ND	ND	ND	4.209583558	60.91203272	ND	ND	ND	ND	572.6	0
70601	2018-02-16T16:00:00	25.9	ND	ND	ND	4.321095706	27.57132924	ND	ND	ND	ND	596.9	0
70602	2018-02-16T17:00:00	26.2	ND	ND	ND	5.868326748	15.73822495	ND	ND	ND	ND	634.3	0
70603	2018-02-16T18:00:00	31.8	ND	ND	ND	5.603485399	11.08740286	ND	ND	ND	ND	221.8	0
70604	2018-02-16T19:00:00	25	ND	ND	ND	5.756814601	9.419386503	ND	ND	ND	ND	14	0
70605	2018-02-16T20:00:00	27.9	ND	ND	ND	6.021655951	8.732556237	ND	ND	ND	ND	0	0
70606	2018-02-16T21:00:00	23.4	ND	ND	ND	4.80896135	5.062920245	ND	ND	ND	ND	0	0
70607	2018-02-16T22:00:00	38.6	ND	ND	ND	5.059863681	6.142224949	ND	ND	ND	ND	0	0
70608	2018-02-16T23:00:00	47.2	ND	ND	ND	5.324705031	4.59195092	ND	ND	ND	ND	0	0
70609	2018-02-17T00:00:00	45.7	ND	ND	ND	5.85438773	4.27797137	ND	ND	ND	ND	0	0
70610	2018-02-17T01:00:00	29.7	ND	ND	ND	6.174985153	2.70807362	ND	ND	ND	ND	0	0
70611	2018-02-17T02:00:00	54.4	ND	ND	ND	6.174985153	2.982805726	ND	ND	ND	ND	0	0
70612	2018-02-17T03:00:00	62	ND	ND	ND	6.788301963	2.982805726	ND	ND	ND	ND	0	0
70613	2018-02-17T04:00:00	60.1	ND	ND	ND	6.927692147	3.23791411	ND	ND	ND	ND	0	0
70614	2018-02-17T05:00:00	50.3	ND	ND	ND	6.481643558	2.29597546	ND	ND	ND	ND	0	0
70615	2018-02-17T06:00:00	47.6	ND	ND	ND	6.913753129	2.413717791	ND	ND	ND	ND	0	0
70616	2018-02-17T07:00:00	53	ND	ND	ND	5.24107092	2.256728016	ND	ND	ND	ND	79.7	0
70617	2018-02-17T08:00:00	70.1	ND	ND	ND	5.659241472	4.062110429	ND	ND	ND	ND	444.4	0
70618	2018-02-17T09:00:00	91	ND	ND	ND	6.648911779	6.338462168	ND	ND	ND	ND	641.7	0
70619	2018-02-17T10:00:00	90.3	ND	ND	ND	6.049533988	9.478257669	ND	ND	ND	ND	429.3	0
70620	2018-02-17T11:00:00	82.7	ND	ND	ND	5.50591227	6.142224949	ND	ND	ND	ND	340.4	0
70621	2018-02-17T12:00:00	73.3	ND	ND	ND	4.906534479	10.95003681	ND	ND	ND	ND	535.9	0
70622	2018-02-17T13:00:00	59.9	ND	ND	ND	4.181705521	22.82238855	ND	ND	ND	ND	647.2	0
70623	2018-02-17T14:00:00	69.7	ND	ND	ND	4.920473497	45.016818	ND	ND	ND	ND	647.4	0
70624	2018-02-17T15:00:00	67.4	ND	ND	ND	5.338644049	33.5369407	ND	ND	ND	ND	314.7	16
70625	2018-02-17T16:00:00	19.5	ND	ND	ND	4.46048589	6.750560327	ND	ND	ND	ND	514	2.03
70626	2018-02-17T17:00:00	24.8	ND	ND	ND	3.735656933	7.908359918	ND	ND	ND	ND	389.8	0
70627	2018-02-17T18:00:00	51.5	ND	ND	ND	5.631363436	5.21991002	ND	ND	ND	ND	162.8	0
70628	2018-02-17T19:00:00	56.3	ND	ND	ND	4.725327239	3.120171779	ND	ND	ND	ND	20.7	0
70629	2018-02-17T20:00:00	44.2	ND	ND	ND	5.268948957	3.02205317	ND	ND	ND	ND	0	0
70630	2018-02-17T21:00:00	44.2	ND	ND	ND	5.045924663	5.867492843	ND	ND	ND	ND	0	0
70631	2018-02-17T22:00:00	35	ND	ND	ND	3.944742209	4.788188139	ND	ND	ND	ND	0	0
70632	2018-02-17T23:00:00	37.8	ND	ND	ND	5.045924663	6.475828221	ND	ND	ND	ND	0	0
70633	2018-02-18T00:00:00	32	ND	ND	ND	4.767144294	6.966421268	ND	ND	ND	ND	0	0
70634	2018-02-18T01:00:00	33	ND	ND	ND	4.46048589	8.359705521	ND	ND	ND	ND	0	0
70635	2018-02-18T02:00:00	24.2	ND	ND	ND	3.164157178	5.31802863	ND	ND	ND	ND	0	0
70636	2018-02-18T03:00:00	14	ND	ND	ND	4.725327239	5.965611452	ND	ND	ND	ND	0	0
70637	2018-02-18T04:00:00	11.9	ND	ND	ND	5.185314847	4.258347648	ND	ND	ND	ND	0	0
70638	2018-02-18T05:00:00	11.1	ND	ND	ND	4.446546871	2.806192229	ND	ND	ND	ND	0	0
70639	2018-02-18T06:00:00	24.5	ND	ND	ND	4.906534479	2.29597546	ND	ND	ND	ND	0	0
70640	2018-02-18T07:00:00	37.5	ND	ND	ND	6.007716933	2.256728016	ND	ND	ND	ND	16.9	0
70641	2018-02-18T08:00:00	32.3	ND	ND	ND	3.275669325	3.316408998	ND	ND	ND	ND	290.6	0
70642	2018-02-18T09:00:00	30.9	ND	ND	ND	5.018046626	8.457824131	ND	ND	ND	ND	604.7	0
70643	2018-02-18T10:00:00	28.3	ND	ND	ND	4.209583558	15.40462168	ND	ND	ND	ND	647.8	0
70644	2018-02-18T11:00:00	44.3	ND	ND	ND	4.878656442	26.82562781	ND	ND	ND	ND	647.5	0
70645	2018-02-18T12:00:00	35.7	ND	ND	ND	5.408339141	40.48373824	ND	ND	ND	ND	630	0
70646	2018-02-18T13:00:00	37.9	ND	ND	ND	5.087741718	45.60552965	ND	ND	ND	ND	644.4	0
70647	2018-02-18T14:00:00	32.5	ND	ND	ND	5.24107092	46.97919018	ND	ND	ND	ND	604.5	0
70648	2018-02-18T15:00:00	32.7	ND	ND	ND	4.822900368	45.33079755	ND	ND	ND	ND	499.8	0
70649	2018-02-18T16:00:00	37.7	ND	ND	ND	5.617424417	27.88530879	ND	ND	ND	ND	384.2	0
70650	2018-02-18T17:00:00	23.1	ND	ND	ND	6.411948466	13.46187321	ND	ND	ND	ND	269.2	0
70651	2018-02-18T18:00:00	11.6	ND	ND	ND	6.342253374	14.89440491	ND	ND	ND	ND	65	0
70652	2018-02-18T19:00:00	20.9	ND	ND	ND	4.934412515	12.51993456	ND	ND	ND	ND	0	0
70653	2018-02-18T20:00:00	22.9	ND	ND	ND	6.509521595	14.56080164	ND	ND	ND	ND	0	0
70654	2018-02-18T21:00:00	17.2	ND	ND	ND	5.073802699	7.869112474	ND	ND	ND	ND	0	0
70655	2018-02-18T22:00:00	42.3	ND	ND	ND	5.394400123	4.59195092	ND	ND	ND	ND	0	0
70656	2018-02-18T23:00:00	42.4	ND	ND	ND	5.394400123	4.650822086	ND	ND	ND	ND	0	0
70657	2018-02-19T00:00:00	39.7	ND	ND	ND	5.617424417	3.983615542	ND	ND	ND	ND	0	0
70658	2018-02-19T01:00:00	26	ND	ND	ND	5.533790307	4.317218814	ND	ND	ND	ND	0	2.03
70659	2018-02-19T02:00:00	14.4	ND	ND	ND	6.035594969	5.867492843	ND	ND	ND	ND	0	2.54
70660	2018-02-19T03:00:00	3.6	ND	ND	ND	5.073802699	5.553513292	ND	ND	ND	ND	0	0.76
70661	2018-02-19T04:00:00	4.1	ND	ND	ND	4.836839387	6.004858896	ND	ND	ND	ND	0	0.76
70662	2018-02-19T05:00:00	0.3	ND	ND	ND	3.707778896	4.336842536	ND	ND	ND	ND	0	0
70663	2018-02-19T06:00:00	1	ND	ND	ND	4.056254356	2.570707566	ND	ND	ND	ND	0	0.25
70664	2018-02-19T07:00:00	4.2	ND	ND	ND	5.910143804	2.021243354	ND	ND	ND	ND	26.4	0
70665	2018-02-19T08:00:00	39.8	ND	ND	ND	7.178594479	2.60995501	ND	ND	ND	ND	121.9	0
70666	2018-02-19T09:00:00	55	ND	ND	ND	4.502302945	2.865063395	ND	ND	ND	ND	277.1	0
70667	2018-02-19T10:00:00	71.5	ND	ND	ND	6.509521595	8.006478528	ND	ND	ND	ND	601.6	0
70668	2018-02-19T11:00:00	67.8	ND	ND	ND	5.087741718	21.90007362	ND	ND	ND	ND	647.7	0
70669	2018-02-19T12:00:00	46.5	ND	ND	ND	4.739266258	32.75199182	ND	ND	ND	ND	647.5	0
70670	2018-02-19T13:00:00	29.3	ND	ND	ND	5.491973252	35.26382822	ND	ND	ND	ND	633.5	0
70671	2018-02-19T14:00:00	38.3	ND	ND	ND	6.077412025	42.44611043	ND	ND	ND	ND	507	0
70672	2018-02-19T15:00:00	38.2	ND	ND	ND	5.951960859	16.6801636	ND	ND	ND	ND	569	1.27
70673	2018-02-19T16:00:00	53	ND	ND	ND	4.571998037	11.08740286	ND	ND	ND	ND	403.9	0
70674	2018-02-19T17:00:00	54.7	ND	ND	ND	4.516241963	11.14627403	ND	ND	ND	ND	508.3	0
70675	2018-02-19T18:00:00	32.1	ND	ND	ND	3.359303436	6.515075665	ND	ND	ND	ND	117.9	0
70676	2018-02-19T19:00:00	24.6	ND	ND	ND	3.540510675	4.709693252	ND	ND	ND	ND	0	0
70677	2018-02-19T20:00:00	11.4	ND	ND	ND	3.512632638	5.533889571	ND	ND	ND	ND	0	0
70678	2018-02-19T21:00:00	26.3	ND	ND	ND	3.805352025	2.629578732	ND	ND	ND	ND	0	0
70679	2018-02-19T22:00:00	63.1	ND	ND	ND	4.781083313	2.178233129	ND	ND	ND	ND	0	0
70680	2018-02-19T23:00:00	44.7	ND	ND	ND	4.293217669	2.335222904	ND	ND	ND	ND	0	0
70681	2018-02-20T00:00:00	48.8	ND	ND	ND	4.418668834	1.766134969	ND	ND	ND	ND	0	0
70682	2018-02-20T01:00:00	52.9	ND	ND	ND	7.206472515	3.65001227	ND	ND	ND	ND	0	0
70683	2018-02-20T02:00:00	54.5	ND	ND	ND	6.871936074	2.021243354	ND	ND	ND	ND	0	0
70684	2018-02-20T03:00:00	40.5	ND	ND	ND	6.300436319	2.39409407	ND	ND	ND	ND	0	0
70685	2018-02-20T04:00:00	40.5	ND	ND	ND	5.742875583	2.021243354	ND	ND	ND	ND	0	0
70686	2018-02-20T05:00:00	30	ND	ND	ND	5.561668344	1.942748466	ND	ND	ND	ND	0	0
70687	2018-02-20T06:00:00	49.1	ND	ND	ND	6.983448221	2.237104294	ND	ND	ND	ND	0	0
70688	2018-02-20T07:00:00	67.9	ND	ND	ND	5.491973252	3.041676892	ND	ND	ND	ND	75.6	0
70689	2018-02-20T08:00:00	70	ND	ND	ND	ND	ND	ND	ND	ND	ND	518.9	0
70690	2018-02-20T09:00:00	ND	ND	ND	ND	ND	5.553513292	ND	ND	ND	ND	644.4	0
70691	2018-02-20T10:00:00	ND	ND	ND	ND	1.017548344	14.22719836	ND	ND	ND	ND	645.8	0
70692	2018-02-20T11:00:00	ND	ND	ND	ND	0.710889939	32.81086299	ND	ND	ND	ND	644.8	0
70693	2018-02-20T12:00:00	72.1	ND	ND	ND	0.557560736	44.60471984	ND	ND	ND	ND	581.5	0
70694	2018-02-20T13:00:00	47.1	ND	ND	ND	1.184816564	58.14508793	ND	ND	ND	ND	603.1	0
70695	2018-02-20T14:00:00	43.5	ND	ND	ND	1.31026773	61.81472393	ND	ND	ND	ND	450.8	0
70696	2018-02-20T15:00:00	51.8	ND	ND	ND	1.853889448	48.64720654	ND	ND	ND	ND	505.9	0
70697	2018-02-20T16:00:00	37	ND	ND	ND	1.770255337	14.42343558	ND	ND	ND	ND	594	0
70698	2018-02-20T17:00:00	25.5	ND	ND	ND	2.021157669	13.55999182	ND	ND	ND	ND	391.4	0
70699	2018-02-20T18:00:00	20.3	ND	ND	ND	2.062974724	9.596	ND	ND	ND	ND	111.5	0
70700	2018-02-20T19:00:00	15.2	ND	ND	ND	1.184816564	7.398143149	ND	ND	ND	ND	15.1	0
70701	2018-02-20T20:00:00	23.2	ND	ND	ND	1.519353006	9.968850716	ND	ND	ND	ND	0	0
70702	2018-02-20T21:00:00	18.7	ND	ND	ND	1.700560245	9.026912065	ND	ND	ND	ND	0	0
70703	2018-02-20T22:00:00	27.1	ND	ND	ND	0.975731288	10.02772188	ND	ND	ND	ND	0	0
70704	2018-02-20T23:00:00	24.3	ND	ND	ND	1.714499264	1.805382413	ND	ND	ND	ND	0	0
70705	2018-02-21T00:00:00	35.8	ND	ND	ND	3.192035215	3.120171779	ND	ND	ND	ND	0	0
70706	2018-02-21T01:00:00	38.8	ND	ND	ND	3.052645031	3.473398773	ND	ND	ND	ND	0	0
70707	2018-02-21T02:00:00	32.3	ND	ND	ND	2.704169571	3.728507157	ND	ND	ND	ND	0	0
70708	2018-02-21T03:00:00	9.4	ND	ND	ND	3.010827975	5.023672802	ND	ND	ND	ND	0	0
70709	2018-02-21T04:00:00	9.8	ND	ND	ND	2.00721865	4.788188139	ND	ND	ND	ND	0	0
70710	2018-02-21T05:00:00	33.9	ND	ND	ND	2.829620736	4.611574642	ND	ND	ND	ND	0	0
70711	2018-02-21T06:00:00	40	ND	ND	ND	2.35569411	2.217480573	ND	ND	ND	ND	0	0
70712	2018-02-21T07:00:00	66.9	ND	ND	ND	1.770255337	2.70807362	ND	ND	ND	ND	10.1	0
70713	2018-02-21T08:00:00	70	ND	ND	ND	4.265339632	2.982805726	ND	ND	ND	ND	156.6	0
70714	2018-02-21T09:00:00	81.1	ND	ND	ND	1.296328712	4.788188139	ND	ND	ND	ND	588	0
70715	2018-02-21T10:00:00	79.1	ND	ND	ND	0.989670307	12.57880573	ND	ND	ND	ND	640.3	0
70716	2018-02-21T11:00:00	62.7	ND	ND	ND	1.003609325	25.23610634	ND	ND	ND	ND	633.7	0
70717	2018-02-21T12:00:00	63.4	ND	ND	ND	0.181207239	38.65873211	ND	ND	ND	ND	644	0
70718	2018-02-21T13:00:00	55.2	ND	ND	ND	0.850280123	47.98	ND	ND	ND	ND	606.1	0
70719	2018-02-21T14:00:00	46.1	ND	ND	ND	0.08363411	76.02229857	ND	ND	ND	ND	610.1	0
70720	2018-02-21T15:00:00	17.1	ND	ND	ND	1.505413988	53.04292025	ND	ND	ND	ND	498	0
70721	2018-02-21T16:00:00	38.7	ND	ND	ND	0.515743681	30.33827403	ND	ND	ND	ND	486.3	0
70722	2018-02-21T17:00:00	31.7	ND	ND	ND	1.867828466	11.69573824	ND	ND	ND	ND	626.9	0
70723	2018-02-21T18:00:00	27.8	ND	ND	ND	0.34847546	9.870732106	ND	ND	ND	ND	288.6	0
70724	2018-02-21T19:00:00	13.8	ND	ND	ND	0.794524049	8.595190184	ND	ND	ND	ND	12	0
70725	2018-02-21T20:00:00	12.1	ND	ND	ND	2.160547853	11.28364008	ND	ND	ND	ND	0	0
70726	2018-02-21T21:00:00	5.2	ND	ND	ND	3.805352025	11.9312229	ND	ND	ND	ND	0	0
70727	2018-02-21T22:00:00	14.4	ND	ND	ND	1.39390184	8.693308793	ND	ND	ND	ND	0	0
70728	2018-02-21T23:00:00	10.7	ND	ND	ND	2.592657423	11.57799591	ND	ND	ND	ND	0	0
70729	2018-02-22T00:00:00	1.6	ND	ND	ND	1.979340613	13.44224949	ND	ND	ND	ND	0	0
70730	2018-02-22T01:00:00	12.4	ND	ND	ND	0.487865644	12.71617178	ND	ND	ND	ND	0	0
70731	2018-02-22T02:00:00	15.9	ND	ND	ND	1.92358454	8.222339468	ND	ND	ND	ND	0	0
70732	2018-02-22T03:00:00	31.3	ND	ND	ND	3.122340123	6.063730061	ND	ND	ND	ND	0	0
70733	2018-02-22T04:00:00	33.1	ND	ND	ND	1.547231043	5.592760736	ND	ND	ND	ND	0	0
70734	2018-02-22T05:00:00	33.8	ND	ND	ND	6.425887485	1.511026585	ND	ND	ND	ND	0	0
70735	2018-02-22T06:00:00	60.3	ND	ND	ND	5.115619755	1.726887526	ND	ND	ND	ND	0	0
70736	2018-02-22T07:00:00	71.6	ND	ND	ND	4.711388221	2.29597546	ND	ND	ND	ND	24	0
70737	2018-02-22T08:00:00	69.8	ND	ND	ND	4.822900368	2.629578732	ND	ND	ND	ND	211.8	0
70738	2018-02-22T09:00:00	77.2	ND	ND	ND	4.167766503	4.474208589	ND	ND	ND	ND	573.3	0
70739	2018-02-22T10:00:00	91.2	ND	ND	ND	2.313877055	7.61400409	ND	ND	ND	ND	647.5	0
70740	2018-02-22T11:00:00	83.7	ND	ND	ND	1.435718896	17.62210225	ND	ND	ND	ND	648.2	0
70741	2018-02-22T12:00:00	68.5	ND	ND	ND	1.017548344	30.43639264	ND	ND	ND	ND	623.4	0
70742	2018-02-22T13:00:00	45	ND	ND	ND	1.742377301	33.83129652	ND	ND	ND	ND	633.5	0
70743	2018-02-22T14:00:00	48.1	ND	ND	ND	2.035096687	42.07325971	ND	ND	ND	ND	456.6	0
70744	2018-02-22T15:00:00	35.7	ND	ND	ND	2.62053546	32.02591411	ND	ND	ND	ND	534.2	1.52
70745	2018-02-22T16:00:00	46.7	ND	ND	ND	3.735656933	13.24601227	ND	ND	ND	ND	642.8	0
70746	2018-02-22T17:00:00	66.7	ND	ND	ND	0.487865644	11.06777914	ND	ND	ND	ND	511.3	0
70747	2018-02-22T18:00:00	36.3	ND	ND	ND	1.547231043	6.809431493	ND	ND	ND	ND	79.4	0
70748	2018-02-22T19:00:00	0.1	ND	ND	ND	2.244181963	6.240343558	ND	ND	ND	ND	12.6	0
70749	2018-02-22T20:00:00	5.5	ND	ND	ND	0.515743681	5.749750511	ND	ND	ND	ND	0	0
70750	2018-02-22T21:00:00	18.2	ND	ND	ND	1.031487362	4.827435583	ND	ND	ND	ND	0	0
70751	2018-02-22T22:00:00	25.6	ND	ND	ND	1.477535951	3.198666667	ND	ND	ND	ND	0	0
70752	2018-02-22T23:00:00	30.5	ND	ND	ND	1.630865153	9.478257669	ND	ND	ND	ND	0	0
70753	2018-02-23T00:00:00	7.9	ND	ND	ND	2.467206258	10.10621677	ND	ND	ND	ND	0	0
70754	2018-02-23T01:00:00	9.8	ND	ND	ND	1.979340613	11.44062986	ND	ND	ND	ND	0	0
70755	2018-02-23T02:00:00	11.1	ND	ND	ND	2.021157669	7.123411043	ND	ND	ND	ND	0	0
70756	2018-02-23T03:00:00	19.4	ND	ND	ND	1.087243436	3.944368098	ND	ND	ND	ND	0	0.25
70757	2018-02-23T04:00:00	26.5	ND	ND	ND	0.989670307	3.787378323	ND	ND	ND	ND	0	0
70758	2018-02-23T05:00:00	29.8	ND	ND	ND	3.693839877	1.844629857	ND	ND	ND	ND	0	0
70759	2018-02-23T06:00:00	18.1	ND	ND	ND	2.550840368	1.550274029	ND	ND	ND	ND	0	0
70760	2018-02-23T07:00:00	46.4	ND	ND	ND	2.801742699	1.609145194	ND	ND	ND	ND	36.4	0
70761	2018-02-23T08:00:00	70.8	ND	ND	ND	1.39390184	2.178233129	ND	ND	ND	ND	370.3	0
70762	2018-02-23T09:00:00	80.1	ND	ND	ND	2.439328221	6.142224949	ND	ND	ND	ND	579.1	0
70763	2018-02-23T10:00:00	79.1	ND	ND	ND	1.993279632	22.74389366	ND	ND	ND	ND	647.6	0
70764	2018-02-23T11:00:00	82.5	ND	ND	ND	1.04542638	42.62272393	ND	ND	ND	ND	646.2	0
70765	2018-02-23T12:00:00	83.1	ND	ND	ND	1.65874319	52.14022904	ND	ND	ND	ND	648.9	0
70766	2018-02-23T13:00:00	60	ND	ND	ND	2.132669816	66.23006135	ND	ND	ND	ND	603.4	0
70767	2018-02-23T14:00:00	51.4	ND	ND	ND	1.826011411	56.04534969	ND	ND	ND	ND	648.9	0
70768	2018-02-23T15:00:00	34.9	ND	ND	ND	1.742377301	32.59500204	ND	ND	ND	ND	517.1	0
70769	2018-02-23T16:00:00	13.3	ND	ND	ND	ND	11.46025358	ND	ND	ND	ND	634.1	0
70770	2018-02-23T17:00:00	27.4	ND	ND	ND	3.596266748	9.988474438	ND	ND	ND	ND	369.9	0
70771	2018-02-23T18:00:00	21.2	ND	ND	ND	1.770255337	10.00809816	ND	ND	ND	ND	133	0
70772	2018-02-23T19:00:00	27.6	ND	ND	ND	2.118730798	10.20433538	ND	ND	ND	ND	4.2	0
70773	2018-02-23T20:00:00	27.5	ND	ND	ND	1.240572638	12.46106339	ND	ND	ND	ND	0	0
70774	2018-02-23T21:00:00	27.7	ND	ND	ND	0.794524049	5.200286299	ND	ND	ND	ND	0	0
70775	2018-02-23T22:00:00	39.6	ND	ND	ND	2.745986626	8.438200409	ND	ND	ND	ND	0	0
70776	2018-02-23T23:00:00	21	ND	ND	ND	1.519353006	8.477447853	ND	ND	ND	ND	0	0
70777	2018-02-24T00:00:00	25.7	ND	ND	ND	1.867828466	5.259157464	ND	ND	ND	ND	0	0
70778	2018-02-24T01:00:00	32.3	ND	ND	ND	2.634474479	3.807002045	ND	ND	ND	ND	0	0
70779	2018-02-24T02:00:00	15.3	ND	ND	ND	1.282389693	3.708883436	ND	ND	ND	ND	0	0
70780	2018-02-24T03:00:00	24.4	ND	ND	ND	1.65874319	4.395713701	ND	ND	ND	ND	0	0
70781	2018-02-24T04:00:00	16	ND	ND	ND	1.31026773	8.24196319	ND	ND	ND	ND	0	0
70782	2018-02-24T05:00:00	14.4	ND	ND	ND	2.425389202	7.712122699	ND	ND	ND	ND	0	0.76
70783	2018-02-24T06:00:00	15.9	ND	ND	ND	1.39390184	4.258347648	ND	ND	ND	ND	0	1.52
70784	2018-02-24T07:00:00	13.3	ND	ND	ND	1.881767485	1.864253579	ND	ND	ND	ND	30.7	0.76
70785	2018-02-24T08:00:00	14.6	ND	ND	ND	0.96179227	1.569897751	ND	ND	ND	ND	229.5	0.76
70786	2018-02-24T09:00:00	26.6	ND	ND	ND	0.87815816	8.987664622	ND	ND	ND	ND	602.2	0
70787	2018-02-24T10:00:00	48	ND	ND	ND	1.156938528	23.62696115	ND	ND	ND	ND	639.6	0
70788	2018-02-24T11:00:00	54.1	ND	ND	ND	0.836341104	35.57780777	ND	ND	ND	ND	649.1	0
70789	2018-02-24T12:00:00	53	ND	ND	ND	1.435718896	46.46897342	ND	ND	ND	ND	648.9	0
70790	2018-02-24T13:00:00	44.8	ND	ND	ND	2.160547853	49.0593047	ND	ND	ND	ND	649.1	0
70791	2018-02-24T14:00:00	33.8	ND	ND	ND	1.965401595	43.64315746	ND	ND	ND	ND	598	0
70792	2018-02-24T15:00:00	28.1	ND	ND	ND	0.933914233	66.79914928	ND	ND	ND	ND	556.1	0
70793	2018-02-24T16:00:00	28.2	ND	ND	ND	2.648413497	32.9089816	ND	ND	ND	ND	649	0
70794	2018-02-24T17:00:00	27.8	ND	ND	ND	0.320597423	11.28364008	ND	ND	ND	ND	405.7	0
70795	2018-02-24T18:00:00	20	ND	ND	ND	0.446048589	10.26320654	ND	ND	ND	ND	81.3	0
70796	2018-02-24T19:00:00	16.9	ND	ND	ND	1.184816564	10.36132515	ND	ND	ND	ND	5.3	0
70797	2018-02-24T20:00:00	14.7	ND	ND	ND	3.972620245	7.457014315	ND	ND	ND	ND	0	0
70798	2018-02-24T21:00:00	15.3	ND	ND	ND	2.564779387	10.98928425	ND	ND	ND	ND	0	0
70799	2018-02-24T22:00:00	21.8	ND	ND	ND	1.839950429	5.730126789	ND	ND	ND	ND	0	0
70800	2018-02-24T23:00:00	32.6	ND	ND	ND	1.352084785	4.631198364	ND	ND	ND	ND	0	0
70801	2018-02-25T00:00:00	30.5	ND	ND	ND	2.035096687	7.829865031	ND	ND	ND	ND	0	0
70802	2018-02-25T01:00:00	30.5	ND	ND	ND	1.170877546	7.61400409	ND	ND	ND	ND	0	0
70803	2018-02-25T02:00:00	21.3	ND	ND	ND	0.892097178	6.593570552	ND	ND	ND	ND	0	0
70804	2018-02-25T03:00:00	11.6	ND	ND	ND	2.35569411	2.806192229	ND	ND	ND	ND	0	0.76
70805	2018-02-25T04:00:00	22.4	ND	ND	ND	2.258120982	1.059680982	ND	ND	ND	ND	0	0.76
70806	2018-02-25T05:00:00	22.3	ND	ND	ND	0.515743681	0.470969325	ND	ND	ND	ND	0	0.25
70807	2018-02-25T06:00:00	18.4	ND	ND	ND	1.22663362	1.04005726	ND	ND	ND	ND	0	0.25
70808	2018-02-25T07:00:00	19.3	ND	ND	ND	1.867828466	1.550274029	ND	ND	ND	ND	33.2	0.25
70809	2018-02-25T08:00:00	10.3	ND	ND	ND	0.989670307	2.354846626	ND	ND	ND	ND	265.3	0
70810	2018-02-25T09:00:00	20.9	ND	ND	ND	0.724828957	6.201096115	ND	ND	ND	ND	600.8	0
70811	2018-02-25T10:00:00	54.1	ND	ND	ND	0.069695092	16.09145194	ND	ND	ND	ND	624.3	0
70812	2018-02-25T11:00:00	45.5	ND	ND	ND	0.515743681	34.7928589	ND	ND	ND	ND	648.9	0
70813	2018-02-25T12:00:00	34	ND	ND	ND	3.289608344	39.60067076	ND	ND	ND	ND	649.2	0
70814	2018-02-25T13:00:00	20.8	ND	ND	ND	2.160547853	48.58833538	ND	ND	ND	ND	649.4	0
70815	2018-02-25T14:00:00	12.3	ND	ND	ND	ND	61.99133742	ND	ND	ND	ND	649.3	0
70816	2018-02-25T15:00:00	27.2	ND	ND	ND	0.906036196	30.14203681	ND	ND	ND	ND	531.8	0
70817	2018-02-25T16:00:00	10.2	ND	ND	ND	2.369633129	20.4479182	ND	ND	ND	ND	419	0
70818	2018-02-25T17:00:00	4.3	ND	ND	ND	0.390292515	19.52560327	ND	ND	ND	ND	391.5	0
70819	2018-02-25T18:00:00	15.5	ND	ND	ND	1.477535951	18.13231902	ND	ND	ND	ND	222.3	0
70820	2018-02-25T19:00:00	9	ND	ND	ND	0	12.44143967	ND	ND	ND	ND	7.4	0
70821	2018-02-25T20:00:00	6.4	ND	ND	ND	3.415059509	8.595190184	ND	ND	ND	ND	0	0
70822	2018-02-25T21:00:00	24.2	ND	ND	ND	2.230242945	3.591141104	ND	ND	ND	ND	0	0
70823	2018-02-25T22:00:00	51.7	ND	ND	ND	2.132669816	1.432531697	ND	ND	ND	ND	0	0
70824	2018-02-25T23:00:00	57.7	ND	ND	ND	4.362912761	0.706453988	ND	ND	ND	ND	0	0
70825	2018-02-26T00:00:00	51.7	ND	ND	ND	1.589048098	1.197047035	ND	ND	ND	ND	0	0
70826	2018-02-26T01:00:00	17.5	ND	ND	ND	1.602987117	9.242773006	ND	ND	ND	ND	0	0
70827	2018-02-26T02:00:00	ND	ND	ND	ND	2.383572147	11.32288753	ND	ND	ND	ND	0	0
70828	2018-02-26T03:00:00	ND	ND	ND	ND	1.491474969	11.75460941	ND	ND	ND	ND	0	0
70829	2018-02-26T04:00:00	6.7	ND	ND	ND	2.509023313	10.12584049	ND	ND	ND	ND	0	0
70830	2018-02-26T05:00:00	5.1	ND	ND	ND	1.184816564	9.105406953	ND	ND	ND	ND	0	0
70831	2018-02-26T06:00:00	8.2	ND	ND	ND	2.160547853	3.807002045	ND	ND	ND	ND	0	0
70832	2018-02-26T07:00:00	13.6	ND	ND	ND	2.829620736	1.079304703	ND	ND	ND	ND	58.7	0
70833	2018-02-26T08:00:00	62.8	ND	ND	ND	1.059365399	3.002429448	ND	ND	ND	ND	501.4	0
70834	2018-02-26T09:00:00	128.9	ND	ND	ND	1.449657914	5.730126789	ND	ND	ND	ND	648.5	0
70835	2018-02-26T10:00:00	ND	ND	ND	ND	ND	ND	ND	ND	ND	ND	648.4	0
70836	2018-02-26T11:00:00	47.7	ND	ND	ND	9.297325276	ND	ND	ND	ND	ND	648.4	0
70837	2018-02-26T12:00:00	113.6	ND	ND	ND	ND	ND	ND	ND	ND	ND	649.3	0
70838	2018-02-26T13:00:00	103.7	ND	ND	ND	9.70155681	40.38561963	ND	ND	ND	ND	643	0
70839	2018-02-26T14:00:00	52.9	ND	ND	ND	2.899315828	54.08297751	ND	ND	ND	ND	613.3	0
70840	2018-02-26T15:00:00	44.9	ND	ND	ND	4.209583558	27.76756646	ND	ND	ND	ND	648.4	0
70841	2018-02-26T16:00:00	31.2	ND	ND	ND	3.442937546	14.91402863	ND	ND	ND	ND	650	0
70842	2018-02-26T17:00:00	48.8	ND	ND	ND	0.418170552	11.59761963	ND	ND	ND	ND	578.8	0
70843	2018-02-26T18:00:00	35.4	ND	ND	ND	2.871437791	10.38094888	ND	ND	ND	ND	144.9	0
70844	2018-02-26T19:00:00	9	ND	ND	ND	2.509023313	10.87154192	ND	ND	ND	ND	9.4	0
70845	2018-02-26T20:00:00	17.9	ND	ND	ND	2.787803681	10.2239591	ND	ND	ND	ND	0	0
70846	2018-02-26T21:00:00	32	ND	ND	ND	2.522962331	4.925554192	ND	ND	ND	ND	0	0
70847	2018-02-26T22:00:00	43.8	ND	ND	ND	1.909645521	6.456204499	ND	ND	ND	ND	0	0
70848	2018-02-26T23:00:00	18.3	ND	ND	ND	2.467206258	9.458633947	ND	ND	ND	ND	0	0
70849	2018-02-27T00:00:00	21.1	ND	ND	ND	3.401120491	6.220719836	ND	ND	ND	ND	0	0
70850	2018-02-27T01:00:00	15.9	ND	ND	ND	2.411450184	8.987664622	ND	ND	ND	ND	0	0
70851	2018-02-27T02:00:00	23.3	ND	ND	ND	3.652022822	10.73417587	ND	ND	ND	ND	0	0
70852	2018-02-27T03:00:00	0.5	ND	ND	ND	3.484754601	11.9312229	ND	ND	ND	ND	0	0
70853	2018-02-27T04:00:00	ND	ND	ND	ND	0.041817055	10.8519182	ND	ND	ND	ND	0	0
70854	2018-02-27T05:00:00	ND	ND	ND	ND	3.470815583	7.005668712	ND	ND	ND	ND	0	0
70855	2018-02-27T06:00:00	15.1	ND	ND	ND	2.62053546	2.080114519	ND	ND	ND	ND	0	0
70856	2018-02-27T07:00:00	127.3	ND	ND	ND	6.593155706	0.843820041	ND	ND	ND	ND	22.5	0
70857	2018-02-27T08:00:00	151.3	ND	ND	ND	3.84716908	1.393284254	ND	ND	ND	ND	341.9	0
70858	2018-02-27T09:00:00	100.5	ND	ND	ND	3.275669325	9.831484663	ND	ND	ND	ND	643.9	0
70859	2018-02-27T10:00:00	123.4	ND	ND	ND	2.648413497	27.5320818	ND	ND	ND	ND	648.6	0
70860	2018-02-27T11:00:00	110.3	ND	ND	ND	1.31026773	36.46087526	ND	ND	ND	ND	648.8	0
70861	2018-02-27T12:00:00	80.6	ND	ND	ND	ND	51.13941922	ND	ND	ND	ND	645.5	0
70862	2018-02-27T13:00:00	66.4	ND	ND	ND	1.784194356	79.96666667	ND	ND	ND	ND	649.9	0
70863	2018-02-27T14:00:00	63.4	ND	ND	ND	2.313877055	96.66645399	ND	ND	ND	ND	642.1	0
70864	2018-02-27T15:00:00	59	ND	ND	ND	1.170877546	40.66035174	ND	ND	ND	ND	590.6	0
70865	2018-02-27T16:00:00	32.6	ND	ND	ND	4.432607853	15.97370961	ND	ND	ND	ND	622.3	0
70866	2018-02-27T17:00:00	46.1	ND	ND	ND	2.829620736	12.77504294	ND	ND	ND	ND	525.6	0
70867	2018-02-27T18:00:00	20.7	ND	ND	ND	2.88537681	11.61724335	ND	ND	ND	ND	149.7	0
70868	2018-02-27T19:00:00	23.4	ND	ND	ND	1.22663362	12.53955828	ND	ND	ND	ND	8.4	0
70869	2018-02-27T20:00:00	28.3	ND	ND	ND	3.610205767	12.75541922	ND	ND	ND	ND	0	0
70870	2018-02-27T21:00:00	31.8	ND	ND	ND	3.080523067	14.89440491	ND	ND	ND	ND	0	0
70871	2018-02-27T22:00:00	23.7	ND	ND	ND	3.763534969	11.0285317	ND	ND	ND	ND	0	0
70872	2018-02-27T23:00:00	24.2	ND	ND	ND	2.230242945	5.180662577	ND	ND	ND	ND	0	0
70873	2018-02-28T00:00:00	16.4	ND	ND	ND	3.038706012	10.18471166	ND	ND	ND	ND	0	0
70874	2018-02-28T01:00:00	35.9	ND	ND	ND	3.875047117	1.393284254	ND	ND	ND	ND	0	0
70875	2018-02-28T02:00:00	70.8	ND	ND	ND	3.094462086	1.648392638	ND	ND	ND	ND	0	0
70876	2018-02-28T03:00:00	89	ND	ND	ND	2.383572147	2.531460123	ND	ND	ND	ND	0	0
70877	2018-02-28T04:00:00	70.3	ND	ND	ND	2.035096687	2.649202454	ND	ND	ND	ND	0	0
70878	2018-02-28T05:00:00	58.4	ND	ND	ND	0.529682699	2.70807362	ND	ND	ND	ND	0	0
70879	2018-02-28T06:00:00	62.4	ND	ND	ND	2.021157669	1.412907975	ND	ND	ND	ND	0	0
70880	2018-02-28T07:00:00	49.8	ND	ND	ND	2.704169571	1.098928425	ND	ND	ND	ND	28.2	0
70881	2018-02-28T08:00:00	97.9	ND	ND	ND	4.028376319	1.844629857	ND	ND	ND	ND	421.2	0
70882	2018-02-28T09:00:00	141.1	ND	ND	ND	3.554449693	11.14627403	ND	ND	ND	ND	616	0
70883	2018-02-28T10:00:00	127.4	ND	ND	ND	3.512632638	30.08316564	ND	ND	ND	ND	648.6	0
70884	2018-02-28T11:00:00	98.5	ND	ND	ND	1.951462577	44.91869939	ND	ND	ND	ND	649.1	0
70885	2018-02-28T12:00:00	78.8	ND	ND	ND	2.522962331	63.91446217	ND	ND	ND	ND	645.1	0
70886	2018-02-28T13:00:00	78.2	ND	ND	ND	1.602987117	69.99781595	ND	ND	ND	ND	649.8	0
70887	2018-02-28T14:00:00	82.4	ND	ND	ND	1.003609325	77.69031493	ND	ND	ND	ND	650	0
70888	2018-02-28T15:00:00	96.8	ND	ND	ND	2.313877055	69.84082618	ND	ND	ND	ND	595	0
70889	2018-02-28T16:00:00	79.6	ND	ND	ND	1.04542638	20.50678937	ND	ND	ND	ND	650.3	0
70890	2018-02-28T17:00:00	67.1	ND	ND	ND	4.19564454	15.93446217	ND	ND	ND	ND	581.2	0
70891	2018-02-28T18:00:00	40.7	ND	ND	ND	2.829620736	13.22638855	ND	ND	ND	ND	235	0
70892	2018-02-28T19:00:00	33.1	ND	ND	ND	2.369633129	12.50031084	ND	ND	ND	ND	10.8	0
70893	2018-02-28T20:00:00	26.1	ND	ND	ND	2.216303926	12.77504294	ND	ND	ND	ND	0	0
70894	2018-02-28T21:00:00	29	ND	ND	ND	4.432607853	13.63848671	ND	ND	ND	ND	0	0
70895	2018-02-28T22:00:00	32.5	ND	ND	ND	3.205974233	9.596	ND	ND	ND	ND	0	0
70896	2018-02-28T23:00:00	31.1	ND	ND	ND	4.181705521	4.062110429	ND	ND	ND	ND	0	0
70897	2018-03-01T00:00:00	56.6	ND	ND	ND	4.850778405	1.138175869	ND	ND	ND	ND	0	0
70898	2018-03-01T01:00:00	46	ND	ND	ND	3.568388712	9.340891616	ND	ND	ND	ND	0	0
70899	2018-03-01T02:00:00	47.5	ND	ND	ND	4.209583558	0.686830266	ND	ND	ND	ND	0	0
70900	2018-03-01T03:00:00	51.8	ND	ND	ND	3.080523067	2.021243354	ND	ND	ND	ND	0	0
70901	2018-03-01T04:00:00	57.1	ND	ND	ND	4.795022331	1.785758691	ND	ND	ND	ND	0	0
70902	2018-03-01T05:00:00	52	ND	ND	ND	4.739266258	2.099738241	ND	ND	ND	ND	0	0
70903	2018-03-01T06:00:00	71.4	ND	ND	ND	4.362912761	1.098928425	ND	ND	ND	ND	0	0
70904	2018-03-01T07:00:00	78.3	ND	ND	ND	4.571998037	0.647582822	ND	ND	ND	ND	19.9	0
70905	2018-03-01T08:00:00	96.9	ND	ND	ND	2.843559755	1.157799591	ND	ND	ND	ND	243.6	0
70906	2018-03-01T09:00:00	100.2	ND	ND	ND	4.54412	9.439010225	ND	ND	ND	ND	641.8	0
70907	2018-03-01T10:00:00	105.5	ND	ND	ND	3.205974233	30.24015542	ND	ND	ND	ND	648.8	0
70908	2018-03-01T11:00:00	88	ND	ND	ND	3.415059509	44.52622495	ND	ND	ND	ND	648.1	0
70909	2018-03-01T12:00:00	63.2	ND	ND	ND	1.951462577	51.78700204	ND	ND	ND	ND	649.3	0
70910	2018-03-01T13:00:00	56.1	ND	ND	ND	2.174486871	54.4362045	ND	ND	ND	ND	649.8	0
70911	2018-03-01T14:00:00	55.1	ND	ND	ND	3.470815583	65.36661759	ND	ND	ND	ND	614.5	0
70912	2018-03-01T15:00:00	59.5	ND	ND	ND	3.693839877	73.54970961	ND	ND	ND	ND	625.6	0
70913	2018-03-01T16:00:00	49.9	ND	ND	ND	3.512632638	20.4479182	ND	ND	ND	ND	627.5	0
70914	2018-03-01T17:00:00	56.8	ND	ND	ND	2.076913742	13.06939877	ND	ND	ND	ND	441.2	0
70915	2018-03-01T18:00:00	47.8	ND	ND	ND	2.397511166	12.06858896	ND	ND	ND	ND	192.2	0
70916	2018-03-01T19:00:00	26.3	ND	ND	ND	2.899315828	11.79385685	ND	ND	ND	ND	19.5	0
70917	2018-03-01T20:00:00	29.4	ND	ND	ND	1.366023804	11.08740286	ND	ND	ND	ND	0	0
70918	2018-03-01T21:00:00	33.2	ND	ND	ND	2.090852761	9.439010225	ND	ND	ND	ND	0	0
70919	2018-03-01T22:00:00	29.7	ND	ND	ND	3.387181472	11.95084663	ND	ND	ND	ND	0	0
70920	2018-03-01T23:00:00	32.2	ND	ND	ND	2.397511166	8.889546012	ND	ND	ND	ND	0	0
70921	2018-03-02T00:00:00	32.8	ND	ND	ND	2.049035706	14.52155419	ND	ND	ND	ND	0	0
70922	2018-03-02T01:00:00	24.8	ND	ND	ND	3.415059509	14.50193047	ND	ND	ND	ND	0	0
70923	2018-03-02T02:00:00	12.9	ND	ND	ND	2.732047607	10.69492843	ND	ND	ND	ND	0	0
70924	2018-03-02T03:00:00	37.5	ND	ND	ND	4.906534479	4.631198364	ND	ND	ND	ND	0	0
70925	2018-03-02T04:00:00	58.6	ND	ND	ND	2.104791779	6.436580777	ND	ND	ND	ND	0	0
70926	2018-03-02T05:00:00	52.1	ND	ND	ND	4.976229571	4.69006953	ND	ND	ND	ND	0	0
70927	2018-03-02T06:00:00	55.3	ND	ND	ND	6.063473006	0.824196319	ND	ND	ND	ND	0	0
70928	2018-03-02T07:00:00	60.2	ND	ND	ND	3.819291043	0.392474438	ND	ND	ND	ND	19.9	1.52
70929	2018-03-02T08:00:00	43.4	ND	ND	ND	5.408339141	0.235484663	ND	ND	ND	ND	102.8	0.51
70930	2018-03-02T09:00:00	53.2	ND	ND	ND	4.934412515	1.059680982	ND	ND	ND	ND	243.7	0
70931	2018-03-02T10:00:00	63.6	ND	ND	ND	3.094462086	4.984425358	ND	ND	ND	ND	493.7	0
70932	2018-03-02T11:00:00	87.3	ND	ND	ND	6.398009448	10.75379959	ND	ND	ND	ND	493.8	0
70933	2018-03-02T12:00:00	92.5	ND	ND	ND	2.745986626	39.91465031	ND	ND	ND	ND	648.5	0
70934	2018-03-02T13:00:00	91.1	ND	ND	ND	1.92358454	61.93246626	ND	ND	ND	ND	629	0
70935	2018-03-02T14:00:00	83.4	ND	ND	ND	4.348973742	49.56952147	ND	ND	ND	ND	138.4	0.76
70936	2018-03-02T15:00:00	45.9	ND	ND	ND	3.986559264	17.85758691	ND	ND	ND	ND	417.5	1.27
70937	2018-03-02T16:00:00	35.8	ND	ND	ND	4.209583558	8.752179959	ND	ND	ND	ND	416.8	0
70938	2018-03-02T17:00:00	45.8	ND	ND	ND	2.230242945	6.377709611	ND	ND	ND	ND	236.4	0.25
70939	2018-03-02T18:00:00	46.5	ND	ND	ND	3.470815583	4.219100204	ND	ND	ND	ND	216.2	0
70940	2018-03-02T19:00:00	44	ND	ND	ND	3.763534969	1.648392638	ND	ND	ND	ND	6.8	0
70941	2018-03-02T20:00:00	33.6	ND	ND	ND	3.289608344	0.804572597	ND	ND	ND	ND	0	0
70942	2018-03-02T21:00:00	29.8	ND	ND	ND	3.652022822	0.588711656	ND	ND	ND	ND	0	0
70943	2018-03-02T22:00:00	33.3	ND	ND	ND	2.00721865	0.6279591	ND	ND	ND	ND	0	0
70944	2018-03-02T23:00:00	32.6	ND	ND	ND	2.982949939	0.843820041	ND	ND	ND	ND	0	0
70945	2018-03-03T00:00:00	46.2	ND	ND	ND	3.916864172	0.156989775	ND	ND	ND	ND	0	0
70946	2018-03-03T01:00:00	66.3	ND	ND	ND	3.679900859	0.490593047	ND	ND	ND	ND	0	0
70947	2018-03-03T02:00:00	79.7	ND	ND	ND	4.335034724	0.255108384	ND	ND	ND	ND	0	0
70948	2018-03-03T03:00:00	84.9	ND	ND	ND	4.27927865	0.392474438	ND	ND	ND	ND	0	0
70949	2018-03-03T04:00:00	60.6	ND	ND	ND	3.596266748	0.588711656	ND	ND	ND	ND	0	0
70950	2018-03-03T05:00:00	33.1	ND	ND	ND	3.122340123	0.255108384	ND	ND	ND	ND	0	0
70951	2018-03-03T06:00:00	35.6	ND	ND	ND	4.362912761	0.510216769	ND	ND	ND	ND	0	0
70952	2018-03-03T07:00:00	85.2	ND	ND	ND	4.390790798	0.490593047	ND	ND	ND	ND	30.2	0
70953	2018-03-03T08:00:00	131.1	ND	ND	ND	6.89981411	1.118552147	ND	ND	ND	ND	227.9	0
70954	2018-03-03T09:00:00	143.8	ND	ND	ND	4.725327239	3.767754601	ND	ND	ND	ND	485	0
70955	2018-03-03T10:00:00	149.6	ND	ND	ND	3.693839877	23.70545603	ND	ND	ND	ND	648.6	0
70956	2018-03-03T11:00:00	117.4	ND	ND	ND	2.759925644	51.04130061	ND	ND	ND	ND	649.5	0
70957	2018-03-03T12:00:00	83	ND	ND	ND	2.216303926	75.31584458	ND	ND	ND	ND	648.9	0
70958	2018-03-03T13:00:00	73.9	ND	ND	ND	4.27927865	73.0002454	ND	ND	ND	ND	649.1	0
70959	2018-03-03T14:00:00	64.6	ND	ND	ND	3.261730307	85.12770552	ND	ND	ND	ND	639.3	0
70960	2018-03-03T15:00:00	68.5	ND	ND	ND	3.484754601	105.6344949	ND	ND	ND	ND	607.8	0
70961	2018-03-03T16:00:00	60.9	ND	ND	ND	2.244181963	55.18190593	ND	ND	ND	ND	424.7	0
70962	2018-03-03T17:00:00	31.2	ND	ND	ND	2.871437791	21.86082618	ND	ND	ND	ND	582.2	0
70963	2018-03-03T18:00:00	35.6	ND	ND	ND	0.69695092	18.30893252	ND	ND	ND	ND	181.2	0
70964	2018-03-03T19:00:00	14.1	ND	ND	ND	2.481145276	14.07020859	ND	ND	ND	ND	17	0
70965	2018-03-03T20:00:00	23.9	ND	ND	ND	2.509023313	16.58204499	ND	ND	ND	ND	0	0
70966	2018-03-03T21:00:00	15.1	ND	ND	ND	2.174486871	16.87640082	ND	ND	ND	ND	0	0
70967	2018-03-03T22:00:00	20.6	ND	ND	ND	4.27927865	14.93365235	ND	ND	ND	ND	0	0
70968	2018-03-03T23:00:00	24.4	ND	ND	ND	3.66596184	17.54360736	ND	ND	ND	ND	0	0
70969	2018-03-04T00:00:00	15.1	ND	ND	ND	3.833230061	6.161848671	ND	ND	ND	ND	0	0
70970	2018-03-04T01:00:00	42.8	ND	ND	ND	5.450156196	2.413717791	ND	ND	ND	ND	0	0
70971	2018-03-04T02:00:00	50	ND	ND	ND	5.673180491	8.163468303	ND	ND	ND	ND	0	0
70972	2018-03-04T03:00:00	52.9	ND	ND	ND	5.101680736	6.436580777	ND	ND	ND	ND	0	0
70973	2018-03-04T04:00:00	37.9	ND	ND	ND	1.449657914	10.75379959	ND	ND	ND	ND	0	0
70974	2018-03-04T05:00:00	16.6	ND	ND	ND	4.084132393	7.182282209	ND	ND	ND	ND	0	0
70975	2018-03-04T06:00:00	24.2	ND	ND	ND	3.944742209	0.686830266	ND	ND	ND	ND	0	0
70976	2018-03-04T07:00:00	60.1	ND	ND	ND	5.450156196	0.902691207	ND	ND	ND	ND	56.2	0
70977	2018-03-04T08:00:00	81.2	ND	ND	ND	4.530180982	2.452965235	ND	ND	ND	ND	243.3	0
70978	2018-03-04T09:00:00	88.1	ND	ND	ND	3.638083804	6.142224949	ND	ND	ND	ND	412.3	0
70979	2018-03-04T10:00:00	78.8	ND	ND	ND	3.359303436	17.01376687	ND	ND	ND	ND	647.8	0
70980	2018-03-04T11:00:00	73.7	ND	ND	ND	2.899315828	38.99233538	ND	ND	ND	ND	648.2	0
70981	2018-03-04T12:00:00	61.8	ND	ND	ND	3.875047117	57.81148466	ND	ND	ND	ND	649.2	0
70982	2018-03-04T13:00:00	46.8	ND	ND	ND	1.240572638	79.55456851	ND	ND	ND	ND	643.6	0
70983	2018-03-04T14:00:00	48.5	ND	ND	ND	5.045924663	83.42044172	ND	ND	ND	ND	576.8	0
70984	2018-03-04T15:00:00	49.1	ND	ND	ND	3.219913252	63.63973006	ND	ND	ND	ND	563.8	0
70985	2018-03-04T16:00:00	38.7	ND	ND	ND	2.996888957	30.31865031	ND	ND	ND	ND	440	0
70986	2018-03-04T17:00:00	19.7	ND	ND	ND	2.857498773	23.56808998	ND	ND	ND	ND	513.7	0
70987	2018-03-04T18:00:00	16.2	ND	ND	ND	2.564779387	24.72588957	ND	ND	ND	ND	284.9	0
70988	2018-03-04T19:00:00	18.9	ND	ND	ND	3.108401104	23.29335787	ND	ND	ND	ND	16.5	0
70989	2018-03-04T20:00:00	15.1	ND	ND	ND	2.146608834	21.0758773	ND	ND	ND	ND	0	0
70990	2018-03-04T21:00:00	22.4	ND	ND	ND	2.369633129	17.91645808	ND	ND	ND	ND	0	0
70991	2018-03-04T22:00:00	19.1	ND	ND	ND	3.902925153	17.72022086	ND	ND	ND	ND	0	0
70992	2018-03-04T23:00:00	28.5	ND	ND	ND	3.094462086	18.32855624	ND	ND	ND	ND	0	0
70993	2018-03-05T00:00:00	39.1	ND	ND	ND	4.000498282	17.77909202	ND	ND	ND	ND	0	0
70994	2018-03-05T01:00:00	25.4	ND	ND	ND	5.031985644	10.2239591	ND	ND	ND	ND	0	0
70995	2018-03-05T02:00:00	32.5	ND	ND	ND	0.864219141	2.060490798	ND	ND	ND	ND	0	0
70996	2018-03-05T03:00:00	45.6	ND	ND	ND	4.098071411	4.238723926	ND	ND	ND	ND	0	0
70997	2018-03-05T04:00:00	46.9	ND	ND	ND	4.62775411	1.923124744	ND	ND	ND	ND	0	0
70998	2018-03-05T05:00:00	46.7	ND	ND	ND	6.871936074	1.079304703	ND	ND	ND	ND	0	0
70999	2018-03-05T06:00:00	68.3	ND	ND	ND	3.958681227	0.058871166	ND	ND	ND	ND	0	0
71000	2018-03-05T07:00:00	76.3	ND	ND	ND	5.617424417	0.588711656	ND	ND	ND	ND	46.7	0
71001	2018-03-05T08:00:00	104.9	ND	ND	ND	6.147107117	1.334413088	ND	ND	ND	ND	391.9	0
71002	2018-03-05T09:00:00	112.9	ND	ND	ND	3.93080319	4.493832311	ND	ND	ND	ND	599.9	0
71003	2018-03-05T10:00:00	108.8	ND	ND	ND	3.638083804	16.5035501	ND	ND	ND	ND	648.4	0
71004	2018-03-05T11:00:00	85.6	ND	ND	ND	4.390790798	37.48130879	ND	ND	ND	ND	648.7	0
71005	2018-03-05T12:00:00	94.8	ND	ND	ND	2.899315828	58.79267076	ND	ND	ND	ND	648.9	0
71006	2018-03-05T13:00:00	79.9	ND	ND	ND	3.652022822	68.40829448	ND	ND	ND	ND	649.2	0
71007	2018-03-05T14:00:00	77.5	ND	ND	ND	2.843559755	59.2832638	ND	ND	ND	ND	566	0
71008	2018-03-05T15:00:00	54.2	ND	ND	ND	2.35569411	33.06597137	ND	ND	ND	ND	504.4	0
71009	2018-03-05T16:00:00	36.4	ND	ND	ND	3.122340123	18.5640409	ND	ND	ND	ND	370.8	0
71010	2018-03-05T17:00:00	19.6	ND	ND	ND	1.993279632	16.71941104	ND	ND	ND	ND	586.3	0
71011	2018-03-05T18:00:00	30.2	ND	ND	ND	3.470815583	13.91321881	ND	ND	ND	ND	178.5	0
71012	2018-03-05T19:00:00	19.5	ND	ND	ND	3.902925153	14.10945603	ND	ND	ND	ND	9.5	0
71013	2018-03-05T20:00:00	16.9	ND	ND	ND	3.122340123	10.65568098	ND	ND	ND	ND	0	0
71014	2018-03-05T21:00:00	14.9	ND	ND	ND	2.035096687	9.890355828	ND	ND	ND	ND	0	0
71015	2018-03-05T22:00:00	33.5	ND	ND	ND	2.049035706	10.18471166	ND	ND	ND	ND	0	0
71016	2018-03-05T23:00:00	25.3	ND	ND	ND	3.624144785	11.6564908	ND	ND	ND	ND	0	0
71017	2018-03-06T00:00:00	11	ND	ND	ND	3.652022822	0.843820041	ND	ND	ND	ND	0	0
71018	2018-03-06T01:00:00	51.1	ND	ND	ND	4.070193374	2.021243354	ND	ND	ND	ND	0	0
71019	2018-03-06T02:00:00	49.8	ND	ND	ND	3.861108098	1.412907975	ND	ND	ND	ND	0	0
71020	2018-03-06T03:00:00	40.6	ND	ND	ND	3.373242454	1.35403681	ND	ND	ND	ND	0	0
71021	2018-03-06T04:00:00	46.3	ND	ND	ND	2.35569411	0.6279591	ND	ND	ND	ND	0	0
71022	2018-03-06T05:00:00	41.3	ND	ND	ND	5.965899877	0.549464213	ND	ND	ND	ND	0	0
71023	2018-03-06T06:00:00	45.1	ND	ND	ND	4.864717423	0.176613497	ND	ND	ND	ND	0	0
71024	2018-03-06T07:00:00	65.6	ND	ND	ND	4.558059018	0.608335378	ND	ND	ND	ND	38.3	0
71025	2018-03-06T08:00:00	64.4	ND	ND	ND	4.181705521	1.275541922	ND	ND	ND	ND	254.8	0
71026	2018-03-06T09:00:00	83	ND	ND	ND	4.139888466	3.23791411	ND	ND	ND	ND	427.4	0
71027	2018-03-06T10:00:00	82	ND	ND	ND	3.512632638	10.98928425	ND	ND	ND	ND	635.8	0
71028	2018-03-06T11:00:00	86.6	ND	ND	ND	3.038706012	27.45358691	ND	ND	ND	ND	648.5	0
71029	2018-03-06T12:00:00	89.1	ND	ND	ND	4.27927865	47.98	ND	ND	ND	ND	648.6	0
71030	2018-03-06T13:00:00	88.8	ND	ND	ND	4.098071411	59.83272802	ND	ND	ND	ND	649.6	0
71031	2018-03-06T14:00:00	67.1	ND	ND	ND	3.066584049	63.01177096	ND	ND	ND	ND	647.6	0
71032	2018-03-06T15:00:00	67	ND	ND	ND	2.481145276	72.27416769	ND	ND	ND	ND	649.4	0
71033	2018-03-06T16:00:00	62.2	ND	ND	ND	5.436217178	60.93165644	ND	ND	ND	ND	535.9	0
71034	2018-03-06T17:00:00	58.6	ND	ND	ND	3.094462086	27.82643763	ND	ND	ND	ND	518.9	0
71035	2018-03-06T18:00:00	34.2	ND	ND	ND	2.035096687	17.42586503	ND	ND	ND	ND	220.4	0
71036	2018-03-06T19:00:00	25.3	ND	ND	ND	3.401120491	14.99252352	ND	ND	ND	ND	9.4	0
71037	2018-03-06T20:00:00	23.4	ND	ND	ND	4.655632147	13.46187321	ND	ND	ND	ND	0	0
71038	2018-03-06T21:00:00	28.7	ND	ND	ND	1.895706503	17.72022086	ND	ND	ND	ND	0	0
71039	2018-03-06T22:00:00	31.1	ND	ND	ND	2.53690135	8.045725971	ND	ND	ND	ND	0	0
71040	2018-03-06T23:00:00	77.8	ND	ND	ND	1.65874319	4.945177914	ND	ND	ND	ND	0	0
71041	2018-03-07T00:00:00	44.6	ND	ND	ND	3.986559264	0.6279591	ND	ND	ND	ND	0	0
71042	2018-03-07T01:00:00	45.2	ND	ND	ND	2.96901092	4.140605317	ND	ND	ND	ND	0	0
71043	2018-03-07T02:00:00	36.2	ND	ND	ND	4.084132393	2.786568507	ND	ND	ND	ND	0	0
71044	2018-03-07T03:00:00	47.6	ND	ND	ND	5.547729325	3.944368098	ND	ND	ND	ND	0	0
71045	2018-03-07T04:00:00	54.5	ND	ND	ND	3.387181472	3.708883436	ND	ND	ND	ND	0	0
71046	2018-03-07T05:00:00	56.6	ND	ND	ND	3.777473988	0.804572597	ND	ND	ND	ND	0	0
71047	2018-03-07T06:00:00	71.6	ND	ND	ND	5.366522086	0.843820041	ND	ND	ND	ND	0	0
71048	2018-03-07T07:00:00	96.9	ND	ND	ND	3.735656933	0.647582822	ND	ND	ND	ND	16.1	0
71049	2018-03-07T08:00:00	108.2	ND	ND	ND	4.990168589	1.2559182	ND	ND	ND	ND	271.1	0
71050	2018-03-07T09:00:00	111.5	ND	ND	ND	3.303547362	7.084163599	ND	ND	ND	ND	647.8	0
71051	2018-03-07T10:00:00	116.5	ND	ND	ND	4.613815092	14.36456442	ND	ND	ND	ND	540.7	0
71052	2018-03-07T11:00:00	98.1	ND	ND	ND	2.285999018	36.30388548	ND	ND	ND	ND	648.6	0
71053	2018-03-07T12:00:00	108	ND	ND	ND	0.947853252	59.32251125	ND	ND	ND	ND	649.1	0
71054	2018-03-07T13:00:00	104.2	ND	ND	ND	4.237461595	77.82768098	ND	ND	ND	ND	648.8	0
71055	2018-03-07T14:00:00	107	ND	ND	ND	5.073802699	78.88736196	ND	ND	ND	ND	638.7	0
71056	2018-03-07T15:00:00	103.1	ND	ND	ND	2.313877055	73.804818	ND	ND	ND	ND	598.6	0
71057	2018-03-07T16:00:00	65.1	ND	ND	ND	1.770255337	36.28426176	ND	ND	ND	ND	625	0
71058	2018-03-07T17:00:00	46.9	ND	ND	ND	2.397511166	31.37833129	ND	ND	ND	ND	454.3	0
71059	2018-03-07T18:00:00	40.9	ND	ND	ND	1.491474969	17.60247853	ND	ND	ND	ND	135	0
71060	2018-03-07T19:00:00	40.4	ND	ND	ND	2.899315828	11.12665031	ND	ND	ND	ND	7.3	0
71061	2018-03-07T20:00:00	22.8	ND	ND	ND	2.88537681	12.32369734	ND	ND	ND	ND	0	0
71062	2018-03-07T21:00:00	21.6	ND	ND	ND	1.04542638	18.30893252	ND	ND	ND	ND	0	0
71063	2018-03-07T22:00:00	18.4	ND	ND	ND	3.094462086	17.40624131	ND	ND	ND	ND	0	0
71064	2018-03-07T23:00:00	13.4	ND	ND	ND	3.094462086	16.34656033	ND	ND	ND	ND	0	0
71065	2018-03-08T00:00:00	19.2	ND	ND	ND	4.028376319	7.260777096	ND	ND	ND	ND	0	0
71066	2018-03-08T01:00:00	25.3	ND	ND	ND	4.139888466	11.55837219	ND	ND	ND	ND	0	0
71067	2018-03-08T02:00:00	36.9	ND	ND	ND	6.955570184	1.726887526	ND	ND	ND	ND	0	0
71068	2018-03-08T03:00:00	60.8	ND	ND	ND	5.450156196	0.510216769	ND	ND	ND	ND	0	0
71069	2018-03-08T04:00:00	67.8	ND	ND	ND	3.526571656	0.745701431	ND	ND	ND	ND	0	0
71070	2018-03-08T05:00:00	76.8	ND	ND	ND	5.965899877	0.686830266	ND	ND	ND	ND	0	0
71071	2018-03-08T06:00:00	76.6	ND	ND	ND	4.502302945	0.529840491	ND	ND	ND	ND	0	0
71072	2018-03-08T07:00:00	103.6	ND	ND	ND	3.624144785	0.608335378	ND	ND	ND	ND	47.6	0
71073	2018-03-08T08:00:00	112.4	ND	ND	ND	6.147107117	1.197047035	ND	ND	ND	ND	327.2	0
71074	2018-03-08T09:00:00	119	ND	ND	ND	4.139888466	4.042486708	ND	ND	ND	ND	520.2	0
71075	2018-03-08T10:00:00	118.7	ND	ND	ND	4.474424908	9.831484663	ND	ND	ND	ND	626.7	0
71076	2018-03-08T11:00:00	115.8	ND	ND	ND	3.777473988	13.52074438	ND	ND	ND	ND	615.6	0
71077	2018-03-08T12:00:00	83.2	ND	ND	ND	3.247791288	39.75766053	ND	ND	ND	ND	648.8	0
71078	2018-03-08T13:00:00	81.3	ND	ND	ND	2.327816074	63.5808589	ND	ND	ND	ND	649.5	0
71079	2018-03-08T14:00:00	84.7	ND	ND	ND	1.92358454	62.87440491	ND	ND	ND	ND	646.4	0
71080	2018-03-08T15:00:00	65.9	ND	ND	ND	3.958681227	38.67835583	ND	ND	ND	ND	565.9	0
71081	2018-03-08T16:00:00	28.1	ND	ND	ND	0.376353497	19.11350511	ND	ND	ND	ND	594.8	0
71082	2018-03-08T17:00:00	27.5	ND	ND	ND	2.522962331	21.38985685	ND	ND	ND	ND	525.6	0
71083	2018-03-08T18:00:00	35.6	ND	ND	ND	2.634474479	16.58204499	ND	ND	ND	ND	227.3	0
71084	2018-03-08T19:00:00	21.5	ND	ND	ND	2.913254847	11.4798773	ND	ND	ND	ND	13.7	0
71085	2018-03-08T20:00:00	18.2	ND	ND	ND	4.62775411	11.34251125	ND	ND	ND	ND	0	0
71086	2018-03-08T21:00:00	17.6	ND	ND	ND	1.881767485	16.71941104	ND	ND	ND	ND	0	0
71087	2018-03-08T22:00:00	15	ND	ND	ND	1.240572638	14.93365235	ND	ND	ND	ND	0	0
71088	2018-03-08T23:00:00	34.8	ND	ND	ND	3.902925153	4.434961145	ND	ND	ND	ND	0	0
71089	2018-03-09T00:00:00	27.1	ND	ND	ND	3.219913252	11.81348057	ND	ND	ND	ND	0	0
71090	2018-03-09T01:00:00	22.4	ND	ND	ND	3.526571656	4.415337423	ND	ND	ND	ND	0	0
71091	2018-03-09T02:00:00	46.2	ND	ND	ND	3.526571656	1.35403681	ND	ND	ND	ND	0	0
71092	2018-03-09T03:00:00	54.4	ND	ND	ND	4.753205276	0.72607771	ND	ND	ND	ND	0	0
71093	2018-03-09T04:00:00	63.4	ND	ND	ND	6.063473006	0.451345603	ND	ND	ND	ND	0	0
71094	2018-03-09T05:00:00	64.4	ND	ND	ND	4.62775411	0.490593047	ND	ND	ND	ND	0	0
71095	2018-03-09T06:00:00	80.6	ND	ND	ND	3.359303436	0.431721881	ND	ND	ND	ND	0	0
71096	2018-03-09T07:00:00	100.4	ND	ND	ND	6.579216687	0.745701431	ND	ND	ND	ND	46.2	0
71097	2018-03-09T08:00:00	115.1	ND	ND	ND	5.129558773	1.275541922	ND	ND	ND	ND	278	0
71098	2018-03-09T09:00:00	115.9	ND	ND	ND	4.293217669	4.434961145	ND	ND	ND	ND	535.2	0
71099	2018-03-09T10:00:00	97.8	ND	ND	ND	5.338644049	17.62210225	ND	ND	ND	ND	648.4	0
71100	2018-03-09T11:00:00	93.4	ND	ND	ND	3.512632638	38.69797955	ND	ND	ND	ND	647.7	0
71101	2018-03-09T12:00:00	86.1	ND	ND	ND	4.795022331	70.70426994	ND	ND	ND	ND	648.8	0
71102	2018-03-09T13:00:00	84.2	ND	ND	ND	4.237461595	90.46535787	ND	ND	ND	ND	649.8	0
71103	2018-03-09T14:00:00	80.2	ND	ND	ND	2.021157669	71.05749693	ND	ND	ND	ND	641.5	0
71104	2018-03-09T15:00:00	46.7	ND	ND	ND	2.341755092	38.99233538	ND	ND	ND	ND	578.4	0
71105	2018-03-09T16:00:00	30.9	ND	ND	ND	3.888986135	36.14689571	ND	ND	ND	ND	639.4	0
71106	2018-03-09T17:00:00	42.9	ND	ND	ND	3.373242454	30.12241309	ND	ND	ND	ND	600.4	0
71107	2018-03-09T18:00:00	42.8	ND	ND	ND	4.962290552	26.21729243	ND	ND	ND	ND	242.4	0
71108	2018-03-09T19:00:00	53.7	ND	ND	ND	1.519353006	20.48716564	ND	ND	ND	ND	10.5	0
71109	2018-03-09T20:00:00	41.5	ND	ND	ND	2.745986626	16.95489571	ND	ND	ND	ND	0	0
71110	2018-03-09T21:00:00	34.2	ND	ND	ND	4.46048589	15.40462168	ND	ND	ND	ND	0	0
71111	2018-03-09T22:00:00	38.8	ND	ND	ND	4.474424908	13.89359509	ND	ND	ND	ND	0	0
71112	2018-03-09T23:00:00	30.2	ND	ND	ND	0.850280123	14.30569325	ND	ND	ND	ND	0	0
71113	2018-03-10T00:00:00	40.9	ND	ND	ND	2.88537681	1.746511247	ND	ND	ND	ND	0	0
71114	2018-03-10T01:00:00	55.8	ND	ND	ND	3.303547362	1.726887526	ND	ND	ND	ND	0	0
71115	2018-03-10T02:00:00	57.9	ND	ND	ND	1.909645521	4.101357873	ND	ND	ND	ND	0	0
71116	2018-03-10T03:00:00	59.7	ND	ND	ND	3.93080319	4.140605317	ND	ND	ND	ND	0	0
71117	2018-03-10T04:00:00	59.5	ND	ND	ND	4.19564454	5.121791411	ND	ND	ND	ND	0	0
71118	2018-03-10T05:00:00	54.4	ND	ND	ND	2.662352515	2.492212679	ND	ND	ND	ND	0	0
71119	2018-03-10T06:00:00	85.8	ND	ND	ND	2.745986626	1.236294479	ND	ND	ND	ND	0	0
71120	2018-03-10T07:00:00	66.2	ND	ND	ND	3.23385227	0.647582822	ND	ND	ND	ND	46.8	0
71121	2018-03-10T08:00:00	92.2	ND	ND	ND	3.387181472	1.903501022	ND	ND	ND	ND	374.7	0
71122	2018-03-10T09:00:00	125.7	ND	ND	ND	4.265339632	9.164278119	ND	ND	ND	ND	648.2	0
71123	2018-03-10T10:00:00	126.9	ND	ND	ND	3.638083804	21.99819223	ND	ND	ND	ND	646.1	0
71124	2018-03-10T11:00:00	104.9	ND	ND	ND	2.453267239	49.02005726	ND	ND	ND	ND	648.8	0
71125	2018-03-10T12:00:00	82.5	ND	ND	ND	3.164157178	82.00753374	ND	ND	ND	ND	649.4	0
71126	2018-03-10T13:00:00	85.8	ND	ND	ND	2.076913742	95.7833865	ND	ND	ND	ND	645.6	0
71127	2018-03-10T14:00:00	89.3	ND	ND	ND	2.996888957	100.5127035	ND	ND	ND	ND	650.2	0
71128	2018-03-10T15:00:00	91.7	ND	ND	ND	2.634474479	97.86350102	ND	ND	ND	ND	646.7	0
71129	2018-03-10T16:00:00	66.8	ND	ND	ND	2.299938037	42.34799182	ND	ND	ND	ND	532.9	0
71130	2018-03-10T17:00:00	41.8	ND	ND	ND	3.331425399	36.5001227	ND	ND	ND	ND	630.6	0
71131	2018-03-10T18:00:00	46	ND	ND	ND	0.724828957	27.72831902	ND	ND	ND	ND	216.8	0
71132	2018-03-10T19:00:00	29	ND	ND	ND	3.610205767	22.84201227	ND	ND	ND	ND	7.7	0
71133	2018-03-10T20:00:00	20.7	ND	ND	ND	2.648413497	23.15599182	ND	ND	ND	ND	0	0
71134	2018-03-10T21:00:00	25.5	ND	ND	ND	2.955071902	22.84201227	ND	ND	ND	ND	0	0
71135	2018-03-10T22:00:00	24.2	ND	ND	ND	2.327816074	14.4430593	ND	ND	ND	ND	0	0
71136	2018-03-10T23:00:00	32.4	ND	ND	ND	1.937523558	8.595190184	ND	ND	ND	ND	0	0
71137	2018-03-11T00:00:00	38	ND	ND	ND	3.428998528	6.083353783	ND	ND	ND	ND	0	0
71138	2018-03-11T01:00:00	60.2	ND	ND	ND	5.408339141	1.04005726	ND	ND	ND	ND	0	0
71139	2018-03-11T02:00:00	74.8	ND	ND	ND	5.227131902	2.92393456	ND	ND	ND	ND	0	0
71140	2018-03-11T03:00:00	80.3	ND	ND	ND	3.84716908	2.531460123	ND	ND	ND	ND	0	0
71141	2018-03-11T04:00:00	88.8	ND	ND	ND	3.721717914	2.138985685	ND	ND	ND	ND	0	0
71142	2018-03-11T05:00:00	82.6	ND	ND	ND	5.087741718	1.2559182	ND	ND	ND	ND	0	0
71143	2018-03-11T06:00:00	76.4	ND	ND	ND	4.488363926	1.511026585	ND	ND	ND	ND	0	0
71144	2018-03-11T07:00:00	60.6	ND	ND	ND	3.331425399	0.94193865	ND	ND	ND	ND	72.5	0
71145	2018-03-11T08:00:00	79.1	ND	ND	ND	3.944742209	7.398143149	ND	ND	ND	ND	501.9	0
71146	2018-03-11T09:00:00	80.5	ND	ND	ND	3.484754601	20.70302658	ND	ND	ND	ND	648.1	0
71147	2018-03-11T10:00:00	78	ND	ND	ND	3.916864172	36.40200409	ND	ND	ND	ND	648.5	0
71148	2018-03-11T11:00:00	68.5	ND	ND	ND	2.634474479	53.92598773	ND	ND	ND	ND	645.1	0
71149	2018-03-11T12:00:00	73	ND	ND	ND	3.373242454	64.26768916	ND	ND	ND	ND	649.5	0
71150	2018-03-11T13:00:00	80.8	ND	ND	ND	1.756316319	74.55051943	ND	ND	ND	ND	650.1	0
71151	2018-03-11T14:00:00	72.8	ND	ND	ND	2.174486871	84.44087526	ND	ND	ND	ND	649.6	0
71152	2018-03-11T15:00:00	68	ND	ND	ND	1.853889448	74.27578732	ND	ND	ND	ND	618.8	0
71153	2018-03-11T16:00:00	48.3	ND	ND	ND	1.742377301	44.07487935	ND	ND	ND	ND	650.7	0
71154	2018-03-11T17:00:00	42.5	ND	ND	ND	3.568388712	32.9089816	ND	ND	ND	ND	631.1	0
71155	2018-03-11T18:00:00	41.5	ND	ND	ND	2.62053546	24.19604908	ND	ND	ND	ND	260.2	0
71156	2018-03-11T19:00:00	25.6	ND	ND	ND	3.31748638	21.7038364	ND	ND	ND	ND	8.7	0
71157	2018-03-11T20:00:00	23	ND	ND	ND	4.321095706	21.42910429	ND	ND	ND	ND	0	0
71158	2018-03-11T21:00:00	21.3	ND	ND	ND	2.662352515	19.74146421	ND	ND	ND	ND	0	0
71159	2018-03-11T22:00:00	26.4	ND	ND	ND	4.070193374	14.91402863	ND	ND	ND	ND	0	0
71160	2018-03-11T23:00:00	24.6	ND	ND	ND	4.390790798	13.8151002	ND	ND	ND	ND	0	0
71161	2018-03-12T00:00:00	18	ND	ND	ND	2.982949939	9.223149284	ND	ND	ND	ND	0	0
71162	2018-03-12T01:00:00	40.5	ND	ND	ND	3.442937546	2.531460123	ND	ND	ND	ND	0	0
71163	2018-03-12T02:00:00	59.1	ND	ND	ND	3.833230061	5.180662577	ND	ND	ND	ND	0	0
71164	2018-03-12T03:00:00	37.9	ND	ND	ND	4.112010429	6.35808589	ND	ND	ND	ND	0	0
71165	2018-03-12T04:00:00	55.1	ND	ND	ND	5.380461104	4.415337423	ND	ND	ND	ND	0	0
71166	2018-03-12T05:00:00	62.5	ND	ND	ND	4.474424908	2.354846626	ND	ND	ND	ND	0	0
71167	2018-03-12T06:00:00	53.2	ND	ND	ND	3.596266748	1.04005726	ND	ND	ND	ND	0	0
71168	2018-03-12T07:00:00	74.3	ND	ND	ND	4.502302945	0.647582822	ND	ND	ND	ND	81.9	0
71169	2018-03-12T08:00:00	113	ND	ND	ND	5.310766012	2.433341513	ND	ND	ND	ND	509.2	0
71170	2018-03-12T09:00:00	129.1	ND	ND	ND	2.690230552	14.6196728	ND	ND	ND	ND	648.2	0
71171	2018-03-12T10:00:00	116.8	ND	ND	ND	4.321095706	25.72669939	ND	ND	ND	ND	647.9	0
71172	2018-03-12T11:00:00	105	ND	ND	ND	ND	101.0032965	ND	ND	ND	ND	649	0
71173	2018-03-12T12:00:00	97.6	ND	ND	ND	ND	60.40181595	ND	ND	ND	ND	650.3	0
71174	2018-03-12T13:00:00	93.7	ND	ND	ND	ND	84.00915337	ND	ND	ND	ND	625.4	0
71175	2018-03-12T14:00:00	93.5	ND	ND	ND	ND	63.73784867	ND	ND	ND	ND	593.6	0
71176	2018-03-12T15:00:00	53.5	ND	ND	ND	ND	22.09631084	ND	ND	ND	ND	633.8	0
71177	2018-03-12T16:00:00	41.2	ND	ND	ND	ND	19.91807771	ND	ND	ND	ND	649.8	0
71178	2018-03-12T17:00:00	40.9	ND	ND	ND	ND	16.97451943	ND	ND	ND	ND	632.1	0
71179	2018-03-12T18:00:00	40.3	ND	ND	ND	ND	11.24439264	ND	ND	ND	ND	216.3	0
71180	2018-03-12T19:00:00	30.3	ND	ND	ND	ND	11.18552147	ND	ND	ND	ND	5.3	0
71181	2018-03-12T20:00:00	31.8	ND	ND	ND	ND	11.46025358	ND	ND	ND	ND	0	0
71182	2018-03-12T21:00:00	28.9	ND	ND	ND	ND	11.91159918	ND	ND	ND	ND	0	0
71183	2018-03-12T22:00:00	20.3	ND	ND	ND	ND	13.01052761	ND	ND	ND	ND	0	0
71184	2018-03-12T23:00:00	17.4	ND	ND	ND	10.24517853	10.4005726	ND	ND	ND	ND	0	0
71185	2018-03-13T00:00:00	22.7	ND	ND	ND	10.70516613	1.648392638	ND	ND	ND	ND	0	0
71186	2018-03-13T01:00:00	36.6	ND	ND	ND	10.4542638	2.904310838	ND	ND	ND	ND	0	0
71187	2018-03-13T02:00:00	53.5	ND	ND	ND	12.08512896	1.962372188	ND	ND	ND	ND	0	0
71188	2018-03-13T03:00:00	58.4	ND	ND	ND	10.3009346	1.2559182	ND	ND	ND	ND	0	0
71189	2018-03-13T04:00:00	52.2	ND	ND	ND	5.533790307	1.059680982	ND	ND	ND	ND	0	0
71190	2018-03-13T05:00:00	50.1	ND	ND	ND	4.070193374	1.334413088	ND	ND	ND	ND	0	0
71191	2018-03-13T06:00:00	60.6	ND	ND	ND	3.721717914	0.667206544	ND	ND	ND	ND	0	0
71192	2018-03-13T07:00:00	67.1	ND	ND	ND	2.216303926	0.745701431	ND	ND	ND	ND	54.4	0
71193	2018-03-13T08:00:00	101.6	ND	ND	ND	1.547231043	1.844629857	ND	ND	ND	ND	440	0
71194	2018-03-13T09:00:00	115.9	ND	ND	ND	1.798133374	4.59195092	ND	ND	ND	ND	520.7	0
71195	2018-03-13T10:00:00	73.7	ND	ND	ND	3.066584049	15.44386912	ND	ND	ND	ND	648.4	0
71196	2018-03-13T11:00:00	71.8	ND	ND	ND	1.324206748	32.86973415	ND	ND	ND	ND	648.8	0
71197	2018-03-13T12:00:00	79.8	ND	ND	ND	2.927193865	55.55475665	ND	ND	ND	ND	649.2	0
71198	2018-03-13T13:00:00	81.4	ND	ND	ND	3.624144785	54.00448262	ND	ND	ND	ND	617.5	0
71199	2018-03-13T14:00:00	68.5	ND	ND	ND	1.728438282	35.067591	ND	ND	ND	ND	605.5	0
71200	2018-03-13T15:00:00	29.1	ND	ND	ND	3.038706012	27.17885481	ND	ND	ND	ND	649.9	0
71201	2018-03-13T16:00:00	42.3	ND	ND	ND	3.401120491	24.27454397	ND	ND	ND	ND	649.6	0
71202	2018-03-13T17:00:00	48.2	ND	ND	ND	3.66596184	21.33098569	ND	ND	ND	ND	599.7	0
71203	2018-03-13T18:00:00	41.5	ND	ND	ND	2.829620736	15.71860123	ND	ND	ND	ND	242	0
71204	2018-03-13T19:00:00	32.2	ND	ND	ND	1.672682209	13.91321881	ND	ND	ND	ND	6.1	0
71205	2018-03-13T20:00:00	44.5	ND	ND	ND	1.463596933	13.77585276	ND	ND	ND	ND	0	0
71206	2018-03-13T21:00:00	42.3	ND	ND	ND	2.383572147	16.52317382	ND	ND	ND	ND	0	0
71207	2018-03-13T22:00:00	41.4	ND	ND	ND	2.118730798	14.9728998	ND	ND	ND	ND	0	0
71208	2018-03-13T23:00:00	38.9	ND	ND	ND	2.96901092	7.044916155	ND	ND	ND	ND	0	0
71209	2018-03-14T00:00:00	35.6	ND	ND	ND	3.136279141	14.26644581	ND	ND	ND	ND	0	0
71210	2018-03-14T01:00:00	18.2	ND	ND	ND	4.265339632	8.712932515	ND	ND	ND	ND	0	0
71211	2018-03-14T02:00:00	57	ND	ND	ND	6.272558282	4.27797137	ND	ND	ND	ND	0	0
71212	2018-03-14T03:00:00	68.3	ND	ND	ND	4.19564454	5.357276074	ND	ND	ND	ND	0	0
71213	2018-03-14T04:00:00	58.6	ND	ND	ND	3.58232773	5.082543967	ND	ND	ND	ND	0	0
71214	2018-03-14T05:00:00	41	ND	ND	ND	3.721717914	6.201096115	ND	ND	ND	ND	0	0
71215	2018-03-14T06:00:00	31.5	ND	ND	ND	4.558059018	1.903501022	ND	ND	ND	ND	0	0
71216	2018-03-14T07:00:00	83.6	ND	ND	ND	1.686621227	0.94193865	ND	ND	ND	ND	52.6	0
71217	2018-03-14T08:00:00	91.8	ND	ND	ND	1.770255337	1.942748466	ND	ND	ND	ND	309.6	0
71218	2018-03-14T09:00:00	117.3	ND	ND	ND	3.359303436	6.691689162	ND	ND	ND	ND	590.4	0
71219	2018-03-14T10:00:00	110.9	ND	ND	ND	2.759925644	21.40948057	ND	ND	ND	ND	648.4	0
71220	2018-03-14T11:00:00	75.2	ND	ND	ND	3.916864172	42.34799182	ND	ND	ND	ND	649	0
71221	2018-03-14T12:00:00	81.7	ND	ND	ND	2.35569411	67.64296933	ND	ND	ND	ND	649.2	0
71222	2018-03-14T13:00:00	90.7	ND	ND	ND	2.634474479	85.59867485	ND	ND	ND	ND	641.9	0
71223	2018-03-14T14:00:00	83.4	ND	ND	ND	3.23385227	43.34880164	ND	ND	ND	ND	633.1	0
71224	2018-03-14T15:00:00	52.3	ND	ND	ND	2.606596442	26.11917382	ND	ND	ND	ND	628.7	0
71225	2018-03-14T16:00:00	45	ND	ND	ND	2.592657423	24.2156728	ND	ND	ND	ND	620	0
71226	2018-03-14T17:00:00	48.3	ND	ND	ND	5.143497791	22.92050716	ND	ND	ND	ND	508.3	0
71227	2018-03-14T18:00:00	45.3	ND	ND	ND	2.397511166	20.95813497	ND	ND	ND	ND	178.3	0
71228	2018-03-14T19:00:00	36.8	ND	ND	ND	0.724828957	17.40624131	ND	ND	ND	ND	9.1	0
71229	2018-03-14T20:00:00	35.3	ND	ND	ND	3.66596184	19.29011861	ND	ND	ND	ND	0	0
71230	2018-03-14T21:00:00	34	ND	ND	ND	3.415059509	16.91564826	ND	ND	ND	ND	0	0
71231	2018-03-14T22:00:00	28	ND	ND	ND	3.66596184	14.77666258	ND	ND	ND	ND	0	0
71232	2018-03-14T23:00:00	23	ND	ND	ND	4.585937055	9.968850716	ND	ND	ND	ND	0	0
71233	2018-03-15T00:00:00	24.9	ND	ND	ND	4.906534479	5.31802863	ND	ND	ND	ND	0	0
71234	2018-03-15T01:00:00	46.1	ND	ND	ND	3.289608344	1.059680982	ND	ND	ND	ND	0	0
71235	2018-03-15T02:00:00	55.9	ND	ND	ND	4.125949448	3.257537832	ND	ND	ND	ND	0	0
71236	2018-03-15T03:00:00	60.6	ND	ND	ND	4.084132393	3.453775051	ND	ND	ND	ND	0	0
71237	2018-03-15T04:00:00	56.2	ND	ND	ND	5.115619755	1.923124744	ND	ND	ND	ND	0	0
71238	2018-03-15T05:00:00	58.7	ND	ND	ND	4.432607853	1.864253579	ND	ND	ND	ND	0	0
71239	2018-03-15T06:00:00	68.4	ND	ND	ND	4.265339632	1.550274029	ND	ND	ND	ND	0	0
71240	2018-03-15T07:00:00	97.2	ND	ND	ND	5.059863681	1.079304703	ND	ND	ND	ND	66.8	0
71241	2018-03-15T08:00:00	101.7	ND	ND	ND	3.219913252	1.550274029	ND	ND	ND	ND	236.7	0
71242	2018-03-15T09:00:00	111.1	ND	ND	ND	3.359303436	2.884687117	ND	ND	ND	ND	360.8	0
71243	2018-03-15T10:00:00	82.3	ND	ND	ND	3.31748638	11.22476892	ND	ND	ND	ND	639.6	0
71244	2018-03-15T11:00:00	65.8	ND	ND	ND	4.516241963	33.12484254	ND	ND	ND	ND	648.6	0
71245	2018-03-15T12:00:00	63.8	ND	ND	ND	2.00721865	45.54665849	ND	ND	ND	ND	649.3	0
71246	2018-03-15T13:00:00	58.3	ND	ND	ND	2.899315828	50.51146012	ND	ND	ND	ND	642.2	0
71247	2018-03-15T14:00:00	44	ND	ND	ND	4.000498282	27.92455624	ND	ND	ND	ND	649.6	0
71248	2018-03-15T15:00:00	39.4	ND	ND	ND	3.052645031	26.43315337	ND	ND	ND	ND	649.7	0
71249	2018-03-15T16:00:00	33.7	ND	ND	ND	3.58232773	26.41352965	ND	ND	ND	ND	644.8	0
71250	2018-03-15T17:00:00	37	ND	ND	ND	4.335034724	20.25168098	ND	ND	ND	ND	412.6	0
71251	2018-03-15T18:00:00	23.3	ND	ND	ND	1.101182454	14.40381186	ND	ND	ND	ND	132.3	0
71252	2018-03-15T19:00:00	42.8	ND	ND	ND	0.557560736	14.4430593	ND	ND	ND	ND	0	0
71253	2018-03-15T20:00:00	50.4	ND	ND	ND	3.638083804	10.47906748	ND	ND	ND	ND	0	0
71254	2018-03-15T21:00:00	66.1	ND	ND	ND	1.867828466	9.007288344	ND	ND	ND	ND	0	0
71255	2018-03-15T22:00:00	72.1	ND	ND	ND	2.495084294	10.12584049	ND	ND	ND	ND	0	0
71256	2018-03-15T23:00:00	83.5	ND	ND	ND	4.474424908	12.48068712	ND	ND	ND	ND	0	0
71257	2018-03-16T00:00:00	78.9	ND	ND	ND	4.599876074	7.398143149	ND	ND	ND	ND	0	0
71258	2018-03-16T01:00:00	81.9	ND	ND	ND	2.801742699	5.533889571	ND	ND	ND	ND	0	0
71259	2018-03-16T02:00:00	84.2	ND	ND	ND	4.014437301	3.198666667	ND	ND	ND	ND	0	0
71260	2018-03-16T03:00:00	82.7	ND	ND	ND	5.756814601	2.178233129	ND	ND	ND	ND	0	0
71261	2018-03-16T04:00:00	85.2	ND	ND	ND	6.857997055	0.961562372	ND	ND	ND	ND	0	0
71262	2018-03-16T05:00:00	96.3	ND	ND	ND	6.969509202	1.628768916	ND	ND	ND	ND	0	0
71263	2018-03-16T06:00:00	90.8	ND	ND	ND	4.850778405	0.843820041	ND	ND	ND	ND	0	0
71264	2018-03-16T07:00:00	84.3	ND	ND	ND	3.052645031	1.275541922	ND	ND	ND	ND	70.9	0
71265	2018-03-16T08:00:00	122.1	ND	ND	ND	4.530180982	2.511836401	ND	ND	ND	ND	430.5	0
71266	2018-03-16T09:00:00	168.2	ND	ND	ND	4.418668834	13.7169816	ND	ND	ND	ND	648.5	0
71267	2018-03-16T10:00:00	143.4	ND	ND	ND	2.648413497	40.46411452	ND	ND	ND	ND	648.7	0
71268	2018-03-16T11:00:00	79.7	ND	ND	ND	3.721717914	49.90312474	ND	ND	ND	ND	649	0
71269	2018-03-16T12:00:00	75.7	ND	ND	ND	4.237461595	70.97900204	ND	ND	ND	ND	649	0
71270	2018-03-16T13:00:00	73.6	ND	ND	ND	3.819291043	82.63549284	ND	ND	ND	ND	646	0
71271	2018-03-16T14:00:00	81.3	ND	ND	ND	4.362912761	100.1398528	ND	ND	ND	ND	628.9	0
71272	2018-03-16T15:00:00	89	ND	ND	ND	3.205974233	104.4570716	ND	ND	ND	ND	577.4	0
71273	2018-03-16T16:00:00	90	ND	ND	ND	1.951462577	40.13051125	ND	ND	ND	ND	580.4	0
71274	2018-03-16T17:00:00	73.7	ND	ND	ND	2.578718405	32.39876483	ND	ND	ND	ND	609.8	0
71275	2018-03-16T18:00:00	63	ND	ND	ND	2.648413497	20.21243354	ND	ND	ND	ND	232.6	0
71276	2018-03-16T19:00:00	52.3	ND	ND	ND	3.15021816	18.17156646	ND	ND	ND	ND	9.6	0
71277	2018-03-16T20:00:00	40.1	ND	ND	ND	2.299938037	19.97694888	ND	ND	ND	ND	0	0
71278	2018-03-16T21:00:00	41.6	ND	ND	ND	3.652022822	22.90088344	ND	ND	ND	ND	0	0
71279	2018-03-16T22:00:00	19.1	ND	ND	ND	3.749595951	10.51831493	ND	ND	ND	ND	0	0
71280	2018-03-16T23:00:00	43.3	ND	ND	ND	4.084132393	14.60004908	ND	ND	ND	ND	0	0
71281	2018-03-17T00:00:00	33.1	ND	ND	ND	2.425389202	12.71617178	ND	ND	ND	ND	0	0
71282	2018-03-17T01:00:00	50.4	ND	ND	ND	5.701058528	3.355656442	ND	ND	ND	ND	0	0
71283	2018-03-17T02:00:00	74.2	ND	ND	ND	4.641693129	4.59195092	ND	ND	ND	ND	0	0
71284	2018-03-17T03:00:00	66.5	ND	ND	ND	5.338644049	7.123411043	ND	ND	ND	ND	0	0
71285	2018-03-17T04:00:00	52	ND	ND	ND	5.394400123	7.967231084	ND	ND	ND	ND	0	0
71286	2018-03-17T05:00:00	59.2	ND	ND	ND	4.335034724	6.436580777	ND	ND	ND	ND	0	0
71287	2018-03-17T06:00:00	88.7	ND	ND	ND	4.376851779	2.766944785	ND	ND	ND	ND	0	0
71288	2018-03-17T07:00:00	116.1	ND	ND	ND	4.335034724	1.138175869	ND	ND	ND	ND	50.2	0
71289	2018-03-17T08:00:00	109.3	ND	ND	ND	5.659241472	3.120171779	ND	ND	ND	ND	301.1	0
71290	2018-03-17T09:00:00	152.1	ND	ND	ND	5.965899877	7.810241309	ND	ND	ND	ND	633.6	0
71291	2018-03-17T10:00:00	163.9	ND	ND	ND	3.861108098	19.68259305	ND	ND	ND	ND	648.8	0
71292	2018-03-17T11:00:00	117.1	ND	ND	ND	3.23385227	34.51812679	ND	ND	ND	ND	648.7	0
71293	2018-03-17T12:00:00	91.8	ND	ND	ND	1.867828466	57.16390184	ND	ND	ND	ND	642.5	0
71294	2018-03-17T13:00:00	69.8	ND	ND	ND	3.080523067	39.97352147	ND	ND	ND	ND	648.2	0
71295	2018-03-17T14:00:00	22.1	ND	ND	ND	4.795022331	34.53775051	ND	ND	ND	ND	620.1	0
71296	2018-03-17T15:00:00	16.8	ND	ND	ND	6.258619264	30.90736196	ND	ND	ND	ND	650.2	0
71297	2018-03-17T16:00:00	22.6	ND	ND	ND	3.526571656	25.68745194	ND	ND	ND	ND	649.9	0
71298	2018-03-17T17:00:00	35.1	ND	ND	ND	3.178096196	24.15680164	ND	ND	ND	ND	612.9	0
71299	2018-03-17T18:00:00	28.7	ND	ND	ND	3.554449693	23.62696115	ND	ND	ND	ND	202	0
71300	2018-03-17T19:00:00	19.4	ND	ND	ND	4.516241963	20.76189775	ND	ND	ND	ND	4.4	0
71301	2018-03-17T20:00:00	22	ND	ND	ND	2.690230552	16.34656033	ND	ND	ND	ND	0	0
71302	2018-03-17T21:00:00	32	ND	ND	ND	2.090852761	15.79709611	ND	ND	ND	ND	0	0
71303	2018-03-17T22:00:00	37	ND	ND	ND	5.268948957	12.912409	ND	ND	ND	ND	0	0
71304	2018-03-17T23:00:00	67.3	ND	ND	ND	4.237461595	4.042486708	ND	ND	ND	ND	0	0
71305	2018-03-18T00:00:00	67.9	ND	ND	ND	3.679900859	3.630388548	ND	ND	ND	ND	0	0
71306	2018-03-18T01:00:00	51.3	ND	ND	ND	3.192035215	8.124220859	ND	ND	ND	ND	0	0
71307	2018-03-18T02:00:00	49.6	ND	ND	ND	3.554449693	3.610764826	ND	ND	ND	ND	0	0
71308	2018-03-18T03:00:00	41	ND	ND	ND	6.035594969	2.335222904	ND	ND	ND	ND	0	0
71309	2018-03-18T04:00:00	58.1	ND	ND	ND	4.19564454	1.098928425	ND	ND	ND	ND	0	0
71310	2018-03-18T05:00:00	58.1	ND	ND	ND	4.237461595	5.769374233	ND	ND	ND	ND	0	0
71311	2018-03-18T06:00:00	61.9	ND	ND	ND	4.822900368	2.158609407	ND	ND	ND	ND	0	0
71312	2018-03-18T07:00:00	77.7	ND	ND	ND	5.143497791	1.216670757	ND	ND	ND	ND	60.3	0
71313	2018-03-18T08:00:00	77.9	ND	ND	ND	5.073802699	8.712932515	ND	ND	ND	ND	511	0
71314	2018-03-18T09:00:00	81.4	ND	ND	ND	5.185314847	17.87721063	ND	ND	ND	ND	648.4	0
71315	2018-03-18T10:00:00	74.7	ND	ND	ND	4.781083313	33.22296115	ND	ND	ND	ND	648.9	0
71316	2018-03-18T11:00:00	60.7	ND	ND	ND	4.432607853	44.42810634	ND	ND	ND	ND	511.9	0
71317	2018-03-18T12:00:00	42	ND	ND	ND	5.143497791	53.82786912	ND	ND	ND	ND	648.9	0
71318	2018-03-18T13:00:00	60.6	ND	ND	ND	3.777473988	62.65854397	ND	ND	ND	ND	649.1	0
71319	2018-03-18T14:00:00	42.2	ND	ND	ND	3.638083804	56.3200818	ND	ND	ND	ND	629	0
71320	2018-03-18T15:00:00	37.7	ND	ND	ND	3.861108098	38.67835583	ND	ND	ND	ND	573	0
71321	2018-03-18T16:00:00	16.4	ND	ND	ND	4.362912761	28.70950511	ND	ND	ND	ND	643.4	0
71322	2018-03-18T17:00:00	31.6	ND	ND	ND	5.115619755	25.92293661	ND	ND	ND	ND	581	0
71323	2018-03-18T18:00:00	27.2	ND	ND	ND	5.045924663	24.72588957	ND	ND	ND	ND	145.3	0
71324	2018-03-18T19:00:00	22.3	ND	ND	ND	2.258120982	28.51326789	ND	ND	ND	ND	0	0
71325	2018-03-18T20:00:00	44	ND	ND	ND	5.296826994	21.95894479	ND	ND	ND	ND	0	0
71326	2018-03-18T21:00:00	42.9	ND	ND	ND	4.878656442	14.73741513	ND	ND	ND	ND	0	0
71327	2018-03-18T22:00:00	50.2	ND	ND	ND	3.387181472	5.31802863	ND	ND	ND	ND	0	0
71328	2018-03-18T23:00:00	22.4	ND	ND	ND	4.167766503	3.787378323	ND	ND	ND	ND	0	0
71329	2018-03-19T00:00:00	12.1	ND	ND	ND	5.533790307	11.67611452	ND	ND	ND	ND	0	0
71330	2018-03-19T01:00:00	48.5	ND	ND	ND	3.833230061	14.4430593	ND	ND	ND	ND	0	0
71331	2018-03-19T02:00:00	65.1	ND	ND	ND	5.673180491	15.01214724	ND	ND	ND	ND	0	0
71332	2018-03-19T03:00:00	75	ND	ND	ND	6.161046135	10.47906748	ND	ND	ND	ND	0	0
71333	2018-03-19T04:00:00	67.4	ND	ND	ND	5.42227816	8.084973415	ND	ND	ND	ND	0	0
71334	2018-03-19T05:00:00	53	ND	ND	ND	4.934412515	10.24358282	ND	ND	ND	ND	0	0
71335	2018-03-19T06:00:00	40.1	ND	ND	ND	5.185314847	8.830674847	ND	ND	ND	ND	0	0
71336	2018-03-19T07:00:00	36.3	ND	ND	ND	5.436217178	7.92798364	ND	ND	ND	ND	47.9	0
71337	2018-03-19T08:00:00	39.4	ND	ND	ND	3.84716908	9.046535787	ND	ND	ND	ND	241.4	0
71338	2018-03-19T09:00:00	54.9	ND	ND	ND	5.561668344	17.73984458	ND	ND	ND	ND	540.5	0
71339	2018-03-19T10:00:00	56.8	ND	ND	ND	4.739266258	30.92698569	ND	ND	ND	ND	647.9	0
71340	2018-03-19T11:00:00	43	ND	ND	ND	4.948351534	43.17218814	ND	ND	ND	ND	648.8	0
71341	2018-03-19T12:00:00	40.7	ND	ND	ND	5.171375828	46.82220041	ND	ND	ND	ND	649.2	0
71342	2018-03-19T13:00:00	30.9	ND	ND	ND	4.906534479	53.41577096	ND	ND	ND	ND	618.1	0
71343	2018-03-19T14:00:00	34.2	ND	ND	ND	3.428998528	51.63001227	ND	ND	ND	ND	585.4	0
71344	2018-03-19T15:00:00	32.5	ND	ND	ND	4.307156687	32.59500204	ND	ND	ND	ND	620.1	0
71345	2018-03-19T16:00:00	25.5	ND	ND	ND	4.795022331	32.79123926	ND	ND	ND	ND	438.9	0
71346	2018-03-19T17:00:00	8.3	ND	ND	ND	3.373242454	23.56808998	ND	ND	ND	ND	242	0
71347	2018-03-19T18:00:00	8.9	ND	ND	ND	3.888986135	19.70221677	ND	ND	ND	ND	28.6	0
71348	2018-03-19T19:00:00	26	ND	ND	ND	2.592657423	14.28606953	ND	ND	ND	ND	0	0
71349	2018-03-19T20:00:00	49.4	ND	ND	ND	ND	10.20433538	ND	ND	ND	ND	0	0
71350	2018-03-19T21:00:00	53.5	ND	ND	ND	ND	4.533079755	ND	ND	ND	ND	0	0
71351	2018-03-19T22:00:00	54.8	ND	ND	ND	2.996888957	0.784948875	ND	ND	ND	ND	0	0
71352	2018-03-19T23:00:00	61.6	ND	ND	ND	4.265339632	1.216670757	ND	ND	ND	ND	0	0
71353	2018-03-20T00:00:00	57.5	ND	ND	ND	5.227131902	3.002429448	ND	ND	ND	ND	0	0
71354	2018-03-20T01:00:00	63.4	ND	ND	ND	4.585937055	6.730936605	ND	ND	ND	ND	0	0
71355	2018-03-20T02:00:00	49.6	ND	ND	ND	6.662850798	5.082543967	ND	ND	ND	ND	0	0
71356	2018-03-20T03:00:00	50.9	ND	ND	ND	5.366522086	3.96399182	ND	ND	ND	ND	0	0
71357	2018-03-20T04:00:00	50.7	ND	ND	ND	5.282887975	6.279591002	ND	ND	ND	ND	0	1.27
71358	2018-03-20T05:00:00	42.5	ND	ND	ND	6.161046135	3.394903885	ND	ND	ND	ND	0	2.79
71359	2018-03-20T06:00:00	38.2	ND	ND	ND	6.147107117	1.197047035	ND	ND	ND	ND	0	0.25
71360	2018-03-20T07:00:00	59.5	ND	ND	ND	3.693839877	0.667206544	ND	ND	ND	ND	4.4	0
71361	2018-03-20T08:00:00	62.7	ND	ND	ND	3.916864172	0.451345603	ND	ND	ND	ND	41.2	20.07
71362	2018-03-20T09:00:00	35.2	ND	ND	ND	ND	0.372850716	ND	ND	ND	ND	308.5	9.14
71363	2018-03-20T10:00:00	34.3	ND	ND	ND	ND	1.295165644	ND	ND	ND	ND	430.3	0.76
71364	2018-03-20T11:00:00	45.5	ND	ND	ND	ND	13.06939877	ND	ND	ND	ND	648.5	0
71365	2018-03-20T12:00:00	37.7	ND	ND	ND	ND	33.94903885	ND	ND	ND	ND	647.1	0
71366	2018-03-20T13:00:00	49.4	ND	ND	ND	ND	42.42648671	ND	ND	ND	ND	649.2	0
71367	2018-03-20T14:00:00	29	ND	ND	ND	ND	50.15823313	ND	ND	ND	ND	649.3	0
71368	2018-03-20T15:00:00	46.1	ND	ND	ND	ND	50.70769734	ND	ND	ND	ND	641.5	0
71369	2018-03-20T16:00:00	56.3	ND	ND	ND	ND	25.39309611	ND	ND	ND	ND	151.7	66.8
71370	2018-03-20T17:00:00	30.4	ND	ND	ND	ND	3.296785276	ND	ND	ND	ND	233.2	0
71371	2018-03-20T18:00:00	66.9	ND	ND	ND	ND	1.903501022	ND	ND	ND	ND	90.8	0.25
71372	2018-03-20T19:00:00	76.8	ND	ND	ND	ND	1.177423313	ND	ND	ND	ND	5.6	0
71373	2018-03-20T20:00:00	70.1	ND	ND	ND	ND	1.079304703	ND	ND	ND	ND	0	0
71374	2018-03-20T21:00:00	37.5	ND	ND	ND	ND	1.334413088	ND	ND	ND	ND	0	0
71375	2018-03-20T22:00:00	28.2	ND	ND	ND	ND	0.490593047	ND	ND	ND	ND	0	0
71376	2018-03-20T23:00:00	36.9	ND	ND	ND	ND	0.72607771	ND	ND	ND	ND	0	0
71377	2018-03-21T00:00:00	47	ND	ND	ND	ND	0.902691207	ND	ND	ND	ND	0	0
71378	2018-03-21T01:00:00	91.6	ND	ND	ND	ND	0.490593047	ND	ND	ND	ND	0	0
71379	2018-03-21T02:00:00	98.2	ND	ND	ND	ND	0.41209816	ND	ND	ND	ND	0	0
71380	2018-03-21T03:00:00	81.5	ND	ND	ND	ND	0.6279591	ND	ND	ND	ND	0	0
71381	2018-03-21T04:00:00	71.5	ND	ND	ND	ND	0.902691207	ND	ND	ND	ND	0	0
71382	2018-03-21T05:00:00	71	ND	ND	ND	ND	0.804572597	ND	ND	ND	ND	0	0
71383	2018-03-21T06:00:00	69.1	ND	ND	ND	ND	0.451345603	ND	ND	ND	ND	0	0
71384	2018-03-21T07:00:00	101.7	ND	ND	ND	ND	0.549464213	ND	ND	ND	ND	41.8	0
71385	2018-03-21T08:00:00	102.9	ND	ND	ND	ND	1.138175869	ND	ND	ND	ND	294.7	0
71386	2018-03-21T09:00:00	120.7	ND	ND	ND	ND	3.257537832	ND	ND	ND	ND	624.8	0
71387	2018-03-21T10:00:00	113.1	ND	ND	ND	ND	21.17399591	ND	ND	ND	ND	640.7	0
71388	2018-03-21T11:00:00	94.1	ND	ND	ND	ND	40.30712474	ND	ND	ND	ND	620.7	0
71389	2018-03-21T12:00:00	69.9	ND	ND	ND	ND	58.69455215	ND	ND	ND	ND	649.2	0
71390	2018-03-21T13:00:00	76.5	ND	ND	ND	ND	71.76395092	ND	ND	ND	ND	649.4	0
71391	2018-03-21T14:00:00	79.1	ND	ND	ND	ND	75.9634274	ND	ND	ND	ND	650	0
71392	2018-03-21T15:00:00	75.9	ND	ND	ND	ND	86.34437628	ND	ND	ND	ND	648.8	0
71393	2018-03-21T16:00:00	81.5	ND	ND	ND	ND	28.10116973	ND	ND	ND	ND	548.1	0
71394	2018-03-21T17:00:00	52.9	ND	ND	ND	ND	18.32855624	ND	ND	ND	ND	451.6	0
71395	2018-03-21T18:00:00	36.7	ND	ND	ND	ND	13.38337832	ND	ND	ND	ND	201.5	0
71396	2018-03-21T19:00:00	40.2	ND	ND	ND	ND	11.49950102	ND	ND	ND	ND	5.6	0
71397	2018-03-21T20:00:00	33.6	ND	ND	ND	ND	14.3449407	ND	ND	ND	ND	0	0
71398	2018-03-21T21:00:00	15.2	ND	ND	ND	ND	14.4430593	ND	ND	ND	ND	0	0
71399	2018-03-21T22:00:00	20.7	ND	ND	ND	ND	11.63686708	ND	ND	ND	ND	0	0
71400	2018-03-21T23:00:00	17.4	ND	ND	ND	ND	10.2239591	ND	ND	ND	ND	0	0
71401	2018-03-22T00:00:00	12.6	ND	ND	ND	ND	6.868302658	ND	ND	ND	ND	0	0
71402	2018-03-22T01:00:00	36.3	ND	ND	ND	ND	2.570707566	ND	ND	ND	ND	0	0
71403	2018-03-22T02:00:00	40.2	ND	ND	ND	ND	5.514265849	ND	ND	ND	ND	0	0
71404	2018-03-22T03:00:00	40.6	ND	ND	ND	ND	3.218290389	ND	ND	ND	ND	0	0
71405	2018-03-22T04:00:00	48.5	ND	ND	ND	ND	3.944368098	ND	ND	ND	ND	0	0
71406	2018-03-22T05:00:00	51.3	ND	ND	ND	ND	2.021243354	ND	ND	ND	ND	0	0
71407	2018-03-22T06:00:00	42.8	ND	ND	ND	ND	2.92393456	ND	ND	ND	ND	0	0
71408	2018-03-22T07:00:00	35	ND	ND	ND	ND	3.394903885	ND	ND	ND	ND	47.9	0
71409	2018-03-22T08:00:00	73.7	ND	ND	ND	ND	0.981186094	ND	ND	ND	ND	92.2	0
71410	2018-03-22T09:00:00	97	ND	ND	ND	ND	1.903501022	ND	ND	ND	ND	398.6	0
71411	2018-03-22T10:00:00	90.5	ND	ND	ND	ND	6.063730061	ND	ND	ND	ND	597.1	0
71412	2018-03-22T11:00:00	100.8	ND	ND	ND	ND	9.674494888	ND	ND	ND	ND	639.1	0
71413	2018-03-22T12:00:00	109.7	ND	ND	ND	ND	15.26725562	ND	ND	ND	ND	648.3	0
71414	2018-03-22T13:00:00	73.2	ND	ND	ND	ND	17.70059714	ND	ND	ND	ND	649.1	0
71415	2018-03-22T14:00:00	45.6	ND	ND	ND	4.084132393	24.8436319	ND	ND	ND	ND	649.1	0
71416	2018-03-22T15:00:00	21.6	ND	ND	ND	4.084132393	19.76108793	ND	ND	ND	ND	648.9	0
71417	2018-03-22T16:00:00	17	ND	ND	ND	1.881767485	18.64253579	ND	ND	ND	ND	649	0
71418	2018-03-22T17:00:00	7	ND	ND	ND	3.568388712	14.60004908	ND	ND	ND	ND	572.4	0
71419	2018-03-22T18:00:00	16.5	ND	ND	ND	2.62053546	15.4242454	ND	ND	ND	ND	328.1	0
71420	2018-03-22T19:00:00	23.2	ND	ND	ND	2.88537681	12.71617178	ND	ND	ND	ND	18.8	0
71421	2018-03-22T20:00:00	27.9	ND	ND	ND	2.397511166	13.38337832	ND	ND	ND	ND	0	0
71422	2018-03-22T21:00:00	35.8	ND	ND	ND	2.35569411	12.51993456	ND	ND	ND	ND	0	0
71423	2018-03-22T22:00:00	21.1	ND	ND	ND	1.57510908	20.82076892	ND	ND	ND	ND	0	0
71424	2018-03-22T23:00:00	13.3	ND	ND	ND	4.070193374	14.30569325	ND	ND	ND	ND	0	0
71425	2018-03-23T00:00:00	37.2	ND	ND	ND	3.902925153	6.868302658	ND	ND	ND	ND	0	0
71426	2018-03-23T01:00:00	58.2	ND	ND	ND	3.415059509	5.94598773	ND	ND	ND	ND	0	0
71427	2018-03-23T02:00:00	45.4	ND	ND	ND	5.408339141	7.751370143	ND	ND	ND	ND	0	0
71428	2018-03-23T03:00:00	58.3	ND	ND	ND	3.652022822	3.885496933	ND	ND	ND	ND	0	0
71429	2018-03-23T04:00:00	66.4	ND	ND	ND	3.261730307	4.513456033	ND	ND	ND	ND	0	0
71430	2018-03-23T05:00:00	63	ND	ND	ND	6.286497301	2.982805726	ND	ND	ND	ND	0	0
71431	2018-03-23T06:00:00	68.1	ND	ND	ND	5.631363436	1.04005726	ND	ND	ND	ND	0	0
71432	2018-03-23T07:00:00	91.1	ND	ND	ND	3.192035215	1.35403681	ND	ND	ND	ND	48.2	0
71433	2018-03-23T08:00:00	107	ND	ND	ND	2.481145276	2.315599182	ND	ND	ND	ND	463.6	0
71434	2018-03-23T09:00:00	98.9	ND	ND	ND	3.442937546	9.870732106	ND	ND	ND	ND	620.5	0
71435	2018-03-23T10:00:00	92.9	ND	ND	ND	2.899315828	20.80114519	ND	ND	ND	ND	648	0
71436	2018-03-23T11:00:00	65.2	ND	ND	ND	2.425389202	41.73965644	ND	ND	ND	ND	648.9	0
71437	2018-03-23T12:00:00	62.9	ND	ND	ND	4.516241963	54.73056033	ND	ND	ND	ND	649.6	0
71438	2018-03-23T13:00:00	87	ND	ND	ND	2.090852761	71.66583231	ND	ND	ND	ND	635.7	0
71439	2018-03-23T14:00:00	80.8	ND	ND	ND	2.509023313	52.14022904	ND	ND	ND	ND	649.3	0
71440	2018-03-23T15:00:00	60.9	ND	ND	ND	3.652022822	28.72912883	ND	ND	ND	ND	649.6	0
71441	2018-03-23T16:00:00	42.3	ND	ND	ND	4.19564454	26.53127198	ND	ND	ND	ND	650.1	0
71442	2018-03-23T17:00:00	36.5	ND	ND	ND	0.933914233	25.68745194	ND	ND	ND	ND	615.5	0
71443	2018-03-23T18:00:00	42.2	ND	ND	ND	0.585438773	22.64577505	ND	ND	ND	ND	77.2	0
71444	2018-03-23T19:00:00	34.3	ND	ND	ND	3.721717914	24.19604908	ND	ND	ND	ND	0	0
71445	2018-03-23T20:00:00	50.2	ND	ND	ND	2.732047607	11.79385685	ND	ND	ND	ND	0	0
71446	2018-03-23T21:00:00	59	ND	ND	ND	3.902925153	11.38175869	ND	ND	ND	ND	0	0
71447	2018-03-23T22:00:00	62.6	ND	ND	ND	3.554449693	15.4242454	ND	ND	ND	ND	0	0
71448	2018-03-23T23:00:00	59.3	ND	ND	ND	2.913254847	8.614813906	ND	ND	ND	ND	0	0
71449	2018-03-24T00:00:00	58.3	ND	ND	ND	5.255009939	12.14708384	ND	ND	ND	ND	0	0
71450	2018-03-24T01:00:00	59.6	ND	ND	ND	4.112010429	10.49869121	ND	ND	ND	ND	0	0
71451	2018-03-24T02:00:00	54.2	ND	ND	ND	4.697449202	14.65892025	ND	ND	ND	ND	0	0
71452	2018-03-24T03:00:00	37.2	ND	ND	ND	5.561668344	22.72426994	ND	ND	ND	ND	0	0
71453	2018-03-24T04:00:00	36.4	ND	ND	ND	4.376851779	12.79466667	ND	ND	ND	ND	0	5.84
71454	2018-03-24T05:00:00	32.1	ND	ND	ND	4.753205276	2.92393456	ND	ND	ND	ND	0	1.27
71455	2018-03-24T06:00:00	58.2	ND	ND	ND	5.924082822	1.471779141	ND	ND	ND	ND	0	13.97
71456	2018-03-24T07:00:00	44.6	ND	ND	ND	5.213192883	4.572327198	ND	ND	ND	ND	20.2	1.52
71457	2018-03-24T08:00:00	11.4	ND	ND	ND	4.181705521	3.179042945	ND	ND	ND	ND	111.2	0.51
71458	2018-03-24T09:00:00	27.5	ND	ND	ND	6.871936074	2.099738241	ND	ND	ND	ND	334	0.25
71459	2018-03-24T10:00:00	69.8	ND	ND	ND	4.181705521	3.65001227	ND	ND	ND	ND	275.3	0.51
71460	2018-03-24T11:00:00	56.8	ND	ND	ND	5.756814601	8.418576687	ND	ND	ND	ND	384.4	0.51
71461	2018-03-24T12:00:00	44.2	ND	ND	ND	4.321095706	19.25087117	ND	ND	ND	ND	642.1	0
71462	2018-03-24T13:00:00	40.4	ND	ND	ND	1.087243436	31.57456851	ND	ND	ND	ND	648.9	0
71463	2018-03-24T14:00:00	54.1	ND	ND	ND	3.763534969	45.93913292	ND	ND	ND	ND	648.7	0
71464	2018-03-24T15:00:00	78.3	ND	ND	ND	4.641693129	52.02248671	ND	ND	ND	ND	649.1	0
71465	2018-03-24T16:00:00	63.9	ND	ND	ND	4.390790798	73.35347239	ND	ND	ND	ND	601.8	0
71466	2018-03-24T17:00:00	58.8	ND	ND	ND	4.46048589	61.77547648	ND	ND	ND	ND	444.4	0
71467	2018-03-24T18:00:00	56.8	ND	ND	ND	3.289608344	50.17785685	ND	ND	ND	ND	157.5	0
71468	2018-03-24T19:00:00	87	ND	ND	ND	2.146608834	15.58123517	ND	ND	ND	ND	6.7	0
71469	2018-03-24T20:00:00	84.5	ND	ND	ND	3.66596184	8.084973415	ND	ND	ND	ND	0	0
71470	2018-03-24T21:00:00	105.8	ND	ND	ND	1.867828466	2.884687117	ND	ND	ND	ND	0	0
71471	2018-03-24T22:00:00	85.8	ND	ND	ND	2.327816074	3.571517382	ND	ND	ND	ND	0	0
71472	2018-03-24T23:00:00	55.3	ND	ND	ND	3.275669325	1.452155419	ND	ND	ND	ND	0	0
71473	2018-03-25T00:00:00	87.5	ND	ND	ND	2.453267239	1.020433538	ND	ND	ND	ND	0	0
71474	2018-03-25T01:00:00	116.8	ND	ND	ND	2.522962331	1.079304703	ND	ND	ND	ND	0	0
71475	2018-03-25T02:00:00	75.8	ND	ND	ND	1.798133374	1.177423313	ND	ND	ND	ND	0	0
71476	2018-03-25T03:00:00	45.4	ND	ND	ND	2.285999018	0.824196319	ND	ND	ND	ND	0	0
71477	2018-03-25T04:00:00	58.4	ND	ND	ND	3.554449693	1.2559182	ND	ND	ND	ND	0	0
71478	2018-03-25T05:00:00	105.1	ND	ND	ND	5.129558773	1.216670757	ND	ND	ND	ND	0	0
71479	2018-03-25T06:00:00	115.8	ND	ND	ND	4.781083313	0.902691207	ND	ND	ND	ND	0	0
71480	2018-03-25T07:00:00	100.4	ND	ND	ND	3.819291043	0.922314928	ND	ND	ND	ND	28.3	0
71481	2018-03-25T08:00:00	93.1	ND	ND	ND	5.143497791	2.040867076	ND	ND	ND	ND	395.4	0
71482	2018-03-25T09:00:00	94.5	ND	ND	ND	5.115619755	16.07182822	ND	ND	ND	ND	648.6	0
71483	2018-03-25T10:00:00	85.9	ND	ND	ND	5.645302454	39.91465031	ND	ND	ND	ND	648.7	0
71484	2018-03-25T11:00:00	97.7	ND	ND	ND	4.781083313	58.73379959	ND	ND	ND	ND	649.2	0
71485	2018-03-25T12:00:00	74.5	ND	ND	ND	3.58232773	64.11069939	ND	ND	ND	ND	642.5	0
71486	2018-03-25T13:00:00	47.3	ND	ND	ND	3.93080319	76.27740695	ND	ND	ND	ND	649.4	0
71487	2018-03-25T14:00:00	56	ND	ND	ND	5.464095215	86.16776278	ND	ND	ND	ND	642	0
71488	2018-03-25T15:00:00	50.9	ND	ND	ND	2.467206258	54.23996728	ND	ND	ND	ND	625.2	0
71489	2018-03-25T16:00:00	27.9	ND	ND	ND	4.89259546	26.76675665	ND	ND	ND	ND	649.8	0
71490	2018-03-25T17:00:00	24.3	ND	ND	ND	2.62053546	23.35222904	ND	ND	ND	ND	636.9	0
71491	2018-03-25T18:00:00	20.4	ND	ND	ND	2.829620736	22.01781595	ND	ND	ND	ND	309.9	0
71492	2018-03-25T19:00:00	1.3	ND	ND	ND	3.735656933	20.82076892	ND	ND	ND	ND	11	0
71493	2018-03-25T20:00:00	4.5	ND	ND	ND	4.125949448	21.17399591	ND	ND	ND	ND	0	0
71494	2018-03-25T21:00:00	5.7	ND	ND	ND	5.199253865	17.03339059	ND	ND	ND	ND	0	0
71495	2018-03-25T22:00:00	16.4	ND	ND	ND	1.756316319	17.01376687	ND	ND	ND	ND	0	0
71496	2018-03-25T23:00:00	29.4	ND	ND	ND	2.439328221	11.28364008	ND	ND	ND	ND	0	0
71497	2018-03-26T00:00:00	36.2	ND	ND	ND	3.484754601	0.863443763	ND	ND	ND	ND	0	0
71498	2018-03-26T01:00:00	46.6	ND	ND	ND	3.136279141	5.730126789	ND	ND	ND	ND	0	0
71499	2018-03-26T02:00:00	37.9	ND	ND	ND	4.446546871	6.711312883	ND	ND	ND	ND	0	0
71500	2018-03-26T03:00:00	38.6	ND	ND	ND	5.268948957	8.732556237	ND	ND	ND	ND	0	0
71501	2018-03-26T04:00:00	35.7	ND	ND	ND	5.199253865	4.140605317	ND	ND	ND	ND	0	0
71502	2018-03-26T05:00:00	46.5	ND	ND	ND	3.205974233	3.179042945	ND	ND	ND	ND	0	0
71503	2018-03-26T06:00:00	39	ND	ND	ND	5.213192883	4.807811861	ND	ND	ND	ND	0	0
71504	2018-03-26T07:00:00	29	ND	ND	ND	2.425389202	1.883877301	ND	ND	ND	ND	40.9	0.51
71505	2018-03-26T08:00:00	81.3	ND	ND	ND	3.122340123	1.785758691	ND	ND	ND	ND	309.2	0
71506	2018-03-26T09:00:00	125.1	ND	ND	ND	5.324705031	2.825815951	ND	ND	ND	ND	432.8	0.25
71507	2018-03-26T10:00:00	104.1	ND	ND	ND	3.122340123	4.611574642	ND	ND	ND	ND	504.1	3.05
71508	2018-03-26T11:00:00	68.5	ND	ND	ND	5.031985644	12.69654806	ND	ND	ND	ND	648.6	0.76
71509	2018-03-26T12:00:00	62.9	ND	ND	ND	3.247791288	44.36923517	ND	ND	ND	ND	649.1	0
71510	2018-03-26T13:00:00	59.4	ND	ND	ND	5.742875583	65.70022086	ND	ND	ND	ND	649.8	0
71511	2018-03-26T14:00:00	63.5	ND	ND	ND	4.976229571	72.96099796	ND	ND	ND	ND	649.5	0
71512	2018-03-26T15:00:00	53.5	ND	ND	ND	4.725327239	48.03887117	ND	ND	ND	ND	641.2	0
71513	2018-03-26T16:00:00	42.6	ND	ND	ND	2.96901092	28.06192229	ND	ND	ND	ND	650.4	0
71514	2018-03-26T17:00:00	36.6	ND	ND	ND	3.080523067	18.99576278	ND	ND	ND	ND	634.1	0
71515	2018-03-26T18:00:00	37.3	ND	ND	ND	1.115121472	16.91564826	ND	ND	ND	ND	226.3	0
71516	2018-03-26T19:00:00	14	ND	ND	ND	1.770255337	15.79709611	ND	ND	ND	ND	9.3	0
71517	2018-03-26T20:00:00	15.1	ND	ND	ND	1.129060491	15.50274029	ND	ND	ND	ND	0	0
71518	2018-03-26T21:00:00	16.3	ND	ND	ND	5.268948957	13.1871411	ND	ND	ND	ND	0	0
71519	2018-03-26T22:00:00	25.7	ND	ND	ND	3.777473988	11.34251125	ND	ND	ND	ND	0	0
71520	2018-03-26T23:00:00	31.8	ND	ND	ND	3.387181472	5.259157464	ND	ND	ND	ND	0	0
71521	2018-03-27T00:00:00	33.8	ND	ND	ND	2.843559755	20.91888753	ND	ND	ND	ND	0	0
71522	2018-03-27T01:00:00	13	ND	ND	ND	2.578718405	15.79709611	ND	ND	ND	ND	0	0
71523	2018-03-27T02:00:00	15.2	ND	ND	ND	2.857498773	13.30488344	ND	ND	ND	ND	0	0
71524	2018-03-27T03:00:00	32.4	ND	ND	ND	4.864717423	9.988474438	ND	ND	ND	ND	0	0
71525	2018-03-27T04:00:00	39	ND	ND	ND	6.161046135	5.141415133	ND	ND	ND	ND	0	0
71526	2018-03-27T05:00:00	40	ND	ND	ND	3.875047117	4.474208589	ND	ND	ND	ND	0	0
71527	2018-03-27T06:00:00	36.8	ND	ND	ND	4.558059018	1.000809816	ND	ND	ND	ND	0	0
71528	2018-03-27T07:00:00	80.1	ND	ND	ND	3.275669325	1.020433538	ND	ND	ND	ND	28.7	0
71529	2018-03-27T08:00:00	88.2	ND	ND	ND	3.875047117	3.100548057	ND	ND	ND	ND	406.2	0
71530	2018-03-27T09:00:00	103.4	ND	ND	ND	4.585937055	9.851108384	ND	ND	ND	ND	619.6	0
71531	2018-03-27T10:00:00	108	ND	ND	ND	5.491973252	25.84444172	ND	ND	ND	ND	648.9	0
71532	2018-03-27T11:00:00	61.2	ND	ND	ND	4.432607853	35.14608589	ND	ND	ND	ND	648.9	0
71533	2018-03-27T12:00:00	35.9	ND	ND	ND	3.387181472	57.65449489	ND	ND	ND	ND	649.7	0
71534	2018-03-27T13:00:00	53.5	ND	ND	ND	3.178096196	58.40019632	ND	ND	ND	ND	649.8	0
71535	2018-03-27T14:00:00	53.9	ND	ND	ND	5.073802699	76.90536605	ND	ND	ND	ND	650.2	0
71536	2018-03-27T15:00:00	58.1	ND	ND	ND	3.540510675	47.33241718	ND	ND	ND	ND	379	0
71537	2018-03-27T16:00:00	52.1	ND	ND	ND	2.843559755	15.81671984	ND	ND	ND	ND	169.7	71.12
71538	2018-03-27T17:00:00	19.1	ND	ND	ND	0.710889939	8.006478528	ND	ND	ND	ND	548.3	0
71539	2018-03-27T18:00:00	55.4	ND	ND	ND	2.327816074	11.73498569	ND	ND	ND	ND	134.9	0
71540	2018-03-27T19:00:00	53.4	ND	ND	ND	2.982949939	11.71536196	ND	ND	ND	ND	8	0
71541	2018-03-27T20:00:00	29.5	ND	ND	ND	3.247791288	4.69006953	ND	ND	ND	ND	0	0.25
71542	2018-03-27T21:00:00	44.5	ND	ND	ND	2.230242945	1.236294479	ND	ND	ND	ND	0	0.25
71543	2018-03-27T22:00:00	73.9	ND	ND	ND	0.209085276	1.805382413	ND	ND	ND	ND	0	0
71544	2018-03-27T23:00:00	64.5	ND	ND	ND	1.979340613	1.530650307	ND	ND	ND	ND	0	0
71545	2018-03-28T00:00:00	60.9	ND	ND	ND	5.408339141	1.059680982	ND	ND	ND	ND	0	0
71546	2018-03-28T01:00:00	54.2	ND	ND	ND	5.059863681	0.902691207	ND	ND	ND	ND	0	0
71547	2018-03-28T02:00:00	64.8	ND	ND	ND	2.118730798	0.902691207	ND	ND	ND	ND	0	0
71548	2018-03-28T03:00:00	64.9	ND	ND	ND	6.300436319	0.686830266	ND	ND	ND	ND	0	0
71549	2018-03-28T04:00:00	50.3	ND	ND	ND	5.059863681	1.177423313	ND	ND	ND	ND	0	0
71550	2018-03-28T05:00:00	41.9	ND	ND	ND	3.777473988	1.098928425	ND	ND	ND	ND	0	0
71551	2018-03-28T06:00:00	50.2	ND	ND	ND	4.948351534	0.667206544	ND	ND	ND	ND	0	0
71552	2018-03-28T07:00:00	57	ND	ND	ND	3.415059509	0.745701431	ND	ND	ND	ND	49.4	0
71553	2018-03-28T08:00:00	83.6	ND	ND	ND	4.335034724	0.922314928	ND	ND	ND	ND	240	0
71554	2018-03-28T09:00:00	110.8	ND	ND	ND	2.759925644	2.472588957	ND	ND	ND	ND	424.4	0
71555	2018-03-28T10:00:00	120.6	ND	ND	ND	1.644804172	11.42100613	ND	ND	ND	ND	635.3	0
71556	2018-03-28T11:00:00	104.2	ND	ND	ND	5.004107607	34.38076074	ND	ND	ND	ND	649.1	0
71557	2018-03-28T12:00:00	88.9	ND	ND	ND	1.895706503	46.92031902	ND	ND	ND	ND	649	0
71558	2018-03-28T13:00:00	58.8	ND	ND	ND	3.777473988	57.92922699	ND	ND	ND	ND	649.4	0
71559	2018-03-28T14:00:00	60.2	ND	ND	ND	1.366023804	50.96280573	ND	ND	ND	ND	649.1	0
71560	2018-03-28T15:00:00	67.3	ND	ND	ND	2.27206	43.62353374	ND	ND	ND	ND	543.9	0
71561	2018-03-28T16:00:00	75.7	ND	ND	ND	4.084132393	21.0758773	ND	ND	ND	ND	263.7	0
71562	2018-03-28T17:00:00	40.7	ND	ND	ND	2.704169571	10.2239591	ND	ND	ND	ND	283.5	0
71563	2018-03-28T18:00:00	30.1	ND	ND	ND	1.142999509	5.396523517	ND	ND	ND	ND	104.8	0
71564	2018-03-28T19:00:00	33.9	ND	ND	ND	1.115121472	3.33603272	ND	ND	ND	ND	4.1	0
71565	2018-03-28T20:00:00	26	ND	ND	ND	1.073304417	1.844629857	ND	ND	ND	ND	0	0
71566	2018-03-28T21:00:00	29.7	ND	ND	ND	0.836341104	2.982805726	ND	ND	ND	ND	0	0
71567	2018-03-28T22:00:00	17.5	ND	ND	ND	1.979340613	1.393284254	ND	ND	ND	ND	0	0
71568	2018-03-28T23:00:00	23.2	ND	ND	ND	3.833230061	1.66801636	ND	ND	ND	ND	0	0
71569	2018-03-29T00:00:00	31.9	ND	ND	ND	4.906534479	1.452155419	ND	ND	ND	ND	0	0
71570	2018-03-29T01:00:00	63.1	ND	ND	ND	5.031985644	2.237104294	ND	ND	ND	ND	0	0
71571	2018-03-29T02:00:00	77.3	ND	ND	ND	5.143497791	2.080114519	ND	ND	ND	ND	0	0
71572	2018-03-29T03:00:00	43.7	ND	ND	ND	4.516241963	1.707263804	ND	ND	ND	ND	0	0
71573	2018-03-29T04:00:00	38.4	ND	ND	ND	3.861108098	0.824196319	ND	ND	ND	ND	0	0
71574	2018-03-29T05:00:00	60.1	ND	ND	ND	3.261730307	1.098928425	ND	ND	ND	ND	0	0
71575	2018-03-29T06:00:00	64.9	ND	ND	ND	5.171375828	0.784948875	ND	ND	ND	ND	0	0
71576	2018-03-29T07:00:00	88.8	ND	ND	ND	4.669571166	0.765325153	ND	ND	ND	ND	39.7	0
71577	2018-03-29T08:00:00	93.1	ND	ND	ND	4.599876074	1.864253579	ND	ND	ND	ND	255.9	0
71578	2018-03-29T09:00:00	79.3	ND	ND	ND	3.49869362	7.535509202	ND	ND	ND	ND	527.6	0
71579	2018-03-29T10:00:00	66	ND	ND	ND	4.27927865	17.40624131	ND	ND	ND	ND	645.7	0
71580	2018-03-29T11:00:00	62	ND	ND	ND	3.31748638	23.11674438	ND	ND	ND	ND	561.8	0
71581	2018-03-29T12:00:00	53.3	ND	ND	ND	4.070193374	20.86001636	ND	ND	ND	ND	562.7	0
71582	2018-03-29T13:00:00	40	ND	ND	ND	3.373242454	18.21081391	ND	ND	ND	ND	649.2	0
71583	2018-03-29T14:00:00	37.4	ND	ND	ND	2.049035706	24.52965235	ND	ND	ND	ND	649	0
71584	2018-03-29T15:00:00	29.5	ND	ND	ND	3.652022822	25.78557055	ND	ND	ND	ND	646.3	0
71585	2018-03-29T16:00:00	34.2	ND	ND	ND	4.237461595	22.44953783	ND	ND	ND	ND	402.2	0
71586	2018-03-29T17:00:00	31.9	ND	ND	ND	5.296826994	18.26968507	ND	ND	ND	ND	70.6	0
71587	2018-03-29T18:00:00	18.5	ND	ND	ND	4.376851779	13.83472393	ND	ND	ND	ND	40.8	0
71588	2018-03-29T19:00:00	6.1	ND	ND	ND	2.787803681	5.200286299	ND	ND	ND	ND	0	0
71589	2018-03-29T20:00:00	15.6	ND	ND	ND	3.219913252	3.708883436	ND	ND	ND	ND	0	0
71590	2018-03-29T21:00:00	27.2	ND	ND	ND	3.484754601	2.178233129	ND	ND	ND	ND	0	0
71591	2018-03-29T22:00:00	29.4	ND	ND	ND	1.92358454	1.177423313	ND	ND	ND	ND	0	0
71592	2018-03-29T23:00:00	40.2	ND	ND	ND	4.237461595	0.745701431	ND	ND	ND	ND	0	1.52
71593	2018-03-30T00:00:00	32.1	ND	ND	ND	2.522962331	1.589521472	ND	ND	ND	ND	0	0
71594	2018-03-30T01:00:00	31.4	ND	ND	ND	4.362912761	1.197047035	ND	ND	ND	ND	0	0.25
71595	2018-03-30T02:00:00	28.3	ND	ND	ND	2.341755092	2.92393456	ND	ND	ND	ND	0	0
71596	2018-03-30T03:00:00	15.5	ND	ND	ND	4.265339632	4.238723926	ND	ND	ND	ND	0	0
71597	2018-03-30T04:00:00	25.7	ND	ND	ND	4.404729816	1.020433538	ND	ND	ND	ND	0	0
71598	2018-03-30T05:00:00	50.5	ND	ND	ND	4.112010429	0.843820041	ND	ND	ND	ND	0	0
71599	2018-03-30T06:00:00	79	ND	ND	ND	3.707778896	0.883067485	ND	ND	ND	ND	0	0
71600	2018-03-30T07:00:00	77.4	ND	ND	ND	5.42227816	0.706453988	ND	ND	ND	ND	70.6	0
71601	2018-03-30T08:00:00	56.1	ND	ND	ND	3.693839877	0.804572597	ND	ND	ND	ND	203.1	0
71602	2018-03-30T09:00:00	62.2	ND	ND	ND	3.442937546	3.610764826	ND	ND	ND	ND	547.9	0
71603	2018-03-30T10:00:00	104.3	ND	ND	ND	3.916864172	15.36537423	ND	ND	ND	ND	648.5	0
71604	2018-03-30T11:00:00	74.5	ND	ND	ND	4.739266258	28.98423722	ND	ND	ND	ND	648.9	0
71605	2018-03-30T12:00:00	46.3	ND	ND	ND	3.721717914	41.40605317	ND	ND	ND	ND	629.5	0
71606	2018-03-30T13:00:00	33.9	ND	ND	ND	3.972620245	37.46168507	ND	ND	ND	ND	649	0
71607	2018-03-30T14:00:00	20.4	ND	ND	ND	4.753205276	37.7560409	ND	ND	ND	ND	557.9	0
71608	2018-03-30T15:00:00	9.7	ND	ND	ND	3.345364417	21.99819223	ND	ND	ND	ND	612.7	0
71609	2018-03-30T16:00:00	14.3	ND	ND	ND	4.781083313	39.38480982	ND	ND	ND	ND	309	0
71610	2018-03-30T17:00:00	49.2	ND	ND	ND	4.181705521	18.03420041	ND	ND	ND	ND	22	7.11
71611	2018-03-30T18:00:00	16.2	ND	ND	ND	4.404729816	6.809431493	ND	ND	ND	ND	6.5	5.08
71612	2018-03-30T19:00:00	24.7	ND	ND	ND	3.735656933	1.726887526	ND	ND	ND	ND	0	1.27
71613	2018-03-30T20:00:00	43.5	ND	ND	ND	3.205974233	1.157799591	ND	ND	ND	ND	0	5.84
71614	2018-03-30T21:00:00	41.1	ND	ND	ND	3.819291043	1.000809816	ND	ND	ND	ND	0	1.27
71615	2018-03-30T22:00:00	31	ND	ND	ND	4.070193374	2.119361963	ND	ND	ND	ND	0	7.11
71616	2018-03-30T23:00:00	19.2	ND	ND	ND	3.888986135	1.942748466	ND	ND	ND	ND	0	1.78
71617	2018-03-31T00:00:00	10.1	ND	ND	ND	4.767144294	4.748940695	ND	ND	ND	ND	0	6.1
71618	2018-03-31T01:00:00	4	ND	ND	ND	4.098071411	7.888736196	ND	ND	ND	ND	0	1.02
71619	2018-03-31T02:00:00	1.3	ND	ND	ND	5.15743681	3.630388548	ND	ND	ND	ND	0	0
71620	2018-03-31T03:00:00	7	ND	ND	ND	3.610205767	4.37608998	ND	ND	ND	ND	0	0
71621	2018-03-31T04:00:00	0.5	ND	ND	ND	2.397511166	5.376899796	ND	ND	ND	ND	0	0
71622	2018-03-31T05:00:00	3.6	ND	ND	ND	2.313877055	4.160229039	ND	ND	ND	ND	0	0
71623	2018-03-31T06:00:00	5.2	ND	ND	ND	4.098071411	4.37608998	ND	ND	ND	ND	0	0
71624	2018-03-31T07:00:00	27.1	ND	ND	ND	4.474424908	0.765325153	ND	ND	ND	ND	47.7	0.25
71625	2018-03-31T08:00:00	40.9	ND	ND	ND	4.89259546	0.784948875	ND	ND	ND	ND	138.5	0
71626	2018-03-31T09:00:00	42.7	ND	ND	ND	3.23385227	5.023672802	ND	ND	ND	ND	512.7	0
71627	2018-03-31T10:00:00	31.6	ND	ND	ND	5.896204785	15.50274029	ND	ND	ND	ND	648.9	0
71628	2018-03-31T11:00:00	43.7	ND	ND	ND	3.164157178	23.82319836	ND	ND	ND	ND	649.2	0
71629	2018-03-31T12:00:00	37.2	ND	ND	ND	2.88537681	36.65711247	ND	ND	ND	ND	645.2	0
71630	2018-03-31T13:00:00	28.2	ND	ND	ND	3.972620245	59.32251125	ND	ND	ND	ND	649.1	0
71631	2018-03-31T14:00:00	46.9	ND	ND	ND	3.84716908	52.17947648	ND	ND	ND	ND	649.4	0
71632	2018-03-31T15:00:00	22.4	ND	ND	ND	4.669571166	28.12079346	ND	ND	ND	ND	646.9	0
71633	2018-03-31T16:00:00	6.3	ND	ND	ND	3.526571656	17.15113292	ND	ND	ND	ND	472.3	0
71634	2018-03-31T17:00:00	3.6	ND	ND	ND	3.66596184	12.02934151	ND	ND	ND	ND	220.7	0
71635	2018-03-31T18:00:00	25.8	ND	ND	ND	2.787803681	12.48068712	ND	ND	ND	ND	39.5	0
71636	2018-03-31T19:00:00	29	ND	ND	ND	2.341755092	5.867492843	ND	ND	ND	ND	0	0
71637	2018-03-31T20:00:00	25.9	ND	ND	ND	2.96901092	2.943558282	ND	ND	ND	ND	0	0.76
71638	2018-03-31T21:00:00	27.2	ND	ND	ND	2.090852761	1.000809816	ND	ND	ND	ND	0	0.25
71639	2018-03-31T22:00:00	17.9	ND	ND	ND	4.167766503	1.138175869	ND	ND	ND	ND	0	0.25
71640	2018-03-31T23:00:00	19.3	ND	ND	ND	3.791413006	0.6279591	ND	ND	ND	ND	0	0
71641	2018-04-01T00:00:00	35.9	ND	ND	ND	2.090852761	0.569087935	ND	ND	ND	ND	0	0.25
71642	2018-04-01T01:00:00	32.5	ND	ND	ND	6.244680245	0.549464213	ND	ND	ND	ND	0	0
71643	2018-04-01T02:00:00	40.4	ND	ND	ND	5.965899877	0.451345603	ND	ND	ND	ND	0	0
71644	2018-04-01T03:00:00	35.2	ND	ND	ND	5.910143804	0.686830266	ND	ND	ND	ND	0	0
71645	2018-04-01T04:00:00	23.5	ND	ND	ND	3.512632638	0.706453988	ND	ND	ND	ND	0	0
71646	2018-04-01T05:00:00	28.7	ND	ND	ND	4.335034724	0.569087935	ND	ND	ND	ND	0	0
71647	2018-04-01T06:00:00	40.8	ND	ND	ND	4.181705521	0.470969325	ND	ND	ND	ND	0	0
71648	2018-04-01T07:00:00	30.2	ND	ND	ND	5.756814601	0.647582822	ND	ND	ND	ND	79.4	0
71649	2018-04-01T08:00:00	42.3	ND	ND	ND	4.502302945	1.020433538	ND	ND	ND	ND	284.7	0
71650	2018-04-01T09:00:00	49.8	ND	ND	ND	5.171375828	4.493832311	ND	ND	ND	ND	606.1	0
71651	2018-04-01T10:00:00	44.7	ND	ND	ND	1.519353006	13.83472393	ND	ND	ND	ND	648.8	0
71652	2018-04-01T11:00:00	56.4	ND	ND	ND	2.96901092	25.6482045	ND	ND	ND	ND	648.8	0
71653	2018-04-01T12:00:00	43.1	ND	ND	ND	4.390790798	36.14689571	ND	ND	ND	ND	649.3	0
71654	2018-04-01T13:00:00	27.3	ND	ND	ND	4.028376319	46.15499387	ND	ND	ND	ND	649.7	0
71655	2018-04-01T14:00:00	13.3	ND	ND	ND	4.362912761	55.79024131	ND	ND	ND	ND	649.9	0
71656	2018-04-01T15:00:00	22.4	ND	ND	ND	3.652022822	32.71274438	ND	ND	ND	ND	649.7	0
71657	2018-04-01T16:00:00	22.5	ND	ND	ND	4.098071411	20.05544376	ND	ND	ND	ND	631.9	0
71658	2018-04-01T17:00:00	9.2	ND	ND	ND	2.578718405	16.18957055	ND	ND	ND	ND	392	0
71659	2018-04-01T18:00:00	Invalido	ND	ND	ND	2.745986626	14.65892025	ND	ND	ND	ND	106.4	0
71660	2018-04-01T19:00:00	4.2	ND	ND	ND	3.540510675	8.418576687	ND	ND	ND	ND	0	0.51
71661	2018-04-01T20:00:00	21.6	ND	ND	ND	3.038706012	5.808621677	ND	ND	ND	ND	0	0.51
71662	2018-04-01T21:00:00	28.6	ND	ND	ND	3.261730307	5.435770961	ND	ND	ND	ND	0	0
71663	2018-04-01T22:00:00	44.1	ND	ND	ND	3.568388712	5.396523517	ND	ND	ND	ND	0	0.25
71664	2018-04-01T23:00:00	49.4	ND	ND	ND	4.014437301	3.708883436	ND	ND	ND	ND	0	0
71665	2018-04-02T00:00:00	39.8	ND	ND	ND	4.056254356	6.730936605	ND	ND	ND	ND	0	0
71666	2018-04-02T01:00:00	29.5	ND	ND	ND	4.585937055	2.649202454	ND	ND	ND	ND	0	0
71667	2018-04-02T02:00:00	29	ND	ND	ND	3.010827975	2.668826176	ND	ND	ND	ND	0	0
71668	2018-04-02T03:00:00	32.9	ND	ND	ND	3.693839877	1.609145194	ND	ND	ND	ND	0	0
71669	2018-04-02T04:00:00	38.2	ND	ND	ND	4.446546871	1.628768916	ND	ND	ND	ND	0	0
71670	2018-04-02T05:00:00	32.6	ND	ND	ND	5.15743681	1.393284254	ND	ND	ND	ND	0	0
71671	2018-04-02T06:00:00	39	ND	ND	ND	2.745986626	1.511026585	ND	ND	ND	ND	0	0
71672	2018-04-02T07:00:00	30.6	ND	ND	ND	4.558059018	1.04005726	ND	ND	ND	ND	5	2.03
71673	2018-04-02T08:00:00	25.5	ND	ND	ND	3.205974233	0.883067485	ND	ND	ND	ND	85.1	2.03
71674	2018-04-02T09:00:00	20.5	ND	ND	ND	0.780585031	1.177423313	ND	ND	ND	ND	402.7	0.25
71675	2018-04-02T10:00:00	38	ND	ND	ND	4.80896135	4.886306748	ND	ND	ND	ND	648.9	0
71676	2018-04-02T11:00:00	55.6	ND	ND	ND	5.115619755	14.08983231	ND	ND	ND	ND	648.8	0
71677	2018-04-02T12:00:00	68.6	ND	ND	ND	2.118730798	28.788	ND	ND	ND	ND	648.9	0
71678	2018-04-02T13:00:00	64.2	ND	ND	ND	3.038706012	49.64801636	ND	ND	ND	ND	643.7	0
71679	2018-04-02T14:00:00	54.9	ND	ND	ND	1.728438282	49.54989775	ND	ND	ND	ND	645.9	0
71680	2018-04-02T15:00:00	36.1	ND	ND	ND	3.456876564	12.912409	ND	ND	ND	ND	618.6	0
71681	2018-04-02T16:00:00	19	ND	ND	ND	2.662352515	8.202715746	ND	ND	ND	ND	387.9	0
71682	2018-04-02T17:00:00	36.1	ND	ND	ND	2.160547853	6.750560327	ND	ND	ND	ND	133.6	0
71683	2018-04-02T18:00:00	27.8	ND	ND	ND	1.407840859	1.825006135	ND	ND	ND	ND	25.7	2.03
71684	2018-04-02T19:00:00	39.9	ND	ND	ND	0.710889939	0.72607771	ND	ND	ND	ND	0	0.76
71685	2018-04-02T20:00:00	38.6	ND	ND	ND	1.031487362	0.784948875	ND	ND	ND	ND	0	0.25
71686	2018-04-02T21:00:00	43.9	ND	ND	ND	1.979340613	0.94193865	ND	ND	ND	ND	0	0.25
71687	2018-04-02T22:00:00	27.4	ND	ND	ND	2.718108589	1.118552147	ND	ND	ND	ND	0	0
71688	2018-04-02T23:00:00	25.4	ND	ND	ND	4.404729816	0.745701431	ND	ND	ND	ND	0	0
71689	2018-04-03T00:00:00	22.8	ND	ND	ND	3.010827975	0.765325153	ND	ND	ND	ND	0	0
71690	2018-04-03T01:00:00	26	ND	ND	ND	3.554449693	0.6279591	ND	ND	ND	ND	0	0
71691	2018-04-03T02:00:00	42.2	ND	ND	ND	4.432607853	0.863443763	ND	ND	ND	ND	0	0.51
71692	2018-04-03T03:00:00	27.5	ND	ND	ND	4.781083313	0.843820041	ND	ND	ND	ND	0	0
71693	2018-04-03T04:00:00	18.2	ND	ND	ND	2.467206258	0.706453988	ND	ND	ND	ND	0	0.25
71694	2018-04-03T05:00:00	23.6	ND	ND	ND	3.972620245	0.588711656	ND	ND	ND	ND	0	0
71695	2018-04-03T06:00:00	58.2	ND	ND	ND	3.415059509	0.843820041	ND	ND	ND	ND	0	0
71696	2018-04-03T07:00:00	65.8	ND	ND	ND	1.993279632	0.686830266	ND	ND	ND	ND	32.2	0
71697	2018-04-03T08:00:00	65.6	ND	ND	ND	2.522962331	0.94193865	ND	ND	ND	ND	183.4	0.25
71698	2018-04-03T09:00:00	77.1	ND	ND	ND	3.749595951	3.728507157	ND	ND	ND	ND	595.1	0
71699	2018-04-03T10:00:00	94.2	ND	ND	ND	4.739266258	13.8151002	ND	ND	ND	ND	649	0
71700	2018-04-03T11:00:00	86	ND	ND	ND	3.735656933	25.90331288	ND	ND	ND	ND	579.8	0
71701	2018-04-03T12:00:00	70.3	ND	ND	ND	3.93080319	43.99638446	ND	ND	ND	ND	649.4	0
71702	2018-04-03T13:00:00	64.7	ND	ND	ND	3.861108098	58.69455215	ND	ND	ND	ND	649.1	0
71703	2018-04-03T14:00:00	59.1	ND	ND	ND	3.554449693	66.7206544	ND	ND	ND	ND	649.4	0
71704	2018-04-03T15:00:00	58.9	ND	ND	ND	3.707778896	39.60067076	ND	ND	ND	ND	435.2	0
71705	2018-04-03T16:00:00	39	ND	ND	ND	0.919975215	14.38418814	ND	ND	ND	ND	95.1	23.11
71706	2018-04-03T17:00:00	14.2	ND	ND	ND	1.435718896	3.100548057	ND	ND	ND	ND	30.4	30.48
71707	2018-04-03T18:00:00	37.3	ND	ND	ND	0.710889939	1.079304703	ND	ND	ND	ND	17.5	0.25
71708	2018-04-03T19:00:00	54.5	ND	ND	ND	ND	1.098928425	ND	ND	ND	ND	0	1.02
71709	2018-04-03T20:00:00	51.5	ND	ND	ND	ND	1.098928425	ND	ND	ND	ND	0	0
71710	2018-04-03T21:00:00	60.1	ND	ND	ND	ND	1.236294479	ND	ND	ND	ND	0	0
71711	2018-04-03T22:00:00	57.6	ND	ND	ND	1.379962822	0.902691207	ND	ND	ND	ND	0	0.51
71712	2018-04-03T23:00:00	44.5	ND	ND	ND	2.230242945	0.902691207	ND	ND	ND	ND	0	5.08
71713	2018-04-04T00:00:00	33.5	ND	ND	ND	2.648413497	0.902691207	ND	ND	ND	ND	0	1.52
71714	2018-04-04T01:00:00	18.6	ND	ND	ND	3.205974233	0.883067485	ND	ND	ND	ND	0	0
71715	2018-04-04T02:00:00	22.2	ND	ND	ND	4.502302945	0.843820041	ND	ND	ND	ND	0	0.51
71716	2018-04-04T03:00:00	22.6	ND	ND	ND	2.815681718	0.843820041	ND	ND	ND	ND	0	0
71717	2018-04-04T04:00:00	26.3	ND	ND	ND	4.46048589	0.961562372	ND	ND	ND	ND	0	18.54
71718	2018-04-04T05:00:00	15.9	ND	ND	ND	3.693839877	1.471779141	ND	ND	ND	ND	0	2.29
71719	2018-04-04T06:00:00	9.8	ND	ND	ND	5.199253865	1.079304703	ND	ND	ND	ND	0	6.86
71720	2018-04-04T07:00:00	2.2	ND	ND	ND	3.401120491	0.902691207	ND	ND	ND	ND	14	9.14
71721	2018-04-04T08:00:00	16.3	ND	ND	ND	0.543621718	0.902691207	ND	ND	ND	ND	109.7	3.81
71722	2018-04-04T09:00:00	34.1	ND	ND	ND	2.104791779	1.177423313	ND	ND	ND	ND	293	0.51
71723	2018-04-04T10:00:00	49.3	ND	ND	ND	2.829620736	1.687640082	ND	ND	ND	ND	413.5	1.52
71724	2018-04-04T11:00:00	58.9	ND	ND	ND	2.299938037	2.413717791	ND	ND	ND	ND	287.5	1.78
71725	2018-04-04T12:00:00	56.5	ND	ND	ND	1.909645521	2.39409407	ND	ND	ND	ND	469.5	1.27
71726	2018-04-04T13:00:00	54.2	ND	ND	ND	2.062974724	15.52236401	ND	ND	ND	ND	648.5	0
71727	2018-04-04T14:00:00	54.2	ND	ND	ND	3.456876564	24.05868303	ND	ND	ND	ND	649	0
71728	2018-04-04T15:00:00	49.1	ND	ND	ND	3.275669325	16.40543149	ND	ND	ND	ND	487.4	0
71729	2018-04-04T16:00:00	46.9	ND	ND	ND	3.791413006	7.044916155	ND	ND	ND	ND	265.7	0.25
71730	2018-04-04T17:00:00	41.4	ND	ND	ND	3.010827975	6.122601227	ND	ND	ND	ND	172.9	0
71731	2018-04-04T18:00:00	50.6	ND	ND	ND	1.463596933	2.786568507	ND	ND	ND	ND	61.6	0
71732	2018-04-04T19:00:00	61.6	ND	ND	ND	0.167268221	1.314789366	ND	ND	ND	ND	0	0
71733	2018-04-04T20:00:00	85.8	ND	ND	ND	1.798133374	0.804572597	ND	ND	ND	ND	0	0
71734	2018-04-04T21:00:00	95.2	ND	ND	ND	1.756316319	0.667206544	ND	ND	ND	ND	0	0
71735	2018-04-04T22:00:00	67.7	ND	ND	ND	2.049035706	0.667206544	ND	ND	ND	ND	0	0
71736	2018-04-04T23:00:00	84.8	ND	ND	ND	1.742377301	0.843820041	ND	ND	ND	ND	0	0
71737	2018-04-05T00:00:00	69.3	ND	ND	ND	1.867828466	0.745701431	ND	ND	ND	ND	0	0
71738	2018-04-05T01:00:00	46.3	ND	ND	ND	2.927193865	0.6279591	ND	ND	ND	ND	0	0
71739	2018-04-05T02:00:00	37	ND	ND	ND	4.89259546	0.784948875	ND	ND	ND	ND	0	0
71740	2018-04-05T03:00:00	37.4	ND	ND	ND	4.237461595	0.451345603	ND	ND	ND	ND	0	0
71741	2018-04-05T04:00:00	30.8	ND	ND	ND	3.861108098	0.686830266	ND	ND	ND	ND	0	0
71742	2018-04-05T05:00:00	33.5	ND	ND	ND	3.401120491	0.569087935	ND	ND	ND	ND	0	0
71743	2018-04-05T06:00:00	46.9	ND	ND	ND	3.638083804	0.647582822	ND	ND	ND	ND	0	0
71744	2018-04-05T07:00:00	96.1	ND	ND	ND	2.759925644	0.94193865	ND	ND	ND	ND	17	0
71745	2018-04-05T08:00:00	103.6	ND	ND	ND	1.142999509	1.079304703	ND	ND	ND	ND	140.7	0
71746	2018-04-05T09:00:00	142.7	ND	ND	ND	2.815681718	1.569897751	ND	ND	ND	ND	424.5	0
71747	2018-04-05T10:00:00	167.1	ND	ND	ND	2.662352515	4.650822086	ND	ND	ND	ND	648.7	0
71748	2018-04-05T11:00:00	171	ND	ND	ND	4.54412	106.6941759	ND	ND	ND	ND	648.5	0
71749	2018-04-05T12:00:00	94.2	ND	ND	ND	ND	158.618544	ND	ND	ND	ND	647.2	0
71750	2018-04-05T13:00:00	39.2	ND	ND	ND	ND	37.55980368	ND	ND	ND	ND	649.6	0
71751	2018-04-05T14:00:00	0.2	ND	ND	ND	1.65874319	42.93670348	ND	ND	ND	ND	640.5	0
71752	2018-04-05T15:00:00	20.7	ND	ND	ND	2.035096687	42.56385276	ND	ND	ND	ND	537.8	0
71753	2018-04-05T16:00:00	48.1	ND	ND	ND	3.024766994	20.52641309	ND	ND	ND	ND	221.4	0
71754	2018-04-05T17:00:00	45.5	ND	ND	ND	1.616926135	14.40381186	ND	ND	ND	ND	419.4	0
71755	2018-04-05T18:00:00	42.6	ND	ND	ND	1.129060491	15.01214724	ND	ND	ND	ND	152.6	0
71756	2018-04-05T19:00:00	6.5	ND	ND	ND	2.690230552	12.83391411	ND	ND	ND	ND	1.9	0
71757	2018-04-05T20:00:00	9	ND	ND	ND	0.404231534	9.360515337	ND	ND	ND	ND	0.1	0
71758	2018-04-05T21:00:00	20.2	ND	ND	ND	1.39390184	4.37608998	ND	ND	ND	ND	0.1	0
71759	2018-04-05T22:00:00	22.8	ND	ND	ND	3.108401104	6.868302658	ND	ND	ND	ND	0.1	0
71760	2018-04-05T23:00:00	19.3	ND	ND	ND	2.927193865	4.650822086	ND	ND	ND	ND	0.1	0
71761	2018-04-06T00:00:00	26.9	ND	ND	ND	1.700560245	4.356466258	ND	ND	ND	ND	0.1	0
71762	2018-04-06T01:00:00	23.3	ND	ND	ND	4.125949448	4.120981595	ND	ND	ND	ND	0.1	0
71763	2018-04-06T02:00:00	21.2	ND	ND	ND	2.299938037	4.748940695	ND	ND	ND	ND	0.1	0
71764	2018-04-06T03:00:00	25.2	ND	ND	ND	4.293217669	3.100548057	ND	ND	ND	ND	0.1	47.24
71765	2018-04-06T04:00:00	18.3	ND	ND	ND	4.585937055	6.338462168	ND	ND	ND	ND	0.1	3.81
71766	2018-04-06T05:00:00	0.9	ND	ND	ND	1.672682209	4.572327198	ND	ND	ND	ND	0.1	1.52
71767	2018-04-06T06:00:00	9.8	ND	ND	ND	3.540510675	4.179852761	ND	ND	ND	ND	0.2	0.25
71768	2018-04-06T07:00:00	13.6	ND	ND	ND	3.359303436	0.6279591	ND	ND	ND	ND	13.7	0.76
71769	2018-04-06T08:00:00	23.4	ND	ND	ND	ND	150.4354519	ND	ND	ND	ND	186.4	0.25
71770	2018-04-06T09:00:00	51.8	ND	ND	ND	ND	6.475828221	ND	ND	ND	ND	516.3	0.25
71771	2018-04-06T10:00:00	41.8	ND	ND	ND	ND	15.44386912	ND	ND	ND	ND	648.2	0
71772	2018-04-06T11:00:00	38.7	ND	ND	ND	ND	35.067591	ND	ND	ND	ND	648.9	0
71773	2018-04-06T12:00:00	29.9	ND	ND	ND	1.728438282	55.71174642	ND	ND	ND	ND	648.7	0
71774	2018-04-06T13:00:00	40	ND	ND	ND	2.035096687	47.46978323	ND	ND	ND	ND	649.2	0
71775	2018-04-06T14:00:00	44.2	ND	ND	ND	3.707778896	35.85253988	ND	ND	ND	ND	649.4	0
71776	2018-04-06T15:00:00	45.9	ND	ND	ND	4.181705521	38.22701022	ND	ND	ND	ND	626.6	0
71777	2018-04-06T16:00:00	31	ND	ND	ND	1.784194356	13.87397137	ND	ND	ND	ND	271.1	0
71778	2018-04-06T17:00:00	13.3	ND	ND	ND	2.913254847	8.457824131	ND	ND	ND	ND	188.6	0
71779	2018-04-06T18:00:00	35.1	ND	ND	ND	1.435718896	5.023672802	ND	ND	ND	ND	93.5	0
71780	2018-04-06T19:00:00	31.5	ND	ND	ND	2.369633129	2.217480573	ND	ND	ND	ND	3.5	0
71781	2018-04-06T20:00:00	64.6	ND	ND	ND	3.84716908	0.529840491	ND	ND	ND	ND	0.1	0
71782	2018-04-06T21:00:00	60.2	ND	ND	ND	1.909645521	1.452155419	ND	ND	ND	ND	0.1	0
71783	2018-04-06T22:00:00	25.4	ND	ND	ND	3.777473988	0.451345603	ND	ND	ND	ND	0.1	0
71784	2018-04-06T23:00:00	68.9	ND	ND	ND	1.003609325	0.569087935	ND	ND	ND	ND	0.1	0
71785	2018-04-07T00:00:00	67.1	ND	ND	ND	2.258120982	0.883067485	ND	ND	ND	ND	0.1	0
71786	2018-04-07T01:00:00	48.1	ND	ND	ND	2.773864663	1.452155419	ND	ND	ND	ND	0.1	0
71787	2018-04-07T02:00:00	15.9	ND	ND	ND	2.509023313	1.511026585	ND	ND	ND	ND	0.1	0
71788	2018-04-07T03:00:00	40.9	ND	ND	ND	1.839950429	0.490593047	ND	ND	ND	ND	0.1	0
71789	2018-04-07T04:00:00	46	ND	ND	ND	3.192035215	2.825815951	ND	ND	ND	ND	0.1	0
71790	2018-04-07T05:00:00	16.9	ND	ND	ND	3.219913252	1.66801636	ND	ND	ND	ND	0.1	0
71791	2018-04-07T06:00:00	19.2	ND	ND	ND	3.638083804	1.628768916	ND	ND	ND	ND	0.3	0
71792	2018-04-07T07:00:00	58.4	ND	ND	ND	2.634474479	0.470969325	ND	ND	ND	ND	78.3	0
71793	2018-04-07T08:00:00	136.3	ND	ND	ND	5.143497791	1.942748466	ND	ND	ND	ND	529.8	0
71794	2018-04-07T09:00:00	174.5	ND	ND	ND	3.261730307	8.24196319	ND	ND	ND	ND	648.1	0
71795	2018-04-07T10:00:00	136.9	ND	ND	ND	3.345364417	29.12160327	ND	ND	ND	ND	648.3	0
71796	2018-04-07T11:00:00	86.6	ND	ND	ND	2.174486871	50.00124335	ND	ND	ND	ND	648.5	0
71797	2018-04-07T12:00:00	55.9	ND	ND	ND	2.96901092	72.6470184	ND	ND	ND	ND	648.6	0
71798	2018-04-07T13:00:00	75.6	ND	ND	ND	3.010827975	67.66259305	ND	ND	ND	ND	648.6	0
71799	2018-04-07T14:00:00	99.2	ND	ND	ND	1.184816564	64.95451943	ND	ND	ND	ND	649.1	0
71800	2018-04-07T15:00:00	87.5	ND	ND	ND	1.993279632	70.11555828	ND	ND	ND	ND	624.3	0
71801	2018-04-07T16:00:00	41.5	ND	ND	ND	2.759925644	14.9728998	ND	ND	ND	ND	527.8	0
71802	2018-04-07T17:00:00	16.2	ND	ND	ND	2.96901092	12.61805317	ND	ND	ND	ND	568.3	0
71803	2018-04-07T18:00:00	19.4	ND	ND	ND	2.829620736	9.556752556	ND	ND	ND	ND	218.8	0
71804	2018-04-07T19:00:00	26.7	ND	ND	ND	2.049035706	9.792237219	ND	ND	ND	ND	9.3	0
71805	2018-04-07T20:00:00	24.5	ND	ND	ND	2.927193865	10.38094888	ND	ND	ND	ND	0.1	0
71806	2018-04-07T21:00:00	15.3	ND	ND	ND	2.648413497	6.98604499	ND	ND	ND	ND	0.1	0
71807	2018-04-07T22:00:00	27.3	ND	ND	ND	2.174486871	4.395713701	ND	ND	ND	ND	0.1	0
71808	2018-04-07T23:00:00	35.1	ND	ND	ND	3.958681227	5.21991002	ND	ND	ND	ND	0.1	0
71809	2018-04-08T00:00:00	42.4	ND	ND	ND	2.96901092	0.235484663	ND	ND	ND	ND	0.1	0
71810	2018-04-08T01:00:00	51.2	ND	ND	ND	2.035096687	0.117742331	ND	ND	ND	ND	0.1	0
71811	2018-04-08T02:00:00	49.9	ND	ND	ND	2.634474479	2.747321063	ND	ND	ND	ND	0.1	0
71812	2018-04-08T03:00:00	12.3	ND	ND	ND	1.65874319	4.748940695	ND	ND	ND	ND	0.1	0
71813	2018-04-08T04:00:00	25.5	ND	ND	ND	3.610205767	0.255108384	ND	ND	ND	ND	0.1	0
71814	2018-04-08T05:00:00	60.4	ND	ND	ND	3.164157178	1.2559182	ND	ND	ND	ND	0.1	0
71815	2018-04-08T06:00:00	39.9	ND	ND	ND	2.773864663	4.022862986	ND	ND	ND	ND	0.3	0
71816	2018-04-08T07:00:00	13.8	ND	ND	ND	2.787803681	1.569897751	ND	ND	ND	ND	54.5	0
71817	2018-04-08T08:00:00	54.3	ND	ND	ND	2.481145276	3.453775051	ND	ND	ND	ND	346.3	0
71818	2018-04-08T09:00:00	68.3	ND	ND	ND	2.676291534	11.55837219	ND	ND	ND	ND	634.4	0
71819	2018-04-08T10:00:00	57.2	ND	ND	ND	1.728438282	17.79871575	ND	ND	ND	ND	648.4	0
71820	2018-04-08T11:00:00	63.3	ND	ND	ND	3.610205767	40.4444908	ND	ND	ND	ND	648.8	0
71821	2018-04-08T12:00:00	63.8	ND	ND	ND	3.484754601	53.39614724	ND	ND	ND	ND	648.4	0
71822	2018-04-08T13:00:00	43.6	ND	ND	ND	3.484754601	60.49993456	ND	ND	ND	ND	639.3	0
71823	2018-04-08T14:00:00	47	ND	ND	ND	2.801742699	70.64539877	ND	ND	ND	ND	633.7	0
71824	2018-04-08T15:00:00	64.3	ND	ND	ND	3.219913252	63.65935378	ND	ND	ND	ND	498.1	0
71825	2018-04-08T16:00:00	30.5	ND	ND	ND	2.244181963	18.21081391	ND	ND	ND	ND	630.1	0
71826	2018-04-08T17:00:00	20.7	ND	ND	ND	3.484754601	16.03258078	ND	ND	ND	ND	629.6	0
71827	2018-04-08T18:00:00	20.3	ND	ND	ND	3.303547362	15.81671984	ND	ND	ND	ND	247	0
71828	2018-04-08T19:00:00	5.2	ND	ND	ND	3.442937546	14.38418814	ND	ND	ND	ND	5.9	0
71829	2018-04-08T20:00:00	15.4	ND	ND	ND	4.321095706	12.57880573	ND	ND	ND	ND	0.1	0
71830	2018-04-08T21:00:00	32.7	ND	ND	ND	3.387181472	7.92798364	ND	ND	ND	ND	0.1	0
71831	2018-04-08T22:00:00	26.7	ND	ND	ND	3.122340123	9.144654397	ND	ND	ND	ND	0.1	0
71832	2018-04-08T23:00:00	30	ND	ND	ND	2.202364908	8.143844581	ND	ND	ND	ND	0.1	0
71833	2018-04-09T00:00:00	31.7	ND	ND	ND	3.707778896	5.31802863	ND	ND	ND	ND	0.1	0
71834	2018-04-09T01:00:00	38.1	ND	ND	ND	1.965401595	1.511026585	ND	ND	ND	ND	0.1	0
71835	2018-04-09T02:00:00	40.2	ND	ND	ND	2.843559755	4.317218814	ND	ND	ND	ND	0.1	0
71836	2018-04-09T03:00:00	38.2	ND	ND	ND	3.066584049	5.200286299	ND	ND	ND	ND	0.1	0
71837	2018-04-09T04:00:00	29	ND	ND	ND	3.442937546	9.066159509	ND	ND	ND	ND	0.1	0
71838	2018-04-09T05:00:00	24.6	ND	ND	ND	4.167766503	2.001619632	ND	ND	ND	ND	0.1	0
71839	2018-04-09T06:00:00	66.8	ND	ND	ND	3.861108098	0.490593047	ND	ND	ND	ND	0.4	0
71840	2018-04-09T07:00:00	91.2	ND	ND	ND	2.53690135	0.686830266	ND	ND	ND	ND	101.3	0
71841	2018-04-09T08:00:00	72.8	ND	ND	ND	3.442937546	1.805382413	ND	ND	ND	ND	481.8	0
71842	2018-04-09T09:00:00	92.9	ND	ND	ND	3.052645031	9.164278119	ND	ND	ND	ND	622.4	0
71843	2018-04-09T10:00:00	72.9	ND	ND	ND	3.275669325	27.51245808	ND	ND	ND	ND	648.3	0
71844	2018-04-09T11:00:00	85.3	ND	ND	ND	2.718108589	41.5237955	ND	ND	ND	ND	648.4	0
71845	2018-04-09T12:00:00	90.9	ND	ND	ND	3.707778896	56.73217996	ND	ND	ND	ND	648.5	0
71846	2018-04-09T13:00:00	85.4	ND	ND	ND	2.718108589	72.62739468	ND	ND	ND	ND	648.1	0
71847	2018-04-09T14:00:00	69.9	ND	ND	ND	2.955071902	55.14265849	ND	ND	ND	ND	649	0
71848	2018-04-09T15:00:00	42.4	ND	ND	ND	1.366023804	17.28849898	ND	ND	ND	ND	609.6	0
71849	2018-04-09T16:00:00	18.6	ND	ND	ND	2.759925644	13.04977505	ND	ND	ND	ND	381.3	0
71850	2018-04-09T17:00:00	42.7	ND	ND	ND	2.216303926	12.46106339	ND	ND	ND	ND	19.9	28.45
71851	2018-04-09T18:00:00	29.7	ND	ND	ND	2.648413497	6.181472393	ND	ND	ND	ND	30.6	2.03
71852	2018-04-09T19:00:00	42.4	ND	ND	ND	2.383572147	6.515075665	ND	ND	ND	ND	2.1	0.25
71853	2018-04-09T20:00:00	19	ND	ND	ND	3.331425399	4.611574642	ND	ND	ND	ND	0.1	2.03
71854	2018-04-09T21:00:00	14.9	ND	ND	ND	3.192035215	2.452965235	ND	ND	ND	ND	0.1	3.05
71855	2018-04-09T22:00:00	19.3	ND	ND	ND	2.35569411	2.590331288	ND	ND	ND	ND	0.1	0.25
71856	2018-04-09T23:00:00	18.4	ND	ND	ND	2.411450184	5.690879346	ND	ND	ND	ND	0.1	0
71857	2018-04-10T00:00:00	11	ND	ND	ND	2.453267239	3.865873211	ND	ND	ND	ND	0.1	0
71858	2018-04-10T01:00:00	20.8	ND	ND	ND	3.066584049	4.434961145	ND	ND	ND	ND	0.1	0
71859	2018-04-10T02:00:00	27.2	ND	ND	ND	2.550840368	1.020433538	ND	ND	ND	ND	0.1	0
71860	2018-04-10T03:00:00	40.1	ND	ND	ND	3.164157178	1.373660532	ND	ND	ND	ND	0.1	0
71861	2018-04-10T04:00:00	22.6	ND	ND	ND	1.993279632	1.079304703	ND	ND	ND	ND	0.1	0
71862	2018-04-10T05:00:00	29.3	ND	ND	ND	3.108401104	0.451345603	ND	ND	ND	ND	0.1	0
71863	2018-04-10T06:00:00	47.9	ND	ND	ND	1.533292025	0.078494888	ND	ND	ND	ND	0.1	0.76
71864	2018-04-10T07:00:00	64.1	ND	ND	ND	2.871437791	0.039247444	ND	ND	ND	ND	38.6	1.78
71865	2018-04-10T08:00:00	46.9	ND	ND	ND	2.801742699	0.156989775	ND	ND	ND	ND	214.8	0.76
71866	2018-04-10T09:00:00	43.2	ND	ND	ND	3.247791288	0.490593047	ND	ND	ND	ND	473	0.25
71867	2018-04-10T10:00:00	47.2	ND	ND	ND	1.031487362	78.59300613	ND	ND	ND	ND	648.3	0.25
71868	2018-04-10T11:00:00	52.4	ND	ND	ND	ND	28.08154601	ND	ND	ND	ND	648.3	0
71869	2018-04-10T12:00:00	66.4	ND	ND	ND	1.22663362	42.26949693	ND	ND	ND	ND	649	0
71870	2018-04-10T13:00:00	85.9	ND	ND	ND	1.826011411	75.13923108	ND	ND	ND	ND	545.6	0
71871	2018-04-10T14:00:00	69.8	ND	ND	ND	3.23385227	23.1363681	ND	ND	ND	ND	220.4	4.57
71872	2018-04-10T15:00:00	11.4	ND	ND	ND	1.017548344	9.242773006	ND	ND	ND	ND	496.9	0
71873	2018-04-10T16:00:00	34.6	ND	ND	ND	0.641194847	10.91078937	ND	ND	ND	ND	569.4	0
71874	2018-04-10T17:00:00	62.3	ND	ND	ND	1.31026773	13.3637546	ND	ND	ND	ND	363.4	0
71875	2018-04-10T18:00:00	35.7	ND	ND	ND	0.850280123	8.497071575	ND	ND	ND	ND	119.6	0
71876	2018-04-10T19:00:00	35.9	ND	ND	ND	0.515743681	1.04005726	ND	ND	ND	ND	4.2	0
71877	2018-04-10T20:00:00	58.9	ND	ND	ND	0.390292515	5.376899796	ND	ND	ND	ND	0	0
71878	2018-04-10T21:00:00	50.1	ND	ND	ND	1.65874319	1.000809816	ND	ND	ND	ND	0	0
71879	2018-04-10T22:00:00	51.3	ND	ND	ND	1.324206748	0.667206544	ND	ND	ND	ND	0	0
71880	2018-04-10T23:00:00	55.2	ND	ND	ND	2.118730798	1.844629857	ND	ND	ND	ND	0	0
71881	2018-04-11T00:00:00	57.9	ND	ND	ND	2.648413497	2.492212679	ND	ND	ND	ND	0	0
71882	2018-04-11T01:00:00	63.2	ND	ND	ND	2.453267239	3.532269939	ND	ND	ND	ND	0	0
71883	2018-04-11T02:00:00	59.3	ND	ND	ND	1.630865153	3.296785276	ND	ND	ND	ND	0	0
71884	2018-04-11T03:00:00	46.9	ND	ND	ND	2.453267239	2.629578732	ND	ND	ND	ND	0	0.25
71885	2018-04-11T04:00:00	50.7	ND	ND	ND	2.941132883	1.766134969	ND	ND	ND	ND	0	0
71886	2018-04-11T05:00:00	48.7	ND	ND	ND	1.505413988	0.647582822	ND	ND	ND	ND	0	0
71887	2018-04-11T06:00:00	27.5	ND	ND	ND	2.397511166	3.532269939	ND	ND	ND	ND	0	0
71888	2018-04-11T07:00:00	14.2	ND	ND	ND	2.090852761	1.314789366	ND	ND	ND	ND	11.6	0.51
71889	2018-04-11T08:00:00	19.3	ND	ND	ND	2.258120982	0.883067485	ND	ND	ND	ND	124.3	0
71890	2018-04-11T09:00:00	45.6	ND	ND	ND	1.92358454	1.511026585	ND	ND	ND	ND	406.7	0.25
71891	2018-04-11T10:00:00	66	ND	ND	ND	1.92358454	8.104597137	ND	ND	ND	ND	648.2	0
71892	2018-04-11T11:00:00	88.2	ND	ND	ND	1.463596933	28.74875256	ND	ND	ND	ND	648.5	0
71893	2018-04-11T12:00:00	88.5	ND	ND	ND	0.459987607	41.60229039	ND	ND	ND	ND	648.7	0
71894	2018-04-11T13:00:00	68.6	ND	ND	ND	2.35569411	50.86468712	ND	ND	ND	ND	649	0
71895	2018-04-11T14:00:00	52.9	ND	ND	ND	1.547231043	39.20819632	ND	ND	ND	ND	649.2	0
71896	2018-04-11T15:00:00	61.6	ND	ND	ND	0.780585031	40.81734151	ND	ND	ND	ND	648.6	0
71897	2018-04-11T16:00:00	61.5	ND	ND	ND	0.223024294	33.10521881	ND	ND	ND	ND	648.9	0
71898	2018-04-11T17:00:00	40.5	ND	ND	ND	1.04542638	21.19361963	ND	ND	ND	ND	568	0
71899	2018-04-11T18:00:00	41.9	ND	ND	ND	0.543621718	11.3032638	ND	ND	ND	ND	53.7	75.44
71900	2018-04-11T19:00:00	9	ND	ND	ND	0.766646012	5.769374233	ND	ND	ND	ND	0	25.65
71901	2018-04-11T20:00:00	18.5	ND	ND	ND	1.589048098	1.511026585	ND	ND	ND	ND	0	0.25
71902	2018-04-11T21:00:00	34.1	ND	ND	ND	2.146608834	0.588711656	ND	ND	ND	ND	0	0.25
71903	2018-04-11T22:00:00	32.2	ND	ND	ND	0.850280123	0.451345603	ND	ND	ND	ND	0	0
71904	2018-04-11T23:00:00	31.6	ND	ND	ND	1.812072393	1.098928425	ND	ND	ND	ND	0	0
71905	2018-04-12T00:00:00	19	ND	ND	ND	1.92358454	0.647582822	ND	ND	ND	ND	0	0
71906	2018-04-12T01:00:00	37.8	ND	ND	ND	3.721717914	0.745701431	ND	ND	ND	ND	0	0
71907	2018-04-12T02:00:00	43.2	ND	ND	ND	0.933914233	0.981186094	ND	ND	ND	ND	0	0
71908	2018-04-12T03:00:00	37.7	ND	ND	ND	2.021157669	0.569087935	ND	ND	ND	ND	0	0
71909	2018-04-12T04:00:00	38.3	ND	ND	ND	1.379962822	0.510216769	ND	ND	ND	ND	0	0
71910	2018-04-12T05:00:00	54.1	ND	ND	ND	2.843559755	0.529840491	ND	ND	ND	ND	0	0
71911	2018-04-12T06:00:00	62.4	ND	ND	ND	2.132669816	0.490593047	ND	ND	ND	ND	0	0
71912	2018-04-12T07:00:00	88.4	ND	ND	ND	2.495084294	0.431721881	ND	ND	ND	ND	10.7	4.32
71913	2018-04-12T08:00:00	48.1	ND	ND	ND	1.993279632	0.490593047	ND	ND	ND	ND	77	7.62
71914	2018-04-12T09:00:00	37.7	ND	ND	ND	1.979340613	0.569087935	ND	ND	ND	ND	183.4	2.29
71915	2018-04-12T10:00:00	25.3	ND	ND	ND	1.156938528	1.157799591	ND	ND	ND	ND	431.1	0.25
71916	2018-04-12T11:00:00	43.9	ND	ND	ND	1.895706503	9.066159509	ND	ND	ND	ND	648.4	0
71917	2018-04-12T12:00:00	56.9	ND	ND	ND	2.313877055	28.14041718	ND	ND	ND	ND	648.5	0
71918	2018-04-12T13:00:00	44.8	ND	ND	ND	1.477535951	46.35123108	ND	ND	ND	ND	649	0
71919	2018-04-12T14:00:00	39.9	ND	ND	ND	1.407840859	56.10422086	ND	ND	ND	ND	649.3	0
71920	2018-04-12T15:00:00	47.9	ND	ND	ND	1.059365399	75.86530879	ND	ND	ND	ND	644.8	0
71921	2018-04-12T16:00:00	67.1	ND	ND	ND	1.39390184	74.92337014	ND	ND	ND	ND	594.9	0
71922	2018-04-12T17:00:00	74.4	ND	ND	ND	0.808463067	65.9160818	ND	ND	ND	ND	453.8	0
71923	2018-04-12T18:00:00	83.6	ND	ND	ND	3.066584049	23.35222904	ND	ND	ND	ND	145.5	0
71924	2018-04-12T19:00:00	111.1	ND	ND	ND	1.268450675	4.101357873	ND	ND	ND	ND	5.3	0
71925	2018-04-12T20:00:00	136.9	ND	ND	ND	2.411450184	1.2559182	ND	ND	ND	ND	0	0
71926	2018-04-12T21:00:00	92.8	ND	ND	ND	1.198755583	2.60995501	ND	ND	ND	ND	0	0
71927	2018-04-12T22:00:00	58.4	ND	ND	ND	1.435718896	6.534699387	ND	ND	ND	ND	0	0
71928	2018-04-12T23:00:00	32.7	ND	ND	ND	0.362414479	2.531460123	ND	ND	ND	ND	0	0
71929	2018-04-13T00:00:00	67	ND	ND	ND	3.164157178	0.588711656	ND	ND	ND	ND	0	0
71930	2018-04-13T01:00:00	61.7	ND	ND	ND	0.724828957	0.549464213	ND	ND	ND	ND	0	0
71931	2018-04-13T02:00:00	43.9	ND	ND	ND	1.003609325	0.588711656	ND	ND	ND	ND	0	0
71932	2018-04-13T03:00:00	39.4	ND	ND	ND	0.724828957	1.020433538	ND	ND	ND	ND	0	0
71933	2018-04-13T04:00:00	28.5	ND	ND	ND	1.616926135	4.768564417	ND	ND	ND	ND	0	0
71934	2018-04-13T05:00:00	12.4	ND	ND	ND	1.212694601	3.453775051	ND	ND	ND	ND	0	0
71935	2018-04-13T06:00:00	43.1	ND	ND	ND	0.69695092	1.157799591	ND	ND	ND	ND	0	0
71936	2018-04-13T07:00:00	117.3	ND	ND	ND	1.240572638	0.647582822	ND	ND	ND	ND	37.7	0
71937	2018-04-13T08:00:00	121.8	ND	ND	ND	1.39390184	1.059680982	ND	ND	ND	ND	195.3	0
71938	2018-04-13T09:00:00	168.5	ND	ND	ND	1.57510908	2.629578732	ND	ND	ND	ND	557.3	0
71939	2018-04-13T10:00:00	159.1	ND	ND	ND	2.174486871	11.12665031	ND	ND	ND	ND	538.9	0
71940	2018-04-13T11:00:00	79.5	ND	ND	ND	2.230242945	39.87540286	ND	ND	ND	ND	648.7	0
71941	2018-04-13T12:00:00	72	ND	ND	ND	1.700560245	60.44106339	ND	ND	ND	ND	649.4	0
71942	2018-04-13T13:00:00	66.3	ND	ND	ND	1.630865153	58.59643354	ND	ND	ND	ND	619.3	0
71943	2018-04-13T14:00:00	66.9	ND	ND	ND	1.352084785	51.21791411	ND	ND	ND	ND	649.6	0
71944	2018-04-13T15:00:00	48.3	ND	ND	ND	1.087243436	21.64496524	ND	ND	ND	ND	648.6	0
71945	2018-04-13T16:00:00	37.7	ND	ND	ND	2.244181963	15.32612679	ND	ND	ND	ND	650.4	0
71946	2018-04-13T17:00:00	25.1	ND	ND	ND	ND	13.9917137	ND	ND	ND	ND	615.9	0
71947	2018-04-13T18:00:00	22.5	ND	ND	ND	0.334536442	10.06696933	ND	ND	ND	ND	131.9	0
71948	2018-04-13T19:00:00	21.1	ND	ND	ND	1.979340613	12.36294479	ND	ND	ND	ND	0	0
71949	2018-04-13T20:00:00	39	ND	ND	ND	1.784194356	5.94598773	ND	ND	ND	ND	0	0
71950	2018-04-13T21:00:00	25.8	ND	ND	ND	0.627255828	5.278781186	ND	ND	ND	ND	0	0
71951	2018-04-13T22:00:00	29.9	ND	ND	ND	2.397511166	6.750560327	ND	ND	ND	ND	0	0
71952	2018-04-13T23:00:00	33.6	ND	ND	ND	1.993279632	6.318838446	ND	ND	ND	ND	0	6.6
71953	2018-04-14T00:00:00	21.6	ND	ND	ND	0.87815816	2.747321063	ND	ND	ND	ND	0	5.59
71954	2018-04-14T01:00:00	28.5	ND	ND	ND	2.578718405	2.119361963	ND	ND	ND	ND	0	0.25
71955	2018-04-14T02:00:00	28.2	ND	ND	ND	2.787803681	4.27797137	ND	ND	ND	ND	0	0.51
71956	2018-04-14T03:00:00	20.8	ND	ND	ND	1.839950429	5.102167689	ND	ND	ND	ND	0	3.05
71957	2018-04-14T04:00:00	13.8	ND	ND	ND	1.31026773	3.807002045	ND	ND	ND	ND	0	1.02
71958	2018-04-14T05:00:00	23.2	ND	ND	ND	1.700560245	1.687640082	ND	ND	ND	ND	0	0.51
71959	2018-04-14T06:00:00	21.7	ND	ND	ND	1.630865153	0.72607771	ND	ND	ND	ND	0	0
71960	2018-04-14T07:00:00	29.8	ND	ND	ND	1.170877546	0.529840491	ND	ND	ND	ND	60.6	0
71961	2018-04-14T08:00:00	41	ND	ND	ND	0.766646012	0.686830266	ND	ND	ND	ND	195.1	0
71962	2018-04-14T09:00:00	62	ND	ND	ND	1.589048098	1.157799591	ND	ND	ND	ND	293.8	0
71963	2018-04-14T10:00:00	89.4	ND	ND	ND	1.282389693	2.492212679	ND	ND	ND	ND	518.2	0
71964	2018-04-14T11:00:00	70.6	ND	ND	ND	1.184816564	18.79952556	ND	ND	ND	ND	648.7	0
71965	2018-04-14T12:00:00	70.5	ND	ND	ND	0.752706994	47.86225767	ND	ND	ND	ND	648.3	0
71966	2018-04-14T13:00:00	50.7	ND	ND	ND	1.909645521	55.67249898	ND	ND	ND	ND	649.5	0
71967	2018-04-14T14:00:00	58.3	ND	ND	ND	1.937523558	34.67511656	ND	ND	ND	ND	649.5	0
71968	2018-04-14T15:00:00	44.5	ND	ND	ND	0.710889939	64.01258078	ND	ND	ND	ND	649.8	0
71969	2018-04-14T16:00:00	54.3	ND	ND	ND	2.481145276	57.34051534	ND	ND	ND	ND	644.6	0
71970	2018-04-14T17:00:00	46.2	ND	ND	ND	1.672682209	42.28912065	ND	ND	ND	ND	561.8	0
71971	2018-04-14T18:00:00	55.2	ND	ND	ND	0.627255828	20.68340286	ND	ND	ND	ND	143.5	0
71972	2018-04-14T19:00:00	51.6	ND	ND	ND	2.021157669	25.25573006	ND	ND	ND	ND	0	0
71973	2018-04-14T20:00:00	56	ND	ND	ND	0.933914233	8.693308793	ND	ND	ND	ND	0	0
71974	2018-04-14T21:00:00	53.2	ND	ND	ND	1.449657914	4.788188139	ND	ND	ND	ND	0	0
71975	2018-04-14T22:00:00	37.8	ND	ND	ND	1.909645521	2.865063395	ND	ND	ND	ND	0	0
71976	2018-04-14T23:00:00	52.3	ND	ND	ND	1.784194356	2.727697342	ND	ND	ND	ND	0	0
71977	2018-04-15T00:00:00	45.1	ND	ND	ND	1.31026773	5.357276074	ND	ND	ND	ND	0	0
71978	2018-04-15T01:00:00	21.9	ND	ND	ND	1.672682209	7.064539877	ND	ND	ND	ND	0	0
71979	2018-04-15T02:00:00	41.3	ND	ND	ND	1.672682209	3.257537832	ND	ND	ND	ND	0	0
71980	2018-04-15T03:00:00	58.3	ND	ND	ND	2.509023313	0.765325153	ND	ND	ND	ND	0	0
71981	2018-04-15T04:00:00	60.1	ND	ND	ND	2.244181963	0.549464213	ND	ND	ND	ND	0	0
71982	2018-04-15T05:00:00	66.8	ND	ND	ND	2.090852761	0.549464213	ND	ND	ND	ND	0	0
71983	2018-04-15T06:00:00	60.3	ND	ND	ND	0.627255828	1.589521472	ND	ND	ND	ND	0	0
71984	2018-04-15T07:00:00	43.9	ND	ND	ND	1.881767485	1.314789366	ND	ND	ND	ND	72.1	0
71985	2018-04-15T08:00:00	60.3	ND	ND	ND	1.352084785	1.511026585	ND	ND	ND	ND	272.1	0
71986	2018-04-15T09:00:00	90.1	ND	ND	ND	1.672682209	7.241153374	ND	ND	ND	ND	541.8	0
71987	2018-04-15T10:00:00	78.8	ND	ND	ND	1.895706503	22.44953783	ND	ND	ND	ND	648.5	0
71988	2018-04-15T11:00:00	61.4	ND	ND	ND	2.035096687	40.15013497	ND	ND	ND	ND	649.1	0
71989	2018-04-15T12:00:00	66.9	ND	ND	ND	1.170877546	53.84749284	ND	ND	ND	ND	637.6	0
71990	2018-04-15T13:00:00	92.6	ND	ND	ND	1.491474969	63.54161145	ND	ND	ND	ND	645.2	0
71991	2018-04-15T14:00:00	70	ND	ND	ND	2.216303926	75.43358691	ND	ND	ND	ND	649.9	0
71992	2018-04-15T15:00:00	64.9	ND	ND	ND	1.784194356	76.43439673	ND	ND	ND	ND	650.2	0
71993	2018-04-15T16:00:00	47.3	ND	ND	ND	2.244181963	32.06516155	ND	ND	ND	ND	642.7	0
71994	2018-04-15T17:00:00	13.4	ND	ND	ND	0.195146258	23.39147648	ND	ND	ND	ND	571.6	0
71995	2018-04-15T18:00:00	18.2	ND	ND	ND	1.366023804	20.4479182	ND	ND	ND	ND	140.3	0
71996	2018-04-15T19:00:00	15.3	ND	ND	ND	1.644804172	15.83634356	ND	ND	ND	ND	4.9	0
71997	2018-04-15T20:00:00	4.8	ND	ND	ND	2.690230552	12.99090389	ND	ND	ND	ND	0	0
71998	2018-04-15T21:00:00	26.8	ND	ND	ND	2.606596442	1.66801636	ND	ND	ND	ND	0	0
71999	2018-04-15T22:00:00	47.6	ND	ND	ND	0.989670307	6.927173824	ND	ND	ND	ND	0	0
72000	2018-04-15T23:00:00	33.5	ND	ND	ND	1.338145767	10.32207771	ND	ND	ND	ND	0	0
72001	2018-04-16T00:00:00	24.8	ND	ND	ND	1.965401595	2.276351738	ND	ND	ND	ND	0	0
72002	2018-04-16T01:00:00	46.5	ND	ND	ND	1.101182454	2.511836401	ND	ND	ND	ND	0	0
72003	2018-04-16T02:00:00	40.6	ND	ND	ND	2.146608834	5.121791411	ND	ND	ND	ND	0	0
72004	2018-04-16T03:00:00	27.4	ND	ND	ND	1.630865153	3.905120654	ND	ND	ND	ND	0	0
72005	2018-04-16T04:00:00	29.2	ND	ND	ND	1.129060491	1.373660532	ND	ND	ND	ND	0	0
72006	2018-04-16T05:00:00	24.7	ND	ND	ND	1.895706503	3.100548057	ND	ND	ND	ND	0	0
72007	2018-04-16T06:00:00	24.5	ND	ND	ND	1.073304417	1.491402863	ND	ND	ND	ND	0	0
72008	2018-04-16T07:00:00	30.6	ND	ND	ND	1.672682209	0.981186094	ND	ND	ND	ND	106	0
72009	2018-04-16T08:00:00	89.4	ND	ND	ND	1.184816564	3.179042945	ND	ND	ND	ND	471.2	0
72010	2018-04-16T09:00:00	85.3	ND	ND	ND	0.933914233	12.53955828	ND	ND	ND	ND	599.2	0
72011	2018-04-16T10:00:00	60.9	ND	ND	ND	1.463596933	28.14041718	ND	ND	ND	ND	646.7	0
72012	2018-04-16T11:00:00	87.3	ND	ND	ND	1.031487362	50.27597546	ND	ND	ND	ND	648.8	0
72013	2018-04-16T12:00:00	78.7	ND	ND	ND	1.184816564	68.15318609	ND	ND	ND	ND	649.4	0
72014	2018-04-16T13:00:00	81.2	ND	ND	ND	1.561170061	68.23168098	ND	ND	ND	ND	648.2	0
72015	2018-04-16T14:00:00	61.3	ND	ND	ND	1.04542638	24.64739468	ND	ND	ND	ND	649.8	0
72016	2018-04-16T15:00:00	30	ND	ND	ND	2.049035706	16.6801636	ND	ND	ND	ND	649.7	0
72017	2018-04-16T16:00:00	36.8	ND	ND	ND	0.919975215	13.63848671	ND	ND	ND	ND	540.6	0
72018	2018-04-16T17:00:00	30.1	ND	ND	ND	2.174486871	13.5403681	ND	ND	ND	ND	501.9	0
72019	2018-04-16T18:00:00	24	ND	ND	ND	1.672682209	6.083353783	ND	ND	ND	ND	96	0
72020	2018-04-16T19:00:00	49.3	ND	ND	ND	1.728438282	5.671255624	ND	ND	ND	ND	0	0
72021	2018-04-16T20:00:00	41.5	ND	ND	ND	2.759925644	4.533079755	ND	ND	ND	ND	0	0
72022	2018-04-16T21:00:00	50.6	ND	ND	ND	1.31026773	2.60995501	ND	ND	ND	ND	0	0
72023	2018-04-16T22:00:00	57.9	ND	ND	ND	2.27206	1.491402863	ND	ND	ND	ND	0	0
72024	2018-04-16T23:00:00	51.2	ND	ND	ND	1.65874319	0.686830266	ND	ND	ND	ND	0	0
72025	2018-04-17T00:00:00	62	ND	ND	ND	1.198755583	0.94193865	ND	ND	ND	ND	0	0
72026	2018-04-17T01:00:00	119.2	ND	ND	ND	2.090852761	1.766134969	ND	ND	ND	ND	0	0
72027	2018-04-17T02:00:00	80.4	ND	ND	ND	1.22663362	1.373660532	ND	ND	ND	ND	0	0
72028	2018-04-17T03:00:00	50.4	ND	ND	ND	2.732047607	0.804572597	ND	ND	ND	ND	0	0
72029	2018-04-17T04:00:00	36.2	ND	ND	ND	1.65874319	3.532269939	ND	ND	ND	ND	0	0
72030	2018-04-17T05:00:00	24	ND	ND	ND	1.561170061	2.766944785	ND	ND	ND	ND	0	0
72031	2018-04-17T06:00:00	54.1	ND	ND	ND	3.373242454	0.667206544	ND	ND	ND	ND	0	0
72032	2018-04-17T07:00:00	78.4	ND	ND	ND	2.425389202	0.784948875	ND	ND	ND	ND	144	0
72033	2018-04-17T08:00:00	98.9	ND	ND	ND	3.052645031	1.66801636	ND	ND	ND	ND	359.3	0
72034	2018-04-17T09:00:00	103.2	ND	ND	ND	2.035096687	5.612384458	ND	ND	ND	ND	599.5	0
72035	2018-04-17T10:00:00	Invalido	ND	ND	ND	2.18842589	15.2476319	ND	ND	ND	ND	648.5	0
72036	2018-04-17T11:00:00	Invalido	ND	ND	ND	1.087243436	28.55251534	ND	ND	ND	ND	649.1	0
72037	2018-04-17T12:00:00	166.2	ND	ND	ND	0.209085276	37.38319018	ND	ND	ND	ND	649.7	0
72038	2018-04-17T13:00:00	79.5	ND	ND	ND	1.798133374	45.40929243	ND	ND	ND	ND	649.6	0
72039	2018-04-17T14:00:00	63.4	ND	ND	ND	0.822402086	47.96037628	ND	ND	ND	ND	533.2	0
72040	2018-04-17T15:00:00	58.9	ND	ND	ND	ND	26.51164826	ND	ND	ND	ND	141.6	0
72041	2018-04-17T16:00:00	63.2	ND	ND	ND	1.324206748	16.38580777	ND	ND	ND	ND	28.3	42.93
72042	2018-04-17T17:00:00	20.1	ND	ND	ND	0.69695092	4.866683027	ND	ND	ND	ND	37.7	9.65
72043	2018-04-17T18:00:00	58.2	ND	ND	ND	0.864219141	0.804572597	ND	ND	ND	ND	18.8	0.51
72044	2018-04-17T19:00:00	66.1	ND	ND	ND	0.808463067	0.72607771	ND	ND	ND	ND	0	0.76
72045	2018-04-17T20:00:00	56.2	ND	ND	ND	1.839950429	0.843820041	ND	ND	ND	ND	0	0.25
72046	2018-04-17T21:00:00	77.6	ND	ND	ND	3.58232773	0.706453988	ND	ND	ND	ND	0	0
72047	2018-04-17T22:00:00	70.4	ND	ND	ND	2.18842589	0.392474438	ND	ND	ND	ND	0	0
72048	2018-04-17T23:00:00	42.7	ND	ND	ND	1.101182454	0.549464213	ND	ND	ND	ND	0	0
72049	2018-04-18T00:00:00	34.2	ND	ND	ND	ND	0.647582822	ND	ND	ND	ND	0	0
72050	2018-04-18T01:00:00	24.1	ND	ND	ND	0.752706994	1.275541922	ND	ND	ND	ND	0	0
72051	2018-04-18T02:00:00	41.2	ND	ND	ND	2.648413497	0.745701431	ND	ND	ND	ND	0	0
72052	2018-04-18T03:00:00	50.8	ND	ND	ND	1.087243436	0.784948875	ND	ND	ND	ND	0	0
72053	2018-04-18T04:00:00	69.3	ND	ND	ND	2.509023313	0.922314928	ND	ND	ND	ND	0	0
72054	2018-04-18T05:00:00	64.6	ND	ND	ND	2.509023313	0.72607771	ND	ND	ND	ND	0	0
72055	2018-04-18T06:00:00	51.2	ND	ND	ND	0.822402086	0.745701431	ND	ND	ND	ND	0	0
72056	2018-04-18T07:00:00	73.7	ND	ND	ND	0.892097178	0.72607771	ND	ND	ND	ND	118	0
72057	2018-04-18T08:00:00	104.9	ND	ND	ND	0.794524049	0.981186094	ND	ND	ND	ND	324.4	0
72058	2018-04-18T09:00:00	119.5	ND	ND	ND	2.53690135	2.413717791	ND	ND	ND	ND	598.5	0
72059	2018-04-18T10:00:00	98.9	ND	ND	ND	1.282389693	14.77666258	ND	ND	ND	ND	648.3	0
72060	2018-04-18T11:00:00	90.4	ND	ND	ND	0.710889939	36.30388548	ND	ND	ND	ND	649.2	0
72061	2018-04-18T12:00:00	93.3	ND	ND	ND	1.04542638	40.48373824	ND	ND	ND	ND	648.9	0
72062	2018-04-18T13:00:00	66	ND	ND	ND	0.069695092	55.55475665	ND	ND	ND	ND	646.6	0
72063	2018-04-18T14:00:00	70.4	ND	ND	ND	1.324206748	63.97333333	ND	ND	ND	ND	649.1	0
72064	2018-04-18T15:00:00	76	ND	ND	ND	0.627255828	51.33565644	ND	ND	ND	ND	649.6	0
72065	2018-04-18T16:00:00	86.1	ND	ND	ND	1.839950429	48.66683027	ND	ND	ND	ND	623.8	0
72066	2018-04-18T17:00:00	69.3	ND	ND	ND	1.129060491	59.44025358	ND	ND	ND	ND	512.7	0
72067	2018-04-18T18:00:00	62.9	ND	ND	ND	1.533292025	29.12160327	ND	ND	ND	ND	225	0
72068	2018-04-18T19:00:00	50.2	ND	ND	ND	0.655133865	9.811860941	ND	ND	ND	ND	4.6	0
72069	2018-04-18T20:00:00	48.4	ND	ND	ND	1.65874319	6.593570552	ND	ND	ND	ND	0	0
72070	2018-04-18T21:00:00	42.1	ND	ND	ND	0.473926626	6.829055215	ND	ND	ND	ND	0	0
72071	2018-04-18T22:00:00	42.3	ND	ND	ND	1.547231043	3.944368098	ND	ND	ND	ND	0	0
72072	2018-04-18T23:00:00	49	ND	ND	ND	0.989670307	1.373660532	ND	ND	ND	ND	0	0
72073	2018-04-19T00:00:00	43.2	ND	ND	ND	2.341755092	2.511836401	ND	ND	ND	ND	0	0
72074	2018-04-19T01:00:00	59.3	ND	ND	ND	2.104791779	1.000809816	ND	ND	ND	ND	0	0
72075	2018-04-19T02:00:00	67.2	ND	ND	ND	1.672682209	1.491402863	ND	ND	ND	ND	0	0
72076	2018-04-19T03:00:00	72.7	ND	ND	ND	1.184816564	3.493022495	ND	ND	ND	ND	0	0
72077	2018-04-19T04:00:00	58.6	ND	ND	ND	1.602987117	3.23791411	ND	ND	ND	ND	0	0
72078	2018-04-19T05:00:00	54.5	ND	ND	ND	1.505413988	1.35403681	ND	ND	ND	ND	0	0
72079	2018-04-19T06:00:00	75.2	ND	ND	ND	3.554449693	1.020433538	ND	ND	ND	ND	0	0
72080	2018-04-19T07:00:00	133.7	ND	ND	ND	2.244181963	1.236294479	ND	ND	ND	ND	63.4	0
72081	2018-04-19T08:00:00	164.7	ND	ND	ND	2.648413497	1.530650307	ND	ND	ND	ND	360.8	0
72082	2018-04-19T09:00:00	148.1	ND	ND	ND	1.784194356	5.730126789	ND	ND	ND	ND	613.7	0
72083	2018-04-19T10:00:00	128	ND	ND	ND	1.784194356	19.50597955	ND	ND	ND	ND	639.4	0
72084	2018-04-19T11:00:00	107	ND	ND	ND	2.146608834	42.9563272	ND	ND	ND	ND	648.6	0
72085	2018-04-19T12:00:00	94.9	ND	ND	ND	1.115121472	59.6364908	ND	ND	ND	ND	649.3	0
72086	2018-04-19T13:00:00	91.6	ND	ND	ND	0.278780368	75.61020041	ND	ND	ND	ND	649.6	0
72087	2018-04-19T14:00:00	83.2	ND	ND	ND	ND	66.77952556	ND	ND	ND	ND	650	0
72088	2018-04-19T15:00:00	76.9	ND	ND	ND	2.648413497	48.17623722	ND	ND	ND	ND	518.5	0
72089	2018-04-19T16:00:00	84	ND	ND	ND	0.892097178	31.28021268	ND	ND	ND	ND	268.9	0
72090	2018-04-19T17:00:00	87.7	ND	ND	ND	1.059365399	18.07344785	ND	ND	ND	ND	183	0
72091	2018-04-19T18:00:00	64.2	ND	ND	ND	0.892097178	15.22800818	ND	ND	ND	ND	23.7	0
72092	2018-04-19T19:00:00	44.3	ND	ND	ND	0.947853252	12.93203272	ND	ND	ND	ND	0	0
72093	2018-04-19T20:00:00	30	ND	ND	ND	1.979340613	5.612384458	ND	ND	ND	ND	0	0
72094	2018-04-19T21:00:00	28	ND	ND	ND	2.021157669	2.688449898	ND	ND	ND	ND	0	3.3
72095	2018-04-19T22:00:00	17.3	ND	ND	ND	ND	0.804572597	ND	ND	ND	ND	0	0
72096	2018-04-19T23:00:00	14.3	ND	ND	ND	0.26484135	1.000809816	ND	ND	ND	ND	0	0.25
72097	2018-04-20T00:00:00	33.4	ND	ND	ND	2.453267239	0.804572597	ND	ND	ND	ND	0	0
72098	2018-04-20T01:00:00	46.1	ND	ND	ND	2.550840368	2.001619632	ND	ND	ND	ND	0	1.02
72099	2018-04-20T02:00:00	36.8	ND	ND	ND	1.268450675	0.510216769	ND	ND	ND	ND	0	0.25
72100	2018-04-20T03:00:00	21.4	ND	ND	ND	0.181207239	0.588711656	ND	ND	ND	ND	0	0
72101	2018-04-20T04:00:00	19.8	ND	ND	ND	0.919975215	0.529840491	ND	ND	ND	ND	0	0.25
72102	2018-04-20T05:00:00	21.7	ND	ND	ND	1.421779877	0.549464213	ND	ND	ND	ND	0	0
72103	2018-04-20T06:00:00	45.5	ND	ND	ND	3.512632638	0.490593047	ND	ND	ND	ND	0	0
72104	2018-04-20T07:00:00	60.1	ND	ND	ND	1.602987117	0.72607771	ND	ND	ND	ND	88.4	0
72105	2018-04-20T08:00:00	82.2	ND	ND	ND	1.589048098	0.745701431	ND	ND	ND	ND	233.1	0
72106	2018-04-20T09:00:00	109.2	ND	ND	ND	2.104791779	1.000809816	ND	ND	ND	ND	273.4	0
72107	2018-04-20T10:00:00	122.6	ND	ND	ND	1.533292025	1.197047035	ND	ND	ND	ND	407.3	0
72108	2018-04-20T11:00:00	133.4	ND	ND	ND	1.65874319	10.08659305	ND	ND	ND	ND	638.4	0
72109	2018-04-20T12:00:00	116.3	ND	ND	ND	0.96179227	28.43477301	ND	ND	ND	ND	649	0
72110	2018-04-20T13:00:00	82.4	ND	ND	ND	1.519353006	26.94337014	ND	ND	ND	ND	648.9	0
72111	2018-04-20T14:00:00	56.8	ND	ND	ND	0.529682699	25.03986912	ND	ND	ND	ND	648.9	0
72112	2018-04-20T15:00:00	49.9	ND	ND	ND	1.115121472	21.90007362	ND	ND	ND	ND	649.3	0
72113	2018-04-20T16:00:00	56.2	ND	ND	ND	1.630865153	14.77666258	ND	ND	ND	ND	603.4	0
72114	2018-04-20T17:00:00	55.9	ND	ND	ND	1.853889448	9.105406953	ND	ND	ND	ND	311.6	0
72115	2018-04-20T18:00:00	54	ND	ND	ND	1.812072393	7.908359918	ND	ND	ND	ND	145.5	0
72116	2018-04-20T19:00:00	44.6	ND	ND	ND	0.473926626	3.807002045	ND	ND	ND	ND	5.1	0
72117	2018-04-20T20:00:00	60.7	ND	ND	ND	0.975731288	2.276351738	ND	ND	ND	ND	0	0
72118	2018-04-20T21:00:00	67.9	ND	ND	ND	1.435718896	0.902691207	ND	ND	ND	ND	0	0
72119	2018-04-20T22:00:00	66.4	ND	ND	ND	1.031487362	0.588711656	ND	ND	ND	ND	0	0
72120	2018-04-20T23:00:00	58.7	ND	ND	ND	0.919975215	0.647582822	ND	ND	ND	ND	0	0
72121	2018-04-21T00:00:00	52.8	ND	ND	ND	1.017548344	0.765325153	ND	ND	ND	ND	0	0
72122	2018-04-21T01:00:00	35.6	ND	ND	ND	1.087243436	2.237104294	ND	ND	ND	ND	0	0
72123	2018-04-21T02:00:00	29.9	ND	ND	ND	1.031487362	4.59195092	ND	ND	ND	ND	0	0
72124	2018-04-21T03:00:00	53.4	ND	ND	ND	1.240572638	2.315599182	ND	ND	ND	ND	0	0
72125	2018-04-21T04:00:00	49	ND	ND	ND	1.184816564	0.745701431	ND	ND	ND	ND	0	0
72126	2018-04-21T05:00:00	59.6	ND	ND	ND	1.22663362	1.452155419	ND	ND	ND	ND	0	0
72127	2018-04-21T06:00:00	56.9	ND	ND	ND	1.895706503	0.922314928	ND	ND	ND	ND	0	0
72128	2018-04-21T07:00:00	112.1	ND	ND	ND	2.341755092	0.883067485	ND	ND	ND	ND	65.5	0
72129	2018-04-21T08:00:00	147.7	ND	ND	ND	3.401120491	1.687640082	ND	ND	ND	ND	192.2	0
72130	2018-04-21T09:00:00	169.4	ND	ND	ND	1.979340613	3.865873211	ND	ND	ND	ND	521.1	0
72131	2018-04-21T10:00:00	145.7	ND	ND	ND	1.909645521	16.89602454	ND	ND	ND	ND	648.2	0
72132	2018-04-21T11:00:00	119.7	ND	ND	ND	2.425389202	42.09288344	ND	ND	ND	ND	649	0
72133	2018-04-21T12:00:00	109.8	ND	ND	ND	2.104791779	57.24239673	ND	ND	ND	ND	637.7	0
72134	2018-04-21T13:00:00	103.8	ND	ND	ND	1.366023804	55.65287526	ND	ND	ND	ND	649.8	0
72135	2018-04-21T14:00:00	87.2	ND	ND	ND	1.254511656	53.90636401	ND	ND	ND	ND	649.4	0
72136	2018-04-21T15:00:00	65.3	ND	ND	ND	1.059365399	33.85092025	ND	ND	ND	ND	587	0
72137	2018-04-21T16:00:00	48.5	ND	ND	ND	1.296328712	19.9965726	ND	ND	ND	ND	353.9	0
72138	2018-04-21T17:00:00	15.1	ND	ND	ND	0.864219141	11.46025358	ND	ND	ND	ND	224.3	0
72139	2018-04-21T18:00:00	15.5	ND	ND	ND	1.798133374	11.26401636	ND	ND	ND	ND	94.3	0
72140	2018-04-21T19:00:00	30.9	ND	ND	ND	0.975731288	6.456204499	ND	ND	ND	ND	9.9	0
72141	2018-04-21T20:00:00	26.5	ND	ND	ND	2.285999018	8.811051125	ND	ND	ND	ND	0	0
72142	2018-04-21T21:00:00	15.7	ND	ND	ND	1.477535951	7.358895706	ND	ND	ND	ND	0	0
72143	2018-04-21T22:00:00	33	ND	ND	ND	1.881767485	0.843820041	ND	ND	ND	ND	0	0
72144	2018-04-21T23:00:00	54.3	ND	ND	ND	1.352084785	2.865063395	ND	ND	ND	ND	0	0
72145	2018-04-22T00:00:00	52.2	ND	ND	ND	1.129060491	2.570707566	ND	ND	ND	ND	0	0
72146	2018-04-22T01:00:00	48.9	ND	ND	ND	0.627255828	2.021243354	ND	ND	ND	ND	0	0
72147	2018-04-22T02:00:00	49.5	ND	ND	ND	1.812072393	1.138175869	ND	ND	ND	ND	0	0
72148	2018-04-22T03:00:00	67	ND	ND	ND	1.22663362	2.492212679	ND	ND	ND	ND	0	0
72149	2018-04-22T04:00:00	52.3	ND	ND	ND	2.787803681	1.550274029	ND	ND	ND	ND	0	0
72150	2018-04-22T05:00:00	61.6	ND	ND	ND	0.975731288	0.745701431	ND	ND	ND	ND	0	0
72151	2018-04-22T06:00:00	61.4	ND	ND	ND	1.547231043	0.961562372	ND	ND	ND	ND	0	0
72152	2018-04-22T07:00:00	77.9	ND	ND	ND	1.700560245	0.745701431	ND	ND	ND	ND	44.6	0
72153	2018-04-22T08:00:00	76	ND	ND	ND	1.92358454	1.393284254	ND	ND	ND	ND	183.3	0
72154	2018-04-22T09:00:00	90.6	ND	ND	ND	2.285999018	4.120981595	ND	ND	ND	ND	473.4	0
72155	2018-04-22T10:00:00	100.6	ND	ND	ND	3.66596184	13.93284254	ND	ND	ND	ND	601.4	0
72156	2018-04-22T11:00:00	85.7	ND	ND	ND	2.062974724	36.46087526	ND	ND	ND	ND	649.1	0
72157	2018-04-22T12:00:00	68.6	ND	ND	ND	0.780585031	46.19424131	ND	ND	ND	ND	648.7	0
72158	2018-04-22T13:00:00	73	ND	ND	ND	0.724828957	57.98809816	ND	ND	ND	ND	649.8	0
72159	2018-04-22T14:00:00	70.7	ND	ND	ND	1.92358454	48.27435583	ND	ND	ND	ND	638.9	0
72160	2018-04-22T15:00:00	64.6	ND	ND	ND	1.616926135	41.73965644	ND	ND	ND	ND	512.9	0
72161	2018-04-22T16:00:00	43.2	ND	ND	ND	0.418170552	34.47887935	ND	ND	ND	ND	204.1	0
72162	2018-04-22T17:00:00	20	ND	ND	ND	1.198755583	15.40462168	ND	ND	ND	ND	91.3	0
72163	2018-04-22T18:00:00	5.4	ND	ND	ND	1.92358454	11.22476892	ND	ND	ND	ND	103.7	0
72164	2018-04-22T19:00:00	12.9	ND	ND	ND	0.195146258	9.90997955	ND	ND	ND	ND	5.9	0
72165	2018-04-22T20:00:00	12	ND	ND	ND	1.435718896	4.434961145	ND	ND	ND	ND	0	0
72166	2018-04-22T21:00:00	23.1	ND	ND	ND	1.04542638	4.866683027	ND	ND	ND	ND	0	0
72167	2018-04-22T22:00:00	18.6	ND	ND	ND	1.073304417	6.750560327	ND	ND	ND	ND	0	0
72168	2018-04-22T23:00:00	30.7	ND	ND	ND	2.299938037	2.472588957	ND	ND	ND	ND	0	0
72169	2018-04-23T00:00:00	33.2	ND	ND	ND	2.202364908	5.396523517	ND	ND	ND	ND	0	0
72170	2018-04-23T01:00:00	31.4	ND	ND	ND	0.906036196	5.828245399	ND	ND	ND	ND	0	0
72171	2018-04-23T02:00:00	35.2	ND	ND	ND	1.937523558	3.846249489	ND	ND	ND	ND	0	0
72172	2018-04-23T03:00:00	51.5	ND	ND	ND	0.836341104	2.806192229	ND	ND	ND	ND	0	0
72173	2018-04-23T04:00:00	52.6	ND	ND	ND	2.146608834	2.335222904	ND	ND	ND	ND	0	0
72174	2018-04-23T05:00:00	42.3	ND	ND	ND	2.899315828	1.530650307	ND	ND	ND	ND	0	0
72175	2018-04-23T06:00:00	34.2	ND	ND	ND	2.467206258	0.804572597	ND	ND	ND	ND	0	0
72176	2018-04-23T07:00:00	68.9	ND	ND	ND	1.839950429	0.902691207	ND	ND	ND	ND	63.3	0
72177	2018-04-23T08:00:00	78.1	ND	ND	ND	2.146608834	1.550274029	ND	ND	ND	ND	310.4	1.27
72178	2018-04-23T09:00:00	98.3	ND	ND	ND	2.53690135	6.299214724	ND	ND	ND	ND	636.6	0
72179	2018-04-23T10:00:00	104.4	ND	ND	ND	1.672682209	18.93689162	ND	ND	ND	ND	648.7	0
72180	2018-04-23T11:00:00	89.7	ND	ND	ND	1.017548344	21.80195501	ND	ND	ND	ND	648.9	0
72181	2018-04-23T12:00:00	68.3	ND	ND	ND	2.035096687	39.85577914	ND	ND	ND	ND	648.8	0
72182	2018-04-23T13:00:00	74.4	ND	ND	ND	1.589048098	57.79186094	ND	ND	ND	ND	649.6	0
72183	2018-04-23T14:00:00	60.2	ND	ND	ND	1.39390184	61.3437546	ND	ND	ND	ND	649	0
72184	2018-04-23T15:00:00	67.5	ND	ND	ND	1.156938528	31.61381595	ND	ND	ND	ND	234.3	0
72185	2018-04-23T16:00:00	41.5	ND	ND	ND	1.212694601	10.43982004	ND	ND	ND	ND	272.9	0
72186	2018-04-23T17:00:00	26.5	ND	ND	ND	1.951462577	6.044106339	ND	ND	ND	ND	100.5	12.45
72187	2018-04-23T18:00:00	23.4	ND	ND	ND	1.798133374	2.001619632	ND	ND	ND	ND	14.1	3.56
72188	2018-04-23T19:00:00	41	ND	ND	ND	0.906036196	1.766134969	ND	ND	ND	ND	0	0.76
72189	2018-04-23T20:00:00	40.7	ND	ND	ND	0.975731288	1.314789366	ND	ND	ND	ND	0	0.25
72190	2018-04-23T21:00:00	36.2	ND	ND	ND	2.035096687	1.275541922	ND	ND	ND	ND	0	0.25
72191	2018-04-23T22:00:00	29.9	ND	ND	ND	1.505413988	0.961562372	ND	ND	ND	ND	0	0
72192	2018-04-23T23:00:00	27.6	ND	ND	ND	1.686621227	0.804572597	ND	ND	ND	ND	0	0
72193	2018-04-24T00:00:00	26	ND	ND	ND	2.076913742	0.863443763	ND	ND	ND	ND	0	0
72194	2018-04-24T01:00:00	25.7	ND	ND	ND	1.421779877	0.745701431	ND	ND	ND	ND	0	0
72195	2018-04-24T02:00:00	39.5	ND	ND	ND	1.602987117	0.745701431	ND	ND	ND	ND	0	0
72196	2018-04-24T03:00:00	34.8	ND	ND	ND	2.258120982	0.608335378	ND	ND	ND	ND	0	0
72197	2018-04-24T04:00:00	41.5	ND	ND	ND	2.578718405	0.784948875	ND	ND	ND	ND	0	0
72198	2018-04-24T05:00:00	45.7	ND	ND	ND	1.812072393	0.765325153	ND	ND	ND	ND	0	0
72199	2018-04-24T06:00:00	43.9	ND	ND	ND	0.529682699	0.647582822	ND	ND	ND	ND	0	0
72200	2018-04-24T07:00:00	66.1	ND	ND	ND	0.390292515	0.922314928	ND	ND	ND	ND	64.4	0
72201	2018-04-24T08:00:00	85.4	ND	ND	ND	0.96179227	1.000809816	ND	ND	ND	ND	395.7	0
72202	2018-04-24T09:00:00	125.9	ND	ND	ND	2.369633129	2.080114519	ND	ND	ND	ND	560.2	0
72203	2018-04-24T10:00:00	146	ND	ND	ND	2.174486871	7.849488753	ND	ND	ND	ND	647.2	0
72204	2018-04-24T11:00:00	120.1	ND	ND	ND	2.509023313	26.07992638	ND	ND	ND	ND	648.9	0
72205	2018-04-24T12:00:00	86.8	ND	ND	ND	1.547231043	58.79267076	ND	ND	ND	ND	649.4	0
72206	2018-04-24T13:00:00	83.4	ND	ND	ND	1.951462577	67.68221677	ND	ND	ND	ND	649.6	0
72207	2018-04-24T14:00:00	80.2	ND	ND	ND	1.031487362	69.03625358	ND	ND	ND	ND	649.7	0
72208	2018-04-24T15:00:00	70.1	ND	ND	ND	1.379962822	33.30145603	ND	ND	ND	ND	598	0
72209	2018-04-24T16:00:00	38.6	ND	ND	ND	1.073304417	13.20676483	ND	ND	ND	ND	649.4	0
72210	2018-04-24T17:00:00	31.6	ND	ND	ND	1.101182454	10.28283027	ND	ND	ND	ND	469.9	0
72211	2018-04-24T18:00:00	22.2	ND	ND	ND	0.599377791	7.319648262	ND	ND	ND	ND	114.7	0
72212	2018-04-24T19:00:00	7.4	ND	ND	ND	ND	6.044106339	ND	ND	ND	ND	0	0
72213	2018-04-24T20:00:00	13.5	ND	ND	ND	ND	5.21991002	ND	ND	ND	ND	0	0
72214	2018-04-24T21:00:00	24.6	ND	ND	ND	3.024766994	9.458633947	ND	ND	ND	ND	0	0
72215	2018-04-24T22:00:00	53.9	ND	ND	ND	1.39390184	3.767754601	ND	ND	ND	ND	0	0
72216	2018-04-24T23:00:00	53.3	ND	ND	ND	0.501804663	2.197856851	ND	ND	ND	ND	0	0
72217	2018-04-25T00:00:00	61.9	ND	ND	ND	2.35569411	1.511026585	ND	ND	ND	ND	0	0
72218	2018-04-25T01:00:00	61.1	ND	ND	ND	3.303547362	2.727697342	ND	ND	ND	ND	0	0
72219	2018-04-25T02:00:00	52.6	ND	ND	ND	2.369633129	5.553513292	ND	ND	ND	ND	0	0
72220	2018-04-25T03:00:00	40.4	ND	ND	ND	0.599377791	2.688449898	ND	ND	ND	ND	0	0
72221	2018-04-25T04:00:00	55.9	ND	ND	ND	2.787803681	1.275541922	ND	ND	ND	ND	0	0
72222	2018-04-25T05:00:00	53.7	ND	ND	ND	2.146608834	0.765325153	ND	ND	ND	ND	0	0
72223	2018-04-25T06:00:00	37.1	ND	ND	ND	1.407840859	0.686830266	ND	ND	ND	ND	0	0
72224	2018-04-25T07:00:00	60.8	ND	ND	ND	1.770255337	0.902691207	ND	ND	ND	ND	42.5	0
72225	2018-04-25T08:00:00	79.6	ND	ND	ND	1.254511656	1.138175869	ND	ND	ND	ND	92.9	17.78
72226	2018-04-25T09:00:00	44	ND	ND	ND	2.076913742	1.530650307	ND	ND	ND	ND	501.6	0.25
72227	2018-04-25T10:00:00	77.3	ND	ND	ND	0.906036196	3.96399182	ND	ND	ND	ND	636.1	0
72228	2018-04-25T11:00:00	80.3	ND	ND	ND	1.881767485	11.89197546	ND	ND	ND	ND	648.5	0
72229	2018-04-25T12:00:00	68.1	ND	ND	ND	1.714499264	110.5011779	ND	ND	ND	ND	649	0
72230	2018-04-25T13:00:00	78	ND	ND	ND	ND	27.59095297	ND	ND	ND	ND	650	0
72231	2018-04-25T14:00:00	82.5	ND	ND	ND	0.850280123	29.31784049	ND	ND	ND	ND	649.8	0
72232	2018-04-25T15:00:00	73.1	ND	ND	ND	0.655133865	26.19766871	ND	ND	ND	ND	642.8	0
72233	2018-04-25T16:00:00	66.2	ND	ND	ND	1.812072393	20.91888753	ND	ND	ND	ND	585.2	0
72234	2018-04-25T17:00:00	64.9	ND	ND	ND	1.240572638	18.95651534	ND	ND	ND	ND	327.5	0
72235	2018-04-25T18:00:00	48	ND	ND	ND	2.104791779	13.63848671	ND	ND	ND	ND	136.4	0
72236	2018-04-25T19:00:00	85	ND	ND	ND	3.080523067	6.220719836	ND	ND	ND	ND	0	0
72237	2018-04-25T20:00:00	56.9	ND	ND	ND	0.850280123	1.236294479	ND	ND	ND	ND	0	0
72238	2018-04-25T21:00:00	34.6	ND	ND	ND	1.57510908	1.314789366	ND	ND	ND	ND	0	0
72239	2018-04-25T22:00:00	31.6	ND	ND	ND	1.993279632	2.649202454	ND	ND	ND	ND	0	0
72240	2018-04-25T23:00:00	49.4	ND	ND	ND	3.596266748	1.197047035	ND	ND	ND	ND	0	0
72241	2018-04-26T00:00:00	74.3	ND	ND	ND	1.756316319	0.902691207	ND	ND	ND	ND	0	0
72242	2018-04-26T01:00:00	63	ND	ND	ND	1.839950429	1.098928425	ND	ND	ND	ND	0	0
72243	2018-04-26T02:00:00	58.7	ND	ND	ND	1.57510908	1.197047035	ND	ND	ND	ND	0	0
72244	2018-04-26T03:00:00	65.3	ND	ND	ND	2.815681718	1.020433538	ND	ND	ND	ND	0	0
72245	2018-04-26T04:00:00	52.5	ND	ND	ND	3.261730307	0.961562372	ND	ND	ND	ND	0	0
72246	2018-04-26T05:00:00	37.4	ND	ND	ND	2.759925644	0.961562372	ND	ND	ND	ND	0	0
72247	2018-04-26T06:00:00	63.7	ND	ND	ND	3.275669325	1.118552147	ND	ND	ND	ND	0	0
72248	2018-04-26T07:00:00	103.9	ND	ND	ND	2.815681718	1.393284254	ND	ND	ND	ND	59.9	0
72249	2018-04-26T08:00:00	110.5	ND	ND	ND	1.421779877	1.550274029	ND	ND	ND	ND	258.6	0
72250	2018-04-26T09:00:00	116.6	ND	ND	ND	2.411450184	2.845439673	ND	ND	ND	ND	589	0
72251	2018-04-26T10:00:00	100.6	ND	ND	ND	1.756316319	10.34170143	ND	ND	ND	ND	649.1	0
72252	2018-04-26T11:00:00	89.2	ND	ND	ND	2.132669816	17.7594683	ND	ND	ND	ND	649.2	0
72253	2018-04-26T12:00:00	67	ND	ND	ND	2.18842589	24.72588957	ND	ND	ND	ND	649.3	0
72254	2018-04-26T13:00:00	74	ND	ND	ND	2.522962331	29.49445399	ND	ND	ND	ND	649.6	0
72255	2018-04-26T14:00:00	79.7	ND	ND	ND	1.282389693	32.53613088	ND	ND	ND	ND	647.9	0
72256	2018-04-26T15:00:00	61.5	ND	ND	ND	2.815681718	33.94903885	ND	ND	ND	ND	588.8	0
72257	2018-04-26T16:00:00	50.5	ND	ND	ND	1.853889448	33.89016769	ND	ND	ND	ND	378.2	0
72258	2018-04-26T17:00:00	40.1	ND	ND	ND	1.65874319	11.44062986	ND	ND	ND	ND	255.8	0
72259	2018-04-26T18:00:00	43.6	ND	ND	ND	2.383572147	8.634437628	ND	ND	ND	ND	105	0
72260	2018-04-26T19:00:00	29.6	ND	ND	ND	1.630865153	5.278781186	ND	ND	ND	ND	0	0
72261	2018-04-26T20:00:00	18	ND	ND	ND	0.808463067	5.553513292	ND	ND	ND	ND	0	0
72262	2018-04-26T21:00:00	15.8	ND	ND	ND	1.491474969	1.412907975	ND	ND	ND	ND	0	0
72263	2018-04-26T22:00:00	28.8	ND	ND	ND	2.383572147	0.804572597	ND	ND	ND	ND	0	0
72264	2018-04-26T23:00:00	49.7	ND	ND	ND	2.495084294	0.6279591	ND	ND	ND	ND	0	0
72265	2018-04-27T00:00:00	43.2	ND	ND	ND	0.627255828	0.784948875	ND	ND	ND	ND	0	0
72266	2018-04-27T01:00:00	28.2	ND	ND	ND	1.784194356	0.529840491	ND	ND	ND	ND	0	0
72267	2018-04-27T02:00:00	35.3	ND	ND	ND	2.690230552	1.844629857	ND	ND	ND	ND	0	0
72268	2018-04-27T03:00:00	33.7	ND	ND	ND	2.982949939	1.883877301	ND	ND	ND	ND	0	0
72269	2018-04-27T04:00:00	24.8	ND	ND	ND	1.491474969	2.158609407	ND	ND	ND	ND	0	0
72270	2018-04-27T05:00:00	32.6	ND	ND	ND	2.090852761	1.157799591	ND	ND	ND	ND	0	0
72271	2018-04-27T06:00:00	42.1	ND	ND	ND	1.895706503	0.981186094	ND	ND	ND	ND	0	0
72272	2018-04-27T07:00:00	41.3	ND	ND	ND	1.142999509	0.686830266	ND	ND	ND	ND	60.6	0
72273	2018-04-27T08:00:00	70.8	ND	ND	ND	2.481145276	1.2559182	ND	ND	ND	ND	277.6	0
72274	2018-04-27T09:00:00	123.2	ND	ND	ND	2.035096687	3.198666667	ND	ND	ND	ND	508.1	0
72275	2018-04-27T10:00:00	133	ND	ND	ND	2.313877055	15.22800818	ND	ND	ND	ND	641.7	0
72276	2018-04-27T11:00:00	107.7	ND	ND	ND	3.875047117	36.73560736	ND	ND	ND	ND	649	0
72277	2018-04-27T12:00:00	100.5	ND	ND	ND	1.937523558	35.51893661	ND	ND	ND	ND	649.6	0
72278	2018-04-27T13:00:00	74.7	ND	ND	ND	2.18842589	55.31927198	ND	ND	ND	ND	649.4	0
72279	2018-04-27T14:00:00	73	ND	ND	ND	1.505413988	62.93327607	ND	ND	ND	ND	649.4	0
72280	2018-04-27T15:00:00	72.4	ND	ND	ND	2.049035706	41.79852761	ND	ND	ND	ND	596.1	0
72281	2018-04-27T16:00:00	65.5	ND	ND	ND	1.003609325	19.07425767	ND	ND	ND	ND	397.2	0
72282	2018-04-27T17:00:00	32.5	ND	ND	ND	1.031487362	10.49869121	ND	ND	ND	ND	392.6	0
72283	2018-04-27T18:00:00	55.8	ND	ND	ND	3.080523067	3.610764826	ND	ND	ND	ND	71.5	0
72284	2018-04-27T19:00:00	61.5	ND	ND	ND	2.035096687	0.883067485	ND	ND	ND	ND	0	0
72285	2018-04-27T20:00:00	59	ND	ND	ND	1.561170061	1.098928425	ND	ND	ND	ND	0	0
72286	2018-04-27T21:00:00	40.5	ND	ND	ND	1.881767485	4.062110429	ND	ND	ND	ND	0	0
72287	2018-04-27T22:00:00	48.7	ND	ND	ND	1.630865153	2.021243354	ND	ND	ND	ND	0	0
72288	2018-04-27T23:00:00	55.9	ND	ND	ND	1.602987117	1.726887526	ND	ND	ND	ND	0	0
72289	2018-04-28T00:00:00	43.3	ND	ND	ND	1.770255337	0.647582822	ND	ND	ND	ND	0	0
72290	2018-04-28T01:00:00	40.8	ND	ND	ND	1.853889448	2.472588957	ND	ND	ND	ND	0	0
72291	2018-04-28T02:00:00	39.2	ND	ND	ND	0.459987607	3.826625767	ND	ND	ND	ND	0	0
72292	2018-04-28T03:00:00	34	ND	ND	ND	2.439328221	3.218290389	ND	ND	ND	ND	0	0
72293	2018-04-28T04:00:00	32.7	ND	ND	ND	3.094462086	1.648392638	ND	ND	ND	ND	0	0
72294	2018-04-28T05:00:00	34.8	ND	ND	ND	1.115121472	0.765325153	ND	ND	ND	ND	0	0
72295	2018-04-28T06:00:00	44.7	ND	ND	ND	3.178096196	0.470969325	ND	ND	ND	ND	0	0
72296	2018-04-28T07:00:00	51.1	ND	ND	ND	3.819291043	0.529840491	ND	ND	ND	ND	33.2	1.27
72297	2018-04-28T08:00:00	79.6	ND	ND	ND	4.418668834	0.6279591	ND	ND	ND	ND	106	0
72298	2018-04-28T09:00:00	90.7	ND	ND	ND	3.805352025	1.020433538	ND	ND	ND	ND	269.7	0
72299	2018-04-28T10:00:00	112	ND	ND	ND	2.313877055	2.904310838	ND	ND	ND	ND	538.7	0
72300	2018-04-28T11:00:00	100	ND	ND	ND	2.383572147	11.28364008	ND	ND	ND	ND	626.2	0
72301	2018-04-28T12:00:00	88.5	ND	ND	ND	1.602987117	18.66215951	ND	ND	ND	ND	649.1	0
72302	2018-04-28T13:00:00	80.5	ND	ND	ND	3.024766994	42.01438855	ND	ND	ND	ND	648.9	0
72303	2018-04-28T14:00:00	92.9	ND	ND	ND	3.331425399	76.49326789	ND	ND	ND	ND	615.9	0
72304	2018-04-28T15:00:00	95.7	ND	ND	ND	2.160547853	25.6482045	ND	ND	ND	ND	351	0
72305	2018-04-28T16:00:00	35	ND	ND	ND	3.205974233	13.24601227	ND	ND	ND	ND	560.8	0
72306	2018-04-28T17:00:00	28.8	ND	ND	ND	2.00721865	6.416957055	ND	ND	ND	ND	510.8	0
72307	2018-04-28T18:00:00	54.1	ND	ND	ND	2.383572147	6.299214724	ND	ND	ND	ND	136.1	0
72308	2018-04-28T19:00:00	65.7	ND	ND	ND	3.010827975	1.393284254	ND	ND	ND	ND	0	0
72309	2018-04-28T20:00:00	68.9	ND	ND	ND	2.383572147	1.707263804	ND	ND	ND	ND	0	0
72310	2018-04-28T21:00:00	45.6	ND	ND	ND	0.752706994	0.706453988	ND	ND	ND	ND	0	0
72311	2018-04-28T22:00:00	43.8	ND	ND	ND	2.285999018	0.608335378	ND	ND	ND	ND	0	0
72312	2018-04-28T23:00:00	40.2	ND	ND	ND	1.505413988	0.569087935	ND	ND	ND	ND	0	0
72313	2018-04-29T00:00:00	43.3	ND	ND	ND	1.602987117	0.706453988	ND	ND	ND	ND	0	0
72314	2018-04-29T01:00:00	67	ND	ND	ND	3.428998528	0.72607771	ND	ND	ND	ND	0	0
72315	2018-04-29T02:00:00	66.5	ND	ND	ND	3.652022822	0.529840491	ND	ND	ND	ND	0	0
72316	2018-04-29T03:00:00	49.5	ND	ND	ND	4.181705521	0.6279591	ND	ND	ND	ND	0	0
72317	2018-04-29T04:00:00	58.3	ND	ND	ND	5.213192883	0.588711656	ND	ND	ND	ND	0	0
72318	2018-04-29T05:00:00	76.1	ND	ND	ND	4.209583558	0.647582822	ND	ND	ND	ND	0	0
72319	2018-04-29T06:00:00	70.4	ND	ND	ND	5.756814601	0.72607771	ND	ND	ND	ND	0	0
72320	2018-04-29T07:00:00	81.8	ND	ND	ND	4.697449202	0.765325153	ND	ND	ND	ND	73.5	0
72321	2018-04-29T08:00:00	71.3	ND	ND	ND	7.373740736	0.784948875	ND	ND	ND	ND	106.2	0
72322	2018-04-29T09:00:00	77.1	ND	ND	ND	4.669571166	0.765325153	ND	ND	ND	ND	44.3	35.56
72323	2018-04-29T10:00:00	38.5	ND	ND	ND	3.749595951	0.72607771	ND	ND	ND	ND	95.5	23.37
72324	2018-04-29T11:00:00	17.7	ND	ND	ND	2.606596442	0.981186094	ND	ND	ND	ND	444.8	0.51
72325	2018-04-29T12:00:00	31.4	ND	ND	ND	2.996888957	8.104597137	ND	ND	ND	ND	648.2	0
72326	2018-04-29T13:00:00	38.1	ND	ND	ND	2.62053546	28.49364417	ND	ND	ND	ND	640.4	0
72327	2018-04-29T14:00:00	45.7	ND	ND	ND	2.132669816	20.52641309	ND	ND	ND	ND	470.7	0
72328	2018-04-29T15:00:00	22.2	ND	ND	ND	2.648413497	14.7962863	ND	ND	ND	ND	399.1	0
72329	2018-04-29T16:00:00	19.2	ND	ND	ND	2.787803681	19.09388139	ND	ND	ND	ND	431.4	0
72330	2018-04-29T17:00:00	23.5	ND	ND	ND	2.718108589	17.01376687	ND	ND	ND	ND	238.8	0
72331	2018-04-29T18:00:00	32.3	ND	ND	ND	1.993279632	7.339271984	ND	ND	ND	ND	83	0
72332	2018-04-29T19:00:00	47.2	ND	ND	ND	3.875047117	2.237104294	ND	ND	ND	ND	0	0
72333	2018-04-29T20:00:00	57.6	ND	ND	ND	1.895706503	1.079304703	ND	ND	ND	ND	0	0
72334	2018-04-29T21:00:00	55.6	ND	ND	ND	2.439328221	1.471779141	ND	ND	ND	ND	0	0
72335	2018-04-29T22:00:00	61.2	ND	ND	ND	2.00721865	0.529840491	ND	ND	ND	ND	0	0
72336	2018-04-29T23:00:00	30.8	ND	ND	ND	2.369633129	1.079304703	ND	ND	ND	ND	0	0
72337	2018-04-30T00:00:00	20.5	ND	ND	ND	3.164157178	3.002429448	ND	ND	ND	ND	0	0
72338	2018-04-30T01:00:00	28.7	ND	ND	ND	1.812072393	2.178233129	ND	ND	ND	ND	0	0
72339	2018-04-30T02:00:00	45.6	ND	ND	ND	2.425389202	0.706453988	ND	ND	ND	ND	0	0
72340	2018-04-30T03:00:00	81.6	ND	ND	ND	3.596266748	0.451345603	ND	ND	ND	ND	0	0
72341	2018-04-30T04:00:00	85.5	ND	ND	ND	5.045924663	0.529840491	ND	ND	ND	ND	0	0
72342	2018-04-30T05:00:00	71.6	ND	ND	ND	5.868326748	0.510216769	ND	ND	ND	ND	0	0
72343	2018-04-30T06:00:00	51	ND	ND	ND	2.202364908	0.588711656	ND	ND	ND	ND	0	0
72344	2018-04-30T07:00:00	42.3	ND	ND	ND	1.812072393	0.745701431	ND	ND	ND	ND	39.4	0
72345	2018-04-30T08:00:00	77.5	ND	ND	ND	2.662352515	0.883067485	ND	ND	ND	ND	429.1	0
72346	2018-04-30T09:00:00	137.5	ND	ND	ND	2.035096687	3.23791411	ND	ND	ND	ND	552.8	0
72347	2018-04-30T10:00:00	123.9	ND	ND	ND	1.895706503	21.56647035	ND	ND	ND	ND	622.8	0
72348	2018-04-30T11:00:00	109.8	ND	ND	ND	1.92358454	30.94660941	ND	ND	ND	ND	648.7	0
72349	2018-04-30T12:00:00	91.6	ND	ND	ND	2.718108589	40.58185685	ND	ND	ND	ND	649.6	0
72350	2018-04-30T13:00:00	69.9	ND	ND	ND	2.662352515	55.02491616	ND	ND	ND	ND	649.3	0
72351	2018-04-30T14:00:00	58.5	ND	ND	ND	2.927193865	63.87521472	ND	ND	ND	ND	649.9	0
72352	2018-04-30T15:00:00	71	ND	ND	ND	1.979340613	52.63082209	ND	ND	ND	ND	612.3	0
72353	2018-04-30T16:00:00	88.1	ND	ND	ND	2.648413497	53.41577096	ND	ND	ND	ND	518	0
72354	2018-04-30T17:00:00	87.6	ND	ND	ND	2.00721865	57.36013906	ND	ND	ND	ND	439.5	0
72355	2018-04-30T18:00:00	97.5	ND	ND	ND	1.784194356	44.23186912	ND	ND	ND	ND	67.7	0
72356	2018-04-30T19:00:00	51.5	ND	ND	ND	1.812072393	4.493832311	ND	ND	ND	ND	0	0
72357	2018-04-30T20:00:00	26.9	ND	ND	ND	2.062974724	5.062920245	ND	ND	ND	ND	0	0
72358	2018-04-30T21:00:00	25.3	ND	ND	ND	2.564779387	2.865063395	ND	ND	ND	ND	0	0
72359	2018-04-30T22:00:00	14	ND	ND	ND	2.815681718	3.728507157	ND	ND	ND	ND	0	0
72360	2018-04-30T23:00:00	20.7	ND	ND	ND	1.352084785	4.003239264	ND	ND	ND	ND	0	0
72361	2018-05-01T00:00:00	25.9	ND	ND	ND	2.216303926	8.300834356	ND	ND	ND	ND	0	0
72362	2018-05-01T01:00:00	13	ND	ND	ND	1.505413988	3.905120654	ND	ND	ND	ND	0	0
72363	2018-05-01T02:00:00	28	ND	ND	ND	2.509023313	1.511026585	ND	ND	ND	ND	0	16.26
72364	2018-05-01T03:00:00	21.4	ND	ND	ND	1.92358454	0.569087935	ND	ND	ND	ND	0	0
72365	2018-05-01T04:00:00	40.6	ND	ND	ND	3.080523067	1.000809816	ND	ND	ND	ND	0	0
72366	2018-05-01T05:00:00	47.6	ND	ND	ND	0.96179227	0.784948875	ND	ND	ND	ND	0	0.25
72367	2018-05-01T06:00:00	58.3	ND	ND	ND	2.202364908	0.745701431	ND	ND	ND	ND	0	0
72368	2018-05-01T07:00:00	76.3	ND	ND	ND	2.35569411	0.883067485	ND	ND	ND	ND	64.7	0
72369	2018-05-01T08:00:00	84.7	ND	ND	ND	1.686621227	1.000809816	ND	ND	ND	ND	283.2	0
72370	2018-05-01T09:00:00	83.5	ND	ND	ND	3.624144785	2.982805726	ND	ND	ND	ND	424.7	0
72371	2018-05-01T10:00:00	85.5	ND	ND	ND	3.888986135	10.98928425	ND	ND	ND	ND	594.6	0
72372	2018-05-01T11:00:00	77.2	ND	ND	ND	1.129060491	31.16247035	ND	ND	ND	ND	648.4	0
72373	2018-05-01T12:00:00	74.3	ND	ND	ND	3.219913252	46.01762781	ND	ND	ND	ND	649.9	0
72374	2018-05-01T13:00:00	42.3	ND	ND	ND	2.718108589	53.47464213	ND	ND	ND	ND	649.8	0
72375	2018-05-01T14:00:00	49	ND	ND	ND	1.602987117	65.03301431	ND	ND	ND	ND	628.8	0
72376	2018-05-01T15:00:00	61	ND	ND	ND	1.853889448	69.54647035	ND	ND	ND	ND	539.1	0
72377	2018-05-01T16:00:00	52	ND	ND	ND	2.467206258	39.73803681	ND	ND	ND	ND	330.6	0
72378	2018-05-01T17:00:00	18.6	ND	ND	ND	1.324206748	18.30893252	ND	ND	ND	ND	553.1	0
72379	2018-05-01T18:00:00	22.4	ND	ND	ND	2.411450184	18.44629857	ND	ND	ND	ND	124.5	0
72380	2018-05-01T19:00:00	5.7	ND	ND	ND	1.867828466	13.1871411	ND	ND	ND	ND	4.3	0
72381	2018-05-01T20:00:00	21.9	ND	ND	ND	3.638083804	3.493022495	ND	ND	ND	ND	0	0
72382	2018-05-01T21:00:00	51.4	ND	ND	ND	0.989670307	1.471779141	ND	ND	ND	ND	0	0
72383	2018-05-01T22:00:00	49.5	ND	ND	ND	0.641194847	0.981186094	ND	ND	ND	ND	0	0
72384	2018-05-01T23:00:00	37	ND	ND	ND	2.132669816	2.080114519	ND	ND	ND	ND	0	0
72385	2018-05-02T00:00:00	34.9	ND	ND	ND	2.244181963	2.237104294	ND	ND	ND	ND	0	0
72386	2018-05-02T01:00:00	20.5	ND	ND	ND	1.630865153	4.513456033	ND	ND	ND	ND	0	0
72387	2018-05-02T02:00:00	16.5	ND	ND	ND	2.285999018	4.415337423	ND	ND	ND	ND	0	0
72388	2018-05-02T03:00:00	39.6	ND	ND	ND	5.324705031	1.04005726	ND	ND	ND	ND	0	0
72389	2018-05-02T04:00:00	59.3	ND	ND	ND	4.112010429	1.059680982	ND	ND	ND	ND	0	0
72390	2018-05-02T05:00:00	60.7	ND	ND	ND	3.247791288	1.118552147	ND	ND	ND	ND	0	0
72391	2018-05-02T06:00:00	58.4	ND	ND	ND	3.484754601	0.667206544	ND	ND	ND	ND	0	0
72392	2018-05-02T07:00:00	75.6	ND	ND	ND	3.791413006	0.883067485	ND	ND	ND	ND	32.2	0
72393	2018-05-02T08:00:00	113	ND	ND	ND	2.648413497	1.275541922	ND	ND	ND	ND	230	0
72394	2018-05-02T09:00:00	107.9	ND	ND	ND	2.829620736	5.63200818	ND	ND	ND	ND	593	0
72395	2018-05-02T10:00:00	117.4	ND	ND	ND	2.606596442	17.70059714	ND	ND	ND	ND	617.1	0
72396	2018-05-02T11:00:00	79.8	ND	ND	ND	1.867828466	30.10278937	ND	ND	ND	ND	649.3	0
72397	2018-05-02T12:00:00	54.8	ND	ND	ND	1.630865153	44.11412679	ND	ND	ND	ND	646	0
72398	2018-05-02T13:00:00	47.4	ND	ND	ND	2.18842589	49.31441309	ND	ND	ND	ND	650	0
72399	2018-05-02T14:00:00	60.5	ND	ND	ND	1.602987117	61.67735787	ND	ND	ND	ND	650.1	0
72400	2018-05-02T15:00:00	65.6	ND	ND	ND	1.589048098	65.4647362	ND	ND	ND	ND	649.9	0
72401	2018-05-02T16:00:00	74.7	ND	ND	ND	2.021157669	84.9314683	ND	ND	ND	ND	557.5	0
72402	2018-05-02T17:00:00	99.3	ND	ND	ND	1.379962822	55.37814315	ND	ND	ND	ND	347.3	0
72403	2018-05-02T18:00:00	63.2	ND	ND	ND	0.641194847	17.83796319	ND	ND	ND	ND	44.3	0
72404	2018-05-02T19:00:00	32.2	ND	ND	ND	1.421779877	9.242773006	ND	ND	ND	ND	0	0.76
72405	2018-05-02T20:00:00	0.1	ND	ND	ND	2.801742699	9.537128834	ND	ND	ND	ND	0	0
72406	2018-05-02T21:00:00	3.1	ND	ND	ND	2.258120982	1.98199591	ND	ND	ND	ND	0	0
72407	2018-05-02T22:00:00	30	ND	ND	ND	1.519353006	7.378519427	ND	ND	ND	ND	0	0
72408	2018-05-02T23:00:00	18.7	ND	ND	ND	0.683011902	5.867492843	ND	ND	ND	ND	0	0
72409	2018-05-03T00:00:00	35.5	ND	ND	ND	2.467206258	1.903501022	ND	ND	ND	ND	0	0
72410	2018-05-03T01:00:00	59.6	ND	ND	ND	1.756316319	2.354846626	ND	ND	ND	ND	0	0
72411	2018-05-03T02:00:00	54.5	ND	ND	ND	2.35569411	3.532269939	ND	ND	ND	ND	0	0
72412	2018-05-03T03:00:00	17.8	ND	ND	ND	2.118730798	3.708883436	ND	ND	ND	ND	0	0
72413	2018-05-03T04:00:00	8.1	ND	ND	ND	2.313877055	4.90593047	ND	ND	ND	ND	0	0
72414	2018-05-03T05:00:00	13.7	ND	ND	ND	0.766646012	1.66801636	ND	ND	ND	ND	0	0
72415	2018-05-03T06:00:00	45.5	ND	ND	ND	3.484754601	1.079304703	ND	ND	ND	ND	0	0
72416	2018-05-03T07:00:00	101.6	ND	ND	ND	3.345364417	1.079304703	ND	ND	ND	ND	126.2	0
72417	2018-05-03T08:00:00	72.8	ND	ND	ND	2.411450184	2.511836401	ND	ND	ND	ND	530.1	0
72418	2018-05-03T09:00:00	104.1	ND	ND	ND	1.979340613	9.399762781	ND	ND	ND	ND	567.8	0
72419	2018-05-03T10:00:00	96.3	ND	ND	ND	1.714499264	23.84282209	ND	ND	ND	ND	648.1	0
72420	2018-05-03T11:00:00	79.7	ND	ND	ND	1.282389693	33.47806953	ND	ND	ND	ND	648.3	0
72421	2018-05-03T12:00:00	75.2	ND	ND	ND	2.801742699	50.0404908	ND	ND	ND	ND	648.7	0
72422	2018-05-03T13:00:00	65.6	ND	ND	ND	1.714499264	72.72551329	ND	ND	ND	ND	648.2	0
72423	2018-05-03T14:00:00	57.2	ND	ND	ND	2.578718405	26.57051943	ND	ND	ND	ND	292.2	0
72424	2018-05-03T15:00:00	30.7	ND	ND	ND	2.230242945	9.517505112	ND	ND	ND	ND	204.4	28.7
72425	2018-05-03T16:00:00	30.7	ND	ND	ND	2.522962331	4.925554192	ND	ND	ND	ND	452.3	0
72426	2018-05-03T17:00:00	52.2	ND	ND	ND	2.899315828	3.708883436	ND	ND	ND	ND	273.5	0
72427	2018-05-03T18:00:00	55.8	ND	ND	ND	1.65874319	2.70807362	ND	ND	ND	ND	56.9	0
72428	2018-05-03T19:00:00	71.2	ND	ND	ND	1.672682209	1.275541922	ND	ND	ND	ND	0	0
72429	2018-05-03T20:00:00	56.6	ND	ND	ND	1.22663362	1.511026585	ND	ND	ND	ND	0	0
72430	2018-05-03T21:00:00	36.5	ND	ND	ND	2.021157669	1.04005726	ND	ND	ND	ND	0	0
72431	2018-05-03T22:00:00	56.9	ND	ND	ND	3.289608344	0.981186094	ND	ND	ND	ND	0	0
72432	2018-05-03T23:00:00	61.8	ND	ND	ND	1.254511656	0.922314928	ND	ND	ND	ND	0	0
72433	2018-05-04T00:00:00	67.6	ND	ND	ND	2.202364908	1.118552147	ND	ND	ND	ND	0	0
72434	2018-05-04T01:00:00	63.5	ND	ND	ND	1.993279632	0.863443763	ND	ND	ND	ND	0	0
72435	2018-05-04T02:00:00	67.1	ND	ND	ND	2.787803681	0.981186094	ND	ND	ND	ND	0	0
72436	2018-05-04T03:00:00	54.3	ND	ND	ND	1.853889448	0.843820041	ND	ND	ND	ND	0	0
72437	2018-05-04T04:00:00	38.4	ND	ND	ND	1.979340613	0.824196319	ND	ND	ND	ND	0	0
72438	2018-05-04T05:00:00	45.4	ND	ND	ND	2.035096687	1.04005726	ND	ND	ND	ND	0	0
72439	2018-05-04T06:00:00	116.2	ND	ND	ND	2.160547853	1.04005726	ND	ND	ND	ND	0	0
72440	2018-05-04T07:00:00	99.7	ND	ND	ND	2.146608834	0.981186094	ND	ND	ND	ND	87.6	0
72441	2018-05-04T08:00:00	63.1	ND	ND	ND	1.672682209	1.452155419	ND	ND	ND	ND	465.3	0
72442	2018-05-04T09:00:00	82.3	ND	ND	ND	2.662352515	6.142224949	ND	ND	ND	ND	643.4	0
72443	2018-05-04T10:00:00	89.1	ND	ND	ND	1.31026773	12.14708384	ND	ND	ND	ND	648	0
72444	2018-05-04T11:00:00	73.4	ND	ND	ND	1.714499264	25.86406544	ND	ND	ND	ND	647.7	0
72445	2018-05-04T12:00:00	94.3	ND	ND	ND	2.648413497	51.59076483	ND	ND	ND	ND	648.3	0
72446	2018-05-04T13:00:00	94	ND	ND	ND	3.359303436	47.94075256	ND	ND	ND	ND	648.4	0
72447	2018-05-04T14:00:00	87.6	ND	ND	ND	2.160547853	51.17866667	ND	ND	ND	ND	588.9	0
72448	2018-05-04T15:00:00	73.8	ND	ND	ND	2.118730798	16.99414315	ND	ND	ND	ND	500.9	1.02
72449	2018-05-04T16:00:00	42.2	ND	ND	ND	1.798133374	17.4847362	ND	ND	ND	ND	630.6	0
72450	2018-05-04T17:00:00	55.9	ND	ND	ND	2.146608834	6.907550102	ND	ND	ND	ND	254.5	0
72451	2018-05-04T18:00:00	74.7	ND	ND	ND	1.22663362	10.51831493	ND	ND	ND	ND	47.3	0
72452	2018-05-04T19:00:00	51.7	ND	ND	ND	0.599377791	4.140605317	ND	ND	ND	ND	0	0
72453	2018-05-04T20:00:00	35.2	ND	ND	ND	1.268450675	2.217480573	ND	ND	ND	ND	0	0.25
72454	2018-05-04T21:00:00	49	ND	ND	ND	1.04542638	2.374470348	ND	ND	ND	ND	0	29.21
72455	2018-05-04T22:00:00	61	ND	ND	ND	1.003609325	1.825006135	ND	ND	ND	ND	0	36.07
72456	2018-05-04T23:00:00	26.9	ND	ND	ND	3.136279141	1.923124744	ND	ND	ND	ND	0	0.51
72457	2018-05-05T00:00:00	33.4	ND	ND	ND	2.049035706	1.883877301	ND	ND	ND	ND	0	0.76
72458	2018-05-05T01:00:00	48.5	ND	ND	ND	1.909645521	1.903501022	ND	ND	ND	ND	0	0.76
72459	2018-05-05T02:00:00	47.2	ND	ND	ND	2.285999018	1.923124744	ND	ND	ND	ND	0	0
72460	2018-05-05T03:00:00	40.4	ND	ND	ND	1.644804172	2.021243354	ND	ND	ND	ND	0	5.84
72461	2018-05-05T04:00:00	19.1	ND	ND	ND	3.024766994	2.237104294	ND	ND	ND	ND	0	3.81
72462	2018-05-05T05:00:00	10.1	ND	ND	ND	0.808463067	2.433341513	ND	ND	ND	ND	0	2.54
72463	2018-05-05T06:00:00	5.6	ND	ND	ND	3.024766994	1.530650307	ND	ND	ND	ND	0	2.29
72464	2018-05-05T07:00:00	14.4	ND	ND	ND	1.839950429	0.902691207	ND	ND	ND	ND	25.5	1.52
72465	2018-05-05T08:00:00	14.4	ND	ND	ND	1.602987117	1.197047035	ND	ND	ND	ND	91.7	0.51
72466	2018-05-05T09:00:00	41.9	ND	ND	ND	2.550840368	1.569897751	ND	ND	ND	ND	273.6	0
72467	2018-05-05T10:00:00	61.2	ND	ND	ND	1.589048098	3.257537832	ND	ND	ND	ND	540.8	0
72468	2018-05-05T11:00:00	56	ND	ND	ND	1.156938528	11.91159918	ND	ND	ND	ND	640.4	0
72469	2018-05-05T12:00:00	55.9	ND	ND	ND	1.352084785	30.20090798	ND	ND	ND	ND	647.6	0
72470	2018-05-05T13:00:00	48.9	ND	ND	ND	2.578718405	57.51712883	ND	ND	ND	ND	648.2	0
72471	2018-05-05T14:00:00	53.5	ND	ND	ND	2.495084294	62.08945603	ND	ND	ND	ND	648	0
72472	2018-05-05T15:00:00	50.2	ND	ND	ND	1.421779877	32.104409	ND	ND	ND	ND	648.3	0
72473	2018-05-05T16:00:00	27.7	ND	ND	ND	2.759925644	28.92536605	ND	ND	ND	ND	648.2	0
72474	2018-05-05T17:00:00	32.3	ND	ND	ND	2.174486871	16.64091616	ND	ND	ND	ND	346.4	0
72475	2018-05-05T18:00:00	43.6	ND	ND	ND	3.038706012	10.14546421	ND	ND	ND	ND	110.2	0
72476	2018-05-05T19:00:00	46.3	ND	ND	ND	3.23385227	1.903501022	ND	ND	ND	ND	0	0
72477	2018-05-05T20:00:00	65.6	ND	ND	ND	1.700560245	2.060490798	ND	ND	ND	ND	0	0
72478	2018-05-05T21:00:00	76.1	ND	ND	ND	2.021157669	2.531460123	ND	ND	ND	ND	0	0
72479	2018-05-05T22:00:00	58	ND	ND	ND	1.129060491	2.374470348	ND	ND	ND	ND	0	0
72480	2018-05-05T23:00:00	57.6	ND	ND	ND	2.871437791	2.649202454	ND	ND	ND	ND	0	0
72481	2018-05-06T00:00:00	42.9	ND	ND	ND	1.756316319	1.923124744	ND	ND	ND	ND	0	0
72482	2018-05-06T01:00:00	48.5	ND	ND	ND	1.686621227	1.177423313	ND	ND	ND	ND	0	0
72483	2018-05-06T02:00:00	50.7	ND	ND	ND	3.052645031	1.020433538	ND	ND	ND	ND	0	0
72484	2018-05-06T03:00:00	46.3	ND	ND	ND	2.857498773	1.020433538	ND	ND	ND	ND	0	0
72485	2018-05-06T04:00:00	43.9	ND	ND	ND	1.756316319	1.059680982	ND	ND	ND	ND	0	0
72486	2018-05-06T05:00:00	40.7	ND	ND	ND	1.324206748	0.961562372	ND	ND	ND	ND	0	0
72487	2018-05-06T06:00:00	39.7	ND	ND	ND	2.341755092	0.883067485	ND	ND	ND	ND	0	0
72488	2018-05-06T07:00:00	63.6	ND	ND	ND	1.087243436	1.197047035	ND	ND	ND	ND	108.6	0
72489	2018-05-06T08:00:00	59.8	ND	ND	ND	1.561170061	3.277161554	ND	ND	ND	ND	361.1	0
72490	2018-05-06T09:00:00	82.4	ND	ND	ND	1.784194356	8.477447853	ND	ND	ND	ND	543.5	0
72491	2018-05-06T10:00:00	70	ND	ND	ND	2.439328221	17.9360818	ND	ND	ND	ND	628.7	0
72492	2018-05-06T11:00:00	60	ND	ND	ND	2.132669816	22.21405317	ND	ND	ND	ND	647.5	0
72493	2018-05-06T12:00:00	38.6	ND	ND	ND	1.784194356	39.52217587	ND	ND	ND	ND	647.6	0
72494	2018-05-06T13:00:00	62.7	ND	ND	ND	2.955071902	50.90393456	ND	ND	ND	ND	514	0
72495	2018-05-06T14:00:00	29.9	ND	ND	ND	1.895706503	13.57961554	ND	ND	ND	ND	487.5	0
72496	2018-05-06T15:00:00	0.1	ND	ND	ND	1.742377301	13.93284254	ND	ND	ND	ND	443.2	0
72497	2018-05-06T16:00:00	13.9	ND	ND	ND	2.592657423	7.123411043	ND	ND	ND	ND	44.2	12.95
72498	2018-05-06T17:00:00	14.9	ND	ND	ND	2.732047607	2.825815951	ND	ND	ND	ND	8.8	5.33
72499	2018-05-06T18:00:00	28.5	ND	ND	ND	2.732047607	1.825006135	ND	ND	ND	ND	0	10.16
72500	2018-05-06T19:00:00	16.2	ND	ND	ND	0.655133865	1.412907975	ND	ND	ND	ND	0	14.48
72501	2018-05-06T20:00:00	9	ND	ND	ND	1.101182454	1.35403681	ND	ND	ND	ND	0	11.18
72502	2018-05-06T21:00:00	10.4	ND	ND	ND	0.390292515	1.295165644	ND	ND	ND	ND	0	5.33
72503	2018-05-06T22:00:00	17	ND	ND	ND	1.366023804	1.334413088	ND	ND	ND	ND	0	0
72504	2018-05-06T23:00:00	15	ND	ND	ND	2.773864663	1.236294479	ND	ND	ND	ND	0	0
72505	2018-05-07T00:00:00	9.4	ND	ND	ND	0.362414479	1.079304703	ND	ND	ND	ND	0	0.25
72506	2018-05-07T01:00:00	3.2	ND	ND	ND	2.035096687	1.079304703	ND	ND	ND	ND	0	0
72507	2018-05-07T02:00:00	22.2	ND	ND	ND	2.871437791	1.118552147	ND	ND	ND	ND	0	0
72508	2018-05-07T03:00:00	27	ND	ND	ND	1.616926135	1.118552147	ND	ND	ND	ND	0	0
72509	2018-05-07T04:00:00	18.1	ND	ND	ND	2.606596442	1.000809816	ND	ND	ND	ND	0	0
72510	2018-05-07T05:00:00	26.2	ND	ND	ND	1.602987117	0.981186094	ND	ND	ND	ND	0	0
72511	2018-05-07T06:00:00	20.4	ND	ND	ND	1.993279632	0.94193865	ND	ND	ND	ND	0	0
72512	2018-05-07T07:00:00	42.2	ND	ND	ND	1.22663362	1.138175869	ND	ND	ND	ND	77.9	0
72513	2018-05-07T08:00:00	69.5	ND	ND	ND	2.62053546	1.35403681	ND	ND	ND	ND	220.9	0
72514	2018-05-07T09:00:00	101.8	ND	ND	ND	2.090852761	1.687640082	ND	ND	ND	ND	437.1	0
72515	2018-05-07T10:00:00	88.7	ND	ND	ND	1.087243436	5.710503067	ND	ND	ND	ND	648.1	0
72516	2018-05-07T11:00:00	80.9	ND	ND	ND	2.509023313	18.58366462	ND	ND	ND	ND	647.5	0
72517	2018-05-07T12:00:00	62.5	ND	ND	ND	1.561170061	24.01943558	ND	ND	ND	ND	631.6	0
72518	2018-05-07T13:00:00	46.4	ND	ND	ND	2.439328221	41.62191411	ND	ND	ND	ND	648.2	0
72519	2018-05-07T14:00:00	44.9	ND	ND	ND	0.710889939	35.6955501	ND	ND	ND	ND	608.4	0
72520	2018-05-07T15:00:00	46.4	ND	ND	ND	1.184816564	13.9917137	ND	ND	ND	ND	130.7	1.52
72521	2018-05-07T16:00:00	15.8	ND	ND	ND	2.076913742	2.217480573	ND	ND	ND	ND	67.5	12.95
72522	2018-05-07T17:00:00	21.5	ND	ND	ND	0.641194847	1.903501022	ND	ND	ND	ND	141	6.6
72523	2018-05-07T18:00:00	41.6	ND	ND	ND	2.076913742	1.609145194	ND	ND	ND	ND	61.8	0
72524	2018-05-07T19:00:00	53.6	ND	ND	ND	1.65874319	1.020433538	ND	ND	ND	ND	0	0.25
72525	2018-05-07T20:00:00	17.7	ND	ND	ND	0	1.059680982	ND	ND	ND	ND	0	0
72526	2018-05-07T21:00:00	9.6	ND	ND	ND	2.076913742	0.961562372	ND	ND	ND	ND	0	0.76
72527	2018-05-07T22:00:00	48.5	ND	ND	ND	1.505413988	1.000809816	ND	ND	ND	ND	0	6.35
72528	2018-05-07T23:00:00	26.1	ND	ND	ND	1.031487362	1.059680982	ND	ND	ND	ND	0	0
72529	2018-05-08T00:00:00	22.4	ND	ND	ND	2.550840368	1.020433538	ND	ND	ND	ND	0	0.51
72530	2018-05-08T01:00:00	23.4	ND	ND	ND	2.425389202	0.981186094	ND	ND	ND	ND	0	0.25
72531	2018-05-08T02:00:00	20.7	ND	ND	ND	2.481145276	0.843820041	ND	ND	ND	ND	0	3.3
72532	2018-05-08T03:00:00	5.7	ND	ND	ND	3.638083804	0.922314928	ND	ND	ND	ND	0	0.25
72533	2018-05-08T04:00:00	7.7	ND	ND	ND	2.648413497	0.94193865	ND	ND	ND	ND	0	0.51
72534	2018-05-08T05:00:00	25.5	ND	ND	ND	1.449657914	0.843820041	ND	ND	ND	ND	0	0
72535	2018-05-08T06:00:00	20.8	ND	ND	ND	3.094462086	0.784948875	ND	ND	ND	ND	0	0
72536	2018-05-08T07:00:00	38.3	ND	ND	ND	1.909645521	1.020433538	ND	ND	ND	ND	17.4	0.25
72537	2018-05-08T08:00:00	49.5	ND	ND	ND	2.871437791	1.2559182	ND	ND	ND	ND	162.2	1.27
72538	2018-05-08T09:00:00	49.3	ND	ND	ND	2.815681718	1.471779141	ND	ND	ND	ND	291.1	0
72539	2018-05-08T10:00:00	57.4	ND	ND	ND	2.18842589	1.569897751	ND	ND	ND	ND	305.1	0.25
72540	2018-05-08T11:00:00	66.7	ND	ND	ND	1.324206748	2.354846626	ND	ND	ND	ND	496.1	0
72541	2018-05-08T12:00:00	71.8	ND	ND	ND	ND	ND	ND	ND	ND	ND	648.4	0
72542	2018-05-08T13:00:00	90.8	ND	ND	ND	0.850280123	7.044916155	ND	ND	ND	ND	649.2	0
72543	2018-05-08T14:00:00	86	ND	ND	ND	2.062974724	11.24439264	ND	ND	ND	ND	632.5	0
72544	2018-05-08T15:00:00	71.4	ND	ND	ND	0.571499755	20.93851125	ND	ND	ND	ND	603.1	0
72545	2018-05-08T16:00:00	80	ND	ND	ND	0.752706994	33.04634765	ND	ND	ND	ND	463.1	0
72546	2018-05-08T17:00:00	77	ND	ND	ND	ND	40.38561963	ND	ND	ND	ND	471.7	0
72547	2018-05-08T18:00:00	95.6	ND	ND	ND	1.937523558	22.97937832	ND	ND	ND	ND	74.1	0
72548	2018-05-08T19:00:00	90.7	ND	ND	ND	1.352084785	4.37608998	ND	ND	ND	ND	0	0
72549	2018-05-08T20:00:00	105.3	ND	ND	ND	2.299938037	1.373660532	ND	ND	ND	ND	0	0
72550	2018-05-08T21:00:00	75.1	ND	ND	ND	1.519353006	1.098928425	ND	ND	ND	ND	0	0
72551	2018-05-08T22:00:00	54.9	ND	ND	ND	3.470815583	0.784948875	ND	ND	ND	ND	0	0.25
72552	2018-05-08T23:00:00	55.7	ND	ND	ND	2.88537681	0.843820041	ND	ND	ND	ND	0	0
72553	2018-05-09T00:00:00	47.8	ND	ND	ND	1.784194356	0.706453988	ND	ND	ND	ND	0	0.25
72554	2018-05-09T01:00:00	34	ND	ND	ND	1.463596933	0.961562372	ND	ND	ND	ND	0	0
72555	2018-05-09T02:00:00	42	ND	ND	ND	2.00721865	0.765325153	ND	ND	ND	ND	0	0
72556	2018-05-09T03:00:00	43.2	ND	ND	ND	2.313877055	0.843820041	ND	ND	ND	ND	0	0
72557	2018-05-09T04:00:00	36.9	ND	ND	ND	4.014437301	0.745701431	ND	ND	ND	ND	0	0
72558	2018-05-09T05:00:00	47.7	ND	ND	ND	4.850778405	0.863443763	ND	ND	ND	ND	0	0
72559	2018-05-09T06:00:00	51.8	ND	ND	ND	2.397511166	0.94193865	ND	ND	ND	ND	0	20.57
72560	2018-05-09T07:00:00	ND	ND	ND	ND	1.170877546	0.72607771	ND	ND	ND	ND	63.2	9.91
72561	2018-05-09T08:00:00	ND	ND	ND	ND	1.686621227	0.94193865	ND	ND	ND	ND	270.4	1.27
72562	2018-05-09T09:00:00	ND	ND	ND	ND	1.463596933	6.927173824	ND	ND	ND	ND	505.4	0
72563	2018-05-09T10:00:00	ND	ND	ND	ND	2.648413497	18.91726789	ND	ND	ND	ND	648.2	0
72564	2018-05-09T11:00:00	ND	ND	ND	ND	0.892097178	35.47968916	ND	ND	ND	ND	648.1	0
72565	2018-05-09T12:00:00	ND	ND	ND	ND	2.53690135	37.54017996	ND	ND	ND	ND	648.7	0
72566	2018-05-09T13:00:00	ND	ND	ND	ND	2.397511166	40.60148057	ND	ND	ND	ND	645.8	0
72567	2018-05-09T14:00:00	ND	ND	ND	ND	0.055756074	47.70526789	ND	ND	ND	ND	629.6	0
72568	2018-05-09T15:00:00	ND	ND	ND	ND	1.602987117	37.32431902	ND	ND	ND	ND	243.2	0
72569	2018-05-09T16:00:00	ND	ND	ND	ND	1.519353006	12.93203272	ND	ND	ND	ND	290	0
72570	2018-05-09T17:00:00	ND	ND	ND	ND	2.62053546	10.26320654	ND	ND	ND	ND	201.3	0
72571	2018-05-09T18:00:00	ND	ND	ND	ND	1.867828466	6.98604499	ND	ND	ND	ND	50.4	0
72572	2018-05-09T19:00:00	ND	ND	ND	ND	1.22663362	2.021243354	ND	ND	ND	ND	0	0
72573	2018-05-09T20:00:00	ND	ND	ND	ND	2.216303926	1.157799591	ND	ND	ND	ND	0	2.29
72574	2018-05-09T21:00:00	ND	ND	ND	ND	0.766646012	0.824196319	ND	ND	ND	ND	0	3.81
72575	2018-05-09T22:00:00	ND	ND	ND	ND	2.522962331	1.393284254	ND	ND	ND	ND	0	0.76
72576	2018-05-09T23:00:00	ND	ND	ND	ND	2.090852761	1.589521472	ND	ND	ND	ND	0	0
72577	2018-05-10T00:00:00	ND	ND	ND	ND	1.700560245	2.884687117	ND	ND	ND	ND	0	0.25
72578	2018-05-10T01:00:00	ND	ND	ND	ND	2.704169571	6.770184049	ND	ND	ND	ND	0	0
72579	2018-05-10T02:00:00	ND	ND	ND	ND	0.515743681	5.867492843	ND	ND	ND	ND	0	0
72580	2018-05-10T03:00:00	ND	ND	ND	ND	1.087243436	3.905120654	ND	ND	ND	ND	0	0
72581	2018-05-10T04:00:00	ND	ND	ND	ND	2.634474479	1.726887526	ND	ND	ND	ND	0	0
72582	2018-05-10T05:00:00	ND	ND	ND	ND	3.652022822	0.922314928	ND	ND	ND	ND	0	0
72583	2018-05-10T06:00:00	ND	ND	ND	ND	2.913254847	0.510216769	ND	ND	ND	ND	0	0
72584	2018-05-10T07:00:00	ND	ND	ND	ND	2.857498773	0.510216769	ND	ND	ND	ND	56.3	0
72585	2018-05-10T08:00:00	ND	ND	ND	ND	2.829620736	0.667206544	ND	ND	ND	ND	332.7	0
72586	2018-05-10T09:00:00	ND	ND	ND	ND	1.338145767	2.374470348	ND	ND	ND	ND	592.5	0
72587	2018-05-10T10:00:00	ND	ND	ND	ND	2.982949939	8.65406135	ND	ND	ND	ND	648.8	0
72588	2018-05-10T11:00:00	ND	ND	ND	ND	1.268450675	16.32693661	ND	ND	ND	ND	649.3	0
72589	2018-05-10T12:00:00	ND	ND	ND	ND	1.533292025	26.17804499	ND	ND	ND	ND	648.6	0
72590	2018-05-10T13:00:00	ND	ND	ND	ND	0.794524049	29.20009816	ND	ND	ND	ND	648.9	0
72591	2018-05-10T14:00:00	ND	ND	ND	ND	1.714499264	46.9006953	ND	ND	ND	ND	649.2	0
72592	2018-05-10T15:00:00	ND	ND	ND	ND	1.644804172	52.5523272	ND	ND	ND	ND	556.1	0
72593	2018-05-10T16:00:00	ND	ND	ND	ND	2.202364908	29.20009816	ND	ND	ND	ND	464.6	0
72594	2018-05-10T17:00:00	ND	ND	ND	ND	0.892097178	40.03239264	ND	ND	ND	ND	468.4	0
72595	2018-05-10T18:00:00	ND	ND	ND	ND	1.867828466	29.90655215	ND	ND	ND	ND	35.4	0
72596	2018-05-10T19:00:00	ND	ND	ND	ND	2.216303926	2.60995501	ND	ND	ND	ND	1.2	0
72597	2018-05-10T20:00:00	ND	ND	ND	ND	2.035096687	0.863443763	ND	ND	ND	ND	0.1	0
72598	2018-05-10T21:00:00	ND	ND	ND	ND	2.313877055	2.217480573	ND	ND	ND	ND	0.1	0
72599	2018-05-10T22:00:00	ND	ND	ND	ND	2.35569411	1.393284254	ND	ND	ND	ND	0.1	0
72600	2018-05-10T23:00:00	ND	ND	ND	ND	1.770255337	1.079304703	ND	ND	ND	ND	0.1	0
72601	2018-05-11T00:00:00	ND	ND	ND	ND	3.038706012	0.588711656	ND	ND	ND	ND	0.1	0
72602	2018-05-11T01:00:00	ND	ND	ND	ND	3.275669325	0.490593047	ND	ND	ND	ND	0.1	0
72603	2018-05-11T02:00:00	ND	ND	ND	ND	3.010827975	1.04005726	ND	ND	ND	ND	0.1	0
72604	2018-05-11T03:00:00	ND	ND	ND	ND	3.094462086	0.529840491	ND	ND	ND	ND	0.1	0
72605	2018-05-11T04:00:00	ND	ND	ND	ND	1.435718896	0.392474438	ND	ND	ND	ND	0.1	0
72606	2018-05-11T05:00:00	ND	ND	ND	ND	2.955071902	0.529840491	ND	ND	ND	ND	0.1	0
72607	2018-05-11T06:00:00	ND	ND	ND	ND	2.425389202	0.529840491	ND	ND	ND	ND	0.7	0
72608	2018-05-11T07:00:00	ND	ND	ND	ND	1.993279632	0.686830266	ND	ND	ND	ND	120.5	0
72609	2018-05-11T08:00:00	ND	ND	ND	ND	3.777473988	0.863443763	ND	ND	ND	ND	309.5	0
72610	2018-05-11T09:00:00	ND	ND	ND	ND	2.27206	2.629578732	ND	ND	ND	ND	627.6	0
72611	2018-05-11T10:00:00	ND	ND	ND	ND	1.881767485	9.301644172	ND	ND	ND	ND	640.2	0
72612	2018-05-11T11:00:00	ND	ND	ND	ND	1.65874319	25.74632311	ND	ND	ND	ND	649.1	0
72613	2018-05-11T12:00:00	ND	ND	ND	ND	1.92358454	39.95389775	ND	ND	ND	ND	600.3	0
72614	2018-05-11T13:00:00	ND	ND	ND	ND	2.718108589	54.69131288	ND	ND	ND	ND	622.1	0
72615	2018-05-11T14:00:00	ND	ND	ND	ND	1.756316319	55.75099387	ND	ND	ND	ND	649	0
72616	2018-05-11T15:00:00	ND	ND	ND	ND	2.160547853	32.79123926	ND	ND	ND	ND	505.9	0
72617	2018-05-11T16:00:00	ND	ND	ND	ND	2.174486871	31.14284663	ND	ND	ND	ND	254.6	0
72618	2018-05-11T17:00:00	ND	ND	ND	ND	2.941132883	6.142224949	ND	ND	ND	ND	130.1	0
72619	2018-05-11T18:00:00	ND	ND	ND	ND	1.602987117	4.768564417	ND	ND	ND	ND	222.2	0
72620	2018-05-11T19:00:00	ND	ND	ND	ND	0.933914233	3.218290389	ND	ND	ND	ND	5.7	0
72621	2018-05-11T20:00:00	ND	ND	ND	ND	1.184816564	2.374470348	ND	ND	ND	ND	0	0
72622	2018-05-11T21:00:00	ND	ND	ND	ND	1.212694601	1.903501022	ND	ND	ND	ND	0	0
72623	2018-05-11T22:00:00	ND	ND	ND	ND	1.881767485	0.883067485	ND	ND	ND	ND	0	0
72624	2018-05-11T23:00:00	ND	ND	ND	ND	2.522962331	0.608335378	ND	ND	ND	ND	0	0
72625	2018-05-12T00:00:00	ND	ND	ND	ND	3.888986135	0.549464213	ND	ND	ND	ND	0	0
72626	2018-05-12T01:00:00	ND	ND	ND	ND	1.770255337	0.843820041	ND	ND	ND	ND	0	0
72627	2018-05-12T02:00:00	ND	ND	ND	ND	2.88537681	1.530650307	ND	ND	ND	ND	0	0
72628	2018-05-12T03:00:00	ND	ND	ND	ND	2.648413497	1.746511247	ND	ND	ND	ND	0	0
72629	2018-05-12T04:00:00	ND	ND	ND	ND	5.018046626	0.843820041	ND	ND	ND	ND	0	0
72630	2018-05-12T05:00:00	ND	ND	ND	ND	4.906534479	0.549464213	ND	ND	ND	ND	0	0
72631	2018-05-12T06:00:00	ND	ND	ND	ND	3.512632638	0.431721881	ND	ND	ND	ND	0	0
72632	2018-05-12T07:00:00	ND	ND	ND	ND	1.937523558	0.549464213	ND	ND	ND	ND	51.3	0
72633	2018-05-12T08:00:00	ND	ND	ND	ND	3.038706012	1.491402863	ND	ND	ND	ND	325.4	0
72634	2018-05-12T09:00:00	ND	ND	ND	ND	2.021157669	6.927173824	ND	ND	ND	ND	552.1	0
72635	2018-05-12T10:00:00	ND	ND	ND	ND	3.610205767	22.97937832	ND	ND	ND	ND	648.5	0
72636	2018-05-12T11:00:00	ND	ND	ND	ND	2.467206258	29.16085072	ND	ND	ND	ND	602.2	0
72637	2018-05-12T12:00:00	ND	ND	ND	ND	2.076913742	26.98261759	ND	ND	ND	ND	620	0
72638	2018-05-12T13:00:00	ND	ND	ND	ND	3.49869362	51.59076483	ND	ND	ND	ND	649.1	0
72639	2018-05-12T14:00:00	ND	ND	ND	ND	1.630865153	73.60858078	ND	ND	ND	ND	629.6	0
72640	2018-05-12T15:00:00	ND	ND	ND	ND	1.505413988	15.22800818	ND	ND	ND	ND	419.2	0
72641	2018-05-12T16:00:00	ND	ND	ND	ND	1.616926135	8.9680409	ND	ND	ND	ND	632.3	0
72642	2018-05-12T17:00:00	ND	ND	ND	ND	1.338145767	11.44062986	ND	ND	ND	ND	483.1	0
72643	2018-05-12T18:00:00	ND	ND	ND	ND	1.366023804	6.416957055	ND	ND	ND	ND	57.6	0
72644	2018-05-12T19:00:00	ND	ND	ND	ND	1.812072393	3.434151329	ND	ND	ND	ND	0	0
72645	2018-05-12T20:00:00	ND	ND	ND	ND	2.076913742	2.138985685	ND	ND	ND	ND	0	0
72646	2018-05-12T21:00:00	ND	ND	ND	ND	1.282389693	0.883067485	ND	ND	ND	ND	0	0.25
72647	2018-05-12T22:00:00	ND	ND	ND	ND	2.815681718	0.549464213	ND	ND	ND	ND	0	0
72648	2018-05-12T23:00:00	ND	ND	ND	ND	2.202364908	0.470969325	ND	ND	ND	ND	0	0.25
72649	2018-05-13T00:00:00	ND	ND	ND	ND	1.073304417	0.470969325	ND	ND	ND	ND	0	0
72650	2018-05-13T01:00:00	ND	ND	ND	ND	1.909645521	0.451345603	ND	ND	ND	ND	0	0
72651	2018-05-13T02:00:00	ND	ND	ND	ND	1.407840859	1.118552147	ND	ND	ND	ND	0	0
72652	2018-05-13T03:00:00	ND	ND	ND	ND	2.369633129	1.157799591	ND	ND	ND	ND	0	0
72653	2018-05-13T04:00:00	ND	ND	ND	ND	2.578718405	0.41209816	ND	ND	ND	ND	0	0
72654	2018-05-13T05:00:00	ND	ND	ND	ND	2.522962331	0.31397955	ND	ND	ND	ND	0	0
72655	2018-05-13T06:00:00	ND	ND	ND	ND	3.49869362	0.451345603	ND	ND	ND	ND	0	0
72656	2018-05-13T07:00:00	ND	ND	ND	ND	2.815681718	0.451345603	ND	ND	ND	ND	59.6	0
72657	2018-05-13T08:00:00	ND	ND	ND	ND	2.495084294	0.667206544	ND	ND	ND	ND	199	0
72658	2018-05-13T09:00:00	ND	ND	ND	ND	1.951462577	2.256728016	ND	ND	ND	ND	413.7	0
72659	2018-05-13T10:00:00	ND	ND	ND	ND	2.132669816	3.198666667	ND	ND	ND	ND	460	0.51
72660	2018-05-13T11:00:00	ND	ND	ND	ND	1.965401595	7.712122699	ND	ND	ND	ND	631.6	0
72661	2018-05-13T12:00:00	ND	ND	ND	ND	1.39390184	12.7357955	ND	ND	ND	ND	647	0
72662	2018-05-13T13:00:00	ND	ND	ND	ND	2.913254847	9.713742331	ND	ND	ND	ND	197.6	2.03
72663	2018-05-13T14:00:00	ND	ND	ND	ND	2.076913742	2.766944785	ND	ND	ND	ND	165.1	0.76
72664	2018-05-13T15:00:00	ND	ND	ND	ND	2.411450184	6.397333333	ND	ND	ND	ND	390.2	0.25
72665	2018-05-13T16:00:00	ND	ND	ND	ND	2.550840368	9.419386503	ND	ND	ND	ND	364.3	0
72666	2018-05-13T17:00:00	ND	ND	ND	ND	3.387181472	15.6008589	ND	ND	ND	ND	298.4	0
72667	2018-05-13T18:00:00	ND	ND	ND	ND	2.690230552	11.49950102	ND	ND	ND	ND	78.1	0
72668	2018-05-13T19:00:00	ND	ND	ND	ND	1.979340613	9.890355828	ND	ND	ND	ND	0	0
72669	2018-05-13T20:00:00	ND	ND	ND	ND	2.341755092	5.102167689	ND	ND	ND	ND	0	0
72670	2018-05-13T21:00:00	ND	ND	ND	ND	1.644804172	0.588711656	ND	ND	ND	ND	0	0
72671	2018-05-13T22:00:00	ND	ND	ND	ND	3.331425399	0.529840491	ND	ND	ND	ND	0	0
72672	2018-05-13T23:00:00	ND	ND	ND	ND	0.989670307	0.706453988	ND	ND	ND	ND	0	0
72673	2018-05-14T00:00:00	ND	ND	ND	ND	1.867828466	0.94193865	ND	ND	ND	ND	0	0
72674	2018-05-14T01:00:00	ND	ND	ND	ND	3.178096196	1.059680982	ND	ND	ND	ND	0	0
72675	2018-05-14T02:00:00	ND	ND	ND	ND	1.268450675	0.922314928	ND	ND	ND	ND	0	0
72676	2018-05-14T03:00:00	ND	ND	ND	ND	3.540510675	0.784948875	ND	ND	ND	ND	0	0
72677	2018-05-14T04:00:00	ND	ND	ND	ND	0.892097178	0.647582822	ND	ND	ND	ND	0	0
72678	2018-05-14T05:00:00	ND	ND	ND	ND	3.010827975	0.470969325	ND	ND	ND	ND	0	0
72679	2018-05-14T06:00:00	ND	ND	ND	ND	1.602987117	0.490593047	ND	ND	ND	ND	0	0
72680	2018-05-14T07:00:00	ND	ND	ND	ND	3.052645031	0.529840491	ND	ND	ND	ND	29.3	0
72681	2018-05-14T08:00:00	ND	ND	ND	ND	2.606596442	0.6279591	ND	ND	ND	ND	157.7	0
72682	2018-05-14T09:00:00	ND	ND	ND	ND	2.481145276	3.080924335	ND	ND	ND	ND	563.3	0
72683	2018-05-14T10:00:00	ND	ND	ND	ND	ND	ND	ND	ND	ND	ND	ND	ND
72684	2018-05-14T11:00:00	ND	ND	ND	ND	ND	ND	ND	ND	ND	ND	ND	ND
72685	2018-05-14T12:00:00	ND	ND	ND	ND	ND	ND	ND	ND	ND	ND	ND	ND
72686	2018-05-14T13:00:00	ND	ND	ND	ND	ND	ND	ND	ND	ND	ND	ND	ND
72687	2018-05-14T14:00:00	ND	ND	ND	ND	ND	ND	ND	ND	ND	ND	ND	ND
72688	2018-05-14T15:00:00	ND	ND	ND	ND	ND	ND	ND	ND	ND	ND	ND	ND
72689	2018-05-14T16:00:00	ND	ND	ND	ND	ND	ND	ND	ND	ND	ND	ND	ND
72690	2018-05-14T17:00:00	ND	ND	ND	ND	ND	ND	ND	ND	ND	ND	ND	ND
72691	2018-05-14T18:00:00	ND	ND	ND	ND	ND	ND	ND	ND	ND	ND	ND	ND
72692	2018-05-14T19:00:00	ND	ND	ND	ND	ND	ND	ND	ND	ND	ND	ND	ND
72693	2018-05-14T20:00:00	ND	ND	ND	ND	ND	ND	ND	ND	ND	ND	ND	ND
72694	2018-05-14T21:00:00	ND	ND	ND	ND	ND	ND	ND	ND	ND	ND	ND	ND
72695	2018-05-14T22:00:00	ND	ND	ND	ND	ND	ND	ND	ND	ND	ND	ND	ND
72696	2018-05-14T23:00:00	ND	ND	ND	ND	ND	ND	ND	ND	ND	ND	ND	ND
72697	2018-05-15T00:00:00	ND	ND	ND	ND	ND	ND	ND	ND	ND	ND	ND	ND
72698	2018-05-15T01:00:00	ND	ND	ND	ND	ND	ND	ND	ND	ND	ND	ND	ND
72699	2018-05-15T02:00:00	ND	ND	ND	ND	ND	ND	ND	ND	ND	ND	ND	ND
72700	2018-05-15T03:00:00	ND	ND	ND	ND	ND	ND	ND	ND	ND	ND	ND	ND
72701	2018-05-15T04:00:00	ND	ND	ND	ND	ND	ND	ND	ND	ND	ND	ND	ND
72702	2018-05-15T05:00:00	ND	ND	ND	ND	ND	ND	ND	ND	ND	ND	ND	ND
72703	2018-05-15T06:00:00	ND	ND	ND	ND	ND	ND	ND	ND	ND	ND	ND	ND
72704	2018-05-15T07:00:00	ND	ND	ND	ND	ND	ND	ND	ND	ND	ND	ND	ND
72705	2018-05-15T08:00:00	ND	ND	ND	ND	3.31748638	0.706453988	ND	ND	ND	ND	171	0
72706	2018-05-15T09:00:00	ND	ND	ND	ND	3.303547362	0.686830266	ND	ND	ND	ND	392.5	0
72707	2018-05-15T10:00:00	ND	ND	ND	ND	3.721717914	2.060490798	ND	ND	ND	ND	619.4	0
72708	2018-05-15T11:00:00	ND	ND	ND	ND	3.484754601	10.36132515	ND	ND	ND	ND	648.2	0
72709	2018-05-15T12:00:00	ND	ND	ND	ND	3.052645031	26.33503476	ND	ND	ND	ND	648.5	0
72710	2018-05-15T13:00:00	ND	ND	ND	ND	2.648413497	31.41757873	ND	ND	ND	ND	649.3	0
72711	2018-05-15T14:00:00	ND	ND	ND	ND	2.174486871	29.94579959	ND	ND	ND	ND	649.2	0
72712	2018-05-15T15:00:00	ND	ND	ND	ND	0.69695092	28.55251534	ND	ND	ND	ND	621.4	0
72713	2018-05-15T16:00:00	ND	ND	ND	ND	0.87815816	24.8436319	ND	ND	ND	ND	582.8	0
72714	2018-05-15T17:00:00	ND	ND	ND	ND	1.57510908	18.17156646	ND	ND	ND	ND	448.5	0
72715	2018-05-15T18:00:00	ND	ND	ND	ND	1.324206748	11.49950102	ND	ND	ND	ND	209.3	0
72716	2018-05-15T19:00:00	ND	ND	ND	ND	1.798133374	2.629578732	ND	ND	ND	ND	0	0
72717	2018-05-15T20:00:00	ND	ND	ND	ND	1.951462577	2.021243354	ND	ND	ND	ND	0	0
72718	2018-05-15T21:00:00	ND	ND	ND	ND	2.397511166	1.118552147	ND	ND	ND	ND	0	0
72719	2018-05-15T22:00:00	ND	ND	ND	ND	3.164157178	0.608335378	ND	ND	ND	ND	0	0
72720	2018-05-15T23:00:00	ND	ND	ND	ND	1.589048098	0.961562372	ND	ND	ND	ND	0	0
72721	2018-05-16T00:00:00	ND	ND	ND	ND	1.198755583	1.157799591	ND	ND	ND	ND	0	0
72722	2018-05-16T01:00:00	ND	ND	ND	ND	3.401120491	0.510216769	ND	ND	ND	ND	0	0
72723	2018-05-16T02:00:00	ND	ND	ND	ND	2.495084294	0.706453988	ND	ND	ND	ND	0	0
72724	2018-05-16T03:00:00	ND	ND	ND	ND	2.397511166	0.549464213	ND	ND	ND	ND	0	0
72725	2018-05-16T04:00:00	ND	ND	ND	ND	1.254511656	1.471779141	ND	ND	ND	ND	0	0
72726	2018-05-16T05:00:00	ND	ND	ND	ND	3.094462086	1.275541922	ND	ND	ND	ND	0	0
72727	2018-05-16T06:00:00	ND	ND	ND	ND	1.366023804	0.529840491	ND	ND	ND	ND	0	0
72728	2018-05-16T07:00:00	ND	ND	ND	ND	1.909645521	0.647582822	ND	ND	ND	ND	204.9	0
72729	2018-05-16T08:00:00	ND	ND	ND	ND	3.415059509	1.334413088	ND	ND	ND	ND	467.5	0
72730	2018-05-16T09:00:00	57.6	ND	ND	ND	0.473926626	7.947607362	ND	ND	ND	ND	625.7	0
72731	2018-05-16T10:00:00	100	ND	ND	ND	2.369633129	16.07182822	ND	ND	ND	ND	648.9	0
72732	2018-05-16T11:00:00	120.4	ND	ND	ND	0.376353497	18.25006135	ND	ND	ND	ND	572.7	0
72733	2018-05-16T12:00:00	110.2	ND	ND	ND	3.902925153	28.74875256	ND	ND	ND	ND	632.6	0
72734	2018-05-16T13:00:00	80.9	ND	ND	ND	1.547231043	33.26220859	ND	ND	ND	ND	649.3	0
72735	2018-05-16T14:00:00	68.6	ND	ND	ND	2.132669816	52.59157464	ND	ND	ND	ND	640.4	0
72736	2018-05-16T15:00:00	68	ND	ND	ND	2.118730798	35.83291616	ND	ND	ND	ND	494.7	0
72737	2018-05-16T16:00:00	57.3	ND	ND	ND	1.198755583	20.11431493	ND	ND	ND	ND	298.5	0
72738	2018-05-16T17:00:00	45.3	ND	ND	ND	2.27206	5.00404908	ND	ND	ND	ND	178.5	0
72739	2018-05-16T18:00:00	62.7	ND	ND	ND	2.285999018	2.531460123	ND	ND	ND	ND	67.3	0
72740	2018-05-16T19:00:00	65.2	ND	ND	ND	0.710889939	4.964801636	ND	ND	ND	ND	0	0
72741	2018-05-16T20:00:00	30.3	ND	ND	ND	1.366023804	1.864253579	ND	ND	ND	ND	0	0
72742	2018-05-16T21:00:00	48.8	ND	ND	ND	2.996888957	0.902691207	ND	ND	ND	ND	0	0
72743	2018-05-16T22:00:00	80.7	ND	ND	ND	2.174486871	0.94193865	ND	ND	ND	ND	0	0
72744	2018-05-16T23:00:00	99.1	ND	ND	ND	2.550840368	0.961562372	ND	ND	ND	ND	0	0
72745	2018-05-17T00:00:00	79.7	ND	ND	ND	2.843559755	0.863443763	ND	ND	ND	ND	0	0
72746	2018-05-17T01:00:00	62.2	ND	ND	ND	3.456876564	0.72607771	ND	ND	ND	ND	0	0
72747	2018-05-17T02:00:00	48.5	ND	ND	ND	1.909645521	0.804572597	ND	ND	ND	ND	0	0
72748	2018-05-17T03:00:00	35.7	ND	ND	ND	2.035096687	1.530650307	ND	ND	ND	ND	0	0
72749	2018-05-17T04:00:00	20.6	ND	ND	ND	3.15021816	0.784948875	ND	ND	ND	ND	0	0
72750	2018-05-17T05:00:00	52.1	ND	ND	ND	4.19564454	0.6279591	ND	ND	ND	ND	0	0
72751	2018-05-17T06:00:00	72.6	ND	ND	ND	1.379962822	0.647582822	ND	ND	ND	ND	0	0
72752	2018-05-17T07:00:00	46	ND	ND	ND	1.533292025	0.843820041	ND	ND	ND	ND	109.1	0
72753	2018-05-17T08:00:00	73.2	ND	ND	ND	2.53690135	1.2559182	ND	ND	ND	ND	293.3	0
72754	2018-05-17T09:00:00	133.1	ND	ND	ND	3.080523067	2.256728016	ND	ND	ND	ND	551.1	0
72755	2018-05-17T10:00:00	114.6	ND	ND	ND	3.164157178	10.28283027	ND	ND	ND	ND	648.5	0
72756	2018-05-17T11:00:00	110.3	ND	ND	ND	2.704169571	32.75199182	ND	ND	ND	ND	649.2	0
72757	2018-05-17T12:00:00	119.4	ND	ND	ND	1.630865153	53.86711656	ND	ND	ND	ND	649.5	0
72758	2018-05-17T13:00:00	100	ND	ND	ND	1.366023804	54.18109611	ND	ND	ND	ND	650.1	0
72759	2018-05-17T14:00:00	72.9	ND	ND	ND	3.024766994	52.5523272	ND	ND	ND	ND	649.5	0
72760	2018-05-17T15:00:00	61	ND	ND	ND	1.616926135	43.99638446	ND	ND	ND	ND	604.5	0
72761	2018-05-17T16:00:00	59.4	ND	ND	ND	2.690230552	35.12646217	ND	ND	ND	ND	627.3	0
72762	2018-05-17T17:00:00	45.4	ND	ND	ND	1.296328712	10.8519182	ND	ND	ND	ND	502.5	0
72763	2018-05-17T18:00:00	33.9	ND	ND	ND	1.129060491	7.025292434	ND	ND	ND	ND	125.2	0
72764	2018-05-17T19:00:00	25.9	ND	ND	ND	1.728438282	4.631198364	ND	ND	ND	ND	0	0
72765	2018-05-17T20:00:00	30.3	ND	ND	ND	0.752706994	4.297595092	ND	ND	ND	ND	0	0
72766	2018-05-17T21:00:00	28.9	ND	ND	ND	2.439328221	3.041676892	ND	ND	ND	ND	0	0
72767	2018-05-17T22:00:00	45.4	ND	ND	ND	1.31026773	1.648392638	ND	ND	ND	ND	0	0
72768	2018-05-17T23:00:00	34.5	ND	ND	ND	1.867828466	2.413717791	ND	ND	ND	ND	0	0
72769	2018-05-18T00:00:00	34.1	ND	ND	ND	3.944742209	0.902691207	ND	ND	ND	ND	0	0
72770	2018-05-18T01:00:00	47.9	ND	ND	ND	3.303547362	1.177423313	ND	ND	ND	ND	0	0
72771	2018-05-18T02:00:00	25.9	ND	ND	ND	2.927193865	4.120981595	ND	ND	ND	ND	0	0
72772	2018-05-18T03:00:00	23.5	ND	ND	ND	1.672682209	2.001619632	ND	ND	ND	ND	0	0
72773	2018-05-18T04:00:00	18.3	ND	ND	ND	3.094462086	1.883877301	ND	ND	ND	ND	0	0.25
72774	2018-05-18T05:00:00	23.6	ND	ND	ND	3.094462086	2.256728016	ND	ND	ND	ND	0	0
72775	2018-05-18T06:00:00	20.9	ND	ND	ND	1.547231043	1.314789366	ND	ND	ND	ND	0	0
72776	2018-05-18T07:00:00	49	ND	ND	ND	1.686621227	1.118552147	ND	ND	ND	ND	68.1	0
72777	2018-05-18T08:00:00	95.1	ND	ND	ND	2.174486871	1.373660532	ND	ND	ND	ND	305.6	0
72778	2018-05-18T09:00:00	106.8	ND	ND	ND	2.955071902	3.100548057	ND	ND	ND	ND	600.8	0
72779	2018-05-18T10:00:00	99.9	ND	ND	ND	1.463596933	12.89278528	ND	ND	ND	ND	648.4	0
72780	2018-05-18T11:00:00	95.8	ND	ND	ND	1.616926135	31.61381595	ND	ND	ND	ND	648.7	0
72781	2018-05-18T12:00:00	82.4	ND	ND	ND	1.937523558	29.51407771	ND	ND	ND	ND	649.1	0
72782	2018-05-18T13:00:00	59.5	ND	ND	ND	3.192035215	33.1837137	ND	ND	ND	ND	649.7	0
72783	2018-05-18T14:00:00	48.1	ND	ND	ND	0.906036196	35.08721472	ND	ND	ND	ND	649.8	0
72784	2018-05-18T15:00:00	48.5	ND	ND	ND	1.616926135	33.39957464	ND	ND	ND	ND	512.5	0
72785	2018-05-18T16:00:00	68.5	ND	ND	ND	1.826011411	15.11026585	ND	ND	ND	ND	21.4	52.58
72786	2018-05-18T17:00:00	11	ND	ND	ND	1.324206748	1.726887526	ND	ND	ND	ND	11.6	9.91
72787	2018-05-18T18:00:00	23.7	ND	ND	ND	1.589048098	0.784948875	ND	ND	ND	ND	5.4	3.56
72788	2018-05-18T19:00:00	40.5	ND	ND	ND	2.648413497	0.863443763	ND	ND	ND	ND	0	6.86
72789	2018-05-18T20:00:00	29.2	ND	ND	ND	1.965401595	0.784948875	ND	ND	ND	ND	0	2.29
72790	2018-05-18T21:00:00	25.2	ND	ND	ND	1.700560245	0.863443763	ND	ND	ND	ND	0	0.25
72791	2018-05-18T22:00:00	23.2	ND	ND	ND	1.630865153	0.843820041	ND	ND	ND	ND	0	0
72792	2018-05-18T23:00:00	25.2	ND	ND	ND	1.296328712	0.745701431	ND	ND	ND	ND	0	0
72793	2018-05-19T00:00:00	30.7	ND	ND	ND	1.477535951	0.804572597	ND	ND	ND	ND	0	0
72794	2018-05-19T01:00:00	29.9	ND	ND	ND	1.282389693	0.72607771	ND	ND	ND	ND	0	0
72795	2018-05-19T02:00:00	39	ND	ND	ND	2.801742699	0.863443763	ND	ND	ND	ND	0	0
72796	2018-05-19T03:00:00	62.1	ND	ND	ND	2.941132883	0.902691207	ND	ND	ND	ND	0	0
72797	2018-05-19T04:00:00	69.4	ND	ND	ND	3.540510675	0.883067485	ND	ND	ND	ND	0	0
72798	2018-05-19T05:00:00	59.4	ND	ND	ND	7.220411534	0.824196319	ND	ND	ND	ND	0	0
72799	2018-05-19T06:00:00	73.5	ND	ND	ND	5.282887975	0.961562372	ND	ND	ND	ND	0	0
72800	2018-05-19T07:00:00	108.4	ND	ND	ND	4.558059018	0.902691207	ND	ND	ND	ND	39.8	0
72801	2018-05-19T08:00:00	87	ND	ND	ND	4.042315337	0.824196319	ND	ND	ND	ND	133.1	0
72802	2018-05-19T09:00:00	84.8	ND	ND	ND	2.96901092	0.981186094	ND	ND	ND	ND	363.7	0
72803	2018-05-19T10:00:00	109	ND	ND	ND	3.247791288	2.413717791	ND	ND	ND	ND	639.3	0
72804	2018-05-19T11:00:00	101.4	ND	ND	ND	3.178096196	17.73984458	ND	ND	ND	ND	649	0
72805	2018-05-19T12:00:00	99.4	ND	ND	ND	2.899315828	38.52136605	ND	ND	ND	ND	649.5	0
72806	2018-05-19T13:00:00	76	ND	ND	ND	2.690230552	44.82058078	ND	ND	ND	ND	648.6	0
72807	2018-05-19T14:00:00	72.2	ND	ND	ND	1.407840859	48.7845726	ND	ND	ND	ND	649.4	0
72808	2018-05-19T15:00:00	68.4	ND	ND	ND	2.982949939	63.67897751	ND	ND	ND	ND	622.4	0
72809	2018-05-19T16:00:00	79.5	ND	ND	ND	2.62053546	54.69131288	ND	ND	ND	ND	473.2	0
72810	2018-05-19T17:00:00	42.7	ND	ND	ND	1.770255337	8.497071575	ND	ND	ND	ND	584.3	0
72811	2018-05-19T18:00:00	23.5	ND	ND	ND	2.383572147	4.984425358	ND	ND	ND	ND	51.8	0
72812	2018-05-19T19:00:00	12.6	ND	ND	ND	0.153329202	3.96399182	ND	ND	ND	ND	0	0
72813	2018-05-19T20:00:00	28.4	ND	ND	ND	2.062974724	8.281210634	ND	ND	ND	ND	0	0
72814	2018-05-19T21:00:00	28.8	ND	ND	ND	1.463596933	2.354846626	ND	ND	ND	ND	0	0
72815	2018-05-19T22:00:00	28	ND	ND	ND	0.919975215	1.726887526	ND	ND	ND	ND	0	0
72816	2018-05-19T23:00:00	39	ND	ND	ND	2.411450184	1.530650307	ND	ND	ND	ND	0	0
72817	2018-05-20T00:00:00	40.5	ND	ND	ND	2.202364908	0.922314928	ND	ND	ND	ND	0	0
72818	2018-05-20T01:00:00	53.6	ND	ND	ND	1.142999509	1.236294479	ND	ND	ND	ND	0	0
72819	2018-05-20T02:00:00	39.8	ND	ND	ND	2.146608834	0.784948875	ND	ND	ND	ND	0	0
72820	2018-05-20T03:00:00	50.3	ND	ND	ND	2.244181963	1.059680982	ND	ND	ND	ND	0	0
72821	2018-05-20T04:00:00	34.6	ND	ND	ND	2.35569411	0.72607771	ND	ND	ND	ND	0	0
72822	2018-05-20T05:00:00	40.3	ND	ND	ND	0.87815816	0.706453988	ND	ND	ND	ND	0	0
72823	2018-05-20T06:00:00	48.1	ND	ND	ND	1.533292025	0.667206544	ND	ND	ND	ND	0	0
72824	2018-05-20T07:00:00	42.2	ND	ND	ND	2.982949939	0.686830266	ND	ND	ND	ND	41	0
72825	2018-05-20T08:00:00	34.4	ND	ND	ND	2.118730798	0.824196319	ND	ND	ND	ND	309.4	0
72826	2018-05-20T09:00:00	72.2	ND	ND	ND	3.652022822	6.809431493	ND	ND	ND	ND	629.7	0
72827	2018-05-20T10:00:00	68.1	ND	ND	ND	3.373242454	13.3637546	ND	ND	ND	ND	537	0
72828	2018-05-20T11:00:00	61.6	ND	ND	ND	1.561170061	22.64577505	ND	ND	ND	ND	648.5	0
72829	2018-05-20T12:00:00	44.6	ND	ND	ND	2.021157669	35.75442127	ND	ND	ND	ND	621.7	0
72830	2018-05-20T13:00:00	47.6	ND	ND	ND	2.634474479	35.6955501	ND	ND	ND	ND	648.8	0
72831	2018-05-20T14:00:00	26.6	ND	ND	ND	2.341755092	31.28021268	ND	ND	ND	ND	637.4	0
72832	2018-05-20T15:00:00	29.5	ND	ND	ND	1.714499264	34.18452352	ND	ND	ND	ND	641.1	0
72833	2018-05-20T16:00:00	26.1	ND	ND	ND	1.826011411	28.65063395	ND	ND	ND	ND	613	0
72834	2018-05-20T17:00:00	22.8	ND	ND	ND	1.756316319	18.30893252	ND	ND	ND	ND	535.3	0
72835	2018-05-20T18:00:00	7.2	ND	ND	ND	2.341755092	11.89197546	ND	ND	ND	ND	112.9	0
72836	2018-05-20T19:00:00	6.5	ND	ND	ND	2.773864663	11.44062986	ND	ND	ND	ND	0	0
72837	2018-05-20T20:00:00	8.4	ND	ND	ND	0.627255828	10.96966053	ND	ND	ND	ND	0	0
72838	2018-05-20T21:00:00	8.2	ND	ND	ND	1.268450675	12.42181595	ND	ND	ND	ND	0	0
72839	2018-05-20T22:00:00	13.2	ND	ND	ND	2.202364908	10.73417587	ND	ND	ND	ND	0	0
72840	2018-05-20T23:00:00	18.8	ND	ND	ND	2.88537681	3.944368098	ND	ND	ND	ND	0	0
72841	2018-05-21T00:00:00	30.9	ND	ND	ND	5.450156196	7.339271984	ND	ND	ND	ND	0	0
72842	2018-05-21T01:00:00	29	ND	ND	ND	2.773864663	4.827435583	ND	ND	ND	ND	0	0
72843	2018-05-21T02:00:00	33	ND	ND	ND	3.735656933	3.414527607	ND	ND	ND	ND	0	0
72844	2018-05-21T03:00:00	21.3	ND	ND	ND	1.421779877	4.631198364	ND	ND	ND	ND	0	0
72845	2018-05-21T04:00:00	23	ND	ND	ND	0.655133865	2.021243354	ND	ND	ND	ND	0	0
72846	2018-05-21T05:00:00	26.3	ND	ND	ND	3.693839877	1.275541922	ND	ND	ND	ND	0	0
72847	2018-05-21T06:00:00	23.4	ND	ND	ND	2.174486871	0.981186094	ND	ND	ND	ND	0	0
72848	2018-05-21T07:00:00	40.9	ND	ND	ND	2.927193865	0.843820041	ND	ND	ND	ND	155.6	0
72849	2018-05-21T08:00:00	77.5	ND	ND	ND	1.756316319	1.236294479	ND	ND	ND	ND	256.7	0
72850	2018-05-21T09:00:00	106	ND	ND	ND	3.387181472	1.373660532	ND	ND	ND	ND	228.1	0.25
72851	2018-05-21T10:00:00	91.2	ND	ND	ND	2.759925644	3.434151329	ND	ND	ND	ND	523.8	0
72852	2018-05-21T11:00:00	87.4	ND	ND	ND	3.373242454	6.88792638	ND	ND	ND	ND	622.7	0
72853	2018-05-21T12:00:00	66.5	ND	ND	ND	1.407840859	10.06696933	ND	ND	ND	ND	642.6	0
72854	2018-05-21T13:00:00	60.6	ND	ND	ND	3.080523067	15.67935378	ND	ND	ND	ND	644.2	0
72855	2018-05-21T14:00:00	58.9	ND	ND	ND	0.278780368	11.24439264	ND	ND	ND	ND	280	0.76
72856	2018-05-21T15:00:00	51	ND	ND	ND	2.397511166	5.357276074	ND	ND	ND	ND	435.9	3.05
72857	2018-05-21T16:00:00	43.9	ND	ND	ND	2.216303926	8.497071575	ND	ND	ND	ND	450.7	0
72858	2018-05-21T17:00:00	62.5	ND	ND	ND	1.366023804	10.71455215	ND	ND	ND	ND	237.4	0
72859	2018-05-21T18:00:00	60.9	ND	ND	ND	1.463596933	3.708883436	ND	ND	ND	ND	45.1	0.76
72860	2018-05-21T19:00:00	50.2	ND	ND	ND	2.927193865	1.2559182	ND	ND	ND	ND	0	0
72861	2018-05-21T20:00:00	44.7	ND	ND	ND	1.240572638	1.020433538	ND	ND	ND	ND	0	0
72862	2018-05-21T21:00:00	40.5	ND	ND	ND	1.979340613	0.863443763	ND	ND	ND	ND	0	0
72863	2018-05-21T22:00:00	44.1	ND	ND	ND	2.00721865	0.608335378	ND	ND	ND	ND	0	0
72864	2018-05-21T23:00:00	33.4	ND	ND	ND	0.850280123	0.569087935	ND	ND	ND	ND	0	0.25
72865	2018-05-22T00:00:00	26.2	ND	ND	ND	1.881767485	0.706453988	ND	ND	ND	ND	0	0
72866	2018-05-22T01:00:00	22.7	ND	ND	ND	2.578718405	1.000809816	ND	ND	ND	ND	0	0
72867	2018-05-22T02:00:00	34.4	ND	ND	ND	4.000498282	0.843820041	ND	ND	ND	ND	0	0
72868	2018-05-22T03:00:00	64	ND	ND	ND	2.369633129	0.647582822	ND	ND	ND	ND	0	0
72869	2018-05-22T04:00:00	60.7	ND	ND	ND	4.307156687	0.706453988	ND	ND	ND	ND	0	0
72870	2018-05-22T05:00:00	54	ND	ND	ND	3.888986135	0.608335378	ND	ND	ND	ND	0	0
72871	2018-05-22T06:00:00	66.1	ND	ND	ND	3.010827975	0.667206544	ND	ND	ND	ND	0	0
72872	2018-05-22T07:00:00	82.3	ND	ND	ND	3.49869362	0.686830266	ND	ND	ND	ND	125	0
72873	2018-05-22T08:00:00	ND	ND	ND	ND	3.610205767	0.902691207	ND	ND	ND	ND	342	0
72874	2018-05-22T09:00:00	ND	ND	ND	ND	3.303547362	1.000809816	ND	ND	ND	ND	336.7	0
72875	2018-05-22T10:00:00	190.7	ND	ND	ND	1.338145767	42.68159509	ND	ND	ND	ND	598.2	0
72876	2018-05-22T11:00:00	100	ND	ND	ND	ND	63.03139468	ND	ND	ND	ND	612.2	0
72877	2018-05-22T12:00:00	92.5	ND	ND	ND	1.853889448	44.58509611	ND	ND	ND	ND	648.6	0
72878	2018-05-22T13:00:00	98.2	ND	ND	ND	2.481145276	53.41577096	ND	ND	ND	ND	649.6	0
72879	2018-05-22T14:00:00	74.2	ND	ND	ND	1.909645521	49.8638773	ND	ND	ND	ND	649.5	0
72880	2018-05-22T15:00:00	75.7	ND	ND	ND	0.515743681	46.07649898	ND	ND	ND	ND	638.9	0
72881	2018-05-22T16:00:00	61.7	ND	ND	ND	2.090852761	23.52884254	ND	ND	ND	ND	536.5	0
72882	2018-05-22T17:00:00	47.1	ND	ND	ND	2.230242945	11.69573824	ND	ND	ND	ND	357.7	0
72883	2018-05-22T18:00:00	27.3	ND	ND	ND	0.794524049	4.395713701	ND	ND	ND	ND	65.5	0
72884	2018-05-22T19:00:00	24.8	ND	ND	ND	3.108401104	2.060490798	ND	ND	ND	ND	0	0
72885	2018-05-22T20:00:00	23.2	ND	ND	ND	1.839950429	5.082543967	ND	ND	ND	ND	0	0
72886	2018-05-22T21:00:00	26.6	ND	ND	ND	1.129060491	5.259157464	ND	ND	ND	ND	0	0
72887	2018-05-22T22:00:00	42.3	ND	ND	ND	1.798133374	1.452155419	ND	ND	ND	ND	0	0
72888	2018-05-22T23:00:00	62.5	ND	ND	ND	2.745986626	1.35403681	ND	ND	ND	ND	0	0
72889	2018-05-23T00:00:00	51.9	ND	ND	ND	3.875047117	0.902691207	ND	ND	ND	ND	0	0
72890	2018-05-23T01:00:00	32.9	ND	ND	ND	2.829620736	1.66801636	ND	ND	ND	ND	0	0
72891	2018-05-23T02:00:00	33.2	ND	ND	ND	3.638083804	1.295165644	ND	ND	ND	ND	0	0
72892	2018-05-23T03:00:00	34.3	ND	ND	ND	2.690230552	1.138175869	ND	ND	ND	ND	0	0
72893	2018-05-23T04:00:00	38.3	ND	ND	ND	2.718108589	1.000809816	ND	ND	ND	ND	0	0
72894	2018-05-23T05:00:00	43.7	ND	ND	ND	2.996888957	0.961562372	ND	ND	ND	ND	0	0
72895	2018-05-23T06:00:00	56.3	ND	ND	ND	3.010827975	0.922314928	ND	ND	ND	ND	0	0
72896	2018-05-23T07:00:00	87.3	ND	ND	ND	3.359303436	1.079304703	ND	ND	ND	ND	84.3	0
72897	2018-05-23T08:00:00	121	ND	ND	ND	2.35569411	1.746511247	ND	ND	ND	ND	411.6	0
72898	2018-05-23T09:00:00	115.1	ND	ND	ND	4.348973742	4.886306748	ND	ND	ND	ND	624	0
72899	2018-05-23T10:00:00	83.4	ND	ND	ND	2.843559755	13.22638855	ND	ND	ND	ND	642.7	0
72900	2018-05-23T11:00:00	53.6	ND	ND	ND	1.909645521	24.96137423	ND	ND	ND	ND	648.9	0
72901	2018-05-23T12:00:00	46.3	ND	ND	ND	1.839950429	32.00629039	ND	ND	ND	ND	649.2	0
72902	2018-05-23T13:00:00	42.4	ND	ND	ND	2.773864663	30.69150102	ND	ND	ND	ND	649	0
72903	2018-05-23T14:00:00	36.7	ND	ND	ND	0.571499755	31.31946012	ND	ND	ND	ND	648.9	0
72904	2018-05-23T15:00:00	61.2	ND	ND	ND	2.829620736	27.13960736	ND	ND	ND	ND	481	0
72905	2018-05-23T16:00:00	54.2	ND	ND	ND	3.136279141	10.0473456	ND	ND	ND	ND	127.8	7.37
72906	2018-05-23T17:00:00	34	ND	ND	ND	2.606596442	4.27797137	ND	ND	ND	ND	67.9	0.51
72907	2018-05-23T18:00:00	33.4	ND	ND	ND	3.024766994	1.785758691	ND	ND	ND	ND	39.8	0
72908	2018-05-23T19:00:00	48.1	ND	ND	ND	0.641194847	1.098928425	ND	ND	ND	ND	0	0
72909	2018-05-23T20:00:00	82.4	ND	ND	ND	0.641194847	1.000809816	ND	ND	ND	ND	0	0
72910	2018-05-23T21:00:00	62.1	ND	ND	ND	3.122340123	0.804572597	ND	ND	ND	ND	0	0
72911	2018-05-23T22:00:00	56.2	ND	ND	ND	1.39390184	0.922314928	ND	ND	ND	ND	0	0
72912	2018-05-23T23:00:00	48.5	ND	ND	ND	1.672682209	0.6279591	ND	ND	ND	ND	0	0
72913	2018-05-24T00:00:00	25.3	ND	ND	ND	1.700560245	0.588711656	ND	ND	ND	ND	0	0
72914	2018-05-24T01:00:00	24.2	ND	ND	ND	3.526571656	0.745701431	ND	ND	ND	ND	0	0
72915	2018-05-24T02:00:00	41.3	ND	ND	ND	3.66596184	0.961562372	ND	ND	ND	ND	0	0
72916	2018-05-24T03:00:00	46.4	ND	ND	ND	1.449657914	0.863443763	ND	ND	ND	ND	0	0
72917	2018-05-24T04:00:00	52.2	ND	ND	ND	1.92358454	0.843820041	ND	ND	ND	ND	0	0
72918	2018-05-24T05:00:00	40.5	ND	ND	ND	2.216303926	1.000809816	ND	ND	ND	ND	0	0
72919	2018-05-24T06:00:00	16.5	ND	ND	ND	1.965401595	0.765325153	ND	ND	ND	ND	0	0
72920	2018-05-24T07:00:00	44	ND	ND	ND	2.773864663	0.784948875	ND	ND	ND	ND	70.2	0
72921	2018-05-24T08:00:00	73.2	ND	ND	ND	2.787803681	1.138175869	ND	ND	ND	ND	276.8	0
72922	2018-05-24T09:00:00	116.8	ND	ND	ND	3.108401104	2.472588957	ND	ND	ND	ND	506.8	0
72923	2018-05-24T10:00:00	120	ND	ND	ND	2.202364908	11.95084663	ND	ND	ND	ND	648.7	0
72924	2018-05-24T11:00:00	100.9	ND	ND	ND	2.495084294	33.32107975	ND	ND	ND	ND	646.1	0
72925	2018-05-24T12:00:00	81.7	ND	ND	ND	3.512632638	47.03806135	ND	ND	ND	ND	649	0
72926	2018-05-24T13:00:00	85.1	ND	ND	ND	1.839950429	56.06497342	ND	ND	ND	ND	625.1	0
72927	2018-05-24T14:00:00	73.6	ND	ND	ND	0.864219141	42.38723926	ND	ND	ND	ND	649.1	0
72928	2018-05-24T15:00:00	58.4	ND	ND	ND	2.648413497	49.4125317	ND	ND	ND	ND	640.8	0
72929	2018-05-24T16:00:00	45.2	ND	ND	ND	2.049035706	41.66116155	ND	ND	ND	ND	617.7	0
72930	2018-05-24T17:00:00	46.8	ND	ND	ND	1.505413988	24.01943558	ND	ND	ND	ND	280.3	0
72931	2018-05-24T18:00:00	44.5	ND	ND	ND	1.951462577	9.752989775	ND	ND	ND	ND	127.7	0
72932	2018-05-24T19:00:00	37.7	ND	ND	ND	1.993279632	3.983615542	ND	ND	ND	ND	0	0
72933	2018-05-24T20:00:00	25.9	ND	ND	ND	2.578718405	2.178233129	ND	ND	ND	ND	0	0
72934	2018-05-24T21:00:00	26.6	ND	ND	ND	2.244181963	1.177423313	ND	ND	ND	ND	0	0
72935	2018-05-24T22:00:00	53.6	ND	ND	ND	2.718108589	0.804572597	ND	ND	ND	ND	0	0
72936	2018-05-24T23:00:00	61.8	ND	ND	ND	2.857498773	0.863443763	ND	ND	ND	ND	0	0
72937	2018-05-25T00:00:00	68.1	ND	ND	ND	2.927193865	0.804572597	ND	ND	ND	ND	0	0
72938	2018-05-25T01:00:00	44	ND	ND	ND	1.352084785	0.981186094	ND	ND	ND	ND	0	0
72939	2018-05-25T02:00:00	25.9	ND	ND	ND	2.369633129	0.843820041	ND	ND	ND	ND	0	0
72940	2018-05-25T03:00:00	21.7	ND	ND	ND	1.379962822	1.059680982	ND	ND	ND	ND	0	0
72941	2018-05-25T04:00:00	25	ND	ND	ND	1.240572638	0.765325153	ND	ND	ND	ND	0	0
72942	2018-05-25T05:00:00	23.6	ND	ND	ND	3.303547362	0.608335378	ND	ND	ND	ND	0	0
72943	2018-05-25T06:00:00	41.1	ND	ND	ND	2.090852761	0.6279591	ND	ND	ND	ND	0	0
72944	2018-05-25T07:00:00	73.8	ND	ND	ND	2.062974724	0.94193865	ND	ND	ND	ND	34.7	0
72945	2018-05-25T08:00:00	103.4	ND	ND	ND	2.439328221	1.177423313	ND	ND	ND	ND	158	0
72946	2018-05-25T09:00:00	126.1	ND	ND	ND	3.610205767	3.571517382	ND	ND	ND	ND	549.4	0
72947	2018-05-25T10:00:00	100.1	ND	ND	ND	2.062974724	20.40867076	ND	ND	ND	ND	646.1	0
72948	2018-05-25T11:00:00	83.5	ND	ND	ND	2.118730798	40.73884663	ND	ND	ND	ND	644.4	0
72949	2018-05-25T12:00:00	80.5	ND	ND	ND	2.397511166	55.5155092	ND	ND	ND	ND	649.6	0
72950	2018-05-25T13:00:00	73.4	ND	ND	ND	3.122340123	48.86306748	ND	ND	ND	ND	649.5	0
72951	2018-05-25T14:00:00	80.3	ND	ND	ND	2.927193865	73.19648262	ND	ND	ND	ND	649.8	0
72952	2018-05-25T15:00:00	74.7	ND	ND	ND	0.738767975	50.92355828	ND	ND	ND	ND	502.1	0
72953	2018-05-25T16:00:00	85.8	ND	ND	ND	3.638083804	34.57699796	ND	ND	ND	ND	141.4	0
72954	2018-05-25T17:00:00	53.1	ND	ND	ND	2.634474479	5.730126789	ND	ND	ND	ND	34.4	0
72955	2018-05-25T18:00:00	39.5	ND	ND	ND	1.22663362	7.064539877	ND	ND	ND	ND	17.1	0
72956	2018-05-25T19:00:00	28.5	ND	ND	ND	2.397511166	8.398952965	ND	ND	ND	ND	0	5.59
72957	2018-05-25T20:00:00	17.5	ND	ND	ND	1.686621227	2.021243354	ND	ND	ND	ND	0	8.38
72958	2018-05-25T21:00:00	22.9	ND	ND	ND	2.662352515	0.745701431	ND	ND	ND	ND	0	1.02
72959	2018-05-25T22:00:00	40	ND	ND	ND	2.216303926	0.765325153	ND	ND	ND	ND	0	0
72960	2018-05-25T23:00:00	40.1	ND	ND	ND	3.164157178	0.686830266	ND	ND	ND	ND	0	0.25
72961	2018-05-26T00:00:00	26.8	ND	ND	ND	1.672682209	0.686830266	ND	ND	ND	ND	0	0
72962	2018-05-26T01:00:00	18.8	ND	ND	ND	2.299938037	2.099738241	ND	ND	ND	ND	0	0
72963	2018-05-26T02:00:00	10.6	ND	ND	ND	3.066584049	1.020433538	ND	ND	ND	ND	0	0
72964	2018-05-26T03:00:00	30	ND	ND	ND	2.411450184	0.588711656	ND	ND	ND	ND	0	0
72965	2018-05-26T04:00:00	54.6	ND	ND	ND	3.833230061	0.804572597	ND	ND	ND	ND	0	0
72966	2018-05-26T05:00:00	48	ND	ND	ND	2.522962331	0.706453988	ND	ND	ND	ND	0	0
72967	2018-05-26T06:00:00	34.7	ND	ND	ND	2.104791779	0.706453988	ND	ND	ND	ND	0	0
72968	2018-05-26T07:00:00	57.4	ND	ND	ND	2.299938037	0.863443763	ND	ND	ND	ND	83.3	0
72969	2018-05-26T08:00:00	109.2	ND	ND	ND	2.285999018	1.118552147	ND	ND	ND	ND	458.6	0
72970	2018-05-26T09:00:00	140.5	ND	ND	ND	3.136279141	5.573137014	ND	ND	ND	ND	609.2	0
72971	2018-05-26T10:00:00	134.3	ND	ND	ND	2.801742699	6.338462168	ND	ND	ND	ND	639.2	0
72972	2018-05-26T11:00:00	116.4	ND	ND	ND	0.599377791	11.10702658	ND	ND	ND	ND	648.6	0
72973	2018-05-26T12:00:00	90.3	ND	ND	ND	1.505413988	30.10278937	ND	ND	ND	ND	649	0
72974	2018-05-26T13:00:00	69.2	ND	ND	ND	0.738767975	50.92355828	ND	ND	ND	ND	649.6	0
72975	2018-05-26T14:00:00	76	ND	ND	ND	0.864219141	51.72813088	ND	ND	ND	ND	649.2	0
72976	2018-05-26T15:00:00	67.4	ND	ND	ND	2.522962331	35.95065849	ND	ND	ND	ND	562.5	0
72977	2018-05-26T16:00:00	48.3	ND	ND	ND	1.547231043	28.74875256	ND	ND	ND	ND	599.8	0
72978	2018-05-26T17:00:00	24.5	ND	ND	ND	0.529682699	6.063730061	ND	ND	ND	ND	479	0
72979	2018-05-26T18:00:00	15.8	ND	ND	ND	3.568388712	4.670445808	ND	ND	ND	ND	219.8	0
72980	2018-05-26T19:00:00	12	ND	ND	ND	1.017548344	5.21991002	ND	ND	ND	ND	0	5.59
72981	2018-05-26T20:00:00	2.8	ND	ND	ND	0.850280123	3.551893661	ND	ND	ND	ND	0	0.25
72982	2018-05-26T21:00:00	14.3	ND	ND	ND	3.902925153	1.609145194	ND	ND	ND	ND	0	11.43
72983	2018-05-26T22:00:00	19.3	ND	ND	ND	2.244181963	0.667206544	ND	ND	ND	ND	0	0
72984	2018-05-26T23:00:00	33.4	ND	ND	ND	2.467206258	0.706453988	ND	ND	ND	ND	0	0.25
72985	2018-05-27T00:00:00	40.3	ND	ND	ND	2.495084294	0.72607771	ND	ND	ND	ND	0	0
72986	2018-05-27T01:00:00	23.4	ND	ND	ND	2.815681718	0.72607771	ND	ND	ND	ND	0	0
72987	2018-05-27T02:00:00	22.7	ND	ND	ND	2.857498773	0.784948875	ND	ND	ND	ND	0	0
72988	2018-05-27T03:00:00	32.1	ND	ND	ND	3.958681227	0.765325153	ND	ND	ND	ND	0	0
72989	2018-05-27T04:00:00	23.9	ND	ND	ND	2.062974724	0.686830266	ND	ND	ND	ND	0	0
72990	2018-05-27T05:00:00	21.5	ND	ND	ND	2.299938037	0.706453988	ND	ND	ND	ND	0	0
72991	2018-05-27T06:00:00	22.2	ND	ND	ND	1.951462577	0.706453988	ND	ND	ND	ND	0	0
72992	2018-05-27T07:00:00	46.8	ND	ND	ND	2.634474479	0.883067485	ND	ND	ND	ND	72.2	0
72993	2018-05-27T08:00:00	43.5	ND	ND	ND	1.519353006	1.609145194	ND	ND	ND	ND	533.3	0
72994	2018-05-27T09:00:00	66.3	ND	ND	ND	2.871437791	9.674494888	ND	ND	ND	ND	590.7	0
72995	2018-05-27T10:00:00	56.2	ND	ND	ND	2.285999018	20.91888753	ND	ND	ND	ND	611	0
72996	2018-05-27T11:00:00	43.2	ND	ND	ND	2.425389202	29.72993865	ND	ND	ND	ND	623	0
72997	2018-05-27T12:00:00	49.5	ND	ND	ND	2.662352515	40.73884663	ND	ND	ND	ND	623.8	0
72998	2018-05-27T13:00:00	44.4	ND	ND	ND	1.812072393	46.15499387	ND	ND	ND	ND	634.8	0
72999	2018-05-27T14:00:00	37.9	ND	ND	ND	2.383572147	41.77890389	ND	ND	ND	ND	644.1	0
73000	2018-05-27T15:00:00	47.7	ND	ND	ND	2.021157669	29.27859305	ND	ND	ND	ND	487.1	0
73001	2018-05-27T16:00:00	34.7	ND	ND	ND	2.383572147	17.05301431	ND	ND	ND	ND	288.1	0
73002	2018-05-27T17:00:00	12.8	ND	ND	ND	2.871437791	7.790617587	ND	ND	ND	ND	340.5	0
73003	2018-05-27T18:00:00	3.1	ND	ND	ND	2.495084294	8.673685072	ND	ND	ND	ND	138.1	0
73004	2018-05-27T19:00:00	2.5	ND	ND	ND	1.728438282	8.261586912	ND	ND	ND	ND	0	0
73005	2018-05-27T20:00:00	10.6	ND	ND	ND	3.624144785	9.380139059	ND	ND	ND	ND	0	0
73006	2018-05-27T21:00:00	25.5	ND	ND	ND	2.425389202	5.31802863	ND	ND	ND	ND	0	0
73007	2018-05-27T22:00:00	16.9	ND	ND	ND	2.871437791	5.062920245	ND	ND	ND	ND	0	0
73008	2018-05-27T23:00:00	20.6	ND	ND	ND	3.052645031	5.376899796	ND	ND	ND	ND	0	0
73009	2018-05-28T00:00:00	10.9	ND	ND	ND	2.285999018	4.336842536	ND	ND	ND	ND	0	0
73010	2018-05-28T01:00:00	13.1	ND	ND	ND	2.578718405	3.080924335	ND	ND	ND	ND	0	0
73011	2018-05-28T02:00:00	9.2	ND	ND	ND	2.467206258	2.60995501	ND	ND	ND	ND	0	0.76
73012	2018-05-28T03:00:00	15.6	ND	ND	ND	3.763534969	2.433341513	ND	ND	ND	ND	0	4.83
73013	2018-05-28T04:00:00	11.3	ND	ND	ND	4.223522577	1.530650307	ND	ND	ND	ND	0	11.94
73014	2018-05-28T05:00:00	16.1	ND	ND	ND	2.676291534	1.079304703	ND	ND	ND	ND	0	8.89
73015	2018-05-28T06:00:00	2.2	ND	ND	ND	3.526571656	0.647582822	ND	ND	ND	ND	0	6.35
73016	2018-05-28T07:00:00	7.5	ND	ND	ND	1.812072393	0.922314928	ND	ND	ND	ND	34.7	0.51
73017	2018-05-28T08:00:00	16.7	ND	ND	ND	2.327816074	0.824196319	ND	ND	ND	ND	156.5	4.06
73018	2018-05-28T09:00:00	20.1	ND	ND	ND	2.244181963	0.863443763	ND	ND	ND	ND	531.5	0.76
73019	2018-05-28T10:00:00	40.5	ND	ND	ND	1.937523558	3.689259714	ND	ND	ND	ND	647.5	0
73020	2018-05-28T11:00:00	37.3	ND	ND	ND	2.076913742	12.04896524	ND	ND	ND	ND	645.8	0
73021	2018-05-28T12:00:00	43.6	ND	ND	ND	1.993279632	18.60328834	ND	ND	ND	ND	648.7	0
73022	2018-05-28T13:00:00	47.4	ND	ND	ND	2.913254847	27.55170552	ND	ND	ND	ND	649	0
73023	2018-05-28T14:00:00	41.7	ND	ND	ND	1.65874319	39.56142331	ND	ND	ND	ND	645.4	0
73024	2018-05-28T15:00:00	48.2	ND	ND	ND	1.798133374	36.59824131	ND	ND	ND	ND	487.1	0
73025	2018-05-28T16:00:00	64.3	ND	ND	ND	2.522962331	14.81591002	ND	ND	ND	ND	162.3	0
73026	2018-05-28T17:00:00	59.2	ND	ND	ND	0.975731288	5.062920245	ND	ND	ND	ND	27.8	0
73027	2018-05-28T18:00:00	35.7	ND	ND	ND	0.26484135	1.138175869	ND	ND	ND	ND	60.1	0
73028	2018-05-28T19:00:00	42.7	ND	ND	ND	2.313877055	0.804572597	ND	ND	ND	ND	0	0
73029	2018-05-28T20:00:00	54.6	ND	ND	ND	1.812072393	0.6279591	ND	ND	ND	ND	0	0
73030	2018-05-28T21:00:00	64.9	ND	ND	ND	2.062974724	0.745701431	ND	ND	ND	ND	0	0
73031	2018-05-28T22:00:00	44.9	ND	ND	ND	1.65874319	0.451345603	ND	ND	ND	ND	0	0
73032	2018-05-28T23:00:00	20	ND	ND	ND	0.864219141	0.667206544	ND	ND	ND	ND	0	0
73033	2018-05-29T00:00:00	16.7	ND	ND	ND	1.115121472	0.863443763	ND	ND	ND	ND	0	0
73034	2018-05-29T01:00:00	52.2	ND	ND	ND	2.606596442	0.667206544	ND	ND	ND	ND	0	0
73035	2018-05-29T02:00:00	66.8	ND	ND	ND	7.610704049	0.667206544	ND	ND	ND	ND	0	0
73036	2018-05-29T03:00:00	53.2	ND	ND	ND	4.237461595	0.784948875	ND	ND	ND	ND	0	0
73037	2018-05-29T04:00:00	34.8	ND	ND	ND	3.610205767	0.784948875	ND	ND	ND	ND	0	0
73038	2018-05-29T05:00:00	24.9	ND	ND	ND	2.062974724	0.686830266	ND	ND	ND	ND	0	0
73039	2018-05-29T06:00:00	33	ND	ND	ND	2.843559755	0.686830266	ND	ND	ND	ND	0	0
73040	2018-05-29T07:00:00	88.8	ND	ND	ND	3.596266748	1.020433538	ND	ND	ND	ND	79.1	0
73041	2018-05-29T08:00:00	139.1	ND	ND	ND	3.568388712	1.177423313	ND	ND	ND	ND	362.7	0
73042	2018-05-29T09:00:00	141.7	ND	ND	ND	1.798133374	3.041676892	ND	ND	ND	ND	625.4	0
73043	2018-05-29T10:00:00	81.8	ND	ND	ND	2.453267239	17.40624131	ND	ND	ND	ND	648.7	0
73044	2018-05-29T11:00:00	97.9	ND	ND	ND	4.558059018	34.30226585	ND	ND	ND	ND	644.6	0
73045	2018-05-29T12:00:00	79.8	ND	ND	ND	1.756316319	45.9195092	ND	ND	ND	ND	646.5	0
73046	2018-05-29T13:00:00	66.9	ND	ND	ND	1.993279632	72.6470184	ND	ND	ND	ND	640.6	0
73047	2018-05-29T14:00:00	73.4	ND	ND	ND	1.240572638	86.59948466	ND	ND	ND	ND	627.3	0
73048	2018-05-29T15:00:00	99.7	ND	ND	ND	2.96901092	61.59886299	ND	ND	ND	ND	271.4	0
73049	2018-05-29T16:00:00	83.9	ND	ND	ND	1.282389693	12.08821268	ND	ND	ND	ND	214.1	0.25
73050	2018-05-29T17:00:00	28	ND	ND	ND	1.881767485	3.33603272	ND	ND	ND	ND	220.6	0.51
73051	2018-05-29T18:00:00	25.2	ND	ND	ND	2.299938037	1.66801636	ND	ND	ND	ND	91.1	0
73052	2018-05-29T19:00:00	28.1	ND	ND	ND	2.676291534	0.883067485	ND	ND	ND	ND	0	0
73053	2018-05-29T20:00:00	31.6	ND	ND	ND	0.794524049	1.197047035	ND	ND	ND	ND	0	0
73054	2018-05-29T21:00:00	23.4	ND	ND	ND	2.53690135	1.157799591	ND	ND	ND	ND	0	0
73055	2018-05-29T22:00:00	42.7	ND	ND	ND	1.589048098	1.726887526	ND	ND	ND	ND	0	0
73056	2018-05-29T23:00:00	23.8	ND	ND	ND	0.780585031	1.314789366	ND	ND	ND	ND	0	0
73057	2018-05-30T00:00:00	28.9	ND	ND	ND	1.92358454	0.784948875	ND	ND	ND	ND	0	0
73058	2018-05-30T01:00:00	37.4	ND	ND	ND	3.164157178	0.647582822	ND	ND	ND	ND	0	0
73059	2018-05-30T02:00:00	23.4	ND	ND	ND	2.509023313	0.902691207	ND	ND	ND	ND	0	0
73060	2018-05-30T03:00:00	17.7	ND	ND	ND	3.164157178	0.686830266	ND	ND	ND	ND	0	0
73061	2018-05-30T04:00:00	23.7	ND	ND	ND	2.96901092	1.334413088	ND	ND	ND	ND	0	0
73062	2018-05-30T05:00:00	23.5	ND	ND	ND	2.606596442	3.865873211	ND	ND	ND	ND	0	0
73063	2018-05-30T06:00:00	16.7	ND	ND	ND	2.132669816	1.726887526	ND	ND	ND	ND	0	0
73064	2018-05-30T07:00:00	22.9	ND	ND	ND	2.815681718	0.784948875	ND	ND	ND	ND	39.9	0
73065	2018-05-30T08:00:00	30.5	ND	ND	ND	1.282389693	0.843820041	ND	ND	ND	ND	134.5	0
73066	2018-05-30T09:00:00	37.4	ND	ND	ND	1.895706503	1.511026585	ND	ND	ND	ND	267	0
73067	2018-05-30T10:00:00	28.1	ND	ND	ND	2.146608834	5.121791411	ND	ND	ND	ND	624.7	0
73068	2018-05-30T11:00:00	35.2	ND	ND	ND	2.062974724	14.54117791	ND	ND	ND	ND	648.4	0
73069	2018-05-30T12:00:00	43	ND	ND	ND	3.596266748	27.63020041	ND	ND	ND	ND	638.4	0
73070	2018-05-30T13:00:00	44	ND	ND	ND	2.132669816	33.06597137	ND	ND	ND	ND	625.3	0
73071	2018-05-30T14:00:00	32.9	ND	ND	ND	3.108401104	50.07973824	ND	ND	ND	ND	636.4	0
73072	2018-05-30T15:00:00	52.6	ND	ND	ND	2.397511166	43.42729652	ND	ND	ND	ND	232	0
73073	2018-05-30T16:00:00	71.3	ND	ND	ND	1.65874319	4.552703476	ND	ND	ND	ND	167.2	0
73074	2018-05-30T17:00:00	46.4	ND	ND	ND	0.975731288	3.532269939	ND	ND	ND	ND	237.1	0
73075	2018-05-30T18:00:00	38.1	ND	ND	ND	1.477535951	3.924744376	ND	ND	ND	ND	136.6	0
73076	2018-05-30T19:00:00	46.1	ND	ND	ND	2.146608834	1.177423313	ND	ND	ND	ND	0	0
73077	2018-05-30T20:00:00	53.8	ND	ND	ND	2.174486871	0.569087935	ND	ND	ND	ND	0	0
73078	2018-05-30T21:00:00	38.8	ND	ND	ND	2.481145276	0.94193865	ND	ND	ND	ND	0	0
73079	2018-05-30T22:00:00	37.2	ND	ND	ND	1.435718896	1.000809816	ND	ND	ND	ND	0	0
73080	2018-05-30T23:00:00	30.3	ND	ND	ND	1.22663362	0.588711656	ND	ND	ND	ND	0	0
73081	2018-05-31T00:00:00	31.9	ND	ND	ND	2.049035706	0.804572597	ND	ND	ND	ND	0	0
73082	2018-05-31T01:00:00	30.6	ND	ND	ND	1.533292025	1.138175869	ND	ND	ND	ND	0	0
73083	2018-05-31T02:00:00	36	ND	ND	ND	1.017548344	1.746511247	ND	ND	ND	ND	0	0
73084	2018-05-31T03:00:00	16.5	ND	ND	ND	2.648413497	1.628768916	ND	ND	ND	ND	0	0
73085	2018-05-31T04:00:00	24	ND	ND	ND	2.313877055	1.825006135	ND	ND	ND	ND	0	0
73086	2018-05-31T05:00:00	24.4	ND	ND	ND	2.313877055	1.236294479	ND	ND	ND	ND	0	0
73087	2018-05-31T06:00:00	110.2	ND	ND	ND	2.676291534	0.72607771	ND	ND	ND	ND	0	0
73088	2018-05-31T07:00:00	150.6	ND	ND	ND	3.679900859	1.020433538	ND	ND	ND	ND	29.9	0
73089	2018-05-31T08:00:00	131.4	ND	ND	ND	3.833230061	1.35403681	ND	ND	ND	ND	232.5	0
73090	2018-05-31T09:00:00	124.1	ND	ND	ND	5.464095215	4.670445808	ND	ND	ND	ND	620.1	0
73091	2018-05-31T10:00:00	110.9	ND	ND	ND	3.136279141	19.21162372	ND	ND	ND	ND	648.7	0
73092	2018-05-31T11:00:00	93.8	ND	ND	ND	3.875047117	46.2727362	ND	ND	ND	ND	649.2	0
73093	2018-05-31T12:00:00	89.2	ND	ND	ND	2.202364908	59.20476892	ND	ND	ND	ND	648.5	0
73094	2018-05-31T13:00:00	65.6	ND	ND	ND	1.435718896	52.92517791	ND	ND	ND	ND	617.6	0
73095	2018-05-31T14:00:00	64.2	ND	ND	ND	1.770255337	62.06983231	ND	ND	ND	ND	625.3	0
73096	2018-05-31T15:00:00	65.3	ND	ND	ND	1.296328712	61.44187321	ND	ND	ND	ND	534.2	0
73097	2018-05-31T16:00:00	80.8	ND	ND	ND	1.979340613	69.40910429	ND	ND	ND	ND	548	0
73098	2018-05-31T17:00:00	59.4	ND	ND	ND	3.066584049	20.31055215	ND	ND	ND	ND	593.7	0
73099	2018-05-31T18:00:00	45.2	ND	ND	ND	3.373242454	11.44062986	ND	ND	ND	ND	182.5	0
73100	2018-05-31T19:00:00	22.8	ND	ND	ND	4.321095706	9.615623722	ND	ND	ND	ND	4.7	0
73101	2018-05-31T20:00:00	21.5	ND	ND	ND	3.610205767	8.261586912	ND	ND	ND	ND	0	0
73102	2018-05-31T21:00:00	42.1	ND	ND	ND	3.052645031	5.749750511	ND	ND	ND	ND	0	0
73103	2018-05-31T22:00:00	40.8	ND	ND	ND	2.996888957	6.201096115	ND	ND	ND	ND	0	0
73104	2018-05-31T23:00:00	40.6	ND	ND	ND	3.484754601	6.495451943	ND	ND	ND	ND	0	0
73105	2018-06-01T00:00:00	38.8	ND	ND	ND	4.655632147	8.143844581	ND	ND	ND	ND	0	4.06
73106	2018-06-01T01:00:00	29.5	ND	ND	ND	3.972620245	10.98928425	ND	ND	ND	ND	0	2.03
73107	2018-06-01T02:00:00	7.8	ND	ND	ND	3.428998528	6.98604499	ND	ND	ND	ND	0	1.27
73108	2018-06-01T03:00:00	8.6	ND	ND	ND	3.819291043	6.240343558	ND	ND	ND	ND	0	7.37
73109	2018-06-01T04:00:00	17.6	ND	ND	ND	2.88537681	5.141415133	ND	ND	ND	ND	0	2.54
73110	2018-06-01T05:00:00	25.9	ND	ND	ND	4.042315337	3.218290389	ND	ND	ND	ND	0	1.78
73111	2018-06-01T06:00:00	22.9	ND	ND	ND	3.861108098	1.079304703	ND	ND	ND	ND	0	2.29
73112	2018-06-01T07:00:00	15.8	ND	ND	ND	3.833230061	0.667206544	ND	ND	ND	ND	71.3	0.51
73113	2018-06-01T08:00:00	24	ND	ND	ND	4.962290552	0.804572597	ND	ND	ND	ND	370.8	0
73114	2018-06-01T09:00:00	46.7	ND	ND	ND	2.801742699	1.314789366	ND	ND	ND	ND	569.6	0
73115	2018-06-01T10:00:00	50.2	ND	ND	ND	3.178096196	10.47906748	ND	ND	ND	ND	648.9	0
73116	2018-06-01T11:00:00	62	ND	ND	ND	3.512632638	20.95813497	ND	ND	ND	ND	648.7	0
73117	2018-06-01T12:00:00	60.4	ND	ND	ND	3.707778896	35.75442127	ND	ND	ND	ND	649.1	0
73118	2018-06-01T13:00:00	59.3	ND	ND	ND	3.735656933	40.54260941	ND	ND	ND	ND	649.5	0
73119	2018-06-01T14:00:00	63.7	ND	ND	ND	4.739266258	27.80681391	ND	ND	ND	ND	649.1	0
73120	2018-06-01T15:00:00	54.6	ND	ND	ND	3.596266748	28.84687117	ND	ND	ND	ND	624.8	0
73121	2018-06-01T16:00:00	ND	ND	ND	ND	ND	ND	ND	ND	ND	ND	ND	ND
73122	2018-06-01T17:00:00	0.6	ND	ND	ND	3.178096196	29.00386094	ND	ND	ND	ND	261.2	0
73123	2018-06-01T18:00:00	28.9	ND	ND	ND	3.610205767	9.399762781	ND	ND	ND	ND	87.1	0
73124	2018-06-01T19:00:00	114.9	ND	ND	ND	3.331425399	3.924744376	ND	ND	ND	ND	0	0
73125	2018-06-01T20:00:00	125	ND	ND	ND	3.415059509	2.021243354	ND	ND	ND	ND	0	0
73126	2018-06-01T21:00:00	85.4	ND	ND	ND	3.289608344	1.589521472	ND	ND	ND	ND	0	0
73127	2018-06-01T22:00:00	69.3	ND	ND	ND	3.275669325	1.138175869	ND	ND	ND	ND	0	0
73128	2018-06-01T23:00:00	74.2	ND	ND	ND	3.512632638	1.66801636	ND	ND	ND	ND	0	0
73129	2018-06-02T00:00:00	68.7	ND	ND	ND	4.209583558	1.511026585	ND	ND	ND	ND	0	1.02
73130	2018-06-02T01:00:00	55	ND	ND	ND	4.237461595	1.707263804	ND	ND	ND	ND	0	0.51
73131	2018-06-02T02:00:00	57.2	ND	ND	ND	2.35569411	1.648392638	ND	ND	ND	ND	0	0
73132	2018-06-02T03:00:00	41.2	ND	ND	ND	2.899315828	1.314789366	ND	ND	ND	ND	0	0
73133	2018-06-02T04:00:00	38.2	ND	ND	ND	2.397511166	1.491402863	ND	ND	ND	ND	0	0
73134	2018-06-02T05:00:00	33.2	ND	ND	ND	3.192035215	1.393284254	ND	ND	ND	ND	0	0
73135	2018-06-02T06:00:00	42.6	ND	ND	ND	3.094462086	1.177423313	ND	ND	ND	ND	0	0
73136	2018-06-02T07:00:00	53.7	ND	ND	ND	3.136279141	1.334413088	ND	ND	ND	ND	30.1	0.25
73137	2018-06-02T08:00:00	79.3	ND	ND	ND	4.042315337	1.707263804	ND	ND	ND	ND	461.8	0
73138	2018-06-02T09:00:00	103.6	ND	ND	ND	6.258619264	3.434151329	ND	ND	ND	ND	484.2	0
73139	2018-06-02T10:00:00	99.1	ND	ND	ND	4.042315337	7.398143149	ND	ND	ND	ND	629.3	0
73140	2018-06-02T11:00:00	93.4	ND	ND	ND	3.31748638	20.8992638	ND	ND	ND	ND	611.2	0
73141	2018-06-02T12:00:00	92.1	ND	ND	ND	3.136279141	50.80581595	ND	ND	ND	ND	634.5	0
73142	2018-06-02T13:00:00	85.3	ND	ND	ND	3.289608344	78.33789775	ND	ND	ND	ND	647.6	0
73143	2018-06-02T14:00:00	90.3	ND	ND	ND	3.164157178	50.92355828	ND	ND	ND	ND	648	0
73144	2018-06-02T15:00:00	75.8	ND	ND	ND	3.205974233	53.69050307	ND	ND	ND	ND	640.1	0
73145	2018-06-02T16:00:00	67.1	ND	ND	ND	3.456876564	43.27030675	ND	ND	ND	ND	517.4	0
73146	2018-06-02T17:00:00	60.2	ND	ND	ND	3.303547362	18.01457669	ND	ND	ND	ND	440.1	0
73147	2018-06-02T18:00:00	39.6	ND	ND	ND	1.951462577	11.24439264	ND	ND	ND	ND	141.1	0
73148	2018-06-02T19:00:00	18.2	ND	ND	ND	2.773864663	7.358895706	ND	ND	ND	ND	0	0
73149	2018-06-02T20:00:00	13.1	ND	ND	ND	3.289608344	4.886306748	ND	ND	ND	ND	0	0
73150	2018-06-02T21:00:00	24.9	ND	ND	ND	2.230242945	3.02205317	ND	ND	ND	ND	0	0
73151	2018-06-02T22:00:00	38.3	ND	ND	ND	3.066584049	4.160229039	ND	ND	ND	ND	0	0
73152	2018-06-02T23:00:00	50.7	ND	ND	ND	2.327816074	2.080114519	ND	ND	ND	ND	0	0
73153	2018-06-03T00:00:00	50.4	ND	ND	ND	3.707778896	2.158609407	ND	ND	ND	ND	0	0
73154	2018-06-03T01:00:00	47.1	ND	ND	ND	3.554449693	2.492212679	ND	ND	ND	ND	0	0
73155	2018-06-03T02:00:00	52.2	ND	ND	ND	5.171375828	1.412907975	ND	ND	ND	ND	0	0
73156	2018-06-03T03:00:00	57.3	ND	ND	ND	4.697449202	1.373660532	ND	ND	ND	ND	0	0
73157	2018-06-03T04:00:00	41.5	ND	ND	ND	5.394400123	1.2559182	ND	ND	ND	ND	0	0
73158	2018-06-03T05:00:00	45.6	ND	ND	ND	5.045924663	1.236294479	ND	ND	ND	ND	0	0
73159	2018-06-03T06:00:00	45.2	ND	ND	ND	3.512632638	1.138175869	ND	ND	ND	ND	0	0
73160	2018-06-03T07:00:00	55.2	ND	ND	ND	3.373242454	1.589521472	ND	ND	ND	ND	61.6	0
73161	2018-06-03T08:00:00	56.1	ND	ND	ND	3.49869362	2.766944785	ND	ND	ND	ND	345	0
73162	2018-06-03T09:00:00	63.7	ND	ND	ND	3.094462086	7.437390593	ND	ND	ND	ND	577.3	0
73163	2018-06-03T10:00:00	55.7	ND	ND	ND	3.108401104	12.38256851	ND	ND	ND	ND	647.3	0
73164	2018-06-03T11:00:00	70	ND	ND	ND	4.167766503	20.11431493	ND	ND	ND	ND	619.7	0
73165	2018-06-03T12:00:00	39.1	ND	ND	ND	2.815681718	27.76756646	ND	ND	ND	ND	648	0
73166	2018-06-03T13:00:00	45.3	ND	ND	ND	2.941132883	36.30388548	ND	ND	ND	ND	648	0
73167	2018-06-03T14:00:00	44.9	ND	ND	ND	3.638083804	46.60633947	ND	ND	ND	ND	648.2	0
73168	2018-06-03T15:00:00	48.6	ND	ND	ND	3.512632638	61.1671411	ND	ND	ND	ND	647.1	0
73169	2018-06-03T16:00:00	48.1	ND	ND	ND	2.425389202	62.34456442	ND	ND	ND	ND	647.3	0
73170	2018-06-03T17:00:00	38.4	ND	ND	ND	3.275669325	21.93932106	ND	ND	ND	ND	580.1	0
73171	2018-06-03T18:00:00	5	ND	ND	ND	3.303547362	13.08902249	ND	ND	ND	ND	187.1	0
73172	2018-06-03T19:00:00	5.5	ND	ND	ND	2.955071902	9.18390184	ND	ND	ND	ND	4	0
73173	2018-06-03T20:00:00	8.2	ND	ND	ND	3.721717914	5.906740286	ND	ND	ND	ND	0	0
73174	2018-06-03T21:00:00	25.9	ND	ND	ND	4.125949448	3.257537832	ND	ND	ND	ND	0	0
73175	2018-06-03T22:00:00	42.6	ND	ND	ND	2.578718405	3.080924335	ND	ND	ND	ND	0	0
73176	2018-06-03T23:00:00	23.3	ND	ND	ND	2.857498773	4.081734151	ND	ND	ND	ND	0	0
73177	2018-06-04T00:00:00	36.7	ND	ND	ND	4.390790798	1.726887526	ND	ND	ND	ND	0	0
73178	2018-06-04T01:00:00	45.2	ND	ND	ND	4.237461595	1.726887526	ND	ND	ND	ND	0	0
73179	2018-06-04T02:00:00	35.8	ND	ND	ND	4.641693129	2.178233129	ND	ND	ND	ND	0	0
73180	2018-06-04T03:00:00	35.7	ND	ND	ND	4.139888466	2.904310838	ND	ND	ND	ND	0	0
73181	2018-06-04T04:00:00	41.7	ND	ND	ND	4.251400613	1.2559182	ND	ND	ND	ND	0	0
73182	2018-06-04T05:00:00	38.7	ND	ND	ND	5.491973252	1.530650307	ND	ND	ND	ND	0	0
73183	2018-06-04T06:00:00	36.5	ND	ND	ND	5.338644049	1.275541922	ND	ND	ND	ND	0	0
73184	2018-06-04T07:00:00	39.8	ND	ND	ND	5.059863681	1.66801636	ND	ND	ND	ND	86.4	0
73185	2018-06-04T08:00:00	53.1	ND	ND	ND	5.575607362	2.570707566	ND	ND	ND	ND	268.3	0
73186	2018-06-04T09:00:00	66	ND	ND	ND	3.916864172	5.494642127	ND	ND	ND	ND	375.7	0
73187	2018-06-04T10:00:00	85.3	ND	ND	ND	3.596266748	12.20595501	ND	ND	ND	ND	633.7	0
73188	2018-06-04T11:00:00	92.4	ND	ND	ND	4.62775411	23.27373415	ND	ND	ND	ND	619.9	0
73189	2018-06-04T12:00:00	77.3	ND	ND	ND	3.819291043	28.31703067	ND	ND	ND	ND	540.7	0
73190	2018-06-04T13:00:00	56.4	ND	ND	ND	3.373242454	40.8958364	ND	ND	ND	ND	623.1	0
73191	2018-06-04T14:00:00	69.1	ND	ND	ND	4.362912761	39.67916564	ND	ND	ND	ND	645.4	0
73192	2018-06-04T15:00:00	61.9	ND	ND	ND	3.261730307	44.25149284	ND	ND	ND	ND	645.8	0
73193	2018-06-04T16:00:00	59.4	ND	ND	ND	3.31748638	36.57861759	ND	ND	ND	ND	625.6	0
73194	2018-06-04T17:00:00	61.2	ND	ND	ND	3.373242454	21.78233129	ND	ND	ND	ND	374.1	0
73195	2018-06-04T18:00:00	49.8	ND	ND	ND	2.634474479	11.28364008	ND	ND	ND	ND	28	0
73196	2018-06-04T19:00:00	13.6	ND	ND	ND	2.96901092	8.693308793	ND	ND	ND	ND	0	0
73197	2018-06-04T20:00:00	5	ND	ND	ND	3.010827975	8.24196319	ND	ND	ND	ND	0	0
73198	2018-06-04T21:00:00	19.8	ND	ND	ND	3.735656933	2.688449898	ND	ND	ND	ND	0	0
73199	2018-06-04T22:00:00	53.3	ND	ND	ND	3.958681227	1.825006135	ND	ND	ND	ND	0	0
73200	2018-06-04T23:00:00	47.3	ND	ND	ND	3.596266748	1.726887526	ND	ND	ND	ND	0	0
73201	2018-06-05T00:00:00	50.6	ND	ND	ND	3.373242454	1.432531697	ND	ND	ND	ND	0	0
73202	2018-06-05T01:00:00	38.4	ND	ND	ND	4.251400613	1.628768916	ND	ND	ND	ND	0	0
73203	2018-06-05T02:00:00	29.4	ND	ND	ND	3.916864172	1.275541922	ND	ND	ND	ND	0.1	0
73204	2018-06-05T03:00:00	36	ND	ND	ND	3.442937546	1.903501022	ND	ND	ND	ND	0.1	0
73205	2018-06-05T04:00:00	26	ND	ND	ND	4.112010429	1.275541922	ND	ND	ND	ND	0.1	0
73206	2018-06-05T05:00:00	24.3	ND	ND	ND	3.916864172	1.295165644	ND	ND	ND	ND	0.1	0
73207	2018-06-05T06:00:00	32.2	ND	ND	ND	2.955071902	1.157799591	ND	ND	ND	ND	1	0
73208	2018-06-05T07:00:00	57.6	ND	ND	ND	1.909645521	1.275541922	ND	ND	ND	ND	62.9	0
73209	2018-06-05T08:00:00	93	ND	ND	ND	3.373242454	1.844629857	ND	ND	ND	ND	231.1	0
73210	2018-06-05T09:00:00	121.8	ND	ND	ND	4.62775411	3.65001227	ND	ND	ND	ND	566.8	0
73211	2018-06-05T10:00:00	138	ND	ND	ND	3.58232773	8.791427403	ND	ND	ND	ND	618.4	0
73212	2018-06-05T11:00:00	103.1	ND	ND	ND	3.094462086	22.27292434	ND	ND	ND	ND	647.6	0
73213	2018-06-05T12:00:00	77.8	ND	ND	ND	4.321095706	22.54765644	ND	ND	ND	ND	647.5	0
73214	2018-06-05T13:00:00	60.3	ND	ND	ND	4.27927865	28.35627812	ND	ND	ND	ND	648	0
73215	2018-06-05T14:00:00	73	ND	ND	ND	3.93080319	32.7323681	ND	ND	ND	ND	637	0
73216	2018-06-05T15:00:00	60	ND	ND	ND	2.955071902	32.33989366	ND	ND	ND	ND	358.8	0
73217	2018-06-05T16:00:00	45.9	ND	ND	ND	2.18842589	8.516695297	ND	ND	ND	ND	483.5	0
73218	2018-06-05T17:00:00	25.4	ND	ND	ND	2.285999018	5.298404908	ND	ND	ND	ND	290.8	0
73219	2018-06-05T18:00:00	31.3	ND	ND	ND	2.592657423	3.610764826	ND	ND	ND	ND	59.1	0
73220	2018-06-05T19:00:00	25.5	ND	ND	ND	1.630865153	3.473398773	ND	ND	ND	ND	0	0
73221	2018-06-05T20:00:00	23.1	ND	ND	ND	3.15021816	3.120171779	ND	ND	ND	ND	0	23.11
73222	2018-06-05T21:00:00	32.3	ND	ND	ND	3.080523067	2.629578732	ND	ND	ND	ND	0	1.27
73223	2018-06-05T22:00:00	27.6	ND	ND	ND	3.23385227	2.080114519	ND	ND	ND	ND	0	0
73224	2018-06-05T23:00:00	31.5	ND	ND	ND	2.88537681	2.158609407	ND	ND	ND	ND	0	0
73225	2018-06-06T00:00:00	40.5	ND	ND	ND	1.644804172	1.923124744	ND	ND	ND	ND	0	0
73226	2018-06-06T01:00:00	24.8	ND	ND	ND	3.526571656	1.98199591	ND	ND	ND	ND	0	0
73227	2018-06-06T02:00:00	20.5	ND	ND	ND	3.136279141	1.98199591	ND	ND	ND	ND	0	0
73228	2018-06-06T03:00:00	33.9	ND	ND	ND	2.453267239	1.766134969	ND	ND	ND	ND	0	0.25
73229	2018-06-06T04:00:00	25.4	ND	ND	ND	3.359303436	1.805382413	ND	ND	ND	ND	0	0
73230	2018-06-06T05:00:00	32.5	ND	ND	ND	2.690230552	1.805382413	ND	ND	ND	ND	0	0
73231	2018-06-06T06:00:00	51.4	ND	ND	ND	3.49869362	1.864253579	ND	ND	ND	ND	0	0
73232	2018-06-06T07:00:00	94.3	ND	ND	ND	3.303547362	1.98199591	ND	ND	ND	ND	79.5	0
73233	2018-06-06T08:00:00	92.7	ND	ND	ND	4.098071411	2.511836401	ND	ND	ND	ND	479.1	0
73234	2018-06-06T09:00:00	83.4	ND	ND	ND	3.638083804	6.809431493	ND	ND	ND	ND	647.8	0
73235	2018-06-06T10:00:00	81.5	ND	ND	ND	3.554449693	19.27049489	ND	ND	ND	ND	648.2	0
73236	2018-06-06T11:00:00	57.5	ND	ND	ND	3.861108098	31.55494479	ND	ND	ND	ND	647.9	0
73237	2018-06-06T12:00:00	45.5	ND	ND	ND	3.442937546	57.36013906	ND	ND	ND	ND	648.3	0
73238	2018-06-06T13:00:00	58.5	ND	ND	ND	2.104791779	57.79186094	ND	ND	ND	ND	648.2	0
73239	2018-06-06T14:00:00	77	ND	ND	ND	5.296826994	35.28345194	ND	ND	ND	ND	633.5	0
73240	2018-06-06T15:00:00	67.8	ND	ND	ND	3.15021816	28.39552556	ND	ND	ND	ND	488.6	0
73241	2018-06-06T16:00:00	60.1	ND	ND	ND	2.467206258	18.60328834	ND	ND	ND	ND	433.7	0
73242	2018-06-06T17:00:00	38.9	ND	ND	ND	3.49869362	7.417766871	ND	ND	ND	ND	345.4	0
73243	2018-06-06T18:00:00	24.5	ND	ND	ND	2.913254847	5.847869121	ND	ND	ND	ND	116.5	0
73244	2018-06-06T19:00:00	15.7	ND	ND	ND	1.672682209	8.398952965	ND	ND	ND	ND	0	0
73245	2018-06-06T20:00:00	1.9	ND	ND	ND	2.648413497	5.396523517	ND	ND	ND	ND	0	0
73246	2018-06-06T21:00:00	6.1	ND	ND	ND	3.624144785	6.67206544	ND	ND	ND	ND	0	0
73247	2018-06-06T22:00:00	14.9	ND	ND	ND	3.721717914	5.239533742	ND	ND	ND	ND	0	0
73248	2018-06-06T23:00:00	53.7	ND	ND	ND	5.101680736	0.922314928	ND	ND	ND	ND	0	0
73249	2018-06-07T00:00:00	42.6	ND	ND	ND	4.19564454	0.863443763	ND	ND	ND	ND	0	0
73250	2018-06-07T01:00:00	48.9	ND	ND	ND	4.19564454	0.863443763	ND	ND	ND	ND	0	0
73251	2018-06-07T02:00:00	42.6	ND	ND	ND	4.112010429	0.922314928	ND	ND	ND	ND	0	0
73252	2018-06-07T03:00:00	31.5	ND	ND	ND	3.763534969	1.236294479	ND	ND	ND	ND	0	0
73253	2018-06-07T04:00:00	30.8	ND	ND	ND	5.352583067	0.883067485	ND	ND	ND	ND	0	0
73254	2018-06-07T05:00:00	31.6	ND	ND	ND	3.652022822	1.609145194	ND	ND	ND	ND	0	0
73255	2018-06-07T06:00:00	34	ND	ND	ND	3.038706012	0.902691207	ND	ND	ND	ND	0	0
73256	2018-06-07T07:00:00	60.7	ND	ND	ND	4.19564454	1.020433538	ND	ND	ND	ND	70	0
73257	2018-06-07T08:00:00	49.4	ND	ND	ND	3.624144785	1.275541922	ND	ND	ND	ND	202.3	0
73258	2018-06-07T09:00:00	76.2	ND	ND	ND	4.125949448	3.767754601	ND	ND	ND	ND	625.8	0
73259	2018-06-07T10:00:00	81.2	ND	ND	ND	3.094462086	15.4242454	ND	ND	ND	ND	647.6	0
73260	2018-06-07T11:00:00	57.4	ND	ND	ND	4.669571166	31.51569734	ND	ND	ND	ND	635.6	0
73261	2018-06-07T12:00:00	74.1	ND	ND	ND	ND	88.14975869	ND	ND	ND	ND	647.1	0
73262	2018-06-07T13:00:00	83.2	ND	ND	ND	ND	155.9300941	ND	ND	ND	ND	643.5	0
73263	2018-06-07T14:00:00	53.4	ND	ND	ND	2.815681718	71.58733742	ND	ND	ND	ND	609.2	0
73264	2018-06-07T15:00:00	81.3	ND	ND	ND	4.209583558	54.16147239	ND	ND	ND	ND	590.2	0
73265	2018-06-07T16:00:00	53	ND	ND	ND	1.561170061	16.64091616	ND	ND	ND	ND	510.9	0
73266	2018-06-07T17:00:00	34.2	ND	ND	ND	3.401120491	12.69654806	ND	ND	ND	ND	259.6	0
73267	2018-06-07T18:00:00	15.9	ND	ND	ND	3.23385227	10.47906748	ND	ND	ND	ND	109.3	0
73268	2018-06-07T19:00:00	8.8	ND	ND	ND	2.467206258	8.595190184	ND	ND	ND	ND	0	0
73269	2018-06-07T20:00:00	13.1	ND	ND	ND	3.554449693	8.045725971	ND	ND	ND	ND	0	0
73270	2018-06-07T21:00:00	12.4	ND	ND	ND	4.307156687	7.417766871	ND	ND	ND	ND	0	0
73271	2018-06-07T22:00:00	27.9	ND	ND	ND	2.62053546	10.63605726	ND	ND	ND	ND	0	0
73272	2018-06-07T23:00:00	34.7	ND	ND	ND	3.401120491	5.082543967	ND	ND	ND	ND	0	0
73273	2018-06-08T00:00:00	47.5	ND	ND	ND	3.902925153	7.653251534	ND	ND	ND	ND	0	0
73274	2018-06-08T01:00:00	45	ND	ND	ND	3.861108098	4.219100204	ND	ND	ND	ND	0	0
73275	2018-06-08T02:00:00	43.5	ND	ND	ND	4.348973742	6.632817996	ND	ND	ND	ND	0	0
73276	2018-06-08T03:00:00	57	ND	ND	ND	4.098071411	5.278781186	ND	ND	ND	ND	0	0
73277	2018-06-08T04:00:00	62.1	ND	ND	ND	4.767144294	5.671255624	ND	ND	ND	ND	0	0
73278	2018-06-08T05:00:00	67.8	ND	ND	ND	4.112010429	4.062110429	ND	ND	ND	ND	0	0
73279	2018-06-08T06:00:00	75.1	ND	ND	ND	3.624144785	4.062110429	ND	ND	ND	ND	0	0
73280	2018-06-08T07:00:00	88.5	ND	ND	ND	3.791413006	4.062110429	ND	ND	ND	ND	163	0
73281	2018-06-08T08:00:00	95.4	ND	ND	ND	4.223522577	6.102977505	ND	ND	ND	ND	608.8	0
73282	2018-06-08T09:00:00	87.8	ND	ND	ND	3.540510675	13.75622904	ND	ND	ND	ND	631.2	0
73283	2018-06-08T10:00:00	90.1	ND	ND	ND	3.205974233	21.17399591	ND	ND	ND	ND	609.2	0
73284	2018-06-08T11:00:00	74.7	ND	ND	ND	4.209583558	32.33989366	ND	ND	ND	ND	630.7	0
73285	2018-06-08T12:00:00	68.7	ND	ND	ND	3.303547362	49.70688753	ND	ND	ND	ND	649.2	0
73286	2018-06-08T13:00:00	86	ND	ND	ND	4.446546871	62.08945603	ND	ND	ND	ND	649	0
73287	2018-06-08T14:00:00	105.8	ND	ND	ND	3.610205767	52.35608998	ND	ND	ND	ND	548.2	0
73288	2018-06-08T15:00:00	57.6	ND	ND	ND	2.160547853	19.17237628	ND	ND	ND	ND	404.6	0
73289	2018-06-08T16:00:00	35.2	ND	ND	ND	2.96901092	13.30488344	ND	ND	ND	ND	413.1	0
73290	2018-06-08T17:00:00	31.6	ND	ND	ND	2.592657423	10.89116564	ND	ND	ND	ND	370.5	0
73291	2018-06-08T18:00:00	30.3	ND	ND	ND	3.512632638	8.24196319	ND	ND	ND	ND	93.8	0
73292	2018-06-08T19:00:00	75.6	ND	ND	ND	2.732047607	7.947607362	ND	ND	ND	ND	0	0
73293	2018-06-08T20:00:00	42.9	ND	ND	ND	2.913254847	6.98604499	ND	ND	ND	ND	0	0
73294	2018-06-08T21:00:00	15	ND	ND	ND	3.219913252	6.98604499	ND	ND	ND	ND	0	0
73295	2018-06-08T22:00:00	18.1	ND	ND	ND	3.638083804	5.239533742	ND	ND	ND	ND	0	0
73296	2018-06-08T23:00:00	60	ND	ND	ND	2.96901092	4.120981595	ND	ND	ND	ND	0	0
73297	2018-06-09T00:00:00	80.2	ND	ND	ND	4.836839387	4.199476483	ND	ND	ND	ND	0	0
73298	2018-06-09T01:00:00	74.4	ND	ND	ND	3.010827975	3.944368098	ND	ND	ND	ND	0	0
73299	2018-06-09T02:00:00	54.9	ND	ND	ND	2.843559755	6.397333333	ND	ND	ND	ND	0	0
73300	2018-06-09T03:00:00	45.9	ND	ND	ND	3.401120491	5.455394683	ND	ND	ND	ND	0	0
73301	2018-06-09T04:00:00	60.4	ND	ND	ND	2.062974724	5.121791411	ND	ND	ND	ND	0	0
73302	2018-06-09T05:00:00	58.5	ND	ND	ND	4.767144294	4.748940695	ND	ND	ND	ND	0	0
73303	2018-06-09T06:00:00	77.7	ND	ND	ND	4.209583558	4.945177914	ND	ND	ND	ND	0	0
73304	2018-06-09T07:00:00	54.6	ND	ND	ND	3.387181472	5.082543967	ND	ND	ND	ND	99.9	0
73305	2018-06-09T08:00:00	79.1	ND	ND	ND	4.028376319	5.21991002	ND	ND	ND	ND	377.2	0
73306	2018-06-09T09:00:00	85.3	ND	ND	ND	3.819291043	9.576376278	ND	ND	ND	ND	638.7	0
73307	2018-06-09T10:00:00	82	ND	ND	ND	4.028376319	15.16913701	ND	ND	ND	ND	648.7	0
73308	2018-06-09T11:00:00	80.3	ND	ND	ND	5.380461104	27.64982413	ND	ND	ND	ND	648.9	0
73309	2018-06-09T12:00:00	83.4	ND	ND	ND	3.010827975	43.25068303	ND	ND	ND	ND	648.9	0
73310	2018-06-09T13:00:00	77.8	ND	ND	ND	3.791413006	44.68321472	ND	ND	ND	ND	650	0
73311	2018-06-09T14:00:00	69.8	ND	ND	ND	2.467206258	64.69941104	ND	ND	ND	ND	648.3	0
73312	2018-06-09T15:00:00	86.4	ND	ND	ND	5.213192883	45.74289571	ND	ND	ND	ND	470.9	0
73313	2018-06-09T16:00:00	80	ND	ND	ND	4.112010429	36.83372597	ND	ND	ND	ND	322.7	0
73314	2018-06-09T17:00:00	50.8	ND	ND	ND	3.192035215	14.22719836	ND	ND	ND	ND	100.2	0
73315	2018-06-09T18:00:00	0.5	ND	ND	ND	3.401120491	11.83310429	ND	ND	ND	ND	32.7	0
73316	2018-06-09T19:00:00	23.2	ND	ND	ND	2.704169571	5.94598773	ND	ND	ND	ND	0	0
73317	2018-06-09T20:00:00	63.5	ND	ND	ND	3.986559264	6.475828221	ND	ND	ND	ND	0	0
73318	2018-06-09T21:00:00	37.6	ND	ND	ND	3.470815583	4.493832311	ND	ND	ND	ND	0	0
73319	2018-06-09T22:00:00	66.8	ND	ND	ND	2.801742699	4.631198364	ND	ND	ND	ND	0	0
73320	2018-06-09T23:00:00	76.8	ND	ND	ND	3.345364417	5.514265849	ND	ND	ND	ND	0	0
73321	2018-06-10T00:00:00	66.3	ND	ND	ND	3.164157178	4.611574642	ND	ND	ND	ND	0	4.83
73322	2018-06-10T01:00:00	51.5	ND	ND	ND	2.00721865	4.748940695	ND	ND	ND	ND	0	0.51
73323	2018-06-10T02:00:00	42.3	ND	ND	ND	3.247791288	4.474208589	ND	ND	ND	ND	0	0
73324	2018-06-10T03:00:00	44.2	ND	ND	ND	3.902925153	4.611574642	ND	ND	ND	ND	0	0
73325	2018-06-10T04:00:00	55.5	ND	ND	ND	3.679900859	4.493832311	ND	ND	ND	ND	0	0.25
73326	2018-06-10T05:00:00	61.5	ND	ND	ND	4.125949448	4.611574642	ND	ND	ND	ND	0	0
73327	2018-06-10T06:00:00	79.5	ND	ND	ND	2.313877055	4.415337423	ND	ND	ND	ND	0	0
73328	2018-06-10T07:00:00	60.1	ND	ND	ND	3.958681227	4.69006953	ND	ND	ND	ND	68.9	0
73329	2018-06-10T08:00:00	45.4	ND	ND	ND	3.596266748	4.90593047	ND	ND	ND	ND	344.1	0
73330	2018-06-10T09:00:00	37.9	ND	ND	ND	2.18842589	6.907550102	ND	ND	ND	ND	542.5	0
73331	2018-06-10T10:00:00	50.1	ND	ND	ND	3.010827975	14.40381186	ND	ND	ND	ND	592.1	0
73332	2018-06-10T11:00:00	31.7	ND	ND	ND	2.88537681	27.41433947	ND	ND	ND	ND	647.5	0
73333	2018-06-10T12:00:00	32.7	ND	ND	ND	3.415059509	53.96523517	ND	ND	ND	ND	648.1	0
73334	2018-06-10T13:00:00	28.7	ND	ND	ND	3.080523067	58.55718609	ND	ND	ND	ND	639.6	0
73335	2018-06-10T14:00:00	33	ND	ND	ND	5.115619755	74.82525153	ND	ND	ND	ND	602.4	0
73336	2018-06-10T15:00:00	35.7	ND	ND	ND	4.181705521	79.31908384	ND	ND	ND	ND	597.7	0
73337	2018-06-10T16:00:00	37.4	ND	ND	ND	2.829620736	23.90169325	ND	ND	ND	ND	593.5	0
73338	2018-06-10T17:00:00	10.6	ND	ND	ND	3.833230061	17.73984458	ND	ND	ND	ND	543.9	0
73339	2018-06-10T18:00:00	2.1	ND	ND	ND	4.153827485	15.2476319	ND	ND	ND	ND	164	0
73340	2018-06-10T19:00:00	ND	ND	ND	ND	3.373242454	11.61724335	ND	ND	ND	ND	0	0
73341	2018-06-10T20:00:00	25.5	ND	ND	ND	3.373242454	9.399762781	ND	ND	ND	ND	0	0.51
73342	2018-06-10T21:00:00	64.5	ND	ND	ND	5.533790307	5.867492843	ND	ND	ND	ND	0	0
73343	2018-06-10T22:00:00	72.9	ND	ND	ND	3.289608344	5.31802863	ND	ND	ND	ND	0	0
73344	2018-06-10T23:00:00	40.8	ND	ND	ND	4.139888466	4.709693252	ND	ND	ND	ND	0	0
73345	2018-06-11T00:00:00	19.2	ND	ND	ND	3.833230061	4.533079755	ND	ND	ND	ND	0	0.25
73346	2018-06-11T01:00:00	9.1	ND	ND	ND	3.888986135	5.455394683	ND	ND	ND	ND	0	0
73347	2018-06-11T02:00:00	8.6	ND	ND	ND	3.888986135	5.376899796	ND	ND	ND	ND	0	0
73348	2018-06-11T03:00:00	29	ND	ND	ND	4.098071411	6.044106339	ND	ND	ND	ND	0	0
73349	2018-06-11T04:00:00	19.9	ND	ND	ND	4.19564454	5.828245399	ND	ND	ND	ND	0	0
73350	2018-06-11T05:00:00	15.1	ND	ND	ND	3.679900859	5.612384458	ND	ND	ND	ND	0	0
73351	2018-06-11T06:00:00	28	ND	ND	ND	3.624144785	4.336842536	ND	ND	ND	ND	0	0
73352	2018-06-11T07:00:00	23.9	ND	ND	ND	4.683510184	5.043296524	ND	ND	ND	ND	146.3	0
73353	2018-06-11T08:00:00	34.8	ND	ND	ND	3.415059509	6.044106339	ND	ND	ND	ND	373.8	0
73354	2018-06-11T09:00:00	44	ND	ND	ND	3.442937546	8.045725971	ND	ND	ND	ND	366.3	0
73355	2018-06-11T10:00:00	53.1	ND	ND	ND	3.345364417	12.559182	ND	ND	ND	ND	631.7	0
73356	2018-06-11T11:00:00	57.3	ND	ND	ND	3.777473988	22.508409	ND	ND	ND	ND	647.6	0
73357	2018-06-11T12:00:00	42	ND	ND	ND	2.676291534	32.39876483	ND	ND	ND	ND	647.7	0
73358	2018-06-11T13:00:00	42.7	ND	ND	ND	3.93080319	40.13051125	ND	ND	ND	ND	644	0
73359	2018-06-11T14:00:00	51.5	ND	ND	ND	2.634474479	47.96037628	ND	ND	ND	ND	598	0
73360	2018-06-11T15:00:00	50.9	ND	ND	ND	3.526571656	49.90312474	ND	ND	ND	ND	485.4	0
73361	2018-06-11T16:00:00	50.1	ND	ND	ND	4.516241963	49.54989775	ND	ND	ND	ND	357	0
73362	2018-06-11T17:00:00	61.7	ND	ND	ND	3.763534969	38.384	ND	ND	ND	ND	188.8	0
73363	2018-06-11T18:00:00	34.5	ND	ND	ND	2.96901092	16.58204499	ND	ND	ND	ND	105	0
73364	2018-06-11T19:00:00	20.9	ND	ND	ND	3.094462086	13.67773415	ND	ND	ND	ND	0	2.29
73365	2018-06-11T20:00:00	4.6	ND	ND	ND	3.066584049	9.792237219	ND	ND	ND	ND	0	0
73366	2018-06-11T21:00:00	13	ND	ND	ND	3.359303436	7.672875256	ND	ND	ND	ND	0	0
73367	2018-06-11T22:00:00	30	ND	ND	ND	4.084132393	4.454584867	ND	ND	ND	ND	0	0
73368	2018-06-11T23:00:00	47.4	ND	ND	ND	2.801742699	4.238723926	ND	ND	ND	ND	0	0.25
73369	2018-06-12T00:00:00	30.2	ND	ND	ND	3.080523067	4.866683027	ND	ND	ND	ND	0	0
73370	2018-06-12T01:00:00	25.8	ND	ND	ND	3.094462086	5.062920245	ND	ND	ND	ND	0	0
73371	2018-06-12T02:00:00	26.2	ND	ND	ND	3.763534969	4.572327198	ND	ND	ND	ND	0	0.25
73372	2018-06-12T03:00:00	25.5	ND	ND	ND	3.610205767	4.886306748	ND	ND	ND	ND	0	0
73373	2018-06-12T04:00:00	25.8	ND	ND	ND	4.028376319	4.709693252	ND	ND	ND	ND	0	0
73374	2018-06-12T05:00:00	31.4	ND	ND	ND	4.390790798	4.59195092	ND	ND	ND	ND	0	0
73375	2018-06-12T06:00:00	41.5	ND	ND	ND	2.327816074	4.533079755	ND	ND	ND	ND	0	0
73376	2018-06-12T07:00:00	63.4	ND	ND	ND	4.822900368	4.434961145	ND	ND	ND	ND	58.5	0
73377	2018-06-12T08:00:00	70.4	ND	ND	ND	5.073802699	4.238723926	ND	ND	ND	ND	218.2	0
73378	2018-06-12T09:00:00	69.7	ND	ND	ND	5.965899877	5.043296524	ND	ND	ND	ND	463.8	0
73379	2018-06-12T10:00:00	91.2	ND	ND	ND	3.958681227	7.358895706	ND	ND	ND	ND	590.6	0
73380	2018-06-12T11:00:00	88	ND	ND	ND	4.125949448	15.2476319	ND	ND	ND	ND	647.7	0
73381	2018-06-12T12:00:00	65.5	ND	ND	ND	1.784194356	37.3046953	ND	ND	ND	ND	642.3	0
73382	2018-06-12T13:00:00	61.3	ND	ND	ND	2.96901092	55.00529243	ND	ND	ND	ND	620.2	0
73383	2018-06-12T14:00:00	52.7	ND	ND	ND	3.763534969	48.64720654	ND	ND	ND	ND	621.1	0
73384	2018-06-12T15:00:00	48.5	ND	ND	ND	2.801742699	47.21467485	ND	ND	ND	ND	515.7	0
73385	2018-06-12T16:00:00	64.1	ND	ND	ND	3.902925153	38.52136605	ND	ND	ND	ND	457.4	0
73386	2018-06-12T17:00:00	53.7	ND	ND	ND	3.652022822	43.07406953	ND	ND	ND	ND	468.4	0
73387	2018-06-12T18:00:00	43.1	ND	ND	ND	3.610205767	24.80438446	ND	ND	ND	ND	312.5	0
73388	2018-06-12T19:00:00	32.1	ND	ND	ND	2.132669816	7.594380368	ND	ND	ND	ND	10.4	0
73389	2018-06-12T20:00:00	29.1	ND	ND	ND	3.442937546	7.810241309	ND	ND	ND	ND	0	0
73390	2018-06-12T21:00:00	16	ND	ND	ND	3.331425399	7.103787321	ND	ND	ND	ND	0	0
73391	2018-06-12T22:00:00	18.9	ND	ND	ND	3.275669325	6.829055215	ND	ND	ND	ND	0	0
73392	2018-06-12T23:00:00	22.2	ND	ND	ND	2.62053546	5.553513292	ND	ND	ND	ND	0	0
73393	2018-06-13T00:00:00	40.1	ND	ND	ND	3.861108098	3.96399182	ND	ND	ND	ND	0	0
73394	2018-06-13T01:00:00	42.5	ND	ND	ND	4.139888466	3.905120654	ND	ND	ND	ND	0	0
73395	2018-06-13T02:00:00	29.9	ND	ND	ND	4.251400613	3.924744376	ND	ND	ND	ND	0	0
73396	2018-06-13T03:00:00	31.9	ND	ND	ND	5.728936564	4.179852761	ND	ND	ND	ND	0	0
73397	2018-06-13T04:00:00	41.3	ND	ND	ND	4.54412	4.631198364	ND	ND	ND	ND	0	0
73398	2018-06-13T05:00:00	40.2	ND	ND	ND	4.739266258	4.37608998	ND	ND	ND	ND	0	0
73399	2018-06-13T06:00:00	36	ND	ND	ND	3.972620245	4.297595092	ND	ND	ND	ND	0	0
73400	2018-06-13T07:00:00	53.8	ND	ND	ND	2.439328221	4.317218814	ND	ND	ND	ND	41.6	0
73401	2018-06-13T08:00:00	62.5	ND	ND	ND	3.192035215	4.964801636	ND	ND	ND	ND	355.7	0
73402	2018-06-13T09:00:00	77.4	ND	ND	ND	3.359303436	6.25996728	ND	ND	ND	ND	441.9	0
73403	2018-06-13T10:00:00	111.1	ND	ND	ND	3.540510675	11.49950102	ND	ND	ND	ND	575.5	0
73404	2018-06-13T11:00:00	82.9	ND	ND	ND	3.721717914	21.86082618	ND	ND	ND	ND	647.5	0
73405	2018-06-13T12:00:00	57.7	ND	ND	ND	3.84716908	37.89340695	ND	ND	ND	ND	647.9	0
73406	2018-06-13T13:00:00	65.7	ND	ND	ND	3.205974233	53.51388957	ND	ND	ND	ND	636.4	0
73407	2018-06-13T14:00:00	44.8	ND	ND	ND	1.909645521	54.06335378	ND	ND	ND	ND	637	0
73408	2018-06-13T15:00:00	44.6	ND	ND	ND	3.638083804	49.96199591	ND	ND	ND	ND	646.1	0
73409	2018-06-13T16:00:00	55.2	ND	ND	ND	2.132669816	52.61119836	ND	ND	ND	ND	473.6	0
73410	2018-06-13T17:00:00	57	ND	ND	ND	3.31748638	45.9195092	ND	ND	ND	ND	335.6	0
73411	2018-06-13T18:00:00	68	ND	ND	ND	3.261730307	24.47078119	ND	ND	ND	ND	87	0
73412	2018-06-13T19:00:00	62.5	ND	ND	ND	4.112010429	14.03096115	ND	ND	ND	ND	0	0
73413	2018-06-13T20:00:00	30.4	ND	ND	ND	2.383572147	8.261586912	ND	ND	ND	ND	0	0
73414	2018-06-13T21:00:00	45.4	ND	ND	ND	2.996888957	10.43982004	ND	ND	ND	ND	0	0
73415	2018-06-13T22:00:00	59.3	ND	ND	ND	2.704169571	5.102167689	ND	ND	ND	ND	0	0
73416	2018-06-13T23:00:00	71.4	ND	ND	ND	3.958681227	4.356466258	ND	ND	ND	ND	0	0
73417	2018-06-14T00:00:00	57	ND	ND	ND	3.540510675	8.614813906	ND	ND	ND	ND	0	0
73418	2018-06-14T01:00:00	21.7	ND	ND	ND	3.638083804	14.14870348	ND	ND	ND	ND	0	0
73419	2018-06-14T02:00:00	38.7	ND	ND	ND	3.624144785	5.651631902	ND	ND	ND	ND	0	2.79
73420	2018-06-14T03:00:00	44.1	ND	ND	ND	3.777473988	5.337652352	ND	ND	ND	ND	0	1.52
73421	2018-06-14T04:00:00	43	ND	ND	ND	3.024766994	5.514265849	ND	ND	ND	ND	0	0
73422	2018-06-14T05:00:00	28.6	ND	ND	ND	4.27927865	4.964801636	ND	ND	ND	ND	0	0
73423	2018-06-14T06:00:00	34.9	ND	ND	ND	3.080523067	4.493832311	ND	ND	ND	ND	0	0
73424	2018-06-14T07:00:00	55.9	ND	ND	ND	4.753205276	4.886306748	ND	ND	ND	ND	50.3	0.25
73425	2018-06-14T08:00:00	84.5	ND	ND	ND	2.648413497	5.062920245	ND	ND	ND	ND	143.5	0
73426	2018-06-14T09:00:00	104	ND	ND	ND	2.745986626	6.024482618	ND	ND	ND	ND	561.6	0
73427	2018-06-14T10:00:00	107.1	ND	ND	ND	4.599876074	11.6564908	ND	ND	ND	ND	589.4	0
73428	2018-06-14T11:00:00	88.8	ND	ND	ND	2.913254847	14.75703885	ND	ND	ND	ND	626.3	0
73429	2018-06-14T12:00:00	50.4	ND	ND	ND	2.522962331	35.79366871	ND	ND	ND	ND	647.8	0
73430	2018-06-14T13:00:00	62	ND	ND	ND	4.571998037	55.12303476	ND	ND	ND	ND	648.6	0
73431	2018-06-14T14:00:00	59.2	ND	ND	ND	3.359303436	60.16633129	ND	ND	ND	ND	648.2	0
73432	2018-06-14T15:00:00	63.6	ND	ND	ND	3.986559264	49.11817587	ND	ND	ND	ND	413.5	0
73433	2018-06-14T16:00:00	55.6	ND	ND	ND	2.592657423	15.46349284	ND	ND	ND	ND	220.6	0
73434	2018-06-14T17:00:00	39.5	ND	ND	ND	2.871437791	13.57961554	ND	ND	ND	ND	236	0
73435	2018-06-14T18:00:00	28.8	ND	ND	ND	2.606596442	11.6564908	ND	ND	ND	ND	85	0
73436	2018-06-14T19:00:00	20.9	ND	ND	ND	4.237461595	10.32207771	ND	ND	ND	ND	4.1	0
73437	2018-06-14T20:00:00	21.9	ND	ND	ND	3.331425399	7.005668712	ND	ND	ND	ND	0	0
73438	2018-06-14T21:00:00	31.4	ND	ND	ND	3.387181472	5.357276074	ND	ND	ND	ND	0	0
73439	2018-06-14T22:00:00	37.5	ND	ND	ND	3.192035215	5.376899796	ND	ND	ND	ND	0	0
73440	2018-06-14T23:00:00	44.5	ND	ND	ND	3.707778896	5.671255624	ND	ND	ND	ND	0	0
73441	2018-06-15T00:00:00	36.4	ND	ND	ND	4.209583558	4.101357873	ND	ND	ND	ND	0	0
73442	2018-06-15T01:00:00	46.5	ND	ND	ND	2.927193865	3.905120654	ND	ND	ND	ND	0	0
73443	2018-06-15T02:00:00	38.6	ND	ND	ND	3.289608344	4.886306748	ND	ND	ND	ND	0	0
73444	2018-06-15T03:00:00	35.1	ND	ND	ND	4.153827485	4.160229039	ND	ND	ND	ND	0	0
73445	2018-06-15T04:00:00	33.8	ND	ND	ND	4.404729816	3.708883436	ND	ND	ND	ND	0	0
73446	2018-06-15T05:00:00	35.9	ND	ND	ND	4.070193374	3.924744376	ND	ND	ND	ND	0	0
73447	2018-06-15T06:00:00	50.8	ND	ND	ND	3.805352025	4.062110429	ND	ND	ND	ND	0	0
73448	2018-06-15T07:00:00	64.4	ND	ND	ND	3.15021816	4.081734151	ND	ND	ND	ND	47.9	0
73449	2018-06-15T08:00:00	80	ND	ND	ND	4.864717423	4.886306748	ND	ND	ND	ND	277	0
73450	2018-06-15T09:00:00	124.7	ND	ND	ND	5.185314847	7.339271984	ND	ND	ND	ND	643.1	0
73451	2018-06-15T10:00:00	112.3	ND	ND	ND	4.418668834	23.33260532	ND	ND	ND	ND	624.3	0
73452	2018-06-15T11:00:00	93.1	ND	ND	ND	5.338644049	34.55737423	ND	ND	ND	ND	636.7	0
73453	2018-06-15T12:00:00	79.3	ND	ND	ND	3.93080319	42.81896115	ND	ND	ND	ND	647.9	0
73454	2018-06-15T13:00:00	78.3	ND	ND	ND	4.042315337	58.81229448	ND	ND	ND	ND	648.1	0
73455	2018-06-15T14:00:00	61.9	ND	ND	ND	2.927193865	57.49750511	ND	ND	ND	ND	648	0
73456	2018-06-15T15:00:00	63.1	ND	ND	ND	3.373242454	67.68221677	ND	ND	ND	ND	633.7	0
73457	2018-06-15T16:00:00	69.6	ND	ND	ND	3.038706012	43.7608998	ND	ND	ND	ND	345.6	0
73458	2018-06-15T17:00:00	53.2	ND	ND	ND	2.425389202	17.50435992	ND	ND	ND	ND	276.3	0
73459	2018-06-15T18:00:00	34.5	ND	ND	ND	3.735656933	16.38580777	ND	ND	ND	ND	83.4	0
73460	2018-06-15T19:00:00	30.8	ND	ND	ND	3.624144785	14.40381186	ND	ND	ND	ND	0	0
73461	2018-06-15T20:00:00	21.8	ND	ND	ND	1.268450675	10.18471166	ND	ND	ND	ND	0	0
73462	2018-06-15T21:00:00	25.1	ND	ND	ND	2.146608834	8.261586912	ND	ND	ND	ND	0	0
73463	2018-06-15T22:00:00	30.9	ND	ND	ND	3.247791288	11.6564908	ND	ND	ND	ND	0	0
73464	2018-06-15T23:00:00	46.2	ND	ND	ND	3.010827975	4.474208589	ND	ND	ND	ND	0	0
73465	2018-06-16T00:00:00	49.4	ND	ND	ND	2.550840368	5.671255624	ND	ND	ND	ND	0	0
73466	2018-06-16T01:00:00	39.4	ND	ND	ND	3.610205767	5.121791411	ND	ND	ND	ND	0	0
73467	2018-06-16T02:00:00	43.9	ND	ND	ND	3.289608344	4.748940695	ND	ND	ND	ND	0	0
73468	2018-06-16T03:00:00	59.3	ND	ND	ND	3.540510675	4.650822086	ND	ND	ND	ND	0	6.86
73469	2018-06-16T04:00:00	40.7	ND	ND	ND	4.056254356	4.945177914	ND	ND	ND	ND	0	0.25
73470	2018-06-16T05:00:00	29.3	ND	ND	ND	4.990168589	5.259157464	ND	ND	ND	ND	0	0.25
73471	2018-06-16T06:00:00	34.7	ND	ND	ND	3.289608344	4.434961145	ND	ND	ND	ND	0	0
73472	2018-06-16T07:00:00	66.9	ND	ND	ND	4.042315337	4.415337423	ND	ND	ND	ND	66.8	0
73473	2018-06-16T08:00:00	73.7	ND	ND	ND	3.415059509	5.180662577	ND	ND	ND	ND	239.3	0
73474	2018-06-16T09:00:00	95.5	ND	ND	ND	3.763534969	7.731746421	ND	ND	ND	ND	545	0
73475	2018-06-16T10:00:00	82.1	ND	ND	ND	4.307156687	19.72184049	ND	ND	ND	ND	643.6	0
73476	2018-06-16T11:00:00	69.8	ND	ND	ND	3.624144785	34.77323517	ND	ND	ND	ND	648	0
73477	2018-06-16T12:00:00	67.8	ND	ND	ND	4.056254356	53.23915746	ND	ND	ND	ND	648.4	0
73478	2018-06-16T13:00:00	67.4	ND	ND	ND	3.93080319	55.67249898	ND	ND	ND	ND	643.1	0
73479	2018-06-16T14:00:00	46.7	ND	ND	ND	3.192035215	54.10260123	ND	ND	ND	ND	648.8	0
73480	2018-06-16T15:00:00	69.1	ND	ND	ND	2.732047607	54.8875501	ND	ND	ND	ND	633	0
73481	2018-06-16T16:00:00	65.7	ND	ND	ND	3.679900859	72.07793047	ND	ND	ND	ND	533.3	0
73482	2018-06-16T17:00:00	57.1	ND	ND	ND	3.387181472	34.7928589	ND	ND	ND	ND	483.9	0
73483	2018-06-16T18:00:00	42.5	ND	ND	ND	3.624144785	19.68259305	ND	ND	ND	ND	86	0
73484	2018-06-16T19:00:00	27.1	ND	ND	ND	2.244181963	16.13069939	ND	ND	ND	ND	0	0
73485	2018-06-16T20:00:00	30.3	ND	ND	ND	2.913254847	12.85353783	ND	ND	ND	ND	0	0
73486	2018-06-16T21:00:00	27	ND	ND	ND	2.843559755	8.771803681	ND	ND	ND	ND	0	0
73487	2018-06-16T22:00:00	41.5	ND	ND	ND	5.255009939	5.337652352	ND	ND	ND	ND	0	0
73488	2018-06-16T23:00:00	48.2	ND	ND	ND	2.996888957	7.123411043	ND	ND	ND	ND	0	0
73489	2018-06-17T00:00:00	25.9	ND	ND	ND	1.909645521	8.006478528	ND	ND	ND	ND	0	0
73490	2018-06-17T01:00:00	43.6	ND	ND	ND	4.209583558	4.572327198	ND	ND	ND	ND	0	0
73491	2018-06-17T02:00:00	59.5	ND	ND	ND	4.934412515	4.395713701	ND	ND	ND	ND	0	0
73492	2018-06-17T03:00:00	64.3	ND	ND	ND	4.112010429	4.415337423	ND	ND	ND	ND	0	0
73493	2018-06-17T04:00:00	63.6	ND	ND	ND	4.042315337	4.238723926	ND	ND	ND	ND	0	0
73494	2018-06-17T05:00:00	51.4	ND	ND	ND	3.080523067	5.180662577	ND	ND	ND	ND	0	0
73495	2018-06-17T06:00:00	50.8	ND	ND	ND	3.526571656	4.297595092	ND	ND	ND	ND	0	0
73496	2018-06-17T07:00:00	58.5	ND	ND	ND	3.902925153	4.533079755	ND	ND	ND	ND	67.9	0
73497	2018-06-17T08:00:00	63.8	ND	ND	ND	3.456876564	5.788997955	ND	ND	ND	ND	335.5	0
73498	2018-06-17T09:00:00	86.3	ND	ND	ND	4.530180982	13.46187321	ND	ND	ND	ND	602.2	0
73499	2018-06-17T10:00:00	84.4	ND	ND	ND	4.767144294	25.58933333	ND	ND	ND	ND	647.8	0
73500	2018-06-17T11:00:00	72.7	ND	ND	ND	5.073802699	39.1885726	ND	ND	ND	ND	647.8	0
73501	2018-06-17T12:00:00	69.5	ND	ND	ND	2.941132883	50.07973824	ND	ND	ND	ND	648.5	0
73502	2018-06-17T13:00:00	72.7	ND	ND	ND	2.996888957	58.61605726	ND	ND	ND	ND	648	0
73503	2018-06-17T14:00:00	61.9	ND	ND	ND	2.801742699	65.40586503	ND	ND	ND	ND	648.5	0
73504	2018-06-17T15:00:00	56.5	ND	ND	ND	3.442937546	68.85964008	ND	ND	ND	ND	610.6	0
73505	2018-06-17T16:00:00	66.1	ND	ND	ND	2.578718405	53.84749284	ND	ND	ND	ND	384.4	0
73506	2018-06-17T17:00:00	48.3	ND	ND	ND	2.648413497	28.00305112	ND	ND	ND	ND	218.9	0
73507	2018-06-17T18:00:00	34.3	ND	ND	ND	3.596266748	22.72426994	ND	ND	ND	ND	121	0
73508	2018-06-17T19:00:00	22	ND	ND	ND	4.125949448	19.48635583	ND	ND	ND	ND	0	0
73509	2018-06-17T20:00:00	21.4	ND	ND	ND	2.495084294	13.77585276	ND	ND	ND	ND	0	0
73510	2018-06-17T21:00:00	13.7	ND	ND	ND	2.522962331	11.61724335	ND	ND	ND	ND	0	0
73511	2018-06-17T22:00:00	19.7	ND	ND	ND	2.899315828	6.966421268	ND	ND	ND	ND	0	0
73512	2018-06-17T23:00:00	42.3	ND	ND	ND	3.958681227	5.63200818	ND	ND	ND	ND	0	0
73513	2018-06-18T00:00:00	33.1	ND	ND	ND	3.93080319	13.20676483	ND	ND	ND	ND	0	0
73514	2018-06-18T01:00:00	48.2	ND	ND	ND	3.401120491	14.83553374	ND	ND	ND	ND	0	0
73515	2018-06-18T02:00:00	35.9	ND	ND	ND	3.052645031	12.00971779	ND	ND	ND	ND	0	0
73516	2018-06-18T03:00:00	45.9	ND	ND	ND	3.944742209	5.965611452	ND	ND	ND	ND	0	0
73517	2018-06-18T04:00:00	46.7	ND	ND	ND	4.46048589	7.103787321	ND	ND	ND	ND	0	0
73518	2018-06-18T05:00:00	44.2	ND	ND	ND	4.767144294	4.572327198	ND	ND	ND	ND	0	0
73519	2018-06-18T06:00:00	39.8	ND	ND	ND	4.739266258	3.885496933	ND	ND	ND	ND	0	0
73520	2018-06-18T07:00:00	52.3	ND	ND	ND	4.488363926	4.336842536	ND	ND	ND	ND	134.2	0
73521	2018-06-18T08:00:00	86.7	ND	ND	ND	3.428998528	5.926364008	ND	ND	ND	ND	542	0
73522	2018-06-18T09:00:00	88.7	ND	ND	ND	3.819291043	10.08659305	ND	ND	ND	ND	645.3	0
73523	2018-06-18T10:00:00	87.2	ND	ND	ND	2.285999018	19.34898978	ND	ND	ND	ND	647.6	0
73524	2018-06-18T11:00:00	90.2	ND	ND	ND	2.88537681	31.31946012	ND	ND	ND	ND	647.7	0
73525	2018-06-18T12:00:00	81.2	ND	ND	ND	3.888986135	37.97190184	ND	ND	ND	ND	648.1	0
73526	2018-06-18T13:00:00	78.8	ND	ND	ND	4.348973742	51.80662577	ND	ND	ND	ND	648.4	0
73527	2018-06-18T14:00:00	73	ND	ND	ND	3.470815583	53.72975051	ND	ND	ND	ND	648.1	0
73528	2018-06-18T15:00:00	83.1	ND	ND	ND	2.592657423	69.76233129	ND	ND	ND	ND	647.4	0
73529	2018-06-18T16:00:00	89.8	ND	ND	ND	3.247791288	56.98728834	ND	ND	ND	ND	603.4	0
73530	2018-06-18T17:00:00	107.6	ND	ND	ND	4.251400613	49.0593047	ND	ND	ND	ND	335.7	0
73531	2018-06-18T18:00:00	110.4	ND	ND	ND	2.299938037	24.74551329	ND	ND	ND	ND	102.4	0
73532	2018-06-18T19:00:00	88.3	ND	ND	ND	2.550840368	12.38256851	ND	ND	ND	ND	2.3	0
73533	2018-06-18T20:00:00	52.3	ND	ND	ND	4.599876074	9.419386503	ND	ND	ND	ND	0.1	0
73534	2018-06-18T21:00:00	27.4	ND	ND	ND	3.024766994	6.279591002	ND	ND	ND	ND	0.1	0
73535	2018-06-18T22:00:00	26.3	ND	ND	ND	2.829620736	9.596	ND	ND	ND	ND	0.1	0
73536	2018-06-18T23:00:00	44.6	ND	ND	ND	4.237461595	4.984425358	ND	ND	ND	ND	0.1	0
73537	2018-06-19T00:00:00	49.1	ND	ND	ND	3.010827975	5.062920245	ND	ND	ND	ND	0.1	0
73538	2018-06-19T01:00:00	66.8	ND	ND	ND	3.415059509	5.102167689	ND	ND	ND	ND	0.1	0
73539	2018-06-19T02:00:00	32.1	ND	ND	ND	3.15021816	12.36294479	ND	ND	ND	ND	0.1	0
73540	2018-06-19T03:00:00	3.8	ND	ND	ND	3.205974233	11.20514519	ND	ND	ND	ND	0.1	0
73541	2018-06-19T04:00:00	6.9	ND	ND	ND	2.676291534	9.949226994	ND	ND	ND	ND	0.1	0
73542	2018-06-19T05:00:00	36.5	ND	ND	ND	3.568388712	5.592760736	ND	ND	ND	ND	0.1	0
73543	2018-06-19T06:00:00	41.9	ND	ND	ND	3.526571656	5.788997955	ND	ND	ND	ND	2.9	0
73544	2018-06-19T07:00:00	54.1	ND	ND	ND	4.669571166	4.513456033	ND	ND	ND	ND	195.4	0
73545	2018-06-19T08:00:00	98.5	ND	ND	ND	5.324705031	5.31802863	ND	ND	ND	ND	376.5	0
73546	2018-06-19T09:00:00	129.7	ND	ND	ND	4.739266258	9.968850716	ND	ND	ND	ND	596.7	0
73547	2018-06-19T10:00:00	124.3	ND	ND	ND	3.805352025	20.34979959	ND	ND	ND	ND	647.7	0
73548	2018-06-19T11:00:00	97.2	ND	ND	ND	5.185314847	37.9326544	ND	ND	ND	ND	647.7	0
73549	2018-06-19T12:00:00	ND	ND	ND	ND	3.652022822	54.37733333	ND	ND	ND	ND	633.2	0
73550	2018-06-19T13:00:00	64.1	ND	ND	ND	2.899315828	68.97738241	ND	ND	ND	ND	621.4	0
73551	2018-06-19T14:00:00	69.7	ND	ND	ND	3.470815583	70.95937832	ND	ND	ND	ND	647.9	0
73552	2018-06-19T15:00:00	55.4	ND	ND	ND	2.299938037	59.10665031	ND	ND	ND	ND	570.8	0
73553	2018-06-19T16:00:00	56.3	ND	ND	ND	2.495084294	41.15094479	ND	ND	ND	ND	587.9	0
73554	2018-06-19T17:00:00	58.1	ND	ND	ND	3.122340123	33.75280164	ND	ND	ND	ND	412.9	0
73555	2018-06-19T18:00:00	40.5	ND	ND	ND	2.662352515	20.91888753	ND	ND	ND	ND	131	0
73556	2018-06-19T19:00:00	35.5	ND	ND	ND	3.289608344	13.73660532	ND	ND	ND	ND	6	0
73557	2018-06-19T20:00:00	22.9	ND	ND	ND	3.596266748	15.40462168	ND	ND	ND	ND	0.1	0
73558	2018-06-19T21:00:00	15.9	ND	ND	ND	3.484754601	15.2476319	ND	ND	ND	ND	0.1	0
73559	2018-06-19T22:00:00	11.5	ND	ND	ND	2.690230552	14.6196728	ND	ND	ND	ND	0.1	0
73560	2018-06-19T23:00:00	18	ND	ND	ND	5.101680736	14.77666258	ND	ND	ND	ND	0.1	0
73561	2018-06-20T00:00:00	24.4	ND	ND	ND	3.010827975	15.2476319	ND	ND	ND	ND	0.1	0
73562	2018-06-20T01:00:00	32	ND	ND	ND	3.735656933	4.238723926	ND	ND	ND	ND	0.1	0
73563	2018-06-20T02:00:00	52.5	ND	ND	ND	4.390790798	4.945177914	ND	ND	ND	ND	0.1	0
73564	2018-06-20T03:00:00	42.1	ND	ND	ND	4.558059018	6.652441718	ND	ND	ND	ND	0.1	0
73565	2018-06-20T04:00:00	47.7	ND	ND	ND	3.833230061	6.338462168	ND	ND	ND	ND	0.1	0
73566	2018-06-20T05:00:00	28.9	ND	ND	ND	2.829620736	8.732556237	ND	ND	ND	ND	0.1	0
73567	2018-06-20T06:00:00	25.5	ND	ND	ND	3.345364417	5.102167689	ND	ND	ND	ND	1	0
73568	2018-06-20T07:00:00	64.5	ND	ND	ND	5.826509693	4.59195092	ND	ND	ND	ND	128	0
73569	2018-06-20T08:00:00	108.8	ND	ND	ND	4.167766503	5.887116564	ND	ND	ND	ND	571.3	0
73570	2018-06-20T09:00:00	135.7	ND	ND	ND	4.711388221	10.34170143	ND	ND	ND	ND	604.2	0
73571	2018-06-20T10:00:00	92.8	ND	ND	ND	1.909645521	24.0390593	ND	ND	ND	ND	645.9	0
73572	2018-06-20T11:00:00	60.3	ND	ND	ND	3.540510675	40.95470757	ND	ND	ND	ND	638.7	0
73573	2018-06-20T12:00:00	59	ND	ND	ND	3.205974233	60.81391411	ND	ND	ND	ND	634	0
73574	2018-06-20T13:00:00	64.1	ND	ND	ND	2.397511166	46.68483436	ND	ND	ND	ND	648.5	0
73575	2018-06-20T14:00:00	53.4	ND	ND	ND	2.369633129	35.38157055	ND	ND	ND	ND	644.6	0
73576	2018-06-20T15:00:00	41.6	ND	ND	ND	3.080523067	53.6316319	ND	ND	ND	ND	628.2	0
73577	2018-06-20T16:00:00	62.7	ND	ND	ND	2.732047607	47.03806135	ND	ND	ND	ND	483.4	0
73578	2018-06-20T17:00:00	60.3	ND	ND	ND	3.289608344	34.12565235	ND	ND	ND	ND	338.6	0
73579	2018-06-20T18:00:00	49.1	ND	ND	ND	1.951462577	26.19766871	ND	ND	ND	ND	72.4	0
73580	2018-06-20T19:00:00	37.7	ND	ND	ND	1.951462577	20.8992638	ND	ND	ND	ND	2.7	0
73581	2018-06-20T20:00:00	26.6	ND	ND	ND	2.88537681	13.7169816	ND	ND	ND	ND	0.1	0
73582	2018-06-20T21:00:00	30	ND	ND	ND	2.871437791	8.712932515	ND	ND	ND	ND	0.1	0
73583	2018-06-20T22:00:00	51.8	ND	ND	ND	1.170877546	9.144654397	ND	ND	ND	ND	0.1	0
73584	2018-06-20T23:00:00	29.4	ND	ND	ND	2.522962331	17.32774642	ND	ND	ND	ND	0.1	0
73585	2018-06-21T00:00:00	32.2	ND	ND	ND	3.944742209	6.299214724	ND	ND	ND	ND	0.1	0
73586	2018-06-21T01:00:00	49.3	ND	ND	ND	4.767144294	7.260777096	ND	ND	ND	ND	0.1	0
73587	2018-06-21T02:00:00	52.5	ND	ND	ND	5.24107092	6.632817996	ND	ND	ND	ND	0.1	0
73588	2018-06-21T03:00:00	50.6	ND	ND	ND	4.948351534	7.967231084	ND	ND	ND	ND	0.1	0
73589	2018-06-21T04:00:00	45.2	ND	ND	ND	3.178096196	9.635247444	ND	ND	ND	ND	0.1	0
73590	2018-06-21T05:00:00	44.3	ND	ND	ND	4.753205276	5.553513292	ND	ND	ND	ND	0.1	0
73591	2018-06-21T06:00:00	40.2	ND	ND	ND	2.439328221	4.062110429	ND	ND	ND	ND	1.3	0
73592	2018-06-21T07:00:00	67.4	ND	ND	ND	3.387181472	4.238723926	ND	ND	ND	ND	84.3	0
73593	2018-06-21T08:00:00	100.5	ND	ND	ND	4.042315337	5.082543967	ND	ND	ND	ND	230.9	0
73594	2018-06-21T09:00:00	102.2	ND	ND	ND	3.66596184	10.26320654	ND	ND	ND	ND	528.2	0
73595	2018-06-21T10:00:00	69.6	ND	ND	ND	3.066584049	25.66782822	ND	ND	ND	ND	647.6	0
73596	2018-06-21T11:00:00	48.3	ND	ND	ND	4.558059018	39.48292843	ND	ND	ND	ND	645.5	0
73597	2018-06-21T12:00:00	63.6	ND	ND	ND	3.401120491	58.67492843	ND	ND	ND	ND	647.7	0
73598	2018-06-21T13:00:00	52.3	ND	ND	ND	2.690230552	61.01015133	ND	ND	ND	ND	648.8	0
73599	2018-06-21T14:00:00	92.8	ND	ND	ND	1.533292025	65.30774642	ND	ND	ND	ND	558	0
73600	2018-06-21T15:00:00	42.9	ND	ND	ND	2.453267239	28.35627812	ND	ND	ND	ND	330.4	0
73601	2018-06-21T16:00:00	ND	ND	ND	ND	2.35569411	20.05544376	ND	ND	ND	ND	459.1	0
73602	2018-06-21T17:00:00	11.9	ND	ND	ND	3.066584049	20.50678937	ND	ND	ND	ND	383	0
73603	2018-06-21T18:00:00	48.3	ND	ND	ND	2.467206258	21.74308384	ND	ND	ND	ND	131.2	0
73604	2018-06-21T19:00:00	31.9	ND	ND	ND	2.132669816	21.37023313	ND	ND	ND	ND	0	0
73605	2018-06-21T20:00:00	33.3	ND	ND	ND	1.937523558	24.74551329	ND	ND	ND	ND	0	0
73606	2018-06-21T21:00:00	34.9	ND	ND	ND	3.23385227	17.52398364	ND	ND	ND	ND	0	0
73607	2018-06-21T22:00:00	38.8	ND	ND	ND	2.913254847	9.262396728	ND	ND	ND	ND	0	0
73608	2018-06-21T23:00:00	75.2	ND	ND	ND	2.927193865	4.003239264	ND	ND	ND	ND	0	0
73609	2018-06-22T00:00:00	90.5	ND	ND	ND	3.373242454	3.983615542	ND	ND	ND	ND	0	0
73610	2018-06-22T01:00:00	82.8	ND	ND	ND	3.721717914	4.120981595	ND	ND	ND	ND	0	0
73611	2018-06-22T02:00:00	75.7	ND	ND	ND	4.655632147	4.768564417	ND	ND	ND	ND	0	0
73612	2018-06-22T03:00:00	60.8	ND	ND	ND	4.19564454	5.847869121	ND	ND	ND	ND	0	0
73613	2018-06-22T04:00:00	50.8	ND	ND	ND	4.251400613	5.239533742	ND	ND	ND	ND	0	0
73614	2018-06-22T05:00:00	54.6	ND	ND	ND	3.596266748	3.924744376	ND	ND	ND	ND	0	0
73615	2018-06-22T06:00:00	70.3	ND	ND	ND	3.247791288	4.160229039	ND	ND	ND	ND	0	0
73616	2018-06-22T07:00:00	65.2	ND	ND	ND	3.401120491	4.474208589	ND	ND	ND	ND	126.8	0
73617	2018-06-22T08:00:00	126.2	ND	ND	ND	5.213192883	5.690879346	ND	ND	ND	ND	452.7	0
73618	2018-06-22T09:00:00	165.8	ND	ND	ND	3.875047117	12.559182	ND	ND	ND	ND	647.9	0
73619	2018-06-22T10:00:00	169	ND	ND	ND	3.15021816	32.06516155	ND	ND	ND	ND	648.2	0
73620	2018-06-22T11:00:00	140	ND	ND	ND	4.265339632	47.43053579	ND	ND	ND	ND	648	0
73621	2018-06-22T12:00:00	122.5	ND	ND	ND	3.624144785	66.21043763	ND	ND	ND	ND	648.8	0
73622	2018-06-22T13:00:00	104.3	ND	ND	ND	2.076913742	77.98467076	ND	ND	ND	ND	648.5	0
73623	2018-06-22T14:00:00	104.2	ND	ND	ND	3.66596184	84.67635992	ND	ND	ND	ND	646.5	0
73624	2018-06-22T15:00:00	90.2	ND	ND	ND	1.672682209	105.6344949	ND	ND	ND	ND	605.9	0
73625	2018-06-22T16:00:00	72.3	ND	ND	ND	2.773864663	47.43053579	ND	ND	ND	ND	389.8	0
73626	2018-06-22T17:00:00	49.2	ND	ND	ND	3.958681227	22.01781595	ND	ND	ND	ND	524.6	0
73627	2018-06-22T18:00:00	43.6	ND	ND	ND	3.205974233	17.01376687	ND	ND	ND	ND	209.6	0
73628	2018-06-22T19:00:00	32.9	ND	ND	ND	2.732047607	14.40381186	ND	ND	ND	ND	4.2	0
73629	2018-06-22T20:00:00	34.5	ND	ND	ND	3.554449693	11.40138241	ND	ND	ND	ND	0	0
73630	2018-06-22T21:00:00	42.3	ND	ND	ND	2.927193865	12.87316155	ND	ND	ND	ND	0	0
73631	2018-06-22T22:00:00	38.8	ND	ND	ND	3.93080319	6.67206544	ND	ND	ND	ND	0	0
73632	2018-06-22T23:00:00	56.9	ND	ND	ND	3.066584049	7.005668712	ND	ND	ND	ND	0	0
73633	2018-06-23T00:00:00	69.1	ND	ND	ND	4.209583558	8.065349693	ND	ND	ND	ND	0	0
73634	2018-06-23T01:00:00	37.9	ND	ND	ND	3.024766994	13.57961554	ND	ND	ND	ND	0	0
73635	2018-06-23T02:00:00	24.8	ND	ND	ND	3.861108098	6.024482618	ND	ND	ND	ND	0	0
73636	2018-06-23T03:00:00	55.1	ND	ND	ND	3.833230061	5.671255624	ND	ND	ND	ND	0	0
73637	2018-06-23T04:00:00	62.6	ND	ND	ND	3.805352025	4.925554192	ND	ND	ND	ND	0	0
73638	2018-06-23T05:00:00	67.4	ND	ND	ND	4.251400613	3.96399182	ND	ND	ND	ND	0	0
73639	2018-06-23T06:00:00	60.9	ND	ND	ND	5.213192883	3.924744376	ND	ND	ND	ND	0	0
73640	2018-06-23T07:00:00	79.8	ND	ND	ND	3.679900859	4.415337423	ND	ND	ND	ND	81.4	0
73641	2018-06-23T08:00:00	111.8	ND	ND	ND	3.526571656	4.709693252	ND	ND	ND	ND	217	0
73642	2018-06-23T09:00:00	111.9	ND	ND	ND	2.96901092	5.553513292	ND	ND	ND	ND	385.5	0
73643	2018-06-23T10:00:00	94	ND	ND	ND	3.833230061	10.63605726	ND	ND	ND	ND	602.2	0
73644	2018-06-23T11:00:00	81.2	ND	ND	ND	2.745986626	18.17156646	ND	ND	ND	ND	647.8	0
73645	2018-06-23T12:00:00	55.3	ND	ND	ND	2.955071902	34.59662168	ND	ND	ND	ND	648	0
73646	2018-06-23T13:00:00	71	ND	ND	ND	2.801742699	50.29559918	ND	ND	ND	ND	648.6	0
73647	2018-06-23T14:00:00	68.2	ND	ND	ND	4.348973742	74.7075092	ND	ND	ND	ND	615.5	0
73648	2018-06-23T15:00:00	62.3	ND	ND	ND	2.62053546	43.15256442	ND	ND	ND	ND	566.1	0
73649	2018-06-23T16:00:00	36.8	ND	ND	ND	4.125949448	34.93022495	ND	ND	ND	ND	648.7	0
73650	2018-06-23T17:00:00	24.4	ND	ND	ND	2.550840368	22.41029039	ND	ND	ND	ND	413.3	0
73651	2018-06-23T18:00:00	5.2	ND	ND	ND	1.57510908	18.68178323	ND	ND	ND	ND	118.8	0
73652	2018-06-23T19:00:00	3.1	ND	ND	ND	3.247791288	16.71941104	ND	ND	ND	ND	6	0
73653	2018-06-23T20:00:00	12.8	ND	ND	ND	2.606596442	11.59761963	ND	ND	ND	ND	0	0
73654	2018-06-23T21:00:00	31	ND	ND	ND	1.881767485	15.54198773	ND	ND	ND	ND	0	0
73655	2018-06-23T22:00:00	5.9	ND	ND	ND	2.648413497	20.48716564	ND	ND	ND	ND	0	0
73656	2018-06-23T23:00:00	1.2	ND	ND	ND	3.610205767	19.09388139	ND	ND	ND	ND	0	0
73657	2018-06-24T00:00:00	14.5	ND	ND	ND	3.596266748	11.10702658	ND	ND	ND	ND	0	0
73658	2018-06-24T01:00:00	70.1	ND	ND	ND	2.341755092	7.162658487	ND	ND	ND	ND	0	0
73659	2018-06-24T02:00:00	67	ND	ND	ND	4.948351534	4.179852761	ND	ND	ND	ND	0	0
73660	2018-06-24T03:00:00	60.9	ND	ND	ND	4.571998037	5.298404908	ND	ND	ND	ND	0	0
73661	2018-06-24T04:00:00	54.4	ND	ND	ND	3.958681227	4.631198364	ND	ND	ND	ND	0	0
73662	2018-06-24T05:00:00	55.3	ND	ND	ND	3.49869362	3.807002045	ND	ND	ND	ND	0	0
73663	2018-06-24T06:00:00	52.4	ND	ND	ND	4.418668834	4.062110429	ND	ND	ND	ND	0	0
73664	2018-06-24T07:00:00	60.9	ND	ND	ND	4.739266258	4.062110429	ND	ND	ND	ND	76.5	0.25
73665	2018-06-24T08:00:00	66.9	ND	ND	ND	5.910143804	5.730126789	ND	ND	ND	ND	421.5	0
73666	2018-06-24T09:00:00	66.7	ND	ND	ND	2.383572147	10.59680982	ND	ND	ND	ND	636.8	0
73667	2018-06-24T10:00:00	56.5	ND	ND	ND	4.251400613	18.99576278	ND	ND	ND	ND	648	0
73668	2018-06-24T11:00:00	44.4	ND	ND	ND	2.704169571	34.93022495	ND	ND	ND	ND	647.6	0
73669	2018-06-24T12:00:00	35.6	ND	ND	ND	2.592657423	48.1566135	ND	ND	ND	ND	648.6	0
73670	2018-06-24T13:00:00	42.4	ND	ND	ND	2.481145276	49.58914519	ND	ND	ND	ND	635.5	0
73671	2018-06-24T14:00:00	49.8	ND	ND	ND	3.373242454	56.3200818	ND	ND	ND	ND	625.5	0
73672	2018-06-24T15:00:00	41.4	ND	ND	ND	2.564779387	63.93408589	ND	ND	ND	ND	645.1	0
73673	2018-06-24T16:00:00	38	ND	ND	ND	2.049035706	51.39452761	ND	ND	ND	ND	620.7	0
73674	2018-06-24T17:00:00	26	ND	ND	ND	3.66596184	29.25896933	ND	ND	ND	ND	553.3	0
73675	2018-06-24T18:00:00	8.4	ND	ND	ND	4.265339632	24.98099796	ND	ND	ND	ND	70.6	0
73676	2018-06-24T19:00:00	6.9	ND	ND	ND	3.749595951	22.46916155	ND	ND	ND	ND	4.4	0
73677	2018-06-24T20:00:00	22.9	ND	ND	ND	2.118730798	20.60490798	ND	ND	ND	ND	0	0
73678	2018-06-24T21:00:00	23.6	ND	ND	ND	3.359303436	16.42505521	ND	ND	ND	ND	0	0
73679	2018-06-24T22:00:00	24.3	ND	ND	ND	3.303547362	13.42262577	ND	ND	ND	ND	0	0
73680	2018-06-24T23:00:00	38	ND	ND	ND	4.376851779	4.670445808	ND	ND	ND	ND	0	0
73681	2018-06-25T00:00:00	44.1	ND	ND	ND	3.15021816	13.08902249	ND	ND	ND	ND	0	0
73682	2018-06-25T01:00:00	30.8	ND	ND	ND	2.899315828	7.574756646	ND	ND	ND	ND	0	0
73683	2018-06-25T02:00:00	29.4	ND	ND	ND	3.916864172	8.438200409	ND	ND	ND	ND	0	0
73684	2018-06-25T03:00:00	47.7	ND	ND	ND	3.289608344	7.829865031	ND	ND	ND	ND	0	0
73685	2018-06-25T04:00:00	45.3	ND	ND	ND	3.66596184	5.180662577	ND	ND	ND	ND	0	0
73686	2018-06-25T05:00:00	53.4	ND	ND	ND	3.944742209	4.101357873	ND	ND	ND	ND	0	0
73687	2018-06-25T06:00:00	75.2	ND	ND	ND	3.861108098	4.101357873	ND	ND	ND	ND	0	0
73688	2018-06-25T07:00:00	92.3	ND	ND	ND	6.258619264	4.415337423	ND	ND	ND	ND	41.7	0
73689	2018-06-25T08:00:00	100.9	ND	ND	ND	4.558059018	4.768564417	ND	ND	ND	ND	367.3	0
73690	2018-06-25T09:00:00	116.9	ND	ND	ND	4.432607853	8.634437628	ND	ND	ND	ND	646.4	0
73691	2018-06-25T10:00:00	114.7	ND	ND	ND	2.634474479	16.56242127	ND	ND	ND	ND	647.6	0
73692	2018-06-25T11:00:00	63.9	ND	ND	ND	3.219913252	29.04310838	ND	ND	ND	ND	648.3	0
73693	2018-06-25T12:00:00	51.9	ND	ND	ND	1.909645521	44.42810634	ND	ND	ND	ND	648.6	0
73694	2018-06-25T13:00:00	61.2	ND	ND	ND	3.261730307	68.99700613	ND	ND	ND	ND	648.8	0
73695	2018-06-25T14:00:00	69.4	ND	ND	ND	2.509023313	55.0641636	ND	ND	ND	ND	645.2	0
73696	2018-06-25T15:00:00	53.8	ND	ND	ND	2.690230552	37.01033947	ND	ND	ND	ND	551.5	0
73697	2018-06-25T16:00:00	42	ND	ND	ND	4.237461595	31.65306339	ND	ND	ND	ND	647.9	0
73698	2018-06-25T17:00:00	33.6	ND	ND	ND	3.916864172	28.6113865	ND	ND	ND	ND	572.7	0
73699	2018-06-25T18:00:00	28.2	ND	ND	ND	2.27206	17.95570552	ND	ND	ND	ND	192.7	0
73700	2018-06-25T19:00:00	17.2	ND	ND	ND	3.345364417	15.83634356	ND	ND	ND	ND	5.5	0
73701	2018-06-25T20:00:00	30.7	ND	ND	ND	2.341755092	13.79547648	ND	ND	ND	ND	0	0
73702	2018-06-25T21:00:00	29.6	ND	ND	ND	3.456876564	13.34413088	ND	ND	ND	ND	0	0
73703	2018-06-25T22:00:00	29.1	ND	ND	ND	3.596266748	12.85353783	ND	ND	ND	ND	0	0
73704	2018-06-25T23:00:00	41	ND	ND	ND	2.773864663	7.496261759	ND	ND	ND	ND	0	0
73705	2018-06-26T00:00:00	40.4	ND	ND	ND	4.362912761	13.20676483	ND	ND	ND	ND	0	0
73706	2018-06-26T01:00:00	39.4	ND	ND	ND	3.93080319	9.517505112	ND	ND	ND	ND	0	0
73707	2018-06-26T02:00:00	36.4	ND	ND	ND	3.247791288	9.968850716	ND	ND	ND	ND	0	0
73708	2018-06-26T03:00:00	78.6	ND	ND	ND	2.495084294	9.223149284	ND	ND	ND	ND	0	0
73709	2018-06-26T04:00:00	96.9	ND	ND	ND	3.638083804	8.261586912	ND	ND	ND	ND	0	0
73710	2018-06-26T05:00:00	67.5	ND	ND	ND	3.512632638	6.98604499	ND	ND	ND	ND	0	0
73711	2018-06-26T06:00:00	62.7	ND	ND	ND	5.561668344	4.062110429	ND	ND	ND	ND	0	0
73712	2018-06-26T07:00:00	75.7	ND	ND	ND	4.920473497	4.219100204	ND	ND	ND	ND	35.3	0
73713	2018-06-26T08:00:00	88.3	ND	ND	ND	3.66596184	4.768564417	ND	ND	ND	ND	297.8	0
73714	2018-06-26T09:00:00	120.4	ND	ND	ND	4.990168589	8.438200409	ND	ND	ND	ND	540.2	0
73715	2018-06-26T10:00:00	121.8	ND	ND	ND	4.181705521	16.69978732	ND	ND	ND	ND	639	0
73716	2018-06-26T11:00:00	74.4	ND	ND	ND	2.35569411	18.68178323	ND	ND	ND	ND	503.9	0
73717	2018-06-26T12:00:00	74.9	ND	ND	ND	1.993279632	32.41838855	ND	ND	ND	ND	645.3	0
73718	2018-06-26T13:00:00	82.8	ND	ND	ND	2.383572147	31.51569734	ND	ND	ND	ND	548.9	0
73719	2018-06-26T14:00:00	80.7	ND	ND	ND	2.146608834	51.04130061	ND	ND	ND	ND	648.3	0
73720	2018-06-26T15:00:00	78.7	ND	ND	ND	3.735656933	75.9634274	ND	ND	ND	ND	566.6	0
73721	2018-06-26T16:00:00	92.9	ND	ND	ND	3.540510675	66.13194274	ND	ND	ND	ND	404.2	0
73722	2018-06-26T17:00:00	90.5	ND	ND	ND	2.732047607	54.55394683	ND	ND	ND	ND	580.2	0
73723	2018-06-26T18:00:00	64.4	ND	ND	ND	1.686621227	18.15194274	ND	ND	ND	ND	163.2	0
73724	2018-06-26T19:00:00	18.9	ND	ND	ND	2.27206	11.57799591	ND	ND	ND	ND	0	0
73725	2018-06-26T20:00:00	18.8	ND	ND	ND	2.662352515	13.12826994	ND	ND	ND	ND	0	0
73726	2018-06-26T21:00:00	25.5	ND	ND	ND	2.258120982	13.79547648	ND	ND	ND	ND	0	0
73727	2018-06-26T22:00:00	29.3	ND	ND	ND	2.230242945	4.552703476	ND	ND	ND	ND	0	0
73728	2018-06-26T23:00:00	39.1	ND	ND	ND	4.488363926	8.477447853	ND	ND	ND	ND	0	0
73729	2018-06-27T00:00:00	21.1	ND	ND	ND	3.038706012	16.26806544	ND	ND	ND	ND	0	0
73730	2018-06-27T01:00:00	10.3	ND	ND	ND	3.777473988	9.007288344	ND	ND	ND	ND	0	0
73731	2018-06-27T02:00:00	42.4	ND	ND	ND	3.93080319	5.161038855	ND	ND	ND	ND	0	0
73732	2018-06-27T03:00:00	44.3	ND	ND	ND	4.669571166	4.847059305	ND	ND	ND	ND	0	0
73733	2018-06-27T04:00:00	41.1	ND	ND	ND	4.098071411	3.748130879	ND	ND	ND	ND	0	0
73734	2018-06-27T05:00:00	42.7	ND	ND	ND	4.19564454	3.787378323	ND	ND	ND	ND	0	0
73735	2018-06-27T06:00:00	32.6	ND	ND	ND	4.028376319	3.826625767	ND	ND	ND	ND	0	0
73736	2018-06-27T07:00:00	41.2	ND	ND	ND	4.934412515	4.101357873	ND	ND	ND	ND	47.2	0
73737	2018-06-27T08:00:00	72.6	ND	ND	ND	3.428998528	4.533079755	ND	ND	ND	ND	227	0
73738	2018-06-27T09:00:00	102.3	ND	ND	ND	3.749595951	6.554323108	ND	ND	ND	ND	387.6	0
73739	2018-06-27T10:00:00	97.3	ND	ND	ND	3.875047117	20.23205726	ND	ND	ND	ND	625.9	0
73740	2018-06-27T11:00:00	72.2	ND	ND	ND	3.373242454	35.89178732	ND	ND	ND	ND	640.8	0
73741	2018-06-27T12:00:00	59.7	ND	ND	ND	2.745986626	47.23429857	ND	ND	ND	ND	648.4	0
73742	2018-06-27T13:00:00	67.9	ND	ND	ND	4.976229571	43.87864213	ND	ND	ND	ND	636.5	0
73743	2018-06-27T14:00:00	63.7	ND	ND	ND	3.15021816	37.32431902	ND	ND	ND	ND	611.9	0
73744	2018-06-27T15:00:00	39.1	ND	ND	ND	1.547231043	32.16328016	ND	ND	ND	ND	620.7	0
73745	2018-06-27T16:00:00	26.4	ND	ND	ND	1.435718896	21.0758773	ND	ND	ND	ND	626.9	0
73746	2018-06-27T17:00:00	37.2	ND	ND	ND	4.028376319	17.87721063	ND	ND	ND	ND	470.7	0
73747	2018-06-27T18:00:00	24.5	ND	ND	ND	2.341755092	15.99333333	ND	ND	ND	ND	267.6	0
73748	2018-06-27T19:00:00	25.5	ND	ND	ND	2.53690135	13.34413088	ND	ND	ND	ND	13.9	0
73749	2018-06-27T20:00:00	27	ND	ND	ND	3.442937546	14.14870348	ND	ND	ND	ND	0	0
73750	2018-06-27T21:00:00	32.9	ND	ND	ND	3.024766994	15.58123517	ND	ND	ND	ND	0	0
73751	2018-06-27T22:00:00	20	ND	ND	ND	2.021157669	13.77585276	ND	ND	ND	ND	0	0
73752	2018-06-27T23:00:00	24.4	ND	ND	ND	3.986559264	12.81429039	ND	ND	ND	ND	0	0
73753	2018-06-28T00:00:00	37.2	ND	ND	ND	3.428998528	7.358895706	ND	ND	ND	ND	0	0
73754	2018-06-28T01:00:00	48.9	ND	ND	ND	3.219913252	6.789807771	ND	ND	ND	ND	0	21.59
73755	2018-06-28T02:00:00	40	ND	ND	ND	2.481145276	4.709693252	ND	ND	ND	ND	0	30.73
73756	2018-06-28T03:00:00	15.1	ND	ND	ND	4.000498282	3.983615542	ND	ND	ND	ND	0	2.79
73757	2018-06-28T04:00:00	13.1	ND	ND	ND	3.456876564	3.787378323	ND	ND	ND	ND	0	0.25
73758	2018-06-28T05:00:00	18.2	ND	ND	ND	4.711388221	3.453775051	ND	ND	ND	ND	0	0.25
73759	2018-06-28T06:00:00	27.4	ND	ND	ND	3.345364417	3.728507157	ND	ND	ND	ND	0	0
73760	2018-06-28T07:00:00	31.1	ND	ND	ND	4.530180982	3.807002045	ND	ND	ND	ND	81.5	0.51
73761	2018-06-28T08:00:00	36.8	ND	ND	ND	4.655632147	4.120981595	ND	ND	ND	ND	466.9	0
73762	2018-06-28T09:00:00	28.5	ND	ND	ND	ND	169.3527198	ND	ND	ND	ND	493.7	0
73763	2018-06-28T10:00:00	92.7	ND	ND	ND	ND	6.946797546	ND	ND	ND	ND	586.6	0
73764	2018-06-28T11:00:00	20.2	ND	ND	ND	ND	16.77828221	ND	ND	ND	ND	593.5	0
73765	2018-06-28T12:00:00	1.3	ND	ND	ND	4.418668834	31.08397546	ND	ND	ND	ND	650	0
73766	2018-06-28T13:00:00	5.8	ND	ND	ND	3.84716908	36.48049898	ND	ND	ND	ND	639.7	0
73767	2018-06-28T14:00:00	29.4	ND	ND	ND	3.442937546	39.4633047	ND	ND	ND	ND	622.1	0
73768	2018-06-28T15:00:00	63.3	ND	ND	ND	2.982949939	21.05625358	ND	ND	ND	ND	334.2	0
73769	2018-06-28T16:00:00	53.3	ND	ND	ND	3.638083804	10.79304703	ND	ND	ND	ND	543.1	0
73770	2018-06-28T17:00:00	27.4	ND	ND	ND	2.202364908	13.32450716	ND	ND	ND	ND	559.2	0
73771	2018-06-28T18:00:00	39.7	ND	ND	ND	4.125949448	8.379329243	ND	ND	ND	ND	183.8	0
73772	2018-06-28T19:00:00	56.4	ND	ND	ND	2.244181963	4.062110429	ND	ND	ND	ND	9.8	0
73773	2018-06-28T20:00:00	28.9	ND	ND	ND	2.397511166	3.434151329	ND	ND	ND	ND	0	0
73774	2018-06-28T21:00:00	16.3	ND	ND	ND	1.826011411	4.474208589	ND	ND	ND	ND	0	0
73775	2018-06-28T22:00:00	17.8	ND	ND	ND	3.707778896	5.376899796	ND	ND	ND	ND	0	0
73776	2018-06-28T23:00:00	20.2	ND	ND	ND	1.087243436	10.32207771	ND	ND	ND	ND	0	0
73777	2018-06-29T00:00:00	12.1	ND	ND	ND	2.982949939	6.652441718	ND	ND	ND	ND	0	3.05
73778	2018-06-29T01:00:00	ND	ND	ND	ND	2.773864663	5.239533742	ND	ND	ND	ND	0	1.52
73779	2018-06-29T02:00:00	3.2	ND	ND	ND	1.115121472	2.080114519	ND	ND	ND	ND	0	0
73780	2018-06-29T03:00:00	19.3	ND	ND	ND	3.749595951	1.334413088	ND	ND	ND	ND	0	0
73781	2018-06-29T04:00:00	44.5	ND	ND	ND	3.261730307	2.39409407	ND	ND	ND	ND	0	0.25
73782	2018-06-29T05:00:00	19.5	ND	ND	ND	1.700560245	2.60995501	ND	ND	ND	ND	0	0
73783	2018-06-29T06:00:00	13.9	ND	ND	ND	2.732047607	1.66801636	ND	ND	ND	ND	0	0
73784	2018-06-29T07:00:00	47.4	ND	ND	ND	2.425389202	1.825006135	ND	ND	ND	ND	56.3	0
73785	2018-06-29T08:00:00	56.5	ND	ND	ND	2.787803681	2.158609407	ND	ND	ND	ND	310.4	0
73786	2018-06-29T09:00:00	30.5	ND	ND	ND	1.714499264	5.730126789	ND	ND	ND	ND	569.7	0
73787	2018-06-29T10:00:00	66.5	ND	ND	ND	3.247791288	15.26725562	ND	ND	ND	ND	647.2	0
73788	2018-06-29T11:00:00	82.9	ND	ND	ND	5.018046626	20.13393865	ND	ND	ND	ND	648.5	0
73789	2018-06-29T12:00:00	52.1	ND	ND	ND	4.209583558	40.67997546	ND	ND	ND	ND	644.7	0
73790	2018-06-29T13:00:00	77.6	ND	ND	ND	4.167766503	64.4835501	ND	ND	ND	ND	597	0
73791	2018-06-29T14:00:00	56.9	ND	ND	ND	3.247791288	47.21467485	ND	ND	ND	ND	634.7	0
73792	2018-06-29T15:00:00	46.4	ND	ND	ND	3.303547362	33.32107975	ND	ND	ND	ND	550	0
73793	2018-06-29T16:00:00	44.1	ND	ND	ND	3.261730307	20.11431493	ND	ND	ND	ND	458.5	0
73794	2018-06-29T17:00:00	20.7	ND	ND	ND	2.815681718	13.79547648	ND	ND	ND	ND	509.7	0
73795	2018-06-29T18:00:00	32.5	ND	ND	ND	3.094462086	9.851108384	ND	ND	ND	ND	282.2	0
73796	2018-06-29T19:00:00	34.6	ND	ND	ND	1.533292025	9.18390184	ND	ND	ND	ND	9.5	0
73797	2018-06-29T20:00:00	21.4	ND	ND	ND	4.530180982	10.30245399	ND	ND	ND	ND	0	0
73798	2018-06-29T21:00:00	12.1	ND	ND	ND	2.369633129	10.4005726	ND	ND	ND	ND	0	0
73799	2018-06-29T22:00:00	5.4	ND	ND	ND	3.721717914	7.260777096	ND	ND	ND	ND	0	0
73800	2018-06-29T23:00:00	12.4	ND	ND	ND	3.526571656	8.026102249	ND	ND	ND	ND	0	0
73801	2018-06-30T00:00:00	7.8	ND	ND	ND	3.219913252	1.785758691	ND	ND	ND	ND	0	0
73802	2018-06-30T01:00:00	22.2	ND	ND	ND	2.550840368	4.199476483	ND	ND	ND	ND	0	0
73803	2018-06-30T02:00:00	19.4	ND	ND	ND	2.690230552	5.887116564	ND	ND	ND	ND	0	1.02
73804	2018-06-30T03:00:00	8.4	ND	ND	ND	3.122340123	3.33603272	ND	ND	ND	ND	0	0.25
73805	2018-06-30T04:00:00	19.2	ND	ND	ND	3.707778896	1.589521472	ND	ND	ND	ND	0	0.25
73806	2018-06-30T05:00:00	25.5	ND	ND	ND	3.512632638	1.295165644	ND	ND	ND	ND	0	0
73807	2018-06-30T06:00:00	43.4	ND	ND	ND	4.139888466	1.334413088	ND	ND	ND	ND	0	0.25
73808	2018-06-30T07:00:00	35.2	ND	ND	ND	4.153827485	1.412907975	ND	ND	ND	ND	38.9	0
73809	2018-06-30T08:00:00	37.6	ND	ND	ND	3.038706012	1.530650307	ND	ND	ND	ND	230.8	0.51
73810	2018-06-30T09:00:00	36.3	ND	ND	ND	2.35569411	1.66801636	ND	ND	ND	ND	196.2	0
73811	2018-06-30T10:00:00	50.8	ND	ND	ND	3.178096196	1.844629857	ND	ND	ND	ND	341.6	0
73812	2018-06-30T11:00:00	39.7	ND	ND	ND	3.024766994	6.279591002	ND	ND	ND	ND	627.2	0
73813	2018-06-30T12:00:00	57.2	ND	ND	ND	2.341755092	9.497881391	ND	ND	ND	ND	537.7	0
73814	2018-06-30T13:00:00	54.5	ND	ND	ND	3.31748638	25.43234356	ND	ND	ND	ND	649.3	0
73815	2018-06-30T14:00:00	47.1	ND	ND	ND	3.805352025	29.16085072	ND	ND	ND	ND	640.7	0
73816	2018-06-30T15:00:00	75.9	ND	ND	ND	2.341755092	17.85758691	ND	ND	ND	ND	623.7	0
73817	2018-06-30T16:00:00	22.7	ND	ND	ND	1.505413988	18.76027812	ND	ND	ND	ND	595.9	0
73818	2018-06-30T17:00:00	9.9	ND	ND	ND	2.606596442	15.79709611	ND	ND	ND	ND	399.2	0
73819	2018-06-30T18:00:00	13.3	ND	ND	ND	2.773864663	18.36780368	ND	ND	ND	ND	101.3	0
73820	2018-06-30T19:00:00	30.5	ND	ND	ND	2.690230552	17.4847362	ND	ND	ND	ND	0	0
73821	2018-06-30T20:00:00	30.3	ND	ND	ND	3.610205767	4.788188139	ND	ND	ND	ND	0	0
73822	2018-06-30T21:00:00	50.4	ND	ND	ND	2.313877055	1.393284254	ND	ND	ND	ND	0	0
73823	2018-06-30T22:00:00	47.9	ND	ND	ND	2.425389202	1.550274029	ND	ND	ND	ND	0	0
73824	2018-06-30T23:00:00	63.9	ND	ND	ND	3.331425399	1.452155419	ND	ND	ND	ND	0	0
73825	2018-07-01T00:00:00	47.3	ND	ND	ND	3.261730307	1.2559182	ND	ND	ND	ND	0	0
73826	2018-07-01T01:00:00	47.4	ND	ND	ND	4.86095007	1.412517097	ND	ND	ND	ND	0	0
73827	2018-07-01T02:00:00	59.2	ND	ND	ND	6.796973163	1.255570753	ND	ND	ND	ND	0	0
73828	2018-07-01T03:00:00	51.8	ND	ND	ND	4.707739609	1.157479288	ND	ND	ND	ND	0	0
73829	2018-07-01T04:00:00	45.6	ND	ND	ND	6.267700663	1.392898804	ND	ND	ND	ND	0	0
73830	2018-07-01T05:00:00	43.4	ND	ND	ND	5.028088754	1.334043925	ND	ND	ND	ND	0	0
73831	2018-07-01T06:00:00	54.6	ND	ND	ND	4.763452504	1.589081734	ND	ND	ND	ND	0	0
73832	2018-07-01T07:00:00	50.3	ND	ND	ND	4.568457372	1.62831832	ND	ND	ND	ND	61.8	0
73833	2018-07-01T08:00:00	42.6	ND	ND	ND	4.791308951	3.707857379	ND	ND	ND	ND	358.3	0
73834	2018-07-01T09:00:00	55.6	ND	ND	ND	3.509912371	10.24074895	ND	ND	ND	ND	644	0
73835	2018-07-01T10:00:00	56.4	ND	ND	ND	4.470959806	13.12463803	ND	ND	ND	ND	647	0
73836	2018-07-01T11:00:00	43.7	ND	ND	ND	4.819165399	29.34896635	ND	ND	ND	ND	637.5	0
73837	2018-07-01T12:00:00	39.7	ND	ND	ND	4.039184872	50.45824963	ND	ND	ND	ND	627.4	0
73838	2018-07-01T13:00:00	45.1	ND	ND	ND	2.284228686	57.61892658	ND	ND	ND	ND	645.8	0
73839	2018-07-01T14:00:00	43	ND	ND	ND	2.618506055	58.07014732	ND	ND	ND	ND	611.9	0
73840	2018-07-01T15:00:00	44.5	ND	ND	ND	1.518176383	36.5096433	ND	ND	ND	ND	570	0
73841	2018-07-01T16:00:00	16.8	ND	ND	ND	2.284228686	20.42264303	ND	ND	ND	ND	581.7	0
73842	2018-07-01T17:00:00	10.5	ND	ND	ND	3.95561553	17.71531859	ND	ND	ND	ND	590	0
73843	2018-07-01T18:00:00	15.5	ND	ND	ND	2.869214081	17.08753321	ND	ND	ND	ND	188.8	0
73844	2018-07-01T19:00:00	9	ND	ND	ND	3.663122832	16.5774576	ND	ND	ND	ND	0	0
73845	2018-07-01T20:00:00	10.8	ND	ND	ND	2.813501187	13.06578315	ND	ND	ND	ND	0	0
73846	2018-07-01T21:00:00	10.6	ND	ND	ND	2.9388552	11.57479288	ND	ND	ND	ND	0	0
73847	2018-07-01T22:00:00	13.1	ND	ND	ND	3.412414805	6.415181815	ND	ND	ND	ND	0	0
73848	2018-07-01T23:00:00	15.5	ND	ND	ND	2.395654476	2.354195162	ND	ND	ND	ND	0	0
73849	2018-07-02T00:00:00	25.2	ND	ND	ND	3.482055924	4.826100081	ND	ND	ND	ND	0	0
73850	2018-07-02T01:00:00	19.8	ND	ND	ND	2.771716515	4.708390323	ND	ND	ND	ND	0	0
73851	2018-07-02T02:00:00	16.1	ND	ND	ND	4.122754214	2.256103697	ND	ND	ND	ND	0	0
73852	2018-07-02T03:00:00	24.7	ND	ND	ND	2.423510923	2.47190492	ND	ND	ND	ND	0	0
73853	2018-07-02T04:00:00	18.4	ND	ND	ND	1.54603283	1.294807339	ND	ND	ND	ND	0	0
73854	2018-07-02T05:00:00	21.9	ND	ND	ND	2.910998752	1.373280511	ND	ND	ND	ND	0	0
73855	2018-07-02T06:00:00	37.7	ND	ND	ND	4.080969543	1.334043925	ND	ND	ND	ND	0	0
73856	2018-07-02T07:00:00	40.9	ND	ND	ND	3.147778555	1.706791492	ND	ND	ND	ND	90.9	0
73857	2018-07-02T08:00:00	42.2	ND	ND	ND	3.4681277	2.079539059	ND	ND	ND	ND	165.1	0
73858	2018-07-02T09:00:00	51.5	ND	ND	ND	4.192395332	3.433201277	ND	ND	ND	ND	388.4	0
73859	2018-07-02T10:00:00	61.8	ND	ND	ND	4.136682438	11.04509897	ND	ND	ND	ND	642.3	0
73860	2018-07-02T11:00:00	63.3	ND	ND	ND	4.930591188	14.94913928	ND	ND	ND	ND	648.9	0
73861	2018-07-02T12:00:00	37.2	ND	ND	ND	3.802405069	25.95500166	ND	ND	ND	ND	615.2	0
73862	2018-07-02T13:00:00	33.6	ND	ND	ND	2.284228686	39.13849456	ND	ND	ND	ND	610.1	0
73863	2018-07-02T14:00:00	38	ND	ND	ND	4.053113095	45.55367638	ND	ND	ND	ND	616	0
73864	2018-07-02T15:00:00	46.4	ND	ND	ND	3.607409937	41.49268972	ND	ND	ND	ND	366.8	0
73865	2018-07-02T16:00:00	28.7	ND	ND	ND	3.774548621	35.70529328	ND	ND	ND	ND	604.1	0
73866	2018-07-02T17:00:00	15.6	ND	ND	ND	3.328845463	22.50218209	ND	ND	ND	ND	344.5	0
73867	2018-07-02T18:00:00	16.6	ND	ND	ND	2.743860068	18.67661495	ND	ND	ND	ND	250.8	0
73868	2018-07-02T19:00:00	17.5	ND	ND	ND	2.423510923	17.06791492	ND	ND	ND	ND	11.7	0
73869	2018-07-02T20:00:00	7.9	ND	ND	ND	1.504248159	15.87119905	ND	ND	ND	ND	0	0
73870	2018-07-02T21:00:00	18.1	ND	ND	ND	1.16997079	16.45974784	ND	ND	ND	ND	0	0
73871	2018-07-02T22:00:00	20.8	ND	ND	ND	3.09206566	1.804882957	ND	ND	ND	ND	0	0
73872	2018-07-02T23:00:00	50.2	ND	ND	ND	5.445935465	1.608700027	ND	ND	ND	ND	0	0
73873	2018-07-03T00:00:00	34	ND	ND	ND	4.039184872	4.590680565	ND	ND	ND	ND	0	0
73874	2018-07-03T01:00:00	26.5	ND	ND	ND	2.061377107	4.767245202	ND	ND	ND	ND	0	0
73875	2018-07-03T02:00:00	23.7	ND	ND	ND	2.507080265	5.100756183	ND	ND	ND	ND	0	0
73876	2018-07-03T03:00:00	19.9	ND	ND	ND	2.688147173	4.708390323	ND	ND	ND	ND	0	0
73877	2018-07-03T04:00:00	29.1	ND	ND	ND	3.482055924	5.375412286	ND	ND	ND	ND	0	0
73878	2018-07-03T05:00:00	24.4	ND	ND	ND	3.858117964	4.786863495	ND	ND	ND	ND	0	0
73879	2018-07-03T06:00:00	40.2	ND	ND	ND	6.643762703	1.510608562	ND	ND	ND	ND	0	0
73880	2018-07-03T07:00:00	51	ND	ND	ND	6.964111848	1.687173199	ND	ND	ND	ND	44.1	0
73881	2018-07-03T08:00:00	59.2	ND	ND	ND	4.206323556	2.21686711	ND	ND	ND	ND	167.4	0
73882	2018-07-03T09:00:00	96.7	ND	ND	ND	4.053113095	4.728008616	ND	ND	ND	ND	583.5	0
73883	2018-07-03T10:00:00	92.3	ND	ND	ND	3.927759082	15.4395966	ND	ND	ND	ND	642.7	0
73884	2018-07-03T11:00:00	56.8	ND	ND	ND	2.757788292	20.10875034	ND	ND	ND	ND	649	0
73885	2018-07-03T12:00:00	31.5	ND	ND	ND	2.646362502	22.40409062	ND	ND	ND	ND	649.8	0
73886	2018-07-03T13:00:00	29.7	ND	ND	ND	3.774548621	29.05469195	ND	ND	ND	ND	641.3	0
73887	2018-07-03T14:00:00	29.4	ND	ND	ND	2.646362502	40.08017263	ND	ND	ND	ND	649.4	0
73888	2018-07-03T15:00:00	26.3	ND	ND	ND	3.105993884	47.75092519	ND	ND	ND	ND	650	0
73889	2018-07-03T16:00:00	29.2	ND	ND	ND	4.206323556	46.3384081	ND	ND	ND	ND	649.9	0
73890	2018-07-03T17:00:00	30.8	ND	ND	ND	2.521008489	41.94391046	ND	ND	ND	ND	570.3	0
73891	2018-07-03T18:00:00	43.3	ND	ND	ND	3.621338161	26.36698581	ND	ND	ND	ND	153.3	0
73892	2018-07-03T19:00:00	34.9	ND	ND	ND	3.231347897	15.00799416	ND	ND	ND	ND	11.1	0
73893	2018-07-03T20:00:00	33.3	ND	ND	ND	2.172802897	9.318689181	ND	ND	ND	ND	0	0
73894	2018-07-03T21:00:00	28.1	ND	ND	ND	2.326013357	9.966092851	ND	ND	ND	ND	0	0
73895	2018-07-03T22:00:00	17.2	ND	ND	ND	1.54603283	8.906705028	ND	ND	ND	ND	0	0
73896	2018-07-03T23:00:00	13.4	ND	ND	ND	2.548864936	8.553575754	ND	ND	ND	ND	0	0
73897	2018-07-04T00:00:00	27.6	ND	ND	ND	4.039184872	2.86427078	ND	ND	ND	ND	0	0
73898	2018-07-04T01:00:00	43.2	ND	ND	ND	2.716003621	8.357392824	ND	ND	ND	ND	0	0
73899	2018-07-04T02:00:00	30.3	ND	ND	ND	4.178467109	6.807547676	ND	ND	ND	ND	0	0
73900	2018-07-04T03:00:00	59.7	ND	ND	ND	4.080969543	1.844119543	ND	ND	ND	ND	0	0
73901	2018-07-04T04:00:00	63.5	ND	ND	ND	3.119922108	5.983579369	ND	ND	ND	ND	0	0
73902	2018-07-04T05:00:00	49.9	ND	ND	ND	1.420678817	2.726942729	ND	ND	ND	ND	0	0
73903	2018-07-04T06:00:00	53.1	ND	ND	ND	3.746692174	1.569463441	ND	ND	ND	ND	0	0
73904	2018-07-04T07:00:00	60.6	ND	ND	ND	3.593481713	2.02068418	ND	ND	ND	ND	116.7	0
73905	2018-07-04T08:00:00	74	ND	ND	ND	4.847021846	4.786863495	ND	ND	ND	ND	486.7	0
73906	2018-07-04T09:00:00	88.3	ND	ND	ND	2.493152042	15.733871	ND	ND	ND	ND	643.9	0
73907	2018-07-04T10:00:00	81.9	ND	ND	ND	2.9388552	25.60187238	ND	ND	ND	ND	648.4	0
73908	2018-07-04T11:00:00	69	ND	ND	ND	3.649194608	39.80551652	ND	ND	ND	ND	619	0
73909	2018-07-04T12:00:00	55.2	ND	ND	ND	4.610242043	44.55314343	ND	ND	ND	ND	649.7	0
73910	2018-07-04T13:00:00	61.9	ND	ND	ND	2.67421895	63.1709035	ND	ND	ND	ND	621.4	0
73911	2018-07-04T14:00:00	64.8	ND	ND	ND	1.225683685	74.58875004	ND	ND	ND	ND	626.8	0
73912	2018-07-04T15:00:00	73.8	ND	ND	ND	3.95561553	86.14392462	ND	ND	ND	ND	629.2	0
73913	2018-07-04T16:00:00	79.3	ND	ND	ND	2.729931844	51.83153014	ND	ND	ND	ND	505.1	0
73914	2018-07-04T17:00:00	53.1	ND	ND	ND	1.629602172	28.87812732	ND	ND	ND	ND	575.8	0
73915	2018-07-04T18:00:00	55.5	ND	ND	ND	1.406750593	23.24767722	ND	ND	ND	ND	170.1	0
73916	2018-07-04T19:00:00	57.2	ND	ND	ND	2.353869805	18.46081373	ND	ND	ND	ND	4.4	0
73917	2018-07-04T20:00:00	36.2	ND	ND	ND	2.924926976	14.65486488	ND	ND	ND	ND	0	0
73918	2018-07-04T21:00:00	33.6	ND	ND	ND	3.802405069	5.395030579	ND	ND	ND	ND	0	0
73919	2018-07-04T22:00:00	57.1	ND	ND	ND	2.047448883	5.316557407	ND	ND	ND	ND	0	0
73920	2018-07-04T23:00:00	27.1	ND	ND	ND	3.537768819	5.08113789	ND	ND	ND	ND	0	0
73921	2018-07-05T00:00:00	26.4	ND	ND	ND	3.119922108	7.847317205	ND	ND	ND	ND	0	0
73922	2018-07-05T01:00:00	25.6	ND	ND	ND	3.983471977	3.923658603	ND	ND	ND	ND	0	0
73923	2018-07-05T02:00:00	48	ND	ND	ND	3.189563226	4.29640617	ND	ND	ND	ND	0	0
73924	2018-07-05T03:00:00	55	ND	ND	ND	3.997400201	4.414115928	ND	ND	ND	ND	0	0
73925	2018-07-05T04:00:00	52.6	ND	ND	ND	2.381726252	3.511674449	ND	ND	ND	ND	0	0
73926	2018-07-05T05:00:00	46.1	ND	ND	ND	5.195227438	2.923125659	ND	ND	ND	ND	0	0
73927	2018-07-05T06:00:00	58.6	ND	ND	ND	3.690979279	1.785264664	ND	ND	ND	ND	0	0
73928	2018-07-05T07:00:00	86.7	ND	ND	ND	4.275964675	1.804882957	ND	ND	ND	ND	63.6	0
73929	2018-07-05T08:00:00	98	ND	ND	ND	4.10882599	2.746561022	ND	ND	ND	ND	390.1	0
73930	2018-07-05T09:00:00	110	ND	ND	ND	3.997400201	7.611897689	ND	ND	ND	ND	567.5	0
73931	2018-07-05T10:00:00	107.5	ND	ND	ND	4.86095007	15.59654295	ND	ND	ND	ND	648.7	0
73932	2018-07-05T11:00:00	83.5	ND	ND	ND	3.551697042	32.40942006	ND	ND	ND	ND	649.4	0
73933	2018-07-05T12:00:00	84.6	ND	ND	ND	3.858117964	37.72597746	ND	ND	ND	ND	649.2	0
73934	2018-07-05T13:00:00	73	ND	ND	ND	3.84418974	41.06108728	ND	ND	ND	ND	649.3	0
73935	2018-07-05T14:00:00	74	ND	ND	ND	3.746692174	67.6634926	ND	ND	ND	ND	647.6	0
73936	2018-07-05T15:00:00	79.8	ND	ND	ND	3.384558358	76.9233269	ND	ND	ND	ND	599.4	0
73937	2018-07-05T16:00:00	93	ND	ND	ND	2.18673112	51.26259964	ND	ND	ND	ND	440.8	0
73938	2018-07-05T17:00:00	79.2	ND	ND	ND	2.688147173	24.83675895	ND	ND	ND	ND	351.2	0
73939	2018-07-05T18:00:00	60.2	ND	ND	ND	1.824597304	14.65486488	ND	ND	ND	ND	96.5	0
73940	2018-07-05T19:00:00	36.3	ND	ND	ND	3.217419674	7.925790377	ND	ND	ND	ND	5.6	0
73941	2018-07-05T20:00:00	24.7	ND	ND	ND	2.521008489	11.98677703	ND	ND	ND	ND	0	0
73942	2018-07-05T21:00:00	12.8	ND	ND	ND	2.437439147	18.40195885	ND	ND	ND	ND	0	0
73943	2018-07-05T22:00:00	20.7	ND	ND	ND	2.312085133	9.691436748	ND	ND	ND	ND	0	0
73944	2018-07-05T23:00:00	12	ND	ND	ND	3.704907503	12.3595246	ND	ND	ND	ND	0	0
73945	2018-07-06T00:00:00	24.3	ND	ND	ND	3.245276121	1.549845148	ND	ND	ND	ND	0	0
73946	2018-07-06T01:00:00	44.7	ND	ND	ND	2.131018225	1.667554906	ND	ND	ND	ND	0	0
73947	2018-07-06T02:00:00	54.1	ND	ND	ND	3.356701911	3.864803724	ND	ND	ND	ND	0	0
73948	2018-07-06T03:00:00	62.1	ND	ND	ND	4.568457372	3.45281957	ND	ND	ND	ND	0	0
73949	2018-07-06T04:00:00	41.6	ND	ND	ND	2.67421895	2.903507366	ND	ND	ND	ND	0	0
73950	2018-07-06T05:00:00	41.5	ND	ND	ND	3.690979279	1.902974422	ND	ND	ND	ND	0	0
73951	2018-07-06T06:00:00	43.6	ND	ND	ND	4.847021846	1.392898804	ND	ND	ND	ND	0	0
73952	2018-07-06T07:00:00	69.1	ND	ND	ND	3.537768819	1.706791492	ND	ND	ND	ND	47.5	0
73953	2018-07-06T08:00:00	109.4	ND	ND	ND	2.479223818	2.314958576	ND	ND	ND	ND	215.7	0
73954	2018-07-06T09:00:00	86.9	ND	ND	ND	4.067041319	3.472437863	ND	ND	ND	ND	383.7	0
73955	2018-07-06T10:00:00	73.3	ND	ND	ND	3.078137437	9.554108697	ND	ND	ND	ND	645.3	0
73956	2018-07-06T11:00:00	50.9	ND	ND	ND	3.927759082	24.52286627	ND	ND	ND	ND	649.1	0
73957	2018-07-06T12:00:00	66.7	ND	ND	ND	3.872046187	32.68407616	ND	ND	ND	ND	649	0
73958	2018-07-06T13:00:00	78.5	ND	ND	ND	2.980639871	39.25620432	ND	ND	ND	ND	649.5	0
73959	2018-07-06T14:00:00	75.5	ND	ND	ND	2.618506055	67.17303528	ND	ND	ND	ND	649.2	0
73960	2018-07-06T15:00:00	66.9	ND	ND	ND	4.610242043	58.32518513	ND	ND	ND	ND	604.8	0
73961	2018-07-06T16:00:00	84.9	ND	ND	ND	4.067041319	42.9640617	ND	ND	ND	ND	412.6	0
73962	2018-07-06T17:00:00	74.3	ND	ND	ND	3.495984148	22.48256379	ND	ND	ND	ND	376.2	0
73963	2018-07-06T18:00:00	41.5	ND	ND	ND	3.133850332	7.494187931	ND	ND	ND	ND	195.7	0
73964	2018-07-06T19:00:00	45.3	ND	ND	ND	1.949951317	5.3361757	ND	ND	ND	ND	5.2	0
73965	2018-07-06T20:00:00	30.6	ND	ND	ND	1.768884409	5.218465941	ND	ND	ND	ND	0	0
73966	2018-07-06T21:00:00	21.9	ND	ND	ND	2.910998752	4.924191546	ND	ND	ND	ND	0	0
73967	2018-07-06T22:00:00	17.1	ND	ND	ND	1.949951317	5.571595216	ND	ND	ND	ND	0	0
73968	2018-07-06T23:00:00	25.2	ND	ND	ND	3.259204345	1.530226855	ND	ND	ND	ND	0	0
73969	2018-07-07T00:00:00	33.1	ND	ND	ND	3.050280989	2.569996385	ND	ND	ND	ND	0	0
73970	2018-07-07T01:00:00	38.4	ND	ND	ND	4.916662965	1.490990269	ND	ND	ND	ND	0	0
73971	2018-07-07T02:00:00	31.6	ND	ND	ND	4.652026714	1.530226855	ND	ND	ND	ND	0	0
73972	2018-07-07T03:00:00	41.9	ND	ND	ND	4.10882599	2.079539059	ND	ND	ND	ND	0	0
73973	2018-07-07T04:00:00	59.7	ND	ND	ND	3.969543753	3.354728105	ND	ND	ND	ND	0	0
73974	2018-07-07T05:00:00	57.3	ND	ND	ND	3.036352766	1.942211008	ND	ND	ND	ND	0	0
73975	2018-07-07T06:00:00	49.5	ND	ND	ND	3.412414805	2.746561022	ND	ND	ND	ND	0	0
73976	2018-07-07T07:00:00	80.4	ND	ND	ND	3.649194608	1.863737836	ND	ND	ND	ND	158.2	0
73977	2018-07-07T08:00:00	107.8	ND	ND	ND	4.652026714	2.648469557	ND	ND	ND	ND	389.2	0
73978	2018-07-07T09:00:00	100.3	ND	ND	ND	3.4681277	8.847850149	ND	ND	ND	ND	557.5	0
73979	2018-07-07T10:00:00	82.5	ND	ND	ND	3.565625266	17.08753321	ND	ND	ND	ND	648.7	0
73980	2018-07-07T11:00:00	76.4	ND	ND	ND	3.119922108	42.98367999	ND	ND	ND	ND	649.3	0
73981	2018-07-07T12:00:00	74.9	ND	ND	ND	4.791308951	77.92385985	ND	ND	ND	ND	634.8	0
73982	2018-07-07T13:00:00	68.6	ND	ND	ND	4.540600925	93.85391377	ND	ND	ND	ND	573.7	0
73983	2018-07-07T14:00:00	76.3	ND	ND	ND	3.84418974	72.37188293	ND	ND	ND	ND	619.6	0
73984	2018-07-07T15:00:00	66.5	ND	ND	ND	2.952783423	87.67415148	ND	ND	ND	ND	396.3	0
73985	2018-07-07T16:00:00	50.8	ND	ND	ND	3.412414805	45.18092881	ND	ND	ND	ND	363	0
73986	2018-07-07T17:00:00	34.8	ND	ND	ND	3.147778555	27.32828217	ND	ND	ND	ND	300	0
73987	2018-07-07T18:00:00	11.6	ND	ND	ND	2.534936713	23.56156991	ND	ND	ND	ND	144.1	0
73988	2018-07-07T19:00:00	39.7	ND	ND	ND	2.103161778	16.02814539	ND	ND	ND	ND	5.2	0
73989	2018-07-07T20:00:00	29.3	ND	ND	ND	2.716003621	15.85158075	ND	ND	ND	ND	0	0
73990	2018-07-07T21:00:00	23	ND	ND	ND	2.381726252	14.26249902	ND	ND	ND	ND	0	0
73991	2018-07-07T22:00:00	26.8	ND	ND	ND	2.855285858	12.47723436	ND	ND	ND	ND	0	0
73992	2018-07-07T23:00:00	32.5	ND	ND	ND	3.565625266	7.74922574	ND	ND	ND	ND	0	0
73993	2018-07-08T00:00:00	47.5	ND	ND	ND	4.37346224	2.354195162	ND	ND	ND	ND	0	0
73994	2018-07-08T01:00:00	62	ND	ND	ND	2.353869805	3.119308589	ND	ND	ND	ND	0	0
73995	2018-07-08T02:00:00	52.2	ND	ND	ND	2.994568095	8.121973307	ND	ND	ND	ND	0	0
73996	2018-07-08T03:00:00	39.4	ND	ND	ND	2.82742941	4.276787877	ND	ND	ND	ND	0	0
73997	2018-07-08T04:00:00	31.2	ND	ND	ND	2.465295594	4.629917151	ND	ND	ND	ND	0	0
73998	2018-07-08T05:00:00	18.6	ND	ND	ND	1.615673949	7.023348899	ND	ND	ND	ND	0	0
73999	2018-07-08T06:00:00	33.7	ND	ND	ND	1.615673949	5.3361757	ND	ND	ND	ND	0	0
74000	2018-07-08T07:00:00	37.5	ND	ND	ND	4.638098491	3.099690296	ND	ND	ND	ND	158.2	0
74001	2018-07-08T08:00:00	65	ND	ND	ND	5.445935465	3.492056156	ND	ND	ND	ND	247.8	0
74002	2018-07-08T09:00:00	62.9	ND	ND	ND	5.808069281	6.062052541	ND	ND	ND	ND	601	0
74003	2018-07-08T10:00:00	63.2	ND	ND	ND	4.025256648	19.99104058	ND	ND	ND	ND	648.6	0
74004	2018-07-08T11:00:00	75	ND	ND	ND	4.262036451	50.32092158	ND	ND	ND	ND	649.2	0
74005	2018-07-08T12:00:00	71.9	ND	ND	ND	3.913830858	65.36815232	ND	ND	ND	ND	649.9	0
74006	2018-07-08T13:00:00	56	ND	ND	ND	3.704907503	61.64067665	ND	ND	ND	ND	649.7	0
74007	2018-07-08T14:00:00	50.2	ND	ND	ND	3.356701911	66.48639502	ND	ND	ND	ND	649.9	0
74008	2018-07-08T15:00:00	51.5	ND	ND	ND	2.604577831	68.72288043	ND	ND	ND	ND	650.1	0
74009	2018-07-08T16:00:00	45.8	ND	ND	ND	4.094897766	79.31675865	ND	ND	ND	ND	641.4	0
74010	2018-07-08T17:00:00	39.2	ND	ND	ND	4.178467109	61.73876811	ND	ND	ND	ND	469.9	0
74011	2018-07-08T18:00:00	43.6	ND	ND	ND	2.785644739	39.90360799	ND	ND	ND	ND	136.8	0
74012	2018-07-08T19:00:00	36.1	ND	ND	ND	3.370630134	31.91896273	ND	ND	ND	ND	11.5	0
74013	2018-07-08T20:00:00	29.3	ND	ND	ND	2.103161778	23.67927967	ND	ND	ND	ND	0	0
74014	2018-07-08T21:00:00	18.8	ND	ND	ND	2.729931844	19.95180399	ND	ND	ND	ND	0	0
74015	2018-07-08T22:00:00	25.9	ND	ND	ND	3.175635003	13.4777673	ND	ND	ND	ND	0	0
74016	2018-07-08T23:00:00	27.9	ND	ND	ND	3.704907503	12.86960022	ND	ND	ND	ND	0	0
74017	2018-07-09T00:00:00	22.3	ND	ND	ND	2.966711647	14.26249902	ND	ND	ND	ND	0	0
74018	2018-07-09T01:00:00	32.3	ND	ND	ND	3.300989016	8.573194047	ND	ND	ND	ND	0	0
74019	2018-07-09T02:00:00	22.2	ND	ND	ND	2.869214081	4.4925891	ND	ND	ND	ND	0	0
74020	2018-07-09T03:00:00	34.7	ND	ND	ND	4.415246911	4.865336667	ND	ND	ND	ND	0	0
74021	2018-07-09T04:00:00	48.1	ND	ND	ND	2.632434278	4.629917151	ND	ND	ND	ND	0	0
74022	2018-07-09T05:00:00	59.7	ND	ND	ND	4.345605793	2.687706143	ND	ND	ND	ND	0	0
74023	2018-07-09T06:00:00	64.5	ND	ND	ND	2.590649607	3.472437863	ND	ND	ND	ND	0	0
74024	2018-07-09T07:00:00	56.2	ND	ND	ND	2.716003621	1.981447594	ND	ND	ND	ND	58.7	0
74025	2018-07-09T08:00:00	52.7	ND	ND	ND	3.913830858	3.550911035	ND	ND	ND	ND	447.9	0
74026	2018-07-09T09:00:00	51.5	ND	ND	ND	2.980639871	10.08380261	ND	ND	ND	ND	626	0
74027	2018-07-09T10:00:00	57	ND	ND	ND	2.994568095	18.5392869	ND	ND	ND	ND	648.7	0
74028	2018-07-09T11:00:00	82.9	ND	ND	ND	4.443103359	30.46720905	ND	ND	ND	ND	649.1	0
74029	2018-07-09T12:00:00	65.8	ND	ND	ND	4.317749346	53.6364131	ND	ND	ND	ND	649.5	0
74030	2018-07-09T13:00:00	67.5	ND	ND	ND	1.977807765	49.81084596	ND	ND	ND	ND	649.9	0
74031	2018-07-09T14:00:00	70.6	ND	ND	ND	4.025256648	49.9677923	ND	ND	ND	ND	649	0
74032	2018-07-09T15:00:00	63	ND	ND	ND	3.454199477	29.01545537	ND	ND	ND	ND	550.8	0
74033	2018-07-09T16:00:00	54	ND	ND	ND	3.454199477	21.69783207	ND	ND	ND	ND	534.1	0
74034	2018-07-09T17:00:00	43.4	ND	ND	ND	3.036352766	16.2831832	ND	ND	ND	ND	168.1	0
74035	2018-07-09T18:00:00	41.2	ND	ND	ND	3.830261516	14.36059049	ND	ND	ND	ND	48.6	0
74036	2018-07-09T19:00:00	27.7	ND	ND	ND	2.841357634	8.808613563	ND	ND	ND	ND	0	0
74037	2018-07-09T20:00:00	26.6	ND	ND	ND	2.521008489	10.14265749	ND	ND	ND	ND	0	0
74038	2018-07-09T21:00:00	19.3	ND	ND	ND	2.966711647	10.06418432	ND	ND	ND	ND	0	0
74039	2018-07-09T22:00:00	33.7	ND	ND	ND	3.565625266	2.02068418	ND	ND	ND	ND	0	0
74040	2018-07-09T23:00:00	54.9	ND	ND	ND	3.036352766	5.100756183	ND	ND	ND	ND	0	0
74041	2018-07-10T00:00:00	27.6	ND	ND	ND	2.688147173	2.138393938	ND	ND	ND	ND	0	0
74042	2018-07-10T01:00:00	36.2	ND	ND	ND	4.080969543	1.981447594	ND	ND	ND	ND	0	0
74043	2018-07-10T02:00:00	41.7	ND	ND	ND	3.84418974	4.649535444	ND	ND	ND	ND	0	0
74044	2018-07-10T03:00:00	41.2	ND	ND	ND	5.640930597	3.766712259	ND	ND	ND	ND	0	0
74045	2018-07-10T04:00:00	38	ND	ND	ND	2.785644739	5.512740337	ND	ND	ND	ND	0	0
74046	2018-07-10T05:00:00	40.2	ND	ND	ND	0.389990263	5.277320821	ND	ND	ND	ND	0	0
74047	2018-07-10T06:00:00	25.1	ND	ND	ND	3.57955349	2.256103697	ND	ND	ND	ND	0	0
74048	2018-07-10T07:00:00	63.7	ND	ND	ND	5.083801649	1.785264664	ND	ND	ND	ND	112.4	0
74049	2018-07-10T08:00:00	89.9	ND	ND	ND	2.743860068	4.021750068	ND	ND	ND	ND	407.7	0
74050	2018-07-10T09:00:00	102.8	ND	ND	ND	5.682715268	16.02814539	ND	ND	ND	ND	567.8	0
74051	2018-07-10T10:00:00	79.3	ND	ND	ND	5.167370991	24.40515651	ND	ND	ND	ND	648.8	0
74052	2018-07-10T11:00:00	72.9	ND	ND	ND	4.011328424	41.02185069	ND	ND	ND	ND	649	0
74053	2018-07-10T12:00:00	60.7	ND	ND	ND	3.593481713	57.89358268	ND	ND	ND	ND	649.6	0
74054	2018-07-10T13:00:00	69.5	ND	ND	ND	3.133850332	57.87396439	ND	ND	ND	ND	650.1	0
74055	2018-07-10T14:00:00	65.4	ND	ND	ND	2.214587568	65.81937306	ND	ND	ND	ND	622.9	0
74056	2018-07-10T15:00:00	57.6	ND	ND	ND	2.660290726	55.5982424	ND	ND	ND	ND	631	0
74057	2018-07-10T16:00:00	52.1	ND	ND	ND	3.84418974	28.23072365	ND	ND	ND	ND	633.4	0
74058	2018-07-10T17:00:00	52.9	ND	ND	ND	2.67421895	17.85264664	ND	ND	ND	ND	339.1	0
74059	2018-07-10T18:00:00	40.3	ND	ND	ND	4.568457372	13.45814901	ND	ND	ND	ND	83.7	0
74060	2018-07-10T19:00:00	33.2	ND	ND	ND	2.312085133	15.57692465	ND	ND	ND	ND	0	0
74061	2018-07-10T20:00:00	26.2	ND	ND	ND	2.660290726	17.06791492	ND	ND	ND	ND	0	0
74062	2018-07-10T21:00:00	12.5	ND	ND	ND	3.078137437	20.42264303	ND	ND	ND	ND	0	0
74063	2018-07-10T22:00:00	12.6	ND	ND	ND	2.381726252	19.81447594	ND	ND	ND	ND	0	0
74064	2018-07-10T23:00:00	0.6	ND	ND	ND	1.866381975	10.14265749	ND	ND	ND	ND	0	0
74065	2018-07-11T00:00:00	21.3	ND	ND	ND	2.994568095	12.02601362	ND	ND	ND	ND	0	0
74066	2018-07-11T01:00:00	21.6	ND	ND	ND	3.09206566	12.30066972	ND	ND	ND	ND	0	0
74067	2018-07-11T02:00:00	26	ND	ND	ND	2.716003621	20.2264601	ND	ND	ND	ND	0	0
74068	2018-07-11T03:00:00	9.9	ND	ND	ND	2.966711647	19.61829301	ND	ND	ND	ND	0	0
74069	2018-07-11T04:00:00	13.5	ND	ND	ND	3.621338161	10.06418432	ND	ND	ND	ND	0	0
74070	2018-07-11T05:00:00	26.2	ND	ND	ND	4.331677569	8.259301359	ND	ND	ND	ND	0	0
74071	2018-07-11T06:00:00	34.9	ND	ND	ND	2.688147173	4.747626909	ND	ND	ND	ND	0	0
74072	2018-07-11T07:00:00	39	ND	ND	ND	2.883142305	2.295340283	ND	ND	ND	ND	80.5	0
74073	2018-07-11T08:00:00	43.1	ND	ND	ND	3.273132568	3.943276896	ND	ND	ND	ND	459.3	0
74074	2018-07-11T09:00:00	82.1	ND	ND	ND	3.036352766	5.885487904	ND	ND	ND	ND	558.5	0
74075	2018-07-11T10:00:00	82.2	ND	ND	ND	4.721667833	16.63631248	ND	ND	ND	ND	648.7	0
74076	2018-07-11T11:00:00	78.2	ND	ND	ND	3.287060792	36.86277257	ND	ND	ND	ND	638.3	0
74077	2018-07-11T12:00:00	58.2	ND	ND	ND	2.284228686	50.32092158	ND	ND	ND	ND	643.2	0
74078	2018-07-11T13:00:00	58.9	ND	ND	ND	4.48488803	57.0107595	ND	ND	ND	ND	622.5	0
74079	2018-07-11T14:00:00	45.7	ND	ND	ND	3.663122832	54.49961799	ND	ND	ND	ND	646.6	0
74080	2018-07-11T15:00:00	33.4	ND	ND	ND	3.774548621	48.37871057	ND	ND	ND	ND	650	0
74081	2018-07-11T16:00:00	36.2	ND	ND	ND	3.593481713	56.50068388	ND	ND	ND	ND	576	0
74082	2018-07-11T17:00:00	48.9	ND	ND	ND	1.754956186	47.71168861	ND	ND	ND	ND	480.1	0
74083	2018-07-11T18:00:00	48.9	ND	ND	ND	4.512744477	34.50857741	ND	ND	ND	ND	232.2	0
74084	2018-07-11T19:00:00	54.6	ND	ND	ND	2.395654476	19.44172838	ND	ND	ND	ND	16.2	0
74085	2018-07-11T20:00:00	34.3	ND	ND	ND	2.479223818	11.90830386	ND	ND	ND	ND	0	0
74086	2018-07-11T21:00:00	24.9	ND	ND	ND	3.398486582	21.14851987	ND	ND	ND	ND	0	0
74087	2018-07-11T22:00:00	20.9	ND	ND	ND	1.629602172	17.676082	ND	ND	ND	ND	0	0
74088	2018-07-11T23:00:00	17.9	ND	ND	ND	4.777380728	12.47723436	ND	ND	ND	ND	0	0
74089	2018-07-12T00:00:00	31.5	ND	ND	ND	2.576721384	2.805415901	ND	ND	ND	ND	0	0
74090	2018-07-12T01:00:00	38.5	ND	ND	ND	3.899902635	4.433734221	ND	ND	ND	ND	0	0
74091	2018-07-12T02:00:00	59.7	ND	ND	ND	3.454199477	4.472970807	ND	ND	ND	ND	0	0
74092	2018-07-12T03:00:00	57.1	ND	ND	ND	1.741027962	8.926323321	ND	ND	ND	ND	0	0
74093	2018-07-12T04:00:00	50.1	ND	ND	ND	3.259204345	6.650601331	ND	ND	ND	ND	0	0
74094	2018-07-12T05:00:00	53.8	ND	ND	ND	2.576721384	1.844119543	ND	ND	ND	ND	0	0
74095	2018-07-12T06:00:00	66.6	ND	ND	ND	3.704907503	2.393431748	ND	ND	ND	ND	0	0
74096	2018-07-12T07:00:00	49.6	ND	ND	ND	2.729931844	3.119308589	ND	ND	ND	ND	95.9	0
74097	2018-07-12T08:00:00	68.5	ND	ND	ND	3.300989016	3.178163468	ND	ND	ND	ND	562.8	0
74098	2018-07-12T09:00:00	128.7	ND	ND	ND	4.345605793	8.867468442	ND	ND	ND	ND	647.8	0
74099	2018-07-12T10:00:00	117.2	ND	ND	ND	5.487720136	29.11354683	ND	ND	ND	ND	648.8	0
74100	2018-07-12T11:00:00	79.5	ND	ND	ND	3.565625266	45.59291296	ND	ND	ND	ND	622.5	0
74101	2018-07-12T12:00:00	68	ND	ND	ND	3.370630134	53.49908505	ND	ND	ND	ND	623.3	0
74102	2018-07-12T13:00:00	62.8	ND	ND	ND	4.248108227	62.91586569	ND	ND	ND	ND	627	0
74103	2018-07-12T14:00:00	56.7	ND	ND	ND	4.401318688	83.14232579	ND	ND	ND	ND	648.4	0
74104	2018-07-12T15:00:00	74.7	ND	ND	ND	3.356701911	92.22559545	ND	ND	ND	ND	424.4	0
74105	2018-07-12T16:00:00	67.6	ND	ND	ND	2.200659344	49.77160937	ND	ND	ND	ND	311.3	0
74106	2018-07-12T17:00:00	48.3	ND	ND	ND	2.924926976	39.11887627	ND	ND	ND	ND	588.7	0
74107	2018-07-12T18:00:00	46.5	ND	ND	ND	2.716003621	27.17133582	ND	ND	ND	ND	127.6	0
74108	2018-07-12T19:00:00	45.2	ND	ND	ND	3.537768819	20.10875034	ND	ND	ND	ND	4.5	0
74109	2018-07-12T20:00:00	8.4	ND	ND	ND	2.576721384	11.49631971	ND	ND	ND	ND	0	0
74110	2018-07-12T21:00:00	1.1	ND	ND	ND	1.949951317	11.47670141	ND	ND	ND	ND	0	0
74111	2018-07-12T22:00:00	50.7	ND	ND	ND	3.607409937	10.6723514	ND	ND	ND	ND	0	0
74112	2018-07-12T23:00:00	30.7	ND	ND	ND	3.440271253	17.4210442	ND	ND	ND	ND	0	0
74113	2018-07-13T00:00:00	13.3	ND	ND	ND	3.872046187	10.45655018	ND	ND	ND	ND	0	0
74114	2018-07-13T01:00:00	15.6	ND	ND	ND	3.119922108	4.806481788	ND	ND	ND	ND	0	0
74115	2018-07-13T02:00:00	12.1	ND	ND	ND	4.415246911	5.767778146	ND	ND	ND	ND	0	0
74116	2018-07-13T03:00:00	61.1	ND	ND	ND	3.565625266	8.553575754	ND	ND	ND	ND	0	0
74117	2018-07-13T04:00:00	49.7	ND	ND	ND	2.743860068	4.512207393	ND	ND	ND	ND	0	0
74118	2018-07-13T05:00:00	28.7	ND	ND	ND	3.941687306	1.451753683	ND	ND	ND	ND	0	0
74119	2018-07-13T06:00:00	55.7	ND	ND	ND	0.807836974	1.530226855	ND	ND	ND	ND	0	0
74120	2018-07-13T07:00:00	91.7	ND	ND	ND	4.48488803	1.785264664	ND	ND	ND	ND	67	0
74121	2018-07-13T08:00:00	92.9	ND	ND	ND	3.872046187	2.21686711	ND	ND	ND	ND	307.9	0
74122	2018-07-13T09:00:00	116.4	ND	ND	ND	3.300989016	5.08113789	ND	ND	ND	ND	635.5	0
74123	2018-07-13T10:00:00	23.8	ND	ND	ND	ND	103.4668774	ND	ND	ND	ND	649	0
74124	2018-07-13T11:00:00	77.1	ND	ND	ND	ND	28.58385292	ND	ND	ND	ND	649.1	0
74125	2018-07-13T12:00:00	131.7	ND	ND	ND	ND	49.61466303	ND	ND	ND	ND	647.7	0
74126	2018-07-13T13:00:00	112.8	ND	ND	ND	2.56279316	70.66509143	ND	ND	ND	ND	648.5	0
74127	2018-07-13T14:00:00	86.6	ND	ND	ND	2.158874673	81.18049649	ND	ND	ND	ND	647.6	0
74128	2018-07-13T15:00:00	72.4	ND	ND	ND	2.688147173	51.39992769	ND	ND	ND	ND	596.7	0
74129	2018-07-13T16:00:00	38.7	ND	ND	ND	1.796740857	15.79272588	ND	ND	ND	ND	427.9	0
74130	2018-07-13T17:00:00	31.4	ND	ND	ND	2.242444015	14.26249902	ND	ND	ND	ND	256.8	0
74131	2018-07-13T18:00:00	33	ND	ND	ND	1.977807765	10.63311481	ND	ND	ND	ND	112.9	0
74132	2018-07-13T19:00:00	33.7	ND	ND	ND	3.370630134	8.494720875	ND	ND	ND	ND	6	0
74133	2018-07-13T20:00:00	24.4	ND	ND	ND	1.741027962	6.31709035	ND	ND	ND	ND	0	0
74134	2018-07-13T21:00:00	25.1	ND	ND	ND	2.855285858	8.278919652	ND	ND	ND	ND	0	0
74135	2018-07-13T22:00:00	14	ND	ND	ND	2.061377107	6.356326936	ND	ND	ND	ND	0	0
74136	2018-07-13T23:00:00	36.5	ND	ND	ND	2.395654476	3.825567138	ND	ND	ND	ND	0	0
74137	2018-07-14T00:00:00	29.8	ND	ND	ND	1.671386843	13.08540144	ND	ND	ND	ND	0	0
74138	2018-07-14T01:00:00	15.6	ND	ND	ND	2.716003621	8.553575754	ND	ND	ND	ND	0	0
74139	2018-07-14T02:00:00	29.7	ND	ND	ND	2.688147173	3.413582984	ND	ND	ND	ND	0	0
74140	2018-07-14T03:00:00	58.1	ND	ND	ND	2.047448883	2.805415901	ND	ND	ND	ND	0	0
74141	2018-07-14T04:00:00	46.5	ND	ND	ND	2.702075397	2.530759799	ND	ND	ND	ND	0	0
74142	2018-07-14T05:00:00	46.5	ND	ND	ND	2.813501187	2.295340283	ND	ND	ND	ND	0	0
74143	2018-07-14T06:00:00	54.4	ND	ND	ND	3.259204345	1.961829301	ND	ND	ND	ND	0	0
74144	2018-07-14T07:00:00	58.8	ND	ND	ND	3.20349145	2.236485403	ND	ND	ND	ND	118.5	0
74145	2018-07-14T08:00:00	55.4	ND	ND	ND	3.20349145	3.472437863	ND	ND	ND	ND	523.1	0
74146	2018-07-14T09:00:00	105.9	ND	ND	ND	3.746692174	9.436398939	ND	ND	ND	ND	646.8	0
74147	2018-07-14T10:00:00	81.8	ND	ND	ND	2.548864936	26.3866041	ND	ND	ND	ND	646.2	0
74148	2018-07-14T11:00:00	73.2	ND	ND	ND	3.147778555	45.63214955	ND	ND	ND	ND	648.1	0
74149	2018-07-14T12:00:00	61.8	ND	ND	ND	1.81066908	55.24511313	ND	ND	ND	ND	625.1	0
74150	2018-07-14T13:00:00	52.6	ND	ND	ND	3.022424542	64.24990962	ND	ND	ND	ND	610.2	0
74151	2018-07-14T14:00:00	77.4	ND	ND	ND	3.09206566	69.27219263	ND	ND	ND	ND	595.3	0
74152	2018-07-14T15:00:00	52.1	ND	ND	ND	3.607409937	64.13219986	ND	ND	ND	ND	535.7	0
74153	2018-07-14T16:00:00	34.7	ND	ND	ND	1.991735988	29.19202	ND	ND	ND	ND	513.4	0
74154	2018-07-14T17:00:00	45.7	ND	ND	ND	2.994568095	25.52339921	ND	ND	ND	ND	581	0
74155	2018-07-14T18:00:00	22	ND	ND	ND	1.295324804	19.26516374	ND	ND	ND	ND	171.8	0
74156	2018-07-14T19:00:00	20	ND	ND	ND	1.81066908	15.18455879	ND	ND	ND	ND	11.7	0
74157	2018-07-14T20:00:00	28.3	ND	ND	ND	3.119922108	16.67554906	ND	ND	ND	ND	0	0
74158	2018-07-14T21:00:00	24.7	ND	ND	ND	1.65745862	14.41944536	ND	ND	ND	ND	0	0
74159	2018-07-14T22:00:00	21.6	ND	ND	ND	2.855285858	11.98677703	ND	ND	ND	ND	0	0
74160	2018-07-14T23:00:00	23.1	ND	ND	ND	2.590649607	12.79112704	ND	ND	ND	ND	0	0
74161	2018-07-15T00:00:00	17.6	ND	ND	ND	1.768884409	11.63364776	ND	ND	ND	ND	0	0
74162	2018-07-15T01:00:00	12.5	ND	ND	ND	3.440271253	6.003197662	ND	ND	ND	ND	0	0
74163	2018-07-15T02:00:00	18.5	ND	ND	ND	4.59631382	2.569996385	ND	ND	ND	ND	0	0
74164	2018-07-15T03:00:00	36.2	ND	ND	ND	3.454199477	3.825567138	ND	ND	ND	ND	0	0
74165	2018-07-15T04:00:00	38	ND	ND	ND	3.147778555	3.315491519	ND	ND	ND	ND	0	0
74166	2018-07-15T05:00:00	42.8	ND	ND	ND	3.84418974	2.766179315	ND	ND	ND	ND	0	0
74167	2018-07-15T06:00:00	30.6	ND	ND	ND	3.482055924	2.825034194	ND	ND	ND	ND	0	0
74168	2018-07-15T07:00:00	34.8	ND	ND	ND	4.944519412	2.589614678	ND	ND	ND	ND	69.2	0
74169	2018-07-15T08:00:00	62.1	ND	ND	ND	4.011328424	3.629384207	ND	ND	ND	ND	323.6	0
74170	2018-07-15T09:00:00	61.3	ND	ND	ND	3.189563226	11.61402946	ND	ND	ND	ND	615.8	0
74171	2018-07-15T10:00:00	35.1	ND	ND	ND	2.423510923	22.03134305	ND	ND	ND	ND	648	0
74172	2018-07-15T11:00:00	30	ND	ND	ND	1.601745725	31.13423101	ND	ND	ND	ND	647.9	0
74173	2018-07-15T12:00:00	25.7	ND	ND	ND	1.949951317	42.1204751	ND	ND	ND	ND	648.4	0
74174	2018-07-15T13:00:00	26	ND	ND	ND	3.398486582	51.26259964	ND	ND	ND	ND	631.1	0
74175	2018-07-15T14:00:00	25	ND	ND	ND	2.9388552	48.53565691	ND	ND	ND	ND	631	0
74176	2018-07-15T15:00:00	28.4	ND	ND	ND	1.253540133	56.65763022	ND	ND	ND	ND	617.3	0
74177	2018-07-15T16:00:00	47.3	ND	ND	ND	1.448535264	52.53778869	ND	ND	ND	ND	348.2	0
74178	2018-07-15T17:00:00	39.6	ND	ND	ND	2.994568095	26.05309312	ND	ND	ND	ND	112.5	0
74179	2018-07-15T18:00:00	30.4	ND	ND	ND	2.604577831	24.22859187	ND	ND	ND	ND	116.8	0
74180	2018-07-15T19:00:00	38.6	ND	ND	ND	0.64069829	17.55837225	ND	ND	ND	ND	9.7	0
74181	2018-07-15T20:00:00	21.8	ND	ND	ND	1.92209487	13.36005754	ND	ND	ND	ND	0	0
74182	2018-07-15T21:00:00	16.2	ND	ND	ND	1.587817501	12.81074534	ND	ND	ND	ND	0	0
74183	2018-07-15T22:00:00	12	ND	ND	ND	3.105993884	7.886553791	ND	ND	ND	ND	0	0
74184	2018-07-15T23:00:00	35.3	ND	ND	ND	3.300989016	4.590680565	ND	ND	ND	ND	0	0
74185	2018-07-16T00:00:00	40.9	ND	ND	ND	3.774548621	4.080604947	ND	ND	ND	ND	0	0
74186	2018-07-16T01:00:00	27	ND	ND	ND	4.178467109	5.218465941	ND	ND	ND	ND	0	0
74187	2018-07-16T02:00:00	30.4	ND	ND	ND	1.309253027	8.749758684	ND	ND	ND	ND	0	0
74188	2018-07-16T03:00:00	4.5	ND	ND	ND	2.144946449	5.453885458	ND	ND	ND	ND	0	0
74189	2018-07-16T04:00:00	20.5	ND	ND	ND	4.094897766	6.650601331	ND	ND	ND	ND	0	0
74190	2018-07-16T05:00:00	17.2	ND	ND	ND	3.259204345	6.12090742	ND	ND	ND	ND	0	0
74191	2018-07-16T06:00:00	18.7	ND	ND	ND	1.768884409	3.315491519	ND	ND	ND	ND	0	0
74192	2018-07-16T07:00:00	14.6	ND	ND	ND	3.287060792	2.158012231	ND	ND	ND	ND	114.2	0
74193	2018-07-16T08:00:00	45.1	ND	ND	ND	4.080969543	3.021217124	ND	ND	ND	ND	296.2	0
74194	2018-07-16T09:00:00	108.8	ND	ND	ND	3.95561553	6.31709035	ND	ND	ND	ND	492.9	0
74195	2018-07-16T10:00:00	91.8	ND	ND	ND	3.983471977	11.2216636	ND	ND	ND	ND	611.1	0
74196	2018-07-16T11:00:00	100.8	ND	ND	ND	3.31491724	33.25300666	ND	ND	ND	ND	648.2	0
74197	2018-07-16T12:00:00	54.5	ND	ND	ND	4.206323556	53.95030579	ND	ND	ND	ND	646.4	0
74198	2018-07-16T13:00:00	28.7	ND	ND	ND	3.287060792	70.50814509	ND	ND	ND	ND	616.7	0
74199	2018-07-16T14:00:00	31.9	ND	ND	ND	2.339941581	80.51347453	ND	ND	ND	ND	646.9	0
74200	2018-07-16T15:00:00	27.4	ND	ND	ND	2.576721384	49.35962522	ND	ND	ND	ND	647.8	0
74201	2018-07-16T16:00:00	38.4	ND	ND	ND	2.632434278	55.63747899	ND	ND	ND	ND	582.5	0
74202	2018-07-16T17:00:00	44.6	ND	ND	ND	4.10882599	34.21430301	ND	ND	ND	ND	413.3	0
74203	2018-07-16T18:00:00	58	ND	ND	ND	3.273132568	25.24874311	ND	ND	ND	ND	236.2	0
74204	2018-07-16T19:00:00	57	ND	ND	ND	1.991735988	17.38180761	ND	ND	ND	ND	5.7	0
74205	2018-07-16T20:00:00	40.9	ND	ND	ND	2.576721384	17.14638809	ND	ND	ND	ND	0	0
74206	2018-07-16T21:00:00	28.5	ND	ND	ND	1.587817501	17.676082	ND	ND	ND	ND	0	0
74207	2018-07-16T22:00:00	34.3	ND	ND	ND	2.395654476	5.022283011	ND	ND	ND	ND	0	0
74208	2018-07-16T23:00:00	33.7	ND	ND	ND	3.147778555	13.79165999	ND	ND	ND	ND	0	0
74209	2018-07-17T00:00:00	15.5	ND	ND	ND	2.214587568	14.51753683	ND	ND	ND	ND	0	0
74210	2018-07-17T01:00:00	13.5	ND	ND	ND	2.228515791	8.514339168	ND	ND	ND	ND	0	0
74211	2018-07-17T02:00:00	24.2	ND	ND	ND	3.677051056	6.179762299	ND	ND	ND	ND	0	2.54
74212	2018-07-17T03:00:00	25.8	ND	ND	ND	1.615673949	9.122506251	ND	ND	ND	ND	0	0.25
74213	2018-07-17T04:00:00	36.8	ND	ND	ND	1.81066908	5.963961076	ND	ND	ND	ND	0	0
74214	2018-07-17T05:00:00	41.2	ND	ND	ND	3.287060792	3.590147621	ND	ND	ND	ND	0	0
74215	2018-07-17T06:00:00	55.4	ND	ND	ND	3.607409937	2.825034194	ND	ND	ND	ND	0	0
74216	2018-07-17T07:00:00	69.9	ND	ND	ND	3.774548621	3.001598831	ND	ND	ND	ND	59.4	0
74217	2018-07-17T08:00:00	77.1	ND	ND	ND	3.830261516	3.864803724	ND	ND	ND	ND	406.3	0
74218	2018-07-17T09:00:00	78	ND	ND	ND	3.885974411	6.493654987	ND	ND	ND	ND	428.6	0
74219	2018-07-17T10:00:00	94.3	ND	ND	ND	3.690979279	11.20204531	ND	ND	ND	ND	578.1	0
74220	2018-07-17T11:00:00	105.8	ND	ND	ND	2.82742941	28.6427078	ND	ND	ND	ND	647.8	0
74221	2018-07-17T12:00:00	72.9	ND	ND	ND	2.521008489	39.90360799	ND	ND	ND	ND	648.4	0
74222	2018-07-17T13:00:00	57.6	ND	ND	ND	1.991735988	59.54151929	ND	ND	ND	ND	647	0
74223	2018-07-17T14:00:00	62.3	ND	ND	ND	2.423510923	69.66455849	ND	ND	ND	ND	647.6	0
74224	2018-07-17T15:00:00	64.5	ND	ND	ND	2.479223818	71.09669388	ND	ND	ND	ND	647.6	0
74225	2018-07-17T16:00:00	69.4	ND	ND	ND	2.869214081	44.06268611	ND	ND	ND	ND	383.9	0
74226	2018-07-17T17:00:00	42.7	ND	ND	ND	0.793908751	25.24874311	ND	ND	ND	ND	342.6	0
74227	2018-07-17T18:00:00	25.2	ND	ND	ND	2.632434278	13.53662218	ND	ND	ND	ND	90.4	0
74228	2018-07-17T19:00:00	30.4	ND	ND	ND	2.423510923	7.94540867	ND	ND	ND	ND	0	0
74229	2018-07-17T20:00:00	21.9	ND	ND	ND	2.82742941	11.7905941	ND	ND	ND	ND	0	0
74230	2018-07-17T21:00:00	15.4	ND	ND	ND	3.231347897	7.827698912	ND	ND	ND	ND	0	0
74231	2018-07-17T22:00:00	18.1	ND	ND	ND	1.462463488	3.354728105	ND	ND	ND	ND	0	0
74232	2018-07-17T23:00:00	25.8	ND	ND	ND	1.323181251	12.00639532	ND	ND	ND	ND	0	0
74233	2018-07-18T00:00:00	17.3	ND	ND	ND	2.82742941	6.375945229	ND	ND	ND	ND	0	0
74234	2018-07-18T01:00:00	26.9	ND	ND	ND	3.677051056	3.511674449	ND	ND	ND	ND	0	0
74235	2018-07-18T02:00:00	27.6	ND	ND	ND	3.287060792	7.121440364	ND	ND	ND	ND	0	0
74236	2018-07-18T03:00:00	30.9	ND	ND	ND	4.429175135	4.845718374	ND	ND	ND	ND	0	0
74237	2018-07-18T04:00:00	32.5	ND	ND	ND	2.534936713	6.552509866	ND	ND	ND	ND	0	0
74238	2018-07-18T05:00:00	27.6	ND	ND	ND	2.56279316	6.748692797	ND	ND	ND	ND	0	0
74239	2018-07-18T06:00:00	35.7	ND	ND	ND	3.84418974	1.981447594	ND	ND	ND	ND	0	0
74240	2018-07-18T07:00:00	68.3	ND	ND	ND	4.275964675	2.001065887	ND	ND	ND	ND	67.1	0
74241	2018-07-18T08:00:00	70.9	ND	ND	ND	2.688147173	4.021750068	ND	ND	ND	ND	484.3	0
74242	2018-07-18T09:00:00	83.2	ND	ND	ND	3.105993884	9.338307474	ND	ND	ND	ND	597.4	0
74243	2018-07-18T10:00:00	91.9	ND	ND	ND	2.716003621	26.42584069	ND	ND	ND	ND	635.7	0
74244	2018-07-18T11:00:00	73.5	ND	ND	ND	1.741027962	44.51390685	ND	ND	ND	ND	637.2	0
74245	2018-07-18T12:00:00	75.3	ND	ND	ND	2.702075397	59.05106197	ND	ND	ND	ND	648.3	0
74246	2018-07-18T13:00:00	71.2	ND	ND	ND	1.615673949	86.41858072	ND	ND	ND	ND	648.1	0
74247	2018-07-18T14:00:00	67	ND	ND	ND	2.326013357	99.17047118	ND	ND	ND	ND	648.1	0
74248	2018-07-18T15:00:00	71.8	ND	ND	ND	3.95561553	83.77011117	ND	ND	ND	ND	506.1	0
74249	2018-07-18T16:00:00	67.7	ND	ND	ND	2.618506055	32.05629078	ND	ND	ND	ND	573.4	0
74250	2018-07-18T17:00:00	40.3	ND	ND	ND	2.994568095	20.85424547	ND	ND	ND	ND	559.4	0
74251	2018-07-18T18:00:00	29.6	ND	ND	ND	2.242444015	16.44012955	ND	ND	ND	ND	144.1	0
74252	2018-07-18T19:00:00	22.3	ND	ND	ND	1.908166646	11.71212093	ND	ND	ND	ND	9.9	0
74253	2018-07-18T20:00:00	19.2	ND	ND	ND	1.615673949	13.59547706	ND	ND	ND	ND	0	0
74254	2018-07-18T21:00:00	13.4	ND	ND	ND	2.437439147	14.63524659	ND	ND	ND	ND	0	0
74255	2018-07-18T22:00:00	20.6	ND	ND	ND	1.949951317	18.63737836	ND	ND	ND	ND	0	0
74256	2018-07-18T23:00:00	9.7	ND	ND	ND	2.479223818	12.37914289	ND	ND	ND	ND	0	0
74257	2018-07-19T00:00:00	28	ND	ND	ND	1.434607041	2.079539059	ND	ND	ND	ND	0	0
74258	2018-07-19T01:00:00	39.5	ND	ND	ND	2.799572963	9.456017232	ND	ND	ND	ND	0	0
74259	2018-07-19T02:00:00	18.4	ND	ND	ND	1.699243291	12.59494411	ND	ND	ND	ND	0	0
74260	2018-07-19T03:00:00	19.7	ND	ND	ND	3.565625266	6.729074504	ND	ND	ND	ND	0	0
74261	2018-07-19T04:00:00	31.3	ND	ND	ND	2.367798028	2.47190492	ND	ND	ND	ND	0	0
74262	2018-07-19T05:00:00	40.6	ND	ND	ND	3.482055924	4.649535444	ND	ND	ND	ND	0	0
74263	2018-07-19T06:00:00	17.3	ND	ND	ND	4.094897766	2.86427078	ND	ND	ND	ND	0	0
74264	2018-07-19T07:00:00	37.2	ND	ND	ND	2.82742941	2.158012231	ND	ND	ND	ND	46.1	0
74265	2018-07-19T08:00:00	61.3	ND	ND	ND	2.005664212	2.981980538	ND	ND	ND	ND	305.9	0
74266	2018-07-19T09:00:00	93	ND	ND	ND	3.161706779	4.983046425	ND	ND	ND	ND	454.9	0
74267	2018-07-19T10:00:00	72.8	ND	ND	ND	3.008496318	16.18509174	ND	ND	ND	ND	648.5	0
74268	2018-07-19T11:00:00	72.9	ND	ND	ND	2.228515791	29.44705781	ND	ND	ND	ND	621.1	0
74269	2018-07-19T12:00:00	72.1	ND	ND	ND	2.716003621	39.76627994	ND	ND	ND	ND	643.9	0
74270	2018-07-19T13:00:00	79.2	ND	ND	ND	2.966711647	56.83419486	ND	ND	ND	ND	648.4	0
74271	2018-07-19T14:00:00	86.7	ND	ND	ND	3.370630134	58.28594854	ND	ND	ND	ND	642.5	0
74272	2018-07-19T15:00:00	64.4	ND	ND	ND	1.671386843	57.14808755	ND	ND	ND	ND	522.4	0
74273	2018-07-19T16:00:00	45.1	ND	ND	ND	2.590649607	17.4014259	ND	ND	ND	ND	421.1	0
74274	2018-07-19T17:00:00	41	ND	ND	ND	2.29815691	14.38020878	ND	ND	ND	ND	338.7	0
74275	2018-07-19T18:00:00	38.9	ND	ND	ND	1.615673949	11.49631971	ND	ND	ND	ND	177	0
74276	2018-07-19T19:00:00	37.7	ND	ND	ND	3.20349145	12.24181484	ND	ND	ND	ND	5.2	0
74277	2018-07-19T20:00:00	25.2	ND	ND	ND	3.649194608	9.436398939	ND	ND	ND	ND	0	0
74278	2018-07-19T21:00:00	20.4	ND	ND	ND	2.757788292	9.004796493	ND	ND	ND	ND	0	0
74279	2018-07-19T22:00:00	19.2	ND	ND	ND	2.256372239	9.946474558	ND	ND	ND	ND	0	0
74280	2018-07-19T23:00:00	46.9	ND	ND	ND	2.590649607	1.844119543	ND	ND	ND	ND	0	0
74281	2018-07-20T00:00:00	28.3	ND	ND	ND	2.604577831	3.531292742	ND	ND	ND	ND	0	0
74282	2018-07-20T01:00:00	27	ND	ND	ND	0.069641118	3.805948845	ND	ND	ND	ND	0	0
74283	2018-07-20T02:00:00	25.3	ND	ND	ND	3.259204345	2.883889073	ND	ND	ND	ND	0	0
74284	2018-07-20T03:00:00	40.1	ND	ND	ND	3.593481713	2.589614678	ND	ND	ND	ND	0	0
74285	2018-07-20T04:00:00	40.6	ND	ND	ND	3.189563226	2.001065887	ND	ND	ND	ND	0	0
74286	2018-07-20T05:00:00	23.8	ND	ND	ND	4.136682438	2.079539059	ND	ND	ND	ND	0	0
74287	2018-07-20T06:00:00	42.6	ND	ND	ND	3.551697042	1.706791492	ND	ND	ND	ND	0	0
74288	2018-07-20T07:00:00	51.2	ND	ND	ND	2.897070529	1.82450125	ND	ND	ND	ND	39.1	0
74289	2018-07-20T08:00:00	70.9	ND	ND	ND	2.005664212	2.158012231	ND	ND	ND	ND	130.4	0
74290	2018-07-20T09:00:00	79.3	ND	ND	ND	3.663122832	6.434800108	ND	ND	ND	ND	593.8	0
74291	2018-07-20T10:00:00	78	ND	ND	ND	3.105993884	21.52126744	ND	ND	ND	ND	632	0
74292	2018-07-20T11:00:00	63.8	ND	ND	ND	2.103161778	35.23445425	ND	ND	ND	ND	648.2	0
74293	2018-07-20T12:00:00	48	ND	ND	ND	1.963879541	51.16450818	ND	ND	ND	ND	648.8	0
74294	2018-07-20T13:00:00	54	ND	ND	ND	2.019592436	66.19212063	ND	ND	ND	ND	649.1	0
74295	2018-07-20T14:00:00	49.4	ND	ND	ND	2.312085133	69.52723044	ND	ND	ND	ND	648.7	0
74296	2018-07-20T15:00:00	41.3	ND	ND	ND	2.785644739	55.08816678	ND	ND	ND	ND	592.4	0
74297	2018-07-20T16:00:00	22.4	ND	ND	ND	4.080969543	33.25300666	ND	ND	ND	ND	542.8	0
74298	2018-07-20T17:00:00	24.5	ND	ND	ND	2.590649607	21.894015	ND	ND	ND	ND	321.2	0
74299	2018-07-20T18:00:00	11	ND	ND	ND	0.863549869	20.71691742	ND	ND	ND	ND	149.9	0
74300	2018-07-20T19:00:00	27.7	ND	ND	ND	1.615673949	19.44172838	ND	ND	ND	ND	8.2	0
74301	2018-07-20T20:00:00	15.2	ND	ND	ND	0.849621645	20.01065887	ND	ND	ND	ND	0.1	0
74302	2018-07-20T21:00:00	17.2	ND	ND	ND	2.869214081	14.06631609	ND	ND	ND	ND	0.1	0
74303	2018-07-20T22:00:00	21.4	ND	ND	ND	2.103161778	14.43906366	ND	ND	ND	ND	0.1	0
74304	2018-07-20T23:00:00	14.6	ND	ND	ND	2.994568095	15.4395966	ND	ND	ND	ND	0.1	0
74305	2018-07-21T00:00:00	17.5	ND	ND	ND	1.058545001	5.787396439	ND	ND	ND	ND	0.1	0
74306	2018-07-21T01:00:00	24.9	ND	ND	ND	2.353869805	13.24234778	ND	ND	ND	ND	0.1	0
74307	2018-07-21T02:00:00	8	ND	ND	ND	3.300989016	11.57479288	ND	ND	ND	ND	0.1	0
74308	2018-07-21T03:00:00	26.4	ND	ND	ND	3.690979279	2.86427078	ND	ND	ND	ND	0.1	0
74309	2018-07-21T04:00:00	46.4	ND	ND	ND	2.82742941	2.511141506	ND	ND	ND	ND	0.1	0
74310	2018-07-21T05:00:00	44	ND	ND	ND	3.426343029	2.118775645	ND	ND	ND	ND	0.1	0
74311	2018-07-21T06:00:00	48.9	ND	ND	ND	3.356701911	1.883356129	ND	ND	ND	ND	0.4	0
74312	2018-07-21T07:00:00	68.2	ND	ND	ND	2.521008489	2.02068418	ND	ND	ND	ND	46.2	0
74313	2018-07-21T08:00:00	55.7	ND	ND	ND	1.39282237	3.433201277	ND	ND	ND	ND	292.8	0
74314	2018-07-21T09:00:00	62.9	ND	ND	ND	2.952783423	11.39822824	ND	ND	ND	ND	572.3	0
74315	2018-07-21T10:00:00	82.2	ND	ND	ND	2.590649607	22.56103697	ND	ND	ND	ND	611.4	0
74316	2018-07-21T11:00:00	61.4	ND	ND	ND	2.312085133	32.97835056	ND	ND	ND	ND	645.4	0
74317	2018-07-21T12:00:00	53.8	ND	ND	ND	1.573889278	48.65336667	ND	ND	ND	ND	648.5	0
74318	2018-07-21T13:00:00	60.4	ND	ND	ND	2.966711647	51.49801916	ND	ND	ND	ND	648.8	0
74319	2018-07-21T14:00:00	61.3	ND	ND	ND	0.682482961	56.89304974	ND	ND	ND	ND	551.6	0
74320	2018-07-21T15:00:00	55.9	ND	ND	ND	3.259204345	25.52339921	ND	ND	ND	ND	273.5	0
74321	2018-07-21T16:00:00	24.1	ND	ND	ND	2.339941581	15.1649405	ND	ND	ND	ND	459.2	0
74322	2018-07-21T17:00:00	18	ND	ND	ND	1.002832106	14.8706661	ND	ND	ND	ND	326.1	0
74323	2018-07-21T18:00:00	19.9	ND	ND	ND	2.019592436	11.61402946	ND	ND	ND	ND	163.2	0
74324	2018-07-21T19:00:00	16.4	ND	ND	ND	2.103161778	9.789528214	ND	ND	ND	ND	9.9	0
74325	2018-07-21T20:00:00	13.3	ND	ND	ND	1.977807765	9.652200162	ND	ND	ND	ND	0.1	0
74326	2018-07-21T21:00:00	9.4	ND	ND	ND	0.487487829	8.926323321	ND	ND	ND	ND	0.1	0
74327	2018-07-21T22:00:00	11	ND	ND	ND	0.75212408	12.28105143	ND	ND	ND	ND	0.1	0
74328	2018-07-21T23:00:00	12.2	ND	ND	ND	1.977807765	8.730140391	ND	ND	ND	ND	0.1	0
74329	2018-07-22T00:00:00	12.3	ND	ND	ND	2.82742941	6.218998885	ND	ND	ND	ND	0.1	0
74330	2018-07-22T01:00:00	19.1	ND	ND	ND	1.476391712	11.61402946	ND	ND	ND	ND	0.1	0
74331	2018-07-22T02:00:00	10.2	ND	ND	ND	2.367798028	5.865869611	ND	ND	ND	ND	0.1	0
74332	2018-07-22T03:00:00	21.1	ND	ND	ND	2.353869805	2.628851264	ND	ND	ND	ND	0.1	0
74333	2018-07-22T04:00:00	54.8	ND	ND	ND	1.629602172	1.844119543	ND	ND	ND	ND	0.1	0
74334	2018-07-22T05:00:00	50.4	ND	ND	ND	1.796740857	2.589614678	ND	ND	ND	ND	0.1	0
74335	2018-07-22T06:00:00	60.3	ND	ND	ND	2.646362502	2.373813455	ND	ND	ND	ND	0.4	0
74336	2018-07-22T07:00:00	56	ND	ND	ND	2.716003621	2.550378092	ND	ND	ND	ND	77.6	0
74337	2018-07-22T08:00:00	57.8	ND	ND	ND	2.994568095	3.335109812	ND	ND	ND	ND	232.9	0
74338	2018-07-22T09:00:00	63.3	ND	ND	ND	3.621338161	8.023881842	ND	ND	ND	ND	592.4	0
74339	2018-07-22T10:00:00	62.4	ND	ND	ND	1.211755462	17.04829663	ND	ND	ND	ND	528	0
74340	2018-07-22T11:00:00	52.5	ND	ND	ND	2.785644739	26.62202362	ND	ND	ND	ND	616.1	0
74341	2018-07-22T12:00:00	46.6	ND	ND	ND	2.131018225	42.53245925	ND	ND	ND	ND	648.4	0
74342	2018-07-22T13:00:00	42.1	ND	ND	ND	1.754956186	42.19894827	ND	ND	ND	ND	648.4	0
74343	2018-07-22T14:00:00	44.2	ND	ND	ND	2.966711647	43.98421294	ND	ND	ND	ND	648.9	0
74344	2018-07-22T15:00:00	35.3	ND	ND	ND	2.841357634	29.4862944	ND	ND	ND	ND	648.7	0
74345	2018-07-22T16:00:00	19.3	ND	ND	ND	1.072473225	24.46401139	ND	ND	ND	ND	638.5	0
74346	2018-07-22T17:00:00	12.7	ND	ND	ND	2.688147173	23.75775284	ND	ND	ND	ND	531.3	0
74347	2018-07-22T18:00:00	15.6	ND	ND	ND	2.18673112	18.5196686	ND	ND	ND	ND	91.9	0
74348	2018-07-22T19:00:00	12.8	ND	ND	ND	2.437439147	12.84998192	ND	ND	ND	ND	3.7	0
74349	2018-07-22T20:00:00	23.4	ND	ND	ND	2.618506055	8.435865996	ND	ND	ND	ND	0.1	0
74350	2018-07-22T21:00:00	30.6	ND	ND	ND	1.239611909	4.590680565	ND	ND	ND	ND	0.1	0
74351	2018-07-22T22:00:00	24	ND	ND	ND	2.897070529	3.923658603	ND	ND	ND	ND	0.1	0
74352	2018-07-22T23:00:00	26.4	ND	ND	ND	4.275964675	4.728008616	ND	ND	ND	ND	0.1	0
74353	2018-07-23T00:00:00	28.1	ND	ND	ND	2.465295594	8.926323321	ND	ND	ND	ND	0.1	0
74354	2018-07-23T01:00:00	4.4	ND	ND	ND	1.434607041	11.39822824	ND	ND	ND	ND	0.1	0
74355	2018-07-23T02:00:00	16.5	ND	ND	ND	2.660290726	4.119841533	ND	ND	ND	ND	0.1	0
74356	2018-07-23T03:00:00	53.3	ND	ND	ND	3.537768819	2.059920766	ND	ND	ND	ND	0.1	0
74357	2018-07-23T04:00:00	52.7	ND	ND	ND	3.621338161	2.295340283	ND	ND	ND	ND	0.1	0
74358	2018-07-23T05:00:00	50.5	ND	ND	ND	2.326013357	2.432668334	ND	ND	ND	ND	0.1	0
74359	2018-07-23T06:00:00	53.5	ND	ND	ND	2.423510923	1.922592715	ND	ND	ND	ND	0.3	0
74360	2018-07-23T07:00:00	61.3	ND	ND	ND	3.217419674	1.804882957	ND	ND	ND	ND	85.8	0
74361	2018-07-23T08:00:00	58.6	ND	ND	ND	2.869214081	3.158545175	ND	ND	ND	ND	421.7	0
74362	2018-07-23T09:00:00	60.4	ND	ND	ND	2.757788292	7.023348899	ND	ND	ND	ND	569.5	0
74363	2018-07-23T10:00:00	79.7	ND	ND	ND	1.936023094	14.36059049	ND	ND	ND	ND	648.1	0
74364	2018-07-23T11:00:00	68.7	ND	ND	ND	3.4681277	30.80072003	ND	ND	ND	ND	648.4	0
74365	2018-07-23T12:00:00	59.6	ND	ND	ND	1.351037698	49.67351791	ND	ND	ND	ND	648.4	0
74366	2018-07-23T13:00:00	71.4	ND	ND	ND	2.465295594	66.29021209	ND	ND	ND	ND	648.8	0
74367	2018-07-23T14:00:00	78	ND	ND	ND	2.507080265	76.41325129	ND	ND	ND	ND	592.5	0
74368	2018-07-23T15:00:00	75.9	ND	ND	ND	2.493152042	57.52083511	ND	ND	ND	ND	546.7	0
74369	2018-07-23T16:00:00	46.7	ND	ND	ND	3.119922108	18.28424909	ND	ND	ND	ND	511.3	0
74370	2018-07-23T17:00:00	35.7	ND	ND	ND	1.949951317	12.75189046	ND	ND	ND	ND	555.9	0
74371	2018-07-23T18:00:00	37.5	ND	ND	ND	2.089233554	9.8287648	ND	ND	ND	ND	96.6	0
74372	2018-07-23T19:00:00	25.6	ND	ND	ND	1.92209487	9.338307474	ND	ND	ND	ND	7	0
74373	2018-07-23T20:00:00	25.5	ND	ND	ND	1.615673949	8.180828186	ND	ND	ND	ND	0	0
74374	2018-07-23T21:00:00	16.4	ND	ND	ND	1.643530396	12.9284551	ND	ND	ND	ND	0	0
74375	2018-07-23T22:00:00	7.2	ND	ND	ND	2.729931844	15.12570391	ND	ND	ND	ND	0	0
74376	2018-07-23T23:00:00	4.7	ND	ND	ND	1.601745725	17.85264664	ND	ND	ND	ND	0	0
74377	2018-07-24T00:00:00	29.8	ND	ND	ND	1.852453752	5.650068388	ND	ND	ND	ND	0	7.62
74378	2018-07-24T01:00:00	24.4	ND	ND	ND	3.356701911	8.867468442	ND	ND	ND	ND	0	0
74379	2018-07-24T02:00:00	11	ND	ND	ND	1.671386843	8.710522098	ND	ND	ND	ND	0	0
74380	2018-07-24T03:00:00	16.8	ND	ND	ND	2.144946449	10.69196969	ND	ND	ND	ND	0	0
74381	2018-07-24T04:00:00	12	ND	ND	ND	1.156042567	5.708923267	ND	ND	ND	ND	0	0
74382	2018-07-24T05:00:00	14.1	ND	ND	ND	2.757788292	4.943809839	ND	ND	ND	ND	0	0
74383	2018-07-24T06:00:00	12.6	ND	ND	ND	3.147778555	2.530759799	ND	ND	ND	ND	0	0
74384	2018-07-24T07:00:00	40.9	ND	ND	ND	2.743860068	1.706791492	ND	ND	ND	ND	105.5	0
74385	2018-07-24T08:00:00	53.6	ND	ND	ND	3.245276121	1.942211008	ND	ND	ND	ND	272.8	0
74386	2018-07-24T09:00:00	87.9	ND	ND	ND	4.025256648	3.472437863	ND	ND	ND	ND	326.2	0
74387	2018-07-24T10:00:00	66.5	ND	ND	ND	2.18673112	6.650601331	ND	ND	ND	ND	512	0
74388	2018-07-24T11:00:00	64.6	ND	ND	ND	3.036352766	13.39929413	ND	ND	ND	ND	567.8	0.25
74389	2018-07-24T12:00:00	51.1	ND	ND	ND	ND	87.36025879	ND	ND	ND	ND	295.2	6.35
74390	2018-07-24T13:00:00	56.3	ND	ND	ND	3.259204345	8.847850149	ND	ND	ND	ND	344.4	3.05
74391	2018-07-24T14:00:00	36.6	ND	ND	ND	3.635266385	3.570529328	ND	ND	ND	ND	101.6	1.27
74392	2018-07-24T15:00:00	22.4	ND	ND	ND	2.005664212	3.668620793	ND	ND	ND	ND	154.9	0.25
74393	2018-07-24T16:00:00	30.5	ND	ND	ND	2.507080265	6.729074504	ND	ND	ND	ND	270.1	0
74394	2018-07-24T17:00:00	37.4	ND	ND	ND	1.253540133	12.00639532	ND	ND	ND	ND	388.2	0
74395	2018-07-24T18:00:00	58.4	ND	ND	ND	1.615673949	7.611897689	ND	ND	ND	ND	134.6	0.25
74396	2018-07-24T19:00:00	68.7	ND	ND	ND	3.287060792	2.687706143	ND	ND	ND	ND	4.5	0
74397	2018-07-24T20:00:00	70.8	ND	ND	ND	2.646362502	1.765646371	ND	ND	ND	ND	0	0
74398	2018-07-24T21:00:00	68.7	ND	ND	ND	1.894238423	1.726409785	ND	ND	ND	ND	0	0
74399	2018-07-24T22:00:00	55	ND	ND	ND	1.936023094	1.589081734	ND	ND	ND	ND	0	0
74400	2018-07-24T23:00:00	36.7	ND	ND	ND	1.824597304	1.62831832	ND	ND	ND	ND	0	0
74401	2018-07-25T00:00:00	47.8	ND	ND	ND	4.025256648	1.863737836	ND	ND	ND	ND	0	0
74402	2018-07-25T01:00:00	38.2	ND	ND	ND	3.816333293	1.647936613	ND	ND	ND	ND	0	0
74403	2018-07-25T02:00:00	30.9	ND	ND	ND	4.526672701	1.726409785	ND	ND	ND	ND	0	0
74404	2018-07-25T03:00:00	31	ND	ND	ND	3.983471977	1.62831832	ND	ND	ND	ND	0	0
74405	2018-07-25T04:00:00	40.6	ND	ND	ND	2.45136737	1.549845148	ND	ND	ND	ND	0	0
74406	2018-07-25T05:00:00	21.2	ND	ND	ND	2.841357634	1.530226855	ND	ND	ND	ND	0	0
74407	2018-07-25T06:00:00	33.9	ND	ND	ND	1.768884409	1.804882957	ND	ND	ND	ND	0	0
74408	2018-07-25T07:00:00	63	ND	ND	ND	3.899902635	1.589081734	ND	ND	ND	ND	23.8	0
74409	2018-07-25T08:00:00	76.5	ND	ND	ND	4.234180003	1.785264664	ND	ND	ND	ND	217.6	0
74410	2018-07-25T09:00:00	77.8	ND	ND	ND	3.746692174	4.237551291	ND	ND	ND	ND	532.9	0
74411	2018-07-25T10:00:00	69.1	ND	ND	ND	1.351037698	19.40249179	ND	ND	ND	ND	645.2	0
74412	2018-07-25T11:00:00	68.8	ND	ND	ND	1.406750593	45.67138613	ND	ND	ND	ND	648	0
74413	2018-07-25T12:00:00	72	ND	ND	ND	2.507080265	63.4455596	ND	ND	ND	ND	649.4	0
74414	2018-07-25T13:00:00	64.7	ND	ND	ND	3.050280989	67.72234748	ND	ND	ND	ND	649.3	0
74415	2018-07-25T14:00:00	65.4	ND	ND	ND	3.370630134	80.55271111	ND	ND	ND	ND	646.9	0
74416	2018-07-25T15:00:00	60.4	ND	ND	ND	2.604577831	84.86873557	ND	ND	ND	ND	584.2	0
74417	2018-07-25T16:00:00	49.8	ND	ND	ND	1.378894146	23.77737113	ND	ND	ND	ND	649.3	0
74418	2018-07-25T17:00:00	43.4	ND	ND	ND	2.646362502	17.1267698	ND	ND	ND	ND	505.3	0
74419	2018-07-25T18:00:00	32.6	ND	ND	ND	3.342773687	13.39929413	ND	ND	ND	ND	194.2	0
74420	2018-07-25T19:00:00	32.3	ND	ND	ND	2.103161778	13.06578315	ND	ND	ND	ND	6.7	0
74421	2018-07-25T20:00:00	30.9	ND	ND	ND	3.161706779	15.45921489	ND	ND	ND	ND	0	0
74422	2018-07-25T21:00:00	22.6	ND	ND	ND	1.643530396	15.87119905	ND	ND	ND	ND	0	0
74423	2018-07-25T22:00:00	19.4	ND	ND	ND	3.175635003	14.41944536	ND	ND	ND	ND	0	0
74424	2018-07-25T23:00:00	23.7	ND	ND	ND	2.326013357	7.592279396	ND	ND	ND	ND	0	0
74425	2018-07-26T00:00:00	36.6	ND	ND	ND	3.426343029	9.926856265	ND	ND	ND	ND	0	0.51
74426	2018-07-26T01:00:00	24.2	ND	ND	ND	3.746692174	6.984112313	ND	ND	ND	ND	0	0
74427	2018-07-26T02:00:00	19.9	ND	ND	ND	2.771716515	2.942743952	ND	ND	ND	ND	0	0
74428	2018-07-26T03:00:00	36.1	ND	ND	ND	3.259204345	3.119308589	ND	ND	ND	ND	0	0
74429	2018-07-26T04:00:00	38.8	ND	ND	ND	2.660290726	2.530759799	ND	ND	ND	ND	0	0
74430	2018-07-26T05:00:00	29.1	ND	ND	ND	3.161706779	1.706791492	ND	ND	ND	ND	0	0
74431	2018-07-26T06:00:00	35.3	ND	ND	ND	2.521008489	1.667554906	ND	ND	ND	ND	0	0
74432	2018-07-26T07:00:00	42.4	ND	ND	ND	3.008496318	1.902974422	ND	ND	ND	ND	74.6	0
74433	2018-07-26T08:00:00	83.2	ND	ND	ND	4.178467109	2.530759799	ND	ND	ND	ND	395.7	0
74434	2018-07-26T09:00:00	92.7	ND	ND	ND	3.398486582	8.337774531	ND	ND	ND	ND	584.1	0
74435	2018-07-26T10:00:00	56.2	ND	ND	ND	1.699243291	28.01492242	ND	ND	ND	ND	648.3	0
74436	2018-07-26T11:00:00	55.6	ND	ND	ND	2.855285858	33.27262495	ND	ND	ND	ND	648.7	0
74437	2018-07-26T12:00:00	37.1	ND	ND	ND	2.29815691	42.74826048	ND	ND	ND	ND	648.8	0
74438	2018-07-26T13:00:00	51.4	ND	ND	ND	0.877478093	58.87449733	ND	ND	ND	ND	624	0
74439	2018-07-26T14:00:00	49.2	ND	ND	ND	3.105993884	65.76051818	ND	ND	ND	ND	649.3	0
74440	2018-07-26T15:00:00	49.2	ND	ND	ND	2.576721384	74.117911	ND	ND	ND	ND	444.9	0
74441	2018-07-26T16:00:00	36	ND	ND	ND	2.29815691	28.25034194	ND	ND	ND	ND	629.5	0
74442	2018-07-26T17:00:00	38.7	ND	ND	ND	1.671386843	23.91469918	ND	ND	ND	ND	315.7	0
74443	2018-07-26T18:00:00	38.5	ND	ND	ND	1.977807765	16.45974784	ND	ND	ND	ND	151.8	0
74444	2018-07-26T19:00:00	35.8	ND	ND	ND	0.947119211	15.41997831	ND	ND	ND	ND	7.9	0
74445	2018-07-26T20:00:00	30.5	ND	ND	ND	1.615673949	9.200979423	ND	ND	ND	ND	0	0
74446	2018-07-26T21:00:00	27	ND	ND	ND	1.824597304	9.887619679	ND	ND	ND	ND	0	0
74447	2018-07-26T22:00:00	31.3	ND	ND	ND	2.172802897	4.394497635	ND	ND	ND	ND	0	0
74448	2018-07-26T23:00:00	102.5	ND	ND	ND	4.289892898	6.846784262	ND	ND	ND	ND	0	0
74449	2018-07-27T00:00:00	133.5	ND	ND	ND	4.094897766	5.061519597	ND	ND	ND	ND	0	0
74450	2018-07-27T01:00:00	60.7	ND	ND	ND	2.952783423	7.298005001	ND	ND	ND	ND	0	0
74451	2018-07-27T02:00:00	45.3	ND	ND	ND	4.150610661	3.629384207	ND	ND	ND	ND	0	0
74452	2018-07-27T03:00:00	83.5	ND	ND	ND	2.367798028	3.335109812	ND	ND	ND	ND	0	0
74453	2018-07-27T04:00:00	58.7	ND	ND	ND	4.122754214	2.47190492	ND	ND	ND	ND	0	0
74454	2018-07-27T05:00:00	58.7	ND	ND	ND	3.899902635	2.02068418	ND	ND	ND	ND	0	0
74455	2018-07-27T06:00:00	62.4	ND	ND	ND	2.869214081	1.863737836	ND	ND	ND	ND	0	0
74456	2018-07-27T07:00:00	86.8	ND	ND	ND	4.74952428	2.02068418	ND	ND	ND	ND	16.6	0
74457	2018-07-27T08:00:00	108.6	ND	ND	ND	4.693811385	2.354195162	ND	ND	ND	ND	141.3	0
74458	2018-07-27T09:00:00	124.7	ND	ND	ND	4.707739609	4.394497635	ND	ND	ND	ND	524.9	0
74459	2018-07-27T10:00:00	131.7	ND	ND	ND	3.175635003	19.0885991	ND	ND	ND	ND	640.6	0
74460	2018-07-27T11:00:00	ND	ND	ND	ND	3.412414805	27.72064803	ND	ND	ND	ND	648.5	0
74461	2018-07-27T12:00:00	167.8	ND	ND	ND	2.089233554	38.78536529	ND	ND	ND	ND	648.9	0
74462	2018-07-27T13:00:00	94.2	ND	ND	ND	3.231347897	69.13486458	ND	ND	ND	ND	649.5	0
74463	2018-07-27T14:00:00	71.3	ND	ND	ND	4.638098491	81.53362576	ND	ND	ND	ND	649.1	0
74464	2018-07-27T15:00:00	64.9	ND	ND	ND	2.716003621	69.60570361	ND	ND	ND	ND	636.2	0
74465	2018-07-27T16:00:00	74.8	ND	ND	ND	2.423510923	35.35216401	ND	ND	ND	ND	288.4	0
74466	2018-07-27T17:00:00	46.7	ND	ND	ND	1.351037698	17.47989907	ND	ND	ND	ND	118	0
74467	2018-07-27T18:00:00	40.2	ND	ND	ND	1.267468356	9.848383093	ND	ND	ND	ND	117.1	0
74468	2018-07-27T19:00:00	49.2	ND	ND	ND	1.406750593	12.57532582	ND	ND	ND	ND	6.9	6.1
74469	2018-07-27T20:00:00	43	ND	ND	ND	4.011328424	5.865869611	ND	ND	ND	ND	0	33.02
74470	2018-07-27T21:00:00	38.3	ND	ND	ND	3.663122832	1.942211008	ND	ND	ND	ND	0	0
74471	2018-07-27T22:00:00	33.8	ND	ND	ND	3.677051056	1.883356129	ND	ND	ND	ND	0	0
74472	2018-07-27T23:00:00	50.9	ND	ND	ND	3.690979279	1.746028078	ND	ND	ND	ND	0	0
74473	2018-07-28T00:00:00	48	ND	ND	ND	3.482055924	1.510608562	ND	ND	ND	ND	0	0
74474	2018-07-28T01:00:00	49.6	ND	ND	ND	2.047448883	1.62831832	ND	ND	ND	ND	0	0
74475	2018-07-28T02:00:00	40.2	ND	ND	ND	3.426343029	1.608700027	ND	ND	ND	ND	0	0
74476	2018-07-28T03:00:00	43.7	ND	ND	ND	2.29815691	1.687173199	ND	ND	ND	ND	0	0
74477	2018-07-28T04:00:00	39.6	ND	ND	ND	1.866381975	1.667554906	ND	ND	ND	ND	0	0
74478	2018-07-28T05:00:00	25.6	ND	ND	ND	0.37606204	1.471371976	ND	ND	ND	ND	0	0
74479	2018-07-28T06:00:00	30.3	ND	ND	ND	2.284228686	1.43213539	ND	ND	ND	ND	0	0
74480	2018-07-28T07:00:00	51	ND	ND	ND	3.677051056	1.569463441	ND	ND	ND	ND	35.3	0
74481	2018-07-28T08:00:00	56.6	ND	ND	ND	2.019592436	2.177630524	ND	ND	ND	ND	284.2	0
74482	2018-07-28T09:00:00	92.5	ND	ND	ND	2.855285858	6.925257434	ND	ND	ND	ND	630.6	0
74483	2018-07-28T10:00:00	89.3	ND	ND	ND	2.214587568	21.95286988	ND	ND	ND	ND	648.6	0
74484	2018-07-28T11:00:00	67.1	ND	ND	ND	2.18673112	37.03933721	ND	ND	ND	ND	648.8	0
74485	2018-07-28T12:00:00	54.8	ND	ND	ND	2.980639871	44.59238002	ND	ND	ND	ND	649.3	0
74486	2018-07-28T13:00:00	51.8	ND	ND	ND	2.618506055	65.72128159	ND	ND	ND	ND	649.1	0
74487	2018-07-28T14:00:00	65.4	ND	ND	ND	2.270300462	59.38457295	ND	ND	ND	ND	640.7	0
74488	2018-07-28T15:00:00	55.9	ND	ND	ND	1.796740857	33.86117374	ND	ND	ND	ND	540.4	0
74489	2018-07-28T16:00:00	28.2	ND	ND	ND	2.521008489	18.50005031	ND	ND	ND	ND	478.8	0
74490	2018-07-28T17:00:00	25.9	ND	ND	ND	2.158874673	19.32401862	ND	ND	ND	ND	568.8	0
74491	2018-07-28T18:00:00	19.9	ND	ND	ND	1.114257896	11.20204531	ND	ND	ND	ND	212.2	0
74492	2018-07-28T19:00:00	19.5	ND	ND	ND	1.100329672	11.39822824	ND	ND	ND	ND	14.4	0
74493	2018-07-28T20:00:00	16.2	ND	ND	ND	2.061377107	12.18295996	ND	ND	ND	ND	0	0
74494	2018-07-28T21:00:00	35.8	ND	ND	ND	0.988903882	12.20257825	ND	ND	ND	ND	0	0
74495	2018-07-28T22:00:00	34.3	ND	ND	ND	1.671386843	8.043500135	ND	ND	ND	ND	0	0
74496	2018-07-28T23:00:00	21.8	ND	ND	ND	0.696411185	8.867468442	ND	ND	ND	ND	0	0
74497	2018-07-29T00:00:00	25.9	ND	ND	ND	3.328845463	2.844652487	ND	ND	ND	ND	0	0
74498	2018-07-29T01:00:00	33.4	ND	ND	ND	2.479223818	4.29640617	ND	ND	ND	ND	0	0
74499	2018-07-29T02:00:00	37.8	ND	ND	ND	2.67421895	2.805415901	ND	ND	ND	ND	0	0
74500	2018-07-29T03:00:00	36	ND	ND	ND	3.259204345	1.804882957	ND	ND	ND	ND	0	0
74501	2018-07-29T04:00:00	45.9	ND	ND	ND	2.326013357	1.589081734	ND	ND	ND	ND	0	0
74502	2018-07-29T05:00:00	62.3	ND	ND	ND	2.019592436	1.43213539	ND	ND	ND	ND	0	0
74503	2018-07-29T06:00:00	65.6	ND	ND	ND	3.593481713	1.844119543	ND	ND	ND	ND	0	0
74504	2018-07-29T07:00:00	73.2	ND	ND	ND	4.624170267	1.667554906	ND	ND	ND	ND	35.6	0
74505	2018-07-29T08:00:00	67.6	ND	ND	ND	3.09206566	2.47190492	ND	ND	ND	ND	211.5	0
74506	2018-07-29T09:00:00	81.3	ND	ND	ND	3.885974411	3.295873226	ND	ND	ND	ND	233.6	0
74507	2018-07-29T10:00:00	71.6	ND	ND	ND	3.356701911	6.611364745	ND	ND	ND	ND	557.2	0
74508	2018-07-29T11:00:00	40.9	ND	ND	ND	1.894238423	13.45814901	ND	ND	ND	ND	648.2	0
74509	2018-07-29T12:00:00	14.8	ND	ND	ND	2.172802897	21.6193589	ND	ND	ND	ND	648.7	0
74510	2018-07-29T13:00:00	16	ND	ND	ND	2.465295594	30.329881	ND	ND	ND	ND	648.8	0
74511	2018-07-29T14:00:00	22.1	ND	ND	ND	1.573889278	47.61359714	ND	ND	ND	ND	642.5	0
74512	2018-07-29T15:00:00	25.6	ND	ND	ND	2.479223818	54.30343506	ND	ND	ND	ND	556.5	0
74513	2018-07-29T16:00:00	36.5	ND	ND	ND	1.559961054	40.37444702	ND	ND	ND	ND	605.1	0
74514	2018-07-29T17:00:00	8.4	ND	ND	ND	1.128186119	15.53768807	ND	ND	ND	ND	323.8	0
74515	2018-07-29T18:00:00	9.1	ND	ND	ND	2.757788292	13.34043925	ND	ND	ND	ND	196	0
74516	2018-07-29T19:00:00	19.4	ND	ND	ND	2.061377107	15.85158075	ND	ND	ND	ND	9.6	0
74517	2018-07-29T20:00:00	4.4	ND	ND	ND	1.713171515	17.676082	ND	ND	ND	ND	0	0
74518	2018-07-29T21:00:00	3.6	ND	ND	ND	2.855285858	12.83036363	ND	ND	ND	ND	0	0
74519	2018-07-29T22:00:00	6.9	ND	ND	ND	1.880310199	10.73120628	ND	ND	ND	ND	0	0
74520	2018-07-29T23:00:00	5.8	ND	ND	ND	2.103161778	10.04456602	ND	ND	ND	ND	0	0
74521	2018-07-30T00:00:00	11.7	ND	ND	ND	1.936023094	11.20204531	ND	ND	ND	ND	0	0
74522	2018-07-30T01:00:00	38.3	ND	ND	ND	2.910998752	7.984645256	ND	ND	ND	ND	0	0
74523	2018-07-30T02:00:00	65.5	ND	ND	ND	3.537768819	3.982513482	ND	ND	ND	ND	0	0
74524	2018-07-30T03:00:00	36.9	ND	ND	ND	3.022424542	3.766712259	ND	ND	ND	ND	0	0
74525	2018-07-30T04:00:00	26	ND	ND	ND	3.57955349	2.001065887	ND	ND	ND	ND	0	0
74526	2018-07-30T05:00:00	26.9	ND	ND	ND	2.409582699	1.412517097	ND	ND	ND	ND	0	0.25
74527	2018-07-30T06:00:00	32.9	ND	ND	ND	4.192395332	1.412517097	ND	ND	ND	ND	0	0
74528	2018-07-30T07:00:00	50.3	ND	ND	ND	3.412414805	1.530226855	ND	ND	ND	ND	28.8	0
74529	2018-07-30T08:00:00	45	ND	ND	ND	3.760620398	1.942211008	ND	ND	ND	ND	229.2	0
74530	2018-07-30T09:00:00	69.8	ND	ND	ND	2.381726252	2.197248817	ND	ND	ND	ND	262.6	0
74531	2018-07-30T10:00:00	69.8	ND	ND	ND	4.136682438	4.747626909	ND	ND	ND	ND	434	0
74532	2018-07-30T11:00:00	48.1	ND	ND	ND	2.117090002	13.92898804	ND	ND	ND	ND	642.8	0
74533	2018-07-30T12:00:00	34.9	ND	ND	ND	3.551697042	26.42584069	ND	ND	ND	ND	643.9	0
74534	2018-07-30T13:00:00	52.4	ND	ND	ND	1.476391712	38.78536529	ND	ND	ND	ND	646.4	0
74535	2018-07-30T14:00:00	59.7	ND	ND	ND	3.189563226	42.9640617	ND	ND	ND	ND	498.6	0
74536	2018-07-30T15:00:00	56.9	ND	ND	ND	2.729931844	22.65912843	ND	ND	ND	ND	254.2	0
74537	2018-07-30T16:00:00	31.1	ND	ND	ND	3.342773687	8.121973307	ND	ND	ND	ND	385.8	0
74538	2018-07-30T17:00:00	15.8	ND	ND	ND	1.225683685	10.86853433	ND	ND	ND	ND	384.9	0
74539	2018-07-30T18:00:00	19.5	ND	ND	ND	1.54603283	7.474569638	ND	ND	ND	ND	53.9	0
74540	2018-07-30T19:00:00	33.7	ND	ND	ND	2.075305331	3.884422017	ND	ND	ND	ND	0	0
74541	2018-07-30T20:00:00	36.8	ND	ND	ND	3.036352766	5.002664718	ND	ND	ND	ND	0	0
74542	2018-07-30T21:00:00	12.3	ND	ND	ND	1.65745862	6.199380592	ND	ND	ND	ND	0	0
74543	2018-07-30T22:00:00	8.2	ND	ND	ND	2.117090002	2.432668334	ND	ND	ND	ND	0	13.21
74544	2018-07-30T23:00:00	24.8	ND	ND	ND	3.245276121	1.902974422	ND	ND	ND	ND	0	36.07
74545	2018-07-31T00:00:00	9.6	ND	ND	ND	1.866381975	1.549845148	ND	ND	ND	ND	0	6.86
74546	2018-07-31T01:00:00	6.4	ND	ND	ND	2.56279316	1.471371976	ND	ND	ND	ND	0	0.76
74547	2018-07-31T02:00:00	16.3	ND	ND	ND	1.713171515	1.530226855	ND	ND	ND	ND	0	5.08
74548	2018-07-31T03:00:00	2.1	ND	ND	ND	3.287060792	1.569463441	ND	ND	ND	ND	0	5.33
74549	2018-07-31T04:00:00	0.1	ND	ND	ND	4.568457372	1.863737836	ND	ND	ND	ND	0	2.29
74550	2018-07-31T05:00:00	ND	ND	ND	ND	2.03352066	1.942211008	ND	ND	ND	ND	0	2.54
74551	2018-07-31T06:00:00	0.2	ND	ND	ND	3.57955349	1.549845148	ND	ND	ND	ND	0	0.51
74552	2018-07-31T07:00:00	17.9	ND	ND	ND	3.426343029	1.530226855	ND	ND	ND	ND	30.6	0
74553	2018-07-31T08:00:00	55.2	ND	ND	ND	2.256372239	1.510608562	ND	ND	ND	ND	121.5	0.76
74554	2018-07-31T09:00:00	31.9	ND	ND	ND	1.685315067	1.549845148	ND	ND	ND	ND	431.9	0
74555	2018-07-31T10:00:00	31.4	ND	ND	ND	3.704907503	2.707324436	ND	ND	ND	ND	636.3	0
74556	2018-07-31T11:00:00	37	ND	ND	ND	1.044616777	10.12303919	ND	ND	ND	ND	648.6	0
74557	2018-07-31T12:00:00	30.2	ND	ND	ND	1.629602172	18.73546983	ND	ND	ND	ND	648.8	0
74558	2018-07-31T13:00:00	28.8	ND	ND	ND	3.133850332	29.4862944	ND	ND	ND	ND	646.3	0
74559	2018-07-31T14:00:00	30.8	ND	ND	ND	2.994568095	42.10085681	ND	ND	ND	ND	646.8	0
74560	2018-07-31T15:00:00	25.4	ND	ND	ND	1.643530396	41.39459826	ND	ND	ND	ND	649.7	0
74561	2018-07-31T16:00:00	16.3	ND	ND	ND	2.841357634	26.26889434	ND	ND	ND	ND	631.2	0
74562	2018-07-31T17:00:00	23.4	ND	ND	ND	1.253540133	12.71265387	ND	ND	ND	ND	279.5	0
74563	2018-07-31T18:00:00	67.6	ND	ND	ND	2.019592436	7.35685988	ND	ND	ND	ND	114.5	0
74564	2018-07-31T19:00:00	97.3	ND	ND	ND	2.117090002	3.315491519	ND	ND	ND	ND	9.1	0
74565	2018-07-31T20:00:00	96.3	ND	ND	ND	2.131018225	1.961829301	ND	ND	ND	ND	0	0
74566	2018-07-31T21:00:00	82.7	ND	ND	ND	3.356701911	3.040835417	ND	ND	ND	ND	0	0
74567	2018-07-31T22:00:00	40.3	ND	ND	ND	2.131018225	2.177630524	ND	ND	ND	ND	0	0
74568	2018-07-31T23:00:00	35.1	ND	ND	ND	3.189563226	2.040302473	ND	ND	ND	ND	0	0
74569	2018-08-01T00:00:00	26.8	ND	ND	ND	3.231347897	1.765646371	ND	ND	ND	ND	0	0
74570	2018-08-01T01:00:00	23.3	ND	ND	ND	2.604577831	2.981980538	ND	ND	ND	ND	0	0
74571	2018-08-01T02:00:00	47.2	ND	ND	ND	2.632434278	1.726409785	ND	ND	ND	ND	0	0
74572	2018-08-01T03:00:00	61.3	ND	ND	ND	3.885974411	1.471371976	ND	ND	ND	ND	0	0
74573	2018-08-01T04:00:00	31.5	ND	ND	ND	3.119922108	1.314425632	ND	ND	ND	ND	0	0
74574	2018-08-01T05:00:00	42.6	ND	ND	ND	4.888806517	1.490990269	ND	ND	ND	ND	0	0
74575	2018-08-01T06:00:00	49	ND	ND	ND	4.972375859	1.530226855	ND	ND	ND	ND	0	0
74576	2018-08-01T07:00:00	111.4	ND	ND	ND	5.028088754	1.82450125	ND	ND	ND	ND	38.2	0
74577	2018-08-01T08:00:00	124.8	ND	ND	ND	5.320581452	1.785264664	ND	ND	ND	ND	462.4	0
74578	2018-08-01T09:00:00	123.8	ND	ND	ND	4.262036451	3.845185431	ND	ND	ND	ND	598	0
74579	2018-08-01T10:00:00	50.7	ND	ND	ND	2.716003621	8.749758684	ND	ND	ND	ND	648.5	0
74580	2018-08-01T11:00:00	44.7	ND	ND	ND	2.590649607	18.5196686	ND	ND	ND	ND	648.7	0
74581	2018-08-01T12:00:00	34.5	ND	ND	ND	2.521008489	33.76308228	ND	ND	ND	ND	648.7	0
74582	2018-08-01T13:00:00	20.3	ND	ND	ND	3.426343029	39.72704335	ND	ND	ND	ND	649.4	0
74583	2018-08-01T14:00:00	28.5	ND	ND	ND	2.326013357	41.08070557	ND	ND	ND	ND	649.3	0
74584	2018-08-01T15:00:00	46.2	ND	ND	ND	1.156042567	37.76521405	ND	ND	ND	ND	647.5	0
74585	2018-08-01T16:00:00	41.3	ND	ND	ND	2.952783423	25.64110897	ND	ND	ND	ND	611.6	0
74586	2018-08-01T17:00:00	35	ND	ND	ND	2.242444015	14.47830024	ND	ND	ND	ND	505.7	0
74587	2018-08-01T18:00:00	32.9	ND	ND	ND	2.200659344	9.612963576	ND	ND	ND	ND	128	0
74588	2018-08-01T19:00:00	18.1	ND	ND	ND	1.671386843	7.690370861	ND	ND	ND	ND	9.3	0
74589	2018-08-01T20:00:00	20.2	ND	ND	ND	2.047448883	6.179762299	ND	ND	ND	ND	0	27.69
74590	2018-08-01T21:00:00	30.2	ND	ND	ND	2.158874673	4.590680565	ND	ND	ND	ND	0	0
74591	2018-08-01T22:00:00	41.5	ND	ND	ND	2.353869805	1.765646371	ND	ND	ND	ND	0	0.25
74592	2018-08-01T23:00:00	42.4	ND	ND	ND	3.064209213	2.393431748	ND	ND	ND	ND	0	0
74593	2018-08-02T00:00:00	16.9	ND	ND	ND	0.807836974	3.923658603	ND	ND	ND	ND	0	0
74594	2018-08-02T01:00:00	9.3	ND	ND	ND	1.685315067	5.669686681	ND	ND	ND	ND	0	0
74595	2018-08-02T02:00:00	10	ND	ND	ND	2.228515791	2.766179315	ND	ND	ND	ND	0	0
74596	2018-08-02T03:00:00	34.9	ND	ND	ND	3.607409937	1.863737836	ND	ND	ND	ND	0	0
74597	2018-08-02T04:00:00	31.5	ND	ND	ND	2.131018225	2.001065887	ND	ND	ND	ND	0	0
74598	2018-08-02T05:00:00	26.4	ND	ND	ND	3.398486582	1.785264664	ND	ND	ND	ND	0	0
74599	2018-08-02T06:00:00	55.2	ND	ND	ND	2.67421895	1.589081734	ND	ND	ND	ND	0	0
74600	2018-08-02T07:00:00	92.9	ND	ND	ND	4.234180003	1.765646371	ND	ND	ND	ND	61	0
74601	2018-08-02T08:00:00	96.2	ND	ND	ND	3.217419674	1.961829301	ND	ND	ND	ND	204.4	0
74602	2018-08-02T09:00:00	108.3	ND	ND	ND	4.610242043	2.66808785	ND	ND	ND	ND	408.3	0
74603	2018-08-02T10:00:00	108.5	ND	ND	ND	4.512744477	7.180295243	ND	ND	ND	ND	630.1	0
74604	2018-08-02T11:00:00	100.5	ND	ND	ND	3.20349145	18.46081373	ND	ND	ND	ND	625	0
74605	2018-08-02T12:00:00	77.1	ND	ND	ND	2.632434278	40.707958	ND	ND	ND	ND	648.4	0
74606	2018-08-02T13:00:00	65.1	ND	ND	ND	1.337109475	64.09296327	ND	ND	ND	ND	649.1	0
74607	2018-08-02T14:00:00	49.4	ND	ND	ND	2.56279316	77.72767692	ND	ND	ND	ND	649.5	0
74608	2018-08-02T15:00:00	46.3	ND	ND	ND	2.56279316	61.40525713	ND	ND	ND	ND	643	0
74609	2018-08-02T16:00:00	44.8	ND	ND	ND	3.31491724	69.99806947	ND	ND	ND	ND	636.5	0
74610	2018-08-02T17:00:00	46.6	ND	ND	ND	0.863549869	37.3532299	ND	ND	ND	ND	418.1	0
74611	2018-08-02T18:00:00	52.1	ND	ND	ND	2.646362502	22.36485403	ND	ND	ND	ND	213.3	0
74612	2018-08-02T19:00:00	33.9	ND	ND	ND	ND	13.34043925	ND	ND	ND	ND	0	0
74613	2018-08-02T20:00:00	21.6	ND	ND	ND	1.936023094	11.49631971	ND	ND	ND	ND	0	0
74614	2018-08-02T21:00:00	21.3	ND	ND	ND	1.92209487	15.63577953	ND	ND	ND	ND	0	0
74615	2018-08-02T22:00:00	11.9	ND	ND	ND	1.601745725	10.84891604	ND	ND	ND	ND	0	0
74616	2018-08-02T23:00:00	26.3	ND	ND	ND	2.45136737	5.002664718	ND	ND	ND	ND	0	0
74617	2018-08-03T00:00:00	29.9	ND	ND	ND	1.267468356	3.217400054	ND	ND	ND	ND	0	0
74618	2018-08-03T01:00:00	47.6	ND	ND	ND	2.353869805	1.62831832	ND	ND	ND	ND	0	0
74619	2018-08-03T02:00:00	47.6	ND	ND	ND	2.813501187	1.569463441	ND	ND	ND	ND	0	0
74620	2018-08-03T03:00:00	37.6	ND	ND	ND	3.84418974	2.079539059	ND	ND	ND	ND	0	0
74621	2018-08-03T04:00:00	30	ND	ND	ND	3.677051056	1.844119543	ND	ND	ND	ND	0	0
74622	2018-08-03T05:00:00	31.3	ND	ND	ND	2.507080265	1.844119543	ND	ND	ND	ND	0	0
74623	2018-08-03T06:00:00	27.5	ND	ND	ND	3.4681277	1.373280511	ND	ND	ND	ND	0	0
74624	2018-08-03T07:00:00	54.8	ND	ND	ND	3.523840595	1.844119543	ND	ND	ND	ND	54.6	0
74625	2018-08-03T08:00:00	78	ND	ND	ND	2.144946449	2.158012231	ND	ND	ND	ND	212.7	0
74626	2018-08-03T09:00:00	96.8	ND	ND	ND	4.888806517	4.10022324	ND	ND	ND	ND	546.8	0
74627	2018-08-03T10:00:00	105.2	ND	ND	ND	3.830261516	12.32028801	ND	ND	ND	ND	643.1	0
74628	2018-08-03T11:00:00	82.3	ND	ND	ND	3.300989016	27.99530413	ND	ND	ND	ND	625.9	0
74629	2018-08-03T12:00:00	78	ND	ND	ND	2.521008489	38.15757991	ND	ND	ND	ND	648.8	0
74630	2018-08-03T13:00:00	93.3	ND	ND	ND	2.632434278	53.10671919	ND	ND	ND	ND	648.7	0
74631	2018-08-03T14:00:00	79.1	ND	ND	ND	3.161706779	45.02398247	ND	ND	ND	ND	636.9	0
74632	2018-08-03T15:00:00	26	ND	ND	ND	1.183899014	22.63951014	ND	ND	ND	ND	648.7	0
74633	2018-08-03T16:00:00	21.1	ND	ND	ND	1.768884409	16.40089296	ND	ND	ND	ND	469	0
74634	2018-08-03T17:00:00	28.9	ND	ND	ND	1.072473225	18.00959299	ND	ND	ND	ND	452.6	0
74635	2018-08-03T18:00:00	24.5	ND	ND	ND	0.306420921	13.81127828	ND	ND	ND	ND	254	0
74636	2018-08-03T19:00:00	26.4	ND	ND	ND	1.072473225	11.84944898	ND	ND	ND	ND	9.9	0
74637	2018-08-03T20:00:00	30.1	ND	ND	ND	1.587817501	7.298005001	ND	ND	ND	ND	0	0
74638	2018-08-03T21:00:00	39.1	ND	ND	ND	3.245276121	10.35845871	ND	ND	ND	ND	0	0
74639	2018-08-03T22:00:00	28.5	ND	ND	ND	0.766052303	7.631515982	ND	ND	ND	ND	0	0
74640	2018-08-03T23:00:00	37.6	ND	ND	ND	2.785644739	7.55304281	ND	ND	ND	ND	0	0
74641	2018-08-04T00:00:00	29	ND	ND	ND	2.729931844	8.39662941	ND	ND	ND	ND	0	0
74642	2018-08-04T01:00:00	31.8	ND	ND	ND	1.838525528	6.140525713	ND	ND	ND	ND	0	0
74643	2018-08-04T02:00:00	32.3	ND	ND	ND	2.005664212	6.336708643	ND	ND	ND	ND	0	0
74644	2018-08-04T03:00:00	35.1	ND	ND	ND	3.523840595	2.236485403	ND	ND	ND	ND	0	0.25
74645	2018-08-04T04:00:00	20.2	ND	ND	ND	4.498816254	1.961829301	ND	ND	ND	ND	0	3.05
74646	2018-08-04T05:00:00	12	ND	ND	ND	3.509912371	2.059920766	ND	ND	ND	ND	0	0.51
74647	2018-08-04T06:00:00	22	ND	ND	ND	4.568457372	1.255570753	ND	ND	ND	ND	0	0.25
74648	2018-08-04T07:00:00	34.3	ND	ND	ND	3.607409937	1.667554906	ND	ND	ND	ND	72.6	0
74649	2018-08-04T08:00:00	42.3	ND	ND	ND	3.704907503	1.942211008	ND	ND	ND	ND	404.9	0
74650	2018-08-04T09:00:00	59.3	ND	ND	ND	3.690979279	2.903507366	ND	ND	ND	ND	458.1	0
74651	2018-08-04T10:00:00	61.4	ND	ND	ND	3.050280989	10.02494773	ND	ND	ND	ND	645.1	0
74652	2018-08-04T11:00:00	64	ND	ND	ND	2.479223818	19.79485765	ND	ND	ND	ND	645.9	0
74653	2018-08-04T12:00:00	44.6	ND	ND	ND	3.830261516	33.21377007	ND	ND	ND	ND	649.1	0
74654	2018-08-04T13:00:00	28.7	ND	ND	ND	1.81066908	42.1204751	ND	ND	ND	ND	649.1	0
74655	2018-08-04T14:00:00	31.7	ND	ND	ND	2.980639871	41.13956045	ND	ND	ND	ND	632.5	0
74656	2018-08-04T15:00:00	40.5	ND	ND	ND	3.064209213	34.39086765	ND	ND	ND	ND	539.7	0
74657	2018-08-04T16:00:00	39.7	ND	ND	ND	2.757788292	39.27582261	ND	ND	ND	ND	464.5	0
74658	2018-08-04T17:00:00	37	ND	ND	ND	1.490319935	41.2768885	ND	ND	ND	ND	527.8	0
74659	2018-08-04T18:00:00	27.7	ND	ND	ND	2.200659344	19.24554545	ND	ND	ND	ND	196.6	0
74660	2018-08-04T19:00:00	28.2	ND	ND	ND	1.309253027	5.92472449	ND	ND	ND	ND	6.1	0
74661	2018-08-04T20:00:00	16.6	ND	ND	ND	2.813501187	7.298005001	ND	ND	ND	ND	0	0
74662	2018-08-04T21:00:00	14.8	ND	ND	ND	1.908166646	8.671285512	ND	ND	ND	ND	0	0
74663	2018-08-04T22:00:00	26.1	ND	ND	ND	1.741027962	6.31709035	ND	ND	ND	ND	0	0
74664	2018-08-04T23:00:00	17.5	ND	ND	ND	1.183899014	9.436398939	ND	ND	ND	ND	0	0
74665	2018-08-05T00:00:00	25.3	ND	ND	ND	1.114257896	10.88815262	ND	ND	ND	ND	0	5.08
74666	2018-08-05T01:00:00	26.4	ND	ND	ND	3.635266385	7.572661103	ND	ND	ND	ND	0	8.38
74667	2018-08-05T02:00:00	17.2	ND	ND	ND	1.713171515	4.68877203	ND	ND	ND	ND	0	5.84
74668	2018-08-05T03:00:00	13.2	ND	ND	ND	2.952783423	4.198314705	ND	ND	ND	ND	0	8.64
74669	2018-08-05T04:00:00	22.3	ND	ND	ND	1.894238423	2.589614678	ND	ND	ND	ND	0	5.59
74670	2018-08-05T05:00:00	18.4	ND	ND	ND	3.259204345	2.236485403	ND	ND	ND	ND	0	1.02
74671	2018-08-05T06:00:00	14.6	ND	ND	ND	3.398486582	2.21686711	ND	ND	ND	ND	0	0
74672	2018-08-05T07:00:00	21.8	ND	ND	ND	3.4681277	1.62831832	ND	ND	ND	ND	46.7	0.25
74673	2018-08-05T08:00:00	37.2	ND	ND	ND	2.144946449	1.804882957	ND	ND	ND	ND	284.3	0
74674	2018-08-05T09:00:00	55.1	ND	ND	ND	3.300989016	3.766712259	ND	ND	ND	ND	579.5	0
74675	2018-08-05T10:00:00	40.3	ND	ND	ND	2.757788292	9.200979423	ND	ND	ND	ND	585.5	0
74676	2018-08-05T11:00:00	36.7	ND	ND	ND	2.437439147	20.38340644	ND	ND	ND	ND	625.4	0
74677	2018-08-05T12:00:00	31.2	ND	ND	ND	2.381726252	21.38393938	ND	ND	ND	ND	500.2	0
74678	2018-08-05T13:00:00	24.3	ND	ND	ND	2.604577831	38.1771982	ND	ND	ND	ND	649.1	0
74679	2018-08-05T14:00:00	42.1	ND	ND	ND	2.005664212	41.33574338	ND	ND	ND	ND	648.8	0
74680	2018-08-05T15:00:00	23.6	ND	ND	ND	3.273132568	49.18306058	ND	ND	ND	ND	562.5	0
74681	2018-08-05T16:00:00	12	ND	ND	ND	1.490319935	63.32784985	ND	ND	ND	ND	588.5	0
74682	2018-08-05T17:00:00	29.5	ND	ND	ND	3.57955349	68.09509505	ND	ND	ND	ND	588.8	0
74683	2018-08-05T18:00:00	35.2	ND	ND	ND	2.757788292	67.36921821	ND	ND	ND	ND	184.7	0
74684	2018-08-05T19:00:00	35.3	ND	ND	ND	2.799572963	34.92056156	ND	ND	ND	ND	8.1	0
74685	2018-08-05T20:00:00	29.9	ND	ND	ND	1.378894146	5.002664718	ND	ND	ND	ND	0	0
74686	2018-08-05T21:00:00	26.6	ND	ND	ND	1.629602172	3.45281957	ND	ND	ND	ND	0	0
74687	2018-08-05T22:00:00	17.7	ND	ND	ND	2.56279316	5.08113789	ND	ND	ND	ND	0	0
74688	2018-08-05T23:00:00	20.1	ND	ND	ND	1.518176383	4.276787877	ND	ND	ND	ND	0	0
74689	2018-08-06T00:00:00	24.7	ND	ND	ND	3.036352766	3.433201277	ND	ND	ND	ND	0	0
74690	2018-08-06T01:00:00	37.4	ND	ND	ND	4.039184872	1.608700027	ND	ND	ND	ND	0	0
74691	2018-08-06T02:00:00	58.5	ND	ND	ND	2.67421895	6.670219624	ND	ND	ND	ND	0	0
74692	2018-08-06T03:00:00	20.4	ND	ND	ND	1.448535264	5.689304974	ND	ND	ND	ND	0	0
74693	2018-08-06T04:00:00	29.7	ND	ND	ND	1.295324804	3.90404031	ND	ND	ND	ND	0	0
74694	2018-08-06T05:00:00	38.3	ND	ND	ND	2.9388552	3.276254933	ND	ND	ND	ND	0	0
74695	2018-08-06T06:00:00	50.9	ND	ND	ND	3.105993884	1.549845148	ND	ND	ND	ND	0	0
74696	2018-08-06T07:00:00	79.4	ND	ND	ND	3.95561553	1.667554906	ND	ND	ND	ND	130.2	0
74697	2018-08-06T08:00:00	88.3	ND	ND	ND	3.802405069	3.040835417	ND	ND	ND	ND	450.5	0
74698	2018-08-06T09:00:00	90.3	ND	ND	ND	4.122754214	9.789528214	ND	ND	ND	ND	639.2	0
74699	2018-08-06T10:00:00	72.6	ND	ND	ND	2.924926976	14.61562829	ND	ND	ND	ND	639.8	0
74700	2018-08-06T11:00:00	60.8	ND	ND	ND	3.84418974	27.5244651	ND	ND	ND	ND	635.7	0
74701	2018-08-06T12:00:00	69.3	ND	ND	ND	2.117090002	40.86490435	ND	ND	ND	ND	648.9	0
74702	2018-08-06T13:00:00	80.5	ND	ND	ND	2.604577831	73.86287319	ND	ND	ND	ND	645.5	0
74703	2018-08-06T14:00:00	82	ND	ND	ND	2.855285858	88.00766246	ND	ND	ND	ND	646.3	0
74704	2018-08-06T15:00:00	74.8	ND	ND	ND	2.256372239	79.68950622	ND	ND	ND	ND	575.7	0
74705	2018-08-06T16:00:00	65.3	ND	ND	ND	2.869214081	35.62682011	ND	ND	ND	ND	522.1	0
74706	2018-08-06T17:00:00	47.7	ND	ND	ND	2.061377107	12.59494411	ND	ND	ND	ND	150.1	0
74707	2018-08-06T18:00:00	36.2	ND	ND	ND	1.490319935	8.377011117	ND	ND	ND	ND	115.8	0
74708	2018-08-06T19:00:00	43.2	ND	ND	ND	2.326013357	5.473503751	ND	ND	ND	ND	10.6	0
74709	2018-08-06T20:00:00	23	ND	ND	ND	1.92209487	5.238084235	ND	ND	ND	ND	0	0
74710	2018-08-06T21:00:00	18.9	ND	ND	ND	3.4681277	4.924191546	ND	ND	ND	ND	0	0
74711	2018-08-06T22:00:00	14.4	ND	ND	ND	1.713171515	7.141058657	ND	ND	ND	ND	0	0
74712	2018-08-06T23:00:00	36.5	ND	ND	ND	2.548864936	2.825034194	ND	ND	ND	ND	0	0
74713	2018-08-07T00:00:00	58.9	ND	ND	ND	3.245276121	2.079539059	ND	ND	ND	ND	0	0
74714	2018-08-07T01:00:00	44.7	ND	ND	ND	2.646362502	5.434267165	ND	ND	ND	ND	0	0
74715	2018-08-07T02:00:00	17.6	ND	ND	ND	2.256372239	5.434267165	ND	ND	ND	ND	0	0
74716	2018-08-07T03:00:00	33.5	ND	ND	ND	1.295324804	1.490990269	ND	ND	ND	ND	0	0
74717	2018-08-07T04:00:00	57.5	ND	ND	ND	3.09206566	1.647936613	ND	ND	ND	ND	0	0
74718	2018-08-07T05:00:00	21.9	ND	ND	ND	3.050280989	2.373813455	ND	ND	ND	ND	0	0
74719	2018-08-07T06:00:00	8.5	ND	ND	ND	2.312085133	1.804882957	ND	ND	ND	ND	0	0
74720	2018-08-07T07:00:00	36.7	ND	ND	ND	1.908166646	1.726409785	ND	ND	ND	ND	46.3	0
74721	2018-08-07T08:00:00	76.6	ND	ND	ND	3.551697042	4.002131775	ND	ND	ND	ND	545.4	0
74722	2018-08-07T09:00:00	98.4	ND	ND	ND	3.231347897	12.73227217	ND	ND	ND	ND	648.4	0
74723	2018-08-07T10:00:00	74.8	ND	ND	ND	1.880310199	22.85531136	ND	ND	ND	ND	648.3	0
74724	2018-08-07T11:00:00	91.1	ND	ND	ND	0.306420921	37.51017624	ND	ND	ND	ND	648.9	0
74725	2018-08-07T12:00:00	54.4	ND	ND	ND	2.03352066	51.1056533	ND	ND	ND	ND	649	0
74726	2018-08-07T13:00:00	54.4	ND	ND	ND	2.883142305	71.23402193	ND	ND	ND	ND	649.5	0
74727	2018-08-07T14:00:00	52.4	ND	ND	ND	2.437439147	63.79868888	ND	ND	ND	ND	649.3	0
74728	2018-08-07T15:00:00	41.2	ND	ND	ND	2.284228686	59.69846564	ND	ND	ND	ND	628.3	0
74729	2018-08-07T16:00:00	33.9	ND	ND	ND	2.312085133	33.90041033	ND	ND	ND	ND	542.3	0
74730	2018-08-07T17:00:00	19.5	ND	ND	ND	3.872046187	29.15278342	ND	ND	ND	ND	485.2	0
74731	2018-08-07T18:00:00	23.5	ND	ND	ND	1.727099738	22.87492965	ND	ND	ND	ND	95	0
74732	2018-08-07T19:00:00	6.5	ND	ND	ND	2.214587568	13.57585877	ND	ND	ND	ND	6.6	0
74733	2018-08-07T20:00:00	22.3	ND	ND	ND	1.295324804	12.16334167	ND	ND	ND	ND	0	0
74734	2018-08-07T21:00:00	23.2	ND	ND	ND	2.632434278	16.49898442	ND	ND	ND	ND	0	0
74735	2018-08-07T22:00:00	19.6	ND	ND	ND	1.936023094	13.1834929	ND	ND	ND	ND	0	0
74736	2018-08-07T23:00:00	21.5	ND	ND	ND	1.629602172	5.963961076	ND	ND	ND	ND	0	0
74737	2018-08-08T00:00:00	62	ND	ND	ND	2.144946449	2.687706143	ND	ND	ND	ND	0	0
74738	2018-08-08T01:00:00	72	ND	ND	ND	3.231347897	2.452286627	ND	ND	ND	ND	0	0
74739	2018-08-08T02:00:00	42.1	ND	ND	ND	4.359534017	2.001065887	ND	ND	ND	ND	0	0
74740	2018-08-08T03:00:00	44.8	ND	ND	ND	2.716003621	3.707857379	ND	ND	ND	ND	0	0
74741	2018-08-08T04:00:00	41.7	ND	ND	ND	3.398486582	2.805415901	ND	ND	ND	ND	0	0
74742	2018-08-08T05:00:00	44.8	ND	ND	ND	2.646362502	2.354195162	ND	ND	ND	ND	0	0
74743	2018-08-08T06:00:00	42.6	ND	ND	ND	3.31491724	1.490990269	ND	ND	ND	ND	0	0
74744	2018-08-08T07:00:00	60.2	ND	ND	ND	3.690979279	2.001065887	ND	ND	ND	ND	99.2	0
74745	2018-08-08T08:00:00	78.2	ND	ND	ND	5.055945201	2.86427078	ND	ND	ND	ND	438.9	0
74746	2018-08-08T09:00:00	122.5	ND	ND	ND	2.590649607	6.336708643	ND	ND	ND	ND	647.9	0
74747	2018-08-08T10:00:00	125.2	ND	ND	ND	3.133850332	16.40089296	ND	ND	ND	ND	648.3	0
74748	2018-08-08T11:00:00	81.3	ND	ND	ND	2.200659344	38.00063357	ND	ND	ND	ND	648.3	0
74749	2018-08-08T12:00:00	59.5	ND	ND	ND	0.863549869	57.18732413	ND	ND	ND	ND	649.2	0
74750	2018-08-08T13:00:00	52.4	ND	ND	ND	1.852453752	57.63854487	ND	ND	ND	ND	638.9	0
74751	2018-08-08T14:00:00	37.9	ND	ND	ND	1.044616777	47.61359714	ND	ND	ND	ND	649.2	0
74752	2018-08-08T15:00:00	13.1	ND	ND	ND	3.802405069	36.2349872	ND	ND	ND	ND	649.2	0
74753	2018-08-08T16:00:00	1.3	ND	ND	ND	2.228515791	27.54408339	ND	ND	ND	ND	645	0
74754	2018-08-08T17:00:00	1.6	ND	ND	ND	2.618506055	25.89614678	ND	ND	ND	ND	591.5	0
74755	2018-08-08T18:00:00	63.2	ND	ND	ND	1.002832106	23.64004308	ND	ND	ND	ND	245.3	0
74756	2018-08-08T19:00:00	96	ND	ND	ND	3.95561553	17.28371614	ND	ND	ND	ND	13.5	0
74757	2018-08-08T20:00:00	65.6	ND	ND	ND	3.064209213	11.12357214	ND	ND	ND	ND	0	0
74758	2018-08-08T21:00:00	68.2	ND	ND	ND	2.172802897	12.33990631	ND	ND	ND	ND	0	0
74759	2018-08-08T22:00:00	23.6	ND	ND	ND	0.724267632	11.71212093	ND	ND	ND	ND	0	0
74760	2018-08-08T23:00:00	17.5	ND	ND	ND	1.81066908	3.315491519	ND	ND	ND	ND	0	0
74761	2018-08-09T00:00:00	38.5	ND	ND	ND	2.03352066	9.142124544	ND	ND	ND	ND	0	0
74762	2018-08-09T01:00:00	22.1	ND	ND	ND	1.420678817	4.943809839	ND	ND	ND	ND	0	0
74763	2018-08-09T02:00:00	44.4	ND	ND	ND	2.18673112	4.904573253	ND	ND	ND	ND	0	0
74764	2018-08-09T03:00:00	22.9	ND	ND	ND	3.342773687	1.961829301	ND	ND	ND	ND	0	0
74765	2018-08-09T04:00:00	35.8	ND	ND	ND	2.103161778	2.569996385	ND	ND	ND	ND	0	0
74766	2018-08-09T05:00:00	19.1	ND	ND	ND	3.523840595	5.983579369	ND	ND	ND	ND	0	0
74767	2018-08-09T06:00:00	6.6	ND	ND	ND	3.370630134	2.86427078	ND	ND	ND	ND	0	0
74768	2018-08-09T07:00:00	24.6	ND	ND	ND	2.729931844	2.236485403	ND	ND	ND	ND	159.3	0
74769	2018-08-09T08:00:00	72.8	ND	ND	ND	3.760620398	2.707324436	ND	ND	ND	ND	500.3	0
74770	2018-08-09T09:00:00	110.8	ND	ND	ND	1.629602172	9.593345283	ND	ND	ND	ND	648.1	0
74771	2018-08-09T10:00:00	92.2	ND	ND	ND	2.924926976	15.34150514	ND	ND	ND	ND	648.5	0
74772	2018-08-09T11:00:00	79.1	ND	ND	ND	3.189563226	34.05735667	ND	ND	ND	ND	648.4	0
74773	2018-08-09T12:00:00	79.9	ND	ND	ND	3.189563226	57.63854487	ND	ND	ND	ND	649.2	0
74774	2018-08-09T13:00:00	73.9	ND	ND	ND	1.601745725	54.79389239	ND	ND	ND	ND	649.1	0
74775	2018-08-09T14:00:00	59.1	ND	ND	ND	1.490319935	45.43596662	ND	ND	ND	ND	649.2	0
74776	2018-08-09T15:00:00	64	ND	ND	ND	1.504248159	34.58705058	ND	ND	ND	ND	577	0
74777	2018-08-09T16:00:00	40.9	ND	ND	ND	3.872046187	39.21696773	ND	ND	ND	ND	649.1	0
74778	2018-08-09T17:00:00	96.7	ND	ND	ND	2.144946449	45.92642394	ND	ND	ND	ND	523.6	0
74779	2018-08-09T18:00:00	96.6	ND	ND	ND	3.245276121	28.52499804	ND	ND	ND	ND	182	0
74780	2018-08-09T19:00:00	74.2	ND	ND	ND	3.398486582	10.29960383	ND	ND	ND	ND	8.9	0
74781	2018-08-09T20:00:00	53.3	ND	ND	ND	1.504248159	9.907237972	ND	ND	ND	ND	0	0
74782	2018-08-09T21:00:00	38.1	ND	ND	ND	1.65745862	10.86853433	ND	ND	ND	ND	0	0
74783	2018-08-09T22:00:00	47.9	ND	ND	ND	3.09206566	4.610298858	ND	ND	ND	ND	0	0
74784	2018-08-09T23:00:00	44.6	ND	ND	ND	4.039184872	3.335109812	ND	ND	ND	ND	0	0
74785	2018-08-10T00:00:00	56.6	ND	ND	ND	1.699243291	1.667554906	ND	ND	ND	ND	0	0
74786	2018-08-10T01:00:00	51.9	ND	ND	ND	3.050280989	1.687173199	ND	ND	ND	ND	0	0
74787	2018-08-10T02:00:00	49.9	ND	ND	ND	3.788476845	7.415714759	ND	ND	ND	ND	0	0
74788	2018-08-10T03:00:00	11.2	ND	ND	ND	1.81066908	9.691436748	ND	ND	ND	ND	0	0
74789	2018-08-10T04:00:00	20.5	ND	ND	ND	3.217419674	7.298005001	ND	ND	ND	ND	0	0
74790	2018-08-10T05:00:00	28.4	ND	ND	ND	2.075305331	4.355261049	ND	ND	ND	ND	0	0
74791	2018-08-10T06:00:00	29	ND	ND	ND	3.078137437	3.197781761	ND	ND	ND	ND	0	0
74792	2018-08-10T07:00:00	32.4	ND	ND	ND	2.604577831	2.511141506	ND	ND	ND	ND	81.1	0
74793	2018-08-10T08:00:00	39.8	ND	ND	ND	3.398486582	4.649535444	ND	ND	ND	ND	612.1	0
74794	2018-08-10T09:00:00	149.9	ND	ND	ND	3.356701911	9.279452595	ND	ND	ND	ND	617.2	0
74795	2018-08-10T10:00:00	147.3	ND	ND	ND	3.690979279	26.54355045	ND	ND	ND	ND	648.3	0
74796	2018-08-10T11:00:00	100.3	ND	ND	ND	2.980639871	39.64857018	ND	ND	ND	ND	648.6	0
74797	2018-08-10T12:00:00	61.6	ND	ND	ND	1.462463488	57.77587292	ND	ND	ND	ND	648.9	0
74798	2018-08-10T13:00:00	69.2	ND	ND	ND	1.936023094	54.63694604	ND	ND	ND	ND	646.8	0
74799	2018-08-10T14:00:00	48.4	ND	ND	ND	3.133850332	48.53565691	ND	ND	ND	ND	649.2	0
74800	2018-08-10T15:00:00	53.4	ND	ND	ND	3.760620398	40.25673726	ND	ND	ND	ND	600.8	0
74801	2018-08-10T16:00:00	63.5	ND	ND	ND	2.952783423	35.86223963	ND	ND	ND	ND	572.8	0
74802	2018-08-10T17:00:00	92.2	ND	ND	ND	3.57955349	31.54621517	ND	ND	ND	ND	431.8	0
74803	2018-08-10T18:00:00	74.6	ND	ND	ND	2.03352066	19.46134667	ND	ND	ND	ND	169.6	0
74804	2018-08-10T19:00:00	43.4	ND	ND	ND	2.688147173	9.848383093	ND	ND	ND	ND	6.2	0
74805	2018-08-10T20:00:00	92.3	ND	ND	ND	0.766052303	9.868001386	ND	ND	ND	ND	0	0
74806	2018-08-10T21:00:00	74.9	ND	ND	ND	2.019592436	15.20417709	ND	ND	ND	ND	0	0
74807	2018-08-10T22:00:00	49.3	ND	ND	ND	3.482055924	13.83089657	ND	ND	ND	ND	0	0
74808	2018-08-10T23:00:00	12	ND	ND	ND	2.45136737	11.20204531	ND	ND	ND	ND	0	0
74809	2018-08-11T00:00:00	8.1	ND	ND	ND	2.158874673	13.92898804	ND	ND	ND	ND	0	0
74810	2018-08-11T01:00:00	ND	ND	ND	ND	3.495984148	12.88921851	ND	ND	ND	ND	0	0
74811	2018-08-11T02:00:00	36.7	ND	ND	ND	2.158874673	10.47616847	ND	ND	ND	ND	0	0
74812	2018-08-11T03:00:00	11.2	ND	ND	ND	3.4681277	8.533957461	ND	ND	ND	ND	0	0
74813	2018-08-11T04:00:00	54.6	ND	ND	ND	2.479223818	1.863737836	ND	ND	ND	ND	0	0
74814	2018-08-11T05:00:00	105.4	ND	ND	ND	4.262036451	3.864803724	ND	ND	ND	ND	0	0
74815	2018-08-11T06:00:00	69.3	ND	ND	ND	3.050280989	3.433201277	ND	ND	ND	ND	0	0
74816	2018-08-11T07:00:00	32.9	ND	ND	ND	3.495984148	2.236485403	ND	ND	ND	ND	170.1	0
74817	2018-08-11T08:00:00	127.9	ND	ND	ND	3.287060792	4.414115928	ND	ND	ND	ND	601.6	0
74818	2018-08-11T09:00:00	123.4	ND	ND	ND	3.565625266	19.01012593	ND	ND	ND	ND	648.3	0
74819	2018-08-11T10:00:00	138.9	ND	ND	ND	4.568457372	37.64750429	ND	ND	ND	ND	647.9	0
74820	2018-08-11T11:00:00	136.7	ND	ND	ND	4.930591188	52.43969722	ND	ND	ND	ND	648.4	0
74821	2018-08-11T12:00:00	99.9	ND	ND	ND	1.629602172	70.07654264	ND	ND	ND	ND	649	0
74822	2018-08-11T13:00:00	77.9	ND	ND	ND	4.178467109	79.33637695	ND	ND	ND	ND	591.8	0
74823	2018-08-11T14:00:00	85.7	ND	ND	ND	4.540600925	85.16300997	ND	ND	ND	ND	649	0
74824	2018-08-11T15:00:00	70.6	ND	ND	ND	2.604577831	61.16983762	ND	ND	ND	ND	649.6	0
74825	2018-08-11T16:00:00	41.9	ND	ND	ND	3.677051056	56.61839364	ND	ND	ND	ND	649.4	0
74826	2018-08-11T17:00:00	33.6	ND	ND	ND	2.82742941	45.14169222	ND	ND	ND	ND	607.9	0
74827	2018-08-11T18:00:00	75.3	ND	ND	ND	2.813501187	33.37071642	ND	ND	ND	ND	88.8	0
74828	2018-08-11T19:00:00	58.2	ND	ND	ND	2.729931844	28.95660049	ND	ND	ND	ND	5.8	0
74829	2018-08-11T20:00:00	46.2	ND	ND	ND	1.54603283	24.91523213	ND	ND	ND	ND	0	0
74830	2018-08-11T21:00:00	34.4	ND	ND	ND	2.924926976	20.5011162	ND	ND	ND	ND	0	0
74831	2018-08-11T22:00:00	23.3	ND	ND	ND	2.117090002	17.71531859	ND	ND	ND	ND	0	0
74832	2018-08-11T23:00:00	25.9	ND	ND	ND	3.73276395	6.70945621	ND	ND	ND	ND	0	0
74833	2018-08-12T00:00:00	68.2	ND	ND	ND	2.381726252	1.569463441	ND	ND	ND	ND	0	0
74834	2018-08-12T01:00:00	73.1	ND	ND	ND	3.189563226	5.983579369	ND	ND	ND	ND	0	0
74835	2018-08-12T02:00:00	44.8	ND	ND	ND	1.991735988	4.610298858	ND	ND	ND	ND	0	0
74836	2018-08-12T03:00:00	52.1	ND	ND	ND	4.178467109	5.453885458	ND	ND	ND	ND	0	0
74837	2018-08-12T04:00:00	74.5	ND	ND	ND	2.56279316	4.669153737	ND	ND	ND	ND	0	0
74838	2018-08-12T05:00:00	73.6	ND	ND	ND	4.401318688	2.805415901	ND	ND	ND	ND	0	0
74839	2018-08-12T06:00:00	77.5	ND	ND	ND	2.312085133	3.492056156	ND	ND	ND	ND	0	0
74840	2018-08-12T07:00:00	65	ND	ND	ND	2.67421895	3.570529328	ND	ND	ND	ND	99.2	0
74841	2018-08-12T08:00:00	66.6	ND	ND	ND	3.649194608	5.72854156	ND	ND	ND	ND	522.4	0
74842	2018-08-12T09:00:00	93.1	ND	ND	ND	3.133850332	21.46241256	ND	ND	ND	ND	639.5	0
74843	2018-08-12T10:00:00	91.4	ND	ND	ND	3.4681277	47.90787154	ND	ND	ND	ND	642	0
74844	2018-08-12T11:00:00	77.1	ND	ND	ND	1.908166646	56.30450095	ND	ND	ND	ND	649.4	0
74845	2018-08-12T12:00:00	62.6	ND	ND	ND	2.980639871	65.07387792	ND	ND	ND	ND	648.9	0
74846	2018-08-12T13:00:00	59.4	ND	ND	ND	2.910998752	76.0993586	ND	ND	ND	ND	630.6	0
74847	2018-08-12T14:00:00	52.4	ND	ND	ND	2.702075397	61.64067665	ND	ND	ND	ND	580.7	0
74848	2018-08-12T15:00:00	35.2	ND	ND	ND	2.256372239	33.54728105	ND	ND	ND	ND	556.3	0
74849	2018-08-12T16:00:00	28.8	ND	ND	ND	2.228515791	38.35376284	ND	ND	ND	ND	426.5	0
74850	2018-08-12T17:00:00	26.4	ND	ND	ND	1.838525528	27.62255656	ND	ND	ND	ND	166.8	0
74851	2018-08-12T18:00:00	21.2	ND	ND	ND	0.807836974	25.44492604	ND	ND	ND	ND	48	0
74852	2018-08-12T19:00:00	31.1	ND	ND	ND	3.4681277	19.30440032	ND	ND	ND	ND	0	0
74853	2018-08-12T20:00:00	29.6	ND	ND	ND	1.699243291	14.67448317	ND	ND	ND	ND	0	0
74854	2018-08-12T21:00:00	27.1	ND	ND	ND	2.423510923	12.37914289	ND	ND	ND	ND	0	0
74855	2018-08-12T22:00:00	23.8	ND	ND	ND	1.699243291	15.7142527	ND	ND	ND	ND	0	0
74856	2018-08-12T23:00:00	19.6	ND	ND	ND	1.072473225	13.34043925	ND	ND	ND	ND	0	0
74857	2018-08-13T00:00:00	10.1	ND	ND	ND	1.295324804	17.06791492	ND	ND	ND	ND	0	0
74858	2018-08-13T01:00:00	9.3	ND	ND	ND	0.849621645	12.98730997	ND	ND	ND	ND	0	0
74859	2018-08-13T02:00:00	20.3	ND	ND	ND	2.897070529	7.611897689	ND	ND	ND	ND	0	0
74860	2018-08-13T03:00:00	46.5	ND	ND	ND	3.718835727	8.573194047	ND	ND	ND	ND	0	0
74861	2018-08-13T04:00:00	48.6	ND	ND	ND	2.507080265	10.22113066	ND	ND	ND	ND	0	0
74862	2018-08-13T05:00:00	43.3	ND	ND	ND	2.18673112	10.92738921	ND	ND	ND	ND	0	0
74863	2018-08-13T06:00:00	40.4	ND	ND	ND	2.56279316	2.256103697	ND	ND	ND	ND	0	0
74864	2018-08-13T07:00:00	63.6	ND	ND	ND	2.729931844	1.785264664	ND	ND	ND	ND	133	0
74865	2018-08-13T08:00:00	76.5	ND	ND	ND	2.214587568	2.923125659	ND	ND	ND	ND	374.4	0
74866	2018-08-13T09:00:00	118.9	ND	ND	ND	4.457031583	3.727475672	ND	ND	ND	ND	592.6	0
74867	2018-08-13T10:00:00	122.5	ND	ND	ND	3.217419674	9.593345283	ND	ND	ND	ND	648.8	0
74868	2018-08-13T11:00:00	80	ND	ND	ND	2.743860068	27.66179315	ND	ND	ND	ND	648.5	0
74869	2018-08-13T12:00:00	76	ND	ND	ND	3.342773687	35.70529328	ND	ND	ND	ND	649.3	0
74870	2018-08-13T13:00:00	73.2	ND	ND	ND	2.381726252	47.94710812	ND	ND	ND	ND	649.4	0
74871	2018-08-13T14:00:00	63.1	ND	ND	ND	1.295324804	78.57126352	ND	ND	ND	ND	649.2	0
74872	2018-08-13T15:00:00	75.2	ND	ND	ND	2.284228686	92.91223571	ND	ND	ND	ND	632.3	0
74873	2018-08-13T16:00:00	61.4	ND	ND	ND	3.287060792	38.31452625	ND	ND	ND	ND	634.7	0
74874	2018-08-13T17:00:00	38	ND	ND	ND	2.813501187	24.11088211	ND	ND	ND	ND	307.7	0
74875	2018-08-13T18:00:00	34.7	ND	ND	ND	3.649194608	17.24447956	ND	ND	ND	ND	113	0
74876	2018-08-13T19:00:00	40.6	ND	ND	ND	2.437439147	11.69250264	ND	ND	ND	ND	0	0
74877	2018-08-13T20:00:00	27	ND	ND	ND	0.919262764	15.61616124	ND	ND	ND	ND	0	0
74878	2018-08-13T21:00:00	29.4	ND	ND	ND	2.284228686	16.34203808	ND	ND	ND	ND	0	0
74879	2018-08-13T22:00:00	19.1	ND	ND	ND	2.03352066	14.0466978	ND	ND	ND	ND	0	0
74880	2018-08-13T23:00:00	16.7	ND	ND	ND	2.381726252	18.50005031	ND	ND	ND	ND	0	0
74881	2018-08-14T00:00:00	16.3	ND	ND	ND	0.710339408	9.338307474	ND	ND	ND	ND	0	0
74882	2018-08-14T01:00:00	24.1	ND	ND	ND	3.09206566	4.10022324	ND	ND	ND	ND	0	0
74883	2018-08-14T02:00:00	40.8	ND	ND	ND	3.95561553	2.746561022	ND	ND	ND	ND	0	0
74884	2018-08-14T03:00:00	28.5	ND	ND	ND	2.966711647	5.610831802	ND	ND	ND	ND	0	0
74885	2018-08-14T04:00:00	11.8	ND	ND	ND	4.275964675	6.925257434	ND	ND	ND	ND	0	3.3
74886	2018-08-14T05:00:00	52.7	ND	ND	ND	2.660290726	1.961829301	ND	ND	ND	ND	0	2.29
74887	2018-08-14T06:00:00	53.6	ND	ND	ND	1.991735988	1.589081734	ND	ND	ND	ND	0	0
74888	2018-08-14T07:00:00	74.6	ND	ND	ND	2.813501187	1.765646371	ND	ND	ND	ND	67.6	0
74889	2018-08-14T08:00:00	83.4	ND	ND	ND	2.03352066	1.746028078	ND	ND	ND	ND	158.8	0
74890	2018-08-14T09:00:00	87.8	ND	ND	ND	1.880310199	2.491523213	ND	ND	ND	ND	476.7	0
74891	2018-08-14T10:00:00	96.3	ND	ND	ND	2.952783423	6.630983038	ND	ND	ND	ND	607.8	0.25
74892	2018-08-14T11:00:00	78.1	ND	ND	ND	2.771716515	10.53502335	ND	ND	ND	ND	584.9	0
74893	2018-08-14T12:00:00	49	ND	ND	ND	2.980639871	23.75775284	ND	ND	ND	ND	648.7	0
74894	2018-08-14T13:00:00	56.2	ND	ND	ND	4.833093622	42.90520682	ND	ND	ND	ND	555.1	0
74895	2018-08-14T14:00:00	56	ND	ND	ND	2.409582699	38.37338113	ND	ND	ND	ND	640.1	0
74896	2018-08-14T15:00:00	45.1	ND	ND	ND	1.002832106	35.82300304	ND	ND	ND	ND	463.6	0
74897	2018-08-14T16:00:00	34.4	ND	ND	ND	3.704907503	14.16440756	ND	ND	ND	ND	320.3	14.73
74898	2018-08-14T17:00:00	21.2	ND	ND	ND	2.729931844	8.082736721	ND	ND	ND	ND	215.1	22.35
74899	2018-08-14T18:00:00	43.7	ND	ND	ND	1.949951317	4.178696412	ND	ND	ND	ND	66.2	0
74900	2018-08-14T19:00:00	56.3	ND	ND	ND	2.103161778	2.569996385	ND	ND	ND	ND	0	0.51
74901	2018-08-14T20:00:00	33.2	ND	ND	ND	2.688147173	1.530226855	ND	ND	ND	ND	0	0.25
74902	2018-08-14T21:00:00	36.6	ND	ND	ND	4.638098491	1.549845148	ND	ND	ND	ND	0	0
74903	2018-08-14T22:00:00	42.6	ND	ND	ND	1.239611909	2.491523213	ND	ND	ND	ND	0	0
74904	2018-08-14T23:00:00	41.2	ND	ND	ND	1.81066908	3.374346398	ND	ND	ND	ND	0	0
74905	2018-08-15T00:00:00	20.1	ND	ND	ND	1.852453752	5.865869611	ND	ND	ND	ND	0	0
74906	2018-08-15T01:00:00	14.3	ND	ND	ND	3.008496318	2.805415901	ND	ND	ND	ND	0	0
74907	2018-08-15T02:00:00	9.7	ND	ND	ND	2.423510923	3.786330552	ND	ND	ND	ND	0	0
74908	2018-08-15T03:00:00	20.7	ND	ND	ND	1.866381975	3.197781761	ND	ND	ND	ND	0	0
74909	2018-08-15T04:00:00	26.7	ND	ND	ND	2.688147173	2.02068418	ND	ND	ND	ND	0	0
74910	2018-08-15T05:00:00	22.7	ND	ND	ND	2.270300462	2.099157352	ND	ND	ND	ND	0	0
74911	2018-08-15T06:00:00	38.1	ND	ND	ND	3.105993884	1.62831832	ND	ND	ND	ND	0	0
74912	2018-08-15T07:00:00	74.7	ND	ND	ND	2.353869805	1.667554906	ND	ND	ND	ND	56.2	0
74913	2018-08-15T08:00:00	89.4	ND	ND	ND	2.743860068	1.785264664	ND	ND	ND	ND	303.2	0
74914	2018-08-15T09:00:00	105.3	ND	ND	ND	3.133850332	2.138393938	ND	ND	ND	ND	411.4	0
74915	2018-08-15T10:00:00	104.8	ND	ND	ND	3.273132568	10.22113066	ND	ND	ND	ND	604.9	0
74916	2018-08-15T11:00:00	99.5	ND	ND	ND	3.356701911	17.95073811	ND	ND	ND	ND	648.3	0
74917	2018-08-15T12:00:00	92.7	ND	ND	ND	2.910998752	39.13849456	ND	ND	ND	ND	649	0
74918	2018-08-15T13:00:00	74.3	ND	ND	ND	1.866381975	42.72864218	ND	ND	ND	ND	648.6	0
74919	2018-08-15T14:00:00	63.7	ND	ND	ND	2.089233554	49.92855572	ND	ND	ND	ND	649.5	0
74920	2018-08-15T15:00:00	60.4	ND	ND	ND	3.760620398	50.57595939	ND	ND	ND	ND	634.2	0
74921	2018-08-15T16:00:00	62.3	ND	ND	ND	1.699243291	40.90414093	ND	ND	ND	ND	518.4	0
74922	2018-08-15T17:00:00	52.8	ND	ND	ND	0.90533454	25.07217847	ND	ND	ND	ND	633	0
74923	2018-08-15T18:00:00	35	ND	ND	ND	2.785644739	16.96982346	ND	ND	ND	ND	222.4	0
74924	2018-08-15T19:00:00	31.4	ND	ND	ND	0.793908751	12.94807339	ND	ND	ND	ND	7.1	0
74925	2018-08-15T20:00:00	26.9	ND	ND	ND	3.57955349	11.81021239	ND	ND	ND	ND	0	0
74926	2018-08-15T21:00:00	24	ND	ND	ND	1.643530396	3.884422017	ND	ND	ND	ND	0	0
74927	2018-08-15T22:00:00	34.2	ND	ND	ND	3.008496318	3.001598831	ND	ND	ND	ND	0	0
74928	2018-08-15T23:00:00	61.3	ND	ND	ND	3.57955349	1.667554906	ND	ND	ND	ND	0	0
74929	2018-08-16T00:00:00	57.1	ND	ND	ND	2.632434278	1.647936613	ND	ND	ND	ND	0	0
74930	2018-08-16T01:00:00	56.6	ND	ND	ND	3.259204345	1.608700027	ND	ND	ND	ND	0	0
74931	2018-08-16T02:00:00	50.5	ND	ND	ND	3.523840595	1.844119543	ND	ND	ND	ND	0	0
74932	2018-08-16T03:00:00	47.8	ND	ND	ND	2.660290726	2.66808785	ND	ND	ND	ND	0	0
74933	2018-08-16T04:00:00	52.4	ND	ND	ND	4.470959806	2.432668334	ND	ND	ND	ND	0	0
74934	2018-08-16T05:00:00	39.1	ND	ND	ND	3.259204345	2.47190492	ND	ND	ND	ND	0	0
74935	2018-08-16T06:00:00	51.6	ND	ND	ND	2.897070529	1.961829301	ND	ND	ND	ND	0	0
74936	2018-08-16T07:00:00	70.5	ND	ND	ND	2.924926976	1.706791492	ND	ND	ND	ND	108.5	0
74937	2018-08-16T08:00:00	85.4	ND	ND	ND	4.721667833	3.080072003	ND	ND	ND	ND	531	0
74938	2018-08-16T09:00:00	117	ND	ND	ND	3.022424542	8.259301359	ND	ND	ND	ND	648.2	0
74939	2018-08-16T10:00:00	139.3	ND	ND	ND	4.972375859	25.93538336	ND	ND	ND	ND	648.9	0
74940	2018-08-16T11:00:00	112.3	ND	ND	ND	4.86095007	53.93068749	ND	ND	ND	ND	648.8	0
74941	2018-08-16T12:00:00	87.8	ND	ND	ND	2.576721384	83.43660018	ND	ND	ND	ND	649	0
74942	2018-08-16T13:00:00	89.4	ND	ND	ND	3.050280989	113.9822824	ND	ND	ND	ND	649.4	0
74943	2018-08-16T14:00:00	108.4	ND	ND	ND	1.880310199	132.7373705	ND	ND	ND	ND	647.9	0
74944	2018-08-16T15:00:00	106.5	ND	ND	ND	1.267468356	105.7622176	ND	ND	ND	ND	513.8	0
74945	2018-08-16T16:00:00	73	ND	ND	ND	2.409582699	53.14595577	ND	ND	ND	ND	521.2	0
74946	2018-08-16T17:00:00	60.9	ND	ND	ND	1.434607041	42.92482511	ND	ND	ND	ND	580.5	0
74947	2018-08-16T18:00:00	45.9	ND	ND	ND	1.991735988	25.73920043	ND	ND	ND	ND	165.6	0
74948	2018-08-16T19:00:00	43.6	ND	ND	ND	2.493152042	19.50058326	ND	ND	ND	ND	0	0
74949	2018-08-16T20:00:00	37.9	ND	ND	ND	3.356701911	12.88921851	ND	ND	ND	ND	0	0
74950	2018-08-16T21:00:00	30.8	ND	ND	ND	2.910998752	14.12517097	ND	ND	ND	ND	0	0
74951	2018-08-16T22:00:00	28.5	ND	ND	ND	2.702075397	12.22219655	ND	ND	ND	ND	0	0
74952	2018-08-16T23:00:00	24.8	ND	ND	ND	1.309253027	8.180828186	ND	ND	ND	ND	0	0
74953	2018-08-17T00:00:00	37.3	ND	ND	ND	3.189563226	4.88495496	ND	ND	ND	ND	0	0
74954	2018-08-17T01:00:00	46	ND	ND	ND	3.175635003	1.902974422	ND	ND	ND	ND	0	0
74955	2018-08-17T02:00:00	59	ND	ND	ND	3.565625266	3.119308589	ND	ND	ND	ND	0	0
74956	2018-08-17T03:00:00	64.7	ND	ND	ND	4.067041319	2.491523213	ND	ND	ND	ND	0	0
74957	2018-08-17T04:00:00	67.4	ND	ND	ND	2.869214081	2.27572199	ND	ND	ND	ND	0	0
74958	2018-08-17T05:00:00	62.6	ND	ND	ND	2.521008489	1.785264664	ND	ND	ND	ND	0	0
74959	2018-08-17T06:00:00	58.2	ND	ND	ND	2.618506055	1.589081734	ND	ND	ND	ND	0	0
74960	2018-08-17T07:00:00	84	ND	ND	ND	2.061377107	2.001065887	ND	ND	ND	ND	94.9	0
74961	2018-08-17T08:00:00	122.6	ND	ND	ND	3.593481713	2.569996385	ND	ND	ND	ND	318.1	0
74962	2018-08-17T09:00:00	147.8	ND	ND	ND	3.607409937	7.435333052	ND	ND	ND	ND	614.4	0
74963	2018-08-17T10:00:00	99.8	ND	ND	ND	2.56279316	14.57639171	ND	ND	ND	ND	648.5	0
74964	2018-08-17T11:00:00	80.2	ND	ND	ND	2.743860068	22.79645648	ND	ND	ND	ND	648.1	0
74965	2018-08-17T12:00:00	80.1	ND	ND	ND	2.423510923	41.78696412	ND	ND	ND	ND	648.5	0
74966	2018-08-17T13:00:00	84.9	ND	ND	ND	2.604577831	51.04679842	ND	ND	ND	ND	648.8	0
74967	2018-08-17T14:00:00	75.3	ND	ND	ND	3.175635003	58.05052903	ND	ND	ND	ND	649	0
74968	2018-08-17T15:00:00	70	ND	ND	ND	2.799572963	66.40792185	ND	ND	ND	ND	649.1	0
74969	2018-08-17T16:00:00	74.1	ND	ND	ND	1.880310199	75.92279396	ND	ND	ND	ND	640.3	0
74970	2018-08-17T17:00:00	88.7	ND	ND	ND	1.601745725	86.71285512	ND	ND	ND	ND	615.2	0
74971	2018-08-17T18:00:00	70.2	ND	ND	ND	1.838525528	30.95766637	ND	ND	ND	ND	149.8	0
74972	2018-08-17T19:00:00	44	ND	ND	ND	2.813501187	12.26143313	ND	ND	ND	ND	5.1	0
74973	2018-08-17T20:00:00	36.3	ND	ND	ND	1.713171515	10.59387823	ND	ND	ND	ND	0	0
74974	2018-08-17T21:00:00	25.4	ND	ND	ND	2.005664212	12.10448679	ND	ND	ND	ND	0	0
74975	2018-08-17T22:00:00	22	ND	ND	ND	2.117090002	10.73120628	ND	ND	ND	ND	0	0
74976	2018-08-17T23:00:00	30.6	ND	ND	ND	2.67421895	2.766179315	ND	ND	ND	ND	0	0
74977	2018-08-18T00:00:00	45.4	ND	ND	ND	2.03352066	12.83036363	ND	ND	ND	ND	0	0
74978	2018-08-18T01:00:00	24.7	ND	ND	ND	2.005664212	11.2216636	ND	ND	ND	ND	0	0
74979	2018-08-18T02:00:00	31.2	ND	ND	ND	3.913830858	2.511141506	ND	ND	ND	ND	0	0
74980	2018-08-18T03:00:00	60.5	ND	ND	ND	3.482055924	4.629917151	ND	ND	ND	ND	0	0
74981	2018-08-18T04:00:00	53.6	ND	ND	ND	2.45136737	5.493122044	ND	ND	ND	ND	0	0
74982	2018-08-18T05:00:00	65.3	ND	ND	ND	2.534936713	7.886553791	ND	ND	ND	ND	0	0
74983	2018-08-18T06:00:00	67.1	ND	ND	ND	0.473559606	4.119841533	ND	ND	ND	ND	0	0
74984	2018-08-18T07:00:00	87.8	ND	ND	ND	2.869214081	2.66808785	ND	ND	ND	ND	94.6	0
74985	2018-08-18T08:00:00	102.4	ND	ND	ND	3.969543753	3.45281957	ND	ND	ND	ND	358.9	0
74986	2018-08-18T09:00:00	123.4	ND	ND	ND	4.136682438	6.572128159	ND	ND	ND	ND	527.1	0
74987	2018-08-18T10:00:00	141.8	ND	ND	ND	4.763452504	13.81127828	ND	ND	ND	ND	638.3	0
74988	2018-08-18T11:00:00	106.4	ND	ND	ND	1.796740857	33.09606031	ND	ND	ND	ND	647.2	0
74989	2018-08-18T12:00:00	78.2	ND	ND	ND	1.420678817	46.29917151	ND	ND	ND	ND	648.5	0
74990	2018-08-18T13:00:00	60.5	ND	ND	ND	1.559961054	50.30130329	ND	ND	ND	ND	648.9	0
74991	2018-08-18T14:00:00	60.5	ND	ND	ND	2.785644739	64.5834206	ND	ND	ND	ND	649.2	0
74992	2018-08-18T15:00:00	66.7	ND	ND	ND	1.504248159	49.65389962	ND	ND	ND	ND	399.1	0
74993	2018-08-18T16:00:00	58.3	ND	ND	ND	3.161706779	26.56316874	ND	ND	ND	ND	349.6	0
74994	2018-08-18T17:00:00	41.2	ND	ND	ND	3.09206566	22.1882894	ND	ND	ND	ND	315.5	0
74995	2018-08-18T18:00:00	26.3	ND	ND	ND	1.615673949	23.44386015	ND	ND	ND	ND	110.1	0
74996	2018-08-18T19:00:00	18.1	ND	ND	ND	2.994568095	15.96929051	ND	ND	ND	ND	4.8	0
74997	2018-08-18T20:00:00	19.6	ND	ND	ND	2.200659344	7.141058657	ND	ND	ND	ND	0	0
74998	2018-08-18T21:00:00	30.6	ND	ND	ND	3.872046187	2.903507366	ND	ND	ND	ND	0	0
74999	2018-08-18T22:00:00	52.8	ND	ND	ND	2.493152042	5.885487904	ND	ND	ND	ND	0	0
75000	2018-08-18T23:00:00	37.6	ND	ND	ND	1.866381975	20.04989546	ND	ND	ND	ND	0	0
75001	2018-08-19T00:00:00	14.2	ND	ND	ND	2.284228686	22.09019793	ND	ND	ND	ND	0	0
75002	2018-08-19T01:00:00	24.8	ND	ND	ND	2.757788292	5.591213509	ND	ND	ND	ND	0	0
75003	2018-08-19T02:00:00	63.3	ND	ND	ND	1.866381975	2.295340283	ND	ND	ND	ND	0	0
75004	2018-08-19T03:00:00	53.8	ND	ND	ND	3.050280989	1.412517097	ND	ND	ND	ND	0	0
75005	2018-08-19T04:00:00	49.2	ND	ND	ND	3.509912371	1.530226855	ND	ND	ND	ND	0	0
75006	2018-08-19T05:00:00	47.6	ND	ND	ND	2.228515791	1.530226855	ND	ND	ND	ND	0	0
75007	2018-08-19T06:00:00	70.8	ND	ND	ND	4.693811385	1.392898804	ND	ND	ND	ND	0	0
75008	2018-08-19T07:00:00	79.5	ND	ND	ND	2.841357634	1.62831832	ND	ND	ND	ND	47.1	0
75009	2018-08-19T08:00:00	86.2	ND	ND	ND	1.462463488	2.373813455	ND	ND	ND	ND	287.8	0
75010	2018-08-19T09:00:00	94.7	ND	ND	ND	4.025256648	6.375945229	ND	ND	ND	ND	561.5	0
75011	2018-08-19T10:00:00	95.5	ND	ND	ND	3.565625266	23.54195162	ND	ND	ND	ND	648.2	0
75012	2018-08-19T11:00:00	80.1	ND	ND	ND	3.050280989	23.54195162	ND	ND	ND	ND	648.6	0
75013	2018-08-19T12:00:00	72.3	ND	ND	ND	3.482055924	32.52712982	ND	ND	ND	ND	648.8	0
75014	2018-08-19T13:00:00	50.8	ND	ND	ND	2.256372239	36.01918597	ND	ND	ND	ND	648.5	0
75015	2018-08-19T14:00:00	34.1	ND	ND	ND	0.863549869	51.87076673	ND	ND	ND	ND	649.1	0
75016	2018-08-19T15:00:00	33.2	ND	ND	ND	1.114257896	65.46624378	ND	ND	ND	ND	648.8	0
75017	2018-08-19T16:00:00	36.9	ND	ND	ND	2.82742941	63.72021571	ND	ND	ND	ND	631.1	0
75018	2018-08-19T17:00:00	39.7	ND	ND	ND	2.465295594	57.32465218	ND	ND	ND	ND	486.2	0
75019	2018-08-19T18:00:00	33	ND	ND	ND	3.147778555	30.29064441	ND	ND	ND	ND	192.2	0
75020	2018-08-19T19:00:00	21.9	ND	ND	ND	1.28139658	25.36645287	ND	ND	ND	ND	4.8	0
75021	2018-08-19T20:00:00	24.1	ND	ND	ND	2.855285858	21.26622963	ND	ND	ND	ND	0	0
75022	2018-08-19T21:00:00	17.1	ND	ND	ND	1.685315067	16.53822101	ND	ND	ND	ND	0	0
75023	2018-08-19T22:00:00	31.4	ND	ND	ND	4.039184872	6.022815955	ND	ND	ND	ND	0	0
75024	2018-08-19T23:00:00	59.6	ND	ND	ND	2.075305331	4.531825686	ND	ND	ND	ND	0	0
75025	2018-08-20T00:00:00	48.2	ND	ND	ND	2.367798028	2.138393938	ND	ND	ND	ND	0	0
75026	2018-08-20T01:00:00	48.6	ND	ND	ND	1.991735988	4.159078119	ND	ND	ND	ND	0	0
75027	2018-08-20T02:00:00	51.7	ND	ND	ND	2.82742941	2.47190492	ND	ND	ND	ND	0	0
75028	2018-08-20T03:00:00	55.5	ND	ND	ND	1.949951317	3.923658603	ND	ND	ND	ND	0	0
75029	2018-08-20T04:00:00	43.2	ND	ND	ND	3.426343029	5.257702528	ND	ND	ND	ND	0	0
75030	2018-08-20T05:00:00	38.7	ND	ND	ND	2.326013357	3.982513482	ND	ND	ND	ND	0	0
75031	2018-08-20T06:00:00	45.1	ND	ND	ND	3.412414805	1.804882957	ND	ND	ND	ND	0	0
75032	2018-08-20T07:00:00	75.9	ND	ND	ND	3.816333293	2.02068418	ND	ND	ND	ND	150.6	0
75033	2018-08-20T08:00:00	82.4	ND	ND	ND	3.440271253	5.316557407	ND	ND	ND	ND	539.4	0
75034	2018-08-20T09:00:00	84.2	ND	ND	ND	2.994568095	19.99104058	ND	ND	ND	ND	648.2	0
75035	2018-08-20T10:00:00	71	ND	ND	ND	2.326013357	42.76787877	ND	ND	ND	ND	648.6	0
75036	2018-08-20T11:00:00	71.7	ND	ND	ND	3.495984148	57.44236194	ND	ND	ND	ND	644.1	0
75037	2018-08-20T12:00:00	58.4	ND	ND	ND	2.729931844	67.32998162	ND	ND	ND	ND	649	0
75038	2018-08-20T13:00:00	67	ND	ND	ND	2.29815691	82.76957822	ND	ND	ND	ND	649.2	0
75039	2018-08-20T14:00:00	63.3	ND	ND	ND	1.768884409	81.04316844	ND	ND	ND	ND	649.4	0
75040	2018-08-20T15:00:00	51.2	ND	ND	ND	3.189563226	70.42967192	ND	ND	ND	ND	554.9	0
75041	2018-08-20T16:00:00	44	ND	ND	ND	2.367798028	50.67405085	ND	ND	ND	ND	600.3	0
75042	2018-08-20T17:00:00	33.2	ND	ND	ND	2.131018225	39.96246287	ND	ND	ND	ND	605.9	0
75043	2018-08-20T18:00:00	26	ND	ND	ND	2.103161778	33.35109812	ND	ND	ND	ND	200.7	0
75044	2018-08-20T19:00:00	25.3	ND	ND	ND	1.54603283	24.79752237	ND	ND	ND	ND	5	0
75045	2018-08-20T20:00:00	27.6	ND	ND	ND	2.897070529	21.40355768	ND	ND	ND	ND	0	0
75046	2018-08-20T21:00:00	21	ND	ND	ND	2.729931844	16.2831832	ND	ND	ND	ND	0	0
75047	2018-08-20T22:00:00	16.2	ND	ND	ND	1.587817501	18.44119543	ND	ND	ND	ND	0	0
75048	2018-08-20T23:00:00	9.3	ND	ND	ND	3.036352766	20.65806254	ND	ND	ND	ND	0	0
75049	2018-08-21T00:00:00	11.3	ND	ND	ND	1.713171515	4.786863495	ND	ND	ND	ND	0	0
75050	2018-08-21T01:00:00	52.2	ND	ND	ND	2.9388552	9.57372699	ND	ND	ND	ND	0	0
75051	2018-08-21T02:00:00	46.5	ND	ND	ND	1.81066908	12.67341729	ND	ND	ND	ND	0	0
75052	2018-08-21T03:00:00	32.7	ND	ND	ND	3.217419674	20.2264601	ND	ND	ND	ND	0	0
75053	2018-08-21T04:00:00	9.5	ND	ND	ND	1.351037698	23.14958576	ND	ND	ND	ND	0	0
75054	2018-08-21T05:00:00	4.1	ND	ND	ND	2.618506055	15.12570391	ND	ND	ND	ND	0	0
75055	2018-08-21T06:00:00	22	ND	ND	ND	1.253540133	5.630450095	ND	ND	ND	ND	0	0
75056	2018-08-21T07:00:00	53.4	ND	ND	ND	1.504248159	2.825034194	ND	ND	ND	ND	176.1	0
75057	2018-08-21T08:00:00	64.4	ND	ND	ND	1.211755462	4.374879342	ND	ND	ND	ND	600.5	0
75058	2018-08-21T09:00:00	105.6	ND	ND	ND	3.119922108	10.33884042	ND	ND	ND	ND	648.3	0
75059	2018-08-21T10:00:00	85	ND	ND	ND	2.660290726	17.55837225	ND	ND	ND	ND	648.6	0
75060	2018-08-21T11:00:00	72.5	ND	ND	ND	3.760620398	36.2349872	ND	ND	ND	ND	641.2	0
75061	2018-08-21T12:00:00	65.8	ND	ND	ND	1.824597304	46.25993493	ND	ND	ND	ND	646.5	0
75062	2018-08-21T13:00:00	52.2	ND	ND	ND	2.604577831	47.96672642	ND	ND	ND	ND	645.8	0
75063	2018-08-21T14:00:00	51.6	ND	ND	ND	1.685315067	58.20747537	ND	ND	ND	ND	649.2	0
75064	2018-08-21T15:00:00	45.2	ND	ND	ND	2.897070529	58.34480342	ND	ND	ND	ND	602.8	0
75065	2018-08-21T16:00:00	48	ND	ND	ND	3.885974411	48.55527521	ND	ND	ND	ND	462.7	0
75066	2018-08-21T17:00:00	44.8	ND	ND	ND	1.727099738	30.70262857	ND	ND	ND	ND	258	0
75067	2018-08-21T18:00:00	53	ND	ND	ND	3.440271253	19.75562106	ND	ND	ND	ND	114.3	0
75068	2018-08-21T19:00:00	40.6	ND	ND	ND	1.908166646	15.61616124	ND	ND	ND	ND	0	0
75069	2018-08-21T20:00:00	26	ND	ND	ND	1.39282237	19.16707227	ND	ND	ND	ND	0	0
75070	2018-08-21T21:00:00	22.1	ND	ND	ND	1.28139658	21.01119182	ND	ND	ND	ND	0	0
75071	2018-08-21T22:00:00	17.4	ND	ND	ND	1.991735988	21.99210647	ND	ND	ND	ND	0	0
75072	2018-08-21T23:00:00	16.2	ND	ND	ND	2.270300462	15.89081734	ND	ND	ND	ND	0	0
75073	2018-08-22T00:00:00	19.8	ND	ND	ND	5.139514544	4.217932998	ND	ND	ND	ND	0	0
75074	2018-08-22T01:00:00	64.9	ND	ND	ND	3.760620398	5.355793993	ND	ND	ND	ND	0	0
75075	2018-08-22T02:00:00	49.3	ND	ND	ND	2.423510923	6.611364745	ND	ND	ND	ND	0	0
75076	2018-08-22T03:00:00	34.8	ND	ND	ND	3.57955349	5.846251318	ND	ND	ND	ND	0	0
75077	2018-08-22T04:00:00	43.1	ND	ND	ND	3.718835727	6.454418401	ND	ND	ND	ND	0	0
75078	2018-08-22T05:00:00	40.7	ND	ND	ND	3.57955349	3.472437863	ND	ND	ND	ND	0	0
75079	2018-08-22T06:00:00	52.7	ND	ND	ND	3.09206566	1.883356129	ND	ND	ND	ND	0	0
75080	2018-08-22T07:00:00	74.2	ND	ND	ND	2.604577831	2.413050041	ND	ND	ND	ND	143.2	0
75081	2018-08-22T08:00:00	95.4	ND	ND	ND	3.328845463	3.90404031	ND	ND	ND	ND	466.3	0
75082	2018-08-22T09:00:00	141.3	ND	ND	ND	2.465295594	17.06791492	ND	ND	ND	ND	648	0
75083	2018-08-22T10:00:00	110.3	ND	ND	ND	1.894238423	34.50857741	ND	ND	ND	ND	648.3	0
75084	2018-08-22T11:00:00	80.9	ND	ND	ND	0.557128948	49.06535083	ND	ND	ND	ND	648.6	0
75085	2018-08-22T12:00:00	60.1	ND	ND	ND	2.56279316	70.78280119	ND	ND	ND	ND	649.5	0
75086	2018-08-22T13:00:00	60.3	ND	ND	ND	2.131018225	82.16141114	ND	ND	ND	ND	649.3	0
75087	2018-08-22T14:00:00	70.6	ND	ND	ND	2.82742941	59.42380954	ND	ND	ND	ND	649.2	0
75088	2018-08-22T15:00:00	44.1	ND	ND	ND	1.852453752	47.06428494	ND	ND	ND	ND	550.7	0
75089	2018-08-22T16:00:00	39.4	ND	ND	ND	2.660290726	38.51070918	ND	ND	ND	ND	604.7	0
75090	2018-08-22T17:00:00	55.9	ND	ND	ND	1.685315067	31.42850541	ND	ND	ND	ND	267.2	0
75091	2018-08-22T18:00:00	34.9	ND	ND	ND	4.025256648	20.44226132	ND	ND	ND	ND	55	0
75092	2018-08-22T19:00:00	44.4	ND	ND	ND	1.838525528	16.30280149	ND	ND	ND	ND	0	0
75093	2018-08-22T20:00:00	37.3	ND	ND	ND	2.339941581	18.08806616	ND	ND	ND	ND	0	0
75094	2018-08-22T21:00:00	22.3	ND	ND	ND	2.771716515	19.3632552	ND	ND	ND	ND	0	0
75095	2018-08-22T22:00:00	15.7	ND	ND	ND	2.493152042	14.65486488	ND	ND	ND	ND	0	0
75096	2018-08-22T23:00:00	27.6	ND	ND	ND	2.437439147	3.884422017	ND	ND	ND	ND	0	0
75097	2018-08-23T00:00:00	58.9	ND	ND	ND	3.078137437	4.4925891	ND	ND	ND	ND	0	0
75098	2018-08-23T01:00:00	58.9	ND	ND	ND	2.061377107	8.926323321	ND	ND	ND	ND	0	0
75099	2018-08-23T02:00:00	32.8	ND	ND	ND	3.342773687	14.08593438	ND	ND	ND	ND	0	0
75100	2018-08-23T03:00:00	20.8	ND	ND	ND	2.604577831	9.57372699	ND	ND	ND	ND	0	0
75101	2018-08-23T04:00:00	42.4	ND	ND	ND	3.175635003	6.101289127	ND	ND	ND	ND	0	0
75102	2018-08-23T05:00:00	52.1	ND	ND	ND	3.927759082	2.177630524	ND	ND	ND	ND	0	0
75103	2018-08-23T06:00:00	69.3	ND	ND	ND	3.370630134	1.942211008	ND	ND	ND	ND	0	0
75104	2018-08-23T07:00:00	88.2	ND	ND	ND	3.147778555	2.177630524	ND	ND	ND	ND	143.4	0
75105	2018-08-23T08:00:00	75.6	ND	ND	ND	3.398486582	4.316024463	ND	ND	ND	ND	554.7	0
75106	2018-08-23T09:00:00	83.1	ND	ND	ND	3.57955349	12.73227217	ND	ND	ND	ND	647.9	0
75107	2018-08-23T10:00:00	92.8	ND	ND	ND	3.830261516	21.50164914	ND	ND	ND	ND	642.4	0
75108	2018-08-23T11:00:00	93.5	ND	ND	ND	2.172802897	40.33521044	ND	ND	ND	ND	644	0
75109	2018-08-23T12:00:00	71.7	ND	ND	ND	1.977807765	60.89518151	ND	ND	ND	ND	649	0
75110	2018-08-23T13:00:00	72	ND	ND	ND	2.785644739	93.02994547	ND	ND	ND	ND	649	0
75111	2018-08-23T14:00:00	80.4	ND	ND	ND	2.493152042	75.74622932	ND	ND	ND	ND	649.1	0
75112	2018-08-23T15:00:00	46.7	ND	ND	ND	1.323181251	35.92109451	ND	ND	ND	ND	648.8	0
75113	2018-08-23T16:00:00	37.3	ND	ND	ND	1.39282237	32.48789323	ND	ND	ND	ND	644.1	0
75114	2018-08-23T17:00:00	47.8	ND	ND	ND	2.45136737	24.4247748	ND	ND	ND	ND	520.5	0
75115	2018-08-23T18:00:00	48.9	ND	ND	ND	1.587817501	16.95020516	ND	ND	ND	ND	155.7	0
75116	2018-08-23T19:00:00	49.2	ND	ND	ND	4.192395332	15.34150514	ND	ND	ND	ND	5.5	0
75117	2018-08-23T20:00:00	30.7	ND	ND	ND	0.947119211	15.93005393	ND	ND	ND	ND	0	0
75118	2018-08-23T21:00:00	22	ND	ND	ND	3.4681277	17.20524297	ND	ND	ND	ND	0	0
75119	2018-08-23T22:00:00	16.5	ND	ND	ND	2.56279316	16.67554906	ND	ND	ND	ND	0	0
75120	2018-08-23T23:00:00	11.3	ND	ND	ND	1.81066908	9.338307474	ND	ND	ND	ND	0	0
75121	2018-08-24T00:00:00	36.9	ND	ND	ND	2.534936713	6.572128159	ND	ND	ND	ND	0	0
75122	2018-08-24T01:00:00	38.9	ND	ND	ND	2.075305331	6.572128159	ND	ND	ND	ND	0	0
75123	2018-08-24T02:00:00	45.3	ND	ND	ND	2.952783423	5.787396439	ND	ND	ND	ND	0	0
75124	2018-08-24T03:00:00	58.3	ND	ND	ND	3.09206566	3.825567138	ND	ND	ND	ND	0	0
75125	2018-08-24T04:00:00	48.9	ND	ND	ND	2.200659344	3.962895189	ND	ND	ND	ND	0	0
75126	2018-08-24T05:00:00	46.9	ND	ND	ND	3.816333293	3.276254933	ND	ND	ND	ND	0	0
75127	2018-08-24T06:00:00	39.6	ND	ND	ND	4.387390464	1.706791492	ND	ND	ND	ND	0	0
75128	2018-08-24T07:00:00	75	ND	ND	ND	3.704907503	1.82450125	ND	ND	ND	ND	95.8	0
75129	2018-08-24T08:00:00	95.2	ND	ND	ND	3.231347897	2.707324436	ND	ND	ND	ND	354.1	0
75130	2018-08-24T09:00:00	101.5	ND	ND	ND	1.65745862	11.43746483	ND	ND	ND	ND	605.4	0
75131	2018-08-24T10:00:00	94.5	ND	ND	ND	ND	143.1350658	ND	ND	ND	ND	648.1	0
75132	2018-08-24T11:00:00	144.4	ND	ND	ND	ND	18.79432471	ND	ND	ND	ND	651.1	0
75133	2018-08-24T12:00:00	146	ND	ND	ND	5.571289478	2.903507366	ND	ND	ND	ND	643.2	0
75134	2018-08-24T13:00:00	93.7	ND	ND	ND	3.593481713	1.098624409	ND	ND	ND	ND	637.9	0
75135	2018-08-24T14:00:00	69.5	ND	ND	ND	2.507080265	1.569463441	ND	ND	ND	ND	651.2	0
75136	2018-08-24T15:00:00	61.1	ND	ND	ND	2.548864936	1.589081734	ND	ND	ND	ND	651.5	0
75137	2018-08-24T16:00:00	58.1	ND	ND	ND	2.534936713	1.255570753	ND	ND	ND	ND	489.5	0
75138	2018-08-24T17:00:00	67.8	ND	ND	ND	1.991735988	ND	ND	ND	ND	ND	586.1	0
75139	2018-08-24T18:00:00	57.5	ND	ND	ND	1.685315067	ND	ND	ND	ND	ND	126	0
75140	2018-08-24T19:00:00	43.5	ND	ND	ND	1.81066908	ND	ND	ND	ND	ND	0	0
75141	2018-08-24T20:00:00	30.7	ND	ND	ND	1.92209487	ND	ND	ND	ND	ND	0	0
75142	2018-08-24T21:00:00	11.7	ND	ND	ND	2.117090002	ND	ND	ND	ND	ND	0	0
75143	2018-08-24T22:00:00	4	ND	ND	ND	1.866381975	ND	ND	ND	ND	ND	0	0
75144	2018-08-24T23:00:00	6.8	ND	ND	ND	3.57955349	ND	ND	ND	ND	ND	0	0
75145	2018-08-25T00:00:00	14.5	ND	ND	ND	1.406750593	ND	ND	ND	ND	ND	0	0
75146	2018-08-25T01:00:00	35.6	ND	ND	ND	2.813501187	ND	ND	ND	ND	ND	0	0
75147	2018-08-25T02:00:00	32.5	ND	ND	ND	4.721667833	ND	ND	ND	ND	ND	0	0
75148	2018-08-25T03:00:00	37.5	ND	ND	ND	2.688147173	ND	ND	ND	ND	ND	0	0
75149	2018-08-25T04:00:00	27.6	ND	ND	ND	2.047448883	ND	ND	ND	ND	ND	0	0
75150	2018-08-25T05:00:00	38.7	ND	ND	ND	3.189563226	ND	ND	ND	ND	ND	0	0
75151	2018-08-25T06:00:00	30.4	ND	ND	ND	2.353869805	ND	ND	ND	ND	ND	0	0
75152	2018-08-25T07:00:00	33.3	ND	ND	ND	4.470959806	ND	ND	ND	ND	ND	104.1	0
75153	2018-08-25T08:00:00	73.7	ND	ND	ND	3.036352766	ND	ND	ND	ND	ND	577.9	0
75154	2018-08-25T09:00:00	105.1	ND	ND	ND	3.259204345	ND	ND	ND	ND	ND	638.3	0
75155	2018-08-25T10:00:00	96.2	ND	ND	ND	3.927759082	ND	ND	ND	ND	ND	646.1	0
75156	2018-08-25T11:00:00	71.5	ND	ND	ND	2.005664212	ND	ND	ND	ND	ND	648.3	0
75157	2018-08-25T12:00:00	80.6	ND	ND	ND	2.855285858	ND	ND	ND	ND	ND	649.6	0
75158	2018-08-25T13:00:00	81.6	ND	ND	ND	2.994568095	ND	ND	ND	ND	ND	650.6	0
75159	2018-08-25T14:00:00	88.2	ND	ND	ND	3.356701911	ND	ND	ND	ND	ND	646.2	0
75160	2018-08-25T15:00:00	83.4	ND	ND	ND	3.036352766	ND	ND	ND	ND	ND	467.3	0
75161	2018-08-25T16:00:00	55.4	ND	ND	ND	2.966711647	ND	ND	ND	ND	ND	422	0
75162	2018-08-25T17:00:00	39.4	ND	ND	ND	2.312085133	ND	ND	ND	ND	ND	470.2	0
75163	2018-08-25T18:00:00	28.2	ND	ND	ND	2.660290726	ND	ND	ND	ND	ND	178.9	0
75164	2018-08-25T19:00:00	24	ND	ND	ND	1.977807765	ND	ND	ND	ND	ND	5.1	0
75165	2018-08-25T20:00:00	14.1	ND	ND	ND	2.29815691	ND	ND	ND	ND	ND	0	0
75166	2018-08-25T21:00:00	8.5	ND	ND	ND	1.963879541	ND	ND	ND	ND	ND	0	0
75167	2018-08-25T22:00:00	9.1	ND	ND	ND	2.688147173	ND	ND	ND	ND	ND	0	0
75168	2018-08-25T23:00:00	7.3	ND	ND	ND	1.462463488	ND	ND	ND	ND	ND	0	0
75169	2018-08-26T00:00:00	6.7	ND	ND	ND	0.654626514	ND	ND	ND	ND	ND	0	0
75170	2018-08-26T01:00:00	9.8	ND	ND	ND	1.685315067	ND	ND	ND	ND	ND	0	0
75171	2018-08-26T02:00:00	45.5	ND	ND	ND	2.409582699	ND	ND	ND	ND	ND	0	0
75172	2018-08-26T03:00:00	53.8	ND	ND	ND	3.4681277	ND	ND	ND	ND	ND	0	0
75173	2018-08-26T04:00:00	59.3	ND	ND	ND	3.802405069	ND	ND	ND	ND	ND	0	0
75174	2018-08-26T05:00:00	57.3	ND	ND	ND	4.986304083	ND	ND	ND	ND	ND	0	0
75175	2018-08-26T06:00:00	62.3	ND	ND	ND	3.287060792	ND	ND	ND	ND	ND	0	0
75176	2018-08-26T07:00:00	80.5	ND	ND	ND	2.799572963	ND	ND	ND	ND	ND	89.8	0
75177	2018-08-26T08:00:00	83.2	ND	ND	ND	3.565625266	ND	ND	ND	ND	ND	219.6	0
75178	2018-08-26T09:00:00	70.1	ND	ND	ND	3.231347897	ND	ND	ND	ND	ND	561.5	0
75179	2018-08-26T10:00:00	83	ND	ND	ND	3.161706779	ND	ND	ND	ND	ND	648.9	0
75180	2018-08-26T11:00:00	73.4	ND	ND	ND	2.395654476	ND	ND	ND	ND	ND	636.3	0
75181	2018-08-26T12:00:00	57.5	ND	ND	ND	2.869214081	ND	ND	ND	ND	ND	640.2	0
75182	2018-08-26T13:00:00	54.8	ND	ND	ND	2.158874673	ND	ND	ND	ND	ND	650.6	0
75183	2018-08-26T14:00:00	45.8	ND	ND	ND	2.799572963	ND	ND	ND	ND	ND	650.8	0
75184	2018-08-26T15:00:00	43	ND	ND	ND	3.064209213	ND	ND	ND	ND	ND	644.8	0
75185	2018-08-26T16:00:00	29	ND	ND	ND	3.133850332	ND	ND	ND	ND	ND	571	0
75186	2018-08-26T17:00:00	29.4	ND	ND	ND	2.089233554	ND	ND	ND	ND	ND	530.7	0
75187	2018-08-26T18:00:00	37	ND	ND	ND	2.395654476	ND	ND	ND	ND	ND	164.3	0
75188	2018-08-26T19:00:00	24.2	ND	ND	ND	2.075305331	ND	ND	ND	ND	ND	0	0
75189	2018-08-26T20:00:00	9.7	ND	ND	ND	3.175635003	ND	ND	ND	ND	ND	0	0
75190	2018-08-26T21:00:00	18.3	ND	ND	ND	1.908166646	ND	ND	ND	ND	ND	0	0
75191	2018-08-26T22:00:00	12	ND	ND	ND	2.688147173	ND	ND	ND	ND	ND	0	0
75192	2018-08-26T23:00:00	11.8	ND	ND	ND	1.977807765	ND	ND	ND	ND	ND	0	0
75193	2018-08-27T00:00:00	8.2	ND	ND	ND	2.493152042	ND	ND	ND	ND	ND	0	0
75194	2018-08-27T01:00:00	7.8	ND	ND	ND	2.270300462	ND	ND	ND	ND	ND	0	0
75195	2018-08-27T02:00:00	8.8	ND	ND	ND	1.963879541	ND	ND	ND	ND	ND	0	0
75196	2018-08-27T03:00:00	20.5	ND	ND	ND	4.094897766	ND	ND	ND	ND	ND	0	0
75197	2018-08-27T04:00:00	31.8	ND	ND	ND	3.287060792	ND	ND	ND	ND	ND	0	0
75198	2018-08-27T05:00:00	30.7	ND	ND	ND	3.885974411	ND	ND	ND	ND	ND	0	0
75199	2018-08-27T06:00:00	51.9	ND	ND	ND	4.86095007	ND	ND	ND	ND	ND	0	0
75200	2018-08-27T07:00:00	47.4	ND	ND	ND	2.716003621	ND	ND	ND	ND	ND	41.4	0
75201	2018-08-27T08:00:00	63.6	ND	ND	ND	3.398486582	ND	ND	ND	ND	ND	366.3	0
75202	2018-08-27T09:00:00	95.1	ND	ND	ND	ND	ND	ND	ND	ND	ND	608.7	0
75203	2018-08-27T10:00:00	90.1	ND	ND	ND	ND	80.63118428	ND	ND	ND	ND	650	0
75204	2018-08-27T11:00:00	66.5	ND	ND	ND	2.910998752	42.6894056	ND	ND	ND	ND	650.5	0
75205	2018-08-27T12:00:00	55.3	ND	ND	ND	2.395654476	50.06588377	ND	ND	ND	ND	650.4	0
75206	2018-08-27T13:00:00	63.9	ND	ND	ND	1.559961054	57.87396439	ND	ND	ND	ND	650.8	0
75207	2018-08-27T14:00:00	65.9	ND	ND	ND	3.384558358	58.59984123	ND	ND	ND	ND	649.2	0
75208	2018-08-27T15:00:00	64.4	ND	ND	ND	3.858117964	63.09243033	ND	ND	ND	ND	651	0
75209	2018-08-27T16:00:00	53.5	ND	ND	ND	1.754956186	53.77374115	ND	ND	ND	ND	643.1	0
75210	2018-08-27T17:00:00	55.6	ND	ND	ND	2.813501187	46.90733859	ND	ND	ND	ND	523.3	0
75211	2018-08-27T18:00:00	34.5	ND	ND	ND	1.949951317	32.27209201	ND	ND	ND	ND	177.6	0
75212	2018-08-27T19:00:00	60	ND	ND	ND	1.741027962	23.81660772	ND	ND	ND	ND	4.5	0
75213	2018-08-27T20:00:00	50	ND	ND	ND	1.518176383	18.69623324	ND	ND	ND	ND	0	0
75214	2018-08-27T21:00:00	30.5	ND	ND	ND	1.936023094	23.05149429	ND	ND	ND	ND	0	0
75215	2018-08-27T22:00:00	18.8	ND	ND	ND	0.5292725	19.24554545	ND	ND	ND	ND	0	0
75216	2018-08-27T23:00:00	22.6	ND	ND	ND	1.378894146	16.04776368	ND	ND	ND	ND	0	0
75217	2018-08-28T00:00:00	24	ND	ND	ND	2.910998752	13.04616485	ND	ND	ND	ND	0	0
75218	2018-08-28T01:00:00	18.4	ND	ND	ND	2.82742941	18.06844787	ND	ND	ND	ND	0	0
75219	2018-08-28T02:00:00	30	ND	ND	ND	3.09206566	5.139992769	ND	ND	ND	ND	0	0
75220	2018-08-28T03:00:00	37.5	ND	ND	ND	1.880310199	8.357392824	ND	ND	ND	ND	0	0
75221	2018-08-28T04:00:00	44.7	ND	ND	ND	2.061377107	11.16280872	ND	ND	ND	ND	0	0
75222	2018-08-28T05:00:00	55	ND	ND	ND	2.312085133	9.495253818	ND	ND	ND	ND	0	0
75223	2018-08-28T06:00:00	61.3	ND	ND	ND	2.256372239	5.963961076	ND	ND	ND	ND	0	0
75224	2018-08-28T07:00:00	61.6	ND	ND	ND	2.423510923	5.434267165	ND	ND	ND	ND	156	0
75225	2018-08-28T08:00:00	87.4	ND	ND	ND	3.495984148	9.240216009	ND	ND	ND	ND	536.6	0
75226	2018-08-28T09:00:00	110.6	ND	ND	ND	2.716003621	18.87279788	ND	ND	ND	ND	647.4	0
75227	2018-08-28T10:00:00	108.9	ND	ND	ND	3.078137437	33.23338836	ND	ND	ND	ND	641.2	0
75228	2018-08-28T11:00:00	92.4	ND	ND	ND	3.300989016	52.63588015	ND	ND	ND	ND	650.1	0
75229	2018-08-28T12:00:00	69.1	ND	ND	ND	3.161706779	67.27112674	ND	ND	ND	ND	650.4	0
75230	2018-08-28T13:00:00	70.1	ND	ND	ND	2.771716515	85.37881119	ND	ND	ND	ND	650.3	0
75231	2018-08-28T14:00:00	82.5	ND	ND	ND	1.713171515	61.44449372	ND	ND	ND	ND	615.8	0
75232	2018-08-28T15:00:00	67.9	ND	ND	ND	1.852453752	53.45984846	ND	ND	ND	ND	622.6	0
75233	2018-08-28T16:00:00	58.3	ND	ND	ND	2.005664212	43.41528244	ND	ND	ND	ND	393	0
75234	2018-08-28T17:00:00	60.6	ND	ND	ND	3.133850332	34.43010424	ND	ND	ND	ND	157.8	0
75235	2018-08-28T18:00:00	45	ND	ND	ND	1.838525528	22.05096135	ND	ND	ND	ND	33.1	0
75236	2018-08-28T19:00:00	36.7	ND	ND	ND	2.158874673	18.40195885	ND	ND	ND	ND	0	0
75237	2018-08-28T20:00:00	16.8	ND	ND	ND	2.18673112	16.16547344	ND	ND	ND	ND	0	0
75238	2018-08-28T21:00:00	22.6	ND	ND	ND	2.284228686	18.65699666	ND	ND	ND	ND	0	0
75239	2018-08-28T22:00:00	42.6	ND	ND	ND	2.423510923	4.335642756	ND	ND	ND	ND	0	0
75240	2018-08-28T23:00:00	35.5	ND	ND	ND	1.476391712	19.77523936	ND	ND	ND	ND	0	0
75241	2018-08-29T00:00:00	31.5	ND	ND	ND	2.256372239	10.90777092	ND	ND	ND	ND	0	0
75242	2018-08-29T01:00:00	57.8	ND	ND	ND	3.941687306	10.02494773	ND	ND	ND	ND	0	0
75243	2018-08-29T02:00:00	51.6	ND	ND	ND	3.370630134	8.926323321	ND	ND	ND	ND	0	0
75244	2018-08-29T03:00:00	39.5	ND	ND	ND	1.894238423	8.023881842	ND	ND	ND	ND	0	0
75245	2018-08-29T04:00:00	42.4	ND	ND	ND	2.465295594	6.003197662	ND	ND	ND	ND	0	0
75246	2018-08-29T05:00:00	59.2	ND	ND	ND	2.548864936	9.456017232	ND	ND	ND	ND	0	0
75247	2018-08-29T06:00:00	47.5	ND	ND	ND	3.551697042	3.629384207	ND	ND	ND	ND	0	0
75248	2018-08-29T07:00:00	76.9	ND	ND	ND	2.172802897	3.943276896	ND	ND	ND	ND	101.7	0
75249	2018-08-29T08:00:00	95.7	ND	ND	ND	3.287060792	5.885487904	ND	ND	ND	ND	399.3	0
75250	2018-08-29T09:00:00	113.2	ND	ND	ND	4.345605793	14.85104781	ND	ND	ND	ND	645.5	0
75251	2018-08-29T10:00:00	107.4	ND	ND	ND	3.913830858	35.48949206	ND	ND	ND	ND	649.1	0
75252	2018-08-29T11:00:00	101.4	ND	ND	ND	2.061377107	58.03091073	ND	ND	ND	ND	649.7	0
75253	2018-08-29T12:00:00	91.3	ND	ND	ND	4.359534017	59.97312174	ND	ND	ND	ND	649.9	0
75254	2018-08-29T13:00:00	64.9	ND	ND	ND	2.604577831	55.61786069	ND	ND	ND	ND	650.5	0
75255	2018-08-29T14:00:00	50.3	ND	ND	ND	3.105993884	65.68204501	ND	ND	ND	ND	609.6	0
75256	2018-08-29T15:00:00	52.4	ND	ND	ND	1.532104607	46.25993493	ND	ND	ND	ND	613.3	0
75257	2018-08-29T16:00:00	44.4	ND	ND	ND	2.005664212	38.92269334	ND	ND	ND	ND	625.7	0
75258	2018-08-29T17:00:00	55	ND	ND	ND	3.342773687	26.54355045	ND	ND	ND	ND	416.2	0
75259	2018-08-29T18:00:00	43.8	ND	ND	ND	1.977807765	17.47989907	ND	ND	ND	ND	124.5	0
75260	2018-08-29T19:00:00	37.4	ND	ND	ND	2.214587568	16.98944175	ND	ND	ND	ND	0	0
75261	2018-08-29T20:00:00	25.1	ND	ND	ND	1.128186119	15.81234417	ND	ND	ND	ND	0	0
75262	2018-08-29T21:00:00	16.8	ND	ND	ND	1.030688553	17.6957003	ND	ND	ND	ND	0	0
75263	2018-08-29T22:00:00	13.9	ND	ND	ND	0.501416053	13.83089657	ND	ND	ND	ND	0	0
75264	2018-08-29T23:00:00	19.5	ND	ND	ND	3.245276121	7.533424517	ND	ND	ND	ND	0	0
75265	2018-08-30T00:00:00	30.3	ND	ND	ND	2.82742941	9.161742837	ND	ND	ND	ND	0	0
75266	2018-08-30T01:00:00	37.4	ND	ND	ND	2.270300462	8.239683066	ND	ND	ND	ND	0	0
75267	2018-08-30T02:00:00	48.4	ND	ND	ND	2.45136737	6.336708643	ND	ND	ND	ND	0	0
75268	2018-08-30T03:00:00	41.8	ND	ND	ND	1.420678817	9.220597716	ND	ND	ND	ND	0	0
75269	2018-08-30T04:00:00	33.7	ND	ND	ND	4.331677569	4.394497635	ND	ND	ND	ND	0	0
75270	2018-08-30T05:00:00	35	ND	ND	ND	3.245276121	5.493122044	ND	ND	ND	ND	0	0
75271	2018-08-30T06:00:00	40.4	ND	ND	ND	4.053113095	3.727475672	ND	ND	ND	ND	0	0
75272	2018-08-30T07:00:00	67.2	ND	ND	ND	2.632434278	3.688239086	ND	ND	ND	ND	90.9	0
75273	2018-08-30T08:00:00	73.9	ND	ND	ND	2.910998752	5.885487904	ND	ND	ND	ND	419.6	0
75274	2018-08-30T09:00:00	92.7	ND	ND	ND	2.576721384	8.651667219	ND	ND	ND	ND	578.6	0
75275	2018-08-30T10:00:00	97	ND	ND	ND	2.45136737	28.46614316	ND	ND	ND	ND	649.3	0
75276	2018-08-30T11:00:00	82.6	ND	ND	ND	3.30	54.95	ND	ND	ND	ND	650.2	0
75277	2018-08-30T12:00:00	100	ND	ND	ND	0.515344277	65.48586208	ND	ND	ND	ND	650.6	0
75278	2018-08-30T13:00:00	75.5	ND	ND	ND	2.743860068	57.22656072	ND	ND	ND	ND	650.6	0
75279	2018-08-30T14:00:00	55	ND	ND	ND	3.482055924	70.21387069	ND	ND	ND	ND	650.8	0
75280	2018-08-30T15:00:00	62.4	ND	ND	ND	2.144946449	63.13166692	ND	ND	ND	ND	622.3	0
75281	2018-08-30T16:00:00	53.6	ND	ND	ND	1.476391712	45.73024101	ND	ND	ND	ND	537.2	0
75282	2018-08-30T17:00:00	57.7	ND	ND	ND	1.81066908	38.43223601	ND	ND	ND	ND	551	0
75283	2018-08-30T18:00:00	57.3	ND	ND	ND	2.924926976	32.60560299	ND	ND	ND	ND	160.7	0
75284	2018-08-30T19:00:00	42	ND	ND	ND	0.710339408	24.1501187	ND	ND	ND	ND	0	0
75285	2018-08-30T20:00:00	20.9	ND	ND	ND	1.908166646	18.69623324	ND	ND	ND	ND	0	0
75286	2018-08-30T21:00:00	25.3	ND	ND	ND	2.67421895	19.77523936	ND	ND	ND	ND	0	0
75287	2018-08-30T22:00:00	23	ND	ND	ND	2.381726252	8.278919652	ND	ND	ND	ND	0	0
75288	2018-08-30T23:00:00	26.6	ND	ND	ND	2.200659344	17.59760883	ND	ND	ND	ND	0	0
75289	2018-08-31T00:00:00	23	ND	ND	ND	0.598913619	7.141058657	ND	ND	ND	ND	0	0
75290	2018-08-31T01:00:00	40.9	ND	ND	ND	3.105993884	4.629917151	ND	ND	ND	ND	0	0
75291	2018-08-31T02:00:00	35.5	ND	ND	ND	2.869214081	5.473503751	ND	ND	ND	ND	0	0
75292	2018-08-31T03:00:00	38.4	ND	ND	ND	2.632434278	7.729607447	ND	ND	ND	ND	0	0
75293	2018-08-31T04:00:00	52.2	ND	ND	ND	4.011328424	7.180295243	ND	ND	ND	ND	0	0
75294	2018-08-31T05:00:00	62	ND	ND	ND	2.813501187	6.454418401	ND	ND	ND	ND	0	0
75295	2018-08-31T06:00:00	72.8	ND	ND	ND	2.743860068	2.785797608	ND	ND	ND	ND	0	0
75296	2018-08-31T07:00:00	83.9	ND	ND	ND	2.924926976	4.217932998	ND	ND	ND	ND	82.8	0
75297	2018-08-31T08:00:00	90.5	ND	ND	ND	3.454199477	5.787396439	ND	ND	ND	ND	291.5	0
75298	2018-08-31T09:00:00	103	ND	ND	ND	1.225683685	16.63631248	ND	ND	ND	ND	579.4	0
75299	2018-08-31T10:00:00	94.2	ND	ND	ND	1.852453752	31.29117736	ND	ND	ND	ND	649.5	0
75300	2018-08-31T11:00:00	88.4	ND	ND	ND	1.518176383	45.37711174	ND	ND	ND	ND	649.9	0
75301	2018-08-31T12:00:00	80.1	ND	ND	ND	2.465295594	56.57915705	ND	ND	ND	ND	640.9	0
75302	2018-08-31T13:00:00	89.5	ND	ND	ND	3.718835727	61.56220348	ND	ND	ND	ND	639.8	0
75303	2018-08-31T14:00:00	61.2	ND	ND	ND	2.144946449	45.71062272	ND	ND	ND	ND	606	0
75304	2018-08-31T15:00:00	38.9	ND	ND	ND	2.29815691	38.60880065	ND	ND	ND	ND	649.8	0
75305	2018-08-31T16:00:00	36	ND	ND	ND	1.434607041	33.9788835	ND	ND	ND	ND	632.3	0
75306	2018-08-31T17:00:00	54.5	ND	ND	ND	0.807836974	26.26889434	ND	ND	ND	ND	480.9	0
75307	2018-08-31T18:00:00	37.8	ND	ND	ND	2.924926976	20.26569668	ND	ND	ND	ND	186.2	0
75308	2018-08-31T19:00:00	40.2	ND	ND	ND	0.724267632	16.77364053	ND	ND	ND	ND	0	0
75309	2018-08-31T20:00:00	22.7	ND	ND	ND	1.81066908	17.59760883	ND	ND	ND	ND	0	0
75310	2018-08-31T21:00:00	17.8	ND	ND	ND	2.144946449	13.14425632	ND	ND	ND	ND	0	0
75311	2018-08-31T22:00:00	25.2	ND	ND	ND	1.741027962	21.46241256	ND	ND	ND	ND	0	0
75312	2018-08-31T23:00:00	11.5	ND	ND	ND	1.476391712	20.16760522	ND	ND	ND	ND	0	0
75313	2018-09-01T00:00:00	19.2	ND	ND	ND	3.175635003	6.51327328	ND	ND	ND	ND	0	0
75314	2018-09-01T01:00:00	30.6	ND	ND	ND	3.941687306	5.7	ND	ND	ND	ND	0	0
75315	2018-09-01T02:00:00	33	ND	ND	ND	2.075305331	6.8	ND	ND	ND	ND	0	0
75316	2018-09-01T03:00:00	37.6	ND	ND	ND	2.270300462	8.8	ND	ND	ND	ND	0	0
75317	2018-09-01T04:00:00	35.6	ND	ND	ND	3.328845463	8.2	ND	ND	ND	ND	0	0
75318	2018-09-01T05:00:00	34.5	ND	ND	ND	2.437439147	6.7	ND	ND	ND	ND	0	0
75319	2018-09-01T06:00:00	49.4	ND	ND	ND	3.621338161	4.3	ND	ND	ND	ND	0	0
75320	2018-09-01T07:00:00	63.5	ND	ND	ND	3.050280989	5.5	ND	ND	ND	ND	167.7	0
75321	2018-09-01T08:00:00	60.9	ND	ND	ND	1.936023094	8.7	ND	ND	ND	ND	492.7	0
75322	2018-09-01T09:00:00	91.1	ND	ND	ND	2.353869805	16.7	ND	ND	ND	ND	519.8	0
75323	2018-09-01T10:00:00	99.7	ND	ND	ND	3.523840595	21.6	ND	ND	ND	ND	649.2	0
75324	2018-09-01T11:00:00	80.6	ND	ND	ND	2.56279316	30.3	ND	ND	ND	ND	650.1	0
75325	2018-09-01T12:00:00	75.9	ND	ND	ND	3.342773687	48.4	ND	ND	ND	ND	650.3	0
75326	2018-09-01T13:00:00	65.5	ND	ND	ND	1.211755462	55.3	ND	ND	ND	ND	593.9	0
75327	2018-09-01T14:00:00	45.3	ND	ND	ND	2.089233554	28.1	ND	ND	ND	ND	635.9	0
75328	2018-09-01T15:00:00	36.8	ND	ND	ND	2.548864936	28.8	ND	ND	ND	ND	638.8	0
75329	2018-09-01T16:00:00	45.5	ND	ND	ND	1.991735988	26.3	ND	ND	ND	ND	627.3	0
75330	2018-09-01T17:00:00	44.1	ND	ND	ND	1.114257896	27.1	ND	ND	ND	ND	629.2	0
75331	2018-09-01T18:00:00	28.9	ND	ND	ND	2.479223818	27.1	ND	ND	ND	ND	250.4	0
75332	2018-09-01T19:00:00	33.1	ND	ND	ND	0.891406317	23.3	ND	ND	ND	ND	5	0
75333	2018-09-01T20:00:00	19.3	ND	ND	ND	2.952783423	21.0	ND	ND	ND	ND	0	0
75334	2018-09-01T21:00:00	13.5	ND	ND	ND	4.192395332	21.1	ND	ND	ND	ND	0	0
75335	2018-09-01T22:00:00	13.6	ND	ND	ND	2.869214081	18.4	ND	ND	ND	ND	0	0
75336	2018-09-01T23:00:00	18.7	ND	ND	ND	2.061377107	7.4	ND	ND	ND	ND	0	0
75337	2018-09-02T00:00:00	49.5	ND	ND	ND	0.696411185	4.5	ND	ND	ND	ND	0	0
75338	2018-09-02T01:00:00	54.8	ND	ND	ND	1.768884409	4.4	ND	ND	ND	ND	0	0
75339	2018-09-02T02:00:00	46.3	ND	ND	ND	4.763452504	4.8	ND	ND	ND	ND	0	0
75340	2018-09-02T03:00:00	44.2	ND	ND	ND	2.813501187	5.8	ND	ND	ND	ND	0	0
75341	2018-09-02T04:00:00	45.6	ND	ND	ND	3.482055924	4.4	ND	ND	ND	ND	0	0
75342	2018-09-02T05:00:00	51.7	ND	ND	ND	4.10882599	3.9	ND	ND	ND	ND	0	0
75343	2018-09-02T06:00:00	60.9	ND	ND	ND	2.521008489	4.2	ND	ND	ND	ND	0	0
75344	2018-09-02T07:00:00	61.7	ND	ND	ND	3.370630134	5.0	ND	ND	ND	ND	95.3	0
75345	2018-09-02T08:00:00	58.3	ND	ND	ND	2.883142305	11.9	ND	ND	ND	ND	404	0
75346	2018-09-02T09:00:00	51.8	ND	ND	ND	2.813501187	22.6	ND	ND	ND	ND	649.2	0
75347	2018-09-02T10:00:00	62	ND	ND	ND	1.65745862	36.5	ND	ND	ND	ND	623.3	0
75348	2018-09-02T11:00:00	63.3	ND	ND	ND	2.534936713	52.3	ND	ND	ND	ND	637.5	0
75349	2018-09-02T12:00:00	59	ND	ND	ND	2.214587568	67.8	ND	ND	ND	ND	650.2	0
75350	2018-09-02T13:00:00	63.3	ND	ND	ND	1.65745862	77.9	ND	ND	ND	ND	642.3	0
75351	2018-09-02T14:00:00	67.7	ND	ND	ND	3.356701911	84.0	ND	ND	ND	ND	650.8	0
75352	2018-09-02T15:00:00	45.9	ND	ND	ND	2.103161778	39.6	ND	ND	ND	ND	620.1	0
75353	2018-09-02T16:00:00	24.9	ND	ND	ND	2.423510923	35.4	ND	ND	ND	ND	563.1	0
75354	2018-09-02T17:00:00	18.8	ND	ND	ND	1.852453752	31.2	ND	ND	ND	ND	564	0
75355	2018-09-02T18:00:00	21.4	ND	ND	ND	1.573889278	25.9	ND	ND	ND	ND	162.4	0
75356	2018-09-02T19:00:00	23.4	ND	ND	ND	1.337109475	23.3	ND	ND	ND	ND	0	0
75357	2018-09-02T20:00:00	15.5	ND	ND	ND	2.172802897	22.1	ND	ND	ND	ND	0	0
75358	2018-09-02T21:00:00	19.7	ND	ND	ND	3.370630134	20.8	ND	ND	ND	ND	0	0
75359	2018-09-02T22:00:00	35.4	ND	ND	ND	1.337109475	16.3	ND	ND	ND	ND	0	0
75360	2018-09-02T23:00:00	28.6	ND	ND	ND	1.852453752	15.4	ND	ND	ND	ND	0	0
75361	2018-09-03T00:00:00	24.6	ND	ND	ND	3.885974411	15.3	ND	ND	ND	ND	0	0
75362	2018-09-03T01:00:00	15	ND	ND	ND	2.061377107	14.0	ND	ND	ND	ND	0	0
75363	2018-09-03T02:00:00	24.4	ND	ND	ND	3.412414805	9.8	ND	ND	ND	ND	0	0
75364	2018-09-03T03:00:00	28.7	ND	ND	ND	1.824597304	9.7	ND	ND	ND	ND	0	0
75365	2018-09-03T04:00:00	40.7	ND	ND	ND	2.869214081	17.9	ND	ND	ND	ND	0	0
75366	2018-09-03T05:00:00	31.4	ND	ND	ND	3.217419674	14.0	ND	ND	ND	ND	0	0
75367	2018-09-03T06:00:00	31.8	ND	ND	ND	3.384558358	8.3	ND	ND	ND	ND	0	0
75368	2018-09-03T07:00:00	56.8	ND	ND	ND	3.551697042	5.9	ND	ND	ND	ND	210.7	0
75369	2018-09-03T08:00:00	52.7	ND	ND	ND	2.29815691	10.9	ND	ND	ND	ND	578.6	0
75370	2018-09-03T09:00:00	65.7	ND	ND	ND	3.105993884	23.3	ND	ND	ND	ND	622.1	0
75371	2018-09-03T10:00:00	89.9	ND	ND	ND	2.395654476	30.5	ND	ND	ND	ND	648.2	0
75372	2018-09-03T11:00:00	71.4	ND	ND	ND	1.197827238	44.7	ND	ND	ND	ND	649.9	0
75373	2018-09-03T12:00:00	60.4	ND	ND	ND	2.242444015	54.4	ND	ND	ND	ND	649.6	0
75374	2018-09-03T13:00:00	52.2	ND	ND	ND	0.668554737	67.7	ND	ND	ND	ND	647.4	0
75375	2018-09-03T14:00:00	62.7	ND	ND	ND	0.738195856	62.3	ND	ND	ND	ND	640.3	0
75376	2018-09-03T15:00:00	61.1	ND	ND	ND	1.030688553	60.1	ND	ND	ND	ND	646.5	0
75377	2018-09-03T16:00:00	47.8	ND	ND	ND	1.462463488	47.4	ND	ND	ND	ND	542.2	0
75378	2018-09-03T17:00:00	35.7	ND	ND	ND	2.521008489	31.5	ND	ND	ND	ND	271	0
75379	2018-09-03T18:00:00	19.9	ND	ND	ND	0.75212408	27.0	ND	ND	ND	ND	108.3	0
75380	2018-09-03T19:00:00	ND	ND	ND	ND	ND	ND	ND	ND	ND	ND	ND	ND
75381	2018-09-03T20:00:00	26.5	ND	ND	ND	3.064209213	26.9	ND	ND	ND	ND	0	0
75382	2018-09-03T21:00:00	19.4	ND	ND	ND	2.479223818	30.1	ND	ND	ND	ND	0	0
75383	2018-09-03T22:00:00	11	ND	ND	ND	2.047448883	30.0	ND	ND	ND	ND	0	0
75384	2018-09-03T23:00:00	27.7	ND	ND	ND	2.005664212	33.3	ND	ND	ND	ND	0	0
75385	2018-09-04T00:00:00	21	ND	ND	ND	2.047448883	27.0	ND	ND	ND	ND	0	0
75386	2018-09-04T01:00:00	49	ND	ND	ND	2.465295594	16.3	ND	ND	ND	ND	0	0
75387	2018-09-04T02:00:00	60.2	ND	ND	ND	3.09206566	16.4	ND	ND	ND	ND	0	0
75388	2018-09-04T03:00:00	61.6	ND	ND	ND	3.649194608	18.5	ND	ND	ND	ND	0	0
75389	2018-09-04T04:00:00	48.8	ND	ND	ND	3.064209213	17.9	ND	ND	ND	ND	0	0
75390	2018-09-04T05:00:00	42.5	ND	ND	ND	2.632434278	4.9	ND	ND	ND	ND	0	0
75391	2018-09-04T06:00:00	46	ND	ND	ND	3.57955349	2.3	ND	ND	ND	ND	0	0
75392	2018-09-04T07:00:00	62.4	ND	ND	ND	3.050280989	0.8	ND	ND	ND	ND	70.6	0
75393	2018-09-04T08:00:00	106.3	ND	ND	ND	3.95561553	2.3	ND	ND	ND	ND	287.8	0
75394	2018-09-04T09:00:00	102.4	ND	ND	ND	3.328845463	9.8	ND	ND	ND	ND	608.9	0
75395	2018-09-04T10:00:00	83.8	ND	ND	ND	2.618506055	28.2	ND	ND	ND	ND	649.2	0
75396	2018-09-04T11:00:00	88.3	ND	ND	ND	1.991735988	46.9	ND	ND	ND	ND	650	0
75397	2018-09-04T12:00:00	88.9	ND	ND	ND	1.92209487	72.4	ND	ND	ND	ND	650	0
75398	2018-09-04T13:00:00	83.1	ND	ND	ND	3.941687306	73.7	ND	ND	ND	ND	650.6	0
75399	2018-09-04T14:00:00	67.7	ND	ND	ND	1.615673949	69.4	ND	ND	ND	ND	651.2	0
75400	2018-09-04T15:00:00	70.5	ND	ND	ND	3.774548621	84.1	ND	ND	ND	ND	615.8	0
75401	2018-09-04T16:00:00	62.1	ND	ND	ND	1.211755462	59.6	ND	ND	ND	ND	610.5	0
75402	2018-09-04T17:00:00	48.7	ND	ND	ND	1.128186119	39.9	ND	ND	ND	ND	429.8	0
75403	2018-09-04T18:00:00	38.2	ND	ND	ND	2.521008489	23.5	ND	ND	ND	ND	106.3	0
75404	2018-09-04T19:00:00	28.9	ND	ND	ND	1.448535264	20.4	ND	ND	ND	ND	0	0
75405	2018-09-04T20:00:00	25.6	ND	ND	ND	1.629602172	21.3	ND	ND	ND	ND	0	0
75406	2018-09-04T21:00:00	19.4	ND	ND	ND	1.532104607	22.0	ND	ND	ND	ND	0	0
75407	2018-09-04T22:00:00	18.3	ND	ND	ND	2.590649607	14.4	ND	ND	ND	ND	0	0
75408	2018-09-04T23:00:00	30.2	ND	ND	ND	1.351037698	15.5	ND	ND	ND	ND	0	0
75409	2018-09-05T00:00:00	23.7	ND	ND	ND	2.841357634	18.2	ND	ND	ND	ND	0	0
75410	2018-09-05T01:00:00	11.4	ND	ND	ND	1.643530396	11.4	ND	ND	ND	ND	0	0
75411	2018-09-05T02:00:00	20.4	ND	ND	ND	2.82742941	8.6	ND	ND	ND	ND	0	0
75412	2018-09-05T03:00:00	22.5	ND	ND	ND	4.457031583	9.2	ND	ND	ND	ND	0	0
75413	2018-09-05T04:00:00	22	ND	ND	ND	2.214587568	10.6	ND	ND	ND	ND	0	0
75414	2018-09-05T05:00:00	16.8	ND	ND	ND	3.95561553	4.5	ND	ND	ND	ND	0	0
75415	2018-09-05T06:00:00	22.8	ND	ND	ND	2.966711647	1.2	ND	ND	ND	ND	0	0
75416	2018-09-05T07:00:00	36.5	ND	ND	ND	3.119922108	ND	ND	ND	ND	ND	45.2	0
75417	2018-09-05T08:00:00	44.7	ND	ND	ND	3.885974411	3.9	ND	ND	ND	ND	280.3	0
75418	2018-09-05T09:00:00	46.5	ND	ND	ND	4.094897766	9.5	ND	ND	ND	ND	556.5	0
75419	2018-09-05T10:00:00	59.4	ND	ND	ND	3.872046187	21.9	ND	ND	ND	ND	648.9	0
75420	2018-09-05T11:00:00	72.9	ND	ND	ND	3.300989016	39.6	ND	ND	ND	ND	649.5	0
75421	2018-09-05T12:00:00	74.3	ND	ND	ND	3.774548621	36.5	ND	ND	ND	ND	647.4	0
75422	2018-09-05T13:00:00	67.8	ND	ND	ND	2.423510923	39.7	ND	ND	ND	ND	650.5	0
75423	2018-09-05T14:00:00	52.6	ND	ND	ND	1.573889278	50.3	ND	ND	ND	ND	650.5	0
75424	2018-09-05T15:00:00	44.1	ND	ND	ND	3.300989016	64.2	ND	ND	ND	ND	634	0
75425	2018-09-05T16:00:00	63.1	ND	ND	ND	2.214587568	44.6	ND	ND	ND	ND	372.1	0
75426	2018-09-05T17:00:00	45.3	ND	ND	ND	1.490319935	28.3	ND	ND	ND	ND	259.1	0
75427	2018-09-05T18:00:00	36.2	ND	ND	ND	2.047448883	23.6	ND	ND	ND	ND	93	0
75428	2018-09-05T19:00:00	41.7	ND	ND	ND	1.518176383	22.6	ND	ND	ND	ND	0	0
75429	2018-09-05T20:00:00	25.6	ND	ND	ND	2.228515791	16.4	ND	ND	ND	ND	0	0
75430	2018-09-05T21:00:00	20.6	ND	ND	ND	1.39282237	14.3	ND	ND	ND	ND	0	0
75431	2018-09-05T22:00:00	22.9	ND	ND	ND	2.03352066	13.5	ND	ND	ND	ND	0	0
75432	2018-09-05T23:00:00	34.2	ND	ND	ND	2.479223818	6.9	ND	ND	ND	ND	0.1	0
75433	2018-09-06T00:00:00	31.5	ND	ND	ND	1.573889278	10.9	ND	ND	ND	ND	0.1	0
75434	2018-09-06T01:00:00	33.6	ND	ND	ND	1.504248159	8.0	ND	ND	ND	ND	0.1	0
75435	2018-09-06T02:00:00	42.2	ND	ND	ND	3.147778555	8.4	ND	ND	ND	ND	0.1	0
75436	2018-09-06T03:00:00	40.4	ND	ND	ND	3.300989016	7.2	ND	ND	ND	ND	0.1	0
75437	2018-09-06T04:00:00	49.1	ND	ND	ND	3.941687306	7.0	ND	ND	ND	ND	0.1	0
75438	2018-09-06T05:00:00	53.2	ND	ND	ND	2.841357634	4.7	ND	ND	ND	ND	0	0
75439	2018-09-06T06:00:00	44.4	ND	ND	ND	3.649194608	2.1	ND	ND	ND	ND	0	0
75440	2018-09-06T07:00:00	55.9	ND	ND	ND	3.454199477	2.2	ND	ND	ND	ND	92.1	0
75441	2018-09-06T08:00:00	82.6	ND	ND	ND	2.576721384	4.8	ND	ND	ND	ND	560.6	0
75442	2018-09-06T09:00:00	96.7	ND	ND	ND	3.95561553	15.7	ND	ND	ND	ND	648.3	0
75443	2018-09-06T10:00:00	90.9	ND	ND	ND	2.019592436	35.4	ND	ND	ND	ND	648.9	0
75444	2018-09-06T11:00:00	84	ND	ND	ND	1.002832106	45.3	ND	ND	ND	ND	650.1	0
75445	2018-09-06T12:00:00	69.4	ND	ND	ND	1.65745862	55.1	ND	ND	ND	ND	631.7	0
75446	2018-09-06T13:00:00	60.4	ND	ND	ND	1.963879541	59.0	ND	ND	ND	ND	645.4	0
75447	2018-09-06T14:00:00	55.3	ND	ND	ND	3.454199477	53.8	ND	ND	ND	ND	650.6	0
75448	2018-09-06T15:00:00	51.5	ND	ND	ND	2.646362502	53.4	ND	ND	ND	ND	597	0
75449	2018-09-06T16:00:00	56.4	ND	ND	ND	1.239611909	41.9	ND	ND	ND	ND	636.7	0
75450	2018-09-06T17:00:00	51.8	ND	ND	ND	2.131018225	33.2	ND	ND	ND	ND	294.3	0
75451	2018-09-06T18:00:00	36.9	ND	ND	ND	1.420678817	26.0	ND	ND	ND	ND	67.8	0
75452	2018-09-06T19:00:00	25.4	ND	ND	ND	1.713171515	20.0	ND	ND	ND	ND	0	0
75453	2018-09-06T20:00:00	21.7	ND	ND	ND	2.493152042	25.6	ND	ND	ND	ND	0	0
75454	2018-09-06T21:00:00	21.8	ND	ND	ND	3.342773687	27.7	ND	ND	ND	ND	0	0
75455	2018-09-06T22:00:00	28.2	ND	ND	ND	2.799572963	7.4	ND	ND	ND	ND	0	0
75456	2018-09-06T23:00:00	25.9	ND	ND	ND	0.988903882	19.0	ND	ND	ND	ND	0	0
75457	2018-09-07T00:00:00	16.6	ND	ND	ND	2.047448883	16.8	ND	ND	ND	ND	0	0
75458	2018-09-07T01:00:00	20.4	ND	ND	ND	2.910998752	7.7	ND	ND	ND	ND	0	0
75459	2018-09-07T02:00:00	32.2	ND	ND	ND	2.521008489	7.9	ND	ND	ND	ND	0	0
75460	2018-09-07T03:00:00	34.4	ND	ND	ND	3.133850332	8.9	ND	ND	ND	ND	0	0
75461	2018-09-07T04:00:00	36.1	ND	ND	ND	2.883142305	7.1	ND	ND	ND	ND	0	0
75462	2018-09-07T05:00:00	35.1	ND	ND	ND	4.192395332	2.9	ND	ND	ND	ND	0	0
75463	2018-09-07T06:00:00	46.1	ND	ND	ND	3.328845463	0.7	ND	ND	ND	ND	0	0
75464	2018-09-07T07:00:00	60.4	ND	ND	ND	3.760620398	0.4	ND	ND	ND	ND	49.9	0
75465	2018-09-07T08:00:00	76.1	ND	ND	ND	2.29815691	1.5	ND	ND	ND	ND	217.1	0
75466	2018-09-07T09:00:00	94.7	ND	ND	ND	1.977807765	6.7	ND	ND	ND	ND	580.7	0
75467	2018-09-07T10:00:00	84.4	ND	ND	ND	2.131018225	18.0	ND	ND	ND	ND	649.1	0
75468	2018-09-07T11:00:00	80.5	ND	ND	ND	2.688147173	24.1	ND	ND	ND	ND	563.4	0
75469	2018-09-07T12:00:00	63.4	ND	ND	ND	2.172802897	20.4	ND	ND	ND	ND	649.4	0
75470	2018-09-07T13:00:00	53.1	ND	ND	ND	0.919262764	22.6	ND	ND	ND	ND	649.4	0
75471	2018-09-07T14:00:00	32.7	ND	ND	ND	1.713171515	30.2	ND	ND	ND	ND	429.8	0
75472	2018-09-07T15:00:00	27.4	ND	ND	ND	4.248108227	22.6	ND	ND	ND	ND	606	0
75473	2018-09-07T16:00:00	16.3	ND	ND	ND	1.949951317	26.5	ND	ND	ND	ND	638.3	0
75474	2018-09-07T17:00:00	27.5	ND	ND	ND	1.378894146	22.0	ND	ND	ND	ND	548.7	0
75475	2018-09-07T18:00:00	27.6	ND	ND	ND	3.259204345	15.7	ND	ND	ND	ND	149.9	0
75476	2018-09-07T19:00:00	27.3	ND	ND	ND	1.615673949	11.0	ND	ND	ND	ND	0	0
75477	2018-09-07T20:00:00	14.4	ND	ND	ND	2.103161778	4.5	ND	ND	ND	ND	0	0
75478	2018-09-07T21:00:00	29.1	ND	ND	ND	2.465295594	5.0	ND	ND	ND	ND	0	0
75479	2018-09-07T22:00:00	27.3	ND	ND	ND	3.287060792	4.7	ND	ND	ND	ND	0	0
75480	2018-09-07T23:00:00	47.6	ND	ND	ND	2.381726252	2.7	ND	ND	ND	ND	0	0
75481	2018-09-08T00:00:00	56.1	ND	ND	ND	1.782812633	6.8	ND	ND	ND	ND	0	0
75482	2018-09-08T01:00:00	45.3	ND	ND	ND	3.788476845	1.0	ND	ND	ND	ND	0	0
75483	2018-09-08T02:00:00	53.9	ND	ND	ND	4.345605793	1.0	ND	ND	ND	ND	0	0
75484	2018-09-08T03:00:00	44.6	ND	ND	ND	3.20349145	1.8	ND	ND	ND	ND	0	0
75485	2018-09-08T04:00:00	43.7	ND	ND	ND	3.718835727	1.5	ND	ND	ND	ND	0	0
75486	2018-09-08T05:00:00	30.5	ND	ND	ND	2.548864936	1.7	ND	ND	ND	ND	0	0
75487	2018-09-08T06:00:00	47.2	ND	ND	ND	2.632434278	ND	ND	ND	ND	ND	0	0
75488	2018-09-08T07:00:00	50.9	ND	ND	ND	1.713171515	1.0	ND	ND	ND	ND	66.5	0
75489	2018-09-08T08:00:00	54.2	ND	ND	ND	2.200659344	3.6	ND	ND	ND	ND	381.5	0
75490	2018-09-08T09:00:00	80	ND	ND	ND	2.660290726	12.1	ND	ND	ND	ND	610	0
75491	2018-09-08T10:00:00	79.3	ND	ND	ND	1.713171515	30.8	ND	ND	ND	ND	631.8	0
75492	2018-09-08T11:00:00	92	ND	ND	ND	2.966711647	42.4	ND	ND	ND	ND	650.1	0
75493	2018-09-08T12:00:00	92.4	ND	ND	ND	3.816333293	54.0	ND	ND	ND	ND	649.8	0
75494	2018-09-08T13:00:00	92.5	ND	ND	ND	2.200659344	72.0	ND	ND	ND	ND	650.4	0
75495	2018-09-08T14:00:00	85.1	ND	ND	ND	1.699243291	72.8	ND	ND	ND	ND	650.1	0
75496	2018-09-08T15:00:00	86.8	ND	ND	ND	2.367798028	55.9	ND	ND	ND	ND	623.7	0
75497	2018-09-08T16:00:00	72.7	ND	ND	ND	1.782812633	47.7	ND	ND	ND	ND	478.5	0
75498	2018-09-08T17:00:00	72.5	ND	ND	ND	2.507080265	45.2	ND	ND	ND	ND	208.2	0
75499	2018-09-08T18:00:00	67.3	ND	ND	ND	2.743860068	39.6	ND	ND	ND	ND	72.7	0
75500	2018-09-08T19:00:00	64.1	ND	ND	ND	4.275964675	24.7	ND	ND	ND	ND	0	0
75501	2018-09-08T20:00:00	45.9	ND	ND	ND	0.877478093	14.6	ND	ND	ND	ND	0	0
75502	2018-09-08T21:00:00	24.8	ND	ND	ND	2.465295594	20.4	ND	ND	ND	ND	0	0
75503	2018-09-08T22:00:00	20.2	ND	ND	ND	1.936023094	18.9	ND	ND	ND	ND	0	0
75504	2018-09-08T23:00:00	27.1	ND	ND	ND	2.353869805	13.9	ND	ND	ND	ND	0	0
75505	2018-09-09T00:00:00	36.7	ND	ND	ND	2.785644739	15.0	ND	ND	ND	ND	0	0
75506	2018-09-09T01:00:00	14.5	ND	ND	ND	3.287060792	15.2	ND	ND	ND	ND	0	0
75507	2018-09-09T02:00:00	14.4	ND	ND	ND	2.897070529	9.5	ND	ND	ND	ND	0	0
75508	2018-09-09T03:00:00	51.5	ND	ND	ND	2.339941581	4.6	ND	ND	ND	ND	0	0
75509	2018-09-09T04:00:00	44.9	ND	ND	ND	3.927759082	1.0	ND	ND	ND	ND	0	0
75510	2018-09-09T05:00:00	59.5	ND	ND	ND	3.31491724	1.7	ND	ND	ND	ND	0	0
75511	2018-09-09T06:00:00	51.6	ND	ND	ND	3.259204345	2.6	ND	ND	ND	ND	0	0
75512	2018-09-09T07:00:00	59.4	ND	ND	ND	2.590649607	2.3	ND	ND	ND	ND	106.8	0
75513	2018-09-09T08:00:00	60.6	ND	ND	ND	4.136682438	3.2	ND	ND	ND	ND	270.4	0
75514	2018-09-09T09:00:00	114.1	ND	ND	ND	3.300989016	9.8	ND	ND	ND	ND	595.4	0
75515	2018-09-09T10:00:00	111.2	ND	ND	ND	3.259204345	23.8	ND	ND	ND	ND	649.2	0
75516	2018-09-09T11:00:00	96.7	ND	ND	ND	2.994568095	29.9	ND	ND	ND	ND	649.8	0
75517	2018-09-09T12:00:00	62.2	ND	ND	ND	3.078137437	45.6	ND	ND	ND	ND	649.5	0
75518	2018-09-09T13:00:00	58.2	ND	ND	ND	2.339941581	51.7	ND	ND	ND	ND	650	0
75519	2018-09-09T14:00:00	49.1	ND	ND	ND	2.716003621	64.5	ND	ND	ND	ND	650	0
75520	2018-09-09T15:00:00	60.9	ND	ND	ND	2.131018225	49.9	ND	ND	ND	ND	638.6	0
75521	2018-09-09T16:00:00	45.1	ND	ND	ND	4.039184872	41.5	ND	ND	ND	ND	501.9	0
75522	2018-09-09T17:00:00	35.9	ND	ND	ND	1.713171515	48.2	ND	ND	ND	ND	456.4	0
75523	2018-09-09T18:00:00	34.7	ND	ND	ND	2.590649607	31.3	ND	ND	ND	ND	199.1	0
75524	2018-09-09T19:00:00	28.7	ND	ND	ND	2.493152042	23.0	ND	ND	ND	ND	0	0
75525	2018-09-09T20:00:00	21.3	ND	ND	ND	1.741027962	11.6	ND	ND	ND	ND	0	0
75526	2018-09-09T21:00:00	18.8	ND	ND	ND	1.977807765	8.9	ND	ND	ND	ND	0	0
75527	2018-09-09T22:00:00	15.2	ND	ND	ND	2.465295594	7.5	ND	ND	ND	ND	0	0
75528	2018-09-09T23:00:00	27.3	ND	ND	ND	2.688147173	8.9	ND	ND	ND	ND	0	0
75529	2018-09-10T00:00:00	35.2	ND	ND	ND	2.9388552	7.3	ND	ND	ND	ND	0	0
75530	2018-09-10T01:00:00	22	ND	ND	ND	1.671386843	18.0	ND	ND	ND	ND	0	0
75531	2018-09-10T02:00:00	28.1	ND	ND	ND	2.339941581	11.0	ND	ND	ND	ND	0	0
75532	2018-09-10T03:00:00	55.1	ND	ND	ND	2.144946449	7.9	ND	ND	ND	ND	0	0
75533	2018-09-10T04:00:00	53.1	ND	ND	ND	4.039184872	4.3	ND	ND	ND	ND	0	0
75534	2018-09-10T05:00:00	64.7	ND	ND	ND	1.351037698	6.9	ND	ND	ND	ND	0	0
75535	2018-09-10T06:00:00	65.6	ND	ND	ND	2.660290726	16.3	ND	ND	ND	ND	0	0
75536	2018-09-10T07:00:00	75.4	ND	ND	ND	1.532104607	16.1	ND	ND	ND	ND	100.9	0
75537	2018-09-10T08:00:00	92.8	ND	ND	ND	0.139282237	ND	ND	ND	ND	ND	601.3	0
75538	2018-09-10T09:00:00	139.6	ND	ND	ND	ND	19.4	ND	ND	ND	ND	648.9	0
75539	2018-09-10T10:00:00	134.1	ND	ND	ND	ND	33.1	ND	ND	ND	ND	650.1	0
75540	2018-09-10T11:00:00	96	ND	ND	ND	4.443103359	30.1	ND	ND	ND	ND	650.4	0
75541	2018-09-10T12:00:00	51.6	ND	ND	ND	4.094897766	38.3	ND	ND	ND	ND	650.6	0
75542	2018-09-10T13:00:00	62.2	ND	ND	ND	3.273132568	36.3	ND	ND	ND	ND	650.9	0
75543	2018-09-10T14:00:00	61.7	ND	ND	ND	1.295324804	26.4	ND	ND	ND	ND	650.9	0
75544	2018-09-10T15:00:00	55.7	ND	ND	ND	2.743860068	33.0	ND	ND	ND	ND	649.2	0
75545	2018-09-10T16:00:00	50.3	ND	ND	ND	2.966711647	36.4	ND	ND	ND	ND	587.9	0
75546	2018-09-10T17:00:00	65.9	ND	ND	ND	1.727099738	33.2	ND	ND	ND	ND	518.1	0
75547	2018-09-10T18:00:00	67.1	ND	ND	ND	3.064209213	23.0	ND	ND	ND	ND	170.4	0
75548	2018-09-10T19:00:00	60.2	ND	ND	ND	1.615673949	14.8	ND	ND	ND	ND	0	0
75549	2018-09-10T20:00:00	48.9	ND	ND	ND	2.799572963	16.1	ND	ND	ND	ND	0	0
75550	2018-09-10T21:00:00	30.2	ND	ND	ND	3.175635003	16.3	ND	ND	ND	ND	0	0
75551	2018-09-10T22:00:00	18.3	ND	ND	ND	3.022424542	13.2	ND	ND	ND	ND	0	0
75552	2018-09-10T23:00:00	18.8	ND	ND	ND	1.838525528	12.8	ND	ND	ND	ND	0	0
75553	2018-09-11T00:00:00	10.3	ND	ND	ND	3.565625266	10.6	ND	ND	ND	ND	0	0
75554	2018-09-11T01:00:00	20.8	ND	ND	ND	3.175635003	5.0	ND	ND	ND	ND	0	0
75555	2018-09-11T02:00:00	39	ND	ND	ND	3.704907503	6.8	ND	ND	ND	ND	0	0
75556	2018-09-11T03:00:00	53.7	ND	ND	ND	2.82742941	8.5	ND	ND	ND	ND	0	0
75557	2018-09-11T04:00:00	55	ND	ND	ND	5.76628461	7.0	ND	ND	ND	ND	0	0
75558	2018-09-11T05:00:00	52.4	ND	ND	ND	3.064209213	4.8	ND	ND	ND	ND	0	0
75559	2018-09-11T06:00:00	58.8	ND	ND	ND	3.245276121	3.5	ND	ND	ND	ND	0	0
75560	2018-09-11T07:00:00	87	ND	ND	ND	2.910998752	3.9	ND	ND	ND	ND	84.5	0
75561	2018-09-11T08:00:00	132.4	ND	ND	ND	3.788476845	5.6	ND	ND	ND	ND	591.3	0
75562	2018-09-11T09:00:00	163	ND	ND	ND	3.119922108	10.6	ND	ND	ND	ND	649	0
75563	2018-09-11T10:00:00	133.4	ND	ND	ND	3.593481713	21.0	ND	ND	ND	ND	649.2	0
75564	2018-09-11T11:00:00	79.7	ND	ND	ND	3.663122832	36.8	ND	ND	ND	ND	650	0
75565	2018-09-11T12:00:00	75	ND	ND	ND	1.197827238	39.4	ND	ND	ND	ND	648.9	0
75566	2018-09-11T13:00:00	82.5	ND	ND	ND	2.521008489	31.5	ND	ND	ND	ND	650.6	0
75567	2018-09-11T14:00:00	85.3	ND	ND	ND	2.521008489	44.5	ND	ND	ND	ND	650.3	0
75568	2018-09-11T15:00:00	86.9	ND	ND	ND	1.782812633	44.3	ND	ND	ND	ND	568	0
75569	2018-09-11T16:00:00	95	ND	ND	ND	1.058545001	29.1	ND	ND	ND	ND	372	0
75570	2018-09-11T17:00:00	67.7	ND	ND	ND	2.03352066	17.3	ND	ND	ND	ND	319	0
75571	2018-09-11T18:00:00	45.2	ND	ND	ND	1.727099738	15.9	ND	ND	ND	ND	94.3	0
75572	2018-09-11T19:00:00	36.7	ND	ND	ND	2.702075397	9.2	ND	ND	ND	ND	0	0
75573	2018-09-11T20:00:00	43.1	ND	ND	ND	3.677051056	5.2	ND	ND	ND	ND	0	0
75574	2018-09-11T21:00:00	49.3	ND	ND	ND	3.384558358	12.6	ND	ND	ND	ND	0	0
75575	2018-09-11T22:00:00	52.2	ND	ND	ND	2.841357634	3.5	ND	ND	ND	ND	0	0
75576	2018-09-11T23:00:00	74.4	ND	ND	ND	2.200659344	3.7	ND	ND	ND	ND	0	0
75577	2018-09-12T00:00:00	66.3	ND	ND	ND	1.699243291	5.1	ND	ND	ND	ND	0	0
75578	2018-09-12T01:00:00	79.5	ND	ND	ND	3.4681277	7.7	ND	ND	ND	ND	0	0
75579	2018-09-12T02:00:00	57.8	ND	ND	ND	2.67421895	7.5	ND	ND	ND	ND	0	0
75580	2018-09-12T03:00:00	54.9	ND	ND	ND	1.142114343	8.8	ND	ND	ND	ND	0	0
75581	2018-09-12T04:00:00	64.6	ND	ND	ND	3.635266385	5.1	ND	ND	ND	ND	0	0
75582	2018-09-12T05:00:00	80.1	ND	ND	ND	4.359534017	4.0	ND	ND	ND	ND	0	0
75583	2018-09-12T06:00:00	72.4	ND	ND	ND	4.025256648	4.7	ND	ND	ND	ND	0	0
75584	2018-09-12T07:00:00	63.4	ND	ND	ND	2.242444015	3.5	ND	ND	ND	ND	70.9	0
75585	2018-09-12T08:00:00	78.8	ND	ND	ND	3.482055924	4.3	ND	ND	ND	ND	443.2	0
75586	2018-09-12T09:00:00	108.2	ND	ND	ND	2.9388552	9.2	ND	ND	ND	ND	614.1	0
75587	2018-09-12T10:00:00	102.6	ND	ND	ND	4.22025178	21.9	ND	ND	ND	ND	649.4	0
75588	2018-09-12T11:00:00	94	ND	ND	ND	2.82742941	32.8	ND	ND	ND	ND	649.3	0
75589	2018-09-12T12:00:00	86.9	ND	ND	ND	2.632434278	44.0	ND	ND	ND	ND	649.8	0
75590	2018-09-12T13:00:00	117.7	ND	ND	ND	2.158874673	44.0	ND	ND	ND	ND	633.8	0
75591	2018-09-12T14:00:00	95.9	ND	ND	ND	3.064209213	20.7	ND	ND	ND	ND	629.5	0
75592	2018-09-12T15:00:00	56.1	ND	ND	ND	3.20349145	19.9	ND	ND	ND	ND	649.4	0
75593	2018-09-12T16:00:00	45.4	ND	ND	ND	2.771716515	20.1	ND	ND	ND	ND	611.5	0
75594	2018-09-12T17:00:00	38.6	ND	ND	ND	1.504248159	17.3	ND	ND	ND	ND	219.4	0
75595	2018-09-12T18:00:00	33.5	ND	ND	ND	2.117090002	15.7	ND	ND	ND	ND	52	0
75596	2018-09-12T19:00:00	35.1	ND	ND	ND	3.356701911	17.4	ND	ND	ND	ND	0	0
75597	2018-09-12T20:00:00	27.8	ND	ND	ND	1.504248159	13.5	ND	ND	ND	ND	0	0
75598	2018-09-12T21:00:00	24.1	ND	ND	ND	2.507080265	16.2	ND	ND	ND	ND	0	0
75599	2018-09-12T22:00:00	14.9	ND	ND	ND	2.312085133	13.7	ND	ND	ND	ND	0	0
75600	2018-09-12T23:00:00	12.5	ND	ND	ND	1.991735988	12.2	ND	ND	ND	ND	0	0
75601	2018-09-13T00:00:00	16.9	ND	ND	ND	2.576721384	10.7	ND	ND	ND	ND	0	0
75602	2018-09-13T01:00:00	13.1	ND	ND	ND	2.437439147	9.9	ND	ND	ND	ND	0	0
75603	2018-09-13T02:00:00	27.4	ND	ND	ND	3.872046187	7.6	ND	ND	ND	ND	0	0
75604	2018-09-13T03:00:00	37.2	ND	ND	ND	3.73276395	7.1	ND	ND	ND	ND	0	0
75605	2018-09-13T04:00:00	36.9	ND	ND	ND	3.983471977	7.2	ND	ND	ND	ND	0	0
75606	2018-09-13T05:00:00	39.1	ND	ND	ND	3.175635003	5.4	ND	ND	ND	ND	0	0
75607	2018-09-13T06:00:00	59.4	ND	ND	ND	3.287060792	3.0	ND	ND	ND	ND	0	4.32
75608	2018-09-13T07:00:00	54.9	ND	ND	ND	3.788476845	2.8	ND	ND	ND	ND	29.6	0.25
75609	2018-09-13T08:00:00	75.5	ND	ND	ND	2.813501187	4.1	ND	ND	ND	ND	87	0
75610	2018-09-13T09:00:00	71.9	ND	ND	ND	1.364965922	3.3	ND	ND	ND	ND	192.2	0
75611	2018-09-13T10:00:00	69.7	ND	ND	ND	2.660290726	3.7	ND	ND	ND	ND	329.4	0.25
75612	2018-09-13T11:00:00	65.2	ND	ND	ND	3.217419674	6.6	ND	ND	ND	ND	489.6	0
75613	2018-09-13T12:00:00	72.6	ND	ND	ND	2.966711647	12.5	ND	ND	ND	ND	649.2	0
75614	2018-09-13T13:00:00	50.4	ND	ND	ND	3.20349145	22.9	ND	ND	ND	ND	649.8	0
75615	2018-09-13T14:00:00	63.4	ND	ND	ND	3.4681277	15.1	ND	ND	ND	ND	636.3	0
75616	2018-09-13T15:00:00	57.7	ND	ND	ND	1.908166646	13.8	ND	ND	ND	ND	608.5	0
75617	2018-09-13T16:00:00	34.8	ND	ND	ND	2.423510923	12.5	ND	ND	ND	ND	603.7	0
75618	2018-09-13T17:00:00	25	ND	ND	ND	1.727099738	10.4	ND	ND	ND	ND	89	9.65
75619	2018-09-13T18:00:00	32.4	ND	ND	ND	1.476391712	7.1	ND	ND	ND	ND	20.7	0
75620	2018-09-13T19:00:00	17.7	ND	ND	ND	1.65745862	5.2	ND	ND	ND	ND	0	4.32
75621	2018-09-13T20:00:00	36.5	ND	ND	ND	0.362133816	3.1	ND	ND	ND	ND	0	9.4
75622	2018-09-13T21:00:00	27.7	ND	ND	ND	1.880310199	2.6	ND	ND	ND	ND	0	9.14
75623	2018-09-13T22:00:00	15.2	ND	ND	ND	3.273132568	2.6	ND	ND	ND	ND	0	0.25
75624	2018-09-13T23:00:00	27.2	ND	ND	ND	2.437439147	2.4	ND	ND	ND	ND	0	0
75625	2018-09-14T00:00:00	19.6	ND	ND	ND	4.025256648	2.7	ND	ND	ND	ND	0	0
75626	2018-09-14T01:00:00	31.5	ND	ND	ND	2.757788292	2.3	ND	ND	ND	ND	0	0.76
75627	2018-09-14T02:00:00	11.2	ND	ND	ND	2.702075397	2.3	ND	ND	ND	ND	0	0.51
75628	2018-09-14T03:00:00	17.3	ND	ND	ND	3.690979279	2.7	ND	ND	ND	ND	0	1.52
75629	2018-09-14T04:00:00	3.2	ND	ND	ND	1.518176383	3.2	ND	ND	ND	ND	0	0.76
75630	2018-09-14T05:00:00	7.3	ND	ND	ND	2.29815691	3.3	ND	ND	ND	ND	0	1.27
75631	2018-09-14T06:00:00	15	ND	ND	ND	1.476391712	2.2	ND	ND	ND	ND	0	0.51
75632	2018-09-14T07:00:00	11.9	ND	ND	ND	3.231347897	2.3	ND	ND	ND	ND	51.4	1.52
75633	2018-09-14T08:00:00	3.4	ND	ND	ND	2.479223818	2.7	ND	ND	ND	ND	252.2	0.51
75634	2018-09-14T09:00:00	29.8	ND	ND	ND	3.050280989	3.0	ND	ND	ND	ND	291.9	0
75635	2018-09-14T10:00:00	37	ND	ND	ND	2.910998752	4.1	ND	ND	ND	ND	499.3	0
75636	2018-09-14T11:00:00	37	ND	ND	ND	3.607409937	7.8	ND	ND	ND	ND	604.7	0
75637	2018-09-14T12:00:00	38	ND	ND	ND	2.785644739	19.8	ND	ND	ND	ND	647.7	0
75638	2018-09-14T13:00:00	38	ND	ND	ND	2.646362502	33.5	ND	ND	ND	ND	648.1	0
75639	2018-09-14T14:00:00	44.9	ND	ND	ND	2.117090002	36.7	ND	ND	ND	ND	618.2	0
75640	2018-09-14T15:00:00	56.3	ND	ND	ND	3.677051056	48.7	ND	ND	ND	ND	609.8	0
75641	2018-09-14T16:00:00	71.7	ND	ND	ND	3.022424542	29.0	ND	ND	ND	ND	516.8	0
75642	2018-09-14T17:00:00	57.9	ND	ND	ND	2.883142305	8.8	ND	ND	ND	ND	421.5	0
75643	2018-09-14T18:00:00	54.8	ND	ND	ND	2.716003621	8.8	ND	ND	ND	ND	154.3	0
75644	2018-09-14T19:00:00	35.2	ND	ND	ND	2.660290726	6.1	ND	ND	ND	ND	0	0
75645	2018-09-14T20:00:00	22.1	ND	ND	ND	2.339941581	5.3	ND	ND	ND	ND	0	0
75646	2018-09-14T21:00:00	32.5	ND	ND	ND	2.952783423	4.5	ND	ND	ND	ND	0	0
75647	2018-09-14T22:00:00	20.3	ND	ND	ND	3.677051056	4.3	ND	ND	ND	ND	0	0
75648	2018-09-14T23:00:00	22.7	ND	ND	ND	1.699243291	3.2	ND	ND	ND	ND	0	0
75649	2018-09-15T00:00:00	30.4	ND	ND	ND	1.768884409	2.8	ND	ND	ND	ND	0	0
75650	2018-09-15T01:00:00	33.4	ND	ND	ND	3.008496318	3.3	ND	ND	ND	ND	0	0
75651	2018-09-15T02:00:00	22	ND	ND	ND	4.150610661	5.1	ND	ND	ND	ND	0	0.76
75652	2018-09-15T03:00:00	22.3	ND	ND	ND	1.518176383	4.5	ND	ND	ND	ND	0	0.51
75653	2018-09-15T04:00:00	14.6	ND	ND	ND	2.423510923	4.3	ND	ND	ND	ND	0	2.03
75654	2018-09-15T05:00:00	14	ND	ND	ND	3.147778555	3.2	ND	ND	ND	ND	0	2.79
75655	2018-09-15T06:00:00	6.7	ND	ND	ND	3.217419674	2.6	ND	ND	ND	ND	0	0.76
75656	2018-09-15T07:00:00	19.9	ND	ND	ND	1.39282237	2.9	ND	ND	ND	ND	22.3	0.25
75657	2018-09-15T08:00:00	30.8	ND	ND	ND	3.356701911	3.3	ND	ND	ND	ND	130.3	0.51
75658	2018-09-15T09:00:00	46.8	ND	ND	ND	3.31491724	3.2	ND	ND	ND	ND	293.5	0.76
75659	2018-09-15T10:00:00	49.1	ND	ND	ND	3.273132568	4.9	ND	ND	ND	ND	448.4	0
75660	2018-09-15T11:00:00	52	ND	ND	ND	2.353869805	9.3	ND	ND	ND	ND	524.2	0
75661	2018-09-15T12:00:00	56.4	ND	ND	ND	1.337109475	12.0	ND	ND	ND	ND	583.3	0
75662	2018-09-15T13:00:00	64.8	ND	ND	ND	2.813501187	14.6	ND	ND	ND	ND	647.6	0
75663	2018-09-15T14:00:00	66.3	ND	ND	ND	2.994568095	19.8	ND	ND	ND	ND	608.4	0
75664	2018-09-15T15:00:00	51.2	ND	ND	ND	2.03352066	15.1	ND	ND	ND	ND	494.1	0
75665	2018-09-15T16:00:00	57.2	ND	ND	ND	2.548864936	17.4	ND	ND	ND	ND	451.1	0
75666	2018-09-15T17:00:00	69.5	ND	ND	ND	4.457031583	17.9	ND	ND	ND	ND	251.3	0
75667	2018-09-15T18:00:00	75.7	ND	ND	ND	3.495984148	10.3	ND	ND	ND	ND	60.9	0
75668	2018-09-15T19:00:00	91.5	ND	ND	ND	4.080969543	5.4	ND	ND	ND	ND	0	0
75669	2018-09-15T20:00:00	58.3	ND	ND	ND	1.559961054	4.1	ND	ND	ND	ND	0	0
75670	2018-09-15T21:00:00	25.9	ND	ND	ND	3.147778555	5.9	ND	ND	ND	ND	0	0
75671	2018-09-15T22:00:00	23.8	ND	ND	ND	2.952783423	3.5	ND	ND	ND	ND	0	1.27
75672	2018-09-15T23:00:00	20.2	ND	ND	ND	2.521008489	2.9	ND	ND	ND	ND	0	0
75673	2018-09-16T00:00:00	33.4	ND	ND	ND	2.158874673	2.8	ND	ND	ND	ND	0	0.25
75674	2018-09-16T01:00:00	21.4	ND	ND	ND	2.339941581	2.5	ND	ND	ND	ND	0	0
75675	2018-09-16T02:00:00	22.7	ND	ND	ND	2.82742941	2.8	ND	ND	ND	ND	0	0.25
75676	2018-09-16T03:00:00	28.1	ND	ND	ND	3.119922108	2.6	ND	ND	ND	ND	0	0
75677	2018-09-16T04:00:00	26.8	ND	ND	ND	3.440271253	2.7	ND	ND	ND	ND	0	0.25
75678	2018-09-16T05:00:00	7	ND	ND	ND	0.557128948	2.4	ND	ND	ND	ND	0	5.84
75679	2018-09-16T06:00:00	12	ND	ND	ND	5.139514544	2.2	ND	ND	ND	ND	0	4.32
75680	2018-09-16T07:00:00	30.9	ND	ND	ND	4.568457372	2.5	ND	ND	ND	ND	25.5	1.27
75681	2018-09-16T08:00:00	27.3	ND	ND	ND	5.613074149	2.6	ND	ND	ND	ND	130	2.03
75682	2018-09-16T09:00:00	28.3	ND	ND	ND	4.122754214	2.4	ND	ND	ND	ND	438.3	1.02
75683	2018-09-16T10:00:00	30.2	ND	ND	ND	4.387390464	2.9	ND	ND	ND	ND	621.6	0.51
75684	2018-09-16T11:00:00	33.9	ND	ND	ND	3.509912371	4.6	ND	ND	ND	ND	644.1	0
75685	2018-09-16T12:00:00	38.3	ND	ND	ND	3.259204345	13.0	ND	ND	ND	ND	648.3	0
75686	2018-09-16T13:00:00	44.5	ND	ND	ND	3.259204345	25.3	ND	ND	ND	ND	648.3	0
75687	2018-09-16T14:00:00	34.4	ND	ND	ND	3.495984148	30.8	ND	ND	ND	ND	648.3	0
75688	2018-09-16T15:00:00	36.9	ND	ND	ND	2.200659344	34.0	ND	ND	ND	ND	648.3	0
75689	2018-09-16T16:00:00	36.3	ND	ND	ND	0.988903882	39.3	ND	ND	ND	ND	646.8	0
75690	2018-09-16T17:00:00	37.4	ND	ND	ND	3.328845463	37.7	ND	ND	ND	ND	418.4	0
75691	2018-09-16T18:00:00	41	ND	ND	ND	2.924926976	19.2	ND	ND	ND	ND	69.3	0
75692	2018-09-16T19:00:00	46	ND	ND	ND	3.690979279	11.4	ND	ND	ND	ND	0	0
75693	2018-09-16T20:00:00	50.1	ND	ND	ND	4.039184872	6.5	ND	ND	ND	ND	0	0
75694	2018-09-16T21:00:00	57.1	ND	ND	ND	2.29815691	4.9	ND	ND	ND	ND	0	0
75695	2018-09-16T22:00:00	65.6	ND	ND	ND	3.621338161	3.8	ND	ND	ND	ND	0	0
75696	2018-09-16T23:00:00	76.4	ND	ND	ND	3.495984148	3.5	ND	ND	ND	ND	0	0
75697	2018-09-17T00:00:00	68	ND	ND	ND	1.587817501	3.4	ND	ND	ND	ND	0	0
75698	2018-09-17T01:00:00	59.9	ND	ND	ND	3.384558358	3.1	ND	ND	ND	ND	0	0
75699	2018-09-17T02:00:00	61.3	ND	ND	ND	5.028088754	3.4	ND	ND	ND	ND	0	0
75700	2018-09-17T03:00:00	56.1	ND	ND	ND	5.585217702	3.3	ND	ND	ND	ND	0	0
75701	2018-09-17T04:00:00	43.5	ND	ND	ND	9.164771192	2.7	ND	ND	ND	ND	0	0
75702	2018-09-17T05:00:00	48.4	ND	ND	ND	6.323413558	2.9	ND	ND	ND	ND	0	0
75703	2018-09-17T06:00:00	55.7	ND	ND	ND	3.175635003	2.6	ND	ND	ND	ND	0	0
75704	2018-09-17T07:00:00	63.9	ND	ND	ND	3.287060792	2.8	ND	ND	ND	ND	86.5	0
75705	2018-09-17T08:00:00	80.1	ND	ND	ND	1.866381975	3.4	ND	ND	ND	ND	285.8	0
75706	2018-09-17T09:00:00	102.9	ND	ND	ND	3.4681277	5.4	ND	ND	ND	ND	610.1	0
75707	2018-09-17T10:00:00	78.4	ND	ND	ND	3.384558358	11.7	ND	ND	ND	ND	647.1	0
75708	2018-09-17T11:00:00	66.5	ND	ND	ND	2.813501187	17.7	ND	ND	ND	ND	646.7	0
75709	2018-09-17T12:00:00	62.1	ND	ND	ND	3.133850332	22.3	ND	ND	ND	ND	648.8	0
75710	2018-09-17T13:00:00	52.8	ND	ND	ND	2.409582699	35.8	ND	ND	ND	ND	638.8	0
75711	2018-09-17T14:00:00	51	ND	ND	ND	1.963879541	46.1	ND	ND	ND	ND	646.6	0
75712	2018-09-17T15:00:00	51.6	ND	ND	ND	2.729931844	45.2	ND	ND	ND	ND	635.5	0
75713	2018-09-17T16:00:00	60.6	ND	ND	ND	1.364965922	40.3	ND	ND	ND	ND	548.4	0
75714	2018-09-17T17:00:00	65.9	ND	ND	ND	1.949951317	15.2	ND	ND	ND	ND	488.4	0
75715	2018-09-17T18:00:00	114.6	ND	ND	ND	0.766052303	8.2	ND	ND	ND	ND	110.7	0
75716	2018-09-17T19:00:00	49.1	ND	ND	ND	2.18673112	5.8	ND	ND	ND	ND	1.3	0
75717	2018-09-17T20:00:00	21.5	ND	ND	ND	4.136682438	7.1	ND	ND	ND	ND	0.1	0
75718	2018-09-17T21:00:00	21.7	ND	ND	ND	3.356701911	5.7	ND	ND	ND	ND	0.1	0
75719	2018-09-17T22:00:00	37.2	ND	ND	ND	2.437439147	5.2	ND	ND	ND	ND	0.1	0
75720	2018-09-17T23:00:00	36.1	ND	ND	ND	2.869214081	3.7	ND	ND	ND	ND	0.1	0
75721	2018-09-18T00:00:00	35.5	ND	ND	ND	2.200659344	4.9	ND	ND	ND	ND	0.1	0
75722	2018-09-18T01:00:00	32.5	ND	ND	ND	2.493152042	3.5	ND	ND	ND	ND	0.1	0
75723	2018-09-18T02:00:00	46.2	ND	ND	ND	2.702075397	3.4	ND	ND	ND	ND	0.1	0
75724	2018-09-18T03:00:00	51.4	ND	ND	ND	3.426343029	3.4	ND	ND	ND	ND	0.1	0
75725	2018-09-18T04:00:00	38.2	ND	ND	ND	3.969543753	3.0	ND	ND	ND	ND	0.1	0
75726	2018-09-18T05:00:00	45.6	ND	ND	ND	3.008496318	3.1	ND	ND	ND	ND	0.1	0
75727	2018-09-18T06:00:00	59.1	ND	ND	ND	3.523840595	3.2	ND	ND	ND	ND	1.3	0
75728	2018-09-18T07:00:00	112.7	ND	ND	ND	3.398486582	3.5	ND	ND	ND	ND	145.4	0
75729	2018-09-18T08:00:00	94.9	ND	ND	ND	2.200659344	4.1	ND	ND	ND	ND	576.9	0
75730	2018-09-18T09:00:00	99	ND	ND	ND	2.743860068	8.1	ND	ND	ND	ND	647.8	0
75731	2018-09-18T10:00:00	81.8	ND	ND	ND	2.785644739	15.4	ND	ND	ND	ND	637.4	0
75732	2018-09-18T11:00:00	76.2	ND	ND	ND	2.507080265	28.8	ND	ND	ND	ND	647	0
75733	2018-09-18T12:00:00	78.1	ND	ND	ND	2.158874673	30.7	ND	ND	ND	ND	649	0
75734	2018-09-18T13:00:00	74.4	ND	ND	ND	1.573889278	32.3	ND	ND	ND	ND	648.5	0
75735	2018-09-18T14:00:00	59.2	ND	ND	ND	2.897070529	40.2	ND	ND	ND	ND	622.9	0
75736	2018-09-18T15:00:00	63.6	ND	ND	ND	3.050280989	23.2	ND	ND	ND	ND	507.2	0
75737	2018-09-18T16:00:00	46.3	ND	ND	ND	2.339941581	14.5	ND	ND	ND	ND	559.2	0
75738	2018-09-18T17:00:00	39	ND	ND	ND	3.022424542	10.6	ND	ND	ND	ND	290.3	0
75739	2018-09-18T18:00:00	33.2	ND	ND	ND	1.936023094	9.8	ND	ND	ND	ND	53.4	0
75740	2018-09-18T19:00:00	31.8	ND	ND	ND	2.952783423	10.4	ND	ND	ND	ND	0	0
75741	2018-09-18T20:00:00	54.4	ND	ND	ND	2.075305331	6.0	ND	ND	ND	ND	0	0
75742	2018-09-18T21:00:00	55.7	ND	ND	ND	2.883142305	10.9	ND	ND	ND	ND	0	0
75743	2018-09-18T22:00:00	46	ND	ND	ND	2.047448883	4.5	ND	ND	ND	ND	0	0
75744	2018-09-18T23:00:00	70.6	ND	ND	ND	3.370630134	2.7	ND	ND	ND	ND	0	0
75745	2018-09-19T00:00:00	70.8	ND	ND	ND	2.56279316	3.8	ND	ND	ND	ND	0	0
75746	2018-09-19T01:00:00	85.2	ND	ND	ND	3.036352766	4.9	ND	ND	ND	ND	0	0
75747	2018-09-19T02:00:00	56.2	ND	ND	ND	4.582385596	5.1	ND	ND	ND	ND	0	0
75748	2018-09-19T03:00:00	50.2	ND	ND	ND	3.593481713	3.6	ND	ND	ND	ND	0	0
75749	2018-09-19T04:00:00	39.5	ND	ND	ND	3.133850332	5.1	ND	ND	ND	ND	0	0
75750	2018-09-19T05:00:00	41.8	ND	ND	ND	2.103161778	3.1	ND	ND	ND	ND	0	0
75751	2018-09-19T06:00:00	72.6	ND	ND	ND	4.387390464	2.6	ND	ND	ND	ND	0	0
75752	2018-09-19T07:00:00	99.4	ND	ND	ND	5.069873425	2.8	ND	ND	ND	ND	98.6	0
75753	2018-09-19T08:00:00	90	ND	ND	ND	4.888806517	3.6	ND	ND	ND	ND	344.1	0
75754	2018-09-19T09:00:00	94.4	ND	ND	ND	2.82742941	6.1	ND	ND	ND	ND	580.8	0
75755	2018-09-19T10:00:00	115.8	ND	ND	ND	2.479223818	12.1	ND	ND	ND	ND	647.6	0
75756	2018-09-19T11:00:00	94.4	ND	ND	ND	ND	29.9	ND	ND	ND	ND	649	0
75757	2018-09-19T12:00:00	81	ND	ND	ND	2.284228686	30.2	ND	ND	ND	ND	648.9	0
75758	2018-09-19T13:00:00	75	ND	ND	ND	3.746692174	33.7	ND	ND	ND	ND	640.1	0
75759	2018-09-19T14:00:00	60.3	ND	ND	ND	2.507080265	35.7	ND	ND	ND	ND	569.6	0
75760	2018-09-19T15:00:00	50.9	ND	ND	ND	2.660290726	17.2	ND	ND	ND	ND	587.1	0
75761	2018-09-19T16:00:00	26.4	ND	ND	ND	2.423510923	13.9	ND	ND	ND	ND	525.4	0
75762	2018-09-19T17:00:00	33.6	ND	ND	ND	2.395654476	9.9	ND	ND	ND	ND	329.4	0
75763	2018-09-19T18:00:00	29.6	ND	ND	ND	2.381726252	8.1	ND	ND	ND	ND	61.4	0
75764	2018-09-19T19:00:00	22.7	ND	ND	ND	2.785644739	7.4	ND	ND	ND	ND	0	0
75765	2018-09-19T20:00:00	26.5	ND	ND	ND	2.117090002	8.3	ND	ND	ND	ND	0	0
75766	2018-09-19T21:00:00	59.9	ND	ND	ND	2.869214081	9.3	ND	ND	ND	ND	0	0
75767	2018-09-19T22:00:00	56.3	ND	ND	ND	1.977807765	4.1	ND	ND	ND	ND	0	0
75768	2018-09-19T23:00:00	63.4	ND	ND	ND	2.395654476	5.2	ND	ND	ND	ND	0	0
75769	2018-09-20T00:00:00	52.2	ND	ND	ND	3.635266385	3.6	ND	ND	ND	ND	0	0
75770	2018-09-20T01:00:00	52.2	ND	ND	ND	2.172802897	3.8	ND	ND	ND	ND	0	0
75771	2018-09-20T02:00:00	67.3	ND	ND	ND	3.997400201	2.8	ND	ND	ND	ND	0	0
75772	2018-09-20T03:00:00	84	ND	ND	ND	4.958447636	2.9	ND	ND	ND	ND	0	0
75773	2018-09-20T04:00:00	59	ND	ND	ND	3.495984148	3.8	ND	ND	ND	ND	0	0
75774	2018-09-20T05:00:00	45	ND	ND	ND	2.952783423	3.0	ND	ND	ND	ND	0	0
75775	2018-09-20T06:00:00	88.6	ND	ND	ND	5.863782176	3.3	ND	ND	ND	ND	0	0
75776	2018-09-20T07:00:00	149.4	ND	ND	ND	6.253772439	4.0	ND	ND	ND	ND	204.2	0
75777	2018-09-20T08:00:00	179	ND	ND	ND	4.665954938	4.5	ND	ND	ND	ND	609.3	0
75778	2018-09-20T09:00:00	166.6	ND	ND	ND	4.763452504	7.6	ND	ND	ND	ND	648.3	0
75779	2018-09-20T10:00:00	132	ND	ND	ND	4.136682438	16.1	ND	ND	ND	ND	648.1	0
75780	2018-09-20T11:00:00	110.7	ND	ND	ND	3.551697042	27.4	ND	ND	ND	ND	648.2	0
75781	2018-09-20T12:00:00	84.2	ND	ND	ND	2.507080265	36.8	ND	ND	ND	ND	649.2	0
75782	2018-09-20T13:00:00	78.3	ND	ND	ND	2.785644739	47.2	ND	ND	ND	ND	649.3	0
75783	2018-09-20T14:00:00	71.3	ND	ND	ND	2.924926976	44.3	ND	ND	ND	ND	602.8	0
75784	2018-09-20T15:00:00	69.3	ND	ND	ND	1.462463488	30.3	ND	ND	ND	ND	609.2	0
75785	2018-09-20T16:00:00	46.6	ND	ND	ND	1.378894146	25.2	ND	ND	ND	ND	649.6	0
75786	2018-09-20T17:00:00	41.4	ND	ND	ND	2.507080265	16.7	ND	ND	ND	ND	503.3	0
75787	2018-09-20T18:00:00	32.2	ND	ND	ND	2.799572963	10.9	ND	ND	ND	ND	114.2	0
75788	2018-09-20T19:00:00	16.6	ND	ND	ND	2.883142305	10.4	ND	ND	ND	ND	1.2	0
75789	2018-09-20T20:00:00	25.8	ND	ND	ND	3.189563226	12.8	ND	ND	ND	ND	0.1	0
75790	2018-09-20T21:00:00	14.4	ND	ND	ND	0.891406317	12.8	ND	ND	ND	ND	0.1	0
75791	2018-09-20T22:00:00	13.2	ND	ND	ND	1.629602172	11.8	ND	ND	ND	ND	0.1	0
75792	2018-09-20T23:00:00	29.6	ND	ND	ND	3.259204345	3.5	ND	ND	ND	ND	0.1	0
75793	2018-09-21T00:00:00	41.4	ND	ND	ND	3.147778555	5.4	ND	ND	ND	ND	0.1	0
75794	2018-09-21T01:00:00	38.2	ND	ND	ND	3.217419674	3.8	ND	ND	ND	ND	0.1	0
75795	2018-09-21T02:00:00	42.6	ND	ND	ND	3.858117964	3.9	ND	ND	ND	ND	0.1	0
75796	2018-09-21T03:00:00	37.2	ND	ND	ND	1.518176383	4.2	ND	ND	ND	ND	0.1	0
75797	2018-09-21T04:00:00	45.3	ND	ND	ND	2.743860068	4.4	ND	ND	ND	ND	0.1	0
75798	2018-09-21T05:00:00	35.9	ND	ND	ND	2.841357634	4.3	ND	ND	ND	ND	0.1	0
75799	2018-09-21T06:00:00	33.6	ND	ND	ND	3.328845463	3.6	ND	ND	ND	ND	1.3	0
75800	2018-09-21T07:00:00	72.3	ND	ND	ND	2.799572963	3.2	ND	ND	ND	ND	168.3	0
75801	2018-09-21T08:00:00	139	ND	ND	ND	3.997400201	4.5	ND	ND	ND	ND	571.8	0
75802	2018-09-21T09:00:00	134.1	ND	ND	ND	2.03352066	7.5	ND	ND	ND	ND	647.8	0
75803	2018-09-21T10:00:00	93.7	ND	ND	ND	2.367798028	14.5	ND	ND	ND	ND	648.2	0
75804	2018-09-21T11:00:00	78.7	ND	ND	ND	2.29815691	21.1	ND	ND	ND	ND	648.8	0
75805	2018-09-21T12:00:00	82.5	ND	ND	ND	2.367798028	28.1	ND	ND	ND	ND	648.7	0
75806	2018-09-21T13:00:00	79.3	ND	ND	ND	2.117090002	39.6	ND	ND	ND	ND	647.4	0
75807	2018-09-21T14:00:00	82.8	ND	ND	ND	2.005664212	46.8	ND	ND	ND	ND	649.3	0
75808	2018-09-21T15:00:00	50.2	ND	ND	ND	3.649194608	18.7	ND	ND	ND	ND	648.8	0
75809	2018-09-21T16:00:00	29	ND	ND	ND	2.604577831	15.3	ND	ND	ND	ND	627.4	0
75810	2018-09-21T17:00:00	28.9	ND	ND	ND	1.420678817	11.5	ND	ND	ND	ND	380.4	0
75811	2018-09-21T18:00:00	27.3	ND	ND	ND	2.117090002	11.5	ND	ND	ND	ND	95.7	0
75812	2018-09-21T19:00:00	35.6	ND	ND	ND	2.047448883	10.5	ND	ND	ND	ND	0.6	0
75813	2018-09-21T20:00:00	29.9	ND	ND	ND	0.90533454	11.0	ND	ND	ND	ND	0.1	0
75814	2018-09-21T21:00:00	23.1	ND	ND	ND	2.56279316	6.9	ND	ND	ND	ND	0.1	0
75815	2018-09-21T22:00:00	21.8	ND	ND	ND	2.03352066	5.0	ND	ND	ND	ND	0.1	0
75816	2018-09-21T23:00:00	38.5	ND	ND	ND	3.064209213	3.7	ND	ND	ND	ND	0.1	0
75817	2018-09-22T00:00:00	39.1	ND	ND	ND	3.607409937	4.7	ND	ND	ND	ND	0.1	0
75818	2018-09-22T01:00:00	51.4	ND	ND	ND	3.73276395	2.8	ND	ND	ND	ND	0.1	0
75819	2018-09-22T02:00:00	66	ND	ND	ND	3.941687306	2.7	ND	ND	ND	ND	0.1	0
75820	2018-09-22T03:00:00	47.2	ND	ND	ND	3.872046187	3.2	ND	ND	ND	ND	0.1	0
75821	2018-09-22T04:00:00	44.6	ND	ND	ND	2.493152042	3.0	ND	ND	ND	ND	0.1	0
75822	2018-09-22T05:00:00	53.6	ND	ND	ND	2.242444015	2.6	ND	ND	ND	ND	0.1	0
75823	2018-09-22T06:00:00	40.1	ND	ND	ND	2.409582699	2.7	ND	ND	ND	ND	1.2	0
75824	2018-09-22T07:00:00	68.1	ND	ND	ND	2.604577831	3.2	ND	ND	ND	ND	171	0
75825	2018-09-22T08:00:00	115.1	ND	ND	ND	5.139514544	4.2	ND	ND	ND	ND	636.1	0
75826	2018-09-22T09:00:00	101.9	ND	ND	ND	2.966711647	6.7	ND	ND	ND	ND	648	0
75827	2018-09-22T10:00:00	93.4	ND	ND	ND	2.771716515	14.2	ND	ND	ND	ND	645.6	0
75828	2018-09-22T11:00:00	85.1	ND	ND	ND	3.008496318	22.0	ND	ND	ND	ND	648.4	0
75829	2018-09-22T12:00:00	72.2	ND	ND	ND	2.855285858	37.1	ND	ND	ND	ND	648.5	0
75830	2018-09-22T13:00:00	62.4	ND	ND	ND	2.507080265	49.9	ND	ND	ND	ND	648.8	0
75831	2018-09-22T14:00:00	71.9	ND	ND	ND	2.604577831	47.5	ND	ND	ND	ND	649	0
75832	2018-09-22T15:00:00	70.7	ND	ND	ND	2.409582699	43.2	ND	ND	ND	ND	590.6	0
75833	2018-09-22T16:00:00	51.5	ND	ND	ND	2.03352066	24.9	ND	ND	ND	ND	507.6	0
75834	2018-09-22T17:00:00	23.3	ND	ND	ND	2.284228686	21.8	ND	ND	ND	ND	487.7	0
75835	2018-09-22T18:00:00	23.2	ND	ND	ND	3.677051056	17.4	ND	ND	ND	ND	89.2	0
75836	2018-09-22T19:00:00	19.8	ND	ND	ND	2.952783423	12.4	ND	ND	ND	ND	0.7	0
75837	2018-09-22T20:00:00	11.4	ND	ND	ND	2.813501187	11.4	ND	ND	ND	ND	0.1	0
75838	2018-09-22T21:00:00	23.5	ND	ND	ND	1.991735988	10.2	ND	ND	ND	ND	0.1	0
75839	2018-09-22T22:00:00	11.8	ND	ND	ND	2.381726252	10.8	ND	ND	ND	ND	0.1	0
75840	2018-09-22T23:00:00	16	ND	ND	ND	2.688147173	5.5	ND	ND	ND	ND	0.1	0
75841	2018-09-23T00:00:00	45.5	ND	ND	ND	3.217419674	4.4	ND	ND	ND	ND	0.1	0
75842	2018-09-23T01:00:00	50.8	ND	ND	ND	3.440271253	3.8	ND	ND	ND	ND	0.1	0
75843	2018-09-23T02:00:00	59.2	ND	ND	ND	4.10882599	3.5	ND	ND	ND	ND	0.1	0
75844	2018-09-23T03:00:00	55.9	ND	ND	ND	1.977807765	3.7	ND	ND	ND	ND	0.1	0
75845	2018-09-23T04:00:00	56.3	ND	ND	ND	2.339941581	3.2	ND	ND	ND	ND	0.1	0
75846	2018-09-23T05:00:00	57.9	ND	ND	ND	3.147778555	3.0	ND	ND	ND	ND	0.1	0
75847	2018-09-23T06:00:00	58.2	ND	ND	ND	1.782812633	3.3	ND	ND	ND	ND	3.3	0
75848	2018-09-23T07:00:00	63.1	ND	ND	ND	3.133850332	3.6	ND	ND	ND	ND	145.9	0
75849	2018-09-23T08:00:00	57.9	ND	ND	ND	2.604577831	4.8	ND	ND	ND	ND	616.1	0
75850	2018-09-23T09:00:00	79.2	ND	ND	ND	2.089233554	9.9	ND	ND	ND	ND	648.5	0
75851	2018-09-23T10:00:00	78.2	ND	ND	ND	3.175635003	16.7	ND	ND	ND	ND	645.7	0
75852	2018-09-23T11:00:00	61	ND	ND	ND	1.796740857	23.4	ND	ND	ND	ND	649	0
75853	2018-09-23T12:00:00	46	ND	ND	ND	2.242444015	35.0	ND	ND	ND	ND	648.4	0
75854	2018-09-23T13:00:00	49	ND	ND	ND	2.590649607	39.2	ND	ND	ND	ND	648.8	0
75855	2018-09-23T14:00:00	62.1	ND	ND	ND	1.782812633	42.4	ND	ND	ND	ND	647.4	0
75856	2018-09-23T15:00:00	50.8	ND	ND	ND	1.156042567	28.2	ND	ND	ND	ND	637.6	0
75857	2018-09-23T16:00:00	25	ND	ND	ND	1.128186119	24.1	ND	ND	ND	ND	589.3	0
75858	2018-09-23T17:00:00	32.2	ND	ND	ND	3.20349145	18.6	ND	ND	ND	ND	254.3	0
75859	2018-09-23T18:00:00	12.6	ND	ND	ND	1.573889278	15.2	ND	ND	ND	ND	77.7	0
75860	2018-09-23T19:00:00	11.6	ND	ND	ND	1.629602172	11.6	ND	ND	ND	ND	0.4	0
75861	2018-09-23T20:00:00	11.1	ND	ND	ND	2.604577831	10.8	ND	ND	ND	ND	0.1	0
75862	2018-09-23T21:00:00	14.8	ND	ND	ND	1.741027962	7.8	ND	ND	ND	ND	0.1	0
75863	2018-09-23T22:00:00	37.4	ND	ND	ND	2.966711647	2.7	ND	ND	ND	ND	0.1	0
75864	2018-09-23T23:00:00	50.1	ND	ND	ND	2.785644739	2.8	ND	ND	ND	ND	0.1	0
75865	2018-09-24T00:00:00	57.2	ND	ND	ND	5.599145926	2.9	ND	ND	ND	ND	0.1	0
75866	2018-09-24T01:00:00	37.8	ND	ND	ND	2.465295594	6.9	ND	ND	ND	ND	0.1	0
75867	2018-09-24T02:00:00	29.9	ND	ND	ND	3.802405069	3.1	ND	ND	ND	ND	0.1	0
75868	2018-09-24T03:00:00	43.8	ND	ND	ND	3.565625266	3.2	ND	ND	ND	ND	0.1	0
75869	2018-09-24T04:00:00	43.6	ND	ND	ND	3.649194608	3.6	ND	ND	ND	ND	0.1	0
75870	2018-09-24T05:00:00	38.5	ND	ND	ND	1.28139658	4.2	ND	ND	ND	ND	0.1	0
75871	2018-09-24T06:00:00	32.7	ND	ND	ND	3.342773687	3.3	ND	ND	ND	ND	2	0
75872	2018-09-24T07:00:00	43.8	ND	ND	ND	2.632434278	2.9	ND	ND	ND	ND	190.3	0
75873	2018-09-24T08:00:00	46.1	ND	ND	ND	1.54603283	4.4	ND	ND	ND	ND	596.3	0
75874	2018-09-24T09:00:00	83.5	ND	ND	ND	ND	84.9	ND	ND	ND	ND	647.9	0
75875	2018-09-24T10:00:00	81.5	ND	ND	ND	ND	30.4	ND	ND	ND	ND	649.2	0
75876	2018-09-24T11:00:00	90.8	ND	ND	ND	3.816333293	30.7	ND	ND	ND	ND	648.6	0
75877	2018-09-24T12:00:00	90.2	ND	ND	ND	4.805237175	35.7	ND	ND	ND	ND	649	0
75878	2018-09-24T13:00:00	82	ND	ND	ND	3.412414805	38.7	ND	ND	ND	ND	648.9	0
75879	2018-09-24T14:00:00	71.1	ND	ND	ND	3.482055924	41.7	ND	ND	ND	ND	650	0
75880	2018-09-24T15:00:00	65.6	ND	ND	ND	4.206323556	39.3	ND	ND	ND	ND	649.3	0
75881	2018-09-24T16:00:00	73	ND	ND	ND	3.356701911	36.8	ND	ND	ND	ND	631.8	0
75882	2018-09-24T17:00:00	70.2	ND	ND	ND	2.799572963	27.2	ND	ND	ND	ND	530.4	0
75883	2018-09-24T18:00:00	66.2	ND	ND	ND	3.565625266	15.6	ND	ND	ND	ND	94.6	0
75884	2018-09-24T19:00:00	46.7	ND	ND	ND	2.326013357	12.1	ND	ND	ND	ND	0	0
75885	2018-09-24T20:00:00	24.7	ND	ND	ND	4.345605793	12.0	ND	ND	ND	ND	0	0
75886	2018-09-24T21:00:00	26	ND	ND	ND	3.523840595	12.6	ND	ND	ND	ND	0	0
75887	2018-09-24T22:00:00	26.2	ND	ND	ND	2.897070529	13.1	ND	ND	ND	ND	0	0
75888	2018-09-24T23:00:00	17	ND	ND	ND	3.189563226	11.1	ND	ND	ND	ND	0	0
75889	2018-09-25T00:00:00	50	ND	ND	ND	3.370630134	6.4	ND	ND	ND	ND	0	0
75890	2018-09-25T01:00:00	67.4	ND	ND	ND	3.509912371	9.7	ND	ND	ND	ND	0	0
75891	2018-09-25T02:00:00	75.2	ND	ND	ND	5.01416053	8.1	ND	ND	ND	ND	0	0
75892	2018-09-25T03:00:00	73.9	ND	ND	ND	4.847021846	3.3	ND	ND	ND	ND	0	0
75893	2018-09-25T04:00:00	76.2	ND	ND	ND	4.512744477	3.6	ND	ND	ND	ND	0	0
75894	2018-09-25T05:00:00	64.5	ND	ND	ND	3.746692174	3.4	ND	ND	ND	ND	0	0
75895	2018-09-25T06:00:00	76.3	ND	ND	ND	3.73276395	3.3	ND	ND	ND	ND	6.4	0
75896	2018-09-25T07:00:00	92.9	ND	ND	ND	3.09206566	3.6	ND	ND	ND	ND	254.3	0
75897	2018-09-25T08:00:00	104.7	ND	ND	ND	4.805237175	4.5	ND	ND	ND	ND	536.2	0
75898	2018-09-25T09:00:00	114.5	ND	ND	ND	3.287060792	7.3	ND	ND	ND	ND	648.1	0
75899	2018-09-25T10:00:00	99	ND	ND	ND	1.16997079	12.2	ND	ND	ND	ND	648.4	0
75900	2018-09-25T11:00:00	101.9	ND	ND	ND	3.384558358	18.3	ND	ND	ND	ND	648.1	0
75901	2018-09-25T12:00:00	94.9	ND	ND	ND	2.966711647	33.6	ND	ND	ND	ND	648.3	0
75902	2018-09-25T13:00:00	84.3	ND	ND	ND	3.398486582	49.6	ND	ND	ND	ND	648.9	0
75903	2018-09-25T14:00:00	89.6	ND	ND	ND	3.231347897	59.8	ND	ND	ND	ND	649.4	0
75904	2018-09-25T15:00:00	86.4	ND	ND	ND	2.618506055	39.2	ND	ND	ND	ND	628	0
75905	2018-09-25T16:00:00	80.4	ND	ND	ND	3.649194608	52.1	ND	ND	ND	ND	554.4	0
75906	2018-09-25T17:00:00	88.7	ND	ND	ND	3.175635003	23.9	ND	ND	ND	ND	394.5	0
75907	2018-09-25T18:00:00	45.3	ND	ND	ND	3.57955349	11.8	ND	ND	ND	ND	85.9	0
75908	2018-09-25T19:00:00	40.2	ND	ND	ND	3.259204345	9.4	ND	ND	ND	ND	0	0
75909	2018-09-25T20:00:00	33.9	ND	ND	ND	3.119922108	9.5	ND	ND	ND	ND	0	0
75910	2018-09-25T21:00:00	14.9	ND	ND	ND	4.039184872	9.8	ND	ND	ND	ND	0	0
75911	2018-09-25T22:00:00	36.5	ND	ND	ND	3.523840595	5.2	ND	ND	ND	ND	0	0
75912	2018-09-25T23:00:00	56	ND	ND	ND	4.150610661	3.0	ND	ND	ND	ND	0	0
75913	2018-09-26T00:00:00	56.4	ND	ND	ND	3.927759082	4.1	ND	ND	ND	ND	0	0
75914	2018-09-26T01:00:00	41.6	ND	ND	ND	4.48488803	5.1	ND	ND	ND	ND	0	0
75915	2018-09-26T02:00:00	54.1	ND	ND	ND	4.429175135	4.9	ND	ND	ND	ND	0	0
75916	2018-09-26T03:00:00	59.1	ND	ND	ND	3.621338161	4.2	ND	ND	ND	ND	0	0
75917	2018-09-26T04:00:00	63.3	ND	ND	ND	3.690979279	5.2	ND	ND	ND	ND	0	0
75918	2018-09-26T05:00:00	60.8	ND	ND	ND	4.10882599	4.3	ND	ND	ND	ND	0	0
75919	2018-09-26T06:00:00	86.7	ND	ND	ND	3.760620398	2.7	ND	ND	ND	ND	0	0
75920	2018-09-26T07:00:00	101.1	ND	ND	ND	5.111658096	3.1	ND	ND	ND	ND	108.5	0
75921	2018-09-26T08:00:00	114.9	ND	ND	ND	4.498816254	4.4	ND	ND	ND	ND	523.3	0
75922	2018-09-26T09:00:00	98.2	ND	ND	ND	4.652026714	5.5	ND	ND	ND	ND	429.7	0
75923	2018-09-26T10:00:00	79.5	ND	ND	ND	3.105993884	10.7	ND	ND	ND	ND	647.8	0
75924	2018-09-26T11:00:00	76	ND	ND	ND	3.663122832	22.6	ND	ND	ND	ND	648.7	0
75925	2018-09-26T12:00:00	90.1	ND	ND	ND	3.398486582	37.7	ND	ND	ND	ND	648.8	0
75926	2018-09-26T13:00:00	107.9	ND	ND	ND	3.983471977	36.8	ND	ND	ND	ND	583.3	0
75927	2018-09-26T14:00:00	73.6	ND	ND	ND	4.011328424	15.4	ND	ND	ND	ND	176.9	0
75928	2018-09-26T15:00:00	34.4	ND	ND	ND	3.663122832	9.3	ND	ND	ND	ND	462	0
75929	2018-09-26T16:00:00	58.4	ND	ND	ND	3.649194608	11.8	ND	ND	ND	ND	596.4	0
75930	2018-09-26T17:00:00	57.9	ND	ND	ND	3.607409937	12.6	ND	ND	ND	ND	358.9	0
75931	2018-09-26T18:00:00	49.1	ND	ND	ND	3.454199477	12.4	ND	ND	ND	ND	74.4	0
75932	2018-09-26T19:00:00	33.3	ND	ND	ND	3.147778555	11.9	ND	ND	ND	ND	0	0
75933	2018-09-26T20:00:00	20.9	ND	ND	ND	3.356701911	11.9	ND	ND	ND	ND	0	0
75934	2018-09-26T21:00:00	15.2	ND	ND	ND	2.702075397	8.6	ND	ND	ND	ND	0	0
75935	2018-09-26T22:00:00	21.4	ND	ND	ND	1.880310199	8.7	ND	ND	ND	ND	0	0
75936	2018-09-26T23:00:00	13.3	ND	ND	ND	3.217419674	9.6	ND	ND	ND	ND	0	0
75937	2018-09-27T00:00:00	11.7	ND	ND	ND	1.699243291	9.7	ND	ND	ND	ND	0	0
75938	2018-09-27T01:00:00	15.3	ND	ND	ND	4.554529148	6.7	ND	ND	ND	ND	0	0
75939	2018-09-27T02:00:00	33.1	ND	ND	ND	3.509912371	5.9	ND	ND	ND	ND	0	0
75940	2018-09-27T03:00:00	38.3	ND	ND	ND	4.192395332	4.9	ND	ND	ND	ND	0	0.51
75941	2018-09-27T04:00:00	26.5	ND	ND	ND	3.997400201	3.4	ND	ND	ND	ND	0	0
75942	2018-09-27T05:00:00	17.7	ND	ND	ND	2.534936713	4.0	ND	ND	ND	ND	0	0
75943	2018-09-27T06:00:00	31.8	ND	ND	ND	6.100561979	3.3	ND	ND	ND	ND	0	0
75944	2018-09-27T07:00:00	80.2	ND	ND	ND	5.01416053	3.4	ND	ND	ND	ND	96.1	0
75945	2018-09-27T08:00:00	85	ND	ND	ND	4.331677569	3.9	ND	ND	ND	ND	335.1	0
75946	2018-09-27T09:00:00	93.4	ND	ND	ND	5.835925728	5.9	ND	ND	ND	ND	629.5	0
75947	2018-09-27T10:00:00	56.1	ND	ND	ND	2.994568095	8.7	ND	ND	ND	ND	647.8	0
75948	2018-09-27T11:00:00	55.6	ND	ND	ND	2.103161778	14.5	ND	ND	ND	ND	648.3	0
75949	2018-09-27T12:00:00	59.1	ND	ND	ND	3.899902635	19.8	ND	ND	ND	ND	648.6	0
75950	2018-09-27T13:00:00	52.2	ND	ND	ND	3.189563226	20.9	ND	ND	ND	ND	644.3	0
75951	2018-09-27T14:00:00	35.4	ND	ND	ND	3.635266385	21.2	ND	ND	ND	ND	532.1	0
75952	2018-09-27T15:00:00	26.8	ND	ND	ND	2.381726252	14.3	ND	ND	ND	ND	632.6	0
75953	2018-09-27T16:00:00	21.4	ND	ND	ND	3.147778555	12.1	ND	ND	ND	ND	631.8	0
75954	2018-09-27T17:00:00	18.7	ND	ND	ND	2.353869805	10.5	ND	ND	ND	ND	545.5	0
75955	2018-09-27T18:00:00	25.5	ND	ND	ND	2.883142305	8.7	ND	ND	ND	ND	66.3	0
75956	2018-09-27T19:00:00	28.2	ND	ND	ND	3.342773687	8.8	ND	ND	ND	ND	0	0
75957	2018-09-27T20:00:00	31.7	ND	ND	ND	2.869214081	3.6	ND	ND	ND	ND	0	0
75958	2018-09-27T21:00:00	43.8	ND	ND	ND	3.774548621	3.1	ND	ND	ND	ND	0	0
75959	2018-09-27T22:00:00	37.8	ND	ND	ND	2.813501187	3.4	ND	ND	ND	ND	0	0
75960	2018-09-27T23:00:00	39.5	ND	ND	ND	3.398486582	3.4	ND	ND	ND	ND	0	0
75961	2018-09-28T00:00:00	40.6	ND	ND	ND	2.883142305	3.7	ND	ND	ND	ND	0	0
75962	2018-09-28T01:00:00	28.8	ND	ND	ND	2.702075397	3.1	ND	ND	ND	ND	0	0
75963	2018-09-28T02:00:00	27.2	ND	ND	ND	2.437439147	3.0	ND	ND	ND	ND	0	0
75964	2018-09-28T03:00:00	34.9	ND	ND	ND	4.443103359	3.9	ND	ND	ND	ND	0	0
75965	2018-09-28T04:00:00	33	ND	ND	ND	3.4681277	4.7	ND	ND	ND	ND	0	0
75966	2018-09-28T05:00:00	27.6	ND	ND	ND	4.59631382	3.0	ND	ND	ND	ND	0	0
75967	2018-09-28T06:00:00	69.2	ND	ND	ND	3.941687306	3.1	ND	ND	ND	ND	0	0
75968	2018-09-28T07:00:00	93	ND	ND	ND	4.610242043	3.5	ND	ND	ND	ND	51.5	0
75969	2018-09-28T08:00:00	91.9	ND	ND	ND	4.902734741	3.6	ND	ND	ND	ND	287.6	0
75970	2018-09-28T09:00:00	116.9	ND	ND	ND	5.055945201	6.3	ND	ND	ND	ND	641.8	0
75971	2018-09-28T10:00:00	114.8	ND	ND	ND	3.872046187	13.9	ND	ND	ND	ND	648.5	0
75972	2018-09-28T11:00:00	90.6	ND	ND	ND	2.172802897	19.9	ND	ND	ND	ND	622	0
75973	2018-09-28T12:00:00	66.2	ND	ND	ND	2.994568095	31.2	ND	ND	ND	ND	648.5	0
75974	2018-09-28T13:00:00	63.4	ND	ND	ND	4.10882599	29.9	ND	ND	ND	ND	649	0
75975	2018-09-28T14:00:00	67.4	ND	ND	ND	4.178467109	31.8	ND	ND	ND	ND	613.7	0
75976	2018-09-28T15:00:00	52.9	ND	ND	ND	2.729931844	18.0	ND	ND	ND	ND	613.9	0
75977	2018-09-28T16:00:00	30.9	ND	ND	ND	3.57955349	13.2	ND	ND	ND	ND	649	0
75978	2018-09-28T17:00:00	33.6	ND	ND	ND	2.966711647	10.7	ND	ND	ND	ND	545.4	0
75979	2018-09-28T18:00:00	24.3	ND	ND	ND	2.966711647	9.7	ND	ND	ND	ND	226.5	0
75980	2018-09-28T19:00:00	22.6	ND	ND	ND	3.983471977	10.1	ND	ND	ND	ND	0	0
75981	2018-09-28T20:00:00	16.5	ND	ND	ND	2.326013357	9.5	ND	ND	ND	ND	0	0
75982	2018-09-28T21:00:00	25.2	ND	ND	ND	3.147778555	8.8	ND	ND	ND	ND	0	0
75983	2018-09-28T22:00:00	13.1	ND	ND	ND	3.621338161	6.0	ND	ND	ND	ND	0	0
75984	2018-09-28T23:00:00	14	ND	ND	ND	3.31491724	6.9	ND	ND	ND	ND	0	0
75985	2018-09-29T00:00:00	23.7	ND	ND	ND	3.913830858	4.6	ND	ND	ND	ND	0	0
75986	2018-09-29T01:00:00	38.7	ND	ND	ND	2.9388552	6.1	ND	ND	ND	ND	0	0
75987	2018-09-29T02:00:00	42.8	ND	ND	ND	4.582385596	6.9	ND	ND	ND	ND	0	0
75988	2018-09-29T03:00:00	45.5	ND	ND	ND	3.704907503	5.9	ND	ND	ND	ND	0	0
75989	2018-09-29T04:00:00	35.2	ND	ND	ND	3.635266385	5.1	ND	ND	ND	ND	0	0
75990	2018-09-29T05:00:00	28.9	ND	ND	ND	4.275964675	4.2	ND	ND	ND	ND	0	0
75991	2018-09-29T06:00:00	41.1	ND	ND	ND	4.610242043	2.9	ND	ND	ND	ND	0	0
75992	2018-09-29T07:00:00	73.9	ND	ND	ND	3.440271253	3.0	ND	ND	ND	ND	82	0
75993	2018-09-29T08:00:00	89.4	ND	ND	ND	3.746692174	3.9	ND	ND	ND	ND	526.8	0
75994	2018-09-29T09:00:00	109.1	ND	ND	ND	5.668787044	7.6	ND	ND	ND	ND	647.9	0
75995	2018-09-29T10:00:00	95.7	ND	ND	ND	4.331677569	14.6	ND	ND	ND	ND	642.7	0
75996	2018-09-29T11:00:00	79.1	ND	ND	ND	3.440271253	26.6	ND	ND	ND	ND	648.5	0
75997	2018-09-29T12:00:00	86.3	ND	ND	ND	4.331677569	37.5	ND	ND	ND	ND	631.1	0
75998	2018-09-29T13:00:00	85.9	ND	ND	ND	4.679883162	48.0	ND	ND	ND	ND	644	0
75999	2018-09-29T14:00:00	85.5	ND	ND	ND	3.677051056	47.2	ND	ND	ND	ND	634	0
76000	2018-09-29T15:00:00	66.4	ND	ND	ND	2.618506055	17.1	ND	ND	ND	ND	638	0
76001	2018-09-29T16:00:00	52.8	ND	ND	ND	3.607409937	15.8	ND	ND	ND	ND	649.6	0
76002	2018-09-29T17:00:00	32.1	ND	ND	ND	2.534936713	15.5	ND	ND	ND	ND	479.7	0
76003	2018-09-29T18:00:00	23.8	ND	ND	ND	3.384558358	15.2	ND	ND	ND	ND	58.2	0
76004	2018-09-29T19:00:00	17.5	ND	ND	ND	2.743860068	15.1	ND	ND	ND	ND	0	0
76005	2018-09-29T20:00:00	14.7	ND	ND	ND	4.540600925	9.2	ND	ND	ND	ND	0	0
76006	2018-09-29T21:00:00	14.5	ND	ND	ND	3.607409937	7.7	ND	ND	ND	ND	0	0
76007	2018-09-29T22:00:00	16.5	ND	ND	ND	3.175635003	8.4	ND	ND	ND	ND	0	0
76008	2018-09-29T23:00:00	13.9	ND	ND	ND	2.284228686	6.4	ND	ND	ND	ND	0	0
76009	2018-09-30T00:00:00	80.2	ND	ND	ND	4.693811385	4.7	ND	ND	ND	ND	0	0
76010	2018-09-30T01:00:00	114	ND	ND	ND	3.189563226	3.4	ND	ND	ND	ND	0	0
76011	2018-09-30T02:00:00	69	ND	ND	ND	4.025256648	2.9	ND	ND	ND	ND	0	0
76012	2018-09-30T03:00:00	50.7	ND	ND	ND	3.008496318	3.3	ND	ND	ND	ND	0	0
76013	2018-09-30T04:00:00	42.4	ND	ND	ND	4.777380728	3.0	ND	ND	ND	ND	0	0
76014	2018-09-30T05:00:00	44.1	ND	ND	ND	3.690979279	2.7	ND	ND	ND	ND	0	0
76015	2018-09-30T06:00:00	44.2	ND	ND	ND	3.454199477	2.6	ND	ND	ND	ND	0	0
76016	2018-09-30T07:00:00	70.7	ND	ND	ND	4.025256648	2.8	ND	ND	ND	ND	117.4	0
76017	2018-09-30T08:00:00	74.8	ND	ND	ND	4.387390464	4.1	ND	ND	ND	ND	478.3	0
76018	2018-09-30T09:00:00	78.6	ND	ND	ND	3.509912371	8.2	ND	ND	ND	ND	647.6	0
76019	2018-09-30T10:00:00	81	ND	ND	ND	4.178467109	16.2	ND	ND	ND	ND	648.2	0
76020	2018-09-30T11:00:00	82.1	ND	ND	ND	2.521008489	18.7	ND	ND	ND	ND	649	0
76021	2018-09-30T12:00:00	56.9	ND	ND	ND	4.303821122	24.1	ND	ND	ND	ND	648.5	0
76022	2018-09-30T13:00:00	47.4	ND	ND	ND	3.008496318	19.6	ND	ND	ND	ND	648.9	0
76023	2018-09-30T14:00:00	23	ND	ND	ND	3.147778555	16.2	ND	ND	ND	ND	649.2	0
76024	2018-09-30T15:00:00	14.6	ND	ND	ND	2.729931844	15.0	ND	ND	ND	ND	649.2	0
76025	2018-09-30T16:00:00	14	ND	ND	ND	2.980639871	16.2	ND	ND	ND	ND	648.7	0
76026	2018-09-30T17:00:00	5.2	ND	ND	ND	4.094897766	16.5	ND	ND	ND	ND	493.5	0
76027	2018-09-30T18:00:00	1.6	ND	ND	ND	3.189563226	14.8	ND	ND	ND	ND	82.7	0
76028	2018-09-30T19:00:00	ND	ND	ND	ND	3.273132568	12.6	ND	ND	ND	ND	0	0
76029	2018-09-30T20:00:00	16.5	ND	ND	ND	3.426343029	10.5	ND	ND	ND	ND	0	0
76030	2018-09-30T21:00:00	33.3	ND	ND	ND	3.287060792	8.8	ND	ND	ND	ND	0	0
76031	2018-09-30T22:00:00	16.2	ND	ND	ND	3.259204345	7.6	ND	ND	ND	ND	0	0
76032	2018-09-30T23:00:00	14	ND	ND	ND	3.482055924	7.0	ND	ND	ND	ND	0	0
76033	2018-10-01T00:00:00	14.7	ND	ND	ND	3.830261516	6.6	ND	ND	ND	ND	0	0
76034	2018-10-01T01:00:00	15.3	ND	ND	ND	3.189563226	5.96	ND	ND	ND	ND	0	0
76035	2018-10-01T02:00:00	23.1	ND	ND	ND	2.367798028	4.94	ND	ND	ND	ND	0	0
76036	2018-10-01T03:00:00	34	ND	ND	ND	4.986304083	4.18	ND	ND	ND	ND	0	0
76037	2018-10-01T04:00:00	38.1	ND	ND	ND	3.4681277	5.20	ND	ND	ND	ND	0	0
76038	2018-10-01T05:00:00	31.8	ND	ND	ND	3.73276395	3.59	ND	ND	ND	ND	0	0
76039	2018-10-01T06:00:00	21.8	ND	ND	ND	3.551697042	3.39	ND	ND	ND	ND	0	0
76040	2018-10-01T07:00:00	22.9	ND	ND	ND	2.82742941	4.10	ND	ND	ND	ND	86.8	0.76
76041	2018-10-01T08:00:00	30.5	ND	ND	ND	4.053113095	3.71	ND	ND	ND	ND	497.9	0
76042	2018-10-01T09:00:00	61.9	ND	ND	ND	5.055945201	5.28	ND	ND	ND	ND	647.6	0
76043	2018-10-01T10:00:00	62.8	ND	ND	ND	3.830261516	7.53	ND	ND	ND	ND	604	0
76044	2018-10-01T11:00:00	51.9	ND	ND	ND	3.872046187	12.69	ND	ND	ND	ND	648.7	0
76045	2018-10-01T12:00:00	56.8	ND	ND	ND	4.415246911	25.88	ND	ND	ND	ND	648.1	0
76046	2018-10-01T13:00:00	54.2	ND	ND	ND	2.952783423	33.98	ND	ND	ND	ND	645.8	0
76047	2018-10-01T14:00:00	60.1	ND	ND	ND	3.09206566	36.69	ND	ND	ND	ND	644.9	0
76048	2018-10-01T15:00:00	81.5	ND	ND	ND	2.67421895	22.36	ND	ND	ND	ND	560.4	0
76049	2018-10-01T16:00:00	47.1	ND	ND	ND	2.618506055	8.49	ND	ND	ND	ND	629	0
76050	2018-10-01T17:00:00	21.2	ND	ND	ND	3.509912371	6.94	ND	ND	ND	ND	465.3	0
76051	2018-10-01T18:00:00	60.2	ND	ND	ND	ND	5.85	ND	ND	ND	ND	49	0
76052	2018-10-01T19:00:00	ND	ND	ND	ND	ND	5.32	ND	ND	ND	ND	0	0
76053	2018-10-01T20:00:00	ND	ND	ND	ND	ND	5.38	ND	ND	ND	ND	0	0
76054	2018-10-01T21:00:00	35	ND	ND	ND	ND	4.88	ND	ND	ND	ND	0	0
76055	2018-10-01T22:00:00	36.2	ND	ND	ND	ND	3.30	ND	ND	ND	ND	0	0
76056	2018-10-01T23:00:00	53.6	ND	ND	ND	ND	4.75	ND	ND	ND	ND	0	0
76057	2018-10-02T00:00:00	24.6	ND	ND	ND	ND	4.87	ND	ND	ND	ND	0	0
76058	2018-10-02T01:00:00	25.6	ND	ND	ND	ND	3.35	ND	ND	ND	ND	0	0
76059	2018-10-02T02:00:00	42.1	ND	ND	ND	ND	2.59	ND	ND	ND	ND	0	0
76060	2018-10-02T03:00:00	48.5	ND	ND	ND	ND	2.84	ND	ND	ND	ND	0	0
76061	2018-10-02T04:00:00	48.7	ND	ND	ND	ND	3.24	ND	ND	ND	ND	0	0
76062	2018-10-02T05:00:00	38.9	ND	ND	ND	ND	2.79	ND	ND	ND	ND	0	0
76063	2018-10-02T06:00:00	50.5	ND	ND	ND	ND	2.71	ND	ND	ND	ND	0	0
76064	2018-10-02T07:00:00	66.4	ND	ND	ND	ND	2.94	ND	ND	ND	ND	68.2	0
76065	2018-10-02T08:00:00	86.6	ND	ND	ND	ND	3.57	ND	ND	ND	ND	392.8	0
76066	2018-10-02T09:00:00	95.6	ND	ND	ND	ND	4.67	ND	ND	ND	ND	635.3	0
76067	2018-10-02T10:00:00	105.7	ND	ND	ND	ND	10.20	ND	ND	ND	ND	648.7	0
76068	2018-10-02T11:00:00	76.6	ND	ND	ND	ND	16.05	ND	ND	ND	ND	622.5	0
76069	2018-10-02T12:00:00	56.9	ND	ND	ND	ND	22.78	ND	ND	ND	ND	648.9	0
76070	2018-10-02T13:00:00	66.2	ND	ND	ND	ND	27.41	ND	ND	ND	ND	649.1	0
76071	2018-10-02T14:00:00	61	ND	ND	ND	ND	27.52	ND	ND	ND	ND	646.5	0
76072	2018-10-02T15:00:00	54.6	ND	ND	ND	ND	14.16	ND	ND	ND	ND	649.5	0
76073	2018-10-02T16:00:00	39.5	ND	ND	ND	ND	8.26	ND	ND	ND	ND	649.3	0
76074	2018-10-02T17:00:00	31	ND	ND	ND	ND	6.75	ND	ND	ND	ND	476.9	0
76075	2018-10-02T18:00:00	37.4	ND	ND	ND	ND	6.59	ND	ND	ND	ND	95	0
76076	2018-10-02T19:00:00	34	ND	ND	ND	ND	7.26	ND	ND	ND	ND	0	0
76077	2018-10-02T20:00:00	15.6	ND	ND	ND	ND	7.73	ND	ND	ND	ND	0	0
76078	2018-10-02T21:00:00	11.7	ND	ND	ND	ND	7.65	ND	ND	ND	ND	0	0
76079	2018-10-02T22:00:00	20.7	ND	ND	ND	ND	5.96	ND	ND	ND	ND	0	0
76080	2018-10-02T23:00:00	26	ND	ND	ND	ND	2.92	ND	ND	ND	ND	0	0
76081	2018-10-03T00:00:00	26.5	ND	ND	ND	ND	3.98	ND	ND	ND	ND	0	0
76082	2018-10-03T01:00:00	30.3	ND	ND	ND	ND	3.37	ND	ND	ND	ND	0	0
76083	2018-10-03T02:00:00	24.1	ND	ND	ND	ND	3.37	ND	ND	ND	ND	0	0
76084	2018-10-03T03:00:00	26.5	ND	ND	ND	ND	3.41	ND	ND	ND	ND	0	0
76085	2018-10-03T04:00:00	29.3	ND	ND	ND	ND	3.14	ND	ND	ND	ND	0	0
76086	2018-10-03T05:00:00	30.2	ND	ND	ND	ND	2.86	ND	ND	ND	ND	0	0
76087	2018-10-03T06:00:00	53.1	ND	ND	ND	ND	2.83	ND	ND	ND	ND	0	0
76088	2018-10-03T07:00:00	75	ND	ND	ND	ND	3.00	ND	ND	ND	ND	128	0
76089	2018-10-03T08:00:00	78.6	ND	ND	ND	ND	3.79	ND	ND	ND	ND	551.1	0
76090	2018-10-03T09:00:00	83	ND	ND	ND	ND	6.73	ND	ND	ND	ND	647.7	0
76091	2018-10-03T10:00:00	74.9	ND	ND	ND	ND	21.50	ND	ND	ND	ND	648.6	0
76092	2018-10-03T11:00:00	47.8	ND	ND	ND	ND	25.50	ND	ND	ND	ND	627.9	0
76093	2018-10-03T12:00:00	61.7	ND	ND	ND	ND	35.55	ND	ND	ND	ND	648.6	0
76094	2018-10-03T13:00:00	70.6	ND	ND	ND	ND	18.03	ND	ND	ND	ND	545.5	0
76095	2018-10-03T14:00:00	37	ND	ND	ND	ND	9.63	ND	ND	ND	ND	647.8	0
76096	2018-10-03T15:00:00	37.4	ND	ND	ND	ND	8.02	ND	ND	ND	ND	437.2	0
76097	2018-10-03T16:00:00	23.9	ND	ND	ND	ND	6.91	ND	ND	ND	ND	346.9	0
76098	2018-10-03T17:00:00	23.6	ND	ND	ND	3.663122832	6.20	ND	ND	ND	ND	361.3	0
76099	2018-10-03T18:00:00	31.2	ND	ND	ND	2.270300462	5.12	ND	ND	ND	ND	74.7	0
76100	2018-10-03T19:00:00	27.5	ND	ND	ND	3.050280989	5.20	ND	ND	ND	ND	0	0
76101	2018-10-03T20:00:00	23.5	ND	ND	ND	2.312085133	4.79	ND	ND	ND	ND	0	0
76102	2018-10-03T21:00:00	21.7	ND	ND	ND	3.078137437	4.22	ND	ND	ND	ND	0	0
76103	2018-10-03T22:00:00	39.5	ND	ND	ND	5.153442767	3.02	ND	ND	ND	ND	0	0
76104	2018-10-03T23:00:00	60.9	ND	ND	ND	4.415246911	3.90	ND	ND	ND	ND	0	0
76105	2018-10-04T00:00:00	24.4	ND	ND	ND	2.284228686	3.67	ND	ND	ND	ND	0	21.59
76106	2018-10-04T01:00:00	11.9	ND	ND	ND	3.774548621	2.86	ND	ND	ND	ND	0	1.27
76107	2018-10-04T02:00:00	26.2	ND	ND	ND	3.941687306	2.63	ND	ND	ND	ND	0	1.52
76108	2018-10-04T03:00:00	20.2	ND	ND	ND	3.899902635	2.86	ND	ND	ND	ND	0	6.6
76109	2018-10-04T04:00:00	7.9	ND	ND	ND	3.31491724	2.71	ND	ND	ND	ND	0	5.59
76110	2018-10-04T05:00:00	6.6	ND	ND	ND	5.487720136	2.84	ND	ND	ND	ND	0	2.03
76111	2018-10-04T06:00:00	0.3	ND	ND	ND	3.997400201	2.61	ND	ND	ND	ND	0	9.91
76112	2018-10-04T07:00:00	7.6	ND	ND	ND	2.604577831	2.71	ND	ND	ND	ND	14.9	4.32
76113	2018-10-04T08:00:00	24	ND	ND	ND	2.061377107	2.69	ND	ND	ND	ND	136.4	0.76
76114	2018-10-04T09:00:00	27.2	ND	ND	ND	3.816333293	3.02	ND	ND	ND	ND	500.1	0.25
76115	2018-10-04T10:00:00	33.9	ND	ND	ND	4.192395332	4.73	ND	ND	ND	ND	643.1	0
76116	2018-10-04T11:00:00	41.2	ND	ND	ND	3.704907503	7.91	ND	ND	ND	ND	645.3	0
76117	2018-10-04T12:00:00	43.7	ND	ND	ND	4.874878293	11.10	ND	ND	ND	ND	648.8	0
76118	2018-10-04T13:00:00	47.1	ND	ND	ND	4.359534017	15.05	ND	ND	ND	ND	646.2	0
76119	2018-10-04T14:00:00	55.6	ND	ND	ND	2.493152042	16.22	ND	ND	ND	ND	647.9	0
76120	2018-10-04T15:00:00	52	ND	ND	ND	3.565625266	22.03	ND	ND	ND	ND	611.2	0
76121	2018-10-04T16:00:00	62.8	ND	ND	ND	2.646362502	19.19	ND	ND	ND	ND	453.6	0
76122	2018-10-04T17:00:00	49	ND	ND	ND	2.702075397	6.22	ND	ND	ND	ND	336.8	0
76123	2018-10-04T18:00:00	32.6	ND	ND	ND	3.133850332	4.63	ND	ND	ND	ND	86.5	0
76124	2018-10-04T19:00:00	30.2	ND	ND	ND	1.573889278	3.83	ND	ND	ND	ND	0	0
76125	2018-10-04T20:00:00	25	ND	ND	ND	3.482055924	3.71	ND	ND	ND	ND	0	0
76126	2018-10-04T21:00:00	19.7	ND	ND	ND	3.816333293	5.63	ND	ND	ND	ND	0	0
76127	2018-10-04T22:00:00	4.3	ND	ND	ND	3.356701911	6.06	ND	ND	ND	ND	0	0
76128	2018-10-04T23:00:00	6.4	ND	ND	ND	3.287060792	6.34	ND	ND	ND	ND	0	0
76129	2018-10-05T00:00:00	7.9	ND	ND	ND	4.665954938	5.55	ND	ND	ND	ND	0	0
76130	2018-10-05T01:00:00	23.3	ND	ND	ND	3.690979279	3.43	ND	ND	ND	ND	0.1	0
76131	2018-10-05T02:00:00	21.5	ND	ND	ND	3.342773687	5.69	ND	ND	ND	ND	0.1	6.6
76132	2018-10-05T03:00:00	4.7	ND	ND	ND	3.927759082	4.45	ND	ND	ND	ND	0.1	5.84
76133	2018-10-05T04:00:00	6	ND	ND	ND	2.590649607	4.53	ND	ND	ND	ND	0.1	6.1
76134	2018-10-05T05:00:00	1.3	ND	ND	ND	3.57955349	3.30	ND	ND	ND	ND	0.1	0.76
76135	2018-10-05T06:00:00	17.6	ND	ND	ND	2.632434278	2.73	ND	ND	ND	ND	0.3	4.83
76136	2018-10-05T07:00:00	34.5	ND	ND	ND	4.610242043	2.51	ND	ND	ND	ND	71.1	3.05
76137	2018-10-05T08:00:00	23.1	ND	ND	ND	5.167370991	2.57	ND	ND	ND	ND	312.6	0.76
76138	2018-10-05T09:00:00	28.4	ND	ND	ND	3.899902635	3.28	ND	ND	ND	ND	594.6	0.25
76139	2018-10-05T10:00:00	40.1	ND	ND	ND	3.426343029	5.40	ND	ND	ND	ND	644.6	0
76140	2018-10-05T11:00:00	51.6	ND	ND	ND	2.479223818	6.81	ND	ND	ND	ND	643.2	0
76141	2018-10-05T12:00:00	41.3	ND	ND	ND	2.479223818	9.06	ND	ND	ND	ND	632.6	0
76142	2018-10-05T13:00:00	41.9	ND	ND	ND	2.841357634	13.11	ND	ND	ND	ND	648.1	0
76143	2018-10-05T14:00:00	48.4	ND	ND	ND	3.677051056	14.69	ND	ND	ND	ND	642.7	0
76144	2018-10-05T15:00:00	47.4	ND	ND	ND	4.37346224	17.11	ND	ND	ND	ND	455.3	0
76145	2018-10-05T16:00:00	46.5	ND	ND	ND	4.37346224	5.87	ND	ND	ND	ND	430.5	0
76146	2018-10-05T17:00:00	27.7	ND	ND	ND	1.65745862	5.43	ND	ND	ND	ND	229.1	0
76147	2018-10-05T18:00:00	30	ND	ND	ND	2.716003621	4.67	ND	ND	ND	ND	37.8	0
76148	2018-10-05T19:00:00	10.3	ND	ND	ND	3.398486582	4.12	ND	ND	ND	ND	0	0
76149	2018-10-05T20:00:00	5.4	ND	ND	ND	3.412414805	4.45	ND	ND	ND	ND	0	0
76150	2018-10-05T21:00:00	28.5	ND	ND	ND	3.927759082	3.85	ND	ND	ND	ND	0	0
76151	2018-10-05T22:00:00	57.6	ND	ND	ND	4.262036451	2.86	ND	ND	ND	ND	0	0
76152	2018-10-05T23:00:00	53.1	ND	ND	ND	4.805237175	3.10	ND	ND	ND	ND	0	0
76153	2018-10-06T00:00:00	47	ND	ND	ND	4.303821122	3.16	ND	ND	ND	ND	0	0
76154	2018-10-06T01:00:00	17.4	ND	ND	ND	4.136682438	3.00	ND	ND	ND	ND	0	0
76155	2018-10-06T02:00:00	40.5	ND	ND	ND	4.568457372	2.96	ND	ND	ND	ND	0	0
76156	2018-10-06T03:00:00	37.6	ND	ND	ND	4.819165399	4.00	ND	ND	ND	ND	0	0
76157	2018-10-06T04:00:00	5.3	ND	ND	ND	3.872046187	3.65	ND	ND	ND	ND	0	0
76158	2018-10-06T05:00:00	32.5	ND	ND	ND	5.12558632	2.61	ND	ND	ND	ND	0	0
76159	2018-10-06T06:00:00	80.2	ND	ND	ND	3.997400201	2.63	ND	ND	ND	ND	0	0
76160	2018-10-06T07:00:00	83	ND	ND	ND	4.178467109	2.81	ND	ND	ND	ND	127.2	0
76161	2018-10-06T08:00:00	85.7	ND	ND	ND	4.693811385	2.92	ND	ND	ND	ND	482	0
76162	2018-10-06T09:00:00	72.3	ND	ND	ND	2.785644739	4.47	ND	ND	ND	ND	647.2	0
76163	2018-10-06T10:00:00	67	ND	ND	ND	4.011328424	7.40	ND	ND	ND	ND	642.8	0
76164	2018-10-06T11:00:00	67.1	ND	ND	ND	3.133850332	9.71	ND	ND	ND	ND	641.1	0
76165	2018-10-06T12:00:00	61	ND	ND	ND	4.457031583	11.97	ND	ND	ND	ND	648	0
76166	2018-10-06T13:00:00	55.5	ND	ND	ND	3.677051056	15.07	ND	ND	ND	ND	648.5	0
76167	2018-10-06T14:00:00	64.6	ND	ND	ND	1.420678817	15.09	ND	ND	ND	ND	632.9	0
76168	2018-10-06T15:00:00	64.3	ND	ND	ND	2.089233554	11.89	ND	ND	ND	ND	603.7	0
76169	2018-10-06T16:00:00	51.3	ND	ND	ND	3.523840595	9.87	ND	ND	ND	ND	425.8	0
76170	2018-10-06T17:00:00	41.5	ND	ND	ND	3.872046187	6.93	ND	ND	ND	ND	178.3	0
76171	2018-10-06T18:00:00	42.6	ND	ND	ND	3.927759082	5.24	ND	ND	ND	ND	45.6	0
76172	2018-10-06T19:00:00	33.8	ND	ND	ND	3.133850332	3.83	ND	ND	ND	ND	0	0
76173	2018-10-06T20:00:00	35.1	ND	ND	ND	3.941687306	3.39	ND	ND	ND	ND	0	0
76174	2018-10-06T21:00:00	44.7	ND	ND	ND	2.883142305	3.06	ND	ND	ND	ND	0	0
76175	2018-10-06T22:00:00	40.9	ND	ND	ND	4.206323556	3.49	ND	ND	ND	ND	0	0
76176	2018-10-06T23:00:00	37.8	ND	ND	ND	3.635266385	3.32	ND	ND	ND	ND	0	0
76177	2018-10-07T00:00:00	53.7	ND	ND	ND	3.245276121	2.75	ND	ND	ND	ND	0	0
76178	2018-10-07T01:00:00	92.7	ND	ND	ND	4.011328424	3.04	ND	ND	ND	ND	0	0
76179	2018-10-07T02:00:00	83.8	ND	ND	ND	6.309485334	2.92	ND	ND	ND	ND	0	0
76180	2018-10-07T03:00:00	64.1	ND	ND	ND	4.401318688	2.83	ND	ND	ND	ND	0	0
76181	2018-10-07T04:00:00	51.4	ND	ND	ND	4.930591188	2.98	ND	ND	ND	ND	0	0
76182	2018-10-07T05:00:00	47.4	ND	ND	ND	4.164538885	2.83	ND	ND	ND	ND	0	0
76183	2018-10-07T06:00:00	60.7	ND	ND	ND	5.167370991	2.73	ND	ND	ND	ND	0	0
76184	2018-10-07T07:00:00	75.5	ND	ND	ND	4.833093622	2.98	ND	ND	ND	ND	132.8	0
76185	2018-10-07T08:00:00	73.6	ND	ND	ND	5.23701211	3.51	ND	ND	ND	ND	550.7	0
76186	2018-10-07T09:00:00	75.5	ND	ND	ND	2.632434278	4.65	ND	ND	ND	ND	643.5	0
76187	2018-10-07T10:00:00	71.6	ND	ND	ND	2.9388552	5.67	ND	ND	ND	ND	648.1	0
76188	2018-10-07T11:00:00	75.4	ND	ND	ND	3.649194608	8.69	ND	ND	ND	ND	648.2	0
76189	2018-10-07T12:00:00	76.6	ND	ND	ND	3.649194608	16.40	ND	ND	ND	ND	642	0
76190	2018-10-07T13:00:00	86.1	ND	ND	ND	2.646362502	22.62	ND	ND	ND	ND	626.9	0
76191	2018-10-07T14:00:00	82.2	ND	ND	ND	3.482055924	22.05	ND	ND	ND	ND	596.6	0
76192	2018-10-07T15:00:00	71.1	ND	ND	ND	2.144946449	16.46	ND	ND	ND	ND	559.9	0
76193	2018-10-07T16:00:00	46.3	ND	ND	ND	3.245276121	9.55	ND	ND	ND	ND	507.9	0
76194	2018-10-07T17:00:00	31	ND	ND	ND	2.409582699	7.22	ND	ND	ND	ND	518.3	0
76195	2018-10-07T18:00:00	26.6	ND	ND	ND	2.897070529	5.94	ND	ND	ND	ND	95.7	0
76196	2018-10-07T19:00:00	23.3	ND	ND	ND	2.144946449	4.96	ND	ND	ND	ND	0	0
76197	2018-10-07T20:00:00	15.6	ND	ND	ND	3.663122832	5.43	ND	ND	ND	ND	0	0
76198	2018-10-07T21:00:00	7.7	ND	ND	ND	3.133850332	4.71	ND	ND	ND	ND	0	0
76199	2018-10-07T22:00:00	11.7	ND	ND	ND	3.816333293	4.43	ND	ND	ND	ND	0	0
76200	2018-10-07T23:00:00	5.8	ND	ND	ND	3.872046187	4.92	ND	ND	ND	ND	0	0
76201	2018-10-08T00:00:00	13.9	ND	ND	ND	4.248108227	3.73	ND	ND	ND	ND	0	0
76202	2018-10-08T01:00:00	65.5	ND	ND	ND	3.760620398	3.96	ND	ND	ND	ND	0	0.76
76203	2018-10-08T02:00:00	36.1	ND	ND	ND	3.57955349	4.18	ND	ND	ND	ND	0	10.16
76204	2018-10-08T03:00:00	11.4	ND	ND	ND	3.802405069	3.35	ND	ND	ND	ND	0	0
76205	2018-10-08T04:00:00	8.4	ND	ND	ND	4.053113095	3.22	ND	ND	ND	ND	0	1.52
76206	2018-10-08T05:00:00	16	ND	ND	ND	4.777380728	2.96	ND	ND	ND	ND	0	7.62
76207	2018-10-08T06:00:00	1.7	ND	ND	ND	4.679883162	2.65	ND	ND	ND	ND	0	10.16
76208	2018-10-08T07:00:00	16.4	ND	ND	ND	5.334509675	2.57	ND	ND	ND	ND	20	5.08
76209	2018-10-08T08:00:00	22.5	ND	ND	ND	3.022424542	2.65	ND	ND	ND	ND	126	0.51
76210	2018-10-08T09:00:00	40.4	ND	ND	ND	ND	73.18	ND	ND	ND	ND	477.8	0.25
76211	2018-10-08T10:00:00	55.8	ND	ND	ND	ND	3.90	ND	ND	ND	ND	419.8	0
76212	2018-10-08T11:00:00	48.4	ND	ND	ND	ND	2.45	ND	ND	ND	ND	516.1	0
76213	2018-10-08T12:00:00	49.6	ND	ND	ND	ND	2.75	ND	ND	ND	ND	647.9	0
76214	2018-10-08T13:00:00	62.7	ND	ND	ND	ND	2.71	ND	ND	ND	ND	577.5	0
76215	2018-10-08T14:00:00	70.3	ND	ND	ND	ND	3.51	ND	ND	ND	ND	622.8	0
76216	2018-10-08T15:00:00	89.8	ND	ND	ND	ND	4.02	ND	ND	ND	ND	630.6	0
76217	2018-10-08T16:00:00	90.1	ND	ND	ND	ND	5.34	ND	ND	ND	ND	509.2	0
76218	2018-10-08T17:00:00	89.6	ND	ND	ND	ND	4.22	ND	ND	ND	ND	167.2	0
76219	2018-10-08T18:00:00	78.4	ND	ND	ND	ND	3.04	ND	ND	ND	ND	48.9	0
76220	2018-10-08T19:00:00	108	ND	ND	ND	ND	2.86	ND	ND	ND	ND	0	0
76221	2018-10-08T20:00:00	100.9	ND	ND	ND	ND	2.20	ND	ND	ND	ND	0	0
76222	2018-10-08T21:00:00	118.7	ND	ND	ND	ND	2.53	ND	ND	ND	ND	0	0
76223	2018-10-08T22:00:00	113.9	ND	ND	ND	ND	2.26	ND	ND	ND	ND	0	0
76224	2018-10-08T23:00:00	50.7	ND	ND	ND	ND	2.20	ND	ND	ND	ND	0	0
76225	2018-10-09T00:00:00	51.5	ND	ND	ND	ND	1.90	ND	ND	ND	ND	0	0
76226	2018-10-09T01:00:00	41.1	ND	ND	ND	ND	2.22	ND	ND	ND	ND	0	0
76227	2018-10-09T02:00:00	32.2	ND	ND	ND	ND	1.92	ND	ND	ND	ND	0	0
76228	2018-10-09T03:00:00	29.3	ND	ND	ND	ND	1.90	ND	ND	ND	ND	0	0
76229	2018-10-09T04:00:00	37.6	ND	ND	ND	ND	1.86	ND	ND	ND	ND	0	0
76230	2018-10-09T05:00:00	32.8	ND	ND	ND	ND	1.92	ND	ND	ND	ND	0	0
76231	2018-10-09T06:00:00	52.3	ND	ND	ND	ND	2.10	ND	ND	ND	ND	0	0
76232	2018-10-09T07:00:00	90.3	ND	ND	ND	ND	2.16	ND	ND	ND	ND	44.2	0
76233	2018-10-09T08:00:00	128.8	ND	ND	ND	ND	2.33	ND	ND	ND	ND	233.6	0
76234	2018-10-09T09:00:00	155	ND	ND	ND	ND	3.39	ND	ND	ND	ND	432.4	0
76235	2018-10-09T10:00:00	142.1	ND	ND	ND	ND	15.77	ND	ND	ND	ND	645	0
76236	2018-10-09T11:00:00	167.3	ND	ND	ND	ND	26.15	ND	ND	ND	ND	652.5	0
76237	2018-10-09T12:00:00	91.8	ND	ND	ND	ND	5.30	ND	ND	ND	ND	648.5	0
76238	2018-10-09T13:00:00	2.1	ND	ND	ND	ND	4.96	ND	ND	ND	ND	647.9	0
76239	2018-10-09T14:00:00	26	ND	ND	ND	ND	6.32	ND	ND	ND	ND	636.3	0
76240	2018-10-09T15:00:00	37.3	ND	ND	ND	ND	5.38	ND	ND	ND	ND	323.4	0
76241	2018-10-09T16:00:00	39.5	ND	ND	ND	ND	3.90	ND	ND	ND	ND	427.7	0
76242	2018-10-09T17:00:00	34	ND	ND	ND	ND	3.32	ND	ND	ND	ND	494.4	0
76243	2018-10-09T18:00:00	25.7	ND	ND	ND	ND	3.35	ND	ND	ND	ND	89.6	0
76244	2018-10-09T19:00:00	28.2	ND	ND	ND	ND	3.02	ND	ND	ND	ND	0.4	0
76245	2018-10-09T20:00:00	31.3	ND	ND	ND	ND	3.37	ND	ND	ND	ND	0.1	0
76246	2018-10-09T21:00:00	25.1	ND	ND	ND	ND	2.84	ND	ND	ND	ND	0.1	0
76247	2018-10-09T22:00:00	9.6	ND	ND	ND	ND	2.57	ND	ND	ND	ND	0.1	0
76248	2018-10-09T23:00:00	30.2	ND	ND	ND	ND	2.49	ND	ND	ND	ND	0.1	0
76249	2018-10-10T00:00:00	39.8	ND	ND	ND	ND	2.55	ND	ND	ND	ND	0.1	0
76250	2018-10-10T01:00:00	30.9	ND	ND	ND	ND	2.86	ND	ND	ND	ND	0.1	0
76251	2018-10-10T02:00:00	20.8	ND	ND	ND	ND	4.88	ND	ND	ND	ND	0.1	0
76252	2018-10-10T03:00:00	26.5	ND	ND	ND	ND	6.32	ND	ND	ND	ND	0.1	0
76253	2018-10-10T04:00:00	14.7	ND	ND	ND	ND	4.77	ND	ND	ND	ND	0.1	0
76254	2018-10-10T05:00:00	16.5	ND	ND	ND	ND	4.77	ND	ND	ND	ND	0.1	0
76255	2018-10-10T06:00:00	4.2	ND	ND	ND	ND	4.83	ND	ND	ND	ND	0.8	0
76256	2018-10-10T07:00:00	3.7	ND	ND	ND	ND	2.73	ND	ND	ND	ND	88.8	0
76257	2018-10-10T08:00:00	13	ND	ND	ND	ND	3.92	ND	ND	ND	ND	480.8	0
76258	2018-10-10T09:00:00	76.3	ND	ND	ND	ND	6.36	ND	ND	ND	ND	647.4	0
76259	2018-10-10T10:00:00	93.2	ND	ND	ND	ND	7.71	ND	ND	ND	ND	647.7	0
76260	2018-10-10T11:00:00	38.9	ND	ND	ND	ND	13.01	ND	ND	ND	ND	647.5	0
76261	2018-10-10T12:00:00	26.9	ND	ND	ND	ND	21.91	ND	ND	ND	ND	647.5	0
76262	2018-10-10T13:00:00	26.4	ND	ND	ND	ND	27.15	ND	ND	ND	ND	636.1	0
76263	2018-10-10T14:00:00	33.2	ND	ND	ND	ND	16.64	ND	ND	ND	ND	575.1	0
76264	2018-10-10T15:00:00	18.3	ND	ND	ND	ND	7.55	ND	ND	ND	ND	633.8	0
76265	2018-10-10T16:00:00	10.4	ND	ND	ND	ND	6.69	ND	ND	ND	ND	492	0
76266	2018-10-10T17:00:00	ND	ND	ND	ND	ND	6.22	ND	ND	ND	ND	358.4	0
76267	2018-10-10T18:00:00	19.2	ND	ND	ND	ND	6.26	ND	ND	ND	ND	47.8	0
76268	2018-10-10T19:00:00	25.7	ND	ND	ND	ND	6.81	ND	ND	ND	ND	0	0
76269	2018-10-10T20:00:00	53.8	ND	ND	ND	ND	5.49	ND	ND	ND	ND	0	0
76270	2018-10-10T21:00:00	17.9	ND	ND	ND	ND	4.65	ND	ND	ND	ND	0	0
76271	2018-10-10T22:00:00	46	ND	ND	ND	ND	2.41	ND	ND	ND	ND	0	0
76272	2018-10-10T23:00:00	57.4	ND	ND	ND	ND	3.85	ND	ND	ND	ND	0	3.3
76273	2018-10-11T00:00:00	17.7	ND	ND	ND	ND	2.84	ND	ND	ND	ND	0	1.27
76274	2018-10-11T01:00:00	21.1	ND	ND	ND	ND	2.35	ND	ND	ND	ND	0	0
76275	2018-10-11T02:00:00	32.5	ND	ND	ND	ND	1.84	ND	ND	ND	ND	0	7.37
76276	2018-10-11T03:00:00	20.8	ND	ND	ND	ND	1.67	ND	ND	ND	ND	0	8.13
76277	2018-10-11T04:00:00	10.2	ND	ND	ND	ND	1.86	ND	ND	ND	ND	0	1.27
76278	2018-10-11T05:00:00	7	ND	ND	ND	ND	1.59	ND	ND	ND	ND	0	0.25
76279	2018-10-11T06:00:00	14.6	ND	ND	ND	ND	1.59	ND	ND	ND	ND	0	0
76280	2018-10-11T07:00:00	30.5	ND	ND	ND	ND	2.33	ND	ND	ND	ND	74.1	0
76281	2018-10-11T08:00:00	53.5	ND	ND	ND	ND	2.41	ND	ND	ND	ND	232.5	0
76282	2018-10-11T09:00:00	73.1	ND	ND	ND	ND	2.28	ND	ND	ND	ND	553.3	0
76283	2018-10-11T10:00:00	59.1	ND	ND	ND	ND	4.10	ND	ND	ND	ND	636.5	0
76284	2018-10-11T11:00:00	53.1	ND	ND	ND	ND	6.81	ND	ND	ND	ND	647.4	0
76285	2018-10-11T12:00:00	64.7	ND	ND	ND	ND	12.03	ND	ND	ND	ND	647.8	0
76286	2018-10-11T13:00:00	62.5	ND	ND	ND	ND	23.84	ND	ND	ND	ND	648.5	0
76287	2018-10-11T14:00:00	61.8	ND	ND	ND	ND	23.25	ND	ND	ND	ND	647.8	0
76288	2018-10-11T15:00:00	39.2	ND	ND	ND	ND	21.13	ND	ND	ND	ND	647.8	0
76289	2018-10-11T16:00:00	49.2	ND	ND	ND	ND	19.64	ND	ND	ND	ND	481.4	0
76290	2018-10-11T17:00:00	56.7	ND	ND	ND	ND	8.16	ND	ND	ND	ND	255.2	0
76291	2018-10-11T18:00:00	50.4	ND	ND	ND	ND	3.79	ND	ND	ND	ND	69.6	0
76292	2018-10-11T19:00:00	44.2	ND	ND	ND	ND	3.51	ND	ND	ND	ND	0	0
76293	2018-10-11T20:00:00	24	ND	ND	ND	ND	3.22	ND	ND	ND	ND	0	0
76294	2018-10-11T21:00:00	26.3	ND	ND	ND	ND	3.34	ND	ND	ND	ND	0	0
76295	2018-10-11T22:00:00	20.2	ND	ND	ND	ND	3.18	ND	ND	ND	ND	0	0
76296	2018-10-11T23:00:00	16	ND	ND	ND	ND	4.47	ND	ND	ND	ND	0	0
76297	2018-10-12T00:00:00	27.4	ND	ND	ND	ND	2.77	ND	ND	ND	ND	0	0
76298	2018-10-12T01:00:00	57.1	ND	ND	ND	ND	2.10	ND	ND	ND	ND	0	0
76299	2018-10-12T02:00:00	64.9	ND	ND	ND	ND	2.57	ND	ND	ND	ND	0	0
76300	2018-10-12T03:00:00	53.5	ND	ND	ND	ND	2.49	ND	ND	ND	ND	0	0
76301	2018-10-12T04:00:00	49	ND	ND	ND	ND	2.26	ND	ND	ND	ND	0	0
76302	2018-10-12T05:00:00	48.2	ND	ND	ND	ND	2.16	ND	ND	ND	ND	0	0.51
76303	2018-10-12T06:00:00	45.2	ND	ND	ND	ND	1.69	ND	ND	ND	ND	0	0
76304	2018-10-12T07:00:00	43.5	ND	ND	ND	ND	2.41	ND	ND	ND	ND	37.5	1.02
76305	2018-10-12T08:00:00	43.9	ND	ND	ND	ND	2.33	ND	ND	ND	ND	186.7	0
76306	2018-10-12T09:00:00	67.8	ND	ND	ND	ND	2.98	ND	ND	ND	ND	404.5	0
76307	2018-10-12T10:00:00	93.8	ND	ND	ND	ND	3.69	ND	ND	ND	ND	633.6	0
76308	2018-10-12T11:00:00	85.7	ND	ND	ND	ND	6.18	ND	ND	ND	ND	645.6	0
76309	2018-10-12T12:00:00	66.4	ND	ND	ND	ND	13.52	ND	ND	ND	ND	647.7	0
76310	2018-10-12T13:00:00	70.3	ND	ND	ND	ND	26.58	ND	ND	ND	ND	647.9	0
76311	2018-10-12T14:00:00	58.8	ND	ND	ND	ND	11.87	ND	ND	ND	ND	647.5	0
76312	2018-10-12T15:00:00	25.1	ND	ND	ND	ND	5.96	ND	ND	ND	ND	647.8	0
76313	2018-10-12T16:00:00	21.3	ND	ND	ND	ND	5.49	ND	ND	ND	ND	648.2	0
76314	2018-10-12T17:00:00	31.5	ND	ND	ND	ND	4.69	ND	ND	ND	ND	315.7	0
76315	2018-10-12T18:00:00	29	ND	ND	ND	ND	3.88	ND	ND	ND	ND	44.1	0
76316	2018-10-12T19:00:00	37.9	ND	ND	ND	ND	4.12	ND	ND	ND	ND	0	0
76317	2018-10-12T20:00:00	24.4	ND	ND	ND	ND	4.98	ND	ND	ND	ND	0	0
76318	2018-10-12T21:00:00	15	ND	ND	ND	ND	2.75	ND	ND	ND	ND	0	0
76319	2018-10-12T22:00:00	34.5	ND	ND	ND	ND	4.65	ND	ND	ND	ND	0	0
76320	2018-10-12T23:00:00	6.7	ND	ND	ND	ND	4.43	ND	ND	ND	ND	0	0
76321	2018-10-13T00:00:00	15.8	ND	ND	ND	ND	2.45	ND	ND	ND	ND	0	0
76322	2018-10-13T01:00:00	29.8	ND	ND	ND	ND	2.04	ND	ND	ND	ND	0	0
76323	2018-10-13T02:00:00	38.6	ND	ND	ND	ND	1.79	ND	ND	ND	ND	0	0
76324	2018-10-13T03:00:00	43.6	ND	ND	ND	ND	2.02	ND	ND	ND	ND	0	0
76325	2018-10-13T04:00:00	33	ND	ND	ND	ND	1.88	ND	ND	ND	ND	0	0
76326	2018-10-13T05:00:00	30.8	ND	ND	ND	ND	1.82	ND	ND	ND	ND	0	0
76327	2018-10-13T06:00:00	48.7	ND	ND	ND	ND	2.14	ND	ND	ND	ND	0	0
76328	2018-10-13T07:00:00	74.3	ND	ND	ND	ND	1.96	ND	ND	ND	ND	87.5	0
76329	2018-10-13T08:00:00	77.1	ND	ND	ND	ND	2.33	ND	ND	ND	ND	471.1	0
76330	2018-10-13T09:00:00	89.6	ND	ND	ND	ND	3.83	ND	ND	ND	ND	639.3	0
76331	2018-10-13T10:00:00	85.6	ND	ND	ND	ND	6.16	ND	ND	ND	ND	647.4	0
76332	2018-10-13T11:00:00	71	ND	ND	ND	ND	9.04	ND	ND	ND	ND	647.9	0
76333	2018-10-13T12:00:00	50.2	ND	ND	ND	ND	12.95	ND	ND	ND	ND	647.5	0
76334	2018-10-13T13:00:00	49.1	ND	ND	ND	ND	17.28	ND	ND	ND	ND	648	0
76335	2018-10-13T14:00:00	51.8	ND	ND	ND	ND	22.44	ND	ND	ND	ND	644	0
76336	2018-10-13T15:00:00	61.9	ND	ND	ND	ND	25.11	ND	ND	ND	ND	401	0
76337	2018-10-13T16:00:00	39.9	ND	ND	ND	ND	6.40	ND	ND	ND	ND	554.3	0
76338	2018-10-13T17:00:00	18.6	ND	ND	ND	ND	5.00	ND	ND	ND	ND	313.8	0
76339	2018-10-13T18:00:00	17.2	ND	ND	ND	ND	5.20	ND	ND	ND	ND	46	0
76340	2018-10-13T19:00:00	30	ND	ND	ND	ND	4.96	ND	ND	ND	ND	0	0
76341	2018-10-13T20:00:00	31.2	ND	ND	ND	ND	4.00	ND	ND	ND	ND	0	0
76342	2018-10-13T21:00:00	32.7	ND	ND	ND	ND	4.69	ND	ND	ND	ND	0	0
76343	2018-10-13T22:00:00	22.6	ND	ND	ND	ND	3.06	ND	ND	ND	ND	0	0
76344	2018-10-13T23:00:00	48.9	ND	ND	ND	ND	1.94	ND	ND	ND	ND	0	0
76345	2018-10-14T00:00:00	63.1	ND	ND	ND	ND	1.86	ND	ND	ND	ND	0	0
76346	2018-10-14T01:00:00	76.1	ND	ND	ND	ND	2.04	ND	ND	ND	ND	0	0
76347	2018-10-14T02:00:00	65.9	ND	ND	ND	ND	1.75	ND	ND	ND	ND	0	0
76348	2018-10-14T03:00:00	53.9	ND	ND	ND	ND	2.02	ND	ND	ND	ND	0	0
76349	2018-10-14T04:00:00	54	ND	ND	ND	ND	1.96	ND	ND	ND	ND	0	0
76350	2018-10-14T05:00:00	12.8	ND	ND	ND	ND	1.98	ND	ND	ND	ND	0	0
76351	2018-10-14T06:00:00	3.9	ND	ND	ND	ND	1.86	ND	ND	ND	ND	0	0
76352	2018-10-14T07:00:00	16.1	ND	ND	ND	ND	1.92	ND	ND	ND	ND	205.8	0
76353	2018-10-14T08:00:00	99	ND	ND	ND	ND	3.59	ND	ND	ND	ND	635.8	0
76354	2018-10-14T09:00:00	90.1	ND	ND	ND	ND	6.81	ND	ND	ND	ND	648.4	0
76355	2018-10-14T10:00:00	66.6	ND	ND	ND	ND	11.59	ND	ND	ND	ND	647.8	0
76356	2018-10-14T11:00:00	50.8	ND	ND	ND	ND	19.44	ND	ND	ND	ND	647.6	0
76357	2018-10-14T12:00:00	55.6	ND	ND	ND	ND	31.41	ND	ND	ND	ND	647.8	0
76358	2018-10-14T13:00:00	60.4	ND	ND	ND	ND	34.53	ND	ND	ND	ND	648	0
76359	2018-10-14T14:00:00	62.7	ND	ND	ND	ND	21.52	ND	ND	ND	ND	600.8	0
76360	2018-10-14T15:00:00	32.7	ND	ND	ND	ND	9.59	ND	ND	ND	ND	648.5	0
76361	2018-10-14T16:00:00	25.4	ND	ND	ND	ND	9.20	ND	ND	ND	ND	648.3	0
76362	2018-10-14T17:00:00	11.1	ND	ND	ND	ND	8.99	ND	ND	ND	ND	429.8	0
76363	2018-10-14T18:00:00	9	ND	ND	ND	ND	8.49	ND	ND	ND	ND	52.7	0
76364	2018-10-14T19:00:00	20.8	ND	ND	ND	ND	8.53	ND	ND	ND	ND	0	0
76365	2018-10-14T20:00:00	32	ND	ND	ND	ND	7.67	ND	ND	ND	ND	0	0
76366	2018-10-14T21:00:00	36.3	ND	ND	ND	ND	7.02	ND	ND	ND	ND	0	0
76367	2018-10-14T22:00:00	25.3	ND	ND	ND	ND	5.71	ND	ND	ND	ND	0	0
76368	2018-10-14T23:00:00	32.7	ND	ND	ND	ND	3.00	ND	ND	ND	ND	0	0
76369	2018-10-15T00:00:00	56.8	ND	ND	ND	ND	1.92	ND	ND	ND	ND	0	0
76370	2018-10-15T01:00:00	57.1	ND	ND	ND	ND	1.73	ND	ND	ND	ND	0	0
76371	2018-10-15T02:00:00	57.2	ND	ND	ND	ND	2.12	ND	ND	ND	ND	0	0
76372	2018-10-15T03:00:00	63.1	ND	ND	ND	ND	2.02	ND	ND	ND	ND	0	0
76373	2018-10-15T04:00:00	53.9	ND	ND	ND	ND	1.94	ND	ND	ND	ND	0	0
76374	2018-10-15T05:00:00	48.7	ND	ND	ND	ND	2.45	ND	ND	ND	ND	0	0
76375	2018-10-15T06:00:00	57.1	ND	ND	ND	ND	2.18	ND	ND	ND	ND	0	0
76376	2018-10-15T07:00:00	68.9	ND	ND	ND	ND	2.22	ND	ND	ND	ND	105.3	0
76377	2018-10-15T08:00:00	90.5	ND	ND	ND	ND	2.45	ND	ND	ND	ND	288.6	0
76378	2018-10-15T09:00:00	103.8	ND	ND	ND	ND	3.90	ND	ND	ND	ND	595.4	0
76379	2018-10-15T10:00:00	87.2	ND	ND	ND	ND	9.26	ND	ND	ND	ND	647.7	0
76380	2018-10-15T11:00:00	57.1	ND	ND	ND	ND	15.44	ND	ND	ND	ND	620.9	0
76381	2018-10-15T12:00:00	49.8	ND	ND	ND	ND	23.09	ND	ND	ND	ND	644	0
76382	2018-10-15T13:00:00	57	ND	ND	ND	ND	28.41	ND	ND	ND	ND	642.8	0
76383	2018-10-15T14:00:00	52	ND	ND	ND	ND	26.19	ND	ND	ND	ND	593.2	0
76384	2018-10-15T15:00:00	38.1	ND	ND	ND	ND	14.30	ND	ND	ND	ND	648.2	0
76385	2018-10-15T16:00:00	23.9	ND	ND	ND	ND	12.34	ND	ND	ND	ND	646.5	0
76386	2018-10-15T17:00:00	25	ND	ND	ND	ND	9.38	ND	ND	ND	ND	382.2	0
76387	2018-10-15T18:00:00	20.2	ND	ND	ND	ND	6.75	ND	ND	ND	ND	52	0
76388	2018-10-15T19:00:00	17.6	ND	ND	ND	ND	7.79	ND	ND	ND	ND	0	0
76389	2018-10-15T20:00:00	21.2	ND	ND	ND	ND	6.77	ND	ND	ND	ND	0	0
76390	2018-10-15T21:00:00	15.7	ND	ND	ND	ND	6.69	ND	ND	ND	ND	0	0
76391	2018-10-15T22:00:00	8.5	ND	ND	ND	ND	5.92	ND	ND	ND	ND	0	0
76392	2018-10-15T23:00:00	12.1	ND	ND	ND	ND	4.26	ND	ND	ND	ND	0	0
76393	2018-10-16T00:00:00	9.2	ND	ND	ND	ND	4.47	ND	ND	ND	ND	0	0
76394	2018-10-16T01:00:00	29.2	ND	ND	ND	ND	2.02	ND	ND	ND	ND	0	0
76395	2018-10-16T02:00:00	46.7	ND	ND	ND	ND	2.43	ND	ND	ND	ND	0	0
76396	2018-10-16T03:00:00	44.6	ND	ND	ND	ND	2.43	ND	ND	ND	ND	0	0
76397	2018-10-16T04:00:00	47.7	ND	ND	ND	ND	2.26	ND	ND	ND	ND	0	0
76398	2018-10-16T05:00:00	55.6	ND	ND	ND	ND	2.26	ND	ND	ND	ND	0	0
76399	2018-10-16T06:00:00	61	ND	ND	ND	ND	2.26	ND	ND	ND	ND	4.3	0
76400	2018-10-16T07:00:00	84.7	ND	ND	ND	ND	2.75	ND	ND	ND	ND	82.1	0
76401	2018-10-16T08:00:00	134	ND	ND	ND	ND	3.14	ND	ND	ND	ND	514	0
76402	2018-10-16T09:00:00	128	ND	ND	ND	ND	3.86	ND	ND	ND	ND	623.6	0
76403	2018-10-16T10:00:00	84.7	ND	ND	ND	ND	6.43	ND	ND	ND	ND	647.8	0
76404	2018-10-16T11:00:00	88.9	ND	ND	ND	ND	10.06	ND	ND	ND	ND	565	0
76405	2018-10-16T12:00:00	40.7	ND	ND	ND	ND	5.53	ND	ND	ND	ND	468.8	0
76406	2018-10-16T13:00:00	33.5	ND	ND	ND	ND	10.61	ND	ND	ND	ND	648.2	0
76407	2018-10-16T14:00:00	25.2	ND	ND	ND	ND	8.83	ND	ND	ND	ND	647.2	0
76408	2018-10-16T15:00:00	25.4	ND	ND	ND	ND	8.08	ND	ND	ND	ND	647.7	0
76409	2018-10-16T16:00:00	32	ND	ND	ND	ND	7.24	ND	ND	ND	ND	610.3	0
76410	2018-10-16T17:00:00	18.6	ND	ND	ND	ND	7.04	ND	ND	ND	ND	326.8	0
76411	2018-10-16T18:00:00	17.7	ND	ND	ND	ND	6.61	ND	ND	ND	ND	65	0
76412	2018-10-16T19:00:00	16.9	ND	ND	ND	ND	5.14	ND	ND	ND	ND	0	0
76413	2018-10-16T20:00:00	28.8	ND	ND	ND	ND	4.41	ND	ND	ND	ND	0	0
76414	2018-10-16T21:00:00	28.9	ND	ND	ND	ND	3.47	ND	ND	ND	ND	0	0
76415	2018-10-16T22:00:00	55	ND	ND	ND	ND	2.37	ND	ND	ND	ND	0	0
76416	2018-10-16T23:00:00	46.5	ND	ND	ND	ND	2.35	ND	ND	ND	ND	0	0
76417	2018-10-17T00:00:00	60.8	ND	ND	ND	ND	2.67	ND	ND	ND	ND	0	0
76418	2018-10-17T01:00:00	52.2	ND	ND	ND	ND	3.18	ND	ND	ND	ND	0	0
76419	2018-10-17T02:00:00	32.1	ND	ND	ND	ND	3.83	ND	ND	ND	ND	0	0
76420	2018-10-17T03:00:00	30.9	ND	ND	ND	ND	2.61	ND	ND	ND	ND	0	0
76421	2018-10-17T04:00:00	35.9	ND	ND	ND	ND	2.35	ND	ND	ND	ND	0	0
76422	2018-10-17T05:00:00	39.8	ND	ND	ND	ND	2.45	ND	ND	ND	ND	0	0
76423	2018-10-17T06:00:00	37.5	ND	ND	ND	ND	1.98	ND	ND	ND	ND	0	0
76424	2018-10-17T07:00:00	63.1	ND	ND	ND	ND	2.16	ND	ND	ND	ND	103.2	0
76425	2018-10-17T08:00:00	91.6	ND	ND	ND	ND	3.14	ND	ND	ND	ND	357.3	0
76426	2018-10-17T09:00:00	120.8	ND	ND	ND	ND	4.24	ND	ND	ND	ND	644.8	0
76427	2018-10-17T10:00:00	95.3	ND	ND	ND	ND	8.32	ND	ND	ND	ND	645.3	0
76428	2018-10-17T11:00:00	62.5	ND	ND	ND	ND	10.87	ND	ND	ND	ND	628.6	0
76429	2018-10-17T12:00:00	51.5	ND	ND	ND	ND	15.36	ND	ND	ND	ND	618.5	0
76430	2018-10-17T13:00:00	59.3	ND	ND	ND	ND	13.50	ND	ND	ND	ND	598.2	0
76431	2018-10-17T14:00:00	41.9	ND	ND	ND	ND	9.42	ND	ND	ND	ND	613.9	0
76432	2018-10-17T15:00:00	31.2	ND	ND	ND	ND	8.28	ND	ND	ND	ND	470.8	0
76433	2018-10-17T16:00:00	31	ND	ND	ND	ND	6.83	ND	ND	ND	ND	571.9	0
76434	2018-10-17T17:00:00	40.5	ND	ND	ND	ND	5.98	ND	ND	ND	ND	313.2	0
76435	2018-10-17T18:00:00	48.8	ND	ND	ND	ND	3.73	ND	ND	ND	ND	33.3	0
76436	2018-10-17T19:00:00	49.9	ND	ND	ND	ND	4.67	ND	ND	ND	ND	0	0
76437	2018-10-17T20:00:00	35.5	ND	ND	ND	ND	4.00	ND	ND	ND	ND	0	0
76438	2018-10-17T21:00:00	25.8	ND	ND	ND	ND	5.69	ND	ND	ND	ND	0	0
76439	2018-10-17T22:00:00	45.7	ND	ND	ND	ND	5.36	ND	ND	ND	ND	0	0
76440	2018-10-17T23:00:00	17.4	ND	ND	ND	ND	4.04	ND	ND	ND	ND	0	0
76441	2018-10-18T00:00:00	48.1	ND	ND	ND	ND	2.59	ND	ND	ND	ND	0	0
76442	2018-10-18T01:00:00	102.2	ND	ND	ND	ND	2.81	ND	ND	ND	ND	0	0
76443	2018-10-18T02:00:00	51.9	ND	ND	ND	ND	2.77	ND	ND	ND	ND	0	0
76444	2018-10-18T03:00:00	29.2	ND	ND	ND	ND	2.73	ND	ND	ND	ND	0	0
76445	2018-10-18T04:00:00	34	ND	ND	ND	ND	2.59	ND	ND	ND	ND	0	0
76446	2018-10-18T05:00:00	36.6	ND	ND	ND	ND	2.53	ND	ND	ND	ND	0	0
76447	2018-10-18T06:00:00	34.5	ND	ND	ND	ND	2.22	ND	ND	ND	ND	0	0
76448	2018-10-18T07:00:00	57.1	ND	ND	ND	ND	2.35	ND	ND	ND	ND	93	0
76449	2018-10-18T08:00:00	84.1	ND	ND	ND	ND	2.96	ND	ND	ND	ND	298	0
76450	2018-10-18T09:00:00	87.2	ND	ND	ND	ND	3.37	ND	ND	ND	ND	485.8	0
76451	2018-10-18T10:00:00	81.8	ND	ND	ND	ND	4.57	ND	ND	ND	ND	633.1	0
76452	2018-10-18T11:00:00	79.4	ND	ND	ND	ND	5.92	ND	ND	ND	ND	647.8	0
76453	2018-10-18T12:00:00	76.5	ND	ND	ND	ND	10.44	ND	ND	ND	ND	635.2	0
76454	2018-10-18T13:00:00	67	ND	ND	ND	ND	12.63	ND	ND	ND	ND	642.2	0
76455	2018-10-18T14:00:00	32	ND	ND	ND	ND	8.24	ND	ND	ND	ND	636.8	0
76456	2018-10-18T15:00:00	16.6	ND	ND	ND	ND	7.44	ND	ND	ND	ND	648	0
76457	2018-10-18T16:00:00	20	ND	ND	ND	ND	6.16	ND	ND	ND	ND	599.2	0
76458	2018-10-18T17:00:00	19.3	ND	ND	ND	ND	5.53	ND	ND	ND	ND	479.8	0
76459	2018-10-18T18:00:00	27.7	ND	ND	ND	ND	5.10	ND	ND	ND	ND	89.9	0
76460	2018-10-18T19:00:00	29.5	ND	ND	ND	ND	4.98	ND	ND	ND	ND	0	0
76461	2018-10-18T20:00:00	29.2	ND	ND	ND	ND	4.98	ND	ND	ND	ND	0	0
76462	2018-10-18T21:00:00	22.1	ND	ND	ND	ND	4.96	ND	ND	ND	ND	0	0
76463	2018-10-18T22:00:00	17	ND	ND	ND	ND	4.92	ND	ND	ND	ND	0	0
76464	2018-10-18T23:00:00	21	ND	ND	ND	ND	3.08	ND	ND	ND	ND	0	4.06
76465	2018-10-19T00:00:00	47.6	ND	ND	ND	ND	2.20	ND	ND	ND	ND	0	1.27
76466	2018-10-19T01:00:00	33.4	ND	ND	ND	ND	2.22	ND	ND	ND	ND	0	0
76467	2018-10-19T02:00:00	36.7	ND	ND	ND	ND	2.45	ND	ND	ND	ND	0	0
76468	2018-10-19T03:00:00	30.8	ND	ND	ND	ND	2.49	ND	ND	ND	ND	0	0
76469	2018-10-19T04:00:00	42.8	ND	ND	ND	ND	2.55	ND	ND	ND	ND	0	0
76470	2018-10-19T05:00:00	45.6	ND	ND	ND	ND	2.57	ND	ND	ND	ND	0	0
76471	2018-10-19T06:00:00	44.9	ND	ND	ND	ND	2.53	ND	ND	ND	ND	0	0
76472	2018-10-19T07:00:00	59.1	ND	ND	ND	ND	2.65	ND	ND	ND	ND	192.6	0
76473	2018-10-19T08:00:00	51.5	ND	ND	ND	ND	2.65	ND	ND	ND	ND	612.7	0
76474	2018-10-19T09:00:00	80.2	ND	ND	ND	ND	3.53	ND	ND	ND	ND	560.1	0
76475	2018-10-19T10:00:00	72.6	ND	ND	ND	ND	4.36	ND	ND	ND	ND	647.8	0
76476	2018-10-19T11:00:00	56.9	ND	ND	ND	ND	6.36	ND	ND	ND	ND	647.5	0
76477	2018-10-19T12:00:00	60.2	ND	ND	ND	ND	8.71	ND	ND	ND	ND	647.6	0
76478	2018-10-19T13:00:00	64.2	ND	ND	ND	ND	11.12	ND	ND	ND	ND	647.9	0
76479	2018-10-19T14:00:00	65.2	ND	ND	ND	ND	10.55	ND	ND	ND	ND	637.3	0
76480	2018-10-19T15:00:00	54.9	ND	ND	ND	ND	12.12	ND	ND	ND	ND	601.1	0
76481	2018-10-19T16:00:00	53.6	ND	ND	ND	ND	8.95	ND	ND	ND	ND	616.6	0
76482	2018-10-19T17:00:00	44.1	ND	ND	ND	ND	6.71	ND	ND	ND	ND	400.7	0
76483	2018-10-19T18:00:00	38.6	ND	ND	ND	ND	5.06	ND	ND	ND	ND	107.6	0
76484	2018-10-19T19:00:00	36.9	ND	ND	ND	ND	3.96	ND	ND	ND	ND	0	0
76485	2018-10-19T20:00:00	33.7	ND	ND	ND	ND	4.24	ND	ND	ND	ND	0	0
76486	2018-10-19T21:00:00	21.8	ND	ND	ND	ND	4.55	ND	ND	ND	ND	0	0
76487	2018-10-19T22:00:00	12.1	ND	ND	ND	ND	3.85	ND	ND	ND	ND	0	0
76488	2018-10-19T23:00:00	14.3	ND	ND	ND	ND	4.51	ND	ND	ND	ND	0	0
76489	2018-10-20T00:00:00	9.9	ND	ND	ND	ND	4.63	ND	ND	ND	ND	0	0
76490	2018-10-20T01:00:00	7.4	ND	ND	ND	ND	4.08	ND	ND	ND	ND	0	0
76491	2018-10-20T02:00:00	27.3	ND	ND	ND	ND	4.47	ND	ND	ND	ND	0	0
76492	2018-10-20T03:00:00	33.7	ND	ND	ND	ND	4.30	ND	ND	ND	ND	0	0.51
76493	2018-10-20T04:00:00	27.3	ND	ND	ND	ND	3.04	ND	ND	ND	ND	0	5.59
76494	2018-10-20T05:00:00	25.3	ND	ND	ND	ND	2.35	ND	ND	ND	ND	0	7.11
76495	2018-10-20T06:00:00	38.6	ND	ND	ND	ND	2.41	ND	ND	ND	ND	0	0.51
76496	2018-10-20T07:00:00	36.6	ND	ND	ND	ND	2.41	ND	ND	ND	ND	46.6	0.25
76497	2018-10-20T08:00:00	41.7	ND	ND	ND	ND	2.43	ND	ND	ND	ND	261	0
76498	2018-10-20T09:00:00	57.7	ND	ND	ND	ND	2.63	ND	ND	ND	ND	555.5	0
76499	2018-10-20T10:00:00	65.8	ND	ND	ND	ND	3.26	ND	ND	ND	ND	646.7	0
76500	2018-10-20T11:00:00	60.1	ND	ND	ND	ND	6.24	ND	ND	ND	ND	639.2	0
76501	2018-10-20T12:00:00	50.8	ND	ND	ND	ND	14.91	ND	ND	ND	ND	636.5	0
76502	2018-10-20T13:00:00	61.7	ND	ND	ND	ND	18.17	ND	ND	ND	ND	524.5	0
76503	2018-10-20T14:00:00	71.5	ND	ND	ND	ND	8.79	ND	ND	ND	ND	148	0
76504	2018-10-20T15:00:00	30.7	ND	ND	ND	ND	3.34	ND	ND	ND	ND	134.1	3.81
76505	2018-10-20T16:00:00	29.1	ND	ND	ND	ND	2.65	ND	ND	ND	ND	294.7	0.25
76506	2018-10-20T17:00:00	45.3	ND	ND	ND	ND	2.83	ND	ND	ND	ND	97.9	0
76507	2018-10-20T18:00:00	38.1	ND	ND	ND	ND	2.83	ND	ND	ND	ND	27	0
76508	2018-10-20T19:00:00	23	ND	ND	ND	ND	2.39	ND	ND	ND	ND	0	0
76509	2018-10-20T20:00:00	53.4	ND	ND	ND	ND	2.84	ND	ND	ND	ND	0	0
76510	2018-10-20T21:00:00	66.6	ND	ND	ND	ND	2.51	ND	ND	ND	ND	0	0
76511	2018-10-20T22:00:00	42.1	ND	ND	ND	ND	2.39	ND	ND	ND	ND	0	0
76512	2018-10-20T23:00:00	38.6	ND	ND	ND	ND	2.41	ND	ND	ND	ND	0	0
76513	2018-10-21T00:00:00	62.9	ND	ND	ND	ND	2.41	ND	ND	ND	ND	0	0
76514	2018-10-21T01:00:00	56.1	ND	ND	ND	ND	2.31	ND	ND	ND	ND	0	0
76515	2018-10-21T02:00:00	50.8	ND	ND	ND	ND	2.18	ND	ND	ND	ND	0	0
76516	2018-10-21T03:00:00	31.9	ND	ND	ND	ND	2.12	ND	ND	ND	ND	0	0
76517	2018-10-21T04:00:00	36.1	ND	ND	ND	ND	2.10	ND	ND	ND	ND	0	0
76518	2018-10-21T05:00:00	33.3	ND	ND	ND	ND	2.04	ND	ND	ND	ND	0	0
76519	2018-10-21T06:00:00	51	ND	ND	ND	ND	1.77	ND	ND	ND	ND	0	0
76520	2018-10-21T07:00:00	36.5	ND	ND	ND	ND	2.14	ND	ND	ND	ND	133.5	0
76521	2018-10-21T08:00:00	48.5	ND	ND	ND	ND	2.20	ND	ND	ND	ND	348.1	0
76522	2018-10-21T09:00:00	60.2	ND	ND	ND	ND	2.67	ND	ND	ND	ND	647.9	0
76523	2018-10-21T10:00:00	49.1	ND	ND	ND	ND	3.00	ND	ND	ND	ND	591.4	0
76524	2018-10-21T11:00:00	31.5	ND	ND	ND	ND	3.81	ND	ND	ND	ND	417	0
76525	2018-10-21T12:00:00	31.1	ND	ND	ND	ND	3.88	ND	ND	ND	ND	431.6	0
76526	2018-10-21T13:00:00	31.8	ND	ND	ND	ND	3.45	ND	ND	ND	ND	442.7	7.37
76527	2018-10-21T14:00:00	13	ND	ND	ND	ND	3.73	ND	ND	ND	ND	647.5	0
76528	2018-10-21T15:00:00	19.5	ND	ND	ND	ND	4.37	ND	ND	ND	ND	648	0
76529	2018-10-21T16:00:00	20.8	ND	ND	ND	ND	4.59	ND	ND	ND	ND	569.7	0
76530	2018-10-21T17:00:00	16.6	ND	ND	ND	ND	3.98	ND	ND	ND	ND	348.1	0
76531	2018-10-21T18:00:00	39.9	ND	ND	ND	ND	3.35	ND	ND	ND	ND	57.1	0
76532	2018-10-21T19:00:00	39.4	ND	ND	ND	ND	2.30	ND	ND	ND	ND	0	0
76533	2018-10-21T20:00:00	38.4	ND	ND	ND	ND	2.26	ND	ND	ND	ND	0	0
76534	2018-10-21T21:00:00	29.2	ND	ND	ND	ND	2.79	ND	ND	ND	ND	0	0
76535	2018-10-21T22:00:00	17.6	ND	ND	ND	ND	3.94	ND	ND	ND	ND	0	0
76536	2018-10-21T23:00:00	4.9	ND	ND	ND	ND	3.73	ND	ND	ND	ND	0	0
76537	2018-10-22T00:00:00	2.1	ND	ND	ND	ND	2.18	ND	ND	ND	ND	0	0
76538	2018-10-22T01:00:00	23.1	ND	ND	ND	ND	1.84	ND	ND	ND	ND	0	0
76539	2018-10-22T02:00:00	37.3	ND	ND	ND	ND	2.06	ND	ND	ND	ND	0	0
76540	2018-10-22T03:00:00	35.1	ND	ND	ND	ND	2.20	ND	ND	ND	ND	0	0
76541	2018-10-22T04:00:00	30.6	ND	ND	ND	ND	2.22	ND	ND	ND	ND	0	0
76542	2018-10-22T05:00:00	18.2	ND	ND	ND	ND	2.14	ND	ND	ND	ND	0	0
76543	2018-10-22T06:00:00	14.8	ND	ND	ND	ND	2.02	ND	ND	ND	ND	0	0
76544	2018-10-22T07:00:00	26.2	ND	ND	ND	ND	2.02	ND	ND	ND	ND	44.7	0
76545	2018-10-22T08:00:00	51.2	ND	ND	ND	ND	2.12	ND	ND	ND	ND	209.6	0
76546	2018-10-22T09:00:00	60.5	ND	ND	ND	ND	2.59	ND	ND	ND	ND	581.3	0
76547	2018-10-22T10:00:00	47.7	ND	ND	ND	ND	8.28	ND	ND	ND	ND	647.3	0
76548	2018-10-22T11:00:00	61.6	ND	ND	ND	ND	13.73	ND	ND	ND	ND	649	0
76549	2018-10-22T12:00:00	36.3	ND	ND	ND	ND	33.41	ND	ND	ND	ND	648.8	0
76550	2018-10-22T13:00:00	45.9	ND	ND	ND	ND	58.58	ND	ND	ND	ND	649.4	0
76551	2018-10-22T14:00:00	46.1	ND	ND	ND	ND	65.00	ND	ND	ND	ND	646.2	0
76552	2018-10-22T15:00:00	50.5	ND	ND	ND	ND	47.79	ND	ND	ND	ND	468	0
76553	2018-10-22T16:00:00	66	ND	ND	ND	ND	30.57	ND	ND	ND	ND	373.2	0
76554	2018-10-22T17:00:00	45.3	ND	ND	ND	ND	8.26	ND	ND	ND	ND	248	0
76555	2018-10-22T18:00:00	31.4	ND	ND	ND	ND	5.14	ND	ND	ND	ND	33.2	0
76556	2018-10-22T19:00:00	17.9	ND	ND	ND	ND	4.98	ND	ND	ND	ND	0	0
76557	2018-10-22T20:00:00	6.8	ND	ND	ND	ND	7.32	ND	ND	ND	ND	0	0.25
76558	2018-10-22T21:00:00	11.6	ND	ND	ND	ND	6.14	ND	ND	ND	ND	0	0.25
76559	2018-10-22T22:00:00	12.2	ND	ND	ND	ND	10.28	ND	ND	ND	ND	0	0
76560	2018-10-22T23:00:00	14.1	ND	ND	ND	ND	4.34	ND	ND	ND	ND	0	0
76561	2018-10-23T00:00:00	10.2	ND	ND	ND	ND	7.40	ND	ND	ND	ND	0	0
76562	2018-10-23T01:00:00	15.4	ND	ND	ND	ND	1.80	ND	ND	ND	ND	0	0
76563	2018-10-23T02:00:00	54.2	ND	ND	ND	ND	0.86	ND	ND	ND	ND	0	0
76564	2018-10-23T03:00:00	60.6	ND	ND	ND	ND	0.88	ND	ND	ND	ND	0	0
76565	2018-10-23T04:00:00	42.8	ND	ND	ND	ND	0.75	ND	ND	ND	ND	0	0
76566	2018-10-23T05:00:00	35.9	ND	ND	ND	ND	0.78	ND	ND	ND	ND	0	0
76567	2018-10-23T06:00:00	52.8	ND	ND	ND	ND	1.06	ND	ND	ND	ND	0	0
76568	2018-10-23T07:00:00	56.2	ND	ND	ND	ND	1.33	ND	ND	ND	ND	159.5	0
76569	2018-10-23T08:00:00	60.4	ND	ND	ND	ND	1.92	ND	ND	ND	ND	451	0
76570	2018-10-23T09:00:00	73.5	ND	ND	ND	ND	8.06	ND	ND	ND	ND	641.8	0
76571	2018-10-23T10:00:00	68.5	ND	ND	ND	ND	13.40	ND	ND	ND	ND	640.2	0
76572	2018-10-23T11:00:00	74.5	ND	ND	ND	ND	29.35	ND	ND	ND	ND	649.1	0
76573	2018-10-23T12:00:00	60.9	ND	ND	ND	ND	42.67	ND	ND	ND	ND	648.9	0
76574	2018-10-23T13:00:00	56.8	ND	ND	ND	ND	47.06	ND	ND	ND	ND	472.6	0
76575	2018-10-23T14:00:00	50.4	ND	ND	ND	ND	50.38	ND	ND	ND	ND	573.1	1.27
76576	2018-10-23T15:00:00	46.9	ND	ND	ND	ND	18.70	ND	ND	ND	ND	570.7	0
76577	2018-10-23T16:00:00	35.7	ND	ND	ND	ND	16.71	ND	ND	ND	ND	569.6	0
76578	2018-10-23T17:00:00	33.8	ND	ND	ND	ND	12.52	ND	ND	ND	ND	435.2	0
76579	2018-10-23T18:00:00	22.4	ND	ND	ND	ND	7.08	ND	ND	ND	ND	82.3	0
76580	2018-10-23T19:00:00	9.3	ND	ND	ND	ND	6.02	ND	ND	ND	ND	0	0
76581	2018-10-23T20:00:00	12.9	ND	ND	ND	ND	9.61	ND	ND	ND	ND	0	0
76582	2018-10-23T21:00:00	12.5	ND	ND	ND	ND	11.85	ND	ND	ND	ND	0	0
76583	2018-10-23T22:00:00	5.1	ND	ND	ND	ND	10.93	ND	ND	ND	ND	0	0
76584	2018-10-23T23:00:00	15.6	ND	ND	ND	ND	5.30	ND	ND	ND	ND	0	0
76585	2018-10-24T00:00:00	14.7	ND	ND	ND	ND	5.12	ND	ND	ND	ND	0	0
76586	2018-10-24T01:00:00	25.7	ND	ND	ND	ND	4.98	ND	ND	ND	ND	0	0
76587	2018-10-24T02:00:00	25.6	ND	ND	ND	ND	1.92	ND	ND	ND	ND	0	0
76588	2018-10-24T03:00:00	37.7	ND	ND	ND	ND	1.59	ND	ND	ND	ND	0	0
76589	2018-10-24T04:00:00	40.4	ND	ND	ND	ND	1.26	ND	ND	ND	ND	0	0
76590	2018-10-24T05:00:00	46	ND	ND	ND	ND	1.28	ND	ND	ND	ND	0	0
76591	2018-10-24T06:00:00	62.7	ND	ND	ND	ND	1.20	ND	ND	ND	ND	5.8	0
76592	2018-10-24T07:00:00	91.3	ND	ND	ND	ND	1.43	ND	ND	ND	ND	119.2	0
76593	2018-10-24T08:00:00	83.1	ND	ND	ND	ND	3.08	ND	ND	ND	ND	574.8	0
76594	2018-10-24T09:00:00	101	ND	ND	ND	ND	10.16	ND	ND	ND	ND	645.3	0
76595	2018-10-24T10:00:00	98.5	ND	ND	ND	ND	14.71	ND	ND	ND	ND	648.8	0
76596	2018-10-24T11:00:00	81	ND	ND	ND	ND	22.64	ND	ND	ND	ND	649.1	0
76597	2018-10-24T12:00:00	60.4	ND	ND	ND	ND	33.65	ND	ND	ND	ND	591.8	0
76598	2018-10-24T13:00:00	56.6	ND	ND	ND	ND	27.09	ND	ND	ND	ND	620	0
76599	2018-10-24T14:00:00	38	ND	ND	ND	ND	21.64	ND	ND	ND	ND	596.7	0
76600	2018-10-24T15:00:00	21.4	ND	ND	ND	ND	9.20	ND	ND	ND	ND	525.1	0
76601	2018-10-24T16:00:00	26.4	ND	ND	ND	ND	6.16	ND	ND	ND	ND	280.4	0
76602	2018-10-24T17:00:00	31.1	ND	ND	ND	ND	3.37	ND	ND	ND	ND	232.7	0
76603	2018-10-24T18:00:00	36.3	ND	ND	ND	ND	3.88	ND	ND	ND	ND	39.3	0
76604	2018-10-24T19:00:00	26.3	ND	ND	ND	ND	3.18	ND	ND	ND	ND	0	0
76605	2018-10-24T20:00:00	12.3	ND	ND	ND	ND	2.90	ND	ND	ND	ND	0	0
76606	2018-10-24T21:00:00	31.2	ND	ND	ND	ND	2.57	ND	ND	ND	ND	0	0
76607	2018-10-24T22:00:00	29.5	ND	ND	ND	ND	0.94	ND	ND	ND	ND	0	0
76608	2018-10-24T23:00:00	52.7	ND	ND	ND	ND	0.86	ND	ND	ND	ND	0	0
76609	2018-10-25T00:00:00	53.6	ND	ND	ND	ND	0.78	ND	ND	ND	ND	0	0
76610	2018-10-25T01:00:00	38.5	ND	ND	ND	ND	0.96	ND	ND	ND	ND	0	0
76611	2018-10-25T02:00:00	27.3	ND	ND	ND	ND	2.08	ND	ND	ND	ND	0	0
76612	2018-10-25T03:00:00	30.2	ND	ND	ND	ND	1.26	ND	ND	ND	ND	0	0
76613	2018-10-25T04:00:00	21.3	ND	ND	ND	ND	0.69	ND	ND	ND	ND	0	0
76614	2018-10-25T05:00:00	28.2	ND	ND	ND	ND	0.71	ND	ND	ND	ND	0	0
76615	2018-10-25T06:00:00	45.2	ND	ND	ND	ND	1.22	ND	ND	ND	ND	0	0
76616	2018-10-25T07:00:00	94.9	ND	ND	ND	ND	1.22	ND	ND	ND	ND	97.7	0
76617	2018-10-25T08:00:00	90	ND	ND	ND	ND	2.12	ND	ND	ND	ND	472.3	0
76618	2018-10-25T09:00:00	109	ND	ND	ND	ND	6.40	ND	ND	ND	ND	471.4	0
76619	2018-10-25T10:00:00	130.3	ND	ND	ND	ND	15.18	ND	ND	ND	ND	493.4	0
76620	2018-10-25T11:00:00	127.4	ND	ND	ND	ND	40.28	ND	ND	ND	ND	567.3	0
76621	2018-10-25T12:00:00	84.3	ND	ND	ND	ND	42.12	ND	ND	ND	ND	624.8	0
76622	2018-10-25T13:00:00	68.3	ND	ND	ND	ND	38.29	ND	ND	ND	ND	466.8	2.29
76623	2018-10-25T14:00:00	38.2	ND	ND	ND	ND	15.01	ND	ND	ND	ND	521.7	5.84
76624	2018-10-25T15:00:00	37	ND	ND	ND	ND	13.75	ND	ND	ND	ND	642.9	0
76625	2018-10-25T16:00:00	57.9	ND	ND	ND	ND	16.32	ND	ND	ND	ND	606.1	0
76626	2018-10-25T17:00:00	41.7	ND	ND	ND	ND	11.99	ND	ND	ND	ND	443.7	0
76627	2018-10-25T18:00:00	12.2	ND	ND	ND	ND	7.26	ND	ND	ND	ND	36.2	0
76628	2018-10-25T19:00:00	13.7	ND	ND	ND	ND	3.88	ND	ND	ND	ND	0	0
76629	2018-10-25T20:00:00	17.6	ND	ND	ND	ND	3.69	ND	ND	ND	ND	0	0
76630	2018-10-25T21:00:00	16.8	ND	ND	ND	ND	4.98	ND	ND	ND	ND	0	0
76631	2018-10-25T22:00:00	32.9	ND	ND	ND	ND	2.81	ND	ND	ND	ND	0	0
76632	2018-10-25T23:00:00	56.6	ND	ND	ND	ND	1.31	ND	ND	ND	ND	0	0
76633	2018-10-26T00:00:00	70.6	ND	ND	ND	ND	0.77	ND	ND	ND	ND	0	0
76634	2018-10-26T01:00:00	62.5	ND	ND	ND	ND	0.86	ND	ND	ND	ND	0	0
76635	2018-10-26T02:00:00	53.4	ND	ND	ND	ND	1.24	ND	ND	ND	ND	0	0
76636	2018-10-26T03:00:00	38.9	ND	ND	ND	ND	0.84	ND	ND	ND	ND	0	0
76637	2018-10-26T04:00:00	43.6	ND	ND	ND	ND	0.96	ND	ND	ND	ND	0	0
76638	2018-10-26T05:00:00	39.9	ND	ND	ND	ND	0.96	ND	ND	ND	ND	0	0
76639	2018-10-26T06:00:00	41.8	ND	ND	ND	ND	1.02	ND	ND	ND	ND	0	0
76640	2018-10-26T07:00:00	52.4	ND	ND	ND	ND	1.04	ND	ND	ND	ND	45.4	4.83
76641	2018-10-26T08:00:00	49.1	ND	ND	ND	ND	1.65	ND	ND	ND	ND	289	1.02
76642	2018-10-26T09:00:00	52	ND	ND	ND	ND	4.55	ND	ND	ND	ND	515.5	0.25
76643	2018-10-26T10:00:00	66.7	ND	ND	ND	ND	17.58	ND	ND	ND	ND	648.4	0
76644	2018-10-26T11:00:00	74	ND	ND	ND	ND	44.20	ND	ND	ND	ND	649	0
76645	2018-10-26T12:00:00	70.2	ND	ND	ND	ND	62.46	ND	ND	ND	ND	649.1	0
76646	2018-10-26T13:00:00	56	ND	ND	ND	ND	64.70	ND	ND	ND	ND	644.6	0
76647	2018-10-26T14:00:00	41.6	ND	ND	ND	ND	37.53	ND	ND	ND	ND	494.3	0
76648	2018-10-26T15:00:00	21.1	ND	ND	ND	ND	43.30	ND	ND	ND	ND	520.9	0
76649	2018-10-26T16:00:00	40.8	ND	ND	ND	ND	14.87	ND	ND	ND	ND	530.5	0
76650	2018-10-26T17:00:00	25.7	ND	ND	ND	ND	14.26	ND	ND	ND	ND	370.2	0
76651	2018-10-26T18:00:00	11.8	ND	ND	ND	ND	10.22	ND	ND	ND	ND	84.6	0
76652	2018-10-26T19:00:00	16.1	ND	ND	ND	ND	7.81	ND	ND	ND	ND	0	0
76653	2018-10-26T20:00:00	13.5	ND	ND	ND	ND	6.91	ND	ND	ND	ND	0	0
76654	2018-10-26T21:00:00	4.6	ND	ND	ND	ND	6.77	ND	ND	ND	ND	0	0
76655	2018-10-26T22:00:00	9.7	ND	ND	ND	ND	6.67	ND	ND	ND	ND	0	0
76656	2018-10-26T23:00:00	25.1	ND	ND	ND	ND	5.69	ND	ND	ND	ND	0	0.25
76657	2018-10-27T00:00:00	16.7	ND	ND	ND	ND	2.06	ND	ND	ND	ND	0	6.35
76658	2018-10-27T01:00:00	22.8	ND	ND	ND	ND	2.31	ND	ND	ND	ND	0	3.3
76659	2018-10-27T02:00:00	21.7	ND	ND	ND	ND	2.61	ND	ND	ND	ND	0	4.32
76660	2018-10-27T03:00:00	22.7	ND	ND	ND	ND	1.88	ND	ND	ND	ND	0	0.76
76661	2018-10-27T04:00:00	17.4	ND	ND	ND	ND	1.71	ND	ND	ND	ND	0	0.25
76662	2018-10-27T05:00:00	18.2	ND	ND	ND	ND	2.86	ND	ND	ND	ND	0	0
76663	2018-10-27T06:00:00	9.2	ND	ND	ND	ND	1.55	ND	ND	ND	ND	0	0
76664	2018-10-27T07:00:00	23.6	ND	ND	ND	ND	1.24	ND	ND	ND	ND	71.6	0
76665	2018-10-27T08:00:00	48.3	ND	ND	ND	ND	2.94	ND	ND	ND	ND	194.8	0
76666	2018-10-27T09:00:00	56.4	ND	ND	ND	ND	8.91	ND	ND	ND	ND	597.2	0
76667	2018-10-27T10:00:00	73	ND	ND	ND	ND	18.54	ND	ND	ND	ND	648.8	0
76668	2018-10-27T11:00:00	78.5	ND	ND	ND	ND	25.15	ND	ND	ND	ND	648.9	0
76669	2018-10-27T12:00:00	ND	ND	ND	ND	ND	42.53	ND	ND	ND	ND	647.6	0
76670	2018-10-27T13:00:00	26.7	ND	ND	ND	ND	56.05	ND	ND	ND	ND	642.2	0
76671	2018-10-27T14:00:00	71	ND	ND	ND	ND	62.70	ND	ND	ND	ND	625.7	0
76672	2018-10-27T15:00:00	64.2	ND	ND	ND	ND	41.53	ND	ND	ND	ND	290.3	0
76673	2018-10-27T16:00:00	30.6	ND	ND	ND	ND	14.52	ND	ND	ND	ND	354.8	0
76674	2018-10-27T17:00:00	23.3	ND	ND	ND	ND	11.65	ND	ND	ND	ND	470	0
76675	2018-10-27T18:00:00	22.1	ND	ND	ND	ND	7.32	ND	ND	ND	ND	106.2	0
76676	2018-10-27T19:00:00	36.9	ND	ND	ND	ND	2.04	ND	ND	ND	ND	0	0
76677	2018-10-27T20:00:00	63.7	ND	ND	ND	ND	3.61	ND	ND	ND	ND	0	0
76678	2018-10-27T21:00:00	44.1	ND	ND	ND	ND	10.65	ND	ND	ND	ND	0	0
76679	2018-10-27T22:00:00	34.5	ND	ND	ND	ND	6.85	ND	ND	ND	ND	0	0
76680	2018-10-27T23:00:00	37.6	ND	ND	ND	ND	4.73	ND	ND	ND	ND	0	0
76681	2018-10-28T00:00:00	36.3	ND	ND	ND	ND	4.88	ND	ND	ND	ND	0	0
76682	2018-10-28T01:00:00	27.6	ND	ND	ND	ND	5.02	ND	ND	ND	ND	0	0
76683	2018-10-28T02:00:00	28.5	ND	ND	ND	ND	1.65	ND	ND	ND	ND	0	0
76684	2018-10-28T03:00:00	40.5	ND	ND	ND	ND	1.39	ND	ND	ND	ND	0	0
76685	2018-10-28T04:00:00	41.5	ND	ND	ND	ND	1.73	ND	ND	ND	ND	0	0
76686	2018-10-28T05:00:00	37.6	ND	ND	ND	ND	1.33	ND	ND	ND	ND	0	0
76687	2018-10-28T06:00:00	32.9	ND	ND	ND	ND	1.20	ND	ND	ND	ND	0	0
76688	2018-10-28T07:00:00	58	ND	ND	ND	ND	1.73	ND	ND	ND	ND	111.3	0
76689	2018-10-28T08:00:00	67.3	ND	ND	ND	ND	4.67	ND	ND	ND	ND	509.3	0
76690	2018-10-28T09:00:00	85.5	ND	ND	ND	ND	15.30	ND	ND	ND	ND	647.8	0
76691	2018-10-28T10:00:00	51.9	ND	ND	ND	ND	27.72	ND	ND	ND	ND	647.7	0
76692	2018-10-28T11:00:00	51.9	ND	ND	ND	ND	40.32	ND	ND	ND	ND	647.8	0
76693	2018-10-28T12:00:00	38.9	ND	ND	ND	ND	44.14	ND	ND	ND	ND	643.9	0
76694	2018-10-28T13:00:00	36.1	ND	ND	ND	ND	55.50	ND	ND	ND	ND	634.8	0
76695	2018-10-28T14:00:00	36.2	ND	ND	ND	ND	61.76	ND	ND	ND	ND	637.6	0
76696	2018-10-28T15:00:00	40.2	ND	ND	ND	ND	47.36	ND	ND	ND	ND	517.3	0
76697	2018-10-28T16:00:00	24.8	ND	ND	ND	ND	22.33	ND	ND	ND	ND	456.3	0
76698	2018-10-28T17:00:00	12.5	ND	ND	ND	ND	15.97	ND	ND	ND	ND	236.7	0
76699	2018-10-28T18:00:00	1.9	ND	ND	ND	ND	11.97	ND	ND	ND	ND	49.9	0
76700	2018-10-28T19:00:00	8.3	ND	ND	ND	ND	11.14	ND	ND	ND	ND	0	0
76701	2018-10-28T20:00:00	10.6	ND	ND	ND	ND	10.95	ND	ND	ND	ND	0	0
76702	2018-10-28T21:00:00	14.9	ND	ND	ND	ND	9.44	ND	ND	ND	ND	0	0
76703	2018-10-28T22:00:00	19.8	ND	ND	ND	ND	2.49	ND	ND	ND	ND	0	0
76704	2018-10-28T23:00:00	33.5	ND	ND	ND	ND	3.39	ND	ND	ND	ND	0	0
76705	2018-10-29T00:00:00	30.9	ND	ND	ND	ND	3.69	ND	ND	ND	ND	0	0
76706	2018-10-29T01:00:00	25	ND	ND	ND	ND	1.22	ND	ND	ND	ND	0	0
76707	2018-10-29T02:00:00	33.5	ND	ND	ND	ND	1.31	ND	ND	ND	ND	0	0
76708	2018-10-29T03:00:00	37.6	ND	ND	ND	ND	1.84	ND	ND	ND	ND	0	0
76709	2018-10-29T04:00:00	37.1	ND	ND	ND	ND	1.14	ND	ND	ND	ND	0	0
76710	2018-10-29T05:00:00	35.8	ND	ND	ND	ND	1.63	ND	ND	ND	ND	0	0
76711	2018-10-29T06:00:00	30.6	ND	ND	ND	ND	1.33	ND	ND	ND	ND	0	0
76712	2018-10-29T07:00:00	33.2	ND	ND	ND	ND	1.41	ND	ND	ND	ND	111.6	0
76713	2018-10-29T08:00:00	35.7	ND	ND	ND	ND	2.24	ND	ND	ND	ND	465.9	0
76714	2018-10-29T09:00:00	54.3	ND	ND	ND	ND	3.37	ND	ND	ND	ND	410.1	0
76715	2018-10-29T10:00:00	54.9	ND	ND	ND	ND	11.32	ND	ND	ND	ND	647.4	0
76716	2018-10-29T11:00:00	50.8	ND	ND	ND	ND	18.36	ND	ND	ND	ND	647.9	0
76717	2018-10-29T12:00:00	73.3	ND	ND	ND	ND	22.56	ND	ND	ND	ND	635.1	0
76718	2018-10-29T13:00:00	60.8	ND	ND	ND	ND	24.74	ND	ND	ND	ND	414.1	0
76719	2018-10-29T14:00:00	56.9	ND	ND	ND	ND	13.30	ND	ND	ND	ND	138.5	21.84
76720	2018-10-29T15:00:00	19.6	ND	ND	ND	ND	3.61	ND	ND	ND	ND	68.7	10.92
76721	2018-10-29T16:00:00	31.2	ND	ND	ND	ND	2.61	ND	ND	ND	ND	175.7	0.25
76722	2018-10-29T17:00:00	52.9	ND	ND	ND	ND	4.08	ND	ND	ND	ND	200	0
76723	2018-10-29T18:00:00	78.9	ND	ND	ND	ND	2.88	ND	ND	ND	ND	40.8	0
76724	2018-10-29T19:00:00	125.6	ND	ND	ND	ND	2.12	ND	ND	ND	ND	0	0
76725	2018-10-29T20:00:00	128.3	ND	ND	ND	ND	2.02	ND	ND	ND	ND	0	0
76726	2018-10-29T21:00:00	98.4	ND	ND	ND	ND	1.53	ND	ND	ND	ND	0	0
76727	2018-10-29T22:00:00	75	ND	ND	ND	ND	1.57	ND	ND	ND	ND	0	0
76728	2018-10-29T23:00:00	82.2	ND	ND	ND	ND	1.18	ND	ND	ND	ND	0	0
76729	2018-10-30T00:00:00	48.6	ND	ND	ND	ND	1.33	ND	ND	ND	ND	0	0
76730	2018-10-30T01:00:00	60.1	ND	ND	ND	ND	1.02	ND	ND	ND	ND	0	0
76731	2018-10-30T02:00:00	59.8	ND	ND	ND	ND	1.33	ND	ND	ND	ND	0	0
76732	2018-10-30T03:00:00	55.6	ND	ND	ND	ND	1.08	ND	ND	ND	ND	0	0
76733	2018-10-30T04:00:00	42.7	ND	ND	ND	ND	1.12	ND	ND	ND	ND	0	0
76734	2018-10-30T05:00:00	39.1	ND	ND	ND	ND	1.47	ND	ND	ND	ND	0	0
76735	2018-10-30T06:00:00	45.2	ND	ND	ND	ND	1.65	ND	ND	ND	ND	0	0
76736	2018-10-30T07:00:00	60.8	ND	ND	ND	ND	1.06	ND	ND	ND	ND	111.8	0
76737	2018-10-30T08:00:00	120.3	ND	ND	ND	ND	1.63	ND	ND	ND	ND	557.8	0
76738	2018-10-30T09:00:00	131.8	ND	ND	ND	ND	3.86	ND	ND	ND	ND	612.2	0
76739	2018-10-30T10:00:00	117.9	ND	ND	ND	ND	13.30	ND	ND	ND	ND	642.3	0
76740	2018-10-30T11:00:00	72	ND	ND	ND	ND	27.82	ND	ND	ND	ND	641.9	0
76741	2018-10-30T12:00:00	61.5	ND	ND	ND	ND	48.03	ND	ND	ND	ND	645.7	0
76742	2018-10-30T13:00:00	55.6	ND	ND	ND	ND	53.56	ND	ND	ND	ND	640.5	0
76743	2018-10-30T14:00:00	45.2	ND	ND	ND	ND	55.68	ND	ND	ND	ND	645.7	0
76744	2018-10-30T15:00:00	32.8	ND	ND	ND	ND	22.36	ND	ND	ND	ND	647.6	0
76745	2018-10-30T16:00:00	17.8	ND	ND	ND	ND	23.72	ND	ND	ND	ND	641.3	0
76746	2018-10-30T17:00:00	13.8	ND	ND	ND	ND	19.95	ND	ND	ND	ND	348.3	0
76747	2018-10-30T18:00:00	17.6	ND	ND	ND	ND	7.12	ND	ND	ND	ND	39.8	0
76748	2018-10-30T19:00:00	21	ND	ND	ND	ND	3.47	ND	ND	ND	ND	0	0
76749	2018-10-30T20:00:00	26.7	ND	ND	ND	ND	3.94	ND	ND	ND	ND	0	0
76750	2018-10-30T21:00:00	42.7	ND	ND	ND	ND	5.20	ND	ND	ND	ND	0	0
76751	2018-10-30T22:00:00	37.6	ND	ND	ND	ND	4.73	ND	ND	ND	ND	0	0
76752	2018-10-30T23:00:00	37.1	ND	ND	ND	ND	10.18	ND	ND	ND	ND	0	17.78
76753	2018-10-31T00:00:00	24.2	ND	ND	ND	ND	7.91	ND	ND	ND	ND	0	6.86
76754	2018-10-31T01:00:00	10.9	ND	ND	ND	ND	6.08	ND	ND	ND	ND	0	0.25
76755	2018-10-31T02:00:00	29.8	ND	ND	ND	ND	11.63	ND	ND	ND	ND	0	0
76756	2018-10-31T03:00:00	31.2	ND	ND	ND	ND	15.52	ND	ND	ND	ND	0	0
76757	2018-10-31T04:00:00	9.7	ND	ND	ND	ND	14.97	ND	ND	ND	ND	0	0.51
76758	2018-10-31T05:00:00	5.4	ND	ND	ND	ND	13.12	ND	ND	ND	ND	0	0
76759	2018-10-31T06:00:00	16.3	ND	ND	ND	ND	1.18	ND	ND	ND	ND	0	0
76760	2018-10-31T07:00:00	51.3	ND	ND	ND	ND	1.73	ND	ND	ND	ND	277.4	0
76761	2018-10-31T08:00:00	77	ND	ND	ND	ND	4.02	ND	ND	ND	ND	643.4	0
76762	2018-10-31T09:00:00	70.1	ND	ND	ND	ND	9.04	ND	ND	ND	ND	625.5	0
76763	2018-10-31T10:00:00	59.1	ND	ND	ND	ND	18.74	ND	ND	ND	ND	647	0
76764	2018-10-31T11:00:00	44	ND	ND	ND	ND	29.74	ND	ND	ND	ND	647.5	0
76765	2018-10-31T12:00:00	38.7	ND	ND	ND	ND	39.84	ND	ND	ND	ND	645.3	0
76766	2018-10-31T13:00:00	35.3	ND	ND	ND	ND	41.51	ND	ND	ND	ND	640.9	0
76767	2018-10-31T14:00:00	36.2	ND	ND	ND	ND	61.54	ND	ND	ND	ND	554.1	0
76768	2018-10-31T15:00:00	46.7	ND	ND	ND	ND	62.48	ND	ND	ND	ND	375.7	0
76769	2018-10-31T16:00:00	52.1	ND	ND	ND	ND	45.26	ND	ND	ND	ND	487.2	0
76770	2018-10-31T17:00:00	44.6	ND	ND	ND	ND	19.36	ND	ND	ND	ND	433.5	0
76771	2018-10-31T18:00:00	26.4	ND	ND	ND	ND	14.99	ND	ND	ND	ND	34.5	0
76772	2018-10-31T19:00:00	15.6	ND	ND	ND	ND	14.87	ND	ND	ND	ND	0.2	0
76773	2018-10-31T20:00:00	22.8	ND	ND	ND	ND	16.42	ND	ND	ND	ND	0.1	0
76774	2018-10-31T21:00:00	14.5	ND	ND	ND	ND	13.01	ND	ND	ND	ND	0.1	0
76775	2018-10-31T22:00:00	25.8	ND	ND	ND	ND	7.18	ND	ND	ND	ND	0.1	0
76776	2018-10-31T23:00:00	23.7	ND	ND	ND	ND	8.51	ND	ND	ND	ND	0.1	0
76777	2018-11-01T00:00:00	32.6	ND	ND	ND	ND	5.32	ND	ND	ND	ND	0.1	0
76778	2018-11-01T01:00:00	26.9	ND	ND	ND	ND	7.8	ND	ND	ND	ND	0.1	0
76779	2018-11-01T02:00:00	28.6	ND	ND	ND	ND	5.00	ND	ND	ND	ND	0.1	0
76780	2018-11-01T03:00:00	28.9	ND	ND	ND	ND	5.4	ND	ND	ND	ND	0.1	0
76781	2018-11-01T04:00:00	28.3	ND	ND	ND	ND	5.1	ND	ND	ND	ND	0.1	0
76782	2018-11-01T05:00:00	36.8	ND	ND	ND	ND	1.9	ND	ND	ND	ND	0.1	0
76783	2018-11-01T06:00:00	43	ND	ND	ND	ND	1.9	ND	ND	ND	ND	19.9	0
76784	2018-11-01T07:00:00	43.4	ND	ND	ND	ND	1.6	ND	ND	ND	ND	85.2	0
76785	2018-11-01T08:00:00	95.3	ND	ND	ND	ND	1.8	ND	ND	ND	ND	267.8	0
76786	2018-11-01T09:00:00	110.1	ND	ND	ND	ND	3.2	ND	ND	ND	ND	579.5	0
76787	2018-11-01T10:00:00	88.6	ND	ND	ND	ND	8.00	ND	ND	ND	ND	643.4	0
76788	2018-11-01T11:00:00	76.2	ND	ND	ND	ND	20.3	ND	ND	ND	ND	647.3	0
76789	2018-11-01T12:00:00	74.5	ND	ND	ND	ND	41.20	ND	ND	ND	ND	647.9	0
76790	2018-11-01T13:00:00	73.5	ND	ND	ND	ND	76.00	ND	ND	ND	ND	647.4	0
76791	2018-11-01T14:00:00	69.7	ND	ND	ND	ND	103.30	ND	ND	ND	ND	647.7	0
76792	2018-11-01T15:00:00	54.7	ND	ND	ND	ND	26.1	ND	ND	ND	ND	647.8	0
76793	2018-11-01T16:00:00	20.4	ND	ND	ND	ND	17.7	ND	ND	ND	ND	493.1	0
76794	2018-11-01T17:00:00	ND	ND	ND	ND	ND	ND	ND	ND	ND	ND	ND	ND
76795	2018-11-01T18:00:00	8.1	ND	ND	ND	ND	12.7	ND	ND	ND	ND	28.2	0
76796	2018-11-01T19:00:00	57.6	ND	ND	ND	ND	15.6	ND	ND	ND	ND	0	0
76797	2018-11-01T20:00:00	46.3	ND	ND	ND	ND	6.00	ND	ND	ND	ND	0	0
76798	2018-11-01T21:00:00	54.5	ND	ND	ND	ND	7.7	ND	ND	ND	ND	0	0
76799	2018-11-01T22:00:00	41.7	ND	ND	ND	ND	8.9	ND	ND	ND	ND	0	0
76800	2018-11-01T23:00:00	30.9	ND	ND	ND	ND	5.3	ND	ND	ND	ND	0	0
76801	2018-11-02T00:00:00	27.6	ND	ND	ND	ND	5.5	ND	ND	ND	ND	0	0.76
76802	2018-11-02T01:00:00	19.9	ND	ND	ND	ND	5.6	ND	ND	ND	ND	0	0
76803	2018-11-02T02:00:00	30.1	ND	ND	ND	ND	1.1	ND	ND	ND	ND	0	1.02
76804	2018-11-02T03:00:00	35.2	ND	ND	ND	ND	11.8	ND	ND	ND	ND	0	12.95
76805	2018-11-02T04:00:00	12.5	ND	ND	ND	ND	4.9	ND	ND	ND	ND	0	0.76
76806	2018-11-02T05:00:00	10.5	ND	ND	ND	ND	7.8	ND	ND	ND	ND	0	0.25
76807	2018-11-02T06:00:00	10.9	ND	ND	ND	ND	4.6	ND	ND	ND	ND	0	1.02
76808	2018-11-02T07:00:00	13.2	ND	ND	ND	ND	1.9	ND	ND	ND	ND	75.5	0
76809	2018-11-02T08:00:00	162.1	ND	ND	ND	ND	2.6	ND	ND	ND	ND	231.4	0.25
76810	2018-11-02T09:00:00	ND	ND	ND	ND	ND	3.6	ND	ND	ND	ND	233.2	0
76811	2018-11-02T10:00:00	85.3	ND	ND	ND	ND	7.7	ND	ND	ND	ND	360.2	0
76812	2018-11-02T11:00:00	62.1	ND	ND	ND	ND	17.5	ND	ND	ND	ND	640.5	0
76813	2018-11-02T12:00:00	60.4	ND	ND	ND	ND	49.20	ND	ND	ND	ND	647.4	0
76814	2018-11-02T13:00:00	60.6	ND	ND	ND	ND	72.30	ND	ND	ND	ND	642.9	0
76815	2018-11-02T14:00:00	50.9	ND	ND	ND	ND	83.00	ND	ND	ND	ND	631.6	0
76816	2018-11-02T15:00:00	39.1	ND	ND	ND	ND	24.7	ND	ND	ND	ND	614.1	0
76817	2018-11-02T16:00:00	9	ND	ND	ND	ND	19.7	ND	ND	ND	ND	493.9	0
76818	2018-11-02T17:00:00	16.7	ND	ND	ND	ND	16.00	ND	ND	ND	ND	232.7	0
76819	2018-11-02T18:00:00	23.2	ND	ND	ND	ND	15.5	ND	ND	ND	ND	18.6	0
76820	2018-11-02T19:00:00	20.9	ND	ND	ND	ND	14.5	ND	ND	ND	ND	0	0
76821	2018-11-02T20:00:00	17	ND	ND	ND	ND	15.6	ND	ND	ND	ND	0	0
76822	2018-11-02T21:00:00	33.4	ND	ND	ND	ND	9.00	ND	ND	ND	ND	0	0
76823	2018-11-02T22:00:00	34.8	ND	ND	ND	ND	8.6	ND	ND	ND	ND	0	0.25
76824	2018-11-02T23:00:00	26.4	ND	ND	ND	ND	6.9	ND	ND	ND	ND	0	2.54
76825	2018-11-03T00:00:00	25.2	ND	ND	ND	ND	6.9	ND	ND	ND	ND	0	4.57
76826	2018-11-03T01:00:00	9.9	ND	ND	ND	ND	17.3	ND	ND	ND	ND	0	2.29
76827	2018-11-03T02:00:00	9.2	ND	ND	ND	ND	6.4	ND	ND	ND	ND	0	1.27
76828	2018-11-03T03:00:00	12.7	ND	ND	ND	ND	6.7	ND	ND	ND	ND	0	0.25
76829	2018-11-03T04:00:00	16.6	ND	ND	ND	ND	6.3	ND	ND	ND	ND	0	0
76830	2018-11-03T05:00:00	22.2	ND	ND	ND	ND	4.6	ND	ND	ND	ND	0	0.25
76831	2018-11-03T06:00:00	23.9	ND	ND	ND	ND	4.8	ND	ND	ND	ND	0	0
76832	2018-11-03T07:00:00	39.7	ND	ND	ND	ND	2.5	ND	ND	ND	ND	56.9	0
76833	2018-11-03T08:00:00	43.9	ND	ND	ND	ND	2.5	ND	ND	ND	ND	241.8	0
76834	2018-11-03T09:00:00	65.2	ND	ND	ND	ND	4.8	ND	ND	ND	ND	436.5	0
76835	2018-11-03T10:00:00	67.1	ND	ND	ND	ND	15.9	ND	ND	ND	ND	622.3	0
76836	2018-11-03T11:00:00	65	ND	ND	ND	ND	37.40	ND	ND	ND	ND	647.8	0
76837	2018-11-03T12:00:00	60.7	ND	ND	ND	ND	72.00	ND	ND	ND	ND	639.6	0
76838	2018-11-03T13:00:00	61.7	ND	ND	ND	ND	84.00	ND	ND	ND	ND	554.3	0
76839	2018-11-03T14:00:00	64.5	ND	ND	ND	ND	68.70	ND	ND	ND	ND	520.9	0
76840	2018-11-03T15:00:00	51	ND	ND	ND	ND	22.6	ND	ND	ND	ND	302.1	0
76841	2018-11-03T16:00:00	17.2	ND	ND	ND	ND	13.9	ND	ND	ND	ND	330.8	0
76842	2018-11-03T17:00:00	21.2	ND	ND	ND	ND	17.2	ND	ND	ND	ND	507.5	0
76843	2018-11-03T18:00:00	56.1	ND	ND	ND	ND	8.9	ND	ND	ND	ND	66.3	0
76844	2018-11-03T19:00:00	47	ND	ND	ND	ND	5.5	ND	ND	ND	ND	0	0
76845	2018-11-03T20:00:00	54.7	ND	ND	ND	ND	1.9	ND	ND	ND	ND	0	0
76846	2018-11-03T21:00:00	69.4	ND	ND	ND	ND	1.7	ND	ND	ND	ND	0	0
76847	2018-11-03T22:00:00	59.6	ND	ND	ND	ND	1.6	ND	ND	ND	ND	0	0
76848	2018-11-03T23:00:00	59.3	ND	ND	ND	ND	2.3	ND	ND	ND	ND	0	0
76849	2018-11-04T00:00:00	53.7	ND	ND	ND	ND	3.6	ND	ND	ND	ND	0	0
76850	2018-11-04T01:00:00	44.1	ND	ND	ND	ND	6.8	ND	ND	ND	ND	0	0
76851	2018-11-04T02:00:00	34.5	ND	ND	ND	ND	10.7	ND	ND	ND	ND	0	0
76852	2018-11-04T03:00:00	28.6	ND	ND	ND	ND	7.8	ND	ND	ND	ND	0	0
76853	2018-11-04T04:00:00	30.3	ND	ND	ND	ND	3.6	ND	ND	ND	ND	0	2.79
76854	2018-11-04T05:00:00	26.5	ND	ND	ND	ND	4.3	ND	ND	ND	ND	0	2.29
76855	2018-11-04T06:00:00	7.3	ND	ND	ND	ND	5.1	ND	ND	ND	ND	0	3.05
76856	2018-11-04T07:00:00	14.1	ND	ND	ND	ND	3.7	ND	ND	ND	ND	43.3	0.25
76857	2018-11-04T08:00:00	15.6	ND	ND	ND	ND	7.6	ND	ND	ND	ND	254.4	0.25
76858	2018-11-04T09:00:00	28.2	ND	ND	ND	ND	9.00	ND	ND	ND	ND	509.5	0
76859	2018-11-04T10:00:00	32	ND	ND	ND	ND	12.9	ND	ND	ND	ND	609.3	0
76860	2018-11-04T11:00:00	26.4	ND	ND	ND	ND	19.5	ND	ND	ND	ND	647.7	0.25
76861	2018-11-04T12:00:00	30.3	ND	ND	ND	ND	37.90	ND	ND	ND	ND	647.8	0
76862	2018-11-04T13:00:00	44.4	ND	ND	ND	ND	54.90	ND	ND	ND	ND	619.6	0
76863	2018-11-04T14:00:00	33	ND	ND	ND	ND	37.20	ND	ND	ND	ND	451.4	0
76864	2018-11-04T15:00:00	17	ND	ND	ND	ND	25.7	ND	ND	ND	ND	309.3	2.54
76865	2018-11-04T16:00:00	21.5	ND	ND	ND	ND	10.5	ND	ND	ND	ND	201.6	9.14
76866	2018-11-04T17:00:00	18.8	ND	ND	ND	ND	5.3	ND	ND	ND	ND	130.4	0
76867	2018-11-04T18:00:00	29.5	ND	ND	ND	ND	1.9	ND	ND	ND	ND	34.7	0
76868	2018-11-04T19:00:00	38.3	ND	ND	ND	ND	2.2	ND	ND	ND	ND	0	0
76869	2018-11-04T20:00:00	32.6	ND	ND	ND	ND	1.4	ND	ND	ND	ND	0	0.25
76870	2018-11-04T21:00:00	77.4	ND	ND	ND	ND	2.1	ND	ND	ND	ND	0	0
76871	2018-11-04T22:00:00	42	ND	ND	ND	ND	1.3	ND	ND	ND	ND	0	0
76872	2018-11-04T23:00:00	41.3	ND	ND	ND	ND	2.2	ND	ND	ND	ND	0	0.25
76873	2018-11-05T00:00:00	27.3	ND	ND	ND	ND	6.2	ND	ND	ND	ND	0	0.76
76874	2018-11-05T01:00:00	5.2	ND	ND	ND	ND	5.4	ND	ND	ND	ND	0	0
76875	2018-11-05T02:00:00	13.8	ND	ND	ND	ND	6.3	ND	ND	ND	ND	0	0
76876	2018-11-05T03:00:00	17.4	ND	ND	ND	ND	5.4	ND	ND	ND	ND	0	0
76877	2018-11-05T04:00:00	4.4	ND	ND	ND	ND	5.7	ND	ND	ND	ND	0	0.25
76878	2018-11-05T05:00:00	8.1	ND	ND	ND	ND	5.6	ND	ND	ND	ND	0	0
76879	2018-11-05T06:00:00	15.2	ND	ND	ND	ND	4.4	ND	ND	ND	ND	0	0
76880	2018-11-05T07:00:00	26.1	ND	ND	ND	ND	4.3	ND	ND	ND	ND	47.1	0
76881	2018-11-05T08:00:00	24.1	ND	ND	ND	ND	4.4	ND	ND	ND	ND	194.9	0
76882	2018-11-05T09:00:00	31.4	ND	ND	ND	ND	7.9	ND	ND	ND	ND	487	0
76883	2018-11-05T10:00:00	34.2	ND	ND	ND	ND	15.3	ND	ND	ND	ND	647.6	0
76884	2018-11-05T11:00:00	29.8	ND	ND	ND	ND	20.9	ND	ND	ND	ND	647.8	0
76885	2018-11-05T12:00:00	25.5	ND	ND	ND	ND	28.00	ND	ND	ND	ND	529.2	7.11
76886	2018-11-05T13:00:00	18.2	ND	ND	ND	ND	30.1	ND	ND	ND	ND	644.5	2.29
76887	2018-11-05T14:00:00	26.1	ND	ND	ND	ND	31.5	ND	ND	ND	ND	647.6	0.25
76888	2018-11-05T15:00:00	26.5	ND	ND	ND	ND	40.40	ND	ND	ND	ND	641.3	0.25
76889	2018-11-05T16:00:00	40.5	ND	ND	ND	ND	54.00	ND	ND	ND	ND	497.3	0
76890	2018-11-05T17:00:00	19.8	ND	ND	ND	ND	27.5	ND	ND	ND	ND	217.4	0
76891	2018-11-05T18:00:00	30.4	ND	ND	ND	ND	7.4	ND	ND	ND	ND	39.6	0
76892	2018-11-05T19:00:00	21.2	ND	ND	ND	ND	2.3	ND	ND	ND	ND	0	0
76893	2018-11-05T20:00:00	46.4	ND	ND	ND	ND	1.5	ND	ND	ND	ND	0	0
76894	2018-11-05T21:00:00	39.2	ND	ND	ND	ND	1.7	ND	ND	ND	ND	0	0
76895	2018-11-05T22:00:00	30.9	ND	ND	ND	ND	1.3	ND	ND	ND	ND	0	0
76896	2018-11-05T23:00:00	41.1	ND	ND	ND	ND	1.2	ND	ND	ND	ND	0	0
76897	2018-11-06T00:00:00	36.9	ND	ND	ND	ND	2.7	ND	ND	ND	ND	0	0
76898	2018-11-06T01:00:00	27.7	ND	ND	ND	ND	3.00	ND	ND	ND	ND	0	0
76899	2018-11-06T02:00:00	15.6	ND	ND	ND	ND	2.3	ND	ND	ND	ND	0	0
76900	2018-11-06T03:00:00	34.9	ND	ND	ND	ND	1.00	ND	ND	ND	ND	0	0
76901	2018-11-06T04:00:00	56.6	ND	ND	ND	ND	0.90	ND	ND	ND	ND	0	0
76902	2018-11-06T05:00:00	54.4	ND	ND	ND	ND	1.00	ND	ND	ND	ND	0	0
76903	2018-11-06T06:00:00	57.3	ND	ND	ND	ND	1.1	ND	ND	ND	ND	0	0
76904	2018-11-06T07:00:00	76.7	ND	ND	ND	ND	1.5	ND	ND	ND	ND	272.9	0
76905	2018-11-06T08:00:00	61.3	ND	ND	ND	ND	4.4	ND	ND	ND	ND	628.9	0
76906	2018-11-06T09:00:00	57.9	ND	ND	ND	ND	7.7	ND	ND	ND	ND	647.4	0
76907	2018-11-06T10:00:00	93.5	ND	ND	ND	ND	14.8	ND	ND	ND	ND	647.8	0
76908	2018-11-06T11:00:00	82.5	ND	ND	ND	ND	31.00	ND	ND	ND	ND	647.8	0
76909	2018-11-06T12:00:00	90.9	ND	ND	ND	ND	53.30	ND	ND	ND	ND	647.9	0
76910	2018-11-06T13:00:00	84.4	ND	ND	ND	ND	52.20	ND	ND	ND	ND	646	0
76911	2018-11-06T14:00:00	70.4	ND	ND	ND	ND	60.40	ND	ND	ND	ND	636.6	0
76912	2018-11-06T15:00:00	65.8	ND	ND	ND	ND	63.50	ND	ND	ND	ND	444.1	0
76913	2018-11-06T16:00:00	57.1	ND	ND	ND	ND	19.9	ND	ND	ND	ND	424.4	0
76914	2018-11-06T17:00:00	27.9	ND	ND	ND	ND	9.5	ND	ND	ND	ND	224.8	0
76915	2018-11-06T18:00:00	25.1	ND	ND	ND	ND	6.1	ND	ND	ND	ND	37.2	0
76916	2018-11-06T19:00:00	27.3	ND	ND	ND	ND	5.8	ND	ND	ND	ND	0	0
76917	2018-11-06T20:00:00	21.8	ND	ND	ND	ND	4.4	ND	ND	ND	ND	0	0
76918	2018-11-06T21:00:00	36.3	ND	ND	ND	ND	1.6	ND	ND	ND	ND	0	0
76919	2018-11-06T22:00:00	38.4	ND	ND	ND	ND	5.4	ND	ND	ND	ND	0	0
76920	2018-11-06T23:00:00	17.1	ND	ND	ND	ND	2.8	ND	ND	ND	ND	0	0
76921	2018-11-07T00:00:00	22.7	ND	ND	ND	ND	2.00	ND	ND	ND	ND	0	0
76922	2018-11-07T01:00:00	26	ND	ND	ND	ND	1.4	ND	ND	ND	ND	0	0
76923	2018-11-07T02:00:00	38.6	ND	ND	ND	ND	1.2	ND	ND	ND	ND	0	0
76924	2018-11-07T03:00:00	43.3	ND	ND	ND	ND	2.4	ND	ND	ND	ND	0	0
76925	2018-11-07T04:00:00	36.6	ND	ND	ND	ND	2.6	ND	ND	ND	ND	0	0
76926	2018-11-07T05:00:00	30.6	ND	ND	ND	ND	1.2	ND	ND	ND	ND	0	0
76927	2018-11-07T06:00:00	49.8	ND	ND	ND	ND	1.1	ND	ND	ND	ND	0	0
76928	2018-11-07T07:00:00	45	ND	ND	ND	ND	1.6	ND	ND	ND	ND	130.4	0
76929	2018-11-07T08:00:00	56.7	ND	ND	ND	ND	2.8	ND	ND	ND	ND	549.5	0
76930	2018-11-07T09:00:00	63	ND	ND	ND	ND	14.3	ND	ND	ND	ND	647.5	0
76931	2018-11-07T10:00:00	76.8	ND	ND	ND	ND	23.7	ND	ND	ND	ND	555.2	0
76932	2018-11-07T11:00:00	61.2	ND	ND	ND	ND	27.7	ND	ND	ND	ND	634.3	0
76933	2018-11-07T12:00:00	67.1	ND	ND	ND	ND	60.90	ND	ND	ND	ND	647.9	0
76934	2018-11-07T13:00:00	75	ND	ND	ND	ND	85.70	ND	ND	ND	ND	647.4	0
76935	2018-11-07T14:00:00	82.7	ND	ND	ND	ND	78.90	ND	ND	ND	ND	641.5	0
76936	2018-11-07T15:00:00	64.7	ND	ND	ND	ND	58.80	ND	ND	ND	ND	589.6	0
76937	2018-11-07T16:00:00	60.2	ND	ND	ND	ND	20.3	ND	ND	ND	ND	426	0
76938	2018-11-07T17:00:00	30.4	ND	ND	ND	ND	8.8	ND	ND	ND	ND	239.2	0
76939	2018-11-07T18:00:00	2.4	ND	ND	ND	ND	5.8	ND	ND	ND	ND	38.9	0
76940	2018-11-07T19:00:00	26.5	ND	ND	ND	ND	4.3	ND	ND	ND	ND	0	0
76941	2018-11-07T20:00:00	22.9	ND	ND	ND	ND	5.1	ND	ND	ND	ND	0	0
76942	2018-11-07T21:00:00	27.5	ND	ND	ND	ND	3.00	ND	ND	ND	ND	0	0
76943	2018-11-07T22:00:00	49.2	ND	ND	ND	ND	1.2	ND	ND	ND	ND	0	0
76944	2018-11-07T23:00:00	58.8	ND	ND	ND	ND	1.1	ND	ND	ND	ND	0	0
76945	2018-11-08T00:00:00	63.7	ND	ND	ND	ND	1.1	ND	ND	ND	ND	0	0
76946	2018-11-08T01:00:00	44.3	ND	ND	ND	ND	1.00	ND	ND	ND	ND	0	0
76947	2018-11-08T02:00:00	39.2	ND	ND	ND	ND	1.9	ND	ND	ND	ND	0	0
76948	2018-11-08T03:00:00	34.2	ND	ND	ND	ND	1.2	ND	ND	ND	ND	0	0
76949	2018-11-08T04:00:00	34.3	ND	ND	ND	ND	1.1	ND	ND	ND	ND	0	0
76950	2018-11-08T05:00:00	39.7	ND	ND	ND	ND	1.00	ND	ND	ND	ND	0	0
76951	2018-11-08T06:00:00	44.9	ND	ND	ND	ND	0.80	ND	ND	ND	ND	0	0
76952	2018-11-08T07:00:00	61.3	ND	ND	ND	ND	1.1	ND	ND	ND	ND	88.9	0
76953	2018-11-08T08:00:00	87.1	ND	ND	ND	ND	1.4	ND	ND	ND	ND	229.3	0
76954	2018-11-08T09:00:00	118.8	ND	ND	ND	ND	2.9	ND	ND	ND	ND	488.4	0
76955	2018-11-08T10:00:00	93.1	ND	ND	ND	ND	10.00	ND	ND	ND	ND	642.6	0
76956	2018-11-08T11:00:00	71.3	ND	ND	ND	ND	34.50	ND	ND	ND	ND	646.3	0
76957	2018-11-08T12:00:00	61.2	ND	ND	ND	ND	65.00	ND	ND	ND	ND	629.8	0
76958	2018-11-08T13:00:00	65.1	ND	ND	ND	ND	54.70	ND	ND	ND	ND	569.9	0
76959	2018-11-08T14:00:00	56.8	ND	ND	ND	ND	19.7	ND	ND	ND	ND	592	0
76960	2018-11-08T15:00:00	18.5	ND	ND	ND	ND	11.8	ND	ND	ND	ND	644	0
76961	2018-11-08T16:00:00	27.6	ND	ND	ND	ND	8.9	ND	ND	ND	ND	522.4	0
76962	2018-11-08T17:00:00	10.6	ND	ND	ND	ND	8.3	ND	ND	ND	ND	119.5	0
76963	2018-11-08T18:00:00	22.4	ND	ND	ND	ND	16.1	ND	ND	ND	ND	14.8	5.59
76964	2018-11-08T19:00:00	32.7	ND	ND	ND	ND	2.00	ND	ND	ND	ND	0	3.3
76965	2018-11-08T20:00:00	38.2	ND	ND	ND	ND	3.2	ND	ND	ND	ND	0	1.02
76966	2018-11-08T21:00:00	28.9	ND	ND	ND	ND	0.90	ND	ND	ND	ND	0	0.76
76967	2018-11-08T22:00:00	35.3	ND	ND	ND	ND	0.80	ND	ND	ND	ND	0	0.25
76968	2018-11-08T23:00:00	48.2	ND	ND	ND	ND	0.90	ND	ND	ND	ND	0	0
76969	2018-11-09T00:00:00	49.9	ND	ND	ND	ND	0.80	ND	ND	ND	ND	0	0
76970	2018-11-09T01:00:00	56.2	ND	ND	ND	ND	1.8	ND	ND	ND	ND	0	0
76971	2018-11-09T02:00:00	46.9	ND	ND	ND	ND	1.6	ND	ND	ND	ND	0	0
76972	2018-11-09T03:00:00	36.9	ND	ND	ND	ND	2.8	ND	ND	ND	ND	0	0
76973	2018-11-09T04:00:00	27.9	ND	ND	ND	ND	1.7	ND	ND	ND	ND	0	0
76974	2018-11-09T05:00:00	28.6	ND	ND	ND	ND	0.90	ND	ND	ND	ND	0	0
76975	2018-11-09T06:00:00	34.9	ND	ND	ND	ND	1.00	ND	ND	ND	ND	0	0
76976	2018-11-09T07:00:00	61.4	ND	ND	ND	ND	1.1	ND	ND	ND	ND	103.3	0.25
76977	2018-11-09T08:00:00	83.5	ND	ND	ND	ND	1.5	ND	ND	ND	ND	364.3	0
76978	2018-11-09T09:00:00	100.4	ND	ND	ND	ND	3.2	ND	ND	ND	ND	454.3	0
76979	2018-11-09T10:00:00	94.1	ND	ND	ND	ND	10.8	ND	ND	ND	ND	639.3	0
76980	2018-11-09T11:00:00	84.4	ND	ND	ND	ND	33.20	ND	ND	ND	ND	646.9	0
76981	2018-11-09T12:00:00	63.5	ND	ND	ND	ND	57.30	ND	ND	ND	ND	646.2	0
76982	2018-11-09T13:00:00	35.1	ND	ND	ND	ND	35.40	ND	ND	ND	ND	639.7	0
76983	2018-11-09T14:00:00	10.4	ND	ND	ND	ND	10.7	ND	ND	ND	ND	509.5	1.27
76984	2018-11-09T15:00:00	2.3	ND	ND	ND	ND	9.00	ND	ND	ND	ND	341.3	2.79
76985	2018-11-09T16:00:00	26.4	ND	ND	ND	ND	9.3	ND	ND	ND	ND	594	0
76986	2018-11-09T17:00:00	53	ND	ND	ND	ND	4.6	ND	ND	ND	ND	334	0
76987	2018-11-09T18:00:00	51.2	ND	ND	ND	ND	4.2	ND	ND	ND	ND	56.9	0
76988	2018-11-09T19:00:00	45.8	ND	ND	ND	ND	1.2	ND	ND	ND	ND	0	0
76989	2018-11-09T20:00:00	51	ND	ND	ND	ND	1.1	ND	ND	ND	ND	0	0
76990	2018-11-09T21:00:00	54.6	ND	ND	ND	ND	1.3	ND	ND	ND	ND	0	0
76991	2018-11-09T22:00:00	62.9	ND	ND	ND	ND	0.90	ND	ND	ND	ND	0	0
76992	2018-11-09T23:00:00	68.2	ND	ND	ND	ND	1.1	ND	ND	ND	ND	0	0
76993	2018-11-10T00:00:00	37.1	ND	ND	ND	ND	0.90	ND	ND	ND	ND	0	0
76994	2018-11-10T01:00:00	22.6	ND	ND	ND	ND	1.1	ND	ND	ND	ND	0	0
76995	2018-11-10T02:00:00	34	ND	ND	ND	ND	1.4	ND	ND	ND	ND	0	0
76996	2018-11-10T03:00:00	36	ND	ND	ND	ND	1.1	ND	ND	ND	ND	0	0
76997	2018-11-10T04:00:00	49.6	ND	ND	ND	ND	0.80	ND	ND	ND	ND	0	0
76998	2018-11-10T05:00:00	52.2	ND	ND	ND	ND	0.80	ND	ND	ND	ND	0	0
76999	2018-11-10T06:00:00	60.8	ND	ND	ND	ND	1.00	ND	ND	ND	ND	0	0
77000	2018-11-10T07:00:00	76.5	ND	ND	ND	ND	1.00	ND	ND	ND	ND	63.5	0
77001	2018-11-10T08:00:00	100.4	ND	ND	ND	ND	1.1	ND	ND	ND	ND	180.2	0
77002	2018-11-10T09:00:00	106.3	ND	ND	ND	ND	2.2	ND	ND	ND	ND	503.6	0
77003	2018-11-10T10:00:00	94.5	ND	ND	ND	ND	8.8	ND	ND	ND	ND	646.7	0
77004	2018-11-10T11:00:00	89.8	ND	ND	ND	ND	22.7	ND	ND	ND	ND	642.8	0
77005	2018-11-10T12:00:00	53	ND	ND	ND	ND	35.20	ND	ND	ND	ND	646.1	0
77006	2018-11-10T13:00:00	42.4	ND	ND	ND	ND	47.40	ND	ND	ND	ND	621.8	0
77007	2018-11-10T14:00:00	48.1	ND	ND	ND	ND	49.40	ND	ND	ND	ND	596.4	0
77008	2018-11-10T15:00:00	56.8	ND	ND	ND	ND	40.10	ND	ND	ND	ND	429.5	0
77009	2018-11-10T16:00:00	49.2	ND	ND	ND	ND	21.3	ND	ND	ND	ND	211	0
77010	2018-11-10T17:00:00	29.6	ND	ND	ND	ND	5.6	ND	ND	ND	ND	189.9	0
77011	2018-11-10T18:00:00	49.5	ND	ND	ND	ND	2.00	ND	ND	ND	ND	36.1	0
77012	2018-11-10T19:00:00	44.6	ND	ND	ND	ND	2.7	ND	ND	ND	ND	0	0
77013	2018-11-10T20:00:00	26.1	ND	ND	ND	ND	2.2	ND	ND	ND	ND	0	0
77014	2018-11-10T21:00:00	22.4	ND	ND	ND	ND	3.4	ND	ND	ND	ND	0	0
77015	2018-11-10T22:00:00	30.3	ND	ND	ND	ND	1.1	ND	ND	ND	ND	0	0
77016	2018-11-10T23:00:00	56.9	ND	ND	ND	ND	1.1	ND	ND	ND	ND	0	0
77017	2018-11-11T00:00:00	62.4	ND	ND	ND	ND	0.90	ND	ND	ND	ND	0	0
77018	2018-11-11T01:00:00	59.3	ND	ND	ND	ND	0.80	ND	ND	ND	ND	0	0
77019	2018-11-11T02:00:00	54	ND	ND	ND	ND	0.70	ND	ND	ND	ND	0	0
77020	2018-11-11T03:00:00	31.4	ND	ND	ND	ND	1.2	ND	ND	ND	ND	0	0
77021	2018-11-11T04:00:00	31.9	ND	ND	ND	ND	1.00	ND	ND	ND	ND	0	0
77022	2018-11-11T05:00:00	21.4	ND	ND	ND	ND	1.00	ND	ND	ND	ND	0	0
77023	2018-11-11T06:00:00	33.9	ND	ND	ND	ND	1.3	ND	ND	ND	ND	0	0
77024	2018-11-11T07:00:00	26.5	ND	ND	ND	ND	1.1	ND	ND	ND	ND	66.3	0
77025	2018-11-11T08:00:00	33.5	ND	ND	ND	ND	1.4	ND	ND	ND	ND	232.6	0
77026	2018-11-11T09:00:00	48	ND	ND	ND	ND	3.8	ND	ND	ND	ND	452.5	0
77027	2018-11-11T10:00:00	50.5	ND	ND	ND	ND	7.8	ND	ND	ND	ND	637.9	0
77028	2018-11-11T11:00:00	47.1	ND	ND	ND	ND	11.6	ND	ND	ND	ND	646.8	0
77029	2018-11-11T12:00:00	40.3	ND	ND	ND	ND	27.6	ND	ND	ND	ND	646.8	0
77030	2018-11-11T13:00:00	39	ND	ND	ND	ND	47.30	ND	ND	ND	ND	646.3	0
77031	2018-11-11T14:00:00	36.2	ND	ND	ND	ND	55.40	ND	ND	ND	ND	624.1	0
77032	2018-11-11T15:00:00	41.1	ND	ND	ND	ND	40.20	ND	ND	ND	ND	368.4	0
77033	2018-11-11T16:00:00	28	ND	ND	ND	ND	31.20	ND	ND	ND	ND	129.2	0
77034	2018-11-11T17:00:00	25.7	ND	ND	ND	ND	10.7	ND	ND	ND	ND	233.6	0
77035	2018-11-11T18:00:00	32.3	ND	ND	ND	ND	4.00	ND	ND	ND	ND	65.1	0
77036	2018-11-11T19:00:00	26.9	ND	ND	ND	ND	3.7	ND	ND	ND	ND	0.3	0
77037	2018-11-11T20:00:00	14.7	ND	ND	ND	ND	5.3	ND	ND	ND	ND	0.1	0
77038	2018-11-11T21:00:00	15.9	ND	ND	ND	ND	4.00	ND	ND	ND	ND	0.1	0
77039	2018-11-11T22:00:00	16.3	ND	ND	ND	ND	2.9	ND	ND	ND	ND	0.1	0
77040	2018-11-11T23:00:00	29	ND	ND	ND	ND	3.4	ND	ND	ND	ND	0.1	0
77041	2018-11-12T00:00:00	23.6	ND	ND	ND	ND	1.4	ND	ND	ND	ND	0.1	0
77042	2018-11-12T01:00:00	34	ND	ND	ND	ND	4.6	ND	ND	ND	ND	0.1	0
77043	2018-11-12T02:00:00	21.3	ND	ND	ND	ND	8.8	ND	ND	ND	ND	0.1	0
77044	2018-11-12T03:00:00	22.7	ND	ND	ND	ND	6.4	ND	ND	ND	ND	0.1	0
77045	2018-11-12T04:00:00	15.8	ND	ND	ND	ND	5.00	ND	ND	ND	ND	0.1	0
77046	2018-11-12T05:00:00	23.9	ND	ND	ND	ND	4.00	ND	ND	ND	ND	0.1	0
77047	2018-11-12T06:00:00	23.6	ND	ND	ND	ND	1.8	ND	ND	ND	ND	2.3	0
77048	2018-11-12T07:00:00	45.5	ND	ND	ND	ND	2.5	ND	ND	ND	ND	221.2	0
77049	2018-11-12T08:00:00	45	ND	ND	ND	ND	4.00	ND	ND	ND	ND	550.5	0
77050	2018-11-12T09:00:00	63.9	ND	ND	ND	ND	7.2	ND	ND	ND	ND	634.4	0
77051	2018-11-12T10:00:00	51	ND	ND	ND	ND	9.9	ND	ND	ND	ND	636.2	0
77052	2018-11-12T11:00:00	56.2	ND	ND	ND	ND	18.9	ND	ND	ND	ND	647	0
77053	2018-11-12T12:00:00	59.4	ND	ND	ND	ND	41.30	ND	ND	ND	ND	646.4	0
77054	2018-11-12T13:00:00	62	ND	ND	ND	ND	53.60	ND	ND	ND	ND	555.1	0
77055	2018-11-12T14:00:00	67.7	ND	ND	ND	ND	51.90	ND	ND	ND	ND	433.9	0
77056	2018-11-12T15:00:00	63.4	ND	ND	ND	ND	47.90	ND	ND	ND	ND	364.9	0
77057	2018-11-12T16:00:00	50.1	ND	ND	ND	ND	22.5	ND	ND	ND	ND	258.5	0
77058	2018-11-12T17:00:00	18.4	ND	ND	ND	ND	12.9	ND	ND	ND	ND	230.9	0
77059	2018-11-12T18:00:00	8.2	ND	ND	ND	ND	10.3	ND	ND	ND	ND	41.7	0
77060	2018-11-12T19:00:00	7.2	ND	ND	ND	ND	8.1	ND	ND	ND	ND	0.1	0
77061	2018-11-12T20:00:00	9.3	ND	ND	ND	ND	9.9	ND	ND	ND	ND	0.1	0
77062	2018-11-12T21:00:00	11.2	ND	ND	ND	ND	2.6	ND	ND	ND	ND	0.1	0
77063	2018-11-12T22:00:00	39.3	ND	ND	ND	ND	1.5	ND	ND	ND	ND	0.1	0
77064	2018-11-12T23:00:00	36.1	ND	ND	ND	ND	0.90	ND	ND	ND	ND	0.1	0
77065	2018-11-13T00:00:00	32.3	ND	ND	ND	ND	1.00	ND	ND	ND	ND	0.1	0
77066	2018-11-13T01:00:00	39.6	ND	ND	ND	ND	0.80	ND	ND	ND	ND	0.1	0
77067	2018-11-13T02:00:00	37.6	ND	ND	ND	ND	0.90	ND	ND	ND	ND	0.1	0
77068	2018-11-13T03:00:00	29.9	ND	ND	ND	ND	0.80	ND	ND	ND	ND	0.1	0
77069	2018-11-13T04:00:00	30	ND	ND	ND	ND	0.70	ND	ND	ND	ND	0.1	0
77070	2018-11-13T05:00:00	25.7	ND	ND	ND	ND	0.70	ND	ND	ND	ND	0.1	0
77071	2018-11-13T06:00:00	57.1	ND	ND	ND	ND	1.4	ND	ND	ND	ND	3.6	0
77072	2018-11-13T07:00:00	61.8	ND	ND	ND	ND	0.80	ND	ND	ND	ND	107.9	0
77073	2018-11-13T08:00:00	69.8	ND	ND	ND	ND	1.3	ND	ND	ND	ND	309.7	0
77074	2018-11-13T09:00:00	90.7	ND	ND	ND	ND	2.9	ND	ND	ND	ND	569	0
77075	2018-11-13T10:00:00	106.5	ND	ND	ND	ND	4.8	ND	ND	ND	ND	646.9	0
77076	2018-11-13T11:00:00	96.1	ND	ND	ND	ND	14.00	ND	ND	ND	ND	647	0
77077	2018-11-13T12:00:00	80.5	ND	ND	ND	ND	24.6	ND	ND	ND	ND	648.4	0
77078	2018-11-13T13:00:00	134.4	ND	ND	ND	ND	47.40	ND	ND	ND	ND	636.2	0
77079	2018-11-13T14:00:00	100.7	ND	ND	ND	ND	28.3	ND	ND	ND	ND	318.4	1.27
77080	2018-11-13T15:00:00	40.8	ND	ND	ND	ND	7.8	ND	ND	ND	ND	233	2.54
77081	2018-11-13T16:00:00	17.4	ND	ND	ND	ND	4.8	ND	ND	ND	ND	75.7	13.46
77082	2018-11-13T17:00:00	18.9	ND	ND	ND	ND	2.6	ND	ND	ND	ND	135	0
77083	2018-11-13T18:00:00	37.5	ND	ND	ND	ND	1.7	ND	ND	ND	ND	29.7	0
77084	2018-11-13T19:00:00	79.1	ND	ND	ND	ND	1.2	ND	ND	ND	ND	0	0
77085	2018-11-13T20:00:00	56.1	ND	ND	ND	ND	1.5	ND	ND	ND	ND	0	0
77086	2018-11-13T21:00:00	41.2	ND	ND	ND	ND	1.3	ND	ND	ND	ND	0	0
77087	2018-11-13T22:00:00	51.1	ND	ND	ND	ND	1.3	ND	ND	ND	ND	0	0
77088	2018-11-13T23:00:00	70.1	ND	ND	ND	ND	1.1	ND	ND	ND	ND	0	0
77089	2018-11-14T00:00:00	67.8	ND	ND	ND	ND	1.00	ND	ND	ND	ND	0	0
77090	2018-11-14T01:00:00	36.7	ND	ND	ND	ND	1.1	ND	ND	ND	ND	0	0
77091	2018-11-14T02:00:00	21.5	ND	ND	ND	ND	1.3	ND	ND	ND	ND	0	0
77092	2018-11-14T03:00:00	18.7	ND	ND	ND	ND	1.6	ND	ND	ND	ND	0	0
77093	2018-11-14T04:00:00	27.3	ND	ND	ND	ND	1.2	ND	ND	ND	ND	0	0
77094	2018-11-14T05:00:00	25.7	ND	ND	ND	ND	1.4	ND	ND	ND	ND	0	0
77095	2018-11-14T06:00:00	22.4	ND	ND	ND	ND	1.1	ND	ND	ND	ND	0	0
77096	2018-11-14T07:00:00	44.4	ND	ND	ND	ND	1.2	ND	ND	ND	ND	103.8	0
77097	2018-11-14T08:00:00	74.1	ND	ND	ND	ND	2.4	ND	ND	ND	ND	413.5	0
77098	2018-11-14T09:00:00	88.5	ND	ND	ND	ND	5.6	ND	ND	ND	ND	616.8	0
77099	2018-11-14T10:00:00	81.4	ND	ND	ND	ND	17.7	ND	ND	ND	ND	650.1	0
77100	2018-11-14T11:00:00	85.7	ND	ND	ND	ND	29.7	ND	ND	ND	ND	647.7	0
77101	2018-11-14T12:00:00	65.6	ND	ND	ND	ND	37.70	ND	ND	ND	ND	376.1	0
77102	2018-11-14T13:00:00	43.9	ND	ND	ND	ND	14.3	ND	ND	ND	ND	560.2	0
77103	2018-11-14T14:00:00	23.1	ND	ND	ND	ND	17.4	ND	ND	ND	ND	650.5	0
77104	2018-11-14T15:00:00	24.8	ND	ND	ND	ND	16.5	ND	ND	ND	ND	582.6	0
77105	2018-11-14T16:00:00	18.8	ND	ND	ND	ND	12.00	ND	ND	ND	ND	168.6	0
77106	2018-11-14T17:00:00	19.7	ND	ND	ND	ND	7.7	ND	ND	ND	ND	78.5	0
77107	2018-11-14T18:00:00	39.1	ND	ND	ND	ND	8.1	ND	ND	ND	ND	24.6	0
77108	2018-11-14T19:00:00	47.1	ND	ND	ND	ND	5.3	ND	ND	ND	ND	0	0
77109	2018-11-14T20:00:00	41.7	ND	ND	ND	ND	3.6	ND	ND	ND	ND	0	0
77110	2018-11-14T21:00:00	44.3	ND	ND	ND	ND	2.6	ND	ND	ND	ND	0	0
77111	2018-11-14T22:00:00	41.9	ND	ND	ND	ND	1.3	ND	ND	ND	ND	0	0
77112	2018-11-14T23:00:00	61.8	ND	ND	ND	ND	1.00	ND	ND	ND	ND	0	0
77113	2018-11-15T00:00:00	59.2	ND	ND	ND	ND	3.4	ND	ND	ND	ND	0	0
77114	2018-11-15T01:00:00	45.8	ND	ND	ND	ND	1.00	ND	ND	ND	ND	0	0
77115	2018-11-15T02:00:00	63.2	ND	ND	ND	ND	1.1	ND	ND	ND	ND	0	0
77116	2018-11-15T03:00:00	46	ND	ND	ND	ND	1.1	ND	ND	ND	ND	0	0
77117	2018-11-15T04:00:00	34.8	ND	ND	ND	ND	1.00	ND	ND	ND	ND	0	0
77118	2018-11-15T05:00:00	40.7	ND	ND	ND	ND	1.00	ND	ND	ND	ND	0	0
77119	2018-11-15T06:00:00	45	ND	ND	ND	ND	1.4	ND	ND	ND	ND	0	0
77120	2018-11-15T07:00:00	85.7	ND	ND	ND	ND	1.1	ND	ND	ND	ND	113	0
77121	2018-11-15T08:00:00	123	ND	ND	ND	ND	2.3	ND	ND	ND	ND	638.4	0
77122	2018-11-15T09:00:00	141.9	ND	ND	ND	ND	9.8	ND	ND	ND	ND	640.6	0
77123	2018-11-15T10:00:00	116.8	ND	ND	ND	ND	23.9	ND	ND	ND	ND	626.8	0
77124	2018-11-15T11:00:00	91	ND	ND	ND	ND	33.70	ND	ND	ND	ND	581.1	0
77125	2018-11-15T12:00:00	73.6	ND	ND	ND	ND	59.70	ND	ND	ND	ND	649.8	0
77126	2018-11-15T13:00:00	75.5	ND	ND	ND	ND	67.50	ND	ND	ND	ND	647.7	0
77127	2018-11-15T14:00:00	83.2	ND	ND	ND	ND	61.70	ND	ND	ND	ND	540.8	0
77128	2018-11-15T15:00:00	69.5	ND	ND	ND	ND	40.40	ND	ND	ND	ND	595.3	0
77129	2018-11-15T16:00:00	37.1	ND	ND	ND	ND	14.3	ND	ND	ND	ND	557.4	0
77130	2018-11-15T17:00:00	34.8	ND	ND	ND	ND	12.4	ND	ND	ND	ND	216.1	0
77131	2018-11-15T18:00:00	26.2	ND	ND	ND	ND	12.1	ND	ND	ND	ND	14.8	0
77132	2018-11-15T19:00:00	21.7	ND	ND	ND	ND	8.9	ND	ND	ND	ND	0	0
77133	2018-11-15T20:00:00	19.8	ND	ND	ND	ND	10.2	ND	ND	ND	ND	0	0
77134	2018-11-15T21:00:00	21.3	ND	ND	ND	ND	7.2	ND	ND	ND	ND	0	0
77135	2018-11-15T22:00:00	43.8	ND	ND	ND	ND	3.00	ND	ND	ND	ND	0	0
77136	2018-11-15T23:00:00	62.7	ND	ND	ND	ND	1.00	ND	ND	ND	ND	0	0
77137	2018-11-16T00:00:00	48.4	ND	ND	ND	ND	1.2	ND	ND	ND	ND	0	0
77138	2018-11-16T01:00:00	45.8	ND	ND	ND	ND	2.3	ND	ND	ND	ND	0	0
77139	2018-11-16T02:00:00	37	ND	ND	ND	ND	1.5	ND	ND	ND	ND	0	0
77140	2018-11-16T03:00:00	34.8	ND	ND	ND	ND	3.5	ND	ND	ND	ND	0	0
77141	2018-11-16T04:00:00	36.1	ND	ND	ND	ND	2.00	ND	ND	ND	ND	0	0
77142	2018-11-16T05:00:00	45.1	ND	ND	ND	ND	3.00	ND	ND	ND	ND	0	0
77143	2018-11-16T06:00:00	46.9	ND	ND	ND	ND	1.3	ND	ND	ND	ND	0	0
77144	2018-11-16T07:00:00	57	ND	ND	ND	ND	1.2	ND	ND	ND	ND	48.9	0
77145	2018-11-16T08:00:00	66.5	ND	ND	ND	ND	1.6	ND	ND	ND	ND	156.8	0
77146	2018-11-16T09:00:00	82	ND	ND	ND	ND	5.00	ND	ND	ND	ND	550.8	0
77147	2018-11-16T10:00:00	85.9	ND	ND	ND	ND	16.7	ND	ND	ND	ND	649.9	0
77148	2018-11-16T11:00:00	79.9	ND	ND	ND	ND	33.70	ND	ND	ND	ND	650.1	0
77149	2018-11-16T12:00:00	79.8	ND	ND	ND	ND	44.30	ND	ND	ND	ND	650.2	0
77150	2018-11-16T13:00:00	75	ND	ND	ND	ND	59.80	ND	ND	ND	ND	650.8	0
77151	2018-11-16T14:00:00	60	ND	ND	ND	ND	72.80	ND	ND	ND	ND	650.8	0
77152	2018-11-16T15:00:00	58.8	ND	ND	ND	ND	91.00	ND	ND	ND	ND	615.8	0
77153	2018-11-16T16:00:00	79.5	ND	ND	ND	ND	76.40	ND	ND	ND	ND	388.9	0
77154	2018-11-16T17:00:00	54.8	ND	ND	ND	ND	24.7	ND	ND	ND	ND	367.7	0
77155	2018-11-16T18:00:00	37.1	ND	ND	ND	ND	12.4	ND	ND	ND	ND	29.4	0
77156	2018-11-16T19:00:00	31.5	ND	ND	ND	ND	6.5	ND	ND	ND	ND	0	0
77157	2018-11-16T20:00:00	27.8	ND	ND	ND	ND	4.4	ND	ND	ND	ND	0	0
77158	2018-11-16T21:00:00	31.2	ND	ND	ND	ND	4.7	ND	ND	ND	ND	0	0
77159	2018-11-16T22:00:00	142.9	ND	ND	ND	ND	5.00	ND	ND	ND	ND	0	0
77160	2018-11-16T23:00:00	107.6	ND	ND	ND	ND	6.3	ND	ND	ND	ND	0	0
77161	2018-11-17T00:00:00	29.7	ND	ND	ND	ND	2.8	ND	ND	ND	ND	0	0
77162	2018-11-17T01:00:00	39.7	ND	ND	ND	ND	2.2	ND	ND	ND	ND	0	0
77163	2018-11-17T02:00:00	31.2	ND	ND	ND	ND	4.4	ND	ND	ND	ND	0	0
77164	2018-11-17T03:00:00	33.2	ND	ND	ND	ND	1.3	ND	ND	ND	ND	0	0
77165	2018-11-17T04:00:00	36.7	ND	ND	ND	ND	1.00	ND	ND	ND	ND	0	0
77166	2018-11-17T05:00:00	38	ND	ND	ND	ND	1.1	ND	ND	ND	ND	0	0
77167	2018-11-17T06:00:00	58.4	ND	ND	ND	ND	1.1	ND	ND	ND	ND	0	0
77168	2018-11-17T07:00:00	85	ND	ND	ND	ND	1.8	ND	ND	ND	ND	55.5	0
77169	2018-11-17T08:00:00	109.9	ND	ND	ND	ND	1.8	ND	ND	ND	ND	218.5	0
77170	2018-11-17T09:00:00	111.8	ND	ND	ND	ND	6.9	ND	ND	ND	ND	470.4	0
77171	2018-11-17T10:00:00	100	ND	ND	ND	ND	22.7	ND	ND	ND	ND	649.5	0
77172	2018-11-17T11:00:00	78	ND	ND	ND	ND	34.00	ND	ND	ND	ND	650	0
77173	2018-11-17T12:00:00	75.9	ND	ND	ND	ND	35.30	ND	ND	ND	ND	422.3	3.05
77174	2018-11-17T13:00:00	53.4	ND	ND	ND	ND	7.4	ND	ND	ND	ND	308.2	27.69
77175	2018-11-17T14:00:00	19.4	ND	ND	ND	ND	11.00	ND	ND	ND	ND	637.8	0
77176	2018-11-17T15:00:00	49.8	ND	ND	ND	ND	19.2	ND	ND	ND	ND	643.5	0
77177	2018-11-17T16:00:00	40.7	ND	ND	ND	ND	12.9	ND	ND	ND	ND	643.5	0
77178	2018-11-17T17:00:00	40.4	ND	ND	ND	ND	12.2	ND	ND	ND	ND	422	0
77179	2018-11-17T18:00:00	47.3	ND	ND	ND	ND	5.6	ND	ND	ND	ND	44.8	0
77180	2018-11-17T19:00:00	41.3	ND	ND	ND	ND	1.7	ND	ND	ND	ND	0	0
77181	2018-11-17T20:00:00	31	ND	ND	ND	ND	1.8	ND	ND	ND	ND	0	0
77182	2018-11-17T21:00:00	52.1	ND	ND	ND	ND	1.6	ND	ND	ND	ND	0	0
77183	2018-11-17T22:00:00	48.5	ND	ND	ND	ND	1.1	ND	ND	ND	ND	0	0
77184	2018-11-17T23:00:00	69.1	ND	ND	ND	ND	1.3	ND	ND	ND	ND	0	0
77185	2018-11-18T00:00:00	71.9	ND	ND	ND	ND	2.3	ND	ND	ND	ND	0	0
77186	2018-11-18T01:00:00	63.7	ND	ND	ND	ND	2.00	ND	ND	ND	ND	0	0
77187	2018-11-18T02:00:00	55.8	ND	ND	ND	ND	1.00	ND	ND	ND	ND	0	0
77188	2018-11-18T03:00:00	49.1	ND	ND	ND	ND	1.3	ND	ND	ND	ND	0	0
77189	2018-11-18T04:00:00	45.8	ND	ND	ND	ND	0.90	ND	ND	ND	ND	0	0
77190	2018-11-18T05:00:00	45.7	ND	ND	ND	ND	0.80	ND	ND	ND	ND	0	0
77191	2018-11-18T06:00:00	49.7	ND	ND	ND	ND	0.90	ND	ND	ND	ND	0	0
77192	2018-11-18T07:00:00	94.5	ND	ND	ND	ND	1.2	ND	ND	ND	ND	29.6	0
77193	2018-11-18T08:00:00	88.3	ND	ND	ND	ND	1.2	ND	ND	ND	ND	79.6	0
77194	2018-11-18T09:00:00	69.3	ND	ND	ND	ND	4.00	ND	ND	ND	ND	482.7	0
77195	2018-11-18T10:00:00	85.6	ND	ND	ND	ND	17.00	ND	ND	ND	ND	650	0
77196	2018-11-18T11:00:00	88.8	ND	ND	ND	ND	44.60	ND	ND	ND	ND	649.9	0
77197	2018-11-18T12:00:00	75.3	ND	ND	ND	ND	64.20	ND	ND	ND	ND	647.1	0
77198	2018-11-18T13:00:00	80.2	ND	ND	ND	ND	62.90	ND	ND	ND	ND	605.1	0
77199	2018-11-18T14:00:00	14.6	ND	ND	ND	ND	59.20	ND	ND	ND	ND	627.1	0
77200	2018-11-18T15:00:00	12.7	ND	ND	ND	ND	22.2	ND	ND	ND	ND	649.1	0
77201	2018-11-18T16:00:00	5.4	ND	ND	ND	ND	17.8	ND	ND	ND	ND	522	0
77202	2018-11-18T17:00:00	0.3	ND	ND	ND	ND	16.3	ND	ND	ND	ND	233.9	0
77203	2018-11-18T18:00:00	11	ND	ND	ND	ND	16.9	ND	ND	ND	ND	27.2	0
77204	2018-11-18T19:00:00	22.3	ND	ND	ND	ND	17.6	ND	ND	ND	ND	0	0
77205	2018-11-18T20:00:00	20.3	ND	ND	ND	ND	23.9	ND	ND	ND	ND	0	0.51
77206	2018-11-18T21:00:00	27.4	ND	ND	ND	ND	7.7	ND	ND	ND	ND	0	5.33
77207	2018-11-18T22:00:00	31.2	ND	ND	ND	ND	5.1	ND	ND	ND	ND	0	18.29
77208	2018-11-18T23:00:00	20.1	ND	ND	ND	ND	4.5	ND	ND	ND	ND	0	15.24
77209	2018-11-19T00:00:00	11.3	ND	ND	ND	ND	4.1	ND	ND	ND	ND	0	3.81
77210	2018-11-19T01:00:00	12.4	ND	ND	ND	ND	2.7	ND	ND	ND	ND	0	0.25
77211	2018-11-19T02:00:00	14.7	ND	ND	ND	ND	2.5	ND	ND	ND	ND	0	0
77212	2018-11-19T03:00:00	17	ND	ND	ND	ND	7.2	ND	ND	ND	ND	0	0
77213	2018-11-19T04:00:00	21.8	ND	ND	ND	ND	10.6	ND	ND	ND	ND	0	0
77214	2018-11-19T05:00:00	23.8	ND	ND	ND	ND	8.1	ND	ND	ND	ND	0	0
77215	2018-11-19T06:00:00	16.2	ND	ND	ND	ND	4.2	ND	ND	ND	ND	0	0
77216	2018-11-19T07:00:00	27.6	ND	ND	ND	ND	1.9	ND	ND	ND	ND	104.9	0
77217	2018-11-19T08:00:00	67.5	ND	ND	ND	ND	2.1	ND	ND	ND	ND	271.2	0.25
77218	2018-11-19T09:00:00	13.8	ND	ND	ND	ND	4.5	ND	ND	ND	ND	330.1	0
77219	2018-11-19T10:00:00	ND	ND	ND	ND	ND	12.5	ND	ND	ND	ND	635.8	0
77220	2018-11-19T11:00:00	ND	ND	ND	ND	ND	18.2	ND	ND	ND	ND	648.8	0
77221	2018-11-19T12:00:00	ND	ND	ND	ND	ND	21.6	ND	ND	ND	ND	649.4	0
77222	2018-11-19T13:00:00	ND	ND	ND	ND	ND	34.20	ND	ND	ND	ND	649	0
77223	2018-11-19T14:00:00	ND	ND	ND	ND	ND	39.30	ND	ND	ND	ND	649.2	0
77224	2018-11-19T15:00:00	ND	ND	ND	ND	ND	29.1	ND	ND	ND	ND	511.9	0
77225	2018-11-19T16:00:00	ND	ND	ND	ND	ND	39.50	ND	ND	ND	ND	381.6	0
77226	2018-11-19T17:00:00	ND	ND	ND	ND	ND	56.30	ND	ND	ND	ND	159.7	0
77227	2018-11-19T18:00:00	ND	ND	ND	ND	ND	16.00	ND	ND	ND	ND	24.8	0
77228	2018-11-19T19:00:00	ND	ND	ND	ND	ND	1.4	ND	ND	ND	ND	0	0
77229	2018-11-19T20:00:00	ND	ND	ND	ND	ND	1.7	ND	ND	ND	ND	0	0
77230	2018-11-19T21:00:00	ND	ND	ND	ND	ND	1.00	ND	ND	ND	ND	0	0
77231	2018-11-19T22:00:00	ND	ND	ND	ND	ND	1.1	ND	ND	ND	ND	0	4.83
77232	2018-11-19T23:00:00	ND	ND	ND	ND	ND	3.2	ND	ND	ND	ND	0	19.3
77233	2018-11-20T00:00:00	ND	ND	ND	ND	ND	3.8	ND	ND	ND	ND	0	4.83
77234	2018-11-20T01:00:00	ND	ND	ND	ND	ND	4.3	ND	ND	ND	ND	0	4.57
77235	2018-11-20T02:00:00	ND	ND	ND	ND	ND	12.3	ND	ND	ND	ND	0	5.59
77236	2018-11-20T03:00:00	ND	ND	ND	ND	ND	7.4	ND	ND	ND	ND	0	1.52
77237	2018-11-20T04:00:00	ND	ND	ND	ND	ND	5.5	ND	ND	ND	ND	0	0.25
77238	2018-11-20T05:00:00	ND	ND	ND	ND	ND	2.4	ND	ND	ND	ND	0	0
77239	2018-11-20T06:00:00	ND	ND	ND	ND	ND	1.00	ND	ND	ND	ND	0	0
77240	2018-11-20T07:00:00	ND	ND	ND	ND	ND	1.2	ND	ND	ND	ND	72.8	0
77241	2018-11-20T08:00:00	ND	ND	ND	ND	ND	2.3	ND	ND	ND	ND	400.7	0
77242	2018-11-20T09:00:00	ND	ND	ND	ND	ND	6.4	ND	ND	ND	ND	505.9	0
77243	2018-11-20T10:00:00	ND	ND	ND	ND	ND	14.4	ND	ND	ND	ND	609.8	0
77244	2018-11-20T11:00:00	ND	ND	ND	ND	ND	31.5	ND	ND	ND	ND	607.8	0
77245	2018-11-20T12:00:00	ND	ND	ND	ND	ND	ND	ND	ND	ND	ND	ND	ND
77246	2018-11-20T13:00:00	ND	ND	ND	ND	ND	ND	ND	ND	ND	ND	ND	ND
77247	2018-11-20T14:00:00	ND	ND	ND	ND	ND	ND	ND	ND	ND	ND	ND	ND
77248	2018-11-20T15:00:00	ND	ND	ND	ND	ND	ND	ND	ND	ND	ND	ND	ND
77249	2018-11-20T16:00:00	ND	ND	ND	ND	ND	ND	ND	ND	ND	ND	ND	ND
77250	2018-11-20T17:00:00	47.1	ND	ND	ND	ND	ND	ND	ND	ND	ND	175.4	0
77251	2018-11-20T18:00:00	91.1	ND	ND	ND	ND	5.8	ND	ND	ND	ND	30.5	0
77252	2018-11-20T19:00:00	46.9	ND	ND	ND	ND	3.4	ND	ND	ND	ND	0	0
77253	2018-11-20T20:00:00	38.5	ND	ND	ND	ND	4.6	ND	ND	ND	ND	0	0
77254	2018-11-20T21:00:00	25.5	ND	ND	ND	ND	7.4	ND	ND	ND	ND	0	0
77255	2018-11-20T22:00:00	34	ND	ND	ND	ND	1.5	ND	ND	ND	ND	0	0
77256	2018-11-20T23:00:00	52.9	ND	ND	ND	ND	1.4	ND	ND	ND	ND	0	0
77257	2018-11-21T00:00:00	49.8	ND	ND	ND	ND	5.5	ND	ND	ND	ND	0	0.76
77258	2018-11-21T01:00:00	28.5	ND	ND	ND	ND	11.9	ND	ND	ND	ND	0	12.7
77259	2018-11-21T02:00:00	8.9	ND	ND	ND	ND	11.1	ND	ND	ND	ND	0	0.25
77260	2018-11-21T03:00:00	17.9	ND	ND	ND	ND	8.4	ND	ND	ND	ND	0	6.86
77261	2018-11-21T04:00:00	8.5	ND	ND	ND	ND	14.9	ND	ND	ND	ND	0	4.06
77262	2018-11-21T05:00:00	7.5	ND	ND	ND	ND	13.9	ND	ND	ND	ND	0	6.6
77263	2018-11-21T06:00:00	4.5	ND	ND	ND	ND	9.1	ND	ND	ND	ND	0	1.52
77264	2018-11-21T07:00:00	17	ND	ND	ND	ND	3.2	ND	ND	ND	ND	24.2	0.51
77265	2018-11-21T08:00:00	18.4	ND	ND	ND	ND	3.3	ND	ND	ND	ND	145	1.02
77266	2018-11-21T09:00:00	17.4	ND	ND	ND	ND	6.00	ND	ND	ND	ND	467.4	0
77267	2018-11-21T10:00:00	36.1	ND	ND	ND	ND	6.9	ND	ND	ND	ND	568.3	0.25
77268	2018-11-21T11:00:00	47.7	ND	ND	ND	ND	15.1	ND	ND	ND	ND	637.7	0
77269	2018-11-21T12:00:00	46.2	ND	ND	ND	ND	26.1	ND	ND	ND	ND	649.9	0
77270	2018-11-21T13:00:00	48.7	ND	ND	ND	ND	23.1	ND	ND	ND	ND	632.1	0
77271	2018-11-21T14:00:00	51.6	ND	ND	ND	ND	40.00	ND	ND	ND	ND	650.1	0
77272	2018-11-21T15:00:00	55.5	ND	ND	ND	ND	38.60	ND	ND	ND	ND	581.1	0
77273	2018-11-21T16:00:00	65.6	ND	ND	ND	ND	31.40	ND	ND	ND	ND	490.6	0
77274	2018-11-21T17:00:00	71.4	ND	ND	ND	ND	14.9	ND	ND	ND	ND	322.5	0
77275	2018-11-21T18:00:00	50.3	ND	ND	ND	ND	4.8	ND	ND	ND	ND	16.6	0
77276	2018-11-21T19:00:00	34.6	ND	ND	ND	ND	2.7	ND	ND	ND	ND	0	0
77277	2018-11-21T20:00:00	31.7	ND	ND	ND	ND	1.3	ND	ND	ND	ND	0	0
77278	2018-11-21T21:00:00	42.7	ND	ND	ND	ND	0.90	ND	ND	ND	ND	0	0
77279	2018-11-21T22:00:00	43.5	ND	ND	ND	ND	1.00	ND	ND	ND	ND	0	0
77280	2018-11-21T23:00:00	45.5	ND	ND	ND	ND	1.00	ND	ND	ND	ND	0	0
77281	2018-11-22T00:00:00	41.9	ND	ND	ND	ND	1.9	ND	ND	ND	ND	0	0
77282	2018-11-22T01:00:00	32.2	ND	ND	ND	ND	4.5	ND	ND	ND	ND	0	0
77283	2018-11-22T02:00:00	22.5	ND	ND	ND	ND	3.5	ND	ND	ND	ND	0	0
77284	2018-11-22T03:00:00	24.6	ND	ND	ND	ND	2.6	ND	ND	ND	ND	0	0
77285	2018-11-22T04:00:00	31.3	ND	ND	ND	ND	3.3	ND	ND	ND	ND	0	0
77286	2018-11-22T05:00:00	31.4	ND	ND	ND	ND	1.3	ND	ND	ND	ND	0	0
77287	2018-11-22T06:00:00	38.8	ND	ND	ND	ND	1.00	ND	ND	ND	ND	0	0
77288	2018-11-22T07:00:00	64.1	ND	ND	ND	ND	1.4	ND	ND	ND	ND	81.2	0
77289	2018-11-22T08:00:00	80.9	ND	ND	ND	ND	1.5	ND	ND	ND	ND	281.9	0
77290	2018-11-22T09:00:00	110.8	ND	ND	ND	ND	3.9	ND	ND	ND	ND	488.2	0
77291	2018-11-22T10:00:00	74.1	ND	ND	ND	ND	17.5	ND	ND	ND	ND	617.8	0
77292	2018-11-22T11:00:00	76.4	ND	ND	ND	ND	31.8	ND	ND	ND	ND	647.2	0
77293	2018-11-22T12:00:00	70	ND	ND	ND	ND	44.40	ND	ND	ND	ND	648.1	0
77294	2018-11-22T13:00:00	71.3	ND	ND	ND	ND	57.40	ND	ND	ND	ND	609.1	0
77295	2018-11-22T14:00:00	74.9	ND	ND	ND	ND	60.00	ND	ND	ND	ND	645.4	0
77296	2018-11-22T15:00:00	67.7	ND	ND	ND	ND	32.20	ND	ND	ND	ND	574.2	0
77297	2018-11-22T16:00:00	49.1	ND	ND	ND	ND	16.6	ND	ND	ND	ND	463.2	0
77298	2018-11-22T17:00:00	40.7	ND	ND	ND	ND	13.4	ND	ND	ND	ND	385.3	0
77299	2018-11-22T18:00:00	33.2	ND	ND	ND	ND	7.00	ND	ND	ND	ND	ND	0
77300	2018-11-22T19:00:00	37.3	ND	ND	ND	ND	8.00	ND	ND	ND	ND	ND	0
77301	2018-11-22T20:00:00	15	ND	ND	ND	ND	8.00	ND	ND	ND	ND	ND	0
77302	2018-11-22T21:00:00	15	ND	ND	ND	ND	13.5	ND	ND	ND	ND	ND	0
77303	2018-11-22T22:00:00	21.2	ND	ND	ND	ND	4.8	ND	ND	ND	ND	ND	0
77304	2018-11-22T23:00:00	16.4	ND	ND	ND	ND	11.6	ND	ND	ND	ND	ND	0
77305	2018-11-23T00:00:00	17.8	ND	ND	ND	ND	10.1	ND	ND	ND	ND	ND	0
77306	2018-11-23T01:00:00	26.6	ND	ND	ND	ND	2.00	ND	ND	ND	ND	ND	0
77307	2018-11-23T02:00:00	41.1	ND	ND	ND	ND	1.4	ND	ND	ND	ND	ND	0
77308	2018-11-23T03:00:00	39.2	ND	ND	ND	ND	3.2	ND	ND	ND	ND	ND	0
77309	2018-11-23T04:00:00	25.7	ND	ND	ND	ND	3.1	ND	ND	ND	ND	ND	0
77310	2018-11-23T05:00:00	32.5	ND	ND	ND	ND	1.9	ND	ND	ND	ND	ND	0
77311	2018-11-23T06:00:00	25	ND	ND	ND	ND	1.4	ND	ND	ND	ND	ND	0
77312	2018-11-23T07:00:00	41	ND	ND	ND	ND	1.6	ND	ND	ND	ND	ND	0
77313	2018-11-23T08:00:00	56.7	ND	ND	ND	ND	4.00	ND	ND	ND	ND	ND	0
77314	2018-11-23T09:00:00	76.8	ND	ND	ND	ND	5.2	ND	ND	ND	ND	ND	0
77315	2018-11-23T10:00:00	67.7	ND	ND	ND	ND	11.4	ND	ND	ND	ND	ND	0
77316	2018-11-23T11:00:00	73.2	ND	ND	ND	ND	24.4	ND	ND	ND	ND	ND	0
77317	2018-11-23T12:00:00	80	ND	ND	ND	ND	29.5	ND	ND	ND	ND	ND	0
77318	2018-11-23T13:00:00	74.7	ND	ND	ND	ND	24.7	ND	ND	ND	ND	ND	0
77319	2018-11-23T14:00:00	57.4	ND	ND	ND	ND	34.60	ND	ND	ND	ND	ND	0
77320	2018-11-23T15:00:00	45	ND	ND	ND	ND	30.1	ND	ND	ND	ND	ND	0
77321	2018-11-23T16:00:00	35.5	ND	ND	ND	ND	42.60	ND	ND	ND	ND	ND	0
77322	2018-11-23T17:00:00	61.9	ND	ND	ND	ND	30.8	ND	ND	ND	ND	ND	0
77323	2018-11-23T18:00:00	42.2	ND	ND	ND	ND	7.7	ND	ND	ND	ND	ND	0
77324	2018-11-23T19:00:00	23.5	ND	ND	ND	ND	6.8	ND	ND	ND	ND	ND	0
77325	2018-11-23T20:00:00	19.3	ND	ND	ND	ND	8.8	ND	ND	ND	ND	ND	0
77326	2018-11-23T21:00:00	8.2	ND	ND	ND	ND	8.2	ND	ND	ND	ND	ND	0
77327	2018-11-23T22:00:00	10.1	ND	ND	ND	ND	9.00	ND	ND	ND	ND	ND	0
77328	2018-11-23T23:00:00	19.9	ND	ND	ND	ND	1.9	ND	ND	ND	ND	ND	0
77329	2018-11-24T00:00:00	39.4	ND	ND	ND	ND	1.8	ND	ND	ND	ND	ND	0
77330	2018-11-24T01:00:00	37.7	ND	ND	ND	ND	2.00	ND	ND	ND	ND	ND	0
77331	2018-11-24T02:00:00	37.8	ND	ND	ND	ND	1.00	ND	ND	ND	ND	ND	0
77332	2018-11-24T03:00:00	44.3	ND	ND	ND	ND	1.00	ND	ND	ND	ND	ND	0
77333	2018-11-24T04:00:00	41.8	ND	ND	ND	ND	1.5	ND	ND	ND	ND	ND	0
77334	2018-11-24T05:00:00	36.2	ND	ND	ND	ND	1.1	ND	ND	ND	ND	ND	0
77335	2018-11-24T06:00:00	30.4	ND	ND	ND	ND	1.00	ND	ND	ND	ND	ND	0
77336	2018-11-24T07:00:00	42.6	ND	ND	ND	ND	1.1	ND	ND	ND	ND	ND	0
77337	2018-11-24T08:00:00	50.3	ND	ND	ND	ND	2.5	ND	ND	ND	ND	ND	0
77338	2018-11-24T09:00:00	78	ND	ND	ND	ND	4.4	ND	ND	ND	ND	ND	0
77339	2018-11-24T10:00:00	103.7	ND	ND	ND	ND	20.2	ND	ND	ND	ND	ND	0
77340	2018-11-24T11:00:00	90.9	ND	ND	ND	ND	30.9	ND	ND	ND	ND	ND	0
77341	2018-11-24T12:00:00	88.2	ND	ND	ND	ND	55.70	ND	ND	ND	ND	ND	0
77342	2018-11-24T13:00:00	84.9	ND	ND	ND	ND	61.20	ND	ND	ND	ND	ND	0
77343	2018-11-24T14:00:00	61	ND	ND	ND	ND	20.1	ND	ND	ND	ND	ND	0
77344	2018-11-24T15:00:00	27.9	ND	ND	ND	ND	19.2	ND	ND	ND	ND	ND	0
77345	2018-11-24T16:00:00	26.5	ND	ND	ND	ND	11.3	ND	ND	ND	ND	ND	0
77346	2018-11-24T17:00:00	13.1	ND	ND	ND	ND	11.1	ND	ND	ND	ND	ND	0
77347	2018-11-24T18:00:00	19.5	ND	ND	ND	ND	4.6	ND	ND	ND	ND	ND	0
77348	2018-11-24T19:00:00	22.1	ND	ND	ND	ND	3.00	ND	ND	ND	ND	ND	0
77349	2018-11-24T20:00:00	15.1	ND	ND	ND	ND	3.3	ND	ND	ND	ND	ND	0
77350	2018-11-24T21:00:00	10.8	ND	ND	ND	ND	3.6	ND	ND	ND	ND	ND	0
77351	2018-11-24T22:00:00	11.9	ND	ND	ND	ND	3.7	ND	ND	ND	ND	ND	0
77352	2018-11-24T23:00:00	33.3	ND	ND	ND	ND	1.00	ND	ND	ND	ND	ND	0
77353	2018-11-25T00:00:00	41.9	ND	ND	ND	ND	1.2	ND	ND	ND	ND	ND	0
77354	2018-11-25T01:00:00	29.1	ND	ND	ND	ND	1.00	ND	ND	ND	ND	ND	0
77355	2018-11-25T02:00:00	27.8	ND	ND	ND	ND	1.1	ND	ND	ND	ND	ND	0
77356	2018-11-25T03:00:00	26.3	ND	ND	ND	ND	1.00	ND	ND	ND	ND	ND	0
77357	2018-11-25T04:00:00	46.3	ND	ND	ND	ND	0.90	ND	ND	ND	ND	ND	0
77358	2018-11-25T05:00:00	48.1	ND	ND	ND	ND	0.90	ND	ND	ND	ND	ND	0
77359	2018-11-25T06:00:00	29.7	ND	ND	ND	ND	1.1	ND	ND	ND	ND	ND	0
77360	2018-11-25T07:00:00	41.6	ND	ND	ND	ND	1.5	ND	ND	ND	ND	ND	0
77361	2018-11-25T08:00:00	35.4	ND	ND	ND	ND	5.2	ND	ND	ND	ND	ND	0
77362	2018-11-25T09:00:00	50.6	ND	ND	ND	ND	6.6	ND	ND	ND	ND	ND	0
77363	2018-11-25T10:00:00	43.2	ND	ND	ND	ND	11.5	ND	ND	ND	ND	ND	0
77364	2018-11-25T11:00:00	59.6	ND	ND	ND	ND	24.9	ND	ND	ND	ND	ND	0
77365	2018-11-25T12:00:00	57.9	ND	ND	ND	ND	40.90	ND	ND	ND	ND	ND	0
77366	2018-11-25T13:00:00	61.4	ND	ND	ND	ND	59.90	ND	ND	ND	ND	ND	0
77367	2018-11-25T14:00:00	56.3	ND	ND	ND	ND	74.80	ND	ND	ND	ND	ND	0
77368	2018-11-25T15:00:00	54.4	ND	ND	ND	ND	69.10	ND	ND	ND	ND	ND	0
77369	2018-11-25T16:00:00	28.5	ND	ND	ND	ND	19.3	ND	ND	ND	ND	ND	0
77370	2018-11-25T17:00:00	15.8	ND	ND	ND	ND	14.7	ND	ND	ND	ND	ND	0
77371	2018-11-25T18:00:00	4.3	ND	ND	ND	ND	12.00	ND	ND	ND	ND	ND	0
77372	2018-11-25T19:00:00	5.9	ND	ND	ND	ND	12.8	ND	ND	ND	ND	ND	0
77373	2018-11-25T20:00:00	5.7	ND	ND	ND	ND	14.00	ND	ND	ND	ND	ND	0
77374	2018-11-25T21:00:00	5.8	ND	ND	ND	ND	8.5	ND	ND	ND	ND	ND	0
77375	2018-11-25T22:00:00	22.6	ND	ND	ND	ND	4.5	ND	ND	ND	ND	ND	0
77376	2018-11-25T23:00:00	30.5	ND	ND	ND	ND	1.6	ND	ND	ND	ND	ND	0
77377	2018-11-26T00:00:00	38.3	ND	ND	ND	ND	3.4	ND	ND	ND	ND	ND	0
77378	2018-11-26T01:00:00	43	ND	ND	ND	ND	8.1	ND	ND	ND	ND	ND	0
77379	2018-11-26T02:00:00	30.1	ND	ND	ND	ND	12.2	ND	ND	ND	ND	ND	0
77380	2018-11-26T03:00:00	23.5	ND	ND	ND	ND	4.4	ND	ND	ND	ND	ND	0
77381	2018-11-26T04:00:00	33.2	ND	ND	ND	ND	4.00	ND	ND	ND	ND	ND	0
77382	2018-11-26T05:00:00	25.6	ND	ND	ND	ND	3.5	ND	ND	ND	ND	ND	0
77383	2018-11-26T06:00:00	47.5	ND	ND	ND	ND	1.6	ND	ND	ND	ND	ND	0
77384	2018-11-26T07:00:00	45.5	ND	ND	ND	ND	2.7	ND	ND	ND	ND	ND	0
77385	2018-11-26T08:00:00	31.6	ND	ND	ND	ND	2.3	ND	ND	ND	ND	ND	0
77386	2018-11-26T09:00:00	33.7	ND	ND	ND	ND	3.9	ND	ND	ND	ND	ND	0
77387	2018-11-26T10:00:00	27.9	ND	ND	ND	ND	5.2	ND	ND	ND	ND	ND	0
77388	2018-11-26T11:00:00	34.8	ND	ND	ND	ND	7.2	ND	ND	ND	ND	ND	0
77389	2018-11-26T12:00:00	49.2	ND	ND	ND	ND	9.6	ND	ND	ND	ND	ND	0
77390	2018-11-26T13:00:00	77.1	ND	ND	ND	ND	9.3	ND	ND	ND	ND	ND	0
77391	2018-11-26T14:00:00	62.2	ND	ND	ND	ND	15.1	ND	ND	ND	ND	ND	0
77392	2018-11-26T15:00:00	56.6	ND	ND	ND	ND	12.2	ND	ND	ND	ND	ND	0
77393	2018-11-26T16:00:00	49.2	ND	ND	ND	ND	4.1	ND	ND	ND	ND	ND	0
77394	2018-11-26T17:00:00	62.3	ND	ND	ND	ND	1.5	ND	ND	ND	ND	ND	0
77395	2018-11-26T18:00:00	56.9	ND	ND	ND	ND	1.5	ND	ND	ND	ND	ND	0
77396	2018-11-26T19:00:00	45.9	ND	ND	ND	ND	1.3	ND	ND	ND	ND	ND	0
77397	2018-11-26T20:00:00	37.1	ND	ND	ND	ND	1.2	ND	ND	ND	ND	ND	0
77398	2018-11-26T21:00:00	20.8	ND	ND	ND	ND	1.4	ND	ND	ND	ND	ND	0
77399	2018-11-26T22:00:00	22.9	ND	ND	ND	ND	4.5	ND	ND	ND	ND	ND	0
77400	2018-11-26T23:00:00	7.1	ND	ND	ND	ND	8.00	ND	ND	ND	ND	ND	0
77401	2018-11-27T00:00:00	5.2	ND	ND	ND	ND	9.1	ND	ND	ND	ND	ND	0
77402	2018-11-27T01:00:00	3.2	ND	ND	ND	ND	4.1	ND	ND	ND	ND	ND	0
77403	2018-11-27T02:00:00	0.9	ND	ND	ND	ND	5.00	ND	ND	ND	ND	ND	0
77404	2018-11-27T03:00:00	6.3	ND	ND	ND	ND	7.9	ND	ND	ND	ND	ND	0
77405	2018-11-27T04:00:00	9.1	ND	ND	ND	ND	10.6	ND	ND	ND	ND	ND	0
77406	2018-11-27T05:00:00	2	ND	ND	ND	ND	15.3	ND	ND	ND	ND	ND	0
77407	2018-11-27T06:00:00	12.5	ND	ND	ND	ND	9.4	ND	ND	ND	ND	ND	0
77408	2018-11-27T07:00:00	23.5	ND	ND	ND	ND	2.8	ND	ND	ND	ND	ND	0
77409	2018-11-27T08:00:00	25.2	ND	ND	ND	ND	1.8	ND	ND	ND	ND	ND	0
77410	2018-11-27T09:00:00	23.6	ND	ND	ND	ND	2.2	ND	ND	ND	ND	ND	0
77411	2018-11-27T10:00:00	48.9	ND	ND	ND	ND	6.9	ND	ND	ND	ND	ND	0
77412	2018-11-27T11:00:00	ND	ND	ND	ND	ND	17.2	ND	ND	ND	ND	ND	0
77413	2018-11-27T12:00:00	36.1	ND	ND	ND	ND	38.60	ND	ND	ND	ND	ND	0
77414	2018-11-27T13:00:00	61.5	ND	ND	ND	ND	36.30	ND	ND	ND	ND	ND	0
77415	2018-11-27T14:00:00	79.9	ND	ND	ND	ND	38.60	ND	ND	ND	ND	ND	0
77416	2018-11-27T15:00:00	73.5	ND	ND	ND	ND	25.7	ND	ND	ND	ND	ND	0
77417	2018-11-27T16:00:00	65.1	ND	ND	ND	ND	15.1	ND	ND	ND	ND	ND	0
77418	2018-11-27T17:00:00	36.8	ND	ND	ND	ND	7.7	ND	ND	ND	ND	ND	0
77419	2018-11-27T18:00:00	14.3	ND	ND	ND	ND	6.7	ND	ND	ND	ND	ND	0
77420	2018-11-27T19:00:00	16.1	ND	ND	ND	ND	4.8	ND	ND	ND	ND	0	0
77421	2018-11-27T20:00:00	16.6	ND	ND	ND	ND	4.1	ND	ND	ND	ND	0	0
77422	2018-11-27T21:00:00	37.5	ND	ND	ND	ND	3.00	ND	ND	ND	ND	0	0.51
77423	2018-11-27T22:00:00	29.5	ND	ND	ND	ND	4.1	ND	ND	ND	ND	0	1.52
77424	2018-11-27T23:00:00	22.4	ND	ND	ND	ND	3.4	ND	ND	ND	ND	0	1.02
77425	2018-11-28T00:00:00	18.3	ND	ND	ND	ND	4.6	ND	ND	ND	ND	0	36.07
77426	2018-11-28T01:00:00	14.8	ND	ND	ND	ND	2.9	ND	ND	ND	ND	0	2.54
77427	2018-11-28T02:00:00	17.4	ND	ND	ND	ND	0.90	ND	ND	ND	ND	0	0
77428	2018-11-28T03:00:00	25.9	ND	ND	ND	ND	1.00	ND	ND	ND	ND	0	0
77429	2018-11-28T04:00:00	45.3	ND	ND	ND	ND	1.00	ND	ND	ND	ND	0	0.25
77430	2018-11-28T05:00:00	47.8	ND	ND	ND	ND	0.80	ND	ND	ND	ND	0	0
77431	2018-11-28T06:00:00	47.8	ND	ND	ND	ND	1.00	ND	ND	ND	ND	0	0
77432	2018-11-28T07:00:00	35.1	ND	ND	ND	ND	1.5	ND	ND	ND	ND	35.2	0
77433	2018-11-28T08:00:00	43.4	ND	ND	ND	ND	1.2	ND	ND	ND	ND	178.8	0
77434	2018-11-28T09:00:00	86.6	ND	ND	ND	ND	1.8	ND	ND	ND	ND	395.5	0
77435	2018-11-28T10:00:00	100.2	ND	ND	ND	ND	7.7	ND	ND	ND	ND	648.9	0
77436	2018-11-28T11:00:00	100.4	ND	ND	ND	ND	19.00	ND	ND	ND	ND	648.5	0
77437	2018-11-28T12:00:00	86.7	ND	ND	ND	ND	25.6	ND	ND	ND	ND	606.9	0
77438	2018-11-28T13:00:00	ND	ND	ND	ND	ND	29.6	ND	ND	ND	ND	599.8	0
77439	2018-11-28T14:00:00	ND	ND	ND	ND	ND	40.70	ND	ND	ND	ND	453.4	0
77440	2018-11-28T15:00:00	ND	ND	ND	ND	ND	48.00	ND	ND	ND	ND	381.8	0
77441	2018-11-28T16:00:00	ND	ND	ND	ND	ND	62.40	ND	ND	ND	ND	629.9	0
77442	2018-11-28T17:00:00	ND	ND	ND	ND	ND	60.90	ND	ND	ND	ND	369.6	0
77443	2018-11-28T18:00:00	ND	ND	ND	ND	ND	11.9	ND	ND	ND	ND	56.6	0
77444	2018-11-28T19:00:00	ND	ND	ND	ND	ND	3.5	ND	ND	ND	ND	0	0
77445	2018-11-28T20:00:00	ND	ND	ND	ND	ND	1.3	ND	ND	ND	ND	0	0
77446	2018-11-28T21:00:00	ND	ND	ND	ND	ND	1.6	ND	ND	ND	ND	0	0
77447	2018-11-28T22:00:00	ND	ND	ND	ND	ND	3.00	ND	ND	ND	ND	0	0
77448	2018-11-28T23:00:00	ND	ND	ND	ND	ND	2.5	ND	ND	ND	ND	0	0
77449	2018-11-29T00:00:00	ND	ND	ND	ND	ND	2.5	ND	ND	ND	ND	0	0
77450	2018-11-29T01:00:00	ND	ND	ND	ND	ND	5.00	ND	ND	ND	ND	0	0
77451	2018-11-29T02:00:00	ND	ND	ND	ND	ND	1.1	ND	ND	ND	ND	0	0
77452	2018-11-29T03:00:00	ND	ND	ND	ND	ND	2.7	ND	ND	ND	ND	0	0
77453	2018-11-29T04:00:00	ND	ND	ND	ND	ND	1.4	ND	ND	ND	ND	0	0
77454	2018-11-29T05:00:00	ND	ND	ND	ND	ND	2.5	ND	ND	ND	ND	0	0
77455	2018-11-29T06:00:00	ND	ND	ND	ND	ND	1.2	ND	ND	ND	ND	0	0
77456	2018-11-29T07:00:00	ND	ND	ND	ND	ND	1.5	ND	ND	ND	ND	81.3	0
77457	2018-11-29T08:00:00	ND	ND	ND	ND	ND	1.7	ND	ND	ND	ND	419.5	0
77458	2018-11-29T09:00:00	ND	ND	ND	ND	ND	9.00	ND	ND	ND	ND	646.7	0
77459	2018-11-29T10:00:00	ND	ND	ND	ND	ND	27.5	ND	ND	ND	ND	648.8	0
77460	2018-11-29T11:00:00	ND	ND	ND	ND	ND	44.20	ND	ND	ND	ND	649.4	0
77461	2018-11-29T12:00:00	ND	ND	ND	ND	ND	49.20	ND	ND	ND	ND	612.8	0
77462	2018-11-29T13:00:00	ND	ND	ND	ND	ND	69.50	ND	ND	ND	ND	627.2	0
77463	2018-11-29T14:00:00	ND	ND	ND	ND	ND	71.60	ND	ND	ND	ND	419.7	0
77464	2018-11-29T15:00:00	ND	ND	ND	ND	ND	39.10	ND	ND	ND	ND	497.5	0
77465	2018-11-29T16:00:00	ND	ND	ND	ND	ND	18.3	ND	ND	ND	ND	530.3	0
77466	2018-11-29T17:00:00	ND	ND	ND	ND	ND	13.4	ND	ND	ND	ND	191.4	0
77467	2018-11-29T18:00:00	ND	ND	ND	ND	ND	3.6	ND	ND	ND	ND	10.7	0
77468	2018-11-29T19:00:00	ND	ND	ND	ND	ND	1.4	ND	ND	ND	ND	0	0
77469	2018-11-29T20:00:00	ND	ND	ND	ND	ND	1.4	ND	ND	ND	ND	0	0
77470	2018-11-29T21:00:00	ND	ND	ND	ND	ND	3.7	ND	ND	ND	ND	0	0
77471	2018-11-29T22:00:00	ND	ND	ND	ND	ND	1.1	ND	ND	ND	ND	0	9.14
77472	2018-11-29T23:00:00	ND	ND	ND	ND	ND	0.70	ND	ND	ND	ND	0	3.81
77473	2018-11-30T00:00:00	ND	ND	ND	ND	ND	0.80	ND	ND	ND	ND	0	1.27
77474	2018-11-30T01:00:00	ND	ND	ND	ND	ND	0.80	ND	ND	ND	ND	0	0
77475	2018-11-30T02:00:00	ND	ND	ND	ND	ND	0.80	ND	ND	ND	ND	0	0
77476	2018-11-30T03:00:00	ND	ND	ND	ND	ND	1.00	ND	ND	ND	ND	0	0
77477	2018-11-30T04:00:00	ND	ND	ND	ND	ND	0.80	ND	ND	ND	ND	0	0
77478	2018-11-30T05:00:00	ND	ND	ND	ND	ND	0.90	ND	ND	ND	ND	0	0
77479	2018-11-30T06:00:00	ND	ND	ND	ND	ND	1.00	ND	ND	ND	ND	0	0.25
77480	2018-11-30T07:00:00	ND	ND	ND	ND	ND	1.00	ND	ND	ND	ND	26.1	0
77481	2018-11-30T08:00:00	ND	ND	ND	ND	ND	1.2	ND	ND	ND	ND	136.3	0
77482	2018-11-30T09:00:00	ND	ND	ND	ND	ND	1.5	ND	ND	ND	ND	249.7	0.25
77483	2018-11-30T10:00:00	ND	ND	ND	ND	ND	4.5	ND	ND	ND	ND	583.2	0
77484	2018-11-30T11:00:00	ND	ND	ND	ND	ND	9.00	ND	ND	ND	ND	644.6	0
77485	2018-11-30T12:00:00	42.1	ND	ND	ND	ND	ND	ND	ND	ND	ND	649.2	0
77486	2018-11-30T13:00:00	82.4	ND	ND	ND	ND	ND	ND	ND	ND	ND	385.7	0
77487	2018-11-30T14:00:00	60.6	ND	ND	ND	ND	ND	ND	ND	ND	ND	561.7	1.52
77488	2018-11-30T15:00:00	28.6	ND	ND	ND	ND	ND	ND	ND	ND	ND	644	0.25
77489	2018-11-30T16:00:00	40.1	ND	ND	ND	ND	ND	ND	ND	ND	ND	479.5	0
77490	2018-11-30T17:00:00	70.6	ND	ND	ND	ND	ND	ND	ND	ND	ND	257.1	0
77491	2018-11-30T18:00:00	73.6	ND	ND	ND	ND	ND	ND	ND	ND	ND	39.1	0
77492	2018-11-30T19:00:00	45.7	ND	ND	ND	ND	ND	ND	ND	ND	ND	0	0
77493	2018-11-30T20:00:00	36.7	ND	ND	ND	ND	ND	ND	ND	ND	ND	0	0
77494	2018-11-30T21:00:00	28.5	ND	ND	ND	ND	ND	ND	ND	ND	ND	0	0
77495	2018-11-30T22:00:00	32.8	ND	ND	ND	ND	ND	ND	ND	ND	ND	0	0
77496	2018-11-30T23:00:00	34.8	ND	ND	ND	ND	ND	ND	ND	ND	ND	0	0
77497	2018-12-01T00:00:00	18.9	ND	ND	ND	ND	ND	ND	ND	ND	ND	0	3.05
77498	2018-12-01T01:00:00	13.5	ND	ND	ND	ND	ND	ND	ND	ND	ND	0	3.3
77499	2018-12-01T02:00:00	6	ND	ND	ND	ND	ND	ND	ND	ND	ND	0	0
77500	2018-12-01T03:00:00	9.9	ND	ND	ND	ND	ND	ND	ND	ND	ND	0	0.25
77501	2018-12-01T04:00:00	14.5	ND	ND	ND	ND	ND	ND	ND	ND	ND	0	0
77502	2018-12-01T05:00:00	14.4	ND	ND	ND	ND	ND	ND	ND	ND	ND	0	0
77503	2018-12-01T06:00:00	14.6	ND	ND	ND	ND	ND	ND	ND	ND	ND	0	0
77504	2018-12-01T07:00:00	33.8	ND	ND	ND	ND	ND	ND	ND	ND	ND	44.6	0
77505	2018-12-01T08:00:00	46.5	ND	ND	ND	ND	ND	ND	ND	ND	ND	244.7	0
77506	2018-12-01T09:00:00	47.8	ND	ND	ND	ND	ND	ND	ND	ND	ND	474.2	0
77507	2018-12-01T10:00:00	49.6	ND	ND	ND	ND	ND	ND	ND	ND	ND	649.1	0
77508	2018-12-01T11:00:00	60.5	ND	ND	ND	ND	ND	ND	ND	ND	ND	649.2	0
77509	2018-12-01T12:00:00	54.2	ND	ND	ND	ND	ND	ND	ND	ND	ND	647.1	0
77510	2018-12-01T13:00:00	53.4	ND	ND	ND	ND	ND	ND	ND	ND	ND	639.2	0
77511	2018-12-01T14:00:00	57.8	ND	ND	ND	ND	ND	ND	ND	ND	ND	518.7	0
77512	2018-12-01T15:00:00	65	ND	ND	ND	ND	ND	ND	ND	ND	ND	185.6	0
77513	2018-12-01T16:00:00	29.3	ND	ND	ND	ND	ND	ND	ND	ND	ND	233.9	0
77514	2018-12-01T17:00:00	22.2	ND	ND	ND	ND	ND	ND	ND	ND	ND	225.1	0
77515	2018-12-01T18:00:00	27.5	ND	ND	ND	ND	ND	ND	ND	ND	ND	148.6	0
77516	2018-12-01T19:00:00	32.3	ND	ND	ND	ND	ND	ND	ND	ND	ND	0	0
77517	2018-12-01T20:00:00	19	ND	ND	ND	ND	ND	ND	ND	ND	ND	0	0
77518	2018-12-01T21:00:00	20.5	ND	ND	ND	ND	ND	ND	ND	ND	ND	0	0
77519	2018-12-01T22:00:00	20.1	ND	ND	ND	ND	ND	ND	ND	ND	ND	0	0
77520	2018-12-01T23:00:00	27.3	ND	ND	ND	ND	ND	ND	ND	ND	ND	0	0
77521	2018-12-02T00:00:00	45.3	ND	ND	ND	ND	ND	ND	ND	ND	ND	0	0
77522	2018-12-02T01:00:00	68.2	ND	ND	ND	ND	ND	ND	ND	ND	ND	0	0
77523	2018-12-02T02:00:00	41.9	ND	ND	ND	ND	ND	ND	ND	ND	ND	0	0
77524	2018-12-02T03:00:00	60.8	ND	ND	ND	ND	ND	ND	ND	ND	ND	0	0
77525	2018-12-02T04:00:00	49.3	ND	ND	ND	ND	ND	ND	ND	ND	ND	0	0
77526	2018-12-02T05:00:00	46.1	ND	ND	ND	ND	ND	ND	ND	ND	ND	0	0
77527	2018-12-02T06:00:00	38	ND	ND	ND	ND	ND	ND	ND	ND	ND	0	0
77528	2018-12-02T07:00:00	52	ND	ND	ND	ND	ND	ND	ND	ND	ND	80.4	0
77529	2018-12-02T08:00:00	37.7	ND	ND	ND	ND	ND	ND	ND	ND	ND	359.5	0
77530	2018-12-02T09:00:00	49.5	ND	ND	ND	ND	ND	ND	ND	ND	ND	533.9	0
77531	2018-12-02T10:00:00	45.2	ND	ND	ND	ND	ND	ND	ND	ND	ND	648.9	0
77532	2018-12-02T11:00:00	51	ND	ND	ND	ND	ND	ND	ND	ND	ND	616.2	0
77533	2018-12-02T12:00:00	43.6	ND	ND	ND	ND	ND	ND	ND	ND	ND	526.9	0
77534	2018-12-02T13:00:00	39.1	ND	ND	ND	ND	ND	ND	ND	ND	ND	564.5	0
77535	2018-12-02T14:00:00	20.1	ND	ND	ND	ND	ND	ND	ND	ND	ND	639.2	0
77536	2018-12-02T15:00:00	20.6	ND	ND	ND	ND	ND	ND	ND	ND	ND	648.2	0
77537	2018-12-02T16:00:00	26.1	ND	ND	ND	ND	ND	ND	ND	ND	ND	648.3	0
77538	2018-12-02T17:00:00	14.8	ND	ND	ND	ND	ND	ND	ND	ND	ND	344.9	0
77539	2018-12-02T18:00:00	7.8	ND	ND	ND	ND	ND	ND	ND	ND	ND	42.7	0
77540	2018-12-02T19:00:00	1.3	ND	ND	ND	ND	ND	ND	ND	ND	ND	0	0
77541	2018-12-02T20:00:00	3.5	ND	ND	ND	ND	ND	ND	ND	ND	ND	0	0
77542	2018-12-02T21:00:00	20.4	ND	ND	ND	ND	ND	ND	ND	ND	ND	0	0
77543	2018-12-02T22:00:00	15.6	ND	ND	ND	ND	ND	ND	ND	ND	ND	0	0
77544	2018-12-02T23:00:00	9.2	ND	ND	ND	ND	ND	ND	ND	ND	ND	0	0
77545	2018-12-03T00:00:00	19.5	ND	ND	ND	ND	ND	ND	ND	ND	ND	0	0
77546	2018-12-03T01:00:00	25.5	ND	ND	ND	ND	ND	ND	ND	ND	ND	0	0
77547	2018-12-03T02:00:00	30.8	ND	ND	ND	ND	ND	ND	ND	ND	ND	0	0
77548	2018-12-03T03:00:00	30.5	ND	ND	ND	ND	ND	ND	ND	ND	ND	0	0
77549	2018-12-03T04:00:00	33.6	ND	ND	ND	ND	ND	ND	ND	ND	ND	0	0
77550	2018-12-03T05:00:00	28.8	ND	ND	ND	ND	ND	ND	ND	ND	ND	0	0
77551	2018-12-03T06:00:00	24.3	ND	ND	ND	ND	ND	ND	ND	ND	ND	0	0
77552	2018-12-03T07:00:00	32.8	ND	ND	ND	ND	ND	ND	ND	ND	ND	76.9	0
77553	2018-12-03T08:00:00	81.2	ND	ND	ND	ND	ND	ND	ND	ND	ND	268.9	0
77554	2018-12-03T09:00:00	94	ND	ND	ND	ND	ND	ND	ND	ND	ND	604.7	0
77555	2018-12-03T10:00:00	103	ND	ND	ND	ND	ND	ND	ND	ND	ND	629.4	0
77556	2018-12-03T11:00:00	86	ND	ND	ND	ND	ND	ND	ND	ND	ND	647.4	0
77557	2018-12-03T12:00:00	74.5	ND	ND	ND	ND	34.10	ND	ND	ND	ND	634.5	0
77558	2018-12-03T13:00:00	69.5	ND	ND	ND	ND	41.40	ND	ND	ND	ND	630.3	0
77559	2018-12-03T14:00:00	73.9	ND	ND	ND	ND	55.40	ND	ND	ND	ND	616.8	0
77560	2018-12-03T15:00:00	70.2	ND	ND	ND	ND	38.30	ND	ND	ND	ND	448.1	0
77561	2018-12-03T16:00:00	61	ND	ND	ND	ND	13.5	ND	ND	ND	ND	547.6	0
77562	2018-12-03T17:00:00	31.6	ND	ND	ND	ND	10.8	ND	ND	ND	ND	246.8	0
77563	2018-12-03T18:00:00	23.5	ND	ND	ND	ND	9.3	ND	ND	ND	ND	44.7	0
77564	2018-12-03T19:00:00	12.9	ND	ND	ND	ND	9.2	ND	ND	ND	ND	0	0
77565	2018-12-03T20:00:00	10.8	ND	ND	ND	ND	9.5	ND	ND	ND	ND	0	0
77566	2018-12-03T21:00:00	18.7	ND	ND	ND	ND	6.1	ND	ND	ND	ND	0	0
77567	2018-12-03T22:00:00	23.9	ND	ND	ND	ND	2.3	ND	ND	ND	ND	0	0
77568	2018-12-03T23:00:00	42.2	ND	ND	ND	ND	2.2	ND	ND	ND	ND	0	0
77569	2018-12-04T00:00:00	43	ND	ND	ND	ND	2.5	ND	ND	ND	ND	0	0
77570	2018-12-04T01:00:00	43.4	ND	ND	ND	ND	2.2	ND	ND	ND	ND	0	0
77571	2018-12-04T02:00:00	33.2	ND	ND	ND	ND	5.7	ND	ND	ND	ND	0	0
77572	2018-12-04T03:00:00	21.7	ND	ND	ND	ND	4.1	ND	ND	ND	ND	0	0
77573	2018-12-04T04:00:00	19.5	ND	ND	ND	ND	3.8	ND	ND	ND	ND	0	0
77574	2018-12-04T05:00:00	19	ND	ND	ND	ND	2.3	ND	ND	ND	ND	0	0
77575	2018-12-04T06:00:00	41.6	ND	ND	ND	ND	3.1	ND	ND	ND	ND	0	0
77576	2018-12-04T07:00:00	45.5	ND	ND	ND	ND	3.4	ND	ND	ND	ND	57.9	0
77577	2018-12-04T08:00:00	59.4	ND	ND	ND	ND	4.6	ND	ND	ND	ND	294	0
77578	2018-12-04T09:00:00	48.8	ND	ND	ND	ND	5.9	ND	ND	ND	ND	525.8	0
77579	2018-12-04T10:00:00	43.4	ND	ND	ND	ND	9.5	ND	ND	ND	ND	629.9	0
77580	2018-12-04T11:00:00	47.6	ND	ND	ND	ND	11.4	ND	ND	ND	ND	646.4	0
77581	2018-12-04T12:00:00	55.1	ND	ND	ND	ND	21.7	ND	ND	ND	ND	648.9	0
77582	2018-12-04T13:00:00	53.7	ND	ND	ND	ND	38.40	ND	ND	ND	ND	649.3	0
77583	2018-12-04T14:00:00	65.2	ND	ND	ND	ND	36.50	ND	ND	ND	ND	648.8	0
77584	2018-12-04T15:00:00	54.8	ND	ND	ND	ND	33.30	ND	ND	ND	ND	647.3	0
77585	2018-12-04T16:00:00	48.9	ND	ND	ND	ND	10.1	ND	ND	ND	ND	523.1	0
77586	2018-12-04T17:00:00	27.4	ND	ND	ND	ND	8.4	ND	ND	ND	ND	334	0
77587	2018-12-04T18:00:00	25.8	ND	ND	ND	ND	6.6	ND	ND	ND	ND	46.8	0
77588	2018-12-04T19:00:00	13.7	ND	ND	ND	ND	7.9	ND	ND	ND	ND	0	0
77589	2018-12-04T20:00:00	18.4	ND	ND	ND	ND	9.00	ND	ND	ND	ND	0	0
77590	2018-12-04T21:00:00	7	ND	ND	ND	ND	7.1	ND	ND	ND	ND	0	0
77591	2018-12-04T22:00:00	10.3	ND	ND	ND	ND	7.3	ND	ND	ND	ND	0	0
77592	2018-12-04T23:00:00	13.7	ND	ND	ND	ND	7.3	ND	ND	ND	ND	0	0
77593	2018-12-05T00:00:00	12.5	ND	ND	ND	ND	9.8	ND	ND	ND	ND	0	0
77594	2018-12-05T01:00:00	17.7	ND	ND	ND	ND	3.5	ND	ND	ND	ND	0	0
77595	2018-12-05T02:00:00	26.3	ND	ND	ND	ND	6.4	ND	ND	ND	ND	0	0
77596	2018-12-05T03:00:00	14.3	ND	ND	ND	ND	6.1	ND	ND	ND	ND	0	0
77597	2018-12-05T04:00:00	21.4	ND	ND	ND	ND	2.6	ND	ND	ND	ND	0	0
77598	2018-12-05T05:00:00	32.8	ND	ND	ND	ND	2.5	ND	ND	ND	ND	0	0
77599	2018-12-05T06:00:00	51.9	ND	ND	ND	ND	2.2	ND	ND	ND	ND	0	0
77600	2018-12-05T07:00:00	60.8	ND	ND	ND	ND	2.6	ND	ND	ND	ND	64.7	0
77601	2018-12-05T08:00:00	75	ND	ND	ND	ND	4.1	ND	ND	ND	ND	423.5	0
77602	2018-12-05T09:00:00	86.9	ND	ND	ND	ND	8.8	ND	ND	ND	ND	543.2	0
77603	2018-12-05T10:00:00	73.9	ND	ND	ND	ND	10.5	ND	ND	ND	ND	544.3	0
77604	2018-12-05T11:00:00	65.4	ND	ND	ND	ND	6.1	ND	ND	ND	ND	587.5	0
77605	2018-12-05T12:00:00	44.3	ND	ND	ND	ND	10.4	ND	ND	ND	ND	624.3	0
77606	2018-12-05T13:00:00	36.5	ND	ND	ND	ND	13.00	ND	ND	ND	ND	645.2	0
77607	2018-12-05T14:00:00	24.2	ND	ND	ND	ND	24.6	ND	ND	ND	ND	645.3	0
77608	2018-12-05T15:00:00	33.9	ND	ND	ND	ND	16.8	ND	ND	ND	ND	553	0.25
77609	2018-12-05T16:00:00	7.6	ND	ND	ND	ND	18.4	ND	ND	ND	ND	589	0
77610	2018-12-05T17:00:00	36.9	ND	ND	ND	ND	12.9	ND	ND	ND	ND	415	0
77611	2018-12-05T18:00:00	28.8	ND	ND	ND	ND	8.6	ND	ND	ND	ND	129.3	0
77612	2018-12-05T19:00:00	5.1	ND	ND	ND	ND	7.3	ND	ND	ND	ND	0	0
77613	2018-12-05T20:00:00	12.1	ND	ND	ND	ND	3.2	ND	ND	ND	ND	0	1.78
77614	2018-12-05T21:00:00	15.8	ND	ND	ND	ND	5.4	ND	ND	ND	ND	0	3.81
77615	2018-12-05T22:00:00	14.4	ND	ND	ND	ND	3.9	ND	ND	ND	ND	0	1.78
77616	2018-12-05T23:00:00	15.8	ND	ND	ND	ND	2.1	ND	ND	ND	ND	0	2.03
77617	2018-12-06T00:00:00	23.7	ND	ND	ND	ND	1.6	ND	ND	ND	ND	0	9.91
77618	2018-12-06T01:00:00	18.7	ND	ND	ND	ND	5.1	ND	ND	ND	ND	0	32.77
77619	2018-12-06T02:00:00	8	ND	ND	ND	ND	7.2	ND	ND	ND	ND	0	30.73
77620	2018-12-06T03:00:00	5.2	ND	ND	ND	ND	8.4	ND	ND	ND	ND	0	3.56
77621	2018-12-06T04:00:00	9.8	ND	ND	ND	ND	8.2	ND	ND	ND	ND	0	0.51
77622	2018-12-06T05:00:00	6	ND	ND	ND	ND	8.1	ND	ND	ND	ND	0	0
77623	2018-12-06T06:00:00	18.1	ND	ND	ND	ND	4.7	ND	ND	ND	ND	0	0.25
77624	2018-12-06T07:00:00	26.3	ND	ND	ND	ND	1.6	ND	ND	ND	ND	61.6	0
77625	2018-12-06T08:00:00	34.4	ND	ND	ND	ND	1.4	ND	ND	ND	ND	312.8	0
77626	2018-12-06T09:00:00	46.7	ND	ND	ND	ND	4.2	ND	ND	ND	ND	648.2	0
77627	2018-12-06T10:00:00	47.4	ND	ND	ND	ND	9.3	ND	ND	ND	ND	617.2	0
77628	2018-12-06T11:00:00	48.6	ND	ND	ND	ND	19.8	ND	ND	ND	ND	645.1	0
77629	2018-12-06T12:00:00	71.1	ND	ND	ND	ND	32.30	ND	ND	ND	ND	635.7	0
77630	2018-12-06T13:00:00	27.7	ND	ND	ND	ND	54.50	ND	ND	ND	ND	648.3	0
77631	2018-12-06T14:00:00	42.8	ND	ND	ND	ND	48.60	ND	ND	ND	ND	634.3	0
77632	2018-12-06T15:00:00	54.6	ND	ND	ND	ND	51.70	ND	ND	ND	ND	561	0
77633	2018-12-06T16:00:00	46.2	ND	ND	ND	ND	21.9	ND	ND	ND	ND	591.9	0
77634	2018-12-06T17:00:00	31.5	ND	ND	ND	ND	11.7	ND	ND	ND	ND	259.4	0
77635	2018-12-06T18:00:00	21.3	ND	ND	ND	ND	6.2	ND	ND	ND	ND	45.4	0
77636	2018-12-06T19:00:00	19.6	ND	ND	ND	ND	4.5	ND	ND	ND	ND	0	0
77637	2018-12-06T20:00:00	19.4	ND	ND	ND	ND	2.6	ND	ND	ND	ND	0	0
77638	2018-12-06T21:00:00	32.7	ND	ND	ND	ND	1.00	ND	ND	ND	ND	0	0
77639	2018-12-06T22:00:00	62.1	ND	ND	ND	ND	0.80	ND	ND	ND	ND	0	0
77640	2018-12-06T23:00:00	58.6	ND	ND	ND	ND	1.3	ND	ND	ND	ND	0	0
77641	2018-12-07T00:00:00	27.7	ND	ND	ND	ND	6.9	ND	ND	ND	ND	0	0
77642	2018-12-07T01:00:00	14.5	ND	ND	ND	ND	3.3	ND	ND	ND	ND	0	0
77643	2018-12-07T02:00:00	25.5	ND	ND	ND	ND	1.9	ND	ND	ND	ND	0	0
77644	2018-12-07T03:00:00	34.2	ND	ND	ND	ND	4.1	ND	ND	ND	ND	0	0
77645	2018-12-07T04:00:00	19.4	ND	ND	ND	ND	8.3	ND	ND	ND	ND	0	22.61
77646	2018-12-07T05:00:00	19.7	ND	ND	ND	ND	7.2	ND	ND	ND	ND	0	4.83
77647	2018-12-07T06:00:00	35.2	ND	ND	ND	ND	1.2	ND	ND	ND	ND	0	0
77648	2018-12-07T07:00:00	45.2	ND	ND	ND	ND	0.70	ND	ND	ND	ND	87.5	0
77649	2018-12-07T08:00:00	40.3	ND	ND	ND	ND	1.1	ND	ND	ND	ND	263.5	0
77650	2018-12-07T09:00:00	54.5	ND	ND	ND	ND	4.00	ND	ND	ND	ND	351.9	0.25
77651	2018-12-07T10:00:00	45.2	ND	ND	ND	ND	13.1	ND	ND	ND	ND	628.6	0
77652	2018-12-07T11:00:00	71.4	ND	ND	ND	ND	31.8	ND	ND	ND	ND	648.4	0
77653	2018-12-07T12:00:00	83	ND	ND	ND	ND	42.70	ND	ND	ND	ND	647.9	0
77654	2018-12-07T13:00:00	53.1	ND	ND	ND	ND	43.60	ND	ND	ND	ND	622.6	0
77655	2018-12-07T14:00:00	50.5	ND	ND	ND	ND	40.30	ND	ND	ND	ND	594	0
77656	2018-12-07T15:00:00	30.3	ND	ND	ND	ND	24.7	ND	ND	ND	ND	626.3	0
77657	2018-12-07T16:00:00	22.4	ND	ND	ND	ND	16.8	ND	ND	ND	ND	644.9	0
77658	2018-12-07T17:00:00	20.2	ND	ND	ND	ND	11.9	ND	ND	ND	ND	384.6	0
77659	2018-12-07T18:00:00	14.8	ND	ND	ND	ND	7.9	ND	ND	ND	ND	89.7	0
77660	2018-12-07T19:00:00	14.8	ND	ND	ND	ND	6.9	ND	ND	ND	ND	0	0
77661	2018-12-07T20:00:00	13	ND	ND	ND	ND	8.6	ND	ND	ND	ND	0	0
77662	2018-12-07T21:00:00	27.6	ND	ND	ND	ND	7.5	ND	ND	ND	ND	0	0
77663	2018-12-07T22:00:00	53	ND	ND	ND	ND	5.5	ND	ND	ND	ND	0	0
77664	2018-12-07T23:00:00	69.4	ND	ND	ND	ND	2.9	ND	ND	ND	ND	0	0
77665	2018-12-08T00:00:00	66.5	ND	ND	ND	ND	2.1	ND	ND	ND	ND	0	0
77666	2018-12-08T01:00:00	55.4	ND	ND	ND	ND	1.6	ND	ND	ND	ND	0	0
77667	2018-12-08T02:00:00	46.5	ND	ND	ND	ND	1.7	ND	ND	ND	ND	0	0
77668	2018-12-08T03:00:00	44.5	ND	ND	ND	ND	2.00	ND	ND	ND	ND	0	0
77669	2018-12-08T04:00:00	75.1	ND	ND	ND	ND	1.1	ND	ND	ND	ND	0	0
77670	2018-12-08T05:00:00	69.6	ND	ND	ND	ND	0.90	ND	ND	ND	ND	0	0
77671	2018-12-08T06:00:00	69.1	ND	ND	ND	ND	0.90	ND	ND	ND	ND	0	0
77672	2018-12-08T07:00:00	119.4	ND	ND	ND	ND	0.90	ND	ND	ND	ND	88.6	0
77673	2018-12-08T08:00:00	86.3	ND	ND	ND	ND	3.00	ND	ND	ND	ND	482.6	0
77674	2018-12-08T09:00:00	88.5	ND	ND	ND	ND	5.5	ND	ND	ND	ND	376.2	0
77675	2018-12-08T10:00:00	88.1	ND	ND	ND	ND	17.9	ND	ND	ND	ND	626.5	0
77676	2018-12-08T11:00:00	78.6	ND	ND	ND	ND	38.10	ND	ND	ND	ND	646.6	0
77677	2018-12-08T12:00:00	89.1	ND	ND	ND	ND	59.20	ND	ND	ND	ND	636.5	0
77678	2018-12-08T13:00:00	81.5	ND	ND	ND	ND	88.40	ND	ND	ND	ND	618.1	0
77679	2018-12-08T14:00:00	65.3	ND	ND	ND	ND	92.40	ND	ND	ND	ND	636.2	0
77680	2018-12-08T15:00:00	60.7	ND	ND	ND	ND	80.10	ND	ND	ND	ND	312	0
77681	2018-12-08T16:00:00	43.4	ND	ND	ND	ND	18.6	ND	ND	ND	ND	262.8	0
77682	2018-12-08T17:00:00	11.7	ND	ND	ND	ND	13.00	ND	ND	ND	ND	145.5	0
77683	2018-12-08T18:00:00	14.9	ND	ND	ND	ND	10.4	ND	ND	ND	ND	32.9	0
77684	2018-12-08T19:00:00	26.9	ND	ND	ND	ND	8.8	ND	ND	ND	ND	0	0
77685	2018-12-08T20:00:00	20.4	ND	ND	ND	ND	6.00	ND	ND	ND	ND	0	0
77686	2018-12-08T21:00:00	25.1	ND	ND	ND	ND	2.8	ND	ND	ND	ND	0	0
77687	2018-12-08T22:00:00	37.3	ND	ND	ND	ND	0.90	ND	ND	ND	ND	0	0
77688	2018-12-08T23:00:00	46.5	ND	ND	ND	ND	1.00	ND	ND	ND	ND	0	0
77689	2018-12-09T00:00:00	52.3	ND	ND	ND	ND	1.00	ND	ND	ND	ND	0	0
77690	2018-12-09T01:00:00	53.8	ND	ND	ND	ND	0.70	ND	ND	ND	ND	0	0
77691	2018-12-09T02:00:00	48.4	ND	ND	ND	ND	0.80	ND	ND	ND	ND	0	0
77692	2018-12-09T03:00:00	31.1	ND	ND	ND	ND	0.70	ND	ND	ND	ND	0	0
77693	2018-12-09T04:00:00	44.9	ND	ND	ND	ND	0.70	ND	ND	ND	ND	0	0
77694	2018-12-09T05:00:00	44.5	ND	ND	ND	ND	0.80	ND	ND	ND	ND	0	0
77695	2018-12-09T06:00:00	76.8	ND	ND	ND	ND	0.70	ND	ND	ND	ND	0	0
77696	2018-12-09T07:00:00	76.7	ND	ND	ND	ND	1.00	ND	ND	ND	ND	89.2	0
77697	2018-12-09T08:00:00	47.6	ND	ND	ND	ND	5.00	ND	ND	ND	ND	553.7	0
77698	2018-12-09T09:00:00	62.9	ND	ND	ND	ND	12.3	ND	ND	ND	ND	648.6	0
77699	2018-12-09T10:00:00	82.4	ND	ND	ND	ND	28.2	ND	ND	ND	ND	648	0
77700	2018-12-09T11:00:00	81.7	ND	ND	ND	ND	45.80	ND	ND	ND	ND	645.8	0
77701	2018-12-09T12:00:00	82.4	ND	ND	ND	ND	62.80	ND	ND	ND	ND	634.2	0
77702	2018-12-09T13:00:00	71.7	ND	ND	ND	ND	67.60	ND	ND	ND	ND	617.4	0
77703	2018-12-09T14:00:00	61.5	ND	ND	ND	ND	78.10	ND	ND	ND	ND	640.8	0
77704	2018-12-09T15:00:00	54.8	ND	ND	ND	ND	74.10	ND	ND	ND	ND	643.7	0
77705	2018-12-09T16:00:00	56.2	ND	ND	ND	ND	74.40	ND	ND	ND	ND	363.4	0
77706	2018-12-09T17:00:00	33.4	ND	ND	ND	ND	46.90	ND	ND	ND	ND	335.8	0
77707	2018-12-09T18:00:00	22.1	ND	ND	ND	ND	27.2	ND	ND	ND	ND	54.5	0
77708	2018-12-09T19:00:00	24.1	ND	ND	ND	ND	20.5	ND	ND	ND	ND	0	0
77709	2018-12-09T20:00:00	30.5	ND	ND	ND	ND	13.6	ND	ND	ND	ND	0	0
77710	2018-12-09T21:00:00	32.2	ND	ND	ND	ND	4.6	ND	ND	ND	ND	0	0
77711	2018-12-09T22:00:00	40.3	ND	ND	ND	ND	7.00	ND	ND	ND	ND	0	0
77712	2018-12-09T23:00:00	44.5	ND	ND	ND	ND	3.7	ND	ND	ND	ND	0	0
77713	2018-12-10T00:00:00	55.3	ND	ND	ND	ND	3.00	ND	ND	ND	ND	0	0
77714	2018-12-10T01:00:00	43.3	ND	ND	ND	ND	3.4	ND	ND	ND	ND	0	0
77715	2018-12-10T02:00:00	45.5	ND	ND	ND	ND	3.00	ND	ND	ND	ND	0	0
77716	2018-12-10T03:00:00	44.5	ND	ND	ND	ND	3.4	ND	ND	ND	ND	0	0
77717	2018-12-10T04:00:00	46.1	ND	ND	ND	ND	1.7	ND	ND	ND	ND	0	0
77718	2018-12-10T05:00:00	46.3	ND	ND	ND	ND	1.2	ND	ND	ND	ND	0	0
77719	2018-12-10T06:00:00	43	ND	ND	ND	ND	1.8	ND	ND	ND	ND	0	0
77720	2018-12-10T07:00:00	86	ND	ND	ND	ND	1.2	ND	ND	ND	ND	50.4	0
77721	2018-12-10T08:00:00	124.7	ND	ND	ND	ND	1.5	ND	ND	ND	ND	231.7	0
77722	2018-12-10T09:00:00	133.6	ND	ND	ND	ND	3.9	ND	ND	ND	ND	613.7	0
77723	2018-12-10T10:00:00	141.6	ND	ND	ND	ND	23.8	ND	ND	ND	ND	648.3	0
77724	2018-12-10T11:00:00	101.9	ND	ND	ND	ND	43.70	ND	ND	ND	ND	648.1	0
77725	2018-12-10T12:00:00	79.8	ND	ND	ND	ND	54.40	ND	ND	ND	ND	627.7	0
77726	2018-12-10T13:00:00	88.3	ND	ND	ND	ND	79.20	ND	ND	ND	ND	648	0
77727	2018-12-10T14:00:00	77.5	ND	ND	ND	ND	87.20	ND	ND	ND	ND	610.9	0
77728	2018-12-10T15:00:00	75.3	ND	ND	ND	ND	79.60	ND	ND	ND	ND	482.3	0
77729	2018-12-10T16:00:00	61.1	ND	ND	ND	ND	28.3	ND	ND	ND	ND	514.1	0
77730	2018-12-10T17:00:00	34.5	ND	ND	ND	ND	16.2	ND	ND	ND	ND	309.3	0
77731	2018-12-10T18:00:00	26.3	ND	ND	ND	ND	10.6	ND	ND	ND	ND	41	0
77732	2018-12-10T19:00:00	18.8	ND	ND	ND	ND	6.8	ND	ND	ND	ND	0	0
77733	2018-12-10T20:00:00	37	ND	ND	ND	ND	4.2	ND	ND	ND	ND	0	0
77734	2018-12-10T21:00:00	70.2	ND	ND	ND	ND	1.00	ND	ND	ND	ND	0	0
77735	2018-12-10T22:00:00	69.4	ND	ND	ND	ND	4.1	ND	ND	ND	ND	0	0
77736	2018-12-10T23:00:00	50.3	ND	ND	ND	ND	3.8	ND	ND	ND	ND	0	0
77737	2018-12-11T00:00:00	47.4	ND	ND	ND	ND	1.9	ND	ND	ND	ND	0	0
77738	2018-12-11T01:00:00	42.8	ND	ND	ND	ND	1.00	ND	ND	ND	ND	0	0
77739	2018-12-11T02:00:00	43.5	ND	ND	ND	ND	1.2	ND	ND	ND	ND	0	0
77740	2018-12-11T03:00:00	42.9	ND	ND	ND	ND	1.1	ND	ND	ND	ND	0	0
77741	2018-12-11T04:00:00	73	ND	ND	ND	ND	1.2	ND	ND	ND	ND	0	0
77742	2018-12-11T05:00:00	76.8	ND	ND	ND	ND	0.90	ND	ND	ND	ND	0	0
77743	2018-12-11T06:00:00	60.6	ND	ND	ND	ND	0.80	ND	ND	ND	ND	0	0
77744	2018-12-11T07:00:00	106.1	ND	ND	ND	ND	1.00	ND	ND	ND	ND	75.6	0
77745	2018-12-11T08:00:00	119.8	ND	ND	ND	ND	2.3	ND	ND	ND	ND	403.9	0
77746	2018-12-11T09:00:00	124.8	ND	ND	ND	ND	5.4	ND	ND	ND	ND	593.8	0
77747	2018-12-11T10:00:00	115.3	ND	ND	ND	ND	23.3	ND	ND	ND	ND	647.7	0
77748	2018-12-11T11:00:00	124.3	ND	ND	ND	ND	53.30	ND	ND	ND	ND	637.2	0
77749	2018-12-11T12:00:00	123.2	ND	ND	ND	ND	74.30	ND	ND	ND	ND	602.6	0
77750	2018-12-11T13:00:00	115.6	ND	ND	ND	ND	74.70	ND	ND	ND	ND	453	0
77751	2018-12-11T14:00:00	85.8	ND	ND	ND	ND	65.70	ND	ND	ND	ND	530.4	0
77752	2018-12-11T15:00:00	69.8	ND	ND	ND	ND	52.80	ND	ND	ND	ND	644.6	0
77753	2018-12-11T16:00:00	73.6	ND	ND	ND	ND	28.6	ND	ND	ND	ND	406.2	0
77754	2018-12-11T17:00:00	66.1	ND	ND	ND	ND	16.8	ND	ND	ND	ND	170.3	0
77755	2018-12-11T18:00:00	39.4	ND	ND	ND	ND	8.2	ND	ND	ND	ND	52.5	0
77756	2018-12-11T19:00:00	32	ND	ND	ND	ND	5.00	ND	ND	ND	ND	0	0
77757	2018-12-11T20:00:00	39.3	ND	ND	ND	ND	3.8	ND	ND	ND	ND	0	0
77758	2018-12-11T21:00:00	30	ND	ND	ND	ND	1.9	ND	ND	ND	ND	0	0
77759	2018-12-11T22:00:00	38.4	ND	ND	ND	ND	2.7	ND	ND	ND	ND	0	0
77760	2018-12-11T23:00:00	35.9	ND	ND	ND	ND	1.5	ND	ND	ND	ND	0	0
77761	2018-12-12T00:00:00	55.3	ND	ND	ND	ND	0.80	ND	ND	ND	ND	0	0
77762	2018-12-12T01:00:00	82.1	ND	ND	ND	ND	2.7	ND	ND	ND	ND	0	0
77763	2018-12-12T02:00:00	77.8	ND	ND	ND	ND	4.7	ND	ND	ND	ND	0	0
77764	2018-12-12T03:00:00	58.3	ND	ND	ND	ND	1.3	ND	ND	ND	ND	0	0
77765	2018-12-12T04:00:00	66.6	ND	ND	ND	ND	1.2	ND	ND	ND	ND	0	0
77766	2018-12-12T05:00:00	70	ND	ND	ND	ND	1.1	ND	ND	ND	ND	0	0
77767	2018-12-12T06:00:00	126.9	ND	ND	ND	ND	1.1	ND	ND	ND	ND	0	0
77768	2018-12-12T07:00:00	121.9	ND	ND	ND	ND	1.1	ND	ND	ND	ND	34.3	0
77769	2018-12-12T08:00:00	116.8	ND	ND	ND	ND	2.1	ND	ND	ND	ND	311.4	0
77770	2018-12-12T09:00:00	125.4	ND	ND	ND	ND	7.8	ND	ND	ND	ND	578.6	0
77771	2018-12-12T10:00:00	135.4	ND	ND	ND	ND	20.7	ND	ND	ND	ND	602.5	0
77772	2018-12-12T11:00:00	108.5	ND	ND	ND	ND	40.40	ND	ND	ND	ND	646.3	0
77773	2018-12-12T12:00:00	93.6	ND	ND	ND	ND	62.20	ND	ND	ND	ND	635.8	0
77774	2018-12-12T13:00:00	86.9	ND	ND	ND	ND	75.00	ND	ND	ND	ND	647.1	0
77775	2018-12-12T14:00:00	104.4	ND	ND	ND	ND	74.20	ND	ND	ND	ND	624.4	0
77776	2018-12-12T15:00:00	90.8	ND	ND	ND	ND	81.80	ND	ND	ND	ND	483.4	0
77777	2018-12-12T16:00:00	91	ND	ND	ND	ND	68.30	ND	ND	ND	ND	187.8	0
77778	2018-12-12T17:00:00	83.8	ND	ND	ND	ND	16.6	ND	ND	ND	ND	166.3	4.06
77779	2018-12-12T18:00:00	50.5	ND	ND	ND	ND	124.40	ND	ND	ND	ND	45	0
77780	2018-12-12T19:00:00	90.1	ND	ND	ND	ND	6.6	ND	ND	ND	ND	0	0
77781	2018-12-12T20:00:00	53.2	ND	ND	ND	ND	5.9	ND	ND	ND	ND	0	0
77782	2018-12-12T21:00:00	28.3	ND	ND	ND	ND	9.7	ND	ND	ND	ND	0	0
77783	2018-12-12T22:00:00	45.2	ND	ND	ND	ND	15.3	ND	ND	ND	ND	0	0
77784	2018-12-12T23:00:00	74.6	ND	ND	ND	ND	4.9	ND	ND	ND	ND	0	0
77785	2018-12-13T00:00:00	56	ND	ND	ND	ND	3.2	ND	ND	ND	ND	0	0
77786	2018-12-13T01:00:00	31.6	ND	ND	ND	ND	5.2	ND	ND	ND	ND	0	0
77787	2018-12-13T02:00:00	27.2	ND	ND	ND	ND	5.5	ND	ND	ND	ND	0	0
77788	2018-12-13T03:00:00	40.2	ND	ND	ND	ND	1.1	ND	ND	ND	ND	0	0
77789	2018-12-13T04:00:00	58	ND	ND	ND	ND	3.4	ND	ND	ND	ND	0	0
77790	2018-12-13T05:00:00	54.8	ND	ND	ND	ND	3.6	ND	ND	ND	ND	0	0
77791	2018-12-13T06:00:00	42.3	ND	ND	ND	ND	1.1	ND	ND	ND	ND	0	0
77792	2018-12-13T07:00:00	84.1	ND	ND	ND	ND	1.00	ND	ND	ND	ND	42.1	0
77793	2018-12-13T08:00:00	103	ND	ND	ND	ND	1.7	ND	ND	ND	ND	288	0
77794	2018-12-13T09:00:00	138.4	ND	ND	ND	ND	4.4	ND	ND	ND	ND	545.7	0
77795	2018-12-13T10:00:00	114.7	ND	ND	ND	ND	21.4	ND	ND	ND	ND	645.1	0
77796	2018-12-13T11:00:00	97	ND	ND	ND	ND	36.10	ND	ND	ND	ND	649.9	0
77797	2018-12-13T12:00:00	87.6	ND	ND	ND	ND	28.4	ND	ND	ND	ND	649	0
77798	2018-12-13T13:00:00	87.6	ND	ND	ND	ND	42.30	ND	ND	ND	ND	614.5	0
77799	2018-12-13T14:00:00	80	ND	ND	ND	ND	55.20	ND	ND	ND	ND	618	0
77800	2018-12-13T15:00:00	84.8	ND	ND	ND	ND	69.30	ND	ND	ND	ND	472	0
77801	2018-12-13T16:00:00	74.7	ND	ND	ND	ND	42.70	ND	ND	ND	ND	177.7	0
77802	2018-12-13T17:00:00	35.8	ND	ND	ND	ND	11.6	ND	ND	ND	ND	171.5	0
77803	2018-12-13T18:00:00	14.7	ND	ND	ND	ND	7.00	ND	ND	ND	ND	55.2	0
77804	2018-12-13T19:00:00	15.5	ND	ND	ND	ND	6.2	ND	ND	ND	ND	0	0
77805	2018-12-13T20:00:00	18.7	ND	ND	ND	ND	6.00	ND	ND	ND	ND	0	0
77806	2018-12-13T21:00:00	18.8	ND	ND	ND	ND	4.1	ND	ND	ND	ND	0	0
77807	2018-12-13T22:00:00	28.5	ND	ND	ND	ND	12.8	ND	ND	ND	ND	0	0
77808	2018-12-13T23:00:00	23.2	ND	ND	ND	ND	1.6	ND	ND	ND	ND	0	0
77809	2018-12-14T00:00:00	38	ND	ND	ND	ND	3.3	ND	ND	ND	ND	0	0
77810	2018-12-14T01:00:00	46.6	ND	ND	ND	ND	4.1	ND	ND	ND	ND	0	0
77811	2018-12-14T02:00:00	48.4	ND	ND	ND	ND	0.90	ND	ND	ND	ND	0	0
77812	2018-12-14T03:00:00	58.3	ND	ND	ND	ND	1.3	ND	ND	ND	ND	0	0
77813	2018-12-14T04:00:00	64.3	ND	ND	ND	ND	1.1	ND	ND	ND	ND	0	0
77814	2018-12-14T05:00:00	59.3	ND	ND	ND	ND	1.1	ND	ND	ND	ND	0	0
77815	2018-12-14T06:00:00	56.6	ND	ND	ND	ND	1.00	ND	ND	ND	ND	0	0.76
77816	2018-12-14T07:00:00	53.4	ND	ND	ND	ND	1.3	ND	ND	ND	ND	51.8	0.25
77817	2018-12-14T08:00:00	53.5	ND	ND	ND	ND	1.6	ND	ND	ND	ND	271.8	0
77818	2018-12-14T09:00:00	77.9	ND	ND	ND	ND	4.8	ND	ND	ND	ND	611.3	0
77819	2018-12-14T10:00:00	92.6	ND	ND	ND	ND	11.2	ND	ND	ND	ND	649.4	0
77820	2018-12-14T11:00:00	90.5	ND	ND	ND	ND	21.6	ND	ND	ND	ND	649.9	0
77821	2018-12-14T12:00:00	82.4	ND	ND	ND	ND	38.60	ND	ND	ND	ND	617.2	0
77822	2018-12-14T13:00:00	73.2	ND	ND	ND	ND	48.20	ND	ND	ND	ND	646.8	0
77823	2018-12-14T14:00:00	70.8	ND	ND	ND	ND	56.10	ND	ND	ND	ND	444.1	3.56
77824	2018-12-14T15:00:00	54.1	ND	ND	ND	ND	5.6	ND	ND	ND	ND	161.4	9.4
77825	2018-12-14T16:00:00	27.9	ND	ND	ND	ND	3.3	ND	ND	ND	ND	323.2	0
77826	2018-12-14T17:00:00	60.1	ND	ND	ND	ND	4.00	ND	ND	ND	ND	238.7	0
77827	2018-12-14T18:00:00	63.6	ND	ND	ND	ND	2.6	ND	ND	ND	ND	35.9	0
77828	2018-12-14T19:00:00	71.7	ND	ND	ND	ND	1.00	ND	ND	ND	ND	0	0
77829	2018-12-14T20:00:00	67.3	ND	ND	ND	ND	1.00	ND	ND	ND	ND	0	0
77830	2018-12-14T21:00:00	47.9	ND	ND	ND	ND	0.90	ND	ND	ND	ND	0	0
77831	2018-12-14T22:00:00	26.8	ND	ND	ND	ND	1.00	ND	ND	ND	ND	0	0
77832	2018-12-14T23:00:00	22.6	ND	ND	ND	ND	1.4	ND	ND	ND	ND	0	0
77833	2018-12-15T00:00:00	40.6	ND	ND	ND	ND	1.3	ND	ND	ND	ND	0	0
77834	2018-12-15T01:00:00	86.6	ND	ND	ND	ND	1.2	ND	ND	ND	ND	0	0
77835	2018-12-15T02:00:00	108	ND	ND	ND	ND	1.1	ND	ND	ND	ND	0	0
77836	2018-12-15T03:00:00	47.5	ND	ND	ND	ND	1.6	ND	ND	ND	ND	0	0
77837	2018-12-15T04:00:00	33.9	ND	ND	ND	ND	0.90	ND	ND	ND	ND	0	0
77838	2018-12-15T05:00:00	28.2	ND	ND	ND	ND	1.1	ND	ND	ND	ND	0	0
77839	2018-12-15T06:00:00	70	ND	ND	ND	ND	1.2	ND	ND	ND	ND	0	0
77840	2018-12-15T07:00:00	116.7	ND	ND	ND	ND	1.5	ND	ND	ND	ND	38.6	0
77841	2018-12-15T08:00:00	133.8	ND	ND	ND	ND	1.5	ND	ND	ND	ND	136.6	0
77842	2018-12-15T09:00:00	167.5	ND	ND	ND	ND	2.8	ND	ND	ND	ND	452.3	0
77843	2018-12-15T10:00:00	187.5	ND	ND	ND	ND	8.5	ND	ND	ND	ND	649.5	0
77844	2018-12-15T11:00:00	148.7	ND	ND	ND	ND	19.5	ND	ND	ND	ND	644.9	0
77845	2018-12-15T12:00:00	105.3	ND	ND	ND	ND	48.70	ND	ND	ND	ND	638	0
77846	2018-12-15T13:00:00	82.7	ND	ND	ND	ND	62.90	ND	ND	ND	ND	635.2	0
77847	2018-12-15T14:00:00	85.9	ND	ND	ND	ND	56.70	ND	ND	ND	ND	578.4	0
77848	2018-12-15T15:00:00	62.9	ND	ND	ND	ND	67.30	ND	ND	ND	ND	466.9	0
77849	2018-12-15T16:00:00	47.6	ND	ND	ND	ND	59.50	ND	ND	ND	ND	576.7	0
77850	2018-12-15T17:00:00	64.1	ND	ND	ND	ND	33.80	ND	ND	ND	ND	159.1	0
77851	2018-12-15T18:00:00	33.3	ND	ND	ND	ND	10.2	ND	ND	ND	ND	43.5	0
77852	2018-12-15T19:00:00	44.1	ND	ND	ND	ND	10.00	ND	ND	ND	ND	0	0
77853	2018-12-15T20:00:00	37.6	ND	ND	ND	ND	8.4	ND	ND	ND	ND	0	0
77854	2018-12-15T21:00:00	26.5	ND	ND	ND	ND	5.2	ND	ND	ND	ND	0	0
77855	2018-12-15T22:00:00	29.5	ND	ND	ND	ND	1.3	ND	ND	ND	ND	0	0
77856	2018-12-15T23:00:00	44.5	ND	ND	ND	ND	5.00	ND	ND	ND	ND	0	0
77857	2018-12-16T00:00:00	35	ND	ND	ND	ND	2.5	ND	ND	ND	ND	0	0
77858	2018-12-16T01:00:00	62.7	ND	ND	ND	ND	4.7	ND	ND	ND	ND	0	0
77859	2018-12-16T02:00:00	63.4	ND	ND	ND	ND	1.3	ND	ND	ND	ND	0	0
77860	2018-12-16T03:00:00	78.6	ND	ND	ND	ND	5.2	ND	ND	ND	ND	0	0
77861	2018-12-16T04:00:00	76.3	ND	ND	ND	ND	1.2	ND	ND	ND	ND	0	0
77862	2018-12-16T05:00:00	100.3	ND	ND	ND	ND	1.1	ND	ND	ND	ND	0	0
77863	2018-12-16T06:00:00	70.2	ND	ND	ND	ND	1.5	ND	ND	ND	ND	0	0
77864	2018-12-16T07:00:00	62.3	ND	ND	ND	ND	1.2	ND	ND	ND	ND	57.2	0
77865	2018-12-16T08:00:00	74.6	ND	ND	ND	ND	2.6	ND	ND	ND	ND	327	0
77866	2018-12-16T09:00:00	108.6	ND	ND	ND	ND	13.5	ND	ND	ND	ND	615.4	0
77867	2018-12-16T10:00:00	103.4	ND	ND	ND	ND	39.40	ND	ND	ND	ND	641.6	0
77868	2018-12-16T11:00:00	92	ND	ND	ND	ND	55.10	ND	ND	ND	ND	643.4	0
77869	2018-12-16T12:00:00	83.1	ND	ND	ND	ND	69.70	ND	ND	ND	ND	650.5	0
77870	2018-12-16T13:00:00	80.1	ND	ND	ND	ND	78.90	ND	ND	ND	ND	614.6	0
77871	2018-12-16T14:00:00	63.4	ND	ND	ND	ND	87.20	ND	ND	ND	ND	552	0
77872	2018-12-16T15:00:00	59.8	ND	ND	ND	ND	71.10	ND	ND	ND	ND	509.6	0
77873	2018-12-16T16:00:00	42.5	ND	ND	ND	ND	33.00	ND	ND	ND	ND	650.8	0
77874	2018-12-16T17:00:00	27.6	ND	ND	ND	ND	27.5	ND	ND	ND	ND	357.4	0
77875	2018-12-16T18:00:00	10.6	ND	ND	ND	ND	21.5	ND	ND	ND	ND	46.8	0
77876	2018-12-16T19:00:00	8.1	ND	ND	ND	ND	17.7	ND	ND	ND	ND	0	0
77877	2018-12-16T20:00:00	9	ND	ND	ND	ND	14.3	ND	ND	ND	ND	0	0
77878	2018-12-16T21:00:00	15.7	ND	ND	ND	ND	17.00	ND	ND	ND	ND	0	0
77879	2018-12-16T22:00:00	21.1	ND	ND	ND	ND	10.6	ND	ND	ND	ND	0	0
77880	2018-12-16T23:00:00	22.4	ND	ND	ND	ND	7.5	ND	ND	ND	ND	0	0
77881	2018-12-17T00:00:00	49	ND	ND	ND	ND	1.9	ND	ND	ND	ND	0	0
77882	2018-12-17T01:00:00	51.8	ND	ND	ND	ND	4.7	ND	ND	ND	ND	0	0
77883	2018-12-17T02:00:00	44.4	ND	ND	ND	ND	8.9	ND	ND	ND	ND	0	0
77884	2018-12-17T03:00:00	43.3	ND	ND	ND	ND	4.8	ND	ND	ND	ND	0	0
77885	2018-12-17T04:00:00	34.7	ND	ND	ND	ND	3.8	ND	ND	ND	ND	0	0
77886	2018-12-17T05:00:00	45	ND	ND	ND	ND	2.00	ND	ND	ND	ND	0	0
77887	2018-12-17T06:00:00	68.1	ND	ND	ND	ND	1.1	ND	ND	ND	ND	0	0
77888	2018-12-17T07:00:00	67.1	ND	ND	ND	ND	1.5	ND	ND	ND	ND	91.3	0
77889	2018-12-17T08:00:00	66.4	ND	ND	ND	ND	2.4	ND	ND	ND	ND	508.7	0
77890	2018-12-17T09:00:00	102.5	ND	ND	ND	ND	12.3	ND	ND	ND	ND	639.2	0
77891	2018-12-17T10:00:00	100.5	ND	ND	ND	ND	29.00	ND	ND	ND	ND	650.1	0
77892	2018-12-17T11:00:00	124.5	ND	ND	ND	ND	55.30	ND	ND	ND	ND	650	0
77893	2018-12-17T12:00:00	111	ND	ND	ND	ND	64.70	ND	ND	ND	ND	649.7	0
77894	2018-12-17T13:00:00	100	ND	ND	ND	ND	68.90	ND	ND	ND	ND	641.3	0
77895	2018-12-17T14:00:00	87.6	ND	ND	ND	ND	87.10	ND	ND	ND	ND	643.1	0
77896	2018-12-17T15:00:00	77.3	ND	ND	ND	ND	61.40	ND	ND	ND	ND	528.6	0
77897	2018-12-17T16:00:00	54.4	ND	ND	ND	ND	25.8	ND	ND	ND	ND	647	0
77898	2018-12-17T17:00:00	31.6	ND	ND	ND	ND	19.7	ND	ND	ND	ND	390.2	0
77899	2018-12-17T18:00:00	22.3	ND	ND	ND	ND	15.1	ND	ND	ND	ND	57.1	0
77900	2018-12-17T19:00:00	16.5	ND	ND	ND	ND	14.2	ND	ND	ND	ND	0	0
77901	2018-12-17T20:00:00	18.3	ND	ND	ND	ND	12.1	ND	ND	ND	ND	0	0
77902	2018-12-17T21:00:00	24	ND	ND	ND	ND	3.7	ND	ND	ND	ND	0	0
77903	2018-12-17T22:00:00	40.3	ND	ND	ND	ND	4.8	ND	ND	ND	ND	0	0
77904	2018-12-17T23:00:00	25.4	ND	ND	ND	ND	2.3	ND	ND	ND	ND	0	0
77905	2018-12-18T00:00:00	22.8	ND	ND	ND	ND	1.2	ND	ND	ND	ND	0	0
77906	2018-12-18T01:00:00	55.3	ND	ND	ND	ND	1.2	ND	ND	ND	ND	0	0
77907	2018-12-18T02:00:00	48.2	ND	ND	ND	ND	1.3	ND	ND	ND	ND	0	0
77908	2018-12-18T03:00:00	45.6	ND	ND	ND	ND	1.7	ND	ND	ND	ND	0	0
77909	2018-12-18T04:00:00	43	ND	ND	ND	ND	2.4	ND	ND	ND	ND	0	0
77910	2018-12-18T05:00:00	42.6	ND	ND	ND	ND	1.2	ND	ND	ND	ND	0	0
77911	2018-12-18T06:00:00	50.4	ND	ND	ND	ND	1.00	ND	ND	ND	ND	0	0
77912	2018-12-18T07:00:00	41.9	ND	ND	ND	ND	1.2	ND	ND	ND	ND	110.7	0
77913	2018-12-18T08:00:00	48.8	ND	ND	ND	ND	2.7	ND	ND	ND	ND	574.5	0
77914	2018-12-18T09:00:00	100.5	ND	ND	ND	ND	10.5	ND	ND	ND	ND	649.2	0
77915	2018-12-18T10:00:00	112.6	ND	ND	ND	ND	24.2	ND	ND	ND	ND	648.8	0
77916	2018-12-18T11:00:00	88.7	ND	ND	ND	ND	34.00	ND	ND	ND	ND	650.5	0
77917	2018-12-18T12:00:00	77.1	ND	ND	ND	ND	55.50	ND	ND	ND	ND	600.5	0
77918	2018-12-18T13:00:00	81.4	ND	ND	ND	ND	70.70	ND	ND	ND	ND	641.2	0
77919	2018-12-18T14:00:00	88.7	ND	ND	ND	ND	79.80	ND	ND	ND	ND	563.1	0
77920	2018-12-18T15:00:00	82	ND	ND	ND	ND	42.20	ND	ND	ND	ND	615.1	0
77921	2018-12-18T16:00:00	47	ND	ND	ND	ND	23.4	ND	ND	ND	ND	648.2	0
77922	2018-12-18T17:00:00	50.2	ND	ND	ND	ND	15.00	ND	ND	ND	ND	365.7	0
77923	2018-12-18T18:00:00	15.6	ND	ND	ND	ND	12.7	ND	ND	ND	ND	47.6	0
77924	2018-12-18T19:00:00	10.8	ND	ND	ND	ND	11.9	ND	ND	ND	ND	0	0
77925	2018-12-18T20:00:00	20.1	ND	ND	ND	ND	10.5	ND	ND	ND	ND	0	0
77926	2018-12-18T21:00:00	22.4	ND	ND	ND	ND	5.1	ND	ND	ND	ND	0	0
77927	2018-12-18T22:00:00	60	ND	ND	ND	ND	3.2	ND	ND	ND	ND	0	0
77928	2018-12-18T23:00:00	48.2	ND	ND	ND	ND	1.7	ND	ND	ND	ND	0	0
77929	2018-12-19T00:00:00	61.1	ND	ND	ND	ND	2.4	ND	ND	ND	ND	0	0
77930	2018-12-19T01:00:00	75.7	ND	ND	ND	ND	3.5	ND	ND	ND	ND	0	0
77931	2018-12-19T02:00:00	68.5	ND	ND	ND	ND	2.3	ND	ND	ND	ND	0	0
77932	2018-12-19T03:00:00	70.3	ND	ND	ND	ND	1.6	ND	ND	ND	ND	0	0
77933	2018-12-19T04:00:00	61.4	ND	ND	ND	ND	4.1	ND	ND	ND	ND	0	0
77934	2018-12-19T05:00:00	31.7	ND	ND	ND	ND	1.8	ND	ND	ND	ND	0	0
77935	2018-12-19T06:00:00	21.7	ND	ND	ND	ND	1.1	ND	ND	ND	ND	0	0
77936	2018-12-19T07:00:00	59.6	ND	ND	ND	ND	1.2	ND	ND	ND	ND	123.6	0
77937	2018-12-19T08:00:00	96.4	ND	ND	ND	ND	2.6	ND	ND	ND	ND	480.7	0
77938	2018-12-19T09:00:00	117.9	ND	ND	ND	ND	9.7	ND	ND	ND	ND	609.1	0
77939	2018-12-19T10:00:00	118.9	ND	ND	ND	ND	15.8	ND	ND	ND	ND	644.8	0
77940	2018-12-19T11:00:00	90.8	ND	ND	ND	ND	47.50	ND	ND	ND	ND	649.8	0
77941	2018-12-19T12:00:00	87.8	ND	ND	ND	ND	80.00	ND	ND	ND	ND	650.1	0
77942	2018-12-19T13:00:00	101.9	ND	ND	ND	ND	114.20	ND	ND	ND	ND	618.3	0
77943	2018-12-19T14:00:00	94.5	ND	ND	ND	ND	90.00	ND	ND	ND	ND	496.7	0
77944	2018-12-19T15:00:00	70.6	ND	ND	ND	ND	76.60	ND	ND	ND	ND	594.7	0
77945	2018-12-19T16:00:00	86.1	ND	ND	ND	ND	37.80	ND	ND	ND	ND	324.4	0
77946	2018-12-19T17:00:00	49	ND	ND	ND	ND	16.8	ND	ND	ND	ND	270.3	0
77947	2018-12-19T18:00:00	29.8	ND	ND	ND	ND	15.1	ND	ND	ND	ND	54.6	0
77948	2018-12-19T19:00:00	20.1	ND	ND	ND	ND	12.9	ND	ND	ND	ND	0	0
77949	2018-12-19T20:00:00	25.4	ND	ND	ND	ND	5.5	ND	ND	ND	ND	0	0
77950	2018-12-19T21:00:00	51.5	ND	ND	ND	ND	4.7	ND	ND	ND	ND	0	0
77951	2018-12-19T22:00:00	23.1	ND	ND	ND	ND	5.7	ND	ND	ND	ND	0	0
77952	2018-12-19T23:00:00	52.1	ND	ND	ND	ND	2.4	ND	ND	ND	ND	0	0
77953	2018-12-20T00:00:00	50.5	ND	ND	ND	ND	3.5	ND	ND	ND	ND	0	0
77954	2018-12-20T01:00:00	39.4	ND	ND	ND	ND	1.00	ND	ND	ND	ND	0	0
77955	2018-12-20T02:00:00	52.6	ND	ND	ND	ND	1.3	ND	ND	ND	ND	0	0
77956	2018-12-20T03:00:00	60.5	ND	ND	ND	ND	3.9	ND	ND	ND	ND	0	0
77957	2018-12-20T04:00:00	47.8	ND	ND	ND	ND	3.8	ND	ND	ND	ND	0	0
77958	2018-12-20T05:00:00	50.8	ND	ND	ND	ND	1.5	ND	ND	ND	ND	0	0
77959	2018-12-20T06:00:00	58.2	ND	ND	ND	ND	1.2	ND	ND	ND	ND	0	0
77960	2018-12-20T07:00:00	67.9	ND	ND	ND	ND	1.3	ND	ND	ND	ND	28.9	0
77961	2018-12-20T08:00:00	89.9	ND	ND	ND	ND	1.7	ND	ND	ND	ND	243.3	0
77962	2018-12-20T09:00:00	128	ND	ND	ND	ND	7.8	ND	ND	ND	ND	607.1	0
77963	2018-12-20T10:00:00	118.1	ND	ND	ND	ND	29.00	ND	ND	ND	ND	642.5	0
77964	2018-12-20T11:00:00	5.9	ND	ND	ND	ND	29.8	ND	ND	ND	ND	539.1	0
77965	2018-12-20T12:00:00	26.1	ND	ND	ND	ND	37.60	ND	ND	ND	ND	414	0
77966	2018-12-20T13:00:00	56.8	ND	ND	ND	ND	28.8	ND	ND	ND	ND	650.1	0
77967	2018-12-20T14:00:00	79.1	ND	ND	ND	ND	54.30	ND	ND	ND	ND	620.9	0
77968	2018-12-20T15:00:00	74.4	ND	ND	ND	ND	36.20	ND	ND	ND	ND	617.3	0
77969	2018-12-20T16:00:00	34.8	ND	ND	ND	ND	19.7	ND	ND	ND	ND	624.3	0
77970	2018-12-20T17:00:00	39	ND	ND	ND	ND	16.6	ND	ND	ND	ND	286.7	0
77971	2018-12-20T18:00:00	2	ND	ND	ND	ND	14.2	ND	ND	ND	ND	108.4	0
77972	2018-12-20T19:00:00	0.9	ND	ND	ND	ND	14.2	ND	ND	ND	ND	0	0
77973	2018-12-20T20:00:00	10.2	ND	ND	ND	ND	13.9	ND	ND	ND	ND	0	0
77974	2018-12-20T21:00:00	36.5	ND	ND	ND	ND	7.8	ND	ND	ND	ND	0	0
77975	2018-12-20T22:00:00	35.6	ND	ND	ND	ND	13.00	ND	ND	ND	ND	0	0
77976	2018-12-20T23:00:00	23.7	ND	ND	ND	ND	7.00	ND	ND	ND	ND	0	0
77977	2018-12-21T00:00:00	55.2	ND	ND	ND	ND	5.2	ND	ND	ND	ND	0	0
77978	2018-12-21T01:00:00	50.1	ND	ND	ND	ND	3.9	ND	ND	ND	ND	0	0
77979	2018-12-21T02:00:00	43.9	ND	ND	ND	ND	8.9	ND	ND	ND	ND	0	0
77980	2018-12-21T03:00:00	24.7	ND	ND	ND	ND	6.5	ND	ND	ND	ND	0	0
77981	2018-12-21T04:00:00	23	ND	ND	ND	ND	3.5	ND	ND	ND	ND	0	0
77982	2018-12-21T05:00:00	31.5	ND	ND	ND	ND	5.1	ND	ND	ND	ND	0	0
77983	2018-12-21T06:00:00	5.6	ND	ND	ND	ND	1.5	ND	ND	ND	ND	0	0
77984	2018-12-21T07:00:00	30.2	ND	ND	ND	ND	1.5	ND	ND	ND	ND	45.1	0
77985	2018-12-21T08:00:00	77.6	ND	ND	ND	ND	2.3	ND	ND	ND	ND	226.8	0
77986	2018-12-21T09:00:00	86.1	ND	ND	ND	ND	7.1	ND	ND	ND	ND	561.6	0
77987	2018-12-21T10:00:00	101.7	ND	ND	ND	ND	22.5	ND	ND	ND	ND	649.1	0
77988	2018-12-21T11:00:00	92.2	ND	ND	ND	ND	33.30	ND	ND	ND	ND	633.3	0
77989	2018-12-21T12:00:00	75.9	ND	ND	ND	ND	42.20	ND	ND	ND	ND	645.5	0
77990	2018-12-21T13:00:00	69.6	ND	ND	ND	ND	41.50	ND	ND	ND	ND	594.5	0
77991	2018-12-21T14:00:00	46.5	ND	ND	ND	ND	40.60	ND	ND	ND	ND	534.1	0
77992	2018-12-21T15:00:00	32.2	ND	ND	ND	ND	27.5	ND	ND	ND	ND	601.1	0
77993	2018-12-21T16:00:00	36.2	ND	ND	ND	ND	22.3	ND	ND	ND	ND	345	0
77994	2018-12-21T17:00:00	9.3	ND	ND	ND	ND	14.00	ND	ND	ND	ND	159.8	0
77995	2018-12-21T18:00:00	9.6	ND	ND	ND	ND	12.2	ND	ND	ND	ND	55.2	0
77996	2018-12-21T19:00:00	14.4	ND	ND	ND	ND	10.7	ND	ND	ND	ND	0	0
77997	2018-12-21T20:00:00	19	ND	ND	ND	ND	10.4	ND	ND	ND	ND	0	0
77998	2018-12-21T21:00:00	32	ND	ND	ND	ND	2.8	ND	ND	ND	ND	0	0
77999	2018-12-21T22:00:00	80.3	ND	ND	ND	ND	1.4	ND	ND	ND	ND	0	0
78000	2018-12-21T23:00:00	92.3	ND	ND	ND	ND	1.5	ND	ND	ND	ND	0	0
78001	2018-12-22T00:00:00	90.7	ND	ND	ND	ND	1.7	ND	ND	ND	ND	0	0
78002	2018-12-22T01:00:00	91.3	ND	ND	ND	ND	1.3	ND	ND	ND	ND	0	0
78003	2018-12-22T02:00:00	71.8	ND	ND	ND	ND	2.2	ND	ND	ND	ND	0	0
78004	2018-12-22T03:00:00	47.6	ND	ND	ND	ND	1.3	ND	ND	ND	ND	0	0
78005	2018-12-22T04:00:00	43.4	ND	ND	ND	ND	1.00	ND	ND	ND	ND	0	0
78006	2018-12-22T05:00:00	63.9	ND	ND	ND	ND	1.1	ND	ND	ND	ND	0	0
78007	2018-12-22T06:00:00	65.5	ND	ND	ND	ND	1.5	ND	ND	ND	ND	0	0
78008	2018-12-22T07:00:00	105.8	ND	ND	ND	ND	1.8	ND	ND	ND	ND	36.5	0
78009	2018-12-22T08:00:00	144.9	ND	ND	ND	ND	1.9	ND	ND	ND	ND	98.2	0
78010	2018-12-22T09:00:00	150.5	ND	ND	ND	ND	2.1	ND	ND	ND	ND	286.5	0
78011	2018-12-22T10:00:00	125.5	ND	ND	ND	ND	5.4	ND	ND	ND	ND	560.7	0
78012	2018-12-22T11:00:00	100.3	ND	ND	ND	ND	19.5	ND	ND	ND	ND	649.2	0
78013	2018-12-22T12:00:00	99.9	ND	ND	ND	ND	26.1	ND	ND	ND	ND	649.8	0
78014	2018-12-22T13:00:00	69.7	ND	ND	ND	ND	39.80	ND	ND	ND	ND	649.6	0
78015	2018-12-22T14:00:00	66.9	ND	ND	ND	ND	41.20	ND	ND	ND	ND	650.2	0
78016	2018-12-22T15:00:00	73.2	ND	ND	ND	ND	54.30	ND	ND	ND	ND	650.1	0
78017	2018-12-22T16:00:00	69.2	ND	ND	ND	ND	40.10	ND	ND	ND	ND	615.1	0
78018	2018-12-22T17:00:00	75.6	ND	ND	ND	ND	29.6	ND	ND	ND	ND	169.8	0
78019	2018-12-22T18:00:00	61	ND	ND	ND	ND	18.6	ND	ND	ND	ND	86.8	0
78020	2018-12-22T19:00:00	28.1	ND	ND	ND	ND	4.2	ND	ND	ND	ND	0	0
78021	2018-12-22T20:00:00	28.1	ND	ND	ND	ND	2.5	ND	ND	ND	ND	0	0
78022	2018-12-22T21:00:00	31.7	ND	ND	ND	ND	3.8	ND	ND	ND	ND	0	0
78023	2018-12-22T22:00:00	27.9	ND	ND	ND	ND	2.4	ND	ND	ND	ND	0	0
78024	2018-12-22T23:00:00	52.9	ND	ND	ND	ND	1.2	ND	ND	ND	ND	0	0
78025	2018-12-23T00:00:00	29.5	ND	ND	ND	ND	1.7	ND	ND	ND	ND	0	0
78026	2018-12-23T01:00:00	39.7	ND	ND	ND	ND	1.3	ND	ND	ND	ND	0	0
78027	2018-12-23T02:00:00	62.8	ND	ND	ND	ND	2.9	ND	ND	ND	ND	0	0
78028	2018-12-23T03:00:00	74.3	ND	ND	ND	ND	3.4	ND	ND	ND	ND	0	0
78029	2018-12-23T04:00:00	61.3	ND	ND	ND	ND	1.9	ND	ND	ND	ND	0	0
78030	2018-12-23T05:00:00	45.6	ND	ND	ND	ND	1.2	ND	ND	ND	ND	0	0
78031	2018-12-23T06:00:00	38.3	ND	ND	ND	ND	1.2	ND	ND	ND	ND	0	0
78032	2018-12-23T07:00:00	94.2	ND	ND	ND	ND	1.3	ND	ND	ND	ND	105	0
78033	2018-12-23T08:00:00	125.8	ND	ND	ND	ND	2.7	ND	ND	ND	ND	490.4	0
78034	2018-12-23T09:00:00	117.6	ND	ND	ND	ND	12.3	ND	ND	ND	ND	649.2	0
78035	2018-12-23T10:00:00	104.3	ND	ND	ND	ND	32.90	ND	ND	ND	ND	649.7	0
78036	2018-12-23T11:00:00	98.1	ND	ND	ND	ND	49.90	ND	ND	ND	ND	649.8	0
78037	2018-12-23T12:00:00	107.2	ND	ND	ND	ND	60.70	ND	ND	ND	ND	650.5	0
78038	2018-12-23T13:00:00	78.7	ND	ND	ND	ND	62.90	ND	ND	ND	ND	650.8	0
78039	2018-12-23T14:00:00	75.3	ND	ND	ND	ND	90.20	ND	ND	ND	ND	634.5	0
78040	2018-12-23T15:00:00	77.8	ND	ND	ND	ND	75.10	ND	ND	ND	ND	542.9	0
78041	2018-12-23T16:00:00	51.1	ND	ND	ND	ND	40.00	ND	ND	ND	ND	651.6	0
78042	2018-12-23T17:00:00	50.2	ND	ND	ND	ND	29.6	ND	ND	ND	ND	408.7	0
78043	2018-12-23T18:00:00	20.5	ND	ND	ND	ND	19.1	ND	ND	ND	ND	56	0
78044	2018-12-23T19:00:00	4.1	ND	ND	ND	ND	14.6	ND	ND	ND	ND	0	0
78045	2018-12-23T20:00:00	12.4	ND	ND	ND	ND	17.4	ND	ND	ND	ND	0	0
78046	2018-12-23T21:00:00	8.3	ND	ND	ND	ND	16.00	ND	ND	ND	ND	0	0
78047	2018-12-23T22:00:00	34.4	ND	ND	ND	ND	1.9	ND	ND	ND	ND	0	0
78048	2018-12-23T23:00:00	62.1	ND	ND	ND	ND	1.4	ND	ND	ND	ND	0	0
78049	2018-12-24T00:00:00	78.6	ND	ND	ND	ND	1.1	ND	ND	ND	ND	0	0
78050	2018-12-24T01:00:00	65.7	ND	ND	ND	ND	1.2	ND	ND	ND	ND	0	0
78051	2018-12-24T02:00:00	80.8	ND	ND	ND	ND	4.00	ND	ND	ND	ND	0	0
78052	2018-12-24T03:00:00	63.9	ND	ND	ND	ND	8.7	ND	ND	ND	ND	0	0
78053	2018-12-24T04:00:00	51.1	ND	ND	ND	ND	8.5	ND	ND	ND	ND	0	0
78054	2018-12-24T05:00:00	48.9	ND	ND	ND	ND	4.7	ND	ND	ND	ND	0	0
78055	2018-12-24T06:00:00	39.7	ND	ND	ND	ND	2.00	ND	ND	ND	ND	0	0
78056	2018-12-24T07:00:00	69.1	ND	ND	ND	ND	1.5	ND	ND	ND	ND	38.7	0
78057	2018-12-24T08:00:00	79.4	ND	ND	ND	ND	2.2	ND	ND	ND	ND	242.9	0
78058	2018-12-24T09:00:00	130	ND	ND	ND	ND	8.6	ND	ND	ND	ND	592.2	0
78059	2018-12-24T10:00:00	119.7	ND	ND	ND	ND	29.00	ND	ND	ND	ND	648.8	0
78060	2018-12-24T11:00:00	102.6	ND	ND	ND	ND	44.20	ND	ND	ND	ND	647.7	0
78061	2018-12-24T12:00:00	92.9	ND	ND	ND	ND	67.00	ND	ND	ND	ND	650.4	0
78062	2018-12-24T13:00:00	91.4	ND	ND	ND	ND	75.60	ND	ND	ND	ND	651.3	0
78063	2018-12-24T14:00:00	85.7	ND	ND	ND	ND	73.50	ND	ND	ND	ND	633.1	0
78064	2018-12-24T15:00:00	86.2	ND	ND	ND	ND	52.10	ND	ND	ND	ND	558.3	0
78065	2018-12-24T16:00:00	75.9	ND	ND	ND	ND	53.70	ND	ND	ND	ND	370.4	0
78066	2018-12-24T17:00:00	66.5	ND	ND	ND	ND	25.8	ND	ND	ND	ND	221	0
78067	2018-12-24T18:00:00	24.2	ND	ND	ND	ND	19.6	ND	ND	ND	ND	60.9	0
78068	2018-12-24T19:00:00	23.3	ND	ND	ND	ND	11.8	ND	ND	ND	ND	0	0
78069	2018-12-24T20:00:00	16.3	ND	ND	ND	ND	10.3	ND	ND	ND	ND	0	0
78070	2018-12-24T21:00:00	23.2	ND	ND	ND	ND	13.2	ND	ND	ND	ND	0	0
78071	2018-12-24T22:00:00	21.7	ND	ND	ND	ND	14.6	ND	ND	ND	ND	0	0
78072	2018-12-24T23:00:00	28.2	ND	ND	ND	ND	2.1	ND	ND	ND	ND	0	0
78073	2018-12-25T00:00:00	59.6	ND	ND	ND	ND	1.4	ND	ND	ND	ND	0	0
78074	2018-12-25T01:00:00	83	ND	ND	ND	ND	1.8	ND	ND	ND	ND	0	0
78075	2018-12-25T02:00:00	86.2	ND	ND	ND	ND	2.6	ND	ND	ND	ND	0	0
78076	2018-12-25T03:00:00	65.2	ND	ND	ND	ND	5.00	ND	ND	ND	ND	0	0
78077	2018-12-25T04:00:00	57.7	ND	ND	ND	ND	3.8	ND	ND	ND	ND	0	0
78078	2018-12-25T05:00:00	98.4	ND	ND	ND	ND	4.4	ND	ND	ND	ND	0	0
78079	2018-12-25T06:00:00	66.5	ND	ND	ND	ND	4.3	ND	ND	ND	ND	0	0
78080	2018-12-25T07:00:00	72.5	ND	ND	ND	ND	1.6	ND	ND	ND	ND	97.6	0
78081	2018-12-25T08:00:00	94.4	ND	ND	ND	ND	3.3	ND	ND	ND	ND	287.1	0
78082	2018-12-25T09:00:00	95.9	ND	ND	ND	ND	17.6	ND	ND	ND	ND	649.2	0
78083	2018-12-25T10:00:00	95.3	ND	ND	ND	ND	29.3	ND	ND	ND	ND	649.7	0
78084	2018-12-25T11:00:00	72.3	ND	ND	ND	ND	47.90	ND	ND	ND	ND	649.3	0
78085	2018-12-25T12:00:00	57.6	ND	ND	ND	ND	60.20	ND	ND	ND	ND	650.2	0
78086	2018-12-25T13:00:00	78.5	ND	ND	ND	ND	70.40	ND	ND	ND	ND	647.6	0
78087	2018-12-25T14:00:00	68.1	ND	ND	ND	ND	77.10	ND	ND	ND	ND	651.7	0
78088	2018-12-25T15:00:00	58.7	ND	ND	ND	ND	71.90	ND	ND	ND	ND	618.6	0
78089	2018-12-25T16:00:00	41.7	ND	ND	ND	ND	40.30	ND	ND	ND	ND	540.5	0
78090	2018-12-25T17:00:00	28.3	ND	ND	ND	ND	34.80	ND	ND	ND	ND	389.3	0
78091	2018-12-25T18:00:00	10.7	ND	ND	ND	ND	26.4	ND	ND	ND	ND	46.8	0
78092	2018-12-25T19:00:00	3.9	ND	ND	ND	ND	19.9	ND	ND	ND	ND	0	0
78093	2018-12-25T20:00:00	4.9	ND	ND	ND	ND	13.9	ND	ND	ND	ND	0	0
78094	2018-12-25T21:00:00	8.5	ND	ND	ND	ND	10.5	ND	ND	ND	ND	0	0
78095	2018-12-25T22:00:00	13.1	ND	ND	ND	ND	10.8	ND	ND	ND	ND	0	0
78096	2018-12-25T23:00:00	26.4	ND	ND	ND	ND	3.9	ND	ND	ND	ND	0	0
78097	2018-12-26T00:00:00	61.2	ND	ND	ND	ND	1.3	ND	ND	ND	ND	0	0
78098	2018-12-26T01:00:00	68.9	ND	ND	ND	ND	1.5	ND	ND	ND	ND	0	0
78099	2018-12-26T02:00:00	59.2	ND	ND	ND	ND	1.5	ND	ND	ND	ND	0	0
78100	2018-12-26T03:00:00	43.1	ND	ND	ND	ND	2.6	ND	ND	ND	ND	0	0
78101	2018-12-26T04:00:00	41.7	ND	ND	ND	ND	1.2	ND	ND	ND	ND	0	0
78102	2018-12-26T05:00:00	50.5	ND	ND	ND	ND	0.90	ND	ND	ND	ND	0	0
78103	2018-12-26T06:00:00	72.8	ND	ND	ND	ND	1.1	ND	ND	ND	ND	0	0
78104	2018-12-26T07:00:00	68	ND	ND	ND	ND	1.4	ND	ND	ND	ND	173	0
78105	2018-12-26T08:00:00	104.8	ND	ND	ND	ND	2.3	ND	ND	ND	ND	570.3	0
78106	2018-12-26T09:00:00	158.7	ND	ND	ND	ND	8.5	ND	ND	ND	ND	649.2	0
78107	2018-12-26T10:00:00	103.7	ND	ND	ND	ND	20.1	ND	ND	ND	ND	650	0
78108	2018-12-26T11:00:00	88.8	ND	ND	ND	ND	33.40	ND	ND	ND	ND	650.4	0
78109	2018-12-26T12:00:00	88.3	ND	ND	ND	ND	56.20	ND	ND	ND	ND	650.9	0
78110	2018-12-26T13:00:00	93.6	ND	ND	ND	ND	62.40	ND	ND	ND	ND	649.5	0
78111	2018-12-26T14:00:00	82.5	ND	ND	ND	ND	78.00	ND	ND	ND	ND	651.1	0
78112	2018-12-26T15:00:00	69.2	ND	ND	ND	ND	72.90	ND	ND	ND	ND	584.4	0
78113	2018-12-26T16:00:00	65.4	ND	ND	ND	ND	35.50	ND	ND	ND	ND	415.2	0
78114	2018-12-26T17:00:00	55.7	ND	ND	ND	ND	27.6	ND	ND	ND	ND	323.2	0
78115	2018-12-26T18:00:00	45	ND	ND	ND	ND	16.4	ND	ND	ND	ND	75.1	0
78116	2018-12-26T19:00:00	24.7	ND	ND	ND	ND	13.8	ND	ND	ND	ND	0	0
78117	2018-12-26T20:00:00	18	ND	ND	ND	ND	14.2	ND	ND	ND	ND	0	0
78118	2018-12-26T21:00:00	13.2	ND	ND	ND	ND	10.9	ND	ND	ND	ND	0	0
78119	2018-12-26T22:00:00	40.3	ND	ND	ND	ND	4.9	ND	ND	ND	ND	0	0
78120	2018-12-26T23:00:00	54.3	ND	ND	ND	ND	4.9	ND	ND	ND	ND	0	0
78121	2018-12-27T00:00:00	60.7	ND	ND	ND	ND	1.8	ND	ND	ND	ND	0	0
78122	2018-12-27T01:00:00	64.7	ND	ND	ND	ND	1.4	ND	ND	ND	ND	0	0
78123	2018-12-27T02:00:00	51.5	ND	ND	ND	ND	2.8	ND	ND	ND	ND	0	0
78124	2018-12-27T03:00:00	49.2	ND	ND	ND	ND	1.5	ND	ND	ND	ND	0	0
78125	2018-12-27T04:00:00	62.7	ND	ND	ND	ND	1.1	ND	ND	ND	ND	0	0
78126	2018-12-27T05:00:00	91.4	ND	ND	ND	ND	0.90	ND	ND	ND	ND	0	0
78127	2018-12-27T06:00:00	73.8	ND	ND	ND	ND	1.00	ND	ND	ND	ND	0	0
78128	2018-12-27T07:00:00	72.6	ND	ND	ND	ND	1.3	ND	ND	ND	ND	46.2	0
78129	2018-12-27T08:00:00	98.1	ND	ND	ND	ND	2.2	ND	ND	ND	ND	369.5	0
78130	2018-12-27T09:00:00	112.7	ND	ND	ND	ND	8.7	ND	ND	ND	ND	626.3	0
78131	2018-12-27T10:00:00	155	ND	ND	ND	ND	ND	ND	ND	ND	ND	632.2	0
78132	2018-12-27T11:00:00	235.5	ND	ND	ND	ND	121.20	ND	ND	ND	ND	650.8	0
78133	2018-12-27T12:00:00	116.4	ND	ND	ND	ND	58.30	ND	ND	ND	ND	649.6	0
78134	2018-12-27T13:00:00	79.9	ND	ND	ND	ND	66.40	ND	ND	ND	ND	650.4	0
78135	2018-12-27T14:00:00	109.8	ND	ND	ND	ND	66.60	ND	ND	ND	ND	618.2	0
78136	2018-12-27T15:00:00	80.4	ND	ND	ND	ND	35.80	ND	ND	ND	ND	507.8	0
78137	2018-12-27T16:00:00	44.2	ND	ND	ND	ND	20.8	ND	ND	ND	ND	622.5	0
78138	2018-12-27T17:00:00	92.5	ND	ND	ND	ND	17.1	ND	ND	ND	ND	339	0
78139	2018-12-27T18:00:00	40.1	ND	ND	ND	ND	11.3	ND	ND	ND	ND	62	0
78140	2018-12-27T19:00:00	14.8	ND	ND	ND	ND	9.4	ND	ND	ND	ND	0	0
78141	2018-12-27T20:00:00	11	ND	ND	ND	ND	6.00	ND	ND	ND	ND	0	0
78142	2018-12-27T21:00:00	25.4	ND	ND	ND	ND	5.3	ND	ND	ND	ND	0	0
78143	2018-12-27T22:00:00	28.2	ND	ND	ND	ND	3.8	ND	ND	ND	ND	0	0
78144	2018-12-27T23:00:00	69.4	ND	ND	ND	ND	1.1	ND	ND	ND	ND	0	0
78145	2018-12-28T00:00:00	71.1	ND	ND	ND	ND	0.80	ND	ND	ND	ND	0	0
78146	2018-12-28T01:00:00	64.1	ND	ND	ND	ND	1.2	ND	ND	ND	ND	0	0
78147	2018-12-28T02:00:00	85.4	ND	ND	ND	ND	1.1	ND	ND	ND	ND	0	0
78148	2018-12-28T03:00:00	77.8	ND	ND	ND	ND	1.4	ND	ND	ND	ND	0	0
78149	2018-12-28T04:00:00	78.6	ND	ND	ND	ND	1.3	ND	ND	ND	ND	0	0
78150	2018-12-28T05:00:00	71.1	ND	ND	ND	ND	1.1	ND	ND	ND	ND	0	0
78151	2018-12-28T06:00:00	107.2	ND	ND	ND	ND	1.2	ND	ND	ND	ND	0	0
78152	2018-12-28T07:00:00	105.5	ND	ND	ND	ND	1.4	ND	ND	ND	ND	57.5	0
78153	2018-12-28T08:00:00	112.8	ND	ND	ND	ND	1.7	ND	ND	ND	ND	278.2	0
78154	2018-12-28T09:00:00	142.7	ND	ND	ND	ND	7.2	ND	ND	ND	ND	640.2	0
78155	2018-12-28T10:00:00	152.3	ND	ND	ND	ND	20.4	ND	ND	ND	ND	649	0
78156	2018-12-28T11:00:00	129.9	ND	ND	ND	ND	36.20	ND	ND	ND	ND	634.1	0
78157	2018-12-28T12:00:00	104.9	ND	ND	ND	ND	51.60	ND	ND	ND	ND	639.2	0
78158	2018-12-28T13:00:00	101.7	ND	ND	ND	ND	76.30	ND	ND	ND	ND	649.9	0
78159	2018-12-28T14:00:00	113.9	ND	ND	ND	ND	106.50	ND	ND	ND	ND	617.9	0
78160	2018-12-28T15:00:00	107.5	ND	ND	ND	ND	107.10	ND	ND	ND	ND	552	0
78161	2018-12-28T16:00:00	109.3	ND	ND	ND	ND	89.80	ND	ND	ND	ND	577	0
78162	2018-12-28T17:00:00	84.3	ND	ND	ND	ND	36.90	ND	ND	ND	ND	415.5	0
78163	2018-12-28T18:00:00	44.5	ND	ND	ND	ND	23.1	ND	ND	ND	ND	62.6	0
78164	2018-12-28T19:00:00	27.2	ND	ND	ND	ND	14.9	ND	ND	ND	ND	0	0
78165	2018-12-28T20:00:00	13	ND	ND	ND	ND	11.7	ND	ND	ND	ND	0	0
78166	2018-12-28T21:00:00	19.2	ND	ND	ND	ND	7.9	ND	ND	ND	ND	0	0
78167	2018-12-28T22:00:00	15.2	ND	ND	ND	ND	10.7	ND	ND	ND	ND	0	0
78168	2018-12-28T23:00:00	10.5	ND	ND	ND	ND	8.8	ND	ND	ND	ND	0	0
78169	2018-12-29T00:00:00	24.3	ND	ND	ND	ND	2.7	ND	ND	ND	ND	0	0
78170	2018-12-29T01:00:00	48.3	ND	ND	ND	ND	1.1	ND	ND	ND	ND	0	0
78171	2018-12-29T02:00:00	103.7	ND	ND	ND	ND	14.5	ND	ND	ND	ND	0	0
78172	2018-12-29T03:00:00	231.6	ND	ND	ND	ND	5.7	ND	ND	ND	ND	0	0
78173	2018-12-29T04:00:00	91.4	ND	ND	ND	ND	3.4	ND	ND	ND	ND	0	0
78174	2018-12-29T05:00:00	41.5	ND	ND	ND	ND	2.1	ND	ND	ND	ND	0	0
78175	2018-12-29T06:00:00	65.3	ND	ND	ND	ND	4.6	ND	ND	ND	ND	0	0
78176	2018-12-29T07:00:00	95.5	ND	ND	ND	ND	1.8	ND	ND	ND	ND	91.6	0
78177	2018-12-29T08:00:00	93.2	ND	ND	ND	ND	3.3	ND	ND	ND	ND	570.2	0
78178	2018-12-29T09:00:00	103.2	ND	ND	ND	ND	10.9	ND	ND	ND	ND	649.1	0
78179	2018-12-29T10:00:00	106.1	ND	ND	ND	ND	23.6	ND	ND	ND	ND	649.1	0
78180	2018-12-29T11:00:00	103.2	ND	ND	ND	ND	44.20	ND	ND	ND	ND	649.7	0
78181	2018-12-29T12:00:00	102	ND	ND	ND	ND	59.90	ND	ND	ND	ND	646	0
78182	2018-12-29T13:00:00	115.1	ND	ND	ND	ND	82.30	ND	ND	ND	ND	650.6	0
78183	2018-12-29T14:00:00	121.4	ND	ND	ND	ND	88.40	ND	ND	ND	ND	638.8	0
78184	2018-12-29T15:00:00	101.5	ND	ND	ND	ND	65.50	ND	ND	ND	ND	411.4	0
78185	2018-12-29T16:00:00	40.6	ND	ND	ND	ND	29.6	ND	ND	ND	ND	636.6	0
78186	2018-12-29T17:00:00	32.7	ND	ND	ND	ND	24.8	ND	ND	ND	ND	490.2	0
78187	2018-12-29T18:00:00	25.4	ND	ND	ND	ND	18.5	ND	ND	ND	ND	61.2	0
78188	2018-12-29T19:00:00	12.1	ND	ND	ND	ND	12.1	ND	ND	ND	ND	0	0
78189	2018-12-29T20:00:00	8.4	ND	ND	ND	ND	14.2	ND	ND	ND	ND	0	0
78190	2018-12-29T21:00:00	16.7	ND	ND	ND	ND	12.1	ND	ND	ND	ND	0	0
78191	2018-12-29T22:00:00	20.6	ND	ND	ND	ND	8.00	ND	ND	ND	ND	0	0
78192	2018-12-29T23:00:00	23.4	ND	ND	ND	ND	5.8	ND	ND	ND	ND	0	0
78193	2018-12-30T00:00:00	30	ND	ND	ND	ND	1.2	ND	ND	ND	ND	0	0
78194	2018-12-30T01:00:00	51.9	ND	ND	ND	ND	1.1	ND	ND	ND	ND	0	0
78195	2018-12-30T02:00:00	73.8	ND	ND	ND	ND	1.1	ND	ND	ND	ND	0	0
78196	2018-12-30T03:00:00	71.3	ND	ND	ND	ND	1.1	ND	ND	ND	ND	0	0
78197	2018-12-30T04:00:00	58.7	ND	ND	ND	ND	1.1	ND	ND	ND	ND	0	0
78198	2018-12-30T05:00:00	67.9	ND	ND	ND	ND	1.00	ND	ND	ND	ND	0	0
78199	2018-12-30T06:00:00	110	ND	ND	ND	ND	1.1	ND	ND	ND	ND	0	0
78200	2018-12-30T07:00:00	103.5	ND	ND	ND	ND	1.2	ND	ND	ND	ND	116.9	0
78201	2018-12-30T08:00:00	97.1	ND	ND	ND	ND	3.8	ND	ND	ND	ND	408.7	0
78202	2018-12-30T09:00:00	87.5	ND	ND	ND	ND	14.5	ND	ND	ND	ND	632.7	0
78203	2018-12-30T10:00:00	104.7	ND	ND	ND	ND	30.5	ND	ND	ND	ND	648.3	0
78204	2018-12-30T11:00:00	99.4	ND	ND	ND	ND	46.60	ND	ND	ND	ND	649.4	0
78205	2018-12-30T12:00:00	100.9	ND	ND	ND	ND	62.10	ND	ND	ND	ND	650	0
78206	2018-12-30T13:00:00	85.7	ND	ND	ND	ND	67.80	ND	ND	ND	ND	650.1	0
78207	2018-12-30T14:00:00	88.8	ND	ND	ND	ND	79.80	ND	ND	ND	ND	620.9	0
78208	2018-12-30T15:00:00	95	ND	ND	ND	ND	93.10	ND	ND	ND	ND	528.6	0
78209	2018-12-30T16:00:00	56.5	ND	ND	ND	ND	40.40	ND	ND	ND	ND	543.1	0
78210	2018-12-30T17:00:00	30.1	ND	ND	ND	ND	23.6	ND	ND	ND	ND	368.7	0
78211	2018-12-30T18:00:00	28.4	ND	ND	ND	ND	20.00	ND	ND	ND	ND	72.5	0
78212	2018-12-30T19:00:00	12.7	ND	ND	ND	ND	16.8	ND	ND	ND	ND	0	0
78213	2018-12-30T20:00:00	6.9	ND	ND	ND	ND	16.6	ND	ND	ND	ND	0	0
78214	2018-12-30T21:00:00	20.2	ND	ND	ND	ND	9.4	ND	ND	ND	ND	0	0
78215	2018-12-30T22:00:00	57.2	ND	ND	ND	ND	1.4	ND	ND	ND	ND	0	0
78216	2018-12-30T23:00:00	62.7	ND	ND	ND	ND	9.6	ND	ND	ND	ND	0	0
78217	2018-12-31T00:00:00	26.3	ND	ND	ND	ND	4.8	ND	ND	ND	ND	0	0
78218	2018-12-31T01:00:00	35.7	ND	ND	ND	ND	1.9	ND	ND	ND	ND	0	0
78219	2018-12-31T02:00:00	35	ND	ND	ND	ND	3.2	ND	ND	ND	ND	0	0
78220	2018-12-31T03:00:00	43	ND	ND	ND	ND	2.5	ND	ND	ND	ND	0	0
78221	2018-12-31T04:00:00	38.7	ND	ND	ND	ND	1.4	ND	ND	ND	ND	0	0
78222	2018-12-31T05:00:00	44.6	ND	ND	ND	ND	1.00	ND	ND	ND	ND	0	0
78223	2018-12-31T06:00:00	34.1	ND	ND	ND	ND	0.90	ND	ND	ND	ND	0	0
78224	2018-12-31T07:00:00	47.4	ND	ND	ND	ND	1.1	ND	ND	ND	ND	82.7	0
78225	2018-12-31T08:00:00	88.6	ND	ND	ND	ND	2.6	ND	ND	ND	ND	497.4	0
78226	2018-12-31T09:00:00	98.1	ND	ND	ND	ND	10.00	ND	ND	ND	ND	638	0
78227	2018-12-31T10:00:00	92.7	ND	ND	ND	ND	23.5	ND	ND	ND	ND	649.7	0
78228	2018-12-31T11:00:00	98.4	ND	ND	ND	ND	43.20	ND	ND	ND	ND	649.5	0
78229	2018-12-31T12:00:00	90.8	ND	ND	ND	ND	63.60	ND	ND	ND	ND	637.6	0
78230	2018-12-31T13:00:00	107.7	ND	ND	ND	ND	82.70	ND	ND	ND	ND	643.7	0
78231	2018-12-31T14:00:00	93.8	ND	ND	ND	ND	98.00	ND	ND	ND	ND	650.5	0
78232	2018-12-31T15:00:00	29	ND	ND	ND	ND	97.40	ND	ND	ND	ND	618.7	0
78233	2018-12-31T16:00:00	ND	ND	ND	ND	ND	86.00	ND	ND	ND	ND	305.6	0
78234	2018-12-31T17:00:00	ND	ND	ND	ND	ND	56.20	ND	ND	ND	ND	441.8	0
78235	2018-12-31T18:00:00	ND	ND	ND	ND	ND	27.3	ND	ND	ND	ND	47	0
78236	2018-12-31T19:00:00	ND	ND	ND	ND	ND	17.1	ND	ND	ND	ND	0	0
78237	2018-12-31T20:00:00	ND	ND	ND	ND	ND	13.6	ND	ND	ND	ND	0	0
78238	2018-12-31T21:00:00	ND	ND	ND	ND	ND	12.7	ND	ND	ND	ND	0	0
78239	2018-12-31T22:00:00	ND	ND	ND	ND	ND	13.7	ND	ND	ND	ND	0	0
78240	2018-12-31T23:00:00	ND	ND	ND	ND	ND	13.9	ND	ND	ND	ND	0	0
78241	2019-01-01T00:00:00	ND	ND	ND	ND	ND	4.8	ND	ND	ND	ND	0	0
78242	2019-01-01T01:00:00	ND	ND	ND	ND	ND	3.7	ND	ND	ND	ND	0	0
78243	2019-01-01T02:00:00	ND	ND	ND	ND	ND	6.6	ND	ND	ND	ND	0	0
78244	2019-01-01T03:00:00	ND	ND	ND	ND	ND	6.3	ND	ND	ND	ND	0	0
78245	2019-01-01T04:00:00	ND	ND	ND	ND	ND	1.8	ND	ND	ND	ND	0	0
78246	2019-01-01T05:00:00	ND	ND	ND	ND	ND	1.4	ND	ND	ND	ND	0	0
78247	2019-01-01T06:00:00	ND	ND	ND	ND	ND	1.4	ND	ND	ND	ND	0	0
78248	2019-01-01T07:00:00	ND	ND	ND	ND	ND	7	ND	ND	ND	ND	0	0
78249	2019-01-01T08:00:00	ND	ND	ND	ND	ND	8.4	ND	ND	ND	ND	122.5	0
78250	2019-01-01T09:00:00	ND	ND	ND	ND	ND	29	ND	ND	ND	ND	592	0
78251	2019-01-01T10:00:00	ND	ND	ND	ND	ND	51.2	ND	ND	ND	ND	648.8	0
78252	2019-01-01T11:00:00	ND	ND	ND	ND	ND	66.2	ND	ND	ND	ND	648.6	0
78253	2019-01-01T12:00:00	ND	ND	ND	ND	ND	73.3	ND	ND	ND	ND	648.9	0
78254	2019-01-01T13:00:00	ND	ND	ND	ND	ND	88.1	ND	ND	ND	ND	648.3	0
78255	2019-01-01T14:00:00	ND	ND	ND	ND	ND	90.4	ND	ND	ND	ND	649	0
78256	2019-01-01T15:00:00	ND	ND	ND	ND	ND	90.5	ND	ND	ND	ND	649.2	0
78257	2019-01-01T16:00:00	ND	ND	ND	ND	ND	74.2	ND	ND	ND	ND	649	0
78258	2019-01-01T17:00:00	ND	ND	ND	ND	ND	44.7	ND	ND	ND	ND	648.8	0
78259	2019-01-01T18:00:00	ND	ND	ND	ND	ND	29.6	ND	ND	ND	ND	392.3	0
78260	2019-01-01T19:00:00	ND	ND	ND	ND	ND	17.8	ND	ND	ND	ND	0	0
78261	2019-01-01T20:00:00	ND	ND	ND	ND	ND	10.1	ND	ND	ND	ND	0	0
78262	2019-01-01T21:00:00	ND	ND	ND	ND	ND	11	ND	ND	ND	ND	0	0
78263	2019-01-01T22:00:00	ND	ND	ND	ND	ND	9	ND	ND	ND	ND	0	0
78264	2019-01-01T23:00:00	ND	ND	ND	ND	ND	2.8	ND	ND	ND	ND	0	0
78265	2019-01-02T00:00:00	ND	ND	ND	ND	ND	2.2	ND	ND	ND	ND	0	0
78266	2019-01-02T01:00:00	ND	ND	ND	ND	ND	2.5	ND	ND	ND	ND	0	0
78267	2019-01-02T02:00:00	ND	ND	ND	ND	ND	3	ND	ND	ND	ND	0	0
78268	2019-01-02T03:00:00	ND	ND	ND	ND	ND	1.6	ND	ND	ND	ND	0	0
78269	2019-01-02T04:00:00	ND	ND	ND	ND	ND	2.1	ND	ND	ND	ND	0	0
78270	2019-01-02T05:00:00	ND	ND	ND	ND	ND	2.3	ND	ND	ND	ND	0	0
78271	2019-01-02T06:00:00	ND	ND	ND	ND	ND	1.8	ND	ND	ND	ND	0	0
78272	2019-01-02T07:00:00	ND	ND	ND	ND	ND	1.4	ND	ND	ND	ND	0.3	0
78273	2019-01-02T08:00:00	ND	ND	ND	ND	ND	5.6	ND	ND	ND	ND	147.7	0
78274	2019-01-02T09:00:00	ND	ND	ND	ND	ND	14.4	ND	ND	ND	ND	603.9	0
78275	2019-01-02T10:00:00	ND	ND	ND	ND	ND	34.6	ND	ND	ND	ND	648.6	0
78276	2019-01-02T11:00:00	ND	ND	ND	ND	ND	49.9	ND	ND	ND	ND	648.6	0
78277	2019-01-02T12:00:00	ND	ND	ND	ND	ND	45.8	ND	ND	ND	ND	648.8	0
78278	2019-01-02T13:00:00	ND	ND	ND	ND	ND	75.5	ND	ND	ND	ND	647.8	0
78279	2019-01-02T14:00:00	ND	ND	ND	ND	ND	80.1	ND	ND	ND	ND	648.9	0
78280	2019-01-02T15:00:00	ND	ND	ND	ND	ND	90.1	ND	ND	ND	ND	649.2	0
78281	2019-01-02T16:00:00	ND	ND	ND	ND	ND	42.3	ND	ND	ND	ND	555.3	0
78282	2019-01-02T17:00:00	ND	ND	ND	ND	ND	31.2	ND	ND	ND	ND	648.2	0
78283	2019-01-02T18:00:00	ND	ND	ND	ND	ND	20.8	ND	ND	ND	ND	413.7	0
78284	2019-01-02T19:00:00	ND	ND	ND	ND	ND	16.1	ND	ND	ND	ND	0	0
78285	2019-01-02T20:00:00	ND	ND	ND	ND	ND	13.3	ND	ND	ND	ND	0	0
78286	2019-01-02T21:00:00	ND	ND	ND	ND	ND	12.7	ND	ND	ND	ND	0	0
78287	2019-01-02T22:00:00	ND	ND	ND	ND	ND	12.8	ND	ND	ND	ND	0	0
78288	2019-01-02T23:00:00	ND	ND	ND	ND	ND	3.7	ND	ND	ND	ND	0	0
78289	2019-01-03T00:00:00	ND	ND	ND	ND	ND	1.7	ND	ND	ND	ND	0	0
78290	2019-01-03T01:00:00	ND	ND	ND	ND	ND	2.1	ND	ND	ND	ND	0	0
78291	2019-01-03T02:00:00	ND	ND	ND	ND	ND	1.6	ND	ND	ND	ND	0	0
78292	2019-01-03T03:00:00	ND	ND	ND	ND	ND	3.3	ND	ND	ND	ND	0	0
78293	2019-01-03T04:00:00	ND	ND	ND	ND	ND	7.6	ND	ND	ND	ND	0	0
78294	2019-01-03T05:00:00	ND	ND	ND	ND	ND	5.7	ND	ND	ND	ND	0	0
78295	2019-01-03T06:00:00	ND	ND	ND	ND	ND	1.4	ND	ND	ND	ND	0	0
78296	2019-01-03T07:00:00	ND	ND	ND	ND	ND	1.2	ND	ND	ND	ND	0	0
78297	2019-01-03T08:00:00	ND	ND	ND	ND	ND	4.5	ND	ND	ND	ND	108.7	0
78298	2019-01-03T09:00:00	ND	ND	ND	ND	ND	11.5	ND	ND	ND	ND	583.8	0
78299	2019-01-03T10:00:00	ND	ND	ND	ND	ND	30.4	ND	ND	ND	ND	648.7	0
78300	2019-01-03T11:00:00	ND	ND	ND	ND	ND	44.8	ND	ND	ND	ND	648.7	0
78301	2019-01-03T12:00:00	ND	ND	ND	ND	ND	66.6	ND	ND	ND	ND	648.5	0
78302	2019-01-03T13:00:00	ND	ND	ND	ND	ND	88.1	ND	ND	ND	ND	648.8	0
78303	2019-01-03T14:00:00	ND	ND	ND	ND	ND	87.1	ND	ND	ND	ND	648.8	0
78304	2019-01-03T15:00:00	ND	ND	ND	ND	ND	76.6	ND	ND	ND	ND	649.1	0
78305	2019-01-03T16:00:00	ND	ND	ND	ND	ND	64.1	ND	ND	ND	ND	620.1	0
78306	2019-01-03T17:00:00	ND	ND	ND	ND	ND	45.6	ND	ND	ND	ND	513	0
78307	2019-01-03T18:00:00	ND	ND	ND	ND	ND	26.9	ND	ND	ND	ND	377.4	0
78308	2019-01-03T19:00:00	ND	ND	ND	ND	ND	19.5	ND	ND	ND	ND	0	0
78309	2019-01-03T20:00:00	ND	ND	ND	ND	ND	17.2	ND	ND	ND	ND	0	0
78310	2019-01-03T21:00:00	ND	ND	ND	ND	ND	18.3	ND	ND	ND	ND	0	0
78311	2019-01-03T22:00:00	ND	ND	ND	ND	ND	17.3	ND	ND	ND	ND	0	0
78312	2019-01-03T23:00:00	ND	ND	ND	ND	ND	12.8	ND	ND	ND	ND	0	0
78313	2019-01-04T00:00:00	ND	ND	ND	ND	ND	2.8	ND	ND	ND	ND	0	0
78314	2019-01-04T01:00:00	ND	ND	ND	ND	ND	3.8	ND	ND	ND	ND	0	0
78315	2019-01-04T02:00:00	ND	ND	ND	ND	ND	6	ND	ND	ND	ND	0	0
78316	2019-01-04T03:00:00	ND	ND	ND	ND	ND	5.9	ND	ND	ND	ND	0	0
78317	2019-01-04T04:00:00	ND	ND	ND	ND	ND	4.9	ND	ND	ND	ND	0	0
78318	2019-01-04T05:00:00	ND	ND	ND	ND	ND	5	ND	ND	ND	ND	0	0
78319	2019-01-04T06:00:00	ND	ND	ND	ND	ND	1.5	ND	ND	ND	ND	0	0
78320	2019-01-04T07:00:00	ND	ND	ND	ND	ND	1.8	ND	ND	ND	ND	0	0
78321	2019-01-04T08:00:00	ND	ND	ND	ND	ND	4.3	ND	ND	ND	ND	67.4	0
78322	2019-01-04T09:00:00	ND	ND	ND	ND	ND	16.5	ND	ND	ND	ND	536.6	0
78323	2019-01-04T10:00:00	ND	ND	ND	ND	ND	30.6	ND	ND	ND	ND	648.2	0
78324	2019-01-04T11:00:00	ND	ND	ND	ND	ND	44.2	ND	ND	ND	ND	648.5	0
78325	2019-01-04T12:00:00	ND	ND	ND	ND	ND	63.7	ND	ND	ND	ND	648.8	0
78326	2019-01-04T13:00:00	ND	ND	ND	ND	ND	73.1	ND	ND	ND	ND	649	0
78327	2019-01-04T14:00:00	ND	ND	ND	ND	ND	75.8	ND	ND	ND	ND	648.8	0
78328	2019-01-04T15:00:00	ND	ND	ND	ND	ND	79.4	ND	ND	ND	ND	648.9	0
78329	2019-01-04T16:00:00	ND	ND	ND	ND	ND	70.7	ND	ND	ND	ND	649.4	0
78330	2019-01-04T17:00:00	ND	ND	ND	ND	ND	59.8	ND	ND	ND	ND	648.5	0
78331	2019-01-04T18:00:00	ND	ND	ND	ND	ND	29	ND	ND	ND	ND	419.5	0
78332	2019-01-04T19:00:00	ND	ND	ND	ND	ND	24.1	ND	ND	ND	ND	0	0
78333	2019-01-04T20:00:00	ND	ND	ND	ND	ND	20.6	ND	ND	ND	ND	0	0
78334	2019-01-04T21:00:00	ND	ND	ND	ND	ND	21.8	ND	ND	ND	ND	0	0
78335	2019-01-04T22:00:00	ND	ND	ND	ND	ND	15.5	ND	ND	ND	ND	0	0
78336	2019-01-04T23:00:00	ND	ND	ND	ND	ND	13.3	ND	ND	ND	ND	0	0
78337	2019-01-05T00:00:00	ND	ND	ND	ND	ND	8.6	ND	ND	ND	ND	0	0
78338	2019-01-05T01:00:00	ND	ND	ND	ND	ND	7.4	ND	ND	ND	ND	0	0
78339	2019-01-05T02:00:00	ND	ND	ND	ND	ND	6.9	ND	ND	ND	ND	0	0
78340	2019-01-05T03:00:00	ND	ND	ND	ND	ND	11.1	ND	ND	ND	ND	0	0
78341	2019-01-05T04:00:00	ND	ND	ND	ND	ND	5	ND	ND	ND	ND	0	0
78342	2019-01-05T05:00:00	ND	ND	ND	ND	ND	1.6	ND	ND	ND	ND	0	0
78343	2019-01-05T06:00:00	ND	ND	ND	ND	ND	1.1	ND	ND	ND	ND	0	0
78344	2019-01-05T07:00:00	ND	ND	ND	ND	ND	2.1	ND	ND	ND	ND	0	0
78345	2019-01-05T08:00:00	ND	ND	ND	ND	ND	5.3	ND	ND	ND	ND	110.9	0
78346	2019-01-05T09:00:00	ND	ND	ND	ND	ND	15.5	ND	ND	ND	ND	533.6	0
78347	2019-01-05T10:00:00	ND	ND	ND	ND	ND	35.2	ND	ND	ND	ND	648.5	0
78348	2019-01-05T11:00:00	ND	ND	ND	ND	ND	54.8	ND	ND	ND	ND	648.4	0
78349	2019-01-05T12:00:00	ND	ND	ND	ND	ND	66.4	ND	ND	ND	ND	648.8	0
78350	2019-01-05T13:00:00	ND	ND	ND	ND	ND	84.8	ND	ND	ND	ND	628.4	0
78351	2019-01-05T14:00:00	ND	ND	ND	ND	ND	99.5	ND	ND	ND	ND	648.5	0
78352	2019-01-05T15:00:00	ND	ND	ND	ND	ND	35.8	ND	ND	ND	ND	618.9	0
78353	2019-01-05T16:00:00	ND	ND	ND	ND	ND	25.3	ND	ND	ND	ND	645.8	0
78354	2019-01-05T17:00:00	ND	ND	ND	ND	ND	20	ND	ND	ND	ND	497.5	0
78355	2019-01-05T18:00:00	ND	ND	ND	ND	ND	14.3	ND	ND	ND	ND	331	0
78356	2019-01-05T19:00:00	ND	ND	ND	ND	ND	9.3	ND	ND	ND	ND	0	0
78357	2019-01-05T20:00:00	ND	ND	ND	ND	ND	9.2	ND	ND	ND	ND	0	0
78358	2019-01-05T21:00:00	ND	ND	ND	ND	ND	11.8	ND	ND	ND	ND	0	0
78359	2019-01-05T22:00:00	ND	ND	ND	ND	ND	5.2	ND	ND	ND	ND	0	0
78360	2019-01-05T23:00:00	ND	ND	ND	ND	ND	6.9	ND	ND	ND	ND	0	0
78361	2019-01-06T00:00:00	ND	ND	ND	ND	ND	8.4	ND	ND	ND	ND	0	0
78362	2019-01-06T01:00:00	ND	ND	ND	ND	ND	5.1	ND	ND	ND	ND	0	0
78363	2019-01-06T02:00:00	ND	ND	ND	ND	ND	3.6	ND	ND	ND	ND	0	0
78364	2019-01-06T03:00:00	ND	ND	ND	ND	ND	3.2	ND	ND	ND	ND	0	0
78365	2019-01-06T04:00:00	ND	ND	ND	ND	ND	4.4	ND	ND	ND	ND	0	0
78366	2019-01-06T05:00:00	ND	ND	ND	ND	ND	2.7	ND	ND	ND	ND	0	0
78367	2019-01-06T06:00:00	ND	ND	ND	ND	ND	2.9	ND	ND	ND	ND	0	0
78368	2019-01-06T07:00:00	ND	ND	ND	ND	ND	3.8	ND	ND	ND	ND	0	0
78369	2019-01-06T08:00:00	ND	ND	ND	ND	ND	5.3	ND	ND	ND	ND	42.9	0
78370	2019-01-06T09:00:00	ND	ND	ND	ND	ND	5.4	ND	ND	ND	ND	115.3	0
78371	2019-01-06T10:00:00	ND	ND	ND	ND	ND	10.7	ND	ND	ND	ND	236.4	0
78372	2019-01-06T11:00:00	ND	ND	ND	ND	ND	26.5	ND	ND	ND	ND	529.4	0
78373	2019-01-06T12:00:00	ND	ND	ND	ND	ND	50.4	ND	ND	ND	ND	648.5	0
78374	2019-01-06T13:00:00	ND	ND	ND	ND	ND	75.2	ND	ND	ND	ND	648.8	0
78375	2019-01-06T14:00:00	ND	ND	ND	ND	ND	59.4	ND	ND	ND	ND	648.4	0
78376	2019-01-06T15:00:00	ND	ND	ND	ND	ND	30	ND	ND	ND	ND	631.3	0
78377	2019-01-06T16:00:00	ND	ND	ND	ND	ND	28.4	ND	ND	ND	ND	649.6	0
78378	2019-01-06T17:00:00	ND	ND	ND	ND	ND	27.4	ND	ND	ND	ND	596.6	0
78379	2019-01-06T18:00:00	ND	ND	ND	ND	ND	25	ND	ND	ND	ND	387.8	0
78380	2019-01-06T19:00:00	ND	ND	ND	ND	ND	24.2	ND	ND	ND	ND	0	0
78381	2019-01-06T20:00:00	ND	ND	ND	ND	ND	14.3	ND	ND	ND	ND	0	0
78382	2019-01-06T21:00:00	ND	ND	ND	ND	ND	11.5	ND	ND	ND	ND	0	0
78383	2019-01-06T22:00:00	ND	ND	ND	ND	ND	14.1	ND	ND	ND	ND	0	0
78384	2019-01-06T23:00:00	ND	ND	ND	ND	ND	16.5	ND	ND	ND	ND	0	0
78385	2019-01-07T00:00:00	ND	ND	ND	ND	ND	5.6	ND	ND	ND	ND	0	0
78386	2019-01-07T01:00:00	ND	ND	ND	ND	ND	5.9	ND	ND	ND	ND	0	0
78387	2019-01-07T02:00:00	ND	ND	ND	ND	ND	5.5	ND	ND	ND	ND	0	0
78388	2019-01-07T03:00:00	ND	ND	ND	ND	ND	4.5	ND	ND	ND	ND	0	0
78389	2019-01-07T04:00:00	ND	ND	ND	ND	ND	5.1	ND	ND	ND	ND	0	0
78390	2019-01-07T05:00:00	ND	ND	ND	ND	ND	4.3	ND	ND	ND	ND	0	0
78391	2019-01-07T06:00:00	ND	ND	ND	ND	ND	5.9	ND	ND	ND	ND	0	0
78392	2019-01-07T07:00:00	ND	ND	ND	ND	ND	6.7	ND	ND	ND	ND	0	8.64
78393	2019-01-07T08:00:00	ND	ND	ND	ND	ND	3.8	ND	ND	ND	ND	29.6	0
78394	2019-01-07T09:00:00	ND	ND	ND	ND	ND	5.2	ND	ND	ND	ND	179.4	0
78395	2019-01-07T10:00:00	ND	ND	ND	ND	ND	7	ND	ND	ND	ND	280	0.25
78396	2019-01-07T11:00:00	ND	ND	ND	ND	ND	5.8	ND	ND	ND	ND	177.5	0
78397	2019-01-07T12:00:00	ND	ND	ND	ND	ND	14.4	ND	ND	ND	ND	275.8	0
78398	2019-01-07T13:00:00	ND	ND	ND	ND	ND	27.6	ND	ND	ND	ND	646.3	0
78399	2019-01-07T14:00:00	ND	ND	ND	ND	ND	34.4	ND	ND	ND	ND	597.1	0
78400	2019-01-07T15:00:00	ND	ND	ND	ND	ND	25.2	ND	ND	ND	ND	648	3.3
78401	2019-01-07T16:00:00	ND	ND	ND	ND	ND	18.6	ND	ND	ND	ND	402.1	2.54
78402	2019-01-07T17:00:00	ND	ND	ND	ND	ND	16.3	ND	ND	ND	ND	175.8	0.25
78403	2019-01-07T18:00:00	ND	ND	ND	ND	ND	19.2	ND	ND	ND	ND	190.6	0
78404	2019-01-07T19:00:00	ND	ND	ND	ND	ND	8	ND	ND	ND	ND	0	0
78405	2019-01-07T20:00:00	ND	ND	ND	ND	ND	3.2	ND	ND	ND	ND	0	0
78406	2019-01-07T21:00:00	ND	ND	ND	ND	ND	2.6	ND	ND	ND	ND	0	0
78407	2019-01-07T22:00:00	ND	ND	ND	ND	ND	1.3	ND	ND	ND	ND	0	0
78408	2019-01-07T23:00:00	ND	ND	ND	ND	ND	1.1	ND	ND	ND	ND	0	0
78409	2019-01-08T00:00:00	ND	ND	ND	ND	ND	1.3	ND	ND	ND	ND	0	0
78410	2019-01-08T01:00:00	ND	ND	ND	ND	ND	3.5	ND	ND	ND	ND	0	0
78411	2019-01-08T02:00:00	ND	ND	ND	ND	ND	4.8	ND	ND	ND	ND	0	0
78412	2019-01-08T03:00:00	ND	ND	ND	ND	ND	3.8	ND	ND	ND	ND	0	0
78413	2019-01-08T04:00:00	ND	ND	ND	ND	ND	1.7	ND	ND	ND	ND	0	0
78414	2019-01-08T05:00:00	ND	ND	ND	ND	ND	2.7	ND	ND	ND	ND	0	0
78415	2019-01-08T06:00:00	ND	ND	ND	ND	ND	1.1	ND	ND	ND	ND	0	0
78416	2019-01-08T07:00:00	ND	ND	ND	ND	ND	1.5	ND	ND	ND	ND	0	0
78417	2019-01-08T08:00:00	ND	ND	ND	ND	ND	1.5	ND	ND	ND	ND	29.7	0
78418	2019-01-08T09:00:00	ND	ND	ND	ND	ND	5.9	ND	ND	ND	ND	169.2	0
78419	2019-01-08T10:00:00	ND	ND	ND	ND	ND	23.6	ND	ND	ND	ND	555.4	0
78420	2019-01-08T11:00:00	ND	ND	ND	ND	ND	35.2	ND	ND	ND	ND	648.9	0
78421	2019-01-08T12:00:00	ND	ND	ND	ND	ND	52.3	ND	ND	ND	ND	632	0
78422	2019-01-08T13:00:00	ND	ND	ND	ND	ND	64.3	ND	ND	ND	ND	648.5	0
78423	2019-01-08T14:00:00	ND	ND	ND	ND	ND	69.1	ND	ND	ND	ND	649	0
78424	2019-01-08T15:00:00	ND	ND	ND	ND	ND	48.9	ND	ND	ND	ND	638.4	1.52
78425	2019-01-08T16:00:00	ND	ND	ND	ND	ND	5.7	ND	ND	ND	ND	382.1	0.51
78426	2019-01-08T17:00:00	ND	ND	ND	ND	ND	7.4	ND	ND	ND	ND	392.8	0
78427	2019-01-08T18:00:00	ND	ND	ND	ND	ND	13.7	ND	ND	ND	ND	333.7	0
78428	2019-01-08T19:00:00	ND	ND	ND	ND	ND	7.7	ND	ND	ND	ND	0	0
78429	2019-01-08T20:00:00	ND	ND	ND	ND	ND	7.5	ND	ND	ND	ND	0	0
78430	2019-01-08T21:00:00	ND	ND	ND	ND	ND	16.3	ND	ND	ND	ND	0	0
78431	2019-01-08T22:00:00	ND	ND	ND	ND	ND	13.3	ND	ND	ND	ND	0	0
78432	2019-01-08T23:00:00	ND	ND	ND	ND	ND	1.4	ND	ND	ND	ND	0	0
78433	2019-01-09T00:00:00	ND	ND	ND	ND	ND	5.9	ND	ND	ND	ND	0	0
78434	2019-01-09T01:00:00	ND	ND	ND	ND	ND	10.7	ND	ND	ND	ND	0	0
78435	2019-01-09T02:00:00	ND	ND	ND	ND	ND	9.8	ND	ND	ND	ND	0	0
78436	2019-01-09T03:00:00	ND	ND	ND	ND	ND	15.7	ND	ND	ND	ND	0	0
78437	2019-01-09T04:00:00	ND	ND	ND	ND	ND	16.6	ND	ND	ND	ND	0	0
78438	2019-01-09T05:00:00	ND	ND	ND	ND	ND	15.7	ND	ND	ND	ND	0	0
78439	2019-01-09T06:00:00	ND	ND	ND	ND	ND	12.9	ND	ND	ND	ND	0	0
78440	2019-01-09T07:00:00	ND	ND	ND	ND	ND	6.2	ND	ND	ND	ND	0	1.02
78441	2019-01-09T08:00:00	ND	ND	ND	ND	ND	3.4	ND	ND	ND	ND	5	6.1
78442	2019-01-09T09:00:00	ND	ND	ND	ND	ND	2.1	ND	ND	ND	ND	42	0.51
78443	2019-01-09T10:00:00	ND	ND	ND	ND	ND	4.8	ND	ND	ND	ND	172.3	0.25
78444	2019-01-09T11:00:00	ND	ND	ND	ND	ND	12.2	ND	ND	ND	ND	279.9	0
78445	2019-01-09T12:00:00	ND	ND	ND	ND	ND	ND	ND	ND	ND	ND	634.4	0
78446	2019-01-09T13:00:00	ND	ND	ND	ND	ND	25.4	ND	ND	ND	ND	648.7	0
78447	2019-01-09T14:00:00	ND	ND	ND	ND	ND	28.6	ND	ND	ND	ND	632.9	0
78448	2019-01-09T15:00:00	ND	ND	ND	ND	ND	23.3	ND	ND	ND	ND	649.4	0
78449	2019-01-09T16:00:00	ND	ND	ND	ND	ND	26	ND	ND	ND	ND	509.5	0
78450	2019-01-09T17:00:00	ND	ND	ND	ND	ND	7.9	ND	ND	ND	ND	457.4	0
78451	2019-01-09T18:00:00	ND	ND	ND	ND	ND	2.2	ND	ND	ND	ND	302.5	0
78452	2019-01-09T19:00:00	ND	ND	ND	ND	ND	2.4	ND	ND	ND	ND	0	0
78453	2019-01-09T20:00:00	ND	ND	ND	ND	ND	1.2	ND	ND	ND	ND	0	0
78454	2019-01-09T21:00:00	ND	ND	ND	ND	ND	1.3	ND	ND	ND	ND	0	0
78455	2019-01-09T22:00:00	ND	ND	ND	ND	ND	3.3	ND	ND	ND	ND	0	0
78456	2019-01-09T23:00:00	ND	ND	ND	ND	ND	1.1	ND	ND	ND	ND	0	0
78457	2019-01-10T00:00:00	ND	ND	ND	ND	ND	1	ND	ND	ND	ND	0	0
78458	2019-01-10T01:00:00	ND	ND	ND	ND	ND	3.1	ND	ND	ND	ND	0	0
78459	2019-01-10T02:00:00	ND	ND	ND	ND	ND	1.6	ND	ND	ND	ND	0	0
78460	2019-01-10T03:00:00	ND	ND	ND	ND	ND	0.9	ND	ND	ND	ND	0	0
78461	2019-01-10T04:00:00	ND	ND	ND	ND	ND	1	ND	ND	ND	ND	0	0
78462	2019-01-10T05:00:00	ND	ND	ND	ND	ND	1.5	ND	ND	ND	ND	0	0
78463	2019-01-10T06:00:00	ND	ND	ND	ND	ND	1.1	ND	ND	ND	ND	0	0
78464	2019-01-10T07:00:00	ND	ND	ND	ND	ND	1	ND	ND	ND	ND	0	0
78465	2019-01-10T08:00:00	ND	ND	ND	ND	ND	1.5	ND	ND	ND	ND	50.2	0
78466	2019-01-10T09:00:00	ND	ND	ND	ND	ND	6.3	ND	ND	ND	ND	443.7	0
78467	2019-01-10T10:00:00	ND	ND	ND	ND	ND	11.8	ND	ND	ND	ND	611.6	0
78468	2019-01-10T11:00:00	ND	ND	ND	ND	ND	20.2	ND	ND	ND	ND	554	0
78469	2019-01-10T12:00:00	ND	ND	ND	ND	ND	26.5	ND	ND	ND	ND	405.3	0
78470	2019-01-10T13:00:00	ND	ND	ND	ND	ND	44.8	ND	ND	ND	ND	502.1	0
78471	2019-01-10T14:00:00	ND	ND	ND	ND	ND	67.1	ND	ND	ND	ND	639.8	0
78472	2019-01-10T15:00:00	ND	ND	ND	ND	ND	36.6	ND	ND	ND	ND	538.4	12.45
78473	2019-01-10T16:00:00	ND	ND	ND	ND	ND	51.2	ND	ND	ND	ND	278.3	0.25
78474	2019-01-10T17:00:00	ND	ND	ND	ND	ND	48.8	ND	ND	ND	ND	577.5	0
78475	2019-01-10T18:00:00	ND	ND	ND	ND	ND	8	ND	ND	ND	ND	358.3	0
78476	2019-01-10T19:00:00	ND	ND	ND	ND	ND	4.4	ND	ND	ND	ND	0	0
78477	2019-01-10T20:00:00	ND	ND	ND	ND	ND	8.5	ND	ND	ND	ND	0	0
78478	2019-01-10T21:00:00	ND	ND	ND	ND	ND	16.3	ND	ND	ND	ND	0	0
78479	2019-01-10T22:00:00	ND	ND	ND	ND	ND	7.8	ND	ND	ND	ND	0	0
78480	2019-01-10T23:00:00	ND	ND	ND	ND	ND	1.2	ND	ND	ND	ND	0	0
78481	2019-01-11T00:00:00	ND	ND	ND	ND	ND	6	ND	ND	ND	ND	0	0
78482	2019-01-11T01:00:00	ND	ND	ND	ND	ND	1.2	ND	ND	ND	ND	0	0
78483	2019-01-11T02:00:00	ND	ND	ND	ND	ND	2	ND	ND	ND	ND	0	0
78484	2019-01-11T03:00:00	ND	ND	ND	ND	ND	0.9	ND	ND	ND	ND	0	0
78485	2019-01-11T04:00:00	ND	ND	ND	ND	ND	0.8	ND	ND	ND	ND	0	0
78486	2019-01-11T05:00:00	ND	ND	ND	ND	ND	1	ND	ND	ND	ND	0	0
78487	2019-01-11T06:00:00	ND	ND	ND	ND	ND	1	ND	ND	ND	ND	0	0
78488	2019-01-11T07:00:00	ND	ND	ND	ND	ND	1.3	ND	ND	ND	ND	0	0
78489	2019-01-11T08:00:00	ND	ND	ND	ND	ND	1.8	ND	ND	ND	ND	55.8	0
78490	2019-01-11T09:00:00	ND	ND	ND	ND	ND	5.7	ND	ND	ND	ND	471.8	0
78491	2019-01-11T10:00:00	ND	ND	ND	ND	ND	20.9	ND	ND	ND	ND	629.5	0
78492	2019-01-11T11:00:00	ND	ND	ND	ND	ND	41.8	ND	ND	ND	ND	647.9	0
78493	2019-01-11T12:00:00	ND	ND	ND	ND	ND	66.8	ND	ND	ND	ND	646.9	0
78494	2019-01-11T13:00:00	ND	ND	ND	ND	ND	82	ND	ND	ND	ND	647.2	0
78495	2019-01-11T14:00:00	ND	ND	ND	ND	ND	83.1	ND	ND	ND	ND	635.2	0
78496	2019-01-11T15:00:00	ND	ND	ND	ND	ND	90.7	ND	ND	ND	ND	490.7	0
78497	2019-01-11T16:00:00	ND	ND	ND	ND	ND	29.8	ND	ND	ND	ND	611	0
78498	2019-01-11T17:00:00	ND	ND	ND	ND	ND	14.3	ND	ND	ND	ND	409.8	0
78499	2019-01-11T18:00:00	ND	ND	ND	ND	ND	13.2	ND	ND	ND	ND	322.1	0
78500	2019-01-11T19:00:00	ND	ND	ND	ND	ND	10.3	ND	ND	ND	ND	0	0
78501	2019-01-11T20:00:00	ND	ND	ND	ND	ND	12.8	ND	ND	ND	ND	0	0
78502	2019-01-11T21:00:00	ND	ND	ND	ND	ND	8	ND	ND	ND	ND	0	0
78503	2019-01-11T22:00:00	ND	ND	ND	ND	ND	7.8	ND	ND	ND	ND	0	0
78504	2019-01-11T23:00:00	ND	ND	ND	ND	ND	11.8	ND	ND	ND	ND	0	0
78505	2019-01-12T00:00:00	ND	ND	ND	ND	ND	2.2	ND	ND	ND	ND	0	0
78506	2019-01-12T01:00:00	ND	ND	ND	ND	ND	1	ND	ND	ND	ND	0	0
78507	2019-01-12T02:00:00	ND	ND	ND	ND	ND	0.8	ND	ND	ND	ND	0	0
78508	2019-01-12T03:00:00	ND	ND	ND	ND	ND	1	ND	ND	ND	ND	0	0
78509	2019-01-12T04:00:00	ND	ND	ND	ND	ND	1.8	ND	ND	ND	ND	0	0
78510	2019-01-12T05:00:00	ND	ND	ND	ND	ND	0.9	ND	ND	ND	ND	0	0
78511	2019-01-12T06:00:00	ND	ND	ND	ND	ND	0.9	ND	ND	ND	ND	0	0
78512	2019-01-12T07:00:00	ND	ND	ND	ND	ND	1.2	ND	ND	ND	ND	0	0
78513	2019-01-12T08:00:00	ND	ND	ND	ND	ND	1.3	ND	ND	ND	ND	42	0
78514	2019-01-12T09:00:00	ND	ND	ND	ND	ND	3.8	ND	ND	ND	ND	226.8	0
78515	2019-01-12T10:00:00	ND	ND	ND	ND	ND	14.2	ND	ND	ND	ND	423.7	0
78516	2019-01-12T11:00:00	ND	ND	ND	ND	ND	34.3	ND	ND	ND	ND	648.8	0
78517	2019-01-12T12:00:00	ND	ND	ND	ND	ND	52.2	ND	ND	ND	ND	649.2	0
78518	2019-01-12T13:00:00	ND	ND	ND	ND	ND	66.4	ND	ND	ND	ND	645.3	0
78519	2019-01-12T14:00:00	ND	ND	ND	ND	ND	76.4	ND	ND	ND	ND	598.3	0
78520	2019-01-12T15:00:00	ND	ND	ND	ND	ND	47.7	ND	ND	ND	ND	523.9	0
78521	2019-01-12T16:00:00	ND	ND	ND	ND	ND	25.8	ND	ND	ND	ND	518.6	0
78522	2019-01-12T17:00:00	ND	ND	ND	ND	ND	17.2	ND	ND	ND	ND	649.2	0
78523	2019-01-12T18:00:00	ND	ND	ND	ND	ND	14.3	ND	ND	ND	ND	455.5	0
78524	2019-01-12T19:00:00	ND	ND	ND	ND	ND	14.7	ND	ND	ND	ND	0	0
78525	2019-01-12T20:00:00	ND	ND	ND	ND	ND	14.6	ND	ND	ND	ND	0	0
78526	2019-01-12T21:00:00	ND	ND	ND	ND	ND	17.9	ND	ND	ND	ND	0	0
78527	2019-01-12T22:00:00	ND	ND	ND	ND	ND	15.1	ND	ND	ND	ND	0	0
78528	2019-01-12T23:00:00	ND	ND	ND	ND	ND	10.8	ND	ND	ND	ND	0	0
78529	2019-01-13T00:00:00	ND	ND	ND	ND	ND	1.1	ND	ND	ND	ND	0	0
78530	2019-01-13T01:00:00	ND	ND	ND	ND	ND	2.3	ND	ND	ND	ND	0	0
78531	2019-01-13T02:00:00	ND	ND	ND	ND	ND	1.2	ND	ND	ND	ND	0	0
78532	2019-01-13T03:00:00	ND	ND	ND	ND	ND	1.1	ND	ND	ND	ND	0	0
78533	2019-01-13T04:00:00	ND	ND	ND	ND	ND	0.8	ND	ND	ND	ND	0	0
78534	2019-01-13T05:00:00	ND	ND	ND	ND	ND	0.9	ND	ND	ND	ND	0	0
78535	2019-01-13T06:00:00	ND	ND	ND	ND	ND	0.8	ND	ND	ND	ND	0	0
78536	2019-01-13T07:00:00	ND	ND	ND	ND	ND	1.3	ND	ND	ND	ND	0	0
78537	2019-01-13T08:00:00	ND	ND	ND	ND	ND	3.7	ND	ND	ND	ND	53.5	0
78538	2019-01-13T09:00:00	ND	ND	ND	ND	ND	11.3	ND	ND	ND	ND	230.1	0
78539	2019-01-13T10:00:00	ND	ND	ND	ND	ND	14.5	ND	ND	ND	ND	583.5	0
78540	2019-01-13T11:00:00	ND	ND	ND	ND	ND	22.2	ND	ND	ND	ND	635	0
78541	2019-01-13T12:00:00	ND	ND	ND	ND	ND	33.7	ND	ND	ND	ND	641.8	0
78542	2019-01-13T13:00:00	ND	ND	ND	ND	ND	40.6	ND	ND	ND	ND	649.3	0
78543	2019-01-13T14:00:00	ND	ND	ND	ND	ND	62.1	ND	ND	ND	ND	649.3	0
78544	2019-01-13T15:00:00	ND	ND	ND	ND	ND	56.7	ND	ND	ND	ND	649.7	0
78545	2019-01-13T16:00:00	ND	ND	ND	ND	ND	27.2	ND	ND	ND	ND	649.4	0
78546	2019-01-13T17:00:00	ND	ND	ND	ND	ND	19	ND	ND	ND	ND	641.2	0
78547	2019-01-13T18:00:00	ND	ND	ND	ND	ND	17.6	ND	ND	ND	ND	435.9	0
78548	2019-01-13T19:00:00	ND	ND	ND	ND	ND	16.4	ND	ND	ND	ND	0	0
78549	2019-01-13T20:00:00	ND	ND	ND	ND	ND	17.4	ND	ND	ND	ND	0	0
78550	2019-01-13T21:00:00	ND	ND	ND	ND	ND	13.3	ND	ND	ND	ND	0	0
78551	2019-01-13T22:00:00	ND	ND	ND	ND	ND	10.7	ND	ND	ND	ND	0	0
78552	2019-01-13T23:00:00	ND	ND	ND	ND	ND	13	ND	ND	ND	ND	0	2.79
78553	2019-01-14T00:00:00	ND	ND	ND	ND	ND	8.2	ND	ND	ND	ND	0	5.33
78554	2019-01-14T01:00:00	ND	ND	ND	ND	ND	12.2	ND	ND	ND	ND	0	0.51
78555	2019-01-14T02:00:00	ND	ND	ND	ND	ND	9.2	ND	ND	ND	ND	0	0.25
78556	2019-01-14T03:00:00	ND	ND	ND	ND	ND	8.9	ND	ND	ND	ND	0	0.25
78557	2019-01-14T04:00:00	ND	ND	ND	ND	ND	9.3	ND	ND	ND	ND	0	0.25
78558	2019-01-14T05:00:00	ND	ND	ND	ND	ND	9.3	ND	ND	ND	ND	0	0
78559	2019-01-14T06:00:00	ND	ND	ND	ND	ND	3	ND	ND	ND	ND	0	0
78560	2019-01-14T07:00:00	ND	ND	ND	ND	ND	0.9	ND	ND	ND	ND	0	0.25
78561	2019-01-14T08:00:00	ND	ND	ND	ND	ND	1.8	ND	ND	ND	ND	24.1	0.25
78562	2019-01-14T09:00:00	ND	ND	ND	ND	ND	4.9	ND	ND	ND	ND	304.3	0
78563	2019-01-14T10:00:00	ND	ND	ND	ND	ND	5.2	ND	ND	ND	ND	585.7	0
78564	2019-01-14T11:00:00	ND	ND	ND	ND	ND	20.6	ND	ND	ND	ND	392.6	0
78565	2019-01-14T12:00:00	ND	ND	ND	ND	ND	41.4	ND	ND	ND	ND	648.5	0
78566	2019-01-14T13:00:00	ND	ND	ND	ND	ND	62.4	ND	ND	ND	ND	637.2	0
78567	2019-01-14T14:00:00	ND	ND	ND	ND	ND	52.7	ND	ND	ND	ND	568.6	0
78568	2019-01-14T15:00:00	ND	ND	ND	ND	ND	24.1	ND	ND	ND	ND	580.2	0
78569	2019-01-14T16:00:00	ND	ND	ND	ND	ND	11.5	ND	ND	ND	ND	331.3	0
78570	2019-01-14T17:00:00	ND	ND	ND	ND	ND	13	ND	ND	ND	ND	201.8	0
78571	2019-01-14T18:00:00	ND	ND	ND	ND	ND	9	ND	ND	ND	ND	211.7	0
78572	2019-01-14T19:00:00	ND	ND	ND	ND	ND	8.7	ND	ND	ND	ND	0	0
78573	2019-01-14T20:00:00	ND	ND	ND	ND	ND	5.5	ND	ND	ND	ND	0	0
78574	2019-01-14T21:00:00	ND	ND	ND	ND	ND	4.3	ND	ND	ND	ND	0	0
78575	2019-01-14T22:00:00	ND	ND	ND	ND	ND	8.2	ND	ND	ND	ND	0	0
78576	2019-01-14T23:00:00	ND	ND	ND	ND	ND	2.5	ND	ND	ND	ND	0	0
78577	2019-01-15T00:00:00	ND	ND	ND	ND	ND	10.6	ND	ND	ND	ND	0	0
78578	2019-01-15T01:00:00	ND	ND	ND	ND	ND	4.4	ND	ND	ND	ND	0	0
78579	2019-01-15T02:00:00	ND	ND	ND	ND	ND	2.1	ND	ND	ND	ND	0	0
78580	2019-01-15T03:00:00	ND	ND	ND	ND	ND	1.9	ND	ND	ND	ND	0	0
78581	2019-01-15T04:00:00	ND	ND	ND	ND	ND	4.1	ND	ND	ND	ND	0	0
78582	2019-01-15T05:00:00	ND	ND	ND	ND	ND	1.7	ND	ND	ND	ND	0	0
78583	2019-01-15T06:00:00	ND	ND	ND	ND	ND	1.1	ND	ND	ND	ND	0	0
78584	2019-01-15T07:00:00	ND	ND	ND	ND	ND	0.9	ND	ND	ND	ND	0	0
78585	2019-01-15T08:00:00	ND	ND	ND	ND	ND	2.1	ND	ND	ND	ND	77.5	0
78586	2019-01-15T09:00:00	ND	ND	ND	ND	ND	3.9	ND	ND	ND	ND	372.8	0
78587	2019-01-15T10:00:00	ND	ND	ND	ND	ND	20.8	ND	ND	ND	ND	551.6	0
78588	2019-01-15T11:00:00	ND	ND	ND	ND	ND	34.1	ND	ND	ND	ND	643.2	0
78589	2019-01-15T12:00:00	ND	ND	ND	ND	ND	47.1	ND	ND	ND	ND	617.5	0
78590	2019-01-15T13:00:00	ND	ND	ND	ND	ND	60.6	ND	ND	ND	ND	624.8	0
78591	2019-01-15T14:00:00	ND	ND	ND	ND	ND	74.5	ND	ND	ND	ND	621.2	0
78592	2019-01-15T15:00:00	ND	ND	ND	ND	ND	79.2	ND	ND	ND	ND	645.8	0
78593	2019-01-15T16:00:00	ND	ND	ND	ND	ND	55.2	ND	ND	ND	ND	602.5	0
78594	2019-01-15T17:00:00	ND	ND	ND	ND	ND	24.9	ND	ND	ND	ND	489.4	0
78595	2019-01-15T18:00:00	ND	ND	ND	ND	ND	19.9	ND	ND	ND	ND	491	0
78596	2019-01-15T19:00:00	ND	ND	ND	ND	ND	13.6	ND	ND	ND	ND	0	0
78597	2019-01-15T20:00:00	ND	ND	ND	ND	ND	11.8	ND	ND	ND	ND	0	0
78598	2019-01-15T21:00:00	ND	ND	ND	ND	ND	12.8	ND	ND	ND	ND	0	0
78599	2019-01-15T22:00:00	ND	ND	ND	ND	ND	15.7	ND	ND	ND	ND	0	0
78600	2019-01-15T23:00:00	ND	ND	ND	ND	ND	16.7	ND	ND	ND	ND	0	0
78601	2019-01-16T00:00:00	ND	ND	ND	ND	ND	19.6	ND	ND	ND	ND	0	0
78602	2019-01-16T01:00:00	ND	ND	ND	ND	ND	15.2	ND	ND	ND	ND	0	0
78603	2019-01-16T02:00:00	ND	ND	ND	ND	ND	6.3	ND	ND	ND	ND	0	0
78604	2019-01-16T03:00:00	ND	ND	ND	ND	ND	4.8	ND	ND	ND	ND	0	0
78605	2019-01-16T04:00:00	ND	ND	ND	ND	ND	2.9	ND	ND	ND	ND	0	0
78606	2019-01-16T05:00:00	ND	ND	ND	ND	ND	1.7	ND	ND	ND	ND	0	0
78607	2019-01-16T06:00:00	ND	ND	ND	ND	ND	0.8	ND	ND	ND	ND	0	0
78608	2019-01-16T07:00:00	ND	ND	ND	ND	ND	1	ND	ND	ND	ND	0	0
78609	2019-01-16T08:00:00	ND	ND	ND	ND	ND	2.5	ND	ND	ND	ND	29.9	0
78610	2019-01-16T09:00:00	ND	ND	ND	ND	ND	6.3	ND	ND	ND	ND	494	0
78611	2019-01-16T10:00:00	ND	ND	ND	ND	ND	9.5	ND	ND	ND	ND	579.5	0
78612	2019-01-16T11:00:00	ND	ND	ND	ND	ND	21.3	ND	ND	ND	ND	488	0
78613	2019-01-16T12:00:00	ND	ND	ND	ND	ND	37.2	ND	ND	ND	ND	649	0
78614	2019-01-16T13:00:00	ND	ND	ND	ND	ND	48.8	ND	ND	ND	ND	648.2	0
78615	2019-01-16T14:00:00	ND	ND	ND	ND	ND	42.4	ND	ND	ND	ND	649.8	0
78616	2019-01-16T15:00:00	ND	ND	ND	ND	ND	23.6	ND	ND	ND	ND	521.8	0
78617	2019-01-16T16:00:00	ND	ND	ND	ND	ND	23.1	ND	ND	ND	ND	417.3	0
78618	2019-01-16T17:00:00	ND	ND	ND	ND	ND	16.7	ND	ND	ND	ND	505	0
78619	2019-01-16T18:00:00	ND	ND	ND	ND	ND	10.3	ND	ND	ND	ND	326.9	0
78620	2019-01-16T19:00:00	ND	ND	ND	ND	ND	6.4	ND	ND	ND	ND	0	0
78621	2019-01-16T20:00:00	ND	ND	ND	ND	ND	7	ND	ND	ND	ND	0	0
78622	2019-01-16T21:00:00	ND	ND	ND	ND	ND	9.9	ND	ND	ND	ND	0	0
78623	2019-01-16T22:00:00	ND	ND	ND	ND	ND	1.2	ND	ND	ND	ND	0	0
78624	2019-01-16T23:00:00	ND	ND	ND	ND	ND	0.9	ND	ND	ND	ND	0	0
78625	2019-01-17T00:00:00	ND	ND	ND	ND	ND	4.7	ND	ND	ND	ND	0	0
78626	2019-01-17T01:00:00	ND	ND	ND	ND	ND	1.3	ND	ND	ND	ND	0	0
78627	2019-01-17T02:00:00	ND	ND	ND	ND	ND	1	ND	ND	ND	ND	0	0
78628	2019-01-17T03:00:00	ND	ND	ND	ND	ND	1.1	ND	ND	ND	ND	0	0
78629	2019-01-17T04:00:00	ND	ND	ND	ND	ND	1.2	ND	ND	ND	ND	0	0
78630	2019-01-17T05:00:00	ND	ND	ND	ND	ND	0.8	ND	ND	ND	ND	0	0
78631	2019-01-17T06:00:00	ND	ND	ND	ND	ND	1	ND	ND	ND	ND	0	0
78632	2019-01-17T07:00:00	ND	ND	ND	ND	ND	1.1	ND	ND	ND	ND	0	0
78633	2019-01-17T08:00:00	ND	ND	ND	ND	ND	2.1	ND	ND	ND	ND	78.7	0
78634	2019-01-17T09:00:00	ND	ND	ND	ND	ND	8.1	ND	ND	ND	ND	544.3	0
78635	2019-01-17T10:00:00	ND	ND	ND	ND	ND	28.6	ND	ND	ND	ND	648.6	0
78636	2019-01-17T11:00:00	ND	ND	ND	ND	ND	27.1	ND	ND	ND	ND	645.6	0
78637	2019-01-17T12:00:00	ND	ND	ND	ND	ND	45.6	ND	ND	ND	ND	648.7	0
78638	2019-01-17T13:00:00	ND	ND	ND	ND	ND	83.9	ND	ND	ND	ND	649.6	0
78639	2019-01-17T14:00:00	ND	ND	ND	ND	ND	107	ND	ND	ND	ND	649.4	0
78640	2019-01-17T15:00:00	ND	ND	ND	ND	ND	53.7	ND	ND	ND	ND	629.9	0
78641	2019-01-17T16:00:00	ND	ND	ND	ND	ND	30.4	ND	ND	ND	ND	446	0
78642	2019-01-17T17:00:00	ND	ND	ND	ND	ND	25.8	ND	ND	ND	ND	650.4	0
78643	2019-01-17T18:00:00	ND	ND	ND	ND	ND	17.5	ND	ND	ND	ND	486.8	0
78644	2019-01-17T19:00:00	ND	ND	ND	ND	ND	12.2	ND	ND	ND	ND	0	0
78645	2019-01-17T20:00:00	ND	ND	ND	ND	ND	16.3	ND	ND	ND	ND	0	0
78646	2019-01-17T21:00:00	ND	ND	ND	ND	ND	16.9	ND	ND	ND	ND	0	0
78647	2019-01-17T22:00:00	ND	ND	ND	ND	ND	12.9	ND	ND	ND	ND	0	0
78648	2019-01-17T23:00:00	ND	ND	ND	ND	ND	3.8	ND	ND	ND	ND	0	0
78649	2019-01-18T00:00:00	ND	ND	ND	ND	ND	0.9	ND	ND	ND	ND	0	0
78650	2019-01-18T01:00:00	ND	ND	ND	ND	ND	6.6	ND	ND	ND	ND	0	0
78651	2019-01-18T02:00:00	ND	ND	ND	ND	ND	2.4	ND	ND	ND	ND	0	0
78652	2019-01-18T03:00:00	ND	ND	ND	ND	ND	2.7	ND	ND	ND	ND	0	0
78653	2019-01-18T04:00:00	ND	ND	ND	ND	ND	1.3	ND	ND	ND	ND	0	0
78654	2019-01-18T05:00:00	ND	ND	ND	ND	ND	1.2	ND	ND	ND	ND	0	0
78655	2019-01-18T06:00:00	ND	ND	ND	ND	ND	0.9	ND	ND	ND	ND	0	0
78656	2019-01-18T07:00:00	ND	ND	ND	ND	ND	1.1	ND	ND	ND	ND	0	0
78657	2019-01-18T08:00:00	ND	ND	ND	ND	ND	1.3	ND	ND	ND	ND	15.6	0
78658	2019-01-18T09:00:00	ND	ND	ND	ND	ND	2	ND	ND	ND	ND	145.3	0
78659	2019-01-18T10:00:00	ND	ND	ND	ND	ND	3.6	ND	ND	ND	ND	352.5	0
78660	2019-01-18T11:00:00	ND	ND	ND	ND	ND	7.3	ND	ND	ND	ND	430.8	0
78661	2019-01-18T12:00:00	ND	ND	ND	ND	ND	12.8	ND	ND	ND	ND	564.6	0
78662	2019-01-18T13:00:00	ND	ND	ND	ND	ND	30.6	ND	ND	ND	ND	551.9	0
78663	2019-01-18T14:00:00	ND	ND	ND	ND	ND	56.5	ND	ND	ND	ND	649.4	0
78664	2019-01-18T15:00:00	ND	ND	ND	ND	ND	61.1	ND	ND	ND	ND	650	0
78665	2019-01-18T16:00:00	ND	ND	ND	ND	ND	63.7	ND	ND	ND	ND	591.4	0
78666	2019-01-18T17:00:00	ND	ND	ND	ND	ND	42.5	ND	ND	ND	ND	535	0
78667	2019-01-18T18:00:00	ND	ND	ND	ND	ND	28.8	ND	ND	ND	ND	251.6	0
78668	2019-01-18T19:00:00	ND	ND	ND	ND	ND	7.1	ND	ND	ND	ND	0	0
78669	2019-01-18T20:00:00	ND	ND	ND	ND	ND	6.6	ND	ND	ND	ND	0	0
78670	2019-01-18T21:00:00	ND	ND	ND	ND	ND	11.8	ND	ND	ND	ND	0	0
78671	2019-01-18T22:00:00	ND	ND	ND	ND	ND	10.7	ND	ND	ND	ND	0	0
78672	2019-01-18T23:00:00	ND	ND	ND	ND	ND	1	ND	ND	ND	ND	0	0
78673	2019-01-19T00:00:00	ND	ND	ND	ND	ND	1	ND	ND	ND	ND	0	0
78674	2019-01-19T01:00:00	ND	ND	ND	ND	ND	2.4	ND	ND	ND	ND	0	0
78675	2019-01-19T02:00:00	ND	ND	ND	ND	ND	2.8	ND	ND	ND	ND	0	0
78676	2019-01-19T03:00:00	ND	ND	ND	ND	ND	3.7	ND	ND	ND	ND	0	0
78677	2019-01-19T04:00:00	ND	ND	ND	ND	ND	3.3	ND	ND	ND	ND	0	0
78678	2019-01-19T05:00:00	ND	ND	ND	ND	ND	3	ND	ND	ND	ND	0	0
78679	2019-01-19T06:00:00	ND	ND	ND	ND	ND	0.9	ND	ND	ND	ND	0	0
78680	2019-01-19T07:00:00	ND	ND	ND	ND	ND	1.1	ND	ND	ND	ND	0	0
78681	2019-01-19T08:00:00	ND	ND	ND	ND	ND	1.5	ND	ND	ND	ND	12.4	0
78682	2019-01-19T09:00:00	ND	ND	ND	ND	ND	2.5	ND	ND	ND	ND	101.1	0
78683	2019-01-19T10:00:00	ND	ND	ND	ND	ND	7.4	ND	ND	ND	ND	266	0
78684	2019-01-19T11:00:00	ND	ND	ND	ND	ND	22.2	ND	ND	ND	ND	524.3	0
78685	2019-01-19T12:00:00	ND	ND	ND	ND	ND	39.2	ND	ND	ND	ND	649.8	0
78686	2019-01-19T13:00:00	ND	ND	ND	ND	ND	68.4	ND	ND	ND	ND	649.7	0
78687	2019-01-19T14:00:00	ND	ND	ND	ND	ND	81.1	ND	ND	ND	ND	649.9	0
78688	2019-01-19T15:00:00	ND	ND	ND	ND	ND	83.5	ND	ND	ND	ND	650.3	0
78689	2019-01-19T16:00:00	ND	ND	ND	ND	ND	50.2	ND	ND	ND	ND	587.5	0
78690	2019-01-19T17:00:00	ND	ND	ND	ND	ND	34.9	ND	ND	ND	ND	458.2	0
78691	2019-01-19T18:00:00	ND	ND	ND	ND	ND	21.9	ND	ND	ND	ND	459.7	0
78692	2019-01-19T19:00:00	ND	ND	ND	ND	ND	16.7	ND	ND	ND	ND	0	0
78693	2019-01-19T20:00:00	ND	ND	ND	ND	ND	16.6	ND	ND	ND	ND	0	0
78694	2019-01-19T21:00:00	ND	ND	ND	ND	ND	18.8	ND	ND	ND	ND	0	0
78695	2019-01-19T22:00:00	ND	ND	ND	ND	ND	13.2	ND	ND	ND	ND	0	0
78696	2019-01-19T23:00:00	ND	ND	ND	ND	ND	13.2	ND	ND	ND	ND	0	0
78697	2019-01-20T00:00:00	ND	ND	ND	ND	ND	9.6	ND	ND	ND	ND	0	0
78698	2019-01-20T01:00:00	ND	ND	ND	ND	ND	14.9	ND	ND	ND	ND	0	0
78699	2019-01-20T02:00:00	ND	ND	ND	ND	ND	3.5	ND	ND	ND	ND	0	10.67
78700	2019-01-20T03:00:00	ND	ND	ND	ND	ND	4.2	ND	ND	ND	ND	0	5.59
78701	2019-01-20T04:00:00	ND	ND	ND	ND	ND	7.4	ND	ND	ND	ND	0	0.25
78702	2019-01-20T05:00:00	ND	ND	ND	ND	ND	2.2	ND	ND	ND	ND	0	0
78703	2019-01-20T06:00:00	ND	ND	ND	ND	ND	0.9	ND	ND	ND	ND	0	0
78704	2019-01-20T07:00:00	ND	ND	ND	ND	ND	0.8	ND	ND	ND	ND	0	0
78705	2019-01-20T08:00:00	ND	ND	ND	ND	ND	1.7	ND	ND	ND	ND	23.7	0
78706	2019-01-20T09:00:00	ND	ND	ND	ND	ND	5.1	ND	ND	ND	ND	149.7	0
78707	2019-01-20T10:00:00	ND	ND	ND	ND	ND	9.4	ND	ND	ND	ND	413.2	0
78708	2019-01-20T11:00:00	ND	ND	ND	ND	ND	22.7	ND	ND	ND	ND	597.5	0
78709	2019-01-20T12:00:00	ND	ND	ND	ND	ND	25.9	ND	ND	ND	ND	645.9	0
78710	2019-01-20T13:00:00	ND	ND	ND	ND	ND	37.2	ND	ND	ND	ND	649.1	0
78711	2019-01-20T14:00:00	ND	ND	ND	ND	ND	44.7	ND	ND	ND	ND	649.6	0
78712	2019-01-20T15:00:00	ND	ND	ND	ND	ND	35.1	ND	ND	ND	ND	601.9	0
78713	2019-01-20T16:00:00	ND	ND	ND	ND	ND	21.7	ND	ND	ND	ND	607.9	0
78714	2019-01-20T17:00:00	ND	ND	ND	ND	ND	15.7	ND	ND	ND	ND	329.1	0
78715	2019-01-20T18:00:00	ND	ND	ND	ND	ND	13.2	ND	ND	ND	ND	274.3	0
78716	2019-01-20T19:00:00	ND	ND	ND	ND	ND	12.1	ND	ND	ND	ND	0	0
78717	2019-01-20T20:00:00	ND	ND	ND	ND	ND	7.3	ND	ND	ND	ND	0	0
78718	2019-01-20T21:00:00	ND	ND	ND	ND	ND	6.8	ND	ND	ND	ND	0	0
78719	2019-01-20T22:00:00	ND	ND	ND	ND	ND	6.2	ND	ND	ND	ND	0	0
78720	2019-01-20T23:00:00	ND	ND	ND	ND	ND	6.4	ND	ND	ND	ND	0	0
78721	2019-01-21T00:00:00	ND	ND	ND	ND	ND	6.3	ND	ND	ND	ND	0	0
78722	2019-01-21T01:00:00	ND	ND	ND	ND	ND	5.6	ND	ND	ND	ND	0	0
78723	2019-01-21T02:00:00	ND	ND	ND	ND	ND	10.9	ND	ND	ND	ND	0	0
78724	2019-01-21T03:00:00	ND	ND	ND	ND	ND	0.9	ND	ND	ND	ND	0	0
78725	2019-01-21T04:00:00	ND	ND	ND	ND	ND	1.7	ND	ND	ND	ND	0	0
78726	2019-01-21T05:00:00	ND	ND	ND	ND	ND	2.2	ND	ND	ND	ND	0	0
78727	2019-01-21T06:00:00	ND	ND	ND	ND	ND	1.1	ND	ND	ND	ND	0	0
78728	2019-01-21T07:00:00	ND	ND	ND	ND	ND	0.9	ND	ND	ND	ND	0	0
78729	2019-01-21T08:00:00	ND	ND	ND	ND	ND	1.3	ND	ND	ND	ND	7.3	0
78730	2019-01-21T09:00:00	ND	ND	ND	ND	ND	1.6	ND	ND	ND	ND	105.4	0
78731	2019-01-21T10:00:00	ND	ND	ND	ND	ND	7.4	ND	ND	ND	ND	407.1	0
78732	2019-01-21T11:00:00	ND	ND	ND	ND	ND	23.2	ND	ND	ND	ND	648.4	0
78733	2019-01-21T12:00:00	ND	ND	ND	ND	ND	39.3	ND	ND	ND	ND	649.1	0
78734	2019-01-21T13:00:00	ND	ND	ND	ND	ND	63.4	ND	ND	ND	ND	648.9	0
78735	2019-01-21T14:00:00	ND	ND	ND	ND	ND	86.6	ND	ND	ND	ND	648.5	0
78736	2019-01-21T15:00:00	ND	ND	ND	ND	ND	82.7	ND	ND	ND	ND	648.7	0
78737	2019-01-21T16:00:00	ND	ND	ND	ND	ND	70	ND	ND	ND	ND	620.1	0
78738	2019-01-21T17:00:00	ND	ND	ND	ND	ND	62.1	ND	ND	ND	ND	632.2	0
78739	2019-01-21T18:00:00	ND	ND	ND	ND	ND	36.5	ND	ND	ND	ND	358.1	0
78740	2019-01-21T19:00:00	ND	ND	ND	ND	ND	25.5	ND	ND	ND	ND	0	0
78741	2019-01-21T20:00:00	ND	ND	ND	ND	ND	17	ND	ND	ND	ND	0	0
78742	2019-01-21T21:00:00	ND	ND	ND	ND	ND	17.2	ND	ND	ND	ND	0	0
78743	2019-01-21T22:00:00	ND	ND	ND	ND	ND	10.6	ND	ND	ND	ND	0	0
78744	2019-01-21T23:00:00	ND	ND	ND	ND	ND	7.2	ND	ND	ND	ND	0	0
78745	2019-01-22T00:00:00	ND	ND	ND	ND	ND	12.1	ND	ND	ND	ND	0	0
78746	2019-01-22T01:00:00	ND	ND	ND	ND	ND	4.1	ND	ND	ND	ND	0	0
78747	2019-01-22T02:00:00	ND	ND	ND	ND	ND	3.4	ND	ND	ND	ND	0	0
78748	2019-01-22T03:00:00	ND	ND	ND	ND	ND	2.1	ND	ND	ND	ND	0	0
78749	2019-01-22T04:00:00	ND	ND	ND	ND	ND	2.7	ND	ND	ND	ND	0	0
78750	2019-01-22T05:00:00	ND	ND	ND	ND	ND	0.8	ND	ND	ND	ND	0	0
78751	2019-01-22T06:00:00	ND	ND	ND	ND	ND	0.9	ND	ND	ND	ND	0	0
78752	2019-01-22T07:00:00	ND	ND	ND	ND	ND	1.1	ND	ND	ND	ND	0	0
78753	2019-01-22T08:00:00	ND	ND	ND	ND	ND	2.8	ND	ND	ND	ND	50.1	0
78754	2019-01-22T09:00:00	ND	ND	ND	ND	ND	6	ND	ND	ND	ND	513.3	0
78755	2019-01-22T10:00:00	ND	ND	ND	ND	ND	16.7	ND	ND	ND	ND	648.1	0
78756	2019-01-22T11:00:00	ND	ND	ND	ND	ND	38.8	ND	ND	ND	ND	649.2	0
78757	2019-01-22T12:00:00	ND	ND	ND	ND	ND	60	ND	ND	ND	ND	648.9	0
78758	2019-01-22T13:00:00	ND	ND	ND	ND	ND	68.8	ND	ND	ND	ND	650.1	0
78759	2019-01-22T14:00:00	ND	ND	ND	ND	ND	79.3	ND	ND	ND	ND	650	0
78760	2019-01-22T15:00:00	ND	ND	ND	ND	ND	103.7	ND	ND	ND	ND	650.6	0
78761	2019-01-22T16:00:00	ND	ND	ND	ND	ND	81.6	ND	ND	ND	ND	651.4	0
78762	2019-01-22T17:00:00	ND	ND	ND	ND	ND	42.1	ND	ND	ND	ND	630.9	0
78763	2019-01-22T18:00:00	ND	ND	ND	ND	ND	25.9	ND	ND	ND	ND	461.5	0
78764	2019-01-22T19:00:00	ND	ND	ND	ND	ND	18.6	ND	ND	ND	ND	0	0
78765	2019-01-22T20:00:00	ND	ND	ND	ND	ND	24.1	ND	ND	ND	ND	0	0
78766	2019-01-22T21:00:00	ND	ND	ND	ND	ND	23.9	ND	ND	ND	ND	0	0
78767	2019-01-22T22:00:00	ND	ND	ND	ND	ND	19.6	ND	ND	ND	ND	0	0
78768	2019-01-22T23:00:00	ND	ND	ND	ND	ND	15.4	ND	ND	ND	ND	0	0
78769	2019-01-23T00:00:00	ND	ND	ND	ND	ND	13.7	ND	ND	ND	ND	0	0
78770	2019-01-23T01:00:00	ND	ND	ND	ND	ND	13.8	ND	ND	ND	ND	0	0
78771	2019-01-23T02:00:00	ND	ND	ND	ND	ND	2.8	ND	ND	ND	ND	0	0
78772	2019-01-23T03:00:00	ND	ND	ND	ND	ND	1.7	ND	ND	ND	ND	0	0
78773	2019-01-23T04:00:00	ND	ND	ND	ND	ND	2.4	ND	ND	ND	ND	0	0
78774	2019-01-23T05:00:00	ND	ND	ND	ND	ND	1.9	ND	ND	ND	ND	0	0
78775	2019-01-23T06:00:00	ND	ND	ND	ND	ND	1	ND	ND	ND	ND	0	0
78776	2019-01-23T07:00:00	ND	ND	ND	ND	ND	1.1	ND	ND	ND	ND	0	0
78777	2019-01-23T08:00:00	ND	ND	ND	ND	ND	3	ND	ND	ND	ND	34.1	0
78778	2019-01-23T09:00:00	ND	ND	ND	ND	ND	6.6	ND	ND	ND	ND	517.5	0
78779	2019-01-23T10:00:00	ND	ND	ND	ND	ND	23.3	ND	ND	ND	ND	548	0
78780	2019-01-23T11:00:00	ND	ND	ND	ND	ND	41.3	ND	ND	ND	ND	649.3	0
78781	2019-01-23T12:00:00	ND	ND	ND	ND	ND	70.5	ND	ND	ND	ND	649.5	0
78782	2019-01-23T13:00:00	ND	ND	ND	ND	ND	88.5	ND	ND	ND	ND	624.2	0
78783	2019-01-23T14:00:00	ND	ND	ND	ND	ND	114.4	ND	ND	ND	ND	650.3	0
78784	2019-01-23T15:00:00	ND	ND	ND	ND	ND	109.2	ND	ND	ND	ND	650	0
78785	2019-01-23T16:00:00	ND	ND	ND	ND	ND	41.1	ND	ND	ND	ND	548.1	0
78786	2019-01-23T17:00:00	ND	ND	ND	ND	ND	32.9	ND	ND	ND	ND	649.4	0
78787	2019-01-23T18:00:00	ND	ND	ND	ND	ND	24.3	ND	ND	ND	ND	503.8	0
78788	2019-01-23T19:00:00	ND	ND	ND	ND	ND	15.8	ND	ND	ND	ND	0	0
78789	2019-01-23T20:00:00	ND	ND	ND	ND	ND	15	ND	ND	ND	ND	0	0
78790	2019-01-23T21:00:00	ND	ND	ND	ND	ND	17.7	ND	ND	ND	ND	0	0
78791	2019-01-23T22:00:00	ND	ND	ND	ND	ND	14	ND	ND	ND	ND	0	0
78792	2019-01-23T23:00:00	ND	ND	ND	ND	ND	11.9	ND	ND	ND	ND	0	0
78793	2019-01-24T00:00:00	ND	ND	ND	ND	ND	8.5	ND	ND	ND	ND	0	0
78794	2019-01-24T01:00:00	ND	ND	ND	ND	ND	5	ND	ND	ND	ND	0	0
78795	2019-01-24T02:00:00	ND	ND	ND	ND	ND	2.4	ND	ND	ND	ND	0	0
78796	2019-01-24T03:00:00	ND	ND	ND	ND	ND	3.6	ND	ND	ND	ND	0	0
78797	2019-01-24T04:00:00	ND	ND	ND	ND	ND	2.6	ND	ND	ND	ND	0	0
78798	2019-01-24T05:00:00	ND	ND	ND	ND	ND	1.6	ND	ND	ND	ND	0	0
78799	2019-01-24T06:00:00	ND	ND	ND	ND	ND	1	ND	ND	ND	ND	0	0
78800	2019-01-24T07:00:00	ND	ND	ND	ND	ND	1.2	ND	ND	ND	ND	0	0
78801	2019-01-24T08:00:00	ND	ND	ND	ND	ND	2	ND	ND	ND	ND	56.1	0
78802	2019-01-24T09:00:00	ND	ND	ND	ND	ND	8.6	ND	ND	ND	ND	511.4	0
78803	2019-01-24T10:00:00	ND	ND	ND	ND	ND	28	ND	ND	ND	ND	649	0
78804	2019-01-24T11:00:00	ND	ND	ND	ND	ND	53.1	ND	ND	ND	ND	649.3	0
78805	2019-01-24T12:00:00	ND	ND	ND	ND	ND	75	ND	ND	ND	ND	649.6	0
78806	2019-01-24T13:00:00	ND	ND	ND	ND	ND	78.7	ND	ND	ND	ND	641.2	0
78807	2019-01-24T14:00:00	ND	ND	ND	ND	ND	85.1	ND	ND	ND	ND	650	0
78808	2019-01-24T15:00:00	ND	ND	ND	ND	ND	93.6	ND	ND	ND	ND	650.8	0
78809	2019-01-24T16:00:00	ND	ND	ND	ND	ND	58.8	ND	ND	ND	ND	579.3	0
78810	2019-01-24T17:00:00	ND	ND	ND	ND	ND	29.7	ND	ND	ND	ND	632.2	0
78811	2019-01-24T18:00:00	ND	ND	ND	ND	ND	17	ND	ND	ND	ND	465.6	0
78812	2019-01-24T19:00:00	ND	ND	ND	ND	ND	11.3	ND	ND	ND	ND	0	0
78813	2019-01-24T20:00:00	ND	ND	ND	ND	ND	14.3	ND	ND	ND	ND	0	0
78814	2019-01-24T21:00:00	ND	ND	ND	ND	ND	14.2	ND	ND	ND	ND	0	0
78815	2019-01-24T22:00:00	ND	ND	ND	ND	ND	14.8	ND	ND	ND	ND	0	0
78816	2019-01-24T23:00:00	ND	ND	ND	ND	ND	13.4	ND	ND	ND	ND	0	0
78817	2019-01-25T00:00:00	ND	ND	ND	ND	ND	9.7	ND	ND	ND	ND	0	0
78818	2019-01-25T01:00:00	ND	ND	ND	ND	ND	2.4	ND	ND	ND	ND	0	0
78819	2019-01-25T02:00:00	ND	ND	ND	ND	ND	5.3	ND	ND	ND	ND	0	0
78820	2019-01-25T03:00:00	ND	ND	ND	ND	ND	6.1	ND	ND	ND	ND	0	0
78821	2019-01-25T04:00:00	ND	ND	ND	ND	ND	3.4	ND	ND	ND	ND	0	0
78822	2019-01-25T05:00:00	ND	ND	ND	ND	ND	1.5	ND	ND	ND	ND	0	0
78823	2019-01-25T06:00:00	ND	ND	ND	ND	ND	1.2	ND	ND	ND	ND	0	0
78824	2019-01-25T07:00:00	ND	ND	ND	ND	ND	1.3	ND	ND	ND	ND	0	0
78825	2019-01-25T08:00:00	ND	ND	ND	ND	ND	2.1	ND	ND	ND	ND	55.8	0
78826	2019-01-25T09:00:00	ND	ND	ND	ND	ND	10.1	ND	ND	ND	ND	416.6	0
78827	2019-01-25T10:00:00	ND	ND	ND	ND	ND	23.9	ND	ND	ND	ND	645.8	0
78828	2019-01-25T11:00:00	ND	ND	ND	ND	ND	50.7	ND	ND	ND	ND	649.2	0
78829	2019-01-25T12:00:00	ND	ND	ND	ND	ND	70.9	ND	ND	ND	ND	646.2	0
78830	2019-01-25T13:00:00	ND	ND	ND	ND	ND	100.1	ND	ND	ND	ND	526.7	0
78831	2019-01-25T14:00:00	ND	ND	ND	ND	ND	82.6	ND	ND	ND	ND	638.3	0
78832	2019-01-25T15:00:00	ND	ND	ND	ND	ND	70.2	ND	ND	ND	ND	636.4	0
78833	2019-01-25T16:00:00	ND	ND	ND	ND	ND	46.6	ND	ND	ND	ND	557.5	0
78834	2019-01-25T17:00:00	ND	ND	ND	ND	ND	21.2	ND	ND	ND	ND	335.4	0
78835	2019-01-25T18:00:00	ND	ND	ND	ND	ND	15.6	ND	ND	ND	ND	484.6	0
78836	2019-01-25T19:00:00	ND	ND	ND	ND	ND	17.3	ND	ND	ND	ND	0	0
78837	2019-01-25T20:00:00	ND	ND	ND	ND	ND	17.8	ND	ND	ND	ND	0	0
78838	2019-01-25T21:00:00	ND	ND	ND	ND	ND	18.3	ND	ND	ND	ND	0	0
78839	2019-01-25T22:00:00	ND	ND	ND	ND	ND	19.4	ND	ND	ND	ND	0	0
78840	2019-01-25T23:00:00	ND	ND	ND	ND	ND	11.5	ND	ND	ND	ND	0	0
78841	2019-01-26T00:00:00	ND	ND	ND	ND	ND	5.4	ND	ND	ND	ND	0	0
78842	2019-01-26T01:00:00	ND	ND	ND	ND	ND	3.2	ND	ND	ND	ND	0	0
78843	2019-01-26T02:00:00	ND	ND	ND	ND	ND	4.5	ND	ND	ND	ND	0	0
78844	2019-01-26T03:00:00	ND	ND	ND	ND	ND	2.1	ND	ND	ND	ND	0	0
78845	2019-01-26T04:00:00	ND	ND	ND	ND	ND	2.7	ND	ND	ND	ND	0	0
78846	2019-01-26T05:00:00	ND	ND	ND	ND	ND	1.9	ND	ND	ND	ND	0	0
78847	2019-01-26T06:00:00	ND	ND	ND	ND	ND	1.5	ND	ND	ND	ND	0	0
78848	2019-01-26T07:00:00	ND	ND	ND	ND	ND	1.3	ND	ND	ND	ND	0	0
78849	2019-01-26T08:00:00	ND	ND	ND	ND	ND	2.3	ND	ND	ND	ND	75.8	0
78850	2019-01-26T09:00:00	ND	ND	ND	ND	ND	6.6	ND	ND	ND	ND	528.2	0
78851	2019-01-26T10:00:00	ND	ND	ND	ND	ND	19.4	ND	ND	ND	ND	648.7	0
78852	2019-01-26T11:00:00	ND	ND	ND	ND	ND	38.8	ND	ND	ND	ND	649.1	0
78853	2019-01-26T12:00:00	ND	ND	ND	ND	ND	55.3	ND	ND	ND	ND	649.8	0
78854	2019-01-26T13:00:00	ND	ND	ND	ND	ND	70.5	ND	ND	ND	ND	649.4	0
78855	2019-01-26T14:00:00	ND	ND	ND	ND	ND	89.5	ND	ND	ND	ND	648.8	0
78856	2019-01-26T15:00:00	ND	ND	ND	ND	ND	105.8	ND	ND	ND	ND	650.8	0
78857	2019-01-26T16:00:00	ND	ND	ND	ND	ND	50.8	ND	ND	ND	ND	607.7	0
78858	2019-01-26T17:00:00	ND	ND	ND	ND	ND	29.3	ND	ND	ND	ND	650.8	0
78859	2019-01-26T18:00:00	ND	ND	ND	ND	ND	22.8	ND	ND	ND	ND	497	0
78860	2019-01-26T19:00:00	ND	ND	ND	ND	ND	19.2	ND	ND	ND	ND	0	0
78861	2019-01-26T20:00:00	ND	ND	ND	ND	ND	19.1	ND	ND	ND	ND	0	0
78862	2019-01-26T21:00:00	ND	ND	ND	ND	ND	19.4	ND	ND	ND	ND	0	0
78863	2019-01-26T22:00:00	ND	ND	ND	ND	ND	12.7	ND	ND	ND	ND	0	0
78864	2019-01-26T23:00:00	ND	ND	ND	ND	ND	9.8	ND	ND	ND	ND	0	0
78865	2019-01-27T00:00:00	ND	ND	ND	ND	ND	11.8	ND	ND	ND	ND	0	0
78866	2019-01-27T01:00:00	ND	ND	ND	ND	ND	12.6	ND	ND	ND	ND	0	0
78867	2019-01-27T02:00:00	ND	ND	ND	ND	ND	7.5	ND	ND	ND	ND	0	0
78868	2019-01-27T03:00:00	ND	ND	ND	ND	ND	5	ND	ND	ND	ND	0	0
78869	2019-01-27T04:00:00	ND	ND	ND	ND	ND	2.1	ND	ND	ND	ND	0	0
78870	2019-01-27T05:00:00	ND	ND	ND	ND	ND	1.3	ND	ND	ND	ND	0	0
78871	2019-01-27T06:00:00	ND	ND	ND	ND	ND	2.2	ND	ND	ND	ND	0	0
78872	2019-01-27T07:00:00	ND	ND	ND	ND	ND	1.7	ND	ND	ND	ND	0	0
78873	2019-01-27T08:00:00	ND	ND	ND	ND	ND	2.4	ND	ND	ND	ND	25.9	0
78874	2019-01-27T09:00:00	ND	ND	ND	ND	ND	8.9	ND	ND	ND	ND	176.4	0
78875	2019-01-27T10:00:00	ND	ND	ND	ND	ND	25.4	ND	ND	ND	ND	500.9	0
78876	2019-01-27T11:00:00	ND	ND	ND	ND	ND	44.1	ND	ND	ND	ND	648.9	0
78877	2019-01-27T12:00:00	ND	ND	ND	ND	ND	62.7	ND	ND	ND	ND	621.9	0
78878	2019-01-27T13:00:00	ND	ND	ND	ND	ND	76.5	ND	ND	ND	ND	644	0
78879	2019-01-27T14:00:00	ND	ND	ND	ND	ND	69.6	ND	ND	ND	ND	638.7	0
78880	2019-01-27T15:00:00	ND	ND	ND	ND	ND	40.8	ND	ND	ND	ND	549.2	0
78881	2019-01-27T16:00:00	ND	ND	ND	ND	ND	20.7	ND	ND	ND	ND	610.3	0
78882	2019-01-27T17:00:00	ND	ND	ND	ND	ND	18	ND	ND	ND	ND	648.9	0
78883	2019-01-27T18:00:00	ND	ND	ND	ND	ND	19.2	ND	ND	ND	ND	494.7	0
78884	2019-01-27T19:00:00	ND	ND	ND	ND	ND	18.2	ND	ND	ND	ND	0	0
78885	2019-01-27T20:00:00	ND	ND	ND	ND	ND	15.8	ND	ND	ND	ND	0	0
78886	2019-01-27T21:00:00	ND	ND	ND	ND	ND	15	ND	ND	ND	ND	0	0
78887	2019-01-27T22:00:00	ND	ND	ND	ND	ND	12.4	ND	ND	ND	ND	0	0
78888	2019-01-27T23:00:00	ND	ND	ND	ND	ND	12.4	ND	ND	ND	ND	0	0
78889	2019-01-28T00:00:00	ND	ND	ND	ND	ND	9.2	ND	ND	ND	ND	0	0
78890	2019-01-28T01:00:00	ND	ND	ND	ND	ND	3.2	ND	ND	ND	ND	0	0
78891	2019-01-28T02:00:00	ND	ND	ND	ND	ND	6.5	ND	ND	ND	ND	0	0
78892	2019-01-28T03:00:00	ND	ND	ND	ND	ND	6.5	ND	ND	ND	ND	0	0.76
78893	2019-01-28T04:00:00	ND	ND	ND	ND	ND	4.3	ND	ND	ND	ND	0	0.51
78894	2019-01-28T05:00:00	ND	ND	ND	ND	ND	2.4	ND	ND	ND	ND	0	0.25
78895	2019-01-28T06:00:00	ND	ND	ND	ND	ND	0.9	ND	ND	ND	ND	0	0
78896	2019-01-28T07:00:00	ND	ND	ND	ND	ND	0.9	ND	ND	ND	ND	0	0
78897	2019-01-28T08:00:00	ND	ND	ND	ND	ND	1.2	ND	ND	ND	ND	30.5	0
78898	2019-01-28T09:00:00	ND	ND	ND	ND	ND	2.1	ND	ND	ND	ND	126.3	0
78899	2019-01-28T10:00:00	ND	ND	ND	ND	ND	8.5	ND	ND	ND	ND	349.7	0
78900	2019-01-28T11:00:00	ND	ND	ND	ND	ND	21.6	ND	ND	ND	ND	646	0
78901	2019-01-28T12:00:00	ND	ND	ND	ND	ND	20.8	ND	ND	ND	ND	605	0
78902	2019-01-28T13:00:00	ND	ND	ND	ND	ND	17.4	ND	ND	ND	ND	446.2	0
78903	2019-01-28T14:00:00	ND	ND	ND	ND	ND	23.9	ND	ND	ND	ND	648.7	0
78904	2019-01-28T15:00:00	ND	ND	ND	ND	ND	19.9	ND	ND	ND	ND	641.4	0
78905	2019-01-28T16:00:00	ND	ND	ND	ND	ND	14.1	ND	ND	ND	ND	375.8	0
78906	2019-01-28T17:00:00	ND	ND	ND	ND	ND	8.3	ND	ND	ND	ND	245.5	0
78907	2019-01-28T18:00:00	ND	ND	ND	ND	ND	7	ND	ND	ND	ND	173.2	0
78908	2019-01-28T19:00:00	ND	ND	ND	ND	ND	6.7	ND	ND	ND	ND	0	0
78909	2019-01-28T20:00:00	ND	ND	ND	ND	ND	7.8	ND	ND	ND	ND	0	0
78910	2019-01-28T21:00:00	ND	ND	ND	ND	ND	8.3	ND	ND	ND	ND	0	0
78911	2019-01-28T22:00:00	ND	ND	ND	ND	ND	9	ND	ND	ND	ND	0	0
78912	2019-01-28T23:00:00	ND	ND	ND	ND	ND	4.3	ND	ND	ND	ND	0	0
78913	2019-01-29T00:00:00	ND	ND	ND	ND	ND	3.6	ND	ND	ND	ND	0	0
78914	2019-01-29T01:00:00	ND	ND	ND	ND	ND	1	ND	ND	ND	ND	0	0
78915	2019-01-29T02:00:00	ND	ND	ND	ND	ND	3	ND	ND	ND	ND	0	0
78916	2019-01-29T03:00:00	ND	ND	ND	ND	ND	2.9	ND	ND	ND	ND	0	0
78917	2019-01-29T04:00:00	ND	ND	ND	ND	ND	2.1	ND	ND	ND	ND	0	0
78918	2019-01-29T05:00:00	ND	ND	ND	ND	ND	1.3	ND	ND	ND	ND	0	0
78919	2019-01-29T06:00:00	ND	ND	ND	ND	ND	1	ND	ND	ND	ND	0	0
78920	2019-01-29T07:00:00	ND	ND	ND	ND	ND	0.9	ND	ND	ND	ND	0	0
78921	2019-01-29T08:00:00	ND	ND	ND	ND	ND	1.5	ND	ND	ND	ND	24.1	0
78922	2019-01-29T09:00:00	ND	ND	ND	ND	ND	4	ND	ND	ND	ND	250.1	0
78923	2019-01-29T10:00:00	ND	ND	ND	ND	ND	15.2	ND	ND	ND	ND	577.6	0
78924	2019-01-29T11:00:00	ND	ND	ND	ND	ND	25.4	ND	ND	ND	ND	637.1	0
78925	2019-01-29T12:00:00	ND	ND	ND	ND	ND	45.2	ND	ND	ND	ND	648.5	0
78926	2019-01-29T13:00:00	ND	ND	ND	ND	ND	50.2	ND	ND	ND	ND	648.8	0
78927	2019-01-29T14:00:00	ND	ND	ND	ND	ND	67	ND	ND	ND	ND	644.7	0
78928	2019-01-29T15:00:00	ND	ND	ND	ND	ND	64.3	ND	ND	ND	ND	649	0
78929	2019-01-29T16:00:00	ND	ND	ND	ND	ND	68	ND	ND	ND	ND	640.8	0
78930	2019-01-29T17:00:00	ND	ND	ND	ND	ND	69.3	ND	ND	ND	ND	576.7	0
78931	2019-01-29T18:00:00	ND	ND	ND	ND	ND	38.6	ND	ND	ND	ND	341.7	0
78932	2019-01-29T19:00:00	ND	ND	ND	ND	ND	16.3	ND	ND	ND	ND	0	0
78933	2019-01-29T20:00:00	ND	ND	ND	ND	ND	16.9	ND	ND	ND	ND	0	0
78934	2019-01-29T21:00:00	ND	ND	ND	ND	ND	19.7	ND	ND	ND	ND	0	0
78935	2019-01-29T22:00:00	ND	ND	ND	ND	ND	21.8	ND	ND	ND	ND	0	0
78936	2019-01-29T23:00:00	ND	ND	ND	ND	ND	28.1	ND	ND	ND	ND	0	0
78937	2019-01-30T00:00:00	ND	ND	ND	ND	ND	22.4	ND	ND	ND	ND	0	0
78938	2019-01-30T01:00:00	ND	ND	ND	ND	ND	13.3	ND	ND	ND	ND	0	0
78939	2019-01-30T02:00:00	ND	ND	ND	ND	ND	2.2	ND	ND	ND	ND	0	0
78940	2019-01-30T03:00:00	ND	ND	ND	ND	ND	4.5	ND	ND	ND	ND	0	0
78941	2019-01-30T04:00:00	ND	ND	ND	ND	ND	7.2	ND	ND	ND	ND	0	0
78942	2019-01-30T05:00:00	ND	ND	ND	ND	ND	3.6	ND	ND	ND	ND	0	0
78943	2019-01-30T06:00:00	ND	ND	ND	ND	ND	1.7	ND	ND	ND	ND	0	0
78944	2019-01-30T07:00:00	ND	ND	ND	ND	ND	1.2	ND	ND	ND	ND	0.1	0
78945	2019-01-30T08:00:00	ND	ND	ND	ND	ND	2.2	ND	ND	ND	ND	22.2	0
78946	2019-01-30T09:00:00	ND	ND	ND	ND	ND	2.6	ND	ND	ND	ND	210	0
78947	2019-01-30T10:00:00	ND	ND	ND	ND	ND	4.4	ND	ND	ND	ND	272.5	0
78948	2019-01-30T11:00:00	ND	ND	ND	ND	ND	14.3	ND	ND	ND	ND	444.6	0
78949	2019-01-30T12:00:00	ND	ND	ND	ND	ND	33.5	ND	ND	ND	ND	603.7	0
78950	2019-01-30T13:00:00	ND	ND	ND	ND	ND	66	ND	ND	ND	ND	648.4	0
78951	2019-01-30T14:00:00	ND	ND	ND	ND	ND	79.1	ND	ND	ND	ND	648.8	0
78952	2019-01-30T15:00:00	ND	ND	ND	ND	ND	53.2	ND	ND	ND	ND	625.5	0
78953	2019-01-30T16:00:00	ND	ND	ND	ND	ND	24.9	ND	ND	ND	ND	592.3	0
78954	2019-01-30T17:00:00	ND	ND	ND	ND	ND	20	ND	ND	ND	ND	640.6	0
78955	2019-01-30T18:00:00	ND	ND	ND	ND	ND	15.5	ND	ND	ND	ND	566.9	0
78956	2019-01-30T19:00:00	ND	ND	ND	ND	ND	12.2	ND	ND	ND	ND	0	0
78957	2019-01-30T20:00:00	ND	ND	ND	ND	ND	14.6	ND	ND	ND	ND	0	0
78958	2019-01-30T21:00:00	ND	ND	ND	ND	ND	12.2	ND	ND	ND	ND	0	0
78959	2019-01-30T22:00:00	ND	ND	ND	ND	ND	13.3	ND	ND	ND	ND	0	0
78960	2019-01-30T23:00:00	ND	ND	ND	ND	ND	13.8	ND	ND	ND	ND	0	0
78961	2019-01-31T00:00:00	ND	ND	ND	ND	ND	6.7	ND	ND	ND	ND	0	0
78962	2019-01-31T01:00:00	ND	ND	ND	ND	ND	5.4	ND	ND	ND	ND	0	0
78963	2019-01-31T02:00:00	ND	ND	ND	ND	ND	2.9	ND	ND	ND	ND	0	0
78964	2019-01-31T03:00:00	ND	ND	ND	ND	ND	2.2	ND	ND	ND	ND	0	0
78965	2019-01-31T04:00:00	ND	ND	ND	ND	ND	3.4	ND	ND	ND	ND	0	0
78966	2019-01-31T05:00:00	ND	ND	ND	ND	ND	3	ND	ND	ND	ND	0	0
78967	2019-01-31T06:00:00	ND	ND	ND	ND	ND	1.4	ND	ND	ND	ND	0	0
78968	2019-01-31T07:00:00	ND	ND	ND	ND	ND	1.1	ND	ND	ND	ND	0	0
78969	2019-01-31T08:00:00	ND	ND	ND	ND	ND	1.7	ND	ND	ND	ND	15.8	0
78970	2019-01-31T09:00:00	ND	ND	ND	ND	ND	ND	ND	ND	ND	ND	317.7	0
78971	2019-01-31T10:00:00	ND	ND	ND	ND	ND	14.4	ND	ND	ND	ND	307.9	0
78972	2019-01-31T11:00:00	ND	ND	ND	ND	ND	18.9	ND	ND	ND	ND	502	0
78973	2019-01-31T12:00:00	ND	ND	ND	ND	ND	39	ND	ND	ND	ND	649.5	0
78974	2019-01-31T13:00:00	ND	ND	ND	ND	ND	66.7	ND	ND	ND	ND	650.4	0
78975	2019-01-31T14:00:00	ND	ND	ND	ND	ND	57.8	ND	ND	ND	ND	618	0
78976	2019-01-31T15:00:00	ND	ND	ND	ND	ND	34.2	ND	ND	ND	ND	525.3	0
78977	2019-01-31T16:00:00	ND	ND	ND	ND	ND	26.3	ND	ND	ND	ND	643.2	0
78978	2019-01-31T17:00:00	ND	ND	ND	ND	ND	18.2	ND	ND	ND	ND	533.7	0
78979	2019-01-31T18:00:00	ND	ND	ND	ND	ND	12.1	ND	ND	ND	ND	185.8	0
78980	2019-01-31T19:00:00	ND	ND	ND	ND	ND	11.2	ND	ND	ND	ND	0	0
78981	2019-01-31T20:00:00	ND	ND	ND	ND	ND	12.2	ND	ND	ND	ND	0	0
78982	2019-01-31T21:00:00	ND	ND	ND	ND	ND	6.3	ND	ND	ND	ND	0	0.25
78983	2019-01-31T22:00:00	ND	ND	ND	ND	ND	2.6	ND	ND	ND	ND	0	0
78984	2019-01-31T23:00:00	ND	ND	ND	ND	ND	7.3	ND	ND	ND	ND	0	0
78985	2019-02-01T00:00:00	ND	ND	ND	ND	ND	3.8	ND	ND	ND	ND	0	0
78986	2019-02-01T01:00:00	ND	ND	ND	ND	ND	7.1	ND	ND	ND	ND	0	0
78987	2019-02-01T02:00:00	ND	ND	ND	ND	ND	8.7	ND	ND	ND	ND	0	0
78988	2019-02-01T03:00:00	ND	ND	ND	ND	ND	3	ND	ND	ND	ND	0	0
78989	2019-02-01T04:00:00	ND	ND	ND	ND	ND	1.5	ND	ND	ND	ND	0	0
78990	2019-02-01T05:00:00	ND	ND	ND	ND	ND	2.9	ND	ND	ND	ND	0	0
78991	2019-02-01T06:00:00	ND	ND	ND	ND	ND	2.8	ND	ND	ND	ND	0	0
78992	2019-02-01T07:00:00	ND	ND	ND	ND	ND	3	ND	ND	ND	ND	0	0
78993	2019-02-01T08:00:00	ND	ND	ND	ND	ND	1.6	ND	ND	ND	ND	10	0.25
78994	2019-02-01T09:00:00	ND	ND	ND	ND	ND	3	ND	ND	ND	ND	99.7	0
78995	2019-02-01T10:00:00	ND	ND	ND	ND	ND	2.7	ND	ND	ND	ND	194.4	0.25
78996	2019-02-01T11:00:00	ND	ND	ND	ND	ND	7.9	ND	ND	ND	ND	225.2	0
78997	2019-02-01T12:00:00	ND	ND	ND	ND	ND	14	ND	ND	ND	ND	529.8	0
78998	2019-02-01T13:00:00	ND	ND	ND	ND	ND	20.1	ND	ND	ND	ND	649.3	0
78999	2019-02-01T14:00:00	ND	ND	ND	ND	ND	21.6	ND	ND	ND	ND	560.8	0
79000	2019-02-01T15:00:00	ND	ND	ND	ND	ND	40.8	ND	ND	ND	ND	501.6	0
79001	2019-02-01T16:00:00	ND	ND	ND	ND	ND	48.6	ND	ND	ND	ND	649.7	0
79002	2019-02-01T17:00:00	ND	ND	ND	ND	ND	45.1	ND	ND	ND	ND	526.7	0
79003	2019-02-01T18:00:00	ND	ND	ND	ND	ND	15.4	ND	ND	ND	ND	325	0
79004	2019-02-01T19:00:00	ND	ND	ND	ND	ND	4.5	ND	ND	ND	ND	0	0
79005	2019-02-01T20:00:00	ND	ND	ND	ND	ND	3.9	ND	ND	ND	ND	0	0
79006	2019-02-01T21:00:00	ND	ND	ND	ND	ND	2.2	ND	ND	ND	ND	0	0
79007	2019-02-01T22:00:00	ND	ND	ND	ND	ND	1.6	ND	ND	ND	ND	0	0
79008	2019-02-01T23:00:00	ND	ND	ND	ND	ND	1	ND	ND	ND	ND	0	0
79009	2019-02-02T00:00:00	ND	ND	ND	ND	ND	1	ND	ND	ND	ND	0	0
79010	2019-02-02T01:00:00	ND	ND	ND	ND	ND	1.3	ND	ND	ND	ND	0	0
79011	2019-02-02T02:00:00	ND	ND	ND	ND	ND	1.6	ND	ND	ND	ND	0	0
79012	2019-02-02T03:00:00	ND	ND	ND	ND	ND	2.1	ND	ND	ND	ND	0	0
79013	2019-02-02T04:00:00	ND	ND	ND	ND	ND	3.3	ND	ND	ND	ND	0	0
79014	2019-02-02T05:00:00	ND	ND	ND	ND	ND	1.3	ND	ND	ND	ND	0	0
79015	2019-02-02T06:00:00	ND	ND	ND	ND	ND	1	ND	ND	ND	ND	0	0
79016	2019-02-02T07:00:00	ND	ND	ND	ND	ND	0.9	ND	ND	ND	ND	0	0
79017	2019-02-02T08:00:00	ND	ND	ND	ND	ND	2	ND	ND	ND	ND	58.1	0
79018	2019-02-02T09:00:00	ND	ND	ND	ND	ND	3.8	ND	ND	ND	ND	242.4	0
79019	2019-02-02T10:00:00	ND	ND	ND	ND	ND	14.9	ND	ND	ND	ND	468.9	0
79020	2019-02-02T11:00:00	ND	ND	ND	ND	ND	33.1	ND	ND	ND	ND	649.9	0
79021	2019-02-02T12:00:00	ND	ND	ND	ND	ND	54.6	ND	ND	ND	ND	649.8	0
79022	2019-02-02T13:00:00	ND	ND	ND	ND	ND	61.2	ND	ND	ND	ND	638	0
79023	2019-02-02T14:00:00	ND	ND	ND	ND	ND	73.3	ND	ND	ND	ND	625.3	0
79024	2019-02-02T15:00:00	ND	ND	ND	ND	ND	87.6	ND	ND	ND	ND	650.2	0
79025	2019-02-02T16:00:00	ND	ND	ND	ND	ND	37.7	ND	ND	ND	ND	559.3	0
79026	2019-02-02T17:00:00	ND	ND	ND	ND	ND	23.2	ND	ND	ND	ND	420.8	0
79027	2019-02-02T18:00:00	ND	ND	ND	ND	ND	19.4	ND	ND	ND	ND	560.1	0
79028	2019-02-02T19:00:00	ND	ND	ND	ND	ND	15.9	ND	ND	ND	ND	0	0
79029	2019-02-02T20:00:00	ND	ND	ND	ND	ND	19.1	ND	ND	ND	ND	0	0
79030	2019-02-02T21:00:00	ND	ND	ND	ND	ND	13.3	ND	ND	ND	ND	0	0
79031	2019-02-02T22:00:00	ND	ND	ND	ND	ND	10.4	ND	ND	ND	ND	0	0
79032	2019-02-02T23:00:00	ND	ND	ND	ND	ND	3.4	ND	ND	ND	ND	0	0
79033	2019-02-03T00:00:00	ND	ND	ND	ND	ND	2.8	ND	ND	ND	ND	0	0
79034	2019-02-03T01:00:00	ND	ND	ND	ND	ND	1.1	ND	ND	ND	ND	0	0
79035	2019-02-03T02:00:00	ND	ND	ND	ND	ND	1.8	ND	ND	ND	ND	0	0
79036	2019-02-03T03:00:00	ND	ND	ND	ND	ND	3.6	ND	ND	ND	ND	0	0
79037	2019-02-03T04:00:00	ND	ND	ND	ND	ND	1.5	ND	ND	ND	ND	0	0
79038	2019-02-03T05:00:00	ND	ND	ND	ND	ND	4.2	ND	ND	ND	ND	0	0
79039	2019-02-03T06:00:00	ND	ND	ND	ND	ND	2.6	ND	ND	ND	ND	0	0
79040	2019-02-03T07:00:00	ND	ND	ND	ND	ND	1.1	ND	ND	ND	ND	0	0
79041	2019-02-03T08:00:00	ND	ND	ND	ND	ND	2.2	ND	ND	ND	ND	35.7	0
79042	2019-02-03T09:00:00	ND	ND	ND	ND	ND	4.8	ND	ND	ND	ND	330.5	0
79043	2019-02-03T10:00:00	ND	ND	ND	ND	ND	15.1	ND	ND	ND	ND	406.3	0
79044	2019-02-03T11:00:00	ND	ND	ND	ND	ND	32.2	ND	ND	ND	ND	649	0
79045	2019-02-03T12:00:00	ND	ND	ND	ND	ND	51	ND	ND	ND	ND	649.5	0
79046	2019-02-03T13:00:00	ND	ND	ND	ND	ND	56.6	ND	ND	ND	ND	631.2	0
79047	2019-02-03T14:00:00	ND	ND	ND	ND	ND	60.4	ND	ND	ND	ND	649.8	0
79048	2019-02-03T15:00:00	ND	ND	ND	ND	ND	68.4	ND	ND	ND	ND	647.6	0
79049	2019-02-03T16:00:00	ND	ND	ND	ND	ND	53.1	ND	ND	ND	ND	596.6	0
79050	2019-02-03T17:00:00	ND	ND	ND	ND	ND	35.9	ND	ND	ND	ND	612.3	0
79051	2019-02-03T18:00:00	ND	ND	ND	ND	ND	26.1	ND	ND	ND	ND	486.9	0
79052	2019-02-03T19:00:00	ND	ND	ND	ND	ND	19.8	ND	ND	ND	ND	0	0
79053	2019-02-03T20:00:00	ND	ND	ND	ND	ND	18.6	ND	ND	ND	ND	0	0
79054	2019-02-03T21:00:00	ND	ND	ND	ND	ND	18.9	ND	ND	ND	ND	0	0
79055	2019-02-03T22:00:00	ND	ND	ND	ND	ND	13	ND	ND	ND	ND	0	0
79056	2019-02-03T23:00:00	ND	ND	ND	ND	ND	8.1	ND	ND	ND	ND	0	0
79057	2019-02-04T00:00:00	ND	ND	ND	ND	ND	1.2	ND	ND	ND	ND	0	0
79058	2019-02-04T01:00:00	ND	ND	ND	ND	ND	1.8	ND	ND	ND	ND	0	0
79059	2019-02-04T02:00:00	ND	ND	ND	ND	ND	2.8	ND	ND	ND	ND	0	0
79060	2019-02-04T03:00:00	ND	ND	ND	ND	ND	3.9	ND	ND	ND	ND	0	0
79061	2019-02-04T04:00:00	ND	ND	ND	ND	ND	3.6	ND	ND	ND	ND	0	0
79062	2019-02-04T05:00:00	ND	ND	ND	ND	ND	2.1	ND	ND	ND	ND	0	0
79063	2019-02-04T06:00:00	ND	ND	ND	ND	ND	1.1	ND	ND	ND	ND	0	0
79064	2019-02-04T07:00:00	ND	ND	ND	ND	ND	1	ND	ND	ND	ND	0	0
79065	2019-02-04T08:00:00	ND	ND	ND	ND	ND	1.1	ND	ND	ND	ND	32.5	0
79066	2019-02-04T09:00:00	ND	ND	ND	ND	ND	2.2	ND	ND	ND	ND	163.2	0
79067	2019-02-04T10:00:00	ND	ND	ND	ND	ND	9.2	ND	ND	ND	ND	318.1	0
79068	2019-02-04T11:00:00	ND	ND	ND	ND	ND	23.9	ND	ND	ND	ND	637.1	0
79069	2019-02-04T12:00:00	ND	ND	ND	ND	ND	26.2	ND	ND	ND	ND	649.5	0
79070	2019-02-04T13:00:00	ND	ND	ND	ND	ND	46.5	ND	ND	ND	ND	649.5	0
79071	2019-02-04T14:00:00	ND	ND	ND	ND	ND	49.7	ND	ND	ND	ND	650.1	0
79072	2019-02-04T15:00:00	ND	ND	ND	ND	ND	48.7	ND	ND	ND	ND	602.6	0
79073	2019-02-04T16:00:00	ND	ND	ND	ND	ND	42.5	ND	ND	ND	ND	410.8	0
79074	2019-02-04T17:00:00	ND	ND	ND	ND	ND	24.1	ND	ND	ND	ND	248.2	0
79075	2019-02-04T18:00:00	ND	ND	ND	ND	ND	14.7	ND	ND	ND	ND	264.7	0
79076	2019-02-04T19:00:00	ND	ND	ND	ND	ND	8.8	ND	ND	ND	ND	0	0
79077	2019-02-04T20:00:00	ND	ND	ND	ND	ND	7.2	ND	ND	ND	ND	0	0
79078	2019-02-04T21:00:00	ND	ND	ND	ND	ND	6.2	ND	ND	ND	ND	0	0
79079	2019-02-04T22:00:00	ND	ND	ND	ND	ND	2.7	ND	ND	ND	ND	0	0
79080	2019-02-04T23:00:00	ND	ND	ND	ND	ND	10.2	ND	ND	ND	ND	0	0
79081	2019-02-05T00:00:00	ND	ND	ND	ND	ND	11.9	ND	ND	ND	ND	0	0
79082	2019-02-05T01:00:00	ND	ND	ND	ND	ND	18.5	ND	ND	ND	ND	0	0
79083	2019-02-05T02:00:00	ND	ND	ND	ND	ND	9.9	ND	ND	ND	ND	0	0
79084	2019-02-05T03:00:00	ND	ND	ND	ND	ND	2.1	ND	ND	ND	ND	0	0
79085	2019-02-05T04:00:00	ND	ND	ND	ND	ND	1.6	ND	ND	ND	ND	0	0
79086	2019-02-05T05:00:00	ND	ND	ND	ND	ND	1.3	ND	ND	ND	ND	0	0
79087	2019-02-05T06:00:00	ND	ND	ND	ND	ND	1.2	ND	ND	ND	ND	0	0
79088	2019-02-05T07:00:00	ND	ND	ND	ND	ND	1.1	ND	ND	ND	ND	0	0
79089	2019-02-05T08:00:00	ND	ND	ND	ND	ND	1.3	ND	ND	ND	ND	23.6	0
79090	2019-02-05T09:00:00	ND	ND	ND	ND	ND	2.7	ND	ND	ND	ND	162.3	0
79091	2019-02-05T10:00:00	ND	ND	ND	ND	ND	12.5	ND	ND	ND	ND	504.9	0
79092	2019-02-05T11:00:00	ND	ND	ND	ND	ND	34.1	ND	ND	ND	ND	637.8	0
79093	2019-02-05T12:00:00	ND	ND	ND	ND	ND	63.1	ND	ND	ND	ND	649.6	0
79094	2019-02-05T13:00:00	ND	ND	ND	ND	ND	59.9	ND	ND	ND	ND	649.7	0
79095	2019-02-05T14:00:00	ND	ND	ND	ND	ND	54.9	ND	ND	ND	ND	650.2	0
79096	2019-02-05T15:00:00	ND	ND	ND	ND	ND	59.6	ND	ND	ND	ND	617.4	0
79097	2019-02-05T16:00:00	ND	ND	ND	ND	ND	65.4	ND	ND	ND	ND	643.3	0
79098	2019-02-05T17:00:00	ND	ND	ND	ND	ND	51.6	ND	ND	ND	ND	559.3	0
79099	2019-02-05T18:00:00	ND	ND	ND	ND	ND	23.6	ND	ND	ND	ND	333.8	0
79100	2019-02-05T19:00:00	ND	ND	ND	ND	ND	13.1	ND	ND	ND	ND	0	0
79101	2019-02-05T20:00:00	ND	ND	ND	ND	ND	13.3	ND	ND	ND	ND	0	0
79102	2019-02-05T21:00:00	ND	ND	ND	ND	ND	9.7	ND	ND	ND	ND	0	0
79103	2019-02-05T22:00:00	ND	ND	ND	ND	ND	8.6	ND	ND	ND	ND	0	0
79104	2019-02-05T23:00:00	ND	ND	ND	ND	ND	4.2	ND	ND	ND	ND	0	0
79105	2019-02-06T00:00:00	ND	ND	ND	ND	ND	5.3	ND	ND	ND	ND	0	0
79106	2019-02-06T01:00:00	ND	ND	ND	ND	ND	1.5	ND	ND	ND	ND	0	0
79107	2019-02-06T02:00:00	ND	ND	ND	ND	ND	1.9	ND	ND	ND	ND	0	0
79108	2019-02-06T03:00:00	ND	ND	ND	ND	ND	1.5	ND	ND	ND	ND	0	0
79109	2019-02-06T04:00:00	ND	ND	ND	ND	ND	1.7	ND	ND	ND	ND	0	0
79110	2019-02-06T05:00:00	ND	ND	ND	ND	ND	1.6	ND	ND	ND	ND	0	0
79111	2019-02-06T06:00:00	ND	ND	ND	ND	ND	1.5	ND	ND	ND	ND	0	0
79112	2019-02-06T07:00:00	ND	ND	ND	ND	ND	1.1	ND	ND	ND	ND	0	0
79113	2019-02-06T08:00:00	ND	ND	ND	ND	ND	1.1	ND	ND	ND	ND	14.1	0
79114	2019-02-06T09:00:00	ND	ND	ND	ND	ND	1.4	ND	ND	ND	ND	46	29.21
79115	2019-02-06T10:00:00	ND	ND	ND	ND	ND	7.4	ND	ND	ND	ND	231.5	0
79116	2019-02-06T11:00:00	ND	ND	ND	ND	ND	28.2	ND	ND	ND	ND	613.2	0
79117	2019-02-06T12:00:00	ND	ND	ND	ND	ND	62.7	ND	ND	ND	ND	650	0
79118	2019-02-06T13:00:00	ND	ND	ND	ND	ND	73.1	ND	ND	ND	ND	649.8	0
79119	2019-02-06T14:00:00	ND	ND	ND	ND	ND	71.8	ND	ND	ND	ND	650.4	0
79120	2019-02-06T15:00:00	ND	ND	ND	ND	ND	70.9	ND	ND	ND	ND	640.8	0
79121	2019-02-06T16:00:00	ND	ND	ND	ND	ND	62.4	ND	ND	ND	ND	628.8	0
79122	2019-02-06T17:00:00	ND	ND	ND	ND	ND	24.3	ND	ND	ND	ND	518.1	0
79123	2019-02-06T18:00:00	ND	ND	ND	ND	ND	19.5	ND	ND	ND	ND	480.9	0
79124	2019-02-06T19:00:00	ND	ND	ND	ND	ND	14.5	ND	ND	ND	ND	0	0
79125	2019-02-06T20:00:00	ND	ND	ND	ND	ND	13.8	ND	ND	ND	ND	0	0.25
79126	2019-02-06T21:00:00	ND	ND	ND	ND	ND	11.6	ND	ND	ND	ND	0	0
79127	2019-02-06T22:00:00	ND	ND	ND	ND	ND	18	ND	ND	ND	ND	0	0
79128	2019-02-06T23:00:00	ND	ND	ND	ND	ND	4.9	ND	ND	ND	ND	0	0
79129	2019-02-07T00:00:00	ND	ND	ND	ND	ND	1	ND	ND	ND	ND	0	0
79130	2019-02-07T01:00:00	ND	ND	ND	ND	ND	3.3	ND	ND	ND	ND	0	0
79131	2019-02-07T02:00:00	ND	ND	ND	ND	ND	4.8	ND	ND	ND	ND	0	0
79132	2019-02-07T03:00:00	ND	ND	ND	ND	ND	4.2	ND	ND	ND	ND	0	0
79133	2019-02-07T04:00:00	ND	ND	ND	ND	ND	2.2	ND	ND	ND	ND	0	0
79134	2019-02-07T05:00:00	ND	ND	ND	ND	ND	1.4	ND	ND	ND	ND	0	0
79135	2019-02-07T06:00:00	ND	ND	ND	ND	ND	0.9	ND	ND	ND	ND	0	0
79136	2019-02-07T07:00:00	ND	ND	ND	ND	ND	1.2	ND	ND	ND	ND	0	0
79137	2019-02-07T08:00:00	ND	ND	ND	ND	ND	1.3	ND	ND	ND	ND	32.2	0
79138	2019-02-07T09:00:00	ND	ND	ND	ND	ND	2.5	ND	ND	ND	ND	206.6	0.25
79139	2019-02-07T10:00:00	ND	ND	ND	ND	ND	5.3	ND	ND	ND	ND	605	53.59
79140	2019-02-07T11:00:00	23.7	ND	ND	ND	ND	5.5	ND	ND	ND	ND	292.3	1.27
79141	2019-02-07T12:00:00	55.4	ND	ND	ND	ND	22	ND	ND	ND	ND	523.9	0
79142	2019-02-07T13:00:00	79.3	ND	ND	ND	ND	48.2	ND	ND	ND	ND	649.4	0
79143	2019-02-07T14:00:00	78.8	ND	ND	ND	ND	70.6	ND	ND	ND	ND	649.6	0
79144	2019-02-07T15:00:00	41.5	ND	ND	ND	ND	41.7	ND	ND	ND	ND	626.5	0
79145	2019-02-07T16:00:00	48.8	ND	ND	ND	ND	18.8	ND	ND	ND	ND	648.1	0
79146	2019-02-07T17:00:00	48.9	ND	ND	ND	ND	15.2	ND	ND	ND	ND	612.7	0
79147	2019-02-07T18:00:00	45.9	ND	ND	ND	ND	15.4	ND	ND	ND	ND	367.1	0
79148	2019-02-07T19:00:00	38.3	ND	ND	ND	ND	13.3	ND	ND	ND	ND	0	4.32
79149	2019-02-07T20:00:00	41.9	ND	ND	ND	ND	10.3	ND	ND	ND	ND	0	2.29
79150	2019-02-07T21:00:00	26.5	ND	ND	ND	ND	4.6	ND	ND	ND	ND	0	13.72
79151	2019-02-07T22:00:00	22.8	ND	ND	ND	ND	3.7	ND	ND	ND	ND	0	3.05
79152	2019-02-07T23:00:00	31	ND	ND	ND	ND	1.5	ND	ND	ND	ND	0	3.56
79153	2019-02-08T00:00:00	33.1	ND	ND	ND	ND	3	ND	ND	ND	ND	0	6.1
79154	2019-02-08T01:00:00	17.5	ND	ND	ND	ND	1.6	ND	ND	ND	ND	0	2.54
79155	2019-02-08T02:00:00	12.2	ND	ND	ND	ND	4.8	ND	ND	ND	ND	0	3.05
79156	2019-02-08T03:00:00	12.7	ND	ND	ND	ND	7	ND	ND	ND	ND	0	9.65
79157	2019-02-08T04:00:00	3.7	ND	ND	ND	ND	10.7	ND	ND	ND	ND	0	2.03
79158	2019-02-08T05:00:00	15.9	ND	ND	ND	ND	12.2	ND	ND	ND	ND	0	0.25
79159	2019-02-08T06:00:00	16.9	ND	ND	ND	ND	5.8	ND	ND	ND	ND	0	0
79160	2019-02-08T07:00:00	26.2	ND	ND	ND	ND	1.4	ND	ND	ND	ND	0	0
79161	2019-02-08T08:00:00	38.6	ND	ND	ND	ND	2.8	ND	ND	ND	ND	39.4	0
79162	2019-02-08T09:00:00	60.2	ND	ND	ND	ND	5.8	ND	ND	ND	ND	276.5	0
79163	2019-02-08T10:00:00	64.1	ND	ND	ND	ND	19.6	ND	ND	ND	ND	524.7	0
79164	2019-02-08T11:00:00	60.6	ND	ND	ND	ND	18.5	ND	ND	ND	ND	630.8	0
79165	2019-02-08T12:00:00	57.2	ND	ND	ND	ND	25.1	ND	ND	ND	ND	633	0
79166	2019-02-08T13:00:00	56.3	ND	ND	ND	ND	39.9	ND	ND	ND	ND	648.7	0
79167	2019-02-08T14:00:00	61	ND	ND	ND	ND	72.9	ND	ND	ND	ND	649.1	0
79168	2019-02-08T15:00:00	66.8	ND	ND	ND	ND	87.9	ND	ND	ND	ND	649.7	0
79169	2019-02-08T16:00:00	67.5	ND	ND	ND	ND	81.4	ND	ND	ND	ND	647.8	0
79170	2019-02-08T17:00:00	88.5	ND	ND	ND	ND	56.8	ND	ND	ND	ND	425.9	0
79171	2019-02-08T18:00:00	63.2	ND	ND	ND	ND	13	ND	ND	ND	ND	111	18.54
79172	2019-02-08T19:00:00	34.5	ND	ND	ND	ND	3	ND	ND	ND	ND	0	2.29
79173	2019-02-08T20:00:00	29.9	ND	ND	ND	ND	1.6	ND	ND	ND	ND	0	0
79174	2019-02-08T21:00:00	60	ND	ND	ND	ND	1.2	ND	ND	ND	ND	0	0
79175	2019-02-08T22:00:00	56.5	ND	ND	ND	ND	1.1	ND	ND	ND	ND	0	0
79176	2019-02-08T23:00:00	53	ND	ND	ND	ND	1.3	ND	ND	ND	ND	0	0
79177	2019-02-09T00:00:00	36.9	ND	ND	ND	ND	1.2	ND	ND	ND	ND	0	0
79178	2019-02-09T01:00:00	51.8	ND	ND	ND	ND	1.4	ND	ND	ND	ND	0	0
79179	2019-02-09T02:00:00	49.9	ND	ND	ND	ND	1.2	ND	ND	ND	ND	0	0
79180	2019-02-09T03:00:00	75.7	ND	ND	ND	ND	1.1	ND	ND	ND	ND	0	0
79181	2019-02-09T04:00:00	76.1	ND	ND	ND	ND	1.2	ND	ND	ND	ND	0	0
79182	2019-02-09T05:00:00	55.1	ND	ND	ND	ND	1.2	ND	ND	ND	ND	0	0
79183	2019-02-09T06:00:00	66	ND	ND	ND	ND	1.3	ND	ND	ND	ND	0	0
79184	2019-02-09T07:00:00	75.5	ND	ND	ND	ND	1.3	ND	ND	ND	ND	0	0
79185	2019-02-09T08:00:00	73.2	ND	ND	ND	ND	1.7	ND	ND	ND	ND	38.1	0
79186	2019-02-09T09:00:00	88.8	ND	ND	ND	ND	5.4	ND	ND	ND	ND	246.8	0
79187	2019-02-09T10:00:00	118.7	ND	ND	ND	ND	6	ND	ND	ND	ND	503.7	0
79188	2019-02-09T11:00:00	92.3	ND	ND	ND	ND	16.5	ND	ND	ND	ND	509.9	0
79189	2019-02-09T12:00:00	81.7	ND	ND	ND	ND	19.2	ND	ND	ND	ND	583	0.76
79190	2019-02-09T13:00:00	62.2	ND	ND	ND	ND	35.4	ND	ND	ND	ND	449.6	0
79191	2019-02-09T14:00:00	56	ND	ND	ND	ND	52.9	ND	ND	ND	ND	649.1	0
79192	2019-02-09T15:00:00	52.3	ND	ND	ND	ND	67.8	ND	ND	ND	ND	649.9	0
79193	2019-02-09T16:00:00	43.1	ND	ND	ND	ND	49.7	ND	ND	ND	ND	636.2	0
79194	2019-02-09T17:00:00	31.7	ND	ND	ND	ND	27.2	ND	ND	ND	ND	533.9	0
79195	2019-02-09T18:00:00	11.5	ND	ND	ND	ND	20.3	ND	ND	ND	ND	533.6	0
79196	2019-02-09T19:00:00	6.7	ND	ND	ND	ND	18.5	ND	ND	ND	ND	0	0
79197	2019-02-09T20:00:00	21.2	ND	ND	ND	ND	16.1	ND	ND	ND	ND	0	0
79198	2019-02-09T21:00:00	27	ND	ND	ND	ND	8.6	ND	ND	ND	ND	0	0
79199	2019-02-09T22:00:00	38	ND	ND	ND	ND	3.9	ND	ND	ND	ND	0	0
79200	2019-02-09T23:00:00	36.9	ND	ND	ND	ND	7.2	ND	ND	ND	ND	0	0
79201	2019-02-10T00:00:00	23.5	ND	ND	ND	ND	3.6	ND	ND	ND	ND	0	0
79202	2019-02-10T01:00:00	33.5	ND	ND	ND	ND	13.8	ND	ND	ND	ND	0	0
79203	2019-02-10T02:00:00	11.6	ND	ND	ND	ND	11	ND	ND	ND	ND	0	0
79204	2019-02-10T03:00:00	12.2	ND	ND	ND	ND	4.1	ND	ND	ND	ND	0	0
79205	2019-02-10T04:00:00	37.7	ND	ND	ND	ND	3.5	ND	ND	ND	ND	0	1.02
79206	2019-02-10T05:00:00	27.1	ND	ND	ND	ND	3.3	ND	ND	ND	ND	0	0.25
79207	2019-02-10T06:00:00	11.1	ND	ND	ND	ND	3.2	ND	ND	ND	ND	0	0.25
79208	2019-02-10T07:00:00	16.8	ND	ND	ND	ND	2	ND	ND	ND	ND	0	0
79209	2019-02-10T08:00:00	44	ND	ND	ND	ND	2.5	ND	ND	ND	ND	53.7	0
79210	2019-02-10T09:00:00	82.5	ND	ND	ND	ND	12	ND	ND	ND	ND	449.6	0
79211	2019-02-10T10:00:00	69.4	ND	ND	ND	ND	29.2	ND	ND	ND	ND	623.4	0
79212	2019-02-10T11:00:00	63.5	ND	ND	ND	ND	42.2	ND	ND	ND	ND	649.1	0
79213	2019-02-10T12:00:00	42.5	ND	ND	ND	ND	60.5	ND	ND	ND	ND	614.5	0
79214	2019-02-10T13:00:00	39	ND	ND	ND	ND	63.7	ND	ND	ND	ND	647.6	0
79215	2019-02-10T14:00:00	43	ND	ND	ND	ND	73.8	ND	ND	ND	ND	649.6	0
79216	2019-02-10T15:00:00	42.3	ND	ND	ND	ND	48.9	ND	ND	ND	ND	643	0
79217	2019-02-10T16:00:00	16.9	ND	ND	ND	ND	21.4	ND	ND	ND	ND	578	0
79218	2019-02-10T17:00:00	4	ND	ND	ND	ND	20.1	ND	ND	ND	ND	512.2	0
79219	2019-02-10T18:00:00	12	ND	ND	ND	ND	17.9	ND	ND	ND	ND	482.3	0
79220	2019-02-10T19:00:00	5	ND	ND	ND	ND	15.4	ND	ND	ND	ND	0	0
79221	2019-02-10T20:00:00	17.8	ND	ND	ND	ND	14.1	ND	ND	ND	ND	0	0
79222	2019-02-10T21:00:00	9	ND	ND	ND	ND	11.3	ND	ND	ND	ND	0	0
79223	2019-02-10T22:00:00	19.6	ND	ND	ND	ND	5.4	ND	ND	ND	ND	0	0
79224	2019-02-10T23:00:00	37.7	ND	ND	ND	ND	5.6	ND	ND	ND	ND	0	0
79225	2019-02-11T00:00:00	27.7	ND	ND	ND	ND	3.6	ND	ND	ND	ND	0	0
79226	2019-02-11T01:00:00	29.8	ND	ND	ND	ND	6.6	ND	ND	ND	ND	0	0
79227	2019-02-11T02:00:00	35.2	ND	ND	ND	ND	3.4	ND	ND	ND	ND	0	0
79228	2019-02-11T03:00:00	38.7	ND	ND	ND	ND	2.2	ND	ND	ND	ND	0	0
79229	2019-02-11T04:00:00	35.7	ND	ND	ND	ND	2.6	ND	ND	ND	ND	0	0
79230	2019-02-11T05:00:00	39.9	ND	ND	ND	ND	2.9	ND	ND	ND	ND	0	0
79231	2019-02-11T06:00:00	58.1	ND	ND	ND	ND	1.2	ND	ND	ND	ND	0	0
79232	2019-02-11T07:00:00	74	ND	ND	ND	ND	1.1	ND	ND	ND	ND	0	0
79233	2019-02-11T08:00:00	85.4	ND	ND	ND	ND	1.5	ND	ND	ND	ND	21.4	0
79234	2019-02-11T09:00:00	118	ND	ND	ND	ND	3.3	ND	ND	ND	ND	236.8	0
79235	2019-02-11T10:00:00	106.1	ND	ND	ND	ND	10.9	ND	ND	ND	ND	548.3	0
79236	2019-02-11T11:00:00	78.3	ND	ND	ND	ND	25.1	ND	ND	ND	ND	590.7	0
79237	2019-02-11T12:00:00	55.4	ND	ND	ND	ND	42	ND	ND	ND	ND	649.5	0
79238	2019-02-11T13:00:00	64.2	ND	ND	ND	ND	49.1	ND	ND	ND	ND	643.9	0
79239	2019-02-11T14:00:00	59.5	ND	ND	ND	ND	68.7	ND	ND	ND	ND	605	0
79240	2019-02-11T15:00:00	58	ND	ND	ND	ND	55	ND	ND	ND	ND	562.4	0
79241	2019-02-11T16:00:00	39.2	ND	ND	ND	ND	28.1	ND	ND	ND	ND	590.9	0
79242	2019-02-11T17:00:00	37.8	ND	ND	ND	ND	20.3	ND	ND	ND	ND	650.3	0
79243	2019-02-11T18:00:00	22	ND	ND	ND	ND	15.7	ND	ND	ND	ND	568.7	0
79244	2019-02-11T19:00:00	10.8	ND	ND	ND	ND	12.5	ND	ND	ND	ND	0	0
79245	2019-02-11T20:00:00	9.7	ND	ND	ND	ND	10.3	ND	ND	ND	ND	0	0
79246	2019-02-11T21:00:00	34.8	ND	ND	ND	ND	12.7	ND	ND	ND	ND	0	0
79247	2019-02-11T22:00:00	36.9	ND	ND	ND	ND	8.5	ND	ND	ND	ND	0	0
79248	2019-02-11T23:00:00	24	ND	ND	ND	ND	11.4	ND	ND	ND	ND	0	0
79249	2019-02-12T00:00:00	11.8	ND	ND	ND	ND	12.3	ND	ND	ND	ND	0	0
79250	2019-02-12T01:00:00	7.1	ND	ND	ND	ND	7.5	ND	ND	ND	ND	0	0
79251	2019-02-12T02:00:00	31.7	ND	ND	ND	ND	1.5	ND	ND	ND	ND	0	0
79252	2019-02-12T03:00:00	47.8	ND	ND	ND	ND	4.8	ND	ND	ND	ND	0	0
79253	2019-02-12T04:00:00	24.6	ND	ND	ND	ND	10	ND	ND	ND	ND	0	0
79254	2019-02-12T05:00:00	21	ND	ND	ND	ND	4.1	ND	ND	ND	ND	0	5.84
79255	2019-02-12T06:00:00	38.5	ND	ND	ND	ND	2	ND	ND	ND	ND	0	0.25
79256	2019-02-12T07:00:00	39.8	ND	ND	ND	ND	1.3	ND	ND	ND	ND	0	0
79257	2019-02-12T08:00:00	74.7	ND	ND	ND	ND	1.3	ND	ND	ND	ND	13.7	0
79258	2019-02-12T09:00:00	95.4	ND	ND	ND	ND	1.6	ND	ND	ND	ND	137.3	0.25
79259	2019-02-12T10:00:00	109.1	ND	ND	ND	ND	3.5	ND	ND	ND	ND	287.1	0
79260	2019-02-12T11:00:00	106.7	ND	ND	ND	ND	8.7	ND	ND	ND	ND	549.6	0
79261	2019-02-12T12:00:00	87.1	ND	ND	ND	ND	15.6	ND	ND	ND	ND	649.4	0
79262	2019-02-12T13:00:00	72.3	ND	ND	ND	ND	25.7	ND	ND	ND	ND	649.4	0
79263	2019-02-12T14:00:00	62.9	ND	ND	ND	ND	43.3	ND	ND	ND	ND	649.5	0
79264	2019-02-12T15:00:00	67.3	ND	ND	ND	ND	62.6	ND	ND	ND	ND	648.1	0
79265	2019-02-12T16:00:00	73.1	ND	ND	ND	ND	74.4	ND	ND	ND	ND	589.8	0
79266	2019-02-12T17:00:00	75.9	ND	ND	ND	ND	29.4	ND	ND	ND	ND	524	0
79267	2019-02-12T18:00:00	41.6	ND	ND	ND	ND	8.3	ND	ND	ND	ND	143.9	0
79268	2019-02-12T19:00:00	18.7	ND	ND	ND	ND	5.3	ND	ND	ND	ND	0	0
79269	2019-02-12T20:00:00	21.6	ND	ND	ND	ND	4.3	ND	ND	ND	ND	0	0
79270	2019-02-12T21:00:00	26.4	ND	ND	ND	ND	4.7	ND	ND	ND	ND	0	0
79271	2019-02-12T22:00:00	31	ND	ND	ND	ND	3.3	ND	ND	ND	ND	0	0
79272	2019-02-12T23:00:00	56.9	ND	ND	ND	ND	4.5	ND	ND	ND	ND	0	0
79273	2019-02-13T00:00:00	40.2	ND	ND	ND	ND	5.3	ND	ND	ND	ND	0	0
79274	2019-02-13T01:00:00	46.3	ND	ND	ND	ND	2.1	ND	ND	ND	ND	0	0
79275	2019-02-13T02:00:00	55.3	ND	ND	ND	ND	1	ND	ND	ND	ND	0	0
79276	2019-02-13T03:00:00	60.7	ND	ND	ND	ND	1.3	ND	ND	ND	ND	0	0
79277	2019-02-13T04:00:00	67.1	ND	ND	ND	ND	2.2	ND	ND	ND	ND	0	0
79278	2019-02-13T05:00:00	63	ND	ND	ND	ND	1.4	ND	ND	ND	ND	0	0
79279	2019-02-13T06:00:00	51.8	ND	ND	ND	ND	1.2	ND	ND	ND	ND	0	0
79280	2019-02-13T07:00:00	91.1	ND	ND	ND	ND	1.1	ND	ND	ND	ND	0	0
79281	2019-02-13T08:00:00	92.9	ND	ND	ND	ND	2.1	ND	ND	ND	ND	27.1	0
79282	2019-02-13T09:00:00	97.8	ND	ND	ND	ND	ND	ND	ND	ND	ND	384.3	0
79283	2019-02-13T10:00:00	149.4	ND	ND	ND	ND	12.8	ND	ND	ND	ND	643.3	0
79284	2019-02-13T11:00:00	ND	ND	ND	ND	ND	28	ND	ND	ND	ND	649.1	0
79285	2019-02-13T12:00:00	118.1	ND	ND	ND	ND	59.1	ND	ND	ND	ND	649.9	0
79286	2019-02-13T13:00:00	86.4	ND	ND	ND	ND	71.4	ND	ND	ND	ND	649.8	0
79287	2019-02-13T14:00:00	98.8	ND	ND	ND	ND	90.1	ND	ND	ND	ND	646.5	0
79288	2019-02-13T15:00:00	85	ND	ND	ND	ND	37.4	ND	ND	ND	ND	615.7	0
79289	2019-02-13T16:00:00	47	ND	ND	ND	ND	23.9	ND	ND	ND	ND	644.5	0
79290	2019-02-13T17:00:00	37.6	ND	ND	ND	ND	13.3	ND	ND	ND	ND	650.3	0
79291	2019-02-13T18:00:00	36.5	ND	ND	ND	ND	9.9	ND	ND	ND	ND	481.4	0
79292	2019-02-13T19:00:00	25.6	ND	ND	ND	ND	10.4	ND	ND	ND	ND	0	0
79293	2019-02-13T20:00:00	19.9	ND	ND	ND	ND	9	ND	ND	ND	ND	0	0
79294	2019-02-13T21:00:00	28	ND	ND	ND	ND	10.5	ND	ND	ND	ND	0	0
79295	2019-02-13T22:00:00	16	ND	ND	ND	ND	6.9	ND	ND	ND	ND	0	0
79296	2019-02-13T23:00:00	15.9	ND	ND	ND	ND	7	ND	ND	ND	ND	0	0
79297	2019-02-14T00:00:00	24.8	ND	ND	ND	ND	6.5	ND	ND	ND	ND	0	0
79298	2019-02-14T01:00:00	10.5	ND	ND	ND	ND	6.4	ND	ND	ND	ND	0	0
79299	2019-02-14T02:00:00	14.5	ND	ND	ND	ND	3.8	ND	ND	ND	ND	0	0
79300	2019-02-14T03:00:00	44	ND	ND	ND	ND	1.2	ND	ND	ND	ND	0	0
79301	2019-02-14T04:00:00	55.2	ND	ND	ND	ND	1.1	ND	ND	ND	ND	0	0
79302	2019-02-14T05:00:00	56.8	ND	ND	ND	ND	1	ND	ND	ND	ND	0	0
79303	2019-02-14T06:00:00	61.6	ND	ND	ND	ND	1	ND	ND	ND	ND	0	0
79304	2019-02-14T07:00:00	76	ND	ND	ND	ND	1.3	ND	ND	ND	ND	0	0
79305	2019-02-14T08:00:00	93.5	ND	ND	ND	ND	1.5	ND	ND	ND	ND	27.4	0
79306	2019-02-14T09:00:00	135.8	ND	ND	ND	ND	2.1	ND	ND	ND	ND	137.2	0
79307	2019-02-14T10:00:00	152.5	ND	ND	ND	ND	9.5	ND	ND	ND	ND	402.5	0
79308	2019-02-14T11:00:00	122.1	ND	ND	ND	ND	27.5	ND	ND	ND	ND	649.1	0
79309	2019-02-14T12:00:00	87.5	ND	ND	ND	ND	48.1	ND	ND	ND	ND	649.3	0
79310	2019-02-14T13:00:00	ND	ND	ND	ND	ND	80.7	ND	ND	ND	ND	649.3	0
79311	2019-02-14T14:00:00	25.3	ND	ND	ND	ND	62.8	ND	ND	ND	ND	641.4	0
79312	2019-02-14T15:00:00	27.8	ND	ND	ND	ND	49.2	ND	ND	ND	ND	626.6	0
79313	2019-02-14T16:00:00	63.3	ND	ND	ND	ND	32.8	ND	ND	ND	ND	542.6	0
79314	2019-02-14T17:00:00	50.6	ND	ND	ND	ND	25.7	ND	ND	ND	ND	648.7	0
79315	2019-02-14T18:00:00	16.2	ND	ND	ND	ND	18.3	ND	ND	ND	ND	537	0
79316	2019-02-14T19:00:00	3	ND	ND	ND	ND	7.8	ND	ND	ND	ND	0	0
79317	2019-02-14T20:00:00	25.6	ND	ND	ND	ND	4.9	ND	ND	ND	ND	0	0
79318	2019-02-14T21:00:00	59.9	ND	ND	ND	ND	9.4	ND	ND	ND	ND	0	0
79319	2019-02-14T22:00:00	53.8	ND	ND	ND	ND	14.2	ND	ND	ND	ND	0	0
79320	2019-02-14T23:00:00	42.6	ND	ND	ND	ND	14.4	ND	ND	ND	ND	0	0
79321	2019-02-15T00:00:00	46.5	ND	ND	ND	ND	17.5	ND	ND	ND	ND	0	0
79322	2019-02-15T01:00:00	31.1	ND	ND	ND	ND	10	ND	ND	ND	ND	0	0
79323	2019-02-15T02:00:00	38.2	ND	ND	ND	ND	10	ND	ND	ND	ND	0	0
79324	2019-02-15T03:00:00	23.8	ND	ND	ND	ND	5	ND	ND	ND	ND	0	0
79325	2019-02-15T04:00:00	57	ND	ND	ND	ND	3.4	ND	ND	ND	ND	0	0
79326	2019-02-15T05:00:00	77.7	ND	ND	ND	ND	2.7	ND	ND	ND	ND	0	0
79327	2019-02-15T06:00:00	84.1	ND	ND	ND	ND	1.2	ND	ND	ND	ND	0	0
79328	2019-02-15T07:00:00	82.5	ND	ND	ND	ND	1.2	ND	ND	ND	ND	0.1	0
79329	2019-02-15T08:00:00	104.2	ND	ND	ND	ND	2	ND	ND	ND	ND	71.1	0
79330	2019-02-15T09:00:00	177.2	ND	ND	ND	ND	9.3	ND	ND	ND	ND	491	0
79331	2019-02-15T10:00:00	149.4	ND	ND	ND	ND	30.2	ND	ND	ND	ND	648.9	0
79332	2019-02-15T11:00:00	82.6	ND	ND	ND	ND	39.3	ND	ND	ND	ND	648.6	0
79333	2019-02-15T12:00:00	78.2	ND	ND	ND	ND	46.4	ND	ND	ND	ND	648.3	0
79334	2019-02-15T13:00:00	72.1	ND	ND	ND	ND	71.7	ND	ND	ND	ND	648.2	0
79335	2019-02-15T14:00:00	96.7	ND	ND	ND	ND	104.7	ND	ND	ND	ND	632.1	0
79336	2019-02-15T15:00:00	101.7	ND	ND	ND	ND	63	ND	ND	ND	ND	611.8	0
79337	2019-02-15T16:00:00	68.1	ND	ND	ND	ND	20.1	ND	ND	ND	ND	629.3	0
79338	2019-02-15T17:00:00	55.8	ND	ND	ND	ND	18.5	ND	ND	ND	ND	649.2	0
79339	2019-02-15T18:00:00	30.9	ND	ND	ND	ND	16.7	ND	ND	ND	ND	484.6	0
79340	2019-02-15T19:00:00	28	ND	ND	ND	ND	18.6	ND	ND	ND	ND	0	0
79341	2019-02-15T20:00:00	25.2	ND	ND	ND	ND	22.3	ND	ND	ND	ND	0	0
79342	2019-02-15T21:00:00	24.9	ND	ND	ND	ND	25.2	ND	ND	ND	ND	0	0
79343	2019-02-15T22:00:00	9.1	ND	ND	ND	ND	24.4	ND	ND	ND	ND	0	0
79344	2019-02-15T23:00:00	8.5	ND	ND	ND	ND	19.3	ND	ND	ND	ND	0	0
79345	2019-02-16T00:00:00	24	ND	ND	ND	ND	2.5	ND	ND	ND	ND	0	0
79346	2019-02-16T01:00:00	57.8	ND	ND	ND	ND	3.3	ND	ND	ND	ND	0	0
79347	2019-02-16T02:00:00	55.6	ND	ND	ND	ND	2.2	ND	ND	ND	ND	0	0
79348	2019-02-16T03:00:00	59.6	ND	ND	ND	ND	1.8	ND	ND	ND	ND	0	0
79349	2019-02-16T04:00:00	58.7	ND	ND	ND	ND	1	ND	ND	ND	ND	0	0
79350	2019-02-16T05:00:00	72.7	ND	ND	ND	ND	1.9	ND	ND	ND	ND	0	0
79351	2019-02-16T06:00:00	80.2	ND	ND	ND	ND	1.5	ND	ND	ND	ND	0	0
79352	2019-02-16T07:00:00	74.8	ND	ND	ND	ND	1.5	ND	ND	ND	ND	0	0
79353	2019-02-16T08:00:00	93.8	ND	ND	ND	ND	1.8	ND	ND	ND	ND	30.9	0
79354	2019-02-16T09:00:00	123	ND	ND	ND	ND	2.5	ND	ND	ND	ND	155.5	0
79355	2019-02-16T10:00:00	115.8	ND	ND	ND	ND	14.1	ND	ND	ND	ND	333.5	0
79356	2019-02-16T11:00:00	84.4	ND	ND	ND	ND	31.3	ND	ND	ND	ND	641.2	0
79357	2019-02-16T12:00:00	71.5	ND	ND	ND	ND	47.7	ND	ND	ND	ND	648.7	0
79358	2019-02-16T13:00:00	85.5	ND	ND	ND	ND	66.7	ND	ND	ND	ND	648.6	0
79359	2019-02-16T14:00:00	86.4	ND	ND	ND	ND	100.5	ND	ND	ND	ND	648.9	0
79360	2019-02-16T15:00:00	75.4	ND	ND	ND	ND	36.5	ND	ND	ND	ND	623.1	0
79361	2019-02-16T16:00:00	44.3	ND	ND	ND	ND	21.5	ND	ND	ND	ND	571.5	0
79362	2019-02-16T17:00:00	33.5	ND	ND	ND	ND	19.9	ND	ND	ND	ND	631	0
79363	2019-02-16T18:00:00	21.7	ND	ND	ND	ND	17.9	ND	ND	ND	ND	510.8	0
79364	2019-02-16T19:00:00	17.6	ND	ND	ND	ND	16.3	ND	ND	ND	ND	0	0
79365	2019-02-16T20:00:00	26.7	ND	ND	ND	ND	14.8	ND	ND	ND	ND	0	0
79366	2019-02-16T21:00:00	28.3	ND	ND	ND	ND	11.1	ND	ND	ND	ND	0	0
79367	2019-02-16T22:00:00	16.6	ND	ND	ND	ND	11.8	ND	ND	ND	ND	0	0
79368	2019-02-16T23:00:00	24.6	ND	ND	ND	ND	9.7	ND	ND	ND	ND	0	0
79369	2019-02-17T00:00:00	30.1	ND	ND	ND	ND	3.4	ND	ND	ND	ND	0	0
79370	2019-02-17T01:00:00	30.1	ND	ND	ND	ND	10.1	ND	ND	ND	ND	0	0
79371	2019-02-17T02:00:00	41	ND	ND	ND	ND	2.6	ND	ND	ND	ND	0	0
79372	2019-02-17T03:00:00	45.2	ND	ND	ND	ND	6.7	ND	ND	ND	ND	0	0
79373	2019-02-17T04:00:00	30.5	ND	ND	ND	ND	10.7	ND	ND	ND	ND	0	0
79374	2019-02-17T05:00:00	21.2	ND	ND	ND	ND	11.3	ND	ND	ND	ND	0	0.25
79375	2019-02-17T06:00:00	12.3	ND	ND	ND	ND	11.3	ND	ND	ND	ND	0	0
79376	2019-02-17T07:00:00	17.3	ND	ND	ND	ND	12	ND	ND	ND	ND	0	2.29
79377	2019-02-17T08:00:00	15.8	ND	ND	ND	ND	7.4	ND	ND	ND	ND	73.9	0.25
79378	2019-02-17T09:00:00	17.8	ND	ND	ND	ND	5	ND	ND	ND	ND	166.4	0
79379	2019-02-17T10:00:00	63.5	ND	ND	ND	ND	10.3	ND	ND	ND	ND	325.2	0
79380	2019-02-17T11:00:00	47.4	ND	ND	ND	ND	35.1	ND	ND	ND	ND	641.4	0
79381	2019-02-17T12:00:00	40.8	ND	ND	ND	ND	54.9	ND	ND	ND	ND	648.6	0
79382	2019-02-17T13:00:00	33.9	ND	ND	ND	ND	51.4	ND	ND	ND	ND	648.5	0
79383	2019-02-17T14:00:00	23.4	ND	ND	ND	ND	36.5	ND	ND	ND	ND	629.6	0
79384	2019-02-17T15:00:00	17.7	ND	ND	ND	ND	28.2	ND	ND	ND	ND	630.3	0
79385	2019-02-17T16:00:00	22.2	ND	ND	ND	ND	22.1	ND	ND	ND	ND	647	0
79386	2019-02-17T17:00:00	10.3	ND	ND	ND	ND	20.6	ND	ND	ND	ND	649	0
79387	2019-02-17T18:00:00	12.7	ND	ND	ND	ND	17.8	ND	ND	ND	ND	569	0
79388	2019-02-17T19:00:00	0.9	ND	ND	ND	ND	17.4	ND	ND	ND	ND	0	0
79389	2019-02-17T20:00:00	9.6	ND	ND	ND	ND	15.9	ND	ND	ND	ND	0	0
79390	2019-02-17T21:00:00	20.2	ND	ND	ND	ND	16.9	ND	ND	ND	ND	0	0
79391	2019-02-17T22:00:00	19.6	ND	ND	ND	ND	8.2	ND	ND	ND	ND	0	0
79392	2019-02-17T23:00:00	21.5	ND	ND	ND	ND	12.4	ND	ND	ND	ND	0	0
79393	2019-02-18T00:00:00	27.4	ND	ND	ND	ND	5.8	ND	ND	ND	ND	0	0
79394	2019-02-18T01:00:00	42.1	ND	ND	ND	ND	5.8	ND	ND	ND	ND	0	0
79395	2019-02-18T02:00:00	31	ND	ND	ND	ND	8.7	ND	ND	ND	ND	0	0
79396	2019-02-18T03:00:00	25.6	ND	ND	ND	ND	8.9	ND	ND	ND	ND	0	0
79397	2019-02-18T04:00:00	18.1	ND	ND	ND	ND	5.5	ND	ND	ND	ND	0	0.25
79398	2019-02-18T05:00:00	23.9	ND	ND	ND	ND	4.3	ND	ND	ND	ND	0	0.25
79399	2019-02-18T06:00:00	15.8	ND	ND	ND	ND	2.7	ND	ND	ND	ND	0	4.32
79400	2019-02-18T07:00:00	24.1	ND	ND	ND	ND	1	ND	ND	ND	ND	0	1.52
79401	2019-02-18T08:00:00	25.2	ND	ND	ND	ND	1.7	ND	ND	ND	ND	51.1	0.51
79402	2019-02-18T09:00:00	46.8	ND	ND	ND	ND	4.5	ND	ND	ND	ND	444.4	0
79403	2019-02-18T10:00:00	49.5	ND	ND	ND	ND	15.3	ND	ND	ND	ND	645.4	0
79404	2019-02-18T11:00:00	46.5	ND	ND	ND	ND	31.4	ND	ND	ND	ND	642.1	0
79405	2019-02-18T12:00:00	32.6	ND	ND	ND	ND	47.6	ND	ND	ND	ND	644.7	0
79406	2019-02-18T13:00:00	55.6	ND	ND	ND	ND	61.4	ND	ND	ND	ND	637.6	0
79407	2019-02-18T14:00:00	57.7	ND	ND	ND	ND	58.9	ND	ND	ND	ND	592.3	0
79408	2019-02-18T15:00:00	42.4	ND	ND	ND	ND	17	ND	ND	ND	ND	390.6	0
79409	2019-02-18T16:00:00	16.8	ND	ND	ND	ND	17.1	ND	ND	ND	ND	351.6	0
79410	2019-02-18T17:00:00	30.1	ND	ND	ND	ND	24.3	ND	ND	ND	ND	568.1	0
79411	2019-02-18T18:00:00	31	ND	ND	ND	ND	12.1	ND	ND	ND	ND	485.2	0
79412	2019-02-18T19:00:00	21.3	ND	ND	ND	ND	6.7	ND	ND	ND	ND	0	0
79413	2019-02-18T20:00:00	36.4	ND	ND	ND	ND	9.2	ND	ND	ND	ND	0	0
79414	2019-02-18T21:00:00	32.1	ND	ND	ND	ND	11.6	ND	ND	ND	ND	0	0
79415	2019-02-18T22:00:00	23.2	ND	ND	ND	ND	11.9	ND	ND	ND	ND	0	0
79416	2019-02-18T23:00:00	16.8	ND	ND	ND	ND	11.6	ND	ND	ND	ND	0	0
79417	2019-02-19T00:00:00	20	ND	ND	ND	ND	5.2	ND	ND	ND	ND	0	0
79418	2019-02-19T01:00:00	34.3	ND	ND	ND	ND	2.9	ND	ND	ND	ND	0	0
79419	2019-02-19T02:00:00	34.5	ND	ND	ND	ND	5.8	ND	ND	ND	ND	0	0
79420	2019-02-19T03:00:00	45.3	ND	ND	ND	ND	3.9	ND	ND	ND	ND	0	0
79421	2019-02-19T04:00:00	54.8	ND	ND	ND	ND	3.4	ND	ND	ND	ND	0	0
79422	2019-02-19T05:00:00	64.1	ND	ND	ND	ND	2	ND	ND	ND	ND	0	0
79423	2019-02-19T06:00:00	67.9	ND	ND	ND	ND	2	ND	ND	ND	ND	0	0
79424	2019-02-19T07:00:00	95.4	ND	ND	ND	ND	1.1	ND	ND	ND	ND	0	0
79425	2019-02-19T08:00:00	82.8	ND	ND	ND	ND	3.1	ND	ND	ND	ND	0	1.52
79426	2019-02-19T09:00:00	55.2	ND	ND	ND	ND	1.7	ND	ND	ND	ND	14.7	26.92
79427	2019-02-19T10:00:00	38.9	ND	ND	ND	ND	1.6	ND	ND	ND	ND	24.2	2.03
79428	2019-02-19T11:00:00	62.8	ND	ND	ND	ND	2.4	ND	ND	ND	ND	214	0.25
79429	2019-02-19T12:00:00	59.1	ND	ND	ND	ND	9.3	ND	ND	ND	ND	421.5	0.25
79430	2019-02-19T13:00:00	30.5	ND	ND	ND	ND	18.4	ND	ND	ND	ND	494.2	0
79431	2019-02-19T14:00:00	57.9	ND	ND	ND	ND	38.3	ND	ND	ND	ND	627.9	0
79432	2019-02-19T15:00:00	71.6	ND	ND	ND	ND	34.4	ND	ND	ND	ND	648.6	0
79433	2019-02-19T16:00:00	80.3	ND	ND	ND	ND	25.1	ND	ND	ND	ND	514.2	0
79434	2019-02-19T17:00:00	69.3	ND	ND	ND	ND	22.5	ND	ND	ND	ND	469.1	0
79435	2019-02-19T18:00:00	56.7	ND	ND	ND	ND	22	ND	ND	ND	ND	205.1	0
79436	2019-02-19T19:00:00	43.8	ND	ND	ND	ND	7.2	ND	ND	ND	ND	0	0
79437	2019-02-19T20:00:00	42.7	ND	ND	ND	ND	3	ND	ND	ND	ND	0	0
79438	2019-02-19T21:00:00	40.9	ND	ND	ND	ND	1	ND	ND	ND	ND	0	0
79439	2019-02-19T22:00:00	44.7	ND	ND	ND	ND	1.1	ND	ND	ND	ND	0	0
79440	2019-02-19T23:00:00	60.3	ND	ND	ND	ND	1.3	ND	ND	ND	ND	0	0
79441	2019-02-20T00:00:00	47.1	ND	ND	ND	ND	0.8	ND	ND	ND	ND	0	0
79442	2019-02-20T01:00:00	38.6	ND	ND	ND	ND	1	ND	ND	ND	ND	0	0
79443	2019-02-20T02:00:00	45.6	ND	ND	ND	ND	1	ND	ND	ND	ND	0	1.27
79444	2019-02-20T03:00:00	68.5	ND	ND	ND	ND	1.1	ND	ND	ND	ND	0	0
79445	2019-02-20T04:00:00	70.4	ND	ND	ND	ND	1	ND	ND	ND	ND	0	0.25
79446	2019-02-20T05:00:00	60.9	ND	ND	ND	ND	1.5	ND	ND	ND	ND	0	0
79447	2019-02-20T06:00:00	47.8	ND	ND	ND	ND	1.2	ND	ND	ND	ND	0	0
79448	2019-02-20T07:00:00	70.7	ND	ND	ND	ND	1.1	ND	ND	ND	ND	0	0
79449	2019-02-20T08:00:00	84.7	ND	ND	ND	ND	1.3	ND	ND	ND	ND	27.5	0
79450	2019-02-20T09:00:00	99.9	ND	ND	ND	ND	1.7	ND	ND	ND	ND	258.7	0
79451	2019-02-20T10:00:00	98.4	ND	ND	ND	ND	15.4	ND	ND	ND	ND	369.2	0
79452	2019-02-20T11:00:00	87.9	ND	ND	ND	ND	28.2	ND	ND	ND	ND	639.5	0
79453	2019-02-20T12:00:00	77.2	ND	ND	ND	ND	61.8	ND	ND	ND	ND	648	0
79454	2019-02-20T13:00:00	76	ND	ND	ND	ND	75.8	ND	ND	ND	ND	649.2	0
79455	2019-02-20T14:00:00	74.6	ND	ND	ND	ND	79	ND	ND	ND	ND	647.8	0
79456	2019-02-20T15:00:00	72.9	ND	ND	ND	ND	63.5	ND	ND	ND	ND	645.8	0
79457	2019-02-20T16:00:00	53.6	ND	ND	ND	ND	22.9	ND	ND	ND	ND	643.1	0
79458	2019-02-20T17:00:00	34.2	ND	ND	ND	ND	14.4	ND	ND	ND	ND	649.2	0
79459	2019-02-20T18:00:00	17.3	ND	ND	ND	ND	12.1	ND	ND	ND	ND	457.7	0
79460	2019-02-20T19:00:00	17.8	ND	ND	ND	ND	8.3	ND	ND	ND	ND	0	0
79461	2019-02-20T20:00:00	19.1	ND	ND	ND	ND	22.5	ND	ND	ND	ND	0	0
79462	2019-02-20T21:00:00	40.3	ND	ND	ND	ND	10.5	ND	ND	ND	ND	0	0
79463	2019-02-20T22:00:00	48.9	ND	ND	ND	ND	3	ND	ND	ND	ND	0	0
79464	2019-02-20T23:00:00	44.2	ND	ND	ND	ND	2	ND	ND	ND	ND	0	0
79465	2019-02-21T00:00:00	42	ND	ND	ND	ND	1.7	ND	ND	ND	ND	0	0
79466	2019-02-21T01:00:00	48.8	ND	ND	ND	ND	1	ND	ND	ND	ND	0	0
79467	2019-02-21T02:00:00	49.3	ND	ND	ND	ND	1.9	ND	ND	ND	ND	0	0
79468	2019-02-21T03:00:00	64.2	ND	ND	ND	ND	1	ND	ND	ND	ND	0	0
79469	2019-02-21T04:00:00	65.1	ND	ND	ND	ND	0.9	ND	ND	ND	ND	0	0
79470	2019-02-21T05:00:00	78.5	ND	ND	ND	ND	0.9	ND	ND	ND	ND	0	0
79471	2019-02-21T06:00:00	80.8	ND	ND	ND	ND	0.9	ND	ND	ND	ND	0	0
79472	2019-02-21T07:00:00	100.8	ND	ND	ND	ND	1.5	ND	ND	ND	ND	0	0
79473	2019-02-21T08:00:00	107.7	ND	ND	ND	ND	1.8	ND	ND	ND	ND	49	0
79474	2019-02-21T09:00:00	131.6	ND	ND	ND	ND	4.2	ND	ND	ND	ND	380.2	0
79475	2019-02-21T10:00:00	117	ND	ND	ND	ND	14.9	ND	ND	ND	ND	580.7	0
79476	2019-02-21T11:00:00	84.3	ND	ND	ND	ND	39.7	ND	ND	ND	ND	647.9	0
79477	2019-02-21T12:00:00	73.2	ND	ND	ND	ND	53	ND	ND	ND	ND	648.9	0
79478	2019-02-21T13:00:00	63.8	ND	ND	ND	ND	61.6	ND	ND	ND	ND	648.5	0
79479	2019-02-21T14:00:00	52.2	ND	ND	ND	ND	68.7	ND	ND	ND	ND	648.9	0
79480	2019-02-21T15:00:00	52.6	ND	ND	ND	ND	91.7	ND	ND	ND	ND	641.3	0
79481	2019-02-21T16:00:00	47.1	ND	ND	ND	ND	32	ND	ND	ND	ND	564.9	0
79482	2019-02-21T17:00:00	36.1	ND	ND	ND	ND	17.6	ND	ND	ND	ND	557.8	0
79483	2019-02-21T18:00:00	33.8	ND	ND	ND	ND	10.8	ND	ND	ND	ND	306.2	0
79484	2019-02-21T19:00:00	20.4	ND	ND	ND	ND	8	ND	ND	ND	ND	0	0
79485	2019-02-21T20:00:00	28.6	ND	ND	ND	ND	13.9	ND	ND	ND	ND	0	0
79486	2019-02-21T21:00:00	46.9	ND	ND	ND	ND	7.4	ND	ND	ND	ND	0	0
79487	2019-02-21T22:00:00	39.8	ND	ND	ND	ND	6.6	ND	ND	ND	ND	0	0
79488	2019-02-21T23:00:00	40.6	ND	ND	ND	ND	3.6	ND	ND	ND	ND	0	0
79489	2019-02-22T00:00:00	51.8	ND	ND	ND	ND	8.4	ND	ND	ND	ND	0	0
79490	2019-02-22T01:00:00	46.1	ND	ND	ND	ND	10	ND	ND	ND	ND	0	0
79491	2019-02-22T02:00:00	31.8	ND	ND	ND	ND	12.1	ND	ND	ND	ND	0	0
79492	2019-02-22T03:00:00	33.6	ND	ND	ND	ND	2.5	ND	ND	ND	ND	0	0
79493	2019-02-22T04:00:00	36.5	ND	ND	ND	ND	2.1	ND	ND	ND	ND	0	0
79494	2019-02-22T05:00:00	60	ND	ND	ND	ND	2.5	ND	ND	ND	ND	0	0
79495	2019-02-22T06:00:00	54.3	ND	ND	ND	ND	1.5	ND	ND	ND	ND	0	0
79496	2019-02-22T07:00:00	66.1	ND	ND	ND	ND	1.2	ND	ND	ND	ND	0.1	0
79497	2019-02-22T08:00:00	105.4	ND	ND	ND	ND	1.4	ND	ND	ND	ND	21.5	0
79498	2019-02-22T09:00:00	138.4	ND	ND	ND	ND	3.2	ND	ND	ND	ND	205.5	0
79499	2019-02-22T10:00:00	130.3	ND	ND	ND	ND	17.8	ND	ND	ND	ND	546.2	0
79500	2019-02-22T11:00:00	80.6	ND	ND	ND	ND	40.7	ND	ND	ND	ND	649	0
79501	2019-02-22T12:00:00	60.9	ND	ND	ND	ND	50.6	ND	ND	ND	ND	648.7	0
79502	2019-02-22T13:00:00	57.3	ND	ND	ND	ND	55.3	ND	ND	ND	ND	649	0
79503	2019-02-22T14:00:00	55.1	ND	ND	ND	ND	72.9	ND	ND	ND	ND	648.7	0
79504	2019-02-22T15:00:00	75.2	ND	ND	ND	ND	89.9	ND	ND	ND	ND	645.9	0
79505	2019-02-22T16:00:00	52.8	ND	ND	ND	ND	22.6	ND	ND	ND	ND	535.3	0
79506	2019-02-22T17:00:00	52.1	ND	ND	ND	ND	14.1	ND	ND	ND	ND	649.4	0
79507	2019-02-22T18:00:00	30.5	ND	ND	ND	ND	11.2	ND	ND	ND	ND	460.3	0
79508	2019-02-22T19:00:00	ND	ND	ND	ND	ND	11.7	ND	ND	ND	ND	0	0
79509	2019-02-22T20:00:00	ND	ND	ND	ND	ND	8.9	ND	ND	ND	ND	0	0
79510	2019-02-22T21:00:00	ND	ND	ND	ND	ND	7.4	ND	ND	ND	ND	0	0
79511	2019-02-22T22:00:00	ND	ND	ND	ND	ND	ND	ND	ND	ND	ND	0.1	ND
79512	2019-02-22T23:00:00	ND	ND	ND	ND	ND	ND	ND	ND	ND	ND	ND	ND
79513	2019-02-23T00:00:00	ND	ND	ND	ND	ND	ND	ND	ND	ND	ND	ND	ND
79514	2019-02-23T01:00:00	ND	ND	ND	ND	ND	ND	ND	ND	ND	ND	ND	ND
79515	2019-02-23T02:00:00	ND	ND	ND	ND	ND	ND	ND	ND	ND	ND	ND	ND
79516	2019-02-23T03:00:00	ND	ND	ND	ND	ND	ND	ND	ND	ND	ND	ND	ND
79517	2019-02-23T04:00:00	ND	ND	ND	ND	ND	ND	ND	ND	ND	ND	ND	ND
79518	2019-02-23T05:00:00	ND	ND	ND	ND	ND	ND	ND	ND	ND	ND	ND	ND
79519	2019-02-23T06:00:00	ND	ND	ND	ND	ND	ND	ND	ND	ND	ND	ND	ND
79520	2019-02-23T07:00:00	ND	ND	ND	ND	ND	ND	ND	ND	ND	ND	ND	ND
79521	2019-02-23T08:00:00	ND	ND	ND	ND	ND	ND	ND	ND	ND	ND	ND	ND
79522	2019-02-23T09:00:00	ND	ND	ND	ND	ND	ND	ND	ND	ND	ND	ND	ND
79523	2019-02-23T10:00:00	ND	ND	ND	ND	ND	ND	ND	ND	ND	ND	ND	ND
79524	2019-02-23T11:00:00	ND	ND	ND	ND	ND	ND	ND	ND	ND	ND	ND	ND
79525	2019-02-23T12:00:00	ND	ND	ND	ND	ND	ND	ND	ND	ND	ND	ND	ND
79526	2019-02-23T13:00:00	ND	ND	ND	ND	ND	ND	ND	ND	ND	ND	ND	ND
79527	2019-02-23T14:00:00	ND	ND	ND	ND	ND	ND	ND	ND	ND	ND	ND	ND
79528	2019-02-23T15:00:00	ND	ND	ND	ND	ND	ND	ND	ND	ND	ND	ND	ND
79529	2019-02-23T16:00:00	ND	ND	ND	ND	ND	ND	ND	ND	ND	ND	ND	ND
79530	2019-02-23T17:00:00	ND	ND	ND	ND	ND	ND	ND	ND	ND	ND	ND	ND
79531	2019-02-23T18:00:00	ND	ND	ND	ND	ND	ND	ND	ND	ND	ND	ND	ND
79532	2019-02-23T19:00:00	ND	ND	ND	ND	ND	ND	ND	ND	ND	ND	ND	ND
79533	2019-02-23T20:00:00	ND	ND	ND	ND	ND	ND	ND	ND	ND	ND	ND	ND
79534	2019-02-23T21:00:00	ND	ND	ND	ND	ND	ND	ND	ND	ND	ND	ND	ND
79535	2019-02-23T22:00:00	ND	ND	ND	ND	ND	ND	ND	ND	ND	ND	ND	ND
79536	2019-02-23T23:00:00	ND	ND	ND	ND	ND	ND	ND	ND	ND	ND	ND	ND
79537	2019-02-24T00:00:00	ND	ND	ND	ND	ND	ND	ND	ND	ND	ND	ND	ND
79538	2019-02-24T01:00:00	ND	ND	ND	ND	ND	ND	ND	ND	ND	ND	ND	ND
79539	2019-02-24T02:00:00	ND	ND	ND	ND	ND	ND	ND	ND	ND	ND	ND	ND
79540	2019-02-24T03:00:00	ND	ND	ND	ND	ND	ND	ND	ND	ND	ND	ND	ND
79541	2019-02-24T04:00:00	ND	ND	ND	ND	ND	ND	ND	ND	ND	ND	ND	ND
79542	2019-02-24T05:00:00	ND	ND	ND	ND	ND	ND	ND	ND	ND	ND	ND	ND
79543	2019-02-24T06:00:00	ND	ND	ND	ND	ND	ND	ND	ND	ND	ND	ND	ND
79544	2019-02-24T07:00:00	ND	ND	ND	ND	ND	ND	ND	ND	ND	ND	ND	ND
79545	2019-02-24T08:00:00	ND	ND	ND	ND	ND	ND	ND	ND	ND	ND	ND	ND
79546	2019-02-24T09:00:00	ND	ND	ND	ND	ND	ND	ND	ND	ND	ND	ND	ND
79547	2019-02-24T10:00:00	ND	ND	ND	ND	ND	ND	ND	ND	ND	ND	ND	ND
79548	2019-02-24T11:00:00	ND	ND	ND	ND	ND	ND	ND	ND	ND	ND	ND	ND
79549	2019-02-24T12:00:00	ND	ND	ND	ND	ND	ND	ND	ND	ND	ND	ND	ND
79550	2019-02-24T13:00:00	ND	ND	ND	ND	ND	ND	ND	ND	ND	ND	ND	ND
79551	2019-02-24T14:00:00	ND	ND	ND	ND	ND	ND	ND	ND	ND	ND	ND	ND
79552	2019-02-24T15:00:00	113.5	ND	ND	ND	ND	25.6	ND	ND	ND	ND	ND	0
79553	2019-02-24T16:00:00	174.4	ND	ND	ND	ND	28.8	ND	ND	ND	ND	617.5	0
79554	2019-02-24T17:00:00	107.6	ND	ND	ND	ND	18.4	ND	ND	ND	ND	300.4	0
79555	2019-02-24T18:00:00	53.8	ND	ND	ND	ND	16.6	ND	ND	ND	ND	238.2	0
79556	2019-02-24T19:00:00	29	ND	ND	ND	ND	19.4	ND	ND	ND	ND	0	0
79557	2019-02-24T20:00:00	21.8	ND	ND	ND	ND	20.7	ND	ND	ND	ND	0	0
79558	2019-02-24T21:00:00	24.5	ND	ND	ND	ND	13.9	ND	ND	ND	ND	0	0
79559	2019-02-24T22:00:00	48.8	ND	ND	ND	ND	6	ND	ND	ND	ND	0	0
79560	2019-02-24T23:00:00	46.7	ND	ND	ND	ND	6.5	ND	ND	ND	ND	0	0
79561	2019-02-25T00:00:00	49.2	ND	ND	ND	ND	8	ND	ND	ND	ND	0	0
79562	2019-02-25T01:00:00	32	ND	ND	ND	ND	10.6	ND	ND	ND	ND	0	0
79563	2019-02-25T02:00:00	24.4	ND	ND	ND	ND	8.5	ND	ND	ND	ND	0	0
79564	2019-02-25T03:00:00	30.7	ND	ND	ND	ND	9.1	ND	ND	ND	ND	0	0
79565	2019-02-25T04:00:00	34.6	ND	ND	ND	ND	4.6	ND	ND	ND	ND	0	0
79566	2019-02-25T05:00:00	54.2	ND	ND	ND	ND	1.7	ND	ND	ND	ND	0	0
79567	2019-02-25T06:00:00	65.1	ND	ND	ND	ND	0.7	ND	ND	ND	ND	0	0
79568	2019-02-25T07:00:00	63.6	ND	ND	ND	ND	0.8	ND	ND	ND	ND	0.1	0
79569	2019-02-25T08:00:00	64	ND	ND	ND	ND	1.6	ND	ND	ND	ND	34.3	0
79570	2019-02-25T09:00:00	92.4	ND	ND	ND	ND	4.2	ND	ND	ND	ND	241.3	0
79571	2019-02-25T10:00:00	116	ND	ND	ND	ND	15.4	ND	ND	ND	ND	540.4	0
79572	2019-02-25T11:00:00	ND	ND	ND	ND	ND	ND	ND	ND	ND	ND	660.2	ND
79573	2019-02-25T12:00:00	ND	ND	ND	ND	ND	ND	ND	ND	ND	ND	ND	0
79574	2019-02-25T13:00:00	3	ND	ND	ND	ND	ND	ND	ND	ND	ND	610.9	0
79575	2019-02-25T14:00:00	ND	ND	ND	ND	ND	ND	ND	ND	ND	ND	650.3	0
79576	2019-02-25T15:00:00	7.1	ND	ND	ND	ND	30.5	ND	ND	ND	ND	607.9	0
79577	2019-02-25T16:00:00	116.7	ND	ND	ND	ND	24.7	ND	ND	ND	ND	599.5	0
79578	2019-02-25T17:00:00	95.4	ND	ND	ND	ND	20.2	ND	ND	ND	ND	630.7	0
79579	2019-02-25T18:00:00	3	ND	ND	ND	ND	12.6	ND	ND	ND	ND	432.3	0
79580	2019-02-25T19:00:00	10.2	ND	ND	ND	ND	9.6	ND	ND	ND	ND	0	0
79581	2019-02-25T20:00:00	92.4	ND	ND	ND	ND	14.1	ND	ND	ND	ND	0	0
79582	2019-02-25T21:00:00	95.5	ND	ND	ND	ND	13.3	ND	ND	ND	ND	0	0
79583	2019-02-25T22:00:00	36.1	ND	ND	ND	ND	16.5	ND	ND	ND	ND	0	0
79584	2019-02-25T23:00:00	17.3	ND	ND	ND	ND	17.5	ND	ND	ND	ND	0	0
79585	2019-02-26T00:00:00	7.3	ND	ND	ND	ND	15.4	ND	ND	ND	ND	0	0
79586	2019-02-26T01:00:00	59.7	ND	ND	ND	ND	7.2	ND	ND	ND	ND	0	0
79587	2019-02-26T02:00:00	78.9	ND	ND	ND	ND	12.1	ND	ND	ND	ND	0	0
79588	2019-02-26T03:00:00	26.5	ND	ND	ND	ND	16.8	ND	ND	ND	ND	0	0
79589	2019-02-26T04:00:00	10.2	ND	ND	ND	ND	13.7	ND	ND	ND	ND	0	0
79590	2019-02-26T05:00:00	20	ND	ND	ND	ND	10.6	ND	ND	ND	ND	0	0
79591	2019-02-26T06:00:00	24.3	ND	ND	ND	ND	9.1	ND	ND	ND	ND	0	0
79592	2019-02-26T07:00:00	29.5	ND	ND	ND	ND	1.8	ND	ND	ND	ND	0	0
79593	2019-02-26T08:00:00	62.9	ND	ND	ND	ND	2.5	ND	ND	ND	ND	40.9	0
79594	2019-02-26T09:00:00	90.2	ND	ND	ND	ND	2.5	ND	ND	ND	ND	111.9	0
79595	2019-02-26T10:00:00	93.1	ND	ND	ND	ND	4.1	ND	ND	ND	ND	132.8	0
79596	2019-02-26T11:00:00	107.7	ND	ND	ND	ND	7.9	ND	ND	ND	ND	283.1	0
79597	2019-02-26T12:00:00	95.5	ND	ND	ND	ND	18.3	ND	ND	ND	ND	505.4	0
79598	2019-02-26T13:00:00	74.6	ND	ND	ND	ND	30.2	ND	ND	ND	ND	647.1	0
79599	2019-02-26T14:00:00	41.6	ND	ND	ND	ND	46.2	ND	ND	ND	ND	644.5	0
79600	2019-02-26T15:00:00	30.9	ND	ND	ND	ND	43.8	ND	ND	ND	ND	647	0
79601	2019-02-26T16:00:00	39.3	ND	ND	ND	ND	36.7	ND	ND	ND	ND	644.2	0
79602	2019-02-26T17:00:00	52.6	ND	ND	ND	ND	35.2	ND	ND	ND	ND	530.6	0
79603	2019-02-26T18:00:00	37.5	ND	ND	ND	ND	12.1	ND	ND	ND	ND	193	0
79604	2019-02-26T19:00:00	36.2	ND	ND	ND	ND	8.8	ND	ND	ND	ND	0	0
79605	2019-02-26T20:00:00	34.7	ND	ND	ND	ND	8.8	ND	ND	ND	ND	0	0
79606	2019-02-26T21:00:00	30.8	ND	ND	ND	ND	15.5	ND	ND	ND	ND	0	0
79607	2019-02-26T22:00:00	16	ND	ND	ND	ND	15.3	ND	ND	ND	ND	0	0
79608	2019-02-26T23:00:00	36.5	ND	ND	ND	ND	5.5	ND	ND	ND	ND	0	0
79609	2019-02-27T00:00:00	29.7	ND	ND	ND	ND	3.7	ND	ND	ND	ND	0	0
79610	2019-02-27T01:00:00	59.3	ND	ND	ND	ND	11.2	ND	ND	ND	ND	0	0
79611	2019-02-27T02:00:00	33.1	ND	ND	ND	ND	14.3	ND	ND	ND	ND	0	0
79612	2019-02-27T03:00:00	25.6	ND	ND	ND	ND	19.5	ND	ND	ND	ND	0	0
79613	2019-02-27T04:00:00	6.4	ND	ND	ND	ND	19.1	ND	ND	ND	ND	0	0
79614	2019-02-27T05:00:00	11.2	ND	ND	ND	ND	19	ND	ND	ND	ND	0	0
79615	2019-02-27T06:00:00	6.8	ND	ND	ND	ND	13.9	ND	ND	ND	ND	0	0
79616	2019-02-27T07:00:00	20.9	ND	ND	ND	ND	2.9	ND	ND	ND	ND	0	0
79617	2019-02-27T08:00:00	26.5	ND	ND	ND	ND	2.1	ND	ND	ND	ND	36.7	0.25
79618	2019-02-27T09:00:00	45	ND	ND	ND	ND	4.6	ND	ND	ND	ND	129.4	0
79619	2019-02-27T10:00:00	48.1	ND	ND	ND	ND	13.6	ND	ND	ND	ND	283.1	0
79620	2019-02-27T11:00:00	48.9	ND	ND	ND	ND	21.7	ND	ND	ND	ND	634	0.25
79621	2019-02-27T12:00:00	38	ND	ND	ND	ND	32.5	ND	ND	ND	ND	647.1	0
79622	2019-02-27T13:00:00	37.8	ND	ND	ND	ND	42.9	ND	ND	ND	ND	647.4	0
79623	2019-02-27T14:00:00	39.5	ND	ND	ND	ND	50.1	ND	ND	ND	ND	647.3	0
79624	2019-02-27T15:00:00	46.6	ND	ND	ND	ND	45.2	ND	ND	ND	ND	646.6	0
79625	2019-02-27T16:00:00	47.6	ND	ND	ND	ND	58.9	ND	ND	ND	ND	613.9	0
79626	2019-02-27T17:00:00	35.6	ND	ND	ND	ND	46.2	ND	ND	ND	ND	560	0
79627	2019-02-27T18:00:00	32.3	ND	ND	ND	ND	14.4	ND	ND	ND	ND	210.5	0
79628	2019-02-27T19:00:00	16.2	ND	ND	ND	ND	5.1	ND	ND	ND	ND	0	0
79629	2019-02-27T20:00:00	60.6	ND	ND	ND	ND	3.1	ND	ND	ND	ND	0	0
79630	2019-02-27T21:00:00	35.2	ND	ND	ND	ND	4	ND	ND	ND	ND	0	0
79631	2019-02-27T22:00:00	31.5	ND	ND	ND	ND	1.7	ND	ND	ND	ND	0	0
79632	2019-02-27T23:00:00	83.2	ND	ND	ND	ND	1	ND	ND	ND	ND	0	0
79633	2019-02-28T00:00:00	60.5	ND	ND	ND	ND	2.6	ND	ND	ND	ND	0	0
79634	2019-02-28T01:00:00	63.2	ND	ND	ND	ND	3.7	ND	ND	ND	ND	0	0
79635	2019-02-28T02:00:00	43.6	ND	ND	ND	ND	3.9	ND	ND	ND	ND	0	0
79636	2019-02-28T03:00:00	46.2	ND	ND	ND	ND	6.2	ND	ND	ND	ND	0	0
79637	2019-02-28T04:00:00	27	ND	ND	ND	ND	5.2	ND	ND	ND	ND	0	0
79638	2019-02-28T05:00:00	45.4	ND	ND	ND	ND	6.6	ND	ND	ND	ND	0	0
79639	2019-02-28T06:00:00	40.1	ND	ND	ND	ND	9	ND	ND	ND	ND	0	3.3
79640	2019-02-28T07:00:00	34.6	ND	ND	ND	ND	2.2	ND	ND	ND	ND	0	0.51
79641	2019-02-28T08:00:00	39.7	ND	ND	ND	ND	2.2	ND	ND	ND	ND	16.5	0
79642	2019-02-28T09:00:00	46.1	ND	ND	ND	ND	4.1	ND	ND	ND	ND	136.4	0.25
79643	2019-02-28T10:00:00	59.1	ND	ND	ND	ND	14.4	ND	ND	ND	ND	374.3	0
79644	2019-02-28T11:00:00	61.1	ND	ND	ND	ND	24.8	ND	ND	ND	ND	644.5	0
79645	2019-02-28T12:00:00	57.2	ND	ND	ND	ND	45	ND	ND	ND	ND	628	0
79646	2019-02-28T13:00:00	45.9	ND	ND	ND	ND	61.2	ND	ND	ND	ND	635.1	0
79647	2019-02-28T14:00:00	39.2	ND	ND	ND	ND	67.2	ND	ND	ND	ND	609.5	0
79648	2019-02-28T15:00:00	35.9	ND	ND	ND	ND	75.1	ND	ND	ND	ND	646	0
79649	2019-02-28T16:00:00	53.3	ND	ND	ND	ND	68.7	ND	ND	ND	ND	647.5	0
79650	2019-02-28T17:00:00	51.9	ND	ND	ND	ND	48.6	ND	ND	ND	ND	565.7	0
79651	2019-02-28T18:00:00	35.7	ND	ND	ND	ND	19.3	ND	ND	ND	ND	479.8	0
79652	2019-02-28T19:00:00	19	ND	ND	ND	ND	12.7	ND	ND	ND	ND	0	0
79653	2019-02-28T20:00:00	27.8	ND	ND	ND	ND	16.5	ND	ND	ND	ND	0	0
79654	2019-02-28T21:00:00	43.4	ND	ND	ND	ND	17.4	ND	ND	ND	ND	0	0
79655	2019-02-28T22:00:00	34.6	ND	ND	ND	ND	7.1	ND	ND	ND	ND	0	0
79656	2019-02-28T23:00:00	58.9	ND	ND	ND	ND	10.4	ND	ND	ND	ND	0	0
79657	2019-03-01T00:00:00	59.3	ND	ND	ND	ND	5.4	ND	ND	ND	ND	0	0
79658	2019-03-01T01:00:00	56.9	ND	ND	ND	ND	10.5	ND	ND	ND	ND	0	0
79659	2019-03-01T02:00:00	33.3	ND	ND	ND	ND	17.9	ND	ND	ND	ND	0	0
79660	2019-03-01T03:00:00	30.5	ND	ND	ND	ND	8.8	ND	ND	ND	ND	0	0
79661	2019-03-01T04:00:00	37	ND	ND	ND	ND	6.6	ND	ND	ND	ND	0	0
79662	2019-03-01T05:00:00	51.2	ND	ND	ND	ND	1.8	ND	ND	ND	ND	0	0
79663	2019-03-01T06:00:00	64.7	ND	ND	ND	ND	2.5	ND	ND	ND	ND	0	0
79664	2019-03-01T07:00:00	63	ND	ND	ND	ND	1.3	ND	ND	ND	ND	0	0
79665	2019-03-01T08:00:00	98.3	ND	ND	ND	ND	3	ND	ND	ND	ND	31	0
79666	2019-03-01T09:00:00	86.4	ND	ND	ND	ND	5.5	ND	ND	ND	ND	64	0
79667	2019-03-01T10:00:00	82.1	ND	ND	ND	ND	13.3	ND	ND	ND	ND	346.2	0
79668	2019-03-01T11:00:00	87	ND	ND	ND	ND	29	ND	ND	ND	ND	633.8	0
79669	2019-03-01T12:00:00	81.1	ND	ND	ND	ND	52.3	ND	ND	ND	ND	647.3	0
79670	2019-03-01T13:00:00	63.2	ND	ND	ND	ND	48.3	ND	ND	ND	ND	647.2	0
79671	2019-03-01T14:00:00	42.7	ND	ND	ND	ND	63.9	ND	ND	ND	ND	647	0
79672	2019-03-01T15:00:00	30.4	ND	ND	ND	ND	75.4	ND	ND	ND	ND	647.9	0
79673	2019-03-01T16:00:00	60.6	ND	ND	ND	ND	33.1	ND	ND	ND	ND	608.7	0
79674	2019-03-01T17:00:00	45.5	ND	ND	ND	ND	20.4	ND	ND	ND	ND	625	0
79675	2019-03-01T18:00:00	18.4	ND	ND	ND	ND	16.3	ND	ND	ND	ND	419.3	0
79676	2019-03-01T19:00:00	16.5	ND	ND	ND	ND	13.8	ND	ND	ND	ND	0	0
79677	2019-03-01T20:00:00	18.9	ND	ND	ND	ND	10.3	ND	ND	ND	ND	0	0
79678	2019-03-01T21:00:00	12.6	ND	ND	ND	ND	6.5	ND	ND	ND	ND	0	0
79679	2019-03-01T22:00:00	54.5	ND	ND	ND	ND	3.7	ND	ND	ND	ND	0	0
79680	2019-03-01T23:00:00	41.1	ND	ND	ND	ND	10.8	ND	ND	ND	ND	0	0
79681	2019-03-02T00:00:00	64.9	ND	ND	ND	ND	4.9	ND	ND	ND	ND	0	0
79682	2019-03-02T01:00:00	40.6	ND	ND	ND	ND	4	ND	ND	ND	ND	0	0
79683	2019-03-02T02:00:00	58.9	ND	ND	ND	ND	3.8	ND	ND	ND	ND	0	0
79684	2019-03-02T03:00:00	79.8	ND	ND	ND	ND	1	ND	ND	ND	ND	0	0
79685	2019-03-02T04:00:00	83.4	ND	ND	ND	ND	1.4	ND	ND	ND	ND	0	0
79686	2019-03-02T05:00:00	63.2	ND	ND	ND	ND	4.4	ND	ND	ND	ND	0	0
79687	2019-03-02T06:00:00	44.3	ND	ND	ND	ND	1	ND	ND	ND	ND	0	0
79688	2019-03-02T07:00:00	53.6	ND	ND	ND	ND	1.4	ND	ND	ND	ND	0	0
79689	2019-03-02T08:00:00	51.5	ND	ND	ND	ND	1.4	ND	ND	ND	ND	11.7	0
79690	2019-03-02T09:00:00	140.3	ND	ND	ND	ND	3.8	ND	ND	ND	ND	104.3	0
79691	2019-03-02T10:00:00	148.4	ND	ND	ND	ND	10.9	ND	ND	ND	ND	534.3	0
79692	2019-03-02T11:00:00	110.3	ND	ND	ND	ND	29.4	ND	ND	ND	ND	645.5	0
79693	2019-03-02T12:00:00	94.3	ND	ND	ND	ND	49	ND	ND	ND	ND	647.1	0
79694	2019-03-02T13:00:00	93.4	ND	ND	ND	ND	76	ND	ND	ND	ND	645.8	0
79695	2019-03-02T14:00:00	78.4	ND	ND	ND	ND	61.2	ND	ND	ND	ND	634	0
79696	2019-03-02T15:00:00	60.1	ND	ND	ND	ND	65.4	ND	ND	ND	ND	647.3	0
79697	2019-03-02T16:00:00	54.5	ND	ND	ND	ND	81.2	ND	ND	ND	ND	642.1	0
79698	2019-03-02T17:00:00	48	ND	ND	ND	ND	50.9	ND	ND	ND	ND	413.5	0
79699	2019-03-02T18:00:00	35.3	ND	ND	ND	ND	31.2	ND	ND	ND	ND	134.1	0
79700	2019-03-02T19:00:00	40.1	ND	ND	ND	ND	21	ND	ND	ND	ND	0	0
79701	2019-03-02T20:00:00	52.9	ND	ND	ND	ND	16.3	ND	ND	ND	ND	0	0
79702	2019-03-02T21:00:00	51.9	ND	ND	ND	ND	8.6	ND	ND	ND	ND	0	0
79703	2019-03-02T22:00:00	38.3	ND	ND	ND	ND	4.3	ND	ND	ND	ND	0	0
79704	2019-03-02T23:00:00	79.6	ND	ND	ND	ND	1.1	ND	ND	ND	ND	0	0
79705	2019-03-03T00:00:00	83.8	ND	ND	ND	ND	3.3	ND	ND	ND	ND	0	0
79706	2019-03-03T01:00:00	39.4	ND	ND	ND	ND	12.2	ND	ND	ND	ND	0	0
79707	2019-03-03T02:00:00	42.9	ND	ND	ND	ND	1.1	ND	ND	ND	ND	0	0
79708	2019-03-03T03:00:00	62	ND	ND	ND	ND	1.7	ND	ND	ND	ND	0	0
79709	2019-03-03T04:00:00	70	ND	ND	ND	ND	1.3	ND	ND	ND	ND	0	0
79710	2019-03-03T05:00:00	72.7	ND	ND	ND	ND	2	ND	ND	ND	ND	0	0
79711	2019-03-03T06:00:00	55	ND	ND	ND	ND	2.7	ND	ND	ND	ND	0	0
79712	2019-03-03T07:00:00	52.7	ND	ND	ND	ND	1.3	ND	ND	ND	ND	0	0
79713	2019-03-03T08:00:00	73.9	ND	ND	ND	ND	2.6	ND	ND	ND	ND	35.4	0
79714	2019-03-03T09:00:00	87.6	ND	ND	ND	ND	10.1	ND	ND	ND	ND	309.6	0
79715	2019-03-03T10:00:00	87.4	ND	ND	ND	ND	29.6	ND	ND	ND	ND	625.8	0
79716	2019-03-03T11:00:00	74.6	ND	ND	ND	ND	48.7	ND	ND	ND	ND	647.6	0
79717	2019-03-03T12:00:00	59.4	ND	ND	ND	ND	64.6	ND	ND	ND	ND	647.1	0
79718	2019-03-03T13:00:00	64.9	ND	ND	ND	ND	74.3	ND	ND	ND	ND	647.7	0
79719	2019-03-03T14:00:00	50.2	ND	ND	ND	ND	73.6	ND	ND	ND	ND	647.6	0
79720	2019-03-03T15:00:00	42.5	ND	ND	ND	ND	43.4	ND	ND	ND	ND	645.3	0
79721	2019-03-03T16:00:00	28	ND	ND	ND	ND	24.9	ND	ND	ND	ND	505.4	0
79722	2019-03-03T17:00:00	21.5	ND	ND	ND	ND	21.2	ND	ND	ND	ND	581.3	0
79723	2019-03-03T18:00:00	32.6	ND	ND	ND	ND	20.4	ND	ND	ND	ND	270.9	0
79724	2019-03-03T19:00:00	35.8	ND	ND	ND	ND	28.3	ND	ND	ND	ND	0	0
79725	2019-03-03T20:00:00	26.7	ND	ND	ND	ND	13.4	ND	ND	ND	ND	0	0
79726	2019-03-03T21:00:00	53.6	ND	ND	ND	ND	6.8	ND	ND	ND	ND	0	0
79727	2019-03-03T22:00:00	54.6	ND	ND	ND	ND	9.4	ND	ND	ND	ND	0	0
79728	2019-03-03T23:00:00	41.7	ND	ND	ND	ND	6.6	ND	ND	ND	ND	0	0
79729	2019-03-04T00:00:00	43.7	ND	ND	ND	ND	7.1	ND	ND	ND	ND	0	0
79730	2019-03-04T01:00:00	43.9	ND	ND	ND	ND	9.1	ND	ND	ND	ND	0	0
79731	2019-03-04T02:00:00	38.3	ND	ND	ND	ND	6.3	ND	ND	ND	ND	0	0
79732	2019-03-04T03:00:00	45.7	ND	ND	ND	ND	4.6	ND	ND	ND	ND	0	0
79733	2019-03-04T04:00:00	46.8	ND	ND	ND	ND	4.1	ND	ND	ND	ND	0	0
79734	2019-03-04T05:00:00	43.1	ND	ND	ND	ND	4.4	ND	ND	ND	ND	0	0
79735	2019-03-04T06:00:00	42.1	ND	ND	ND	ND	1	ND	ND	ND	ND	0	0
79736	2019-03-04T07:00:00	69.1	ND	ND	ND	ND	1	ND	ND	ND	ND	0	0
79737	2019-03-04T08:00:00	69.2	ND	ND	ND	ND	2	ND	ND	ND	ND	27.1	0
79738	2019-03-04T09:00:00	98.6	ND	ND	ND	ND	9.1	ND	ND	ND	ND	407.5	0
79739	2019-03-04T10:00:00	99.6	ND	ND	ND	ND	21.5	ND	ND	ND	ND	639.9	0
79740	2019-03-04T11:00:00	80.1	ND	ND	ND	ND	38.3	ND	ND	ND	ND	647.6	0
79741	2019-03-04T12:00:00	130.8	ND	ND	ND	ND	48.7	ND	ND	ND	ND	647.4	0
79742	2019-03-04T13:00:00	86.9	ND	ND	ND	ND	44.9	ND	ND	ND	ND	648.3	0
79743	2019-03-04T14:00:00	59.1	ND	ND	ND	ND	50.4	ND	ND	ND	ND	645.6	0
79744	2019-03-04T15:00:00	54.3	ND	ND	ND	ND	36.7	ND	ND	ND	ND	582.1	0
79745	2019-03-04T16:00:00	49.2	ND	ND	ND	ND	27.8	ND	ND	ND	ND	648	0
79746	2019-03-04T17:00:00	34.5	ND	ND	ND	ND	18.5	ND	ND	ND	ND	573.3	0
79747	2019-03-04T18:00:00	34.6	ND	ND	ND	ND	16.6	ND	ND	ND	ND	243.2	0
79748	2019-03-04T19:00:00	35.3	ND	ND	ND	ND	14.8	ND	ND	ND	ND	0	0
79749	2019-03-04T20:00:00	29.3	ND	ND	ND	ND	12.1	ND	ND	ND	ND	0	0
79750	2019-03-04T21:00:00	26.6	ND	ND	ND	ND	11.3	ND	ND	ND	ND	0	0
79751	2019-03-04T22:00:00	25.2	ND	ND	ND	ND	12.5	ND	ND	ND	ND	0	0
79752	2019-03-04T23:00:00	22.8	ND	ND	ND	ND	13	ND	ND	ND	ND	0	0
79753	2019-03-05T00:00:00	37.4	ND	ND	ND	ND	12.1	ND	ND	ND	ND	0	0
79754	2019-03-05T01:00:00	56.2	ND	ND	ND	ND	6	ND	ND	ND	ND	0	0
79755	2019-03-05T02:00:00	44.6	ND	ND	ND	ND	8.8	ND	ND	ND	ND	0	0
79756	2019-03-05T03:00:00	36.5	ND	ND	ND	ND	7.7	ND	ND	ND	ND	0	0
79757	2019-03-05T04:00:00	33.1	ND	ND	ND	ND	5.4	ND	ND	ND	ND	0	0
79758	2019-03-05T05:00:00	48.8	ND	ND	ND	ND	3.8	ND	ND	ND	ND	0	0
79759	2019-03-05T06:00:00	29	ND	ND	ND	ND	1.2	ND	ND	ND	ND	0	0
79760	2019-03-05T07:00:00	55.2	ND	ND	ND	ND	2.1	ND	ND	ND	ND	0	0
79761	2019-03-05T08:00:00	86.7	ND	ND	ND	ND	2.3	ND	ND	ND	ND	41	0
79762	2019-03-05T09:00:00	94.7	ND	ND	ND	ND	4.1	ND	ND	ND	ND	297.6	0
79763	2019-03-05T10:00:00	94.6	ND	ND	ND	ND	12.2	ND	ND	ND	ND	583.7	0
79764	2019-03-05T11:00:00	80.9	ND	ND	ND	ND	29.5	ND	ND	ND	ND	647.6	0
79765	2019-03-05T12:00:00	81	ND	ND	ND	ND	46.2	ND	ND	ND	ND	647.8	0
79766	2019-03-05T13:00:00	95.8	ND	ND	ND	ND	62	ND	ND	ND	ND	602.2	0
79767	2019-03-05T14:00:00	86	ND	ND	ND	ND	96.1	ND	ND	ND	ND	647.5	0
79768	2019-03-05T15:00:00	144	ND	ND	ND	ND	74.8	ND	ND	ND	ND	651.9	0
79769	2019-03-05T16:00:00	30	ND	ND	ND	ND	69.9	ND	ND	ND	ND	620.4	0
79770	2019-03-05T17:00:00	36.4	ND	ND	ND	ND	42	ND	ND	ND	ND	570.9	0
79771	2019-03-05T18:00:00	47	ND	ND	ND	ND	20.2	ND	ND	ND	ND	588.1	0
79772	2019-03-05T19:00:00	39.6	ND	ND	ND	ND	16.9	ND	ND	ND	ND	0	0
79773	2019-03-05T20:00:00	31.8	ND	ND	ND	ND	17.6	ND	ND	ND	ND	0	0
79774	2019-03-05T21:00:00	30.9	ND	ND	ND	ND	10.1	ND	ND	ND	ND	0	0
79775	2019-03-05T22:00:00	53.3	ND	ND	ND	ND	2.2	ND	ND	ND	ND	0	0
79776	2019-03-05T23:00:00	81.5	ND	ND	ND	ND	3.7	ND	ND	ND	ND	0	0
79777	2019-03-06T00:00:00	48	ND	ND	ND	ND	6.3	ND	ND	ND	ND	0	0
79778	2019-03-06T01:00:00	43	ND	ND	ND	ND	2.9	ND	ND	ND	ND	0	0
79779	2019-03-06T02:00:00	61.1	ND	ND	ND	ND	3.2	ND	ND	ND	ND	0	0
79780	2019-03-06T03:00:00	45	ND	ND	ND	ND	7.1	ND	ND	ND	ND	0	0
79781	2019-03-06T04:00:00	38.3	ND	ND	ND	ND	4.3	ND	ND	ND	ND	0	0
79782	2019-03-06T05:00:00	54.7	ND	ND	ND	ND	1.6	ND	ND	ND	ND	0	0
79783	2019-03-06T06:00:00	83.3	ND	ND	ND	ND	1.1	ND	ND	ND	ND	0	0
79784	2019-03-06T07:00:00	103.8	ND	ND	ND	ND	1.2	ND	ND	ND	ND	0	0
79785	2019-03-06T08:00:00	109	ND	ND	ND	ND	1.9	ND	ND	ND	ND	46.3	0
79786	2019-03-06T09:00:00	139.4	ND	ND	ND	ND	9.8	ND	ND	ND	ND	304.3	0
79787	2019-03-06T10:00:00	90.8	ND	ND	ND	ND	23.4	ND	ND	ND	ND	643	0
79788	2019-03-06T11:00:00	69.8	ND	ND	ND	ND	47.5	ND	ND	ND	ND	647.7	0
79789	2019-03-06T12:00:00	63.9	ND	ND	ND	ND	60.6	ND	ND	ND	ND	647.8	0
79790	2019-03-06T13:00:00	77.4	ND	ND	ND	ND	67.9	ND	ND	ND	ND	648	0
79791	2019-03-06T14:00:00	79.5	ND	ND	ND	ND	78.5	ND	ND	ND	ND	645.9	0
79792	2019-03-06T15:00:00	66.3	ND	ND	ND	ND	76	ND	ND	ND	ND	648.4	0
79793	2019-03-06T16:00:00	51.8	ND	ND	ND	ND	33.2	ND	ND	ND	ND	648.2	0
79794	2019-03-06T17:00:00	46.8	ND	ND	ND	ND	30.4	ND	ND	ND	ND	648.3	0
79795	2019-03-06T18:00:00	35.9	ND	ND	ND	ND	25.4	ND	ND	ND	ND	499.6	0
79796	2019-03-06T19:00:00	50.1	ND	ND	ND	ND	23.7	ND	ND	ND	ND	0	0
79797	2019-03-06T20:00:00	31.4	ND	ND	ND	ND	25.9	ND	ND	ND	ND	0	0
79798	2019-03-06T21:00:00	34.4	ND	ND	ND	ND	21.8	ND	ND	ND	ND	0	0
79799	2019-03-06T22:00:00	22.1	ND	ND	ND	ND	20.1	ND	ND	ND	ND	0	0
79800	2019-03-06T23:00:00	19.3	ND	ND	ND	ND	23.5	ND	ND	ND	ND	0	0
79801	2019-03-07T00:00:00	28.8	ND	ND	ND	ND	8.6	ND	ND	ND	ND	0	0
79802	2019-03-07T01:00:00	38.9	ND	ND	ND	ND	8	ND	ND	ND	ND	0	0
79803	2019-03-07T02:00:00	37.8	ND	ND	ND	ND	2.5	ND	ND	ND	ND	0	0
79804	2019-03-07T03:00:00	47.2	ND	ND	ND	ND	6.5	ND	ND	ND	ND	0	0
79805	2019-03-07T04:00:00	47.7	ND	ND	ND	ND	3.9	ND	ND	ND	ND	0	0
79806	2019-03-07T05:00:00	55.1	ND	ND	ND	ND	3.1	ND	ND	ND	ND	0	0
79807	2019-03-07T06:00:00	63.1	ND	ND	ND	ND	1.6	ND	ND	ND	ND	0	0
79808	2019-03-07T07:00:00	89.9	ND	ND	ND	ND	1.4	ND	ND	ND	ND	0	0
79809	2019-03-07T08:00:00	109	ND	ND	ND	ND	1.9	ND	ND	ND	ND	22.1	0
79810	2019-03-07T09:00:00	136.4	ND	ND	ND	ND	3.7	ND	ND	ND	ND	134.7	0
79811	2019-03-07T10:00:00	135.8	ND	ND	ND	ND	18.6	ND	ND	ND	ND	428.5	0
79812	2019-03-07T11:00:00	114.2	ND	ND	ND	ND	31	ND	ND	ND	ND	647.5	0
79813	2019-03-07T12:00:00	111	ND	ND	ND	ND	52.3	ND	ND	ND	ND	643.4	0
79814	2019-03-07T13:00:00	107.1	ND	ND	ND	ND	82.2	ND	ND	ND	ND	639.6	0
79815	2019-03-07T14:00:00	81.1	ND	ND	ND	ND	63	ND	ND	ND	ND	648.1	0
79816	2019-03-07T15:00:00	32	ND	ND	ND	ND	58	ND	ND	ND	ND	648	0
79817	2019-03-07T16:00:00	77.1	ND	ND	ND	ND	61.5	ND	ND	ND	ND	577.8	0
79818	2019-03-07T17:00:00	70.6	ND	ND	ND	ND	24.2	ND	ND	ND	ND	497.8	0
79819	2019-03-07T18:00:00	39.9	ND	ND	ND	ND	18.2	ND	ND	ND	ND	275.5	0
79820	2019-03-07T19:00:00	3.3	ND	ND	ND	ND	14.5	ND	ND	ND	ND	0	0
79821	2019-03-07T20:00:00	33.6	ND	ND	ND	ND	17.9	ND	ND	ND	ND	0	0
79822	2019-03-07T21:00:00	43.2	ND	ND	ND	ND	18.3	ND	ND	ND	ND	0	0
79823	2019-03-07T22:00:00	54.7	ND	ND	ND	ND	7.9	ND	ND	ND	ND	0	0
79824	2019-03-07T23:00:00	59.8	ND	ND	ND	ND	19.5	ND	ND	ND	ND	0	0
79825	2019-03-08T00:00:00	55.9	ND	ND	ND	ND	13.3	ND	ND	ND	ND	0	0
79826	2019-03-08T01:00:00	46.9	ND	ND	ND	ND	11.2	ND	ND	ND	ND	0	0
79827	2019-03-08T02:00:00	55.8	ND	ND	ND	ND	14.2	ND	ND	ND	ND	0	0
79828	2019-03-08T03:00:00	51.2	ND	ND	ND	ND	10.2	ND	ND	ND	ND	0	0
79829	2019-03-08T04:00:00	48.2	ND	ND	ND	ND	6	ND	ND	ND	ND	0	0
79830	2019-03-08T05:00:00	43.2	ND	ND	ND	ND	4.2	ND	ND	ND	ND	0	0
79831	2019-03-08T06:00:00	65.6	ND	ND	ND	ND	1.3	ND	ND	ND	ND	0	0
79832	2019-03-08T07:00:00	86.6	ND	ND	ND	ND	1.2	ND	ND	ND	ND	0	0
79833	2019-03-08T08:00:00	99.2	ND	ND	ND	ND	2.5	ND	ND	ND	ND	50.5	0
79834	2019-03-08T09:00:00	112.5	ND	ND	ND	ND	6.7	ND	ND	ND	ND	223.9	0
79835	2019-03-08T10:00:00	91.4	ND	ND	ND	ND	23.8	ND	ND	ND	ND	552.7	0
79836	2019-03-08T11:00:00	62.5	ND	ND	ND	ND	39.3	ND	ND	ND	ND	648	0
79837	2019-03-08T12:00:00	62.5	ND	ND	ND	ND	51.8	ND	ND	ND	ND	647.9	0
79838	2019-03-08T13:00:00	61.8	ND	ND	ND	ND	67.5	ND	ND	ND	ND	648	0
79839	2019-03-08T14:00:00	76.1	ND	ND	ND	ND	75.4	ND	ND	ND	ND	648.6	0
79840	2019-03-08T15:00:00	71.9	ND	ND	ND	ND	74.9	ND	ND	ND	ND	635.1	0
79841	2019-03-08T16:00:00	61.1	ND	ND	ND	ND	65.2	ND	ND	ND	ND	648.3	0
79842	2019-03-08T17:00:00	66.4	ND	ND	ND	ND	42.6	ND	ND	ND	ND	625.5	0
79843	2019-03-08T18:00:00	68.7	ND	ND	ND	ND	27.3	ND	ND	ND	ND	405.5	0
79844	2019-03-08T19:00:00	53.7	ND	ND	ND	ND	16.9	ND	ND	ND	ND	0	0
79845	2019-03-08T20:00:00	38.1	ND	ND	ND	ND	14.6	ND	ND	ND	ND	0	0
79846	2019-03-08T21:00:00	36.8	ND	ND	ND	ND	20.1	ND	ND	ND	ND	0	0
79847	2019-03-08T22:00:00	25.6	ND	ND	ND	ND	20.8	ND	ND	ND	ND	0	0
79848	2019-03-08T23:00:00	17	ND	ND	ND	ND	20.1	ND	ND	ND	ND	0	0
79849	2019-03-09T00:00:00	32.6	ND	ND	ND	ND	7.3	ND	ND	ND	ND	0	0
79850	2019-03-09T01:00:00	55.1	ND	ND	ND	ND	4.7	ND	ND	ND	ND	0	0
79851	2019-03-09T02:00:00	60.6	ND	ND	ND	ND	3.7	ND	ND	ND	ND	0	0
79852	2019-03-09T03:00:00	70.7	ND	ND	ND	ND	6	ND	ND	ND	ND	0	0
79853	2019-03-09T04:00:00	69.8	ND	ND	ND	ND	5.6	ND	ND	ND	ND	0	0
79854	2019-03-09T05:00:00	60.3	ND	ND	ND	ND	3.2	ND	ND	ND	ND	0	0
79855	2019-03-09T06:00:00	87.7	ND	ND	ND	ND	1.3	ND	ND	ND	ND	0	0
79856	2019-03-09T07:00:00	98	ND	ND	ND	ND	1.5	ND	ND	ND	ND	0	0
79857	2019-03-09T08:00:00	126.8	ND	ND	ND	ND	2.7	ND	ND	ND	ND	63.8	0
79858	2019-03-09T09:00:00	127.2	ND	ND	ND	ND	11.3	ND	ND	ND	ND	465.3	0
79859	2019-03-09T10:00:00	118	ND	ND	ND	ND	25.1	ND	ND	ND	ND	599.4	0
79860	2019-03-09T11:00:00	109.2	ND	ND	ND	ND	45.9	ND	ND	ND	ND	647.6	0
79861	2019-03-09T12:00:00	98.2	ND	ND	ND	ND	66.3	ND	ND	ND	ND	644.3	0
79862	2019-03-09T13:00:00	90.9	ND	ND	ND	ND	88.8	ND	ND	ND	ND	647.1	0
79863	2019-03-09T14:00:00	91.9	ND	ND	ND	ND	109.8	ND	ND	ND	ND	648.2	0
79864	2019-03-09T15:00:00	83.9	ND	ND	ND	ND	105.1	ND	ND	ND	ND	648.3	0
79865	2019-03-09T16:00:00	89.5	ND	ND	ND	ND	72	ND	ND	ND	ND	648.7	0
79866	2019-03-09T17:00:00	68.1	ND	ND	ND	ND	48	ND	ND	ND	ND	368	0
79867	2019-03-09T18:00:00	58	ND	ND	ND	ND	34.8	ND	ND	ND	ND	597.9	0
79868	2019-03-09T19:00:00	46.1	ND	ND	ND	ND	25.3	ND	ND	ND	ND	0	0
79869	2019-03-09T20:00:00	39.4	ND	ND	ND	ND	29.9	ND	ND	ND	ND	0	0
79870	2019-03-09T21:00:00	30.5	ND	ND	ND	ND	25.8	ND	ND	ND	ND	0	0
79871	2019-03-09T22:00:00	22.4	ND	ND	ND	ND	20.8	ND	ND	ND	ND	0	0
79872	2019-03-09T23:00:00	23.1	ND	ND	ND	ND	19.8	ND	ND	ND	ND	0	0
79873	2019-03-10T00:00:00	29.1	ND	ND	ND	ND	9.3	ND	ND	ND	ND	0	0
79874	2019-03-10T01:00:00	52.4	ND	ND	ND	ND	6.3	ND	ND	ND	ND	0	0
79875	2019-03-10T02:00:00	44.9	ND	ND	ND	ND	7.4	ND	ND	ND	ND	0	0
79876	2019-03-10T03:00:00	63.5	ND	ND	ND	ND	6	ND	ND	ND	ND	0	0
79877	2019-03-10T04:00:00	67.4	ND	ND	ND	ND	3.9	ND	ND	ND	ND	0	0
79878	2019-03-10T05:00:00	72.2	ND	ND	ND	ND	2.9	ND	ND	ND	ND	0	0
79879	2019-03-10T06:00:00	78	ND	ND	ND	ND	2.1	ND	ND	ND	ND	0	0
79880	2019-03-10T07:00:00	89.5	ND	ND	ND	ND	1.3	ND	ND	ND	ND	0	0
79881	2019-03-10T08:00:00	93.1	ND	ND	ND	ND	2.8	ND	ND	ND	ND	16.2	0
79882	2019-03-10T09:00:00	88	ND	ND	ND	ND	3.7	ND	ND	ND	ND	107.1	0
79883	2019-03-10T10:00:00	71.6	ND	ND	ND	ND	11.1	ND	ND	ND	ND	222.5	0
79884	2019-03-10T11:00:00	70.3	ND	ND	ND	ND	25.9	ND	ND	ND	ND	480.1	0
79885	2019-03-10T12:00:00	65.2	ND	ND	ND	ND	44.9	ND	ND	ND	ND	647.7	0
79886	2019-03-10T13:00:00	64.4	ND	ND	ND	ND	50.3	ND	ND	ND	ND	624.3	0
79887	2019-03-10T14:00:00	52.8	ND	ND	ND	ND	50.2	ND	ND	ND	ND	643.9	0
79888	2019-03-10T15:00:00	33	ND	ND	ND	ND	31.7	ND	ND	ND	ND	503.9	0
79889	2019-03-10T16:00:00	20.6	ND	ND	ND	ND	35.8	ND	ND	ND	ND	568.2	0
79890	2019-03-10T17:00:00	27	ND	ND	ND	ND	27.5	ND	ND	ND	ND	640.9	0
79891	2019-03-10T18:00:00	28.2	ND	ND	ND	ND	18.4	ND	ND	ND	ND	419.3	0
79892	2019-03-10T19:00:00	5.6	ND	ND	ND	ND	14.8	ND	ND	ND	ND	0	0
79893	2019-03-10T20:00:00	5.5	ND	ND	ND	ND	10.6	ND	ND	ND	ND	0	0
79894	2019-03-10T21:00:00	27.3	ND	ND	ND	ND	8.4	ND	ND	ND	ND	0	2.29
79895	2019-03-10T22:00:00	31	ND	ND	ND	ND	10.3	ND	ND	ND	ND	0	0
79896	2019-03-10T23:00:00	20.7	ND	ND	ND	ND	7.9	ND	ND	ND	ND	0	0
79897	2019-03-11T00:00:00	13.2	ND	ND	ND	ND	4	ND	ND	ND	ND	0	0
79898	2019-03-11T01:00:00	27.3	ND	ND	ND	ND	4.5	ND	ND	ND	ND	0	0
79899	2019-03-11T02:00:00	41.4	ND	ND	ND	ND	7.3	ND	ND	ND	ND	0	0
79900	2019-03-11T03:00:00	25.5	ND	ND	ND	ND	10.6	ND	ND	ND	ND	0	0
79901	2019-03-11T04:00:00	24.7	ND	ND	ND	ND	10.5	ND	ND	ND	ND	0	0
79902	2019-03-11T05:00:00	14.2	ND	ND	ND	ND	8.5	ND	ND	ND	ND	0	0
79903	2019-03-11T06:00:00	30.2	ND	ND	ND	ND	3.5	ND	ND	ND	ND	0	0
79904	2019-03-11T07:00:00	68.6	ND	ND	ND	ND	1.5	ND	ND	ND	ND	0	0
79905	2019-03-11T08:00:00	66.6	ND	ND	ND	ND	2.7	ND	ND	ND	ND	75.5	0
79906	2019-03-11T09:00:00	77.7	ND	ND	ND	ND	10.2	ND	ND	ND	ND	297.6	0
79907	2019-03-11T10:00:00	64.2	ND	ND	ND	ND	20.9	ND	ND	ND	ND	613.1	0
79908	2019-03-11T11:00:00	55	ND	ND	ND	ND	33.3	ND	ND	ND	ND	643.4	0
79909	2019-03-11T12:00:00	55.4	ND	ND	ND	ND	46.6	ND	ND	ND	ND	648.3	0
79910	2019-03-11T13:00:00	63.1	ND	ND	ND	ND	55.4	ND	ND	ND	ND	648.2	0
79911	2019-03-11T14:00:00	60.8	ND	ND	ND	ND	64.9	ND	ND	ND	ND	647.7	0
79912	2019-03-11T15:00:00	69.4	ND	ND	ND	ND	66.7	ND	ND	ND	ND	648.1	0
79913	2019-03-11T16:00:00	70.6	ND	ND	ND	ND	63.6	ND	ND	ND	ND	625.1	0
79914	2019-03-11T17:00:00	71.1	ND	ND	ND	ND	52.6	ND	ND	ND	ND	648.2	0
79915	2019-03-11T18:00:00	61.2	ND	ND	ND	ND	31.1	ND	ND	ND	ND	388.5	0
79916	2019-03-11T19:00:00	53.1	ND	ND	ND	ND	19.8	ND	ND	ND	ND	0	0
79917	2019-03-11T20:00:00	41.6	ND	ND	ND	ND	19.7	ND	ND	ND	ND	0	0
79918	2019-03-11T21:00:00	28.7	ND	ND	ND	ND	21.6	ND	ND	ND	ND	0	0
79919	2019-03-11T22:00:00	24.6	ND	ND	ND	ND	19.1	ND	ND	ND	ND	0	0
79920	2019-03-11T23:00:00	13.1	ND	ND	ND	ND	19.9	ND	ND	ND	ND	0	0
79921	2019-03-12T00:00:00	24.7	ND	ND	ND	ND	4.5	ND	ND	ND	ND	0	0
79922	2019-03-12T01:00:00	46.4	ND	ND	ND	ND	6	ND	ND	ND	ND	0	0
79923	2019-03-12T02:00:00	56.1	ND	ND	ND	ND	8.7	ND	ND	ND	ND	0	0
79924	2019-03-12T03:00:00	35.3	ND	ND	ND	ND	11.7	ND	ND	ND	ND	0	0
79925	2019-03-12T04:00:00	37.7	ND	ND	ND	ND	4.1	ND	ND	ND	ND	0	2.54
79926	2019-03-12T05:00:00	52.8	ND	ND	ND	ND	3.6	ND	ND	ND	ND	0	0
79927	2019-03-12T06:00:00	38.3	ND	ND	ND	ND	2.3	ND	ND	ND	ND	0	0
79928	2019-03-12T07:00:00	50.1	ND	ND	ND	ND	1.5	ND	ND	ND	ND	0	4.06
79929	2019-03-12T08:00:00	60.9	ND	ND	ND	ND	1.4	ND	ND	ND	ND	6.1	3.56
79930	2019-03-12T09:00:00	56.5	ND	ND	ND	ND	ND	ND	ND	ND	ND	46.7	1.02
79931	2019-03-12T10:00:00	50.8	ND	ND	ND	ND	ND	ND	ND	ND	ND	168.3	0
79932	2019-03-12T11:00:00	48.2	ND	ND	ND	ND	7.3	ND	ND	ND	ND	567.1	0.25
79933	2019-03-12T12:00:00	43.8	ND	ND	ND	ND	13.8	ND	ND	ND	ND	636.1	0
79934	2019-03-12T13:00:00	60.3	ND	ND	ND	ND	16.2	ND	ND	ND	ND	648	0
79935	2019-03-12T14:00:00	81.2	ND	ND	ND	ND	24.7	ND	ND	ND	ND	618.5	0
79936	2019-03-12T15:00:00	72.6	ND	ND	ND	ND	39.3	ND	ND	ND	ND	603.3	0
79937	2019-03-12T16:00:00	78	ND	ND	ND	ND	45.9	ND	ND	ND	ND	631.7	0
79938	2019-03-12T17:00:00	73	ND	ND	ND	ND	44	ND	ND	ND	ND	526	0
79939	2019-03-12T18:00:00	71.2	ND	ND	ND	ND	36.8	ND	ND	ND	ND	455.2	0
79940	2019-03-12T19:00:00	89.3	ND	ND	ND	ND	10.4	ND	ND	ND	ND	0	0
79941	2019-03-12T20:00:00	97.7	ND	ND	ND	ND	5	ND	ND	ND	ND	0	0
79942	2019-03-12T21:00:00	74.9	ND	ND	ND	ND	4.1	ND	ND	ND	ND	0	0
79943	2019-03-12T22:00:00	53.2	ND	ND	ND	ND	2.3	ND	ND	ND	ND	0	0
79944	2019-03-12T23:00:00	43.6	ND	ND	ND	ND	3	ND	ND	ND	ND	0	0
79945	2019-03-13T00:00:00	35.6	ND	ND	ND	ND	3.2	ND	ND	ND	ND	0	0
79946	2019-03-13T01:00:00	71.9	ND	ND	ND	ND	3.3	ND	ND	ND	ND	0	0
79947	2019-03-13T02:00:00	49	ND	ND	ND	ND	6.2	ND	ND	ND	ND	0	0
79948	2019-03-13T03:00:00	39.2	ND	ND	ND	ND	1.3	ND	ND	ND	ND	0	0
79949	2019-03-13T04:00:00	48.3	ND	ND	ND	ND	2.3	ND	ND	ND	ND	0	0
79950	2019-03-13T05:00:00	50.1	ND	ND	ND	ND	1.3	ND	ND	ND	ND	0	0
79951	2019-03-13T06:00:00	82.2	ND	ND	ND	ND	1.2	ND	ND	ND	ND	0	0
79952	2019-03-13T07:00:00	132.8	ND	ND	ND	ND	1.4	ND	ND	ND	ND	0	0
79953	2019-03-13T08:00:00	136.6	ND	ND	ND	ND	1.9	ND	ND	ND	ND	57.4	0
79954	2019-03-13T09:00:00	130	ND	ND	ND	ND	3.1	ND	ND	ND	ND	333.1	0
79955	2019-03-13T10:00:00	ND	ND	ND	ND	ND	22.5	ND	ND	ND	ND	382.2	0
79956	2019-03-13T11:00:00	ND	ND	ND	ND	ND	37.2	ND	ND	ND	ND	647.6	0
79957	2019-03-13T12:00:00	ND	ND	ND	ND	ND	57.9	ND	ND	ND	ND	648.2	0
79958	2019-03-13T13:00:00	141.5	ND	ND	ND	ND	83.8	ND	ND	ND	ND	649	0
79959	2019-03-13T14:00:00	92.5	ND	ND	ND	ND	96.2	ND	ND	ND	ND	649.1	0
79960	2019-03-13T15:00:00	81.9	ND	ND	ND	ND	75.7	ND	ND	ND	ND	637.2	0
79961	2019-03-13T16:00:00	62.9	ND	ND	ND	ND	28.4	ND	ND	ND	ND	647.3	0
79962	2019-03-13T17:00:00	53.6	ND	ND	ND	ND	22.1	ND	ND	ND	ND	648.1	0
79963	2019-03-13T18:00:00	50.2	ND	ND	ND	ND	17.4	ND	ND	ND	ND	509.1	0
79964	2019-03-13T19:00:00	42.6	ND	ND	ND	ND	14.2	ND	ND	ND	ND	0	0
79965	2019-03-13T20:00:00	19.8	ND	ND	ND	ND	15.7	ND	ND	ND	ND	0	0
79966	2019-03-13T21:00:00	17.1	ND	ND	ND	ND	16.6	ND	ND	ND	ND	0	0
79967	2019-03-13T22:00:00	19.9	ND	ND	ND	ND	14.2	ND	ND	ND	ND	0	0
79968	2019-03-13T23:00:00	4.2	ND	ND	ND	ND	13.9	ND	ND	ND	ND	0	0
79969	2019-03-14T00:00:00	13	ND	ND	ND	ND	11.8	ND	ND	ND	ND	0	0
79970	2019-03-14T01:00:00	27.5	ND	ND	ND	ND	2.8	ND	ND	ND	ND	0	0
79971	2019-03-14T02:00:00	49.4	ND	ND	ND	ND	3.7	ND	ND	ND	ND	0	0
79972	2019-03-14T03:00:00	45.6	ND	ND	ND	ND	8	ND	ND	ND	ND	0	0
79973	2019-03-14T04:00:00	40.1	ND	ND	ND	ND	8.8	ND	ND	ND	ND	0	3.81
79974	2019-03-14T05:00:00	35.7	ND	ND	ND	ND	6.6	ND	ND	ND	ND	0	13.97
79975	2019-03-14T06:00:00	27.8	ND	ND	ND	ND	5	ND	ND	ND	ND	0	0.51
79976	2019-03-14T07:00:00	29	ND	ND	ND	ND	1.6	ND	ND	ND	ND	0	0.25
79977	2019-03-14T08:00:00	39.9	ND	ND	ND	ND	2.1	ND	ND	ND	ND	0	1.52
79978	2019-03-14T09:00:00	38.7	ND	ND	ND	ND	1	ND	ND	ND	ND	8.6	3.05
79979	2019-03-14T10:00:00	ND	ND	ND	ND	ND	ND	ND	ND	ND	ND	30.8	ND
79980	2019-03-14T11:00:00	ND	ND	ND	ND	ND	ND	ND	ND	ND	ND	ND	ND
79981	2019-03-14T12:00:00	ND	ND	ND	ND	ND	ND	ND	ND	ND	ND	ND	ND
79982	2019-03-14T13:00:00	ND	ND	ND	ND	ND	ND	ND	ND	ND	ND	ND	ND
79983	2019-03-14T14:00:00	ND	ND	ND	ND	ND	ND	ND	ND	ND	ND	ND	ND
79984	2019-03-14T15:00:00	ND	ND	ND	ND	ND	ND	ND	ND	ND	ND	ND	ND
79985	2019-03-14T16:00:00	ND	ND	ND	ND	ND	ND	ND	ND	ND	ND	ND	ND
79986	2019-03-14T17:00:00	ND	ND	ND	ND	ND	ND	ND	ND	ND	ND	ND	ND
79987	2019-03-14T18:00:00	ND	ND	ND	ND	ND	ND	ND	ND	ND	ND	ND	ND
79988	2019-03-14T19:00:00	ND	ND	ND	ND	ND	ND	ND	ND	ND	ND	ND	ND
79989	2019-03-14T20:00:00	ND	ND	ND	ND	ND	ND	ND	ND	ND	ND	ND	ND
79990	2019-03-14T21:00:00	ND	ND	ND	ND	ND	ND	ND	ND	ND	ND	ND	ND
79991	2019-03-14T22:00:00	ND	ND	ND	ND	ND	ND	ND	ND	ND	ND	ND	ND
79992	2019-03-14T23:00:00	ND	ND	ND	ND	ND	ND	ND	ND	ND	ND	ND	ND
79993	2019-03-15T00:00:00	ND	ND	ND	ND	ND	ND	ND	ND	ND	ND	ND	ND
79994	2019-03-15T01:00:00	ND	ND	ND	ND	ND	ND	ND	ND	ND	ND	ND	ND
79995	2019-03-15T02:00:00	ND	ND	ND	ND	ND	ND	ND	ND	ND	ND	ND	ND
79996	2019-03-15T03:00:00	ND	ND	ND	ND	ND	ND	ND	ND	ND	ND	ND	ND
79997	2019-03-15T04:00:00	ND	ND	ND	ND	ND	ND	ND	ND	ND	ND	ND	ND
79998	2019-03-15T05:00:00	ND	ND	ND	ND	ND	ND	ND	ND	ND	ND	ND	ND
79999	2019-03-15T06:00:00	ND	ND	ND	ND	ND	ND	ND	ND	ND	ND	ND	ND
80000	2019-03-15T07:00:00	ND	ND	ND	ND	ND	ND	ND	ND	ND	ND	ND	ND
80001	2019-03-15T08:00:00	ND	ND	ND	ND	ND	ND	ND	ND	ND	ND	ND	ND
80002	2019-03-15T09:00:00	ND	ND	ND	ND	ND	ND	ND	ND	ND	ND	ND	ND
80003	2019-03-15T10:00:00	ND	ND	ND	ND	ND	ND	ND	ND	ND	ND	ND	ND
80004	2019-03-15T11:00:00	ND	ND	ND	ND	ND	ND	ND	ND	ND	ND	ND	ND
80005	2019-03-15T12:00:00	ND	ND	ND	ND	ND	ND	ND	ND	ND	ND	ND	ND
80006	2019-03-15T13:00:00	ND	ND	ND	ND	ND	ND	ND	ND	ND	ND	ND	ND
80007	2019-03-15T14:00:00	ND	ND	ND	ND	ND	ND	ND	ND	ND	ND	ND	ND
80008	2019-03-15T15:00:00	ND	ND	ND	ND	ND	ND	ND	ND	ND	ND	ND	ND
80009	2019-03-15T16:00:00	ND	ND	ND	ND	ND	ND	ND	ND	ND	ND	ND	ND
80010	2019-03-15T17:00:00	ND	ND	ND	ND	ND	ND	ND	ND	ND	ND	ND	ND
80011	2019-03-15T18:00:00	ND	ND	ND	ND	ND	ND	ND	ND	ND	ND	ND	ND
80012	2019-03-15T19:00:00	ND	ND	ND	ND	ND	ND	ND	ND	ND	ND	ND	ND
80013	2019-03-15T20:00:00	ND	ND	ND	ND	ND	ND	ND	ND	ND	ND	ND	ND
80014	2019-03-15T21:00:00	ND	ND	ND	ND	ND	ND	ND	ND	ND	ND	ND	ND
80015	2019-03-15T22:00:00	ND	ND	ND	ND	ND	ND	ND	ND	ND	ND	ND	ND
80016	2019-03-15T23:00:00	ND	ND	ND	ND	ND	ND	ND	ND	ND	ND	ND	ND
80017	2019-03-16T00:00:00	ND	ND	ND	ND	ND	ND	ND	ND	ND	ND	ND	ND
80018	2019-03-16T01:00:00	ND	ND	ND	ND	ND	ND	ND	ND	ND	ND	ND	ND
80019	2019-03-16T02:00:00	ND	ND	ND	ND	ND	ND	ND	ND	ND	ND	ND	ND
80020	2019-03-16T03:00:00	ND	ND	ND	ND	ND	ND	ND	ND	ND	ND	ND	ND
80021	2019-03-16T04:00:00	ND	ND	ND	ND	ND	ND	ND	ND	ND	ND	ND	ND
80022	2019-03-16T05:00:00	ND	ND	ND	ND	ND	ND	ND	ND	ND	ND	ND	ND
80023	2019-03-16T06:00:00	ND	ND	ND	ND	ND	ND	ND	ND	ND	ND	ND	ND
80024	2019-03-16T07:00:00	ND	ND	ND	ND	ND	ND	ND	ND	ND	ND	ND	ND
80025	2019-03-16T08:00:00	ND	ND	ND	ND	ND	ND	ND	ND	ND	ND	ND	ND
80026	2019-03-16T09:00:00	ND	ND	ND	ND	ND	ND	ND	ND	ND	ND	ND	ND
80027	2019-03-16T10:00:00	ND	ND	ND	ND	ND	ND	ND	ND	ND	ND	ND	ND
80028	2019-03-16T11:00:00	ND	ND	ND	ND	ND	ND	ND	ND	ND	ND	ND	ND
80029	2019-03-16T12:00:00	ND	ND	ND	ND	ND	ND	ND	ND	ND	ND	ND	ND
80030	2019-03-16T13:00:00	ND	ND	ND	ND	ND	ND	ND	ND	ND	ND	ND	ND
80031	2019-03-16T14:00:00	ND	ND	ND	ND	ND	ND	ND	ND	ND	ND	ND	ND
80032	2019-03-16T15:00:00	ND	ND	ND	ND	ND	ND	ND	ND	ND	ND	ND	ND
80033	2019-03-16T16:00:00	ND	ND	ND	ND	ND	ND	ND	ND	ND	ND	ND	ND
80034	2019-03-16T17:00:00	ND	ND	ND	ND	ND	ND	ND	ND	ND	ND	ND	ND
80035	2019-03-16T18:00:00	ND	ND	ND	ND	ND	ND	ND	ND	ND	ND	ND	ND
80036	2019-03-16T19:00:00	ND	ND	ND	ND	ND	ND	ND	ND	ND	ND	ND	ND
80037	2019-03-16T20:00:00	ND	ND	ND	ND	ND	ND	ND	ND	ND	ND	ND	ND
80038	2019-03-16T21:00:00	ND	ND	ND	ND	ND	ND	ND	ND	ND	ND	ND	ND
80039	2019-03-16T22:00:00	ND	ND	ND	ND	ND	ND	ND	ND	ND	ND	ND	ND
80040	2019-03-16T23:00:00	ND	ND	ND	ND	ND	ND	ND	ND	ND	ND	ND	ND
80041	2019-03-17T00:00:00	ND	ND	ND	ND	ND	ND	ND	ND	ND	ND	ND	ND
80042	2019-03-17T01:00:00	ND	ND	ND	ND	ND	ND	ND	ND	ND	ND	ND	ND
80043	2019-03-17T02:00:00	ND	ND	ND	ND	ND	ND	ND	ND	ND	ND	ND	ND
80044	2019-03-17T03:00:00	ND	ND	ND	ND	ND	ND	ND	ND	ND	ND	ND	ND
80045	2019-03-17T04:00:00	ND	ND	ND	ND	ND	ND	ND	ND	ND	ND	ND	ND
80046	2019-03-17T05:00:00	ND	ND	ND	ND	ND	ND	ND	ND	ND	ND	ND	ND
80047	2019-03-17T06:00:00	ND	ND	ND	ND	ND	ND	ND	ND	ND	ND	ND	ND
80048	2019-03-17T07:00:00	ND	ND	ND	ND	ND	ND	ND	ND	ND	ND	ND	ND
80049	2019-03-17T08:00:00	ND	ND	ND	ND	ND	ND	ND	ND	ND	ND	ND	ND
80050	2019-03-17T09:00:00	ND	ND	ND	ND	ND	ND	ND	ND	ND	ND	ND	ND
80051	2019-03-17T10:00:00	ND	ND	ND	ND	ND	ND	ND	ND	ND	ND	ND	ND
80052	2019-03-17T11:00:00	ND	ND	ND	ND	ND	ND	ND	ND	ND	ND	ND	ND
80053	2019-03-17T12:00:00	ND	ND	ND	ND	ND	ND	ND	ND	ND	ND	ND	ND
80054	2019-03-17T13:00:00	ND	ND	ND	ND	ND	ND	ND	ND	ND	ND	ND	ND
80055	2019-03-17T14:00:00	ND	ND	ND	ND	ND	ND	ND	ND	ND	ND	ND	ND
80056	2019-03-17T15:00:00	ND	ND	ND	ND	ND	ND	ND	ND	ND	ND	ND	ND
80057	2019-03-17T16:00:00	ND	ND	ND	ND	ND	ND	ND	ND	ND	ND	ND	ND
80058	2019-03-17T17:00:00	ND	ND	ND	ND	ND	ND	ND	ND	ND	ND	ND	ND
80059	2019-03-17T18:00:00	ND	ND	ND	ND	ND	ND	ND	ND	ND	ND	ND	ND
80060	2019-03-17T19:00:00	ND	ND	ND	ND	ND	ND	ND	ND	ND	ND	ND	ND
80061	2019-03-17T20:00:00	ND	ND	ND	ND	ND	ND	ND	ND	ND	ND	ND	ND
80062	2019-03-17T21:00:00	ND	ND	ND	ND	ND	ND	ND	ND	ND	ND	ND	ND
80063	2019-03-17T22:00:00	ND	ND	ND	ND	ND	ND	ND	ND	ND	ND	ND	ND
80064	2019-03-17T23:00:00	ND	ND	ND	ND	ND	ND	ND	ND	ND	ND	ND	ND
80065	2019-03-18T00:00:00	ND	ND	ND	ND	ND	ND	ND	ND	ND	ND	ND	ND
80066	2019-03-18T01:00:00	ND	ND	ND	ND	ND	ND	ND	ND	ND	ND	ND	ND
80067	2019-03-18T02:00:00	ND	ND	ND	ND	ND	ND	ND	ND	ND	ND	ND	ND
80068	2019-03-18T03:00:00	ND	ND	ND	ND	ND	ND	ND	ND	ND	ND	ND	ND
80069	2019-03-18T04:00:00	ND	ND	ND	ND	ND	ND	ND	ND	ND	ND	ND	ND
80070	2019-03-18T05:00:00	ND	ND	ND	ND	ND	ND	ND	ND	ND	ND	ND	ND
80071	2019-03-18T06:00:00	ND	ND	ND	ND	ND	ND	ND	ND	ND	ND	ND	ND
80072	2019-03-18T07:00:00	ND	ND	ND	ND	ND	ND	ND	ND	ND	ND	ND	ND
80073	2019-03-18T08:00:00	ND	ND	ND	ND	ND	ND	ND	ND	ND	ND	ND	ND
80074	2019-03-18T09:00:00	ND	ND	ND	ND	ND	ND	ND	ND	ND	ND	ND	ND
80075	2019-03-18T10:00:00	ND	ND	ND	ND	ND	ND	ND	ND	ND	ND	ND	ND
80076	2019-03-18T11:00:00	ND	ND	ND	ND	ND	ND	ND	ND	ND	ND	ND	ND
80077	2019-03-18T12:00:00	ND	ND	ND	ND	ND	ND	ND	ND	ND	ND	ND	ND
80078	2019-03-18T13:00:00	ND	ND	ND	ND	ND	ND	ND	ND	ND	ND	ND	ND
80079	2019-03-18T14:00:00	ND	ND	ND	ND	ND	ND	ND	ND	ND	ND	ND	ND
80080	2019-03-18T15:00:00	ND	ND	ND	ND	ND	ND	ND	ND	ND	ND	ND	ND
80081	2019-03-18T16:00:00	ND	ND	ND	ND	ND	ND	ND	ND	ND	ND	ND	ND
80082	2019-03-18T17:00:00	ND	ND	ND	ND	ND	ND	ND	ND	ND	ND	ND	ND
80083	2019-03-18T18:00:00	ND	ND	ND	ND	ND	ND	ND	ND	ND	ND	ND	ND
80084	2019-03-18T19:00:00	ND	ND	ND	ND	ND	ND	ND	ND	ND	ND	ND	ND
80085	2019-03-18T20:00:00	ND	ND	ND	ND	ND	ND	ND	ND	ND	ND	ND	ND
80086	2019-03-18T21:00:00	ND	ND	ND	ND	ND	ND	ND	ND	ND	ND	ND	ND
80087	2019-03-18T22:00:00	ND	ND	ND	ND	ND	ND	ND	ND	ND	ND	ND	ND
80088	2019-03-18T23:00:00	ND	ND	ND	ND	ND	ND	ND	ND	ND	ND	ND	ND
80089	2019-03-19T00:00:00	ND	ND	ND	ND	ND	ND	ND	ND	ND	ND	ND	ND
80090	2019-03-19T01:00:00	ND	ND	ND	ND	ND	ND	ND	ND	ND	ND	ND	ND
80091	2019-03-19T02:00:00	ND	ND	ND	ND	ND	ND	ND	ND	ND	ND	ND	ND
80092	2019-03-19T03:00:00	ND	ND	ND	ND	ND	ND	ND	ND	ND	ND	ND	ND
80093	2019-03-19T04:00:00	ND	ND	ND	ND	ND	ND	ND	ND	ND	ND	ND	ND
80094	2019-03-19T05:00:00	ND	ND	ND	ND	ND	ND	ND	ND	ND	ND	ND	ND
80095	2019-03-19T06:00:00	ND	ND	ND	ND	ND	ND	ND	ND	ND	ND	ND	ND
80096	2019-03-19T07:00:00	ND	ND	ND	ND	ND	ND	ND	ND	ND	ND	ND	ND
80097	2019-03-19T08:00:00	ND	ND	ND	ND	ND	ND	ND	ND	ND	ND	ND	ND
80098	2019-03-19T09:00:00	ND	ND	ND	ND	ND	ND	ND	ND	ND	ND	ND	ND
80099	2019-03-19T10:00:00	ND	ND	ND	ND	ND	ND	ND	ND	ND	ND	ND	ND
80100	2019-03-19T11:00:00	ND	ND	ND	ND	ND	ND	ND	ND	ND	ND	ND	ND
80101	2019-03-19T12:00:00	ND	ND	ND	ND	ND	ND	ND	ND	ND	ND	ND	ND
80102	2019-03-19T13:00:00	ND	ND	ND	ND	ND	ND	ND	ND	ND	ND	ND	ND
80103	2019-03-19T14:00:00	ND	ND	ND	ND	ND	ND	ND	ND	ND	ND	ND	ND
80104	2019-03-19T15:00:00	ND	ND	ND	ND	ND	ND	ND	ND	ND	ND	ND	ND
80105	2019-03-19T16:00:00	ND	ND	ND	ND	ND	ND	ND	ND	ND	ND	ND	ND
80106	2019-03-19T17:00:00	ND	ND	ND	ND	ND	ND	ND	ND	ND	ND	ND	ND
80107	2019-03-19T18:00:00	ND	ND	ND	ND	ND	ND	ND	ND	ND	ND	ND	ND
80108	2019-03-19T19:00:00	ND	ND	ND	ND	ND	ND	ND	ND	ND	ND	ND	ND
80109	2019-03-19T20:00:00	ND	ND	ND	ND	ND	ND	ND	ND	ND	ND	ND	ND
80110	2019-03-19T21:00:00	ND	ND	ND	ND	ND	ND	ND	ND	ND	ND	ND	ND
80111	2019-03-19T22:00:00	ND	ND	ND	ND	ND	ND	ND	ND	ND	ND	ND	ND
80112	2019-03-19T23:00:00	ND	ND	ND	ND	ND	ND	ND	ND	ND	ND	ND	ND
80113	2019-03-20T00:00:00	ND	ND	ND	ND	ND	ND	ND	ND	ND	ND	ND	ND
80114	2019-03-20T01:00:00	ND	ND	ND	ND	ND	ND	ND	ND	ND	ND	ND	ND
80115	2019-03-20T02:00:00	ND	ND	ND	ND	ND	ND	ND	ND	ND	ND	ND	ND
80116	2019-03-20T03:00:00	ND	ND	ND	ND	ND	ND	ND	ND	ND	ND	ND	ND
80117	2019-03-20T04:00:00	ND	ND	ND	ND	ND	ND	ND	ND	ND	ND	ND	ND
80118	2019-03-20T05:00:00	ND	ND	ND	ND	ND	ND	ND	ND	ND	ND	ND	ND
80119	2019-03-20T06:00:00	ND	ND	ND	ND	ND	ND	ND	ND	ND	ND	ND	ND
80120	2019-03-20T07:00:00	ND	ND	ND	ND	ND	ND	ND	ND	ND	ND	ND	ND
80121	2019-03-20T08:00:00	ND	ND	ND	ND	ND	ND	ND	ND	ND	ND	ND	ND
80122	2019-03-20T09:00:00	ND	ND	ND	ND	ND	ND	ND	ND	ND	ND	ND	ND
80123	2019-03-20T10:00:00	ND	ND	ND	ND	ND	ND	ND	ND	ND	ND	ND	ND
80124	2019-03-20T11:00:00	ND	ND	ND	ND	ND	ND	ND	ND	ND	ND	ND	ND
80125	2019-03-20T12:00:00	ND	ND	ND	ND	ND	ND	ND	ND	ND	ND	ND	ND
80126	2019-03-20T13:00:00	ND	ND	ND	ND	ND	ND	ND	ND	ND	ND	ND	ND
80127	2019-03-20T14:00:00	ND	ND	ND	ND	ND	ND	ND	ND	ND	ND	ND	ND
80128	2019-03-20T15:00:00	ND	ND	ND	ND	ND	ND	ND	ND	ND	ND	ND	ND
80129	2019-03-20T16:00:00	ND	ND	ND	ND	ND	ND	ND	ND	ND	ND	ND	ND
80130	2019-03-20T17:00:00	ND	ND	ND	ND	ND	ND	ND	ND	ND	ND	ND	ND
80131	2019-03-20T18:00:00	ND	ND	ND	ND	ND	ND	ND	ND	ND	ND	ND	ND
80132	2019-03-20T19:00:00	ND	ND	ND	ND	ND	ND	ND	ND	ND	ND	ND	ND
80133	2019-03-20T20:00:00	ND	ND	ND	ND	ND	ND	ND	ND	ND	ND	ND	ND
80134	2019-03-20T21:00:00	ND	ND	ND	ND	ND	ND	ND	ND	ND	ND	ND	ND
80135	2019-03-20T22:00:00	ND	ND	ND	ND	ND	ND	ND	ND	ND	ND	ND	ND
80136	2019-03-20T23:00:00	ND	ND	ND	ND	ND	ND	ND	ND	ND	ND	ND	ND
80137	2019-03-21T00:00:00	ND	ND	ND	ND	ND	ND	ND	ND	ND	ND	ND	ND
80138	2019-03-21T01:00:00	ND	ND	ND	ND	ND	ND	ND	ND	ND	ND	ND	ND
80139	2019-03-21T02:00:00	ND	ND	ND	ND	ND	ND	ND	ND	ND	ND	ND	ND
80140	2019-03-21T03:00:00	ND	ND	ND	ND	ND	ND	ND	ND	ND	ND	ND	ND
80141	2019-03-21T04:00:00	ND	ND	ND	ND	ND	ND	ND	ND	ND	ND	ND	ND
80142	2019-03-21T05:00:00	ND	ND	ND	ND	ND	ND	ND	ND	ND	ND	ND	ND
80143	2019-03-21T06:00:00	ND	ND	ND	ND	ND	ND	ND	ND	ND	ND	ND	ND
80144	2019-03-21T07:00:00	ND	ND	ND	ND	ND	ND	ND	ND	ND	ND	ND	ND
80145	2019-03-21T08:00:00	ND	ND	ND	ND	ND	ND	ND	ND	ND	ND	ND	ND
80146	2019-03-21T09:00:00	ND	ND	ND	ND	ND	ND	ND	ND	ND	ND	ND	ND
80147	2019-03-21T10:00:00	ND	ND	ND	ND	ND	ND	ND	ND	ND	ND	ND	ND
80148	2019-03-21T11:00:00	ND	ND	ND	ND	ND	ND	ND	ND	ND	ND	ND	ND
80149	2019-03-21T12:00:00	ND	ND	ND	ND	ND	ND	ND	ND	ND	ND	ND	ND
80150	2019-03-21T13:00:00	ND	ND	ND	ND	ND	ND	ND	ND	ND	ND	ND	ND
80151	2019-03-21T14:00:00	ND	ND	ND	ND	ND	ND	ND	ND	ND	ND	ND	ND
80152	2019-03-21T15:00:00	ND	ND	ND	ND	ND	ND	ND	ND	ND	ND	ND	ND
80153	2019-03-21T16:00:00	ND	ND	ND	ND	ND	ND	ND	ND	ND	ND	ND	ND
80154	2019-03-21T17:00:00	ND	ND	ND	ND	ND	ND	ND	ND	ND	ND	ND	ND
80155	2019-03-21T18:00:00	ND	ND	ND	ND	ND	ND	ND	ND	ND	ND	ND	ND
80156	2019-03-21T19:00:00	ND	ND	ND	ND	ND	ND	ND	ND	ND	ND	ND	ND
80157	2019-03-21T20:00:00	ND	ND	ND	ND	ND	ND	ND	ND	ND	ND	ND	ND
80158	2019-03-21T21:00:00	ND	ND	ND	ND	ND	ND	ND	ND	ND	ND	ND	ND
80159	2019-03-21T22:00:00	ND	ND	ND	ND	ND	ND	ND	ND	ND	ND	ND	ND
80160	2019-03-21T23:00:00	ND	ND	ND	ND	ND	ND	ND	ND	ND	ND	ND	ND
80161	2019-03-22T00:00:00	ND	ND	ND	ND	ND	ND	ND	ND	ND	ND	ND	ND
80162	2019-03-22T01:00:00	ND	ND	ND	ND	ND	ND	ND	ND	ND	ND	ND	ND
80163	2019-03-22T02:00:00	ND	ND	ND	ND	ND	ND	ND	ND	ND	ND	ND	ND
80164	2019-03-22T03:00:00	ND	ND	ND	ND	ND	ND	ND	ND	ND	ND	ND	ND
80165	2019-03-22T04:00:00	ND	ND	ND	ND	ND	ND	ND	ND	ND	ND	ND	ND
80166	2019-03-22T05:00:00	ND	ND	ND	ND	ND	ND	ND	ND	ND	ND	ND	ND
80167	2019-03-22T06:00:00	ND	ND	ND	ND	ND	ND	ND	ND	ND	ND	ND	ND
80168	2019-03-22T07:00:00	ND	ND	ND	ND	ND	ND	ND	ND	ND	ND	ND	ND
80169	2019-03-22T08:00:00	ND	ND	ND	ND	ND	ND	ND	ND	ND	ND	ND	ND
80170	2019-03-22T09:00:00	ND	ND	ND	ND	ND	ND	ND	ND	ND	ND	ND	ND
80171	2019-03-22T10:00:00	ND	ND	ND	ND	ND	ND	ND	ND	ND	ND	ND	ND
80172	2019-03-22T11:00:00	ND	ND	ND	ND	ND	ND	ND	ND	ND	ND	ND	ND
80173	2019-03-22T12:00:00	ND	ND	ND	ND	ND	ND	ND	ND	ND	ND	ND	ND
80174	2019-03-22T13:00:00	ND	ND	ND	ND	ND	ND	ND	ND	ND	ND	ND	ND
80175	2019-03-22T14:00:00	ND	ND	ND	ND	ND	ND	ND	ND	ND	ND	ND	ND
80176	2019-03-22T15:00:00	ND	ND	ND	ND	ND	ND	ND	ND	ND	ND	ND	ND
80177	2019-03-22T16:00:00	ND	ND	ND	ND	ND	ND	ND	ND	ND	ND	ND	ND
80178	2019-03-22T17:00:00	ND	ND	ND	ND	ND	ND	ND	ND	ND	ND	ND	ND
80179	2019-03-22T18:00:00	ND	ND	ND	ND	ND	ND	ND	ND	ND	ND	ND	ND
80180	2019-03-22T19:00:00	ND	ND	ND	ND	ND	ND	ND	ND	ND	ND	ND	ND
80181	2019-03-22T20:00:00	ND	ND	ND	ND	ND	ND	ND	ND	ND	ND	ND	ND
80182	2019-03-22T21:00:00	ND	ND	ND	ND	ND	ND	ND	ND	ND	ND	ND	ND
80183	2019-03-22T22:00:00	ND	ND	ND	ND	ND	ND	ND	ND	ND	ND	ND	ND
80184	2019-03-22T23:00:00	ND	ND	ND	ND	ND	ND	ND	ND	ND	ND	ND	ND
80185	2019-03-23T00:00:00	ND	ND	ND	ND	ND	ND	ND	ND	ND	ND	ND	ND
80186	2019-03-23T01:00:00	ND	ND	ND	ND	ND	ND	ND	ND	ND	ND	ND	ND
80187	2019-03-23T02:00:00	ND	ND	ND	ND	ND	ND	ND	ND	ND	ND	ND	ND
80188	2019-03-23T03:00:00	ND	ND	ND	ND	ND	ND	ND	ND	ND	ND	ND	ND
80189	2019-03-23T04:00:00	ND	ND	ND	ND	ND	ND	ND	ND	ND	ND	ND	ND
80190	2019-03-23T05:00:00	ND	ND	ND	ND	ND	ND	ND	ND	ND	ND	ND	ND
80191	2019-03-23T06:00:00	ND	ND	ND	ND	ND	ND	ND	ND	ND	ND	ND	ND
80192	2019-03-23T07:00:00	ND	ND	ND	ND	ND	ND	ND	ND	ND	ND	ND	ND
80193	2019-03-23T08:00:00	ND	ND	ND	ND	ND	ND	ND	ND	ND	ND	ND	ND
80194	2019-03-23T09:00:00	ND	ND	ND	ND	ND	ND	ND	ND	ND	ND	ND	ND
80195	2019-03-23T10:00:00	ND	ND	ND	ND	ND	ND	ND	ND	ND	ND	ND	ND
80196	2019-03-23T11:00:00	ND	ND	ND	ND	ND	ND	ND	ND	ND	ND	ND	ND
80197	2019-03-23T12:00:00	ND	ND	ND	ND	ND	ND	ND	ND	ND	ND	ND	ND
80198	2019-03-23T13:00:00	ND	ND	ND	ND	ND	ND	ND	ND	ND	ND	ND	ND
80199	2019-03-23T14:00:00	ND	ND	ND	ND	ND	ND	ND	ND	ND	ND	ND	ND
80200	2019-03-23T15:00:00	ND	ND	ND	ND	ND	ND	ND	ND	ND	ND	ND	ND
80201	2019-03-23T16:00:00	ND	ND	ND	ND	ND	ND	ND	ND	ND	ND	ND	ND
80202	2019-03-23T17:00:00	ND	ND	ND	ND	ND	ND	ND	ND	ND	ND	ND	ND
80203	2019-03-23T18:00:00	ND	ND	ND	ND	ND	ND	ND	ND	ND	ND	ND	ND
80204	2019-03-23T19:00:00	ND	ND	ND	ND	ND	ND	ND	ND	ND	ND	ND	ND
80205	2019-03-23T20:00:00	ND	ND	ND	ND	ND	ND	ND	ND	ND	ND	ND	ND
80206	2019-03-23T21:00:00	ND	ND	ND	ND	ND	ND	ND	ND	ND	ND	ND	ND
80207	2019-03-23T22:00:00	ND	ND	ND	ND	ND	ND	ND	ND	ND	ND	ND	ND
80208	2019-03-23T23:00:00	ND	ND	ND	ND	ND	ND	ND	ND	ND	ND	ND	ND
80209	2019-03-24T00:00:00	ND	ND	ND	ND	ND	ND	ND	ND	ND	ND	ND	ND
80210	2019-03-24T01:00:00	ND	ND	ND	ND	ND	ND	ND	ND	ND	ND	ND	ND
80211	2019-03-24T02:00:00	ND	ND	ND	ND	ND	ND	ND	ND	ND	ND	ND	ND
80212	2019-03-24T03:00:00	ND	ND	ND	ND	ND	ND	ND	ND	ND	ND	ND	ND
80213	2019-03-24T04:00:00	ND	ND	ND	ND	ND	ND	ND	ND	ND	ND	ND	ND
80214	2019-03-24T05:00:00	ND	ND	ND	ND	ND	ND	ND	ND	ND	ND	ND	ND
80215	2019-03-24T06:00:00	ND	ND	ND	ND	ND	ND	ND	ND	ND	ND	ND	ND
80216	2019-03-24T07:00:00	ND	ND	ND	ND	ND	ND	ND	ND	ND	ND	ND	ND
80217	2019-03-24T08:00:00	ND	ND	ND	ND	ND	ND	ND	ND	ND	ND	ND	ND
80218	2019-03-24T09:00:00	ND	ND	ND	ND	ND	ND	ND	ND	ND	ND	ND	ND
80219	2019-03-24T10:00:00	ND	ND	ND	ND	ND	ND	ND	ND	ND	ND	ND	ND
80220	2019-03-24T11:00:00	ND	ND	ND	ND	ND	ND	ND	ND	ND	ND	ND	ND
80221	2019-03-24T12:00:00	ND	ND	ND	ND	ND	ND	ND	ND	ND	ND	ND	ND
80222	2019-03-24T13:00:00	ND	ND	ND	ND	ND	ND	ND	ND	ND	ND	ND	ND
80223	2019-03-24T14:00:00	ND	ND	ND	ND	ND	ND	ND	ND	ND	ND	ND	ND
80224	2019-03-24T15:00:00	ND	ND	ND	ND	ND	ND	ND	ND	ND	ND	ND	ND
80225	2019-03-24T16:00:00	ND	ND	ND	ND	ND	ND	ND	ND	ND	ND	ND	ND
80226	2019-03-24T17:00:00	ND	ND	ND	ND	ND	ND	ND	ND	ND	ND	ND	ND
80227	2019-03-24T18:00:00	ND	ND	ND	ND	ND	ND	ND	ND	ND	ND	ND	ND
80228	2019-03-24T19:00:00	ND	ND	ND	ND	ND	ND	ND	ND	ND	ND	ND	ND
80229	2019-03-24T20:00:00	ND	ND	ND	ND	ND	ND	ND	ND	ND	ND	ND	ND
80230	2019-03-24T21:00:00	ND	ND	ND	ND	ND	ND	ND	ND	ND	ND	ND	ND
80231	2019-03-24T22:00:00	ND	ND	ND	ND	ND	ND	ND	ND	ND	ND	ND	ND
80232	2019-03-24T23:00:00	ND	ND	ND	ND	ND	ND	ND	ND	ND	ND	ND	ND
80233	2019-03-25T00:00:00	ND	ND	ND	ND	ND	ND	ND	ND	ND	ND	ND	ND
80234	2019-03-25T01:00:00	ND	ND	ND	ND	ND	ND	ND	ND	ND	ND	ND	ND
80235	2019-03-25T02:00:00	ND	ND	ND	ND	ND	ND	ND	ND	ND	ND	ND	ND
80236	2019-03-25T03:00:00	ND	ND	ND	ND	ND	ND	ND	ND	ND	ND	ND	ND
80237	2019-03-25T04:00:00	ND	ND	ND	ND	ND	ND	ND	ND	ND	ND	ND	ND
80238	2019-03-25T05:00:00	ND	ND	ND	ND	ND	ND	ND	ND	ND	ND	ND	ND
80239	2019-03-25T06:00:00	ND	ND	ND	ND	ND	ND	ND	ND	ND	ND	ND	ND
80240	2019-03-25T07:00:00	ND	ND	ND	ND	ND	ND	ND	ND	ND	ND	ND	ND
80241	2019-03-25T08:00:00	ND	ND	ND	ND	ND	ND	ND	ND	ND	ND	ND	ND
80242	2019-03-25T09:00:00	ND	ND	ND	ND	ND	ND	ND	ND	ND	ND	ND	ND
80243	2019-03-25T10:00:00	ND	ND	ND	ND	ND	ND	ND	ND	ND	ND	ND	ND
80244	2019-03-25T11:00:00	ND	ND	ND	ND	ND	ND	ND	ND	ND	ND	ND	ND
80245	2019-03-25T12:00:00	ND	ND	ND	ND	ND	ND	ND	ND	ND	ND	ND	ND
80246	2019-03-25T13:00:00	ND	ND	ND	ND	ND	ND	ND	ND	ND	ND	ND	ND
80247	2019-03-25T14:00:00	ND	ND	ND	ND	ND	ND	ND	ND	ND	ND	ND	ND
80248	2019-03-25T15:00:00	ND	ND	ND	ND	ND	ND	ND	ND	ND	ND	ND	ND
80249	2019-03-25T16:00:00	ND	ND	ND	ND	ND	ND	ND	ND	ND	ND	ND	ND
80250	2019-03-25T17:00:00	ND	ND	ND	ND	ND	ND	ND	ND	ND	ND	ND	ND
80251	2019-03-25T18:00:00	ND	ND	ND	ND	ND	ND	ND	ND	ND	ND	ND	ND
80252	2019-03-25T19:00:00	ND	ND	ND	ND	ND	ND	ND	ND	ND	ND	ND	ND
80253	2019-03-25T20:00:00	ND	ND	ND	ND	ND	ND	ND	ND	ND	ND	ND	ND
80254	2019-03-25T21:00:00	ND	ND	ND	ND	ND	ND	ND	ND	ND	ND	ND	ND
80255	2019-03-25T22:00:00	ND	ND	ND	ND	ND	ND	ND	ND	ND	ND	ND	ND
80256	2019-03-25T23:00:00	ND	ND	ND	ND	ND	ND	ND	ND	ND	ND	ND	ND
80257	2019-03-26T00:00:00	ND	ND	ND	ND	ND	ND	ND	ND	ND	ND	ND	ND
80258	2019-03-26T01:00:00	ND	ND	ND	ND	ND	ND	ND	ND	ND	ND	ND	ND
80259	2019-03-26T02:00:00	ND	ND	ND	ND	ND	ND	ND	ND	ND	ND	ND	ND
80260	2019-03-26T03:00:00	ND	ND	ND	ND	ND	ND	ND	ND	ND	ND	ND	ND
80261	2019-03-26T04:00:00	ND	ND	ND	ND	ND	ND	ND	ND	ND	ND	ND	ND
80262	2019-03-26T05:00:00	ND	ND	ND	ND	ND	ND	ND	ND	ND	ND	ND	ND
80263	2019-03-26T06:00:00	ND	ND	ND	ND	ND	ND	ND	ND	ND	ND	ND	ND
80264	2019-03-26T07:00:00	ND	ND	ND	ND	ND	ND	ND	ND	ND	ND	ND	ND
80265	2019-03-26T08:00:00	ND	ND	ND	ND	ND	ND	ND	ND	ND	ND	ND	ND
80266	2019-03-26T09:00:00	ND	ND	ND	ND	ND	ND	ND	ND	ND	ND	ND	ND
80267	2019-03-26T10:00:00	ND	ND	ND	ND	ND	ND	ND	ND	ND	ND	ND	ND
80268	2019-03-26T11:00:00	ND	ND	ND	ND	ND	ND	ND	ND	ND	ND	ND	ND
80269	2019-03-26T12:00:00	ND	ND	ND	ND	ND	ND	ND	ND	ND	ND	ND	ND
80270	2019-03-26T13:00:00	ND	ND	ND	ND	ND	ND	ND	ND	ND	ND	ND	ND
80271	2019-03-26T14:00:00	ND	ND	ND	ND	ND	ND	ND	ND	ND	ND	ND	ND
80272	2019-03-26T15:00:00	ND	ND	ND	ND	ND	ND	ND	ND	ND	ND	ND	ND
80273	2019-03-26T16:00:00	ND	ND	ND	ND	ND	ND	ND	ND	ND	ND	ND	ND
80274	2019-03-26T17:00:00	ND	ND	ND	ND	ND	ND	ND	ND	ND	ND	ND	ND
80275	2019-03-26T18:00:00	ND	ND	ND	ND	ND	ND	ND	ND	ND	ND	ND	ND
80276	2019-03-26T19:00:00	ND	ND	ND	ND	ND	ND	ND	ND	ND	ND	ND	ND
80277	2019-03-26T20:00:00	ND	ND	ND	ND	ND	ND	ND	ND	ND	ND	ND	ND
80278	2019-03-26T21:00:00	ND	ND	ND	ND	ND	ND	ND	ND	ND	ND	ND	ND
80279	2019-03-26T22:00:00	ND	ND	ND	ND	ND	ND	ND	ND	ND	ND	ND	ND
80280	2019-03-26T23:00:00	ND	ND	ND	ND	ND	ND	ND	ND	ND	ND	ND	ND
80281	2019-03-27T00:00:00	ND	ND	ND	ND	ND	ND	ND	ND	ND	ND	ND	ND
80282	2019-03-27T01:00:00	ND	ND	ND	ND	ND	ND	ND	ND	ND	ND	ND	ND
80283	2019-03-27T02:00:00	ND	ND	ND	ND	ND	ND	ND	ND	ND	ND	ND	ND
80284	2019-03-27T03:00:00	ND	ND	ND	ND	ND	ND	ND	ND	ND	ND	ND	ND
80285	2019-03-27T04:00:00	ND	ND	ND	ND	ND	ND	ND	ND	ND	ND	ND	ND
80286	2019-03-27T05:00:00	ND	ND	ND	ND	ND	ND	ND	ND	ND	ND	ND	ND
80287	2019-03-27T06:00:00	ND	ND	ND	ND	ND	ND	ND	ND	ND	ND	ND	ND
80288	2019-03-27T07:00:00	ND	ND	ND	ND	ND	ND	ND	ND	ND	ND	ND	ND
80289	2019-03-27T08:00:00	ND	ND	ND	ND	ND	ND	ND	ND	ND	ND	ND	ND
80290	2019-03-27T09:00:00	ND	ND	ND	ND	ND	ND	ND	ND	ND	ND	ND	ND
80291	2019-03-27T10:00:00	ND	ND	ND	ND	ND	ND	ND	ND	ND	ND	ND	ND
80292	2019-03-27T11:00:00	ND	ND	ND	ND	ND	ND	ND	ND	ND	ND	0	0
80293	2019-03-27T12:00:00	0.8	ND	ND	ND	ND	36.3	ND	ND	ND	ND	0	0
80294	2019-03-27T13:00:00	52.9	ND	ND	ND	ND	47.6	ND	ND	ND	ND	0	0
80295	2019-03-27T14:00:00	76.6	ND	ND	ND	ND	102.7	ND	ND	ND	ND	0	0
80296	2019-03-27T15:00:00	68.9	ND	ND	ND	ND	98.5	ND	ND	ND	ND	0	0
80297	2019-03-27T16:00:00	70.4	ND	ND	ND	ND	67.8	ND	ND	ND	ND	0	0
80298	2019-03-27T17:00:00	58.3	ND	ND	ND	ND	24.2	ND	ND	ND	ND	0.1	0
80299	2019-03-27T18:00:00	84.1	ND	ND	ND	ND	53.6	ND	ND	ND	ND	311.1	0
80300	2019-03-27T19:00:00	48.4	ND	ND	ND	ND	57.2	ND	ND	ND	ND	0	0
80301	2019-03-27T20:00:00	28.5	ND	ND	ND	ND	57.7	ND	ND	ND	ND	0	0
80302	2019-03-27T21:00:00	16.1	ND	ND	ND	ND	58.2	ND	ND	ND	ND	0	0
80303	2019-03-27T22:00:00	19.1	ND	ND	ND	ND	54.3	ND	ND	ND	ND	0	0
80304	2019-03-27T23:00:00	17.4	ND	ND	ND	ND	45.6	ND	ND	ND	ND	0	0
80305	2019-03-28T00:00:00	47	ND	ND	ND	ND	45.2	ND	ND	ND	ND	0	0
80306	2019-03-28T01:00:00	54.8	ND	ND	ND	ND	44.4	ND	ND	ND	ND	0	0
80307	2019-03-28T02:00:00	36.2	ND	ND	ND	ND	49.6	ND	ND	ND	ND	0	0
80308	2019-03-28T03:00:00	40.2	ND	ND	ND	ND	45.2	ND	ND	ND	ND	0	0
80309	2019-03-28T04:00:00	32.9	ND	ND	ND	ND	43.9	ND	ND	ND	ND	0	0
80310	2019-03-28T05:00:00	51.7	ND	ND	ND	ND	24.3	ND	ND	ND	ND	0	0
80311	2019-03-28T06:00:00	64.8	ND	ND	ND	ND	24.9	ND	ND	ND	ND	0	0
80312	2019-03-28T07:00:00	69.8	ND	ND	ND	ND	47.5	ND	ND	ND	ND	0	0
80313	2019-03-28T08:00:00	76.6	ND	ND	ND	ND	36.1	ND	ND	ND	ND	16.6	0
80314	2019-03-28T09:00:00	84.4	ND	ND	ND	ND	38.1	ND	ND	ND	ND	27.9	0
80315	2019-03-28T10:00:00	82.3	ND	ND	ND	ND	56.5	ND	ND	ND	ND	290.8	0
80316	2019-03-28T11:00:00	81.9	ND	ND	ND	ND	57.9	ND	ND	ND	ND	644.1	0
80317	2019-03-28T12:00:00	47.1	ND	ND	ND	ND	ND	ND	ND	ND	ND	645.4	0
80318	2019-03-28T13:00:00	176.2	ND	ND	ND	ND	150.3	ND	ND	ND	ND	630	0
80319	2019-03-28T14:00:00	67.6	ND	ND	ND	ND	73.8	ND	ND	ND	ND	649.6	0
80320	2019-03-28T15:00:00	44.6	ND	ND	ND	ND	29.9	ND	ND	ND	ND	647.7	0
80321	2019-03-28T16:00:00	51.3	ND	ND	ND	ND	13.6	ND	ND	ND	ND	647.3	0
80322	2019-03-28T17:00:00	39.5	ND	ND	ND	ND	13.3	ND	ND	ND	ND	645.9	0
80323	2019-03-28T18:00:00	43.6	ND	ND	ND	ND	11.7	ND	ND	ND	ND	336.9	0
80324	2019-03-28T19:00:00	28.7	ND	ND	ND	ND	14.6	ND	ND	ND	ND	0	0
80325	2019-03-28T20:00:00	27.4	ND	ND	ND	ND	14.4	ND	ND	ND	ND	0	0
80326	2019-03-28T21:00:00	37.7	ND	ND	ND	ND	8.9	ND	ND	ND	ND	0	0
80327	2019-03-28T22:00:00	32.9	ND	ND	ND	ND	13.9	ND	ND	ND	ND	0	0
80328	2019-03-28T23:00:00	30.6	ND	ND	ND	ND	6.8	ND	ND	ND	ND	0	0
80329	2019-03-29T00:00:00	31.7	ND	ND	ND	ND	9.3	ND	ND	ND	ND	0	0
80330	2019-03-29T01:00:00	33.2	ND	ND	ND	ND	4.5	ND	ND	ND	ND	0	0
80331	2019-03-29T02:00:00	35.2	ND	ND	ND	ND	6.6	ND	ND	ND	ND	0	0
80332	2019-03-29T03:00:00	27.3	ND	ND	ND	ND	11.6	ND	ND	ND	ND	0	0
80333	2019-03-29T04:00:00	18.6	ND	ND	ND	ND	11	ND	ND	ND	ND	0	1.52
80334	2019-03-29T05:00:00	24.4	ND	ND	ND	ND	9.4	ND	ND	ND	ND	0	7.37
80335	2019-03-29T06:00:00	29.8	ND	ND	ND	ND	6.6	ND	ND	ND	ND	0	9.14
80336	2019-03-29T07:00:00	33.5	ND	ND	ND	ND	4.2	ND	ND	ND	ND	0	25.91
80337	2019-03-29T08:00:00	37.8	ND	ND	ND	ND	3.3	ND	ND	ND	ND	0	35.05
80338	2019-03-29T09:00:00	40.4	ND	ND	ND	ND	3.7	ND	ND	ND	ND	11.6	7.62
80339	2019-03-29T10:00:00	32.8	ND	ND	ND	ND	3.9	ND	ND	ND	ND	51.9	3.56
80340	2019-03-29T11:00:00	34.4	ND	ND	ND	ND	5.5	ND	ND	ND	ND	129.6	1.02
80341	2019-03-29T12:00:00	26.6	ND	ND	ND	ND	7.8	ND	ND	ND	ND	182.6	0.51
80342	2019-03-29T13:00:00	19.2	ND	ND	ND	ND	14.9	ND	ND	ND	ND	438.4	0.25
80343	2019-03-29T14:00:00	18.3	ND	ND	ND	ND	33.4	ND	ND	ND	ND	644.6	0
80344	2019-03-29T15:00:00	28.3	ND	ND	ND	ND	62.4	ND	ND	ND	ND	646.5	0
80345	2019-03-29T16:00:00	44.2	ND	ND	ND	ND	72.4	ND	ND	ND	ND	646.4	0
80346	2019-03-29T17:00:00	54.7	ND	ND	ND	ND	52.2	ND	ND	ND	ND	598.1	0
80347	2019-03-29T18:00:00	62.7	ND	ND	ND	ND	32.9	ND	ND	ND	ND	462	0
80348	2019-03-29T19:00:00	63.4	ND	ND	ND	ND	11.2	ND	ND	ND	ND	0	0
80349	2019-03-29T20:00:00	58.4	ND	ND	ND	ND	4.5	ND	ND	ND	ND	0	0
80350	2019-03-29T21:00:00	71.7	ND	ND	ND	ND	0.2	ND	ND	ND	ND	0	0
80351	2019-03-29T22:00:00	46.3	ND	ND	ND	ND	1.6	ND	ND	ND	ND	0	0
80352	2019-03-29T23:00:00	36	ND	ND	ND	ND	2.4	ND	ND	ND	ND	0	0
80353	2019-03-30T00:00:00	35.1	ND	ND	ND	ND	4.9	ND	ND	ND	ND	0	0
80354	2019-03-30T01:00:00	32.9	ND	ND	ND	ND	7.7	ND	ND	ND	ND	0	0
80355	2019-03-30T02:00:00	55.3	ND	ND	ND	ND	3.7	ND	ND	ND	ND	0	0
80356	2019-03-30T03:00:00	87.9	ND	ND	ND	ND	3.4	ND	ND	ND	ND	0	2.54
80357	2019-03-30T04:00:00	71.3	ND	ND	ND	ND	3.8	ND	ND	ND	ND	0	0.51
80358	2019-03-30T05:00:00	48.3	ND	ND	ND	ND	5	ND	ND	ND	ND	0	0
80359	2019-03-30T06:00:00	37.2	ND	ND	ND	ND	3.5	ND	ND	ND	ND	0	0.25
80360	2019-03-30T07:00:00	46.6	ND	ND	ND	ND	3.7	ND	ND	ND	ND	0.1	0
80361	2019-03-30T08:00:00	52	ND	ND	ND	ND	3.4	ND	ND	ND	ND	31.5	0
80362	2019-03-30T09:00:00	82.5	ND	ND	ND	ND	5.4	ND	ND	ND	ND	215.1	0
80363	2019-03-30T10:00:00	105.9	ND	ND	ND	ND	16.1	ND	ND	ND	ND	516	0
80364	2019-03-30T11:00:00	93	ND	ND	ND	ND	44	ND	ND	ND	ND	646.6	0
80365	2019-03-30T12:00:00	82.7	ND	ND	ND	ND	69	ND	ND	ND	ND	647.3	0
80366	2019-03-30T13:00:00	86.7	ND	ND	ND	ND	77.3	ND	ND	ND	ND	647	0
80367	2019-03-30T14:00:00	93.7	ND	ND	ND	ND	56.2	ND	ND	ND	ND	645.1	0
80368	2019-03-30T15:00:00	104.5	ND	ND	ND	ND	65.3	ND	ND	ND	ND	635.7	0
80369	2019-03-30T16:00:00	90.2	ND	ND	ND	ND	98.3	ND	ND	ND	ND	618.7	0
80370	2019-03-30T17:00:00	85.3	ND	ND	ND	ND	97.1	ND	ND	ND	ND	632.1	0
80371	2019-03-30T18:00:00	98.5	ND	ND	ND	ND	77.4	ND	ND	ND	ND	505.2	0
80372	2019-03-30T19:00:00	72.6	ND	ND	ND	ND	16.6	ND	ND	ND	ND	0	0
80373	2019-03-30T20:00:00	27.1	ND	ND	ND	ND	9.2	ND	ND	ND	ND	0	0
80374	2019-03-30T21:00:00	29.7	ND	ND	ND	ND	5	ND	ND	ND	ND	0	0
80375	2019-03-30T22:00:00	18.9	ND	ND	ND	ND	2	ND	ND	ND	ND	0	0
80376	2019-03-30T23:00:00	41.3	ND	ND	ND	ND	2.4	ND	ND	ND	ND	0	0
80377	2019-03-31T00:00:00	58.8	ND	ND	ND	ND	3.5	ND	ND	ND	ND	0	0
80378	2019-03-31T01:00:00	69.4	ND	ND	ND	ND	5.5	ND	ND	ND	ND	0	0
80379	2019-03-31T02:00:00	63	ND	ND	ND	ND	3.9	ND	ND	ND	ND	0	0
80380	2019-03-31T03:00:00	41.2	ND	ND	ND	ND	3.5	ND	ND	ND	ND	0	0
80381	2019-03-31T04:00:00	43.8	ND	ND	ND	ND	2.7	ND	ND	ND	ND	0	0
80382	2019-03-31T05:00:00	85.6	ND	ND	ND	ND	4	ND	ND	ND	ND	0	0
80383	2019-03-31T06:00:00	68.8	ND	ND	ND	ND	3.4	ND	ND	ND	ND	0	0
80384	2019-03-31T07:00:00	66.5	ND	ND	ND	ND	3.6	ND	ND	ND	ND	0.2	0
80385	2019-03-31T08:00:00	79	ND	ND	ND	ND	5.1	ND	ND	ND	ND	41.4	0
80386	2019-03-31T09:00:00	90.3	ND	ND	ND	ND	8.6	ND	ND	ND	ND	420.1	0
80387	2019-03-31T10:00:00	88.8	ND	ND	ND	ND	27.9	ND	ND	ND	ND	522.7	0
80388	2019-03-31T11:00:00	82	ND	ND	ND	ND	58.9	ND	ND	ND	ND	647.1	0
80389	2019-03-31T12:00:00	76.3	ND	ND	ND	ND	78.8	ND	ND	ND	ND	647.6	0
80390	2019-03-31T13:00:00	56.2	ND	ND	ND	ND	55.3	ND	ND	ND	ND	641	0
80391	2019-03-31T14:00:00	34.4	ND	ND	ND	ND	40.3	ND	ND	ND	ND	514.7	0
80392	2019-03-31T15:00:00	21.3	ND	ND	ND	ND	37.1	ND	ND	ND	ND	641.3	0
80393	2019-03-31T16:00:00	24.3	ND	ND	ND	ND	25	ND	ND	ND	ND	648.2	0
80394	2019-03-31T17:00:00	23.9	ND	ND	ND	ND	14.8	ND	ND	ND	ND	435.9	0.76
80395	2019-03-31T18:00:00	17	ND	ND	ND	ND	7.2	ND	ND	ND	ND	391.3	42.16
80396	2019-03-31T19:00:00	8.5	ND	ND	ND	ND	6.9	ND	ND	ND	ND	0	0.25
80397	2019-03-31T20:00:00	14.2	ND	ND	ND	ND	5.8	ND	ND	ND	ND	0	0
80398	2019-03-31T21:00:00	28.9	ND	ND	ND	ND	6.7	ND	ND	ND	ND	0	0
80399	2019-03-31T22:00:00	35.4	ND	ND	ND	ND	4.7	ND	ND	ND	ND	0	0
80400	2019-03-31T23:00:00	32.5	ND	ND	ND	ND	6.4	ND	ND	ND	ND	0	0.25
80401	2019-04-01T00:00:00	22.9	ND	ND	ND	ND	6	ND	ND	ND	ND	0	0
80402	2019-04-01T01:00:00	37.8	ND	ND	ND	ND	4.7	ND	ND	ND	ND	0	0
80403	2019-04-01T02:00:00	35.4	ND	ND	ND	ND	4.4	ND	ND	ND	ND	0	0
80404	2019-04-01T03:00:00	28.9	ND	ND	ND	ND	5.4	ND	ND	ND	ND	0	0.25
80405	2019-04-01T04:00:00	23.9	ND	ND	ND	ND	6.9	ND	ND	ND	ND	0	1.78
80406	2019-04-01T05:00:00	24.5	ND	ND	ND	ND	4.8	ND	ND	ND	ND	0	0.25
80407	2019-04-01T06:00:00	28.6	ND	ND	ND	ND	3.4	ND	ND	ND	ND	0	0
80408	2019-04-01T07:00:00	43.7	ND	ND	ND	ND	3.5	ND	ND	ND	ND	0.2	0
80409	2019-04-01T08:00:00	59.5	ND	ND	ND	ND	3.6	ND	ND	ND	ND	50.4	0
80410	2019-04-01T09:00:00	59	ND	ND	ND	ND	4.4	ND	ND	ND	ND	141	3.81
80411	2019-04-01T10:00:00	33.2	ND	ND	ND	ND	7.8	ND	ND	ND	ND	269.5	1.02
80412	2019-04-01T11:00:00	31.1	ND	ND	ND	ND	6.5	ND	ND	ND	ND	416.5	1.27
80413	2019-04-01T12:00:00	44.5	ND	ND	ND	ND	19.8	ND	ND	ND	ND	294.6	0
80414	2019-04-01T13:00:00	53.2	ND	ND	ND	ND	21.5	ND	ND	ND	ND	639	0
80415	2019-04-01T14:00:00	39.1	ND	ND	ND	ND	15	ND	ND	ND	ND	646.8	32.51
80416	2019-04-01T15:00:00	24.9	ND	ND	ND	ND	7.4	ND	ND	ND	ND	291.8	2.29
80417	2019-04-01T16:00:00	27.7	ND	ND	ND	ND	5	ND	ND	ND	ND	241.7	1.52
80418	2019-04-01T17:00:00	57.4	ND	ND	ND	ND	6.4	ND	ND	ND	ND	140.5	0.76
80419	2019-04-01T18:00:00	28.4	ND	ND	ND	ND	5	ND	ND	ND	ND	110	0.25
80420	2019-04-01T19:00:00	33.1	ND	ND	ND	ND	3.5	ND	ND	ND	ND	0	0
80421	2019-04-01T20:00:00	39.9	ND	ND	ND	ND	5.2	ND	ND	ND	ND	0	5.33
80422	2019-04-01T21:00:00	24.7	ND	ND	ND	ND	5.1	ND	ND	ND	ND	0	0.51
80423	2019-04-01T22:00:00	22.8	ND	ND	ND	ND	3.8	ND	ND	ND	ND	0	0
80424	2019-04-01T23:00:00	35.1	ND	ND	ND	ND	3.1	ND	ND	ND	ND	0	0
80425	2019-04-02T00:00:00	32	ND	ND	ND	ND	1.2	ND	ND	ND	ND	0	0
80426	2019-04-02T01:00:00	27.2	ND	ND	ND	ND	0.1	ND	ND	ND	ND	0	0.25
80427	2019-04-02T02:00:00	25.3	ND	ND	ND	ND	0.5	ND	ND	ND	ND	0	0
80428	2019-04-02T03:00:00	28.4	ND	ND	ND	ND	4.8	ND	ND	ND	ND	0	0
80429	2019-04-02T04:00:00	23.3	ND	ND	ND	ND	6.7	ND	ND	ND	ND	0	0
80430	2019-04-02T05:00:00	18.6	ND	ND	ND	ND	5.8	ND	ND	ND	ND	0	0
80431	2019-04-02T06:00:00	31.1	ND	ND	ND	ND	3.8	ND	ND	ND	ND	0	0
80432	2019-04-02T07:00:00	47.9	ND	ND	ND	ND	3.5	ND	ND	ND	ND	0.1	0
80433	2019-04-02T08:00:00	68.9	ND	ND	ND	ND	3.5	ND	ND	ND	ND	37.9	0
80434	2019-04-02T09:00:00	79.6	ND	ND	ND	ND	6	ND	ND	ND	ND	141.9	0
80435	2019-04-02T10:00:00	73.3	ND	ND	ND	ND	16.2	ND	ND	ND	ND	254.8	0
80436	2019-04-02T11:00:00	79.8	ND	ND	ND	ND	25	ND	ND	ND	ND	598.2	0
80437	2019-04-02T12:00:00	73.2	ND	ND	ND	ND	42.3	ND	ND	ND	ND	640.7	0
80438	2019-04-02T13:00:00	66.8	ND	ND	ND	ND	37.4	ND	ND	ND	ND	646.4	0
80439	2019-04-02T14:00:00	62.6	ND	ND	ND	ND	56.1	ND	ND	ND	ND	647.5	0
80440	2019-04-02T15:00:00	74.9	ND	ND	ND	ND	34.8	ND	ND	ND	ND	646.3	0
80441	2019-04-02T16:00:00	85.7	ND	ND	ND	ND	38.8	ND	ND	ND	ND	283.9	1.78
80442	2019-04-02T17:00:00	68	ND	ND	ND	ND	17.7	ND	ND	ND	ND	0	73.91
80443	2019-04-02T18:00:00	9.8	ND	ND	ND	ND	5.8	ND	ND	ND	ND	0	19.05
80444	2019-04-02T19:00:00	13.9	ND	ND	ND	ND	3.3	ND	ND	ND	ND	0	3.3
80445	2019-04-02T20:00:00	35.7	ND	ND	ND	ND	2.6	ND	ND	ND	ND	0	0.76
80446	2019-04-02T21:00:00	34.1	ND	ND	ND	ND	3.2	ND	ND	ND	ND	0	0
80447	2019-04-02T22:00:00	26.9	ND	ND	ND	ND	3.1	ND	ND	ND	ND	0	0.25
80448	2019-04-02T23:00:00	42.5	ND	ND	ND	ND	2.9	ND	ND	ND	ND	0	0
80449	2019-04-03T00:00:00	43	ND	ND	ND	ND	2.8	ND	ND	ND	ND	0	0
80450	2019-04-03T01:00:00	31.4	ND	ND	ND	ND	3.3	ND	ND	ND	ND	0	0
80451	2019-04-03T02:00:00	31.2	ND	ND	ND	ND	2.8	ND	ND	ND	ND	0	0
80452	2019-04-03T03:00:00	24.8	ND	ND	ND	ND	3.3	ND	ND	ND	ND	0	0
80453	2019-04-03T04:00:00	29.8	ND	ND	ND	ND	2.8	ND	ND	ND	ND	0	0
80454	2019-04-03T05:00:00	54	ND	ND	ND	ND	2.7	ND	ND	ND	ND	0	0
80455	2019-04-03T06:00:00	80	ND	ND	ND	ND	2.8	ND	ND	ND	ND	0	0
80456	2019-04-03T07:00:00	117.7	ND	ND	ND	ND	2.7	ND	ND	ND	ND	0	0
80457	2019-04-03T08:00:00	119.5	ND	ND	ND	ND	2.9	ND	ND	ND	ND	78.8	0
80458	2019-04-03T09:00:00	125.2	ND	ND	ND	ND	3.3	ND	ND	ND	ND	187.9	0
80459	2019-04-03T10:00:00	123	ND	ND	ND	ND	4.2	ND	ND	ND	ND	245.1	0
80460	2019-04-03T11:00:00	97.4	ND	ND	ND	ND	16.6	ND	ND	ND	ND	372	0
80461	2019-04-03T12:00:00	65	ND	ND	ND	ND	30.4	ND	ND	ND	ND	646.7	0
80462	2019-04-03T13:00:00	64.7	ND	ND	ND	ND	42.2	ND	ND	ND	ND	646.7	0
80463	2019-04-03T14:00:00	49.5	ND	ND	ND	ND	13.3	ND	ND	ND	ND	589.4	0
80464	2019-04-03T15:00:00	32.4	ND	ND	ND	ND	13.8	ND	ND	ND	ND	424.1	0
80465	2019-04-03T16:00:00	27.7	ND	ND	ND	ND	14.8	ND	ND	ND	ND	623.7	0
80466	2019-04-03T17:00:00	24.9	ND	ND	ND	ND	9.6	ND	ND	ND	ND	459.4	0
80467	2019-04-03T18:00:00	36.3	ND	ND	ND	ND	3.7	ND	ND	ND	ND	114.8	0
80468	2019-04-03T19:00:00	80.4	ND	ND	ND	ND	1.9	ND	ND	ND	ND	0	0
80469	2019-04-03T20:00:00	114.7	ND	ND	ND	ND	3.4	ND	ND	ND	ND	0	0
80470	2019-04-03T21:00:00	97.9	ND	ND	ND	ND	3.2	ND	ND	ND	ND	0	0
80471	2019-04-03T22:00:00	86.1	ND	ND	ND	ND	3.6	ND	ND	ND	ND	0	0
80472	2019-04-03T23:00:00	44.4	ND	ND	ND	ND	3.4	ND	ND	ND	ND	0	0
80473	2019-04-04T00:00:00	29.3	ND	ND	ND	ND	3.5	ND	ND	ND	ND	0	0
80474	2019-04-04T01:00:00	18.6	ND	ND	ND	ND	9.8	ND	ND	ND	ND	0	1.02
80475	2019-04-04T02:00:00	5	ND	ND	ND	ND	8.3	ND	ND	ND	ND	0	0.25
80476	2019-04-04T03:00:00	5.9	ND	ND	ND	ND	5.5	ND	ND	ND	ND	0	1.02
80477	2019-04-04T04:00:00	10.4	ND	ND	ND	ND	6.2	ND	ND	ND	ND	0	9.4
80478	2019-04-04T05:00:00	17.1	ND	ND	ND	ND	7.4	ND	ND	ND	ND	0	11.94
80479	2019-04-04T06:00:00	12.1	ND	ND	ND	ND	3.3	ND	ND	ND	ND	0	0
80480	2019-04-04T07:00:00	34.2	ND	ND	ND	ND	3.3	ND	ND	ND	ND	0.2	0.25
80481	2019-04-04T08:00:00	56.2	ND	ND	ND	ND	3.4	ND	ND	ND	ND	26.1	0
80482	2019-04-04T09:00:00	71.3	ND	ND	ND	ND	5	ND	ND	ND	ND	169.9	0
80483	2019-04-04T10:00:00	76.6	ND	ND	ND	ND	14	ND	ND	ND	ND	523.4	0
80484	2019-04-04T11:00:00	63.8	ND	ND	ND	ND	24	ND	ND	ND	ND	647.3	0
80485	2019-04-04T12:00:00	52.6	ND	ND	ND	ND	37.8	ND	ND	ND	ND	646.8	0
80486	2019-04-04T13:00:00	61.7	ND	ND	ND	ND	53.7	ND	ND	ND	ND	612.3	0
80487	2019-04-04T14:00:00	53.2	ND	ND	ND	ND	54.3	ND	ND	ND	ND	648.2	0
80488	2019-04-04T15:00:00	50.9	ND	ND	ND	ND	63.6	ND	ND	ND	ND	647.6	0
80489	2019-04-04T16:00:00	64.4	ND	ND	ND	ND	21	ND	ND	ND	ND	647.7	0
80490	2019-04-04T17:00:00	36	ND	ND	ND	ND	10.5	ND	ND	ND	ND	553.8	0
80491	2019-04-04T18:00:00	24.3	ND	ND	ND	ND	7.9	ND	ND	ND	ND	348.1	0
80492	2019-04-04T19:00:00	27.6	ND	ND	ND	ND	7.4	ND	ND	ND	ND	0	0
80493	2019-04-04T20:00:00	20.1	ND	ND	ND	ND	6.5	ND	ND	ND	ND	0	0
80494	2019-04-04T21:00:00	43.4	ND	ND	ND	ND	8.8	ND	ND	ND	ND	0	0
80495	2019-04-04T22:00:00	53.7	ND	ND	ND	ND	4.6	ND	ND	ND	ND	0	0
80496	2019-04-04T23:00:00	40.3	ND	ND	ND	ND	4.4	ND	ND	ND	ND	0	0
80497	2019-04-05T00:00:00	35.2	ND	ND	ND	ND	7.8	ND	ND	ND	ND	0	0
80498	2019-04-05T01:00:00	23.3	ND	ND	ND	ND	8.5	ND	ND	ND	ND	0	0
80499	2019-04-05T02:00:00	24.4	ND	ND	ND	ND	6.7	ND	ND	ND	ND	0	0
80500	2019-04-05T03:00:00	22.8	ND	ND	ND	ND	6.2	ND	ND	ND	ND	0	0
80501	2019-04-05T04:00:00	16.9	ND	ND	ND	ND	6	ND	ND	ND	ND	0	0
80502	2019-04-05T05:00:00	29.6	ND	ND	ND	ND	4.6	ND	ND	ND	ND	0	0.25
80503	2019-04-05T06:00:00	37.1	ND	ND	ND	ND	3.5	ND	ND	ND	ND	0	0
80504	2019-04-05T07:00:00	59.8	ND	ND	ND	ND	3.3	ND	ND	ND	ND	0.2	0
80505	2019-04-05T08:00:00	70.9	ND	ND	ND	ND	3.6	ND	ND	ND	ND	38.1	0
80506	2019-04-05T09:00:00	78.7	ND	ND	ND	ND	4.7	ND	ND	ND	ND	235.4	0
80507	2019-04-05T10:00:00	90	ND	ND	ND	ND	13.2	ND	ND	ND	ND	412.4	0
80508	2019-04-05T11:00:00	65.3	ND	ND	ND	ND	30.2	ND	ND	ND	ND	646.6	0
80509	2019-04-05T12:00:00	59.6	ND	ND	ND	ND	42.8	ND	ND	ND	ND	627.3	0
80510	2019-04-05T13:00:00	55.9	ND	ND	ND	ND	44.8	ND	ND	ND	ND	647.5	0
80511	2019-04-05T14:00:00	59.8	ND	ND	ND	ND	50.5	ND	ND	ND	ND	530	0
80512	2019-04-05T15:00:00	30.6	ND	ND	ND	ND	31.7	ND	ND	ND	ND	551.3	0
80513	2019-04-05T16:00:00	40.7	ND	ND	ND	ND	12.3	ND	ND	ND	ND	627.5	0
80514	2019-04-05T17:00:00	22.3	ND	ND	ND	ND	7.7	ND	ND	ND	ND	543.4	0
80515	2019-04-05T18:00:00	25	ND	ND	ND	ND	3.6	ND	ND	ND	ND	534	0
80516	2019-04-05T19:00:00	20.8	ND	ND	ND	ND	3.9	ND	ND	ND	ND	0	0
80517	2019-04-05T20:00:00	11.8	ND	ND	ND	ND	7.8	ND	ND	ND	ND	0	0
80518	2019-04-05T21:00:00	10.2	ND	ND	ND	ND	7.2	ND	ND	ND	ND	0	0
80519	2019-04-05T22:00:00	15	ND	ND	ND	ND	5.1	ND	ND	ND	ND	0	1.27
80520	2019-04-05T23:00:00	35.3	ND	ND	ND	ND	6.2	ND	ND	ND	ND	0	5.59
80521	2019-04-06T00:00:00	21.9	ND	ND	ND	ND	7.6	ND	ND	ND	ND	0	2.29
80522	2019-04-06T01:00:00	18.1	ND	ND	ND	ND	6.3	ND	ND	ND	ND	0	1.52
80523	2019-04-06T02:00:00	10.5	ND	ND	ND	ND	8.1	ND	ND	ND	ND	0	1.52
80524	2019-04-06T03:00:00	12	ND	ND	ND	ND	8.3	ND	ND	ND	ND	0	1.78
80525	2019-04-06T04:00:00	14.9	ND	ND	ND	ND	8.1	ND	ND	ND	ND	0	0.76
80526	2019-04-06T05:00:00	8.1	ND	ND	ND	ND	6.9	ND	ND	ND	ND	0	0.25
80527	2019-04-06T06:00:00	31.2	ND	ND	ND	ND	3.3	ND	ND	ND	ND	0	0.25
80528	2019-04-06T07:00:00	39.6	ND	ND	ND	ND	3.2	ND	ND	ND	ND	0.2	0
80529	2019-04-06T08:00:00	62.2	ND	ND	ND	ND	3.7	ND	ND	ND	ND	26.1	0
80530	2019-04-06T09:00:00	98.5	ND	ND	ND	ND	6.8	ND	ND	ND	ND	278.8	0
80531	2019-04-06T10:00:00	102.4	ND	ND	ND	ND	10.4	ND	ND	ND	ND	566.8	0
80532	2019-04-06T11:00:00	80.4	ND	ND	ND	ND	18.1	ND	ND	ND	ND	625.1	0
80533	2019-04-06T12:00:00	75.8	ND	ND	ND	ND	21.7	ND	ND	ND	ND	647.3	0
80534	2019-04-06T13:00:00	55.6	ND	ND	ND	ND	44	ND	ND	ND	ND	638.7	0
80535	2019-04-06T14:00:00	50.5	ND	ND	ND	ND	76	ND	ND	ND	ND	643.8	0
80536	2019-04-06T15:00:00	67	ND	ND	ND	ND	53.4	ND	ND	ND	ND	647.7	0
80537	2019-04-06T16:00:00	61	ND	ND	ND	ND	44.7	ND	ND	ND	ND	648.5	0
80538	2019-04-06T17:00:00	67.9	ND	ND	ND	ND	34.9	ND	ND	ND	ND	483.8	0
80539	2019-04-06T18:00:00	45.2	ND	ND	ND	ND	14.9	ND	ND	ND	ND	161	0
80540	2019-04-06T19:00:00	31.9	ND	ND	ND	ND	8.3	ND	ND	ND	ND	0	0
80541	2019-04-06T20:00:00	32.7	ND	ND	ND	ND	6.6	ND	ND	ND	ND	0	0
80542	2019-04-06T21:00:00	26.4	ND	ND	ND	ND	4.8	ND	ND	ND	ND	0	0
80543	2019-04-06T22:00:00	41.1	ND	ND	ND	ND	6.3	ND	ND	ND	ND	0	0
80544	2019-04-06T23:00:00	21.5	ND	ND	ND	ND	9.1	ND	ND	ND	ND	0	0
80545	2019-04-07T00:00:00	23	ND	ND	ND	ND	9.1	ND	ND	ND	ND	0	0
80546	2019-04-07T01:00:00	45.5	ND	ND	ND	ND	3.8	ND	ND	ND	ND	0	0
80547	2019-04-07T02:00:00	49.8	ND	ND	ND	ND	6	ND	ND	ND	ND	0	0
80548	2019-04-07T03:00:00	46.2	ND	ND	ND	ND	4.2	ND	ND	ND	ND	0	0
80549	2019-04-07T04:00:00	53	ND	ND	ND	ND	4.7	ND	ND	ND	ND	0	0
80550	2019-04-07T05:00:00	53.7	ND	ND	ND	ND	4.1	ND	ND	ND	ND	0	0
80551	2019-04-07T06:00:00	66.8	ND	ND	ND	ND	3.1	ND	ND	ND	ND	0	0
80552	2019-04-07T07:00:00	86.3	ND	ND	ND	ND	3.3	ND	ND	ND	ND	0.4	0
80553	2019-04-07T08:00:00	79.7	ND	ND	ND	ND	5	ND	ND	ND	ND	59.3	0
80554	2019-04-07T09:00:00	77.7	ND	ND	ND	ND	12.9	ND	ND	ND	ND	543.8	0
80555	2019-04-07T10:00:00	72.7	ND	ND	ND	ND	24.8	ND	ND	ND	ND	635.2	0
80556	2019-04-07T11:00:00	82.7	ND	ND	ND	ND	33.2	ND	ND	ND	ND	647.4	0
80557	2019-04-07T12:00:00	63.9	ND	ND	ND	ND	34.4	ND	ND	ND	ND	647.5	0
80558	2019-04-07T13:00:00	40.8	ND	ND	ND	ND	36.2	ND	ND	ND	ND	645.9	0
80559	2019-04-07T14:00:00	30.2	ND	ND	ND	ND	36	ND	ND	ND	ND	620.2	0
80560	2019-04-07T15:00:00	28.9	ND	ND	ND	ND	36.2	ND	ND	ND	ND	550.5	0
80561	2019-04-07T16:00:00	49	ND	ND	ND	ND	38.9	ND	ND	ND	ND	644.3	0
80562	2019-04-07T17:00:00	57.1	ND	ND	ND	ND	21.1	ND	ND	ND	ND	329.1	0
80563	2019-04-07T18:00:00	29.9	ND	ND	ND	ND	9.9	ND	ND	ND	ND	505.5	2.54
80564	2019-04-07T19:00:00	21.5	ND	ND	ND	ND	6.2	ND	ND	ND	ND	0	0
80565	2019-04-07T20:00:00	14	ND	ND	ND	ND	2	ND	ND	ND	ND	0	0
80566	2019-04-07T21:00:00	20.2	ND	ND	ND	ND	1.4	ND	ND	ND	ND	0	0
80567	2019-04-07T22:00:00	47	ND	ND	ND	ND	0.8	ND	ND	ND	ND	0	0
80568	2019-04-07T23:00:00	58.8	ND	ND	ND	ND	2.8	ND	ND	ND	ND	0	0
80569	2019-04-08T00:00:00	52.2	ND	ND	ND	ND	5.1	ND	ND	ND	ND	0	0
80570	2019-04-08T01:00:00	37.8	ND	ND	ND	ND	3.4	ND	ND	ND	ND	0	0
80571	2019-04-08T02:00:00	38.2	ND	ND	ND	ND	3.4	ND	ND	ND	ND	0	0
80572	2019-04-08T03:00:00	32.4	ND	ND	ND	ND	4.1	ND	ND	ND	ND	0	0
80573	2019-04-08T04:00:00	43.8	ND	ND	ND	ND	3.2	ND	ND	ND	ND	0	0
80574	2019-04-08T05:00:00	45.3	ND	ND	ND	ND	0.1	ND	ND	ND	ND	0	0
80575	2019-04-08T06:00:00	54.9	ND	ND	ND	ND	0	ND	ND	ND	ND	0	0
80576	2019-04-08T07:00:00	101.2	ND	ND	ND	ND	0.5	ND	ND	ND	ND	0.6	0
80577	2019-04-08T08:00:00	127.8	ND	ND	ND	ND	0.2	ND	ND	ND	ND	28.3	0
80578	2019-04-08T09:00:00	111.7	ND	ND	ND	ND	3.8	ND	ND	ND	ND	229.6	0
80579	2019-04-08T10:00:00	103.7	ND	ND	ND	ND	11.7	ND	ND	ND	ND	556.4	0
80580	2019-04-08T11:00:00	93	ND	ND	ND	ND	25.1	ND	ND	ND	ND	641	0
80581	2019-04-08T12:00:00	81.1	ND	ND	ND	ND	37.9	ND	ND	ND	ND	633.4	0
80582	2019-04-08T13:00:00	76.2	ND	ND	ND	ND	50	ND	ND	ND	ND	645.9	0
80583	2019-04-08T14:00:00	70.5	ND	ND	ND	ND	34.2	ND	ND	ND	ND	614.7	0
80584	2019-04-08T15:00:00	45.9	ND	ND	ND	ND	13.9	ND	ND	ND	ND	535.5	0
80585	2019-04-08T16:00:00	26.4	ND	ND	ND	ND	10.1	ND	ND	ND	ND	638.8	0
80586	2019-04-08T17:00:00	23.2	ND	ND	ND	ND	8.9	ND	ND	ND	ND	630.9	0
80587	2019-04-08T18:00:00	23.6	ND	ND	ND	ND	7.2	ND	ND	ND	ND	393.3	0
80588	2019-04-08T19:00:00	37.1	ND	ND	ND	ND	5.1	ND	ND	ND	ND	0	5.84
80589	2019-04-08T20:00:00	25.1	ND	ND	ND	ND	4.7	ND	ND	ND	ND	0	0.25
80590	2019-04-08T21:00:00	41	ND	ND	ND	ND	2.5	ND	ND	ND	ND	0	0
80591	2019-04-08T22:00:00	69.6	ND	ND	ND	ND	3.8	ND	ND	ND	ND	0	0
80592	2019-04-08T23:00:00	56.2	ND	ND	ND	ND	3.3	ND	ND	ND	ND	0	0
80593	2019-04-09T00:00:00	32.2	ND	ND	ND	ND	4.2	ND	ND	ND	ND	0	0
80594	2019-04-09T01:00:00	25.1	ND	ND	ND	ND	2.3	ND	ND	ND	ND	0	0
80595	2019-04-09T02:00:00	48.3	ND	ND	ND	ND	0.3	ND	ND	ND	ND	0	0
80596	2019-04-09T03:00:00	27.9	ND	ND	ND	ND	1.8	ND	ND	ND	ND	0	0
80597	2019-04-09T04:00:00	16.7	ND	ND	ND	ND	3.4	ND	ND	ND	ND	0	0
80598	2019-04-09T05:00:00	24.1	ND	ND	ND	ND	2.1	ND	ND	ND	ND	0	0
80599	2019-04-09T06:00:00	22.4	ND	ND	ND	ND	1.6	ND	ND	ND	ND	0	0.25
80600	2019-04-09T07:00:00	38	ND	ND	ND	ND	2.5	ND	ND	ND	ND	0	0
80601	2019-04-09T08:00:00	70.1	ND	ND	ND	ND	2.3	ND	ND	ND	ND	101.2	0
80602	2019-04-09T09:00:00	113.1	ND	ND	ND	ND	1.9	ND	ND	ND	ND	555.2	0
80603	2019-04-09T10:00:00	84.8	ND	ND	ND	ND	7.4	ND	ND	ND	ND	618	0
80604	2019-04-09T11:00:00	59.6	ND	ND	ND	ND	17	ND	ND	ND	ND	626.1	0
80605	2019-04-09T12:00:00	59.9	ND	ND	ND	ND	35.3	ND	ND	ND	ND	646.2	0
80606	2019-04-09T13:00:00	64.8	ND	ND	ND	ND	43.1	ND	ND	ND	ND	643.8	0
80607	2019-04-09T14:00:00	44.7	ND	ND	ND	ND	32.5	ND	ND	ND	ND	600.6	0
80608	2019-04-09T15:00:00	38.5	ND	ND	ND	ND	21	ND	ND	ND	ND	620.7	0
80609	2019-04-09T16:00:00	27	ND	ND	ND	ND	13.4	ND	ND	ND	ND	630.5	0
80610	2019-04-09T17:00:00	19.5	ND	ND	ND	ND	11.6	ND	ND	ND	ND	644.5	0
80611	2019-04-09T18:00:00	19.1	ND	ND	ND	ND	5.3	ND	ND	ND	ND	336.5	0
80612	2019-04-09T19:00:00	19.1	ND	ND	ND	ND	2.6	ND	ND	ND	ND	0	0
80613	2019-04-09T20:00:00	24.4	ND	ND	ND	ND	1.9	ND	ND	ND	ND	0	0
80614	2019-04-09T21:00:00	37.9	ND	ND	ND	ND	0	ND	ND	ND	ND	0	0
80615	2019-04-09T22:00:00	59.9	ND	ND	ND	ND	0	ND	ND	ND	ND	0	0
80616	2019-04-09T23:00:00	47.9	ND	ND	ND	ND	1.7	ND	ND	ND	ND	0	0
80617	2019-04-10T00:00:00	48.6	ND	ND	ND	ND	2.3	ND	ND	ND	ND	0	0
80618	2019-04-10T01:00:00	41.2	ND	ND	ND	ND	4	ND	ND	ND	ND	0	0
80619	2019-04-10T02:00:00	26.2	ND	ND	ND	ND	2.6	ND	ND	ND	ND	0	0
80620	2019-04-10T03:00:00	35.6	ND	ND	ND	ND	2.9	ND	ND	ND	ND	0	0
80621	2019-04-10T04:00:00	48.2	ND	ND	ND	ND	2.9	ND	ND	ND	ND	0	0
80622	2019-04-10T05:00:00	54.9	ND	ND	ND	ND	2.2	ND	ND	ND	ND	0	0
80623	2019-04-10T06:00:00	56.2	ND	ND	ND	ND	2.3	ND	ND	ND	ND	0	0
80624	2019-04-10T07:00:00	100.7	ND	ND	ND	ND	2.2	ND	ND	ND	ND	0	0
80625	2019-04-10T08:00:00	123.1	ND	ND	ND	ND	2.4	ND	ND	ND	ND	51.3	0
80626	2019-04-10T09:00:00	143.2	ND	ND	ND	ND	3.5	ND	ND	ND	ND	361.4	0
80627	2019-04-10T10:00:00	120.4	ND	ND	ND	ND	15.6	ND	ND	ND	ND	377.3	0
80628	2019-04-10T11:00:00	84.6	ND	ND	ND	ND	27.3	ND	ND	ND	ND	645.7	0
80629	2019-04-10T12:00:00	82.3	ND	ND	ND	ND	40.4	ND	ND	ND	ND	646.2	0
80630	2019-04-10T13:00:00	76.6	ND	ND	ND	ND	50.2	ND	ND	ND	ND	628.6	0
80631	2019-04-10T14:00:00	74.1	ND	ND	ND	ND	59.4	ND	ND	ND	ND	575.3	0
80632	2019-04-10T15:00:00	77.9	ND	ND	ND	ND	25.4	ND	ND	ND	ND	575.1	13.46
80633	2019-04-10T16:00:00	39.2	ND	ND	ND	ND	5	ND	ND	ND	ND	139.9	66.8
80634	2019-04-10T17:00:00	25.2	ND	ND	ND	ND	2.5	ND	ND	ND	ND	106.2	0.25
80635	2019-04-10T18:00:00	55	ND	ND	ND	ND	2.6	ND	ND	ND	ND	143.6	0
80636	2019-04-10T19:00:00	44.3	ND	ND	ND	ND	3.3	ND	ND	ND	ND	0	0
80637	2019-04-10T20:00:00	53.2	ND	ND	ND	ND	2.1	ND	ND	ND	ND	0	0
80638	2019-04-10T21:00:00	67.9	ND	ND	ND	ND	2.1	ND	ND	ND	ND	0	0
80639	2019-04-10T22:00:00	89.7	ND	ND	ND	ND	2.2	ND	ND	ND	ND	0	0
80640	2019-04-10T23:00:00	92.1	ND	ND	ND	ND	2.1	ND	ND	ND	ND	0	0
80641	2019-04-11T00:00:00	108.2	ND	ND	ND	ND	1.9	ND	ND	ND	ND	0	0
80642	2019-04-11T01:00:00	111	ND	ND	ND	ND	1.9	ND	ND	ND	ND	0	0
80643	2019-04-11T02:00:00	99.1	ND	ND	ND	ND	1.7	ND	ND	ND	ND	0	0
80644	2019-04-11T03:00:00	71.4	ND	ND	ND	ND	2.3	ND	ND	ND	ND	0	0
80645	2019-04-11T04:00:00	52.8	ND	ND	ND	ND	2.8	ND	ND	ND	ND	0	0
80646	2019-04-11T05:00:00	52.1	ND	ND	ND	ND	3.7	ND	ND	ND	ND	0	0
80647	2019-04-11T06:00:00	60.2	ND	ND	ND	ND	2.1	ND	ND	ND	ND	0	0
80648	2019-04-11T07:00:00	86.8	ND	ND	ND	ND	2.2	ND	ND	ND	ND	0	0
80649	2019-04-11T08:00:00	97.3	ND	ND	ND	ND	2.7	ND	ND	ND	ND	81.4	0
80650	2019-04-11T09:00:00	102.7	ND	ND	ND	ND	154	ND	ND	ND	ND	403.3	0
80651	2019-04-11T10:00:00	95.9	ND	ND	ND	ND	6.9	ND	ND	ND	ND	631.9	0
80652	2019-04-11T11:00:00	87.5	ND	ND	ND	ND	7.3	ND	ND	ND	ND	628.3	0
80653	2019-04-11T12:00:00	76.6	ND	ND	ND	ND	24.8	ND	ND	ND	ND	647.8	0
80654	2019-04-11T13:00:00	75.3	ND	ND	ND	ND	53.9	ND	ND	ND	ND	647.9	0
80655	2019-04-11T14:00:00	73.6	ND	ND	ND	ND	58	ND	ND	ND	ND	648.5	0
80656	2019-04-11T15:00:00	68.4	ND	ND	ND	ND	42.9	ND	ND	ND	ND	642.8	0
80657	2019-04-11T16:00:00	73.9	ND	ND	ND	ND	32.3	ND	ND	ND	ND	497.9	0
80658	2019-04-11T17:00:00	79.5	ND	ND	ND	ND	32.1	ND	ND	ND	ND	520.5	0
80659	2019-04-11T18:00:00	58.8	ND	ND	ND	ND	20.9	ND	ND	ND	ND	366.3	0
80660	2019-04-11T19:00:00	52.7	ND	ND	ND	ND	14	ND	ND	ND	ND	0	0
80661	2019-04-11T20:00:00	27.5	ND	ND	ND	ND	9.7	ND	ND	ND	ND	0	0
80662	2019-04-11T21:00:00	30.1	ND	ND	ND	ND	8.1	ND	ND	ND	ND	0	0
80663	2019-04-11T22:00:00	23.7	ND	ND	ND	ND	4.2	ND	ND	ND	ND	0	0
80664	2019-04-11T23:00:00	39.7	ND	ND	ND	ND	4.5	ND	ND	ND	ND	0	0
80665	2019-04-12T00:00:00	45.7	ND	ND	ND	ND	5.1	ND	ND	ND	ND	0	0
80666	2019-04-12T01:00:00	39.8	ND	ND	ND	ND	6.3	ND	ND	ND	ND	0	0
80667	2019-04-12T02:00:00	22.3	ND	ND	ND	ND	14.9	ND	ND	ND	ND	0	0
80668	2019-04-12T03:00:00	4.7	ND	ND	ND	ND	10	ND	ND	ND	ND	0	5.08
80669	2019-04-12T04:00:00	30.9	ND	ND	ND	ND	8.8	ND	ND	ND	ND	0	0.76
80670	2019-04-12T05:00:00	35.4	ND	ND	ND	ND	6.2	ND	ND	ND	ND	0	0
80671	2019-04-12T06:00:00	32.7	ND	ND	ND	ND	3.2	ND	ND	ND	ND	0	0
80672	2019-04-12T07:00:00	68.4	ND	ND	ND	ND	3.9	ND	ND	ND	ND	0	0
80673	2019-04-12T08:00:00	75.4	ND	ND	ND	ND	2.9	ND	ND	ND	ND	56.6	0
80674	2019-04-12T09:00:00	77.8	ND	ND	ND	ND	7.2	ND	ND	ND	ND	528.9	0
80675	2019-04-12T10:00:00	80.8	ND	ND	ND	ND	19.6	ND	ND	ND	ND	647	0
80676	2019-04-12T11:00:00	70	ND	ND	ND	ND	35.9	ND	ND	ND	ND	646.8	0
80677	2019-04-12T12:00:00	58.4	ND	ND	ND	ND	47.6	ND	ND	ND	ND	648.1	0
80678	2019-04-12T13:00:00	70.1	ND	ND	ND	ND	49.8	ND	ND	ND	ND	643.7	0
80679	2019-04-12T14:00:00	60.7	ND	ND	ND	ND	60	ND	ND	ND	ND	648.5	0
80680	2019-04-12T15:00:00	59	ND	ND	ND	ND	59.1	ND	ND	ND	ND	648.8	0
80681	2019-04-12T16:00:00	49.2	ND	ND	ND	ND	23.8	ND	ND	ND	ND	608.3	0
80682	2019-04-12T17:00:00	40.5	ND	ND	ND	ND	16.2	ND	ND	ND	ND	648.6	0
80683	2019-04-12T18:00:00	33.3	ND	ND	ND	ND	8.2	ND	ND	ND	ND	554.2	0
80684	2019-04-12T19:00:00	30.4	ND	ND	ND	ND	3.8	ND	ND	ND	ND	0	0
80685	2019-04-12T20:00:00	22.5	ND	ND	ND	ND	3.7	ND	ND	ND	ND	0	0
80686	2019-04-12T21:00:00	25.7	ND	ND	ND	ND	2.4	ND	ND	ND	ND	0	0
80687	2019-04-12T22:00:00	43.5	ND	ND	ND	ND	4.7	ND	ND	ND	ND	0	0
80688	2019-04-12T23:00:00	18.9	ND	ND	ND	ND	6.5	ND	ND	ND	ND	0	0
80689	2019-04-13T00:00:00	16.1	ND	ND	ND	ND	5.4	ND	ND	ND	ND	0	0
80690	2019-04-13T01:00:00	29.7	ND	ND	ND	ND	8.2	ND	ND	ND	ND	0	0
80691	2019-04-13T02:00:00	25.8	ND	ND	ND	ND	8	ND	ND	ND	ND	0	0
80692	2019-04-13T03:00:00	31.3	ND	ND	ND	ND	6.1	ND	ND	ND	ND	0	0
80693	2019-04-13T04:00:00	25.4	ND	ND	ND	ND	1.9	ND	ND	ND	ND	0	0
80694	2019-04-13T05:00:00	28.2	ND	ND	ND	ND	4.1	ND	ND	ND	ND	0	0
80695	2019-04-13T06:00:00	49	ND	ND	ND	ND	3.7	ND	ND	ND	ND	0	0
80696	2019-04-13T07:00:00	55.6	ND	ND	ND	ND	3.4	ND	ND	ND	ND	0	0
80697	2019-04-13T08:00:00	55.8	ND	ND	ND	ND	7.2	ND	ND	ND	ND	104.8	0
80698	2019-04-13T09:00:00	85.5	ND	ND	ND	ND	9.9	ND	ND	ND	ND	395.7	0
80699	2019-04-13T10:00:00	89.3	ND	ND	ND	ND	20.7	ND	ND	ND	ND	606.8	0
80700	2019-04-13T11:00:00	64.3	ND	ND	ND	ND	32.6	ND	ND	ND	ND	647.4	0
80701	2019-04-13T12:00:00	54.4	ND	ND	ND	ND	37.4	ND	ND	ND	ND	647.4	0
80702	2019-04-13T13:00:00	48.2	ND	ND	ND	ND	41.8	ND	ND	ND	ND	647.9	0
80703	2019-04-13T14:00:00	52.8	ND	ND	ND	ND	65.4	ND	ND	ND	ND	623.8	0
80704	2019-04-13T15:00:00	73.6	ND	ND	ND	ND	33	ND	ND	ND	ND	646.3	0
80705	2019-04-13T16:00:00	67.9	ND	ND	ND	ND	11.3	ND	ND	ND	ND	321.4	0
80706	2019-04-13T17:00:00	25.2	ND	ND	ND	ND	12.3	ND	ND	ND	ND	382.1	0
80707	2019-04-13T18:00:00	24	ND	ND	ND	ND	11.5	ND	ND	ND	ND	196.6	0
80708	2019-04-13T19:00:00	28.8	ND	ND	ND	ND	7.8	ND	ND	ND	ND	0	0
80709	2019-04-13T20:00:00	30.4	ND	ND	ND	ND	5	ND	ND	ND	ND	0	0
80710	2019-04-13T21:00:00	54.7	ND	ND	ND	ND	6.7	ND	ND	ND	ND	0	0
80711	2019-04-13T22:00:00	60.1	ND	ND	ND	ND	3.3	ND	ND	ND	ND	0	0
80712	2019-04-13T23:00:00	52.3	ND	ND	ND	ND	1.2	ND	ND	ND	ND	0	0
80713	2019-04-14T00:00:00	41.5	ND	ND	ND	ND	0.3	ND	ND	ND	ND	0	0
80714	2019-04-14T01:00:00	59.3	ND	ND	ND	ND	0.8	ND	ND	ND	ND	0	0
80715	2019-04-14T02:00:00	68.3	ND	ND	ND	ND	2.7	ND	ND	ND	ND	0	0
80716	2019-04-14T03:00:00	49.7	ND	ND	ND	ND	3.9	ND	ND	ND	ND	0	0
80717	2019-04-14T04:00:00	48.5	ND	ND	ND	ND	2.7	ND	ND	ND	ND	0	0
80718	2019-04-14T05:00:00	38.2	ND	ND	ND	ND	1.8	ND	ND	ND	ND	0	0
80719	2019-04-14T06:00:00	28.9	ND	ND	ND	ND	2	ND	ND	ND	ND	0	0
80720	2019-04-14T07:00:00	51.5	ND	ND	ND	ND	4.5	ND	ND	ND	ND	0	0
80721	2019-04-14T08:00:00	56.1	ND	ND	ND	ND	6.7	ND	ND	ND	ND	131.2	0
80722	2019-04-14T09:00:00	58.2	ND	ND	ND	ND	14.6	ND	ND	ND	ND	368.9	0
80723	2019-04-14T10:00:00	75.3	ND	ND	ND	ND	27.1	ND	ND	ND	ND	647.1	0
80724	2019-04-14T11:00:00	67	ND	ND	ND	ND	40.4	ND	ND	ND	ND	647.1	0
80725	2019-04-14T12:00:00	59.7	ND	ND	ND	ND	61.4	ND	ND	ND	ND	647.5	0
80726	2019-04-14T13:00:00	57	ND	ND	ND	ND	63.5	ND	ND	ND	ND	647.5	0
80727	2019-04-14T14:00:00	40.2	ND	ND	ND	ND	26.7	ND	ND	ND	ND	647.1	0
80728	2019-04-14T15:00:00	20.5	ND	ND	ND	ND	25.1	ND	ND	ND	ND	648.4	0
80729	2019-04-14T16:00:00	25.5	ND	ND	ND	ND	19.5	ND	ND	ND	ND	633.8	0
80730	2019-04-14T17:00:00	16.1	ND	ND	ND	ND	17.2	ND	ND	ND	ND	591.6	0
80731	2019-04-14T18:00:00	11.2	ND	ND	ND	ND	13.1	ND	ND	ND	ND	419.2	0
80732	2019-04-14T19:00:00	18.3	ND	ND	ND	ND	11.1	ND	ND	ND	ND	0	0
80733	2019-04-14T20:00:00	9.4	ND	ND	ND	ND	11.7	ND	ND	ND	ND	0	0
80734	2019-04-14T21:00:00	12.3	ND	ND	ND	ND	12.1	ND	ND	ND	ND	0	0
80735	2019-04-14T22:00:00	12.5	ND	ND	ND	ND	12.1	ND	ND	ND	ND	0	0
80736	2019-04-14T23:00:00	11.1	ND	ND	ND	ND	10.4	ND	ND	ND	ND	0	0
80737	2019-04-15T00:00:00	34.5	ND	ND	ND	ND	6.9	ND	ND	ND	ND	0	0
80738	2019-04-15T01:00:00	49.7	ND	ND	ND	ND	7.5	ND	ND	ND	ND	0	11.68
80739	2019-04-15T02:00:00	26	ND	ND	ND	ND	5.7	ND	ND	ND	ND	0	10.92
80740	2019-04-15T03:00:00	11.2	ND	ND	ND	ND	6.1	ND	ND	ND	ND	0	10.16
80741	2019-04-15T04:00:00	8.8	ND	ND	ND	ND	7.1	ND	ND	ND	ND	0	19.56
80742	2019-04-15T05:00:00	15.4	ND	ND	ND	ND	8.2	ND	ND	ND	ND	0	10.16
80743	2019-04-15T06:00:00	23.2	ND	ND	ND	ND	6.3	ND	ND	ND	ND	0	11.43
80744	2019-04-15T07:00:00	17	ND	ND	ND	ND	4	ND	ND	ND	ND	0	1.78
80745	2019-04-15T08:00:00	18.7	ND	ND	ND	ND	5	ND	ND	ND	ND	29.3	0.25
80746	2019-04-15T09:00:00	29.5	ND	ND	ND	ND	1.7	ND	ND	ND	ND	145.5	0
80747	2019-04-15T10:00:00	32.3	ND	ND	ND	ND	3.3	ND	ND	ND	ND	291	0
80748	2019-04-15T11:00:00	36.7	ND	ND	ND	ND	4.3	ND	ND	ND	ND	416.3	0.25
80749	2019-04-15T12:00:00	36.6	ND	ND	ND	ND	7.6	ND	ND	ND	ND	442.5	0
80750	2019-04-15T13:00:00	35.1	ND	ND	ND	ND	16.8	ND	ND	ND	ND	628	0
80751	2019-04-15T14:00:00	39	ND	ND	ND	ND	26.7	ND	ND	ND	ND	647	0
80752	2019-04-15T15:00:00	65.4	ND	ND	ND	ND	23.1	ND	ND	ND	ND	567.6	0
80753	2019-04-15T16:00:00	73.5	ND	ND	ND	ND	19.7	ND	ND	ND	ND	466.8	0
80754	2019-04-15T17:00:00	88.7	ND	ND	ND	ND	12.5	ND	ND	ND	ND	427.1	0
80755	2019-04-15T18:00:00	89.1	ND	ND	ND	ND	11.3	ND	ND	ND	ND	341	0
80756	2019-04-15T19:00:00	82.4	ND	ND	ND	ND	1.6	ND	ND	ND	ND	0	0
80757	2019-04-15T20:00:00	54.4	ND	ND	ND	ND	3.8	ND	ND	ND	ND	0	0
80758	2019-04-15T21:00:00	49.1	ND	ND	ND	ND	4.2	ND	ND	ND	ND	0	0
80759	2019-04-15T22:00:00	39.9	ND	ND	ND	ND	4.1	ND	ND	ND	ND	0	0
80760	2019-04-15T23:00:00	33.4	ND	ND	ND	ND	1.1	ND	ND	ND	ND	0	0
80761	2019-04-16T00:00:00	31.3	ND	ND	ND	ND	0.4	ND	ND	ND	ND	0	0
80762	2019-04-16T01:00:00	24.8	ND	ND	ND	ND	3.4	ND	ND	ND	ND	0	0
80763	2019-04-16T02:00:00	28.1	ND	ND	ND	ND	2.9	ND	ND	ND	ND	0	0
80764	2019-04-16T03:00:00	46.7	ND	ND	ND	ND	3.6	ND	ND	ND	ND	0	0
80765	2019-04-16T04:00:00	61.1	ND	ND	ND	ND	4.2	ND	ND	ND	ND	0	0
80766	2019-04-16T05:00:00	55.8	ND	ND	ND	ND	4.2	ND	ND	ND	ND	0	0
80767	2019-04-16T06:00:00	86.7	ND	ND	ND	ND	1.3	ND	ND	ND	ND	0	0
80768	2019-04-16T07:00:00	153.5	ND	ND	ND	ND	0.9	ND	ND	ND	ND	0	0
80769	2019-04-16T08:00:00	128.3	ND	ND	ND	ND	0.4	ND	ND	ND	ND	77.3	0
80770	2019-04-16T09:00:00	157.5	ND	ND	ND	ND	5.8	ND	ND	ND	ND	487.1	0
80771	2019-04-16T10:00:00	119.2	ND	ND	ND	ND	22.4	ND	ND	ND	ND	639.8	0
80772	2019-04-16T11:00:00	84.4	ND	ND	ND	ND	40.7	ND	ND	ND	ND	644.3	0
80773	2019-04-16T12:00:00	72.1	ND	ND	ND	ND	44.1	ND	ND	ND	ND	643.5	0
80774	2019-04-16T13:00:00	69.2	ND	ND	ND	ND	48.6	ND	ND	ND	ND	647.9	0
80775	2019-04-16T14:00:00	ND	ND	ND	ND	ND	ND	ND	ND	ND	ND	648.3	ND
80776	2019-04-16T15:00:00	ND	ND	ND	ND	ND	ND	ND	ND	ND	ND	ND	ND
80777	2019-04-16T16:00:00	ND	ND	ND	ND	ND	ND	ND	ND	ND	ND	ND	ND
80778	2019-04-16T17:00:00	ND	ND	ND	ND	ND	ND	ND	ND	ND	ND	ND	ND
80779	2019-04-16T18:00:00	45.1	ND	ND	ND	ND	11.8	ND	ND	ND	ND	ND	0
80780	2019-04-16T19:00:00	41.9	ND	ND	ND	ND	8.8	ND	ND	ND	ND	0	0
80781	2019-04-16T20:00:00	14	ND	ND	ND	ND	8.3	ND	ND	ND	ND	0	0
80782	2019-04-16T21:00:00	20.5	ND	ND	ND	ND	3.2	ND	ND	ND	ND	0	0
80783	2019-04-16T22:00:00	52.5	ND	ND	ND	ND	3.9	ND	ND	ND	ND	0	0
80784	2019-04-16T23:00:00	24.8	ND	ND	ND	ND	10.1	ND	ND	ND	ND	0	0
80785	2019-04-17T00:00:00	4.8	ND	ND	ND	ND	6.5	ND	ND	ND	ND	0	0
80786	2019-04-17T01:00:00	8.5	ND	ND	ND	ND	3.4	ND	ND	ND	ND	0	0
80787	2019-04-17T02:00:00	20.5	ND	ND	ND	ND	5.9	ND	ND	ND	ND	0	6.6
80788	2019-04-17T03:00:00	24.2	ND	ND	ND	ND	11	ND	ND	ND	ND	0	17.27
80789	2019-04-17T04:00:00	17	ND	ND	ND	ND	13	ND	ND	ND	ND	0	22.1
80790	2019-04-17T05:00:00	10.6	ND	ND	ND	ND	10.3	ND	ND	ND	ND	0	1.02
80791	2019-04-17T06:00:00	20.4	ND	ND	ND	ND	5.8	ND	ND	ND	ND	0	1.02
80792	2019-04-17T07:00:00	39.9	ND	ND	ND	ND	3.5	ND	ND	ND	ND	0	0
80793	2019-04-17T08:00:00	63.4	ND	ND	ND	ND	1.6	ND	ND	ND	ND	14.9	0
80794	2019-04-17T09:00:00	83.5	ND	ND	ND	ND	1	ND	ND	ND	ND	178.4	0
80795	2019-04-17T10:00:00	93.5	ND	ND	ND	ND	0.5	ND	ND	ND	ND	162.6	0
80796	2019-04-17T11:00:00	84	ND	ND	ND	ND	6	ND	ND	ND	ND	360.9	0
80797	2019-04-17T12:00:00	65.3	ND	ND	ND	ND	20.1	ND	ND	ND	ND	608.3	0
80798	2019-04-17T13:00:00	66.9	ND	ND	ND	ND	25.9	ND	ND	ND	ND	647.5	0
80799	2019-04-17T14:00:00	60.8	ND	ND	ND	ND	22.3	ND	ND	ND	ND	647.6	0
80800	2019-04-17T15:00:00	39.4	ND	ND	ND	ND	20.6	ND	ND	ND	ND	647.6	0
80801	2019-04-17T16:00:00	49.3	ND	ND	ND	ND	10.9	ND	ND	ND	ND	648	0
80802	2019-04-17T17:00:00	44.7	ND	ND	ND	ND	10.6	ND	ND	ND	ND	369.8	0
80803	2019-04-17T18:00:00	33.2	ND	ND	ND	ND	8.6	ND	ND	ND	ND	400.2	0
80804	2019-04-17T19:00:00	38.8	ND	ND	ND	ND	3.2	ND	ND	ND	ND	0	0
80805	2019-04-17T20:00:00	45.7	ND	ND	ND	ND	1.9	ND	ND	ND	ND	0	0
80806	2019-04-17T21:00:00	79.7	ND	ND	ND	ND	0.1	ND	ND	ND	ND	0	0
80807	2019-04-17T22:00:00	79.7	ND	ND	ND	ND	0.2	ND	ND	ND	ND	0	0
80808	2019-04-17T23:00:00	79.7	ND	ND	ND	ND	1	ND	ND	ND	ND	0	0
80809	2019-04-18T00:00:00	82.8	ND	ND	ND	ND	3.8	ND	ND	ND	ND	0	0
80810	2019-04-18T01:00:00	74	ND	ND	ND	ND	3.8	ND	ND	ND	ND	0	0
80811	2019-04-18T02:00:00	63.1	ND	ND	ND	ND	3.1	ND	ND	ND	ND	0	0
80812	2019-04-18T03:00:00	46.5	ND	ND	ND	ND	4.9	ND	ND	ND	ND	0	0
80813	2019-04-18T04:00:00	31.1	ND	ND	ND	ND	4.8	ND	ND	ND	ND	0	2.54
80814	2019-04-18T05:00:00	23.9	ND	ND	ND	ND	2.1	ND	ND	ND	ND	0	7.11
80815	2019-04-18T06:00:00	7.3	ND	ND	ND	ND	1.9	ND	ND	ND	ND	0	3.81
80816	2019-04-18T07:00:00	2	ND	ND	ND	ND	4	ND	ND	ND	ND	0	0.51
80817	2019-04-18T08:00:00	18.9	ND	ND	ND	ND	5.8	ND	ND	ND	ND	21.5	0
80818	2019-04-18T09:00:00	27.4	ND	ND	ND	ND	10.9	ND	ND	ND	ND	222.4	0
80819	2019-04-18T10:00:00	40.6	ND	ND	ND	ND	14.5	ND	ND	ND	ND	635.5	0
80820	2019-04-18T11:00:00	31.4	ND	ND	ND	ND	21.7	ND	ND	ND	ND	573.2	0
80821	2019-04-18T12:00:00	47.7	ND	ND	ND	ND	33	ND	ND	ND	ND	647.5	0
80822	2019-04-18T13:00:00	43.2	ND	ND	ND	ND	59	ND	ND	ND	ND	647	0
80823	2019-04-18T14:00:00	46.6	ND	ND	ND	ND	71	ND	ND	ND	ND	647.5	0
80824	2019-04-18T15:00:00	47.6	ND	ND	ND	ND	78	ND	ND	ND	ND	639.3	0
80825	2019-04-18T16:00:00	59.3	ND	ND	ND	ND	59.1	ND	ND	ND	ND	642.1	0
80826	2019-04-18T17:00:00	53.8	ND	ND	ND	ND	28.4	ND	ND	ND	ND	378.6	0
80827	2019-04-18T18:00:00	43.3	ND	ND	ND	ND	15.4	ND	ND	ND	ND	285.7	0
80828	2019-04-18T19:00:00	40.4	ND	ND	ND	ND	6.3	ND	ND	ND	ND	0	0
80829	2019-04-18T20:00:00	29.2	ND	ND	ND	ND	1.6	ND	ND	ND	ND	0	0
80830	2019-04-18T21:00:00	31.4	ND	ND	ND	ND	4.7	ND	ND	ND	ND	0	0
80831	2019-04-18T22:00:00	40.2	ND	ND	ND	ND	8.9	ND	ND	ND	ND	0	0
80832	2019-04-18T23:00:00	21.7	ND	ND	ND	ND	5.1	ND	ND	ND	ND	0	0
80833	2019-04-19T00:00:00	13.4	ND	ND	ND	ND	2.9	ND	ND	ND	ND	0	0
80834	2019-04-19T01:00:00	37.1	ND	ND	ND	ND	2.3	ND	ND	ND	ND	0	0
80835	2019-04-19T02:00:00	43.2	ND	ND	ND	ND	5.8	ND	ND	ND	ND	0	0
80836	2019-04-19T03:00:00	37	ND	ND	ND	ND	5.4	ND	ND	ND	ND	0	0
80837	2019-04-19T04:00:00	31	ND	ND	ND	ND	4.5	ND	ND	ND	ND	0	0
80838	2019-04-19T05:00:00	19.7	ND	ND	ND	ND	1.3	ND	ND	ND	ND	0	1.78
80839	2019-04-19T06:00:00	33.4	ND	ND	ND	ND	3.6	ND	ND	ND	ND	0	1.78
80840	2019-04-19T07:00:00	28.4	ND	ND	ND	ND	4.2	ND	ND	ND	ND	0	2.29
80841	2019-04-19T08:00:00	25.6	ND	ND	ND	ND	4	ND	ND	ND	ND	12.2	7.37
80842	2019-04-19T09:00:00	26.3	ND	ND	ND	ND	6	ND	ND	ND	ND	32.4	2.03
80843	2019-04-19T10:00:00	20.2	ND	ND	ND	ND	8.2	ND	ND	ND	ND	99.5	0.76
80844	2019-04-19T11:00:00	7.7	ND	ND	ND	ND	12.5	ND	ND	ND	ND	134.1	0.51
80845	2019-04-19T12:00:00	9.1	ND	ND	ND	ND	19.4	ND	ND	ND	ND	426.7	0
80846	2019-04-19T13:00:00	38.4	ND	ND	ND	ND	33.3	ND	ND	ND	ND	646.8	0
80847	2019-04-19T14:00:00	37.9	ND	ND	ND	ND	43.5	ND	ND	ND	ND	647.1	0
80848	2019-04-19T15:00:00	28	ND	ND	ND	ND	42.3	ND	ND	ND	ND	647.3	0
80849	2019-04-19T16:00:00	29.7	ND	ND	ND	ND	32.8	ND	ND	ND	ND	647.6	0
80850	2019-04-19T17:00:00	35.2	ND	ND	ND	ND	21.7	ND	ND	ND	ND	552.3	0.25
80851	2019-04-19T18:00:00	9.9	ND	ND	ND	ND	9.4	ND	ND	ND	ND	118.8	0.25
80852	2019-04-19T19:00:00	13.9	ND	ND	ND	ND	10.8	ND	ND	ND	ND	0	0
80853	2019-04-19T20:00:00	24.1	ND	ND	ND	ND	5.3	ND	ND	ND	ND	0	0
80854	2019-04-19T21:00:00	42.7	ND	ND	ND	ND	4	ND	ND	ND	ND	0	0
80855	2019-04-19T22:00:00	37.4	ND	ND	ND	ND	0.1	ND	ND	ND	ND	0	0
80856	2019-04-19T23:00:00	39.2	ND	ND	ND	ND	3.6	ND	ND	ND	ND	0	0
80857	2019-04-20T00:00:00	47.3	ND	ND	ND	ND	3.3	ND	ND	ND	ND	0	0
80858	2019-04-20T01:00:00	41.2	ND	ND	ND	ND	1.1	ND	ND	ND	ND	0	0
80859	2019-04-20T02:00:00	32.7	ND	ND	ND	ND	2.4	ND	ND	ND	ND	0	0.51
80860	2019-04-20T03:00:00	22.8	ND	ND	ND	ND	5.5	ND	ND	ND	ND	0	0
80861	2019-04-20T04:00:00	25.6	ND	ND	ND	ND	5.1	ND	ND	ND	ND	0	0
80862	2019-04-20T05:00:00	25.3	ND	ND	ND	ND	5.2	ND	ND	ND	ND	0	0
80863	2019-04-20T06:00:00	43.3	ND	ND	ND	ND	4.2	ND	ND	ND	ND	0	0
80864	2019-04-20T07:00:00	49.3	ND	ND	ND	ND	4.4	ND	ND	ND	ND	0	0.25
80865	2019-04-20T08:00:00	62.6	ND	ND	ND	ND	5.2	ND	ND	ND	ND	66.6	0
80866	2019-04-20T09:00:00	59.9	ND	ND	ND	ND	8.4	ND	ND	ND	ND	229	0
80867	2019-04-20T10:00:00	70.1	ND	ND	ND	ND	10.3	ND	ND	ND	ND	632.9	0
80868	2019-04-20T11:00:00	66.7	ND	ND	ND	ND	38.8	ND	ND	ND	ND	634.3	0
80869	2019-04-20T12:00:00	57.6	ND	ND	ND	ND	60.8	ND	ND	ND	ND	647.2	0
80870	2019-04-20T13:00:00	47	ND	ND	ND	ND	65.5	ND	ND	ND	ND	648	0
80871	2019-04-20T14:00:00	37.5	ND	ND	ND	ND	68.4	ND	ND	ND	ND	648.1	0
80872	2019-04-20T15:00:00	55.3	ND	ND	ND	ND	45.4	ND	ND	ND	ND	648.5	0
80873	2019-04-20T16:00:00	53.6	ND	ND	ND	ND	56.5	ND	ND	ND	ND	618.7	0
80874	2019-04-20T17:00:00	35.6	ND	ND	ND	ND	33.3	ND	ND	ND	ND	389.7	0
80875	2019-04-20T18:00:00	21.9	ND	ND	ND	ND	27.9	ND	ND	ND	ND	88.3	0.76
80876	2019-04-20T19:00:00	17.6	ND	ND	ND	ND	26.6	ND	ND	ND	ND	0	0
80877	2019-04-20T20:00:00	31	ND	ND	ND	ND	19.8	ND	ND	ND	ND	0	1.02
80878	2019-04-20T21:00:00	35.6	ND	ND	ND	ND	17.2	ND	ND	ND	ND	0	0
80879	2019-04-20T22:00:00	35.3	ND	ND	ND	ND	16.5	ND	ND	ND	ND	0	0
80880	2019-04-20T23:00:00	37.2	ND	ND	ND	ND	12.7	ND	ND	ND	ND	0	35.31
80881	2019-04-21T00:00:00	27.2	ND	ND	ND	ND	14.6	ND	ND	ND	ND	0	62.23
80882	2019-04-21T01:00:00	1.5	ND	ND	ND	ND	8.8	ND	ND	ND	ND	0	17.02
80883	2019-04-21T02:00:00	0.4	ND	ND	ND	ND	10	ND	ND	ND	ND	0	13.46
80884	2019-04-21T03:00:00	5.7	ND	ND	ND	ND	9.7	ND	ND	ND	ND	0	6.86
80885	2019-04-21T04:00:00	6.4	ND	ND	ND	ND	13.7	ND	ND	ND	ND	0	3.56
80886	2019-04-21T05:00:00	6.7	ND	ND	ND	ND	18.6	ND	ND	ND	ND	0	7.11
80887	2019-04-21T06:00:00	2.2	ND	ND	ND	ND	17.4	ND	ND	ND	ND	0	4.57
80888	2019-04-21T07:00:00	1.2	ND	ND	ND	ND	18.1	ND	ND	ND	ND	0	1.52
80889	2019-04-21T08:00:00	4.3	ND	ND	ND	ND	18.8	ND	ND	ND	ND	41.7	0.25
80890	2019-04-21T09:00:00	16.8	ND	ND	ND	ND	15.4	ND	ND	ND	ND	213.7	0
80891	2019-04-21T10:00:00	29.2	ND	ND	ND	ND	15.9	ND	ND	ND	ND	471.3	0
80892	2019-04-21T11:00:00	26.1	ND	ND	ND	ND	22.8	ND	ND	ND	ND	642	0
80893	2019-04-21T12:00:00	30.8	ND	ND	ND	ND	38.9	ND	ND	ND	ND	646.9	0
80894	2019-04-21T13:00:00	35	ND	ND	ND	ND	37.6	ND	ND	ND	ND	647.6	0
80895	2019-04-21T14:00:00	30.1	ND	ND	ND	ND	31.5	ND	ND	ND	ND	647.9	0
80896	2019-04-21T15:00:00	47.7	ND	ND	ND	ND	25.9	ND	ND	ND	ND	571.4	11.43
80897	2019-04-21T16:00:00	28.6	ND	ND	ND	ND	26.6	ND	ND	ND	ND	165.1	58.67
80898	2019-04-21T17:00:00	2.5	ND	ND	ND	ND	9.9	ND	ND	ND	ND	90.4	1.78
80899	2019-04-21T18:00:00	13.5	ND	ND	ND	ND	9.6	ND	ND	ND	ND	209.5	0
80900	2019-04-21T19:00:00	24.6	ND	ND	ND	ND	10	ND	ND	ND	ND	0	0
80901	2019-04-21T20:00:00	24.2	ND	ND	ND	ND	11.3	ND	ND	ND	ND	0	0
80902	2019-04-21T21:00:00	24.8	ND	ND	ND	ND	9.4	ND	ND	ND	ND	0	3.05
80903	2019-04-21T22:00:00	18.7	ND	ND	ND	ND	9.1	ND	ND	ND	ND	0	2.79
80904	2019-04-21T23:00:00	22.1	ND	ND	ND	ND	8.3	ND	ND	ND	ND	0	7.62
80905	2019-04-22T00:00:00	25.5	ND	ND	ND	ND	8.7	ND	ND	ND	ND	0	5.59
80906	2019-04-22T01:00:00	11.1	ND	ND	ND	ND	6.6	ND	ND	ND	ND	0	0.76
80907	2019-04-22T02:00:00	20.6	ND	ND	ND	ND	6.1	ND	ND	ND	ND	0	0.25
80908	2019-04-22T03:00:00	21.7	ND	ND	ND	ND	7.8	ND	ND	ND	ND	0	0
80909	2019-04-22T04:00:00	14.6	ND	ND	ND	ND	8.2	ND	ND	ND	ND	0	2.03
80910	2019-04-22T05:00:00	12.4	ND	ND	ND	ND	5.8	ND	ND	ND	ND	0	0.25
80911	2019-04-22T06:00:00	15	ND	ND	ND	ND	0.6	ND	ND	ND	ND	0	0.25
80912	2019-04-22T07:00:00	42.5	ND	ND	ND	ND	1.2	ND	ND	ND	ND	0	0.25
80913	2019-04-22T08:00:00	46.6	ND	ND	ND	ND	4.6	ND	ND	ND	ND	19.3	0
80914	2019-04-22T09:00:00	46.6	ND	ND	ND	ND	8.5	ND	ND	ND	ND	107	0
80915	2019-04-22T10:00:00	66.4	ND	ND	ND	ND	5.2	ND	ND	ND	ND	249.8	0
80916	2019-04-22T11:00:00	65.7	ND	ND	ND	ND	25	ND	ND	ND	ND	635.8	0
80917	2019-04-22T12:00:00	49.3	ND	ND	ND	ND	30.7	ND	ND	ND	ND	647	0
80918	2019-04-22T13:00:00	58	ND	ND	ND	ND	41	ND	ND	ND	ND	436.1	0
80919	2019-04-22T14:00:00	56.4	ND	ND	ND	ND	43.8	ND	ND	ND	ND	566.7	0
80920	2019-04-22T15:00:00	56.7	ND	ND	ND	ND	130.7	ND	ND	ND	ND	648	0
80921	2019-04-22T16:00:00	44.5	ND	ND	ND	ND	ND	ND	ND	ND	ND	647.9	0
80922	2019-04-22T17:00:00	36.4	ND	ND	ND	ND	ND	ND	ND	ND	ND	324.8	0.51
80923	2019-04-22T18:00:00	26.7	ND	ND	ND	ND	136.6	ND	ND	ND	ND	140.8	0.76
80924	2019-04-22T19:00:00	33.5	ND	ND	ND	ND	56.4	ND	ND	ND	ND	0	0.51
80925	2019-04-22T20:00:00	18.3	ND	ND	ND	ND	45	ND	ND	ND	ND	0	4.57
80926	2019-04-22T21:00:00	22.5	ND	ND	ND	ND	65.5	ND	ND	ND	ND	0	3.56
80927	2019-04-22T22:00:00	3.4	ND	ND	ND	ND	34.6	ND	ND	ND	ND	0	1.52
80928	2019-04-22T23:00:00	8.7	ND	ND	ND	ND	31.9	ND	ND	ND	ND	0	0.76
80929	2019-04-23T00:00:00	8.9	ND	ND	ND	ND	31.8	ND	ND	ND	ND	0	0.51
80930	2019-04-23T01:00:00	15.2	ND	ND	ND	ND	12.2	ND	ND	ND	ND	0	0.25
80931	2019-04-23T02:00:00	14.4	ND	ND	ND	ND	9.5	ND	ND	ND	ND	0	0.76
80932	2019-04-23T03:00:00	18.5	ND	ND	ND	ND	14.6	ND	ND	ND	ND	0	0.25
80933	2019-04-23T04:00:00	16.7	ND	ND	ND	ND	17.3	ND	ND	ND	ND	0	0.25
80934	2019-04-23T05:00:00	14.3	ND	ND	ND	ND	19.1	ND	ND	ND	ND	0	0
80935	2019-04-23T06:00:00	27.8	ND	ND	ND	ND	37.5	ND	ND	ND	ND	0	0
80936	2019-04-23T07:00:00	72.9	ND	ND	ND	ND	31.4	ND	ND	ND	ND	0	0
80937	2019-04-23T08:00:00	95.3	ND	ND	ND	ND	18.2	ND	ND	ND	ND	53.5	0.25
80938	2019-04-23T09:00:00	88.2	ND	ND	ND	ND	26.3	ND	ND	ND	ND	199	0
80939	2019-04-23T10:00:00	68.2	ND	ND	ND	ND	17	ND	ND	ND	ND	342.3	0
80940	2019-04-23T11:00:00	61.3	ND	ND	ND	ND	29.4	ND	ND	ND	ND	615.6	0
80941	2019-04-23T12:00:00	64.4	ND	ND	ND	ND	47.9	ND	ND	ND	ND	646.4	0
80942	2019-04-23T13:00:00	53.1	ND	ND	ND	ND	41.4	ND	ND	ND	ND	635.7	0
80943	2019-04-23T14:00:00	65.4	ND	ND	ND	ND	72.4	ND	ND	ND	ND	647.8	0
80944	2019-04-23T15:00:00	53.2	ND	ND	ND	ND	ND	ND	ND	ND	ND	630.1	0
80945	2019-04-23T16:00:00	57.2	ND	ND	ND	ND	ND	ND	ND	ND	ND	609.3	0
80946	2019-04-23T17:00:00	85.4	ND	ND	ND	ND	ND	ND	ND	ND	ND	365.6	0
80947	2019-04-23T18:00:00	59.3	ND	ND	ND	ND	107.5	ND	ND	ND	ND	97.9	0
80948	2019-04-23T19:00:00	31.3	ND	ND	ND	ND	ND	ND	ND	ND	ND	0	0
80949	2019-04-23T20:00:00	15.6	ND	ND	ND	ND	ND	ND	ND	ND	ND	0	0
80950	2019-04-23T21:00:00	22.9	ND	ND	ND	ND	ND	ND	ND	ND	ND	0	0
80951	2019-04-23T22:00:00	19.9	ND	ND	ND	ND	130	ND	ND	ND	ND	0	3.3
80952	2019-04-23T23:00:00	16.9	ND	ND	ND	ND	102.1	ND	ND	ND	ND	0	3.05
80953	2019-04-24T00:00:00	15	ND	ND	ND	ND	89.8	ND	ND	ND	ND	0	0
80954	2019-04-24T01:00:00	ND	ND	ND	ND	ND	ND	ND	ND	ND	ND	0	ND
80955	2019-04-24T02:00:00	ND	ND	ND	ND	ND	ND	ND	ND	ND	ND	ND	ND
80956	2019-04-24T03:00:00	ND	ND	ND	ND	ND	ND	ND	ND	ND	ND	ND	ND
80957	2019-04-24T04:00:00	ND	ND	ND	ND	ND	ND	ND	ND	ND	ND	ND	ND
80958	2019-04-24T05:00:00	ND	ND	ND	ND	ND	ND	ND	ND	ND	ND	ND	ND
80959	2019-04-24T06:00:00	ND	ND	ND	ND	ND	ND	ND	ND	ND	ND	ND	ND
80960	2019-04-24T07:00:00	ND	ND	ND	ND	ND	ND	ND	ND	ND	ND	ND	ND
80961	2019-04-24T08:00:00	47.1	ND	ND	ND	ND	52.6	ND	ND	ND	ND	ND	0
80962	2019-04-24T09:00:00	51.5	ND	ND	ND	ND	ND	ND	ND	ND	ND	452	0
80963	2019-04-24T10:00:00	78.1	ND	ND	ND	ND	ND	ND	ND	ND	ND	589.4	0
80964	2019-04-24T11:00:00	66.4	ND	ND	ND	ND	ND	ND	ND	ND	ND	632.7	0
80965	2019-04-24T12:00:00	77.9	ND	ND	ND	ND	17.4	ND	ND	ND	ND	650.3	0
80966	2019-04-24T13:00:00	64.1	ND	ND	ND	ND	21.3	ND	ND	ND	ND	630.5	0
80967	2019-04-24T14:00:00	65	ND	ND	ND	ND	36.5	ND	ND	ND	ND	649.7	0
80968	2019-04-24T15:00:00	ND	ND	ND	ND	ND	ND	ND	ND	ND	ND	651.4	ND
80969	2019-04-24T16:00:00	76.8	ND	ND	ND	ND	41.8	ND	ND	ND	ND	ND	0
80970	2019-04-24T17:00:00	79.4	ND	ND	ND	ND	25.7	ND	ND	ND	ND	607.7	0
80971	2019-04-24T18:00:00	90.4	ND	ND	ND	ND	9.9	ND	ND	ND	ND	293.3	0
80972	2019-04-24T19:00:00	114	ND	ND	ND	ND	3.6	ND	ND	ND	ND	0	0
80973	2019-04-24T20:00:00	72.9	ND	ND	ND	ND	2.7	ND	ND	ND	ND	0	0
80974	2019-04-24T21:00:00	38	ND	ND	ND	ND	1.8	ND	ND	ND	ND	0	0
80975	2019-04-24T22:00:00	31	ND	ND	ND	ND	2.2	ND	ND	ND	ND	0	0
80976	2019-04-24T23:00:00	53.1	ND	ND	ND	ND	1.3	ND	ND	ND	ND	0	0
80977	2019-04-25T00:00:00	58.2	ND	ND	ND	ND	1.6	ND	ND	ND	ND	0	0
80978	2019-04-25T01:00:00	41.4	ND	ND	ND	ND	2.5	ND	ND	ND	ND	0	0
80979	2019-04-25T02:00:00	48.8	ND	ND	ND	ND	0.8	ND	ND	ND	ND	0	0
80980	2019-04-25T03:00:00	47.2	ND	ND	ND	ND	1.7	ND	ND	ND	ND	0	0
80981	2019-04-25T04:00:00	41.2	ND	ND	ND	ND	2.4	ND	ND	ND	ND	0	0
80982	2019-04-25T05:00:00	40.4	ND	ND	ND	ND	1.2	ND	ND	ND	ND	0	0
80983	2019-04-25T06:00:00	81.4	ND	ND	ND	ND	1.2	ND	ND	ND	ND	0	0
80984	2019-04-25T07:00:00	94.3	ND	ND	ND	ND	1.5	ND	ND	ND	ND	0	0
80985	2019-04-25T08:00:00	138.1	ND	ND	ND	ND	2.1	ND	ND	ND	ND	201.1	0
80986	2019-04-25T09:00:00	157.6	ND	ND	ND	ND	2.7	ND	ND	ND	ND	572.8	0
80987	2019-04-25T10:00:00	127.6	ND	ND	ND	ND	9.3	ND	ND	ND	ND	549.3	0
80988	2019-04-25T11:00:00	102.7	ND	ND	ND	ND	19.1	ND	ND	ND	ND	650.9	0
80989	2019-04-25T12:00:00	78.7	ND	ND	ND	ND	32.9	ND	ND	ND	ND	650.8	0
80990	2019-04-25T13:00:00	76.1	ND	ND	ND	ND	41.7	ND	ND	ND	ND	650.4	0
80991	2019-04-25T14:00:00	80	ND	ND	ND	ND	41.6	ND	ND	ND	ND	617.4	0
80992	2019-04-25T15:00:00	54.1	ND	ND	ND	ND	40.6	ND	ND	ND	ND	607.3	0
80993	2019-04-25T16:00:00	91.6	ND	ND	ND	ND	25.3	ND	ND	ND	ND	545.7	0
80994	2019-04-25T17:00:00	66.6	ND	ND	ND	ND	9	ND	ND	ND	ND	451.3	0
80995	2019-04-25T18:00:00	47.1	ND	ND	ND	ND	5.7	ND	ND	ND	ND	201.1	1.52
80996	2019-04-25T19:00:00	23.7	ND	ND	ND	ND	1	ND	ND	ND	ND	0	0.51
80997	2019-04-25T20:00:00	22.8	ND	ND	ND	ND	4.2	ND	ND	ND	ND	0	0
80998	2019-04-25T21:00:00	32.1	ND	ND	ND	ND	6	ND	ND	ND	ND	0	3.05
80999	2019-04-25T22:00:00	25.4	ND	ND	ND	ND	12.4	ND	ND	ND	ND	0	2.29
81000	2019-04-25T23:00:00	22.8	ND	ND	ND	ND	5.3	ND	ND	ND	ND	0	0
81001	2019-04-26T00:00:00	14.9	ND	ND	ND	ND	4.5	ND	ND	ND	ND	0	0
81002	2019-04-26T01:00:00	24	ND	ND	ND	ND	4.7	ND	ND	ND	ND	0	0.25
81003	2019-04-26T02:00:00	24	ND	ND	ND	ND	3.3	ND	ND	ND	ND	0	0
81004	2019-04-26T03:00:00	24.9	ND	ND	ND	ND	4.6	ND	ND	ND	ND	0	0.25
81005	2019-04-26T04:00:00	20.1	ND	ND	ND	ND	0.9	ND	ND	ND	ND	0	0.25
81006	2019-04-26T05:00:00	22	ND	ND	ND	ND	0.6	ND	ND	ND	ND	0	0
81007	2019-04-26T06:00:00	27.4	ND	ND	ND	ND	0.9	ND	ND	ND	ND	0	0
81008	2019-04-26T07:00:00	66.6	ND	ND	ND	ND	1.1	ND	ND	ND	ND	0	0.25
81009	2019-04-26T08:00:00	83.8	ND	ND	ND	ND	1.6	ND	ND	ND	ND	55.4	0
81010	2019-04-26T09:00:00	123.1	ND	ND	ND	ND	4.2	ND	ND	ND	ND	171.4	0
81011	2019-04-26T10:00:00	97.1	ND	ND	ND	ND	20	ND	ND	ND	ND	572	0
81012	2019-04-26T11:00:00	96.9	ND	ND	ND	ND	33.5	ND	ND	ND	ND	635.7	0
81013	2019-04-26T12:00:00	ND	ND	ND	ND	ND	ND	ND	ND	ND	ND	609.6	ND
81014	2019-04-26T13:00:00	ND	ND	ND	ND	ND	ND	ND	ND	ND	ND	ND	ND
81015	2019-04-26T14:00:00	ND	ND	ND	ND	ND	ND	ND	ND	ND	ND	ND	ND
81016	2019-04-26T15:00:00	ND	ND	ND	ND	ND	ND	ND	ND	ND	ND	ND	ND
81017	2019-04-26T16:00:00	ND	ND	ND	ND	ND	ND	ND	ND	ND	ND	ND	ND
81018	2019-04-26T17:00:00	ND	ND	ND	ND	ND	ND	ND	ND	ND	ND	ND	ND
81019	2019-04-26T18:00:00	ND	ND	ND	ND	ND	ND	ND	ND	ND	ND	ND	ND
81020	2019-04-26T19:00:00	ND	ND	ND	ND	ND	ND	ND	ND	ND	ND	ND	ND
81021	2019-04-26T20:00:00	ND	ND	ND	ND	ND	ND	ND	ND	ND	ND	ND	ND
81022	2019-04-26T21:00:00	ND	ND	ND	ND	ND	ND	ND	ND	ND	ND	ND	ND
81023	2019-04-26T22:00:00	ND	ND	ND	ND	ND	ND	ND	ND	ND	ND	ND	ND
81024	2019-04-26T23:00:00	ND	ND	ND	ND	ND	ND	ND	ND	ND	ND	ND	ND
81025	2019-04-27T00:00:00	ND	ND	ND	ND	ND	ND	ND	ND	ND	ND	ND	ND
81026	2019-04-27T01:00:00	ND	ND	ND	ND	ND	ND	ND	ND	ND	ND	ND	ND
81027	2019-04-27T02:00:00	ND	ND	ND	ND	ND	ND	ND	ND	ND	ND	ND	ND
81028	2019-04-27T03:00:00	ND	ND	ND	ND	ND	ND	ND	ND	ND	ND	ND	ND
81029	2019-04-27T04:00:00	ND	ND	ND	ND	ND	ND	ND	ND	ND	ND	ND	ND
81030	2019-04-27T05:00:00	ND	ND	ND	ND	ND	ND	ND	ND	ND	ND	ND	ND
81031	2019-04-27T06:00:00	ND	ND	ND	ND	ND	ND	ND	ND	ND	ND	ND	ND
81032	2019-04-27T07:00:00	ND	ND	ND	ND	ND	ND	ND	ND	ND	ND	ND	ND
81033	2019-04-27T08:00:00	ND	ND	ND	ND	ND	ND	ND	ND	ND	ND	ND	ND
81034	2019-04-27T09:00:00	ND	ND	ND	ND	ND	ND	ND	ND	ND	ND	ND	ND
81035	2019-04-27T10:00:00	ND	ND	ND	ND	ND	ND	ND	ND	ND	ND	ND	ND
81036	2019-04-27T11:00:00	ND	ND	ND	ND	ND	ND	ND	ND	ND	ND	ND	ND
81037	2019-04-27T12:00:00	ND	ND	ND	ND	ND	ND	ND	ND	ND	ND	ND	ND
81038	2019-04-27T13:00:00	ND	ND	ND	ND	ND	ND	ND	ND	ND	ND	ND	ND
81039	2019-04-27T14:00:00	ND	ND	ND	ND	ND	ND	ND	ND	ND	ND	ND	ND
81040	2019-04-27T15:00:00	ND	ND	ND	ND	ND	ND	ND	ND	ND	ND	ND	ND
81041	2019-04-27T16:00:00	ND	ND	ND	ND	ND	ND	ND	ND	ND	ND	ND	ND
81042	2019-04-27T17:00:00	ND	ND	ND	ND	ND	ND	ND	ND	ND	ND	ND	ND
81043	2019-04-27T18:00:00	ND	ND	ND	ND	ND	ND	ND	ND	ND	ND	ND	ND
81044	2019-04-27T19:00:00	ND	ND	ND	ND	ND	ND	ND	ND	ND	ND	ND	ND
81045	2019-04-27T20:00:00	ND	ND	ND	ND	ND	ND	ND	ND	ND	ND	ND	ND
81046	2019-04-27T21:00:00	ND	ND	ND	ND	ND	ND	ND	ND	ND	ND	ND	ND
81047	2019-04-27T22:00:00	ND	ND	ND	ND	ND	ND	ND	ND	ND	ND	ND	ND
81048	2019-04-27T23:00:00	ND	ND	ND	ND	ND	ND	ND	ND	ND	ND	ND	ND
81049	2019-04-28T00:00:00	ND	ND	ND	ND	ND	ND	ND	ND	ND	ND	ND	ND
81050	2019-04-28T01:00:00	ND	ND	ND	ND	ND	ND	ND	ND	ND	ND	ND	ND
81051	2019-04-28T02:00:00	ND	ND	ND	ND	ND	ND	ND	ND	ND	ND	ND	ND
81052	2019-04-28T03:00:00	ND	ND	ND	ND	ND	ND	ND	ND	ND	ND	ND	ND
81053	2019-04-28T04:00:00	ND	ND	ND	ND	ND	ND	ND	ND	ND	ND	ND	ND
81054	2019-04-28T05:00:00	ND	ND	ND	ND	ND	ND	ND	ND	ND	ND	ND	ND
81055	2019-04-28T06:00:00	ND	ND	ND	ND	ND	ND	ND	ND	ND	ND	ND	ND
81056	2019-04-28T07:00:00	ND	ND	ND	ND	ND	ND	ND	ND	ND	ND	ND	ND
81057	2019-04-28T08:00:00	ND	ND	ND	ND	ND	ND	ND	ND	ND	ND	ND	ND
81058	2019-04-28T09:00:00	ND	ND	ND	ND	ND	ND	ND	ND	ND	ND	ND	ND
81059	2019-04-28T10:00:00	ND	ND	ND	ND	ND	ND	ND	ND	ND	ND	ND	ND
81060	2019-04-28T11:00:00	ND	ND	ND	ND	ND	ND	ND	ND	ND	ND	ND	ND
81061	2019-04-28T12:00:00	ND	ND	ND	ND	ND	ND	ND	ND	ND	ND	ND	ND
81062	2019-04-28T13:00:00	ND	ND	ND	ND	ND	ND	ND	ND	ND	ND	ND	ND
81063	2019-04-28T14:00:00	ND	ND	ND	ND	ND	ND	ND	ND	ND	ND	ND	ND
81064	2019-04-28T15:00:00	ND	ND	ND	ND	ND	ND	ND	ND	ND	ND	ND	ND
81065	2019-04-28T16:00:00	ND	ND	ND	ND	ND	ND	ND	ND	ND	ND	ND	ND
81066	2019-04-28T17:00:00	ND	ND	ND	ND	ND	ND	ND	ND	ND	ND	ND	ND
81067	2019-04-28T18:00:00	ND	ND	ND	ND	ND	ND	ND	ND	ND	ND	ND	ND
81068	2019-04-28T19:00:00	ND	ND	ND	ND	ND	ND	ND	ND	ND	ND	ND	ND
81069	2019-04-28T20:00:00	ND	ND	ND	ND	ND	ND	ND	ND	ND	ND	ND	ND
81070	2019-04-28T21:00:00	ND	ND	ND	ND	ND	ND	ND	ND	ND	ND	ND	ND
81071	2019-04-28T22:00:00	ND	ND	ND	ND	ND	ND	ND	ND	ND	ND	ND	ND
81072	2019-04-28T23:00:00	ND	ND	ND	ND	ND	ND	ND	ND	ND	ND	ND	ND
81073	2019-04-29T00:00:00	ND	ND	ND	ND	ND	ND	ND	ND	ND	ND	ND	ND
81074	2019-04-29T01:00:00	ND	ND	ND	ND	ND	ND	ND	ND	ND	ND	ND	ND
81075	2019-04-29T02:00:00	ND	ND	ND	ND	ND	ND	ND	ND	ND	ND	ND	ND
81076	2019-04-29T03:00:00	ND	ND	ND	ND	ND	ND	ND	ND	ND	ND	ND	ND
81077	2019-04-29T04:00:00	ND	ND	ND	ND	ND	ND	ND	ND	ND	ND	ND	ND
81078	2019-04-29T05:00:00	ND	ND	ND	ND	ND	ND	ND	ND	ND	ND	ND	ND
81079	2019-04-29T06:00:00	ND	ND	ND	ND	ND	ND	ND	ND	ND	ND	ND	ND
81080	2019-04-29T07:00:00	ND	ND	ND	ND	ND	ND	ND	ND	ND	ND	ND	ND
81081	2019-04-29T08:00:00	ND	ND	ND	ND	ND	ND	ND	ND	ND	ND	ND	ND
81082	2019-04-29T09:00:00	ND	ND	ND	ND	ND	ND	ND	ND	ND	ND	ND	ND
81083	2019-04-29T10:00:00	ND	ND	ND	ND	ND	ND	ND	ND	ND	ND	ND	ND
81084	2019-04-29T11:00:00	ND	ND	ND	ND	ND	ND	ND	ND	ND	ND	ND	ND
81085	2019-04-29T12:00:00	ND	ND	ND	ND	ND	ND	ND	ND	ND	ND	ND	ND
81086	2019-04-29T13:00:00	ND	ND	ND	ND	ND	ND	ND	ND	ND	ND	ND	ND
81087	2019-04-29T14:00:00	ND	ND	ND	ND	ND	ND	ND	ND	ND	ND	ND	ND
81088	2019-04-29T15:00:00	ND	ND	ND	ND	ND	ND	ND	ND	ND	ND	ND	ND
81089	2019-04-29T16:00:00	ND	ND	ND	ND	ND	ND	ND	ND	ND	ND	ND	ND
81090	2019-04-29T17:00:00	ND	ND	ND	ND	ND	ND	ND	ND	ND	ND	ND	ND
81091	2019-04-29T18:00:00	ND	ND	ND	ND	ND	ND	ND	ND	ND	ND	ND	ND
81092	2019-04-29T19:00:00	ND	ND	ND	ND	ND	ND	ND	ND	ND	ND	ND	ND
81093	2019-04-29T20:00:00	ND	ND	ND	ND	ND	ND	ND	ND	ND	ND	ND	ND
81094	2019-04-29T21:00:00	ND	ND	ND	ND	ND	ND	ND	ND	ND	ND	ND	ND
81095	2019-04-29T22:00:00	ND	ND	ND	ND	ND	ND	ND	ND	ND	ND	ND	ND
81096	2019-04-29T23:00:00	ND	ND	ND	ND	ND	ND	ND	ND	ND	ND	ND	ND
81097	2019-04-30T00:00:00	ND	ND	ND	ND	ND	ND	ND	ND	ND	ND	ND	ND
81098	2019-04-30T01:00:00	ND	ND	ND	ND	ND	ND	ND	ND	ND	ND	ND	ND
81099	2019-04-30T02:00:00	ND	ND	ND	ND	ND	ND	ND	ND	ND	ND	ND	ND
81100	2019-04-30T03:00:00	ND	ND	ND	ND	ND	ND	ND	ND	ND	ND	ND	ND
81101	2019-04-30T04:00:00	ND	ND	ND	ND	ND	ND	ND	ND	ND	ND	ND	ND
81102	2019-04-30T05:00:00	ND	ND	ND	ND	ND	ND	ND	ND	ND	ND	ND	ND
81103	2019-04-30T06:00:00	ND	ND	ND	ND	ND	ND	ND	ND	ND	ND	ND	ND
81104	2019-04-30T07:00:00	ND	ND	ND	ND	ND	ND	ND	ND	ND	ND	ND	ND
81105	2019-04-30T08:00:00	ND	ND	ND	ND	ND	ND	ND	ND	ND	ND	ND	ND
81106	2019-04-30T09:00:00	ND	ND	ND	ND	ND	ND	ND	ND	ND	ND	ND	ND
81107	2019-04-30T10:00:00	ND	ND	ND	ND	ND	ND	ND	ND	ND	ND	ND	ND
81108	2019-04-30T11:00:00	ND	ND	ND	ND	ND	ND	ND	ND	ND	ND	ND	ND
81109	2019-04-30T12:00:00	ND	ND	ND	ND	ND	ND	ND	ND	ND	ND	ND	ND
81110	2019-04-30T13:00:00	ND	ND	ND	ND	ND	ND	ND	ND	ND	ND	ND	ND
81111	2019-04-30T14:00:00	ND	ND	ND	ND	ND	ND	ND	ND	ND	ND	ND	ND
81112	2019-04-30T15:00:00	ND	ND	ND	ND	ND	ND	ND	ND	ND	ND	ND	ND
81113	2019-04-30T16:00:00	ND	ND	ND	ND	ND	ND	ND	ND	ND	ND	ND	ND
81114	2019-04-30T17:00:00	ND	ND	ND	ND	ND	ND	ND	ND	ND	ND	ND	ND
81115	2019-04-30T18:00:00	ND	ND	ND	ND	ND	ND	ND	ND	ND	ND	ND	ND
81116	2019-04-30T19:00:00	ND	ND	ND	ND	ND	ND	ND	ND	ND	ND	ND	ND
81117	2019-04-30T20:00:00	ND	ND	ND	ND	ND	ND	ND	ND	ND	ND	ND	ND
81118	2019-04-30T21:00:00	ND	ND	ND	ND	ND	ND	ND	ND	ND	ND	ND	ND
81119	2019-04-30T22:00:00	ND	ND	ND	ND	ND	ND	ND	ND	ND	ND	ND	ND
81120	2019-04-30T23:00:00	ND	ND	ND	ND	ND	ND	ND	ND	ND	ND	ND	ND
81121	2019-05-01T00:00:00	ND	ND	ND	ND	ND	ND	ND	ND	ND	ND	ND	ND
81122	2019-05-01T01:00:00	47.4	ND	ND	ND	ND	1.2	ND	ND	ND	ND	ND	ND
81123	2019-05-01T02:00:00	52.8	ND	ND	ND	ND	3.3	ND	ND	ND	ND	ND	ND
81124	2019-05-01T03:00:00	55.1	ND	ND	ND	ND	4.1	ND	ND	ND	ND	ND	ND
81125	2019-05-01T04:00:00	52	ND	ND	ND	ND	6.9	ND	ND	ND	ND	ND	ND
81126	2019-05-01T05:00:00	64.8	ND	ND	ND	ND	6.3	ND	ND	ND	ND	ND	ND
81127	2019-05-01T06:00:00	53.6	ND	ND	ND	ND	1	ND	ND	ND	ND	ND	ND
81128	2019-05-01T07:00:00	62.4	ND	ND	ND	ND	1.6	ND	ND	ND	ND	ND	ND
81129	2019-05-01T08:00:00	80.2	ND	ND	ND	ND	3.9	ND	ND	ND	ND	ND	ND
81130	2019-05-01T09:00:00	79.4	ND	ND	ND	ND	11.2	ND	ND	ND	ND	ND	ND
81131	2019-05-01T10:00:00	75.4	ND	ND	ND	ND	25.3	ND	ND	ND	ND	ND	ND
81132	2019-05-01T11:00:00	72.2	ND	ND	ND	ND	44.6	ND	ND	ND	ND	ND	ND
81133	2019-05-01T12:00:00	67	ND	ND	ND	ND	52.4	ND	ND	ND	ND	ND	ND
81134	2019-05-01T13:00:00	56.4	ND	ND	ND	ND	59.7	ND	ND	ND	ND	ND	ND
81135	2019-05-01T14:00:00	55.7	ND	ND	ND	ND	71.7	ND	ND	ND	ND	ND	ND
81136	2019-05-01T15:00:00	70	ND	ND	ND	ND	71.7	ND	ND	ND	ND	ND	ND
81137	2019-05-01T16:00:00	74.3	ND	ND	ND	ND	87.4	ND	ND	ND	ND	ND	ND
81138	2019-05-01T17:00:00	53.5	ND	ND	ND	ND	24.5	ND	ND	ND	ND	ND	ND
81139	2019-05-01T18:00:00	29.3	ND	ND	ND	ND	17.3	ND	ND	ND	ND	ND	ND
81140	2019-05-01T19:00:00	23.5	ND	ND	ND	ND	12.2	ND	ND	ND	ND	ND	ND
81141	2019-05-01T20:00:00	21.8	ND	ND	ND	ND	10.8	ND	ND	ND	ND	ND	ND
81142	2019-05-01T21:00:00	20.4	ND	ND	ND	ND	4.9	ND	ND	ND	ND	ND	ND
81143	2019-05-01T22:00:00	33.2	ND	ND	ND	ND	4.3	ND	ND	ND	ND	ND	ND
81144	2019-05-01T23:00:00	34	ND	ND	ND	ND	8.8	ND	ND	ND	ND	ND	ND
81145	2019-05-02T00:00:00	35.6	ND	ND	ND	ND	2.4	ND	ND	ND	ND	ND	ND
81146	2019-05-02T01:00:00	48	ND	ND	ND	ND	9.4	ND	ND	ND	ND	ND	ND
81147	2019-05-02T02:00:00	44.5	ND	ND	ND	ND	10.6	ND	ND	ND	ND	ND	ND
81148	2019-05-02T03:00:00	38	ND	ND	ND	ND	5.9	ND	ND	ND	ND	ND	ND
81149	2019-05-02T04:00:00	45.7	ND	ND	ND	ND	2.6	ND	ND	ND	ND	ND	ND
81150	2019-05-02T05:00:00	55.1	ND	ND	ND	ND	1.2	ND	ND	ND	ND	ND	ND
81151	2019-05-02T06:00:00	74.4	ND	ND	ND	ND	1.2	ND	ND	ND	ND	ND	ND
81152	2019-05-02T07:00:00	85	ND	ND	ND	ND	1.8	ND	ND	ND	ND	ND	ND
81153	2019-05-02T08:00:00	91.4	ND	ND	ND	ND	2.6	ND	ND	ND	ND	ND	ND
81154	2019-05-02T09:00:00	125.9	ND	ND	ND	ND	11	ND	ND	ND	ND	ND	ND
81155	2019-05-02T10:00:00	123.2	ND	ND	ND	ND	19.2	ND	ND	ND	ND	ND	ND
81156	2019-05-02T11:00:00	100.2	ND	ND	ND	ND	41.8	ND	ND	ND	ND	ND	ND
81157	2019-05-02T12:00:00	86.3	ND	ND	ND	ND	60.1	ND	ND	ND	ND	ND	ND
81158	2019-05-02T13:00:00	94.7	ND	ND	ND	ND	78.9	ND	ND	ND	ND	ND	ND
81159	2019-05-02T14:00:00	85.5	ND	ND	ND	ND	92.7	ND	ND	ND	ND	ND	ND
81160	2019-05-02T15:00:00	75	ND	ND	ND	ND	87	ND	ND	ND	ND	ND	ND
81161	2019-05-02T16:00:00	88.6	ND	ND	ND	ND	65.8	ND	ND	ND	ND	ND	ND
81162	2019-05-02T17:00:00	58.4	ND	ND	ND	ND	25.1	ND	ND	ND	ND	ND	ND
81163	2019-05-02T18:00:00	51.4	ND	ND	ND	ND	15.1	ND	ND	ND	ND	ND	ND
81164	2019-05-02T19:00:00	48.4	ND	ND	ND	ND	12.2	ND	ND	ND	ND	ND	ND
81165	2019-05-02T20:00:00	32.9	ND	ND	ND	ND	7.9	ND	ND	ND	ND	ND	ND
81166	2019-05-02T21:00:00	32.2	ND	ND	ND	ND	5.1	ND	ND	ND	ND	ND	ND
81167	2019-05-02T22:00:00	45	ND	ND	ND	ND	1.4	ND	ND	ND	ND	ND	ND
81168	2019-05-02T23:00:00	43.8	ND	ND	ND	ND	8.6	ND	ND	ND	ND	ND	ND
81169	2019-05-03T00:00:00	18.8	ND	ND	ND	ND	11.8	ND	ND	ND	ND	ND	ND
81170	2019-05-03T01:00:00	29.2	ND	ND	ND	ND	14.5	ND	ND	ND	ND	ND	ND
81171	2019-05-03T02:00:00	39.8	ND	ND	ND	ND	5.5	ND	ND	ND	ND	ND	ND
81172	2019-05-03T03:00:00	43.9	ND	ND	ND	ND	2.2	ND	ND	ND	ND	ND	ND
81173	2019-05-03T04:00:00	85.6	ND	ND	ND	ND	11	ND	ND	ND	ND	ND	ND
81174	2019-05-03T05:00:00	91	ND	ND	ND	ND	6.1	ND	ND	ND	ND	ND	ND
81175	2019-05-03T06:00:00	71.8	ND	ND	ND	ND	1	ND	ND	ND	ND	ND	ND
81176	2019-05-03T07:00:00	81.5	ND	ND	ND	ND	1.2	ND	ND	ND	ND	ND	ND
81177	2019-05-03T08:00:00	95.3	ND	ND	ND	ND	2.2	ND	ND	ND	ND	ND	ND
81178	2019-05-03T09:00:00	122.9	ND	ND	ND	ND	4.7	ND	ND	ND	ND	ND	ND
81179	2019-05-03T10:00:00	129.1	ND	ND	ND	ND	10	ND	ND	ND	ND	ND	ND
81180	2019-05-03T11:00:00	108.2	ND	ND	ND	ND	23.9	ND	ND	ND	ND	ND	ND
81181	2019-05-03T12:00:00	89.7	ND	ND	ND	ND	34.4	ND	ND	ND	ND	ND	ND
81182	2019-05-03T13:00:00	89.7	ND	ND	ND	ND	48.7	ND	ND	ND	ND	ND	ND
81183	2019-05-03T14:00:00	64.5	ND	ND	ND	ND	78.1	ND	ND	ND	ND	ND	ND
81184	2019-05-03T15:00:00	61.5	ND	ND	ND	ND	72.8	ND	ND	ND	ND	ND	ND
81185	2019-05-03T16:00:00	80.8	ND	ND	ND	ND	47.9	ND	ND	ND	ND	ND	ND
81186	2019-05-03T17:00:00	68.9	ND	ND	ND	ND	10.4	ND	ND	ND	ND	ND	ND
81187	2019-05-03T18:00:00	32.7	ND	ND	ND	ND	8.8	ND	ND	ND	ND	ND	ND
81188	2019-05-03T19:00:00	28.8	ND	ND	ND	ND	4.5	ND	ND	ND	ND	ND	ND
81189	2019-05-03T20:00:00	33.8	ND	ND	ND	ND	3.3	ND	ND	ND	ND	ND	ND
81190	2019-05-03T21:00:00	29.6	ND	ND	ND	ND	6.3	ND	ND	ND	ND	ND	ND
81191	2019-05-03T22:00:00	38.2	ND	ND	ND	ND	2.7	ND	ND	ND	ND	ND	ND
81192	2019-05-03T23:00:00	46.5	ND	ND	ND	ND	2.4	ND	ND	ND	ND	ND	ND
81193	2019-05-04T00:00:00	64.9	ND	ND	ND	ND	1.2	ND	ND	ND	ND	ND	ND
81194	2019-05-04T01:00:00	48.4	ND	ND	ND	ND	1.6	ND	ND	ND	ND	ND	ND
81195	2019-05-04T02:00:00	45	ND	ND	ND	ND	2.2	ND	ND	ND	ND	ND	ND
81196	2019-05-04T03:00:00	63.6	ND	ND	ND	ND	1.6	ND	ND	ND	ND	ND	ND
81197	2019-05-04T04:00:00	58.5	ND	ND	ND	ND	3.3	ND	ND	ND	ND	ND	ND
81198	2019-05-04T05:00:00	55.3	ND	ND	ND	ND	2.4	ND	ND	ND	ND	ND	ND
81199	2019-05-04T06:00:00	59.4	ND	ND	ND	ND	1.6	ND	ND	ND	ND	ND	ND
81200	2019-05-04T07:00:00	62.7	ND	ND	ND	ND	1.2	ND	ND	ND	ND	ND	ND
81201	2019-05-04T08:00:00	92.4	ND	ND	ND	ND	1.4	ND	ND	ND	ND	ND	ND
81202	2019-05-04T09:00:00	85.5	ND	ND	ND	ND	4.9	ND	ND	ND	ND	ND	ND
81203	2019-05-04T10:00:00	77.3	ND	ND	ND	ND	16.5	ND	ND	ND	ND	ND	ND
81204	2019-05-04T11:00:00	67.2	ND	ND	ND	ND	33.2	ND	ND	ND	ND	ND	ND
81205	2019-05-04T12:00:00	66.4	ND	ND	ND	ND	48.3	ND	ND	ND	ND	ND	ND
81206	2019-05-04T13:00:00	69.5	ND	ND	ND	ND	64.8	ND	ND	ND	ND	ND	ND
81207	2019-05-04T14:00:00	75.2	ND	ND	ND	ND	72.4	ND	ND	ND	ND	ND	ND
81208	2019-05-04T15:00:00	85.6	ND	ND	ND	ND	54.8	ND	ND	ND	ND	ND	ND
81209	2019-05-04T16:00:00	76.2	ND	ND	ND	ND	33.4	ND	ND	ND	ND	ND	ND
81210	2019-05-04T17:00:00	60.2	ND	ND	ND	ND	14.5	ND	ND	ND	ND	ND	ND
81211	2019-05-04T18:00:00	43	ND	ND	ND	ND	7.9	ND	ND	ND	ND	ND	ND
81212	2019-05-04T19:00:00	34.5	ND	ND	ND	ND	5.5	ND	ND	ND	ND	ND	ND
81213	2019-05-04T20:00:00	28.1	ND	ND	ND	ND	6.3	ND	ND	ND	ND	ND	ND
81214	2019-05-04T21:00:00	26.6	ND	ND	ND	ND	6.9	ND	ND	ND	ND	ND	ND
81215	2019-05-04T22:00:00	25.4	ND	ND	ND	ND	6.5	ND	ND	ND	ND	ND	ND
81216	2019-05-04T23:00:00	14.1	ND	ND	ND	ND	8.4	ND	ND	ND	ND	ND	ND
81217	2019-05-05T00:00:00	13.1	ND	ND	ND	ND	8.6	ND	ND	ND	ND	ND	ND
81218	2019-05-05T01:00:00	35.6	ND	ND	ND	ND	10.8	ND	ND	ND	ND	ND	ND
81219	2019-05-05T02:00:00	31.3	ND	ND	ND	ND	7.5	ND	ND	ND	ND	ND	ND
81220	2019-05-05T03:00:00	36.6	ND	ND	ND	ND	1.8	ND	ND	ND	ND	ND	ND
81221	2019-05-05T04:00:00	42.3	ND	ND	ND	ND	1.8	ND	ND	ND	ND	ND	ND
81222	2019-05-05T05:00:00	42.4	ND	ND	ND	ND	1.2	ND	ND	ND	ND	ND	ND
81223	2019-05-05T06:00:00	60.9	ND	ND	ND	ND	1.2	ND	ND	ND	ND	ND	ND
81224	2019-05-05T07:00:00	77.4	ND	ND	ND	ND	1.6	ND	ND	ND	ND	ND	ND
81225	2019-05-05T08:00:00	60	ND	ND	ND	ND	4.5	ND	ND	ND	ND	ND	ND
81226	2019-05-05T09:00:00	68.3	ND	ND	ND	ND	9.2	ND	ND	ND	ND	ND	ND
81227	2019-05-05T10:00:00	75.6	ND	ND	ND	ND	23.4	ND	ND	ND	ND	ND	ND
81228	2019-05-05T11:00:00	67.6	ND	ND	ND	ND	63	ND	ND	ND	ND	ND	ND
81229	2019-05-05T12:00:00	62.2	ND	ND	ND	ND	72	ND	ND	ND	ND	ND	ND
81230	2019-05-05T13:00:00	74.4	ND	ND	ND	ND	71.1	ND	ND	ND	ND	ND	ND
81231	2019-05-05T14:00:00	61.2	ND	ND	ND	ND	80.5	ND	ND	ND	ND	ND	ND
81232	2019-05-05T15:00:00	59.9	ND	ND	ND	ND	91.9	ND	ND	ND	ND	ND	ND
81233	2019-05-05T16:00:00	68.7	ND	ND	ND	ND	46.7	ND	ND	ND	ND	ND	ND
81234	2019-05-05T17:00:00	34.5	ND	ND	ND	ND	30.4	ND	ND	ND	ND	ND	ND
81235	2019-05-05T18:00:00	23.9	ND	ND	ND	ND	26.3	ND	ND	ND	ND	ND	ND
81236	2019-05-05T19:00:00	23.3	ND	ND	ND	ND	19.6	ND	ND	ND	ND	ND	ND
81237	2019-05-05T20:00:00	12.7	ND	ND	ND	ND	16.1	ND	ND	ND	ND	ND	ND
81238	2019-05-05T21:00:00	19.1	ND	ND	ND	ND	11.6	ND	ND	ND	ND	ND	ND
81239	2019-05-05T22:00:00	36.6	ND	ND	ND	ND	7.9	ND	ND	ND	ND	ND	ND
81240	2019-05-05T23:00:00	24.5	ND	ND	ND	ND	12.6	ND	ND	ND	ND	ND	ND
81241	2019-05-06T00:00:00	28.3	ND	ND	ND	ND	5.9	ND	ND	ND	ND	ND	ND
81242	2019-05-06T01:00:00	41.5	ND	ND	ND	ND	1	ND	ND	ND	ND	ND	ND
81243	2019-05-06T02:00:00	47.2	ND	ND	ND	ND	1.8	ND	ND	ND	ND	ND	ND
81244	2019-05-06T03:00:00	44.1	ND	ND	ND	ND	4.9	ND	ND	ND	ND	ND	ND
81245	2019-05-06T04:00:00	39.1	ND	ND	ND	ND	4.9	ND	ND	ND	ND	ND	ND
81246	2019-05-06T05:00:00	33	ND	ND	ND	ND	5.1	ND	ND	ND	ND	ND	ND
81247	2019-05-06T06:00:00	46.1	ND	ND	ND	ND	1	ND	ND	ND	ND	ND	ND
81248	2019-05-06T07:00:00	81.9	ND	ND	ND	ND	1	ND	ND	ND	ND	ND	ND
81249	2019-05-06T08:00:00	87	ND	ND	ND	ND	2.6	ND	ND	ND	ND	ND	ND
81250	2019-05-06T09:00:00	73	ND	ND	ND	ND	8.6	ND	ND	ND	ND	ND	ND
81251	2019-05-06T10:00:00	96	ND	ND	ND	ND	9.6	ND	ND	ND	ND	ND	ND
81252	2019-05-06T11:00:00	87.4	ND	ND	ND	ND	147	ND	ND	ND	ND	ND	ND
81253	2019-05-06T12:00:00	81.5	ND	ND	ND	ND	48.1	ND	ND	ND	ND	ND	ND
81254	2019-05-06T13:00:00	68.4	ND	ND	ND	ND	54.8	ND	ND	ND	ND	ND	ND
81255	2019-05-06T14:00:00	40.9	ND	ND	ND	ND	63.6	ND	ND	ND	ND	ND	ND
81256	2019-05-06T15:00:00	67.8	ND	ND	ND	ND	42.2	ND	ND	ND	ND	ND	ND
81257	2019-05-06T16:00:00	83	ND	ND	ND	ND	42.2	ND	ND	ND	ND	ND	ND
81258	2019-05-06T17:00:00	ND	ND	ND	ND	ND	22	ND	ND	ND	ND	ND	ND
81259	2019-05-06T18:00:00	12.6	ND	ND	ND	ND	13.7	ND	ND	ND	ND	ND	ND
81260	2019-05-06T19:00:00	33.9	ND	ND	ND	ND	8.4	ND	ND	ND	ND	ND	ND
81261	2019-05-06T20:00:00	31.5	ND	ND	ND	ND	7.9	ND	ND	ND	ND	ND	ND
81262	2019-05-06T21:00:00	25.8	ND	ND	ND	ND	4.9	ND	ND	ND	ND	ND	ND
81263	2019-05-06T22:00:00	39.9	ND	ND	ND	ND	1	ND	ND	ND	ND	ND	ND
81264	2019-05-06T23:00:00	28.3	ND	ND	ND	ND	0.8	ND	ND	ND	ND	ND	ND
81265	2019-05-07T00:00:00	0.3	ND	ND	ND	ND	5.9	ND	ND	ND	ND	ND	ND
81266	2019-05-07T01:00:00	11.7	ND	ND	ND	ND	4.5	ND	ND	ND	ND	ND	ND
81267	2019-05-07T02:00:00	32.4	ND	ND	ND	ND	1.2	ND	ND	ND	ND	ND	ND
81268	2019-05-07T03:00:00	45.4	ND	ND	ND	ND	3.5	ND	ND	ND	ND	ND	ND
81269	2019-05-07T04:00:00	54.4	ND	ND	ND	ND	2.9	ND	ND	ND	ND	ND	ND
81270	2019-05-07T05:00:00	53.2	ND	ND	ND	ND	3.7	ND	ND	ND	ND	ND	ND
81271	2019-05-07T06:00:00	50.7	ND	ND	ND	ND	1.4	ND	ND	ND	ND	ND	ND
81272	2019-05-07T07:00:00	69.5	ND	ND	ND	ND	1.4	ND	ND	ND	ND	ND	ND
81273	2019-05-07T08:00:00	92.1	ND	ND	ND	ND	2	ND	ND	ND	ND	ND	ND
81274	2019-05-07T09:00:00	118.7	ND	ND	ND	ND	6.3	ND	ND	ND	ND	ND	ND
81275	2019-05-07T10:00:00	130.6	ND	ND	ND	ND	22	ND	ND	ND	ND	ND	ND
81276	2019-05-07T11:00:00	108.5	ND	ND	ND	ND	35.7	ND	ND	ND	ND	ND	ND
81277	2019-05-07T12:00:00	91.9	ND	ND	ND	ND	48.9	ND	ND	ND	ND	ND	ND
81278	2019-05-07T13:00:00	92.1	ND	ND	ND	ND	76.8	ND	ND	ND	ND	ND	ND
81279	2019-05-07T14:00:00	77.7	ND	ND	ND	ND	30	ND	ND	ND	ND	ND	ND
81280	2019-05-07T15:00:00	36.6	ND	ND	ND	ND	26.7	ND	ND	ND	ND	ND	ND
81281	2019-05-07T16:00:00	29.3	ND	ND	ND	ND	24.9	ND	ND	ND	ND	ND	ND
81282	2019-05-07T17:00:00	33.7	ND	ND	ND	ND	13.5	ND	ND	ND	ND	ND	ND
81283	2019-05-07T18:00:00	21.2	ND	ND	ND	ND	8	ND	ND	ND	ND	ND	ND
81284	2019-05-07T19:00:00	23.1	ND	ND	ND	ND	4.3	ND	ND	ND	ND	ND	ND
81285	2019-05-07T20:00:00	21.9	ND	ND	ND	ND	4.3	ND	ND	ND	ND	ND	ND
81286	2019-05-07T21:00:00	12.8	ND	ND	ND	ND	8	ND	ND	ND	ND	ND	ND
81287	2019-05-07T22:00:00	10.4	ND	ND	ND	ND	5.9	ND	ND	ND	ND	ND	ND
81288	2019-05-07T23:00:00	32.7	ND	ND	ND	ND	1.2	ND	ND	ND	ND	ND	ND
81289	2019-05-08T00:00:00	35.4	ND	ND	ND	ND	1.8	ND	ND	ND	ND	ND	ND
81290	2019-05-08T01:00:00	39.6	ND	ND	ND	ND	2.7	ND	ND	ND	ND	ND	ND
81291	2019-05-08T02:00:00	39	ND	ND	ND	ND	1.4	ND	ND	ND	ND	ND	ND
81292	2019-05-08T03:00:00	30.1	ND	ND	ND	ND	1.6	ND	ND	ND	ND	ND	ND
81293	2019-05-08T04:00:00	32	ND	ND	ND	ND	1.2	ND	ND	ND	ND	ND	ND
81294	2019-05-08T05:00:00	42.5	ND	ND	ND	ND	2	ND	ND	ND	ND	ND	ND
81295	2019-05-08T06:00:00	19.8	ND	ND	ND	ND	0.8	ND	ND	ND	ND	ND	ND
81296	2019-05-08T07:00:00	60.7	ND	ND	ND	ND	0.8	ND	ND	ND	ND	ND	ND
81297	2019-05-08T08:00:00	74	ND	ND	ND	ND	1.4	ND	ND	ND	ND	ND	ND
81298	2019-05-08T09:00:00	100.8	ND	ND	ND	ND	2.9	ND	ND	ND	ND	ND	ND
81299	2019-05-08T10:00:00	112.4	ND	ND	ND	ND	12.4	ND	ND	ND	ND	ND	ND
81300	2019-05-08T11:00:00	69.1	ND	ND	ND	ND	29.6	ND	ND	ND	ND	ND	ND
81301	2019-05-08T12:00:00	73.4	ND	ND	ND	ND	31.8	ND	ND	ND	ND	ND	ND
81302	2019-05-08T13:00:00	78.1	ND	ND	ND	ND	54.6	ND	ND	ND	ND	ND	ND
81303	2019-05-08T14:00:00	78.1	ND	ND	ND	ND	52.4	ND	ND	ND	ND	ND	ND
81304	2019-05-08T15:00:00	72.1	ND	ND	ND	ND	41.8	ND	ND	ND	ND	ND	ND
81305	2019-05-08T16:00:00	56.5	ND	ND	ND	ND	20.6	ND	ND	ND	ND	ND	ND
81306	2019-05-08T17:00:00	39.2	ND	ND	ND	ND	10.2	ND	ND	ND	ND	ND	ND
81307	2019-05-08T18:00:00	30.3	ND	ND	ND	ND	7.1	ND	ND	ND	ND	ND	ND
81308	2019-05-08T19:00:00	22.3	ND	ND	ND	ND	6.1	ND	ND	ND	ND	ND	ND
81309	2019-05-08T20:00:00	13.8	ND	ND	ND	ND	5.9	ND	ND	ND	ND	ND	ND
81310	2019-05-08T21:00:00	15.9	ND	ND	ND	ND	5.3	ND	ND	ND	ND	ND	ND
81311	2019-05-08T22:00:00	28.6	ND	ND	ND	ND	3.5	ND	ND	ND	ND	ND	ND
81312	2019-05-08T23:00:00	36.3	ND	ND	ND	ND	5.7	ND	ND	ND	ND	ND	ND
81313	2019-05-09T00:00:00	27	ND	ND	ND	ND	4.3	ND	ND	ND	ND	ND	ND
81314	2019-05-09T01:00:00	25.8	ND	ND	ND	ND	4.7	ND	ND	ND	ND	ND	ND
81315	2019-05-09T02:00:00	19.9	ND	ND	ND	ND	5.3	ND	ND	ND	ND	ND	ND
81316	2019-05-09T03:00:00	21.4	ND	ND	ND	ND	4.7	ND	ND	ND	ND	ND	ND
81317	2019-05-09T04:00:00	15.8	ND	ND	ND	ND	3.9	ND	ND	ND	ND	ND	ND
81318	2019-05-09T05:00:00	8.8	ND	ND	ND	ND	2.6	ND	ND	ND	ND	ND	ND
81319	2019-05-09T06:00:00	3.5	ND	ND	ND	ND	1.2	ND	ND	ND	ND	ND	ND
81320	2019-05-09T07:00:00	22.5	ND	ND	ND	ND	0.8	ND	ND	ND	ND	ND	ND
81321	2019-05-09T08:00:00	36	ND	ND	ND	ND	1.2	ND	ND	ND	ND	ND	ND
81322	2019-05-09T09:00:00	35.7	ND	ND	ND	ND	1.6	ND	ND	ND	ND	ND	ND
81323	2019-05-09T10:00:00	30.8	ND	ND	ND	ND	2.2	ND	ND	ND	ND	ND	ND
81324	2019-05-09T11:00:00	29.1	ND	ND	ND	ND	13.9	ND	ND	ND	ND	ND	ND
81325	2019-05-09T12:00:00	37	ND	ND	ND	ND	25.9	ND	ND	ND	ND	ND	ND
81326	2019-05-09T13:00:00	41.5	ND	ND	ND	ND	34	ND	ND	ND	ND	ND	ND
81327	2019-05-09T14:00:00	59.6	ND	ND	ND	ND	24.9	ND	ND	ND	ND	ND	ND
81328	2019-05-09T15:00:00	53.7	ND	ND	ND	ND	11.2	ND	ND	ND	ND	ND	ND
81329	2019-05-09T16:00:00	37.4	ND	ND	ND	ND	6.9	ND	ND	ND	ND	ND	ND
81330	2019-05-09T17:00:00	31.6	ND	ND	ND	ND	2	ND	ND	ND	ND	ND	ND
81331	2019-05-09T18:00:00	34.9	ND	ND	ND	ND	1	ND	ND	ND	ND	ND	ND
81332	2019-05-09T19:00:00	33.7	ND	ND	ND	ND	1.2	ND	ND	ND	ND	ND	ND
81333	2019-05-09T20:00:00	38.2	ND	ND	ND	ND	1.2	ND	ND	ND	ND	ND	ND
81334	2019-05-09T21:00:00	29.9	ND	ND	ND	ND	1.2	ND	ND	ND	ND	ND	ND
81335	2019-05-09T22:00:00	26.6	ND	ND	ND	ND	1	ND	ND	ND	ND	ND	ND
81336	2019-05-09T23:00:00	16.4	ND	ND	ND	ND	0.6	ND	ND	ND	ND	ND	ND
81337	2019-05-10T00:00:00	19.5	ND	ND	ND	ND	0.6	ND	ND	ND	ND	ND	ND
81338	2019-05-10T01:00:00	12.7	ND	ND	ND	ND	0.8	ND	ND	ND	ND	ND	ND
81339	2019-05-10T02:00:00	22.3	ND	ND	ND	ND	1	ND	ND	ND	ND	ND	ND
81340	2019-05-10T03:00:00	24.4	ND	ND	ND	ND	1.2	ND	ND	ND	ND	ND	ND
81341	2019-05-10T04:00:00	14.5	ND	ND	ND	ND	1	ND	ND	ND	ND	ND	ND
81342	2019-05-10T05:00:00	17.2	ND	ND	ND	ND	0.8	ND	ND	ND	ND	ND	ND
81343	2019-05-10T06:00:00	20	ND	ND	ND	ND	0.8	ND	ND	ND	ND	ND	ND
81344	2019-05-10T07:00:00	38.3	ND	ND	ND	ND	1	ND	ND	ND	ND	ND	ND
81345	2019-05-10T08:00:00	47.8	ND	ND	ND	ND	1	ND	ND	ND	ND	ND	ND
81346	2019-05-10T09:00:00	60.6	ND	ND	ND	ND	2.9	ND	ND	ND	ND	ND	ND
81347	2019-05-10T10:00:00	87.3	ND	ND	ND	ND	5.9	ND	ND	ND	ND	ND	ND
81348	2019-05-10T11:00:00	93.9	ND	ND	ND	ND	17.3	ND	ND	ND	ND	ND	ND
81349	2019-05-10T12:00:00	61.2	ND	ND	ND	ND	38.7	ND	ND	ND	ND	ND	ND
81350	2019-05-10T13:00:00	73.3	ND	ND	ND	ND	51.4	ND	ND	ND	ND	ND	ND
81351	2019-05-10T14:00:00	70.1	ND	ND	ND	ND	60.3	ND	ND	ND	ND	ND	ND
81352	2019-05-10T15:00:00	69.8	ND	ND	ND	ND	75.6	ND	ND	ND	ND	ND	ND
81353	2019-05-10T16:00:00	80.3	ND	ND	ND	ND	54.2	ND	ND	ND	ND	ND	ND
81354	2019-05-10T17:00:00	79.5	ND	ND	ND	ND	7.3	ND	ND	ND	ND	ND	ND
81355	2019-05-10T18:00:00	34	ND	ND	ND	ND	1.2	ND	ND	ND	ND	ND	ND
81356	2019-05-10T19:00:00	40.4	ND	ND	ND	ND	1	ND	ND	ND	ND	ND	ND
81357	2019-05-10T20:00:00	49.8	ND	ND	ND	ND	1	ND	ND	ND	ND	ND	ND
81358	2019-05-10T21:00:00	39	ND	ND	ND	ND	0.8	ND	ND	ND	ND	ND	ND
81359	2019-05-10T22:00:00	42.9	ND	ND	ND	ND	0.8	ND	ND	ND	ND	ND	ND
81360	2019-05-10T23:00:00	51.3	ND	ND	ND	ND	1	ND	ND	ND	ND	ND	ND
81361	2019-05-11T00:00:00	52.8	ND	ND	ND	ND	0.8	ND	ND	ND	ND	ND	ND
81362	2019-05-11T01:00:00	41.9	ND	ND	ND	ND	0.6	ND	ND	ND	ND	ND	ND
81363	2019-05-11T02:00:00	41.6	ND	ND	ND	ND	0.8	ND	ND	ND	ND	ND	ND
81364	2019-05-11T03:00:00	37.1	ND	ND	ND	ND	0.8	ND	ND	ND	ND	ND	ND
81365	2019-05-11T04:00:00	25.3	ND	ND	ND	ND	0.8	ND	ND	ND	ND	ND	ND
81366	2019-05-11T05:00:00	29	ND	ND	ND	ND	0.8	ND	ND	ND	ND	ND	ND
81367	2019-05-11T06:00:00	37.9	ND	ND	ND	ND	0.8	ND	ND	ND	ND	ND	ND
81368	2019-05-11T07:00:00	47.8	ND	ND	ND	ND	1.2	ND	ND	ND	ND	ND	ND
81369	2019-05-11T08:00:00	61.8	ND	ND	ND	ND	1.2	ND	ND	ND	ND	ND	ND
81370	2019-05-11T09:00:00	66	ND	ND	ND	ND	9.2	ND	ND	ND	ND	ND	ND
81371	2019-05-11T10:00:00	63.1	ND	ND	ND	ND	20.4	ND	ND	ND	ND	ND	ND
81372	2019-05-11T11:00:00	74.6	ND	ND	ND	ND	40.6	ND	ND	ND	ND	ND	ND
81373	2019-05-11T12:00:00	70.4	ND	ND	ND	ND	52.2	ND	ND	ND	ND	ND	ND
81374	2019-05-11T13:00:00	87	ND	ND	ND	ND	77.7	ND	ND	ND	ND	ND	ND
81375	2019-05-11T14:00:00	77.3	ND	ND	ND	ND	64.2	ND	ND	ND	ND	ND	ND
81376	2019-05-11T15:00:00	63.2	ND	ND	ND	ND	37.3	ND	ND	ND	ND	ND	ND
81377	2019-05-11T16:00:00	35.2	ND	ND	ND	ND	9	ND	ND	ND	ND	ND	ND
81378	2019-05-11T17:00:00	22.6	ND	ND	ND	ND	7.7	ND	ND	ND	ND	ND	ND
81379	2019-05-11T18:00:00	30.1	ND	ND	ND	ND	4.7	ND	ND	ND	ND	ND	ND
81380	2019-05-11T19:00:00	35.3	ND	ND	ND	ND	5.5	ND	ND	ND	ND	ND	ND
81381	2019-05-11T20:00:00	21.4	ND	ND	ND	ND	3.5	ND	ND	ND	ND	ND	ND
81382	2019-05-11T21:00:00	29.1	ND	ND	ND	ND	1	ND	ND	ND	ND	ND	ND
81383	2019-05-11T22:00:00	61.9	ND	ND	ND	ND	0.8	ND	ND	ND	ND	ND	ND
81384	2019-05-11T23:00:00	49.7	ND	ND	ND	ND	0.8	ND	ND	ND	ND	ND	ND
81385	2019-05-12T00:00:00	37.2	ND	ND	ND	ND	1	ND	ND	ND	ND	ND	ND
81386	2019-05-12T01:00:00	38.4	ND	ND	ND	ND	2	ND	ND	ND	ND	ND	ND
81387	2019-05-12T02:00:00	23	ND	ND	ND	ND	2.2	ND	ND	ND	ND	ND	ND
81388	2019-05-12T03:00:00	37.1	ND	ND	ND	ND	2.7	ND	ND	ND	ND	ND	ND
81389	2019-05-12T04:00:00	40.7	ND	ND	ND	ND	1.8	ND	ND	ND	ND	ND	ND
81390	2019-05-12T05:00:00	34.4	ND	ND	ND	ND	1.6	ND	ND	ND	ND	ND	ND
81391	2019-05-12T06:00:00	47.1	ND	ND	ND	ND	1	ND	ND	ND	ND	ND	ND
81392	2019-05-12T07:00:00	43.7	ND	ND	ND	ND	0.8	ND	ND	ND	ND	ND	ND
81393	2019-05-12T08:00:00	34.7	ND	ND	ND	ND	1.2	ND	ND	ND	ND	ND	ND
81394	2019-05-12T09:00:00	37	ND	ND	ND	ND	4.5	ND	ND	ND	ND	ND	ND
81395	2019-05-12T10:00:00	55.1	ND	ND	ND	ND	9.8	ND	ND	ND	ND	ND	ND
81396	2019-05-12T11:00:00	65.6	ND	ND	ND	ND	15.3	ND	ND	ND	ND	ND	ND
81397	2019-05-12T12:00:00	51	ND	ND	ND	ND	22.6	ND	ND	ND	ND	ND	ND
81398	2019-05-12T13:00:00	33.8	ND	ND	ND	ND	20.6	ND	ND	ND	ND	ND	ND
81399	2019-05-12T14:00:00	22.8	ND	ND	ND	ND	26.1	ND	ND	ND	ND	ND	ND
81400	2019-05-12T15:00:00	13.3	ND	ND	ND	ND	26.9	ND	ND	ND	ND	ND	ND
81401	2019-05-12T16:00:00	14.5	ND	ND	ND	ND	29.8	ND	ND	ND	ND	ND	ND
81402	2019-05-12T17:00:00	24	ND	ND	ND	ND	23.6	ND	ND	ND	ND	ND	ND
81403	2019-05-12T18:00:00	21.7	ND	ND	ND	ND	13.3	ND	ND	ND	ND	ND	ND
81404	2019-05-12T19:00:00	8.7	ND	ND	ND	ND	7.1	ND	ND	ND	ND	ND	ND
81405	2019-05-12T20:00:00	10.9	ND	ND	ND	ND	1.6	ND	ND	ND	ND	ND	ND
81406	2019-05-12T21:00:00	25.6	ND	ND	ND	ND	8.2	ND	ND	ND	ND	ND	ND
81407	2019-05-12T22:00:00	38.6	ND	ND	ND	ND	2.6	ND	ND	ND	ND	ND	ND
81408	2019-05-12T23:00:00	38.4	ND	ND	ND	ND	1.2	ND	ND	ND	ND	ND	ND
81409	2019-05-13T00:00:00	29	ND	ND	ND	ND	2.9	ND	ND	ND	ND	ND	ND
81410	2019-05-13T01:00:00	23	ND	ND	ND	ND	1.2	ND	ND	ND	ND	ND	ND
81411	2019-05-13T02:00:00	47.9	ND	ND	ND	ND	3.3	ND	ND	ND	ND	ND	ND
81412	2019-05-13T03:00:00	60.1	ND	ND	ND	ND	2.9	ND	ND	ND	ND	ND	ND
81413	2019-05-13T04:00:00	52.3	ND	ND	ND	ND	1.2	ND	ND	ND	ND	ND	ND
81414	2019-05-13T05:00:00	56.3	ND	ND	ND	ND	1	ND	ND	ND	ND	ND	ND
81415	2019-05-13T06:00:00	76.6	ND	ND	ND	ND	1.2	ND	ND	ND	ND	ND	ND
81416	2019-05-13T07:00:00	87.3	ND	ND	ND	ND	1.2	ND	ND	ND	ND	ND	ND
81417	2019-05-13T08:00:00	77.6	ND	ND	ND	ND	1.8	ND	ND	ND	ND	ND	ND
81418	2019-05-13T09:00:00	99.3	ND	ND	ND	ND	2.4	ND	ND	ND	ND	ND	ND
81419	2019-05-13T10:00:00	101.5	ND	ND	ND	ND	2.4	ND	ND	ND	ND	ND	ND
81420	2019-05-13T11:00:00	87.5	ND	ND	ND	ND	4.1	ND	ND	ND	ND	ND	ND
81421	2019-05-13T12:00:00	70.5	ND	ND	ND	ND	6.3	ND	ND	ND	ND	ND	ND
81422	2019-05-13T13:00:00	86.7	ND	ND	ND	ND	6.3	ND	ND	ND	ND	ND	ND
81423	2019-05-13T14:00:00	89.4	ND	ND	ND	ND	14.7	ND	ND	ND	ND	ND	ND
81424	2019-05-13T15:00:00	80.1	ND	ND	ND	ND	22.8	ND	ND	ND	ND	ND	ND
81425	2019-05-13T16:00:00	83.9	ND	ND	ND	ND	27.5	ND	ND	ND	ND	ND	ND
81426	2019-05-13T17:00:00	77.9	ND	ND	ND	ND	9.6	ND	ND	ND	ND	ND	ND
81427	2019-05-13T18:00:00	33.4	ND	ND	ND	ND	5.3	ND	ND	ND	ND	ND	ND
81428	2019-05-13T19:00:00	12.3	ND	ND	ND	ND	3.9	ND	ND	ND	ND	ND	ND
81429	2019-05-13T20:00:00	12.7	ND	ND	ND	ND	4.7	ND	ND	ND	ND	ND	ND
81430	2019-05-13T21:00:00	10.2	ND	ND	ND	ND	2	ND	ND	ND	ND	ND	ND
81431	2019-05-13T22:00:00	37.2	ND	ND	ND	ND	0.8	ND	ND	ND	ND	ND	ND
81432	2019-05-13T23:00:00	41	ND	ND	ND	ND	0.8	ND	ND	ND	ND	ND	ND
81433	2019-05-14T00:00:00	53	ND	ND	ND	ND	1	ND	ND	ND	ND	ND	ND
81434	2019-05-14T01:00:00	49.4	ND	ND	ND	ND	1	ND	ND	ND	ND	ND	ND
81435	2019-05-14T02:00:00	33.8	ND	ND	ND	ND	1	ND	ND	ND	ND	ND	ND
81436	2019-05-14T03:00:00	33.6	ND	ND	ND	ND	1.6	ND	ND	ND	ND	ND	ND
81437	2019-05-14T04:00:00	25.8	ND	ND	ND	ND	0.8	ND	ND	ND	ND	ND	ND
81438	2019-05-14T05:00:00	36.2	ND	ND	ND	ND	0.8	ND	ND	ND	ND	ND	ND
81439	2019-05-14T06:00:00	61.3	ND	ND	ND	ND	1	ND	ND	ND	ND	ND	ND
81440	2019-05-14T07:00:00	73.7	ND	ND	ND	ND	1.4	ND	ND	ND	ND	ND	ND
81441	2019-05-14T08:00:00	63.8	ND	ND	ND	ND	2	ND	ND	ND	ND	ND	ND
81442	2019-05-14T09:00:00	74.6	ND	ND	ND	ND	3.3	ND	ND	ND	ND	ND	ND
81443	2019-05-14T10:00:00	65.1	ND	ND	ND	ND	11	ND	ND	ND	ND	ND	ND
81444	2019-05-14T11:00:00	49.6	ND	ND	ND	ND	24.7	ND	ND	ND	ND	ND	ND
81445	2019-05-14T12:00:00	48.9	ND	ND	ND	ND	36.1	ND	ND	ND	ND	ND	ND
81446	2019-05-14T13:00:00	48.4	ND	ND	ND	ND	53.4	ND	ND	ND	ND	ND	ND
81447	2019-05-14T14:00:00	59.7	ND	ND	ND	ND	58.1	ND	ND	ND	ND	ND	ND
81448	2019-05-14T15:00:00	59.8	ND	ND	ND	ND	58.3	ND	ND	ND	ND	ND	ND
81449	2019-05-14T16:00:00	73.5	ND	ND	ND	ND	41.8	ND	ND	ND	ND	ND	ND
81450	2019-05-14T17:00:00	68.2	ND	ND	ND	ND	29.6	ND	ND	ND	ND	ND	ND
81451	2019-05-14T18:00:00	55.5	ND	ND	ND	ND	13.5	ND	ND	ND	ND	ND	ND
81452	2019-05-14T19:00:00	28.2	ND	ND	ND	ND	7.7	ND	ND	ND	ND	ND	ND
81453	2019-05-14T20:00:00	19.1	ND	ND	ND	ND	6.5	ND	ND	ND	ND	ND	ND
81454	2019-05-14T21:00:00	25.2	ND	ND	ND	ND	8.2	ND	ND	ND	ND	ND	ND
81455	2019-05-14T22:00:00	14.7	ND	ND	ND	ND	10	ND	ND	ND	ND	ND	ND
81456	2019-05-14T23:00:00	14.8	ND	ND	ND	ND	7.5	ND	ND	ND	ND	ND	ND
81457	2019-05-15T00:00:00	23.7	ND	ND	ND	ND	4.9	ND	ND	ND	ND	ND	ND
81458	2019-05-15T01:00:00	28.8	ND	ND	ND	ND	7.1	ND	ND	ND	ND	ND	ND
81459	2019-05-15T02:00:00	33.5	ND	ND	ND	ND	7.9	ND	ND	ND	ND	ND	ND
81460	2019-05-15T03:00:00	25.8	ND	ND	ND	ND	7.1	ND	ND	ND	ND	ND	ND
81461	2019-05-15T04:00:00	26.5	ND	ND	ND	ND	7.3	ND	ND	ND	ND	ND	ND
81462	2019-05-15T05:00:00	27.4	ND	ND	ND	ND	5.3	ND	ND	ND	ND	ND	ND
81463	2019-05-15T06:00:00	57.9	ND	ND	ND	ND	1.4	ND	ND	ND	ND	ND	ND
81464	2019-05-15T07:00:00	66.3	ND	ND	ND	ND	1.2	ND	ND	ND	ND	ND	ND
81465	2019-05-15T08:00:00	75.2	ND	ND	ND	ND	2.4	ND	ND	ND	ND	ND	ND
81466	2019-05-15T09:00:00	109	ND	ND	ND	ND	7.1	ND	ND	ND	ND	ND	ND
81467	2019-05-15T10:00:00	101.4	ND	ND	ND	ND	14.9	ND	ND	ND	ND	ND	ND
81468	2019-05-15T11:00:00	90.8	ND	ND	ND	ND	29.8	ND	ND	ND	ND	ND	ND
81469	2019-05-15T12:00:00	72.1	ND	ND	ND	ND	38.3	ND	ND	ND	ND	ND	ND
81470	2019-05-15T13:00:00	69.2	ND	ND	ND	ND	54	ND	ND	ND	ND	ND	ND
81471	2019-05-15T14:00:00	83.1	ND	ND	ND	ND	68.1	ND	ND	ND	ND	ND	ND
81472	2019-05-15T15:00:00	90.7	ND	ND	ND	ND	70.3	ND	ND	ND	ND	ND	ND
81473	2019-05-15T16:00:00	80.7	ND	ND	ND	ND	34.7	ND	ND	ND	ND	ND	ND
81474	2019-05-15T17:00:00	49.6	ND	ND	ND	ND	17.5	ND	ND	ND	ND	ND	ND
81475	2019-05-15T18:00:00	36.2	ND	ND	ND	ND	9.6	ND	ND	ND	ND	ND	ND
81476	2019-05-15T19:00:00	26.5	ND	ND	ND	ND	6.3	ND	ND	ND	ND	ND	ND
81477	2019-05-15T20:00:00	9.7	ND	ND	ND	ND	5.1	ND	ND	ND	ND	ND	ND
81478	2019-05-15T21:00:00	19.1	ND	ND	ND	ND	2.9	ND	ND	ND	ND	ND	ND
81479	2019-05-15T22:00:00	26.1	ND	ND	ND	ND	3.1	ND	ND	ND	ND	ND	ND
81480	2019-05-15T23:00:00	22.4	ND	ND	ND	ND	6.1	ND	ND	ND	ND	ND	ND
81481	2019-05-16T00:00:00	12.7	ND	ND	ND	ND	1	ND	ND	ND	ND	ND	ND
81482	2019-05-16T01:00:00	21.2	ND	ND	ND	ND	0.8	ND	ND	ND	ND	ND	ND
81483	2019-05-16T02:00:00	16	ND	ND	ND	ND	2	ND	ND	ND	ND	ND	ND
81484	2019-05-16T03:00:00	23.4	ND	ND	ND	ND	1.8	ND	ND	ND	ND	ND	ND
81485	2019-05-16T04:00:00	17.5	ND	ND	ND	ND	1.4	ND	ND	ND	ND	ND	ND
81486	2019-05-16T05:00:00	19.3	ND	ND	ND	ND	1.2	ND	ND	ND	ND	ND	ND
81487	2019-05-16T06:00:00	63.4	ND	ND	ND	ND	1.2	ND	ND	ND	ND	ND	ND
81488	2019-05-16T07:00:00	93	ND	ND	ND	ND	1	ND	ND	ND	ND	ND	ND
81489	2019-05-16T08:00:00	56.5	ND	ND	ND	ND	1.6	ND	ND	ND	ND	ND	ND
81490	2019-05-16T09:00:00	80	ND	ND	ND	ND	4.3	ND	ND	ND	ND	ND	ND
81491	2019-05-16T10:00:00	127.3	ND	ND	ND	ND	18.5	ND	ND	ND	ND	ND	ND
81492	2019-05-16T11:00:00	100.9	ND	ND	ND	ND	30	ND	ND	ND	ND	ND	ND
81493	2019-05-16T12:00:00	58.3	ND	ND	ND	ND	43.8	ND	ND	ND	ND	ND	ND
81494	2019-05-16T13:00:00	45.7	ND	ND	ND	ND	51.4	ND	ND	ND	ND	ND	ND
81495	2019-05-16T14:00:00	55.1	ND	ND	ND	ND	41.8	ND	ND	ND	ND	ND	ND
81496	2019-05-16T15:00:00	58.8	ND	ND	ND	ND	13	ND	ND	ND	ND	ND	ND
81497	2019-05-16T16:00:00	35.8	ND	ND	ND	ND	15.3	ND	ND	ND	ND	ND	ND
81498	2019-05-16T17:00:00	36.7	ND	ND	ND	ND	9	ND	ND	ND	ND	ND	ND
81499	2019-05-16T18:00:00	40.3	ND	ND	ND	ND	5.1	ND	ND	ND	ND	ND	ND
81500	2019-05-16T19:00:00	35.6	ND	ND	ND	ND	1.8	ND	ND	ND	ND	ND	ND
81501	2019-05-16T20:00:00	30.7	ND	ND	ND	ND	3.7	ND	ND	ND	ND	ND	ND
81502	2019-05-16T21:00:00	29.3	ND	ND	ND	ND	3.7	ND	ND	ND	ND	ND	ND
81503	2019-05-16T22:00:00	34.4	ND	ND	ND	ND	1.2	ND	ND	ND	ND	ND	ND
81504	2019-05-16T23:00:00	30	ND	ND	ND	ND	0.8	ND	ND	ND	ND	ND	ND
81505	2019-05-17T00:00:00	38.4	ND	ND	ND	ND	0.8	ND	ND	ND	ND	ND	ND
81506	2019-05-17T01:00:00	39	ND	ND	ND	ND	1.4	ND	ND	ND	ND	ND	ND
81507	2019-05-17T02:00:00	37.8	ND	ND	ND	ND	2.2	ND	ND	ND	ND	ND	ND
81508	2019-05-17T03:00:00	24.5	ND	ND	ND	ND	0.6	ND	ND	ND	ND	ND	ND
81509	2019-05-17T04:00:00	20.2	ND	ND	ND	ND	0.6	ND	ND	ND	ND	ND	ND
81510	2019-05-17T05:00:00	30.9	ND	ND	ND	ND	0.6	ND	ND	ND	ND	ND	ND
81511	2019-05-17T06:00:00	24.1	ND	ND	ND	ND	0.8	ND	ND	ND	ND	ND	ND
81512	2019-05-17T07:00:00	58.8	ND	ND	ND	ND	1	ND	ND	ND	ND	ND	ND
81513	2019-05-17T08:00:00	64	ND	ND	ND	ND	1.4	ND	ND	ND	ND	ND	ND
81514	2019-05-17T09:00:00	74.4	ND	ND	ND	ND	2.6	ND	ND	ND	ND	ND	ND
81515	2019-05-17T10:00:00	70.1	ND	ND	ND	ND	9.4	ND	ND	ND	ND	ND	ND
81516	2019-05-17T11:00:00	93.5	ND	ND	ND	ND	16.1	ND	ND	ND	ND	ND	ND
81517	2019-05-17T12:00:00	94.7	ND	ND	ND	ND	40.6	ND	ND	ND	ND	ND	ND
81518	2019-05-17T13:00:00	66.7	ND	ND	ND	ND	38.3	ND	ND	ND	ND	ND	ND
81519	2019-05-17T14:00:00	79.4	ND	ND	ND	ND	30	ND	ND	ND	ND	ND	ND
81520	2019-05-17T15:00:00	46.5	ND	ND	ND	ND	6.7	ND	ND	ND	ND	ND	ND
81521	2019-05-17T16:00:00	36	ND	ND	ND	ND	3.9	ND	ND	ND	ND	ND	ND
81522	2019-05-17T17:00:00	43.5	ND	ND	ND	ND	3.1	ND	ND	ND	ND	ND	ND
81523	2019-05-17T18:00:00	41.2	ND	ND	ND	ND	1.6	ND	ND	ND	ND	ND	ND
81524	2019-05-17T19:00:00	69.7	ND	ND	ND	ND	1.2	ND	ND	ND	ND	ND	ND
81525	2019-05-17T20:00:00	57.2	ND	ND	ND	ND	0.8	ND	ND	ND	ND	ND	ND
81526	2019-05-17T21:00:00	56.8	ND	ND	ND	ND	1	ND	ND	ND	ND	ND	ND
81527	2019-05-17T22:00:00	56.5	ND	ND	ND	ND	0.8	ND	ND	ND	ND	ND	ND
81528	2019-05-17T23:00:00	49.4	ND	ND	ND	ND	1	ND	ND	ND	ND	ND	ND
81529	2019-05-18T00:00:00	70.2	ND	ND	ND	ND	1	ND	ND	ND	ND	ND	ND
81530	2019-05-18T01:00:00	83.6	ND	ND	ND	ND	1.2	ND	ND	ND	ND	ND	ND
81531	2019-05-18T02:00:00	65	ND	ND	ND	ND	0.8	ND	ND	ND	ND	ND	ND
81532	2019-05-18T03:00:00	30.9	ND	ND	ND	ND	0.6	ND	ND	ND	ND	ND	ND
81533	2019-05-18T04:00:00	35.1	ND	ND	ND	ND	0.8	ND	ND	ND	ND	ND	ND
81534	2019-05-18T05:00:00	44.7	ND	ND	ND	ND	0.6	ND	ND	ND	ND	ND	ND
81535	2019-05-18T06:00:00	40.8	ND	ND	ND	ND	0.8	ND	ND	ND	ND	ND	ND
81536	2019-05-18T07:00:00	47.6	ND	ND	ND	ND	1	ND	ND	ND	ND	ND	ND
81537	2019-05-18T08:00:00	73.8	ND	ND	ND	ND	1.4	ND	ND	ND	ND	ND	ND
81538	2019-05-18T09:00:00	76.9	ND	ND	ND	ND	3.9	ND	ND	ND	ND	ND	ND
81539	2019-05-18T10:00:00	78.8	ND	ND	ND	ND	4.9	ND	ND	ND	ND	ND	ND
81540	2019-05-18T11:00:00	56.5	ND	ND	ND	ND	10.2	ND	ND	ND	ND	ND	ND
81541	2019-05-18T12:00:00	53	ND	ND	ND	ND	12.8	ND	ND	ND	ND	ND	ND
81542	2019-05-18T13:00:00	44.2	ND	ND	ND	ND	29.6	ND	ND	ND	ND	ND	ND
81543	2019-05-18T14:00:00	39	ND	ND	ND	ND	52	ND	ND	ND	ND	ND	ND
81544	2019-05-18T15:00:00	43.5	ND	ND	ND	ND	47.5	ND	ND	ND	ND	ND	ND
81545	2019-05-18T16:00:00	51.5	ND	ND	ND	ND	43	ND	ND	ND	ND	ND	ND
81546	2019-05-18T17:00:00	35.1	ND	ND	ND	ND	11	ND	ND	ND	ND	ND	ND
81547	2019-05-18T18:00:00	12.9	ND	ND	ND	ND	3.9	ND	ND	ND	ND	ND	ND
81548	2019-05-18T19:00:00	21.5	ND	ND	ND	ND	4.1	ND	ND	ND	ND	ND	ND
81549	2019-05-18T20:00:00	11.7	ND	ND	ND	ND	1.8	ND	ND	ND	ND	ND	ND
81550	2019-05-18T21:00:00	33.2	ND	ND	ND	ND	3.3	ND	ND	ND	ND	ND	ND
81551	2019-05-18T22:00:00	42.2	ND	ND	ND	ND	2.9	ND	ND	ND	ND	ND	ND
81552	2019-05-18T23:00:00	40.5	ND	ND	ND	ND	0.8	ND	ND	ND	ND	ND	ND
81553	2019-05-19T00:00:00	52.9	ND	ND	ND	ND	2	ND	ND	ND	ND	ND	ND
81554	2019-05-19T01:00:00	42.3	ND	ND	ND	ND	7.3	ND	ND	ND	ND	ND	ND
81555	2019-05-19T02:00:00	9.5	ND	ND	ND	ND	5.5	ND	ND	ND	ND	ND	ND
81556	2019-05-19T03:00:00	9.4	ND	ND	ND	ND	2.9	ND	ND	ND	ND	ND	ND
81557	2019-05-19T04:00:00	14.7	ND	ND	ND	ND	1.8	ND	ND	ND	ND	ND	ND
81558	2019-05-19T05:00:00	19.9	ND	ND	ND	ND	1.8	ND	ND	ND	ND	ND	ND
81559	2019-05-19T06:00:00	37.6	ND	ND	ND	ND	2.4	ND	ND	ND	ND	ND	ND
81560	2019-05-19T07:00:00	19.4	ND	ND	ND	ND	1.8	ND	ND	ND	ND	ND	ND
81561	2019-05-19T08:00:00	14.1	ND	ND	ND	ND	1.4	ND	ND	ND	ND	ND	ND
81562	2019-05-19T09:00:00	10.4	ND	ND	ND	ND	3.7	ND	ND	ND	ND	ND	ND
81563	2019-05-19T10:00:00	13.6	ND	ND	ND	ND	5.5	ND	ND	ND	ND	ND	ND
81564	2019-05-19T11:00:00	14	ND	ND	ND	ND	9.4	ND	ND	ND	ND	ND	ND
81565	2019-05-19T12:00:00	25.2	ND	ND	ND	ND	9	ND	ND	ND	ND	ND	ND
81566	2019-05-19T13:00:00	19.4	ND	ND	ND	ND	14.9	ND	ND	ND	ND	ND	ND
81567	2019-05-19T14:00:00	14.9	ND	ND	ND	ND	20.4	ND	ND	ND	ND	ND	ND
81568	2019-05-19T15:00:00	8.2	ND	ND	ND	ND	20.6	ND	ND	ND	ND	ND	ND
81569	2019-05-19T16:00:00	16.3	ND	ND	ND	ND	17.1	ND	ND	ND	ND	ND	ND
81570	2019-05-19T17:00:00	4.5	ND	ND	ND	ND	14.5	ND	ND	ND	ND	ND	ND
81571	2019-05-19T18:00:00	14.2	ND	ND	ND	ND	6.7	ND	ND	ND	ND	ND	ND
81572	2019-05-19T19:00:00	27.2	ND	ND	ND	ND	2.2	ND	ND	ND	ND	ND	ND
81573	2019-05-19T20:00:00	42.8	ND	ND	ND	ND	1.6	ND	ND	ND	ND	ND	ND
81574	2019-05-19T21:00:00	38.6	ND	ND	ND	ND	0.8	ND	ND	ND	ND	ND	ND
81575	2019-05-19T22:00:00	38	ND	ND	ND	ND	0.8	ND	ND	ND	ND	ND	ND
81576	2019-05-19T23:00:00	32.2	ND	ND	ND	ND	0.8	ND	ND	ND	ND	ND	ND
81577	2019-05-20T00:00:00	32.1	ND	ND	ND	ND	0.6	ND	ND	ND	ND	ND	ND
81578	2019-05-20T01:00:00	28.8	ND	ND	ND	ND	0.6	ND	ND	ND	ND	ND	ND
81579	2019-05-20T02:00:00	28.8	ND	ND	ND	ND	0.8	ND	ND	ND	ND	ND	ND
81580	2019-05-20T03:00:00	19.9	ND	ND	ND	ND	1.6	ND	ND	ND	ND	ND	ND
81581	2019-05-20T04:00:00	18.2	ND	ND	ND	ND	1.2	ND	ND	ND	ND	ND	ND
81582	2019-05-20T05:00:00	20.9	ND	ND	ND	ND	0.8	ND	ND	ND	ND	ND	ND
81583	2019-05-20T06:00:00	23.1	ND	ND	ND	ND	0.6	ND	ND	ND	ND	ND	ND
81584	2019-05-20T07:00:00	31.7	ND	ND	ND	ND	0.8	ND	ND	ND	ND	ND	ND
81585	2019-05-20T08:00:00	52.5	ND	ND	ND	ND	1	ND	ND	ND	ND	ND	ND
81586	2019-05-20T09:00:00	62.3	ND	ND	ND	ND	2.2	ND	ND	ND	ND	ND	ND
81587	2019-05-20T10:00:00	68.9	ND	ND	ND	ND	9.2	ND	ND	ND	ND	ND	ND
81588	2019-05-20T11:00:00	79.9	ND	ND	ND	ND	21	ND	ND	ND	ND	ND	ND
81589	2019-05-20T12:00:00	99.1	ND	ND	ND	ND	26.7	ND	ND	ND	ND	ND	ND
81590	2019-05-20T13:00:00	73.8	ND	ND	ND	ND	57.7	ND	ND	ND	ND	ND	ND
81591	2019-05-20T14:00:00	83.3	ND	ND	ND	ND	59.3	ND	ND	ND	ND	ND	ND
81592	2019-05-20T15:00:00	71	ND	ND	ND	ND	68.1	ND	ND	ND	ND	ND	ND
81593	2019-05-20T16:00:00	59.6	ND	ND	ND	ND	70.5	ND	ND	ND	ND	ND	ND
81594	2019-05-20T17:00:00	69.8	ND	ND	ND	ND	29.2	ND	ND	ND	ND	ND	ND
81595	2019-05-20T18:00:00	57.9	ND	ND	ND	ND	6.9	ND	ND	ND	ND	ND	ND
81596	2019-05-20T19:00:00	46.5	ND	ND	ND	ND	2.4	ND	ND	ND	ND	ND	ND
81597	2019-05-20T20:00:00	43.8	ND	ND	ND	ND	1.2	ND	ND	ND	ND	ND	ND
81598	2019-05-20T21:00:00	37.9	ND	ND	ND	ND	10.4	ND	ND	ND	ND	ND	ND
81599	2019-05-20T22:00:00	36	ND	ND	ND	ND	6.9	ND	ND	ND	ND	ND	ND
81600	2019-05-20T23:00:00	21.9	ND	ND	ND	ND	2	ND	ND	ND	ND	ND	ND
81601	2019-05-21T00:00:00	31.7	ND	ND	ND	ND	1.4	ND	ND	ND	ND	ND	ND
81602	2019-05-21T01:00:00	35.2	ND	ND	ND	ND	1	ND	ND	ND	ND	ND	ND
81603	2019-05-21T02:00:00	35.7	ND	ND	ND	ND	0.8	ND	ND	ND	ND	ND	ND
81604	2019-05-21T03:00:00	36.2	ND	ND	ND	ND	1.4	ND	ND	ND	ND	ND	ND
81605	2019-05-21T04:00:00	30	ND	ND	ND	ND	2.6	ND	ND	ND	ND	ND	ND
81606	2019-05-21T05:00:00	30.4	ND	ND	ND	ND	0.8	ND	ND	ND	ND	ND	ND
81607	2019-05-21T06:00:00	55.1	ND	ND	ND	ND	0.8	ND	ND	ND	ND	ND	ND
81608	2019-05-21T07:00:00	73.1	ND	ND	ND	ND	1	ND	ND	ND	ND	ND	ND
81609	2019-05-21T08:00:00	76.8	ND	ND	ND	ND	1.2	ND	ND	ND	ND	ND	ND
81610	2019-05-21T09:00:00	103.4	ND	ND	ND	ND	2	ND	ND	ND	ND	ND	ND
81611	2019-05-21T10:00:00	88.3	ND	ND	ND	ND	231.1	ND	ND	ND	ND	ND	ND
81612	2019-05-21T11:00:00	58.4	ND	ND	ND	ND	21.8	ND	ND	ND	ND	ND	ND
81613	2019-05-21T12:00:00	52.8	ND	ND	ND	ND	38.7	ND	ND	ND	ND	ND	ND
81614	2019-05-21T13:00:00	45.7	ND	ND	ND	ND	40.8	ND	ND	ND	ND	ND	ND
81615	2019-05-21T14:00:00	48.7	ND	ND	ND	ND	67.3	ND	ND	ND	ND	ND	ND
81616	2019-05-21T15:00:00	48.1	ND	ND	ND	ND	81.1	ND	ND	ND	ND	ND	ND
81617	2019-05-21T16:00:00	61.5	ND	ND	ND	ND	62.8	ND	ND	ND	ND	ND	ND
81618	2019-05-21T17:00:00	67.1	ND	ND	ND	ND	38.3	ND	ND	ND	ND	ND	ND
81619	2019-05-21T18:00:00	76.6	ND	ND	ND	ND	21.4	ND	ND	ND	ND	ND	ND
81620	2019-05-21T19:00:00	62.4	ND	ND	ND	ND	10.8	ND	ND	ND	ND	ND	ND
81621	2019-05-21T20:00:00	37.2	ND	ND	ND	ND	7.9	ND	ND	ND	ND	ND	ND
81622	2019-05-21T21:00:00	29.3	ND	ND	ND	ND	8	ND	ND	ND	ND	ND	ND
81623	2019-05-21T22:00:00	30.7	ND	ND	ND	ND	1	ND	ND	ND	ND	ND	ND
81624	2019-05-21T23:00:00	51.3	ND	ND	ND	ND	0.6	ND	ND	ND	ND	ND	ND
81625	2019-05-22T00:00:00	51.9	ND	ND	ND	ND	2.9	ND	ND	ND	ND	ND	ND
81626	2019-05-22T01:00:00	41.6	ND	ND	ND	ND	5.5	ND	ND	ND	ND	ND	ND
81627	2019-05-22T02:00:00	31.8	ND	ND	ND	ND	5.7	ND	ND	ND	ND	ND	ND
81628	2019-05-22T03:00:00	29.3	ND	ND	ND	ND	3.3	ND	ND	ND	ND	ND	ND
81629	2019-05-22T04:00:00	35	ND	ND	ND	ND	3.7	ND	ND	ND	ND	ND	ND
81630	2019-05-22T05:00:00	31.2	ND	ND	ND	ND	12.6	ND	ND	ND	ND	ND	ND
81631	2019-05-22T06:00:00	37.7	ND	ND	ND	ND	7.1	ND	ND	ND	ND	ND	ND
81632	2019-05-22T07:00:00	14.7	ND	ND	ND	ND	1.2	ND	ND	ND	ND	ND	ND
81633	2019-05-22T08:00:00	27.9	ND	ND	ND	ND	1	ND	ND	ND	ND	ND	ND
81634	2019-05-22T09:00:00	53.4	ND	ND	ND	ND	2.9	ND	ND	ND	ND	ND	ND
81635	2019-05-22T10:00:00	43.4	ND	ND	ND	ND	13.9	ND	ND	ND	ND	ND	ND
81636	2019-05-22T11:00:00	47.1	ND	ND	ND	ND	37.5	ND	ND	ND	ND	ND	ND
81637	2019-05-22T12:00:00	61.1	ND	ND	ND	ND	67.9	ND	ND	ND	ND	ND	ND
81638	2019-05-22T13:00:00	67.5	ND	ND	ND	ND	71.3	ND	ND	ND	ND	ND	ND
81639	2019-05-22T14:00:00	55.5	ND	ND	ND	ND	46.3	ND	ND	ND	ND	ND	ND
81640	2019-05-22T15:00:00	43.9	ND	ND	ND	ND	43.4	ND	ND	ND	ND	ND	ND
81641	2019-05-22T16:00:00	41.3	ND	ND	ND	ND	22	ND	ND	ND	ND	ND	ND
81642	2019-05-22T17:00:00	22	ND	ND	ND	ND	11.2	ND	ND	ND	ND	ND	ND
81643	2019-05-22T18:00:00	19.1	ND	ND	ND	ND	8	ND	ND	ND	ND	ND	ND
81644	2019-05-22T19:00:00	23.2	ND	ND	ND	ND	6.1	ND	ND	ND	ND	ND	ND
81645	2019-05-22T20:00:00	22.6	ND	ND	ND	ND	10.4	ND	ND	ND	ND	ND	ND
81646	2019-05-22T21:00:00	10.1	ND	ND	ND	ND	10.4	ND	ND	ND	ND	ND	ND
81647	2019-05-22T22:00:00	4.7	ND	ND	ND	ND	7.9	ND	ND	ND	ND	ND	ND
81648	2019-05-22T23:00:00	16.8	ND	ND	ND	ND	4.3	ND	ND	ND	ND	ND	ND
81649	2019-05-23T00:00:00	31.6	ND	ND	ND	ND	4.7	ND	ND	ND	ND	ND	ND
81650	2019-05-23T01:00:00	32	ND	ND	ND	ND	6.9	ND	ND	ND	ND	ND	ND
81651	2019-05-23T02:00:00	9.8	ND	ND	ND	ND	1.8	ND	ND	ND	ND	ND	ND
81652	2019-05-23T03:00:00	23.7	ND	ND	ND	ND	1.6	ND	ND	ND	ND	ND	ND
81653	2019-05-23T04:00:00	34.2	ND	ND	ND	ND	1.8	ND	ND	ND	ND	ND	ND
81654	2019-05-23T05:00:00	26.4	ND	ND	ND	ND	1.6	ND	ND	ND	ND	ND	ND
81655	2019-05-23T06:00:00	13.5	ND	ND	ND	ND	0.6	ND	ND	ND	ND	ND	ND
81656	2019-05-23T07:00:00	37	ND	ND	ND	ND	0.6	ND	ND	ND	ND	ND	ND
81657	2019-05-23T08:00:00	53.5	ND	ND	ND	ND	0.8	ND	ND	ND	ND	ND	ND
81658	2019-05-23T09:00:00	39.4	ND	ND	ND	ND	1.4	ND	ND	ND	ND	ND	ND
81659	2019-05-23T10:00:00	34.1	ND	ND	ND	ND	1	ND	ND	ND	ND	ND	ND
81660	2019-05-23T11:00:00	44.3	ND	ND	ND	ND	2	ND	ND	ND	ND	ND	ND
81661	2019-05-23T12:00:00	30.6	ND	ND	ND	ND	6.5	ND	ND	ND	ND	ND	ND
81662	2019-05-23T13:00:00	39.3	ND	ND	ND	ND	24.5	ND	ND	ND	ND	ND	ND
81663	2019-05-23T14:00:00	50.3	ND	ND	ND	ND	21.2	ND	ND	ND	ND	ND	ND
81664	2019-05-23T15:00:00	47.7	ND	ND	ND	ND	11.2	ND	ND	ND	ND	ND	ND
81665	2019-05-23T16:00:00	44.8	ND	ND	ND	ND	11.2	ND	ND	ND	ND	ND	ND
81666	2019-05-23T17:00:00	33	ND	ND	ND	ND	11.2	ND	ND	ND	ND	ND	ND
81667	2019-05-23T18:00:00	42.5	ND	ND	ND	ND	3.1	ND	ND	ND	ND	ND	ND
81668	2019-05-23T19:00:00	21.8	ND	ND	ND	ND	1	ND	ND	ND	ND	ND	ND
81669	2019-05-23T20:00:00	26.9	ND	ND	ND	ND	0.8	ND	ND	ND	ND	ND	ND
81670	2019-05-23T21:00:00	16.9	ND	ND	ND	ND	1.6	ND	ND	ND	ND	ND	ND
81671	2019-05-23T22:00:00	19.5	ND	ND	ND	ND	1.2	ND	ND	ND	ND	ND	ND
81672	2019-05-23T23:00:00	28.8	ND	ND	ND	ND	0.8	ND	ND	ND	ND	ND	ND
81673	2019-05-24T00:00:00	21	ND	ND	ND	ND	1	ND	ND	ND	ND	ND	ND
81674	2019-05-24T01:00:00	20.9	ND	ND	ND	ND	0.6	ND	ND	ND	ND	ND	ND
81675	2019-05-24T02:00:00	24.6	ND	ND	ND	ND	0.8	ND	ND	ND	ND	ND	ND
81676	2019-05-24T03:00:00	39.5	ND	ND	ND	ND	0.8	ND	ND	ND	ND	ND	ND
81677	2019-05-24T04:00:00	59.2	ND	ND	ND	ND	1	ND	ND	ND	ND	ND	ND
81678	2019-05-24T05:00:00	61.8	ND	ND	ND	ND	0.6	ND	ND	ND	ND	ND	ND
81679	2019-05-24T06:00:00	54.4	ND	ND	ND	ND	0.8	ND	ND	ND	ND	ND	ND
81680	2019-05-24T07:00:00	49.2	ND	ND	ND	ND	0.8	ND	ND	ND	ND	ND	ND
81681	2019-05-24T08:00:00	59.8	ND	ND	ND	ND	1.4	ND	ND	ND	ND	ND	ND
81682	2019-05-24T09:00:00	64.5	ND	ND	ND	ND	8.8	ND	ND	ND	ND	ND	ND
81683	2019-05-24T10:00:00	83.3	ND	ND	ND	ND	18.3	ND	ND	ND	ND	ND	ND
81684	2019-05-24T11:00:00	70.6	ND	ND	ND	ND	34.4	ND	ND	ND	ND	ND	ND
81685	2019-05-24T12:00:00	74.8	ND	ND	ND	ND	43.2	ND	ND	ND	ND	ND	ND
81686	2019-05-24T13:00:00	53.5	ND	ND	ND	ND	51.6	ND	ND	ND	ND	ND	ND
81687	2019-05-24T14:00:00	53.3	ND	ND	ND	ND	47.7	ND	ND	ND	ND	ND	ND
81688	2019-05-24T15:00:00	51.9	ND	ND	ND	ND	35.9	ND	ND	ND	ND	ND	ND
81689	2019-05-24T16:00:00	53.8	ND	ND	ND	ND	34	ND	ND	ND	ND	ND	ND
81690	2019-05-24T17:00:00	58.8	ND	ND	ND	ND	18.3	ND	ND	ND	ND	ND	ND
81691	2019-05-24T18:00:00	40.3	ND	ND	ND	ND	5.7	ND	ND	ND	ND	ND	ND
81692	2019-05-24T19:00:00	31.5	ND	ND	ND	ND	3.9	ND	ND	ND	ND	ND	ND
81693	2019-05-24T20:00:00	17.8	ND	ND	ND	ND	2	ND	ND	ND	ND	ND	ND
81694	2019-05-24T21:00:00	21.5	ND	ND	ND	ND	1.6	ND	ND	ND	ND	ND	ND
81695	2019-05-24T22:00:00	41.3	ND	ND	ND	ND	2.7	ND	ND	ND	ND	ND	ND
81696	2019-05-24T23:00:00	29.7	ND	ND	ND	ND	5.1	ND	ND	ND	ND	ND	ND
81697	2019-05-25T00:00:00	23	ND	ND	ND	ND	3.9	ND	ND	ND	ND	ND	ND
81698	2019-05-25T01:00:00	21.9	ND	ND	ND	ND	5.3	ND	ND	ND	ND	ND	ND
81699	2019-05-25T02:00:00	9.1	ND	ND	ND	ND	7.7	ND	ND	ND	ND	ND	ND
81700	2019-05-25T03:00:00	4.8	ND	ND	ND	ND	5.7	ND	ND	ND	ND	ND	ND
81701	2019-05-25T04:00:00	14.7	ND	ND	ND	ND	6.5	ND	ND	ND	ND	ND	ND
81702	2019-05-25T05:00:00	7.7	ND	ND	ND	ND	0.8	ND	ND	ND	ND	ND	ND
81703	2019-05-25T06:00:00	15.3	ND	ND	ND	ND	0.8	ND	ND	ND	ND	ND	ND
81704	2019-05-25T07:00:00	29	ND	ND	ND	ND	0.8	ND	ND	ND	ND	ND	ND
81705	2019-05-25T08:00:00	27.8	ND	ND	ND	ND	1	ND	ND	ND	ND	ND	ND
81706	2019-05-25T09:00:00	31.8	ND	ND	ND	ND	1.2	ND	ND	ND	ND	ND	ND
81707	2019-05-25T10:00:00	28.3	ND	ND	ND	ND	4.1	ND	ND	ND	ND	ND	ND
81708	2019-05-25T11:00:00	43.2	ND	ND	ND	ND	9.6	ND	ND	ND	ND	ND	ND
81709	2019-05-25T12:00:00	56.2	ND	ND	ND	ND	17.5	ND	ND	ND	ND	ND	ND
81710	2019-05-25T13:00:00	61.8	ND	ND	ND	ND	23.4	ND	ND	ND	ND	ND	ND
81711	2019-05-25T14:00:00	55.8	ND	ND	ND	ND	23.6	ND	ND	ND	ND	ND	ND
81712	2019-05-25T15:00:00	37.2	ND	ND	ND	ND	8	ND	ND	ND	ND	ND	ND
81713	2019-05-25T16:00:00	30.9	ND	ND	ND	ND	5.3	ND	ND	ND	ND	ND	ND
81714	2019-05-25T17:00:00	10.7	ND	ND	ND	ND	4.3	ND	ND	ND	ND	ND	ND
81715	2019-05-25T18:00:00	21.3	ND	ND	ND	ND	2	ND	ND	ND	ND	ND	ND
81716	2019-05-25T19:00:00	21.9	ND	ND	ND	ND	1.2	ND	ND	ND	ND	ND	ND
81717	2019-05-25T20:00:00	39	ND	ND	ND	ND	1.2	ND	ND	ND	ND	ND	ND
81718	2019-05-25T21:00:00	32.7	ND	ND	ND	ND	1.2	ND	ND	ND	ND	ND	ND
81719	2019-05-25T22:00:00	24	ND	ND	ND	ND	1.2	ND	ND	ND	ND	ND	ND
81720	2019-05-25T23:00:00	34.6	ND	ND	ND	ND	0.8	ND	ND	ND	ND	ND	ND
81721	2019-05-26T00:00:00	43.1	ND	ND	ND	ND	0.6	ND	ND	ND	ND	ND	ND
81722	2019-05-26T01:00:00	46.3	ND	ND	ND	ND	0.6	ND	ND	ND	ND	ND	ND
81723	2019-05-26T02:00:00	42.2	ND	ND	ND	ND	0.8	ND	ND	ND	ND	ND	ND
81724	2019-05-26T03:00:00	58.3	ND	ND	ND	ND	0.8	ND	ND	ND	ND	ND	ND
81725	2019-05-26T04:00:00	58.3	ND	ND	ND	ND	0.6	ND	ND	ND	ND	ND	ND
81726	2019-05-26T05:00:00	60.7	ND	ND	ND	ND	0.6	ND	ND	ND	ND	ND	ND
81727	2019-05-26T06:00:00	41	ND	ND	ND	ND	0.6	ND	ND	ND	ND	ND	ND
81728	2019-05-26T07:00:00	54.2	ND	ND	ND	ND	0.6	ND	ND	ND	ND	ND	ND
81729	2019-05-26T08:00:00	49.6	ND	ND	ND	ND	1	ND	ND	ND	ND	ND	ND
81730	2019-05-26T09:00:00	74.5	ND	ND	ND	ND	3.3	ND	ND	ND	ND	ND	ND
81731	2019-05-26T10:00:00	68.9	ND	ND	ND	ND	6.1	ND	ND	ND	ND	ND	ND
81732	2019-05-26T11:00:00	64.5	ND	ND	ND	ND	18.1	ND	ND	ND	ND	ND	ND
81733	2019-05-26T12:00:00	54	ND	ND	ND	ND	38.7	ND	ND	ND	ND	ND	ND
81734	2019-05-26T13:00:00	53.5	ND	ND	ND	ND	57.3	ND	ND	ND	ND	ND	ND
81735	2019-05-26T14:00:00	37.2	ND	ND	ND	ND	56.3	ND	ND	ND	ND	ND	ND
81736	2019-05-26T15:00:00	47	ND	ND	ND	ND	48.9	ND	ND	ND	ND	ND	ND
81737	2019-05-26T16:00:00	40.7	ND	ND	ND	ND	51.4	ND	ND	ND	ND	ND	ND
81738	2019-05-26T17:00:00	43	ND	ND	ND	ND	39.7	ND	ND	ND	ND	ND	ND
81739	2019-05-26T18:00:00	30.5	ND	ND	ND	ND	11	ND	ND	ND	ND	ND	ND
81740	2019-05-26T19:00:00	21.1	ND	ND	ND	ND	5.7	ND	ND	ND	ND	ND	ND
81741	2019-05-26T20:00:00	7.3	ND	ND	ND	ND	6.3	ND	ND	ND	ND	ND	ND
81742	2019-05-26T21:00:00	14.4	ND	ND	ND	ND	3.7	ND	ND	ND	ND	ND	ND
81743	2019-05-26T22:00:00	31.9	ND	ND	ND	ND	1	ND	ND	ND	ND	ND	ND
81744	2019-05-26T23:00:00	70.8	ND	ND	ND	ND	1	ND	ND	ND	ND	ND	ND
81745	2019-05-27T00:00:00	65.2	ND	ND	ND	ND	0.8	ND	ND	ND	ND	ND	ND
81746	2019-05-27T01:00:00	49.2	ND	ND	ND	ND	1	ND	ND	ND	ND	ND	ND
81747	2019-05-27T02:00:00	24.6	ND	ND	ND	ND	2.2	ND	ND	ND	ND	ND	ND
81748	2019-05-27T03:00:00	28.4	ND	ND	ND	ND	1.8	ND	ND	ND	ND	ND	ND
81749	2019-05-27T04:00:00	21.8	ND	ND	ND	ND	1.6	ND	ND	ND	ND	ND	ND
81750	2019-05-27T05:00:00	21.3	ND	ND	ND	ND	0.8	ND	ND	ND	ND	ND	ND
81751	2019-05-27T06:00:00	26.5	ND	ND	ND	ND	1	ND	ND	ND	ND	ND	ND
81752	2019-05-27T07:00:00	61	ND	ND	ND	ND	1.2	ND	ND	ND	ND	ND	ND
81753	2019-05-27T08:00:00	115	ND	ND	ND	ND	1.6	ND	ND	ND	ND	ND	ND
81754	2019-05-27T09:00:00	113	ND	ND	ND	ND	5.9	ND	ND	ND	ND	ND	ND
81755	2019-05-27T10:00:00	84.8	ND	ND	ND	ND	15.1	ND	ND	ND	ND	ND	ND
81756	2019-05-27T11:00:00	71	ND	ND	ND	ND	20.8	ND	ND	ND	ND	ND	ND
81757	2019-05-27T12:00:00	70.5	ND	ND	ND	ND	22.8	ND	ND	ND	ND	ND	ND
81758	2019-05-27T13:00:00	66.9	ND	ND	ND	ND	44.6	ND	ND	ND	ND	ND	ND
81759	2019-05-27T14:00:00	72.8	ND	ND	ND	ND	52.6	ND	ND	ND	ND	ND	ND
81760	2019-05-27T15:00:00	107.1	ND	ND	ND	ND	48.5	ND	ND	ND	ND	ND	ND
81761	2019-05-27T16:00:00	101.8	ND	ND	ND	ND	47.5	ND	ND	ND	ND	ND	ND
81762	2019-05-27T17:00:00	79.2	ND	ND	ND	ND	49.1	ND	ND	ND	ND	ND	ND
81763	2019-05-27T18:00:00	84.8	ND	ND	ND	ND	26.5	ND	ND	ND	ND	ND	ND
81764	2019-05-27T19:00:00	78.3	ND	ND	ND	ND	9.2	ND	ND	ND	ND	ND	ND
81765	2019-05-27T20:00:00	38.3	ND	ND	ND	ND	2.2	ND	ND	ND	ND	ND	ND
81766	2019-05-27T21:00:00	23.3	ND	ND	ND	ND	2.2	ND	ND	ND	ND	ND	ND
81767	2019-05-27T22:00:00	14.6	ND	ND	ND	ND	1.6	ND	ND	ND	ND	ND	ND
81768	2019-05-27T23:00:00	25.1	ND	ND	ND	ND	0.6	ND	ND	ND	ND	ND	ND
81769	2019-05-28T00:00:00	42.7	ND	ND	ND	ND	0.8	ND	ND	ND	ND	ND	ND
81770	2019-05-28T01:00:00	42.4	ND	ND	ND	ND	3.1	ND	ND	ND	ND	ND	ND
81771	2019-05-28T02:00:00	29	ND	ND	ND	ND	11.6	ND	ND	ND	ND	ND	ND
81772	2019-05-28T03:00:00	27.1	ND	ND	ND	ND	14.1	ND	ND	ND	ND	ND	ND
81773	2019-05-28T04:00:00	19.3	ND	ND	ND	ND	7.3	ND	ND	ND	ND	ND	ND
81774	2019-05-28T05:00:00	29.4	ND	ND	ND	ND	5.1	ND	ND	ND	ND	ND	ND
81775	2019-05-28T06:00:00	42.3	ND	ND	ND	ND	0.8	ND	ND	ND	ND	ND	ND
81776	2019-05-28T07:00:00	62.8	ND	ND	ND	ND	0.8	ND	ND	ND	ND	ND	ND
81777	2019-05-28T08:00:00	69.8	ND	ND	ND	ND	1	ND	ND	ND	ND	ND	ND
81778	2019-05-28T09:00:00	42.2	ND	ND	ND	ND	1.6	ND	ND	ND	ND	ND	ND
81779	2019-05-28T10:00:00	28.5	ND	ND	ND	ND	1.8	ND	ND	ND	ND	ND	ND
81780	2019-05-28T11:00:00	38.8	ND	ND	ND	ND	13.5	ND	ND	ND	ND	ND	ND
81781	2019-05-28T12:00:00	57.2	ND	ND	ND	ND	33.6	ND	ND	ND	ND	ND	ND
81782	2019-05-28T13:00:00	68.3	ND	ND	ND	ND	31.4	ND	ND	ND	ND	ND	ND
81783	2019-05-28T14:00:00	53.5	ND	ND	ND	ND	23.8	ND	ND	ND	ND	ND	ND
81784	2019-05-28T15:00:00	39.7	ND	ND	ND	ND	12	ND	ND	ND	ND	ND	ND
81785	2019-05-28T16:00:00	27.3	ND	ND	ND	ND	11.4	ND	ND	ND	ND	ND	ND
81786	2019-05-28T17:00:00	32.1	ND	ND	ND	ND	13	ND	ND	ND	ND	ND	ND
81787	2019-05-28T18:00:00	15.7	ND	ND	ND	ND	9.6	ND	ND	ND	ND	ND	ND
81788	2019-05-28T19:00:00	0.6	ND	ND	ND	ND	2.2	ND	ND	ND	ND	ND	ND
81789	2019-05-28T20:00:00	47.2	ND	ND	ND	ND	2.4	ND	ND	ND	ND	ND	ND
81790	2019-05-28T21:00:00	38.2	ND	ND	ND	ND	0.6	ND	ND	ND	ND	ND	ND
81791	2019-05-28T22:00:00	26.2	ND	ND	ND	ND	0.6	ND	ND	ND	ND	ND	ND
81792	2019-05-28T23:00:00	23.9	ND	ND	ND	ND	0.6	ND	ND	ND	ND	ND	ND
81793	2019-05-29T00:00:00	26.8	ND	ND	ND	ND	0.8	ND	ND	ND	ND	ND	ND
81794	2019-05-29T01:00:00	20.1	ND	ND	ND	ND	2.4	ND	ND	ND	ND	ND	ND
81795	2019-05-29T02:00:00	18.9	ND	ND	ND	ND	1.4	ND	ND	ND	ND	ND	ND
81796	2019-05-29T03:00:00	34	ND	ND	ND	ND	0.8	ND	ND	ND	ND	ND	ND
81797	2019-05-29T04:00:00	42.5	ND	ND	ND	ND	0.8	ND	ND	ND	ND	ND	ND
81798	2019-05-29T05:00:00	52.9	ND	ND	ND	ND	0.8	ND	ND	ND	ND	ND	ND
81799	2019-05-29T06:00:00	70.1	ND	ND	ND	ND	0.6	ND	ND	ND	ND	ND	ND
81800	2019-05-29T07:00:00	77.2	ND	ND	ND	ND	1	ND	ND	ND	ND	ND	ND
81801	2019-05-29T08:00:00	72.9	ND	ND	ND	ND	0.8	ND	ND	ND	ND	ND	ND
81802	2019-05-29T09:00:00	45.5	ND	ND	ND	ND	1.2	ND	ND	ND	ND	ND	ND
81803	2019-05-29T10:00:00	54	ND	ND	ND	ND	2.2	ND	ND	ND	ND	ND	ND
81804	2019-05-29T11:00:00	56.2	ND	ND	ND	ND	6.3	ND	ND	ND	ND	ND	ND
81805	2019-05-29T12:00:00	42.6	ND	ND	ND	ND	26.5	ND	ND	ND	ND	ND	ND
81806	2019-05-29T13:00:00	50.4	ND	ND	ND	ND	46.3	ND	ND	ND	ND	ND	ND
81807	2019-05-29T14:00:00	67.7	ND	ND	ND	ND	56.3	ND	ND	ND	ND	ND	ND
81808	2019-05-29T15:00:00	53.9	ND	ND	ND	ND	48.9	ND	ND	ND	ND	ND	ND
81809	2019-05-29T16:00:00	52.3	ND	ND	ND	ND	46.3	ND	ND	ND	ND	ND	ND
81810	2019-05-29T17:00:00	76.5	ND	ND	ND	ND	24.7	ND	ND	ND	ND	ND	ND
81811	2019-05-29T18:00:00	58.2	ND	ND	ND	ND	7.9	ND	ND	ND	ND	ND	ND
81812	2019-05-29T19:00:00	42.7	ND	ND	ND	ND	3.1	ND	ND	ND	ND	ND	ND
81813	2019-05-29T20:00:00	23.7	ND	ND	ND	ND	3.1	ND	ND	ND	ND	ND	ND
81814	2019-05-29T21:00:00	16.5	ND	ND	ND	ND	3.7	ND	ND	ND	ND	ND	ND
81815	2019-05-29T22:00:00	32.4	ND	ND	ND	ND	0.6	ND	ND	ND	ND	ND	ND
81816	2019-05-29T23:00:00	55.4	ND	ND	ND	ND	2.7	ND	ND	ND	ND	ND	ND
81817	2019-05-30T00:00:00	36.6	ND	ND	ND	ND	11.4	ND	ND	ND	ND	ND	ND
81818	2019-05-30T01:00:00	17.7	ND	ND	ND	ND	5.7	ND	ND	ND	ND	ND	ND
81819	2019-05-30T02:00:00	20.2	ND	ND	ND	ND	1.8	ND	ND	ND	ND	ND	ND
81820	2019-05-30T03:00:00	26.5	ND	ND	ND	ND	1.6	ND	ND	ND	ND	ND	ND
81821	2019-05-30T04:00:00	27.2	ND	ND	ND	ND	2.2	ND	ND	ND	ND	ND	ND
81822	2019-05-30T05:00:00	33.3	ND	ND	ND	ND	2.7	ND	ND	ND	ND	ND	ND
81823	2019-05-30T06:00:00	25.9	ND	ND	ND	ND	2	ND	ND	ND	ND	ND	ND
81824	2019-05-30T07:00:00	24.8	ND	ND	ND	ND	0.8	ND	ND	ND	ND	ND	ND
81825	2019-05-30T08:00:00	42.3	ND	ND	ND	ND	1	ND	ND	ND	ND	ND	ND
81826	2019-05-30T09:00:00	54.8	ND	ND	ND	ND	1.2	ND	ND	ND	ND	ND	ND
81827	2019-05-30T10:00:00	72	ND	ND	ND	ND	2.7	ND	ND	ND	ND	ND	ND
81828	2019-05-30T11:00:00	82.7	ND	ND	ND	ND	8.2	ND	ND	ND	ND	ND	ND
81829	2019-05-30T12:00:00	98.1	ND	ND	ND	ND	18.5	ND	ND	ND	ND	ND	ND
81830	2019-05-30T13:00:00	106.5	ND	ND	ND	ND	27.1	ND	ND	ND	ND	ND	ND
81831	2019-05-30T14:00:00	101.9	ND	ND	ND	ND	44.8	ND	ND	ND	ND	ND	ND
81832	2019-05-30T15:00:00	85.5	ND	ND	ND	ND	47.5	ND	ND	ND	ND	ND	ND
81833	2019-05-30T16:00:00	88.4	ND	ND	ND	ND	23.6	ND	ND	ND	ND	ND	ND
81834	2019-05-30T17:00:00	44.5	ND	ND	ND	ND	3.7	ND	ND	ND	ND	ND	ND
81835	2019-05-30T18:00:00	25.1	ND	ND	ND	ND	1.4	ND	ND	ND	ND	ND	ND
81836	2019-05-30T19:00:00	35.9	ND	ND	ND	ND	0.8	ND	ND	ND	ND	ND	ND
81837	2019-05-30T20:00:00	24.2	ND	ND	ND	ND	0.8	ND	ND	ND	ND	ND	ND
81838	2019-05-30T21:00:00	29.1	ND	ND	ND	ND	0.6	ND	ND	ND	ND	ND	ND
81839	2019-05-30T22:00:00	39.3	ND	ND	ND	ND	0.6	ND	ND	ND	ND	ND	ND
81840	2019-05-30T23:00:00	27.7	ND	ND	ND	ND	0.8	ND	ND	ND	ND	ND	ND
81841	2019-05-31T00:00:00	29.1	ND	ND	ND	ND	0.8	ND	ND	ND	ND	ND	ND
81842	2019-05-31T01:00:00	19.4	ND	ND	ND	ND	0.8	ND	ND	ND	ND	ND	ND
81843	2019-05-31T02:00:00	18.4	ND	ND	ND	ND	1	ND	ND	ND	ND	ND	ND
81844	2019-05-31T03:00:00	20.1	ND	ND	ND	ND	0.8	ND	ND	ND	ND	ND	ND
81845	2019-05-31T04:00:00	14.3	ND	ND	ND	ND	1	ND	ND	ND	ND	ND	ND
81846	2019-05-31T05:00:00	20.7	ND	ND	ND	ND	1.2	ND	ND	ND	ND	ND	ND
81847	2019-05-31T06:00:00	14.2	ND	ND	ND	ND	1.4	ND	ND	ND	ND	ND	ND
81848	2019-05-31T07:00:00	14.3	ND	ND	ND	ND	0.8	ND	ND	ND	ND	ND	ND
81849	2019-05-31T08:00:00	16.3	ND	ND	ND	ND	1	ND	ND	ND	ND	ND	ND
81850	2019-05-31T09:00:00	ND	ND	ND	ND	ND	ND	ND	ND	ND	ND	ND	ND
81851	2019-05-31T10:00:00	ND	ND	ND	ND	ND	ND	ND	ND	ND	ND	ND	ND
81852	2019-05-31T11:00:00	ND	ND	ND	ND	ND	ND	ND	ND	ND	ND	ND	ND
81853	2019-05-31T12:00:00	ND	ND	ND	ND	ND	ND	ND	ND	ND	ND	ND	ND
81854	2019-05-31T13:00:00	ND	ND	ND	ND	ND	ND	ND	ND	ND	ND	ND	ND
81855	2019-05-31T14:00:00	ND	ND	ND	ND	ND	ND	ND	ND	ND	ND	ND	ND
81856	2019-05-31T15:00:00	ND	ND	ND	ND	ND	ND	ND	ND	ND	ND	ND	ND
81857	2019-05-31T16:00:00	ND	ND	ND	ND	ND	ND	ND	ND	ND	ND	ND	ND
81858	2019-05-31T17:00:00	ND	ND	ND	ND	ND	ND	ND	ND	ND	ND	ND	2.79
81859	2019-05-31T18:00:00	37.3	ND	ND	ND	ND	ND	ND	ND	ND	ND	0	0
81860	2019-05-31T19:00:00	25.7	ND	ND	ND	ND	ND	ND	ND	ND	ND	0	0.25
81861	2019-05-31T20:00:00	26.1	ND	ND	ND	ND	ND	ND	ND	ND	ND	0	0
81862	2019-05-31T21:00:00	33.8	ND	ND	ND	ND	ND	ND	ND	ND	ND	0	0
81863	2019-05-31T22:00:00	42.2	ND	ND	ND	ND	ND	ND	ND	ND	ND	0	0
81864	2019-05-31T23:00:00	45.3	ND	ND	ND	ND	ND	ND	ND	ND	ND	0	0
81865	2019-06-01T00:00:00	40.1	ND	ND	ND	ND	ND	ND	ND	ND	ND	0	0
81866	2019-06-01T01:00:00	42.6	ND	ND	ND	ND	0.8	ND	ND	ND	ND	0	0
81867	2019-06-01T02:00:00	32.3	ND	ND	ND	ND	1.6	ND	ND	ND	ND	0	0
81868	2019-06-01T03:00:00	34.8	ND	ND	ND	ND	1	ND	ND	ND	ND	0	0
81869	2019-06-01T04:00:00	29.7	ND	ND	ND	ND	0.8	ND	ND	ND	ND	0	0
81870	2019-06-01T05:00:00	47.3	ND	ND	ND	ND	0.9	ND	ND	ND	ND	0	0
81871	2019-06-01T06:00:00	61.7	ND	ND	ND	ND	0.8	ND	ND	ND	ND	0	0
81872	2019-06-01T07:00:00	96.9	ND	ND	ND	ND	0.7	ND	ND	ND	ND	0	0
81873	2019-06-01T08:00:00	100.3	ND	ND	ND	ND	1	ND	ND	ND	ND	67.9	0
81874	2019-06-01T09:00:00	92.4	ND	ND	ND	ND	1.6	ND	ND	ND	ND	100.5	0
81875	2019-06-01T10:00:00	100.7	ND	ND	ND	ND	5.3	ND	ND	ND	ND	278.7	0
81876	2019-06-01T11:00:00	79.5	ND	ND	ND	ND	12.8	ND	ND	ND	ND	612.9	0
81877	2019-06-01T12:00:00	78.6	ND	ND	ND	ND	26.2	ND	ND	ND	ND	649.6	0
81878	2019-06-01T13:00:00	73.1	ND	ND	ND	ND	36.7	ND	ND	ND	ND	599.3	0
81879	2019-06-01T14:00:00	73.9	ND	ND	ND	ND	42	ND	ND	ND	ND	636.2	0
81880	2019-06-01T15:00:00	82.7	ND	ND	ND	ND	22	ND	ND	ND	ND	647.3	0
81881	2019-06-01T16:00:00	48.5	ND	ND	ND	ND	21.4	ND	ND	ND	ND	504.7	0
81882	2019-06-01T17:00:00	53.3	ND	ND	ND	ND	12.2	ND	ND	ND	ND	596.3	0
81883	2019-06-01T18:00:00	49.7	ND	ND	ND	ND	6	ND	ND	ND	ND	276.2	0
81884	2019-06-01T19:00:00	69.1	ND	ND	ND	ND	1.8	ND	ND	ND	ND	0	0
81885	2019-06-01T20:00:00	72.6	ND	ND	ND	ND	2	ND	ND	ND	ND	0	0
81886	2019-06-01T21:00:00	65.2	ND	ND	ND	ND	0.9	ND	ND	ND	ND	0	0
81887	2019-06-01T22:00:00	57.4	ND	ND	ND	ND	0.8	ND	ND	ND	ND	0	0
81888	2019-06-01T23:00:00	59.8	ND	ND	ND	ND	0.7	ND	ND	ND	ND	0	0
81889	2019-06-02T00:00:00	54.8	ND	ND	ND	ND	0.8	ND	ND	ND	ND	0	0
81890	2019-06-02T01:00:00	58.6	ND	ND	ND	ND	0.7	ND	ND	ND	ND	0	0
81891	2019-06-02T02:00:00	71	ND	ND	ND	ND	0.8	ND	ND	ND	ND	0	0
81892	2019-06-02T03:00:00	69.5	ND	ND	ND	ND	0.7	ND	ND	ND	ND	0	0
81893	2019-06-02T04:00:00	77.2	ND	ND	ND	ND	0.9	ND	ND	ND	ND	0	0
81894	2019-06-02T05:00:00	80.5	ND	ND	ND	ND	0.7	ND	ND	ND	ND	0	0
81895	2019-06-02T06:00:00	66.5	ND	ND	ND	ND	0.7	ND	ND	ND	ND	0	0
81896	2019-06-02T07:00:00	70.6	ND	ND	ND	ND	1.1	ND	ND	ND	ND	0	0
81897	2019-06-02T08:00:00	90	ND	ND	ND	ND	2.4	ND	ND	ND	ND	113.6	0
81898	2019-06-02T09:00:00	97.8	ND	ND	ND	ND	8.5	ND	ND	ND	ND	327.2	0
81899	2019-06-02T10:00:00	91.7	ND	ND	ND	ND	27	ND	ND	ND	ND	529.9	0
81900	2019-06-02T11:00:00	64.9	ND	ND	ND	ND	42.7	ND	ND	ND	ND	639.9	0
81901	2019-06-02T12:00:00	55.1	ND	ND	ND	ND	60	ND	ND	ND	ND	622.8	0
81902	2019-06-02T13:00:00	53.7	ND	ND	ND	ND	57.4	ND	ND	ND	ND	626.7	0
81903	2019-06-02T14:00:00	50.3	ND	ND	ND	ND	51	ND	ND	ND	ND	630	0
81904	2019-06-02T15:00:00	48.2	ND	ND	ND	ND	54.3	ND	ND	ND	ND	648.2	0
81905	2019-06-02T16:00:00	44.2	ND	ND	ND	ND	48.7	ND	ND	ND	ND	577.1	0
81906	2019-06-02T17:00:00	33.3	ND	ND	ND	ND	40.3	ND	ND	ND	ND	576	0
81907	2019-06-02T18:00:00	53.8	ND	ND	ND	ND	24.5	ND	ND	ND	ND	381.2	0
81908	2019-06-02T19:00:00	33.3	ND	ND	ND	ND	12.7	ND	ND	ND	ND	0	0
81909	2019-06-02T20:00:00	31.1	ND	ND	ND	ND	8.8	ND	ND	ND	ND	0	0
81910	2019-06-02T21:00:00	29.3	ND	ND	ND	ND	7.2	ND	ND	ND	ND	0	0
81911	2019-06-02T22:00:00	49.5	ND	ND	ND	ND	4.6	ND	ND	ND	ND	0	0
81912	2019-06-02T23:00:00	42.2	ND	ND	ND	ND	4.9	ND	ND	ND	ND	0	0
81913	2019-06-03T00:00:00	42	ND	ND	ND	ND	1.8	ND	ND	ND	ND	0	0
81914	2019-06-03T01:00:00	35.9	ND	ND	ND	ND	0.6	ND	ND	ND	ND	0	0
81915	2019-06-03T02:00:00	34.7	ND	ND	ND	ND	0.8	ND	ND	ND	ND	0	0
81916	2019-06-03T03:00:00	41.6	ND	ND	ND	ND	1.3	ND	ND	ND	ND	0	0
81917	2019-06-03T04:00:00	35.1	ND	ND	ND	ND	0.7	ND	ND	ND	ND	0	0
81918	2019-06-03T05:00:00	51.5	ND	ND	ND	ND	0.8	ND	ND	ND	ND	0	0
81919	2019-06-03T06:00:00	51.7	ND	ND	ND	ND	1	ND	ND	ND	ND	0	0
81920	2019-06-03T07:00:00	76.9	ND	ND	ND	ND	1.2	ND	ND	ND	ND	0	0
81921	2019-06-03T08:00:00	86.5	ND	ND	ND	ND	4.5	ND	ND	ND	ND	70.3	0
81922	2019-06-03T09:00:00	67.5	ND	ND	ND	ND	13.1	ND	ND	ND	ND	504.6	0
81923	2019-06-03T10:00:00	73.3	ND	ND	ND	ND	28.7	ND	ND	ND	ND	649.9	0
81924	2019-06-03T11:00:00	67.3	ND	ND	ND	ND	41.9	ND	ND	ND	ND	650.2	0
81925	2019-06-03T12:00:00	73.2	ND	ND	ND	ND	43	ND	ND	ND	ND	650.6	0
81926	2019-06-03T13:00:00	60.6	ND	ND	ND	ND	68	ND	ND	ND	ND	650.9	0
81927	2019-06-03T14:00:00	53.5	ND	ND	ND	ND	73.7	ND	ND	ND	ND	651.4	0
81928	2019-06-03T15:00:00	63.1	ND	ND	ND	ND	69.2	ND	ND	ND	ND	651.6	0
81929	2019-06-03T16:00:00	55	ND	ND	ND	ND	68.5	ND	ND	ND	ND	640.6	0
81930	2019-06-03T17:00:00	47.9	ND	ND	ND	ND	21.3	ND	ND	ND	ND	414.7	0
81931	2019-06-03T18:00:00	28	ND	ND	ND	ND	13	ND	ND	ND	ND	277.5	0
81932	2019-06-03T19:00:00	23.8	ND	ND	ND	ND	5.5	ND	ND	ND	ND	0	0
81933	2019-06-03T20:00:00	28.5	ND	ND	ND	ND	6.8	ND	ND	ND	ND	0	0
81934	2019-06-03T21:00:00	20.1	ND	ND	ND	ND	7.5	ND	ND	ND	ND	0	0
81935	2019-06-03T22:00:00	9.8	ND	ND	ND	ND	5.9	ND	ND	ND	ND	0	0
81936	2019-06-03T23:00:00	13.6	ND	ND	ND	ND	1.6	ND	ND	ND	ND	0	0
81937	2019-06-04T00:00:00	36.6	ND	ND	ND	ND	0.6	ND	ND	ND	ND	0	0
81938	2019-06-04T01:00:00	43.4	ND	ND	ND	ND	0.7	ND	ND	ND	ND	0	0
81939	2019-06-04T02:00:00	39.5	ND	ND	ND	ND	2	ND	ND	ND	ND	0	0
81940	2019-06-04T03:00:00	33.8	ND	ND	ND	ND	2.5	ND	ND	ND	ND	0	0
81941	2019-06-04T04:00:00	35.3	ND	ND	ND	ND	1.6	ND	ND	ND	ND	0	0
81942	2019-06-04T05:00:00	25.4	ND	ND	ND	ND	1.9	ND	ND	ND	ND	0	0
81943	2019-06-04T06:00:00	38.6	ND	ND	ND	ND	0.6	ND	ND	ND	ND	0	0
81944	2019-06-04T07:00:00	65.2	ND	ND	ND	ND	1	ND	ND	ND	ND	0	0
81945	2019-06-04T08:00:00	78.2	ND	ND	ND	ND	3.4	ND	ND	ND	ND	200.3	0
81946	2019-06-04T09:00:00	90.4	ND	ND	ND	ND	12.7	ND	ND	ND	ND	611.1	0
81947	2019-06-04T10:00:00	89.4	ND	ND	ND	ND	172	ND	ND	ND	ND	650.3	0
81948	2019-06-04T11:00:00	107.4	ND	ND	ND	ND	58.7	ND	ND	ND	ND	622.9	0
81949	2019-06-04T12:00:00	75.8	ND	ND	ND	ND	41	ND	ND	ND	ND	651	0
81950	2019-06-04T13:00:00	71.9	ND	ND	ND	ND	49.5	ND	ND	ND	ND	648.2	0
81951	2019-06-04T14:00:00	78.6	ND	ND	ND	ND	59.7	ND	ND	ND	ND	650.6	0
81952	2019-06-04T15:00:00	84.7	ND	ND	ND	ND	51.5	ND	ND	ND	ND	628.9	0
81953	2019-06-04T16:00:00	65.7	ND	ND	ND	ND	17.9	ND	ND	ND	ND	553.9	0
81954	2019-06-04T17:00:00	48.4	ND	ND	ND	ND	10.6	ND	ND	ND	ND	383.7	0
81955	2019-06-04T18:00:00	39.1	ND	ND	ND	ND	8.1	ND	ND	ND	ND	289.5	0
81956	2019-06-04T19:00:00	39	ND	ND	ND	ND	6	ND	ND	ND	ND	0	0
81957	2019-06-04T20:00:00	30.1	ND	ND	ND	ND	4	ND	ND	ND	ND	0	0
81958	2019-06-04T21:00:00	16.9	ND	ND	ND	ND	8.2	ND	ND	ND	ND	0	0
81959	2019-06-04T22:00:00	35.7	ND	ND	ND	ND	15.7	ND	ND	ND	ND	0	0
81960	2019-06-04T23:00:00	15.3	ND	ND	ND	ND	8.2	ND	ND	ND	ND	0	0
81961	2019-06-05T00:00:00	26.7	ND	ND	ND	ND	7.5	ND	ND	ND	ND	0	0
81962	2019-06-05T01:00:00	32.4	ND	ND	ND	ND	6.1	ND	ND	ND	ND	0	0
81963	2019-06-05T02:00:00	27.8	ND	ND	ND	ND	9	ND	ND	ND	ND	0	0
81964	2019-06-05T03:00:00	19.1	ND	ND	ND	ND	10.2	ND	ND	ND	ND	0	0
81965	2019-06-05T04:00:00	16.1	ND	ND	ND	ND	9.6	ND	ND	ND	ND	0	0
81966	2019-06-05T05:00:00	23.2	ND	ND	ND	ND	8.1	ND	ND	ND	ND	0	0
81967	2019-06-05T06:00:00	48.3	ND	ND	ND	ND	2.5	ND	ND	ND	ND	0	0
81968	2019-06-05T07:00:00	114.1	ND	ND	ND	ND	1.1	ND	ND	ND	ND	0	0
81969	2019-06-05T08:00:00	109.2	ND	ND	ND	ND	3.1	ND	ND	ND	ND	116.1	0
81970	2019-06-05T09:00:00	106	ND	ND	ND	ND	10.8	ND	ND	ND	ND	538.1	0
81971	2019-06-05T10:00:00	107.2	ND	ND	ND	ND	19.3	ND	ND	ND	ND	595.1	0
81972	2019-06-05T11:00:00	82.9	ND	ND	ND	ND	28.4	ND	ND	ND	ND	649.8	0
81973	2019-06-05T12:00:00	77	ND	ND	ND	ND	31.2	ND	ND	ND	ND	650.5	0
81974	2019-06-05T13:00:00	73.6	ND	ND	ND	ND	62.2	ND	ND	ND	ND	650.9	0
81975	2019-06-05T14:00:00	80.6	ND	ND	ND	ND	101.8	ND	ND	ND	ND	614.6	0
81976	2019-06-05T15:00:00	ND	ND	ND	ND	ND	ND	ND	ND	ND	ND	530.6	ND
81977	2019-06-05T16:00:00	110	ND	ND	ND	ND	47.5	ND	ND	ND	ND	ND	0
81978	2019-06-05T17:00:00	81.8	ND	ND	ND	ND	12.2	ND	ND	ND	ND	350.6	0
81979	2019-06-05T18:00:00	29.8	ND	ND	ND	ND	8.5	ND	ND	ND	ND	191.9	0
81980	2019-06-05T19:00:00	14.7	ND	ND	ND	ND	7.9	ND	ND	ND	ND	0	0
81981	2019-06-05T20:00:00	20.2	ND	ND	ND	ND	8.4	ND	ND	ND	ND	0	0
81982	2019-06-05T21:00:00	23.2	ND	ND	ND	ND	9.9	ND	ND	ND	ND	0	0
81983	2019-06-05T22:00:00	16.3	ND	ND	ND	ND	3.8	ND	ND	ND	ND	0	0
81984	2019-06-05T23:00:00	35.8	ND	ND	ND	ND	3.5	ND	ND	ND	ND	0	0
81985	2019-06-06T00:00:00	26.9	ND	ND	ND	ND	2.4	ND	ND	ND	ND	0	0
81986	2019-06-06T01:00:00	38.1	ND	ND	ND	ND	4.1	ND	ND	ND	ND	0	0
81987	2019-06-06T02:00:00	25.8	ND	ND	ND	ND	6.5	ND	ND	ND	ND	0	0
81988	2019-06-06T03:00:00	23.7	ND	ND	ND	ND	8	ND	ND	ND	ND	0	0
81989	2019-06-06T04:00:00	27.1	ND	ND	ND	ND	4.2	ND	ND	ND	ND	0	4.83
81990	2019-06-06T05:00:00	21.3	ND	ND	ND	ND	2.1	ND	ND	ND	ND	0	1.78
81991	2019-06-06T06:00:00	26.5	ND	ND	ND	ND	1.1	ND	ND	ND	ND	0	3.81
81992	2019-06-06T07:00:00	30.9	ND	ND	ND	ND	0.8	ND	ND	ND	ND	0	0
81993	2019-06-06T08:00:00	31	ND	ND	ND	ND	1.6	ND	ND	ND	ND	139.4	0.25
81994	2019-06-06T09:00:00	56	ND	ND	ND	ND	4.8	ND	ND	ND	ND	480.2	0
81995	2019-06-06T10:00:00	64.9	ND	ND	ND	ND	19.4	ND	ND	ND	ND	647.7	0
81996	2019-06-06T11:00:00	75.4	ND	ND	ND	ND	25.7	ND	ND	ND	ND	650.2	0
81997	2019-06-06T12:00:00	77.5	ND	ND	ND	ND	37.8	ND	ND	ND	ND	650.4	0
81998	2019-06-06T13:00:00	70.3	ND	ND	ND	ND	52.2	ND	ND	ND	ND	650.8	0
81999	2019-06-06T14:00:00	78.5	ND	ND	ND	ND	46.6	ND	ND	ND	ND	614.7	0
82000	2019-06-06T15:00:00	85.3	ND	ND	ND	ND	20.9	ND	ND	ND	ND	308	0
82001	2019-06-06T16:00:00	57.7	ND	ND	ND	ND	10.1	ND	ND	ND	ND	353.1	0
82002	2019-06-06T17:00:00	39.3	ND	ND	ND	ND	8	ND	ND	ND	ND	349.8	0
82003	2019-06-06T18:00:00	41.3	ND	ND	ND	ND	6.6	ND	ND	ND	ND	233.9	0
82004	2019-06-06T19:00:00	21.7	ND	ND	ND	ND	6.6	ND	ND	ND	ND	0	0
82005	2019-06-06T20:00:00	17.1	ND	ND	ND	ND	5.6	ND	ND	ND	ND	0	18.8
82006	2019-06-06T21:00:00	26.3	ND	ND	ND	ND	3.8	ND	ND	ND	ND	0	2.03
82007	2019-06-06T22:00:00	10	ND	ND	ND	ND	1.6	ND	ND	ND	ND	0	9.14
82008	2019-06-06T23:00:00	9	ND	ND	ND	ND	0.9	ND	ND	ND	ND	0	6.86
82009	2019-06-07T00:00:00	10.6	ND	ND	ND	ND	0.6	ND	ND	ND	ND	0	0.25
82010	2019-06-07T01:00:00	8.4	ND	ND	ND	ND	0.7	ND	ND	ND	ND	0	0.51
82011	2019-06-07T02:00:00	15.2	ND	ND	ND	ND	1.9	ND	ND	ND	ND	0	0
82012	2019-06-07T03:00:00	12.6	ND	ND	ND	ND	2.8	ND	ND	ND	ND	0	0.76
82013	2019-06-07T04:00:00	10.3	ND	ND	ND	ND	4.1	ND	ND	ND	ND	0	0.25
82014	2019-06-07T05:00:00	5.9	ND	ND	ND	ND	2.8	ND	ND	ND	ND	0	2.03
82015	2019-06-07T06:00:00	6	ND	ND	ND	ND	1.3	ND	ND	ND	ND	0	0.25
82016	2019-06-07T07:00:00	14.9	ND	ND	ND	ND	0.8	ND	ND	ND	ND	0	0.51
82017	2019-06-07T08:00:00	29	ND	ND	ND	ND	1.5	ND	ND	ND	ND	31.5	0
82018	2019-06-07T09:00:00	38.8	ND	ND	ND	ND	2.5	ND	ND	ND	ND	187.2	0
82019	2019-06-07T10:00:00	56.7	ND	ND	ND	ND	5.9	ND	ND	ND	ND	320.1	0
82020	2019-06-07T11:00:00	73.1	ND	ND	ND	ND	11.5	ND	ND	ND	ND	580.5	0
82021	2019-06-07T12:00:00	58.1	ND	ND	ND	ND	16.2	ND	ND	ND	ND	542.8	0
82022	2019-06-07T13:00:00	52.3	ND	ND	ND	ND	5.5	ND	ND	ND	ND	439.6	0.51
82023	2019-06-07T14:00:00	27.9	ND	ND	ND	ND	24.9	ND	ND	ND	ND	483.7	0
82024	2019-06-07T15:00:00	35.9	ND	ND	ND	ND	20.8	ND	ND	ND	ND	649.4	0
82025	2019-06-07T16:00:00	54.9	ND	ND	ND	ND	8.8	ND	ND	ND	ND	582.6	0
82026	2019-06-07T17:00:00	49	ND	ND	ND	ND	4.7	ND	ND	ND	ND	0	58.67
82027	2019-06-07T18:00:00	38.9	ND	ND	ND	ND	1.1	ND	ND	ND	ND	0	7.87
82028	2019-06-07T19:00:00	26	ND	ND	ND	ND	0.8	ND	ND	ND	ND	0	0
82029	2019-06-07T20:00:00	35.1	ND	ND	ND	ND	0.6	ND	ND	ND	ND	0	0.25
82030	2019-06-07T21:00:00	35	ND	ND	ND	ND	0.8	ND	ND	ND	ND	0	0
82031	2019-06-07T22:00:00	30.7	ND	ND	ND	ND	0.6	ND	ND	ND	ND	0	0
82032	2019-06-07T23:00:00	31.4	ND	ND	ND	ND	0.7	ND	ND	ND	ND	0	0
82033	2019-06-08T00:00:00	37	ND	ND	ND	ND	0.6	ND	ND	ND	ND	0	0
82034	2019-06-08T01:00:00	40.3	ND	ND	ND	ND	0.7	ND	ND	ND	ND	0	0
82035	2019-06-08T02:00:00	32.4	ND	ND	ND	ND	1.1	ND	ND	ND	ND	0	0
82036	2019-06-08T03:00:00	26.2	ND	ND	ND	ND	2	ND	ND	ND	ND	0	0
82037	2019-06-08T04:00:00	25.6	ND	ND	ND	ND	1.9	ND	ND	ND	ND	0	0
82038	2019-06-08T05:00:00	28.4	ND	ND	ND	ND	1.1	ND	ND	ND	ND	0	0
82039	2019-06-08T06:00:00	39.3	ND	ND	ND	ND	0.6	ND	ND	ND	ND	0	0
82040	2019-06-08T07:00:00	50.4	ND	ND	ND	ND	0.9	ND	ND	ND	ND	0	0
82041	2019-06-08T08:00:00	53	ND	ND	ND	ND	1.6	ND	ND	ND	ND	40.3	0
82042	2019-06-08T09:00:00	66.9	ND	ND	ND	ND	2.5	ND	ND	ND	ND	194.9	0
82043	2019-06-08T10:00:00	87	ND	ND	ND	ND	3.5	ND	ND	ND	ND	304.6	0
82044	2019-06-08T11:00:00	95.1	ND	ND	ND	ND	9.8	ND	ND	ND	ND	400.4	0
82045	2019-06-08T12:00:00	72.6	ND	ND	ND	ND	25	ND	ND	ND	ND	624.3	0
82046	2019-06-08T13:00:00	63.2	ND	ND	ND	ND	48.9	ND	ND	ND	ND	649.6	0
82047	2019-06-08T14:00:00	65.1	ND	ND	ND	ND	64.6	ND	ND	ND	ND	649.2	0
82048	2019-06-08T15:00:00	74.4	ND	ND	ND	ND	73.7	ND	ND	ND	ND	650.1	0
82049	2019-06-08T16:00:00	81.4	ND	ND	ND	ND	90.1	ND	ND	ND	ND	648.4	0
82050	2019-06-08T17:00:00	87.4	ND	ND	ND	ND	66.3	ND	ND	ND	ND	585.5	0
82051	2019-06-08T18:00:00	77	ND	ND	ND	ND	33.4	ND	ND	ND	ND	477.5	0
82052	2019-06-08T19:00:00	50.8	ND	ND	ND	ND	6.8	ND	ND	ND	ND	0	0
82053	2019-06-08T20:00:00	40.1	ND	ND	ND	ND	1.7	ND	ND	ND	ND	0	0
82054	2019-06-08T21:00:00	32.6	ND	ND	ND	ND	2.7	ND	ND	ND	ND	0	0
82055	2019-06-08T22:00:00	36.4	ND	ND	ND	ND	1.2	ND	ND	ND	ND	0	0
82056	2019-06-08T23:00:00	38.2	ND	ND	ND	ND	0.7	ND	ND	ND	ND	0	0
82057	2019-06-09T00:00:00	48.1	ND	ND	ND	ND	1.6	ND	ND	ND	ND	0	0
82058	2019-06-09T01:00:00	41.6	ND	ND	ND	ND	1.2	ND	ND	ND	ND	0	0
82059	2019-06-09T02:00:00	44.7	ND	ND	ND	ND	0.9	ND	ND	ND	ND	0	0
82060	2019-06-09T03:00:00	51.6	ND	ND	ND	ND	1.2	ND	ND	ND	ND	0	0
82061	2019-06-09T04:00:00	43.5	ND	ND	ND	ND	1.5	ND	ND	ND	ND	0	0
82062	2019-06-09T05:00:00	43.4	ND	ND	ND	ND	0.6	ND	ND	ND	ND	0	0
82063	2019-06-09T06:00:00	59.2	ND	ND	ND	ND	0.7	ND	ND	ND	ND	0	0
82064	2019-06-09T07:00:00	76.8	ND	ND	ND	ND	1.1	ND	ND	ND	ND	0	0
82065	2019-06-09T08:00:00	81.8	ND	ND	ND	ND	5.1	ND	ND	ND	ND	78	0
82066	2019-06-09T09:00:00	65.2	ND	ND	ND	ND	10.9	ND	ND	ND	ND	389.6	0
82067	2019-06-09T10:00:00	59.7	ND	ND	ND	ND	27.1	ND	ND	ND	ND	579.2	0
82068	2019-06-09T11:00:00	58.2	ND	ND	ND	ND	45.3	ND	ND	ND	ND	645.6	0
82069	2019-06-09T12:00:00	55.7	ND	ND	ND	ND	52.6	ND	ND	ND	ND	647.7	0
82070	2019-06-09T13:00:00	65.8	ND	ND	ND	ND	57.4	ND	ND	ND	ND	650.1	0
82071	2019-06-09T14:00:00	63.7	ND	ND	ND	ND	53.8	ND	ND	ND	ND	650.3	0
82072	2019-06-09T15:00:00	56.6	ND	ND	ND	ND	71.7	ND	ND	ND	ND	650.9	0
82073	2019-06-09T16:00:00	59.6	ND	ND	ND	ND	56	ND	ND	ND	ND	645.4	0
82074	2019-06-09T17:00:00	57.3	ND	ND	ND	ND	19.3	ND	ND	ND	ND	272.8	0
82075	2019-06-09T18:00:00	24.9	ND	ND	ND	ND	16.5	ND	ND	ND	ND	157.8	0
82076	2019-06-09T19:00:00	15.9	ND	ND	ND	ND	11.8	ND	ND	ND	ND	0	0
82077	2019-06-09T20:00:00	10.5	ND	ND	ND	ND	7.1	ND	ND	ND	ND	0	0
82078	2019-06-09T21:00:00	28.5	ND	ND	ND	ND	2.7	ND	ND	ND	ND	0	0
82079	2019-06-09T22:00:00	70.6	ND	ND	ND	ND	0.9	ND	ND	ND	ND	0	0
82080	2019-06-09T23:00:00	44.6	ND	ND	ND	ND	2.1	ND	ND	ND	ND	0	0
82081	2019-06-10T00:00:00	40.6	ND	ND	ND	ND	2.6	ND	ND	ND	ND	0	0
82082	2019-06-10T01:00:00	48.6	ND	ND	ND	ND	1.8	ND	ND	ND	ND	0	0
82083	2019-06-10T02:00:00	53.8	ND	ND	ND	ND	1.7	ND	ND	ND	ND	0	0
82084	2019-06-10T03:00:00	50.6	ND	ND	ND	ND	2.1	ND	ND	ND	ND	0	0
82085	2019-06-10T04:00:00	32.8	ND	ND	ND	ND	2	ND	ND	ND	ND	0	0
82086	2019-06-10T05:00:00	44	ND	ND	ND	ND	2.6	ND	ND	ND	ND	0	0
82087	2019-06-10T06:00:00	59.1	ND	ND	ND	ND	0.8	ND	ND	ND	ND	0	0
82088	2019-06-10T07:00:00	64.6	ND	ND	ND	ND	1.1	ND	ND	ND	ND	0	0
82089	2019-06-10T08:00:00	80.1	ND	ND	ND	ND	1.5	ND	ND	ND	ND	89.3	0
82090	2019-06-10T09:00:00	91.9	ND	ND	ND	ND	3.3	ND	ND	ND	ND	348.8	0
82091	2019-06-10T10:00:00	79.5	ND	ND	ND	ND	12.4	ND	ND	ND	ND	594.6	0
82092	2019-06-10T11:00:00	68.3	ND	ND	ND	ND	30.9	ND	ND	ND	ND	648.2	0
82093	2019-06-10T12:00:00	78.4	ND	ND	ND	ND	33	ND	ND	ND	ND	649.4	0
82094	2019-06-10T13:00:00	80.7	ND	ND	ND	ND	35.9	ND	ND	ND	ND	650.4	0
82095	2019-06-10T14:00:00	68.4	ND	ND	ND	ND	64.1	ND	ND	ND	ND	640.1	0
82096	2019-06-10T15:00:00	81.4	ND	ND	ND	ND	68.4	ND	ND	ND	ND	647.1	0
82097	2019-06-10T16:00:00	83.4	ND	ND	ND	ND	23.3	ND	ND	ND	ND	542.9	0
82098	2019-06-10T17:00:00	46.3	ND	ND	ND	ND	6	ND	ND	ND	ND	147.5	0
82099	2019-06-10T18:00:00	27.8	ND	ND	ND	ND	6.9	ND	ND	ND	ND	161.1	0
82100	2019-06-10T19:00:00	27.3	ND	ND	ND	ND	2.6	ND	ND	ND	ND	0	0
82101	2019-06-10T20:00:00	39.8	ND	ND	ND	ND	3.5	ND	ND	ND	ND	0	0
82102	2019-06-10T21:00:00	39.7	ND	ND	ND	ND	0.9	ND	ND	ND	ND	0	0
82103	2019-06-10T22:00:00	30.3	ND	ND	ND	ND	0.8	ND	ND	ND	ND	0	0.51
82104	2019-06-10T23:00:00	24.2	ND	ND	ND	ND	0.7	ND	ND	ND	ND	0	0
82105	2019-06-11T00:00:00	27.2	ND	ND	ND	ND	0.6	ND	ND	ND	ND	0	0.76
82106	2019-06-11T01:00:00	ND	ND	ND	ND	ND	ND	ND	ND	ND	ND	0	ND
82107	2019-06-11T02:00:00	18	ND	ND	ND	ND	2.7	ND	ND	ND	ND	0	1.52
82108	2019-06-11T03:00:00	11.9	ND	ND	ND	ND	2.6	ND	ND	ND	ND	0	1.27
82109	2019-06-11T04:00:00	10.5	ND	ND	ND	ND	1.7	ND	ND	ND	ND	0	0.25
82110	2019-06-11T05:00:00	14.2	ND	ND	ND	ND	1.5	0.6	123.9	ND	ND	0	0.76
82111	2019-06-11T06:00:00	34.6	ND	ND	ND	ND	0.7	0.6	195.4	ND	ND	0	0
82112	2019-06-11T07:00:00	32.9	ND	ND	ND	ND	0.8	1.1	186.5	ND	ND	0	0
82113	2019-06-11T08:00:00	41	ND	ND	ND	ND	1	0.8	217.1	ND	ND	30.6	0.25
82114	2019-06-11T09:00:00	44.1	ND	ND	ND	ND	1.4	ND	ND	ND	ND	212.2	0
82115	2019-06-11T10:00:00	51.4	ND	ND	ND	ND	7.6	0.9	211.8	ND	ND	371.4	0
82116	2019-06-11T11:00:00	55.8	ND	ND	ND	ND	13.6	1.1	174.6	ND	ND	641.4	0
82117	2019-06-11T12:00:00	69.2	ND	ND	ND	ND	23.6	0.7	187.4	ND	ND	649.4	0
82118	2019-06-11T13:00:00	64.4	ND	ND	ND	ND	40.5	0.8	171.6	ND	ND	630.7	0
82119	2019-06-11T14:00:00	65.8	ND	ND	ND	ND	53.5	0.7	163.4	ND	ND	650.3	0
82120	2019-06-11T15:00:00	78.7	ND	ND	ND	ND	45.8	0.9	134.3	ND	ND	547.1	0
82121	2019-06-11T16:00:00	55	ND	ND	ND	ND	52.4	0.4	28	ND	ND	558.8	0
82122	2019-06-11T17:00:00	56	ND	ND	ND	ND	18.6	0.6	317.2	ND	ND	355.5	0
82123	2019-06-11T18:00:00	33.3	ND	ND	ND	ND	6.8	2.2	311.7	ND	ND	260.8	0
82124	2019-06-11T19:00:00	32.3	ND	ND	ND	ND	1.9	2.7	313.1	ND	ND	0	0
82125	2019-06-11T20:00:00	19.8	ND	ND	ND	ND	1.3	2.3	308.1	ND	ND	0	0
82126	2019-06-11T21:00:00	23.7	ND	ND	ND	ND	1.6	2	320.1	ND	ND	0	0
82127	2019-06-11T22:00:00	31.8	ND	ND	ND	ND	1.2	1	72.8	ND	ND	0	1.27
82128	2019-06-11T23:00:00	43.4	ND	ND	ND	ND	0.6	1.6	72.6	ND	ND	0	2.03
82129	2019-06-12T00:00:00	32.7	ND	ND	ND	ND	0.7	0.7	357.3	ND	ND	0	0.25
82130	2019-06-12T01:00:00	32	ND	ND	ND	ND	1.4	1	270.7	ND	ND	0	0
82131	2019-06-12T02:00:00	27.5	ND	ND	ND	ND	1.1	0.3	137.7	ND	ND	0	0
82132	2019-06-12T03:00:00	33.2	ND	ND	ND	ND	0.5	0.3	196	ND	ND	0	0
82133	2019-06-12T04:00:00	24.4	ND	ND	ND	ND	0.7	0.3	222.5	ND	ND	0	0
82134	2019-06-12T05:00:00	34.5	ND	ND	ND	ND	0.7	0.4	162.5	ND	ND	0	0
82135	2019-06-12T06:00:00	37.5	ND	ND	ND	ND	0.7	0.3	176.7	ND	ND	0	0
82136	2019-06-12T07:00:00	72.5	ND	ND	ND	ND	0.7	0.6	124.3	ND	ND	0.9	0
82137	2019-06-12T08:00:00	78.8	ND	ND	ND	ND	1.2	0.8	111.2	ND	ND	77.4	0
82138	2019-06-12T09:00:00	86.5	ND	ND	ND	ND	2.7	0.6	172.3	ND	ND	205.8	0
82139	2019-06-12T10:00:00	91.1	ND	ND	ND	ND	9.8	1.2	125.9	ND	ND	528.9	0
82140	2019-06-12T11:00:00	89.1	ND	ND	ND	ND	16.9	1.8	99.2	ND	ND	648.9	0
82141	2019-06-12T12:00:00	66.2	ND	ND	ND	ND	24.9	1.7	132.5	ND	ND	649.6	0
82142	2019-06-12T13:00:00	54.9	ND	ND	ND	ND	24.7	1.6	134.4	ND	ND	649.9	0
82143	2019-06-12T14:00:00	55.1	ND	ND	ND	ND	21.1	1.5	135.7	ND	ND	650.3	0
82144	2019-06-12T15:00:00	55.1	ND	ND	ND	ND	31.4	1.4	101.6	ND	ND	630.2	0
82145	2019-06-12T16:00:00	44.4	ND	ND	ND	ND	35.3	1.2	100.1	ND	ND	566.8	0
82146	2019-06-12T17:00:00	59.5	ND	ND	ND	ND	19.6	1.4	125.1	ND	ND	588	0
82147	2019-06-12T18:00:00	57.8	ND	ND	ND	ND	10.6	1.3	333.7	ND	ND	369.1	0
82148	2019-06-12T19:00:00	43.1	ND	ND	ND	ND	2.6	2.5	315.1	ND	ND	0	0
82149	2019-06-12T20:00:00	22.7	ND	ND	ND	ND	3.3	2.7	308.6	ND	ND	0	0
82150	2019-06-12T21:00:00	13.4	ND	ND	ND	ND	1.7	2.6	314.2	ND	ND	0	0
82151	2019-06-12T22:00:00	13.3	ND	ND	ND	ND	2.4	2.3	321.8	ND	ND	0	0
82152	2019-06-12T23:00:00	8.1	ND	ND	ND	ND	2.6	1.1	264.3	ND	ND	0	0
82153	2019-06-13T00:00:00	8.1	ND	ND	ND	ND	3.3	1.5	329.7	ND	ND	0	0
82154	2019-06-13T01:00:00	12.5	ND	ND	ND	ND	2.7	1.1	6.3	ND	ND	0	0
82155	2019-06-13T02:00:00	50.7	ND	ND	ND	ND	0.8	0.3	48.3	ND	ND	0	0
82156	2019-06-13T03:00:00	47.6	ND	ND	ND	ND	2.5	0.1	275	ND	ND	0	0
82157	2019-06-13T04:00:00	37.6	ND	ND	ND	ND	0.7	0.3	26.5	ND	ND	0	0
82158	2019-06-13T05:00:00	41.1	ND	ND	ND	ND	1.3	0.5	289.3	ND	ND	0	0
82159	2019-06-13T06:00:00	35.7	ND	ND	ND	ND	1	0.2	179.5	ND	ND	0	0
82160	2019-06-13T07:00:00	69.4	ND	ND	ND	ND	1.1	0.3	160.4	ND	ND	0.8	0
82161	2019-06-13T08:00:00	96	ND	ND	ND	ND	1.2	0.2	251.3	ND	ND	107.2	0
82162	2019-06-13T09:00:00	68.5	ND	ND	ND	ND	2.8	0.7	127.2	ND	ND	260.3	0
82163	2019-06-13T10:00:00	109.9	ND	ND	ND	ND	13.8	1	107.3	ND	ND	404.9	0
82164	2019-06-13T11:00:00	92.3	ND	ND	ND	ND	28.9	1	170.5	ND	ND	644.9	0
82165	2019-06-13T12:00:00	74.3	ND	ND	ND	ND	43.8	0.8	75.1	ND	ND	640	0
82166	2019-06-13T13:00:00	72.5	ND	ND	ND	ND	50.9	1	110	ND	ND	600.5	0
82167	2019-06-13T14:00:00	71.3	ND	ND	ND	ND	46.6	0.9	152.2	ND	ND	622.3	0
82168	2019-06-13T15:00:00	66.2	ND	ND	ND	ND	12.6	2.8	323.4	ND	ND	239.6	2.29
82169	2019-06-13T16:00:00	26.3	ND	ND	ND	ND	13.2	1.4	310.9	ND	ND	206.6	0
82170	2019-06-13T17:00:00	34.8	ND	ND	ND	ND	9.2	2	323.5	ND	ND	597.4	0
82171	2019-06-13T18:00:00	46	ND	ND	ND	ND	5	3	317.6	ND	ND	341.4	0
82172	2019-06-13T19:00:00	32.5	ND	ND	ND	ND	2.4	2.4	329	ND	ND	0	0
82173	2019-06-13T20:00:00	30.2	ND	ND	ND	ND	2.7	1	334.1	ND	ND	0	0
82174	2019-06-13T21:00:00	28.5	ND	ND	ND	ND	1.2	1.2	124.8	ND	ND	0	0
82175	2019-06-13T22:00:00	35.9	ND	ND	ND	ND	0.6	0.7	124	ND	ND	0	0
82176	2019-06-13T23:00:00	46.8	ND	ND	ND	ND	0.6	0.4	140.6	ND	ND	0	0
82177	2019-06-14T00:00:00	34.9	ND	ND	ND	ND	0.9	1.6	232.7	ND	ND	0	0
82178	2019-06-14T01:00:00	23.1	ND	ND	ND	ND	1.5	1.3	226.6	ND	ND	0	0
82179	2019-06-14T02:00:00	27.6	ND	ND	ND	ND	0.9	0.7	194.4	ND	ND	0	0
82180	2019-06-14T03:00:00	25.3	ND	ND	ND	ND	2.3	1	235.5	ND	ND	0	0
82181	2019-06-14T04:00:00	28.2	ND	ND	ND	ND	1.8	0.6	295	ND	ND	0	0
82182	2019-06-14T05:00:00	38	ND	ND	ND	ND	1.2	0.4	289.4	ND	ND	0	0
82183	2019-06-14T06:00:00	50.8	ND	ND	ND	ND	0.6	0.2	334.1	ND	ND	0	0
82184	2019-06-14T07:00:00	54.7	ND	ND	ND	ND	0.8	0.7	58.2	ND	ND	0	0
82185	2019-06-14T08:00:00	85.3	ND	ND	ND	ND	1.1	0.8	129.5	ND	ND	126.1	0
82186	2019-06-14T09:00:00	74.4	ND	ND	ND	ND	3	0.4	200.4	ND	ND	202.4	0
82187	2019-06-14T10:00:00	112.2	ND	ND	ND	ND	7.2	0.9	205	ND	ND	448.3	0
82188	2019-06-14T11:00:00	105	ND	ND	ND	ND	21.5	0.3	84.3	ND	ND	457.4	0
82189	2019-06-14T12:00:00	78.1	ND	ND	ND	ND	38.2	0.7	99.3	ND	ND	628.9	0
82190	2019-06-14T13:00:00	67.4	ND	ND	ND	ND	42	1.4	93	ND	ND	636.9	0
82191	2019-06-14T14:00:00	55.7	ND	ND	ND	ND	40.1	1.7	112.1	ND	ND	605.2	0
82192	2019-06-14T15:00:00	53.9	ND	ND	ND	ND	23.6	1.4	50.1	ND	ND	645.5	0
82193	2019-06-14T16:00:00	40.5	ND	ND	ND	ND	12.1	2.6	330.5	ND	ND	550.3	0
82194	2019-06-14T17:00:00	32.5	ND	ND	ND	ND	8.8	3.6	327.6	ND	ND	578.8	0
82195	2019-06-14T18:00:00	33.6	ND	ND	ND	ND	5.9	3.7	326.5	ND	ND	419.4	0
82196	2019-06-14T19:00:00	39.3	ND	ND	ND	ND	3.3	2.9	324.5	ND	ND	0	0
82197	2019-06-14T20:00:00	27.2	ND	ND	ND	ND	2.8	0.9	337.1	ND	ND	0	0
82198	2019-06-14T21:00:00	48.4	ND	ND	ND	ND	9.9	1.9	212.8	ND	ND	0	0
82199	2019-06-14T22:00:00	33.3	ND	ND	ND	ND	12.6	1.3	254.1	ND	ND	0	0
82200	2019-06-14T23:00:00	25.5	ND	ND	ND	ND	4.8	0.2	266.7	ND	ND	0	0
82201	2019-06-15T00:00:00	40.4	ND	ND	ND	ND	1.3	0.1	123.8	ND	ND	0	0
82202	2019-06-15T01:00:00	38.8	ND	ND	ND	ND	0.9	0.7	129.8	ND	ND	0	0
82203	2019-06-15T02:00:00	46.2	ND	ND	ND	ND	3.5	0.8	170.7	ND	ND	0	0
82204	2019-06-15T03:00:00	35.3	ND	ND	ND	ND	4.8	0.8	216	ND	ND	0	0
82205	2019-06-15T04:00:00	36.4	ND	ND	ND	ND	1.8	0.3	114.5	ND	ND	0	0
82206	2019-06-15T05:00:00	36.7	ND	ND	ND	ND	0.7	0.3	337.6	ND	ND	0	0
82207	2019-06-15T06:00:00	31.4	ND	ND	ND	ND	0.8	0.3	227.7	ND	ND	0	0
82208	2019-06-15T07:00:00	53.7	ND	ND	ND	ND	0.9	0.4	237.2	ND	ND	0	0
82209	2019-06-15T08:00:00	67.8	ND	ND	ND	ND	2.3	0.8	112.7	ND	ND	107.2	0
82210	2019-06-15T09:00:00	106.2	ND	ND	ND	ND	6.1	1.1	133.4	ND	ND	500.8	0
82211	2019-06-15T10:00:00	111.4	ND	ND	ND	ND	22.4	0.3	161.2	ND	ND	576.2	0
82212	2019-06-15T11:00:00	82.3	ND	ND	ND	ND	43.9	0.8	175.6	ND	ND	568.5	0
82213	2019-06-15T12:00:00	78.1	ND	ND	ND	ND	69.7	0.6	90.6	ND	ND	610.2	0
82214	2019-06-15T13:00:00	84.7	ND	ND	ND	ND	77.1	1.3	110.2	ND	ND	638.3	0
82215	2019-06-15T14:00:00	89.2	ND	ND	ND	ND	49.4	1.6	105.7	ND	ND	644.2	0
82216	2019-06-15T15:00:00	86.6	ND	ND	ND	ND	36.6	1.3	121.2	ND	ND	516.4	0
82217	2019-06-15T16:00:00	71	ND	ND	ND	ND	47.4	1.4	293.1	ND	ND	465.5	0
82218	2019-06-15T17:00:00	55.3	ND	ND	ND	ND	11.9	2.7	319.9	ND	ND	393.8	0
82219	2019-06-15T18:00:00	34.5	ND	ND	ND	ND	9.1	3.1	321.5	ND	ND	162.5	0
82220	2019-06-15T19:00:00	27.1	ND	ND	ND	ND	8.7	2.8	326.3	ND	ND	0	0
82221	2019-06-15T20:00:00	14.9	ND	ND	ND	ND	5.9	1.7	357.9	ND	ND	0	0
82222	2019-06-15T21:00:00	24.5	ND	ND	ND	ND	0.9	0.4	142	ND	ND	0	0
82223	2019-06-15T22:00:00	45.9	ND	ND	ND	ND	1.3	1.6	274.9	ND	ND	0	0
82224	2019-06-15T23:00:00	33.1	ND	ND	ND	ND	16.9	2.4	252.6	ND	ND	0	0
82225	2019-06-16T00:00:00	30.2	ND	ND	ND	ND	14.3	0.4	137.3	ND	ND	0	0
82226	2019-06-16T01:00:00	24.1	ND	ND	ND	ND	11.3	0.2	246.2	ND	ND	0	2.79
82227	2019-06-16T02:00:00	22.8	ND	ND	ND	ND	4.1	0.9	292.1	ND	ND	0	1.02
82228	2019-06-16T03:00:00	11.6	ND	ND	ND	ND	2.1	0.9	333.8	ND	ND	0	0
82229	2019-06-16T04:00:00	12.9	ND	ND	ND	ND	2.7	0.5	328.5	ND	ND	0	0
82230	2019-06-16T05:00:00	27.2	ND	ND	ND	ND	1.4	0.3	296.8	ND	ND	0	0
82231	2019-06-16T06:00:00	40.7	ND	ND	ND	ND	0.7	0.4	218.8	ND	ND	0	0
82232	2019-06-16T07:00:00	37.5	ND	ND	ND	ND	1.7	0.8	292.9	ND	ND	0	0
82233	2019-06-16T08:00:00	26.5	ND	ND	ND	ND	5.8	0.2	193.8	ND	ND	203.5	0
82234	2019-06-16T09:00:00	38.3	ND	ND	ND	ND	15.2	0.6	126.7	ND	ND	532.5	0
82235	2019-06-16T10:00:00	43.4	ND	ND	ND	ND	29.4	0.2	184.5	ND	ND	486.1	0
82236	2019-06-16T11:00:00	37.7	ND	ND	ND	ND	47.1	0.5	235.7	ND	ND	647.1	0
82237	2019-06-16T12:00:00	45.1	ND	ND	ND	ND	45.8	1.1	168.3	ND	ND	632.2	0
82238	2019-06-16T13:00:00	52.2	ND	ND	ND	ND	40.7	1.4	177.9	ND	ND	649.6	0
82239	2019-06-16T14:00:00	57.1	ND	ND	ND	ND	45.1	1.2	107.1	ND	ND	650.5	0
82240	2019-06-16T15:00:00	61.3	ND	ND	ND	ND	60.7	1.1	98.8	ND	ND	650.5	0
82241	2019-06-16T16:00:00	56.2	ND	ND	ND	ND	71	1.1	97.6	ND	ND	650.9	0
82242	2019-06-16T17:00:00	52.4	ND	ND	ND	ND	63.2	1.7	81	ND	ND	603.1	0
82243	2019-06-16T18:00:00	65.2	ND	ND	ND	ND	45.9	1.3	78.5	ND	ND	373.9	0
82244	2019-06-16T19:00:00	52.4	ND	ND	ND	ND	22.7	1	61	ND	ND	0	0
82245	2019-06-16T20:00:00	45.6	ND	ND	ND	ND	6.5	0.8	332.8	ND	ND	0	0
82246	2019-06-16T21:00:00	32.4	ND	ND	ND	ND	4.5	1.7	314.9	ND	ND	0	0
82247	2019-06-16T22:00:00	38.5	ND	ND	ND	ND	5.4	1.2	308.6	ND	ND	0	0
82248	2019-06-16T23:00:00	46.7	ND	ND	ND	ND	1	0.7	44.5	ND	ND	0	0
82249	2019-06-17T00:00:00	52.2	ND	ND	ND	ND	7.1	1.1	300.3	ND	ND	0	0
82250	2019-06-17T01:00:00	43.7	ND	ND	ND	ND	16.4	1.2	295.6	ND	ND	0	0
82251	2019-06-17T02:00:00	50.8	ND	ND	ND	ND	16	0.8	285.1	ND	ND	0	0
82252	2019-06-17T03:00:00	38.5	ND	ND	ND	ND	4.4	0.9	37.1	ND	ND	0	0
82253	2019-06-17T04:00:00	56.4	ND	ND	ND	ND	0.9	0.8	58	ND	ND	0	0
82254	2019-06-17T05:00:00	80.2	ND	ND	ND	ND	1	0.9	92.6	ND	ND	0	0
82255	2019-06-17T06:00:00	79.6	ND	ND	ND	ND	0.9	0.8	90.2	ND	ND	0	0
82256	2019-06-17T07:00:00	105.7	ND	ND	ND	ND	1.3	0.7	109.7	ND	ND	0	0
82257	2019-06-17T08:00:00	119.9	ND	ND	ND	ND	2.4	0.8	129.9	ND	ND	150.2	0
82258	2019-06-17T09:00:00	111.2	ND	ND	ND	ND	9.9	0.8	114.4	ND	ND	576.4	0
82259	2019-06-17T10:00:00	116.5	ND	ND	ND	ND	152.9	1	125.1	ND	ND	649.1	0
82260	2019-06-17T11:00:00	109.2	ND	ND	ND	ND	30.8	0.5	138.3	ND	ND	649.7	0
82261	2019-06-17T12:00:00	95.4	ND	ND	ND	ND	58.2	0.5	143.1	ND	ND	629.9	0
82262	2019-06-17T13:00:00	85.5	ND	ND	ND	ND	62.5	1.7	105.8	ND	ND	652	0
82263	2019-06-17T14:00:00	70.3	ND	ND	ND	ND	58.1	1.8	119.8	ND	ND	652.6	0
82264	2019-06-17T15:00:00	72.8	ND	ND	ND	ND	80.7	1.3	94.7	ND	ND	650.7	0
82265	2019-06-17T16:00:00	68.5	ND	ND	ND	ND	85.5	0.8	353.7	ND	ND	650.2	0
82266	2019-06-17T17:00:00	77.9	ND	ND	ND	ND	59.6	0.8	146.3	ND	ND	594.1	0
82267	2019-06-17T18:00:00	64.1	ND	ND	ND	ND	16.2	2.5	317.6	ND	ND	388.2	0
82268	2019-06-17T19:00:00	56	ND	ND	ND	ND	5.1	3	309.4	ND	ND	0	0
82269	2019-06-17T20:00:00	40.6	ND	ND	ND	ND	4.3	2.4	309.1	ND	ND	0	0
82270	2019-06-17T21:00:00	25.3	ND	ND	ND	ND	7.3	2.9	312.6	ND	ND	0	0
82271	2019-06-17T22:00:00	23.5	ND	ND	ND	ND	4.3	1.2	1.3	ND	ND	0	0
82272	2019-06-17T23:00:00	45.5	ND	ND	ND	ND	2.2	0.2	267.7	ND	ND	0	0
82273	2019-06-18T00:00:00	48.2	ND	ND	ND	ND	3.2	1.2	290.7	ND	ND	0	0
82274	2019-06-18T01:00:00	47.9	ND	ND	ND	ND	1.6	0.9	239.2	ND	ND	0	0
82275	2019-06-18T02:00:00	51.6	ND	ND	ND	ND	8.9	0.7	217.8	ND	ND	0	0
82276	2019-06-18T03:00:00	94.1	ND	ND	ND	ND	9.5	0.7	188.1	ND	ND	0	0
82277	2019-06-18T04:00:00	100.7	ND	ND	ND	ND	10	0.6	233.7	ND	ND	0	0
82278	2019-06-18T05:00:00	72.8	ND	ND	ND	ND	7.1	0.3	300.8	ND	ND	0	0
82279	2019-06-18T06:00:00	74.3	ND	ND	ND	ND	1.3	0.4	111	ND	ND	0	0
82280	2019-06-18T07:00:00	92	ND	ND	ND	ND	1.2	0.1	52	ND	ND	0	0
82281	2019-06-18T08:00:00	101.9	ND	ND	ND	ND	2.4	0.5	187.4	ND	ND	110.4	0
82282	2019-06-18T09:00:00	164	ND	ND	ND	ND	10.2	1.3	172.1	ND	ND	442.7	0
82283	2019-06-18T10:00:00	134.1	ND	ND	ND	ND	27.7	1.3	108.7	ND	ND	620.3	0
82284	2019-06-18T11:00:00	100.9	ND	ND	ND	ND	41.2	1.4	131.4	ND	ND	649.5	0
82285	2019-06-18T12:00:00	108	ND	ND	ND	ND	57.9	1.2	145	ND	ND	650.2	0
82286	2019-06-18T13:00:00	105.2	ND	ND	ND	ND	69.9	1.6	129.8	ND	ND	650.9	0
82287	2019-06-18T14:00:00	78.8	ND	ND	ND	ND	80.1	1.8	92.6	ND	ND	649.7	0
82288	2019-06-18T15:00:00	70.8	ND	ND	ND	ND	50	2.7	88.6	ND	ND	639.6	0
82289	2019-06-18T16:00:00	76.5	ND	ND	ND	ND	50.9	1.8	89.6	ND	ND	617.8	0
82290	2019-06-18T17:00:00	56.7	ND	ND	ND	ND	47	0.7	80.5	ND	ND	551	0
82291	2019-06-18T18:00:00	63.6	ND	ND	ND	ND	26.7	1.5	332.3	ND	ND	502.9	0
82292	2019-06-18T19:00:00	54.2	ND	ND	ND	ND	12.7	2.9	316.6	ND	ND	0	0
82293	2019-06-18T20:00:00	39.2	ND	ND	ND	ND	8.4	2.7	324.8	ND	ND	0	0
82294	2019-06-18T21:00:00	31.6	ND	ND	ND	ND	7.3	2.8	319.9	ND	ND	0	0
82295	2019-06-18T22:00:00	19.6	ND	ND	ND	ND	8.6	2.1	324.5	ND	ND	0	0
82296	2019-06-18T23:00:00	25.2	ND	ND	ND	ND	11.3	1.5	251.9	ND	ND	0	0
82297	2019-06-19T00:00:00	54.6	ND	ND	ND	ND	6.9	0.7	284.5	ND	ND	0	0
82298	2019-06-19T01:00:00	52.3	ND	ND	ND	ND	0.7	0.9	62.8	ND	ND	0	0
82299	2019-06-19T02:00:00	102.6	ND	ND	ND	ND	4.5	0.4	177.6	ND	ND	0	0
82300	2019-06-19T03:00:00	78.8	ND	ND	ND	ND	6.8	0.6	192.8	ND	ND	0	0
82301	2019-06-19T04:00:00	59.1	ND	ND	ND	ND	5.1	0.5	182.8	ND	ND	0	0
82302	2019-06-19T05:00:00	83	ND	ND	ND	ND	1.4	0.8	106.6	ND	ND	0	0
82303	2019-06-19T06:00:00	99.7	ND	ND	ND	ND	0.9	0.8	167.6	ND	ND	0	0
82304	2019-06-19T07:00:00	103.2	ND	ND	ND	ND	1.2	0.6	222.7	ND	ND	0	0
82305	2019-06-19T08:00:00	116.2	ND	ND	ND	ND	1	0.5	260.7	ND	ND	17	0
82306	2019-06-19T09:00:00	128	ND	ND	ND	ND	1.4	0.8	163.7	ND	ND	46.5	0
82307	2019-06-19T10:00:00	181.2	ND	ND	ND	ND	1.4	0.7	216.1	ND	ND	61.8	0
82308	2019-06-19T11:00:00	173.1	ND	ND	ND	ND	2.7	0.6	165.4	ND	ND	169.9	0
82309	2019-06-19T12:00:00	136.6	ND	ND	ND	ND	27.7	1	109.7	ND	ND	543.7	0
82310	2019-06-19T13:00:00	160.9	ND	ND	ND	ND	38.6	1.3	107.8	ND	ND	649.6	0
82311	2019-06-19T14:00:00	112	ND	ND	ND	ND	42.1	1.5	105.7	ND	ND	650.2	0
82312	2019-06-19T15:00:00	79.3	ND	ND	ND	ND	47.4	1.6	93.8	ND	ND	615.7	0
82313	2019-06-19T16:00:00	84.3	ND	ND	ND	ND	33.6	1.6	108.4	ND	ND	641.4	0
82314	2019-06-19T17:00:00	80.1	ND	ND	ND	ND	22	1.6	103.4	ND	ND	516.4	0
82315	2019-06-19T18:00:00	89.4	ND	ND	ND	ND	15.3	1.4	105.8	ND	ND	358.7	0
82316	2019-06-19T19:00:00	98.8	ND	ND	ND	ND	13.4	0.7	96.3	ND	ND	0	0
82317	2019-06-19T20:00:00	102.4	ND	ND	ND	ND	12.8	1.1	276.8	ND	ND	0	0
82318	2019-06-19T21:00:00	73.2	ND	ND	ND	ND	3.4	1.3	294.5	ND	ND	0	0
82319	2019-06-19T22:00:00	48.4	ND	ND	ND	ND	1.2	1	310.3	ND	ND	0	0
82320	2019-06-19T23:00:00	46.5	ND	ND	ND	ND	1.7	0.6	355.2	ND	ND	0	0
82321	2019-06-20T00:00:00	109.9	ND	ND	ND	ND	0.8	0.7	68	ND	ND	0	0
82322	2019-06-20T01:00:00	154.6	ND	ND	ND	ND	0.9	0.7	98.9	ND	ND	0	0
82323	2019-06-20T02:00:00	158.8	ND	ND	ND	ND	1.7	0.8	99	ND	ND	0	0
82324	2019-06-20T03:00:00	99.1	ND	ND	ND	ND	4.4	0.3	338.1	ND	ND	0	0
82325	2019-06-20T04:00:00	51.8	ND	ND	ND	ND	7	0.6	282.5	ND	ND	0	0
82326	2019-06-20T05:00:00	52	ND	ND	ND	ND	2.6	0.8	214.2	ND	ND	0	0
82327	2019-06-20T06:00:00	94.9	ND	ND	ND	ND	0.9	0.6	195.7	ND	ND	0	0
82328	2019-06-20T07:00:00	112.3	ND	ND	ND	ND	1.1	0.2	220.4	ND	ND	0	0
82329	2019-06-20T08:00:00	129.4	ND	ND	ND	ND	1.7	0.6	96.9	ND	ND	53.2	0
82330	2019-06-20T09:00:00	178.9	ND	ND	ND	ND	3.8	1.3	111.5	ND	ND	375.9	0
82331	2019-06-20T10:00:00	164.3	ND	ND	ND	ND	27.3	1.2	119.2	ND	ND	503.5	0
82332	2019-06-20T11:00:00	131.7	ND	ND	ND	ND	43.3	1.4	114.2	ND	ND	645.8	0
82333	2019-06-20T12:00:00	93.6	ND	ND	ND	ND	66	0.8	78.5	ND	ND	650.3	0
82334	2019-06-20T13:00:00	80.7	ND	ND	ND	ND	70.6	1.3	140.8	ND	ND	650.9	0
82335	2019-06-20T14:00:00	86	ND	ND	ND	ND	68.5	1.7	143	ND	ND	651.3	0
82336	2019-06-20T15:00:00	81.3	ND	ND	ND	ND	59.7	1.7	132.1	ND	ND	651.5	0
82337	2019-06-20T16:00:00	90.4	ND	ND	ND	ND	60.9	1.4	120.8	ND	ND	560.1	0
82338	2019-06-20T17:00:00	102.8	ND	ND	ND	ND	41.1	1.4	119.5	ND	ND	532.3	0
82339	2019-06-20T18:00:00	90.9	ND	ND	ND	ND	30.3	1.1	338.4	ND	ND	305	0
82340	2019-06-20T19:00:00	58	ND	ND	ND	ND	9.3	2	316.9	ND	ND	0	0
82341	2019-06-20T20:00:00	38.8	ND	ND	ND	ND	7.7	2.2	322.7	ND	ND	0	0
82342	2019-06-20T21:00:00	22.5	ND	ND	ND	ND	7.6	2	324.4	ND	ND	0	0
82343	2019-06-20T22:00:00	37.3	ND	ND	ND	ND	9.6	2.8	322.7	ND	ND	0	0
82344	2019-06-20T23:00:00	32.3	ND	ND	ND	ND	5.2	0.4	2.5	ND	ND	0	0
82345	2019-06-21T00:00:00	62.2	ND	ND	ND	ND	11.7	1.6	275.1	ND	ND	0	0
82346	2019-06-21T01:00:00	50.9	ND	ND	ND	ND	10.2	1.1	216.5	ND	ND	0	0
82347	2019-06-21T02:00:00	72	ND	ND	ND	ND	19.7	2.1	270.9	ND	ND	0	27.18
82348	2019-06-21T03:00:00	38.2	ND	ND	ND	ND	14.8	1.6	324.5	ND	ND	0	0.76
82349	2019-06-21T04:00:00	31	ND	ND	ND	ND	8.1	1.3	317	ND	ND	0	2.29
82350	2019-06-21T05:00:00	33.5	ND	ND	ND	ND	4.3	0.3	320	ND	ND	0	0
82351	2019-06-21T06:00:00	42.7	ND	ND	ND	ND	4.1	1.2	294	ND	ND	0	0
82352	2019-06-21T07:00:00	50.8	ND	ND	ND	ND	1.3	0.9	313	ND	ND	0	0
82353	2019-06-21T08:00:00	67.9	ND	ND	ND	ND	1.4	0.8	312.1	ND	ND	34.8	0
82354	2019-06-21T09:00:00	86.9	ND	ND	ND	ND	2.5	0.6	278.3	ND	ND	216.7	0
82355	2019-06-21T10:00:00	98.6	ND	ND	ND	ND	4.7	0.8	124.9	ND	ND	452.9	0
82356	2019-06-21T11:00:00	131.5	ND	ND	ND	ND	10.5	1.3	158.5	ND	ND	526.3	0
82357	2019-06-21T12:00:00	120.7	ND	ND	ND	ND	36.5	0.8	105.7	ND	ND	586.6	0
82358	2019-06-21T13:00:00	108.4	ND	ND	ND	ND	53.2	0.8	123.2	ND	ND	650.5	0
82359	2019-06-21T14:00:00	95.7	ND	ND	ND	ND	65.8	0.7	172.7	ND	ND	650.2	0
82360	2019-06-21T15:00:00	96.4	ND	ND	ND	ND	54.1	1.8	197.5	ND	ND	650.2	0
82361	2019-06-21T16:00:00	99.6	ND	ND	ND	ND	46.2	1.3	228.2	ND	ND	604.1	0
82362	2019-06-21T17:00:00	99.7	ND	ND	ND	ND	39	1.2	206.1	ND	ND	342.8	0
82363	2019-06-21T18:00:00	119.2	ND	ND	ND	ND	17.5	1.3	198.3	ND	ND	298.1	0
82364	2019-06-21T19:00:00	111.8	ND	ND	ND	ND	16.4	1	240.5	ND	ND	0	0
82365	2019-06-21T20:00:00	93.3	ND	ND	ND	ND	2.4	1.1	283.9	ND	ND	0	0
82366	2019-06-21T21:00:00	60.4	ND	ND	ND	ND	4.2	2.2	318	ND	ND	0	0
82367	2019-06-21T22:00:00	58.5	ND	ND	ND	ND	5.6	1.7	331.1	ND	ND	0	0
82368	2019-06-21T23:00:00	70.3	ND	ND	ND	ND	4.7	0.9	14.5	ND	ND	0	0
82369	2019-06-22T00:00:00	106.8	ND	ND	ND	ND	3.1	0.1	286.7	ND	ND	0	0
82370	2019-06-22T01:00:00	97.3	ND	ND	ND	ND	6.3	0.8	241	ND	ND	0	0
82371	2019-06-22T02:00:00	71	ND	ND	ND	ND	2.8	1.4	240.4	ND	ND	0	0
82372	2019-06-22T03:00:00	95.9	ND	ND	ND	ND	2.3	0.6	206.8	ND	ND	0	0
82373	2019-06-22T04:00:00	109.5	ND	ND	ND	ND	2	0.5	204.6	ND	ND	0	0
82374	2019-06-22T05:00:00	91.1	ND	ND	ND	ND	1.4	0.5	222.6	ND	ND	0	0
82375	2019-06-22T06:00:00	83.4	ND	ND	ND	ND	1.3	0.5	230.4	ND	ND	0	0
82376	2019-06-22T07:00:00	84.9	ND	ND	ND	ND	1.1	0.2	270.2	ND	ND	0	0
82377	2019-06-22T08:00:00	102.9	ND	ND	ND	ND	3.2	0.3	335.6	ND	ND	96.7	0
82378	2019-06-22T09:00:00	114.5	ND	ND	ND	ND	7.6	0.6	164.7	ND	ND	293.3	0
82379	2019-06-22T10:00:00	119.1	ND	ND	ND	ND	30.9	1	186.5	ND	ND	608.9	0
82380	2019-06-22T11:00:00	120.1	ND	ND	ND	ND	43.2	1.1	142.4	ND	ND	650	0
82381	2019-06-22T12:00:00	105.9	ND	ND	ND	ND	83	0.6	162.9	ND	ND	650.2	0
82382	2019-06-22T13:00:00	108.7	ND	ND	ND	ND	69.9	1.7	110.2	ND	ND	650	0
82383	2019-06-22T14:00:00	113.8	ND	ND	ND	ND	86.2	1.2	77.6	ND	ND	650.8	0
82384	2019-06-22T15:00:00	104.8	ND	ND	ND	ND	51.3	1.7	101.3	ND	ND	643.6	0
82385	2019-06-22T16:00:00	85.1	ND	ND	ND	ND	65.7	0.8	42.7	ND	ND	605.4	0
82386	2019-06-22T17:00:00	72.9	ND	ND	ND	ND	65.2	1	62.5	ND	ND	579.4	0
82387	2019-06-22T18:00:00	61.8	ND	ND	ND	ND	34.7	1.7	334.1	ND	ND	356.2	0
82388	2019-06-22T19:00:00	39.2	ND	ND	ND	ND	7.2	2.6	315.8	ND	ND	0	0
82389	2019-06-22T20:00:00	29.6	ND	ND	ND	ND	5.4	2.6	314.1	ND	ND	0	0
82390	2019-06-22T21:00:00	29.1	ND	ND	ND	ND	5	2	322.9	ND	ND	0	0
82391	2019-06-22T22:00:00	45.6	ND	ND	ND	ND	3.3	0.3	77.8	ND	ND	0	0
82392	2019-06-22T23:00:00	75.9	ND	ND	ND	ND	0.9	1	120.6	ND	ND	0	0
82393	2019-06-23T00:00:00	80.1	ND	ND	ND	ND	2.1	0.2	181.3	ND	ND	0	0
82394	2019-06-23T01:00:00	71.7	ND	ND	ND	ND	5.8	1.2	258.4	ND	ND	0	0
82395	2019-06-23T02:00:00	84.7	ND	ND	ND	ND	6.2	1.1	253.4	ND	ND	0	0
82396	2019-06-23T03:00:00	80.6	ND	ND	ND	ND	13.9	0.6	272.1	ND	ND	0	0
82397	2019-06-23T04:00:00	64.8	ND	ND	ND	ND	4.8	0.6	177.1	ND	ND	0	0
82398	2019-06-23T05:00:00	72.7	ND	ND	ND	ND	5.1	0.2	214.1	ND	ND	0	0
82399	2019-06-23T06:00:00	58	ND	ND	ND	ND	10.1	0.2	315	ND	ND	0	0
82400	2019-06-23T07:00:00	53.8	ND	ND	ND	ND	1.4	0.9	102.6	ND	ND	0	0
82401	2019-06-23T08:00:00	96.7	ND	ND	ND	ND	4.1	0.9	125.9	ND	ND	143.6	0
82402	2019-06-23T09:00:00	128	ND	ND	ND	ND	16.7	0.8	167.7	ND	ND	516.5	0
82403	2019-06-23T10:00:00	128.4	ND	ND	ND	ND	26.3	0.9	144.7	ND	ND	649.7	0
82404	2019-06-23T11:00:00	115	ND	ND	ND	ND	29.8	0.8	156.5	ND	ND	573.5	0
82405	2019-06-23T12:00:00	96.3	ND	ND	ND	ND	47.6	1	173.9	ND	ND	547.2	0
82406	2019-06-23T13:00:00	80	ND	ND	ND	ND	62.7	1.3	219.1	ND	ND	649.7	0
82407	2019-06-23T14:00:00	64	ND	ND	ND	ND	61.7	1.4	199.6	ND	ND	651	0
82408	2019-06-23T15:00:00	55.3	ND	ND	ND	ND	49.8	1.2	118.4	ND	ND	651	0
82409	2019-06-23T16:00:00	52.6	ND	ND	ND	ND	53.3	1.4	67.4	ND	ND	530	0
82410	2019-06-23T17:00:00	38.3	ND	ND	ND	ND	30	2.1	342.2	ND	ND	410.2	0
82411	2019-06-23T18:00:00	22.7	ND	ND	ND	ND	14.8	2.1	327.9	ND	ND	293.6	0
82412	2019-06-23T19:00:00	20.4	ND	ND	ND	ND	11.1	2.8	318.8	ND	ND	0	0
82413	2019-06-23T20:00:00	13.7	ND	ND	ND	ND	9.7	2.2	330.6	ND	ND	0	0
82414	2019-06-23T21:00:00	13.7	ND	ND	ND	ND	6.4	1.9	328	ND	ND	0	0
82415	2019-06-23T22:00:00	6.7	ND	ND	ND	ND	3	1.5	321.2	ND	ND	0	0
82416	2019-06-23T23:00:00	15.2	ND	ND	ND	ND	4.2	1	341.4	ND	ND	0	0
82417	2019-06-24T00:00:00	17.1	ND	ND	ND	ND	1.5	0.2	307.8	ND	ND	0	0
82418	2019-06-24T01:00:00	31.4	ND	ND	ND	ND	0.8	0.7	162	ND	ND	0	0
82419	2019-06-24T02:00:00	59.4	ND	ND	ND	ND	1.1	0.5	144.5	ND	ND	0	0
82420	2019-06-24T03:00:00	45.3	ND	ND	ND	ND	1.5	0.3	147.6	ND	ND	0	0
82421	2019-06-24T04:00:00	55.9	ND	ND	ND	ND	2.1	0.8	205.2	ND	ND	0	0
82422	2019-06-24T05:00:00	56.7	ND	ND	ND	ND	1.2	0.7	173.9	ND	ND	0	0
82423	2019-06-24T06:00:00	68.2	ND	ND	ND	ND	1.1	0.8	203.4	ND	ND	0	0
82424	2019-06-24T07:00:00	64.4	ND	ND	ND	ND	1.1	0.6	196.9	ND	ND	0	0
82425	2019-06-24T08:00:00	73.6	ND	ND	ND	ND	2.3	0.8	163.2	ND	ND	70.7	0
82426	2019-06-24T09:00:00	80	ND	ND	ND	ND	8.5	1.3	228.8	ND	ND	266.2	0
82427	2019-06-24T10:00:00	67.7	ND	ND	ND	ND	16.1	0.8	238.8	ND	ND	624.1	0
82428	2019-06-24T11:00:00	59.9	ND	ND	ND	ND	31.9	0.7	120.7	ND	ND	650	0
82429	2019-06-24T12:00:00	59.8	ND	ND	ND	ND	51.7	1.1	110.1	ND	ND	650.1	0
82430	2019-06-24T13:00:00	81.7	ND	ND	ND	ND	60.9	1.3	155.9	ND	ND	650.5	0
82431	2019-06-24T14:00:00	87.7	ND	ND	ND	ND	62.6	1.6	157.6	ND	ND	650.4	0
82432	2019-06-24T15:00:00	74	ND	ND	ND	ND	83.3	0.8	18.9	ND	ND	650.8	0
82433	2019-06-24T16:00:00	71.6	ND	ND	ND	ND	52.6	0.7	352.7	ND	ND	626.5	0
82434	2019-06-24T17:00:00	36.8	ND	ND	ND	ND	25.4	3	326.2	ND	ND	650.1	0
82435	2019-06-24T18:00:00	20	ND	ND	ND	ND	19	2.7	327.3	ND	ND	500.8	0
82436	2019-06-24T19:00:00	18.3	ND	ND	ND	ND	12.7	2.6	327.3	ND	ND	0	0
82437	2019-06-24T20:00:00	13.5	ND	ND	ND	ND	11.5	2.9	326.8	ND	ND	0	0
82438	2019-06-24T21:00:00	14.1	ND	ND	ND	ND	11.8	2.5	304.1	ND	ND	0	0
82439	2019-06-24T22:00:00	19.7	ND	ND	ND	ND	6.7	1.5	251.5	ND	ND	0	0
82440	2019-06-24T23:00:00	57.9	ND	ND	ND	ND	2.1	0.2	317.8	ND	ND	0	0
82441	2019-06-25T00:00:00	30.1	ND	ND	ND	ND	3.5	1.1	52	ND	ND	0	0
82442	2019-06-25T01:00:00	17.2	ND	ND	ND	ND	3.2	1.8	61.5	ND	ND	0	0
82443	2019-06-25T02:00:00	12.3	ND	ND	ND	ND	1.6	1.1	109.6	ND	ND	0	0
82444	2019-06-25T03:00:00	23.4	ND	ND	ND	ND	1.4	0.9	123.2	ND	ND	0	0
82445	2019-06-25T04:00:00	25	ND	ND	ND	ND	2	0.6	160.1	ND	ND	0	0
82446	2019-06-25T05:00:00	23.1	ND	ND	ND	ND	3.2	1.3	198.6	ND	ND	0	0.51
82447	2019-06-25T06:00:00	3.8	ND	ND	ND	ND	2.1	1.9	185.4	ND	ND	0	3.3
82448	2019-06-25T07:00:00	21.2	ND	ND	ND	ND	0.9	0.9	173.2	ND	ND	0	7.11
82449	2019-06-25T08:00:00	22	ND	ND	ND	ND	0.8	0.9	145.3	ND	ND	4.2	3.81
82450	2019-06-25T09:00:00	26	ND	ND	ND	ND	1.3	0.9	135.9	ND	ND	68.7	0
82451	2019-06-25T10:00:00	45.1	ND	ND	ND	ND	2.6	1.6	110.5	ND	ND	290.5	0
82452	2019-06-25T11:00:00	60.1	ND	ND	ND	ND	5.8	1.8	73.8	ND	ND	546.4	0.25
82453	2019-06-25T12:00:00	64.2	ND	ND	ND	ND	14.2	1.1	108.3	ND	ND	632.2	0
82454	2019-06-25T13:00:00	62.9	ND	ND	ND	ND	23.3	1	116.8	ND	ND	648.8	0
82455	2019-06-25T14:00:00	68	ND	ND	ND	ND	32.8	0.3	86.1	ND	ND	649.8	0
82456	2019-06-25T15:00:00	40.8	ND	ND	ND	ND	38.9	1.1	104.8	ND	ND	649.9	0
82457	2019-06-25T16:00:00	47.3	ND	ND	ND	ND	23.8	1.7	105.6	ND	ND	641.4	0
82458	2019-06-25T17:00:00	51.1	ND	ND	ND	ND	17.1	2.1	71.8	ND	ND	559.3	0
82459	2019-06-25T18:00:00	56.2	ND	ND	ND	ND	8.9	1.8	81.2	ND	ND	359.2	0
82460	2019-06-25T19:00:00	62.9	ND	ND	ND	ND	2.4	1.4	67.1	ND	ND	0	0
82461	2019-06-25T20:00:00	102.5	ND	ND	ND	ND	1.9	0.9	116.8	ND	ND	0	0
82462	2019-06-25T21:00:00	105.9	ND	ND	ND	ND	0.8	0.9	303.4	ND	ND	0	0
82463	2019-06-25T22:00:00	59.6	ND	ND	ND	ND	1.2	1.3	311.1	ND	ND	0	0
82464	2019-06-25T23:00:00	29.3	ND	ND	ND	ND	1.4	1.6	334.1	ND	ND	0	0
82465	2019-06-26T00:00:00	30.7	ND	ND	ND	ND	3.4	1.7	311	ND	ND	0	0
82466	2019-06-26T01:00:00	26	ND	ND	ND	ND	5.7	1.3	295	ND	ND	0	0
82467	2019-06-26T02:00:00	15.9	ND	ND	ND	ND	5	1	309.5	ND	ND	0	0
82468	2019-06-26T03:00:00	21.6	ND	ND	ND	ND	5.7	0.7	310	ND	ND	0	0
82469	2019-06-26T04:00:00	28.2	ND	ND	ND	ND	1.6	0.4	226.2	ND	ND	0	0
82470	2019-06-26T05:00:00	26.9	ND	ND	ND	ND	2.5	0.8	276.6	ND	ND	0	0
82471	2019-06-26T06:00:00	41.6	ND	ND	ND	ND	1.4	0.8	264.8	ND	ND	0	0
82472	2019-06-26T07:00:00	60.2	ND	ND	ND	ND	0.9	0.4	220.6	ND	ND	0	0
82473	2019-06-26T08:00:00	90.8	ND	ND	ND	ND	1.7	0.1	40	ND	ND	17.9	0
82474	2019-06-26T09:00:00	120.8	ND	ND	ND	ND	9.9	0.6	145.3	ND	ND	407.6	0
82475	2019-06-26T10:00:00	112.1	ND	ND	ND	ND	27.7	0.9	161	ND	ND	649.6	0
82476	2019-06-26T11:00:00	86.2	ND	ND	ND	ND	56.7	0.6	93.1	ND	ND	640.4	0
82477	2019-06-26T12:00:00	79.4	ND	ND	ND	ND	71.2	1.3	99.9	ND	ND	641.7	0
82478	2019-06-26T13:00:00	87.2	ND	ND	ND	ND	70	1.5	113.5	ND	ND	650	0
82479	2019-06-26T14:00:00	74.3	ND	ND	ND	ND	70.6	1.4	125.7	ND	ND	642.8	0
82480	2019-06-26T15:00:00	72.7	ND	ND	ND	ND	79.5	1.7	59.9	ND	ND	598.3	0
82481	2019-06-26T16:00:00	64.5	ND	ND	ND	ND	41.1	2	359.8	ND	ND	604.2	0
82482	2019-06-26T17:00:00	42.6	ND	ND	ND	ND	21.9	3.7	330.3	ND	ND	602.8	0
82483	2019-06-26T18:00:00	38.9	ND	ND	ND	ND	13.5	3.2	331	ND	ND	425.1	0
82484	2019-06-26T19:00:00	43.1	ND	ND	ND	ND	9.3	3.5	324.1	ND	ND	0	0
82485	2019-06-26T20:00:00	29.1	ND	ND	ND	ND	8.9	3.2	324.7	ND	ND	0	0
82486	2019-06-26T21:00:00	16	ND	ND	ND	ND	11.4	1.8	359.2	ND	ND	0	0
82487	2019-06-26T22:00:00	36.5	ND	ND	ND	ND	2	1.1	94.6	ND	ND	0	0
82488	2019-06-26T23:00:00	45.8	ND	ND	ND	ND	7.4	1	331.5	ND	ND	0	0
82489	2019-06-27T00:00:00	25.5	ND	ND	ND	ND	2.6	0.3	315.6	ND	ND	0	0
82490	2019-06-27T01:00:00	36.1	ND	ND	ND	ND	1.9	0.8	220.1	ND	ND	0	0
82491	2019-06-27T02:00:00	59.4	ND	ND	ND	ND	1.3	0.6	173.6	ND	ND	0	0
82492	2019-06-27T03:00:00	60.8	ND	ND	ND	ND	1.9	0.5	124.5	ND	ND	0	0
82493	2019-06-27T04:00:00	45.7	ND	ND	ND	ND	2.3	1	226.1	ND	ND	0	0
82494	2019-06-27T05:00:00	48.8	ND	ND	ND	ND	1.1	1.1	200.9	ND	ND	0	0
82495	2019-06-27T06:00:00	74.4	ND	ND	ND	ND	0.9	0.3	207	ND	ND	0	0
82496	2019-06-27T07:00:00	91.1	ND	ND	ND	ND	1	0.8	93.4	ND	ND	0	0
82497	2019-06-27T08:00:00	115.9	ND	ND	ND	ND	1.7	0.8	61.7	ND	ND	73	0
82498	2019-06-27T09:00:00	117.8	ND	ND	ND	ND	3.9	0.8	190.1	ND	ND	374.2	0
82499	2019-06-27T10:00:00	136.5	ND	ND	ND	ND	17.5	0.7	119	ND	ND	444.5	0
82500	2019-06-27T11:00:00	111.2	ND	ND	ND	ND	38.6	1.2	190.4	ND	ND	646.5	0
82501	2019-06-27T12:00:00	95.4	ND	ND	ND	ND	76.2	0.3	230.2	ND	ND	641.1	0
82502	2019-06-27T13:00:00	92.9	ND	ND	ND	ND	111.2	1.1	91.2	ND	ND	644.5	0
82503	2019-06-27T14:00:00	121.7	ND	ND	ND	ND	85	1.5	88.1	ND	ND	649.2	0
82504	2019-06-27T15:00:00	86.7	ND	ND	ND	ND	42.7	1.1	9.5	ND	ND	575.6	0
82505	2019-06-27T16:00:00	46.6	ND	ND	ND	ND	19.8	3.8	328.7	ND	ND	455.7	0
82506	2019-06-27T17:00:00	37	ND	ND	ND	ND	16.7	3.9	325.8	ND	ND	640.8	0
82507	2019-06-27T18:00:00	37.4	ND	ND	ND	ND	13.2	3.8	319.8	ND	ND	421	0
82508	2019-06-27T19:00:00	33.4	ND	ND	ND	ND	9	3.3	325.5	ND	ND	0	0
82509	2019-06-27T20:00:00	19.6	ND	ND	ND	ND	7.9	3.6	318.9	ND	ND	0	0
82510	2019-06-27T21:00:00	19.1	ND	ND	ND	ND	8.2	1.8	338.1	ND	ND	0	0
82511	2019-06-27T22:00:00	36.7	ND	ND	ND	ND	7	0.6	344.1	ND	ND	0	0
82512	2019-06-27T23:00:00	27.6	ND	ND	ND	ND	10.2	2	308.1	ND	ND	0	0
82513	2019-06-28T00:00:00	22	ND	ND	ND	ND	1.6	0.8	101.1	ND	ND	0	0
82514	2019-06-28T01:00:00	44.9	ND	ND	ND	ND	1.6	0.4	196.3	ND	ND	0	0
82515	2019-06-28T02:00:00	55.2	ND	ND	ND	ND	2.2	1.2	202.6	ND	ND	0	0
82516	2019-06-28T03:00:00	51.2	ND	ND	ND	ND	4.4	1.4	240.8	ND	ND	0	0
82517	2019-06-28T04:00:00	49.7	ND	ND	ND	ND	4.5	0.9	215.7	ND	ND	0	0
82518	2019-06-28T05:00:00	67.6	ND	ND	ND	ND	1.7	0.4	166.7	ND	ND	0	0
82519	2019-06-28T06:00:00	73.1	ND	ND	ND	ND	0.8	0.4	194.9	ND	ND	0	0
82520	2019-06-28T07:00:00	107.2	ND	ND	ND	ND	1.4	0.9	121.6	ND	ND	0	0
82521	2019-06-28T08:00:00	163.8	ND	ND	ND	ND	1.6	0.7	105.9	ND	ND	58.2	0
82522	2019-06-28T09:00:00	170.5	ND	ND	ND	ND	4	0.7	163.6	ND	ND	301	0
82523	2019-06-28T10:00:00	123.2	ND	ND	ND	ND	13.9	1.1	123.1	ND	ND	571.5	0
82524	2019-06-28T11:00:00	96.5	ND	ND	ND	ND	20.9	1.3	129.3	ND	ND	649.6	0
82525	2019-06-28T12:00:00	86.1	ND	ND	ND	ND	27.2	1.2	110.2	ND	ND	649.8	0
82526	2019-06-28T13:00:00	84.2	ND	ND	ND	ND	24.5	1.5	117.7	ND	ND	649.8	0
82527	2019-06-28T14:00:00	59.9	ND	ND	ND	ND	29.2	1.7	117.3	ND	ND	631.5	0
82528	2019-06-28T15:00:00	48.1	ND	ND	ND	ND	46.4	1.1	50.2	ND	ND	641.6	0
82529	2019-06-28T16:00:00	58.2	ND	ND	ND	ND	27.8	2.2	83.8	ND	ND	644.6	0
82530	2019-06-28T17:00:00	69.5	ND	ND	ND	ND	17.4	1.8	118.6	ND	ND	542.7	0
82531	2019-06-28T18:00:00	58.6	ND	ND	ND	ND	11.2	1.7	320	ND	ND	278.1	0
82532	2019-06-28T19:00:00	52.8	ND	ND	ND	ND	4.6	2.3	311.6	ND	ND	0	0
82533	2019-06-28T20:00:00	33	ND	ND	ND	ND	6.5	2.8	316.2	ND	ND	0	0
82534	2019-06-28T21:00:00	17.5	ND	ND	ND	ND	7.5	2.5	317.4	ND	ND	0	0
82535	2019-06-28T22:00:00	23.8	ND	ND	ND	ND	4.5	2	321.6	ND	ND	0	0
82536	2019-06-28T23:00:00	20.5	ND	ND	ND	ND	6	2	323.3	ND	ND	0	0
82537	2019-06-29T00:00:00	9.2	ND	ND	ND	ND	7.8	2.1	339.1	ND	ND	0	0
82538	2019-06-29T01:00:00	32.2	ND	ND	ND	ND	1.8	0.6	141.7	ND	ND	0	0
82539	2019-06-29T02:00:00	42.4	ND	ND	ND	ND	0.9	0.6	92.5	ND	ND	0	0
82540	2019-06-29T03:00:00	59.3	ND	ND	ND	ND	0.9	0.8	163	ND	ND	0	0
82541	2019-06-29T04:00:00	82.7	ND	ND	ND	ND	2	0.8	213.9	ND	ND	0	0
82542	2019-06-29T05:00:00	75	ND	ND	ND	ND	3.3	0.7	242.2	ND	ND	0	0
82543	2019-06-29T06:00:00	76.9	ND	ND	ND	ND	1.9	0.1	287	ND	ND	0	0
82544	2019-06-29T07:00:00	95	ND	ND	ND	ND	1.1	0.6	132.4	ND	ND	0	0
82545	2019-06-29T08:00:00	30.6	ND	ND	ND	ND	3.3	0.2	200.1	ND	ND	82.4	0
82546	2019-06-29T09:00:00	67.3	ND	ND	ND	ND	8.3	0.8	172.5	ND	ND	453.8	0
82547	2019-06-29T10:00:00	125.2	ND	ND	ND	ND	36	0.7	87.2	ND	ND	558.4	0
82548	2019-06-29T11:00:00	121.5	ND	ND	ND	ND	47.7	1.1	113.6	ND	ND	649.8	0
82549	2019-06-29T12:00:00	117.8	ND	ND	ND	ND	61.4	1.4	102.8	ND	ND	650.8	0
82550	2019-06-29T13:00:00	101	ND	ND	ND	ND	64.9	1.4	137.6	ND	ND	650.7	0
82551	2019-06-29T14:00:00	94.9	ND	ND	ND	ND	61.6	1.4	129.6	ND	ND	651.2	0
82552	2019-06-29T15:00:00	75.1	ND	ND	ND	ND	40.9	2.1	332.6	ND	ND	626.9	0
82553	2019-06-29T16:00:00	49	ND	ND	ND	ND	25.3	3.3	329.9	ND	ND	518.7	0
82554	2019-06-29T17:00:00	32.7	ND	ND	ND	ND	25.8	3.1	329.3	ND	ND	624	0
82555	2019-06-29T18:00:00	27.3	ND	ND	ND	ND	19.7	3	330.3	ND	ND	493.6	0
82556	2019-06-29T19:00:00	24.4	ND	ND	ND	ND	9.7	2.5	324.6	ND	ND	0	0
82557	2019-06-29T20:00:00	22.1	ND	ND	ND	ND	9.5	3.5	325.4	ND	ND	0	0
82558	2019-06-29T21:00:00	14.7	ND	ND	ND	ND	10.4	2.4	334.4	ND	ND	0	0
82559	2019-06-29T22:00:00	17.2	ND	ND	ND	ND	12	2.9	335.3	ND	ND	0	0
82560	2019-06-29T23:00:00	16.1	ND	ND	ND	ND	11.7	2.5	321.3	ND	ND	0	0
82561	2019-06-30T00:00:00	14.5	ND	ND	ND	ND	8.4	1.7	284.4	ND	ND	0	0
82562	2019-06-30T01:00:00	17.5	ND	ND	ND	ND	10.3	1.6	270.7	ND	ND	0	0
82563	2019-06-30T02:00:00	27.5	ND	ND	ND	ND	4	0.9	212.9	ND	ND	0	0
82564	2019-06-30T03:00:00	39.4	ND	ND	ND	ND	2.6	1	103.6	ND	ND	0	0
82565	2019-06-30T04:00:00	42.4	ND	ND	ND	ND	2.4	0.3	282.9	ND	ND	0	0
82566	2019-06-30T05:00:00	36.9	ND	ND	ND	ND	1.4	0.5	304.7	ND	ND	0	0
82567	2019-06-30T06:00:00	40.8	ND	ND	ND	ND	1.2	0.6	60.8	ND	ND	0	0
82568	2019-06-30T07:00:00	64.8	ND	ND	ND	ND	1.3	0.6	203.9	ND	ND	0	0
82569	2019-06-30T08:00:00	70.4	ND	ND	ND	ND	2.5	0.6	182.3	ND	ND	43.9	0
82570	2019-06-30T09:00:00	80.7	ND	ND	ND	ND	7.9	1.1	152	ND	ND	218	0
82571	2019-06-30T10:00:00	94.8	ND	ND	ND	ND	27.9	0.4	201.4	ND	ND	463.1	0
82572	2019-06-30T11:00:00	84.3	ND	ND	ND	ND	41.2	1.5	123.2	ND	ND	649.8	0
82573	2019-06-30T12:00:00	86	ND	ND	ND	ND	44.8	1.5	110.1	ND	ND	641.7	0
82574	2019-06-30T13:00:00	68.3	ND	ND	ND	ND	50.6	1.2	125.7	ND	ND	648.8	0
82575	2019-06-30T14:00:00	60.7	ND	ND	ND	ND	59.5	1.1	114.9	ND	ND	650.4	0
82576	2019-06-30T15:00:00	59.3	ND	ND	ND	ND	61.3	1.1	96.1	ND	ND	631.8	0
82577	2019-06-30T16:00:00	46.8	ND	ND	ND	ND	20.6	3	340.6	ND	ND	538.9	0
82578	2019-06-30T17:00:00	18	ND	ND	ND	ND	16.5	3.4	326.1	ND	ND	383.1	0
82579	2019-06-30T18:00:00	11.9	ND	ND	ND	ND	21.8	3	264.6	ND	ND	0	2.79
82580	2019-06-30T19:00:00	10.7	ND	ND	ND	ND	13.8	2.2	302.1	ND	ND	0	0.51
82581	2019-06-30T20:00:00	7.9	ND	ND	ND	ND	2.4	0.8	8	ND	ND	0	0.25
82582	2019-06-30T21:00:00	28.8	ND	ND	ND	ND	1.3	0.8	247.2	ND	ND	0	0
82583	2019-06-30T22:00:00	38.3	ND	ND	ND	ND	3.8	1.2	251.2	ND	ND	0	0
82584	2019-06-30T23:00:00	28.3	ND	ND	ND	ND	1.2	0.7	256.4	ND	ND	0	0
82585	2019-07-01T00:00:00	30.7	ND	ND	ND	ND	1.8	0.9	313.9	ND	ND	0	0
82586	2019-07-01T01:00:00	21.3	ND	ND	ND	ND	3.2	0.2	71.5	ND	ND	0	0
82587	2019-07-01T02:00:00	34.6	ND	ND	ND	ND	0.9	0.9	67.7	ND	ND	0	0
82588	2019-07-01T03:00:00	50.7	ND	ND	ND	ND	0.8	0.3	45	ND	ND	0	0
82589	2019-07-01T04:00:00	49	ND	ND	ND	ND	0.7	0.6	117.5	ND	ND	0	0
82590	2019-07-01T05:00:00	47.2	ND	ND	ND	ND	0.8	0.1	157.7	ND	ND	0	0
82591	2019-07-01T06:00:00	59.9	ND	ND	ND	ND	1.3	0.8	288.7	ND	ND	0	0
82592	2019-07-01T07:00:00	40.3	ND	ND	ND	ND	0.8	0.4	212.8	ND	ND	0	0
82593	2019-07-01T08:00:00	36.9	ND	ND	ND	ND	1.9	0.2	110.4	ND	ND	44.5	0
82594	2019-07-01T09:00:00	56.9	ND	ND	ND	ND	11.2	1.1	108.2	ND	ND	276.9	0
82595	2019-07-01T10:00:00	79.9	ND	ND	ND	ND	26.9	1.1	176.8	ND	ND	596.4	0
82596	2019-07-01T11:00:00	ND	ND	ND	ND	ND	41.7	0.7	171.5	ND	ND	649.5	0
82597	2019-07-01T12:00:00	ND	ND	ND	ND	ND	61.4	0.6	170.4	ND	ND	629.7	0
82598	2019-07-01T13:00:00	33.7	ND	ND	ND	ND	69.6	0.8	169.9	ND	ND	651.7	0
82599	2019-07-01T14:00:00	77.4	ND	ND	ND	ND	65.4	1.4	123.4	ND	ND	651.5	0
82600	2019-07-01T15:00:00	73.6	ND	ND	ND	ND	43.2	2	124.7	ND	ND	626.4	0
82601	2019-07-01T16:00:00	40.6	ND	ND	ND	ND	26	1.1	326.6	ND	ND	474.6	0
82602	2019-07-01T17:00:00	27.8	ND	ND	ND	ND	16.1	2.3	318.4	ND	ND	216.3	0
82603	2019-07-01T18:00:00	18.2	ND	ND	ND	ND	13.8	2.5	324.1	ND	ND	167.3	0
82604	2019-07-01T19:00:00	15.7	ND	ND	ND	ND	14.7	2.1	321.4	ND	ND	0	0
82605	2019-07-01T20:00:00	8.5	ND	ND	ND	ND	11.1	2	315.6	ND	ND	0	0
82606	2019-07-01T21:00:00	16.1	ND	ND	ND	ND	6.5	1.6	308.2	ND	ND	0	0
82607	2019-07-01T22:00:00	15.6	ND	ND	ND	ND	8.3	1.4	319.9	ND	ND	0	0
82608	2019-07-01T23:00:00	24.5	ND	ND	ND	ND	7.3	1	321.5	ND	ND	0	0
82609	2019-07-02T00:00:00	26	ND	ND	ND	ND	1.4	0.5	209.3	ND	ND	0	0
82610	2019-07-02T01:00:00	49.4	ND	ND	ND	ND	2.4	1.1	236	ND	ND	0	0
82611	2019-07-02T02:00:00	41	ND	ND	ND	ND	4.4	1.6	237.8	ND	ND	0	0
82612	2019-07-02T03:00:00	48.4	ND	ND	ND	ND	5.6	0.9	222.2	ND	ND	0	0
82613	2019-07-02T04:00:00	50.8	ND	ND	ND	ND	3	0.5	147.4	ND	ND	0	0
82614	2019-07-02T05:00:00	48.5	ND	ND	ND	ND	3.1	0.7	187.3	ND	ND	0	0
82615	2019-07-02T06:00:00	61.6	ND	ND	ND	ND	1.1	0.5	190.8	ND	ND	0	0
82616	2019-07-02T07:00:00	80.9	ND	ND	ND	ND	1.1	0.4	164.7	ND	ND	0	0
82617	2019-07-02T08:00:00	104.6	ND	ND	ND	ND	2	0.7	132.8	ND	ND	79	0
82618	2019-07-02T09:00:00	119.5	ND	ND	ND	ND	6.1	0.9	132.5	ND	ND	508.2	0
82619	2019-07-02T10:00:00	102.8	ND	ND	ND	ND	19.2	0.8	190.3	ND	ND	513.2	0
82620	2019-07-02T11:00:00	85.7	ND	ND	ND	ND	35.8	1.1	185.3	ND	ND	649.1	0
82621	2019-07-02T12:00:00	67.2	ND	ND	ND	ND	52.4	0.3	126	ND	ND	589.8	0
82622	2019-07-02T13:00:00	68	ND	ND	ND	ND	77	1	52.8	ND	ND	632.5	0
82623	2019-07-02T14:00:00	90.7	ND	ND	ND	ND	71.8	0.7	141.4	ND	ND	631.9	0
82624	2019-07-02T15:00:00	69.5	ND	ND	ND	ND	43.5	2	16.6	ND	ND	524.7	0
82625	2019-07-02T16:00:00	44.8	ND	ND	ND	ND	20.2	2.7	332.9	ND	ND	625.3	0
82626	2019-07-02T17:00:00	48.3	ND	ND	ND	ND	12	3.6	324.7	ND	ND	403.1	0
82627	2019-07-02T18:00:00	42.6	ND	ND	ND	ND	8.7	3.9	319	ND	ND	456.4	0
82628	2019-07-02T19:00:00	29.8	ND	ND	ND	ND	5.9	2.9	306.4	ND	ND	0	0
82629	2019-07-02T20:00:00	23.2	ND	ND	ND	ND	6.1	2.1	312.2	ND	ND	0	0
82630	2019-07-02T21:00:00	21.8	ND	ND	ND	ND	7.3	1.6	342.6	ND	ND	0	0
82631	2019-07-02T22:00:00	32	ND	ND	ND	ND	1.9	0.8	172.6	ND	ND	0	0
82632	2019-07-02T23:00:00	37.9	ND	ND	ND	ND	1.6	0.8	182.5	ND	ND	0	0
82633	2019-07-03T00:00:00	46.3	ND	ND	ND	ND	0.9	0.4	160.4	ND	ND	0	0
82634	2019-07-03T01:00:00	41.2	ND	ND	ND	ND	2.1	0.5	314.1	ND	ND	0	0
82635	2019-07-03T02:00:00	29.1	ND	ND	ND	ND	1.6	0.6	122.6	ND	ND	0	0
82636	2019-07-03T03:00:00	30.9	ND	ND	ND	ND	1.7	0.8	226.8	ND	ND	0	0
82637	2019-07-03T04:00:00	40.3	ND	ND	ND	ND	1	1	79.5	ND	ND	0	0
82638	2019-07-03T05:00:00	67.9	ND	ND	ND	ND	1.1	1.2	97.7	ND	ND	0	0
82639	2019-07-03T06:00:00	64.9	ND	ND	ND	ND	0.9	1.3	72.3	ND	ND	0	0
82640	2019-07-03T07:00:00	69.9	ND	ND	ND	ND	0.9	1	105.8	ND	ND	0	0
82641	2019-07-03T08:00:00	79	ND	ND	ND	ND	ND	0.7	183.4	ND	ND	75.3	0
82642	2019-07-03T09:00:00	93.9	ND	ND	ND	ND	ND	1	204.7	ND	ND	383.2	0
82643	2019-07-03T10:00:00	107.2	ND	ND	ND	ND	7.6	1.2	176.5	ND	ND	541.2	0
82644	2019-07-03T11:00:00	106.6	ND	ND	ND	ND	11.7	1.2	177.5	ND	ND	648.9	0
82645	2019-07-03T12:00:00	88.7	ND	ND	ND	ND	24.9	1.3	145.8	ND	ND	649.2	0
82646	2019-07-03T13:00:00	85.6	ND	ND	ND	ND	27.9	1.2	132	ND	ND	649.4	0
82647	2019-07-03T14:00:00	75.5	ND	ND	ND	ND	40.4	0.3	103.9	ND	ND	638.2	0
82648	2019-07-03T15:00:00	51.3	ND	ND	ND	ND	43.6	1	118.8	ND	ND	594.9	0
82649	2019-07-03T16:00:00	54.1	ND	ND	ND	ND	51.1	0.7	103.5	ND	ND	456.9	0
82650	2019-07-03T17:00:00	62.4	ND	ND	ND	ND	24.6	1.6	110.6	ND	ND	446.6	0
82651	2019-07-03T18:00:00	78.4	ND	ND	ND	ND	10	1.5	80.4	ND	ND	308.3	0
82652	2019-07-03T19:00:00	64.2	ND	ND	ND	ND	3	1	35.2	ND	ND	0	0
82653	2019-07-03T20:00:00	54.5	ND	ND	ND	ND	2.2	2.1	315.3	ND	ND	0	0
82654	2019-07-03T21:00:00	51.1	ND	ND	ND	ND	4.2	2	328.7	ND	ND	0	0
82655	2019-07-03T22:00:00	50.8	ND	ND	ND	ND	8.9	2.1	328	ND	ND	0	0
82656	2019-07-03T23:00:00	46.2	ND	ND	ND	ND	6.3	1.3	296.2	ND	ND	0	0
82657	2019-07-04T00:00:00	42.9	ND	ND	ND	ND	1.2	0.5	58.1	ND	ND	0	0
82658	2019-07-04T01:00:00	57.5	ND	ND	ND	ND	1.9	0.9	184.5	ND	ND	0	0
82659	2019-07-04T02:00:00	45.8	ND	ND	ND	ND	2	1.1	185.9	ND	ND	0	0
82660	2019-07-04T03:00:00	45.8	ND	ND	ND	ND	3.8	0.9	173	ND	ND	0	0
82661	2019-07-04T04:00:00	43.3	ND	ND	ND	ND	2.8	0.7	134.2	ND	ND	0	0
82662	2019-07-04T05:00:00	47	ND	ND	ND	ND	3.7	0.8	216.8	ND	ND	0	0
82663	2019-07-04T06:00:00	70.6	ND	ND	ND	ND	0.9	0.8	212.1	ND	ND	0	0
82664	2019-07-04T07:00:00	72.7	ND	ND	ND	ND	0.6	0.9	195.5	ND	ND	0	0
82665	2019-07-04T08:00:00	99.2	ND	ND	ND	ND	1.8	0.5	156.7	ND	ND	46.5	0
82666	2019-07-04T09:00:00	103.9	ND	ND	ND	ND	8.9	1	224.3	ND	ND	415.9	0
82667	2019-07-04T10:00:00	95.1	ND	ND	ND	ND	17.9	1.6	187.1	ND	ND	649.1	0
82668	2019-07-04T11:00:00	81.7	ND	ND	ND	ND	42.1	1.1	140.2	ND	ND	649.4	0
82669	2019-07-04T12:00:00	81	ND	ND	ND	ND	69.9	0.9	139.8	ND	ND	637	0
82670	2019-07-04T13:00:00	88.2	ND	ND	ND	ND	77.2	1.1	93.4	ND	ND	650.4	0
82671	2019-07-04T14:00:00	91.3	ND	ND	ND	ND	45.8	1	13.7	ND	ND	630.4	0
82672	2019-07-04T15:00:00	50	ND	ND	ND	ND	34.8	1.6	23.5	ND	ND	577.9	0
82673	2019-07-04T16:00:00	41.1	ND	ND	ND	ND	23.3	1.3	6.9	ND	ND	649.8	0
82674	2019-07-04T17:00:00	35.1	ND	ND	ND	ND	19.5	1.5	345.4	ND	ND	561.7	0
82675	2019-07-04T18:00:00	50.8	ND	ND	ND	ND	18	2.4	232.4	ND	ND	502.2	0
82676	2019-07-04T19:00:00	108.8	ND	ND	ND	ND	22.3	4	315.6	ND	ND	0	0
82677	2019-07-04T20:00:00	26.8	ND	ND	ND	ND	8.6	2.1	299.3	ND	ND	0	0
82678	2019-07-04T21:00:00	46.2	ND	ND	ND	ND	2.7	1.1	247.6	ND	ND	0	0
82679	2019-07-04T22:00:00	52.7	ND	ND	ND	ND	3.4	1.5	181.4	ND	ND	0	0
82680	2019-07-04T23:00:00	42.7	ND	ND	ND	ND	2.9	0.5	147.9	ND	ND	0	0
82681	2019-07-05T00:00:00	47.2	ND	ND	ND	ND	0.5	0.8	262.1	ND	ND	0	0
82682	2019-07-05T01:00:00	46.5	ND	ND	ND	ND	1.7	1	336.7	ND	ND	0	0
82683	2019-07-05T02:00:00	39	ND	ND	ND	ND	6.6	1.1	311.4	ND	ND	0	0
82684	2019-07-05T03:00:00	32	ND	ND	ND	ND	0.6	1	156.5	ND	ND	0	0
82685	2019-07-05T04:00:00	41.6	ND	ND	ND	ND	0.9	0.5	163.3	ND	ND	0	0
82686	2019-07-05T05:00:00	46.3	ND	ND	ND	ND	0.8	0.7	52.8	ND	ND	0	0
82687	2019-07-05T06:00:00	87.4	ND	ND	ND	ND	0.9	0.3	221	ND	ND	0	0
82688	2019-07-05T07:00:00	116.5	ND	ND	ND	ND	1	1.4	225	ND	ND	0	0
82689	2019-07-05T08:00:00	101.9	ND	ND	ND	ND	0.9	1.7	213.1	ND	ND	72.1	0
82690	2019-07-05T09:00:00	73.3	ND	ND	ND	ND	4	1	224.8	ND	ND	131.4	0
82691	2019-07-05T10:00:00	51.3	ND	ND	ND	ND	14.8	0.7	234.9	ND	ND	450.3	0
82692	2019-07-05T11:00:00	46.8	ND	ND	ND	ND	34.9	0.5	158.9	ND	ND	649	0
82693	2019-07-05T12:00:00	72.6	ND	ND	ND	ND	58.6	1	141	ND	ND	649.2	0
82694	2019-07-05T13:00:00	72.5	ND	ND	ND	ND	72.2	1.3	143.1	ND	ND	650.2	0
82695	2019-07-05T14:00:00	72.1	ND	ND	ND	ND	74.4	1.3	102.5	ND	ND	650.2	0
82696	2019-07-05T15:00:00	64.5	ND	ND	ND	ND	81.4	1.1	101	ND	ND	621.7	0
82697	2019-07-05T16:00:00	73.1	ND	ND	ND	ND	58.1	2.2	348.4	ND	ND	650.7	0
82698	2019-07-05T17:00:00	49.5	ND	ND	ND	ND	23.4	2.7	345.4	ND	ND	622.8	0
82699	2019-07-05T18:00:00	41.6	ND	ND	ND	ND	13.5	3.4	328.6	ND	ND	381.4	0
82700	2019-07-05T19:00:00	31.3	ND	ND	ND	ND	7.7	2.1	328.3	ND	ND	0	0
82701	2019-07-05T20:00:00	42.3	ND	ND	ND	ND	1.4	1.1	97.8	ND	ND	0	0
82702	2019-07-05T21:00:00	54.6	ND	ND	ND	ND	2.3	0.4	334.5	ND	ND	0	0
82703	2019-07-05T22:00:00	40.1	ND	ND	ND	ND	5.5	0.9	272	ND	ND	0	0
82704	2019-07-05T23:00:00	29.8	ND	ND	ND	ND	4.9	1.8	204	ND	ND	0	0
82705	2019-07-06T00:00:00	54.1	ND	ND	ND	ND	9.9	1.2	189.7	ND	ND	0	0
82706	2019-07-06T01:00:00	10.7	ND	ND	ND	ND	6.2	0.6	101.8	ND	ND	0	0
82707	2019-07-06T02:00:00	18.7	ND	ND	ND	ND	7.8	0.9	127.7	ND	ND	0	0
82708	2019-07-06T03:00:00	23.3	ND	ND	ND	ND	7.4	1	117.5	ND	ND	0	0
82709	2019-07-06T04:00:00	36.1	ND	ND	ND	ND	8.8	0.9	199.7	ND	ND	0	0
82710	2019-07-06T05:00:00	33.8	ND	ND	ND	ND	5.7	1	115.2	ND	ND	0	0
82711	2019-07-06T06:00:00	47.8	ND	ND	ND	ND	3.4	0.8	235.7	ND	ND	0	0
82712	2019-07-06T07:00:00	73.7	ND	ND	ND	ND	0.8	0.7	209.4	ND	ND	0	0
82713	2019-07-06T08:00:00	68.7	ND	ND	ND	ND	3	0.3	120.5	ND	ND	60.3	0
82714	2019-07-06T09:00:00	95.2	ND	ND	ND	ND	6.6	0.9	129.2	ND	ND	462.7	0
82715	2019-07-06T10:00:00	101.2	ND	ND	ND	ND	21.1	1.2	112.1	ND	ND	603.5	0
82716	2019-07-06T11:00:00	88.8	ND	ND	ND	ND	39.6	0.6	159.6	ND	ND	649.3	0
82717	2019-07-06T12:00:00	82.9	ND	ND	ND	ND	67.9	1	142	ND	ND	650.2	0
82718	2019-07-06T13:00:00	81.1	ND	ND	ND	ND	85.7	0.9	173.9	ND	ND	650.4	0
82719	2019-07-06T14:00:00	87.7	ND	ND	ND	ND	103.5	0.9	160.7	ND	ND	650.8	0
82720	2019-07-06T15:00:00	83.9	ND	ND	ND	ND	80.3	1.8	113.4	ND	ND	607	0
82721	2019-07-06T16:00:00	72.4	ND	ND	ND	ND	50.2	3.3	328.5	ND	ND	649.2	0
82722	2019-07-06T17:00:00	58.6	ND	ND	ND	ND	30.3	4.4	328.2	ND	ND	650.6	0
82723	2019-07-06T18:00:00	49.8	ND	ND	ND	ND	19.4	4.3	327.5	ND	ND	435.5	0
82724	2019-07-06T19:00:00	42.9	ND	ND	ND	ND	14	3.3	332.1	ND	ND	0	0
82725	2019-07-06T20:00:00	13.3	ND	ND	ND	ND	14.7	4.5	326.1	ND	ND	0	0
82726	2019-07-06T21:00:00	23	ND	ND	ND	ND	15.9	4.3	319.4	ND	ND	0	0
82727	2019-07-06T22:00:00	22	ND	ND	ND	ND	12.9	2.1	308.6	ND	ND	0	0
82728	2019-07-06T23:00:00	13.5	ND	ND	ND	ND	4.9	0.7	291.9	ND	ND	0	0
82729	2019-07-07T00:00:00	41.2	ND	ND	ND	ND	0.6	1.6	225.9	ND	ND	0	0
82730	2019-07-07T01:00:00	49.1	ND	ND	ND	ND	1.2	1.3	255.5	ND	ND	0	0
82731	2019-07-07T02:00:00	52.2	ND	ND	ND	ND	8.9	1.1	283.3	ND	ND	0	0
82732	2019-07-07T03:00:00	44	ND	ND	ND	ND	1.3	0.9	106.5	ND	ND	0	0
82733	2019-07-07T04:00:00	51.1	ND	ND	ND	ND	0.5	0.5	163.2	ND	ND	0	0
82734	2019-07-07T05:00:00	52	ND	ND	ND	ND	0.6	1	207.9	ND	ND	0	0
82735	2019-07-07T06:00:00	56.4	ND	ND	ND	ND	0.5	0.5	249.7	ND	ND	0	0
82736	2019-07-07T07:00:00	59.7	ND	ND	ND	ND	0.9	0.8	101.7	ND	ND	0	0
82737	2019-07-07T08:00:00	77.7	ND	ND	ND	ND	4	0.1	155.5	ND	ND	171.5	0
82738	2019-07-07T09:00:00	81.1	ND	ND	ND	ND	14.5	1.1	193.2	ND	ND	470.4	0
82739	2019-07-07T10:00:00	64	ND	ND	ND	ND	26.9	0.6	146.9	ND	ND	632.4	0
82740	2019-07-07T11:00:00	61	ND	ND	ND	ND	42.2	1.1	156.4	ND	ND	641.6	0
82741	2019-07-07T12:00:00	59.5	ND	ND	ND	ND	60.1	0.9	165.6	ND	ND	649.5	0
82742	2019-07-07T13:00:00	65.5	ND	ND	ND	ND	74.9	1	124.5	ND	ND	650	0
82743	2019-07-07T14:00:00	66.8	ND	ND	ND	ND	78.3	1.3	169.5	ND	ND	645.9	0
82744	2019-07-07T15:00:00	51.9	ND	ND	ND	ND	61.8	1.2	356	ND	ND	633.2	0
82745	2019-07-07T16:00:00	40.8	ND	ND	ND	ND	28.1	3.1	331.2	ND	ND	434	0
82746	2019-07-07T17:00:00	21.2	ND	ND	ND	ND	26.4	3.5	331.7	ND	ND	430.5	0
82747	2019-07-07T18:00:00	21.1	ND	ND	ND	ND	22.7	3.2	332.3	ND	ND	193.5	0
82748	2019-07-07T19:00:00	38.5	ND	ND	ND	ND	22.5	3.4	331.7	ND	ND	0	0
82749	2019-07-07T20:00:00	53	ND	ND	ND	ND	21.8	3.7	330.9	ND	ND	0	0
82750	2019-07-07T21:00:00	21	ND	ND	ND	ND	19.4	2.8	330.1	ND	ND	0	0
82751	2019-07-07T22:00:00	13.1	ND	ND	ND	ND	15.6	2.6	321	ND	ND	0	0
82752	2019-07-07T23:00:00	16.1	ND	ND	ND	ND	12	1.2	279.6	ND	ND	0	0
82753	2019-07-08T00:00:00	34	ND	ND	ND	ND	3	0.8	181.6	ND	ND	0	0
82754	2019-07-08T01:00:00	45.8	ND	ND	ND	ND	2.4	0.5	211.1	ND	ND	0	0
82755	2019-07-08T02:00:00	44.2	ND	ND	ND	ND	10.5	0.8	284.8	ND	ND	0	0
82756	2019-07-08T03:00:00	18.9	ND	ND	ND	ND	13	0.8	249.1	ND	ND	0	0
82757	2019-07-08T04:00:00	21.5	ND	ND	ND	ND	5.5	0.8	203	ND	ND	0	0
82758	2019-07-08T05:00:00	40.6	ND	ND	ND	ND	4.6	0.2	195.1	ND	ND	0	0
82759	2019-07-08T06:00:00	34.7	ND	ND	ND	ND	1.4	0.3	113.2	ND	ND	0	0
82760	2019-07-08T07:00:00	53.3	ND	ND	ND	ND	0.9	0.6	226.1	ND	ND	0	0
82761	2019-07-08T08:00:00	77.7	ND	ND	ND	ND	1.3	0.6	173	ND	ND	76	0
82762	2019-07-08T09:00:00	86.9	ND	ND	ND	ND	7.6	1.2	142.8	ND	ND	456.6	0
82763	2019-07-08T10:00:00	97.3	ND	ND	ND	ND	21.9	1.1	91.7	ND	ND	643.2	0
82764	2019-07-08T11:00:00	100.2	ND	ND	ND	ND	31.9	1.6	139.5	ND	ND	648.6	0
82765	2019-07-08T12:00:00	101.2	ND	ND	ND	ND	46.3	0.7	141.2	ND	ND	644.4	0
82766	2019-07-08T13:00:00	81.8	ND	ND	ND	ND	66.1	0.4	140.9	ND	ND	648.7	0
82767	2019-07-08T14:00:00	70	ND	ND	ND	ND	56.1	1.2	22.1	ND	ND	640.1	0
82768	2019-07-08T15:00:00	59.2	ND	ND	ND	ND	25	3.5	331	ND	ND	554.6	0
82769	2019-07-08T16:00:00	37.2	ND	ND	ND	ND	24.1	3.4	326.9	ND	ND	594.3	0
82770	2019-07-08T17:00:00	40.7	ND	ND	ND	ND	17.3	3.7	334	ND	ND	608.2	0
82771	2019-07-08T18:00:00	30.2	ND	ND	ND	ND	11.9	3.2	331.7	ND	ND	375.1	0
82772	2019-07-08T19:00:00	37.4	ND	ND	ND	ND	10	2.5	277.7	ND	ND	0	0
82773	2019-07-08T20:00:00	27.6	ND	ND	ND	ND	9.3	1.9	306.8	ND	ND	0	0
82774	2019-07-08T21:00:00	24.9	ND	ND	ND	ND	10	2	259.4	ND	ND	0	0
82775	2019-07-08T22:00:00	27.4	ND	ND	ND	ND	10.5	1	327.5	ND	ND	0	0
82776	2019-07-08T23:00:00	51.9	ND	ND	ND	ND	3.5	1.2	92.7	ND	ND	0	0
82777	2019-07-09T00:00:00	48.4	ND	ND	ND	ND	6.3	0.3	124.4	ND	ND	0	0
82778	2019-07-09T01:00:00	39.2	ND	ND	ND	ND	5.7	1.2	291.5	ND	ND	0	0
82779	2019-07-09T02:00:00	16	ND	ND	ND	ND	7.2	1	283.4	ND	ND	0	0
82780	2019-07-09T03:00:00	13.4	ND	ND	ND	ND	4	0.6	56	ND	ND	0	0
82781	2019-07-09T04:00:00	34.4	ND	ND	ND	ND	1.3	1	114.4	ND	ND	0	0
82782	2019-07-09T05:00:00	38.1	ND	ND	ND	ND	0.7	0.2	169.8	ND	ND	0	0
82783	2019-07-09T06:00:00	48.9	ND	ND	ND	ND	0.8	0.8	91.1	ND	ND	0	0
82784	2019-07-09T07:00:00	86.8	ND	ND	ND	ND	1	0.6	326.1	ND	ND	0	0
82785	2019-07-09T08:00:00	69.2	ND	ND	ND	ND	2.3	0.1	326	ND	ND	71.6	0
82786	2019-07-09T09:00:00	78.6	ND	ND	ND	ND	6.2	0.6	144.4	ND	ND	408	0
82787	2019-07-09T10:00:00	122.2	ND	ND	ND	ND	20.2	1.2	158.7	ND	ND	639.4	0
82788	2019-07-09T11:00:00	85.3	ND	ND	ND	ND	43.1	0.8	196	ND	ND	649.2	0
82789	2019-07-09T12:00:00	64.2	ND	ND	ND	ND	45.7	1.4	170.4	ND	ND	642.6	0
82790	2019-07-09T13:00:00	56.3	ND	ND	ND	ND	66.1	0.9	130.8	ND	ND	630.5	0
82791	2019-07-09T14:00:00	73.9	ND	ND	ND	ND	78.4	0.9	121.1	ND	ND	646.5	0
82792	2019-07-09T15:00:00	84.8	ND	ND	ND	ND	57.4	0.6	120.4	ND	ND	637.8	0
82793	2019-07-09T16:00:00	66.1	ND	ND	ND	ND	18.6	2.7	326.9	ND	ND	570.9	0
82794	2019-07-09T17:00:00	59.2	ND	ND	ND	ND	16.2	2.8	324.9	ND	ND	461.7	0
82795	2019-07-09T18:00:00	51.1	ND	ND	ND	ND	3.5	3.1	319.3	ND	ND	373.5	0
82796	2019-07-09T19:00:00	43.8	ND	ND	ND	ND	2.3	4	320.2	ND	ND	0	0
82797	2019-07-09T20:00:00	20.6	ND	ND	ND	ND	1.5	3.2	325.9	ND	ND	0	0
82798	2019-07-09T21:00:00	15	ND	ND	ND	ND	1.3	2.8	310.8	ND	ND	0	0
82799	2019-07-09T22:00:00	12.6	ND	ND	ND	ND	1.2	2.4	319.5	ND	ND	0	0
82800	2019-07-09T23:00:00	25.2	ND	ND	ND	ND	1	1.4	245	ND	ND	0	0
82801	2019-07-10T00:00:00	38.1	ND	ND	ND	ND	1	0.7	315.9	ND	ND	0	0
82802	2019-07-10T01:00:00	45	ND	ND	ND	ND	0.9	0.4	49	ND	ND	0	0
82803	2019-07-10T02:00:00	74.5	ND	ND	ND	ND	0.9	0.3	273	ND	ND	0	0
82804	2019-07-10T03:00:00	30.6	ND	ND	ND	ND	0.9	1	225.1	ND	ND	0	0
82805	2019-07-10T04:00:00	27	ND	ND	ND	ND	0.8	1.1	207.4	ND	ND	0	0
82806	2019-07-10T05:00:00	28.2	ND	ND	ND	ND	0.8	0.9	182.3	ND	ND	0	0
82807	2019-07-10T06:00:00	38.8	ND	ND	ND	ND	0.7	0.7	199.6	ND	ND	0	0
82808	2019-07-10T07:00:00	58.6	ND	ND	ND	ND	0.8	0.7	162.9	ND	ND	0	0
82809	2019-07-10T08:00:00	75.9	ND	ND	ND	ND	2.8	0.8	131	ND	ND	220.6	0
82810	2019-07-10T09:00:00	79.8	ND	ND	ND	ND	15	0.8	200.9	ND	ND	586.1	0
82811	2019-07-10T10:00:00	84.4	ND	ND	ND	ND	17.2	0.9	217.1	ND	ND	649.6	0
82812	2019-07-10T11:00:00	74.3	ND	ND	ND	ND	33.4	1.2	214.3	ND	ND	619.7	0
82813	2019-07-10T12:00:00	59.9	ND	ND	ND	ND	42.5	1.4	201.7	ND	ND	634.8	0
82814	2019-07-10T13:00:00	63.2	ND	ND	ND	ND	54.1	0.9	232.1	ND	ND	650.7	0
82815	2019-07-10T14:00:00	50.5	ND	ND	ND	ND	51.3	0.8	233.6	ND	ND	649.2	0
82816	2019-07-10T15:00:00	57.7	ND	ND	ND	ND	37.6	1.7	215.6	ND	ND	619.5	0
82817	2019-07-10T16:00:00	58.6	ND	ND	ND	ND	26	1	204.8	ND	ND	629.3	0
82818	2019-07-10T17:00:00	51.1	ND	ND	ND	ND	25.1	2.2	315.2	ND	ND	533	0
82819	2019-07-10T18:00:00	34.5	ND	ND	ND	ND	20.3	1.5	334.8	ND	ND	324.9	0
82820	2019-07-10T19:00:00	52.5	ND	ND	ND	ND	12.4	2.5	328.3	ND	ND	0	0
82821	2019-07-10T20:00:00	36.7	ND	ND	ND	ND	13.2	3.4	323.9	ND	ND	0	0
82822	2019-07-10T21:00:00	32.4	ND	ND	ND	ND	16.1	3.9	321.8	ND	ND	0	0
82823	2019-07-10T22:00:00	24.6	ND	ND	ND	ND	14.3	2.9	317.8	ND	ND	0	0
82824	2019-07-10T23:00:00	20.3	ND	ND	ND	ND	12.8	2.5	293.8	ND	ND	0	0
82825	2019-07-11T00:00:00	17.9	ND	ND	ND	ND	12.9	1.9	293.1	ND	ND	0	0
82826	2019-07-11T01:00:00	16.4	ND	ND	ND	ND	7.7	0.7	304.1	ND	ND	0	0
82827	2019-07-11T02:00:00	26.7	ND	ND	ND	ND	10.3	0.9	276.5	ND	ND	0	0
82828	2019-07-11T03:00:00	29.4	ND	ND	ND	ND	9.2	0.9	220.5	ND	ND	0	0
82829	2019-07-11T04:00:00	37.7	ND	ND	ND	ND	5.6	1.3	180.2	ND	ND	0	0
82830	2019-07-11T05:00:00	44.8	ND	ND	ND	ND	4.3	1.1	174.1	ND	ND	0	0
82831	2019-07-11T06:00:00	43	ND	ND	ND	ND	1.5	0.5	202.2	ND	ND	0	0
82832	2019-07-11T07:00:00	58.9	ND	ND	ND	ND	0.9	0.5	199.2	ND	ND	0	0
82833	2019-07-11T08:00:00	69.8	ND	ND	ND	ND	3	0.4	282	ND	ND	119.6	0
82834	2019-07-11T09:00:00	76.8	ND	ND	ND	ND	10.4	1.4	205.8	ND	ND	489.5	0
82835	2019-07-11T10:00:00	70.6	ND	ND	ND	ND	20.7	1.3	199.5	ND	ND	648.9	0
82836	2019-07-11T11:00:00	66.8	ND	ND	ND	ND	36.8	1	183.3	ND	ND	650	0
82837	2019-07-11T12:00:00	70.2	ND	ND	ND	ND	62.7	1.1	183	ND	ND	650.6	0
82838	2019-07-11T13:00:00	75.5	ND	ND	ND	ND	70.4	1.4	155.7	ND	ND	650.8	0
82839	2019-07-11T14:00:00	76.3	ND	ND	ND	ND	76.7	1.1	135	ND	ND	641.6	0
82840	2019-07-11T15:00:00	94.9	ND	ND	ND	ND	82	0.6	106.1	ND	ND	527.7	0
82841	2019-07-11T16:00:00	69.7	ND	ND	ND	ND	17.9	3.8	329.9	ND	ND	280.5	0
82842	2019-07-11T17:00:00	42.6	ND	ND	ND	ND	16.6	4.2	334.8	ND	ND	564.6	0
82843	2019-07-11T18:00:00	52.8	ND	ND	ND	ND	14.6	3.9	330.7	ND	ND	452	0
82844	2019-07-11T19:00:00	38.1	ND	ND	ND	ND	12.2	4.1	325.5	ND	ND	0	0
82845	2019-07-11T20:00:00	29.5	ND	ND	ND	ND	14.1	3.7	323.4	ND	ND	0	0
82846	2019-07-11T21:00:00	25.2	ND	ND	ND	ND	14.7	2.2	343.6	ND	ND	0	0
82847	2019-07-11T22:00:00	22.2	ND	ND	ND	ND	12.7	3.4	313.8	ND	ND	0	0
82848	2019-07-11T23:00:00	11.2	ND	ND	ND	ND	13.6	2.7	305.5	ND	ND	0	0
82849	2019-07-12T00:00:00	6.2	ND	ND	ND	ND	11	1.9	289.7	ND	ND	0	0
82850	2019-07-12T01:00:00	17.9	ND	ND	ND	ND	7.8	1.3	251.7	ND	ND	0	0
82851	2019-07-12T02:00:00	31.2	ND	ND	ND	ND	8	1	222.2	ND	ND	0	0
82852	2019-07-12T03:00:00	36.6	ND	ND	ND	ND	6.2	0.2	227.3	ND	ND	0	0
82853	2019-07-12T04:00:00	44.3	ND	ND	ND	ND	1.3	0.8	93.1	ND	ND	0	0
82854	2019-07-12T05:00:00	35.5	ND	ND	ND	ND	0.9	0.3	147.8	ND	ND	0	0
82855	2019-07-12T06:00:00	48.9	ND	ND	ND	ND	1.5	0.7	202.9	ND	ND	0	0
82856	2019-07-12T07:00:00	58.2	ND	ND	ND	ND	0.7	0.9	186.2	ND	ND	0	0
82857	2019-07-12T08:00:00	74.9	ND	ND	ND	ND	1.1	0.6	214	ND	ND	33.7	0
82858	2019-07-12T09:00:00	90.6	ND	ND	ND	ND	1.7	0.7	173.5	ND	ND	159.2	0
82859	2019-07-12T10:00:00	85.2	ND	ND	ND	ND	10	0.9	215.3	ND	ND	301	0
82860	2019-07-12T11:00:00	80.3	ND	ND	ND	ND	24.1	1.3	197.2	ND	ND	648.8	0
82861	2019-07-12T12:00:00	79.4	ND	ND	ND	ND	46.3	1	202.7	ND	ND	649.6	0
82862	2019-07-12T13:00:00	67.4	ND	ND	ND	ND	61.9	1.1	204.1	ND	ND	624.7	0
82863	2019-07-12T14:00:00	75.2	ND	ND	ND	ND	70.2	1	166.5	ND	ND	614.5	0
82864	2019-07-12T15:00:00	83.1	ND	ND	ND	ND	64.3	1	21.5	ND	ND	604.9	0
82865	2019-07-12T16:00:00	72.4	ND	ND	ND	ND	18.1	4	328.9	ND	ND	379.7	0
82866	2019-07-12T17:00:00	47.8	ND	ND	ND	ND	15.4	3.5	323.9	ND	ND	470.8	0
82867	2019-07-12T18:00:00	42.6	ND	ND	ND	ND	12.6	4.1	320.9	ND	ND	391.8	0
82868	2019-07-12T19:00:00	48.1	ND	ND	ND	ND	9.3	3.6	321.4	ND	ND	0	0
82869	2019-07-12T20:00:00	32	ND	ND	ND	ND	9.2	4.1	320.3	ND	ND	0	0
82870	2019-07-12T21:00:00	26.7	ND	ND	ND	ND	8.6	2.5	330.8	ND	ND	0	0
82871	2019-07-12T22:00:00	22.6	ND	ND	ND	ND	7.8	2.1	285	ND	ND	0	0
82872	2019-07-12T23:00:00	25.4	ND	ND	ND	ND	8.4	2.2	288.7	ND	ND	0	0
82873	2019-07-13T00:00:00	15	ND	ND	ND	ND	5.6	1.1	286.1	ND	ND	0	0
82874	2019-07-13T01:00:00	27	ND	ND	ND	ND	6.6	0.9	329.4	ND	ND	0	0
82875	2019-07-13T02:00:00	27	ND	ND	ND	ND	3.4	0.3	123.9	ND	ND	0	0
82876	2019-07-13T03:00:00	54.5	ND	ND	ND	ND	1.5	0.3	85	ND	ND	0	0
82877	2019-07-13T04:00:00	67.1	ND	ND	ND	ND	1	0.4	62.5	ND	ND	0	0
82878	2019-07-13T05:00:00	65.1	ND	ND	ND	ND	0.9	0.6	174.4	ND	ND	0	0
82879	2019-07-13T06:00:00	76.7	ND	ND	ND	ND	1	0.7	123.2	ND	ND	0	0
82880	2019-07-13T07:00:00	102.5	ND	ND	ND	ND	1	0.8	154.6	ND	ND	0	0
82881	2019-07-13T08:00:00	104.4	ND	ND	ND	ND	1	0.6	140.5	ND	ND	45.1	0
82882	2019-07-13T09:00:00	123.9	ND	ND	ND	ND	1.4	1	131.6	ND	ND	195.2	0
82883	2019-07-13T10:00:00	150.6	ND	ND	ND	ND	1.7	1.1	130.6	ND	ND	299.3	0
82884	2019-07-13T11:00:00	148.9	ND	ND	ND	ND	9.5	0.5	131.4	ND	ND	309.4	0
82885	2019-07-13T12:00:00	149	ND	ND	ND	ND	19.4	0.8	145.6	ND	ND	643	0
82886	2019-07-13T13:00:00	146.2	ND	ND	ND	ND	46.7	1.1	137.1	ND	ND	643.5	0
82887	2019-07-13T14:00:00	125.6	ND	ND	ND	ND	63.1	1.5	115.7	ND	ND	650.4	0
82888	2019-07-13T15:00:00	113.3	ND	ND	ND	ND	64.8	1.8	52	ND	ND	647.9	0
82889	2019-07-13T16:00:00	69.5	ND	ND	ND	ND	18.5	2.5	315.9	ND	ND	586.7	0
82890	2019-07-13T17:00:00	40.1	ND	ND	ND	ND	13.3	3	330.1	ND	ND	579.9	0
82891	2019-07-13T18:00:00	34.5	ND	ND	ND	ND	9.5	2.7	333.6	ND	ND	216	0
82892	2019-07-13T19:00:00	17	ND	ND	ND	ND	6.9	2.7	323.2	ND	ND	0	0
82893	2019-07-13T20:00:00	12.8	ND	ND	ND	ND	5.9	3.4	318.6	ND	ND	0	0
82894	2019-07-13T21:00:00	14	ND	ND	ND	ND	5.4	1.4	331.5	ND	ND	0	0
82895	2019-07-13T22:00:00	49.1	ND	ND	ND	ND	1.6	0.3	190.7	ND	ND	0	0
82896	2019-07-13T23:00:00	39.9	ND	ND	ND	ND	7.4	1.9	287.6	ND	ND	0	0
82897	2019-07-14T00:00:00	19.7	ND	ND	ND	ND	6.3	1.2	271.2	ND	ND	0	0
82898	2019-07-14T01:00:00	43.8	ND	ND	ND	ND	1.1	0.3	238	ND	ND	0	0
82899	2019-07-14T02:00:00	59.1	ND	ND	ND	ND	0.7	1.3	219.9	ND	ND	0	0
82900	2019-07-14T03:00:00	67.2	ND	ND	ND	ND	1	0.6	136	ND	ND	0	0
82901	2019-07-14T04:00:00	57.5	ND	ND	ND	ND	1.4	0.6	143.2	ND	ND	0	0
82902	2019-07-14T05:00:00	37.4	ND	ND	ND	ND	1	0.5	236.7	ND	ND	0	0
82903	2019-07-14T06:00:00	24.6	ND	ND	ND	ND	0.9	0.6	174.2	ND	ND	0	0
82904	2019-07-14T07:00:00	37.7	ND	ND	ND	ND	0.7	1	236.5	ND	ND	0	0
82905	2019-07-14T08:00:00	32.2	ND	ND	ND	ND	2	1.4	225	ND	ND	63.6	0
82906	2019-07-14T09:00:00	37.5	ND	ND	ND	ND	6.6	0.8	181.2	ND	ND	461.3	0
82907	2019-07-14T10:00:00	48.4	ND	ND	ND	ND	11.9	1.3	153.9	ND	ND	566.4	0
82908	2019-07-14T11:00:00	65.6	ND	ND	ND	ND	16.3	1.1	181.5	ND	ND	624.9	0
82909	2019-07-14T12:00:00	64.8	ND	ND	ND	ND	25.3	1.2	131	ND	ND	640.3	0
82910	2019-07-14T13:00:00	69.5	ND	ND	ND	ND	42.2	0.8	137	ND	ND	631.8	0
82911	2019-07-14T14:00:00	79.8	ND	ND	ND	ND	61.9	0.6	170.7	ND	ND	650.4	0
82912	2019-07-14T15:00:00	65.1	ND	ND	ND	ND	63.3	0.4	47.2	ND	ND	650.6	0
82913	2019-07-14T16:00:00	73.6	ND	ND	ND	ND	34.8	1.1	336	ND	ND	451.5	0
82914	2019-07-14T17:00:00	37.7	ND	ND	ND	ND	18.8	3.4	327.4	ND	ND	468.8	0
82915	2019-07-14T18:00:00	30	ND	ND	ND	ND	14.3	3.8	329.6	ND	ND	500.4	0
82916	2019-07-14T19:00:00	19.1	ND	ND	ND	ND	12.4	3.5	332	ND	ND	0	0
82917	2019-07-14T20:00:00	7.7	ND	ND	ND	ND	10.6	3.6	324	ND	ND	0	0
82918	2019-07-14T21:00:00	1.9	ND	ND	ND	ND	10.8	1.9	8.5	ND	ND	0	0
82919	2019-07-14T22:00:00	9.8	ND	ND	ND	ND	9.8	2.1	315.6	ND	ND	0	0
82920	2019-07-14T23:00:00	2.5	ND	ND	ND	ND	4.5	2.3	257.8	ND	ND	0	0
82921	2019-07-15T00:00:00	26	ND	ND	ND	ND	4.3	2.1	238.7	ND	ND	0	0
82922	2019-07-15T01:00:00	30.8	ND	ND	ND	ND	5	1.3	215.9	ND	ND	0	1.52
82923	2019-07-15T02:00:00	18.8	ND	ND	ND	ND	2.5	0.9	233.5	ND	ND	0	3.56
82924	2019-07-15T03:00:00	17.4	ND	ND	ND	ND	1.6	0.6	257.5	ND	ND	0	0
82925	2019-07-15T04:00:00	13.2	ND	ND	ND	ND	0.9	0.6	212.5	ND	ND	0	0
82926	2019-07-15T05:00:00	16	ND	ND	ND	ND	0.7	0.7	287.6	ND	ND	0	0
82927	2019-07-15T06:00:00	35.2	ND	ND	ND	ND	0.7	0.2	81.7	ND	ND	0	0.25
82928	2019-07-15T07:00:00	44.4	ND	ND	ND	ND	0.7	0.8	266.8	ND	ND	0	14.99
82929	2019-07-15T08:00:00	32.1	ND	ND	ND	ND	0.7	1.3	327	ND	ND	18.1	0.76
82930	2019-07-15T09:00:00	19.4	ND	ND	ND	ND	1.2	0.8	306.3	ND	ND	116.6	0
82931	2019-07-15T10:00:00	28.9	ND	ND	ND	ND	2.1	0.3	265.5	ND	ND	301.9	0
82932	2019-07-15T11:00:00	44.1	ND	ND	ND	ND	14.3	0.3	207.2	ND	ND	533.3	0
82933	2019-07-15T12:00:00	48.3	ND	ND	ND	ND	33	0.8	73	ND	ND	643.4	0
82934	2019-07-15T13:00:00	78.9	ND	ND	ND	ND	51.9	0.2	17.7	ND	ND	596.4	0
82935	2019-07-15T14:00:00	74.8	ND	ND	ND	ND	22.6	2.5	332.4	ND	ND	633.7	0
82936	2019-07-15T15:00:00	48.4	ND	ND	ND	ND	16.6	3.9	322.3	ND	ND	403.7	0
82937	2019-07-15T16:00:00	42.4	ND	ND	ND	ND	15.3	4.1	326.9	ND	ND	637.9	0
82938	2019-07-15T17:00:00	50.8	ND	ND	ND	ND	10.7	3.8	334.5	ND	ND	589	0
82939	2019-07-15T18:00:00	59.4	ND	ND	ND	ND	7.4	2.2	349.7	ND	ND	370.3	0
82940	2019-07-15T19:00:00	34.1	ND	ND	ND	ND	5.2	2.4	330.2	ND	ND	0	0
82941	2019-07-15T20:00:00	24.2	ND	ND	ND	ND	5.9	2.1	339.7	ND	ND	0	0
82942	2019-07-15T21:00:00	13.5	ND	ND	ND	ND	7.4	3.5	311.8	ND	ND	0	0
82943	2019-07-15T22:00:00	15.2	ND	ND	ND	ND	6.5	1.9	292.5	ND	ND	0	0
82944	2019-07-15T23:00:00	12.3	ND	ND	ND	ND	1.3	0.9	252.4	ND	ND	0	0
82945	2019-07-16T00:00:00	38.9	ND	ND	ND	ND	1.1	0.9	211.1	ND	ND	0	0
82946	2019-07-16T01:00:00	39.9	ND	ND	ND	ND	1.4	0.6	124.5	ND	ND	0	0
82947	2019-07-16T02:00:00	44.8	ND	ND	ND	ND	1.4	0.2	197.3	ND	ND	0	0
82948	2019-07-16T03:00:00	26.9	ND	ND	ND	ND	2.7	0.8	301	ND	ND	0	0
82949	2019-07-16T04:00:00	10.6	ND	ND	ND	ND	2.4	0.8	325.3	ND	ND	0	0
82950	2019-07-16T05:00:00	12.2	ND	ND	ND	ND	1.3	0.3	15	ND	ND	0	0
82951	2019-07-16T06:00:00	47.5	ND	ND	ND	ND	1	0.6	319.2	ND	ND	0	0
82952	2019-07-16T07:00:00	43.4	ND	ND	ND	ND	0.8	0.8	60.5	ND	ND	0	0
82953	2019-07-16T08:00:00	95.8	ND	ND	ND	ND	1.1	0.5	66.8	ND	ND	43.7	0
82954	2019-07-16T09:00:00	127.7	ND	ND	ND	ND	1.4	0.9	89.2	ND	ND	212.5	0
82955	2019-07-16T10:00:00	132.4	ND	ND	ND	ND	3	0.7	128.9	ND	ND	491.9	0
82956	2019-07-16T11:00:00	103.3	ND	ND	ND	ND	6.6	0.9	113.9	ND	ND	649	0
82957	2019-07-16T12:00:00	78.9	ND	ND	ND	ND	12.2	1.1	134	ND	ND	649.4	0
82958	2019-07-16T13:00:00	66.1	ND	ND	ND	ND	27	1.3	98.7	ND	ND	650	0
82959	2019-07-16T14:00:00	61.3	ND	ND	ND	ND	23.8	1.8	111.9	ND	ND	650.9	0
82960	2019-07-16T15:00:00	68.2	ND	ND	ND	ND	32.9	1.5	105.9	ND	ND	641.3	0
82961	2019-07-16T16:00:00	99.3	ND	ND	ND	ND	41.5	0.9	91.9	ND	ND	651	0
82962	2019-07-16T17:00:00	85.1	ND	ND	ND	ND	33	1.4	109.1	ND	ND	646	0
82963	2019-07-16T18:00:00	78	ND	ND	ND	ND	13.7	1.7	104.9	ND	ND	565	0
82964	2019-07-16T19:00:00	92.2	ND	ND	ND	ND	7.7	1.4	61.7	ND	ND	0	0
82965	2019-07-16T20:00:00	63.3	ND	ND	ND	ND	1.2	1.3	333.9	ND	ND	0	0
82966	2019-07-16T21:00:00	27.7	ND	ND	ND	ND	3.5	2.6	314.9	ND	ND	0	0
82967	2019-07-16T22:00:00	13.7	ND	ND	ND	ND	4	1.9	326.5	ND	ND	0	0
82968	2019-07-16T23:00:00	20.1	ND	ND	ND	ND	6.8	1.6	292.9	ND	ND	0	0
82969	2019-07-17T00:00:00	48.1	ND	ND	ND	ND	7.1	1	274.8	ND	ND	0	0
82970	2019-07-17T01:00:00	41.3	ND	ND	ND	ND	6.4	0.5	218.5	ND	ND	0	0
82971	2019-07-17T02:00:00	53.3	ND	ND	ND	ND	6.9	0.4	286.4	ND	ND	0	0
82972	2019-07-17T03:00:00	43.8	ND	ND	ND	ND	6.8	0.8	304.9	ND	ND	0	0
82973	2019-07-17T04:00:00	55.9	ND	ND	ND	ND	5.4	0.8	306	ND	ND	0	0
82974	2019-07-17T05:00:00	50.2	ND	ND	ND	ND	6.3	0.8	334	ND	ND	0	0
82975	2019-07-17T06:00:00	63.3	ND	ND	ND	ND	1.5	0.9	310.3	ND	ND	0	0
82976	2019-07-17T07:00:00	63.5	ND	ND	ND	ND	1.2	0.6	323.2	ND	ND	0	0
82977	2019-07-17T08:00:00	94.8	ND	ND	ND	ND	4.6	1.2	100.1	ND	ND	146.8	0
82978	2019-07-17T09:00:00	150.7	ND	ND	ND	ND	129.5	1.2	141.6	ND	ND	556.3	0
82979	2019-07-17T10:00:00	125.6	ND	ND	ND	ND	35.7	0.8	159.7	ND	ND	649.2	0
82980	2019-07-17T11:00:00	112.9	ND	ND	ND	ND	60.1	1.1	176.3	ND	ND	650.1	0
82981	2019-07-17T12:00:00	88.7	ND	ND	ND	ND	87.1	0.4	124.7	ND	ND	650.1	0
82982	2019-07-17T13:00:00	81	ND	ND	ND	ND	102.3	0.7	151.4	ND	ND	650.9	0
82983	2019-07-17T14:00:00	87	ND	ND	ND	ND	91.1	1.2	111.4	ND	ND	639	0
82984	2019-07-17T15:00:00	106	ND	ND	ND	ND	80.8	0.8	156.7	ND	ND	631.2	0
82985	2019-07-17T16:00:00	95.9	ND	ND	ND	ND	59.4	1	173.8	ND	ND	652	0
82986	2019-07-17T17:00:00	81.5	ND	ND	ND	ND	37	4.1	326.6	ND	ND	651.4	0
82987	2019-07-17T18:00:00	69.6	ND	ND	ND	ND	23.3	3.9	330.7	ND	ND	453	0
82988	2019-07-17T19:00:00	63.8	ND	ND	ND	ND	16.6	3.8	335.2	ND	ND	0	0
82989	2019-07-17T20:00:00	39.1	ND	ND	ND	ND	11.4	3.7	338.3	ND	ND	0	0
82990	2019-07-17T21:00:00	35.8	ND	ND	ND	ND	12.7	3.5	329	ND	ND	0	0
82991	2019-07-17T22:00:00	11.5	ND	ND	ND	ND	10.1	3.1	317.4	ND	ND	0	0
82992	2019-07-17T23:00:00	8.8	ND	ND	ND	ND	6.5	1.5	281.4	ND	ND	0	0
82993	2019-07-18T00:00:00	38.5	ND	ND	ND	ND	6.4	1.4	250.8	ND	ND	0	0
82994	2019-07-18T01:00:00	71.1	ND	ND	ND	ND	1.9	0.6	24.3	ND	ND	0	0
82995	2019-07-18T02:00:00	102.4	ND	ND	ND	ND	2	0.3	77.1	ND	ND	0	0
82996	2019-07-18T03:00:00	105.3	ND	ND	ND	ND	1.8	0.4	61	ND	ND	0	0
82997	2019-07-18T04:00:00	88	ND	ND	ND	ND	3.5	0.8	222.7	ND	ND	0	0
82998	2019-07-18T05:00:00	77.7	ND	ND	ND	ND	2.1	1	199	ND	ND	0	0
82999	2019-07-18T06:00:00	71	ND	ND	ND	ND	0.6	0.6	205.7	ND	ND	0	0
83000	2019-07-18T07:00:00	69.2	ND	ND	ND	ND	0.8	0.2	306.6	ND	ND	0	0
83001	2019-07-18T08:00:00	75.7	ND	ND	ND	ND	2.4	0.8	194.9	ND	ND	155.5	0
83002	2019-07-18T09:00:00	121.5	ND	ND	ND	ND	4.6	1	201.2	ND	ND	469	0
83003	2019-07-18T10:00:00	105.1	ND	ND	ND	ND	23	1	185	ND	ND	506.5	0
83004	2019-07-18T11:00:00	81.7	ND	ND	ND	ND	47.9	0.9	136.9	ND	ND	649.4	0
83005	2019-07-18T12:00:00	99.9	ND	ND	ND	ND	53.7	1.2	126	ND	ND	650.4	0
83006	2019-07-18T13:00:00	24.1	ND	ND	ND	ND	75.9	1	129	ND	ND	647.7	0
83007	2019-07-18T14:00:00	38	ND	ND	ND	ND	98.5	1	167.3	ND	ND	644.1	0
83008	2019-07-18T15:00:00	118.5	ND	ND	ND	ND	91.7	0.9	54.2	ND	ND	521.5	0
83009	2019-07-18T16:00:00	95.6	ND	ND	ND	ND	43.7	2.2	338.8	ND	ND	458.3	0
83010	2019-07-18T17:00:00	60.9	ND	ND	ND	ND	26.2	3.7	330.4	ND	ND	629.3	0
83011	2019-07-18T18:00:00	55.9	ND	ND	ND	ND	17.1	3.7	326.7	ND	ND	460.3	0
83012	2019-07-18T19:00:00	39.7	ND	ND	ND	ND	9.5	3.4	324.4	ND	ND	0	0
83013	2019-07-18T20:00:00	24.7	ND	ND	ND	ND	6.8	3.2	317.2	ND	ND	0	0
83014	2019-07-18T21:00:00	22.6	ND	ND	ND	ND	4.9	1.7	332.2	ND	ND	0	0
83015	2019-07-18T22:00:00	63	ND	ND	ND	ND	5.8	1.6	285.9	ND	ND	0	0
83016	2019-07-18T23:00:00	27.9	ND	ND	ND	ND	11.5	2.4	306.5	ND	ND	0	0
83017	2019-07-19T00:00:00	24.1	ND	ND	ND	ND	6.3	0.6	332	ND	ND	0	0
83018	2019-07-19T01:00:00	57	ND	ND	ND	ND	1.1	0.5	98.1	ND	ND	0	0
83019	2019-07-19T02:00:00	77.2	ND	ND	ND	ND	1.9	1.1	203.2	ND	ND	0	0
83020	2019-07-19T03:00:00	65.2	ND	ND	ND	ND	5.2	1.3	227.5	ND	ND	0	0
83021	2019-07-19T04:00:00	61.6	ND	ND	ND	ND	4.8	0.7	197.7	ND	ND	0	0
83022	2019-07-19T05:00:00	62.3	ND	ND	ND	ND	2.1	0.7	188.3	ND	ND	0	0
83023	2019-07-19T06:00:00	81.2	ND	ND	ND	ND	0.8	0.3	202.7	ND	ND	0	0
83024	2019-07-19T07:00:00	78.5	ND	ND	ND	ND	1.1	0.9	288.9	ND	ND	0	0
83025	2019-07-19T08:00:00	75.2	ND	ND	ND	ND	3.1	0.3	214.9	ND	ND	102.8	0
83026	2019-07-19T09:00:00	92.1	ND	ND	ND	ND	10.6	0.8	127.5	ND	ND	357	0
83027	2019-07-19T10:00:00	129.8	ND	ND	ND	ND	20.4	1.1	140.7	ND	ND	534.1	0
83028	2019-07-19T11:00:00	123.3	ND	ND	ND	ND	38	0.7	205.1	ND	ND	643.4	0
83029	2019-07-19T12:00:00	88.5	ND	ND	ND	ND	51.8	0.9	129.7	ND	ND	648.5	0
83030	2019-07-19T13:00:00	76.6	ND	ND	ND	ND	72	0.9	166.3	ND	ND	649.5	0
83031	2019-07-19T14:00:00	74.8	ND	ND	ND	ND	74.9	0.5	138.9	ND	ND	649.2	0
83032	2019-07-19T15:00:00	74.9	ND	ND	ND	ND	90.5	0.6	145.2	ND	ND	649.5	0
83033	2019-07-19T16:00:00	108.5	ND	ND	ND	ND	73.5	1.5	114.3	ND	ND	648.3	0
83034	2019-07-19T17:00:00	191.3	ND	ND	ND	ND	48	2.2	113.4	ND	ND	581.4	0
83035	2019-07-19T18:00:00	112.5	ND	ND	ND	ND	40.9	0.8	343.3	ND	ND	393.8	0
83036	2019-07-19T19:00:00	86.9	ND	ND	ND	ND	30.6	3.2	313.9	ND	ND	0	0
83037	2019-07-19T20:00:00	47.8	ND	ND	ND	ND	15.7	2.5	316.6	ND	ND	0	0
83038	2019-07-19T21:00:00	36.1	ND	ND	ND	ND	18.2	3	317	ND	ND	0	0
83039	2019-07-19T22:00:00	24.5	ND	ND	ND	ND	14.1	1.8	326.8	ND	ND	0	0
83040	2019-07-19T23:00:00	25.5	ND	ND	ND	ND	7.7	1	292.4	ND	ND	0	0
83041	2019-07-20T00:00:00	54.9	ND	ND	ND	ND	4.4	1.5	230.2	ND	ND	0	0
83042	2019-07-20T01:00:00	70	ND	ND	ND	ND	14.6	1.8	302.7	ND	ND	0	0
83043	2019-07-20T02:00:00	36.8	ND	ND	ND	ND	9	0.7	289.4	ND	ND	0	0
83044	2019-07-20T03:00:00	59	ND	ND	ND	ND	9.8	0.8	257.6	ND	ND	0	0
83045	2019-07-20T04:00:00	40.3	ND	ND	ND	ND	9.8	0.7	302.3	ND	ND	0	0
83046	2019-07-20T05:00:00	57.8	ND	ND	ND	ND	1.1	0.7	116.7	ND	ND	0	0
83047	2019-07-20T06:00:00	124.6	ND	ND	ND	ND	0.8	0.7	211.3	ND	ND	0	0
83048	2019-07-20T07:00:00	167.7	ND	ND	ND	ND	1.2	0.5	131.9	ND	ND	0	0
83049	2019-07-20T08:00:00	167.9	ND	ND	ND	ND	1.7	0.5	156.4	ND	ND	74.6	0
83050	2019-07-20T09:00:00	167.4	ND	ND	ND	ND	9.1	0.5	152.1	ND	ND	253.2	0
83051	2019-07-20T10:00:00	137.6	ND	ND	ND	ND	26.4	1.5	169.9	ND	ND	561.9	0
83052	2019-07-20T11:00:00	102	ND	ND	ND	ND	43	1.2	173.5	ND	ND	648.5	0
83053	2019-07-20T12:00:00	78.6	ND	ND	ND	ND	70.4	1.1	165.6	ND	ND	648.2	0
83054	2019-07-20T13:00:00	73.9	ND	ND	ND	ND	83.2	1.1	145.4	ND	ND	649.5	0
83055	2019-07-20T14:00:00	73	ND	ND	ND	ND	81.7	0.9	176	ND	ND	630.6	0
83056	2019-07-20T15:00:00	62.2	ND	ND	ND	ND	86.9	1.2	212.6	ND	ND	640.9	0
83057	2019-07-20T16:00:00	69.9	ND	ND	ND	ND	75	0.9	165.9	ND	ND	645.8	0
83058	2019-07-20T17:00:00	69.9	ND	ND	ND	ND	49.1	1.7	320.3	ND	ND	630.1	0
83059	2019-07-20T18:00:00	44.4	ND	ND	ND	ND	32.9	3.6	321.1	ND	ND	367.4	0
83060	2019-07-20T19:00:00	34.4	ND	ND	ND	ND	29.2	3.6	329	ND	ND	0	0
83061	2019-07-20T20:00:00	23.6	ND	ND	ND	ND	23.6	3.1	327.9	ND	ND	0	0
83062	2019-07-20T21:00:00	19.5	ND	ND	ND	ND	18.7	3	326.4	ND	ND	0	0
83063	2019-07-20T22:00:00	25.3	ND	ND	ND	ND	19.4	3.6	309	ND	ND	0	0
83064	2019-07-20T23:00:00	14.7	ND	ND	ND	ND	15.3	2.7	320	ND	ND	0	0
83065	2019-07-21T00:00:00	19.9	ND	ND	ND	ND	7.1	0.5	96.8	ND	ND	0	0
83066	2019-07-21T01:00:00	30.3	ND	ND	ND	ND	8	0.8	290	ND	ND	0	0
83067	2019-07-21T02:00:00	24.8	ND	ND	ND	ND	4	0.5	80.6	ND	ND	0	0
83068	2019-07-21T03:00:00	37	ND	ND	ND	ND	9.8	1.3	315.2	ND	ND	0	0
83069	2019-07-21T04:00:00	24.5	ND	ND	ND	ND	1.6	0.9	127.3	ND	ND	0	0
83070	2019-07-21T05:00:00	44.8	ND	ND	ND	ND	3	1	265.7	ND	ND	0	0
83071	2019-07-21T06:00:00	41.8	ND	ND	ND	ND	1.4	2	238.7	ND	ND	0	0
83072	2019-07-21T07:00:00	42.5	ND	ND	ND	ND	3	0.7	240.2	ND	ND	0	0
83073	2019-07-21T08:00:00	60.6	ND	ND	ND	ND	4.7	0.9	236.3	ND	ND	47.1	0
83074	2019-07-21T09:00:00	65.1	ND	ND	ND	ND	15.8	0.6	226	ND	ND	320.3	0
83075	2019-07-21T10:00:00	61.5	ND	ND	ND	ND	30.4	0.7	181.1	ND	ND	647.9	0
83076	2019-07-21T11:00:00	55	ND	ND	ND	ND	44.7	1	184.5	ND	ND	648.2	0
83077	2019-07-21T12:00:00	58.1	ND	ND	ND	ND	63.9	1.2	210.2	ND	ND	648.6	0
83078	2019-07-21T13:00:00	61.3	ND	ND	ND	ND	88.6	0.4	128.2	ND	ND	648.9	0
83079	2019-07-21T14:00:00	90.1	ND	ND	ND	ND	95.9	1.4	143.2	ND	ND	633.3	0
83080	2019-07-21T15:00:00	84.2	ND	ND	ND	ND	55.3	2.4	339	ND	ND	589.4	0
83081	2019-07-21T16:00:00	38	ND	ND	ND	ND	26.9	3.6	323.9	ND	ND	348.3	0
83082	2019-07-21T17:00:00	18.5	ND	ND	ND	ND	28.2	4.3	319.7	ND	ND	538	0
83083	2019-07-21T18:00:00	21.9	ND	ND	ND	ND	26	4.6	323.5	ND	ND	343.2	0
83084	2019-07-21T19:00:00	15	ND	ND	ND	ND	23.5	3.4	325.9	ND	ND	0	0
83085	2019-07-21T20:00:00	11.7	ND	ND	ND	ND	20.3	4	323.9	ND	ND	0	0
83086	2019-07-21T21:00:00	13.7	ND	ND	ND	ND	13.3	1.8	337	ND	ND	0	0
83087	2019-07-21T22:00:00	15.2	ND	ND	ND	ND	17.7	2.8	311.7	ND	ND	0	0
83088	2019-07-21T23:00:00	11.5	ND	ND	ND	ND	17.8	2.4	323.6	ND	ND	0	0
83089	2019-07-22T00:00:00	12.9	ND	ND	ND	ND	6.9	0.4	120.3	ND	ND	0	0
83090	2019-07-22T01:00:00	39.3	ND	ND	ND	ND	3.4	0.8	164.3	ND	ND	0	0
83091	2019-07-22T02:00:00	33.9	ND	ND	ND	ND	6.4	1	153	ND	ND	0	0
83092	2019-07-22T03:00:00	36.9	ND	ND	ND	ND	5.9	1.1	177.5	ND	ND	0	0
83093	2019-07-22T04:00:00	46.5	ND	ND	ND	ND	5	0.7	201.8	ND	ND	0	0
83094	2019-07-22T05:00:00	49.7	ND	ND	ND	ND	3.5	0.4	181.3	ND	ND	0	0
83095	2019-07-22T06:00:00	50	ND	ND	ND	ND	0.9	0.5	196	ND	ND	0	0
83096	2019-07-22T07:00:00	79.1	ND	ND	ND	ND	0.9	0.8	154.4	ND	ND	0	0
83097	2019-07-22T08:00:00	94.9	ND	ND	ND	ND	1.5	1	197.2	ND	ND	42.8	0
83098	2019-07-22T09:00:00	101.8	ND	ND	ND	ND	4.6	1.4	166.9	ND	ND	231.3	0
83099	2019-07-22T10:00:00	94.8	ND	ND	ND	ND	13.6	1	190.4	ND	ND	593.1	0
83100	2019-07-22T11:00:00	90	ND	ND	ND	ND	29.7	0.7	157.9	ND	ND	604.4	0
83101	2019-07-22T12:00:00	68.1	ND	ND	ND	ND	57.9	0.5	91	ND	ND	648.7	0
83102	2019-07-22T13:00:00	74.4	ND	ND	ND	ND	75.6	0.9	62.9	ND	ND	648.8	0
83103	2019-07-22T14:00:00	72.7	ND	ND	ND	ND	70.8	0.9	96.8	ND	ND	647.8	0
83104	2019-07-22T15:00:00	83.3	ND	ND	ND	ND	36.1	2.4	349.5	ND	ND	585.7	0
83105	2019-07-22T16:00:00	48	ND	ND	ND	ND	19.9	3.7	331.5	ND	ND	233.1	0
83106	2019-07-22T17:00:00	25.5	ND	ND	ND	ND	19.4	3.2	334.6	ND	ND	499.1	0
83107	2019-07-22T18:00:00	32.1	ND	ND	ND	ND	12.6	2.9	337.5	ND	ND	308.1	0
83108	2019-07-22T19:00:00	15	ND	ND	ND	ND	9.3	2.5	339.3	ND	ND	0	0
83109	2019-07-22T20:00:00	8.7	ND	ND	ND	ND	11.4	3.1	332.1	ND	ND	0	0
83110	2019-07-22T21:00:00	14.4	ND	ND	ND	ND	11	1.7	349.8	ND	ND	0	0
83111	2019-07-22T22:00:00	12.3	ND	ND	ND	ND	15.6	2.7	306.4	ND	ND	0	0
83112	2019-07-22T23:00:00	9.8	ND	ND	ND	ND	16.8	2.5	301.8	ND	ND	0	0
83113	2019-07-23T00:00:00	25.7	ND	ND	ND	ND	11.4	2.3	246.9	ND	ND	0	0
83114	2019-07-23T01:00:00	23.4	ND	ND	ND	ND	14.9	1.4	256	ND	ND	0	0
83115	2019-07-23T02:00:00	15.3	ND	ND	ND	ND	10.3	1.2	240.8	ND	ND	0	0
83116	2019-07-23T03:00:00	14.2	ND	ND	ND	ND	6.3	1	95.3	ND	ND	0	0
83117	2019-07-23T04:00:00	19.4	ND	ND	ND	ND	3.8	0.3	137.9	ND	ND	0	0
83118	2019-07-23T05:00:00	26.1	ND	ND	ND	ND	1.7	0.8	118.3	ND	ND	0	1.02
83119	2019-07-23T06:00:00	24.5	ND	ND	ND	ND	1.1	0.9	132	ND	ND	0	0.25
83120	2019-07-23T07:00:00	45.4	ND	ND	ND	ND	1	1	117.2	ND	ND	0	0
83121	2019-07-23T08:00:00	63.5	ND	ND	ND	ND	1.5	0.7	157.2	ND	ND	44.5	0
83122	2019-07-23T09:00:00	64.4	ND	ND	ND	ND	2.6	0.8	187.7	ND	ND	101	0
83123	2019-07-23T10:00:00	71.7	ND	ND	ND	ND	11.6	0.9	238.3	ND	ND	405.3	0
83124	2019-07-23T11:00:00	55.9	ND	ND	ND	ND	18.3	0.4	236.2	ND	ND	640.7	0
83125	2019-07-23T12:00:00	74.7	ND	ND	ND	ND	23.9	1.2	123.1	ND	ND	573.4	0
83126	2019-07-23T13:00:00	67.9	ND	ND	ND	ND	26	2.2	92.5	ND	ND	532.9	0
83127	2019-07-23T14:00:00	52.8	ND	ND	ND	ND	33.9	1.6	70.2	ND	ND	634.8	0
83128	2019-07-23T15:00:00	63.7	ND	ND	ND	ND	21.4	1.2	60.3	ND	ND	646.8	0
83129	2019-07-23T16:00:00	67.5	ND	ND	ND	ND	21.3	2.5	340.4	ND	ND	585.1	0
83130	2019-07-23T17:00:00	35.3	ND	ND	ND	ND	15.5	3.3	332.6	ND	ND	643.9	0
83131	2019-07-23T18:00:00	16.4	ND	ND	ND	ND	8.3	2.6	329.4	ND	ND	388.3	0
83132	2019-07-23T19:00:00	12.2	ND	ND	ND	ND	9.9	3.9	323.3	ND	ND	0	0
83133	2019-07-23T20:00:00	6.8	ND	ND	ND	ND	7.3	3.1	318.3	ND	ND	0	0
83134	2019-07-23T21:00:00	13.4	ND	ND	ND	ND	11.3	2.1	280	ND	ND	0	0
83135	2019-07-23T22:00:00	27.1	ND	ND	ND	ND	10.1	2.1	222	ND	ND	0	0
83136	2019-07-23T23:00:00	37.8	ND	ND	ND	ND	7.3	1	199.4	ND	ND	0	0
83137	2019-07-24T00:00:00	35.5	ND	ND	ND	ND	4.1	0.5	137	ND	ND	0	0
83138	2019-07-24T01:00:00	41.8	ND	ND	ND	ND	1.4	0.7	148.4	ND	ND	0	0
83139	2019-07-24T02:00:00	40.3	ND	ND	ND	ND	1.4	1.1	69.4	ND	ND	0	0
83140	2019-07-24T03:00:00	59.5	ND	ND	ND	ND	0.9	0.5	99.3	ND	ND	0	0
83141	2019-07-24T04:00:00	71.6	ND	ND	ND	ND	1	0.6	117.7	ND	ND	0	0
83142	2019-07-24T05:00:00	66.3	ND	ND	ND	ND	1.3	0.9	112.9	ND	ND	0	0
83143	2019-07-24T06:00:00	64.6	ND	ND	ND	ND	1	0.5	169.6	ND	ND	0	0
83144	2019-07-24T07:00:00	81.3	ND	ND	ND	ND	1	0.4	174.5	ND	ND	0	0
83145	2019-07-24T08:00:00	111.9	ND	ND	ND	ND	2	0.4	89.3	ND	ND	50.8	0
83146	2019-07-24T09:00:00	145.5	ND	ND	ND	ND	7.5	0.9	105.8	ND	ND	257.5	0
83147	2019-07-24T10:00:00	119.2	ND	ND	ND	ND	18.1	0.8	166	ND	ND	607.2	0
83148	2019-07-24T11:00:00	99.8	ND	ND	ND	ND	39.5	0.7	135	ND	ND	609.4	0
83149	2019-07-24T12:00:00	90	ND	ND	ND	ND	68.8	0.9	162.7	ND	ND	620.1	0
83150	2019-07-24T13:00:00	81.7	ND	ND	ND	ND	72	1.4	152.4	ND	ND	592.7	0
83151	2019-07-24T14:00:00	81.4	ND	ND	ND	ND	84.9	0.9	117	ND	ND	649.3	0
83152	2019-07-24T15:00:00	74.2	ND	ND	ND	ND	64.3	0.9	60.9	ND	ND	638.2	0
83153	2019-07-24T16:00:00	57.2	ND	ND	ND	ND	21.5	3.1	329.5	ND	ND	448	0
83154	2019-07-24T17:00:00	41.3	ND	ND	ND	ND	17.8	3.5	325.6	ND	ND	490.4	0
83155	2019-07-24T18:00:00	28	ND	ND	ND	ND	9.5	2.8	340.8	ND	ND	375.8	0
83156	2019-07-24T19:00:00	18.6	ND	ND	ND	ND	7.5	3.3	331.8	ND	ND	0	0
83157	2019-07-24T20:00:00	12.7	ND	ND	ND	ND	8.1	3.1	330.4	ND	ND	0	0
83158	2019-07-24T21:00:00	16.9	ND	ND	ND	ND	8	2.8	336.8	ND	ND	0	0
83159	2019-07-24T22:00:00	10.7	ND	ND	ND	ND	10.4	1.6	359	ND	ND	0	0
83160	2019-07-24T23:00:00	6.4	ND	ND	ND	ND	8.7	1.1	317.9	ND	ND	0	0
83161	2019-07-25T00:00:00	13.7	ND	ND	ND	ND	3.9	0.7	306.7	ND	ND	0	0
83162	2019-07-25T01:00:00	19.4	ND	ND	ND	ND	3.8	1	257.7	ND	ND	0	0
83163	2019-07-25T02:00:00	21.3	ND	ND	ND	ND	3.2	1.7	234.3	ND	ND	0	0
83164	2019-07-25T03:00:00	27.3	ND	ND	ND	ND	2.3	0.9	221.9	ND	ND	0	0
83165	2019-07-25T04:00:00	32.4	ND	ND	ND	ND	1.4	0.6	185.1	ND	ND	0	0
83166	2019-07-25T05:00:00	41	ND	ND	ND	ND	1.5	0.5	228.3	ND	ND	0	0
83167	2019-07-25T06:00:00	30.3	ND	ND	ND	ND	0.7	0.4	239.2	ND	ND	0	0
83168	2019-07-25T07:00:00	53.8	ND	ND	ND	ND	0.9	1	172.2	ND	ND	0	0
83169	2019-07-25T08:00:00	65.5	ND	ND	ND	ND	1.7	0.3	113.4	ND	ND	65.4	0
83170	2019-07-25T09:00:00	90.4	ND	ND	ND	ND	2.2	0.5	189.8	ND	ND	228.3	0
83171	2019-07-25T10:00:00	95.9	ND	ND	ND	ND	7.7	1.5	182.3	ND	ND	344.5	0
83172	2019-07-25T11:00:00	74.3	ND	ND	ND	ND	27.5	0.5	219.2	ND	ND	637.5	0
83173	2019-07-25T12:00:00	78.1	ND	ND	ND	ND	49.7	0.8	88.7	ND	ND	648	0
83174	2019-07-25T13:00:00	74.6	ND	ND	ND	ND	69.9	0.7	113.5	ND	ND	649.2	0
83175	2019-07-25T14:00:00	65.4	ND	ND	ND	ND	66.8	1	102.9	ND	ND	611.6	0
83176	2019-07-25T15:00:00	66.2	ND	ND	ND	ND	28.9	2.1	6.1	ND	ND	443.7	0
83177	2019-07-25T16:00:00	42.4	ND	ND	ND	ND	17.3	4.3	331.2	ND	ND	414.4	0
83178	2019-07-25T17:00:00	43.6	ND	ND	ND	ND	16	4	323.5	ND	ND	483.4	0
83179	2019-07-25T18:00:00	36.9	ND	ND	ND	ND	19.2	3.6	251.3	ND	ND	368.4	0
83180	2019-07-25T19:00:00	22.4	ND	ND	ND	ND	8.7	2.6	257.5	ND	ND	0	3.56
83181	2019-07-25T20:00:00	27.1	ND	ND	ND	ND	1.1	0.4	239.7	ND	ND	0	0
83182	2019-07-25T21:00:00	38.1	ND	ND	ND	ND	2.7	1.7	82.9	ND	ND	0	0.25
83183	2019-07-25T22:00:00	28.2	ND	ND	ND	ND	0.9	1	60.4	ND	ND	0	0.25
83184	2019-07-25T23:00:00	33.4	ND	ND	ND	ND	1.6	0.3	263.9	ND	ND	0	0.25
83185	2019-07-26T00:00:00	26.9	ND	ND	ND	ND	0.8	1	219.2	ND	ND	0	0.51
83186	2019-07-26T01:00:00	25.2	ND	ND	ND	ND	4.6	0.8	222	ND	ND	0	0
83187	2019-07-26T02:00:00	19.6	ND	ND	ND	ND	2.4	0.8	248.2	ND	ND	0	0
83188	2019-07-26T03:00:00	18	ND	ND	ND	ND	0.9	0.1	312.3	ND	ND	0	0
83189	2019-07-26T04:00:00	26.5	ND	ND	ND	ND	0.7	0.9	58.5	ND	ND	0	0
83190	2019-07-26T05:00:00	45.4	ND	ND	ND	ND	0.7	0.5	88.7	ND	ND	0	0
83191	2019-07-26T06:00:00	71.7	ND	ND	ND	ND	0.7	0.3	278.8	ND	ND	0	0
83192	2019-07-26T07:00:00	46.9	ND	ND	ND	ND	0.8	0.3	49.9	ND	ND	0	0
83193	2019-07-26T08:00:00	74.6	ND	ND	ND	ND	1.3	0.6	116.7	ND	ND	69.9	0
83194	2019-07-26T09:00:00	119.6	ND	ND	ND	ND	4.4	0.6	217.5	ND	ND	269.6	0
83195	2019-07-26T10:00:00	82.3	ND	ND	ND	ND	23.7	0.4	190.5	ND	ND	480.7	0
83196	2019-07-26T11:00:00	72.2	ND	ND	ND	ND	34.9	1.2	172	ND	ND	632.6	0
83197	2019-07-26T12:00:00	65.6	ND	ND	ND	ND	46.1	1	148.5	ND	ND	644.5	0
83198	2019-07-26T13:00:00	56.8	ND	ND	ND	ND	66.5	0.7	94.5	ND	ND	649.1	0
83199	2019-07-26T14:00:00	64.9	ND	ND	ND	ND	69.1	1.7	72.8	ND	ND	649.1	0
83200	2019-07-26T15:00:00	88.5	ND	ND	ND	ND	64.6	1.5	73.8	ND	ND	645.6	0
83201	2019-07-26T16:00:00	88	ND	ND	ND	ND	56.9	2.1	104.9	ND	ND	647.3	0
83202	2019-07-26T17:00:00	71	ND	ND	ND	ND	50.2	0.9	79	ND	ND	459.3	0
83203	2019-07-26T18:00:00	52.1	ND	ND	ND	ND	18.6	3.2	332.5	ND	ND	368	0
83204	2019-07-26T19:00:00	33	ND	ND	ND	ND	14.2	3.6	320.7	ND	ND	0	0
83205	2019-07-26T20:00:00	12.5	ND	ND	ND	ND	11.3	3.5	319.6	ND	ND	0	0
83206	2019-07-26T21:00:00	18	ND	ND	ND	ND	10.9	1.9	332	ND	ND	0	0
83207	2019-07-26T22:00:00	79	ND	ND	ND	ND	4.3	0.4	242.5	ND	ND	0	0
83208	2019-07-26T23:00:00	50.1	ND	ND	ND	ND	8.8	1.9	290.5	ND	ND	0	0
83209	2019-07-27T00:00:00	20.9	ND	ND	ND	ND	5.2	1.1	227.2	ND	ND	0	0
83210	2019-07-27T01:00:00	38.7	ND	ND	ND	ND	1.9	1.2	190.3	ND	ND	0	0
83211	2019-07-27T02:00:00	49	ND	ND	ND	ND	5.4	0.7	214.7	ND	ND	0	0
83212	2019-07-27T03:00:00	33.8	ND	ND	ND	ND	3.9	0.7	216.2	ND	ND	0	0
83213	2019-07-27T04:00:00	33	ND	ND	ND	ND	2.2	0.8	214.8	ND	ND	0	0
83214	2019-07-27T05:00:00	39	ND	ND	ND	ND	3	0.7	155	ND	ND	0	0
83215	2019-07-27T06:00:00	46.2	ND	ND	ND	ND	1.1	0.9	106.5	ND	ND	0	0
83216	2019-07-27T07:00:00	77.1	ND	ND	ND	ND	1.3	1	125.3	ND	ND	0	0
83217	2019-07-27T08:00:00	87	ND	ND	ND	ND	1.4	0.4	165.6	ND	ND	29.8	0
83218	2019-07-27T09:00:00	90.5	ND	ND	ND	ND	5.6	1	114.2	ND	ND	201.8	0
83219	2019-07-27T10:00:00	92.9	ND	ND	ND	ND	20.3	1	147.4	ND	ND	473.9	0
83220	2019-07-27T11:00:00	91.6	ND	ND	ND	ND	37.7	0.8	162.8	ND	ND	645.5	0
83221	2019-07-27T12:00:00	96.7	ND	ND	ND	ND	62	1.1	130.4	ND	ND	645.5	0
83222	2019-07-27T13:00:00	80.3	ND	ND	ND	ND	67.2	1	182.2	ND	ND	637.6	0
83223	2019-07-27T14:00:00	80.6	ND	ND	ND	ND	74.7	0.9	132.7	ND	ND	634.3	0
83224	2019-07-27T15:00:00	67.1	ND	ND	ND	ND	75.3	1	86.9	ND	ND	622.9	0
83225	2019-07-27T16:00:00	66.4	ND	ND	ND	ND	61.6	1.2	97.8	ND	ND	638.9	0
83226	2019-07-27T17:00:00	47.5	ND	ND	ND	ND	55	1.6	351.2	ND	ND	548.5	0
83227	2019-07-27T18:00:00	31.7	ND	ND	ND	ND	34.2	3.4	325.2	ND	ND	403.4	0
83228	2019-07-27T19:00:00	38.6	ND	ND	ND	ND	24.7	3.6	321.9	ND	ND	0	0
83229	2019-07-27T20:00:00	17.1	ND	ND	ND	ND	20.7	3.6	318.4	ND	ND	0	0
83230	2019-07-27T21:00:00	18.7	ND	ND	ND	ND	19.2	3	320.3	ND	ND	0	0
83231	2019-07-27T22:00:00	44.2	ND	ND	ND	ND	3.8	0.4	184.5	ND	ND	0	0
83232	2019-07-27T23:00:00	45.5	ND	ND	ND	ND	17.7	2.3	306.8	ND	ND	0	0
83233	2019-07-28T00:00:00	25.8	ND	ND	ND	ND	18.3	2.6	316.2	ND	ND	0	0
83234	2019-07-28T01:00:00	15.6	ND	ND	ND	ND	23	2.6	308.5	ND	ND	0	0
83235	2019-07-28T02:00:00	23.1	ND	ND	ND	ND	5.6	0.4	73.4	ND	ND	0	0
83236	2019-07-28T03:00:00	51.3	ND	ND	ND	ND	1.8	0.5	94.6	ND	ND	0	0
83237	2019-07-28T04:00:00	48.8	ND	ND	ND	ND	2.5	0.9	205.7	ND	ND	0	0
83238	2019-07-28T05:00:00	45.2	ND	ND	ND	ND	2.5	0.8	206.8	ND	ND	0	0
83239	2019-07-28T06:00:00	45.9	ND	ND	ND	ND	2.1	0.7	230	ND	ND	0	0
83240	2019-07-28T07:00:00	61.1	ND	ND	ND	ND	3	1	249.1	ND	ND	0	0
83241	2019-07-28T08:00:00	58.7	ND	ND	ND	ND	11.8	1.4	247.9	ND	ND	48.3	0
83242	2019-07-28T09:00:00	57.6	ND	ND	ND	ND	16.1	1.3	198	ND	ND	518.7	0
83243	2019-07-28T10:00:00	79.6	ND	ND	ND	ND	31.2	1.2	184.2	ND	ND	648.9	0
83244	2019-07-28T11:00:00	73.4	ND	ND	ND	ND	50.8	0.6	160.8	ND	ND	647.7	0
83245	2019-07-28T12:00:00	71.3	ND	ND	ND	ND	59.7	1	105.6	ND	ND	648.9	0
83246	2019-07-28T13:00:00	65.6	ND	ND	ND	ND	69.8	1	69.3	ND	ND	649.2	0
83247	2019-07-28T14:00:00	66.3	ND	ND	ND	ND	69.3	1.6	114.4	ND	ND	649.7	0
83248	2019-07-28T15:00:00	73.4	ND	ND	ND	ND	81.2	0.6	92.4	ND	ND	649.5	0
83249	2019-07-28T16:00:00	49.6	ND	ND	ND	ND	46.9	1.5	289.6	ND	ND	587.4	0
83250	2019-07-28T17:00:00	32.8	ND	ND	ND	ND	40.1	1.9	314.7	ND	ND	646.5	0
83251	2019-07-28T18:00:00	33.8	ND	ND	ND	ND	31.2	2.2	332.1	ND	ND	544.1	0
83252	2019-07-28T19:00:00	39.9	ND	ND	ND	ND	20.2	3.3	317.6	ND	ND	0	0
83253	2019-07-28T20:00:00	18.6	ND	ND	ND	ND	17	3.4	317.2	ND	ND	0	0
83254	2019-07-28T21:00:00	16.2	ND	ND	ND	ND	13.4	2.3	321.4	ND	ND	0	0
83255	2019-07-28T22:00:00	37.4	ND	ND	ND	ND	1.5	0.8	97.4	ND	ND	0	0
83256	2019-07-28T23:00:00	46.3	ND	ND	ND	ND	6.9	0.9	304.9	ND	ND	0	0
83257	2019-07-29T00:00:00	20.4	ND	ND	ND	ND	7.3	1.2	279.5	ND	ND	0	0
83258	2019-07-29T01:00:00	39	ND	ND	ND	ND	2.1	1.1	217.1	ND	ND	0	0
83259	2019-07-29T02:00:00	55.4	ND	ND	ND	ND	6.1	1.1	201.2	ND	ND	0	0
83260	2019-07-29T03:00:00	43.5	ND	ND	ND	ND	7.2	1	239.6	ND	ND	0	0
83261	2019-07-29T04:00:00	31.4	ND	ND	ND	ND	8.1	1	228.4	ND	ND	0	0
83262	2019-07-29T05:00:00	32.9	ND	ND	ND	ND	5.6	0.8	213.6	ND	ND	0	0
83263	2019-07-29T06:00:00	49.1	ND	ND	ND	ND	3	0.8	251.8	ND	ND	0	0
83264	2019-07-29T07:00:00	57	ND	ND	ND	ND	1	0.4	306.5	ND	ND	0	0
83265	2019-07-29T08:00:00	65.9	ND	ND	ND	ND	2.1	0.5	208.7	ND	ND	66.3	0
83266	2019-07-29T09:00:00	106.3	ND	ND	ND	ND	8.3	1.8	167.2	ND	ND	451	0
83267	2019-07-29T10:00:00	94.8	ND	ND	ND	ND	22.7	1.1	194.8	ND	ND	647.9	0
83268	2019-07-29T11:00:00	76.1	ND	ND	ND	ND	38.3	1.1	183.8	ND	ND	648.5	0
83269	2019-07-29T12:00:00	66.3	ND	ND	ND	ND	61.9	1	218	ND	ND	645.7	0
83270	2019-07-29T13:00:00	74.3	ND	ND	ND	ND	80.4	1	192.5	ND	ND	648.7	0
83271	2019-07-29T14:00:00	73	ND	ND	ND	ND	100.2	1.5	82.5	ND	ND	634.5	0
83272	2019-07-29T15:00:00	71.6	ND	ND	ND	ND	100.3	1.2	17.4	ND	ND	649.5	0
83273	2019-07-29T16:00:00	55.9	ND	ND	ND	ND	34.6	3.6	327.2	ND	ND	613.8	0
83274	2019-07-29T17:00:00	55.9	ND	ND	ND	ND	21.8	4.7	327.3	ND	ND	490.4	0
83275	2019-07-29T18:00:00	41.1	ND	ND	ND	ND	16.5	3.7	334.7	ND	ND	436.8	0
83276	2019-07-29T19:00:00	37	ND	ND	ND	ND	11.9	4.1	325.3	ND	ND	0	0
83277	2019-07-29T20:00:00	28.8	ND	ND	ND	ND	17.6	4.6	329.1	ND	ND	0	0
83278	2019-07-29T21:00:00	20.9	ND	ND	ND	ND	10.1	0.6	29	ND	ND	0	0
83279	2019-07-29T22:00:00	30.6	ND	ND	ND	ND	14.3	2.3	314.1	ND	ND	0	0
83280	2019-07-29T23:00:00	18.3	ND	ND	ND	ND	15.6	2.2	322.9	ND	ND	0	0
83281	2019-07-30T00:00:00	14.3	ND	ND	ND	ND	6.3	2	243.7	ND	ND	0	0
83282	2019-07-30T01:00:00	32	ND	ND	ND	ND	4.3	2	241.7	ND	ND	0	0
83283	2019-07-30T02:00:00	42.7	ND	ND	ND	ND	4.8	1.3	238.4	ND	ND	0	0
83284	2019-07-30T03:00:00	45.3	ND	ND	ND	ND	3.5	1.1	216.6	ND	ND	0	0
83285	2019-07-30T04:00:00	40.8	ND	ND	ND	ND	2.2	1	217.6	ND	ND	0	0
83286	2019-07-30T05:00:00	39.1	ND	ND	ND	ND	4.2	0.8	260.7	ND	ND	0	0
83287	2019-07-30T06:00:00	47.9	ND	ND	ND	ND	1.6	0.2	357.6	ND	ND	0	0
83288	2019-07-30T07:00:00	66.1	ND	ND	ND	ND	0.9	0.8	217.1	ND	ND	0	0
83289	2019-07-30T08:00:00	84.6	ND	ND	ND	ND	1.8	0.4	124.8	ND	ND	48.3	0
83290	2019-07-30T09:00:00	107.9	ND	ND	ND	ND	ND	1.3	159.4	ND	ND	390.8	0
83291	2019-07-30T10:00:00	ND	ND	ND	ND	ND	ND	1.3	167.3	ND	ND	647.5	0
83292	2019-07-30T11:00:00	ND	ND	ND	ND	ND	39.3	1.2	161.5	ND	ND	648.7	0
83293	2019-07-30T12:00:00	177.2	ND	ND	ND	ND	54.4	1.1	158.4	ND	ND	647	0
83294	2019-07-30T13:00:00	99	ND	ND	ND	ND	55.4	1.8	142.5	ND	ND	647.1	0
83295	2019-07-30T14:00:00	118.2	ND	ND	ND	ND	51.1	1.6	151.3	ND	ND	647.6	0
83296	2019-07-30T15:00:00	90.6	ND	ND	ND	ND	77.3	1	134.5	ND	ND	647.8	0
83297	2019-07-30T16:00:00	93.2	ND	ND	ND	ND	71.8	1.5	143.7	ND	ND	643.8	0
83298	2019-07-30T17:00:00	96.3	ND	ND	ND	ND	52.7	1.5	314.5	ND	ND	548.2	0
83299	2019-07-30T18:00:00	81.8	ND	ND	ND	ND	23.2	3.5	323.2	ND	ND	423.6	0
83300	2019-07-30T19:00:00	50.8	ND	ND	ND	ND	15.5	3.4	324.3	ND	ND	0	0
83301	2019-07-30T20:00:00	37.5	ND	ND	ND	ND	11.4	3.9	320.8	ND	ND	0	0
83302	2019-07-30T21:00:00	39.8	ND	ND	ND	ND	11.7	3.1	319.6	ND	ND	0	0
83303	2019-07-30T22:00:00	39.1	ND	ND	ND	ND	13.3	2.2	338.4	ND	ND	0	0
83304	2019-07-30T23:00:00	25.5	ND	ND	ND	ND	5	0.4	340.2	ND	ND	0	0
83305	2019-07-31T00:00:00	34.2	ND	ND	ND	ND	14.9	1.8	292.9	ND	ND	0	0
83306	2019-07-31T01:00:00	35.2	ND	ND	ND	ND	5.9	0.8	184.5	ND	ND	0	0
83307	2019-07-31T02:00:00	65.2	ND	ND	ND	ND	4	0.7	197	ND	ND	0	0
83308	2019-07-31T03:00:00	64.5	ND	ND	ND	ND	6.9	0.8	242.8	ND	ND	0	0
83309	2019-07-31T04:00:00	52.5	ND	ND	ND	ND	4.5	0.4	201.1	ND	ND	0	0
83310	2019-07-31T05:00:00	51.7	ND	ND	ND	ND	1.2	0.5	88.2	ND	ND	0	0
83311	2019-07-31T06:00:00	97.5	ND	ND	ND	ND	1.4	0.3	8.2	ND	ND	0	0
83312	2019-07-31T07:00:00	129.4	ND	ND	ND	ND	1.1	0.4	238	ND	ND	0	0
83313	2019-07-31T08:00:00	136.9	ND	ND	ND	ND	2.2	0.5	176.8	ND	ND	84.7	0
83314	2019-07-31T09:00:00	147.6	ND	ND	ND	ND	10.8	1.3	158.8	ND	ND	528	0
83315	2019-07-31T10:00:00	102.8	ND	ND	ND	ND	28.1	0.8	190.2	ND	ND	647.1	0
83316	2019-07-31T11:00:00	26.4	ND	ND	ND	ND	48.5	1.1	173.4	ND	ND	647	0
83317	2019-07-31T12:00:00	2.8	ND	ND	ND	ND	62.6	1.2	157.9	ND	ND	647.1	0
83318	2019-07-31T13:00:00	110.2	ND	ND	ND	ND	52.7	1.5	167	ND	ND	642.8	0
83319	2019-07-31T14:00:00	64.3	ND	ND	ND	ND	70.6	1.1	130.4	ND	ND	641.1	0
83320	2019-07-31T15:00:00	116.1	ND	ND	ND	ND	88.5	1	95.2	ND	ND	644.9	0
83321	2019-07-31T16:00:00	99.7	ND	ND	ND	ND	66	2.2	329	ND	ND	547	0
83322	2019-07-31T17:00:00	60.3	ND	ND	ND	ND	47.4	3.9	334.2	ND	ND	624.2	0
83323	2019-07-31T18:00:00	38.5	ND	ND	ND	ND	30.9	3.5	335.1	ND	ND	475.6	0
83324	2019-07-31T19:00:00	16.9	ND	ND	ND	ND	18.8	3.5	326.8	ND	ND	0	0
83325	2019-07-31T20:00:00	2.6	ND	ND	ND	ND	15.8	4	317.4	ND	ND	0	0
83326	2019-07-31T21:00:00	55.7	ND	ND	ND	ND	16.4	3.7	319.6	ND	ND	0	0
83327	2019-07-31T22:00:00	49.1	ND	ND	ND	ND	13.4	0.9	6.3	ND	ND	0	0
83328	2019-07-31T23:00:00	141.1	ND	ND	ND	ND	12.3	1.6	297.5	ND	ND	0	0
83329	2019-08-01T00:00:00	95.2	ND	ND	ND	ND	10.3	1.1	261.4	ND	ND	0	0
83330	2019-08-01T01:00:00	35.8	ND	ND	ND	ND	3.9	1	127.4	ND	ND	0	0
83331	2019-08-01T02:00:00	42.6	ND	ND	ND	ND	2.4	0.4	159.2	ND	ND	0	0
83332	2019-08-01T03:00:00	41.9	ND	ND	ND	ND	4.9	1.4	248.2	ND	ND	0	0
83333	2019-08-01T04:00:00	46.8	ND	ND	ND	ND	6.1	1.3	216.2	ND	ND	0	0
83334	2019-08-01T05:00:00	35.8	ND	ND	ND	ND	2.2	0.8	202.7	ND	ND	0	0
83335	2019-08-01T06:00:00	45.6	ND	ND	ND	ND	0.9	0.2	97	ND	ND	0	0
83336	2019-08-01T07:00:00	89.6	ND	ND	ND	ND	1	1	78.7	ND	ND	0	0
83337	2019-08-01T08:00:00	135	ND	ND	ND	ND	2.6	0.8	138.1	ND	ND	120.2	0
83338	2019-08-01T09:00:00	148.6	ND	ND	ND	ND	11.3	1.1	149.4	ND	ND	578.5	0
83339	2019-08-01T10:00:00	118.9	ND	ND	ND	ND	30	1.3	195.9	ND	ND	646.8	0
83340	2019-08-01T11:00:00	71.1	ND	ND	ND	ND	42.8	1.2	176.7	ND	ND	647.2	0
83341	2019-08-01T12:00:00	45.9	ND	ND	ND	ND	45.4	1.2	176.1	ND	ND	647.5	0
83342	2019-08-01T13:00:00	57.5	ND	ND	ND	ND	64.1	0.8	176.1	ND	ND	647.2	0
83343	2019-08-01T14:00:00	71.9	ND	ND	ND	ND	61.8	1.3	107.9	ND	ND	620.3	0
83344	2019-08-01T15:00:00	78.8	ND	ND	ND	ND	55.2	2.2	312	ND	ND	645.4	0
83345	2019-08-01T16:00:00	69.3	ND	ND	ND	ND	34.6	3.7	322.8	ND	ND	583.9	0
83346	2019-08-01T17:00:00	64.9	ND	ND	ND	ND	23.6	3.7	320.2	ND	ND	392.9	0
83347	2019-08-01T18:00:00	52.3	ND	ND	ND	ND	17.5	3.6	320.5	ND	ND	236.7	0
83348	2019-08-01T19:00:00	30.7	ND	ND	ND	ND	12.3	3.5	330	ND	ND	0	0
83349	2019-08-01T20:00:00	27.4	ND	ND	ND	ND	12.3	3.5	326	ND	ND	0	0
83350	2019-08-01T21:00:00	27.8	ND	ND	ND	ND	12.9	3.2	330.6	ND	ND	0	0
83351	2019-08-01T22:00:00	21.3	ND	ND	ND	ND	11.4	2	319.6	ND	ND	0	0
83352	2019-08-01T23:00:00	44.6	ND	ND	ND	ND	3.6	2	240.6	ND	ND	0	0
83353	2019-08-02T00:00:00	78.6	ND	ND	ND	ND	2.5	0.9	265.3	ND	ND	0	0
83354	2019-08-02T01:00:00	58.6	ND	ND	ND	ND	4.1	1	212.4	ND	ND	0	0
83355	2019-08-02T02:00:00	63.5	ND	ND	ND	ND	2.8	1.4	198.1	ND	ND	0	0
83356	2019-08-02T03:00:00	51.3	ND	ND	ND	ND	4.7	0.9	209.5	ND	ND	0	0
83357	2019-08-02T04:00:00	46.9	ND	ND	ND	ND	5.2	0.8	230.5	ND	ND	0	0
83358	2019-08-02T05:00:00	44	ND	ND	ND	ND	4.5	0.7	250.2	ND	ND	0	0
83359	2019-08-02T06:00:00	56.9	ND	ND	ND	ND	2.2	0.6	300.7	ND	ND	0	0
83360	2019-08-02T07:00:00	ND	ND	ND	ND	ND	1.1	0.6	169.2	ND	ND	0	0
83361	2019-08-02T08:00:00	74.3	ND	ND	ND	ND	2.4	1.2	224	ND	ND	67.5	0
83362	2019-08-02T09:00:00	127.5	ND	ND	ND	ND	8.5	1.4	222.8	ND	ND	495.6	0
83363	2019-08-02T10:00:00	92.4	ND	ND	ND	ND	ND	1.1	206.7	ND	ND	648.4	0
83364	2019-08-02T11:00:00	107.9	ND	ND	ND	ND	161.2	1.5	195.9	ND	ND	649.5	0
83365	2019-08-02T12:00:00	190.7	ND	ND	ND	ND	47	1	179	ND	ND	653.3	0
83366	2019-08-02T13:00:00	109.5	ND	ND	ND	ND	61.9	0.3	140.7	ND	ND	639.9	0
83367	2019-08-02T14:00:00	108.8	ND	ND	ND	ND	77.5	0.7	12.6	ND	ND	644.1	0
83368	2019-08-02T15:00:00	87.7	ND	ND	ND	ND	26.9	3.1	333	ND	ND	374.2	0.51
83369	2019-08-02T16:00:00	37.7	ND	ND	ND	ND	25.7	3.3	329.7	ND	ND	496.6	0
83370	2019-08-02T17:00:00	44.4	ND	ND	ND	ND	21.1	4.1	329	ND	ND	647.7	0
83371	2019-08-02T18:00:00	51.4	ND	ND	ND	ND	11.7	3.3	325.3	ND	ND	425.4	0
83372	2019-08-02T19:00:00	36.7	ND	ND	ND	ND	11.5	3.3	324.3	ND	ND	0	0
83373	2019-08-02T20:00:00	37.6	ND	ND	ND	ND	12	2.4	331	ND	ND	0	0
83374	2019-08-02T21:00:00	23.1	ND	ND	ND	ND	10.6	1.7	333.8	ND	ND	0	0
83375	2019-08-02T22:00:00	27.8	ND	ND	ND	ND	4.2	0.4	182.3	ND	ND	0	0
83376	2019-08-02T23:00:00	51.5	ND	ND	ND	ND	1.6	0.9	96	ND	ND	0	0
83377	2019-08-03T00:00:00	47.4	ND	ND	ND	ND	0.9	0.9	150.6	ND	ND	0	0
83378	2019-08-03T01:00:00	51.9	ND	ND	ND	ND	2.6	1.3	236.5	ND	ND	0	0
83379	2019-08-03T02:00:00	50.3	ND	ND	ND	ND	1.7	1.6	220.7	ND	ND	0	0
83380	2019-08-03T03:00:00	53.4	ND	ND	ND	ND	2.6	1.2	208.8	ND	ND	0	0
83381	2019-08-03T04:00:00	54.2	ND	ND	ND	ND	2.1	1	175.5	ND	ND	0	0
83382	2019-08-03T05:00:00	88.1	ND	ND	ND	ND	2.2	0.4	184.8	ND	ND	0	0
83383	2019-08-03T06:00:00	81	ND	ND	ND	ND	0.7	0.5	101.4	ND	ND	0	0
83384	2019-08-03T07:00:00	77.5	ND	ND	ND	ND	1	0.5	300.3	ND	ND	0	0
83385	2019-08-03T08:00:00	78.2	ND	ND	ND	ND	1.4	0	236.9	ND	ND	61.8	0
83386	2019-08-03T09:00:00	115.2	ND	ND	ND	ND	5.6	0.7	216.7	ND	ND	227.4	0
83387	2019-08-03T10:00:00	130.4	ND	ND	ND	ND	11.3	1	167.7	ND	ND	537.6	0
83388	2019-08-03T11:00:00	133.7	ND	ND	ND	ND	30.5	1.2	112.5	ND	ND	527.6	0
83389	2019-08-03T12:00:00	122.4	ND	ND	ND	ND	33.9	1.1	110.5	ND	ND	639.1	0
83390	2019-08-03T13:00:00	99.8	ND	ND	ND	ND	48.2	1.1	137.1	ND	ND	576.4	0
83391	2019-08-03T14:00:00	81	ND	ND	ND	ND	42.5	1.6	136	ND	ND	648.2	0
83392	2019-08-03T15:00:00	71.3	ND	ND	ND	ND	52.6	1.4	106.1	ND	ND	647.9	0
83393	2019-08-03T16:00:00	67.1	ND	ND	ND	ND	34.3	2	107.8	ND	ND	641.3	0
83394	2019-08-03T17:00:00	60	ND	ND	ND	ND	30.5	1.1	344.5	ND	ND	451.5	0
83395	2019-08-03T18:00:00	38.3	ND	ND	ND	ND	21.7	3.7	323	ND	ND	446.6	0
83396	2019-08-03T19:00:00	55.6	ND	ND	ND	ND	14.8	3.9	316.6	ND	ND	0	0
83397	2019-08-03T20:00:00	24.3	ND	ND	ND	ND	10.8	3.1	313.5	ND	ND	0	0
83398	2019-08-03T21:00:00	20.4	ND	ND	ND	ND	9.9	3.1	316.3	ND	ND	0	0
83399	2019-08-03T22:00:00	19.4	ND	ND	ND	ND	8.8	1.6	323.7	ND	ND	0	0
83400	2019-08-03T23:00:00	25.9	ND	ND	ND	ND	4.9	1.5	323.7	ND	ND	0	0
83401	2019-08-04T00:00:00	24.2	ND	ND	ND	ND	13	2.2	316.7	ND	ND	0	0
83402	2019-08-04T01:00:00	14.9	ND	ND	ND	ND	7.8	0.5	12	ND	ND	0	0
83403	2019-08-04T02:00:00	31.1	ND	ND	ND	ND	5.5	0.7	165.2	ND	ND	0	2.54
83404	2019-08-04T03:00:00	37.5	ND	ND	ND	ND	2.7	0.8	62.3	ND	ND	0	6.6
83405	2019-08-04T04:00:00	7.9	ND	ND	ND	ND	1.2	0.3	33.5	ND	ND	0	0
83406	2019-08-04T05:00:00	14.5	ND	ND	ND	ND	0.5	0.8	115.6	ND	ND	0	0.25
83407	2019-08-04T06:00:00	37.3	ND	ND	ND	ND	0.4	0.4	263	ND	ND	0	0
83408	2019-08-04T07:00:00	46.2	ND	ND	ND	ND	0.7	0.8	244.7	ND	ND	0	0
83409	2019-08-04T08:00:00	52.3	ND	ND	ND	ND	2.1	0.9	227.1	ND	ND	48.7	0
83410	2019-08-04T09:00:00	52.6	ND	ND	ND	ND	9.7	0.9	197.5	ND	ND	309	0
83411	2019-08-04T10:00:00	77	ND	ND	ND	ND	20.6	0.8	171.7	ND	ND	633	0
83412	2019-08-04T11:00:00	67.2	ND	ND	ND	ND	42.3	0.9	161.7	ND	ND	643.5	0
83413	2019-08-04T12:00:00	66.7	ND	ND	ND	ND	55.6	1.3	144.8	ND	ND	648.2	0
83414	2019-08-04T13:00:00	60.2	ND	ND	ND	ND	56.4	1.1	111.3	ND	ND	648.7	0
83415	2019-08-04T14:00:00	37.9	ND	ND	ND	ND	71.8	1	133.3	ND	ND	648.1	0
83416	2019-08-04T15:00:00	42.7	ND	ND	ND	ND	77.1	1.5	129.8	ND	ND	648.8	0
83417	2019-08-04T16:00:00	57.5	ND	ND	ND	ND	58.9	2.1	118.8	ND	ND	648.3	0
83418	2019-08-04T17:00:00	57.5	ND	ND	ND	ND	51.5	1.7	119.7	ND	ND	643.3	0
83419	2019-08-04T18:00:00	51.8	ND	ND	ND	ND	46.4	1.3	117.9	ND	ND	384.7	0
83420	2019-08-04T19:00:00	49.1	ND	ND	ND	ND	28.4	0.8	109.1	ND	ND	0	0
83421	2019-08-04T20:00:00	53.2	ND	ND	ND	ND	21	1.5	314.3	ND	ND	0	0
83422	2019-08-04T21:00:00	38.3	ND	ND	ND	ND	11.4	2.5	318.5	ND	ND	0	0
83423	2019-08-04T22:00:00	36.6	ND	ND	ND	ND	12.4	2.4	319.2	ND	ND	0	0
83424	2019-08-04T23:00:00	33.3	ND	ND	ND	ND	12.8	1.8	316.7	ND	ND	0	0
83425	2019-08-05T00:00:00	23.1	ND	ND	ND	ND	13.5	1.3	343.6	ND	ND	0	0
83426	2019-08-05T01:00:00	32.6	ND	ND	ND	ND	8.1	0.3	34.3	ND	ND	0	0
83427	2019-08-05T02:00:00	39.3	ND	ND	ND	ND	0.8	0.8	58	ND	ND	0	0
83428	2019-08-05T03:00:00	49.8	ND	ND	ND	ND	6.7	0.4	306.7	ND	ND	0	0
83429	2019-08-05T04:00:00	45.7	ND	ND	ND	ND	13.3	0.7	298.3	ND	ND	0	0
83430	2019-08-05T05:00:00	24.9	ND	ND	ND	ND	14.2	1.1	291.4	ND	ND	0	0
83431	2019-08-05T06:00:00	16.7	ND	ND	ND	ND	7.6	1.4	301.9	ND	ND	0	0
83432	2019-08-05T07:00:00	12.8	ND	ND	ND	ND	4.2	1.6	295.8	ND	ND	0	0
83433	2019-08-05T08:00:00	56.9	ND	ND	ND	ND	2.5	0.7	307.8	ND	ND	118.9	0
83434	2019-08-05T09:00:00	93.6	ND	ND	ND	ND	12.3	0.3	214.2	ND	ND	441	0
83435	2019-08-05T10:00:00	109.3	ND	ND	ND	ND	36.6	1.4	164.5	ND	ND	648	0
83436	2019-08-05T11:00:00	91.1	ND	ND	ND	ND	58.6	0.8	204.5	ND	ND	648.2	0
83437	2019-08-05T12:00:00	68	ND	ND	ND	ND	63.1	1.2	206.6	ND	ND	648.2	0
83438	2019-08-05T13:00:00	68.9	ND	ND	ND	ND	56.2	1.7	220	ND	ND	648.3	0
83439	2019-08-05T14:00:00	52.5	ND	ND	ND	ND	57	1	213.5	ND	ND	630.7	0
83440	2019-08-05T15:00:00	43.6	ND	ND	ND	ND	57.8	1.2	190.1	ND	ND	648.4	0
83441	2019-08-05T16:00:00	50.7	ND	ND	ND	ND	41.2	2.3	329.5	ND	ND	642.9	0
83442	2019-08-05T17:00:00	48.4	ND	ND	ND	ND	34.4	4.8	333.7	ND	ND	496.9	0
83443	2019-08-05T18:00:00	60.4	ND	ND	ND	ND	23	4.6	330.2	ND	ND	463.7	0
83444	2019-08-05T19:00:00	51.3	ND	ND	ND	ND	18.7	3.9	332.4	ND	ND	0	0
83445	2019-08-05T20:00:00	31	ND	ND	ND	ND	16.3	4.9	321.1	ND	ND	0	0
83446	2019-08-05T21:00:00	22.5	ND	ND	ND	ND	15.7	4.2	324.6	ND	ND	0	0
83447	2019-08-05T22:00:00	16.1	ND	ND	ND	ND	13.9	3.3	318.8	ND	ND	0	0
83448	2019-08-05T23:00:00	19.8	ND	ND	ND	ND	7.6	1.7	268	ND	ND	0	0
83449	2019-08-06T00:00:00	33	ND	ND	ND	ND	12.5	1.7	294.2	ND	ND	0	0
83450	2019-08-06T01:00:00	17.1	ND	ND	ND	ND	11.5	0.9	307.4	ND	ND	0	0
83451	2019-08-06T02:00:00	35.4	ND	ND	ND	ND	2.3	0.3	146.5	ND	ND	0	0
83452	2019-08-06T03:00:00	50.2	ND	ND	ND	ND	8.7	1.2	260	ND	ND	0	0
83453	2019-08-06T04:00:00	29.2	ND	ND	ND	ND	12.3	1.3	292	ND	ND	0	0
83454	2019-08-06T05:00:00	16.5	ND	ND	ND	ND	7.3	0.9	275.1	ND	ND	0	0
83455	2019-08-06T06:00:00	18.8	ND	ND	ND	ND	3.2	0.5	278.3	ND	ND	0	0
83456	2019-08-06T07:00:00	35.7	ND	ND	ND	ND	1.3	0.9	314.7	ND	ND	0	0
83457	2019-08-06T08:00:00	87.7	ND	ND	ND	ND	1.6	1	105.1	ND	ND	82.2	0
83458	2019-08-06T09:00:00	152.6	ND	ND	ND	ND	7.5	1.1	121.5	ND	ND	348.8	0
83459	2019-08-06T10:00:00	125.4	ND	ND	ND	ND	17.4	0.6	111.4	ND	ND	641.9	0
83460	2019-08-06T11:00:00	98.9	ND	ND	ND	ND	27.3	1	93.8	ND	ND	648.2	0
83461	2019-08-06T12:00:00	80.7	ND	ND	ND	ND	52.3	1	153.4	ND	ND	648.2	0
83462	2019-08-06T13:00:00	79.9	ND	ND	ND	ND	76.5	0.9	126.2	ND	ND	648.6	0
83463	2019-08-06T14:00:00	95.7	ND	ND	ND	ND	98.3	0.8	175.9	ND	ND	649	0
83464	2019-08-06T15:00:00	81.5	ND	ND	ND	ND	97.2	1.1	357.6	ND	ND	648.6	0
83465	2019-08-06T16:00:00	71.4	ND	ND	ND	ND	41.7	4.1	331.6	ND	ND	644.8	0
83466	2019-08-06T17:00:00	60.3	ND	ND	ND	ND	41.8	4.4	328.4	ND	ND	512.3	0
83467	2019-08-06T18:00:00	78.7	ND	ND	ND	ND	24.5	5.1	324.7	ND	ND	495.8	0
83468	2019-08-06T19:00:00	69.6	ND	ND	ND	ND	15	3.9	336.6	ND	ND	0	0
83469	2019-08-06T20:00:00	34.3	ND	ND	ND	ND	13.5	3.9	322	ND	ND	0	0
83470	2019-08-06T21:00:00	20.1	ND	ND	ND	ND	15.2	3.3	323.2	ND	ND	0	0
83471	2019-08-06T22:00:00	21.3	ND	ND	ND	ND	13.1	1.9	340.6	ND	ND	0	0
83472	2019-08-06T23:00:00	26.6	ND	ND	ND	ND	15.9	1.6	330	ND	ND	0	0
83473	2019-08-07T00:00:00	19.6	ND	ND	ND	ND	15	1	21.6	ND	ND	0	0
83474	2019-08-07T01:00:00	32	ND	ND	ND	ND	2.5	0.9	145.7	ND	ND	0	0
83475	2019-08-07T02:00:00	37.8	ND	ND	ND	ND	3	1.2	232.9	ND	ND	0	0
83476	2019-08-07T03:00:00	33.2	ND	ND	ND	ND	6.8	2.3	230.5	ND	ND	0	0
83477	2019-08-07T04:00:00	48.8	ND	ND	ND	ND	7.5	1.8	230.4	ND	ND	0	0
83478	2019-08-07T05:00:00	60	ND	ND	ND	ND	4.5	1.3	218.8	ND	ND	0	0
83479	2019-08-07T06:00:00	100.1	ND	ND	ND	ND	1.7	0.9	176.9	ND	ND	0	0
83480	2019-08-07T07:00:00	89.8	ND	ND	ND	ND	1.5	0.8	186	ND	ND	0	0
83481	2019-08-07T08:00:00	99.7	ND	ND	ND	ND	5.4	1.1	188.2	ND	ND	106.6	0
83482	2019-08-07T09:00:00	79.6	ND	ND	ND	ND	16.9	0.5	220.2	ND	ND	341.9	0
83483	2019-08-07T10:00:00	75.6	ND	ND	ND	ND	29.9	1	194.8	ND	ND	619.7	0
83484	2019-08-07T11:00:00	67.2	ND	ND	ND	ND	45.9	0.9	205.7	ND	ND	648.4	0
83485	2019-08-07T12:00:00	63.6	ND	ND	ND	ND	64.6	0.8	223.7	ND	ND	561.9	0
83486	2019-08-07T13:00:00	69.2	ND	ND	ND	ND	74.9	0.6	257.2	ND	ND	610.9	0
83487	2019-08-07T14:00:00	56.2	ND	ND	ND	ND	88.9	0.7	198.2	ND	ND	634.5	0
83488	2019-08-07T15:00:00	59.1	ND	ND	ND	ND	82.4	1.3	119.7	ND	ND	645	0
83489	2019-08-07T16:00:00	74.6	ND	ND	ND	ND	53.7	1.5	345.2	ND	ND	607	0
83490	2019-08-07T17:00:00	28.8	ND	ND	ND	ND	33.7	4.3	327.7	ND	ND	382.4	0
83491	2019-08-07T18:00:00	28.9	ND	ND	ND	ND	30.8	4.6	324.8	ND	ND	261.8	0
83492	2019-08-07T19:00:00	28.4	ND	ND	ND	ND	26.4	3.5	329.2	ND	ND	0	0
83493	2019-08-07T20:00:00	26.4	ND	ND	ND	ND	21.3	3.6	324.3	ND	ND	0	0
83494	2019-08-07T21:00:00	21.2	ND	ND	ND	ND	18.7	3	323.3	ND	ND	0	0
83495	2019-08-07T22:00:00	8.9	ND	ND	ND	ND	18.7	3	330.2	ND	ND	0	0
83496	2019-08-07T23:00:00	13.1	ND	ND	ND	ND	12.3	1.3	14	ND	ND	0	0
83497	2019-08-08T00:00:00	27.3	ND	ND	ND	ND	2.7	0.6	129.4	ND	ND	0	0
83498	2019-08-08T01:00:00	39.9	ND	ND	ND	ND	6.7	1.4	231.5	ND	ND	0	0
83499	2019-08-08T02:00:00	52.8	ND	ND	ND	ND	5.3	1	191.1	ND	ND	0	0
83500	2019-08-08T03:00:00	62	ND	ND	ND	ND	6.4	0.9	180.6	ND	ND	0	0
83501	2019-08-08T04:00:00	79.1	ND	ND	ND	ND	5.3	0.9	202.7	ND	ND	0	0
83502	2019-08-08T05:00:00	72.8	ND	ND	ND	ND	4.1	0.7	187.4	ND	ND	0	0
83503	2019-08-08T06:00:00	86.5	ND	ND	ND	ND	1.9	0.6	185.8	ND	ND	0	0
83504	2019-08-08T07:00:00	96.7	ND	ND	ND	ND	1	0.8	186.6	ND	ND	0	0
83505	2019-08-08T08:00:00	125.5	ND	ND	ND	ND	3.7	1	181.5	ND	ND	78	0
83506	2019-08-08T09:00:00	123.8	ND	ND	ND	ND	6.6	1.5	173.7	ND	ND	545.4	0
83507	2019-08-08T10:00:00	121.7	ND	ND	ND	ND	16.5	1.5	197.4	ND	ND	558.2	0
83508	2019-08-08T11:00:00	106.9	ND	ND	ND	ND	36.9	1.2	163	ND	ND	648.3	0
83509	2019-08-08T12:00:00	84.4	ND	ND	ND	ND	49.6	1.2	195.3	ND	ND	648.4	0
83510	2019-08-08T13:00:00	77	ND	ND	ND	ND	65.3	1.7	196	ND	ND	648.3	0
83511	2019-08-08T14:00:00	80.4	ND	ND	ND	ND	57.1	1.8	165.7	ND	ND	648.8	0
83512	2019-08-08T15:00:00	88.3	ND	ND	ND	ND	66.8	1.2	188.1	ND	ND	649.7	0
83513	2019-08-08T16:00:00	91.4	ND	ND	ND	ND	55.6	0.9	191.4	ND	ND	642.1	0
83514	2019-08-08T17:00:00	76.2	ND	ND	ND	ND	42.9	1.2	124.4	ND	ND	452.4	0
83515	2019-08-08T18:00:00	64.4	ND	ND	ND	ND	33.4	1.4	96.5	ND	ND	223.1	0
83516	2019-08-08T19:00:00	71.9	ND	ND	ND	ND	18.9	2.7	319.6	ND	ND	0	0
83517	2019-08-08T20:00:00	45.3	ND	ND	ND	ND	13.2	2.6	311.9	ND	ND	0	0
83518	2019-08-08T21:00:00	33.6	ND	ND	ND	ND	12.7	3	314.5	ND	ND	0	0
83519	2019-08-08T22:00:00	32.3	ND	ND	ND	ND	11.6	2.6	319.3	ND	ND	0	0
83520	2019-08-08T23:00:00	36.8	ND	ND	ND	ND	4.1	0.5	132.9	ND	ND	0	0
83521	2019-08-09T00:00:00	57.2	ND	ND	ND	ND	4.6	0.6	289.4	ND	ND	0	0
83522	2019-08-09T01:00:00	34.3	ND	ND	ND	ND	11.7	1.9	330.4	ND	ND	0	0
83523	2019-08-09T02:00:00	25.8	ND	ND	ND	ND	13.6	1.2	346.9	ND	ND	0	0
83524	2019-08-09T03:00:00	17.4	ND	ND	ND	ND	7.7	1.2	248.2	ND	ND	0	0
83525	2019-08-09T04:00:00	44.4	ND	ND	ND	ND	5.3	1.5	226.8	ND	ND	0	0
83526	2019-08-09T05:00:00	33.2	ND	ND	ND	ND	7.2	1.3	251.8	ND	ND	0	0
83527	2019-08-09T06:00:00	17.3	ND	ND	ND	ND	3.4	0.6	320.5	ND	ND	0	0
83528	2019-08-09T07:00:00	131.1	ND	ND	ND	ND	0.9	0.6	75.4	ND	ND	0	0
83529	2019-08-09T08:00:00	145.5	ND	ND	ND	ND	1.7	0.6	170.5	ND	ND	70.7	0
83530	2019-08-09T09:00:00	153.1	ND	ND	ND	ND	7.5	1.3	180.6	ND	ND	298	0
83531	2019-08-09T10:00:00	148.1	ND	ND	ND	ND	18.3	1.4	140.2	ND	ND	628	0
83532	2019-08-09T11:00:00	81.3	ND	ND	ND	ND	36.1	0.6	183.4	ND	ND	648.4	0
83533	2019-08-09T12:00:00	82.9	ND	ND	ND	ND	51.2	1.5	192.5	ND	ND	648.2	0
83534	2019-08-09T13:00:00	73.5	ND	ND	ND	ND	73.7	0.9	170.7	ND	ND	648.3	0
83535	2019-08-09T14:00:00	86.9	ND	ND	ND	ND	67.1	1.4	171.2	ND	ND	648.4	0
83536	2019-08-09T15:00:00	91.8	ND	ND	ND	ND	66.7	1.2	128.5	ND	ND	648.5	0
83537	2019-08-09T16:00:00	87.8	ND	ND	ND	ND	55.8	0.9	108.6	ND	ND	640	0
83538	2019-08-09T17:00:00	61.5	ND	ND	ND	ND	43.6	2.5	322.8	ND	ND	510.1	0
83539	2019-08-09T18:00:00	59.4	ND	ND	ND	ND	33.8	3.8	325.2	ND	ND	382.8	0
83540	2019-08-09T19:00:00	74.3	ND	ND	ND	ND	16.9	4.1	321.5	ND	ND	0	0
83541	2019-08-09T20:00:00	41.3	ND	ND	ND	ND	9.6	3	329.2	ND	ND	0	0
83542	2019-08-09T21:00:00	17.5	ND	ND	ND	ND	12.2	2.6	340.6	ND	ND	0	0
83543	2019-08-09T22:00:00	20.4	ND	ND	ND	ND	10.5	2.4	324.5	ND	ND	0	0
83544	2019-08-09T23:00:00	8.7	ND	ND	ND	ND	8.9	2.2	322.7	ND	ND	0	0
83545	2019-08-10T00:00:00	42.1	ND	ND	ND	ND	0.7	0.8	85.7	ND	ND	0	0
83546	2019-08-10T01:00:00	75.8	ND	ND	ND	ND	0.8	0.7	172.4	ND	ND	0	0
83547	2019-08-10T02:00:00	100.4	ND	ND	ND	ND	1	0.6	103.3	ND	ND	0	0
83548	2019-08-10T03:00:00	93.7	ND	ND	ND	ND	1.6	0.3	194.5	ND	ND	0	0
83549	2019-08-10T04:00:00	88.4	ND	ND	ND	ND	3.3	1.1	201	ND	ND	0	0
83550	2019-08-10T05:00:00	79.1	ND	ND	ND	ND	2.8	0.7	231.8	ND	ND	0	0
83551	2019-08-10T06:00:00	60.4	ND	ND	ND	ND	3.3	0.6	262.3	ND	ND	0	0
83552	2019-08-10T07:00:00	62	ND	ND	ND	ND	1.3	0.4	252.2	ND	ND	0	0
83553	2019-08-10T08:00:00	93.4	ND	ND	ND	ND	5.4	0.7	134.2	ND	ND	171.1	0
83554	2019-08-10T09:00:00	140	ND	ND	ND	ND	15.6	1.2	167.7	ND	ND	612.5	0
83555	2019-08-10T10:00:00	108.4	ND	ND	ND	ND	36.2	0.7	149.7	ND	ND	648	0
83556	2019-08-10T11:00:00	92	ND	ND	ND	ND	55.9	1.4	172.7	ND	ND	647.9	0
83557	2019-08-10T12:00:00	94	ND	ND	ND	ND	68.9	1.5	180.4	ND	ND	648.2	0
83558	2019-08-10T13:00:00	100.6	ND	ND	ND	ND	74.8	1.6	130.6	ND	ND	648.3	0
83559	2019-08-10T14:00:00	97.1	ND	ND	ND	ND	97.8	1.3	92.1	ND	ND	642.3	0
83560	2019-08-10T15:00:00	84.6	ND	ND	ND	ND	61.2	2.3	350.5	ND	ND	648.4	0
83561	2019-08-10T16:00:00	50.3	ND	ND	ND	ND	62.4	3.2	330.8	ND	ND	606.5	0
83562	2019-08-10T17:00:00	42.3	ND	ND	ND	ND	42.2	3.7	332	ND	ND	640.6	0
83563	2019-08-10T18:00:00	47.8	ND	ND	ND	ND	22.4	3.6	331.2	ND	ND	460	0
83564	2019-08-10T19:00:00	44.8	ND	ND	ND	ND	15.4	3.5	331.6	ND	ND	0	0
83565	2019-08-10T20:00:00	35.9	ND	ND	ND	ND	13.9	3.8	327.2	ND	ND	0	0
83566	2019-08-10T21:00:00	29.8	ND	ND	ND	ND	12.6	3.1	333.1	ND	ND	0	0
83567	2019-08-10T22:00:00	16.1	ND	ND	ND	ND	10.6	2.2	321.3	ND	ND	0	0
83568	2019-08-10T23:00:00	16	ND	ND	ND	ND	11.1	2.2	297	ND	ND	0	0
83569	2019-08-11T00:00:00	18.2	ND	ND	ND	ND	8	1.6	291.4	ND	ND	0	0
83570	2019-08-11T01:00:00	28.2	ND	ND	ND	ND	9.2	1	267.3	ND	ND	0	0
83571	2019-08-11T02:00:00	38.2	ND	ND	ND	ND	1.6	1.2	169.7	ND	ND	0	0
83572	2019-08-11T03:00:00	53.3	ND	ND	ND	ND	3.7	0.8	264	ND	ND	0	1.52
83573	2019-08-11T04:00:00	38	ND	ND	ND	ND	4.3	0.6	227.3	ND	ND	0	0
83574	2019-08-11T05:00:00	58.1	ND	ND	ND	ND	0.7	0.6	210.8	ND	ND	0	0
83575	2019-08-11T06:00:00	72.8	ND	ND	ND	ND	0.8	0.6	244.1	ND	ND	0	0
83576	2019-08-11T07:00:00	65	ND	ND	ND	ND	1.2	0.5	37.1	ND	ND	0	0
83577	2019-08-11T08:00:00	107.1	ND	ND	ND	ND	3.5	0.8	117.2	ND	ND	73.6	0
83578	2019-08-11T09:00:00	109.7	ND	ND	ND	ND	13.5	1.1	186.4	ND	ND	440.6	0
83579	2019-08-11T10:00:00	91.9	ND	ND	ND	ND	29	1.1	182.9	ND	ND	629.1	0
83580	2019-08-11T11:00:00	79.2	ND	ND	ND	ND	48.1	1	165.2	ND	ND	648.4	0
83581	2019-08-11T12:00:00	65.1	ND	ND	ND	ND	63.5	1	167.8	ND	ND	647.3	0
83582	2019-08-11T13:00:00	61.1	ND	ND	ND	ND	69.7	1.3	132.4	ND	ND	644.4	0
83583	2019-08-11T14:00:00	57.3	ND	ND	ND	ND	45.2	1.5	87.1	ND	ND	648.4	0
83584	2019-08-11T15:00:00	40.5	ND	ND	ND	ND	34	2	42.4	ND	ND	582.2	0
83585	2019-08-11T16:00:00	28.2	ND	ND	ND	ND	54.6	1	154.3	ND	ND	534.4	0
83586	2019-08-11T17:00:00	46.1	ND	ND	ND	ND	58	1.1	91.6	ND	ND	648.5	0
83587	2019-08-11T18:00:00	45.7	ND	ND	ND	ND	41.9	1.6	338.9	ND	ND	509.4	0
83588	2019-08-11T19:00:00	33.7	ND	ND	ND	ND	19.7	2.5	318.7	ND	ND	0	0
83589	2019-08-11T20:00:00	22.9	ND	ND	ND	ND	15.8	2.7	323.4	ND	ND	0	0
83590	2019-08-11T21:00:00	23.3	ND	ND	ND	ND	15.1	2.4	329.4	ND	ND	0	0
83591	2019-08-11T22:00:00	18.4	ND	ND	ND	ND	12.4	2.5	322.1	ND	ND	0	0
83592	2019-08-11T23:00:00	36.5	ND	ND	ND	ND	0.6	0.5	68.8	ND	ND	0	0
83593	2019-08-12T00:00:00	47.4	ND	ND	ND	ND	1.6	0.3	114.1	ND	ND	0	0
83594	2019-08-12T01:00:00	32.2	ND	ND	ND	ND	6.2	0.8	261	ND	ND	0	0
83595	2019-08-12T02:00:00	49.3	ND	ND	ND	ND	2.4	0.5	166.7	ND	ND	0	0
83596	2019-08-12T03:00:00	64.1	ND	ND	ND	ND	3.1	0.7	167.1	ND	ND	0	0
83597	2019-08-12T04:00:00	70.4	ND	ND	ND	ND	2.4	0.6	151.7	ND	ND	0	0
83598	2019-08-12T05:00:00	65	ND	ND	ND	ND	2.5	0.7	217.1	ND	ND	0	0
83599	2019-08-12T06:00:00	64	ND	ND	ND	ND	3.2	0.5	275.9	ND	ND	0	0
83600	2019-08-12T07:00:00	70.6	ND	ND	ND	ND	0.9	0.7	146.4	ND	ND	1.4	0
83601	2019-08-12T08:00:00	126.9	ND	ND	ND	ND	3	0.7	212.7	ND	ND	176.5	0
83602	2019-08-12T09:00:00	124.1	ND	ND	ND	ND	13.3	0.7	214	ND	ND	536.7	0
83603	2019-08-12T10:00:00	102.1	ND	ND	ND	ND	28.6	1.2	166.4	ND	ND	648	0
83604	2019-08-12T11:00:00	98.4	ND	ND	ND	ND	42.9	1.2	173.4	ND	ND	648.3	0
83605	2019-08-12T12:00:00	93.3	ND	ND	ND	ND	66.8	0.8	168.1	ND	ND	648.8	0
83606	2019-08-12T13:00:00	74.1	ND	ND	ND	ND	70.2	1.1	169.5	ND	ND	648.3	0
83607	2019-08-12T14:00:00	82.2	ND	ND	ND	ND	56.8	0.9	269.2	ND	ND	640.5	0
83608	2019-08-12T15:00:00	77.2	ND	ND	ND	ND	47.7	0.4	224.4	ND	ND	638.5	0
83609	2019-08-12T16:00:00	48.8	ND	ND	ND	ND	38.2	0.9	231.1	ND	ND	648.6	0
83610	2019-08-12T17:00:00	65.2	ND	ND	ND	ND	35.8	4.5	329.3	ND	ND	647.9	0
83611	2019-08-12T18:00:00	72.3	ND	ND	ND	ND	25.9	4.3	326.3	ND	ND	399.4	0
83612	2019-08-12T19:00:00	55.2	ND	ND	ND	ND	19.3	3.9	330.4	ND	ND	0	0
83613	2019-08-12T20:00:00	36.6	ND	ND	ND	ND	17.6	4	322.9	ND	ND	0	0
83614	2019-08-12T21:00:00	32.8	ND	ND	ND	ND	19.1	4	323.6	ND	ND	0	0
83615	2019-08-12T22:00:00	21.9	ND	ND	ND	ND	18.4	3.1	336	ND	ND	0	0
83616	2019-08-12T23:00:00	8.5	ND	ND	ND	ND	17.4	3	321.2	ND	ND	0	0
83617	2019-08-13T00:00:00	11.6	ND	ND	ND	ND	14	1.8	331.3	ND	ND	0	0
83618	2019-08-13T01:00:00	18.4	ND	ND	ND	ND	3.2	0.6	86.3	ND	ND	0	0
83619	2019-08-13T02:00:00	28.8	ND	ND	ND	ND	6.9	0.9	105	ND	ND	0	0
83620	2019-08-13T03:00:00	27.5	ND	ND	ND	ND	7.1	1	182.7	ND	ND	0	0
83621	2019-08-13T04:00:00	51	ND	ND	ND	ND	2.8	0.9	190.1	ND	ND	0	0
83622	2019-08-13T05:00:00	58.4	ND	ND	ND	ND	2.1	0.8	190.3	ND	ND	0	0
83623	2019-08-13T06:00:00	46.6	ND	ND	ND	ND	0.9	0.5	203.5	ND	ND	0	0
83624	2019-08-13T07:00:00	77.1	ND	ND	ND	ND	1	0.9	220.1	ND	ND	0	0
83625	2019-08-13T08:00:00	124.3	ND	ND	ND	ND	2.2	0.3	187.8	ND	ND	94.3	0
83626	2019-08-13T09:00:00	132.3	ND	ND	ND	ND	9.1	1.3	95.9	ND	ND	443.4	0
83627	2019-08-13T10:00:00	148.4	ND	ND	ND	ND	26.6	0.9	112	ND	ND	644.9	0
83628	2019-08-13T11:00:00	115.8	ND	ND	ND	ND	44	0.9	133.2	ND	ND	648.4	0
83629	2019-08-13T12:00:00	87.5	ND	ND	ND	ND	72.3	1.1	185.7	ND	ND	647.9	0
83630	2019-08-13T13:00:00	96.1	ND	ND	ND	ND	78.9	1.4	190.1	ND	ND	648.7	0
83631	2019-08-13T14:00:00	89.4	ND	ND	ND	ND	59	1.6	195.6	ND	ND	648.5	0
83632	2019-08-13T15:00:00	78.2	ND	ND	ND	ND	50.6	1.9	191.4	ND	ND	648.7	0
83633	2019-08-13T16:00:00	78.1	ND	ND	ND	ND	56.5	2	212.8	ND	ND	647.6	0
83634	2019-08-13T17:00:00	79.5	ND	ND	ND	ND	39.9	0.8	230	ND	ND	566.2	0
83635	2019-08-13T18:00:00	66.3	ND	ND	ND	ND	19.4	2.8	314.2	ND	ND	476.7	0
83636	2019-08-13T19:00:00	41.6	ND	ND	ND	ND	8.5	2.8	315.4	ND	ND	0	0
83637	2019-08-13T20:00:00	34.1	ND	ND	ND	ND	5.7	2.4	319.9	ND	ND	0	0
83638	2019-08-13T21:00:00	27.1	ND	ND	ND	ND	7.6	2.5	324.5	ND	ND	0	0
83639	2019-08-13T22:00:00	22.8	ND	ND	ND	ND	7.1	1.6	330.2	ND	ND	0	0
83640	2019-08-13T23:00:00	50.4	ND	ND	ND	ND	0.6	0.8	137	ND	ND	0	0
83641	2019-08-14T00:00:00	53.7	ND	ND	ND	ND	6.3	0.6	305.5	ND	ND	0	0
83642	2019-08-14T01:00:00	40.8	ND	ND	ND	ND	1.5	0.9	92.1	ND	ND	0	0
83643	2019-08-14T02:00:00	59.8	ND	ND	ND	ND	1.8	0.5	77	ND	ND	0	0
83644	2019-08-14T03:00:00	51.5	ND	ND	ND	ND	9.5	1.5	306	ND	ND	0	0
83645	2019-08-14T04:00:00	21.2	ND	ND	ND	ND	6.8	0.6	291.7	ND	ND	0	0
83646	2019-08-14T05:00:00	46.8	ND	ND	ND	ND	1.2	1	209.6	ND	ND	0	0
83647	2019-08-14T06:00:00	70.7	ND	ND	ND	ND	0.7	0.8	201.9	ND	ND	0	0
83648	2019-08-14T07:00:00	83.6	ND	ND	ND	ND	0.9	0.4	235.6	ND	ND	0	0
83649	2019-08-14T08:00:00	86.5	ND	ND	ND	ND	4.6	0.5	248.6	ND	ND	89.4	0
83650	2019-08-14T09:00:00	103.8	ND	ND	ND	ND	12	0.6	209.7	ND	ND	512.8	0
83651	2019-08-14T10:00:00	109	ND	ND	ND	ND	24.4	1.2	193.2	ND	ND	506.2	0
83652	2019-08-14T11:00:00	113.1	ND	ND	ND	ND	48	1.8	209.3	ND	ND	647.3	0
83653	2019-08-14T12:00:00	97.2	ND	ND	ND	ND	53.7	2.1	218.8	ND	ND	648.3	0
83654	2019-08-14T13:00:00	105	ND	ND	ND	ND	45.7	2.3	191.3	ND	ND	648.4	0
83655	2019-08-14T14:00:00	125.1	ND	ND	ND	ND	53	2.5	233	ND	ND	648.6	0
83656	2019-08-14T15:00:00	134	ND	ND	ND	ND	35.2	3.7	222	ND	ND	647.9	0
83657	2019-08-14T16:00:00	126.5	ND	ND	ND	ND	37.6	4.7	237	ND	ND	627	0
83658	2019-08-14T17:00:00	79.4	ND	ND	ND	ND	34.1	5.4	240.1	ND	ND	571.8	0
83659	2019-08-14T18:00:00	81	ND	ND	ND	ND	32.9	5.2	244.4	ND	ND	229.1	0
83660	2019-08-14T19:00:00	66.7	ND	ND	ND	ND	30.2	3.8	245.1	ND	ND	0	0
83661	2019-08-14T20:00:00	51.8	ND	ND	ND	ND	36.9	3.3	251.2	ND	ND	0	0
83662	2019-08-14T21:00:00	47.5	ND	ND	ND	ND	46.2	3.8	247.3	ND	ND	0	0
83663	2019-08-14T22:00:00	53.6	ND	ND	ND	ND	49.9	3.7	240.3	ND	ND	0	0
83664	2019-08-14T23:00:00	68.3	ND	ND	ND	ND	37.7	1.6	271.7	ND	ND	0	0
83665	2019-08-15T00:00:00	106.4	ND	ND	ND	ND	61.6	1.6	273.3	ND	ND	0	0
83666	2019-08-15T01:00:00	53.2	ND	ND	ND	ND	30.5	0.6	16.2	ND	ND	0	0
83667	2019-08-15T02:00:00	83.6	ND	ND	ND	ND	14.5	1.7	56.4	ND	ND	0	0
83668	2019-08-15T03:00:00	116.3	ND	ND	ND	ND	34.9	1.9	79.8	ND	ND	0	0
83669	2019-08-15T04:00:00	ND	ND	ND	ND	ND	ND	ND	ND	ND	ND	0	ND
83670	2019-08-15T05:00:00	63.9	ND	ND	ND	ND	33	0.6	306.7	ND	ND	0	0
83671	2019-08-15T06:00:00	89.4	ND	ND	ND	ND	10	0.4	83.7	ND	ND	0	0
83672	2019-08-15T07:00:00	141.3	ND	ND	ND	ND	3.4	0.3	55	ND	ND	0	0
83673	2019-08-15T08:00:00	168.2	ND	ND	ND	ND	8	0.8	323.8	ND	ND	88.2	0
83674	2019-08-15T09:00:00	213.8	ND	ND	ND	ND	12.4	1.8	100.4	ND	ND	368.6	0
83675	2019-08-15T10:00:00	221.8	ND	ND	ND	ND	39.1	2	90	ND	ND	545.7	0
83676	2019-08-15T11:00:00	174	ND	ND	ND	ND	69.6	1.1	147.9	ND	ND	648.2	0
83677	2019-08-15T12:00:00	151.5	ND	ND	ND	ND	81.2	1.7	184.2	ND	ND	648.2	0
83678	2019-08-15T13:00:00	114.2	ND	ND	ND	ND	73.7	1.7	177.3	ND	ND	648.1	0
83679	2019-08-15T14:00:00	87.9	ND	ND	ND	ND	86.9	1	176.3	ND	ND	613.3	0
83680	2019-08-15T15:00:00	102.3	ND	ND	ND	ND	72.9	2.2	314.3	ND	ND	647.8	0
83681	2019-08-15T16:00:00	232.6	ND	ND	ND	ND	51.6	5	334.9	ND	ND	648.4	0
83682	2019-08-15T17:00:00	205.2	ND	ND	ND	ND	44.7	5.2	337.1	ND	ND	480.6	0
83683	2019-08-15T18:00:00	139.1	ND	ND	ND	ND	39.1	4.9	333	ND	ND	334.9	0
83684	2019-08-15T19:00:00	93.1	ND	ND	ND	ND	34.6	3.8	327.2	ND	ND	0	0
83685	2019-08-15T20:00:00	75	ND	ND	ND	ND	31.3	3.6	325.2	ND	ND	0	0
83686	2019-08-15T21:00:00	68.8	ND	ND	ND	ND	28.6	1.7	336.5	ND	ND	0	0
83687	2019-08-15T22:00:00	52.6	ND	ND	ND	ND	29.1	2.3	329.3	ND	ND	0	0
83688	2019-08-15T23:00:00	51.5	ND	ND	ND	ND	22.8	1.1	332.6	ND	ND	0	0
83689	2019-08-16T00:00:00	38.2	ND	ND	ND	ND	8.4	0.6	152.5	ND	ND	0	0
83690	2019-08-16T01:00:00	58	ND	ND	ND	ND	18.5	1.2	250	ND	ND	0	0
83691	2019-08-16T02:00:00	92.3	ND	ND	ND	ND	29.4	1.1	274.9	ND	ND	0	0
83692	2019-08-16T03:00:00	68.2	ND	ND	ND	ND	22.8	1.6	242.9	ND	ND	0	0
83693	2019-08-16T04:00:00	87.6	ND	ND	ND	ND	22.3	1.5	251.7	ND	ND	0	0
83694	2019-08-16T05:00:00	76.6	ND	ND	ND	ND	21	0.9	251.7	ND	ND	0	0
83695	2019-08-16T06:00:00	74.6	ND	ND	ND	ND	15.1	0.5	325.1	ND	ND	0	0
83696	2019-08-16T07:00:00	113.1	ND	ND	ND	ND	1	1	106.1	ND	ND	0	0
83697	2019-08-16T08:00:00	169.2	ND	ND	ND	ND	3.2	0.9	107.6	ND	ND	64.1	0
83698	2019-08-16T09:00:00	186.5	ND	ND	ND	ND	11.2	0.6	142.3	ND	ND	271.9	0
83699	2019-08-16T10:00:00	191.2	ND	ND	ND	ND	29.5	0.9	189.2	ND	ND	589.3	0
83700	2019-08-16T11:00:00	188.1	ND	ND	ND	ND	47.4	1.4	178.7	ND	ND	647.8	0
83701	2019-08-16T12:00:00	181.3	ND	ND	ND	ND	52	1.3	195.3	ND	ND	648.7	0
83702	2019-08-16T13:00:00	141.5	ND	ND	ND	ND	90.6	0.5	148.7	ND	ND	596.9	0
83703	2019-08-16T14:00:00	121.7	ND	ND	ND	ND	117.6	1.1	124.8	ND	ND	647.6	0
83704	2019-08-16T15:00:00	119	ND	ND	ND	ND	90.9	1.7	85	ND	ND	648.3	0
83705	2019-08-16T16:00:00	121.9	ND	ND	ND	ND	47.4	2	339.3	ND	ND	575.9	0
83706	2019-08-16T17:00:00	191.7	ND	ND	ND	ND	27.9	3.5	330	ND	ND	273.2	0
83707	2019-08-16T18:00:00	110.9	ND	ND	ND	ND	21.2	3.1	332.1	ND	ND	189.7	0
83708	2019-08-16T19:00:00	74.1	ND	ND	ND	ND	16.4	3.4	324.9	ND	ND	0	0
83709	2019-08-16T20:00:00	67.9	ND	ND	ND	ND	19.6	3.8	320.1	ND	ND	0	0
83710	2019-08-16T21:00:00	52.3	ND	ND	ND	ND	19.7	0.9	15.7	ND	ND	0	0
83711	2019-08-16T22:00:00	76.2	ND	ND	ND	ND	2.7	0.8	129.5	ND	ND	0	0
83712	2019-08-16T23:00:00	94.9	ND	ND	ND	ND	5.4	0.4	109.7	ND	ND	0	0
83713	2019-08-17T00:00:00	70.4	ND	ND	ND	ND	3.9	0.7	155.9	ND	ND	0	0
83714	2019-08-17T01:00:00	77.9	ND	ND	ND	ND	5.5	1	246.5	ND	ND	0	0
83715	2019-08-17T02:00:00	71.7	ND	ND	ND	ND	6	0.7	240.7	ND	ND	0	0
83716	2019-08-17T03:00:00	63.3	ND	ND	ND	ND	9.5	1	253.1	ND	ND	0	0
83717	2019-08-17T04:00:00	78.8	ND	ND	ND	ND	4.7	0.5	196.4	ND	ND	0	0
83718	2019-08-17T05:00:00	65.2	ND	ND	ND	ND	4.2	0.7	211	ND	ND	0	0
83719	2019-08-17T06:00:00	91.8	ND	ND	ND	ND	2.2	0.9	197.5	ND	ND	0	0
83720	2019-08-17T07:00:00	119.6	ND	ND	ND	ND	1.2	0.9	206.1	ND	ND	0	0
83721	2019-08-17T08:00:00	145.4	ND	ND	ND	ND	2.4	1	156.4	ND	ND	44.5	0
83722	2019-08-17T09:00:00	171.3	ND	ND	ND	ND	7.6	0.8	121.7	ND	ND	289.7	0
83723	2019-08-17T10:00:00	146.8	ND	ND	ND	ND	18.6	0.7	172.9	ND	ND	462.6	0
83724	2019-08-17T11:00:00	132.3	ND	ND	ND	ND	34.1	1.3	94.9	ND	ND	648.2	0
83725	2019-08-17T12:00:00	107.5	ND	ND	ND	ND	49.2	1.2	108.2	ND	ND	648.1	0
83726	2019-08-17T13:00:00	83	ND	ND	ND	ND	56.7	1.5	121.3	ND	ND	648	0
83727	2019-08-17T14:00:00	88.6	ND	ND	ND	ND	62.4	1.5	86.4	ND	ND	641.2	0
83728	2019-08-17T15:00:00	84.8	ND	ND	ND	ND	72.9	1.3	86.1	ND	ND	648.3	0
83729	2019-08-17T16:00:00	81.5	ND	ND	ND	ND	52.1	2.5	7.3	ND	ND	648.4	0
83730	2019-08-17T17:00:00	65	ND	ND	ND	ND	45.5	1.5	5.4	ND	ND	533.2	0
83731	2019-08-17T18:00:00	46.7	ND	ND	ND	ND	28.9	0.9	40.3	ND	ND	446.8	0
83732	2019-08-17T19:00:00	38.7	ND	ND	ND	ND	28.3	2.3	326	ND	ND	0	0
83733	2019-08-17T20:00:00	7	ND	ND	ND	ND	22.5	2	335.9	ND	ND	0	0
83734	2019-08-17T21:00:00	14.7	ND	ND	ND	ND	14.1	0.9	340.5	ND	ND	0	0
83735	2019-08-17T22:00:00	67.7	ND	ND	ND	ND	1	1.1	138.9	ND	ND	0	0
83736	2019-08-17T23:00:00	99.2	ND	ND	ND	ND	1.1	0.3	169.9	ND	ND	0	0
83737	2019-08-18T00:00:00	98.3	ND	ND	ND	ND	3.4	1.1	252.8	ND	ND	0	0
83738	2019-08-18T01:00:00	77.6	ND	ND	ND	ND	0.8	1.3	227.7	ND	ND	0	0
83739	2019-08-18T02:00:00	75.2	ND	ND	ND	ND	3.5	1.7	229	ND	ND	0	0
83740	2019-08-18T03:00:00	70.9	ND	ND	ND	ND	6.6	1.2	212	ND	ND	0	0
83741	2019-08-18T04:00:00	70.7	ND	ND	ND	ND	6	0.9	196.9	ND	ND	0	0
83742	2019-08-18T05:00:00	87.6	ND	ND	ND	ND	2.4	0.6	207	ND	ND	0	0
83743	2019-08-18T06:00:00	102	ND	ND	ND	ND	4.2	0.4	313.9	ND	ND	0	0
83744	2019-08-18T07:00:00	126.4	ND	ND	ND	ND	1.1	0.9	104.7	ND	ND	0	0
83745	2019-08-18T08:00:00	154.5	ND	ND	ND	ND	7.3	0.9	86.7	ND	ND	67.4	0
83746	2019-08-18T09:00:00	150.2	ND	ND	ND	ND	27.3	1	176.7	ND	ND	503.8	0
83747	2019-08-18T10:00:00	123.4	ND	ND	ND	ND	53.8	1.4	173.9	ND	ND	639.8	0
83748	2019-08-18T11:00:00	94.9	ND	ND	ND	ND	73.5	1	178.7	ND	ND	647.7	0
83749	2019-08-18T12:00:00	77.7	ND	ND	ND	ND	88.9	1.2	159.8	ND	ND	648.1	0
83750	2019-08-18T13:00:00	74.6	ND	ND	ND	ND	90.8	1.3	166.8	ND	ND	648.6	0
83751	2019-08-18T14:00:00	58.3	ND	ND	ND	ND	91.8	0.9	120.6	ND	ND	648.6	0
83752	2019-08-18T15:00:00	64.6	ND	ND	ND	ND	97.4	1.1	138.1	ND	ND	649	0
83753	2019-08-18T16:00:00	68.3	ND	ND	ND	ND	87.4	1.7	148.2	ND	ND	619.1	0
83754	2019-08-18T17:00:00	59.3	ND	ND	ND	ND	75.5	0.9	349.7	ND	ND	648.9	0
83755	2019-08-18T18:00:00	52.5	ND	ND	ND	ND	48.3	3.4	319.1	ND	ND	465.2	0
83756	2019-08-18T19:00:00	62.7	ND	ND	ND	ND	36.9	3.6	321.7	ND	ND	0	0
83757	2019-08-18T20:00:00	43.5	ND	ND	ND	ND	27.1	3.4	313.3	ND	ND	0	0
83758	2019-08-18T21:00:00	37.4	ND	ND	ND	ND	24.4	2.7	330.5	ND	ND	0	0
83759	2019-08-18T22:00:00	48	ND	ND	ND	ND	6.9	0.3	69	ND	ND	0	0
83760	2019-08-18T23:00:00	52.4	ND	ND	ND	ND	23	2.2	307	ND	ND	0	0
83761	2019-08-19T00:00:00	43.8	ND	ND	ND	ND	15	1.5	257.9	ND	ND	0	0
83762	2019-08-19T01:00:00	62.8	ND	ND	ND	ND	6.1	1.4	227.7	ND	ND	0	0
83763	2019-08-19T02:00:00	86.6	ND	ND	ND	ND	5.4	0.8	180.3	ND	ND	0	0
83764	2019-08-19T03:00:00	97	ND	ND	ND	ND	8.2	0.8	210.5	ND	ND	0	0
83765	2019-08-19T04:00:00	94.6	ND	ND	ND	ND	8.2	0.5	299.3	ND	ND	0	0
83766	2019-08-19T05:00:00	78.8	ND	ND	ND	ND	7.9	0.5	241	ND	ND	0	0
83767	2019-08-19T06:00:00	98	ND	ND	ND	ND	0.8	0.4	105.2	ND	ND	0	0
83768	2019-08-19T07:00:00	115.9	ND	ND	ND	ND	6	0.6	265	ND	ND	0	0
83769	2019-08-19T08:00:00	93.3	ND	ND	ND	ND	7.8	0.8	131.7	ND	ND	116.4	0
83770	2019-08-19T09:00:00	141	ND	ND	ND	ND	26.3	0.8	186.5	ND	ND	576	0
83771	2019-08-19T10:00:00	122.7	ND	ND	ND	ND	46.1	1.5	213.4	ND	ND	647.2	0
83772	2019-08-19T11:00:00	118.4	ND	ND	ND	ND	64.7	0.7	158.9	ND	ND	648.2	0
83773	2019-08-19T12:00:00	80.9	ND	ND	ND	ND	74.6	1.2	144.4	ND	ND	648.4	0
83774	2019-08-19T13:00:00	86.1	ND	ND	ND	ND	72	1.4	132.7	ND	ND	648.5	0
83775	2019-08-19T14:00:00	78.1	ND	ND	ND	ND	78.6	1.8	120.2	ND	ND	648.6	0
83776	2019-08-19T15:00:00	70.8	ND	ND	ND	ND	90.2	1.6	108.7	ND	ND	648.3	0
83777	2019-08-19T16:00:00	69	ND	ND	ND	ND	89.2	0.6	88.9	ND	ND	647.9	0
83778	2019-08-19T17:00:00	66.8	ND	ND	ND	ND	43.3	3.9	329.4	ND	ND	526	0
83779	2019-08-19T18:00:00	81.5	ND	ND	ND	ND	35.9	4.7	326.3	ND	ND	289.7	0
83780	2019-08-19T19:00:00	73.9	ND	ND	ND	ND	27	5.3	322.3	ND	ND	0	0
83781	2019-08-19T20:00:00	55.3	ND	ND	ND	ND	25.2	4.8	320	ND	ND	0	0
83782	2019-08-19T21:00:00	30.5	ND	ND	ND	ND	24.8	2.2	345.5	ND	ND	0	0
83783	2019-08-19T22:00:00	19.4	ND	ND	ND	ND	23.2	2.8	342.1	ND	ND	0	0
83784	2019-08-19T23:00:00	21.4	ND	ND	ND	ND	16.7	1.8	305	ND	ND	0	0
83785	2019-08-20T00:00:00	31.5	ND	ND	ND	ND	5.1	1.1	191.2	ND	ND	0	0
83786	2019-08-20T01:00:00	71.5	ND	ND	ND	ND	4.9	1.2	201.2	ND	ND	0	0
83787	2019-08-20T02:00:00	114.1	ND	ND	ND	ND	6.1	0.7	192.1	ND	ND	0	0
83788	2019-08-20T03:00:00	95.8	ND	ND	ND	ND	4.1	0.8	164.2	ND	ND	0	0
83789	2019-08-20T04:00:00	81.8	ND	ND	ND	ND	3.8	0.6	130.1	ND	ND	0	0
83790	2019-08-20T05:00:00	66.4	ND	ND	ND	ND	2.1	0.9	137.3	ND	ND	0	0
83791	2019-08-20T06:00:00	64.9	ND	ND	ND	ND	1.7	1.1	187.6	ND	ND	0	11.43
83792	2019-08-20T07:00:00	57.6	ND	ND	ND	ND	0.9	0.5	254.1	ND	ND	0	0.25
83793	2019-08-20T08:00:00	64.7	ND	ND	ND	ND	1.5	0.8	164.2	ND	ND	42.2	0
83794	2019-08-20T09:00:00	83.6	ND	ND	ND	ND	10.3	0.7	199.2	ND	ND	446.5	0
83795	2019-08-20T10:00:00	82.4	ND	ND	ND	ND	27.1	1.2	224.8	ND	ND	648.3	0
83796	2019-08-20T11:00:00	93.1	ND	ND	ND	ND	40.1	1.4	207.4	ND	ND	648.1	0
83797	2019-08-20T12:00:00	75.7	ND	ND	ND	ND	64.6	0.8	207.3	ND	ND	648.6	0
83798	2019-08-20T13:00:00	81.7	ND	ND	ND	ND	88.4	1.1	137.6	ND	ND	648.4	0
83799	2019-08-20T14:00:00	79.7	ND	ND	ND	ND	76	1.5	169.5	ND	ND	649	0
83800	2019-08-20T15:00:00	72.8	ND	ND	ND	ND	57.8	1.1	150.6	ND	ND	648.7	0
83801	2019-08-20T16:00:00	76.5	ND	ND	ND	ND	158.9	1.9	319.3	ND	ND	642.1	0
83802	2019-08-20T17:00:00	82.5	ND	ND	ND	ND	42.8	3.2	316.8	ND	ND	566.5	0
83803	2019-08-20T18:00:00	80.6	ND	ND	ND	ND	27.2	3.2	320.2	ND	ND	386.7	0
83804	2019-08-20T19:00:00	64.2	ND	ND	ND	ND	16	3.2	322.4	ND	ND	0	0
83805	2019-08-20T20:00:00	44.9	ND	ND	ND	ND	22.8	4	320	ND	ND	0	0
83806	2019-08-20T21:00:00	36.4	ND	ND	ND	ND	18.8	3.4	320.5	ND	ND	0	0
83807	2019-08-20T22:00:00	28.1	ND	ND	ND	ND	23.9	2.4	341.7	ND	ND	0	0
83808	2019-08-20T23:00:00	18.5	ND	ND	ND	ND	24.1	1.5	339.2	ND	ND	0	0
83809	2019-08-21T00:00:00	25	ND	ND	ND	ND	9.1	0.5	51.5	ND	ND	0	0
83810	2019-08-21T01:00:00	41.2	ND	ND	ND	ND	19	1.3	299.9	ND	ND	0	0
83811	2019-08-21T02:00:00	21.8	ND	ND	ND	ND	10.7	0.5	71.4	ND	ND	0	0
83812	2019-08-21T03:00:00	39.8	ND	ND	ND	ND	5.6	0.3	247.3	ND	ND	0	0
83813	2019-08-21T04:00:00	53	ND	ND	ND	ND	9.9	0.9	317.9	ND	ND	0	0
83814	2019-08-21T05:00:00	31.7	ND	ND	ND	ND	4.8	0.3	43.3	ND	ND	0	0
83815	2019-08-21T06:00:00	41.8	ND	ND	ND	ND	2.6	0.6	303.1	ND	ND	0	0
83816	2019-08-21T07:00:00	76.6	ND	ND	ND	ND	1.1	0.9	108.5	ND	ND	1	0
83817	2019-08-21T08:00:00	167.9	ND	ND	ND	ND	3	0.9	124	ND	ND	109.2	0
83818	2019-08-21T09:00:00	193.5	ND	ND	ND	ND	15	1.1	179.4	ND	ND	502.4	0
83819	2019-08-21T10:00:00	163.3	ND	ND	ND	ND	31.7	1.1	186.7	ND	ND	648.7	0
83820	2019-08-21T11:00:00	112.9	ND	ND	ND	ND	54.2	1.1	178.9	ND	ND	648.8	0
83821	2019-08-21T12:00:00	100.1	ND	ND	ND	ND	87	0.6	99.4	ND	ND	649.3	0
83822	2019-08-21T13:00:00	92.6	ND	ND	ND	ND	73	0.9	188.1	ND	ND	649.3	0
83823	2019-08-21T14:00:00	54.4	ND	ND	ND	ND	54.2	1.6	180.7	ND	ND	647.5	0
83824	2019-08-21T15:00:00	47.8	ND	ND	ND	ND	53.7	1.4	129.7	ND	ND	649.7	0
83825	2019-08-21T16:00:00	51.6	ND	ND	ND	ND	52.4	0.6	259.7	ND	ND	649.6	0
83826	2019-08-21T17:00:00	96	ND	ND	ND	ND	34.9	4.5	330	ND	ND	578.7	0
83827	2019-08-21T18:00:00	93.9	ND	ND	ND	ND	27.9	4.4	322.7	ND	ND	478.1	0
83828	2019-08-21T19:00:00	56.7	ND	ND	ND	ND	18.3	3.5	323.7	ND	ND	0	0
83829	2019-08-21T20:00:00	43.2	ND	ND	ND	ND	16.7	2.7	325.5	ND	ND	0	0
83830	2019-08-21T21:00:00	32.9	ND	ND	ND	ND	20.4	3.6	317.2	ND	ND	0	0
83831	2019-08-21T22:00:00	29.2	ND	ND	ND	ND	16.3	1.4	343.1	ND	ND	0	0
83832	2019-08-21T23:00:00	64.2	ND	ND	ND	ND	10.9	1.2	272.3	ND	ND	0	0
83833	2019-08-22T00:00:00	72	ND	ND	ND	ND	5.1	2.3	241.3	ND	ND	0	0
83834	2019-08-22T01:00:00	80.8	ND	ND	ND	ND	5.3	1.2	222.5	ND	ND	0	0
83835	2019-08-22T02:00:00	104.8	ND	ND	ND	ND	6.2	0.8	188.7	ND	ND	0	0
83836	2019-08-22T03:00:00	114.3	ND	ND	ND	ND	7.5	1	252.4	ND	ND	0	0
83837	2019-08-22T04:00:00	71.1	ND	ND	ND	ND	12.3	0.9	247.1	ND	ND	0	0
83838	2019-08-22T05:00:00	52.1	ND	ND	ND	ND	9.6	0.4	19.8	ND	ND	0	0
83839	2019-08-22T06:00:00	71.5	ND	ND	ND	ND	5.1	0.2	253.5	ND	ND	0	0
83840	2019-08-22T07:00:00	133	ND	ND	ND	ND	1.6	0.8	211	ND	ND	0	0
83841	2019-08-22T08:00:00	166.8	ND	ND	ND	ND	2.1	0.5	307.2	ND	ND	32	0
83842	2019-08-22T09:00:00	202.5	ND	ND	ND	ND	6	1.6	121.2	ND	ND	212	0
83843	2019-08-22T10:00:00	195.9	ND	ND	ND	ND	24.3	1.4	140.4	ND	ND	599.7	0
83844	2019-08-22T11:00:00	79.5	ND	ND	ND	ND	64.3	0.9	141	ND	ND	648.8	0
83845	2019-08-22T12:00:00	126.7	ND	ND	ND	ND	96.4	1.1	152.9	ND	ND	649.4	0
83846	2019-08-22T13:00:00	122.6	ND	ND	ND	ND	100.4	1.2	169.2	ND	ND	649	0
83847	2019-08-22T14:00:00	107.2	ND	ND	ND	ND	103.9	1	169.7	ND	ND	649.8	0
83848	2019-08-22T15:00:00	105.7	ND	ND	ND	ND	101.6	0.6	9.1	ND	ND	649.6	0
83849	2019-08-22T16:00:00	137.5	ND	ND	ND	ND	64.4	3.9	330.9	ND	ND	646.8	0
83850	2019-08-22T17:00:00	110.6	ND	ND	ND	ND	47.1	4.1	335.1	ND	ND	595	0
83851	2019-08-22T18:00:00	112.3	ND	ND	ND	ND	30.1	5	331.8	ND	ND	448.4	0
83852	2019-08-22T19:00:00	117.7	ND	ND	ND	ND	28.2	5.4	330.6	ND	ND	0	0
83853	2019-08-22T20:00:00	59.6	ND	ND	ND	ND	22.4	3.9	323.3	ND	ND	0	0
83854	2019-08-22T21:00:00	38.5	ND	ND	ND	ND	22.5	2.8	326.9	ND	ND	0	0
83855	2019-08-22T22:00:00	29.9	ND	ND	ND	ND	22.4	2	330.8	ND	ND	0	0
83856	2019-08-22T23:00:00	47.6	ND	ND	ND	ND	3.3	0.7	114.9	ND	ND	0	0
83857	2019-08-23T00:00:00	63	ND	ND	ND	ND	15.2	1.5	276.8	ND	ND	0	0
83858	2019-08-23T01:00:00	45.7	ND	ND	ND	ND	16.9	1.2	269.6	ND	ND	0	0
83859	2019-08-23T02:00:00	58.6	ND	ND	ND	ND	11.1	0.9	222.1	ND	ND	0	0
83860	2019-08-23T03:00:00	81	ND	ND	ND	ND	11.4	0.6	301.4	ND	ND	0	0
83861	2019-08-23T04:00:00	68.6	ND	ND	ND	ND	14.6	0.8	305.7	ND	ND	0	0
83862	2019-08-23T05:00:00	51.4	ND	ND	ND	ND	16.5	1.4	297.2	ND	ND	0	0
83863	2019-08-23T06:00:00	59.8	ND	ND	ND	ND	5.2	0.3	168.6	ND	ND	0	0
83864	2019-08-23T07:00:00	136.6	ND	ND	ND	ND	1	0.7	162.6	ND	ND	0	0
83865	2019-08-23T08:00:00	172.5	ND	ND	ND	ND	2.9	0.8	142.4	ND	ND	155.8	0
83866	2019-08-23T09:00:00	200.8	ND	ND	ND	ND	17	0.9	154.7	ND	ND	562.2	0
83867	2019-08-23T10:00:00	151.8	ND	ND	ND	ND	49.6	0.9	172.9	ND	ND	648.1	0
83868	2019-08-23T11:00:00	107.8	ND	ND	ND	ND	72.1	1.1	201.5	ND	ND	647.7	0
83869	2019-08-23T12:00:00	94.9	ND	ND	ND	ND	95	1.1	138.3	ND	ND	648	0
83870	2019-08-23T13:00:00	89.8	ND	ND	ND	ND	100.4	1	195.6	ND	ND	648.5	0
83871	2019-08-23T14:00:00	83.9	ND	ND	ND	ND	81.2	1.1	221.9	ND	ND	648.5	0
83872	2019-08-23T15:00:00	91.9	ND	ND	ND	ND	75.3	1.3	228.7	ND	ND	647	0
83873	2019-08-23T16:00:00	82.1	ND	ND	ND	ND	50.1	1.2	211.8	ND	ND	646.3	0
83874	2019-08-23T17:00:00	71.1	ND	ND	ND	ND	42	0.9	203.1	ND	ND	608	0
83875	2019-08-23T18:00:00	82.8	ND	ND	ND	ND	30.8	4.2	324.4	ND	ND	407.7	0
83876	2019-08-23T19:00:00	91.3	ND	ND	ND	ND	20.2	4.4	323.7	ND	ND	0	0
83877	2019-08-23T20:00:00	75	ND	ND	ND	ND	14.9	4.3	320	ND	ND	0	0
83878	2019-08-23T21:00:00	55.9	ND	ND	ND	ND	10.9	1.6	335.4	ND	ND	0	0
83879	2019-08-23T22:00:00	43.7	ND	ND	ND	ND	13.9	3.2	317.5	ND	ND	0	0
83880	2019-08-23T23:00:00	38.6	ND	ND	ND	ND	9.7	1.1	347.9	ND	ND	0	0
83881	2019-08-24T00:00:00	51.5	ND	ND	ND	ND	6.1	1.7	264.5	ND	ND	0	0
83882	2019-08-24T01:00:00	47.4	ND	ND	ND	ND	5	0.7	345.7	ND	ND	0	0
83883	2019-08-24T02:00:00	60.4	ND	ND	ND	ND	10.2	1.1	301.9	ND	ND	0	0
83884	2019-08-24T03:00:00	44.4	ND	ND	ND	ND	13.2	1.2	280.8	ND	ND	0	0
83885	2019-08-24T04:00:00	37.3	ND	ND	ND	ND	1.3	0.4	32	ND	ND	0	0
83886	2019-08-24T05:00:00	75.3	ND	ND	ND	ND	0.8	0.9	141.1	ND	ND	0	0
83887	2019-08-24T06:00:00	103.5	ND	ND	ND	ND	0.9	0.8	248.6	ND	ND	0	0
83888	2019-08-24T07:00:00	80	ND	ND	ND	ND	2.9	1	302.8	ND	ND	0	0
83889	2019-08-24T08:00:00	86.3	ND	ND	ND	ND	6	0.9	310.3	ND	ND	176.1	0
83890	2019-08-24T09:00:00	142.8	ND	ND	ND	ND	18	0.8	115.9	ND	ND	579.3	0
83891	2019-08-24T10:00:00	136.7	ND	ND	ND	ND	56.3	0.8	95.7	ND	ND	648.1	0
83892	2019-08-24T11:00:00	139	ND	ND	ND	ND	77.2	1.1	117	ND	ND	648.1	0
83893	2019-08-24T12:00:00	140.8	ND	ND	ND	ND	100.2	1.1	142	ND	ND	648.1	0
83894	2019-08-24T13:00:00	123.8	ND	ND	ND	ND	84	1.4	143	ND	ND	648.2	0
83895	2019-08-24T14:00:00	115.2	ND	ND	ND	ND	66.6	1.5	325.1	ND	ND	618.9	0
83896	2019-08-24T15:00:00	63.1	ND	ND	ND	ND	67.8	3.3	324.1	ND	ND	648.7	0
83897	2019-08-24T16:00:00	57.4	ND	ND	ND	ND	42.6	3.5	335.2	ND	ND	557.1	0
83898	2019-08-24T17:00:00	46.3	ND	ND	ND	ND	35.1	3.6	336.3	ND	ND	328.9	0
83899	2019-08-24T18:00:00	47.2	ND	ND	ND	ND	26.2	4	329.8	ND	ND	260.8	0
83900	2019-08-24T19:00:00	49.7	ND	ND	ND	ND	21.5	3.9	322.4	ND	ND	0	0
83901	2019-08-24T20:00:00	27.8	ND	ND	ND	ND	17.3	3	318.2	ND	ND	0	0
83902	2019-08-24T21:00:00	27.7	ND	ND	ND	ND	6.7	1.2	348	ND	ND	0	0
83903	2019-08-24T22:00:00	53.2	ND	ND	ND	ND	8.3	1.6	315.8	ND	ND	0	0
83904	2019-08-24T23:00:00	26.3	ND	ND	ND	ND	11.4	2.2	322.5	ND	ND	0	0
83905	2019-08-25T00:00:00	60.5	ND	ND	ND	ND	2	0.7	148.4	ND	ND	0	0
83906	2019-08-25T01:00:00	114.3	ND	ND	ND	ND	1.8	0.3	253	ND	ND	0	0
83907	2019-08-25T02:00:00	96.9	ND	ND	ND	ND	2.9	0.7	230.1	ND	ND	0	0
83908	2019-08-25T03:00:00	75.2	ND	ND	ND	ND	3.3	1.3	246.3	ND	ND	0	0
83909	2019-08-25T04:00:00	63.5	ND	ND	ND	ND	2	0.8	215.5	ND	ND	0	0
83910	2019-08-25T05:00:00	61.9	ND	ND	ND	ND	0.8	0.3	127.8	ND	ND	0	0
83911	2019-08-25T06:00:00	60.9	ND	ND	ND	ND	2.6	0.3	330.5	ND	ND	0	0
83912	2019-08-25T07:00:00	81.5	ND	ND	ND	ND	1.2	0.8	64.9	ND	ND	0	0
83913	2019-08-25T08:00:00	148.5	ND	ND	ND	ND	6.8	1	114.9	ND	ND	140.3	0
83914	2019-08-25T09:00:00	149.6	ND	ND	ND	ND	25.7	0.8	176	ND	ND	612.5	0
83915	2019-08-25T10:00:00	102.9	ND	ND	ND	ND	51.8	1	179.7	ND	ND	648.2	0
83916	2019-08-25T11:00:00	58.9	ND	ND	ND	ND	69.8	1	208	ND	ND	648.1	0
83917	2019-08-25T12:00:00	64.6	ND	ND	ND	ND	83.4	0.9	194	ND	ND	648.1	0
83918	2019-08-25T13:00:00	66.9	ND	ND	ND	ND	83	1	150.5	ND	ND	648.2	0
83919	2019-08-25T14:00:00	56	ND	ND	ND	ND	78.5	1.3	128.3	ND	ND	648.5	0
83920	2019-08-25T15:00:00	48.4	ND	ND	ND	ND	61.9	2.3	336.5	ND	ND	648.7	0
83921	2019-08-25T16:00:00	45.2	ND	ND	ND	ND	48.1	4.2	333.3	ND	ND	649.1	0
83922	2019-08-25T17:00:00	34.6	ND	ND	ND	ND	39.8	4.3	331.8	ND	ND	605.7	0
83923	2019-08-25T18:00:00	43.9	ND	ND	ND	ND	32.3	4.1	335.7	ND	ND	420.4	0
83924	2019-08-25T19:00:00	41.8	ND	ND	ND	ND	32.3	3.7	340.1	ND	ND	0	0
83925	2019-08-25T20:00:00	31.1	ND	ND	ND	ND	29	3.5	328.5	ND	ND	0	0
83926	2019-08-25T21:00:00	21.9	ND	ND	ND	ND	23.3	3.4	311.9	ND	ND	0	0
83927	2019-08-25T22:00:00	17.1	ND	ND	ND	ND	20	2.3	304.9	ND	ND	0	0
83928	2019-08-25T23:00:00	33.9	ND	ND	ND	ND	12.2	1.4	264.9	ND	ND	0	0
83929	2019-08-26T00:00:00	46.6	ND	ND	ND	ND	2.4	0.5	110.2	ND	ND	0	0
83930	2019-08-26T01:00:00	48.9	ND	ND	ND	ND	10.9	1.1	246.4	ND	ND	0	0
83931	2019-08-26T02:00:00	51	ND	ND	ND	ND	13.7	0.5	166.6	ND	ND	0	0
83932	2019-08-26T03:00:00	59.4	ND	ND	ND	ND	7.8	1.1	188.9	ND	ND	0	0
83933	2019-08-26T04:00:00	67.3	ND	ND	ND	ND	13.3	1	268.6	ND	ND	0	0
83934	2019-08-26T05:00:00	43	ND	ND	ND	ND	13.6	0.6	310.7	ND	ND	0	0
83935	2019-08-26T06:00:00	56.5	ND	ND	ND	ND	3.1	0.4	227.6	ND	ND	0	0
83936	2019-08-26T07:00:00	72.8	ND	ND	ND	ND	1.6	0.5	314.2	ND	ND	0	0
83937	2019-08-26T08:00:00	113.5	ND	ND	ND	ND	2	0.8	106.1	ND	ND	155.1	0
83938	2019-08-26T09:00:00	166.5	ND	ND	ND	ND	11.1	1.2	113.1	ND	ND	412	0
83939	2019-08-26T10:00:00	154.8	ND	ND	ND	ND	35.1	0.6	144.4	ND	ND	647.9	0
83940	2019-08-26T11:00:00	120.6	ND	ND	ND	ND	64.8	1	161	ND	ND	646.9	0
83941	2019-08-26T12:00:00	111.4	ND	ND	ND	ND	89.4	1.1	171.3	ND	ND	648.5	0
83942	2019-08-26T13:00:00	138.5	ND	ND	ND	ND	96.2	0.8	201.3	ND	ND	648.4	0
83943	2019-08-26T14:00:00	113.5	ND	ND	ND	ND	124	0.9	201.3	ND	ND	648.1	0
83944	2019-08-26T15:00:00	104.4	ND	ND	ND	ND	391.6	2.1	209.4	ND	ND	648.8	0
83945	2019-08-26T16:00:00	101.3	ND	ND	ND	ND	51	2.3	231.3	ND	ND	648.8	0
83946	2019-08-26T17:00:00	90.3	ND	ND	ND	ND	45.2	1.6	206	ND	ND	649	0
83947	2019-08-26T18:00:00	90.6	ND	ND	ND	ND	27.8	2.6	319.1	ND	ND	439.5	0
83948	2019-08-26T19:00:00	76.7	ND	ND	ND	ND	17.2	4.2	315.6	ND	ND	0	0
83949	2019-08-26T20:00:00	54.9	ND	ND	ND	ND	11.2	3	319.3	ND	ND	0	0
83950	2019-08-26T21:00:00	39.7	ND	ND	ND	ND	15.6	2.5	320.5	ND	ND	0	0
83951	2019-08-26T22:00:00	29.2	ND	ND	ND	ND	19.1	2.9	321.2	ND	ND	0	0
83952	2019-08-26T23:00:00	27.7	ND	ND	ND	ND	13	1.3	349.5	ND	ND	0	0
83953	2019-08-27T00:00:00	42	ND	ND	ND	ND	10.2	1.9	246.2	ND	ND	0	0
83954	2019-08-27T01:00:00	81.3	ND	ND	ND	ND	5.1	1.1	158.9	ND	ND	0	0
83955	2019-08-27T02:00:00	58.4	ND	ND	ND	ND	6.5	0.3	193.2	ND	ND	0	0
83956	2019-08-27T03:00:00	68.8	ND	ND	ND	ND	7.7	1	241.3	ND	ND	0	0
83957	2019-08-27T04:00:00	64.3	ND	ND	ND	ND	9.9	0.7	233.2	ND	ND	0	0
83958	2019-08-27T05:00:00	40	ND	ND	ND	ND	1.1	0.8	211.2	ND	ND	0	0
83959	2019-08-27T06:00:00	68.7	ND	ND	ND	ND	0.6	0.5	205.6	ND	ND	0	0
83960	2019-08-27T07:00:00	118.3	ND	ND	ND	ND	1.2	0.6	83	ND	ND	0	0
83961	2019-08-27T08:00:00	144.5	ND	ND	ND	ND	3.2	0.6	142.8	ND	ND	196.3	0
83962	2019-08-27T09:00:00	197.5	ND	ND	ND	ND	18.5	1.1	161.6	ND	ND	613.5	0
83963	2019-08-27T10:00:00	167.5	ND	ND	ND	ND	42.3	1.3	168.9	ND	ND	647.8	0
83964	2019-08-27T11:00:00	98.1	ND	ND	ND	ND	69.3	0.8	142.1	ND	ND	647.8	0
83965	2019-08-27T12:00:00	93.3	ND	ND	ND	ND	91.3	0.3	187	ND	ND	648.3	0
83966	2019-08-27T13:00:00	86.2	ND	ND	ND	ND	84.5	1	222.6	ND	ND	648.2	0
83967	2019-08-27T14:00:00	57.6	ND	ND	ND	ND	62.2	0.8	208.6	ND	ND	649.1	0
83968	2019-08-27T15:00:00	61.9	ND	ND	ND	ND	60.4	1.1	215.1	ND	ND	648.9	0
83969	2019-08-27T16:00:00	55.2	ND	ND	ND	ND	60.1	1.7	265.6	ND	ND	648.9	0
83970	2019-08-27T17:00:00	89.2	ND	ND	ND	ND	34.1	4.8	332	ND	ND	648.5	0
83971	2019-08-27T18:00:00	104	ND	ND	ND	ND	25.2	4.7	330.7	ND	ND	447.2	0
83972	2019-08-27T19:00:00	84.2	ND	ND	ND	ND	22.8	4.9	333.4	ND	ND	0	0
83973	2019-08-27T20:00:00	53.2	ND	ND	ND	ND	20.6	3.9	323.3	ND	ND	0	0
83974	2019-08-27T21:00:00	28.6	ND	ND	ND	ND	20.5	3.3	323.1	ND	ND	0	0
83975	2019-08-27T22:00:00	29.2	ND	ND	ND	ND	13.5	1	328.7	ND	ND	0	0
83976	2019-08-27T23:00:00	50.2	ND	ND	ND	ND	7.3	0.8	329.9	ND	ND	0	0
83977	2019-08-28T00:00:00	32.9	ND	ND	ND	ND	13.9	1.3	339	ND	ND	0	0
83978	2019-08-28T01:00:00	27.9	ND	ND	ND	ND	8.1	0.8	141.8	ND	ND	0	0
83979	2019-08-28T02:00:00	38.1	ND	ND	ND	ND	16.2	1.4	267.2	ND	ND	0	0
83980	2019-08-28T03:00:00	60.2	ND	ND	ND	ND	12.2	1.8	243.6	ND	ND	0	0
83981	2019-08-28T04:00:00	66.6	ND	ND	ND	ND	12.6	1	273.4	ND	ND	0	0
83982	2019-08-28T05:00:00	61.3	ND	ND	ND	ND	14.9	0.9	316.4	ND	ND	0	0
83983	2019-08-28T06:00:00	47.7	ND	ND	ND	ND	6.3	0.9	314.8	ND	ND	0	0
83984	2019-08-28T07:00:00	87	ND	ND	ND	ND	1.4	0.2	283	ND	ND	0	0
83985	2019-08-28T08:00:00	137.5	ND	ND	ND	ND	1.7	0.8	183.9	ND	ND	76.8	0
83986	2019-08-28T09:00:00	180.8	ND	ND	ND	ND	6.8	0.4	221.2	ND	ND	290.5	0
83987	2019-08-28T10:00:00	163.9	ND	ND	ND	ND	14.7	1.2	124.8	ND	ND	497.7	0
83988	2019-08-28T11:00:00	166.1	ND	ND	ND	ND	21.1	1.4	106	ND	ND	648	0
83989	2019-08-28T12:00:00	109.5	ND	ND	ND	ND	50.7	0.8	119.4	ND	ND	648.2	0
83990	2019-08-28T13:00:00	85.2	ND	ND	ND	ND	67.1	1.1	122.1	ND	ND	648	0
83991	2019-08-28T14:00:00	83.5	ND	ND	ND	ND	65.8	1.4	125.2	ND	ND	648.6	0
83992	2019-08-28T15:00:00	87.6	ND	ND	ND	ND	48.8	1.8	103.7	ND	ND	648.2	0
83993	2019-08-28T16:00:00	76.5	ND	ND	ND	ND	25.5	0.9	67.6	ND	ND	604.8	0
83994	2019-08-28T17:00:00	90.6	ND	ND	ND	ND	32.2	3.3	322.4	ND	ND	492.6	0
83995	2019-08-28T18:00:00	92.4	ND	ND	ND	ND	22.7	3.2	326.3	ND	ND	348	0
83996	2019-08-28T19:00:00	67.1	ND	ND	ND	ND	14.9	2.3	336.5	ND	ND	0	0
83997	2019-08-28T20:00:00	59.1	ND	ND	ND	ND	17.4	2.7	334.4	ND	ND	0	0
83998	2019-08-28T21:00:00	46.6	ND	ND	ND	ND	13.9	1.9	331	ND	ND	0	0
83999	2019-08-28T22:00:00	30.4	ND	ND	ND	ND	16.8	1.8	293.7	ND	ND	0	0
84000	2019-08-28T23:00:00	29.7	ND	ND	ND	ND	10.6	1.4	253.8	ND	ND	0	0
84001	2019-08-29T00:00:00	50.9	ND	ND	ND	ND	3.3	0.2	321.7	ND	ND	0	0
84002	2019-08-29T01:00:00	89.7	ND	ND	ND	ND	14.5	0.7	290.1	ND	ND	0	0
84003	2019-08-29T02:00:00	49.3	ND	ND	ND	ND	4.2	0.8	196.9	ND	ND	0	0
84004	2019-08-29T03:00:00	61.1	ND	ND	ND	ND	4.6	0.8	236.1	ND	ND	0	0
84005	2019-08-29T04:00:00	81.4	ND	ND	ND	ND	4.4	0.9	195.1	ND	ND	0	0
84006	2019-08-29T05:00:00	77.4	ND	ND	ND	ND	2.8	0.8	206.1	ND	ND	0	0
84007	2019-08-29T06:00:00	86	ND	ND	ND	ND	2.1	0.7	284.1	ND	ND	0	0
84008	2019-08-29T07:00:00	95.1	ND	ND	ND	ND	1.4	0.8	104.8	ND	ND	0	0
84009	2019-08-29T08:00:00	168.8	ND	ND	ND	ND	5.4	0.8	180.7	ND	ND	170.8	0
84010	2019-08-29T09:00:00	184.5	ND	ND	ND	ND	25.1	0.7	137.8	ND	ND	608.5	0
84011	2019-08-29T10:00:00	130.1	ND	ND	ND	ND	50.1	0.9	152.6	ND	ND	648.3	0
84012	2019-08-29T11:00:00	92.3	ND	ND	ND	ND	68.4	1.3	153.3	ND	ND	648	0
84013	2019-08-29T12:00:00	88.9	ND	ND	ND	ND	73.6	1.5	145.7	ND	ND	647.2	0
84014	2019-08-29T13:00:00	71.5	ND	ND	ND	ND	68.3	1.6	100.2	ND	ND	648.2	0
84015	2019-08-29T14:00:00	92.3	ND	ND	ND	ND	78	0.8	97.1	ND	ND	648.9	0
84016	2019-08-29T15:00:00	89.5	ND	ND	ND	ND	75.6	1	69.6	ND	ND	634.3	0
84017	2019-08-29T16:00:00	80.9	ND	ND	ND	ND	58.3	3.3	323	ND	ND	554.9	0
84018	2019-08-29T17:00:00	143.5	ND	ND	ND	ND	35.7	4.2	323.8	ND	ND	639.7	0
84019	2019-08-29T18:00:00	143.4	ND	ND	ND	ND	27.6	5	323.1	ND	ND	440.1	0
84020	2019-08-29T19:00:00	112.3	ND	ND	ND	ND	20	4.2	327.6	ND	ND	0	0
84021	2019-08-29T20:00:00	60	ND	ND	ND	ND	20.3	4	327.3	ND	ND	0	0
84022	2019-08-29T21:00:00	42.1	ND	ND	ND	ND	22.6	2.8	333.4	ND	ND	0	0
84023	2019-08-29T22:00:00	34.2	ND	ND	ND	ND	23.7	1.5	308	ND	ND	0	0
84024	2019-08-29T23:00:00	25.3	ND	ND	ND	ND	21.3	1.9	308.6	ND	ND	0	0
84025	2019-08-30T00:00:00	36.9	ND	ND	ND	ND	8.9	1.5	246.7	ND	ND	0	0
84026	2019-08-30T01:00:00	73.6	ND	ND	ND	ND	8.3	1.4	241.6	ND	ND	0	0
84027	2019-08-30T02:00:00	75.2	ND	ND	ND	ND	10.4	1.5	233.6	ND	ND	0	0
84028	2019-08-30T03:00:00	76.4	ND	ND	ND	ND	2.8	0.6	106.6	ND	ND	0	0
84029	2019-08-30T04:00:00	80.2	ND	ND	ND	ND	2.7	0.8	172.7	ND	ND	0	0
84030	2019-08-30T05:00:00	76	ND	ND	ND	ND	4.6	0.8	222.8	ND	ND	0	0
84031	2019-08-30T06:00:00	59.7	ND	ND	ND	ND	2.7	0.5	340.9	ND	ND	0	0
84032	2019-08-30T07:00:00	88.4	ND	ND	ND	ND	1.1	0.6	118.7	ND	ND	0	0
84033	2019-08-30T08:00:00	138	ND	ND	ND	ND	5	0.9	226.5	ND	ND	143.6	0
84034	2019-08-30T09:00:00	129.8	ND	ND	ND	ND	16.4	1.6	177	ND	ND	602.8	0
84035	2019-08-30T10:00:00	122.2	ND	ND	ND	ND	30.6	1.4	162.2	ND	ND	648.2	0
84036	2019-08-30T11:00:00	97.6	ND	ND	ND	ND	55.5	1	181.5	ND	ND	648.5	0
84037	2019-08-30T12:00:00	102.7	ND	ND	ND	ND	84	1.4	163.7	ND	ND	648	0
84038	2019-08-30T13:00:00	99	ND	ND	ND	ND	109.9	1.6	136.8	ND	ND	648.9	0
84039	2019-08-30T14:00:00	109.8	ND	ND	ND	ND	109	1.4	92.2	ND	ND	648.5	0
84040	2019-08-30T15:00:00	125.7	ND	ND	ND	ND	39.9	4.1	338.7	ND	ND	564	0
84041	2019-08-30T16:00:00	181.7	ND	ND	ND	ND	32.5	4.9	331.6	ND	ND	617.4	0
84042	2019-08-30T17:00:00	177.5	ND	ND	ND	ND	28.1	5.2	328.7	ND	ND	629.4	0
84043	2019-08-30T18:00:00	172.1	ND	ND	ND	ND	25.5	4.4	334.8	ND	ND	345.9	0
84044	2019-08-30T19:00:00	72.6	ND	ND	ND	ND	19.4	3.8	334.9	ND	ND	0	0
84045	2019-08-30T20:00:00	36.2	ND	ND	ND	ND	14.3	2.8	336.4	ND	ND	0	0
84046	2019-08-30T21:00:00	27.5	ND	ND	ND	ND	18.7	4.1	321.9	ND	ND	0	0
84047	2019-08-30T22:00:00	36.9	ND	ND	ND	ND	24.1	4	330.6	ND	ND	0	0
84048	2019-08-30T23:00:00	23.2	ND	ND	ND	ND	18.6	2.6	326.3	ND	ND	0	0
84049	2019-08-31T00:00:00	14.3	ND	ND	ND	ND	9.2	0.8	58.1	ND	ND	0	0
84050	2019-08-31T01:00:00	40.8	ND	ND	ND	ND	8	0.7	142.4	ND	ND	0	0
84051	2019-08-31T02:00:00	51.1	ND	ND	ND	ND	7.3	1.6	234.5	ND	ND	0	0
84052	2019-08-31T03:00:00	67.3	ND	ND	ND	ND	6.7	1.3	230.5	ND	ND	0	0
84053	2019-08-31T04:00:00	72	ND	ND	ND	ND	4.2	1.3	200.3	ND	ND	0	0
84054	2019-08-31T05:00:00	82.4	ND	ND	ND	ND	2	0.8	219.8	ND	ND	0	0
84055	2019-08-31T06:00:00	89.7	ND	ND	ND	ND	2.7	0.1	285.5	ND	ND	0	0
84056	2019-08-31T07:00:00	116.6	ND	ND	ND	ND	0.9	1.1	92.3	ND	ND	0	0
84057	2019-08-31T08:00:00	144.6	ND	ND	ND	ND	2.7	0.6	97.9	ND	ND	54.8	0
84058	2019-08-31T09:00:00	153.2	ND	ND	ND	ND	9.9	0.9	177.6	ND	ND	266.6	0
84059	2019-08-31T10:00:00	161.3	ND	ND	ND	ND	29.9	0.9	184.8	ND	ND	582.6	0
84060	2019-08-31T11:00:00	135.9	ND	ND	ND	ND	49	1.6	173.7	ND	ND	645	0
84061	2019-08-31T12:00:00	111.2	ND	ND	ND	ND	65.1	1.2	154.7	ND	ND	648.5	0
84062	2019-08-31T13:00:00	92.7	ND	ND	ND	ND	80.7	1.2	148.4	ND	ND	648.7	0
84063	2019-08-31T14:00:00	95.6	ND	ND	ND	ND	61.4	0.9	8.6	ND	ND	648.7	0
84064	2019-08-31T15:00:00	60	ND	ND	ND	ND	31.6	3.1	326.6	ND	ND	626.1	0
84065	2019-08-31T16:00:00	44.4	ND	ND	ND	ND	28.2	3.4	328.4	ND	ND	530.4	0
84066	2019-08-31T17:00:00	34.4	ND	ND	ND	ND	23	3.8	330.8	ND	ND	606	0
84067	2019-08-31T18:00:00	27.7	ND	ND	ND	ND	14.6	3.1	328.9	ND	ND	249.7	0
84068	2019-08-31T19:00:00	24.1	ND	ND	ND	ND	15	3.7	318.5	ND	ND	0	0
84069	2019-08-31T20:00:00	24.5	ND	ND	ND	ND	12.9	3.3	323.7	ND	ND	0	0
84070	2019-08-31T21:00:00	19	ND	ND	ND	ND	11.8	1.3	340.9	ND	ND	0	0
84071	2019-08-31T22:00:00	48.1	ND	ND	ND	ND	1.2	0.8	146.4	ND	ND	0	0
84072	2019-08-31T23:00:00	51.4	ND	ND	ND	ND	6	1.1	276.2	ND	ND	0	0
84073	2019-09-01T00:00:00	37.1	ND	ND	ND	ND	8.6	1.3	293.3	ND	ND	0	0
84074	2019-09-01T01:00:00	34.7	ND	ND	ND	ND	3.6	1.8	242.5	ND	ND	0	0
84075	2019-09-01T02:00:00	60.2	ND	ND	ND	ND	2.9	1.3	196.8	ND	ND	0	0
84076	2019-09-01T03:00:00	82.1	ND	ND	ND	ND	3.1	0.7	180.4	ND	ND	0	0
84077	2019-09-01T04:00:00	80	ND	ND	ND	ND	2	0.7	193.6	ND	ND	0	0
84078	2019-09-01T05:00:00	76.7	ND	ND	ND	ND	1.1	1	166.1	ND	ND	0	0
84079	2019-09-01T06:00:00	88.1	ND	ND	ND	ND	1	0.9	210.5	ND	ND	0	0
84080	2019-09-01T07:00:00	83.4	ND	ND	ND	ND	1.6	0.6	216.5	ND	ND	0	0
84081	2019-09-01T08:00:00	106.4	ND	ND	ND	ND	3.7	1.2	75.4	ND	ND	45	0
84082	2019-09-01T09:00:00	123.9	ND	ND	ND	ND	7.9	0.9	129.4	ND	ND	283.1	0
84083	2019-09-01T10:00:00	118.6	ND	ND	ND	ND	25.9	1	153.4	ND	ND	596.9	0
84084	2019-09-01T11:00:00	113.7	ND	ND	ND	ND	39.2	1.5	145	ND	ND	648.1	0
84085	2019-09-01T12:00:00	88.3	ND	ND	ND	ND	54.1	0.9	121.5	ND	ND	648.4	0
84086	2019-09-01T13:00:00	81.5	ND	ND	ND	ND	63.8	1.1	127.3	ND	ND	648.8	0
84087	2019-09-01T14:00:00	85.5	ND	ND	ND	ND	68.2	1.4	133.9	ND	ND	648.5	0
84088	2019-09-01T15:00:00	66.9	ND	ND	ND	ND	61.4	1.5	101.2	ND	ND	648.7	0
84089	2019-09-01T16:00:00	56.5	ND	ND	ND	ND	40.3	1.4	342.7	ND	ND	522.1	0
84090	2019-09-01T17:00:00	39.2	ND	ND	ND	ND	36.5	1.7	351	ND	ND	429.6	0
84091	2019-09-01T18:00:00	35.2	ND	ND	ND	ND	27.6	2.9	326.7	ND	ND	235.1	0
84092	2019-09-01T19:00:00	33.8	ND	ND	ND	ND	20.9	2.9	327.4	ND	ND	0	0
84093	2019-09-01T20:00:00	26.8	ND	ND	ND	ND	19.2	3.9	318.6	ND	ND	0	0
84094	2019-09-01T21:00:00	21.8	ND	ND	ND	ND	19.6	3.1	326.9	ND	ND	0	0
84095	2019-09-01T22:00:00	37.6	ND	ND	ND	ND	1	0.7	112	ND	ND	0	0
84096	2019-09-01T23:00:00	35.8	ND	ND	ND	ND	12.3	1.9	307.5	ND	ND	0	0
84097	2019-09-02T00:00:00	17.2	ND	ND	ND	ND	8.8	0.5	54.8	ND	ND	0	0
84098	2019-09-02T01:00:00	35.6	ND	ND	ND	ND	4.4	0.9	114.8	ND	ND	0	0
84099	2019-09-02T02:00:00	40.6	ND	ND	ND	ND	4.7	0.5	144.5	ND	ND	0	0
84100	2019-09-02T03:00:00	30.4	ND	ND	ND	ND	5.5	0.9	206.6	ND	ND	0	0
84101	2019-09-02T04:00:00	49.7	ND	ND	ND	ND	4	1	190.6	ND	ND	0	0
84102	2019-09-02T05:00:00	56.5	ND	ND	ND	ND	1.5	0.5	209.6	ND	ND	0	0
84103	2019-09-02T06:00:00	70.7	ND	ND	ND	ND	0.6	0.6	157.2	ND	ND	0	0
84104	2019-09-02T07:00:00	115.8	ND	ND	ND	ND	0.9	0.8	111.4	ND	ND	0	0
84105	2019-09-02T08:00:00	121.5	ND	ND	ND	ND	3.8	0.9	132.2	ND	ND	159.8	0
84106	2019-09-02T09:00:00	132.1	ND	ND	ND	ND	15.6	0.6	163.1	ND	ND	595.6	0
84107	2019-09-02T10:00:00	109.8	ND	ND	ND	ND	30.5	1.1	138.8	ND	ND	635.6	0
84108	2019-09-02T11:00:00	102.3	ND	ND	ND	ND	39.2	1.3	101.3	ND	ND	648.4	0
84109	2019-09-02T12:00:00	93.5	ND	ND	ND	ND	48	1	95.8	ND	ND	648.2	0
84110	2019-09-02T13:00:00	87.6	ND	ND	ND	ND	50.1	1.8	94.6	ND	ND	648.5	0
84111	2019-09-02T14:00:00	75.1	ND	ND	ND	ND	51.1	1.6	87.3	ND	ND	648.1	0
84112	2019-09-02T15:00:00	117	ND	ND	ND	ND	26.5	2.7	332.9	ND	ND	642.9	0
84113	2019-09-02T16:00:00	143.4	ND	ND	ND	ND	24	3.6	333.7	ND	ND	636.1	0
84114	2019-09-02T17:00:00	149.8	ND	ND	ND	ND	23.1	2.7	338.2	ND	ND	641.3	0
84115	2019-09-02T18:00:00	89.3	ND	ND	ND	ND	17.1	3.3	334	ND	ND	427.2	0
84116	2019-09-02T19:00:00	47.5	ND	ND	ND	ND	10.4	2.8	324.7	ND	ND	0	0
84117	2019-09-02T20:00:00	27.9	ND	ND	ND	ND	12.5	2.8	327.9	ND	ND	0	0
84118	2019-09-02T21:00:00	23.7	ND	ND	ND	ND	8.1	0.5	344.6	ND	ND	0	0
84119	2019-09-02T22:00:00	56.2	ND	ND	ND	ND	2.5	0.4	144.3	ND	ND	0	0
84120	2019-09-02T23:00:00	62.4	ND	ND	ND	ND	4.6	1.3	234.2	ND	ND	0	0
84121	2019-09-03T00:00:00	57.8	ND	ND	ND	ND	3.7	1.3	261.5	ND	ND	0	0
84122	2019-09-03T01:00:00	57.9	ND	ND	ND	ND	6.5	0.8	199.7	ND	ND	0	0
84123	2019-09-03T02:00:00	58.3	ND	ND	ND	ND	3.4	0.9	207.4	ND	ND	0	0
84124	2019-09-03T03:00:00	63.8	ND	ND	ND	ND	4.8	0.7	206.5	ND	ND	0	0
84125	2019-09-03T04:00:00	65.1	ND	ND	ND	ND	6.5	0.5	261.6	ND	ND	0	0
84126	2019-09-03T05:00:00	51.3	ND	ND	ND	ND	7.4	0.5	305.1	ND	ND	0	0
84127	2019-09-03T06:00:00	41.9	ND	ND	ND	ND	3	0.9	309.1	ND	ND	0	0
84128	2019-09-03T07:00:00	83.9	ND	ND	ND	ND	1.2	0.4	35.7	ND	ND	0	0
84129	2019-09-03T08:00:00	176	ND	ND	ND	ND	2.1	0.9	120	ND	ND	90.3	0
84130	2019-09-03T09:00:00	217.6	ND	ND	ND	ND	6.4	1.1	154.4	ND	ND	535.9	0
84131	2019-09-03T10:00:00	175.1	ND	ND	ND	ND	22.2	0.8	132.2	ND	ND	479.3	0
84132	2019-09-03T11:00:00	105.4	ND	ND	ND	ND	42.2	0.9	134.2	ND	ND	646.1	0
84133	2019-09-03T12:00:00	114.6	ND	ND	ND	ND	55.6	0.9	173	ND	ND	648	0
84134	2019-09-03T13:00:00	83.2	ND	ND	ND	ND	96.9	1.1	182.3	ND	ND	648.2	0
84135	2019-09-03T14:00:00	87.3	ND	ND	ND	ND	110	0.1	31.4	ND	ND	648.1	0
84136	2019-09-03T15:00:00	212.3	ND	ND	ND	ND	31.3	4.6	331.8	ND	ND	649.1	0
84137	2019-09-03T16:00:00	309.4	ND	ND	ND	ND	20.4	5.1	334.1	ND	ND	648.7	0
84138	2019-09-03T17:00:00	302.3	ND	ND	ND	ND	18.6	6.1	337.5	ND	ND	648.9	0
84139	2019-09-03T18:00:00	236.8	ND	ND	ND	ND	18.3	5.8	327.7	ND	ND	309.8	0
84140	2019-09-03T19:00:00	129.7	ND	ND	ND	ND	18.7	5.9	331.3	ND	ND	0	0
84141	2019-09-03T20:00:00	61.5	ND	ND	ND	ND	18.2	4.3	328.1	ND	ND	0	0
84142	2019-09-03T21:00:00	26.2	ND	ND	ND	ND	16.5	3	323.5	ND	ND	0	0
84143	2019-09-03T22:00:00	13.8	ND	ND	ND	ND	14.1	1.9	302.7	ND	ND	0	0
84144	2019-09-03T23:00:00	18.7	ND	ND	ND	ND	15.6	1.5	311.9	ND	ND	0	0
84145	2019-09-04T00:00:00	12.9	ND	ND	ND	ND	19.4	1.4	286.4	ND	ND	0	0
84146	2019-09-04T01:00:00	36.3	ND	ND	ND	ND	8.5	2	239.3	ND	ND	0	0
84147	2019-09-04T02:00:00	82.2	ND	ND	ND	ND	8.7	1.5	233.4	ND	ND	0	0
84148	2019-09-04T03:00:00	81.5	ND	ND	ND	ND	2.7	0.8	97	ND	ND	0	0
84149	2019-09-04T04:00:00	64	ND	ND	ND	ND	1.5	0.8	118.2	ND	ND	0	0
84150	2019-09-04T05:00:00	65	ND	ND	ND	ND	1.2	0.9	92.2	ND	ND	0	0
84151	2019-09-04T06:00:00	84.8	ND	ND	ND	ND	0.8	0.9	152.2	ND	ND	0	0
84152	2019-09-04T07:00:00	131.7	ND	ND	ND	ND	1.1	0.6	165.4	ND	ND	0	0
84153	2019-09-04T08:00:00	145	ND	ND	ND	ND	2.6	0.5	166.6	ND	ND	114.7	0
84154	2019-09-04T09:00:00	158.5	ND	ND	ND	ND	12.2	1.5	192	ND	ND	362.5	0
84155	2019-09-04T10:00:00	162.8	ND	ND	ND	ND	49.3	1	182.4	ND	ND	602.7	0
84156	2019-09-04T11:00:00	139.6	ND	ND	ND	ND	70.7	1.4	112.6	ND	ND	648.6	0
84157	2019-09-04T12:00:00	109.4	ND	ND	ND	ND	76.5	0.8	85.1	ND	ND	648.8	0
84158	2019-09-04T13:00:00	90	ND	ND	ND	ND	75.1	1	73.7	ND	ND	648.6	0
84159	2019-09-04T14:00:00	73.6	ND	ND	ND	ND	65.7	1.1	132	ND	ND	648.8	0
84160	2019-09-04T15:00:00	106.6	ND	ND	ND	ND	46.1	2.7	336	ND	ND	611.4	0
84161	2019-09-04T16:00:00	193.9	ND	ND	ND	ND	36.6	4.3	331.8	ND	ND	615.2	0
84162	2019-09-04T17:00:00	226.1	ND	ND	ND	ND	28.6	5.1	333.1	ND	ND	649	0
84163	2019-09-04T18:00:00	186.9	ND	ND	ND	ND	22.6	5	334.7	ND	ND	456.2	0
84164	2019-09-04T19:00:00	86.2	ND	ND	ND	ND	19.9	4.4	332.4	ND	ND	0	0
84165	2019-09-04T20:00:00	43.5	ND	ND	ND	ND	15.1	2.2	335.2	ND	ND	0	0
84166	2019-09-04T21:00:00	22.7	ND	ND	ND	ND	18.3	4.8	322.1	ND	ND	0	0
84167	2019-09-04T22:00:00	26	ND	ND	ND	ND	14.1	2.1	281.4	ND	ND	0	0
84168	2019-09-04T23:00:00	15.7	ND	ND	ND	ND	12.8	2.1	289.8	ND	ND	0	0
84169	2019-09-05T00:00:00	14.1	ND	ND	ND	ND	14.3	1.8	339.4	ND	ND	0	0
84170	2019-09-05T01:00:00	37	ND	ND	ND	ND	1.9	1.1	100.5	ND	ND	0	0
84171	2019-09-05T02:00:00	59.4	ND	ND	ND	ND	4.9	0.8	203.2	ND	ND	0	0
84172	2019-09-05T03:00:00	55.5	ND	ND	ND	ND	4.2	0.9	197	ND	ND	0	0
84173	2019-09-05T04:00:00	68.8	ND	ND	ND	ND	3.7	1.1	209.7	ND	ND	0	0
84174	2019-09-05T05:00:00	82.1	ND	ND	ND	ND	1.7	0.8	192.3	ND	ND	0	0
84175	2019-09-05T06:00:00	98.5	ND	ND	ND	ND	1	0.9	168.6	ND	ND	0	0
84176	2019-09-05T07:00:00	122.1	ND	ND	ND	ND	1.1	0.6	148.9	ND	ND	0	0
84177	2019-09-05T08:00:00	128.6	ND	ND	ND	ND	4.7	0.7	72.6	ND	ND	84.6	0
84178	2019-09-05T09:00:00	124.5	ND	ND	ND	ND	14.6	1.1	148.1	ND	ND	552.5	0
84179	2019-09-05T10:00:00	134.5	ND	ND	ND	ND	24.4	1.5	189.5	ND	ND	626.7	0
84180	2019-09-05T11:00:00	110.3	ND	ND	ND	ND	41.6	0.7	165.7	ND	ND	646.7	0
84181	2019-09-05T12:00:00	88.2	ND	ND	ND	ND	84.6	1.2	137	ND	ND	648.3	0
84182	2019-09-05T13:00:00	108.9	ND	ND	ND	ND	95.7	1.6	132.6	ND	ND	647.6	0
84183	2019-09-05T14:00:00	125.9	ND	ND	ND	ND	87.3	1.8	121.6	ND	ND	648.8	0
84184	2019-09-05T15:00:00	97.5	ND	ND	ND	ND	57.7	0.5	1.2	ND	ND	635	0
84185	2019-09-05T16:00:00	159.8	ND	ND	ND	ND	23.4	3.8	333.5	ND	ND	365	0
84186	2019-09-05T17:00:00	279.9	ND	ND	ND	ND	21.5	4.7	328.7	ND	ND	539.1	0
84187	2019-09-05T18:00:00	192.3	ND	ND	ND	ND	24.8	4.1	333.7	ND	ND	339.8	0
84188	2019-09-05T19:00:00	66.6	ND	ND	ND	ND	17.9	3.4	338.7	ND	ND	0	0
84189	2019-09-05T20:00:00	42.9	ND	ND	ND	ND	15.6	3.6	322.8	ND	ND	0	0
84190	2019-09-05T21:00:00	41.1	ND	ND	ND	ND	13.2	0.9	345.6	ND	ND	0	0
84191	2019-09-05T22:00:00	47	ND	ND	ND	ND	12.8	2.1	321.8	ND	ND	0	0
84192	2019-09-05T23:00:00	27.2	ND	ND	ND	ND	13.8	1.2	318.6	ND	ND	0	0
84193	2019-09-06T00:00:00	47.4	ND	ND	ND	ND	1.3	0.9	132.6	ND	ND	0	0
84194	2019-09-06T01:00:00	64.6	ND	ND	ND	ND	2.8	1	205	ND	ND	0	0
84195	2019-09-06T02:00:00	96.3	ND	ND	ND	ND	2.6	0.9	180.1	ND	ND	0	0
84196	2019-09-06T03:00:00	82.2	ND	ND	ND	ND	5.5	1.3	200.4	ND	ND	0	0
84197	2019-09-06T04:00:00	98	ND	ND	ND	ND	3.4	0.8	200	ND	ND	0	0
84198	2019-09-06T05:00:00	108.9	ND	ND	ND	ND	3.7	0.4	201.5	ND	ND	0	0
84199	2019-09-06T06:00:00	126.5	ND	ND	ND	ND	1.6	0.6	92.1	ND	ND	0	0
84200	2019-09-06T07:00:00	151.1	ND	ND	ND	ND	1.3	0.3	19.6	ND	ND	0	0
84201	2019-09-06T08:00:00	125.2	ND	ND	ND	ND	3.9	0.1	109	ND	ND	87.1	0
84202	2019-09-06T09:00:00	135.6	ND	ND	ND	ND	12	1.7	108.7	ND	ND	549.4	0
84203	2019-09-06T10:00:00	113.4	ND	ND	ND	ND	29	1.3	109	ND	ND	648.1	0
84204	2019-09-06T11:00:00	99.5	ND	ND	ND	ND	36.9	1.4	157.3	ND	ND	648	0
84205	2019-09-06T12:00:00	97.5	ND	ND	ND	ND	52.7	0.8	189.8	ND	ND	648.6	0
84206	2019-09-06T13:00:00	76.7	ND	ND	ND	ND	47	1	121.8	ND	ND	647.7	0
84207	2019-09-06T14:00:00	76.1	ND	ND	ND	ND	50	1	128.2	ND	ND	637.8	0
84208	2019-09-06T15:00:00	78.6	ND	ND	ND	ND	48.2	1.2	116.5	ND	ND	648.5	0
84209	2019-09-06T16:00:00	108.9	ND	ND	ND	ND	40.3	2.9	325.6	ND	ND	648.5	0
84210	2019-09-06T17:00:00	155	ND	ND	ND	ND	29.4	4.3	334.6	ND	ND	575.1	0
84211	2019-09-06T18:00:00	91.8	ND	ND	ND	ND	21.3	3.6	335.4	ND	ND	448.2	0
84212	2019-09-06T19:00:00	53.6	ND	ND	ND	ND	19.5	3.3	326.2	ND	ND	0	0
84213	2019-09-06T20:00:00	30	ND	ND	ND	ND	17.8	3.5	321.1	ND	ND	0	0
84214	2019-09-06T21:00:00	29.6	ND	ND	ND	ND	16.6	0.8	5	ND	ND	0	0
84215	2019-09-06T22:00:00	67	ND	ND	ND	ND	3.8	1	224.8	ND	ND	0	0
84216	2019-09-06T23:00:00	80.4	ND	ND	ND	ND	16.4	2	288.2	ND	ND	0	0
84217	2019-09-07T00:00:00	54.5	ND	ND	ND	ND	5.3	0.2	320.1	ND	ND	0	0
84218	2019-09-07T01:00:00	63.6	ND	ND	ND	ND	5.1	1.2	231.9	ND	ND	0	0
84219	2019-09-07T02:00:00	98.5	ND	ND	ND	ND	1.9	0.7	147	ND	ND	0	0
84220	2019-09-07T03:00:00	94.9	ND	ND	ND	ND	3.2	0.3	160.1	ND	ND	0	0
84221	2019-09-07T04:00:00	87.7	ND	ND	ND	ND	2	0.6	253	ND	ND	0	0
84222	2019-09-07T05:00:00	77.7	ND	ND	ND	ND	2.3	0.3	262.8	ND	ND	0	0
84223	2019-09-07T06:00:00	82.2	ND	ND	ND	ND	0.6	1	106.6	ND	ND	0	0
84224	2019-09-07T07:00:00	96.9	ND	ND	ND	ND	1.4	0.5	227.1	ND	ND	0	0
84225	2019-09-07T08:00:00	125.5	ND	ND	ND	ND	6.9	1.3	222.1	ND	ND	137.4	0
84226	2019-09-07T09:00:00	138	ND	ND	ND	ND	23.6	1.2	211.3	ND	ND	624.9	0
84227	2019-09-07T10:00:00	121.2	ND	ND	ND	ND	41.5	1	191.9	ND	ND	648.3	0
84228	2019-09-07T11:00:00	106.2	ND	ND	ND	ND	61.9	1.3	148.2	ND	ND	647.9	0
84229	2019-09-07T12:00:00	99	ND	ND	ND	ND	85.5	1.1	138.2	ND	ND	648.6	0
84230	2019-09-07T13:00:00	91	ND	ND	ND	ND	112.1	0.8	114.1	ND	ND	648.5	0
84231	2019-09-07T14:00:00	89.3	ND	ND	ND	ND	96.9	1.2	20	ND	ND	648.8	0
84232	2019-09-07T15:00:00	87.8	ND	ND	ND	ND	55.5	4.2	331.6	ND	ND	552.4	0
84233	2019-09-07T16:00:00	93.3	ND	ND	ND	ND	43.8	4.9	330.5	ND	ND	648.8	0
84234	2019-09-07T17:00:00	88.9	ND	ND	ND	ND	30	4.6	333.6	ND	ND	646.2	0
84235	2019-09-07T18:00:00	80.4	ND	ND	ND	ND	27.2	5.5	328.4	ND	ND	444.3	0
84236	2019-09-07T19:00:00	95.3	ND	ND	ND	ND	25.1	4.1	336.5	ND	ND	0	0
84237	2019-09-07T20:00:00	46	ND	ND	ND	ND	24.8	4.7	322.1	ND	ND	0	0
84238	2019-09-07T21:00:00	34.7	ND	ND	ND	ND	25.8	4.2	327.5	ND	ND	0	0
84239	2019-09-07T22:00:00	17.7	ND	ND	ND	ND	20.7	2.6	320.9	ND	ND	0	0
84240	2019-09-07T23:00:00	19.8	ND	ND	ND	ND	10.3	0.8	332.1	ND	ND	0	0
84241	2019-09-08T00:00:00	39.5	ND	ND	ND	ND	6.9	0.4	251.1	ND	ND	0	0
84242	2019-09-08T01:00:00	77.8	ND	ND	ND	ND	2.1	1.3	181.8	ND	ND	0	0
84243	2019-09-08T02:00:00	110.2	ND	ND	ND	ND	4.7	1.1	176.3	ND	ND	0	0
84244	2019-09-08T03:00:00	103.5	ND	ND	ND	ND	4.3	1	210.8	ND	ND	0	0
84245	2019-09-08T04:00:00	97.6	ND	ND	ND	ND	4.7	1	205.5	ND	ND	0	0
84246	2019-09-08T05:00:00	90.1	ND	ND	ND	ND	3.6	0.9	199.1	ND	ND	0	0
84247	2019-09-08T06:00:00	95.9	ND	ND	ND	ND	2.7	0.6	218.9	ND	ND	0	0
84248	2019-09-08T07:00:00	84.7	ND	ND	ND	ND	2.8	0.3	162.9	ND	ND	0	0
84249	2019-09-08T08:00:00	99.9	ND	ND	ND	ND	8.6	0.9	132.2	ND	ND	127.8	0
84250	2019-09-08T09:00:00	133.3	ND	ND	ND	ND	27.7	1.1	169.7	ND	ND	539.2	0
84251	2019-09-08T10:00:00	99.9	ND	ND	ND	ND	54.1	0.5	240.7	ND	ND	647.9	0
84252	2019-09-08T11:00:00	74.1	ND	ND	ND	ND	76	0.8	217.6	ND	ND	648.4	0
84253	2019-09-08T12:00:00	75.7	ND	ND	ND	ND	98.1	0.9	120.8	ND	ND	648.7	0
84254	2019-09-08T13:00:00	82.5	ND	ND	ND	ND	109.3	1.1	141.1	ND	ND	648.8	0
84255	2019-09-08T14:00:00	80.3	ND	ND	ND	ND	106.1	0.5	92.6	ND	ND	648.8	0
84256	2019-09-08T15:00:00	79.7	ND	ND	ND	ND	73.4	1.2	329.5	ND	ND	648.7	0
84257	2019-09-08T16:00:00	62.9	ND	ND	ND	ND	46.2	5.2	329.8	ND	ND	649.5	0
84258	2019-09-08T17:00:00	76	ND	ND	ND	ND	33.9	4.9	334.7	ND	ND	646.4	0
84259	2019-09-08T18:00:00	54.9	ND	ND	ND	ND	27.8	5.1	338.8	ND	ND	248.9	0
84260	2019-09-08T19:00:00	42.9	ND	ND	ND	ND	26.9	4.4	337.7	ND	ND	0	0
84261	2019-09-08T20:00:00	36.3	ND	ND	ND	ND	23	2.7	325.4	ND	ND	0	0
84262	2019-09-08T21:00:00	18.7	ND	ND	ND	ND	17.9	2.4	298.8	ND	ND	0	0
84263	2019-09-08T22:00:00	33.2	ND	ND	ND	ND	1.9	0.7	15.4	ND	ND	0	0
84264	2019-09-08T23:00:00	30.7	ND	ND	ND	ND	10.1	1.6	265.3	ND	ND	0	0
84265	2019-09-09T00:00:00	40	ND	ND	ND	ND	10.9	1.9	240.6	ND	ND	0	0
84266	2019-09-09T01:00:00	62.2	ND	ND	ND	ND	8	0.9	251.6	ND	ND	0	0
84267	2019-09-09T02:00:00	58.9	ND	ND	ND	ND	1.6	1.1	65.4	ND	ND	0	0
84268	2019-09-09T03:00:00	58.8	ND	ND	ND	ND	3.1	0.6	91	ND	ND	0	0
84269	2019-09-09T04:00:00	47.6	ND	ND	ND	ND	3.7	0.5	150.4	ND	ND	0	0
84270	2019-09-09T05:00:00	55.9	ND	ND	ND	ND	2.5	0.7	213.7	ND	ND	0	0
84271	2019-09-09T06:00:00	98.7	ND	ND	ND	ND	0.8	0.7	229.3	ND	ND	0	0
84272	2019-09-09T07:00:00	97.2	ND	ND	ND	ND	1.4	0.5	260.3	ND	ND	0	0
84273	2019-09-09T08:00:00	116.8	ND	ND	ND	ND	4.9	0.6	181.2	ND	ND	89.4	0
84274	2019-09-09T09:00:00	167.5	ND	ND	ND	ND	25.5	1.2	167.2	ND	ND	527.8	0
84275	2019-09-09T10:00:00	145.3	ND	ND	ND	ND	46.5	1.4	155	ND	ND	648.3	0
84276	2019-09-09T11:00:00	127.9	ND	ND	ND	ND	65.2	1.2	103.7	ND	ND	648	0
84277	2019-09-09T12:00:00	106.3	ND	ND	ND	ND	79	1.2	117.5	ND	ND	648.3	0
84278	2019-09-09T13:00:00	87.9	ND	ND	ND	ND	93.4	1.5	105.4	ND	ND	648.8	0
84279	2019-09-09T14:00:00	89.7	ND	ND	ND	ND	73.9	1.6	77.3	ND	ND	648.7	0
84280	2019-09-09T15:00:00	115	ND	ND	ND	ND	39.2	3.9	333.6	ND	ND	648.7	0
84281	2019-09-09T16:00:00	129.2	ND	ND	ND	ND	35.4	4.3	329.2	ND	ND	649	0
84282	2019-09-09T17:00:00	129.6	ND	ND	ND	ND	23.9	4.5	325.9	ND	ND	644	0
84283	2019-09-09T18:00:00	83.3	ND	ND	ND	ND	20.6	4.2	333.6	ND	ND	442.3	0
84284	2019-09-09T19:00:00	73	ND	ND	ND	ND	19.4	4.5	330.4	ND	ND	0	0
84285	2019-09-09T20:00:00	48.5	ND	ND	ND	ND	16.9	2.7	338.8	ND	ND	0	0
84286	2019-09-09T21:00:00	30.2	ND	ND	ND	ND	19.1	4.2	321.1	ND	ND	0	0
84287	2019-09-09T22:00:00	23.8	ND	ND	ND	ND	19.6	3	333.4	ND	ND	0	0
84288	2019-09-09T23:00:00	19.3	ND	ND	ND	ND	15.5	2	315.7	ND	ND	0	0
84289	2019-09-10T00:00:00	19.1	ND	ND	ND	ND	6.7	0.7	6.3	ND	ND	0	0
84290	2019-09-10T01:00:00	56.7	ND	ND	ND	ND	3.8	1.3	168.9	ND	ND	0	0
84291	2019-09-10T02:00:00	80	ND	ND	ND	ND	6.5	0.4	262.6	ND	ND	0	0
84292	2019-09-10T03:00:00	66.7	ND	ND	ND	ND	4.3	1.1	177.2	ND	ND	0	0
84293	2019-09-10T04:00:00	64	ND	ND	ND	ND	3.9	0.8	205.7	ND	ND	0	0
84294	2019-09-10T05:00:00	70.9	ND	ND	ND	ND	2.2	0.9	177	ND	ND	0	0
84295	2019-09-10T06:00:00	81.2	ND	ND	ND	ND	1.3	0.2	198.7	ND	ND	0	0
84296	2019-09-10T07:00:00	103.7	ND	ND	ND	ND	0.9	0.9	198.8	ND	ND	0	0
84297	2019-09-10T08:00:00	131.5	ND	ND	ND	ND	4.7	1.1	207.3	ND	ND	90.6	0
84298	2019-09-10T09:00:00	138.3	ND	ND	ND	ND	13.4	1.2	192.6	ND	ND	611.8	0
84299	2019-09-10T10:00:00	111.3	ND	ND	ND	ND	36.6	0.7	181.4	ND	ND	628.9	0
84300	2019-09-10T11:00:00	85.4	ND	ND	ND	ND	58.8	0.5	178.5	ND	ND	647.9	0
84301	2019-09-10T12:00:00	105.9	ND	ND	ND	ND	91.1	0.4	160.5	ND	ND	648.5	0
84302	2019-09-10T13:00:00	118.2	ND	ND	ND	ND	95.2	1.6	158.4	ND	ND	648.2	0
84303	2019-09-10T14:00:00	108.4	ND	ND	ND	ND	87.7	1.7	161.2	ND	ND	648.6	0
84304	2019-09-10T15:00:00	145.8	ND	ND	ND	ND	65.3	1.1	324.8	ND	ND	649	0
84305	2019-09-10T16:00:00	289	ND	ND	ND	ND	36.5	4.1	331.9	ND	ND	577.4	0
84306	2019-09-10T17:00:00	309.3	ND	ND	ND	ND	38.2	4.3	333	ND	ND	620.8	0
84307	2019-09-10T18:00:00	179.4	ND	ND	ND	ND	25.5	4.6	329.9	ND	ND	480.3	0
84308	2019-09-10T19:00:00	105.2	ND	ND	ND	ND	17.9	4.9	325.9	ND	ND	0	0
84309	2019-09-10T20:00:00	86.5	ND	ND	ND	ND	17	4.6	326.2	ND	ND	0	0
84310	2019-09-10T21:00:00	54.2	ND	ND	ND	ND	19.7	2.8	340.5	ND	ND	0	0
84311	2019-09-10T22:00:00	30.1	ND	ND	ND	ND	17	3.7	307.5	ND	ND	0	0
84312	2019-09-10T23:00:00	28.2	ND	ND	ND	ND	8.2	1.7	328.9	ND	ND	0	0
84313	2019-09-11T00:00:00	41.9	ND	ND	ND	ND	1.1	0.8	134.5	ND	ND	0	0
84314	2019-09-11T01:00:00	34.6	ND	ND	ND	ND	14.1	1.2	308.6	ND	ND	0	0
84315	2019-09-11T02:00:00	29.6	ND	ND	ND	ND	4	1	131.1	ND	ND	0	0
84316	2019-09-11T03:00:00	28.8	ND	ND	ND	ND	6.5	1	195.3	ND	ND	0	0
84317	2019-09-11T04:00:00	31.8	ND	ND	ND	ND	6.5	0.9	200.4	ND	ND	0	0
84318	2019-09-11T05:00:00	57.9	ND	ND	ND	ND	4.8	1	277	ND	ND	0	0
84319	2019-09-11T06:00:00	64	ND	ND	ND	ND	1.8	1.2	238.5	ND	ND	0	0
84320	2019-09-11T07:00:00	86.7	ND	ND	ND	ND	2.6	1.1	237.6	ND	ND	0	0
84321	2019-09-11T08:00:00	95.8	ND	ND	ND	ND	6.7	0.8	156.1	ND	ND	114	0
84322	2019-09-11T09:00:00	109.4	ND	ND	ND	ND	20.2	0.8	178.6	ND	ND	558.1	0
84323	2019-09-11T10:00:00	119.2	ND	ND	ND	ND	46.3	1.1	162.6	ND	ND	648.6	0
84324	2019-09-11T11:00:00	113.2	ND	ND	ND	ND	76.7	1.1	144.9	ND	ND	648.4	0
84325	2019-09-11T12:00:00	111.5	ND	ND	ND	ND	90	0.9	90.7	ND	ND	648.1	0
84326	2019-09-11T13:00:00	103.8	ND	ND	ND	ND	76.9	1.4	85.8	ND	ND	648	0
84327	2019-09-11T14:00:00	122.2	ND	ND	ND	ND	225.7	3	334.1	ND	ND	611.5	0
84328	2019-09-11T15:00:00	383.4	ND	ND	ND	ND	71.5	5.5	330.2	ND	ND	601.6	0
84329	2019-09-11T16:00:00	215.4	ND	ND	ND	ND	12.3	5.7	333.2	ND	ND	651.5	0
84330	2019-09-11T17:00:00	137.7	ND	ND	ND	ND	12	5.2	333.6	ND	ND	635	0
84331	2019-09-11T18:00:00	111.6	ND	ND	ND	ND	12.4	4.8	334.1	ND	ND	415.3	0
84332	2019-09-11T19:00:00	74.7	ND	ND	ND	ND	14.3	4.5	343.2	ND	ND	0	0
84333	2019-09-11T20:00:00	45.6	ND	ND	ND	ND	16.1	4	330.8	ND	ND	0	0
84334	2019-09-11T21:00:00	31.3	ND	ND	ND	ND	15.3	3.2	332.9	ND	ND	0	0
84335	2019-09-11T22:00:00	25.9	ND	ND	ND	ND	16.1	3.2	323.7	ND	ND	0	0
84336	2019-09-11T23:00:00	19.3	ND	ND	ND	ND	8.5	0.9	37.8	ND	ND	0	0
84337	2019-09-12T00:00:00	39.4	ND	ND	ND	ND	15.4	1.1	303.6	ND	ND	0	0
84338	2019-09-12T01:00:00	22.1	ND	ND	ND	ND	12.8	0.6	299.5	ND	ND	0	0
84339	2019-09-12T02:00:00	26.9	ND	ND	ND	ND	9	1	166.9	ND	ND	0	0
84340	2019-09-12T03:00:00	35.3	ND	ND	ND	ND	7.3	1	161.3	ND	ND	0	0
84341	2019-09-12T04:00:00	48.3	ND	ND	ND	ND	6.4	1.8	219.3	ND	ND	0	0.76
84342	2019-09-12T05:00:00	45.1	ND	ND	ND	ND	5.3	1.3	227.1	ND	ND	0	0.76
84343	2019-09-12T06:00:00	38.6	ND	ND	ND	ND	2.6	1	243.9	ND	ND	0	0.25
84344	2019-09-12T07:00:00	45.3	ND	ND	ND	ND	1.3	0.8	242.6	ND	ND	0	0
84345	2019-09-12T08:00:00	61	ND	ND	ND	ND	5.3	0.2	84.6	ND	ND	73.4	0
84346	2019-09-12T09:00:00	77.9	ND	ND	ND	ND	15.5	1.1	124.9	ND	ND	563	0
84347	2019-09-12T10:00:00	78.4	ND	ND	ND	ND	26.7	1.4	141.5	ND	ND	640.5	0
84348	2019-09-12T11:00:00	68.6	ND	ND	ND	ND	38	1.2	106.9	ND	ND	639.3	0
84349	2019-09-12T12:00:00	64.9	ND	ND	ND	ND	50.2	1.5	91.5	ND	ND	641.9	0
84350	2019-09-12T13:00:00	79	ND	ND	ND	ND	57	1.7	110.7	ND	ND	642	0
84351	2019-09-12T14:00:00	78.8	ND	ND	ND	ND	42.7	1.4	349.4	ND	ND	615.9	0
84352	2019-09-12T15:00:00	246	ND	ND	ND	ND	27.8	4	326.7	ND	ND	545	0
84353	2019-09-12T16:00:00	206.5	ND	ND	ND	ND	25.5	4.5	330.3	ND	ND	648.6	0
84354	2019-09-12T17:00:00	255.2	ND	ND	ND	ND	19.9	4.5	332.4	ND	ND	648.1	0
84355	2019-09-12T18:00:00	267	ND	ND	ND	ND	19.9	4.5	334.3	ND	ND	412.7	0
84356	2019-09-12T19:00:00	76.4	ND	ND	ND	ND	16.6	4.1	329.1	ND	ND	0	0
84357	2019-09-12T20:00:00	34.3	ND	ND	ND	ND	14.4	2.4	341	ND	ND	0	0
84358	2019-09-12T21:00:00	22.7	ND	ND	ND	ND	16.2	3.6	323.8	ND	ND	0	0
84359	2019-09-12T22:00:00	20.4	ND	ND	ND	ND	15.5	2	300.7	ND	ND	0	0
84360	2019-09-12T23:00:00	17.1	ND	ND	ND	ND	16.8	2.1	315.2	ND	ND	0	0
84361	2019-09-13T00:00:00	15.9	ND	ND	ND	ND	13.3	0.7	262.3	ND	ND	0	0
84362	2019-09-13T01:00:00	33	ND	ND	ND	ND	12.6	1.3	250.4	ND	ND	0	0
84363	2019-09-13T02:00:00	29.2	ND	ND	ND	ND	10.9	0.8	269.4	ND	ND	0	0
84364	2019-09-13T03:00:00	62.8	ND	ND	ND	ND	6.5	1.3	196.9	ND	ND	0	21.84
84365	2019-09-13T04:00:00	53.9	ND	ND	ND	ND	2.3	0.3	271.7	ND	ND	0	1.27
84366	2019-09-13T05:00:00	44.5	ND	ND	ND	ND	1.4	0.1	183.6	ND	ND	0	0
84367	2019-09-13T06:00:00	44.8	ND	ND	ND	ND	0.6	0.4	52.5	ND	ND	0	0
84368	2019-09-13T07:00:00	69.1	ND	ND	ND	ND	0.8	0.3	90.3	ND	ND	0	0
84369	2019-09-13T08:00:00	108.4	ND	ND	ND	ND	1.1	0.5	96.9	ND	ND	61.7	0
84370	2019-09-13T09:00:00	140	ND	ND	ND	ND	2.2	1	178.2	ND	ND	220.2	0
84371	2019-09-13T10:00:00	114.1	ND	ND	ND	ND	12.2	1.5	180.7	ND	ND	377	0
84372	2019-09-13T11:00:00	87.6	ND	ND	ND	ND	34.2	1.3	187.4	ND	ND	647.9	0
84373	2019-09-13T12:00:00	71.2	ND	ND	ND	ND	65.1	0.7	168.4	ND	ND	648.5	0
84374	2019-09-13T13:00:00	75.8	ND	ND	ND	ND	78.7	1	171.4	ND	ND	647.9	0
84375	2019-09-13T14:00:00	80.3	ND	ND	ND	ND	101.2	1.1	139.4	ND	ND	648.2	0
84376	2019-09-13T15:00:00	87.2	ND	ND	ND	ND	100	1.3	132.8	ND	ND	645.4	0
84377	2019-09-13T16:00:00	82.1	ND	ND	ND	ND	70.9	1.6	174.4	ND	ND	638.5	0
84378	2019-09-13T17:00:00	104.5	ND	ND	ND	ND	59.6	1.3	331.1	ND	ND	575	0
84379	2019-09-13T18:00:00	97.5	ND	ND	ND	ND	24.8	4.5	311.8	ND	ND	424.1	0
84380	2019-09-13T19:00:00	68.4	ND	ND	ND	ND	22.5	4.4	319.1	ND	ND	0	0
84381	2019-09-13T20:00:00	36.6	ND	ND	ND	ND	21.3	4	322.7	ND	ND	0	0
84382	2019-09-13T21:00:00	27.3	ND	ND	ND	ND	23.4	3.4	327.5	ND	ND	0	0
84383	2019-09-13T22:00:00	24.8	ND	ND	ND	ND	20.6	1.5	331.7	ND	ND	0	0
84384	2019-09-13T23:00:00	13.4	ND	ND	ND	ND	15.1	2.1	322.2	ND	ND	0	0
84385	2019-09-14T00:00:00	63.1	ND	ND	ND	ND	10.7	0.9	340.7	ND	ND	0	0
84386	2019-09-14T01:00:00	94.9	ND	ND	ND	ND	4.5	0.5	72.4	ND	ND	0	0
84387	2019-09-14T02:00:00	1	ND	ND	ND	ND	12.3	0.7	10.4	ND	ND	0	0
84388	2019-09-14T03:00:00	19	ND	ND	ND	ND	3.6	0.9	169.7	ND	ND	0	0
84389	2019-09-14T04:00:00	26.3	ND	ND	ND	ND	4.1	0.7	154.9	ND	ND	0	0
84390	2019-09-14T05:00:00	60.7	ND	ND	ND	ND	3.1	0.8	200.4	ND	ND	0	0
84391	2019-09-14T06:00:00	155.4	ND	ND	ND	ND	1.3	0.7	165.2	ND	ND	0	0
84392	2019-09-14T07:00:00	94.1	ND	ND	ND	ND	2	1	229.5	ND	ND	0	0
84393	2019-09-14T08:00:00	128.4	ND	ND	ND	ND	2.6	1.1	203.3	ND	ND	89.4	0
84394	2019-09-14T09:00:00	265.5	ND	ND	ND	ND	10.1	1	187.1	ND	ND	288.2	0
84395	2019-09-14T10:00:00	71.3	ND	ND	ND	ND	28.1	1.2	149	ND	ND	629.7	0
84396	2019-09-14T11:00:00	171.6	ND	ND	ND	ND	47	0.7	192.2	ND	ND	648.3	0
84397	2019-09-14T12:00:00	120.4	ND	ND	ND	ND	69.2	1	173.7	ND	ND	648.3	0
84398	2019-09-14T13:00:00	66.2	ND	ND	ND	ND	118.4	1.1	73.8	ND	ND	648.4	0
84399	2019-09-14T14:00:00	98.5	ND	ND	ND	ND	140.7	0.4	195.3	ND	ND	648.2	0
84400	2019-09-14T15:00:00	98.4	ND	ND	ND	ND	54.4	3.6	331.9	ND	ND	607.9	0
84401	2019-09-14T16:00:00	97.7	ND	ND	ND	ND	42.4	4.6	333.8	ND	ND	617.5	0
84402	2019-09-14T17:00:00	51.9	ND	ND	ND	ND	25.1	4	338.1	ND	ND	547.1	0
84403	2019-09-14T18:00:00	11.6	ND	ND	ND	ND	19.7	3.6	340.7	ND	ND	104.1	0
84404	2019-09-14T19:00:00	42	ND	ND	ND	ND	19.2	3.4	333.8	ND	ND	0	0
84405	2019-09-14T20:00:00	22.8	ND	ND	ND	ND	19	3.8	317.3	ND	ND	0	0
84406	2019-09-14T21:00:00	28.7	ND	ND	ND	ND	18.8	3.5	325	ND	ND	0	0
84407	2019-09-14T22:00:00	21.2	ND	ND	ND	ND	16.8	2.4	312.1	ND	ND	0	0
84408	2019-09-14T23:00:00	19.7	ND	ND	ND	ND	14	1.4	289.3	ND	ND	0	0
84409	2019-09-15T00:00:00	21.5	ND	ND	ND	ND	9.3	1.3	249.1	ND	ND	0	0
84410	2019-09-15T01:00:00	54.8	ND	ND	ND	ND	5.7	1.5	187.7	ND	ND	0	0
84411	2019-09-15T02:00:00	61.1	ND	ND	ND	ND	8.4	0.7	214.2	ND	ND	0	0
84412	2019-09-15T03:00:00	57.9	ND	ND	ND	ND	6.7	0.9	205.1	ND	ND	0	0
84413	2019-09-15T04:00:00	53.8	ND	ND	ND	ND	3.3	0.5	124.4	ND	ND	0	0
84414	2019-09-15T05:00:00	68	ND	ND	ND	ND	0.9	0.4	106.1	ND	ND	0	0
84415	2019-09-15T06:00:00	77.2	ND	ND	ND	ND	0.7	0.9	172.4	ND	ND	0	0
84416	2019-09-15T07:00:00	87	ND	ND	ND	ND	0.9	0.6	65.2	ND	ND	0	0
84417	2019-09-15T08:00:00	96.2	ND	ND	ND	ND	3.6	1.2	83.5	ND	ND	59.8	0
84418	2019-09-15T09:00:00	107.8	ND	ND	ND	ND	7.1	1	126.4	ND	ND	341.7	0
84419	2019-09-15T10:00:00	88.4	ND	ND	ND	ND	28.4	0.8	142	ND	ND	632.4	0
84420	2019-09-15T11:00:00	92.1	ND	ND	ND	ND	46.9	1.1	126.1	ND	ND	648.4	0
84421	2019-09-15T12:00:00	70.3	ND	ND	ND	ND	61	0.9	175.2	ND	ND	648.4	0
84422	2019-09-15T13:00:00	64.3	ND	ND	ND	ND	88.1	0.4	148.7	ND	ND	648.6	0
84423	2019-09-15T14:00:00	72.5	ND	ND	ND	ND	85.5	1.8	144	ND	ND	648.6	0
84424	2019-09-15T15:00:00	65.8	ND	ND	ND	ND	60.3	2.4	330.4	ND	ND	646.4	0
84425	2019-09-15T16:00:00	38.7	ND	ND	ND	ND	42.2	3.5	330.4	ND	ND	568	0
84426	2019-09-15T17:00:00	27.7	ND	ND	ND	ND	33.5	4	330.9	ND	ND	328.2	0
84427	2019-09-15T18:00:00	38.2	ND	ND	ND	ND	25.5	4.1	325.5	ND	ND	372.9	0
84428	2019-09-15T19:00:00	17.4	ND	ND	ND	ND	23.5	4.1	329	ND	ND	0	0
84429	2019-09-15T20:00:00	19.8	ND	ND	ND	ND	17.8	3.4	337.4	ND	ND	0	0
84430	2019-09-15T21:00:00	25.2	ND	ND	ND	ND	16.9	2.4	347.1	ND	ND	0	0
84431	2019-09-15T22:00:00	15.9	ND	ND	ND	ND	17.4	2.6	309.3	ND	ND	0	0
84432	2019-09-15T23:00:00	10.6	ND	ND	ND	ND	8.1	1.4	285.4	ND	ND	0	0
84433	2019-09-16T00:00:00	43.1	ND	ND	ND	ND	3.8	1	235	ND	ND	0	0
84434	2019-09-16T01:00:00	62	ND	ND	ND	ND	1	0.5	80.7	ND	ND	0	0
84435	2019-09-16T02:00:00	59.3	ND	ND	ND	ND	2.3	1	162.5	ND	ND	0	0
84436	2019-09-16T03:00:00	52.9	ND	ND	ND	ND	1.2	0.7	151.9	ND	ND	0	0
84437	2019-09-16T04:00:00	54.3	ND	ND	ND	ND	2.2	0.6	139.4	ND	ND	0	0
84438	2019-09-16T05:00:00	57.4	ND	ND	ND	ND	1	0.7	199.4	ND	ND	0	0
84439	2019-09-16T06:00:00	65.5	ND	ND	ND	ND	0.6	0.1	217.5	ND	ND	0	0
84440	2019-09-16T07:00:00	74.4	ND	ND	ND	ND	1.3	0.5	297.2	ND	ND	0	0
84441	2019-09-16T08:00:00	87.6	ND	ND	ND	ND	1.3	0.6	109.5	ND	ND	78.6	0
84442	2019-09-16T09:00:00	130.8	ND	ND	ND	ND	4.2	1	119.6	ND	ND	222.2	0
84443	2019-09-16T10:00:00	138.1	ND	ND	ND	ND	15.9	1.5	147.3	ND	ND	523.4	0
84444	2019-09-16T11:00:00	97.9	ND	ND	ND	ND	33.3	1.2	137.3	ND	ND	648	0
84445	2019-09-16T12:00:00	88.5	ND	ND	ND	ND	50.1	1.4	138.9	ND	ND	647.9	0
84446	2019-09-16T13:00:00	114.2	ND	ND	ND	ND	68.9	1.5	77.3	ND	ND	647.7	0
84447	2019-09-16T14:00:00	201.7	ND	ND	ND	ND	61.2	1.4	113.1	ND	ND	648	0
84448	2019-09-16T15:00:00	136.8	ND	ND	ND	ND	51.5	1	10.8	ND	ND	641.2	0
84449	2019-09-16T16:00:00	80.6	ND	ND	ND	ND	27.5	4.1	332.3	ND	ND	630.9	0
84450	2019-09-16T17:00:00	70.6	ND	ND	ND	ND	21.9	4.6	335.6	ND	ND	506.2	0
84451	2019-09-16T18:00:00	43.7	ND	ND	ND	ND	16	4.4	335.6	ND	ND	411.7	0
84452	2019-09-16T19:00:00	28.6	ND	ND	ND	ND	12.4	4.1	328.8	ND	ND	0	0
84453	2019-09-16T20:00:00	20.8	ND	ND	ND	ND	14.3	2.9	338.4	ND	ND	0	0
84454	2019-09-16T21:00:00	20.8	ND	ND	ND	ND	13.8	3.5	321.1	ND	ND	0	0
84455	2019-09-16T22:00:00	21.8	ND	ND	ND	ND	16	3	316.7	ND	ND	0	0
84456	2019-09-16T23:00:00	16	ND	ND	ND	ND	13.8	1.8	293.6	ND	ND	0	0
84457	2019-09-17T00:00:00	4.1	ND	ND	ND	ND	14.2	1.6	311.7	ND	ND	0	0
84458	2019-09-17T01:00:00	10.6	ND	ND	ND	ND	10.1	0.3	227	ND	ND	0	0
84459	2019-09-17T02:00:00	33.9	ND	ND	ND	ND	6.6	1.3	177.1	ND	ND	0	0
84460	2019-09-17T03:00:00	53.9	ND	ND	ND	ND	6.4	1	186.2	ND	ND	0	0
84461	2019-09-17T04:00:00	51	ND	ND	ND	ND	7.8	1.5	219.3	ND	ND	0	0
84462	2019-09-17T05:00:00	46.1	ND	ND	ND	ND	3.4	1	211.4	ND	ND	0	0
84463	2019-09-17T06:00:00	59.7	ND	ND	ND	ND	1	0.6	148	ND	ND	0	0
84464	2019-09-17T07:00:00	94.4	ND	ND	ND	ND	0.8	0.5	118.1	ND	ND	0	0
84465	2019-09-17T08:00:00	124.9	ND	ND	ND	ND	1	0.6	143	ND	ND	28.2	0
84466	2019-09-17T09:00:00	171.1	ND	ND	ND	ND	3.3	1.2	63.8	ND	ND	78.5	0
84467	2019-09-17T10:00:00	148.6	ND	ND	ND	ND	21.7	0.6	183.6	ND	ND	481.3	0
84468	2019-09-17T11:00:00	120.7	ND	ND	ND	ND	50	0.7	159	ND	ND	648.2	0
84469	2019-09-17T12:00:00	103.1	ND	ND	ND	ND	61.1	1	155.5	ND	ND	647.9	0
84470	2019-09-17T13:00:00	120.7	ND	ND	ND	ND	58.9	1.4	138	ND	ND	575.2	0
84471	2019-09-17T14:00:00	114.8	ND	ND	ND	ND	78.8	1.1	140.6	ND	ND	544.1	0
84472	2019-09-17T15:00:00	116.3	ND	ND	ND	ND	60.3	1.3	322.2	ND	ND	648.2	0
84473	2019-09-17T16:00:00	106.1	ND	ND	ND	ND	19.4	3	333.4	ND	ND	609.9	0
84474	2019-09-17T17:00:00	83	ND	ND	ND	ND	12.7	3.8	332.2	ND	ND	350.2	0
84475	2019-09-17T18:00:00	62.2	ND	ND	ND	ND	10.3	3.6	333.5	ND	ND	278.4	0
84476	2019-09-17T19:00:00	47.1	ND	ND	ND	ND	14.3	4.5	330.5	ND	ND	0	0
84477	2019-09-17T20:00:00	27.1	ND	ND	ND	ND	17.4	4.4	332.5	ND	ND	0	0
84478	2019-09-17T21:00:00	13.5	ND	ND	ND	ND	158	2.1	341.5	ND	ND	0	0
84479	2019-09-17T22:00:00	34.7	ND	ND	ND	ND	8.3	0.9	275.5	ND	ND	0	0
84480	2019-09-17T23:00:00	42.2	ND	ND	ND	ND	7.5	2.2	254.5	ND	ND	0	0
84481	2019-09-18T00:00:00	60.5	ND	ND	ND	ND	11.6	2.3	230.6	ND	ND	0	0
84482	2019-09-18T01:00:00	44.7	ND	ND	ND	ND	12.5	1.9	224	ND	ND	0	0
84483	2019-09-18T02:00:00	22.3	ND	ND	ND	ND	15.2	1.8	228.3	ND	ND	0	0
84484	2019-09-18T03:00:00	20.4	ND	ND	ND	ND	14.1	1.8	229.1	ND	ND	0	0
84485	2019-09-18T04:00:00	22.2	ND	ND	ND	ND	14.8	1.4	217	ND	ND	0	0.25
84486	2019-09-18T05:00:00	23.3	ND	ND	ND	ND	13.3	1.4	215.3	ND	ND	0	9.65
84487	2019-09-18T06:00:00	27.2	ND	ND	ND	ND	4	1.3	176.4	ND	ND	0	1.78
84488	2019-09-18T07:00:00	29.7	ND	ND	ND	ND	2.1	0.8	122.4	ND	ND	0	1.02
84489	2019-09-18T08:00:00	23.9	ND	ND	ND	ND	3.2	0.5	111.1	ND	ND	58.1	0
84490	2019-09-18T09:00:00	36.5	ND	ND	ND	ND	12.6	0.4	258.6	ND	ND	389.3	0
84491	2019-09-18T10:00:00	54.4	ND	ND	ND	ND	22.7	0.2	189.6	ND	ND	647.8	0
84492	2019-09-18T11:00:00	85	ND	ND	ND	ND	31.3	1.7	153.5	ND	ND	647.8	0
84493	2019-09-18T12:00:00	92.5	ND	ND	ND	ND	50.3	1.4	144.3	ND	ND	648.1	0
84494	2019-09-18T13:00:00	63.5	ND	ND	ND	ND	64.3	0.9	64.5	ND	ND	643.9	0
84495	2019-09-18T14:00:00	51.8	ND	ND	ND	ND	59.8	0.6	222.1	ND	ND	648	0
84496	2019-09-18T15:00:00	68	ND	ND	ND	ND	38.4	0.5	356.1	ND	ND	443.5	0.76
84497	2019-09-18T16:00:00	38.4	ND	ND	ND	ND	22.2	3.1	334.9	ND	ND	467	0.25
84498	2019-09-18T17:00:00	42.1	ND	ND	ND	ND	9	2.9	59.7	ND	ND	504.6	0
84499	2019-09-18T18:00:00	36.5	ND	ND	ND	ND	2.7	2	60.4	ND	ND	0	0
84500	2019-09-18T19:00:00	42.6	ND	ND	ND	ND	1.8	0.4	327.2	ND	ND	0	0.25
84501	2019-09-18T20:00:00	50.4	ND	ND	ND	ND	7	1.9	212.7	ND	ND	0	0
84502	2019-09-18T21:00:00	53.2	ND	ND	ND	ND	4.9	1.5	197.9	ND	ND	0	0
84503	2019-09-18T22:00:00	60.4	ND	ND	ND	ND	1	0.8	197	ND	ND	0	0
84504	2019-09-18T23:00:00	62	ND	ND	ND	ND	1.1	0.6	165.9	ND	ND	0	0
84505	2019-09-19T00:00:00	53.3	ND	ND	ND	ND	3	0.9	175.7	ND	ND	0	0
84506	2019-09-19T01:00:00	27.4	ND	ND	ND	ND	13.3	0.7	188.7	ND	ND	0	0
84507	2019-09-19T02:00:00	18.8	ND	ND	ND	ND	15	1.1	177.2	ND	ND	0	71.63
84508	2019-09-19T03:00:00	23.5	ND	ND	ND	ND	9.5	0.9	167.9	ND	ND	0	92.2
84509	2019-09-19T04:00:00	14.7	ND	ND	ND	ND	9.4	0.8	180.6	ND	ND	0	61.21
84510	2019-09-19T05:00:00	5.7	ND	ND	ND	ND	9	0.3	208.3	ND	ND	0	31.24
84511	2019-09-19T06:00:00	10.1	ND	ND	ND	ND	5	0.4	220.4	ND	ND	0	21.59
84512	2019-09-19T07:00:00	11.6	ND	ND	ND	ND	1.5	0.5	236.3	ND	ND	0	7.87
84513	2019-09-19T08:00:00	19.5	ND	ND	ND	ND	1.2	0.4	353.2	ND	ND	19.9	3.05
84514	2019-09-19T09:00:00	21.3	ND	ND	ND	ND	3.2	0.1	146.8	ND	ND	81.4	1.52
84515	2019-09-19T10:00:00	27	ND	ND	ND	ND	6.8	0.2	180	ND	ND	236.6	0.25
84516	2019-09-19T11:00:00	37.9	ND	ND	ND	ND	13.7	1.5	110.3	ND	ND	416.5	0
84517	2019-09-19T12:00:00	59	ND	ND	ND	ND	27	1.1	120.2	ND	ND	619.9	0
84518	2019-09-19T13:00:00	69.5	ND	ND	ND	ND	48.5	1.2	85.2	ND	ND	648.6	0
84519	2019-09-19T14:00:00	66.3	ND	ND	ND	ND	61.3	1.8	44.1	ND	ND	648	0
84520	2019-09-19T15:00:00	75.2	ND	ND	ND	ND	52.6	1.6	76.2	ND	ND	648.1	0
84521	2019-09-19T16:00:00	79.4	ND	ND	ND	ND	48	1.7	54.7	ND	ND	648.4	0
84522	2019-09-19T17:00:00	84.9	ND	ND	ND	ND	34.6	0.8	71.9	ND	ND	636.7	0
84523	2019-09-19T18:00:00	110.4	ND	ND	ND	ND	15.9	0.4	98.1	ND	ND	292.1	0
84524	2019-09-19T19:00:00	89.5	ND	ND	ND	ND	5.8	1.6	321.9	ND	ND	0	0
84525	2019-09-19T20:00:00	28.6	ND	ND	ND	ND	7.5	1.9	342.3	ND	ND	0	0
84526	2019-09-19T21:00:00	27.2	ND	ND	ND	ND	13.2	2.3	331.7	ND	ND	0	0
84527	2019-09-19T22:00:00	27	ND	ND	ND	ND	4.5	0.8	81.3	ND	ND	0	0
84528	2019-09-19T23:00:00	77	ND	ND	ND	ND	0.6	1.1	169	ND	ND	0	0
84529	2019-09-20T00:00:00	79.7	ND	ND	ND	ND	1.1	0.7	156.6	ND	ND	0	0
84530	2019-09-20T01:00:00	55.3	ND	ND	ND	ND	0.6	0.3	111.2	ND	ND	0	0
84531	2019-09-20T02:00:00	33.4	ND	ND	ND	ND	1.1	1.3	206.1	ND	ND	0	0
84532	2019-09-20T03:00:00	32.2	ND	ND	ND	ND	2.1	1.3	221	ND	ND	0	0
84533	2019-09-20T04:00:00	26.7	ND	ND	ND	ND	4.1	1.9	233.5	ND	ND	0	0
84534	2019-09-20T05:00:00	22.9	ND	ND	ND	ND	10.8	2.3	223.6	ND	ND	0	0
84535	2019-09-20T06:00:00	25.6	ND	ND	ND	ND	12.8	2.2	179	ND	ND	0	14.48
84536	2019-09-20T07:00:00	5.7	ND	ND	ND	ND	9.1	0.9	32.9	ND	ND	0	5.08
84537	2019-09-20T08:00:00	19.6	ND	ND	ND	ND	2.5	1.2	34.6	ND	ND	10.3	5.08
84538	2019-09-20T09:00:00	37.8	ND	ND	ND	ND	1.5	0.6	31.6	ND	ND	55.6	0.76
84539	2019-09-20T10:00:00	64.8	ND	ND	ND	ND	3.9	0.7	108.7	ND	ND	144.8	0
84540	2019-09-20T11:00:00	91.8	ND	ND	ND	ND	4.2	1.2	185.3	ND	ND	285.1	0
84541	2019-09-20T12:00:00	88	ND	ND	ND	ND	7.7	1.4	142.7	ND	ND	427.3	0
84542	2019-09-20T13:00:00	85.9	ND	ND	ND	ND	11	1.1	116.6	ND	ND	275.9	0
84543	2019-09-20T14:00:00	71.3	ND	ND	ND	ND	21.2	0.4	38.6	ND	ND	303.2	0
84544	2019-09-20T15:00:00	95.2	ND	ND	ND	ND	14.7	1.6	323.3	ND	ND	317.4	0
84545	2019-09-20T16:00:00	104.9	ND	ND	ND	ND	22.4	0.8	310.5	ND	ND	437.1	0
84546	2019-09-20T17:00:00	104.8	ND	ND	ND	ND	18.2	0.6	65	ND	ND	426.6	0
84547	2019-09-20T18:00:00	131.1	ND	ND	ND	ND	5.4	1	188	ND	ND	220.7	0
84548	2019-09-20T19:00:00	192.8	ND	ND	ND	ND	4.7	0.9	168.7	ND	ND	0	0
84549	2019-09-20T20:00:00	190.9	ND	ND	ND	ND	1.1	0.9	104.4	ND	ND	0	0
84550	2019-09-20T21:00:00	163.6	ND	ND	ND	ND	0.6	0.2	36.3	ND	ND	0	0
84551	2019-09-20T22:00:00	172.7	ND	ND	ND	ND	0.6	0.1	255.3	ND	ND	0	0
84552	2019-09-20T23:00:00	121.6	ND	ND	ND	ND	0.4	1.3	310.4	ND	ND	0	0
84553	2019-09-21T00:00:00	81.5	ND	ND	ND	ND	0.4	0.8	297.9	ND	ND	0	0
84554	2019-09-21T01:00:00	55.3	ND	ND	ND	ND	1.8	1	287.2	ND	ND	0	0
84555	2019-09-21T02:00:00	60	ND	ND	ND	ND	0.9	0.2	191.2	ND	ND	0	0
84556	2019-09-21T03:00:00	95.3	ND	ND	ND	ND	0.6	0.1	99.1	ND	ND	0	0
84557	2019-09-21T04:00:00	89.3	ND	ND	ND	ND	0.5	0.3	177	ND	ND	0	0
84558	2019-09-21T05:00:00	67.9	ND	ND	ND	ND	0.4	0.8	266.4	ND	ND	0	0
84559	2019-09-21T06:00:00	51.7	ND	ND	ND	ND	0.5	0.8	314.4	ND	ND	0	0
84560	2019-09-21T07:00:00	58	ND	ND	ND	ND	0.7	0.2	104	ND	ND	0	0
84561	2019-09-21T08:00:00	146.2	ND	ND	ND	ND	1.3	0.7	154.3	ND	ND	78.9	0
84562	2019-09-21T09:00:00	183.6	ND	ND	ND	ND	6.7	0.9	186.9	ND	ND	355.4	0
84563	2019-09-21T10:00:00	132.4	ND	ND	ND	ND	21.3	1	182	ND	ND	595.9	0
84564	2019-09-21T11:00:00	95.4	ND	ND	ND	ND	38	1.1	160	ND	ND	628.4	0
84565	2019-09-21T12:00:00	87.4	ND	ND	ND	ND	45.7	1.3	144.1	ND	ND	645.5	0
84566	2019-09-21T13:00:00	97.3	ND	ND	ND	ND	68.8	1.2	159.6	ND	ND	648.5	0
84567	2019-09-21T14:00:00	90.6	ND	ND	ND	ND	83.9	1.4	170.1	ND	ND	649	0
84568	2019-09-21T15:00:00	81.3	ND	ND	ND	ND	71.3	1.2	153.7	ND	ND	649.1	0
84569	2019-09-21T16:00:00	85.2	ND	ND	ND	ND	83.3	0.2	346	ND	ND	633.2	0
84570	2019-09-21T17:00:00	45	ND	ND	ND	ND	21.7	2.6	318.3	ND	ND	596.8	0
84571	2019-09-21T18:00:00	48.6	ND	ND	ND	ND	15.7	2.6	331.1	ND	ND	517.1	0
84572	2019-09-21T19:00:00	36.6	ND	ND	ND	ND	12.5	2.8	324.3	ND	ND	0	0
84573	2019-09-21T20:00:00	27.4	ND	ND	ND	ND	14.3	3.1	323.3	ND	ND	0	0
84574	2019-09-21T21:00:00	31.3	ND	ND	ND	ND	5	0.6	92.6	ND	ND	0	0
84575	2019-09-21T22:00:00	52.2	ND	ND	ND	ND	1.8	0.8	157.5	ND	ND	0	0
84576	2019-09-21T23:00:00	93.2	ND	ND	ND	ND	0.5	1.1	111.1	ND	ND	0	0
84577	2019-09-22T00:00:00	73.4	ND	ND	ND	ND	0.5	0.6	208.4	ND	ND	0	0
84578	2019-09-22T01:00:00	84	ND	ND	ND	ND	0.5	1.1	263.3	ND	ND	0	0
84579	2019-09-22T02:00:00	68.2	ND	ND	ND	ND	4.1	1.1	262.2	ND	ND	0	0
84580	2019-09-22T03:00:00	59.8	ND	ND	ND	ND	1.3	0.7	201.7	ND	ND	0	0
84581	2019-09-22T04:00:00	61.3	ND	ND	ND	ND	1	0.3	264.2	ND	ND	0	0
84582	2019-09-22T05:00:00	53.9	ND	ND	ND	ND	1.5	0.3	281.2	ND	ND	0	0
84583	2019-09-22T06:00:00	48.9	ND	ND	ND	ND	0.7	1	0.5	ND	ND	0	0
84584	2019-09-22T07:00:00	64.6	ND	ND	ND	ND	2.3	0.8	297.8	ND	ND	0	0
84585	2019-09-22T08:00:00	59.8	ND	ND	ND	ND	7.4	0.6	239.2	ND	ND	107.8	0
84586	2019-09-22T09:00:00	80.1	ND	ND	ND	ND	14.9	1.3	209.5	ND	ND	564.7	0
84587	2019-09-22T10:00:00	66.8	ND	ND	ND	ND	30.8	1.2	192.4	ND	ND	648.6	0
84588	2019-09-22T11:00:00	66	ND	ND	ND	ND	60.3	0.6	165.3	ND	ND	646.3	0
84589	2019-09-22T12:00:00	55.2	ND	ND	ND	ND	77	0.9	162.2	ND	ND	645.9	0
84590	2019-09-22T13:00:00	63.7	ND	ND	ND	ND	85.5	1.1	118.9	ND	ND	648.7	0
84591	2019-09-22T14:00:00	53.5	ND	ND	ND	ND	95.6	1.3	21.4	ND	ND	648.6	0
84592	2019-09-22T15:00:00	51.8	ND	ND	ND	ND	33.4	3.8	329.5	ND	ND	633.2	0
84593	2019-09-22T16:00:00	41.4	ND	ND	ND	ND	25.9	4.7	334.2	ND	ND	638.3	0
84594	2019-09-22T17:00:00	36.1	ND	ND	ND	ND	20.6	4.5	333.4	ND	ND	646	0
84595	2019-09-22T18:00:00	22.8	ND	ND	ND	ND	21.1	4.8	325	ND	ND	489.1	0
84596	2019-09-22T19:00:00	27.7	ND	ND	ND	ND	18.1	4.7	328.4	ND	ND	0	0
84597	2019-09-22T20:00:00	18.9	ND	ND	ND	ND	15.5	3.5	315.6	ND	ND	0	0
84598	2019-09-22T21:00:00	11.7	ND	ND	ND	ND	7.4	1.1	13.6	ND	ND	0	0
84599	2019-09-22T22:00:00	52.3	ND	ND	ND	ND	10.5	0.9	188.7	ND	ND	0	0
84600	2019-09-22T23:00:00	52.5	ND	ND	ND	ND	8.4	0.7	165.6	ND	ND	0	0
84601	2019-09-23T00:00:00	56	ND	ND	ND	ND	7.9	0.5	152.7	ND	ND	0	0
84602	2019-09-23T01:00:00	48.8	ND	ND	ND	ND	5.8	0.4	262	ND	ND	0	0
84603	2019-09-23T02:00:00	44.6	ND	ND	ND	ND	10.9	1.1	166.1	ND	ND	0	0
84604	2019-09-23T03:00:00	40.2	ND	ND	ND	ND	13	0.4	146.4	ND	ND	0	0
84605	2019-09-23T04:00:00	41.4	ND	ND	ND	ND	7.9	0.4	89	ND	ND	0	0
84606	2019-09-23T05:00:00	64.5	ND	ND	ND	ND	1.7	0.6	84	ND	ND	0	0
84607	2019-09-23T06:00:00	71.1	ND	ND	ND	ND	0.6	0.9	103.5	ND	ND	0	0
84608	2019-09-23T07:00:00	104.7	ND	ND	ND	ND	0.7	1.2	118.5	ND	ND	0	0
84609	2019-09-23T08:00:00	110.6	ND	ND	ND	ND	3	1.6	97.8	ND	ND	48.3	0
84610	2019-09-23T09:00:00	95.3	ND	ND	ND	ND	6.3	1.5	80.5	ND	ND	287.6	0
84611	2019-09-23T10:00:00	72.7	ND	ND	ND	ND	16.5	1.4	119.5	ND	ND	584.7	0
84612	2019-09-23T11:00:00	60.2	ND	ND	ND	ND	32.6	1	145.9	ND	ND	643.8	0
84613	2019-09-23T12:00:00	76.3	ND	ND	ND	ND	139	0.7	96.3	ND	ND	648.8	0
84614	2019-09-23T13:00:00	77	ND	ND	ND	ND	55	1.8	118	ND	ND	649	0
84615	2019-09-23T14:00:00	65.6	ND	ND	ND	ND	57.1	1.5	112.6	ND	ND	649.3	0
84616	2019-09-23T15:00:00	64.9	ND	ND	ND	ND	53	1.1	94.6	ND	ND	649.3	0
84617	2019-09-23T16:00:00	67	ND	ND	ND	ND	29.2	2.3	351.9	ND	ND	617.1	0
84618	2019-09-23T17:00:00	68.4	ND	ND	ND	ND	19.7	3.9	337.5	ND	ND	581.1	0
84619	2019-09-23T18:00:00	47.8	ND	ND	ND	ND	16.6	3.3	328.5	ND	ND	285	0
84620	2019-09-23T19:00:00	32.1	ND	ND	ND	ND	13.9	3.4	318	ND	ND	0	0
84621	2019-09-23T20:00:00	17.7	ND	ND	ND	ND	13	2.8	316.5	ND	ND	0	0
84622	2019-09-23T21:00:00	32.8	ND	ND	ND	ND	9.5	0.5	23.6	ND	ND	0	0
84623	2019-09-23T22:00:00	62.8	ND	ND	ND	ND	0.8	0	345.3	ND	ND	0	0
84624	2019-09-23T23:00:00	73	ND	ND	ND	ND	1.1	1.3	230.3	ND	ND	0	0
84625	2019-09-24T00:00:00	63.9	ND	ND	ND	ND	11.7	0.5	317.2	ND	ND	0	0
84626	2019-09-24T01:00:00	42.4	ND	ND	ND	ND	3.1	0.8	52.8	ND	ND	0	0
84627	2019-09-24T02:00:00	47.8	ND	ND	ND	ND	4.3	1	214.5	ND	ND	0	0
84628	2019-09-24T03:00:00	50.2	ND	ND	ND	ND	13.9	1.2	233.7	ND	ND	0	0
84629	2019-09-24T04:00:00	41.9	ND	ND	ND	ND	8	0.3	223.1	ND	ND	0	0
84630	2019-09-24T05:00:00	32.9	ND	ND	ND	ND	6.9	0.3	334.9	ND	ND	0	0
84631	2019-09-24T06:00:00	45.5	ND	ND	ND	ND	0.7	0.6	93.2	ND	ND	0	0
84632	2019-09-24T07:00:00	131	ND	ND	ND	ND	1	0.8	128.2	ND	ND	0	0
84633	2019-09-24T08:00:00	165.3	ND	ND	ND	ND	3.8	0.4	170.2	ND	ND	91.2	0
84634	2019-09-24T09:00:00	162.2	ND	ND	ND	ND	20.3	0.9	152.5	ND	ND	610.5	0
84635	2019-09-24T10:00:00	146.7	ND	ND	ND	ND	41	1.3	200.3	ND	ND	648.3	0
84636	2019-09-24T11:00:00	112	ND	ND	ND	ND	59.5	0.9	160.8	ND	ND	648.8	0
84637	2019-09-24T12:00:00	93	ND	ND	ND	ND	68.5	1.2	131.2	ND	ND	648.8	0
84638	2019-09-24T13:00:00	85.4	ND	ND	ND	ND	71.5	1.5	130.6	ND	ND	648.4	0
84639	2019-09-24T14:00:00	74.7	ND	ND	ND	ND	88.2	0.7	52	ND	ND	642.5	0
84640	2019-09-24T15:00:00	81.3	ND	ND	ND	ND	47.4	3	334.4	ND	ND	649.1	0
84641	2019-09-24T16:00:00	145.1	ND	ND	ND	ND	26.1	5.1	331.3	ND	ND	634.1	0
84642	2019-09-24T17:00:00	176.3	ND	ND	ND	ND	20.4	4.7	329.1	ND	ND	586.6	0
84643	2019-09-24T18:00:00	97.3	ND	ND	ND	ND	20.8	3.6	312.3	ND	ND	345.3	0
84644	2019-09-24T19:00:00	87.6	ND	ND	ND	ND	32.4	2.3	236.9	ND	ND	0	0
84645	2019-09-24T20:00:00	63.7	ND	ND	ND	ND	24.2	1.6	257.1	ND	ND	0	0
84646	2019-09-24T21:00:00	58.6	ND	ND	ND	ND	11	1.5	225.9	ND	ND	0	0
84647	2019-09-24T22:00:00	60.9	ND	ND	ND	ND	13.9	1.3	259	ND	ND	0	0
84648	2019-09-24T23:00:00	60	ND	ND	ND	ND	4.3	0.9	130.3	ND	ND	0	0
84649	2019-09-25T00:00:00	78.8	ND	ND	ND	ND	6.4	1	110.3	ND	ND	0	0
84650	2019-09-25T01:00:00	75.9	ND	ND	ND	ND	0.7	0.3	284.1	ND	ND	0	0
84651	2019-09-25T02:00:00	6.7	ND	ND	ND	ND	3.7	1.2	243.9	ND	ND	0	0
84652	2019-09-25T03:00:00	8.1	ND	ND	ND	ND	3	0.6	223.5	ND	ND	0	0
84653	2019-09-25T04:00:00	41	ND	ND	ND	ND	4.5	0.9	112.3	ND	ND	0	0
84654	2019-09-25T05:00:00	59.3	ND	ND	ND	ND	1.4	0.6	99.6	ND	ND	0	0
84655	2019-09-25T06:00:00	81.5	ND	ND	ND	ND	0.7	0.8	106.4	ND	ND	0	0
84656	2019-09-25T07:00:00	113.8	ND	ND	ND	ND	2.2	1.3	116	ND	ND	0	0
84657	2019-09-25T08:00:00	97.7	ND	ND	ND	ND	3.2	1	241.1	ND	ND	58.2	0
84658	2019-09-25T09:00:00	116.1	ND	ND	ND	ND	6	1.1	138	ND	ND	106.4	0
84659	2019-09-25T10:00:00	95.3	ND	ND	ND	ND	14.7	0.8	110.1	ND	ND	492.1	0
84660	2019-09-25T11:00:00	85.6	ND	ND	ND	ND	22	0.7	171.2	ND	ND	624.7	0
84661	2019-09-25T12:00:00	84.6	ND	ND	ND	ND	52.3	0.6	216.3	ND	ND	601.8	0
84662	2019-09-25T13:00:00	91.1	ND	ND	ND	ND	90.4	0.9	227.3	ND	ND	648.5	0
84663	2019-09-25T14:00:00	85.7	ND	ND	ND	ND	84.3	1.3	144.7	ND	ND	649	0
84664	2019-09-25T15:00:00	80.2	ND	ND	ND	ND	84.2	2.2	74.2	ND	ND	648.8	0
84665	2019-09-25T16:00:00	78	ND	ND	ND	ND	66.1	2.5	91.5	ND	ND	648.7	0
84666	2019-09-25T17:00:00	81.4	ND	ND	ND	ND	42	0.3	8.7	ND	ND	517.5	0
84667	2019-09-25T18:00:00	65.1	ND	ND	ND	ND	15.5	2.7	324.9	ND	ND	318.4	0
84668	2019-09-25T19:00:00	49.6	ND	ND	ND	ND	11.1	2.2	356.9	ND	ND	0	0
84669	2019-09-25T20:00:00	23.5	ND	ND	ND	ND	14.7	1.8	341.4	ND	ND	0	0
84670	2019-09-25T21:00:00	22.4	ND	ND	ND	ND	20	0.6	253.7	ND	ND	0	0
84671	2019-09-25T22:00:00	41.9	ND	ND	ND	ND	19.5	1.4	168.2	ND	ND	0	0
84672	2019-09-25T23:00:00	38.7	ND	ND	ND	ND	23.8	1.1	198.9	ND	ND	0	0
84673	2019-09-26T00:00:00	28.5	ND	ND	ND	ND	13.3	0.6	189.5	ND	ND	0	0
84674	2019-09-26T01:00:00	30.5	ND	ND	ND	ND	20.2	1.4	198	ND	ND	0	0
84675	2019-09-26T02:00:00	20.9	ND	ND	ND	ND	18	1.5	241.1	ND	ND	0	14.22
84676	2019-09-26T03:00:00	10.2	ND	ND	ND	ND	19.7	1.4	246.4	ND	ND	0	4.32
84677	2019-09-26T04:00:00	6.4	ND	ND	ND	ND	16.3	0.9	237.7	ND	ND	0	0.51
84678	2019-09-26T05:00:00	11.7	ND	ND	ND	ND	10.6	0.5	158.2	ND	ND	0	0
84679	2019-09-26T06:00:00	17	ND	ND	ND	ND	2.1	1.2	111.6	ND	ND	0	0.51
84680	2019-09-26T07:00:00	26	ND	ND	ND	ND	1.3	0.8	102.1	ND	ND	0	0
84681	2019-09-26T08:00:00	45.7	ND	ND	ND	ND	2.6	0.5	130.5	ND	ND	105.5	0
84682	2019-09-26T09:00:00	66.5	ND	ND	ND	ND	16	0.8	166.7	ND	ND	356.6	0.25
84683	2019-09-26T10:00:00	225.7	ND	ND	ND	ND	34.6	0.9	174.5	ND	ND	640.8	0
84684	2019-09-26T11:00:00	140.6	ND	ND	ND	ND	41	1.2	158.3	ND	ND	648.8	0
84685	2019-09-26T12:00:00	37.5	ND	ND	ND	ND	58.3	0.9	150.9	ND	ND	644.3	0
84686	2019-09-26T13:00:00	47.7	ND	ND	ND	ND	78	1.1	135	ND	ND	634.6	0
84687	2019-09-26T14:00:00	56.5	ND	ND	ND	ND	81.5	0.9	85.6	ND	ND	645.4	0
84688	2019-09-26T15:00:00	66.9	ND	ND	ND	ND	77.2	1.2	137.8	ND	ND	649.2	0
84689	2019-09-26T16:00:00	71.7	ND	ND	ND	ND	64.6	1.6	133.9	ND	ND	649.1	0
84690	2019-09-26T17:00:00	81.5	ND	ND	ND	ND	60.5	2.1	99.9	ND	ND	640.4	0
84691	2019-09-26T18:00:00	81.7	ND	ND	ND	ND	29.2	1.6	34.5	ND	ND	431.4	0
84692	2019-09-26T19:00:00	60.3	ND	ND	ND	ND	18.4	3	327.5	ND	ND	0	0
84693	2019-09-26T20:00:00	44.5	ND	ND	ND	ND	21.1	2.9	326	ND	ND	0	0
84694	2019-09-26T21:00:00	23.6	ND	ND	ND	ND	20.1	2.6	333.4	ND	ND	0	0
84695	2019-09-26T22:00:00	37	ND	ND	ND	ND	10.4	0.4	309.3	ND	ND	0	0
84696	2019-09-26T23:00:00	39.1	ND	ND	ND	ND	22.6	2.1	333.8	ND	ND	0	0
84697	2019-09-27T00:00:00	30.4	ND	ND	ND	ND	5.4	0.6	106.8	ND	ND	0	0
84698	2019-09-27T01:00:00	45.4	ND	ND	ND	ND	1.6	0.8	128.6	ND	ND	0	0
84699	2019-09-27T02:00:00	40.2	ND	ND	ND	ND	4.5	1	170	ND	ND	0	0
84700	2019-09-27T03:00:00	37.8	ND	ND	ND	ND	10.6	0.6	190.4	ND	ND	0	0
84701	2019-09-27T04:00:00	32.9	ND	ND	ND	ND	6.9	1.1	208.3	ND	ND	0	0
84702	2019-09-27T05:00:00	44.7	ND	ND	ND	ND	3.6	0.8	191.6	ND	ND	0	0
84703	2019-09-27T06:00:00	55.3	ND	ND	ND	ND	2.5	0.7	223.4	ND	ND	0	0
84704	2019-09-27T07:00:00	66.9	ND	ND	ND	ND	1.8	1	241.6	ND	ND	0	0
84705	2019-09-27T08:00:00	81.6	ND	ND	ND	ND	4.9	1	227	ND	ND	83.7	0
84706	2019-09-27T09:00:00	131.1	ND	ND	ND	ND	14.2	0.6	214.6	ND	ND	399.7	0
84707	2019-09-27T10:00:00	122.8	ND	ND	ND	ND	27.8	1.3	192.1	ND	ND	629.5	0
84708	2019-09-27T11:00:00	106.3	ND	ND	ND	ND	43.6	1.3	167.7	ND	ND	648.8	0
84709	2019-09-27T12:00:00	98	ND	ND	ND	ND	62.8	0.9	191.5	ND	ND	646.8	0
84710	2019-09-27T13:00:00	91.5	ND	ND	ND	ND	71.1	1.3	115.8	ND	ND	644.5	0
84711	2019-09-27T14:00:00	94.8	ND	ND	ND	ND	88.4	0.9	76.5	ND	ND	587.8	0
84712	2019-09-27T15:00:00	89.6	ND	ND	ND	ND	54.2	2.3	340	ND	ND	588.1	0
84713	2019-09-27T16:00:00	120.5	ND	ND	ND	ND	29.1	4.6	333.6	ND	ND	563	0
84714	2019-09-27T17:00:00	109.5	ND	ND	ND	ND	26	4.4	332.4	ND	ND	648.8	0
84715	2019-09-27T18:00:00	53.4	ND	ND	ND	ND	20.3	4.3	332.3	ND	ND	447.1	0
84716	2019-09-27T19:00:00	54.2	ND	ND	ND	ND	20.7	4.7	324.1	ND	ND	0	0
84717	2019-09-27T20:00:00	45.1	ND	ND	ND	ND	20.7	2.3	341.9	ND	ND	0	0
84718	2019-09-27T21:00:00	32.9	ND	ND	ND	ND	23	3.9	327.5	ND	ND	0	0
84719	2019-09-27T22:00:00	17.9	ND	ND	ND	ND	17.6	3	315.2	ND	ND	0	0
84720	2019-09-27T23:00:00	28.5	ND	ND	ND	ND	7.6	2.6	248.2	ND	ND	0	2.29
84721	2019-09-28T00:00:00	47.6	ND	ND	ND	ND	10.6	1.6	252.6	ND	ND	0	0
84722	2019-09-28T01:00:00	21.3	ND	ND	ND	ND	11.9	1.9	243.4	ND	ND	0	0.25
84723	2019-09-28T02:00:00	22.3	ND	ND	ND	ND	18.2	0.8	274	ND	ND	0	24.64
84724	2019-09-28T03:00:00	8.7	ND	ND	ND	ND	13.7	1.7	282.8	ND	ND	0	13.97
84725	2019-09-28T04:00:00	ND	ND	ND	ND	ND	17.7	1.3	260.2	ND	ND	0	0
84726	2019-09-28T05:00:00	ND	ND	ND	ND	ND	4.6	0.5	138.7	ND	ND	0	0
84727	2019-09-28T06:00:00	ND	ND	ND	ND	ND	1.8	0.3	203.7	ND	ND	0	0.25
84728	2019-09-28T07:00:00	ND	ND	ND	ND	ND	2.3	1.3	295.1	ND	ND	5.2	0
84729	2019-09-28T08:00:00	ND	ND	ND	ND	ND	9.1	0.1	281.6	ND	ND	172.4	0
84730	2019-09-28T09:00:00	ND	ND	ND	ND	ND	17.3	0.9	204.4	ND	ND	629.9	0
84731	2019-09-28T10:00:00	ND	ND	ND	ND	ND	35.3	0.7	217.5	ND	ND	618.6	0
84732	2019-09-28T11:00:00	ND	ND	ND	ND	ND	57.9	0.8	135.9	ND	ND	643.8	0
84733	2019-09-28T12:00:00	ND	ND	ND	ND	ND	75.5	0.7	146.4	ND	ND	649.3	0
84734	2019-09-28T13:00:00	ND	ND	ND	ND	ND	86.6	0.9	177.3	ND	ND	644.1	0
84735	2019-09-28T14:00:00	ND	ND	ND	ND	ND	86.7	0.6	306.2	ND	ND	624	0
84736	2019-09-28T15:00:00	ND	ND	ND	ND	ND	49.8	1.4	339.5	ND	ND	475.7	0
84737	2019-09-28T16:00:00	ND	ND	ND	ND	ND	27.3	4.3	335.3	ND	ND	528.8	0
84738	2019-09-28T17:00:00	ND	ND	ND	ND	ND	20.4	2.6	330.4	ND	ND	468.1	0
84739	2019-09-28T18:00:00	ND	ND	ND	ND	ND	8.7	1	149.8	ND	ND	132.2	0
84740	2019-09-28T19:00:00	ND	ND	ND	ND	ND	4.9	0.5	70.7	ND	ND	0	0
84741	2019-09-28T20:00:00	ND	ND	ND	ND	ND	5.4	0.8	274.4	ND	ND	0	0
84742	2019-09-28T21:00:00	ND	ND	ND	ND	ND	15.4	2.7	300.7	ND	ND	0	0
84743	2019-09-28T22:00:00	ND	ND	ND	ND	ND	7.1	1	331.9	ND	ND	0	0
84744	2019-09-28T23:00:00	ND	ND	ND	ND	ND	4.9	0.3	27.2	ND	ND	0	0
84745	2019-09-29T00:00:00	ND	ND	ND	ND	ND	0.7	0.7	100.3	ND	ND	0	0
84746	2019-09-29T01:00:00	ND	ND	ND	ND	ND	0.9	0.9	135.6	ND	ND	0	0
84747	2019-09-29T02:00:00	ND	ND	ND	ND	ND	2.9	0.7	199.6	ND	ND	0	0
84748	2019-09-29T03:00:00	ND	ND	ND	ND	ND	2.1	0.8	161.5	ND	ND	0	0
84749	2019-09-29T04:00:00	ND	ND	ND	ND	ND	1.8	0.6	159.1	ND	ND	0	0
84750	2019-09-29T05:00:00	ND	ND	ND	ND	ND	1.6	0.8	162.7	ND	ND	0	0
84751	2019-09-29T06:00:00	ND	ND	ND	ND	ND	1.1	0.6	189.7	ND	ND	0	0
84752	2019-09-29T07:00:00	ND	ND	ND	ND	ND	1.3	1.1	115.4	ND	ND	0	0
84753	2019-09-29T08:00:00	ND	ND	ND	ND	ND	2	0.6	138.4	ND	ND	60.8	0
84754	2019-09-29T09:00:00	ND	ND	ND	ND	ND	6.7	0.9	126.3	ND	ND	163.3	0
84755	2019-09-29T10:00:00	ND	ND	ND	ND	ND	20.9	0.6	197.1	ND	ND	386.9	0
84756	2019-09-29T11:00:00	ND	ND	ND	ND	ND	38.6	1.4	205	ND	ND	638.9	0
84757	2019-09-29T12:00:00	ND	ND	ND	ND	ND	48.9	1.5	199.8	ND	ND	649.4	0
84758	2019-09-29T13:00:00	ND	ND	ND	ND	ND	61.2	1.3	181.8	ND	ND	649.2	0
84759	2019-09-29T14:00:00	ND	ND	ND	ND	ND	36.4	2.5	339.3	ND	ND	648.4	0
84760	2019-09-29T15:00:00	ND	ND	ND	ND	ND	30.7	3.6	339.5	ND	ND	622.5	0
84761	2019-09-29T16:00:00	ND	ND	ND	ND	ND	30.6	4.1	350.9	ND	ND	649.2	0
84762	2019-09-29T17:00:00	ND	ND	ND	ND	ND	27.2	4.2	353.6	ND	ND	627.5	0
84763	2019-09-29T18:00:00	ND	ND	ND	ND	ND	18	0.8	32.1	ND	ND	210.2	0
84764	2019-09-29T19:00:00	ND	ND	ND	ND	ND	23	2.9	257	ND	ND	0	0
84765	2019-09-29T20:00:00	ND	ND	ND	ND	ND	13.6	2.1	257.4	ND	ND	0	2.03
84766	2019-09-29T21:00:00	ND	ND	ND	ND	ND	5.1	0.9	214.4	ND	ND	0	0.25
84767	2019-09-29T22:00:00	ND	ND	ND	ND	ND	3.7	1.1	198.9	ND	ND	0	2.29
84768	2019-09-29T23:00:00	ND	ND	ND	ND	ND	1.4	0.5	280.7	ND	ND	0	0.25
84769	2019-09-30T00:00:00	ND	ND	ND	ND	ND	1	1	151.3	ND	ND	0	0
84770	2019-09-30T01:00:00	ND	ND	ND	ND	ND	8.5	1	169.6	ND	ND	0	0
84771	2019-09-30T02:00:00	ND	ND	ND	ND	ND	13.5	0.4	214.9	ND	ND	0	0
84772	2019-09-30T03:00:00	ND	ND	ND	ND	ND	7	0.8	168.5	ND	ND	0	0
84773	2019-09-30T04:00:00	ND	ND	ND	ND	ND	3.7	0.3	182.9	ND	ND	0	0
84774	2019-09-30T05:00:00	ND	ND	ND	ND	ND	3.3	0.3	212.7	ND	ND	0	0
84775	2019-09-30T06:00:00	ND	ND	ND	ND	ND	1	1.1	240.3	ND	ND	0	0
84776	2019-09-30T07:00:00	ND	ND	ND	ND	ND	1.2	1.2	206	ND	ND	0	0
84777	2019-09-30T08:00:00	ND	ND	ND	ND	ND	3.3	0.8	102	ND	ND	134.8	0
84778	2019-09-30T09:00:00	ND	ND	ND	ND	ND	10.8	0.4	139.3	ND	ND	467.2	0
84779	2019-09-30T10:00:00	ND	ND	ND	ND	ND	26.6	0.9	116.9	ND	ND	486	0
84780	2019-09-30T11:00:00	ND	ND	ND	ND	ND	44.9	0.6	136.8	ND	ND	618.9	0
84781	2019-09-30T12:00:00	ND	ND	ND	ND	ND	63.4	1.3	111.2	ND	ND	624.1	0
84782	2019-09-30T13:00:00	ND	ND	ND	ND	ND	56	1.7	120.5	ND	ND	649	0
84783	2019-09-30T14:00:00	ND	ND	ND	ND	ND	59.7	1	42.4	ND	ND	649.3	0
84784	2019-09-30T15:00:00	ND	ND	ND	ND	ND	24.7	4.5	329.3	ND	ND	628.7	0
84785	2019-09-30T16:00:00	ND	ND	ND	ND	ND	15.4	5.2	325.2	ND	ND	648.8	0
84786	2019-09-30T17:00:00	ND	ND	ND	ND	ND	7.7	0.6	157.8	ND	ND	0	18.03
84787	2019-09-30T18:00:00	ND	ND	ND	ND	ND	1.3	0.7	40.4	ND	ND	0	2.03
84788	2019-09-30T19:00:00	ND	ND	ND	ND	ND	1.2	1.3	208.3	ND	ND	0	0.25
84789	2019-09-30T20:00:00	ND	ND	ND	ND	ND	4.2	2.4	241.5	ND	ND	0	0
84790	2019-09-30T21:00:00	ND	ND	ND	ND	ND	6.4	1.6	225.6	ND	ND	0	0
84791	2019-09-30T22:00:00	ND	ND	ND	ND	ND	3.1	0.8	211.8	ND	ND	0	0
84792	2019-09-30T23:00:00	ND	ND	ND	ND	ND	0.7	0.6	184.1	ND	ND	0	0.51
84793	2019-10-01T00:00:00	ND	ND	ND	ND	ND	4.4	1	197.4	ND	ND	0	2.03
84794	2019-10-01T01:00:00	ND	ND	ND	ND	ND	7.4	0.7	170	ND	ND	0	28.7
84795	2019-10-01T02:00:00	ND	ND	ND	ND	ND	15.7	1.9	189.8	ND	ND	0	76.45
84796	2019-10-01T03:00:00	ND	ND	ND	ND	ND	23	2	182.4	ND	ND	0	14.48
84797	2019-10-01T04:00:00	ND	ND	ND	ND	ND	18.7	1.1	83.3	ND	ND	0	11.68
84798	2019-10-01T05:00:00	ND	ND	ND	ND	ND	20.2	1.7	30.6	ND	ND	0	3.81
84799	2019-10-01T06:00:00	ND	ND	ND	ND	ND	13.6	0.5	336.7	ND	ND	0	1.52
84800	2019-10-01T07:00:00	ND	ND	ND	ND	ND	1.8	0.4	236.8	ND	ND	0	0.51
84801	2019-10-01T08:00:00	ND	ND	ND	ND	ND	1	1	175.8	ND	ND	36.2	0.76
84802	2019-10-01T09:00:00	ND	ND	ND	ND	ND	5.1	1	207.8	ND	ND	66.3	0.25
84803	2019-10-01T10:00:00	5.9	ND	ND	ND	ND	15.6	0.9	290.5	ND	ND	286.1	0
84804	2019-10-01T11:00:00	70.7	ND	ND	ND	ND	34	0.7	13.7	ND	ND	570.6	0
84805	2019-10-01T12:00:00	73.9	ND	ND	ND	ND	55.9	0.7	89.8	ND	ND	645.8	0
84806	2019-10-01T13:00:00	59.1	ND	ND	ND	ND	69.6	1.3	139.6	ND	ND	634.5	0
84807	2019-10-01T14:00:00	56.6	ND	ND	ND	ND	64.8	1	135.4	ND	ND	648.7	0
84808	2019-10-01T15:00:00	51.3	ND	ND	ND	ND	71.7	1	116.3	ND	ND	648.9	0
84809	2019-10-01T16:00:00	78	ND	ND	ND	ND	43.7	1.9	120.9	ND	ND	648.9	0
84810	2019-10-01T17:00:00	89.9	ND	ND	ND	ND	36.5	1	154	ND	ND	527.3	0
84811	2019-10-01T18:00:00	101.9	ND	ND	ND	ND	20.3	1.2	127.2	ND	ND	288.5	0
84812	2019-10-01T19:00:00	102.5	ND	ND	ND	ND	23.9	0.6	309.2	ND	ND	0	0
84813	2019-10-01T20:00:00	100	ND	ND	ND	ND	2.7	0.6	308	ND	ND	0	0
84814	2019-10-01T21:00:00	67.2	ND	ND	ND	ND	4.7	1.2	316.9	ND	ND	0	0
84815	2019-10-01T22:00:00	34.7	ND	ND	ND	ND	10.2	1.2	329.5	ND	ND	0	0
84816	2019-10-01T23:00:00	24.8	ND	ND	ND	ND	4.3	0.4	283.8	ND	ND	0	0
84817	2019-10-02T00:00:00	56.4	ND	ND	ND	ND	5.1	0.9	262.1	ND	ND	0	0
84818	2019-10-02T01:00:00	56.9	ND	ND	ND	ND	10.2	0.5	185.4	ND	ND	0	0
84819	2019-10-02T02:00:00	67	ND	ND	ND	ND	6.3	0.7	196.1	ND	ND	0	0
84820	2019-10-02T03:00:00	77	ND	ND	ND	ND	4.8	0.6	189.9	ND	ND	0	0
84821	2019-10-02T04:00:00	72.7	ND	ND	ND	ND	5.5	1.1	188	ND	ND	0	0
84822	2019-10-02T05:00:00	62	ND	ND	ND	ND	10.1	0.9	235.3	ND	ND	0	0
84823	2019-10-02T06:00:00	78.3	ND	ND	ND	ND	2.1	1	197.9	ND	ND	0	0
84824	2019-10-02T07:00:00	111.6	ND	ND	ND	ND	1.4	0.7	186.2	ND	ND	0	0
84825	2019-10-02T08:00:00	119.6	ND	ND	ND	ND	2.7	1.1	172.7	ND	ND	65.9	0
84826	2019-10-02T09:00:00	103.8	ND	ND	ND	ND	6.6	1.2	191.9	ND	ND	231.5	0
84827	2019-10-02T10:00:00	74.6	ND	ND	ND	ND	20.6	0.9	186.2	ND	ND	526.4	0
84828	2019-10-02T11:00:00	78.5	ND	ND	ND	ND	45.6	0.9	146.2	ND	ND	637.2	0
84829	2019-10-02T12:00:00	70.4	ND	ND	ND	ND	63.8	0.8	139.3	ND	ND	648.8	0
84830	2019-10-02T13:00:00	70.1	ND	ND	ND	ND	69.5	1.4	161.5	ND	ND	607.6	0
84831	2019-10-02T14:00:00	66.2	ND	ND	ND	ND	45	0.9	334.7	ND	ND	630.7	0.51
84832	2019-10-02T15:00:00	53.8	ND	ND	ND	ND	13.7	1.9	330.6	ND	ND	149.1	4.57
84833	2019-10-02T16:00:00	39.9	ND	ND	ND	ND	9	0.3	307.8	ND	ND	171	0.25
84834	2019-10-02T17:00:00	32.1	ND	ND	ND	ND	13.4	1.5	11.3	ND	ND	284.8	0
84835	2019-10-02T18:00:00	34.4	ND	ND	ND	ND	11.9	2	328.2	ND	ND	308.5	0
84836	2019-10-02T19:00:00	33.9	ND	ND	ND	ND	11.2	2.4	333.2	ND	ND	0	0
84837	2019-10-02T20:00:00	27.3	ND	ND	ND	ND	8.9	1.8	330	ND	ND	0	0
84838	2019-10-02T21:00:00	50.7	ND	ND	ND	ND	0.7	0.6	124.8	ND	ND	0	0
84839	2019-10-02T22:00:00	76.8	ND	ND	ND	ND	0.5	0.5	132.8	ND	ND	0	0
84840	2019-10-02T23:00:00	80.1	ND	ND	ND	ND	2.2	1.1	118.2	ND	ND	0	0
84841	2019-10-03T00:00:00	53.2	ND	ND	ND	ND	1.7	1.3	106.3	ND	ND	0	2.03
84842	2019-10-03T01:00:00	21.5	ND	ND	ND	ND	1.3	0.7	61.2	ND	ND	0	0.51
84843	2019-10-03T02:00:00	16.7	ND	ND	ND	ND	0.5	0.4	103.7	ND	ND	0	0.25
84844	2019-10-03T03:00:00	28.8	ND	ND	ND	ND	0.6	0.8	121.1	ND	ND	0	1.27
84845	2019-10-03T04:00:00	23.1	ND	ND	ND	ND	0.6	0.7	99.2	ND	ND	0	0.25
84846	2019-10-03T05:00:00	20.4	ND	ND	ND	ND	0.5	0.6	114.3	ND	ND	0	1.02
84847	2019-10-03T06:00:00	29.4	ND	ND	ND	ND	0.6	0.4	125.6	ND	ND	0	2.29
84848	2019-10-03T07:00:00	62.5	ND	ND	ND	ND	0.6	1.2	116.9	ND	ND	0	2.54
84849	2019-10-03T08:00:00	46.7	ND	ND	ND	ND	0.7	0.9	141.2	ND	ND	30.9	0.51
84850	2019-10-03T09:00:00	39.7	ND	ND	ND	ND	0.9	0.7	185.5	ND	ND	123.3	0.51
84851	2019-10-03T10:00:00	67.2	ND	ND	ND	ND	2	1	172.5	ND	ND	267.1	0
84852	2019-10-03T11:00:00	64.4	ND	ND	ND	ND	9.1	1.2	206.4	ND	ND	418.5	0.25
84853	2019-10-03T12:00:00	47.4	ND	ND	ND	ND	24.7	1	259.3	ND	ND	638.6	0
84854	2019-10-03T13:00:00	56.7	ND	ND	ND	ND	44.9	0.8	171.2	ND	ND	648.9	0
84855	2019-10-03T14:00:00	55.5	ND	ND	ND	ND	47.9	1.2	133	ND	ND	649	0
84856	2019-10-03T15:00:00	50.1	ND	ND	ND	ND	35.7	2	67.6	ND	ND	648.7	0
84857	2019-10-03T16:00:00	56.2	ND	ND	ND	ND	28.7	1.2	63.7	ND	ND	645.3	0
84858	2019-10-03T17:00:00	60.8	ND	ND	ND	ND	28.1	0.9	86.9	ND	ND	504.6	0
84859	2019-10-03T18:00:00	76.7	ND	ND	ND	ND	11.3	0.6	114.1	ND	ND	290.4	0
84860	2019-10-03T19:00:00	85.7	ND	ND	ND	ND	3.1	1.3	309.2	ND	ND	0	0
84861	2019-10-03T20:00:00	51.1	ND	ND	ND	ND	2.8	2.2	313.4	ND	ND	0	0
84862	2019-10-03T21:00:00	32.6	ND	ND	ND	ND	3.3	2.3	318	ND	ND	0	0
84863	2019-10-03T22:00:00	29.6	ND	ND	ND	ND	5.8	2.2	325	ND	ND	0	0
84864	2019-10-03T23:00:00	27.9	ND	ND	ND	ND	3.9	1	301.2	ND	ND	0	0
84865	2019-10-04T00:00:00	51.1	ND	ND	ND	ND	1.1	0.7	284.4	ND	ND	0	0
84866	2019-10-04T01:00:00	47.2	ND	ND	ND	ND	11.3	1.1	296.4	ND	ND	0	0
84867	2019-10-04T02:00:00	29	ND	ND	ND	ND	13	0.6	284	ND	ND	0	0
84868	2019-10-04T03:00:00	28.6	ND	ND	ND	ND	9.5	0.4	319.7	ND	ND	0	0
84869	2019-10-04T04:00:00	37	ND	ND	ND	ND	4.5	0.2	115.3	ND	ND	0	0
84870	2019-10-04T05:00:00	56.1	ND	ND	ND	ND	1.6	0.4	180.1	ND	ND	0	0
84871	2019-10-04T06:00:00	54.8	ND	ND	ND	ND	0.6	0.8	121.6	ND	ND	0	0
84872	2019-10-04T07:00:00	107.1	ND	ND	ND	ND	0.8	1	108.8	ND	ND	0	0
84873	2019-10-04T08:00:00	119.1	ND	ND	ND	ND	2.2	0.7	124.4	ND	ND	172.2	0
84874	2019-10-04T09:00:00	124.8	ND	ND	ND	ND	10.4	0.8	135.1	ND	ND	427.1	0
84875	2019-10-04T10:00:00	112.3	ND	ND	ND	ND	31.1	1.1	188.8	ND	ND	648.9	0
84876	2019-10-04T11:00:00	85.3	ND	ND	ND	ND	41.9	1.2	189.5	ND	ND	648.7	0
84877	2019-10-04T12:00:00	65.7	ND	ND	ND	ND	62.4	0.9	192.4	ND	ND	648.3	0
84878	2019-10-04T13:00:00	77.7	ND	ND	ND	ND	66.1	1.3	129.6	ND	ND	648.6	0
84879	2019-10-04T14:00:00	85.3	ND	ND	ND	ND	73.7	1.2	129.1	ND	ND	648.7	0
84880	2019-10-04T15:00:00	72.5	ND	ND	ND	ND	80.3	1.1	102.4	ND	ND	648.6	0
84881	2019-10-04T16:00:00	74.4	ND	ND	ND	ND	62.3	1.2	54.1	ND	ND	643.7	0
84882	2019-10-04T17:00:00	78.7	ND	ND	ND	ND	20.9	3.4	331	ND	ND	421	0
84883	2019-10-04T18:00:00	64.2	ND	ND	ND	ND	11.7	3.3	327	ND	ND	429.9	0
84884	2019-10-04T19:00:00	53.6	ND	ND	ND	ND	12.9	3.8	320.5	ND	ND	0	0
84885	2019-10-04T20:00:00	31.8	ND	ND	ND	ND	11.2	3.2	319.6	ND	ND	0	0
84886	2019-10-04T21:00:00	31.3	ND	ND	ND	ND	4.4	0.4	56.2	ND	ND	0	0
84887	2019-10-04T22:00:00	71.4	ND	ND	ND	ND	5.2	0.9	295.8	ND	ND	0	0
84888	2019-10-04T23:00:00	36.8	ND	ND	ND	ND	9.5	1.5	322.9	ND	ND	0	0
84889	2019-10-05T00:00:00	53.2	ND	ND	ND	ND	0.8	0.5	155.7	ND	ND	0	0
84890	2019-10-05T01:00:00	81	ND	ND	ND	ND	0.6	0.5	195.1	ND	ND	0	0
84891	2019-10-05T02:00:00	64.5	ND	ND	ND	ND	1.7	0.6	201.3	ND	ND	0	0
84892	2019-10-05T03:00:00	62.7	ND	ND	ND	ND	1.7	0.8	265.1	ND	ND	0	0
84893	2019-10-05T04:00:00	55.3	ND	ND	ND	ND	1.5	0.4	193.7	ND	ND	0	0
84894	2019-10-05T05:00:00	56.4	ND	ND	ND	ND	2.4	1	301.6	ND	ND	0	0
84895	2019-10-05T06:00:00	64.5	ND	ND	ND	ND	3.1	0.3	240.6	ND	ND	0	0
84896	2019-10-05T07:00:00	130	ND	ND	ND	ND	1.1	0.2	150.6	ND	ND	0	0
84897	2019-10-05T08:00:00	137.3	ND	ND	ND	ND	4.1	0.6	241.9	ND	ND	70	0
84898	2019-10-05T09:00:00	126.7	ND	ND	ND	ND	8.7	1.3	174.2	ND	ND	524.4	0
84899	2019-10-05T10:00:00	113.1	ND	ND	ND	ND	25.8	0.8	185.8	ND	ND	639.7	0
84900	2019-10-05T11:00:00	102.5	ND	ND	ND	ND	35.2	0.5	219.6	ND	ND	647.8	0
84901	2019-10-05T12:00:00	82.7	ND	ND	ND	ND	38.8	0.3	24	ND	ND	531.7	0
84902	2019-10-05T13:00:00	61.9	ND	ND	ND	ND	59.3	0.7	46.1	ND	ND	636.4	0
84903	2019-10-05T14:00:00	56.3	ND	ND	ND	ND	51.7	1.3	58.1	ND	ND	649.1	0
84904	2019-10-05T15:00:00	55.6	ND	ND	ND	ND	24.7	3.4	334.2	ND	ND	648	0
84905	2019-10-05T16:00:00	46.1	ND	ND	ND	ND	30.1	3.4	337.4	ND	ND	648.4	0
84906	2019-10-05T17:00:00	27.7	ND	ND	ND	ND	23.7	3.1	327.7	ND	ND	567.7	0
84907	2019-10-05T18:00:00	21.5	ND	ND	ND	ND	19.2	2.7	332.6	ND	ND	349.3	0
84908	2019-10-05T19:00:00	25.5	ND	ND	ND	ND	13.9	3	328.9	ND	ND	0	0
84909	2019-10-05T20:00:00	18.6	ND	ND	ND	ND	9.4	2.5	320.9	ND	ND	0	0
84910	2019-10-05T21:00:00	16.7	ND	ND	ND	ND	8.9	2.2	324.2	ND	ND	0	0
84911	2019-10-05T22:00:00	25.8	ND	ND	ND	ND	3.6	0.6	304.4	ND	ND	0	0
84912	2019-10-05T23:00:00	37.3	ND	ND	ND	ND	10	1.8	277	ND	ND	0	0
84913	2019-10-06T00:00:00	23.3	ND	ND	ND	ND	13.6	1.5	301.8	ND	ND	0	0
84914	2019-10-06T01:00:00	26.1	ND	ND	ND	ND	2.4	0.8	86.3	ND	ND	0	0
84915	2019-10-06T02:00:00	56.2	ND	ND	ND	ND	0.8	0.6	136.5	ND	ND	0	0
84916	2019-10-06T03:00:00	51	ND	ND	ND	ND	2.5	0.7	200.6	ND	ND	0	0
84917	2019-10-06T04:00:00	40.5	ND	ND	ND	ND	0.9	0.8	140.1	ND	ND	0	0
84918	2019-10-06T05:00:00	52.6	ND	ND	ND	ND	1.7	0.6	129.2	ND	ND	0	0
84919	2019-10-06T06:00:00	55.9	ND	ND	ND	ND	1.3	0.8	148.7	ND	ND	0	0
84920	2019-10-06T07:00:00	68.7	ND	ND	ND	ND	2.7	0.5	194.9	ND	ND	0.5	0
84921	2019-10-06T08:00:00	71	ND	ND	ND	ND	3.9	1	121	ND	ND	91.1	0
84922	2019-10-06T09:00:00	80.7	ND	ND	ND	ND	8.7	1.1	150.3	ND	ND	248.8	0
84923	2019-10-06T10:00:00	94.9	ND	ND	ND	ND	15.8	1.2	173.3	ND	ND	550.8	0
84924	2019-10-06T11:00:00	88.1	ND	ND	ND	ND	33	1	145.3	ND	ND	648.4	0
84925	2019-10-06T12:00:00	52.2	ND	ND	ND	ND	46.5	0.7	56.6	ND	ND	648.4	0
84926	2019-10-06T13:00:00	54.9	ND	ND	ND	ND	58.1	1.4	116.8	ND	ND	641.2	0
84927	2019-10-06T14:00:00	41.9	ND	ND	ND	ND	37.9	0.9	39.9	ND	ND	551.7	0
84928	2019-10-06T15:00:00	28.5	ND	ND	ND	ND	28.4	2	11.9	ND	ND	517.8	0
84929	2019-10-06T16:00:00	23	ND	ND	ND	ND	16.6	2.4	110.9	ND	ND	586.5	0
84930	2019-10-06T17:00:00	41	ND	ND	ND	ND	16.9	0.5	113.2	ND	ND	394	0
84931	2019-10-06T18:00:00	26.3	ND	ND	ND	ND	19.2	2	328.8	ND	ND	229.2	0
84932	2019-10-06T19:00:00	22.2	ND	ND	ND	ND	17.6	3.4	312.8	ND	ND	0	0
84933	2019-10-06T20:00:00	19.3	ND	ND	ND	ND	15.1	3	319.2	ND	ND	0	0
84934	2019-10-06T21:00:00	16.3	ND	ND	ND	ND	15.6	2	304.5	ND	ND	0	0
84935	2019-10-06T22:00:00	14.5	ND	ND	ND	ND	9	0.3	294.6	ND	ND	0	0
84936	2019-10-06T23:00:00	48.7	ND	ND	ND	ND	6.2	1	169.4	ND	ND	0	0
84937	2019-10-07T00:00:00	60	ND	ND	ND	ND	9.6	0.8	150	ND	ND	0	0
84938	2019-10-07T01:00:00	47.8	ND	ND	ND	ND	7.2	0.3	112.3	ND	ND	0	0
84939	2019-10-07T02:00:00	53.2	ND	ND	ND	ND	5.2	0.5	133.9	ND	ND	0	0
84940	2019-10-07T03:00:00	47.9	ND	ND	ND	ND	8.5	0.9	116.4	ND	ND	0	0
84941	2019-10-07T04:00:00	49.8	ND	ND	ND	ND	6.6	0.5	81.1	ND	ND	0	0
84942	2019-10-07T05:00:00	58.2	ND	ND	ND	ND	3.8	0.6	122	ND	ND	0	0
84943	2019-10-07T06:00:00	76.9	ND	ND	ND	ND	1.4	0.9	180.8	ND	ND	0	0
84944	2019-10-07T07:00:00	65.8	ND	ND	ND	ND	2.6	1	246.8	ND	ND	1.8	0
84945	2019-10-07T08:00:00	64.4	ND	ND	ND	ND	5.9	0.7	199	ND	ND	94.8	0
84946	2019-10-07T09:00:00	79	ND	ND	ND	ND	11.6	0.9	136.6	ND	ND	351.8	0
84947	2019-10-07T10:00:00	76.9	ND	ND	ND	ND	23.5	0.7	76.7	ND	ND	577.8	0
84948	2019-10-07T11:00:00	71	ND	ND	ND	ND	38.7	1	114.3	ND	ND	535.2	0
84949	2019-10-07T12:00:00	91.7	ND	ND	ND	ND	51	1.5	162.3	ND	ND	643.7	0
84950	2019-10-07T13:00:00	94	ND	ND	ND	ND	64.1	1.4	157.6	ND	ND	648.7	0
84951	2019-10-07T14:00:00	72.4	ND	ND	ND	ND	ND	1.2	127.4	ND	ND	648.8	0
84952	2019-10-07T15:00:00	6	ND	ND	ND	ND	343.4	1.8	346.2	ND	ND	575.2	0
84953	2019-10-07T16:00:00	123.1	ND	ND	ND	ND	468.5	3.7	329.7	ND	ND	636.5	0
84954	2019-10-07T17:00:00	147.1	ND	ND	ND	ND	36.3	3.4	328.8	ND	ND	649.9	0
84955	2019-10-07T18:00:00	167.9	ND	ND	ND	ND	9.8	3.1	323.7	ND	ND	396.9	0
84956	2019-10-07T19:00:00	145.6	ND	ND	ND	ND	7.4	3	318.7	ND	ND	0	0
84957	2019-10-07T20:00:00	75	ND	ND	ND	ND	10.7	3.5	323.2	ND	ND	0	0
84958	2019-10-07T21:00:00	57.7	ND	ND	ND	ND	6.6	1.5	317.7	ND	ND	0	0
84959	2019-10-07T22:00:00	42.1	ND	ND	ND	ND	13.5	2.2	300.1	ND	ND	0	0
84960	2019-10-07T23:00:00	49	ND	ND	ND	ND	5	1.1	284.3	ND	ND	0	0
84961	2019-10-08T00:00:00	43.4	ND	ND	ND	ND	7.9	0.9	313.8	ND	ND	0	0
84962	2019-10-08T01:00:00	83.2	ND	ND	ND	ND	0.6	0.2	223.7	ND	ND	0	0
84963	2019-10-08T02:00:00	94.6	ND	ND	ND	ND	2	1.2	242.5	ND	ND	0	0
84964	2019-10-08T03:00:00	82.4	ND	ND	ND	ND	3.9	0.8	212.5	ND	ND	0	0
84965	2019-10-08T04:00:00	86.2	ND	ND	ND	ND	1.9	1	101.5	ND	ND	0	0
84966	2019-10-08T05:00:00	79.8	ND	ND	ND	ND	0.7	1.2	96.6	ND	ND	0	0
84967	2019-10-08T06:00:00	73.9	ND	ND	ND	ND	0.6	0.7	82.1	ND	ND	0	0
84968	2019-10-08T07:00:00	73.8	ND	ND	ND	ND	0.8	0.3	146.6	ND	ND	0	0
84969	2019-10-08T08:00:00	107.6	ND	ND	ND	ND	1.7	0.5	237.2	ND	ND	75.5	0
84970	2019-10-08T09:00:00	168.5	ND	ND	ND	ND	4.2	0.9	195.9	ND	ND	330.2	0
84971	2019-10-08T10:00:00	162.8	ND	ND	ND	ND	15	0.7	192.7	ND	ND	630.9	0
84972	2019-10-08T11:00:00	139.4	ND	ND	ND	ND	30.7	0.6	242.5	ND	ND	649.1	0
84973	2019-10-08T12:00:00	139.1	ND	ND	ND	ND	48.5	0.8	167.8	ND	ND	649	0
84974	2019-10-08T13:00:00	150.8	ND	ND	ND	ND	59.9	1.3	155.6	ND	ND	645.2	0
84975	2019-10-08T14:00:00	130.4	ND	ND	ND	ND	73	0.9	167.9	ND	ND	649.4	0
84976	2019-10-08T15:00:00	104.7	ND	ND	ND	ND	35.2	2	20.6	ND	ND	643.6	0
84977	2019-10-08T16:00:00	99.9	ND	ND	ND	ND	14.6	3.2	332.4	ND	ND	343.6	0
84978	2019-10-08T17:00:00	97.8	ND	ND	ND	ND	13.3	3.1	334.4	ND	ND	465.6	0
84979	2019-10-08T18:00:00	107.9	ND	ND	ND	ND	11.2	3.4	328.2	ND	ND	0	0
84980	2019-10-08T19:00:00	190.4	ND	ND	ND	ND	16.1	2.2	269.8	ND	ND	0	0
84981	2019-10-08T20:00:00	79.6	ND	ND	ND	ND	15.1	1.7	1.6	ND	ND	0	0
84982	2019-10-08T21:00:00	63	ND	ND	ND	ND	4.9	0.9	239.6	ND	ND	0	0
84983	2019-10-08T22:00:00	59.2	ND	ND	ND	ND	4.4	0.9	238.3	ND	ND	0	0
84984	2019-10-08T23:00:00	61	ND	ND	ND	ND	4.6	1.3	229.4	ND	ND	0	0
84985	2019-10-09T00:00:00	58.6	ND	ND	ND	ND	2.7	0.8	283	ND	ND	0	0
84986	2019-10-09T01:00:00	38.5	ND	ND	ND	ND	10.5	0.8	295.2	ND	ND	0	0
84987	2019-10-09T02:00:00	29.5	ND	ND	ND	ND	8.8	0.4	326.9	ND	ND	0	0
84988	2019-10-09T03:00:00	48.3	ND	ND	ND	ND	1.6	1	73.1	ND	ND	0	0
84989	2019-10-09T04:00:00	69.6	ND	ND	ND	ND	1	0.8	61.3	ND	ND	0	0
84990	2019-10-09T05:00:00	69.6	ND	ND	ND	ND	0.6	0.3	52.5	ND	ND	0	0
84991	2019-10-09T06:00:00	69.6	ND	ND	ND	ND	0.7	1	58.9	ND	ND	0	0
84992	2019-10-09T07:00:00	80.2	ND	ND	ND	ND	1.1	1.1	31.3	ND	ND	0	0
84993	2019-10-09T08:00:00	147.2	ND	ND	ND	ND	2.9	0.8	74.2	ND	ND	226.5	0
84994	2019-10-09T09:00:00	162.7	ND	ND	ND	ND	10.1	0.5	141.9	ND	ND	642.7	0
84995	2019-10-09T10:00:00	161.2	ND	ND	ND	ND	15.9	1.6	209.5	ND	ND	644.4	0
84996	2019-10-09T11:00:00	171.1	ND	ND	ND	ND	43.8	1.3	168	ND	ND	643	0
84997	2019-10-09T12:00:00	159.3	ND	ND	ND	ND	61.8	1.1	180.4	ND	ND	649.3	0
84998	2019-10-09T13:00:00	128.4	ND	ND	ND	ND	68.8	1.2	206.7	ND	ND	649.7	0
84999	2019-10-09T14:00:00	111.1	ND	ND	ND	ND	81.4	1.1	207.4	ND	ND	649.4	0
85000	2019-10-09T15:00:00	120	ND	ND	ND	ND	95.4	1	98.3	ND	ND	649.6	0
85001	2019-10-09T16:00:00	129.8	ND	ND	ND	ND	63.2	1.2	319.3	ND	ND	468.4	0
85002	2019-10-09T17:00:00	99.6	ND	ND	ND	ND	22.2	3.7	330.7	ND	ND	540.9	0
85003	2019-10-09T18:00:00	91.7	ND	ND	ND	ND	16.5	4	329	ND	ND	465.8	0
85004	2019-10-09T19:00:00	92.1	ND	ND	ND	ND	13.3	3.7	324	ND	ND	0	0
85005	2019-10-09T20:00:00	67.8	ND	ND	ND	ND	15	2	335	ND	ND	0	0
85006	2019-10-09T21:00:00	77.5	ND	ND	ND	ND	5.3	0.1	250.5	ND	ND	0	0
85007	2019-10-09T22:00:00	67.8	ND	ND	ND	ND	18.6	2.3	335.3	ND	ND	0	0
85008	2019-10-09T23:00:00	51.7	ND	ND	ND	ND	4.4	0.8	134.5	ND	ND	0	0
85009	2019-10-10T00:00:00	97.4	ND	ND	ND	ND	1.8	0.9	206.7	ND	ND	0	0
85010	2019-10-10T01:00:00	69.1	ND	ND	ND	ND	5.8	1	212.3	ND	ND	0	0
85011	2019-10-10T02:00:00	70.9	ND	ND	ND	ND	5.1	0.4	238.1	ND	ND	0	0
85012	2019-10-10T03:00:00	68	ND	ND	ND	ND	2.5	0.8	131.2	ND	ND	0	0
85013	2019-10-10T04:00:00	71.7	ND	ND	ND	ND	2.6	0.3	98.4	ND	ND	0	0
85014	2019-10-10T05:00:00	71.5	ND	ND	ND	ND	2.9	0.3	260	ND	ND	0	0
85015	2019-10-10T06:00:00	82	ND	ND	ND	ND	0.7	0.8	98.9	ND	ND	0	0
85016	2019-10-10T07:00:00	127	ND	ND	ND	ND	0.7	0.9	184.3	ND	ND	0	0
85017	2019-10-10T08:00:00	141.1	ND	ND	ND	ND	2.4	0.5	132.6	ND	ND	63.1	0
85018	2019-10-10T09:00:00	158	ND	ND	ND	ND	9	0.9	203.9	ND	ND	589	0
85019	2019-10-10T10:00:00	152.4	ND	ND	ND	ND	20.1	0.5	121.5	ND	ND	649.2	0
85020	2019-10-10T11:00:00	162.1	ND	ND	ND	ND	19.4	1.7	116.6	ND	ND	633.1	0
85021	2019-10-10T12:00:00	154	ND	ND	ND	ND	49.6	1.3	95	ND	ND	648.8	0
85022	2019-10-10T13:00:00	123.9	ND	ND	ND	ND	64.8	1.3	117.8	ND	ND	649.4	0
85023	2019-10-10T14:00:00	92.2	ND	ND	ND	ND	72	1.1	118.7	ND	ND	647.8	0
85024	2019-10-10T15:00:00	90.2	ND	ND	ND	ND	55.3	1.9	127.3	ND	ND	649.7	0
85025	2019-10-10T16:00:00	108.1	ND	ND	ND	ND	35	1.3	131.3	ND	ND	565.3	0
85026	2019-10-10T17:00:00	109.2	ND	ND	ND	ND	18.3	2.8	331	ND	ND	219	0
85027	2019-10-10T18:00:00	141.7	ND	ND	ND	ND	14.7	3.3	324.2	ND	ND	0	0
85028	2019-10-10T19:00:00	106.7	ND	ND	ND	ND	13.8	3.6	324.4	ND	ND	0	0
85029	2019-10-10T20:00:00	107.8	ND	ND	ND	ND	15.1	4.1	321.6	ND	ND	0	0
85030	2019-10-10T21:00:00	56.3	ND	ND	ND	ND	16	2.2	304.6	ND	ND	0	0
85031	2019-10-10T22:00:00	58.1	ND	ND	ND	ND	12.3	1.6	34.8	ND	ND	0	0.25
85032	2019-10-10T23:00:00	49.4	ND	ND	ND	ND	6.6	0	353.3	ND	ND	0	0
85033	2019-10-11T00:00:00	45.8	ND	ND	ND	ND	7.4	0.2	143.5	ND	ND	0	0.25
85034	2019-10-11T01:00:00	59	ND	ND	ND	ND	7.2	0.6	112.2	ND	ND	0	0
85035	2019-10-11T02:00:00	60.3	ND	ND	ND	ND	6.9	0.8	164.3	ND	ND	0	0
85036	2019-10-11T03:00:00	57.1	ND	ND	ND	ND	8.6	1	136	ND	ND	0	0
85037	2019-10-11T04:00:00	45.1	ND	ND	ND	ND	12.9	1	194.8	ND	ND	0	0
85038	2019-10-11T05:00:00	45.5	ND	ND	ND	ND	7.5	0.9	194.4	ND	ND	0	0
85039	2019-10-11T06:00:00	45.8	ND	ND	ND	ND	4.1	1	157.7	ND	ND	0	0
85040	2019-10-11T07:00:00	43.9	ND	ND	ND	ND	5.1	0.7	171	ND	ND	11.6	0
85041	2019-10-11T08:00:00	67.9	ND	ND	ND	ND	13	0.5	234.6	ND	ND	247.1	0
85042	2019-10-11T09:00:00	87.5	ND	ND	ND	ND	15.4	0.9	180.3	ND	ND	537.3	0
85043	2019-10-11T10:00:00	116.5	ND	ND	ND	ND	24.6	1.2	135.5	ND	ND	557.8	0
85044	2019-10-11T11:00:00	127.2	ND	ND	ND	ND	48.7	1.5	130.3	ND	ND	630.7	0
85045	2019-10-11T12:00:00	133.1	ND	ND	ND	ND	51.2	1.8	130.3	ND	ND	649.3	0
85046	2019-10-11T13:00:00	105.1	ND	ND	ND	ND	58.2	2	123.3	ND	ND	649.6	0
85047	2019-10-11T14:00:00	84.5	ND	ND	ND	ND	60.5	1.6	132.3	ND	ND	649.6	0
85048	2019-10-11T15:00:00	110.1	ND	ND	ND	ND	51.5	1.9	124.4	ND	ND	650	0
85049	2019-10-11T16:00:00	95.4	ND	ND	ND	ND	24.1	2.2	4.8	ND	ND	524	0
85050	2019-10-11T17:00:00	72.4	ND	ND	ND	ND	16	2.2	356.3	ND	ND	365.5	0
85051	2019-10-11T18:00:00	43.8	ND	ND	ND	ND	12.4	2.5	334.1	ND	ND	218.1	0
85052	2019-10-11T19:00:00	69	ND	ND	ND	ND	11.6	3.7	324.7	ND	ND	0	0
85053	2019-10-11T20:00:00	47.8	ND	ND	ND	ND	12.2	2.2	333.3	ND	ND	0	0
85054	2019-10-11T21:00:00	27.3	ND	ND	ND	ND	13.7	2.2	319.4	ND	ND	0	0
85055	2019-10-11T22:00:00	34.9	ND	ND	ND	ND	9	1.9	268.2	ND	ND	0	0
85056	2019-10-11T23:00:00	60.3	ND	ND	ND	ND	5.8	1.6	243.2	ND	ND	0	0
85057	2019-10-12T00:00:00	81.3	ND	ND	ND	ND	1.3	0.6	161.7	ND	ND	0	0
85058	2019-10-12T01:00:00	81.8	ND	ND	ND	ND	3	1	196.5	ND	ND	0	0
85059	2019-10-12T02:00:00	61.7	ND	ND	ND	ND	11.7	1	137.7	ND	ND	0	0
85060	2019-10-12T03:00:00	44.8	ND	ND	ND	ND	8.6	0.7	199.6	ND	ND	0	0
85061	2019-10-12T04:00:00	36.3	ND	ND	ND	ND	7.9	0.9	216.6	ND	ND	0	0
85062	2019-10-12T05:00:00	31.7	ND	ND	ND	ND	5.6	0.6	212.1	ND	ND	0	0
85063	2019-10-12T06:00:00	31.7	ND	ND	ND	ND	1	0.6	194.4	ND	ND	0	0
85064	2019-10-12T07:00:00	31.7	ND	ND	ND	ND	0.9	0.4	126.8	ND	ND	0	0
85065	2019-10-12T08:00:00	37.6	ND	ND	ND	ND	4.8	1.4	230.3	ND	ND	37.9	0
85066	2019-10-12T09:00:00	95.7	ND	ND	ND	ND	14.1	1.2	198.6	ND	ND	413.5	0
85067	2019-10-12T10:00:00	107.7	ND	ND	ND	ND	25.4	1.2	209.7	ND	ND	638.2	0
85068	2019-10-12T11:00:00	108.2	ND	ND	ND	ND	43	0.9	161.2	ND	ND	648.9	0
85069	2019-10-12T12:00:00	113.6	ND	ND	ND	ND	69.2	1.2	99.4	ND	ND	622	0
85070	2019-10-12T13:00:00	102.4	ND	ND	ND	ND	80.8	1.2	90.6	ND	ND	646.8	0
85071	2019-10-12T14:00:00	95.5	ND	ND	ND	ND	65	1.8	134.6	ND	ND	646.8	0
85072	2019-10-12T15:00:00	93.2	ND	ND	ND	ND	77	1.1	81	ND	ND	650.1	0
85073	2019-10-12T16:00:00	85.7	ND	ND	ND	ND	44.4	3.7	330.8	ND	ND	518.2	0
85074	2019-10-12T17:00:00	114.1	ND	ND	ND	ND	30.1	4.7	328	ND	ND	644.8	0
85075	2019-10-12T18:00:00	87.3	ND	ND	ND	ND	18.8	4	328.5	ND	ND	288.6	0
85076	2019-10-12T19:00:00	47.1	ND	ND	ND	ND	12.9	2.8	324.6	ND	ND	0	0
85077	2019-10-12T20:00:00	37.3	ND	ND	ND	ND	16.3	2.2	272.6	ND	ND	0	0.25
85078	2019-10-12T21:00:00	32.1	ND	ND	ND	ND	15.4	2.5	300.1	ND	ND	0	0.25
85079	2019-10-12T22:00:00	24.9	ND	ND	ND	ND	15.4	0.7	304.6	ND	ND	0	3.05
85080	2019-10-12T23:00:00	18.4	ND	ND	ND	ND	2.9	0.4	44.1	ND	ND	0	4.06
85081	2019-10-13T00:00:00	18.5	ND	ND	ND	ND	2.1	0.8	64.7	ND	ND	0	0.25
85082	2019-10-13T01:00:00	18.5	ND	ND	ND	ND	6	1	98.9	ND	ND	0	0
85083	2019-10-13T02:00:00	18.5	ND	ND	ND	ND	10.7	0.9	179.4	ND	ND	0	0
85084	2019-10-13T03:00:00	18.5	ND	ND	ND	ND	8.1	1	137.5	ND	ND	0	0.76
85085	2019-10-13T04:00:00	18.5	ND	ND	ND	ND	7	2	79.4	ND	ND	0	3.56
85086	2019-10-13T05:00:00	18.5	ND	ND	ND	ND	3.4	0.9	42.9	ND	ND	0	38.35
85087	2019-10-13T06:00:00	18.5	ND	ND	ND	ND	1.7	1	93.8	ND	ND	0	4.57
85088	2019-10-13T07:00:00	18.5	ND	ND	ND	ND	1.4	0.7	57.8	ND	ND	0	0.25
85089	2019-10-13T08:00:00	18.5	ND	ND	ND	ND	3.1	0.2	167.7	ND	ND	40	0
85090	2019-10-13T09:00:00	20	ND	ND	ND	ND	13.3	0.5	200.7	ND	ND	285.9	0
85091	2019-10-13T10:00:00	58.7	ND	ND	ND	ND	20	0.9	189.1	ND	ND	629.7	0
85092	2019-10-13T11:00:00	65	ND	ND	ND	ND	31.6	0.5	248.5	ND	ND	604.8	0
85093	2019-10-13T12:00:00	52.4	ND	ND	ND	ND	46.4	1.3	188.6	ND	ND	648.7	0
85094	2019-10-13T13:00:00	51.1	ND	ND	ND	ND	49.5	1.5	138.8	ND	ND	643.3	0
85095	2019-10-13T14:00:00	60.4	ND	ND	ND	ND	66.4	1.1	103.2	ND	ND	645.3	0
85096	2019-10-13T15:00:00	55.5	ND	ND	ND	ND	73.9	1.2	110.2	ND	ND	649.3	0
85097	2019-10-13T16:00:00	62.8	ND	ND	ND	ND	57.3	0.3	125.6	ND	ND	635.1	0
85098	2019-10-13T17:00:00	42.2	ND	ND	ND	ND	25.2	3.3	323.3	ND	ND	417.2	0
85099	2019-10-13T18:00:00	34.9	ND	ND	ND	ND	22.1	4	314	ND	ND	191.6	0
85100	2019-10-13T19:00:00	29.7	ND	ND	ND	ND	21.3	4.7	321.7	ND	ND	0	0
85101	2019-10-13T20:00:00	27.8	ND	ND	ND	ND	20.4	4	319.9	ND	ND	0	0
85102	2019-10-13T21:00:00	21.2	ND	ND	ND	ND	10.2	1.2	351.2	ND	ND	0	0
85103	2019-10-13T22:00:00	53.1	ND	ND	ND	ND	2.1	1.2	121	ND	ND	0	0
85104	2019-10-13T23:00:00	69.4	ND	ND	ND	ND	0.8	0.6	203.9	ND	ND	0	0
85105	2019-10-14T00:00:00	63.5	ND	ND	ND	ND	0.7	0.5	146.5	ND	ND	0	0
85106	2019-10-14T01:00:00	64.3	ND	ND	ND	ND	0.7	0.8	156.2	ND	ND	0	0
85107	2019-10-14T02:00:00	59.9	ND	ND	ND	ND	1.4	0.7	160.9	ND	ND	0	0
85108	2019-10-14T03:00:00	55.7	ND	ND	ND	ND	2	0.8	124.3	ND	ND	0	0
85109	2019-10-14T04:00:00	61.1	ND	ND	ND	ND	3	1	200.8	ND	ND	0	0
85110	2019-10-14T05:00:00	61.6	ND	ND	ND	ND	4.2	0.7	208.3	ND	ND	0	0
85111	2019-10-14T06:00:00	61.6	ND	ND	ND	ND	3.3	0.3	205.7	ND	ND	0	0
85112	2019-10-14T07:00:00	65.4	ND	ND	ND	ND	2.8	0.7	222.6	ND	ND	1	0
85113	2019-10-14T08:00:00	90.5	ND	ND	ND	ND	6.1	1	201.8	ND	ND	155.1	0
85114	2019-10-14T09:00:00	98.6	ND	ND	ND	ND	13.3	0.9	187.1	ND	ND	518	0
85115	2019-10-14T10:00:00	91.9	ND	ND	ND	ND	26.5	1	177.4	ND	ND	648.8	0
85116	2019-10-14T11:00:00	80	ND	ND	ND	ND	36.8	1.5	121.8	ND	ND	648.8	0
85117	2019-10-14T12:00:00	89.8	ND	ND	ND	ND	49.4	1.5	130.7	ND	ND	642.7	0
85118	2019-10-14T13:00:00	89.3	ND	ND	ND	ND	59.8	1.8	102.5	ND	ND	649.8	0
85119	2019-10-14T14:00:00	73.4	ND	ND	ND	ND	58.2	1.5	76.1	ND	ND	649.6	0
85120	2019-10-14T15:00:00	56.1	ND	ND	ND	ND	36.9	1.2	356.4	ND	ND	649.8	0
85121	2019-10-14T16:00:00	35.1	ND	ND	ND	ND	26.9	3.7	326.2	ND	ND	553.4	0
85122	2019-10-14T17:00:00	21.3	ND	ND	ND	ND	25.2	3.6	331.7	ND	ND	569.4	0
85123	2019-10-14T18:00:00	16.6	ND	ND	ND	ND	20.1	2.8	328.5	ND	ND	358.5	0
85124	2019-10-14T19:00:00	15.6	ND	ND	ND	ND	17.2	3.4	318.5	ND	ND	0	0
85125	2019-10-14T20:00:00	23.8	ND	ND	ND	ND	16	2.8	327.1	ND	ND	0	0
85126	2019-10-14T21:00:00	26.9	ND	ND	ND	ND	11.4	1	345.3	ND	ND	0	0
85127	2019-10-14T22:00:00	61.3	ND	ND	ND	ND	8.7	0.7	350	ND	ND	0	0
85128	2019-10-14T23:00:00	59.5	ND	ND	ND	ND	5	0.7	240.3	ND	ND	0	0
85129	2019-10-15T00:00:00	46.2	ND	ND	ND	ND	2.8	0.4	283.5	ND	ND	0	0
85130	2019-10-15T01:00:00	49.8	ND	ND	ND	ND	0.6	0.7	119.1	ND	ND	0	0
85131	2019-10-15T02:00:00	53.5	ND	ND	ND	ND	0.7	0.4	172	ND	ND	0	0
85132	2019-10-15T03:00:00	52.9	ND	ND	ND	ND	1.6	0.4	193.3	ND	ND	0	0
85133	2019-10-15T04:00:00	45.3	ND	ND	ND	ND	1.4	0.6	186	ND	ND	0	0
85134	2019-10-15T05:00:00	46.1	ND	ND	ND	ND	0.7	0.7	154.3	ND	ND	0	0
85135	2019-10-15T06:00:00	46.1	ND	ND	ND	ND	0.5	0.6	132.4	ND	ND	0	0
85136	2019-10-15T07:00:00	46.3	ND	ND	ND	ND	0.9	0.8	205.7	ND	ND	2.1	0
85137	2019-10-15T08:00:00	112.9	ND	ND	ND	ND	2.3	0.7	183.7	ND	ND	162.1	0
85138	2019-10-15T09:00:00	153	ND	ND	ND	ND	10.4	1.2	192.5	ND	ND	492.4	0
85139	2019-10-15T10:00:00	129.6	ND	ND	ND	ND	11.7	2.1	212.9	ND	ND	648.9	0
85140	2019-10-15T11:00:00	99.1	ND	ND	ND	ND	28.7	1.6	185	ND	ND	649	0
85141	2019-10-15T12:00:00	99.5	ND	ND	ND	ND	47.2	1.4	181	ND	ND	647.6	0
85142	2019-10-15T13:00:00	94.6	ND	ND	ND	ND	71.6	0.8	77.8	ND	ND	649.3	0
85143	2019-10-15T14:00:00	101.4	ND	ND	ND	ND	45.1	1.9	352.7	ND	ND	645.3	0
85144	2019-10-15T15:00:00	148.4	ND	ND	ND	ND	18.9	5.4	338.6	ND	ND	568.6	0
85145	2019-10-15T16:00:00	142.9	ND	ND	ND	ND	19.4	4.7	341.3	ND	ND	503.2	0
85146	2019-10-15T17:00:00	59.2	ND	ND	ND	ND	18	3.6	336.8	ND	ND	480.6	0
85147	2019-10-15T18:00:00	46	ND	ND	ND	ND	14.5	3.3	312.6	ND	ND	202.9	0
85148	2019-10-15T19:00:00	53.3	ND	ND	ND	ND	5	1.4	214.5	ND	ND	0	0
85149	2019-10-15T20:00:00	64.2	ND	ND	ND	ND	6	0.9	236	ND	ND	0	0
85150	2019-10-15T21:00:00	77.5	ND	ND	ND	ND	0.6	1	224.7	ND	ND	0	0
85151	2019-10-15T22:00:00	94.8	ND	ND	ND	ND	0.6	1.1	34.8	ND	ND	0	0
85152	2019-10-15T23:00:00	100.9	ND	ND	ND	ND	1.9	1.5	97	ND	ND	0	0
85153	2019-10-16T00:00:00	88.6	ND	ND	ND	ND	4.9	0.9	128.5	ND	ND	0	0
85154	2019-10-16T01:00:00	74.7	ND	ND	ND	ND	8.4	0.9	112.5	ND	ND	0	0
85155	2019-10-16T02:00:00	63.6	ND	ND	ND	ND	2.9	1.1	119.1	ND	ND	0	0
85156	2019-10-16T03:00:00	65.7	ND	ND	ND	ND	5.9	1	113.2	ND	ND	0	0
85157	2019-10-16T04:00:00	65.7	ND	ND	ND	ND	6.4	1.1	110.5	ND	ND	0	0
85158	2019-10-16T05:00:00	65.7	ND	ND	ND	ND	4.3	0.5	115.9	ND	ND	0	0
85159	2019-10-16T06:00:00	65.7	ND	ND	ND	ND	1.5	0.9	209.5	ND	ND	0	0
85160	2019-10-16T07:00:00	65.7	ND	ND	ND	ND	1.7	0.7	223.8	ND	ND	0	0
85161	2019-10-16T08:00:00	83.3	ND	ND	ND	ND	3.8	0.9	191.6	ND	ND	171.8	0
85162	2019-10-16T09:00:00	124.4	ND	ND	ND	ND	10.8	1.1	173	ND	ND	451.2	0
85163	2019-10-16T10:00:00	120.2	ND	ND	ND	ND	24.2	1	193	ND	ND	645.7	0
85164	2019-10-16T11:00:00	125.2	ND	ND	ND	ND	36.9	1.1	175.8	ND	ND	648.9	0
85165	2019-10-16T12:00:00	137.5	ND	ND	ND	ND	44.3	1.3	138	ND	ND	649.1	0
85166	2019-10-16T13:00:00	137.8	ND	ND	ND	ND	66.1	1.3	94.1	ND	ND	649.5	0
85167	2019-10-16T14:00:00	124.3	ND	ND	ND	ND	73.4	1.1	105.2	ND	ND	649.2	0
85168	2019-10-16T15:00:00	100.8	ND	ND	ND	ND	30.9	1.9	2.3	ND	ND	572.1	0
85169	2019-10-16T16:00:00	82.9	ND	ND	ND	ND	13.7	2.6	332.3	ND	ND	548.4	0
85170	2019-10-16T17:00:00	78.7	ND	ND	ND	ND	14.5	2.3	266.9	ND	ND	0	53.09
85171	2019-10-16T18:00:00	ND	ND	ND	ND	ND	1.4	0.8	107	ND	ND	0	0.25
85172	2019-10-16T19:00:00	ND	ND	ND	ND	ND	0.6	0.9	60.1	ND	ND	0	0.25
85173	2019-10-16T20:00:00	ND	ND	ND	ND	ND	0.5	1.3	234.5	ND	ND	0	0
85174	2019-10-16T21:00:00	ND	ND	ND	ND	ND	0.6	1.2	203	ND	ND	0	0
85175	2019-10-16T22:00:00	ND	ND	ND	ND	ND	0.5	0.8	213.3	ND	ND	0	0
85176	2019-10-16T23:00:00	ND	ND	ND	ND	ND	0.6	0.5	310.7	ND	ND	0	0
85177	2019-10-17T00:00:00	ND	ND	ND	ND	ND	1.3	0.9	308.3	ND	ND	0	0
85178	2019-10-17T01:00:00	ND	ND	ND	ND	ND	1.2	0.4	289.1	ND	ND	0	0
85179	2019-10-17T02:00:00	ND	ND	ND	ND	ND	1.2	0.4	31.1	ND	ND	0	0
85180	2019-10-17T03:00:00	ND	ND	ND	ND	ND	0.5	0.4	152.2	ND	ND	0	0
85181	2019-10-17T04:00:00	ND	ND	ND	ND	ND	2.3	1	314.3	ND	ND	0	0
85182	2019-10-17T05:00:00	ND	ND	ND	ND	ND	1.9	0.2	350.8	ND	ND	0	0
85183	2019-10-17T06:00:00	ND	ND	ND	ND	ND	0.7	0.8	115.1	ND	ND	0	0
85184	2019-10-17T07:00:00	ND	ND	ND	ND	ND	0.7	0.3	151.1	ND	ND	0	0
85185	2019-10-17T08:00:00	ND	ND	ND	ND	ND	0.9	0.4	94.3	ND	ND	50.1	0
85186	2019-10-17T09:00:00	ND	ND	ND	ND	ND	15	1.3	67.4	ND	ND	232.1	0
85187	2019-10-17T10:00:00	ND	ND	ND	ND	ND	ND	0.9	123.2	ND	ND	554.8	0
85188	2019-10-17T11:00:00	ND	ND	ND	ND	ND	ND	0.4	118.3	ND	ND	647.9	0
85189	2019-10-17T12:00:00	ND	ND	ND	ND	ND	53.2	1.1	110	ND	ND	611.3	0
85190	2019-10-17T13:00:00	ND	ND	ND	ND	ND	ND	1.4	142.6	ND	ND	634.4	0
85191	2019-10-17T14:00:00	ND	ND	ND	ND	ND	74.3	1.3	139.1	ND	ND	643.4	0
85192	2019-10-17T15:00:00	ND	ND	ND	ND	ND	75.2	1.2	83.4	ND	ND	626.3	0
85193	2019-10-17T16:00:00	ND	ND	ND	ND	ND	30.7	3	341.5	ND	ND	552.7	0
85194	2019-10-17T17:00:00	ND	ND	ND	ND	ND	18.8	3.3	342.7	ND	ND	543.4	0
85195	2019-10-17T18:00:00	ND	ND	ND	ND	ND	10.2	3.8	327.5	ND	ND	316.6	0
85196	2019-10-17T19:00:00	ND	ND	ND	ND	ND	12.6	4.9	325.2	ND	ND	0	0
85197	2019-10-17T20:00:00	ND	ND	ND	ND	ND	10.1	2.8	321.7	ND	ND	0	0
85198	2019-10-17T21:00:00	ND	ND	ND	ND	ND	14.2	1.9	256	ND	ND	0	0
85199	2019-10-17T22:00:00	ND	ND	ND	ND	ND	9.6	1.8	304.5	ND	ND	0	0
85200	2019-10-17T23:00:00	ND	ND	ND	ND	ND	4.1	0.9	233.8	ND	ND	0	0
85201	2019-10-18T00:00:00	ND	ND	ND	ND	ND	3.4	1	164.7	ND	ND	0	3.56
85202	2019-10-18T01:00:00	ND	ND	ND	ND	ND	5.5	0.2	128.9	ND	ND	0	0
85203	2019-10-18T02:00:00	ND	ND	ND	ND	ND	1	1.4	72	ND	ND	0	0
85204	2019-10-18T03:00:00	ND	ND	ND	ND	ND	1.9	0.6	84.3	ND	ND	0	6.86
85205	2019-10-18T04:00:00	ND	ND	ND	ND	ND	2.6	0.5	216.3	ND	ND	0	2.03
85206	2019-10-18T05:00:00	ND	ND	ND	ND	ND	5.3	1.6	226.7	ND	ND	0	1.52
85207	2019-10-18T06:00:00	ND	ND	ND	ND	ND	7.3	1.7	241.2	ND	ND	0	1.27
85208	2019-10-18T07:00:00	ND	ND	ND	ND	ND	3.1	1.4	209.6	ND	ND	0	0
85209	2019-10-18T08:00:00	ND	ND	ND	ND	ND	3.7	1.2	194.9	ND	ND	27.7	0
85210	2019-10-18T09:00:00	ND	ND	ND	ND	ND	14.3	0.4	269.4	ND	ND	182.3	0
85211	2019-10-18T10:00:00	ND	ND	ND	ND	ND	22	0.9	95.5	ND	ND	587.5	0
85212	2019-10-18T11:00:00	ND	ND	ND	ND	ND	39.3	1.2	131.8	ND	ND	649.3	0
85213	2019-10-18T12:00:00	ND	ND	ND	ND	ND	54.8	1.7	146.5	ND	ND	649.6	0
85214	2019-10-18T13:00:00	ND	ND	ND	ND	ND	69	1.2	100.1	ND	ND	649.2	0
85215	2019-10-18T14:00:00	ND	ND	ND	ND	ND	77.9	1.3	123.7	ND	ND	647.8	0
85216	2019-10-18T15:00:00	ND	ND	ND	ND	ND	70.5	0.9	104.5	ND	ND	631.5	0
85217	2019-10-18T16:00:00	ND	ND	ND	ND	ND	17.2	3.1	329.6	ND	ND	577.4	0.76
85218	2019-10-18T17:00:00	ND	ND	ND	ND	ND	14.4	3.4	334	ND	ND	353.6	0
85219	2019-10-18T18:00:00	ND	ND	ND	ND	ND	10.2	2.3	347	ND	ND	234.2	0
85220	2019-10-18T19:00:00	ND	ND	ND	ND	ND	9.3	3.2	314	ND	ND	0	0
85221	2019-10-18T20:00:00	ND	ND	ND	ND	ND	4.3	1.9	205.9	ND	ND	0	0
85222	2019-10-18T21:00:00	ND	ND	ND	ND	ND	4.4	1.6	191.7	ND	ND	0	0
85223	2019-10-18T22:00:00	ND	ND	ND	ND	ND	7.2	1.6	217.2	ND	ND	0	0
85224	2019-10-18T23:00:00	ND	ND	ND	ND	ND	14.2	1.7	254.9	ND	ND	0	12.95
85225	2019-10-19T00:00:00	ND	ND	ND	ND	ND	4.1	1.1	223.3	ND	ND	0	18.54
85226	2019-10-19T01:00:00	ND	ND	ND	ND	ND	3.9	0.7	189.5	ND	ND	0	6.86
85227	2019-10-19T02:00:00	ND	ND	ND	ND	ND	11.7	0.9	104.3	ND	ND	0	10.67
85228	2019-10-19T03:00:00	ND	ND	ND	ND	ND	10.5	1	113.2	ND	ND	0	7.37
85229	2019-10-19T04:00:00	ND	ND	ND	ND	ND	5.9	0.7	82.5	ND	ND	0	0.25
85230	2019-10-19T05:00:00	ND	ND	ND	ND	ND	2.5	0.6	109.1	ND	ND	0	0
85231	2019-10-19T06:00:00	ND	ND	ND	ND	ND	0.9	0.8	122.1	ND	ND	0	0
85232	2019-10-19T07:00:00	ND	ND	ND	ND	ND	1.8	1	108.9	ND	ND	0	0.76
85233	2019-10-19T08:00:00	ND	ND	ND	ND	ND	4.9	0.6	68.3	ND	ND	33.6	0
85234	2019-10-19T09:00:00	ND	ND	ND	ND	ND	14	0.6	144.7	ND	ND	373.9	0
85235	2019-10-19T10:00:00	ND	ND	ND	ND	ND	30.6	1.2	155.8	ND	ND	576.3	0
85236	2019-10-19T11:00:00	ND	ND	ND	ND	ND	48.7	1.4	157.1	ND	ND	642.9	0
85237	2019-10-19T12:00:00	ND	ND	ND	ND	ND	50.9	1.1	166.9	ND	ND	649.2	0
85238	2019-10-19T13:00:00	ND	ND	ND	ND	ND	52.6	1	124.1	ND	ND	649.5	0
85239	2019-10-19T14:00:00	ND	ND	ND	ND	ND	67.3	1.4	50.3	ND	ND	639.4	0
85240	2019-10-19T15:00:00	ND	ND	ND	ND	ND	38.8	3	356.7	ND	ND	625.6	0
85241	2019-10-19T16:00:00	ND	ND	ND	ND	ND	27.3	2.6	345.5	ND	ND	635	0
85242	2019-10-19T17:00:00	ND	ND	ND	ND	ND	16.1	2.2	341.7	ND	ND	461.5	0
85243	2019-10-19T18:00:00	ND	ND	ND	ND	ND	12.1	2.2	320.3	ND	ND	0	0
85244	2019-10-19T19:00:00	ND	ND	ND	ND	ND	13.7	2.5	235.5	ND	ND	0	0
85245	2019-10-19T20:00:00	ND	ND	ND	ND	ND	9.4	2	212.1	ND	ND	0	0
85246	2019-10-19T21:00:00	ND	ND	ND	ND	ND	13.5	2.1	214.7	ND	ND	0	0
85247	2019-10-19T22:00:00	ND	ND	ND	ND	ND	7.5	1.4	197.2	ND	ND	0	2.54
85248	2019-10-19T23:00:00	ND	ND	ND	ND	ND	0.9	0.7	213.2	ND	ND	0	3.3
85249	2019-10-20T00:00:00	ND	ND	ND	ND	ND	1.9	0.5	226.4	ND	ND	0	3.3
85250	2019-10-20T01:00:00	ND	ND	ND	ND	ND	0.6	0.3	136.6	ND	ND	0	0
85251	2019-10-20T02:00:00	ND	ND	ND	ND	ND	3.2	0.7	151.2	ND	ND	0	0
85252	2019-10-20T03:00:00	ND	ND	ND	ND	ND	4.1	0.8	180.7	ND	ND	0	0
85253	2019-10-20T04:00:00	ND	ND	ND	ND	ND	4	0.5	187	ND	ND	0	0.25
85254	2019-10-20T05:00:00	ND	ND	ND	ND	ND	3.9	0.6	189.4	ND	ND	0	0
85255	2019-10-20T06:00:00	ND	ND	ND	ND	ND	2.4	0.9	158.8	ND	ND	0	0
85256	2019-10-20T07:00:00	ND	ND	ND	ND	ND	2.6	0.8	195.9	ND	ND	0	0.25
85257	2019-10-20T08:00:00	ND	ND	ND	ND	ND	5.6	0.9	237.4	ND	ND	21.8	0.76
85258	2019-10-20T09:00:00	ND	ND	ND	ND	ND	15.5	0.6	228.9	ND	ND	254.6	0
85259	2019-10-20T10:00:00	ND	ND	ND	ND	ND	25.9	0.8	241.4	ND	ND	503.4	0
85260	2019-10-20T11:00:00	ND	ND	ND	ND	ND	41.2	1.3	169.9	ND	ND	642.5	0
85261	2019-10-20T12:00:00	ND	ND	ND	ND	ND	48.6	1.1	190.8	ND	ND	649.2	0
85262	2019-10-20T13:00:00	ND	ND	ND	ND	ND	47	1.3	160.9	ND	ND	649.4	0
85263	2019-10-20T14:00:00	ND	ND	ND	ND	ND	61.2	0.5	167.7	ND	ND	649.8	0
85264	2019-10-20T15:00:00	ND	ND	ND	ND	ND	52.8	1.2	197.1	ND	ND	649.7	0
85265	2019-10-20T16:00:00	ND	ND	ND	ND	ND	45.3	0.7	224.5	ND	ND	609.1	0
85266	2019-10-20T17:00:00	ND	ND	ND	ND	ND	40.4	1.6	201.4	ND	ND	315.5	0
85267	2019-10-20T18:00:00	ND	ND	ND	ND	ND	22.9	1.7	311	ND	ND	147.6	0
85268	2019-10-20T19:00:00	ND	ND	ND	ND	ND	12.4	1.6	312.7	ND	ND	0	0
85269	2019-10-20T20:00:00	ND	ND	ND	ND	ND	10.5	1.3	324.4	ND	ND	0	0
85270	2019-10-20T21:00:00	ND	ND	ND	ND	ND	2.2	0.7	92.9	ND	ND	0	0
85271	2019-10-20T22:00:00	ND	ND	ND	ND	ND	1.4	0.4	197.2	ND	ND	0	0
85272	2019-10-20T23:00:00	ND	ND	ND	ND	ND	1.9	0.7	302.6	ND	ND	0	0
85273	2019-10-21T00:00:00	ND	ND	ND	ND	ND	0.7	0.4	114.5	ND	ND	0	0
85274	2019-10-21T01:00:00	ND	ND	ND	ND	ND	0.5	0.6	140.6	ND	ND	0	0
85275	2019-10-21T02:00:00	ND	ND	ND	ND	ND	0.5	0.8	208.6	ND	ND	0	0
85276	2019-10-21T03:00:00	ND	ND	ND	ND	ND	3	0.5	197.7	ND	ND	0	0
85277	2019-10-21T04:00:00	ND	ND	ND	ND	ND	3.8	0.2	159.8	ND	ND	0	0
85278	2019-10-21T05:00:00	ND	ND	ND	ND	ND	0.9	0.6	67.5	ND	ND	0	0
85279	2019-10-21T06:00:00	ND	ND	ND	ND	ND	0.6	0.6	104.8	ND	ND	0	0
85280	2019-10-21T07:00:00	ND	ND	ND	ND	ND	0.9	0.8	105.2	ND	ND	0	0
85281	2019-10-21T08:00:00	ND	ND	ND	ND	ND	1.4	1.1	137.3	ND	ND	66.4	0
85282	2019-10-21T09:00:00	ND	ND	ND	ND	ND	9.9	0.8	146.5	ND	ND	321.5	0
85283	2019-10-21T10:00:00	ND	ND	ND	ND	ND	19.8	1.2	155.7	ND	ND	622.7	0
85284	2019-10-21T11:00:00	ND	ND	ND	ND	ND	20.9	1	58.4	ND	ND	632.3	0
85285	2019-10-21T12:00:00	ND	ND	ND	ND	ND	17.8	1.4	98.9	ND	ND	537	0
85286	2019-10-21T13:00:00	ND	ND	ND	ND	ND	21.5	3.5	324.6	ND	ND	618.2	0
85287	2019-10-21T14:00:00	ND	ND	ND	ND	ND	21	3.6	341.2	ND	ND	649.8	0
85288	2019-10-21T15:00:00	ND	ND	ND	ND	ND	21.2	3.9	331.2	ND	ND	649.7	0
85289	2019-10-21T16:00:00	ND	ND	ND	ND	ND	20.9	3.4	329	ND	ND	649.5	0
85290	2019-10-21T17:00:00	ND	ND	ND	ND	ND	19.8	3.6	343.5	ND	ND	480	0
85291	2019-10-21T18:00:00	ND	ND	ND	ND	ND	15.6	1.9	308.6	ND	ND	223.8	0
85292	2019-10-21T19:00:00	ND	ND	ND	ND	ND	5.3	2.2	247.3	ND	ND	0	0
85293	2019-10-21T20:00:00	ND	ND	ND	ND	ND	ND	ND	ND	ND	ND	0	ND
85294	2019-10-21T21:00:00	ND	ND	ND	ND	ND	ND	ND	ND	ND	ND	ND	ND
85295	2019-10-21T22:00:00	ND	ND	ND	ND	ND	3.2	1.1	278.1	ND	ND	0	0
85296	2019-10-21T23:00:00	ND	ND	ND	ND	ND	6.2	1.2	314.4	ND	ND	0	0
85297	2019-10-22T00:00:00	ND	ND	ND	ND	ND	2.7	1	98.6	ND	ND	0	0
85298	2019-10-22T01:00:00	ND	ND	ND	ND	ND	4.8	1	39.6	ND	ND	0	0
85299	2019-10-22T02:00:00	ND	ND	ND	ND	ND	1.2	0.8	228	ND	ND	0	0
85300	2019-10-22T03:00:00	ND	ND	ND	ND	ND	11.6	1.4	313.7	ND	ND	0	0
85301	2019-10-22T04:00:00	ND	ND	ND	ND	ND	5.2	0.5	63.1	ND	ND	0	0
85302	2019-10-22T05:00:00	ND	ND	ND	ND	ND	0.8	0.8	100.4	ND	ND	0	0
85303	2019-10-22T06:00:00	ND	ND	ND	ND	ND	0.6	0.4	111.1	ND	ND	0	0
85304	2019-10-22T07:00:00	ND	ND	ND	ND	ND	ND	0.7	213.6	ND	ND	0	0
85305	2019-10-22T08:00:00	ND	ND	ND	ND	ND	305	1.2	233.9	ND	ND	120.9	0
85306	2019-10-22T09:00:00	ND	ND	ND	ND	ND	105.6	1.9	173.7	ND	ND	501.2	0
85307	2019-10-22T10:00:00	ND	ND	ND	ND	ND	25.3	0.5	167.3	ND	ND	602.8	0
85308	2019-10-22T11:00:00	ND	ND	ND	ND	ND	43.4	0.9	55.4	ND	ND	614.4	0
85309	2019-10-22T12:00:00	ND	ND	ND	ND	ND	59.9	1.1	109.3	ND	ND	601.6	0
85310	2019-10-22T13:00:00	ND	ND	ND	ND	ND	59	1.4	55.9	ND	ND	629.9	0
85311	2019-10-22T14:00:00	ND	ND	ND	ND	ND	47.1	1.4	40.4	ND	ND	619.3	0
85312	2019-10-22T15:00:00	ND	ND	ND	ND	ND	ND	ND	ND	ND	ND	541.9	ND
85313	2019-10-22T16:00:00	ND	ND	ND	ND	ND	ND	ND	ND	ND	ND	ND	ND
85314	2019-10-22T17:00:00	ND	ND	ND	ND	ND	15.9	3.9	321	ND	ND	ND	0
85315	2019-10-22T18:00:00	ND	ND	ND	ND	ND	18.9	2.7	260.3	ND	ND	339.8	0
85316	2019-10-22T19:00:00	ND	ND	ND	ND	ND	12.6	2.4	241	ND	ND	0	0
85317	2019-10-22T20:00:00	ND	ND	ND	ND	ND	7.8	1.7	205.8	ND	ND	0	2.54
85318	2019-10-22T21:00:00	ND	ND	ND	ND	ND	6.9	1.5	188.8	ND	ND	0	0.76
85319	2019-10-22T22:00:00	ND	ND	ND	ND	ND	7.5	0.6	172.2	ND	ND	0	15.49
85320	2019-10-22T23:00:00	ND	ND	ND	ND	ND	5.9	0.4	104.2	ND	ND	0	5.59
85321	2019-10-23T00:00:00	ND	ND	ND	ND	ND	4.2	0.6	132.8	ND	ND	0	1.27
85322	2019-10-23T01:00:00	ND	ND	ND	ND	ND	7.1	0.8	122.8	ND	ND	0	0.76
85323	2019-10-23T02:00:00	ND	ND	ND	ND	ND	9.7	0.6	135.9	ND	ND	0	0.25
85324	2019-10-23T03:00:00	ND	ND	ND	ND	ND	10.1	1	166.8	ND	ND	0	0.25
85325	2019-10-23T04:00:00	ND	ND	ND	ND	ND	11	1	185	ND	ND	0	0
85326	2019-10-23T05:00:00	ND	ND	ND	ND	ND	7.6	0.7	166.3	ND	ND	0	0
85327	2019-10-23T06:00:00	ND	ND	ND	ND	ND	2.4	1	185.2	ND	ND	0	0
85328	2019-10-23T07:00:00	ND	ND	ND	ND	ND	2.2	0.7	177.7	ND	ND	0	0
85329	2019-10-23T08:00:00	ND	ND	ND	ND	ND	3.9	0.8	198.1	ND	ND	38.3	0.25
85330	2019-10-23T09:00:00	ND	ND	ND	ND	ND	10.4	0.3	216.4	ND	ND	154.7	0
85331	2019-10-23T10:00:00	ND	ND	ND	ND	ND	24.5	1.3	144.6	ND	ND	465.7	0
85332	2019-10-23T11:00:00	ND	ND	ND	ND	ND	44.1	1.4	154	ND	ND	649.5	0
85333	2019-10-23T12:00:00	ND	ND	ND	ND	ND	54.8	0.9	198.1	ND	ND	649.4	0
85334	2019-10-23T13:00:00	ND	ND	ND	ND	ND	60.4	0.6	133.7	ND	ND	649.4	0
85335	2019-10-23T14:00:00	ND	ND	ND	ND	ND	77.5	0.9	158.2	ND	ND	591.2	0
85336	2019-10-23T15:00:00	ND	ND	ND	ND	ND	89.8	0.8	36.8	ND	ND	635.3	0
85337	2019-10-23T16:00:00	ND	ND	ND	ND	ND	69.1	1.8	341.2	ND	ND	371.6	0
85338	2019-10-23T17:00:00	ND	ND	ND	ND	ND	10.3	2.7	331.1	ND	ND	325.2	0
85339	2019-10-23T18:00:00	ND	ND	ND	ND	ND	4.6	2.4	332.9	ND	ND	154	0
85340	2019-10-23T19:00:00	ND	ND	ND	ND	ND	2	1.8	333.6	ND	ND	0	0
85341	2019-10-23T20:00:00	ND	ND	ND	ND	ND	1.4	1.7	340.2	ND	ND	0	0
85342	2019-10-23T21:00:00	ND	ND	ND	ND	ND	4.3	1.9	327.7	ND	ND	0	0
85343	2019-10-23T22:00:00	ND	ND	ND	ND	ND	5.8	1.7	302.8	ND	ND	0	0
85344	2019-10-23T23:00:00	ND	ND	ND	ND	ND	3.8	0.3	213.4	ND	ND	0	0
85345	2019-10-24T00:00:00	ND	ND	ND	ND	ND	8.5	1.3	183.2	ND	ND	0	0
85346	2019-10-24T01:00:00	ND	ND	ND	ND	ND	12.4	0.4	191.8	ND	ND	0	0
85347	2019-10-24T02:00:00	ND	ND	ND	ND	ND	8.2	0.3	208.8	ND	ND	0	0
85348	2019-10-24T03:00:00	ND	ND	ND	ND	ND	7.1	0.7	151.8	ND	ND	0	3.81
85349	2019-10-24T04:00:00	ND	ND	ND	ND	ND	5	0.8	110.5	ND	ND	0	11.94
85350	2019-10-24T05:00:00	ND	ND	ND	ND	ND	0.8	0.5	125.9	ND	ND	0	7.62
85351	2019-10-24T06:00:00	ND	ND	ND	ND	ND	0.7	0.6	144.9	ND	ND	0	0.25
85352	2019-10-24T07:00:00	ND	ND	ND	ND	ND	0.7	1	108.7	ND	ND	4	0
85353	2019-10-24T08:00:00	ND	ND	ND	ND	ND	1	1	123.7	ND	ND	60.7	0
85354	2019-10-24T09:00:00	ND	ND	ND	ND	ND	3.6	1.2	121.8	ND	ND	146.5	0
85355	2019-10-24T10:00:00	ND	ND	ND	ND	ND	13.6	0.8	120.1	ND	ND	512.9	0
85356	2019-10-24T11:00:00	ND	ND	ND	ND	ND	27.9	0.9	172.8	ND	ND	649.4	0
85357	2019-10-24T12:00:00	ND	ND	ND	ND	ND	47.2	0.6	120.8	ND	ND	643.8	0
85358	2019-10-24T13:00:00	ND	ND	ND	ND	ND	51.4	1	143.4	ND	ND	640.8	0
85359	2019-10-24T14:00:00	ND	ND	ND	ND	ND	66.2	2.2	322.5	ND	ND	629.1	0
85360	2019-10-24T15:00:00	ND	ND	ND	ND	ND	28.7	3.1	335.3	ND	ND	616.1	0
85361	2019-10-24T16:00:00	ND	ND	ND	ND	ND	22.4	2.7	327.9	ND	ND	562.9	0
85362	2019-10-24T17:00:00	ND	ND	ND	ND	ND	9.2	2.6	319.4	ND	ND	436	0
85363	2019-10-24T18:00:00	ND	ND	ND	ND	ND	8.9	2.4	211.8	ND	ND	306.1	0
85364	2019-10-24T19:00:00	ND	ND	ND	ND	ND	7.2	1.8	236.7	ND	ND	0	4.32
85365	2019-10-24T20:00:00	ND	ND	ND	ND	ND	7.6	2	224.3	ND	ND	0	4.32
85366	2019-10-24T21:00:00	ND	ND	ND	ND	ND	3.9	1.1	237.9	ND	ND	0	0
85367	2019-10-24T22:00:00	ND	ND	ND	ND	ND	0.6	1.1	219.2	ND	ND	0	1.02
85368	2019-10-24T23:00:00	ND	ND	ND	ND	ND	3.2	0.8	191.6	ND	ND	0	0.25
85369	2019-10-25T00:00:00	ND	ND	ND	ND	ND	4.4	0.3	183.8	ND	ND	0	0
85370	2019-10-25T01:00:00	ND	ND	ND	ND	ND	2.3	0.3	77.8	ND	ND	0	0
85371	2019-10-25T02:00:00	ND	ND	ND	ND	ND	2.2	0.9	99.6	ND	ND	0	0
85372	2019-10-25T03:00:00	ND	ND	ND	ND	ND	0.6	0.5	103.4	ND	ND	0	0
85373	2019-10-25T04:00:00	ND	ND	ND	ND	ND	0.6	0.8	80.3	ND	ND	0	0
85374	2019-10-25T05:00:00	ND	ND	ND	ND	ND	0.9	0.7	132.1	ND	ND	0	0
85375	2019-10-25T06:00:00	ND	ND	ND	ND	ND	1.2	0.2	168.2	ND	ND	0	0
85376	2019-10-25T07:00:00	ND	ND	ND	ND	ND	1	0.9	299.7	ND	ND	0	0
85377	2019-10-25T08:00:00	ND	ND	ND	ND	ND	2.6	0.4	206.9	ND	ND	150.6	0
85378	2019-10-25T09:00:00	ND	ND	ND	ND	ND	6.4	0.6	221.6	ND	ND	359.5	0
85379	2019-10-25T10:00:00	ND	ND	ND	ND	ND	23.6	0.7	147	ND	ND	438.9	0
85380	2019-10-25T11:00:00	ND	ND	ND	ND	ND	48	1.1	150	ND	ND	642.9	0
85381	2019-10-25T12:00:00	ND	ND	ND	ND	ND	70.5	1.4	107.4	ND	ND	649.6	0
85382	2019-10-25T13:00:00	ND	ND	ND	ND	ND	68.1	1.5	116.3	ND	ND	649.6	0
85383	2019-10-25T14:00:00	ND	ND	ND	ND	ND	81.7	1.4	118	ND	ND	642.6	0
85384	2019-10-25T15:00:00	ND	ND	ND	ND	ND	85.4	1.2	98.5	ND	ND	649.5	0
85385	2019-10-25T16:00:00	ND	ND	ND	ND	ND	33.4	1.4	329.7	ND	ND	486.8	0
85386	2019-10-25T17:00:00	ND	ND	ND	ND	ND	16.2	2.4	320.8	ND	ND	451.7	0
85387	2019-10-25T18:00:00	ND	ND	ND	ND	ND	8.1	3.4	314.3	ND	ND	378.2	0
85388	2019-10-25T19:00:00	ND	ND	ND	ND	ND	3	2.4	318.6	ND	ND	0	0
85389	2019-10-25T20:00:00	ND	ND	ND	ND	ND	1.4	2.3	315.4	ND	ND	0	0
85390	2019-10-25T21:00:00	ND	ND	ND	ND	ND	0.7	0.6	99.6	ND	ND	0	0
85391	2019-10-25T22:00:00	ND	ND	ND	ND	ND	0.8	1.1	245.9	ND	ND	0	0
85392	2019-10-25T23:00:00	ND	ND	ND	ND	ND	0.8	2	248	ND	ND	0	0
85393	2019-10-26T00:00:00	ND	ND	ND	ND	ND	1	1.1	228.5	ND	ND	0	0
85394	2019-10-26T01:00:00	ND	ND	ND	ND	ND	1.3	0.8	168.1	ND	ND	0	0
85395	2019-10-26T02:00:00	ND	ND	ND	ND	ND	5	0.8	167.3	ND	ND	0	0
85396	2019-10-26T03:00:00	ND	ND	ND	ND	ND	0.5	0.5	48.8	ND	ND	0	0
85397	2019-10-26T04:00:00	ND	ND	ND	ND	ND	0.7	0.2	264.6	ND	ND	0	0
85398	2019-10-26T05:00:00	ND	ND	ND	ND	ND	2.5	0.8	231.1	ND	ND	0	0
85399	2019-10-26T06:00:00	ND	ND	ND	ND	ND	1	0.8	222.8	ND	ND	0	0
85400	2019-10-26T07:00:00	ND	ND	ND	ND	ND	1.1	0.5	156.6	ND	ND	0	0
85401	2019-10-26T08:00:00	ND	ND	ND	ND	ND	2.7	0.2	123.8	ND	ND	58.8	0
85402	2019-10-26T09:00:00	ND	ND	ND	ND	ND	10.4	1	204.6	ND	ND	361.6	0
85403	2019-10-26T10:00:00	ND	ND	ND	ND	ND	22.7	1.3	179.5	ND	ND	649.4	0
85404	2019-10-26T11:00:00	ND	ND	ND	ND	ND	26.1	1.5	150.4	ND	ND	649.2	0
85405	2019-10-26T12:00:00	ND	ND	ND	ND	ND	47.8	1.1	93.4	ND	ND	649.3	0
85406	2019-10-26T13:00:00	ND	ND	ND	ND	ND	75	0.9	118.5	ND	ND	648.9	0
85407	2019-10-26T14:00:00	ND	ND	ND	ND	ND	74.3	1.3	105.3	ND	ND	649.3	0
85408	2019-10-26T15:00:00	ND	ND	ND	ND	ND	57.4	1.2	47.8	ND	ND	584.2	0
85409	2019-10-26T16:00:00	ND	ND	ND	ND	ND	35.8	1.3	352.5	ND	ND	638.3	0
85410	2019-10-26T17:00:00	ND	ND	ND	ND	ND	15.8	3.5	333.9	ND	ND	549.5	0
85411	2019-10-26T18:00:00	ND	ND	ND	ND	ND	9.8	2.9	332.3	ND	ND	309.7	0
85412	2019-10-26T19:00:00	ND	ND	ND	ND	ND	7.7	3.4	331.2	ND	ND	0	0
85413	2019-10-26T20:00:00	ND	ND	ND	ND	ND	9.3	3.5	332.9	ND	ND	0	0
85414	2019-10-26T21:00:00	ND	ND	ND	ND	ND	8.6	1.9	343	ND	ND	0	0
85415	2019-10-26T22:00:00	ND	ND	ND	ND	ND	5.6	0.9	265.4	ND	ND	0	0
85416	2019-10-26T23:00:00	ND	ND	ND	ND	ND	10.8	1.7	239.8	ND	ND	0	0
85417	2019-10-27T00:00:00	ND	ND	ND	ND	ND	4.7	0.3	223.3	ND	ND	0	0
85418	2019-10-27T01:00:00	ND	ND	ND	ND	ND	0.6	0.7	145.9	ND	ND	0	0
85419	2019-10-27T02:00:00	ND	ND	ND	ND	ND	0.7	0.5	153.5	ND	ND	0	0
85420	2019-10-27T03:00:00	ND	ND	ND	ND	ND	1.9	1	180.2	ND	ND	0	0
85421	2019-10-27T04:00:00	ND	ND	ND	ND	ND	2	0.8	170.9	ND	ND	0	0
85422	2019-10-27T05:00:00	ND	ND	ND	ND	ND	1.6	0.5	148.6	ND	ND	0	0
85423	2019-10-27T06:00:00	ND	ND	ND	ND	ND	1.1	0.5	153.7	ND	ND	0	0
85424	2019-10-27T07:00:00	ND	ND	ND	ND	ND	1.7	0.8	166.3	ND	ND	0	0
85425	2019-10-27T08:00:00	ND	ND	ND	ND	ND	3.5	1	108	ND	ND	107.4	0
85426	2019-10-27T09:00:00	ND	ND	ND	ND	ND	9.6	1.1	109.9	ND	ND	158.3	0
85427	2019-10-27T10:00:00	ND	ND	ND	ND	ND	13.2	1.1	109.6	ND	ND	625.5	0
85428	2019-10-27T11:00:00	ND	ND	ND	ND	ND	26.7	0.8	159.2	ND	ND	638.2	0
85429	2019-10-27T12:00:00	ND	ND	ND	ND	ND	48.4	0.6	50.4	ND	ND	649.2	0
85430	2019-10-27T13:00:00	ND	ND	ND	ND	ND	66.5	0.9	136.9	ND	ND	649.6	0
85431	2019-10-27T14:00:00	ND	ND	ND	ND	ND	63.3	1.1	112.1	ND	ND	649.3	0
85432	2019-10-27T15:00:00	ND	ND	ND	ND	ND	41.7	1.3	141.5	ND	ND	595.7	0
85433	2019-10-27T16:00:00	ND	ND	ND	ND	ND	23	1.8	328.4	ND	ND	447.4	0
85434	2019-10-27T17:00:00	ND	ND	ND	ND	ND	18.5	3	317.9	ND	ND	246.8	0
85435	2019-10-27T18:00:00	ND	ND	ND	ND	ND	15.6	2.6	316.7	ND	ND	243.2	0
85436	2019-10-27T19:00:00	ND	ND	ND	ND	ND	12.3	2.4	302.6	ND	ND	0	0
85437	2019-10-27T20:00:00	ND	ND	ND	ND	ND	7.7	1.4	329.8	ND	ND	0	0
85438	2019-10-27T21:00:00	ND	ND	ND	ND	ND	1.1	0.6	111	ND	ND	0	0
85439	2019-10-27T22:00:00	ND	ND	ND	ND	ND	5.8	0.8	326.8	ND	ND	0	0
85440	2019-10-27T23:00:00	ND	ND	ND	ND	ND	2.4	1.5	242.8	ND	ND	0	0
85441	2019-10-28T00:00:00	ND	ND	ND	ND	ND	2	1.2	227.9	ND	ND	0	0
85442	2019-10-28T01:00:00	ND	ND	ND	ND	ND	4.1	0.7	221.7	ND	ND	0	0
85443	2019-10-28T02:00:00	ND	ND	ND	ND	ND	3.7	0.3	268.1	ND	ND	0	0
85444	2019-10-28T03:00:00	ND	ND	ND	ND	ND	7.5	0.8	284.3	ND	ND	0	0
85445	2019-10-28T04:00:00	ND	ND	ND	ND	ND	5	0.1	49.2	ND	ND	0	0
85446	2019-10-28T05:00:00	ND	ND	ND	ND	ND	0.6	0.9	98.4	ND	ND	0	0
85447	2019-10-28T06:00:00	ND	ND	ND	ND	ND	0.7	0.8	110.6	ND	ND	0	0
85448	2019-10-28T07:00:00	ND	ND	ND	ND	ND	1	0.9	84.5	ND	ND	0	0
85449	2019-10-28T08:00:00	ND	ND	ND	ND	ND	4.6	1.7	63.1	ND	ND	226.1	0
85450	2019-10-28T09:00:00	ND	ND	ND	ND	ND	12.6	1.3	120.3	ND	ND	596.7	0
85451	2019-10-28T10:00:00	ND	ND	ND	ND	ND	28.3	1.3	158.6	ND	ND	648.9	0
85452	2019-10-28T11:00:00	ND	ND	ND	ND	ND	51.7	0.8	158.2	ND	ND	619.8	0
85453	2019-10-28T12:00:00	ND	ND	ND	ND	ND	64.9	1.2	146.7	ND	ND	646.4	0
85454	2019-10-28T13:00:00	ND	ND	ND	ND	ND	68.2	1.6	170.3	ND	ND	647	0
85455	2019-10-28T14:00:00	ND	ND	ND	ND	ND	65.9	1.1	116.2	ND	ND	649.7	0
85456	2019-10-28T15:00:00	ND	ND	ND	ND	ND	71.4	1	122.4	ND	ND	599.1	0
85457	2019-10-28T16:00:00	ND	ND	ND	ND	ND	36.2	2.2	5.5	ND	ND	563.2	0
85458	2019-10-28T17:00:00	ND	ND	ND	ND	ND	16.5	3.6	329.6	ND	ND	270.8	0
85459	2019-10-28T18:00:00	ND	ND	ND	ND	ND	9.6	3.4	330.1	ND	ND	99.4	0
85460	2019-10-28T19:00:00	ND	ND	ND	ND	ND	10	3.6	329.2	ND	ND	0	0
85461	2019-10-28T20:00:00	ND	ND	ND	ND	ND	9.6	3.3	329.7	ND	ND	0	0
85462	2019-10-28T21:00:00	ND	ND	ND	ND	ND	10.1	1	22.1	ND	ND	0	0
85463	2019-10-28T22:00:00	ND	ND	ND	ND	ND	5.3	1.2	270.5	ND	ND	0	0
85464	2019-10-28T23:00:00	ND	ND	ND	ND	ND	6.5	1.7	247.1	ND	ND	0	0
85465	2019-10-29T00:00:00	ND	ND	ND	ND	ND	7.7	1.4	243.8	ND	ND	0	0
85466	2019-10-29T01:00:00	ND	ND	ND	ND	ND	7.4	1.4	233.9	ND	ND	0	0
85467	2019-10-29T02:00:00	ND	ND	ND	ND	ND	6	0.9	175.1	ND	ND	0	0
85468	2019-10-29T03:00:00	ND	ND	ND	ND	ND	6.1	0.6	136.8	ND	ND	0	0
85469	2019-10-29T04:00:00	ND	ND	ND	ND	ND	1.3	0.3	174.6	ND	ND	0	0
85470	2019-10-29T05:00:00	ND	ND	ND	ND	ND	1.1	0.7	156.1	ND	ND	0	0
85471	2019-10-29T06:00:00	ND	ND	ND	ND	ND	0.9	0.7	221.2	ND	ND	0	0.25
85472	2019-10-29T07:00:00	ND	ND	ND	ND	ND	0.8	0.4	160	ND	ND	0	0
85473	2019-10-29T08:00:00	ND	ND	ND	ND	ND	1.1	0.4	241.8	ND	ND	77.8	0.25
85474	2019-10-29T09:00:00	ND	ND	ND	ND	ND	1.7	0.6	121.5	ND	ND	152.6	0
85475	2019-10-29T10:00:00	ND	ND	ND	ND	ND	6	0.6	91.6	ND	ND	263.2	0
85476	2019-10-29T11:00:00	ND	ND	ND	ND	ND	14.6	1.4	118.7	ND	ND	611.2	0
85477	2019-10-29T12:00:00	ND	ND	ND	ND	ND	28.2	1.1	42.7	ND	ND	648.1	0
85478	2019-10-29T13:00:00	ND	ND	ND	ND	ND	39.1	0.9	94.2	ND	ND	645.5	0
85479	2019-10-29T14:00:00	ND	ND	ND	ND	ND	42.4	1.2	128.7	ND	ND	646.2	0
85480	2019-10-29T15:00:00	ND	ND	ND	ND	ND	31.1	1.1	108.3	ND	ND	600.8	0
85481	2019-10-29T16:00:00	ND	ND	ND	ND	ND	12.8	2.7	332.6	ND	ND	415.5	0
85482	2019-10-29T17:00:00	ND	ND	ND	ND	ND	11.4	2.8	320.5	ND	ND	430.4	0
85483	2019-10-29T18:00:00	ND	ND	ND	ND	ND	6.4	2.5	322.7	ND	ND	267.4	0
85484	2019-10-29T19:00:00	ND	ND	ND	ND	ND	3.3	2.3	334.6	ND	ND	0	0
85485	2019-10-29T20:00:00	ND	ND	ND	ND	ND	2.2	2.3	320.6	ND	ND	0	0
85486	2019-10-29T21:00:00	ND	ND	ND	ND	ND	3.5	0.6	328.3	ND	ND	0	0
85487	2019-10-29T22:00:00	ND	ND	ND	ND	ND	0.7	0.5	182.8	ND	ND	0	0
85488	2019-10-29T23:00:00	ND	ND	ND	ND	ND	7.4	1.3	286.7	ND	ND	0	0
85489	2019-10-30T00:00:00	ND	ND	ND	ND	ND	15.8	1.1	261.5	ND	ND	0	0
85490	2019-10-30T01:00:00	ND	ND	ND	ND	ND	1.8	1.4	236.9	ND	ND	0	0
85491	2019-10-30T02:00:00	ND	ND	ND	ND	ND	4.2	0.5	166	ND	ND	0	0
85492	2019-10-30T03:00:00	ND	ND	ND	ND	ND	0.8	0.9	57.6	ND	ND	0	0
85493	2019-10-30T04:00:00	ND	ND	ND	ND	ND	0.6	0.8	91.2	ND	ND	0	0
85494	2019-10-30T05:00:00	ND	ND	ND	ND	ND	1.2	0.7	166.3	ND	ND	0	0
85495	2019-10-30T06:00:00	ND	ND	ND	ND	ND	0.7	1.2	74.2	ND	ND	0	0
85496	2019-10-30T07:00:00	ND	ND	ND	ND	ND	1	1.1	58.4	ND	ND	0	0
85497	2019-10-30T08:00:00	ND	ND	ND	ND	ND	2.1	0.6	100.2	ND	ND	98.4	0
85498	2019-10-30T09:00:00	ND	ND	ND	ND	ND	7.5	0.9	110	ND	ND	235.9	0
85499	2019-10-30T10:00:00	ND	ND	ND	ND	ND	15.9	1	136.7	ND	ND	593.4	0
85500	2019-10-30T11:00:00	ND	ND	ND	ND	ND	35.9	0.9	130.3	ND	ND	648.2	0
85501	2019-10-30T12:00:00	ND	ND	ND	ND	ND	62.3	1	147.7	ND	ND	648.4	0
85502	2019-10-30T13:00:00	ND	ND	ND	ND	ND	66.7	1.4	123.3	ND	ND	647.9	0
85503	2019-10-30T14:00:00	ND	ND	ND	ND	ND	68.1	2.2	101.2	ND	ND	648.1	0
85504	2019-10-30T15:00:00	ND	ND	ND	ND	ND	69.2	1.8	89.8	ND	ND	646.5	0
85505	2019-10-30T16:00:00	ND	ND	ND	ND	ND	44.4	2.1	16.4	ND	ND	552.5	0
85506	2019-10-30T17:00:00	ND	ND	ND	ND	ND	25.7	2.9	343.4	ND	ND	597.8	0
85507	2019-10-30T18:00:00	ND	ND	ND	ND	ND	14.9	2.8	335.1	ND	ND	274.9	0
85508	2019-10-30T19:00:00	ND	ND	ND	ND	ND	11.7	2.8	321.5	ND	ND	0	0
85509	2019-10-30T20:00:00	ND	ND	ND	ND	ND	17.6	4	329.4	ND	ND	0	0
85510	2019-10-30T21:00:00	ND	ND	ND	ND	ND	20.3	2.8	343.5	ND	ND	0	0
85511	2019-10-30T22:00:00	ND	ND	ND	ND	ND	23.6	2.2	340.9	ND	ND	0	0
85512	2019-10-30T23:00:00	ND	ND	ND	ND	ND	19	1.1	252.9	ND	ND	0	0
85513	2019-10-31T00:00:00	ND	ND	ND	ND	ND	5.8	1.5	212.9	ND	ND	0	0
85514	2019-10-31T01:00:00	ND	ND	ND	ND	ND	5.1	0.1	139.8	ND	ND	0	0
85515	2019-10-31T02:00:00	ND	ND	ND	ND	ND	2.9	0.7	74.3	ND	ND	0	7.87
85516	2019-10-31T03:00:00	ND	ND	ND	ND	ND	3.2	0.6	151.5	ND	ND	0	5.33
85517	2019-10-31T04:00:00	ND	ND	ND	ND	ND	1.4	0.9	155.9	ND	ND	0	0.25
85518	2019-10-31T05:00:00	ND	ND	ND	ND	ND	2	0.9	185.6	ND	ND	0	0
85519	2019-10-31T06:00:00	ND	ND	ND	ND	ND	2.2	0.5	170	ND	ND	0	0
85520	2019-10-31T07:00:00	ND	ND	ND	ND	ND	1.2	1	102.2	ND	ND	0	0
85521	2019-10-31T08:00:00	ND	ND	ND	ND	ND	4.6	0.8	153.1	ND	ND	111.2	0.25
85522	2019-10-31T09:00:00	ND	ND	ND	ND	ND	9.4	1.1	110.2	ND	ND	565.5	0
85523	2019-10-31T10:00:00	ND	ND	ND	ND	ND	18.7	1	109.2	ND	ND	526.7	0
85524	2019-10-31T11:00:00	ND	ND	ND	ND	ND	33.7	1.6	115.7	ND	ND	648.4	0
85525	2019-10-31T12:00:00	ND	ND	ND	ND	ND	50.7	0.8	156.8	ND	ND	648	0
85526	2019-10-31T13:00:00	ND	ND	ND	ND	ND	45.6	0.9	176.3	ND	ND	629	0
85527	2019-10-31T14:00:00	ND	ND	ND	ND	ND	66.5	0.9	147.5	ND	ND	644.5	0
85528	2019-10-31T15:00:00	ND	ND	ND	ND	ND	63	1	167.5	ND	ND	632.5	0
85529	2019-10-31T16:00:00	ND	ND	ND	ND	ND	68.9	1.2	94.3	ND	ND	616.4	0
85530	2019-10-31T17:00:00	ND	ND	ND	ND	ND	63.7	1.1	108.1	ND	ND	418.2	0
85531	2019-10-31T18:00:00	ND	ND	ND	ND	ND	46.1	0.8	99.9	ND	ND	330.2	0
85532	2019-10-31T19:00:00	ND	ND	ND	ND	ND	15.9	2.1	325.6	ND	ND	0	0
85533	2019-10-31T20:00:00	ND	ND	ND	ND	ND	17	2.3	327.7	ND	ND	0	0
85534	2019-10-31T21:00:00	ND	ND	ND	ND	ND	10.4	2	321.4	ND	ND	0	0
85535	2019-10-31T22:00:00	ND	ND	ND	ND	ND	5.2	0.4	357.3	ND	ND	0	0
85536	2019-10-31T23:00:00	ND	ND	ND	ND	ND	0.5	0.6	35.8	ND	ND	0	0
85537	2019-11-01T00:00:00	ND	ND	ND	ND	ND	0.5	0.5	179	ND	ND	0	0
85538	2019-11-01T01:00:00	ND	ND	ND	ND	ND	0.6	0.5	239.9	ND	ND	0	0
85539	2019-11-01T02:00:00	ND	ND	ND	ND	ND	0.7	1	147.4	ND	ND	0	0
85540	2019-11-01T03:00:00	ND	ND	ND	ND	ND	3.3	2	227.5	ND	ND	0	0
85541	2019-11-01T04:00:00	ND	ND	ND	ND	ND	9.3	1.4	236.4	ND	ND	0	0
85542	2019-11-01T05:00:00	ND	ND	ND	ND	ND	4.4	0.3	173.8	ND	ND	0	0
85543	2019-11-01T06:00:00	ND	ND	ND	ND	ND	0.7	0.5	56.8	ND	ND	0	0
85544	2019-11-01T07:00:00	ND	ND	ND	ND	ND	2.5	0.7	89.7	ND	ND	4.4	0
85545	2019-11-01T08:00:00	ND	ND	ND	ND	ND	3.7	0.5	117.1	ND	ND	181.8	0
85546	2019-11-01T09:00:00	ND	ND	ND	ND	ND	15.9	1	100.1	ND	ND	519.2	0
85547	2019-11-01T10:00:00	ND	ND	ND	ND	ND	26.7	1.2	129.4	ND	ND	648.4	0
85548	2019-11-01T11:00:00	ND	ND	ND	ND	ND	54.3	1.1	175.5	ND	ND	648	0
85549	2019-11-01T12:00:00	ND	ND	ND	ND	ND	76.6	0.3	185.3	ND	ND	645.1	0
85550	2019-11-01T13:00:00	ND	ND	ND	ND	ND	59.2	2.1	34.9	ND	ND	609.5	0
85551	2019-11-01T14:00:00	ND	ND	ND	ND	ND	47.2	1.7	346.5	ND	ND	516.8	0
85552	2019-11-01T15:00:00	ND	ND	ND	ND	ND	32.9	3.2	338.6	ND	ND	627.6	0
85553	2019-11-01T16:00:00	ND	ND	ND	ND	ND	29.2	2.5	344.3	ND	ND	641.8	0
85554	2019-11-01T17:00:00	ND	ND	ND	ND	ND	24.7	3	334.9	ND	ND	564.9	0
85555	2019-11-01T18:00:00	ND	ND	ND	ND	ND	16.7	3	316.2	ND	ND	236.5	0
85556	2019-11-01T19:00:00	ND	ND	ND	ND	ND	13	2.4	220.1	ND	ND	0	0
85557	2019-11-01T20:00:00	ND	ND	ND	ND	ND	18.1	2.7	238.7	ND	ND	0	0
85558	2019-11-01T21:00:00	ND	ND	ND	ND	ND	6.4	1.6	225.6	ND	ND	0	0
85559	2019-11-01T22:00:00	ND	ND	ND	ND	ND	21.1	2.4	235.1	ND	ND	0	0
85560	2019-11-01T23:00:00	ND	ND	ND	ND	ND	24.6	1.3	238.5	ND	ND	0	0
85561	2019-11-02T00:00:00	ND	ND	ND	ND	ND	9.4	0.6	181.4	ND	ND	0	0
85562	2019-11-02T01:00:00	ND	ND	ND	ND	ND	7.5	0.7	109.2	ND	ND	0	0
85563	2019-11-02T02:00:00	ND	ND	ND	ND	ND	7.9	1	121.9	ND	ND	0	0
85564	2019-11-02T03:00:00	ND	ND	ND	ND	ND	12.1	0.7	145.6	ND	ND	0	0
85565	2019-11-02T04:00:00	ND	ND	ND	ND	ND	9.6	0.7	169.9	ND	ND	0	0
85566	2019-11-02T05:00:00	ND	ND	ND	ND	ND	9.3	0.7	207.7	ND	ND	0	0
85567	2019-11-02T06:00:00	ND	ND	ND	ND	ND	5.8	0.7	182.1	ND	ND	0	0
85568	2019-11-02T07:00:00	ND	ND	ND	ND	ND	3.6	0.8	202.1	ND	ND	0	0
85569	2019-11-02T08:00:00	ND	ND	ND	ND	ND	2.5	0.8	198.7	ND	ND	86.4	0
85570	2019-11-02T09:00:00	ND	ND	ND	ND	ND	8	0.5	63.8	ND	ND	205	0
85571	2019-11-02T10:00:00	ND	ND	ND	ND	ND	22.3	0.9	101	ND	ND	490.3	0
85572	2019-11-02T11:00:00	ND	ND	ND	ND	ND	48	0.9	118.5	ND	ND	613.7	0
85573	2019-11-02T12:00:00	ND	ND	ND	ND	ND	74.3	1.4	105.4	ND	ND	607.7	0
85574	2019-11-02T13:00:00	ND	ND	ND	ND	ND	64.1	1.5	117.6	ND	ND	646.6	0
85575	2019-11-02T14:00:00	ND	ND	ND	ND	ND	63.8	1.5	76.6	ND	ND	644.8	0
85576	2019-11-02T15:00:00	ND	ND	ND	ND	ND	43.3	2.3	8.6	ND	ND	614.4	0
85577	2019-11-02T16:00:00	ND	ND	ND	ND	ND	30.6	3.4	332.4	ND	ND	581.6	0
85578	2019-11-02T17:00:00	ND	ND	ND	ND	ND	22.7	3.5	318.3	ND	ND	614.4	0
85579	2019-11-02T18:00:00	ND	ND	ND	ND	ND	23.2	3.7	317.3	ND	ND	197.7	0
85580	2019-11-02T19:00:00	ND	ND	ND	ND	ND	16.1	2.7	323.4	ND	ND	0	0
85581	2019-11-02T20:00:00	ND	ND	ND	ND	ND	11.6	1.2	318.7	ND	ND	0	0
85582	2019-11-02T21:00:00	ND	ND	ND	ND	ND	13.6	2.1	277.2	ND	ND	0	0
85583	2019-11-02T22:00:00	ND	ND	ND	ND	ND	6.6	1.3	225.3	ND	ND	0	0
85584	2019-11-02T23:00:00	ND	ND	ND	ND	ND	4.6	0.5	293.6	ND	ND	0	0
85585	2019-11-03T00:00:00	ND	ND	ND	ND	ND	4.8	0.9	275.9	ND	ND	0	0
85586	2019-11-03T01:00:00	ND	ND	ND	ND	ND	5.4	0.9	200.7	ND	ND	0	0
85587	2019-11-03T02:00:00	ND	ND	ND	ND	ND	3.7	0.8	190.5	ND	ND	0	0
85588	2019-11-03T03:00:00	ND	ND	ND	ND	ND	0.7	0.6	164.7	ND	ND	0	0
85589	2019-11-03T04:00:00	ND	ND	ND	ND	ND	3.8	0.6	146	ND	ND	0	0
85590	2019-11-03T05:00:00	ND	ND	ND	ND	ND	3.2	0.7	173.9	ND	ND	0	0
85591	2019-11-03T06:00:00	ND	ND	ND	ND	ND	1.5	0.3	100.8	ND	ND	0	0
85592	2019-11-03T07:00:00	ND	ND	ND	ND	ND	2.2	0.8	148.6	ND	ND	0	0
85593	2019-11-03T08:00:00	ND	ND	ND	ND	ND	9.1	0.8	192.7	ND	ND	239.3	0
85594	2019-11-03T09:00:00	ND	ND	ND	ND	ND	15.8	0.8	223.9	ND	ND	380.1	0
85595	2019-11-03T10:00:00	ND	ND	ND	ND	ND	32.2	1.1	170.5	ND	ND	553.4	0
85596	2019-11-03T11:00:00	ND	ND	ND	ND	ND	51.7	1.1	170.5	ND	ND	648	0
85597	2019-11-03T12:00:00	ND	ND	ND	ND	ND	60.1	0.9	130.9	ND	ND	648.1	0
85598	2019-11-03T13:00:00	ND	ND	ND	ND	ND	43.1	2.2	359.7	ND	ND	624.8	0
85599	2019-11-03T14:00:00	ND	ND	ND	ND	ND	30.4	3.2	321.4	ND	ND	628.7	0
85600	2019-11-03T15:00:00	ND	ND	ND	ND	ND	25.3	4	331	ND	ND	571.3	0
85601	2019-11-03T16:00:00	ND	ND	ND	ND	ND	22.2	3.6	343.7	ND	ND	362.4	0
85602	2019-11-03T17:00:00	ND	ND	ND	ND	ND	21.2	3	342.6	ND	ND	482	0
85603	2019-11-03T18:00:00	ND	ND	ND	ND	ND	23.1	3.7	326.8	ND	ND	392.4	0
85604	2019-11-03T19:00:00	ND	ND	ND	ND	ND	20.8	3.2	336.9	ND	ND	0	0
85605	2019-11-03T20:00:00	ND	ND	ND	ND	ND	15.4	3.5	322.5	ND	ND	0	0
85606	2019-11-03T21:00:00	ND	ND	ND	ND	ND	14.5	3.1	311	ND	ND	0	0
85607	2019-11-03T22:00:00	ND	ND	ND	ND	ND	15.8	1.2	332.7	ND	ND	0	0
85608	2019-11-03T23:00:00	ND	ND	ND	ND	ND	4.9	0.9	177.6	ND	ND	0	0
85609	2019-11-04T00:00:00	ND	ND	ND	ND	ND	1.5	1.3	238.5	ND	ND	0	0
85610	2019-11-04T01:00:00	ND	ND	ND	ND	ND	6.5	0.9	244.8	ND	ND	0	0
85611	2019-11-04T02:00:00	ND	ND	ND	ND	ND	1.4	0.5	92.2	ND	ND	0	0
85612	2019-11-04T03:00:00	ND	ND	ND	ND	ND	1	0.4	151.2	ND	ND	0	0
85613	2019-11-04T04:00:00	ND	ND	ND	ND	ND	0.8	0.7	183.6	ND	ND	0	0
85614	2019-11-04T05:00:00	ND	ND	ND	ND	ND	4.1	0.7	115.9	ND	ND	0	0
85615	2019-11-04T06:00:00	ND	ND	ND	ND	ND	3.1	0.4	185.5	ND	ND	0	0
85616	2019-11-04T07:00:00	ND	ND	ND	ND	ND	2.1	0.6	216.8	ND	ND	0	0
85617	2019-11-04T08:00:00	ND	ND	ND	ND	ND	3.2	0.2	203.1	ND	ND	14.9	15.75
85618	2019-11-04T09:00:00	ND	ND	ND	ND	ND	3.1	0.7	109.6	ND	ND	147.5	0.51
85619	2019-11-04T10:00:00	ND	ND	ND	ND	ND	8.5	1.1	110.2	ND	ND	257.6	0
85620	2019-11-04T11:00:00	ND	ND	ND	ND	ND	17.8	0.6	177.2	ND	ND	586.9	0
85621	2019-11-04T12:00:00	ND	ND	ND	ND	ND	28.8	1.1	217.6	ND	ND	648.5	0
85622	2019-11-04T13:00:00	ND	ND	ND	ND	ND	42.3	0.6	344.2	ND	ND	648.3	0
85623	2019-11-04T14:00:00	ND	ND	ND	ND	ND	58.7	0.1	236.5	ND	ND	647.9	0
85624	2019-11-04T15:00:00	ND	ND	ND	ND	ND	54.3	1.6	45.3	ND	ND	647.4	0
85625	2019-11-04T16:00:00	ND	ND	ND	ND	ND	39.4	1.5	21.6	ND	ND	619.3	0
85626	2019-11-04T17:00:00	ND	ND	ND	ND	ND	32.3	2.8	324.8	ND	ND	602.7	0
85627	2019-11-04T18:00:00	ND	ND	ND	ND	ND	23.9	2.8	319.9	ND	ND	320.2	0
85628	2019-11-04T19:00:00	ND	ND	ND	ND	ND	17.5	2.4	320.1	ND	ND	0	0
85629	2019-11-04T20:00:00	ND	ND	ND	ND	ND	8.9	0.8	331.1	ND	ND	0	0
85630	2019-11-04T21:00:00	ND	ND	ND	ND	ND	12.2	2.4	298	ND	ND	0	0
85631	2019-11-04T22:00:00	ND	ND	ND	ND	ND	8.4	1	17.3	ND	ND	0	0
85632	2019-11-04T23:00:00	ND	ND	ND	ND	ND	0.7	0.3	115.3	ND	ND	0	0
85633	2019-11-05T00:00:00	ND	ND	ND	ND	ND	0.8	0.6	137.1	ND	ND	0	0
85634	2019-11-05T01:00:00	ND	ND	ND	ND	ND	7.8	0.8	257.7	ND	ND	0	0
85635	2019-11-05T02:00:00	ND	ND	ND	ND	ND	7.7	1.3	241.1	ND	ND	0	0
85636	2019-11-05T03:00:00	ND	ND	ND	ND	ND	4.9	0.9	205.9	ND	ND	0	0
85637	2019-11-05T04:00:00	ND	ND	ND	ND	ND	7.1	1	262.3	ND	ND	0	0
85638	2019-11-05T05:00:00	ND	ND	ND	ND	ND	4.2	0.5	155.1	ND	ND	0	0
85639	2019-11-05T06:00:00	ND	ND	ND	ND	ND	0.7	0.8	76.3	ND	ND	0	0
85640	2019-11-05T07:00:00	ND	ND	ND	ND	ND	1	0.1	217.6	ND	ND	7.3	0
85641	2019-11-05T08:00:00	ND	ND	ND	ND	ND	2.8	0.6	215.8	ND	ND	223.4	0
85642	2019-11-05T09:00:00	ND	ND	ND	ND	ND	16.1	0.6	191.9	ND	ND	395.8	0
85643	2019-11-05T10:00:00	ND	ND	ND	ND	ND	31.9	1.2	180.4	ND	ND	648.3	0
85644	2019-11-05T11:00:00	ND	ND	ND	ND	ND	44.5	1	101.5	ND	ND	640.7	0
85645	2019-11-05T12:00:00	ND	ND	ND	ND	ND	69.9	1.1	128.5	ND	ND	635.3	0
85646	2019-11-05T13:00:00	ND	ND	ND	ND	ND	93.6	1.1	147.6	ND	ND	639.9	0
85647	2019-11-05T14:00:00	ND	ND	ND	ND	ND	95.7	1.1	147.1	ND	ND	642.5	0
85648	2019-11-05T15:00:00	ND	ND	ND	ND	ND	47.2	2.4	357.3	ND	ND	630.4	0
85649	2019-11-05T16:00:00	ND	ND	ND	ND	ND	16.3	3.5	331.8	ND	ND	304.6	0
85650	2019-11-05T17:00:00	ND	ND	ND	ND	ND	14.3	3.9	334.3	ND	ND	357.3	0
85651	2019-11-05T18:00:00	ND	ND	ND	ND	ND	14.7	4.8	320.7	ND	ND	199.1	0
85652	2019-11-05T19:00:00	ND	ND	ND	ND	ND	13.3	3.1	329.9	ND	ND	0	0
85653	2019-11-05T20:00:00	ND	ND	ND	ND	ND	1.4	0.5	118	ND	ND	0	0
85654	2019-11-05T21:00:00	ND	ND	ND	ND	ND	7.3	1.6	291.7	ND	ND	0	0
85655	2019-11-05T22:00:00	ND	ND	ND	ND	ND	3.1	2	231.1	ND	ND	0	0
85656	2019-11-05T23:00:00	ND	ND	ND	ND	ND	4.9	1.8	205.3	ND	ND	0	0
85657	2019-11-06T00:00:00	ND	ND	ND	ND	ND	3.3	1.8	236.5	ND	ND	0	0
85658	2019-11-06T01:00:00	ND	ND	ND	ND	ND	5.5	1.5	249.3	ND	ND	0	0
85659	2019-11-06T02:00:00	ND	ND	ND	ND	ND	11.9	0.6	231.8	ND	ND	0	0
85660	2019-11-06T03:00:00	ND	ND	ND	ND	ND	6.9	0.8	147	ND	ND	0	0
85661	2019-11-06T04:00:00	ND	ND	ND	ND	ND	2.8	0.8	116.7	ND	ND	0	0
85662	2019-11-06T05:00:00	ND	ND	ND	ND	ND	0.6	0.7	69.1	ND	ND	0	0
85663	2019-11-06T06:00:00	ND	ND	ND	ND	ND	0.7	0.5	70.8	ND	ND	0	0
85664	2019-11-06T07:00:00	ND	ND	ND	ND	ND	0.9	0.3	47.9	ND	ND	0	0
85665	2019-11-06T08:00:00	ND	ND	ND	ND	ND	3	0.6	193.3	ND	ND	92.3	0
85666	2019-11-06T09:00:00	ND	ND	ND	ND	ND	17.5	0.8	195.4	ND	ND	461.2	0
85667	2019-11-06T10:00:00	ND	ND	ND	ND	ND	32.3	1	183.3	ND	ND	649.5	0
85668	2019-11-06T11:00:00	ND	ND	ND	ND	ND	42.9	1.5	167.5	ND	ND	649.7	0
85669	2019-11-06T12:00:00	ND	ND	ND	ND	ND	50.8	1.6	149.5	ND	ND	649.8	0
85670	2019-11-06T13:00:00	ND	ND	ND	ND	ND	72.1	1.3	114.6	ND	ND	637.8	0
85671	2019-11-06T14:00:00	ND	ND	ND	ND	ND	73.3	2.3	72.6	ND	ND	648.3	0
85672	2019-11-06T15:00:00	ND	ND	ND	ND	ND	23.3	3.3	330.5	ND	ND	524.5	0
85673	2019-11-06T16:00:00	ND	ND	ND	ND	ND	15.8	3.5	334.5	ND	ND	632.7	0
85674	2019-11-06T17:00:00	ND	ND	ND	ND	ND	10.2	3.2	335	ND	ND	460.4	0
85675	2019-11-06T18:00:00	ND	ND	ND	ND	ND	7.7	2.4	335.5	ND	ND	174.8	0
85676	2019-11-06T19:00:00	ND	ND	ND	ND	ND	9.2	3	330.3	ND	ND	0	0
85677	2019-11-06T20:00:00	ND	ND	ND	ND	ND	11.7	2.7	258.4	ND	ND	0	0
85678	2019-11-06T21:00:00	ND	ND	ND	ND	ND	16.6	2.4	245	ND	ND	0	0
85679	2019-11-06T22:00:00	ND	ND	ND	ND	ND	9.8	1.2	247.5	ND	ND	0	0
85680	2019-11-06T23:00:00	ND	ND	ND	ND	ND	3.6	1	117.1	ND	ND	0	0
85681	2019-11-07T00:00:00	ND	ND	ND	ND	ND	1.9	0.8	115.3	ND	ND	0	0
85682	2019-11-07T01:00:00	ND	ND	ND	ND	ND	0.8	0.8	94.5	ND	ND	0	0
85683	2019-11-07T02:00:00	ND	ND	ND	ND	ND	0.8	0.8	81.9	ND	ND	0	0
85684	2019-11-07T03:00:00	ND	ND	ND	ND	ND	1	0.8	102.8	ND	ND	0	0
85685	2019-11-07T04:00:00	ND	ND	ND	ND	ND	1.1	0.5	107.6	ND	ND	0	0
85686	2019-11-07T05:00:00	ND	ND	ND	ND	ND	0.8	0.3	129.1	ND	ND	0	0
85687	2019-11-07T06:00:00	ND	ND	ND	ND	ND	0.8	0.8	177.7	ND	ND	0	0
85688	2019-11-07T07:00:00	ND	ND	ND	ND	ND	1.1	0.3	168.6	ND	ND	5.5	0
85689	2019-11-07T08:00:00	ND	ND	ND	ND	ND	4.3	1	182.7	ND	ND	102.1	0
85690	2019-11-07T09:00:00	ND	ND	ND	ND	ND	ND	1.5	190.5	ND	ND	412.2	0
85691	2019-11-07T10:00:00	ND	ND	ND	ND	ND	ND	1.4	176.7	ND	ND	588.8	0
85692	2019-11-07T11:00:00	ND	ND	ND	ND	ND	ND	1.1	151.4	ND	ND	646	0
85693	2019-11-07T12:00:00	ND	ND	ND	ND	ND	ND	1	126.5	ND	ND	649.2	0
85694	2019-11-07T13:00:00	ND	ND	ND	ND	ND	ND	1.2	170.9	ND	ND	645.5	0
85695	2019-11-07T14:00:00	ND	ND	ND	ND	ND	ND	1.4	164.6	ND	ND	650	0
85696	2019-11-07T15:00:00	ND	ND	ND	ND	ND	ND	1.6	114.8	ND	ND	649.9	0
85697	2019-11-07T16:00:00	ND	ND	ND	ND	ND	ND	1.2	337.9	ND	ND	616.1	0
85698	2019-11-07T17:00:00	ND	ND	ND	ND	ND	ND	3.9	335.4	ND	ND	613.4	0
85699	2019-11-07T18:00:00	ND	ND	ND	ND	ND	ND	3.3	330.9	ND	ND	300.8	0
85700	2019-11-07T19:00:00	ND	ND	ND	ND	ND	ND	3.8	330.6	ND	ND	0	0
85701	2019-11-07T20:00:00	ND	ND	ND	ND	ND	ND	2.6	336.6	ND	ND	0	0
85702	2019-11-07T21:00:00	ND	ND	ND	ND	ND	ND	1.4	341.7	ND	ND	0	0
85703	2019-11-07T22:00:00	ND	ND	ND	ND	ND	ND	0.8	332.6	ND	ND	0	0
85704	2019-11-07T23:00:00	ND	ND	ND	ND	ND	ND	0.8	297.1	ND	ND	0	0
85705	2019-11-08T00:00:00	ND	ND	ND	ND	ND	ND	0.7	69.6	ND	ND	0	0
85706	2019-11-08T01:00:00	ND	ND	ND	ND	ND	ND	1	226.5	ND	ND	0	0
85707	2019-11-08T02:00:00	ND	ND	ND	ND	ND	ND	0.7	204.8	ND	ND	0	0
85708	2019-11-08T03:00:00	ND	ND	ND	ND	ND	ND	0.8	184.6	ND	ND	0	0
85709	2019-11-08T04:00:00	ND	ND	ND	ND	ND	ND	0.7	134.8	ND	ND	0	0
85710	2019-11-08T05:00:00	ND	ND	ND	ND	ND	ND	0.9	304.7	ND	ND	0	0
85711	2019-11-08T06:00:00	ND	ND	ND	ND	ND	ND	0.7	278.1	ND	ND	0	0
85712	2019-11-08T07:00:00	ND	ND	ND	ND	ND	ND	0.9	331.5	ND	ND	0	0
85713	2019-11-08T08:00:00	ND	ND	ND	ND	ND	ND	0.6	190.6	ND	ND	174	0
85714	2019-11-08T09:00:00	ND	ND	ND	ND	ND	ND	0.8	101.5	ND	ND	636.7	0
85715	2019-11-08T10:00:00	ND	ND	ND	ND	ND	ND	1.1	150.7	ND	ND	460.7	0
85716	2019-11-08T11:00:00	ND	ND	ND	ND	ND	ND	1.1	195.6	ND	ND	640	0
85717	2019-11-08T12:00:00	ND	ND	ND	ND	ND	ND	0.4	138.1	ND	ND	649.3	0
85718	2019-11-08T13:00:00	ND	ND	ND	ND	ND	ND	0.6	110.7	ND	ND	412.5	0
85719	2019-11-08T14:00:00	ND	ND	ND	ND	ND	ND	0.9	19.9	ND	ND	624.7	0
85720	2019-11-08T15:00:00	ND	ND	ND	ND	ND	ND	1.5	355.6	ND	ND	513.7	0
85721	2019-11-08T16:00:00	ND	ND	ND	ND	ND	ND	4.3	330.8	ND	ND	604.8	0
85722	2019-11-08T17:00:00	ND	ND	ND	ND	ND	ND	5.3	324.3	ND	ND	649.7	0
85723	2019-11-08T18:00:00	ND	ND	ND	ND	ND	ND	5.2	328.8	ND	ND	198.7	0
85724	2019-11-08T19:00:00	ND	ND	ND	ND	ND	ND	4	332.9	ND	ND	0	0
85725	2019-11-08T20:00:00	ND	ND	ND	ND	ND	ND	3.6	321.2	ND	ND	0	0
85726	2019-11-08T21:00:00	ND	ND	ND	ND	ND	ND	2.6	263.9	ND	ND	0	0
85727	2019-11-08T22:00:00	ND	ND	ND	ND	ND	ND	2.2	229	ND	ND	0	0
85728	2019-11-08T23:00:00	ND	ND	ND	ND	ND	ND	2.2	243.2	ND	ND	0	0
85729	2019-11-09T00:00:00	ND	ND	ND	ND	ND	ND	1.1	235.9	ND	ND	0	0
85730	2019-11-09T01:00:00	ND	ND	ND	ND	ND	ND	1.3	175.3	ND	ND	0	0
85731	2019-11-09T02:00:00	ND	ND	ND	ND	ND	ND	0.4	72.3	ND	ND	0	0
85732	2019-11-09T03:00:00	ND	ND	ND	ND	ND	ND	2.8	81.4	ND	ND	0	35.81
85733	2019-11-09T04:00:00	ND	ND	ND	ND	ND	ND	0.9	56.7	ND	ND	0	28.7
85734	2019-11-09T05:00:00	ND	ND	ND	ND	ND	ND	0.7	67.5	ND	ND	0	0.76
85735	2019-11-09T06:00:00	ND	ND	ND	ND	ND	ND	0.9	130.3	ND	ND	0	0
85736	2019-11-09T07:00:00	ND	ND	ND	ND	ND	ND	0.9	236.4	ND	ND	0	0
85737	2019-11-09T08:00:00	ND	ND	ND	ND	ND	ND	0.9	212.4	ND	ND	40.4	0
85738	2019-11-09T09:00:00	ND	ND	ND	ND	ND	ND	0.6	139.3	ND	ND	110.5	0
85739	2019-11-09T10:00:00	ND	ND	ND	ND	ND	ND	1.6	84	ND	ND	282.9	0
85740	2019-11-09T11:00:00	ND	ND	ND	ND	ND	ND	1.1	69.7	ND	ND	464.6	0
85741	2019-11-09T12:00:00	ND	ND	ND	ND	ND	ND	0.6	147	ND	ND	587.7	0
85742	2019-11-09T13:00:00	ND	ND	ND	ND	ND	ND	1.5	104.1	ND	ND	649.5	0
85743	2019-11-09T14:00:00	ND	ND	ND	ND	ND	ND	1.4	68.6	ND	ND	649.6	0
85744	2019-11-09T15:00:00	ND	ND	ND	ND	ND	ND	0.9	63.5	ND	ND	649.5	0
85745	2019-11-09T16:00:00	ND	ND	ND	ND	ND	ND	2.1	334	ND	ND	560.9	0
85746	2019-11-09T17:00:00	ND	ND	ND	ND	ND	ND	2.2	311.7	ND	ND	447.8	0
85747	2019-11-09T18:00:00	ND	ND	ND	ND	ND	ND	0.9	308.8	ND	ND	0	0
85748	2019-11-09T19:00:00	ND	ND	ND	ND	ND	ND	0.9	211	ND	ND	0	0
85749	2019-11-09T20:00:00	ND	ND	ND	ND	ND	ND	2.2	232	ND	ND	0	0
85750	2019-11-09T21:00:00	ND	ND	ND	ND	ND	ND	2	224.8	ND	ND	0	5.33
85751	2019-11-09T22:00:00	ND	ND	ND	ND	ND	ND	1.5	237.8	ND	ND	0	3.3
85752	2019-11-09T23:00:00	ND	ND	ND	ND	ND	ND	1	214	ND	ND	0	9.14
85753	2019-11-10T00:00:00	ND	ND	ND	ND	ND	ND	0.9	201.9	ND	ND	0	3.81
85754	2019-11-10T01:00:00	ND	ND	ND	ND	ND	ND	0.4	279	ND	ND	0	0.25
85755	2019-11-10T02:00:00	ND	ND	ND	ND	ND	ND	0.9	100	ND	ND	0	0.25
85756	2019-11-10T03:00:00	ND	ND	ND	ND	ND	ND	1.2	123.6	ND	ND	0	0
85757	2019-11-10T04:00:00	ND	ND	ND	ND	ND	ND	0.6	135.2	ND	ND	0	0.76
85758	2019-11-10T05:00:00	ND	ND	ND	ND	ND	ND	0.6	164.4	ND	ND	0	0
85759	2019-11-10T06:00:00	ND	ND	ND	ND	ND	ND	0.2	245.6	ND	ND	0	0
85760	2019-11-10T07:00:00	ND	ND	ND	ND	ND	ND	1.1	291.7	ND	ND	0	0
85761	2019-11-10T08:00:00	ND	ND	ND	ND	ND	ND	0.7	240.5	ND	ND	120.6	0.25
85762	2019-11-10T09:00:00	ND	ND	ND	ND	ND	ND	1.3	168.3	ND	ND	545.2	0
85763	2019-11-10T10:00:00	ND	ND	ND	ND	ND	ND	1	177.4	ND	ND	649.1	0
85764	2019-11-10T11:00:00	ND	ND	ND	ND	ND	ND	0.8	164.3	ND	ND	648.2	0
85765	2019-11-10T12:00:00	ND	ND	ND	ND	ND	ND	1.4	79.1	ND	ND	649.8	0
85766	2019-11-10T13:00:00	ND	ND	ND	ND	ND	ND	2.2	62.1	ND	ND	646	0
85767	2019-11-10T14:00:00	ND	ND	ND	ND	ND	ND	1.9	345.9	ND	ND	613.9	0
85768	2019-11-10T15:00:00	ND	ND	ND	ND	ND	ND	3.5	330.1	ND	ND	631.7	0
85769	2019-11-10T16:00:00	ND	ND	ND	ND	ND	ND	3.3	347.3	ND	ND	514.1	0
85770	2019-11-10T17:00:00	ND	ND	ND	ND	ND	ND	2.8	345	ND	ND	624	0
85771	2019-11-10T18:00:00	ND	ND	ND	ND	ND	ND	2.9	326.8	ND	ND	305	0
85772	2019-11-10T19:00:00	ND	ND	ND	ND	ND	ND	3.6	320.8	ND	ND	0	0
85773	2019-11-10T20:00:00	ND	ND	ND	ND	ND	ND	3	325.3	ND	ND	0	0
85774	2019-11-10T21:00:00	ND	ND	ND	ND	ND	ND	2	318.6	ND	ND	0	0
85775	2019-11-10T22:00:00	ND	ND	ND	ND	ND	ND	1.5	281.2	ND	ND	0	0
85776	2019-11-10T23:00:00	ND	ND	ND	ND	ND	ND	0.7	293.2	ND	ND	0	0
85777	2019-11-11T00:00:00	ND	ND	ND	ND	ND	ND	1.2	78.2	ND	ND	0	0
85778	2019-11-11T01:00:00	ND	ND	ND	ND	ND	ND	0.6	86	ND	ND	0	0
85779	2019-11-11T02:00:00	ND	ND	ND	ND	ND	ND	0.9	229.8	ND	ND	0	0
85780	2019-11-11T03:00:00	ND	ND	ND	ND	ND	ND	0.7	187.7	ND	ND	0	0
85781	2019-11-11T04:00:00	ND	ND	ND	ND	ND	ND	0.6	225.2	ND	ND	0	0
85782	2019-11-11T05:00:00	ND	ND	ND	ND	ND	ND	0.9	196.3	ND	ND	0	0
85783	2019-11-11T06:00:00	ND	ND	ND	ND	ND	ND	0.5	226.9	ND	ND	0	0
85784	2019-11-11T07:00:00	ND	ND	ND	ND	ND	ND	0.1	153.6	ND	ND	0	0
85785	2019-11-11T08:00:00	ND	ND	ND	ND	ND	ND	0.8	113.3	ND	ND	51.7	0
85786	2019-11-11T09:00:00	ND	ND	ND	ND	ND	ND	0.5	156.3	ND	ND	185.7	0
85787	2019-11-11T10:00:00	ND	ND	ND	ND	ND	ND	1	185.7	ND	ND	544.9	0
85788	2019-11-11T11:00:00	ND	ND	ND	ND	ND	ND	0.5	182.5	ND	ND	629	0
85789	2019-11-11T12:00:00	ND	ND	ND	ND	ND	ND	1	188.9	ND	ND	649.4	0
85790	2019-11-11T13:00:00	ND	ND	ND	ND	ND	ND	0.8	196.3	ND	ND	649.1	0
85791	2019-11-11T14:00:00	ND	ND	ND	ND	ND	ND	1.1	153.3	ND	ND	649.2	0
85792	2019-11-11T15:00:00	ND	ND	ND	ND	ND	ND	0.9	358.4	ND	ND	549.1	0
85793	2019-11-11T16:00:00	ND	ND	ND	ND	ND	ND	3.6	325.7	ND	ND	505.2	0
85794	2019-11-11T17:00:00	ND	ND	ND	ND	ND	ND	2.4	344.7	ND	ND	135.8	0
85795	2019-11-11T18:00:00	ND	ND	ND	ND	ND	ND	1.7	331.2	ND	ND	159.7	0
85796	2019-11-11T19:00:00	ND	ND	ND	ND	ND	ND	1.4	331.9	ND	ND	0	0
85797	2019-11-11T20:00:00	ND	ND	ND	ND	ND	ND	1.5	331.2	ND	ND	0	0
85798	2019-11-11T21:00:00	ND	ND	ND	ND	ND	ND	1.5	306.9	ND	ND	0	0
85799	2019-11-11T22:00:00	ND	ND	ND	ND	ND	ND	1.3	301.8	ND	ND	0	0
85800	2019-11-11T23:00:00	ND	ND	ND	ND	ND	ND	0.9	63.4	ND	ND	0	0
85801	2019-11-12T00:00:00	ND	ND	ND	ND	ND	ND	0.9	216.8	ND	ND	0	0
85802	2019-11-12T01:00:00	ND	ND	ND	ND	ND	ND	1.6	230.2	ND	ND	0	0
85803	2019-11-12T02:00:00	ND	ND	ND	ND	ND	ND	0.9	189.1	ND	ND	0	0
85804	2019-11-12T03:00:00	ND	ND	ND	ND	ND	ND	0.4	77	ND	ND	0	11.94
85805	2019-11-12T04:00:00	ND	ND	ND	ND	ND	ND	0.9	14.8	ND	ND	0	39.88
85806	2019-11-12T05:00:00	ND	ND	ND	ND	ND	ND	0.4	43.8	ND	ND	0	0.51
85807	2019-11-12T06:00:00	ND	ND	ND	ND	ND	ND	0.8	104.7	ND	ND	0	0.25
85808	2019-11-12T07:00:00	ND	ND	ND	ND	ND	ND	1.2	107.4	ND	ND	0	0.25
85809	2019-11-12T08:00:00	ND	ND	ND	ND	ND	ND	0.6	140.9	ND	ND	15.2	0.25
85810	2019-11-12T09:00:00	ND	ND	ND	ND	ND	ND	0.7	225.5	ND	ND	105.8	0.25
85811	2019-11-12T10:00:00	ND	ND	ND	ND	ND	ND	0.7	270.8	ND	ND	142.5	0
85812	2019-11-12T11:00:00	ND	ND	ND	ND	ND	ND	0.6	257.1	ND	ND	365.5	0
85813	2019-11-12T12:00:00	ND	ND	ND	ND	ND	ND	1	185.5	ND	ND	648	0
85814	2019-11-12T13:00:00	ND	ND	ND	ND	ND	ND	0.9	239.7	ND	ND	649.7	0
85815	2019-11-12T14:00:00	ND	ND	ND	ND	ND	ND	0.2	169.1	ND	ND	649.7	0
85816	2019-11-12T15:00:00	ND	ND	ND	ND	ND	ND	1.4	25.4	ND	ND	603.8	0
85817	2019-11-12T16:00:00	ND	ND	ND	ND	ND	ND	1.3	7.5	ND	ND	497.4	0
85818	2019-11-12T17:00:00	ND	ND	ND	ND	ND	ND	1.3	44.6	ND	ND	339.7	0
85819	2019-11-12T18:00:00	ND	ND	ND	ND	ND	ND	0.9	110	ND	ND	0	0
85820	2019-11-12T19:00:00	ND	ND	ND	ND	ND	ND	0.8	116.2	ND	ND	0	0
85821	2019-11-12T20:00:00	ND	ND	ND	ND	ND	ND	1.8	241.8	ND	ND	0	0.51
85822	2019-11-12T21:00:00	ND	ND	ND	ND	ND	ND	1.7	238.5	ND	ND	0	0.51
85823	2019-11-12T22:00:00	ND	ND	ND	ND	ND	ND	1.4	236	ND	ND	0	0
85824	2019-11-12T23:00:00	ND	ND	ND	ND	ND	ND	0.9	184.1	ND	ND	0	0.25
85825	2019-11-13T00:00:00	ND	ND	ND	ND	ND	ND	0.6	204.4	ND	ND	0	0
85826	2019-11-13T01:00:00	ND	ND	ND	ND	ND	ND	0.6	216.2	ND	ND	0	0
85827	2019-11-13T02:00:00	ND	ND	ND	ND	ND	ND	0.9	224.4	ND	ND	0	0.76
85828	2019-11-13T03:00:00	ND	ND	ND	ND	ND	ND	0.7	221.4	ND	ND	0	1.78
85829	2019-11-13T04:00:00	ND	ND	ND	ND	ND	ND	0.6	186.9	ND	ND	0	0.51
85830	2019-11-13T05:00:00	ND	ND	ND	ND	ND	ND	0.3	158.1	ND	ND	0	0
85831	2019-11-13T06:00:00	ND	ND	ND	ND	ND	ND	0.8	186.9	ND	ND	0	0
85832	2019-11-13T07:00:00	ND	ND	ND	ND	ND	ND	0.9	202.4	ND	ND	0	0
85833	2019-11-13T08:00:00	ND	ND	ND	ND	ND	ND	0.1	300.5	ND	ND	37.7	0
85834	2019-11-13T09:00:00	ND	ND	ND	ND	ND	ND	0.7	156.3	ND	ND	249.3	0.25
85835	2019-11-13T10:00:00	ND	ND	ND	ND	ND	ND	1	176.7	ND	ND	483.4	0
85836	2019-11-13T11:00:00	ND	ND	ND	ND	ND	ND	0.9	160.6	ND	ND	610.7	0
85837	2019-11-13T12:00:00	ND	ND	ND	ND	ND	ND	1.4	161.5	ND	ND	649.5	0
85838	2019-11-13T13:00:00	ND	ND	ND	ND	ND	ND	1.2	107.9	ND	ND	649.8	0
85839	2019-11-13T14:00:00	ND	ND	ND	ND	ND	ND	4.1	326.5	ND	ND	530.5	2.54
85840	2019-11-13T15:00:00	ND	ND	ND	ND	ND	ND	2	338.8	ND	ND	88.3	1.78
85841	2019-11-13T16:00:00	ND	ND	ND	ND	ND	ND	0.4	266.2	ND	ND	157.7	0
85842	2019-11-13T17:00:00	ND	ND	ND	ND	ND	ND	1.4	231.8	ND	ND	219.4	2.54
85843	2019-11-13T18:00:00	ND	ND	ND	ND	ND	ND	0.8	113	ND	ND	70.3	0.25
85844	2019-11-13T19:00:00	ND	ND	ND	ND	ND	ND	0.7	88.3	ND	ND	0	0
85845	2019-11-13T20:00:00	ND	ND	ND	ND	ND	ND	0.6	333	ND	ND	0	0
85846	2019-11-13T21:00:00	ND	ND	ND	ND	ND	ND	1.1	269.8	ND	ND	0	0
85847	2019-11-13T22:00:00	ND	ND	ND	ND	ND	ND	0.5	296.8	ND	ND	0	0
85848	2019-11-13T23:00:00	ND	ND	ND	ND	ND	ND	0.4	22.5	ND	ND	0	0
85849	2019-11-14T00:00:00	ND	ND	ND	ND	ND	ND	0.3	292.9	ND	ND	0	0
85850	2019-11-14T01:00:00	ND	ND	ND	ND	ND	ND	0.3	226.9	ND	ND	0	0
85851	2019-11-14T02:00:00	ND	ND	ND	ND	ND	ND	0.4	37.6	ND	ND	0	0.25
85852	2019-11-14T03:00:00	ND	ND	ND	ND	ND	ND	0.5	69.1	ND	ND	0	0
85853	2019-11-14T04:00:00	ND	ND	ND	ND	ND	ND	0.2	76.8	ND	ND	0	0
85854	2019-11-14T05:00:00	ND	ND	ND	ND	ND	ND	0.3	94	ND	ND	0	0
85855	2019-11-14T06:00:00	ND	ND	ND	ND	ND	ND	0.4	267.9	ND	ND	0	0
85856	2019-11-14T07:00:00	ND	ND	ND	ND	ND	ND	0.5	205.3	ND	ND	0	0
85857	2019-11-14T08:00:00	ND	ND	ND	ND	ND	ND	0.4	210.1	ND	ND	71.8	0
85858	2019-11-14T09:00:00	ND	ND	ND	ND	ND	ND	0.5	230.7	ND	ND	296.5	0
85859	2019-11-14T10:00:00	ND	ND	ND	ND	ND	ND	0.6	196	ND	ND	565.3	0
85860	2019-11-14T11:00:00	ND	ND	ND	ND	ND	ND	0.7	180.9	ND	ND	649.6	0
85861	2019-11-14T12:00:00	ND	ND	ND	ND	ND	ND	0.6	207.3	ND	ND	649.4	0
85862	2019-11-14T13:00:00	ND	ND	ND	ND	ND	ND	1.1	104	ND	ND	649.8	0
85863	2019-11-14T14:00:00	ND	ND	ND	ND	ND	ND	1	20.2	ND	ND	599.8	0
85864	2019-11-14T15:00:00	ND	ND	ND	ND	ND	ND	0.5	80	ND	ND	377.2	0
85865	2019-11-14T16:00:00	ND	ND	ND	ND	ND	ND	1	65	ND	ND	310	0
85866	2019-11-14T17:00:00	ND	ND	ND	ND	ND	ND	2.2	343.9	ND	ND	489.2	0
85867	2019-11-14T18:00:00	ND	ND	ND	ND	ND	ND	1.9	324.1	ND	ND	168	0
85868	2019-11-14T19:00:00	ND	ND	ND	ND	ND	ND	3.1	316.4	ND	ND	0	0
85869	2019-11-14T20:00:00	ND	ND	ND	ND	ND	ND	2.3	315.3	ND	ND	0	0
85870	2019-11-14T21:00:00	ND	ND	ND	ND	ND	ND	2.2	320	ND	ND	0	0
85871	2019-11-14T22:00:00	ND	ND	ND	ND	ND	ND	1.1	338.7	ND	ND	0	0
85872	2019-11-14T23:00:00	ND	ND	ND	ND	ND	ND	0.4	59.5	ND	ND	0	0
85873	2019-11-15T00:00:00	ND	ND	ND	ND	ND	ND	0.7	203.2	ND	ND	0	0
85874	2019-11-15T01:00:00	ND	ND	ND	ND	ND	ND	0.9	221.7	ND	ND	0	0
85875	2019-11-15T02:00:00	ND	ND	ND	ND	ND	ND	0.6	216.4	ND	ND	0	0
85876	2019-11-15T03:00:00	ND	ND	ND	ND	ND	ND	0.7	133.9	ND	ND	0	0
85877	2019-11-15T04:00:00	ND	ND	ND	ND	ND	ND	0.7	108.4	ND	ND	0	0
85878	2019-11-15T05:00:00	ND	ND	ND	ND	ND	ND	0.7	132.6	ND	ND	0	0
85879	2019-11-15T06:00:00	ND	ND	ND	ND	ND	ND	1.1	117.7	ND	ND	0	0
85880	2019-11-15T07:00:00	ND	ND	ND	ND	ND	ND	1.1	115.3	ND	ND	0	0
85881	2019-11-15T08:00:00	ND	ND	ND	ND	ND	ND	0.8	149	ND	ND	43.1	0
85882	2019-11-15T09:00:00	ND	ND	ND	ND	ND	ND	1	198	ND	ND	84.9	0
85883	2019-11-15T10:00:00	ND	ND	ND	ND	ND	ND	0.7	283.6	ND	ND	280.5	0
85884	2019-11-15T11:00:00	ND	ND	ND	ND	ND	ND	0.3	237.1	ND	ND	611	0
85885	2019-11-15T12:00:00	ND	ND	ND	ND	ND	ND	0.2	112.2	ND	ND	649.6	0
85886	2019-11-15T13:00:00	ND	ND	ND	ND	ND	ND	1.5	105.6	ND	ND	646.3	0
85887	2019-11-15T14:00:00	ND	ND	ND	ND	ND	ND	1.8	75.3	ND	ND	590.6	0
85888	2019-11-15T15:00:00	ND	ND	ND	ND	ND	ND	2.6	79.4	ND	ND	635.8	0
85889	2019-11-15T16:00:00	ND	ND	ND	ND	ND	ND	2	18.7	ND	ND	600.3	0
85890	2019-11-15T17:00:00	ND	ND	ND	ND	ND	ND	2	314.1	ND	ND	437.9	0.51
85891	2019-11-15T18:00:00	ND	ND	ND	ND	ND	ND	2.6	320.1	ND	ND	140.4	14.99
85892	2019-11-15T19:00:00	ND	ND	ND	ND	ND	ND	0.7	307.1	ND	ND	0	13.97
85893	2019-11-15T20:00:00	ND	ND	ND	ND	ND	ND	0.2	37.3	ND	ND	0	0
85894	2019-11-15T21:00:00	ND	ND	ND	ND	ND	ND	1.4	231	ND	ND	0	0
85895	2019-11-15T22:00:00	ND	ND	ND	ND	ND	ND	1.3	209.5	ND	ND	0	0.25
85896	2019-11-15T23:00:00	ND	ND	ND	ND	ND	ND	0.7	221.3	ND	ND	0	0
85897	2019-11-16T00:00:00	ND	ND	ND	ND	ND	ND	0.9	183.5	ND	ND	0	0
85898	2019-11-16T01:00:00	ND	ND	ND	ND	ND	ND	0.4	178.1	ND	ND	0	0
85899	2019-11-16T02:00:00	ND	ND	ND	ND	ND	ND	0.6	134.4	ND	ND	0	0
85900	2019-11-16T03:00:00	ND	ND	ND	ND	ND	ND	0.6	114.3	ND	ND	0	0
85901	2019-11-16T04:00:00	ND	ND	ND	ND	ND	ND	0.8	92.7	ND	ND	0	0.25
85902	2019-11-16T05:00:00	ND	ND	ND	ND	ND	ND	1.3	113.1	ND	ND	0	0
85903	2019-11-16T06:00:00	ND	ND	ND	ND	ND	ND	1.3	112.7	ND	ND	0	0.76
85904	2019-11-16T07:00:00	ND	ND	ND	ND	ND	ND	1.2	99.7	ND	ND	0	3.81
85905	2019-11-16T08:00:00	ND	ND	ND	ND	ND	ND	0.6	327.2	ND	ND	24.2	0.25
85906	2019-11-16T09:00:00	ND	ND	ND	ND	ND	ND	0.6	171	ND	ND	259.3	0
85907	2019-11-16T10:00:00	ND	ND	ND	ND	ND	ND	0.7	162.1	ND	ND	542.4	0
85908	2019-11-16T11:00:00	ND	ND	ND	ND	ND	ND	0.4	152.2	ND	ND	630	0
85909	2019-11-16T12:00:00	ND	ND	ND	ND	ND	ND	1.1	98.1	ND	ND	650.2	0
85910	2019-11-16T13:00:00	ND	ND	ND	ND	ND	ND	1	136.1	ND	ND	649	0
85911	2019-11-16T14:00:00	ND	ND	ND	ND	ND	ND	1.5	129	ND	ND	650.1	0
85912	2019-11-16T15:00:00	ND	ND	ND	ND	ND	ND	1.5	210	ND	ND	436.7	0
85913	2019-11-16T16:00:00	ND	ND	ND	ND	ND	ND	1.4	278.1	ND	ND	354.8	0
85914	2019-11-16T17:00:00	ND	ND	ND	ND	ND	ND	1.1	297.7	ND	ND	462	0
85915	2019-11-16T18:00:00	ND	ND	ND	ND	ND	ND	1.6	320.6	ND	ND	275.6	0
85916	2019-11-16T19:00:00	ND	ND	ND	ND	ND	ND	2	320.6	ND	ND	0	0
85917	2019-11-16T20:00:00	ND	ND	ND	ND	ND	ND	1.4	328.1	ND	ND	0	0
85918	2019-11-16T21:00:00	ND	ND	ND	ND	ND	ND	0.5	294.3	ND	ND	0	0
85919	2019-11-16T22:00:00	ND	ND	ND	ND	ND	ND	0.5	232.8	ND	ND	0	0
85920	2019-11-16T23:00:00	ND	ND	ND	ND	ND	ND	0.5	286.5	ND	ND	0	0
85921	2019-11-17T00:00:00	ND	ND	ND	ND	ND	ND	0.1	258.3	ND	ND	0	0
85922	2019-11-17T01:00:00	ND	ND	ND	ND	ND	ND	0.5	346.9	ND	ND	0	0
85923	2019-11-17T02:00:00	ND	ND	ND	ND	ND	ND	0.1	263.1	ND	ND	0	0
85924	2019-11-17T03:00:00	ND	ND	ND	ND	ND	ND	0.4	151.6	ND	ND	0	0
85925	2019-11-17T04:00:00	ND	ND	ND	ND	ND	ND	0.3	141.8	ND	ND	0	0
85926	2019-11-17T05:00:00	ND	ND	ND	ND	ND	ND	0.5	145	ND	ND	0	0
85927	2019-11-17T06:00:00	ND	ND	ND	ND	ND	ND	0.4	59.3	ND	ND	0	0
85928	2019-11-17T07:00:00	ND	ND	ND	ND	ND	ND	0.6	314.1	ND	ND	0	0
85929	2019-11-17T08:00:00	ND	ND	ND	ND	ND	ND	0.2	215.8	ND	ND	102.1	0
85930	2019-11-17T09:00:00	ND	ND	ND	ND	ND	ND	1	227.5	ND	ND	508.1	0
85931	2019-11-17T10:00:00	ND	ND	ND	ND	ND	ND	0.5	299.8	ND	ND	503.1	0
85932	2019-11-17T11:00:00	ND	ND	ND	ND	ND	ND	0.4	275.4	ND	ND	342.3	0
85933	2019-11-17T12:00:00	ND	ND	ND	ND	ND	ND	0.3	221.8	ND	ND	390.8	0
85934	2019-11-17T13:00:00	ND	ND	ND	ND	ND	ND	0.9	345.7	ND	ND	569.1	0
85935	2019-11-17T14:00:00	ND	ND	ND	ND	ND	ND	0.1	10.5	ND	ND	520.6	0
85936	2019-11-17T15:00:00	ND	ND	ND	ND	ND	ND	2.3	319.6	ND	ND	644.3	0
85937	2019-11-17T16:00:00	ND	ND	ND	ND	ND	ND	2.3	338.7	ND	ND	616.9	0
85938	2019-11-17T17:00:00	ND	ND	ND	ND	ND	ND	0.7	41.2	ND	ND	496.4	0
85939	2019-11-17T18:00:00	ND	ND	ND	ND	ND	ND	1.1	139.6	ND	ND	0	0
85940	2019-11-17T19:00:00	ND	ND	ND	ND	ND	ND	1.2	246.7	ND	ND	0	0
85941	2019-11-17T20:00:00	ND	ND	ND	ND	ND	ND	2.5	245.9	ND	ND	0	0
85942	2019-11-17T21:00:00	ND	ND	ND	ND	ND	ND	1.8	235.1	ND	ND	0	0.51
85943	2019-11-17T22:00:00	ND	ND	ND	ND	ND	ND	0.9	246.6	ND	ND	0	3.56
85944	2019-11-17T23:00:00	ND	ND	ND	ND	ND	ND	0.7	267.3	ND	ND	0	0
85945	2019-11-18T00:00:00	ND	ND	ND	ND	ND	ND	0.7	293.7	ND	ND	0	0.25
85946	2019-11-18T01:00:00	ND	ND	ND	ND	ND	ND	0.4	294.2	ND	ND	0	0
85947	2019-11-18T02:00:00	ND	ND	ND	ND	ND	ND	0.5	206.2	ND	ND	0	0.25
85948	2019-11-18T03:00:00	ND	ND	ND	ND	ND	ND	0.7	223.3	ND	ND	0	0
85949	2019-11-18T04:00:00	ND	ND	ND	ND	ND	ND	0.3	134.6	ND	ND	0	0
85950	2019-11-18T05:00:00	ND	ND	ND	ND	ND	ND	0.4	114.7	ND	ND	0	0
85951	2019-11-18T06:00:00	ND	ND	ND	ND	ND	ND	0.9	130.4	ND	ND	0	0
85952	2019-11-18T07:00:00	ND	ND	ND	ND	ND	ND	0.5	271.3	ND	ND	0	0
85953	2019-11-18T08:00:00	ND	ND	ND	ND	ND	ND	0.8	289.4	ND	ND	50.4	0
85954	2019-11-18T09:00:00	ND	ND	ND	ND	ND	ND	0.9	265.2	ND	ND	136.2	0
85955	2019-11-18T10:00:00	ND	ND	ND	ND	ND	ND	0.9	217.4	ND	ND	537.7	0
85956	2019-11-18T11:00:00	ND	ND	ND	ND	ND	ND	0.6	310.4	ND	ND	649.2	0
85957	2019-11-18T12:00:00	ND	ND	ND	ND	ND	ND	1.1	203.6	ND	ND	649.5	0
85958	2019-11-18T13:00:00	ND	ND	ND	ND	ND	ND	0.8	170.7	ND	ND	648.6	0
85959	2019-11-18T14:00:00	ND	ND	ND	ND	ND	ND	1.1	75.9	ND	ND	634.6	0
85960	2019-11-18T15:00:00	ND	ND	ND	ND	ND	ND	1.4	2	ND	ND	474.5	0
85961	2019-11-18T16:00:00	ND	ND	ND	ND	ND	ND	3.8	331.6	ND	ND	591.4	0
85962	2019-11-18T17:00:00	ND	ND	ND	ND	ND	ND	4.3	329.6	ND	ND	649.5	0
85963	2019-11-18T18:00:00	ND	ND	ND	ND	ND	ND	3.4	331.8	ND	ND	0	0
85964	2019-11-18T19:00:00	ND	ND	ND	ND	ND	ND	2.4	328	ND	ND	0	0
85965	2019-11-18T20:00:00	ND	ND	ND	ND	ND	ND	2.6	281.3	ND	ND	0	0
85966	2019-11-18T21:00:00	ND	ND	ND	ND	ND	ND	1.6	236.1	ND	ND	0	0
85967	2019-11-18T22:00:00	ND	ND	ND	ND	ND	ND	0.3	182	ND	ND	0	0
85968	2019-11-18T23:00:00	ND	ND	ND	ND	ND	ND	1.7	52.2	ND	ND	0	0
85969	2019-11-19T00:00:00	ND	ND	ND	ND	ND	ND	1.4	77.2	ND	ND	0	0
85970	2019-11-19T01:00:00	ND	ND	ND	ND	ND	ND	0.7	89.3	ND	ND	0	0
85971	2019-11-19T02:00:00	ND	ND	ND	ND	ND	ND	0.2	242.7	ND	ND	0	0
85972	2019-11-19T03:00:00	ND	ND	ND	ND	ND	ND	0.1	90.4	ND	ND	0	0
85973	2019-11-19T04:00:00	ND	ND	ND	ND	ND	ND	0.6	284.7	ND	ND	0	0
85974	2019-11-19T05:00:00	ND	ND	ND	ND	ND	ND	0.9	300.8	ND	ND	0	0
85975	2019-11-19T06:00:00	ND	ND	ND	ND	ND	ND	0.8	83.1	ND	ND	0	0
85976	2019-11-19T07:00:00	ND	ND	ND	ND	ND	ND	0.4	18.5	ND	ND	0	0
85977	2019-11-19T08:00:00	ND	ND	ND	ND	ND	ND	1.2	100.2	ND	ND	41.5	0
85978	2019-11-19T09:00:00	ND	ND	ND	ND	ND	ND	1.2	98.7	ND	ND	436.9	0
85979	2019-11-19T10:00:00	ND	ND	ND	ND	ND	ND	1.2	120.7	ND	ND	649.1	0
85980	2019-11-19T11:00:00	ND	ND	ND	ND	ND	ND	1.3	116.9	ND	ND	647.6	0
85981	2019-11-19T12:00:00	ND	ND	ND	ND	ND	ND	1	117.5	ND	ND	631.3	0
85982	2019-11-19T13:00:00	ND	ND	ND	ND	ND	ND	0.7	166.5	ND	ND	597.1	0
85983	2019-11-19T14:00:00	ND	ND	ND	ND	ND	ND	1.2	156.3	ND	ND	593.4	0
85984	2019-11-19T15:00:00	ND	ND	ND	ND	ND	ND	1.2	256.3	ND	ND	638.5	0
85985	2019-11-19T16:00:00	ND	ND	ND	ND	ND	ND	1.7	306.8	ND	ND	282.7	2.29
85986	2019-11-19T17:00:00	ND	ND	ND	ND	ND	ND	3.1	331.9	ND	ND	418.7	0
85987	2019-11-19T18:00:00	ND	ND	ND	ND	ND	ND	3.3	319.4	ND	ND	301.3	0
85988	2019-11-19T19:00:00	ND	ND	ND	ND	ND	ND	1.1	339.3	ND	ND	0	0
85989	2019-11-19T20:00:00	ND	ND	ND	ND	ND	ND	1.8	104.3	ND	ND	0	0
85990	2019-11-19T21:00:00	ND	ND	ND	ND	ND	ND	1.3	127	ND	ND	0	0
85991	2019-11-19T22:00:00	ND	ND	ND	ND	ND	ND	0.8	133.1	ND	ND	0	0
85992	2019-11-19T23:00:00	ND	ND	ND	ND	ND	ND	1	190.2	ND	ND	0	0
85993	2019-11-20T00:00:00	ND	ND	ND	ND	ND	ND	1.3	249.2	ND	ND	0	0
85994	2019-11-20T01:00:00	ND	ND	ND	ND	ND	ND	1.3	232.5	ND	ND	0	0
85995	2019-11-20T02:00:00	ND	ND	ND	ND	ND	ND	0.6	209.6	ND	ND	0	0
85996	2019-11-20T03:00:00	ND	ND	ND	ND	ND	ND	0.7	114.3	ND	ND	0	0
85997	2019-11-20T04:00:00	ND	ND	ND	ND	ND	ND	0.8	168.4	ND	ND	0	0
85998	2019-11-20T05:00:00	ND	ND	ND	ND	ND	ND	0.6	199.1	ND	ND	0	0
85999	2019-11-20T06:00:00	ND	ND	ND	ND	ND	ND	0.3	152.6	ND	ND	0	0
86000	2019-11-20T07:00:00	ND	ND	ND	ND	ND	ND	0.5	143.3	ND	ND	0	0
86001	2019-11-20T08:00:00	ND	ND	ND	ND	ND	ND	0.2	152.1	ND	ND	98.5	0
86002	2019-11-20T09:00:00	ND	ND	ND	ND	ND	ND	0.9	110.2	ND	ND	256.4	0
86003	2019-11-20T10:00:00	ND	ND	ND	ND	ND	ND	1	184.7	ND	ND	426.8	0
86004	2019-11-20T11:00:00	ND	ND	ND	ND	ND	ND	1.3	211.3	ND	ND	649.6	0
86005	2019-11-20T12:00:00	ND	ND	ND	ND	ND	ND	0.8	176.8	ND	ND	644.2	0
86006	2019-11-20T13:00:00	ND	ND	ND	ND	ND	ND	1.4	143.7	ND	ND	645.9	0
86007	2019-11-20T14:00:00	ND	ND	ND	ND	ND	ND	1.2	135.6	ND	ND	649.1	0
86008	2019-11-20T15:00:00	ND	ND	ND	ND	ND	ND	1.1	66.7	ND	ND	649.5	0
86009	2019-11-20T16:00:00	ND	ND	ND	ND	ND	ND	2.5	338.9	ND	ND	402.7	0
86010	2019-11-20T17:00:00	ND	ND	ND	ND	ND	ND	3.2	326.5	ND	ND	447.4	0
86011	2019-11-20T18:00:00	ND	ND	ND	ND	ND	ND	1.9	323.8	ND	ND	283.5	0
86012	2019-11-20T19:00:00	ND	ND	ND	ND	ND	ND	1.4	325.9	ND	ND	0	0
86013	2019-11-20T20:00:00	ND	ND	ND	ND	ND	ND	2.8	318.2	ND	ND	0	0
86014	2019-11-20T21:00:00	ND	ND	ND	ND	ND	ND	1	345.4	ND	ND	0	0
86015	2019-11-20T22:00:00	ND	ND	ND	ND	ND	ND	1.2	282.4	ND	ND	0	0
86016	2019-11-20T23:00:00	ND	ND	ND	ND	ND	ND	1.2	273.7	ND	ND	0	0
86017	2019-11-21T00:00:00	ND	ND	ND	ND	ND	ND	0.4	26.6	ND	ND	0	0
86018	2019-11-21T01:00:00	ND	ND	ND	ND	ND	ND	1	220.2	ND	ND	0	0
86019	2019-11-21T02:00:00	ND	ND	ND	ND	ND	ND	0.4	260.3	ND	ND	0	0
86020	2019-11-21T03:00:00	ND	ND	ND	ND	ND	ND	0.9	191.7	ND	ND	0	0
86021	2019-11-21T04:00:00	ND	ND	ND	ND	ND	ND	0.8	213.1	ND	ND	0	0
86022	2019-11-21T05:00:00	ND	ND	ND	ND	ND	ND	0.8	185.8	ND	ND	0	0
86023	2019-11-21T06:00:00	ND	ND	ND	ND	ND	ND	0.8	186.4	ND	ND	0	0
86024	2019-11-21T07:00:00	ND	ND	ND	ND	ND	ND	0.4	179.6	ND	ND	0	0
86025	2019-11-21T08:00:00	ND	ND	ND	ND	ND	ND	0.6	197.6	ND	ND	68.2	0
86026	2019-11-21T09:00:00	ND	ND	ND	ND	ND	ND	0.9	187.5	ND	ND	233.1	0
86027	2019-11-21T10:00:00	ND	ND	ND	ND	ND	ND	1	182.5	ND	ND	485.7	0
86028	2019-11-21T11:00:00	ND	ND	ND	ND	ND	ND	1.1	194.7	ND	ND	649.5	0
86029	2019-11-21T12:00:00	ND	ND	ND	ND	ND	ND	0.2	248.6	ND	ND	649.7	0
86030	2019-11-21T13:00:00	ND	ND	ND	ND	ND	ND	1.1	44.2	ND	ND	647.9	0
86031	2019-11-21T14:00:00	ND	ND	ND	ND	ND	ND	1	21.4	ND	ND	459	0
86032	2019-11-21T15:00:00	ND	ND	ND	ND	ND	ND	2.7	354	ND	ND	628.5	0
86033	2019-11-21T16:00:00	ND	ND	ND	ND	ND	ND	4	333.7	ND	ND	645	0
86034	2019-11-21T17:00:00	ND	ND	ND	ND	ND	ND	4	338.8	ND	ND	613.2	0
86035	2019-11-21T18:00:00	ND	ND	ND	ND	ND	ND	3.7	333.8	ND	ND	233.4	0
86036	2019-11-21T19:00:00	ND	ND	ND	ND	ND	ND	3.9	332.3	ND	ND	0	0
86037	2019-11-21T20:00:00	ND	ND	ND	ND	ND	ND	2.9	333.3	ND	ND	0	0
86038	2019-11-21T21:00:00	ND	ND	ND	ND	ND	ND	2.4	300	ND	ND	0	0
86039	2019-11-21T22:00:00	ND	ND	ND	ND	ND	ND	0.8	231	ND	ND	0	0
86040	2019-11-21T23:00:00	ND	ND	ND	ND	ND	ND	1.5	220.2	ND	ND	0	0
86041	2019-11-22T00:00:00	ND	ND	ND	ND	ND	ND	0.5	276.6	ND	ND	0	0
86042	2019-11-22T01:00:00	ND	ND	ND	ND	ND	ND	0.5	110.9	ND	ND	0	0
86043	2019-11-22T02:00:00	ND	ND	ND	ND	ND	ND	1.3	115.3	ND	ND	0	0
86044	2019-11-22T03:00:00	ND	ND	ND	ND	ND	ND	0.8	97.8	ND	ND	0	0
86045	2019-11-22T04:00:00	ND	ND	ND	ND	ND	ND	1.2	71.3	ND	ND	0	0
86046	2019-11-22T05:00:00	ND	ND	ND	ND	ND	ND	0.7	100.4	ND	ND	0	0
86047	2019-11-22T06:00:00	ND	ND	ND	ND	ND	ND	1	126.9	ND	ND	0	0
86048	2019-11-22T07:00:00	ND	ND	ND	ND	ND	ND	1.1	116	ND	ND	0	0
86049	2019-11-22T08:00:00	ND	ND	ND	ND	ND	ND	1.2	103	ND	ND	51	0
86050	2019-11-22T09:00:00	ND	ND	ND	ND	ND	ND	0.7	94	ND	ND	232.2	0
86051	2019-11-22T10:00:00	ND	ND	ND	ND	ND	ND	0.9	297	ND	ND	264.8	5.08
86052	2019-11-22T11:00:00	ND	ND	ND	ND	ND	ND	1	254.3	ND	ND	185.6	4.83
86053	2019-11-22T12:00:00	ND	ND	ND	ND	ND	ND	0.9	228.7	ND	ND	429.1	2.79
86054	2019-11-22T13:00:00	ND	ND	ND	ND	ND	ND	0.9	233.2	ND	ND	623.5	0
86055	2019-11-22T14:00:00	ND	ND	ND	ND	ND	ND	0.5	159.7	ND	ND	649.2	0
86056	2019-11-22T15:00:00	ND	ND	ND	ND	ND	ND	0.7	233.2	ND	ND	649.4	0
86057	2019-11-22T16:00:00	ND	ND	ND	ND	ND	ND	0.9	200.6	ND	ND	586	0
86058	2019-11-22T17:00:00	ND	ND	ND	ND	ND	ND	1.3	30.6	ND	ND	520.2	0
86059	2019-11-22T18:00:00	ND	ND	ND	ND	ND	ND	1.4	358.4	ND	ND	0	0
86060	2019-11-22T19:00:00	ND	ND	ND	ND	ND	ND	0.6	319.4	ND	ND	0	0
86061	2019-11-22T20:00:00	ND	ND	ND	ND	ND	ND	1.2	311.8	ND	ND	0	0
86062	2019-11-22T21:00:00	ND	ND	ND	ND	ND	ND	2	307.8	ND	ND	0	0
86063	2019-11-22T22:00:00	ND	ND	ND	ND	ND	ND	1.3	355.4	ND	ND	0	0
86064	2019-11-22T23:00:00	ND	ND	ND	ND	ND	ND	0.5	319.3	ND	ND	0	0
86065	2019-11-23T00:00:00	ND	ND	ND	ND	ND	ND	0.6	329.2	ND	ND	0	0
86066	2019-11-23T01:00:00	ND	ND	ND	ND	ND	ND	0.2	314.3	ND	ND	0	0
86067	2019-11-23T02:00:00	ND	ND	ND	ND	ND	ND	0.4	133.6	ND	ND	0	0
86068	2019-11-23T03:00:00	ND	ND	ND	ND	ND	ND	0.4	102.3	ND	ND	0	0
86069	2019-11-23T04:00:00	ND	ND	ND	ND	ND	ND	0.6	273.5	ND	ND	0	0
86070	2019-11-23T05:00:00	ND	ND	ND	ND	ND	ND	0.6	240.1	ND	ND	0	0
86071	2019-11-23T06:00:00	ND	ND	ND	ND	ND	ND	0.6	181.6	ND	ND	0	0
86072	2019-11-23T07:00:00	ND	ND	ND	ND	ND	ND	1	231.9	ND	ND	0	0.51
86073	2019-11-23T08:00:00	ND	ND	ND	ND	ND	ND	0.7	283	ND	ND	51.6	0
86074	2019-11-23T09:00:00	ND	ND	ND	ND	ND	ND	1	248.3	ND	ND	184.2	0
86075	2019-11-23T10:00:00	ND	ND	ND	ND	ND	ND	0.8	192.1	ND	ND	592.5	0
86076	2019-11-23T11:00:00	ND	ND	ND	ND	ND	ND	1.1	151.9	ND	ND	641.8	0
86077	2019-11-23T12:00:00	ND	ND	ND	ND	ND	ND	0.7	118.6	ND	ND	649	0
86078	2019-11-23T13:00:00	ND	ND	ND	ND	ND	ND	0.7	131.4	ND	ND	643	0
86079	2019-11-23T14:00:00	ND	ND	ND	ND	ND	ND	0.6	252.9	ND	ND	616.4	0
86080	2019-11-23T15:00:00	ND	ND	ND	ND	ND	ND	0.8	121.4	ND	ND	648.9	0
86081	2019-11-23T16:00:00	ND	ND	ND	ND	ND	ND	0.7	25.5	ND	ND	397.2	0
86082	2019-11-23T17:00:00	ND	ND	ND	ND	ND	ND	2.8	329.9	ND	ND	371.6	0
86083	2019-11-23T18:00:00	ND	ND	ND	ND	ND	ND	3	318.4	ND	ND	339.9	0
86084	2019-11-23T19:00:00	ND	ND	ND	ND	ND	ND	3	320.9	ND	ND	0	0
86085	2019-11-23T20:00:00	ND	ND	ND	ND	ND	ND	2.1	326.7	ND	ND	0	0
86086	2019-11-23T21:00:00	ND	ND	ND	ND	ND	ND	1.1	6.6	ND	ND	0	0
86087	2019-11-23T22:00:00	ND	ND	ND	ND	ND	ND	1.4	281.6	ND	ND	0	0
86088	2019-11-23T23:00:00	ND	ND	ND	ND	ND	ND	1.5	245.8	ND	ND	0	0
86089	2019-11-24T00:00:00	ND	ND	ND	ND	ND	ND	1.1	238	ND	ND	0	0
86090	2019-11-24T01:00:00	ND	ND	ND	ND	ND	ND	1.3	230.1	ND	ND	0	0
86091	2019-11-24T02:00:00	ND	ND	ND	ND	ND	ND	0.2	217.1	ND	ND	0	0
86092	2019-11-24T03:00:00	ND	ND	ND	ND	ND	ND	0.7	85.4	ND	ND	0	0
86093	2019-11-24T04:00:00	ND	ND	ND	ND	ND	ND	0.1	212.3	ND	ND	0	0
86094	2019-11-24T05:00:00	ND	ND	ND	ND	ND	ND	0.4	24.5	ND	ND	0	0
86095	2019-11-24T06:00:00	ND	ND	ND	ND	ND	ND	0.6	112.2	ND	ND	0	0
86096	2019-11-24T07:00:00	ND	ND	ND	ND	ND	ND	0.6	297.9	ND	ND	0	0
86097	2019-11-24T08:00:00	ND	ND	ND	ND	ND	ND	0.4	250.3	ND	ND	111.3	0
86098	2019-11-24T09:00:00	ND	ND	ND	ND	ND	ND	0.4	239.5	ND	ND	424	0
86099	2019-11-24T10:00:00	ND	ND	ND	ND	ND	ND	0.5	250.9	ND	ND	556.5	0
86100	2019-11-24T11:00:00	ND	ND	ND	ND	ND	ND	0.8	65.7	ND	ND	647.4	0
86101	2019-11-24T12:00:00	ND	ND	ND	ND	ND	ND	1.6	33.4	ND	ND	648.7	0
86102	2019-11-24T13:00:00	ND	ND	ND	ND	ND	ND	0.7	72.3	ND	ND	625.4	0
86103	2019-11-24T14:00:00	ND	ND	ND	ND	ND	ND	0.7	88.2	ND	ND	647.5	0
86104	2019-11-24T15:00:00	ND	ND	ND	ND	ND	ND	1	23	ND	ND	489.5	0
86105	2019-11-24T16:00:00	ND	ND	ND	ND	ND	ND	1.4	339.6	ND	ND	446	0
86106	2019-11-24T17:00:00	ND	ND	ND	ND	ND	ND	3.4	332.4	ND	ND	520.7	0
86107	2019-11-24T18:00:00	ND	ND	ND	ND	ND	ND	3	329.1	ND	ND	288.9	0
86108	2019-11-24T19:00:00	ND	ND	ND	ND	ND	ND	2.9	325.8	ND	ND	0	0
86109	2019-11-24T20:00:00	ND	ND	ND	ND	ND	ND	2.7	321.6	ND	ND	0	0
86110	2019-11-24T21:00:00	ND	ND	ND	ND	ND	ND	0.6	37.7	ND	ND	0	0
86111	2019-11-24T22:00:00	ND	ND	ND	ND	ND	ND	0.9	269.9	ND	ND	0	0
86112	2019-11-24T23:00:00	ND	ND	ND	ND	ND	ND	1	282.9	ND	ND	0	0
86113	2019-11-25T00:00:00	ND	ND	ND	ND	ND	ND	0.4	46.2	ND	ND	0	0
86114	2019-11-25T01:00:00	ND	ND	ND	ND	ND	ND	0.7	117.5	ND	ND	0	0
86115	2019-11-25T02:00:00	ND	ND	ND	ND	ND	ND	0.7	136	ND	ND	0	0
86116	2019-11-25T03:00:00	ND	ND	ND	ND	ND	ND	0.7	194.8	ND	ND	0	0
86117	2019-11-25T04:00:00	ND	ND	ND	ND	ND	ND	0.7	187.2	ND	ND	0	0
86118	2019-11-25T05:00:00	ND	ND	ND	ND	ND	ND	0.3	154.7	ND	ND	0	0
86119	2019-11-25T06:00:00	ND	ND	ND	ND	ND	ND	0.3	168.1	ND	ND	0	0
86120	2019-11-25T07:00:00	ND	ND	ND	ND	ND	ND	0.7	200.7	ND	ND	0	0
86121	2019-11-25T08:00:00	ND	ND	ND	ND	ND	ND	0.8	215.5	ND	ND	86.6	0
86122	2019-11-25T09:00:00	ND	ND	ND	ND	ND	ND	1.3	213.8	ND	ND	395.9	0
86123	2019-11-25T10:00:00	ND	ND	ND	ND	ND	ND	1.4	213.2	ND	ND	634.2	0
86124	2019-11-25T11:00:00	ND	ND	ND	ND	ND	ND	1.4	191.1	ND	ND	639.6	0
86125	2019-11-25T12:00:00	ND	ND	ND	ND	ND	ND	1	190.2	ND	ND	641.5	0
86126	2019-11-25T13:00:00	ND	ND	ND	ND	ND	ND	0.6	34.4	ND	ND	642.5	0
86127	2019-11-25T14:00:00	ND	ND	ND	ND	ND	ND	1.3	16.3	ND	ND	632.9	0
86128	2019-11-25T15:00:00	ND	ND	ND	ND	ND	ND	1.2	359.4	ND	ND	567.8	0
86129	2019-11-25T16:00:00	ND	ND	ND	ND	ND	ND	3.8	328.7	ND	ND	649.3	0
86130	2019-11-25T17:00:00	ND	ND	ND	ND	ND	ND	3.8	321.3	ND	ND	625.6	0
86131	2019-11-25T18:00:00	ND	ND	ND	ND	ND	ND	3.6	324.9	ND	ND	271.6	0
86132	2019-11-25T19:00:00	ND	ND	ND	ND	ND	ND	3.7	326.5	ND	ND	0	0
86133	2019-11-25T20:00:00	ND	ND	ND	ND	ND	ND	2.7	337.7	ND	ND	0	0
86134	2019-11-25T21:00:00	ND	ND	ND	ND	ND	ND	1.1	36.2	ND	ND	0	0
86135	2019-11-25T22:00:00	ND	ND	ND	ND	ND	ND	1.5	295.9	ND	ND	0	0
86136	2019-11-25T23:00:00	ND	ND	ND	ND	ND	ND	0.9	288.9	ND	ND	0	0
86137	2019-11-26T00:00:00	ND	ND	ND	ND	ND	ND	0.3	247.7	ND	ND	0	0
86138	2019-11-26T01:00:00	ND	ND	ND	ND	ND	ND	0.6	130.2	ND	ND	0	0
86139	2019-11-26T02:00:00	ND	ND	ND	ND	ND	ND	0.8	234.4	ND	ND	0	0
86140	2019-11-26T03:00:00	ND	ND	ND	ND	ND	ND	0.3	79.5	ND	ND	0	0
86141	2019-11-26T04:00:00	ND	ND	ND	ND	ND	ND	0.9	90.7	ND	ND	0	0
86142	2019-11-26T05:00:00	ND	ND	ND	ND	ND	ND	0.6	116.1	ND	ND	0	0
86143	2019-11-26T06:00:00	ND	ND	ND	ND	ND	ND	0.4	209.9	ND	ND	0	0
86144	2019-11-26T07:00:00	ND	ND	ND	ND	ND	ND	0.2	225.8	ND	ND	0	0
86145	2019-11-26T08:00:00	ND	ND	ND	ND	ND	ND	1	178.8	ND	ND	78.8	0
86146	2019-11-26T09:00:00	ND	ND	ND	ND	ND	ND	ND	ND	ND	ND	317.6	ND
86147	2019-11-26T10:00:00	ND	ND	ND	ND	ND	ND	ND	ND	ND	ND	ND	ND
86148	2019-11-26T11:00:00	ND	ND	ND	ND	ND	ND	1.5	191.2	ND	ND	ND	0
86149	2019-11-26T12:00:00	ND	ND	ND	ND	ND	ND	0.9	134.9	ND	ND	648.4	0
86150	2019-11-26T13:00:00	ND	ND	ND	ND	ND	ND	0.6	115.5	ND	ND	632.5	0
86151	2019-11-26T14:00:00	ND	ND	ND	ND	ND	ND	1	110.2	ND	ND	649	0
86152	2019-11-26T15:00:00	ND	ND	ND	ND	ND	ND	0.4	66.8	ND	ND	583.7	0
86153	2019-11-26T16:00:00	ND	ND	ND	ND	ND	ND	1	342.8	ND	ND	561.4	0
86154	2019-11-26T17:00:00	ND	ND	ND	ND	ND	ND	2.9	336.4	ND	ND	320.4	0
86155	2019-11-26T18:00:00	ND	ND	ND	ND	ND	ND	2.4	320.7	ND	ND	309	0
86156	2019-11-26T19:00:00	ND	ND	ND	ND	ND	ND	3.4	312.6	ND	ND	0	0
86157	2019-11-26T20:00:00	ND	ND	ND	ND	ND	ND	2.5	317.4	ND	ND	0	0
86158	2019-11-26T21:00:00	ND	ND	ND	ND	ND	ND	2.4	330	ND	ND	0	0
86159	2019-11-26T22:00:00	ND	ND	ND	ND	ND	ND	1.3	349.4	ND	ND	0	0
86160	2019-11-26T23:00:00	ND	ND	ND	ND	ND	ND	0.6	33.8	ND	ND	0	0
86161	2019-11-27T00:00:00	ND	ND	ND	ND	ND	ND	0.8	114.2	ND	ND	0	0
86162	2019-11-27T01:00:00	ND	ND	ND	ND	ND	ND	0.1	337	ND	ND	0	0
86163	2019-11-27T02:00:00	ND	ND	ND	ND	ND	ND	1.1	196.3	ND	ND	0	0
86164	2019-11-27T03:00:00	ND	ND	ND	ND	ND	ND	1	204.5	ND	ND	0	0
86165	2019-11-27T04:00:00	ND	ND	ND	ND	ND	ND	0.9	200.7	ND	ND	0	0
86166	2019-11-27T05:00:00	ND	ND	ND	ND	ND	ND	0.4	232.2	ND	ND	0	0
86167	2019-11-27T06:00:00	ND	ND	ND	ND	ND	ND	0.2	303.3	ND	ND	0	0
86168	2019-11-27T07:00:00	ND	ND	ND	ND	ND	ND	0.7	116.7	ND	ND	1.3	0
86169	2019-11-27T08:00:00	ND	ND	ND	ND	ND	ND	0.6	117.2	ND	ND	52.6	0
86170	2019-11-27T09:00:00	ND	ND	ND	ND	ND	ND	0.7	180.4	ND	ND	201.9	0
86171	2019-11-27T10:00:00	ND	ND	ND	ND	ND	ND	0.7	124.2	ND	ND	353.2	0
86172	2019-11-27T11:00:00	ND	ND	ND	ND	ND	ND	0.9	164.9	ND	ND	510.6	0
86173	2019-11-27T12:00:00	ND	ND	ND	ND	ND	ND	1.3	121.8	ND	ND	649.4	0
86174	2019-11-27T13:00:00	ND	ND	ND	ND	ND	ND	1.1	117.8	ND	ND	592.8	0
86175	2019-11-27T14:00:00	ND	ND	ND	ND	ND	ND	0.8	253.4	ND	ND	632.8	0
86176	2019-11-27T15:00:00	ND	ND	ND	ND	ND	ND	1.3	122.8	ND	ND	638	0
86177	2019-11-27T16:00:00	ND	ND	ND	ND	ND	ND	1.2	112.2	ND	ND	508.4	0
86178	2019-11-27T17:00:00	ND	ND	ND	ND	ND	ND	0.8	105.7	ND	ND	321.8	0
86179	2019-11-27T18:00:00	ND	ND	ND	ND	ND	ND	1.4	330.4	ND	ND	177.8	0
86180	2019-11-27T19:00:00	ND	ND	ND	ND	ND	ND	1.8	320.7	ND	ND	0	0
86181	2019-11-27T20:00:00	ND	ND	ND	ND	ND	ND	2.4	313	ND	ND	0	0
86182	2019-11-27T21:00:00	ND	ND	ND	ND	ND	ND	1.9	325.4	ND	ND	0	0
86183	2019-11-27T22:00:00	ND	ND	ND	ND	ND	ND	1.5	340	ND	ND	0	0
86184	2019-11-27T23:00:00	ND	ND	ND	ND	ND	ND	0.6	34.1	ND	ND	0	0
86185	2019-11-28T00:00:00	ND	ND	ND	ND	ND	ND	0.5	283	ND	ND	0	0
86186	2019-11-28T01:00:00	ND	ND	ND	ND	ND	ND	1	338.1	ND	ND	0	0
86187	2019-11-28T02:00:00	ND	ND	ND	ND	ND	ND	1.2	97.9	ND	ND	0	0
86188	2019-11-28T03:00:00	ND	ND	ND	ND	ND	ND	0.5	226.1	ND	ND	0	0
86189	2019-11-28T04:00:00	ND	ND	ND	ND	ND	ND	0.8	218.1	ND	ND	0	0
86190	2019-11-28T05:00:00	ND	ND	ND	ND	ND	ND	1	218.5	ND	ND	0	0
86191	2019-11-28T06:00:00	ND	ND	ND	ND	ND	ND	0.4	170.9	ND	ND	0	0
86192	2019-11-28T07:00:00	ND	ND	ND	ND	ND	ND	0.4	219.3	ND	ND	0	0
86193	2019-11-28T08:00:00	ND	ND	ND	ND	ND	ND	0.4	175.7	ND	ND	96.5	0
86194	2019-11-28T09:00:00	ND	ND	ND	ND	ND	ND	1	175.2	ND	ND	477.1	0
86195	2019-11-28T10:00:00	ND	ND	ND	ND	ND	ND	1.2	176.8	ND	ND	632.6	0
86196	2019-11-28T11:00:00	ND	ND	ND	ND	ND	ND	1.5	148	ND	ND	646.5	0
86197	2019-11-28T12:00:00	ND	ND	ND	ND	ND	ND	0.9	115.6	ND	ND	644.5	0
86198	2019-11-28T13:00:00	ND	ND	ND	ND	ND	ND	0.7	114.2	ND	ND	642.1	0
86199	2019-11-28T14:00:00	ND	ND	ND	ND	ND	ND	1	14.1	ND	ND	575	0
86200	2019-11-28T15:00:00	ND	ND	ND	ND	ND	ND	4.2	322	ND	ND	291.6	0
86201	2019-11-28T16:00:00	ND	ND	ND	ND	ND	ND	3.1	321.1	ND	ND	370.9	0
86202	2019-11-28T17:00:00	ND	ND	ND	ND	ND	ND	2.8	330.1	ND	ND	490.5	0
86203	2019-11-28T18:00:00	ND	ND	ND	ND	ND	ND	2.7	334.5	ND	ND	202.8	0
86204	2019-11-28T19:00:00	ND	ND	ND	ND	ND	ND	1.5	329	ND	ND	0	0
86205	2019-11-28T20:00:00	ND	ND	ND	ND	ND	ND	0.7	77	ND	ND	0	0
86206	2019-11-28T21:00:00	ND	ND	ND	ND	ND	ND	3.4	339.5	ND	ND	0	0
86207	2019-11-28T22:00:00	ND	ND	ND	ND	ND	ND	1.9	262.5	ND	ND	0	0
86208	2019-11-28T23:00:00	ND	ND	ND	ND	ND	ND	2.5	247.5	ND	ND	0	0
86209	2019-11-29T00:00:00	ND	ND	ND	ND	ND	ND	1.8	250.2	ND	ND	0	0
86210	2019-11-29T01:00:00	ND	ND	ND	ND	ND	ND	0.4	345	ND	ND	0	0
86211	2019-11-29T02:00:00	ND	ND	ND	ND	ND	ND	0.4	317.4	ND	ND	0	0
86212	2019-11-29T03:00:00	ND	ND	ND	ND	ND	ND	0.9	86.3	ND	ND	0	0
86213	2019-11-29T04:00:00	ND	ND	ND	ND	ND	ND	1	61.9	ND	ND	0	0
86214	2019-11-29T05:00:00	ND	ND	ND	ND	ND	ND	0.8	50.5	ND	ND	0	0
86215	2019-11-29T06:00:00	ND	ND	ND	ND	ND	ND	0.6	297.1	ND	ND	0	0
86216	2019-11-29T07:00:00	ND	ND	ND	ND	ND	ND	0.3	289.7	ND	ND	0	0
86217	2019-11-29T08:00:00	ND	ND	ND	ND	ND	ND	0.8	141.6	ND	ND	72.3	0
86218	2019-11-29T09:00:00	ND	ND	ND	ND	ND	ND	0.5	193.6	ND	ND	279.4	0
86219	2019-11-29T10:00:00	ND	ND	ND	ND	ND	ND	1.3	167.9	ND	ND	538.6	0
86220	2019-11-29T11:00:00	ND	ND	ND	ND	ND	ND	0.8	137.1	ND	ND	535.2	0
86221	2019-11-29T12:00:00	ND	ND	ND	ND	ND	ND	0.8	118.3	ND	ND	636	0
86222	2019-11-29T13:00:00	ND	ND	ND	ND	ND	ND	1.1	353	ND	ND	649.4	0
86223	2019-11-29T14:00:00	ND	ND	ND	ND	ND	ND	2.1	343	ND	ND	500.4	1.27
86224	2019-11-29T15:00:00	ND	ND	ND	ND	ND	ND	2.9	340.6	ND	ND	504.1	0
86225	2019-11-29T16:00:00	ND	ND	ND	ND	ND	ND	3.5	324.3	ND	ND	618.9	0
86226	2019-11-29T17:00:00	ND	ND	ND	ND	ND	ND	4.2	322.2	ND	ND	398.5	0
86227	2019-11-29T18:00:00	ND	ND	ND	ND	ND	ND	3	329.1	ND	ND	170.2	0
86228	2019-11-29T19:00:00	ND	ND	ND	ND	ND	ND	3.1	246.7	ND	ND	0	0
86229	2019-11-29T20:00:00	ND	ND	ND	ND	ND	ND	2.1	228.1	ND	ND	0	0
86230	2019-11-29T21:00:00	ND	ND	ND	ND	ND	ND	2.5	237	ND	ND	0	1.02
86231	2019-11-29T22:00:00	ND	ND	ND	ND	ND	ND	1.5	234	ND	ND	0	0.51
86232	2019-11-29T23:00:00	ND	ND	ND	ND	ND	ND	0.3	268.2	ND	ND	0	0
86233	2019-11-30T00:00:00	ND	ND	ND	ND	ND	ND	0.6	139.5	ND	ND	0	0
86234	2019-11-30T01:00:00	ND	ND	ND	ND	ND	ND	0.6	155.4	ND	ND	0	0
86235	2019-11-30T02:00:00	ND	ND	ND	ND	ND	ND	0.8	97.5	ND	ND	0	0
86236	2019-11-30T03:00:00	ND	ND	ND	ND	ND	ND	0.9	122.9	ND	ND	0	0
86237	2019-11-30T04:00:00	ND	ND	ND	ND	ND	ND	0.6	101	ND	ND	0	0
86238	2019-11-30T05:00:00	ND	ND	ND	ND	ND	ND	0.1	104.5	ND	ND	0	0.25
86239	2019-11-30T06:00:00	ND	ND	ND	ND	ND	ND	0.5	283.4	ND	ND	0	0
86240	2019-11-30T07:00:00	ND	ND	ND	ND	ND	ND	0.3	90.7	ND	ND	0	0
86241	2019-11-30T08:00:00	ND	ND	ND	ND	ND	ND	0.6	164.6	ND	ND	49.2	0
86242	2019-11-30T09:00:00	ND	ND	ND	ND	ND	ND	0.9	115.8	ND	ND	122.8	0
86243	2019-11-30T10:00:00	ND	ND	ND	ND	ND	ND	0.4	177.8	ND	ND	447.4	0
86244	2019-11-30T11:00:00	ND	ND	ND	ND	ND	ND	0.4	223.2	ND	ND	545	0
86245	2019-11-30T12:00:00	ND	ND	ND	ND	ND	ND	1.1	268	ND	ND	291.6	0
86246	2019-11-30T13:00:00	ND	ND	ND	ND	ND	ND	0.8	242.8	ND	ND	648.3	0
86247	2019-11-30T14:00:00	ND	ND	ND	ND	ND	ND	0.3	334.1	ND	ND	649.7	0
86248	2019-11-30T15:00:00	ND	ND	ND	ND	ND	ND	1.1	142.1	ND	ND	626.9	0
86249	2019-11-30T16:00:00	ND	ND	ND	ND	ND	ND	0.6	128.3	ND	ND	564.5	0
86250	2019-11-30T17:00:00	ND	ND	ND	ND	ND	ND	1.9	317.2	ND	ND	214.3	0
86251	2019-11-30T18:00:00	ND	ND	ND	ND	ND	ND	2.9	326.6	ND	ND	269.9	0
86252	2019-11-30T19:00:00	ND	ND	ND	ND	ND	ND	1.9	327.2	ND	ND	0	0
86253	2019-11-30T20:00:00	ND	ND	ND	ND	ND	ND	2.3	333.4	ND	ND	0	0
86254	2019-11-30T21:00:00	ND	ND	ND	ND	ND	ND	2.1	340.6	ND	ND	0	0
86255	2019-11-30T22:00:00	ND	ND	ND	ND	ND	ND	0.4	101.5	ND	ND	0	0
86256	2019-11-30T23:00:00	ND	ND	ND	ND	ND	ND	1	273	ND	ND	0	0
86257	2019-12-01T00:00:00	ND	ND	ND	ND	ND	ND	2.2	297.3	ND	ND	0	0
86258	2019-12-01T01:00:00	ND	ND	ND	ND	ND	ND	0.9	276.4	ND	ND	0	0
86259	2019-12-01T02:00:00	ND	ND	ND	ND	ND	ND	0.3	284.1	ND	ND	0	0
86260	2019-12-01T03:00:00	ND	ND	ND	ND	ND	ND	0.4	38.1	ND	ND	0	0
86261	2019-12-01T04:00:00	ND	ND	ND	ND	ND	ND	0.4	181.9	ND	ND	0	0
86262	2019-12-01T05:00:00	ND	ND	ND	ND	ND	ND	0.8	147	ND	ND	0	0
86263	2019-12-01T06:00:00	ND	ND	ND	ND	ND	ND	0.7	228.7	ND	ND	0	0
86264	2019-12-01T07:00:00	ND	ND	ND	ND	ND	ND	0.9	185	ND	ND	0	0
86265	2019-12-01T08:00:00	ND	ND	ND	ND	ND	ND	0.8	177.7	ND	ND	51.2	0
86266	2019-12-01T09:00:00	ND	ND	ND	ND	ND	ND	0.5	194.6	ND	ND	292.7	0
86267	2019-12-01T10:00:00	ND	ND	ND	ND	ND	ND	0.5	194.1	ND	ND	423.5	0
86268	2019-12-01T11:00:00	ND	ND	ND	ND	ND	ND	0.4	192.6	ND	ND	645.2	0
86269	2019-12-01T12:00:00	ND	ND	ND	ND	ND	ND	0.9	216.5	ND	ND	649.2	0
86270	2019-12-01T13:00:00	ND	ND	ND	ND	ND	ND	0.9	237.2	ND	ND	648.6	0
86271	2019-12-01T14:00:00	ND	ND	ND	ND	ND	ND	0.4	70.3	ND	ND	620.3	0
86272	2019-12-01T15:00:00	ND	ND	ND	ND	ND	ND	0.7	349.4	ND	ND	586.3	0
86273	2019-12-01T16:00:00	ND	ND	ND	ND	ND	ND	2	334.1	ND	ND	463.2	0
86274	2019-12-01T17:00:00	ND	ND	ND	ND	ND	ND	3.6	326.8	ND	ND	517.6	0
86275	2019-12-01T18:00:00	ND	ND	ND	ND	ND	ND	3.1	326.4	ND	ND	401.9	0
86276	2019-12-01T19:00:00	ND	ND	ND	ND	ND	ND	3.7	317.8	ND	ND	0	0
86277	2019-12-01T20:00:00	ND	ND	ND	ND	ND	ND	3.6	321.5	ND	ND	0	0
86278	2019-12-01T21:00:00	ND	ND	ND	ND	ND	ND	2.1	338.9	ND	ND	0	0
86279	2019-12-01T22:00:00	ND	ND	ND	ND	ND	ND	2.5	314.3	ND	ND	0	0
86280	2019-12-01T23:00:00	ND	ND	ND	ND	ND	ND	1.8	308	ND	ND	0	0
86281	2019-12-02T00:00:00	ND	ND	ND	ND	ND	ND	1.7	303.5	ND	ND	0	0
86282	2019-12-02T01:00:00	ND	ND	ND	ND	ND	ND	1.5	302.9	ND	ND	0	0
86283	2019-12-02T02:00:00	ND	ND	ND	ND	ND	ND	1.3	230.9	ND	ND	0	0
86284	2019-12-02T03:00:00	ND	ND	ND	ND	ND	ND	0.3	239.7	ND	ND	0	0
86285	2019-12-02T04:00:00	ND	ND	ND	ND	ND	ND	0.9	89.7	ND	ND	0	0
86286	2019-12-02T05:00:00	ND	ND	ND	ND	ND	ND	0.8	166.7	ND	ND	0	0
86287	2019-12-02T06:00:00	ND	ND	ND	ND	ND	ND	0.7	165.1	ND	ND	0	0
86288	2019-12-02T07:00:00	ND	ND	ND	ND	ND	ND	0.6	186.1	ND	ND	0	0
86289	2019-12-02T08:00:00	ND	ND	ND	ND	ND	ND	1.1	224.4	ND	ND	74.4	0
86290	2019-12-02T09:00:00	ND	ND	ND	ND	ND	ND	1.2	198.1	ND	ND	388.6	0
86291	2019-12-02T10:00:00	ND	ND	ND	ND	ND	ND	1	181.7	ND	ND	588	0
86292	2019-12-02T11:00:00	ND	ND	ND	ND	ND	ND	0.5	160.5	ND	ND	639.6	0
86293	2019-12-02T12:00:00	ND	ND	ND	ND	ND	ND	1.1	209.1	ND	ND	638.8	0
86294	2019-12-02T13:00:00	ND	ND	ND	ND	ND	ND	1	46.3	ND	ND	648.9	0
86295	2019-12-02T14:00:00	ND	ND	ND	ND	ND	ND	0.4	59.1	ND	ND	518.7	0
86296	2019-12-02T15:00:00	ND	ND	ND	ND	ND	ND	2.9	331.5	ND	ND	555.5	0
86297	2019-12-02T16:00:00	ND	ND	ND	ND	ND	ND	4.9	327.6	ND	ND	617	0
86298	2019-12-02T17:00:00	ND	ND	ND	ND	ND	ND	5.6	330.6	ND	ND	628.7	0
86299	2019-12-02T18:00:00	ND	ND	ND	ND	ND	ND	4.7	326.8	ND	ND	208.7	0
86300	2019-12-02T19:00:00	ND	ND	ND	ND	ND	ND	3.2	337.8	ND	ND	0	0
86301	2019-12-02T20:00:00	ND	ND	ND	ND	ND	ND	2.5	331.3	ND	ND	0	0
86302	2019-12-02T21:00:00	ND	ND	ND	ND	ND	ND	2.3	268.3	ND	ND	0	0
86303	2019-12-02T22:00:00	ND	ND	ND	ND	ND	ND	2	291.1	ND	ND	0	0
86304	2019-12-02T23:00:00	ND	ND	ND	ND	ND	ND	1.6	273	ND	ND	0	0
86305	2019-12-03T00:00:00	ND	ND	ND	ND	ND	ND	1.3	247.9	ND	ND	0	0
86306	2019-12-03T01:00:00	ND	ND	ND	ND	ND	ND	1.1	86.3	ND	ND	0	0
86307	2019-12-03T02:00:00	ND	ND	ND	ND	ND	ND	0.9	106.6	ND	ND	0	0
86308	2019-12-03T03:00:00	ND	ND	ND	ND	ND	ND	0.4	146.9	ND	ND	0	0
86309	2019-12-03T04:00:00	ND	ND	ND	ND	ND	ND	0.6	182.3	ND	ND	0	0
86310	2019-12-03T05:00:00	ND	ND	ND	ND	ND	ND	0.5	231	ND	ND	0	0
86311	2019-12-03T06:00:00	ND	ND	ND	ND	ND	ND	0.3	64.8	ND	ND	0	0
86312	2019-12-03T07:00:00	ND	ND	ND	ND	ND	ND	0.7	106.3	ND	ND	0	0
86313	2019-12-03T08:00:00	ND	ND	ND	ND	ND	ND	0.8	88.8	ND	ND	36.9	0
86314	2019-12-03T09:00:00	ND	ND	ND	ND	ND	ND	0.9	54.8	ND	ND	136.2	0
86315	2019-12-03T10:00:00	ND	ND	ND	ND	ND	ND	0.9	187.4	ND	ND	520.3	0
86316	2019-12-03T11:00:00	ND	ND	ND	ND	ND	ND	1	186.3	ND	ND	648.4	0
86317	2019-12-03T12:00:00	ND	ND	ND	ND	ND	ND	0.6	61.8	ND	ND	649	0
86318	2019-12-03T13:00:00	ND	ND	ND	ND	ND	ND	0.8	19.1	ND	ND	571.6	0
86319	2019-12-03T14:00:00	ND	ND	ND	ND	ND	ND	1.1	80.8	ND	ND	567.5	0
86320	2019-12-03T15:00:00	ND	ND	ND	ND	ND	ND	2.8	343.6	ND	ND	518.6	0
86321	2019-12-03T16:00:00	ND	ND	ND	ND	ND	ND	3.8	331.2	ND	ND	601.7	0
86322	2019-12-03T17:00:00	ND	ND	ND	ND	ND	ND	3.7	328.6	ND	ND	585.4	0
86323	2019-12-03T18:00:00	ND	ND	ND	ND	ND	ND	2.8	321.8	ND	ND	255.5	0
86324	2019-12-03T19:00:00	ND	ND	ND	ND	ND	ND	2.9	315.1	ND	ND	0	0
86325	2019-12-03T20:00:00	ND	ND	ND	ND	ND	ND	2	283.6	ND	ND	0	0
86326	2019-12-03T21:00:00	ND	ND	ND	ND	ND	ND	2.2	240.9	ND	ND	0	0
86327	2019-12-03T22:00:00	ND	ND	ND	ND	ND	ND	1.5	269.5	ND	ND	0	0
86328	2019-12-03T23:00:00	ND	ND	ND	ND	ND	ND	1.3	323.5	ND	ND	0	0
86329	2019-12-04T00:00:00	ND	ND	ND	ND	ND	ND	0.8	58.7	ND	ND	0	0
86330	2019-12-04T01:00:00	ND	ND	ND	ND	ND	ND	0.9	95.4	ND	ND	0	0
86331	2019-12-04T02:00:00	ND	ND	ND	ND	ND	ND	1.2	219.1	ND	ND	0	0
86332	2019-12-04T03:00:00	ND	ND	ND	ND	ND	ND	0.8	200.9	ND	ND	0	0
86333	2019-12-04T04:00:00	ND	ND	ND	ND	ND	ND	0.2	81.2	ND	ND	0	5.84
86334	2019-12-04T05:00:00	ND	ND	ND	ND	ND	ND	0.4	303.3	ND	ND	0	0
86335	2019-12-04T06:00:00	ND	ND	ND	ND	ND	ND	1.2	181.8	ND	ND	0	0
86336	2019-12-04T07:00:00	ND	ND	ND	ND	ND	ND	0.3	67.1	ND	ND	0	0.25
86337	2019-12-04T08:00:00	ND	ND	ND	ND	ND	ND	0.1	240.5	ND	ND	39.9	0
86338	2019-12-04T09:00:00	ND	ND	ND	ND	ND	ND	0.6	191.7	ND	ND	314.6	0
86339	2019-12-04T10:00:00	ND	ND	ND	ND	ND	ND	1.2	164.2	ND	ND	605.2	0
86340	2019-12-04T11:00:00	ND	ND	ND	ND	ND	ND	1.2	174.5	ND	ND	647	0
86341	2019-12-04T12:00:00	ND	ND	ND	ND	ND	ND	0.6	132.2	ND	ND	646	0
86342	2019-12-04T13:00:00	ND	ND	ND	ND	ND	ND	1.2	5.1	ND	ND	628.7	0
86343	2019-12-04T14:00:00	ND	ND	ND	ND	ND	ND	3.4	344.7	ND	ND	648.9	0
86344	2019-12-04T15:00:00	ND	ND	ND	ND	ND	ND	2.4	347.5	ND	ND	618.4	0
86345	2019-12-04T16:00:00	ND	ND	ND	ND	ND	ND	3.8	352.6	ND	ND	649.3	0
86346	2019-12-04T17:00:00	ND	ND	ND	ND	ND	ND	3.9	337.7	ND	ND	560.6	0
86347	2019-12-04T18:00:00	ND	ND	ND	ND	ND	ND	2.8	315.4	ND	ND	172.6	0
86348	2019-12-04T19:00:00	ND	ND	ND	ND	ND	ND	2.2	327.6	ND	ND	0	0
86349	2019-12-04T20:00:00	ND	ND	ND	ND	ND	ND	2.5	233.3	ND	ND	0	0
86350	2019-12-04T21:00:00	ND	ND	ND	ND	ND	ND	1.5	229.8	ND	ND	0	0
86351	2019-12-04T22:00:00	ND	ND	ND	ND	ND	ND	1.2	194.8	ND	ND	0	0
86352	2019-12-04T23:00:00	ND	ND	ND	ND	ND	ND	0.9	202	ND	ND	0	0
86353	2019-12-05T00:00:00	ND	ND	ND	ND	ND	ND	0.9	213.4	ND	ND	0	0
86354	2019-12-05T01:00:00	ND	ND	ND	ND	ND	ND	0.9	178.7	ND	ND	0	0
86355	2019-12-05T02:00:00	ND	ND	ND	ND	ND	ND	1	189	ND	ND	0	0
86356	2019-12-05T03:00:00	ND	ND	ND	ND	ND	ND	0.7	153.1	ND	ND	0	0
86357	2019-12-05T04:00:00	ND	ND	ND	ND	ND	ND	0.5	210.3	ND	ND	0	0
86358	2019-12-05T05:00:00	ND	ND	ND	ND	ND	ND	0.6	196.8	ND	ND	0	0
86359	2019-12-05T06:00:00	ND	ND	ND	ND	ND	ND	0.4	213.8	ND	ND	0	0
86360	2019-12-05T07:00:00	ND	ND	ND	ND	ND	ND	1	97	ND	ND	0	0
86361	2019-12-05T08:00:00	ND	ND	ND	ND	ND	ND	1.6	106	ND	ND	130.3	0
86362	2019-12-05T09:00:00	ND	ND	ND	ND	ND	ND	1.5	107.7	ND	ND	226.6	0
86363	2019-12-05T10:00:00	ND	ND	ND	ND	ND	ND	1	133.8	ND	ND	414.7	0
86364	2019-12-05T11:00:00	ND	ND	ND	ND	ND	ND	0.6	189.8	ND	ND	649.3	0
86365	2019-12-05T12:00:00	ND	ND	ND	ND	ND	ND	0.5	62.2	ND	ND	467.2	0
86366	2019-12-05T13:00:00	ND	ND	ND	ND	ND	ND	1	161.2	ND	ND	619.2	0
86367	2019-12-05T14:00:00	ND	ND	ND	ND	ND	ND	0.6	150.6	ND	ND	649	0
86368	2019-12-05T15:00:00	ND	ND	ND	ND	ND	ND	1.3	344.2	ND	ND	648.8	0
86369	2019-12-05T16:00:00	ND	ND	ND	ND	ND	ND	3.2	331.1	ND	ND	413.8	0
86370	2019-12-05T17:00:00	ND	ND	ND	ND	ND	ND	4.1	328.8	ND	ND	641.8	0
86371	2019-12-05T18:00:00	ND	ND	ND	ND	ND	ND	3.3	329.5	ND	ND	324.3	0
86372	2019-12-05T19:00:00	ND	ND	ND	ND	ND	ND	4.2	325	ND	ND	0	0
86373	2019-12-05T20:00:00	ND	ND	ND	ND	ND	ND	3.8	322.3	ND	ND	0	0
86374	2019-12-05T21:00:00	ND	ND	ND	ND	ND	ND	1.1	347.2	ND	ND	0	0
86375	2019-12-05T22:00:00	ND	ND	ND	ND	ND	ND	1.2	245.1	ND	ND	0	0
86376	2019-12-05T23:00:00	ND	ND	ND	ND	ND	ND	1.9	236.2	ND	ND	0	0
86377	2019-12-06T00:00:00	ND	ND	ND	ND	ND	ND	1.5	221.1	ND	ND	0	0
86378	2019-12-06T01:00:00	ND	ND	ND	ND	ND	ND	1.1	222.7	ND	ND	0	0
86379	2019-12-06T02:00:00	ND	ND	ND	ND	ND	ND	1.1	253.5	ND	ND	0	0
86380	2019-12-06T03:00:00	ND	ND	ND	ND	ND	ND	1	106.2	ND	ND	0	0
86381	2019-12-06T04:00:00	ND	ND	ND	ND	ND	ND	0.9	98.7	ND	ND	0	2.29
86382	2019-12-06T05:00:00	ND	ND	ND	ND	ND	ND	0.4	110.5	ND	ND	0	0.25
86383	2019-12-06T06:00:00	ND	ND	ND	ND	ND	ND	0.3	199.8	ND	ND	0	0
86384	2019-12-06T07:00:00	ND	ND	ND	ND	ND	ND	0.7	258.3	ND	ND	0	0
86385	2019-12-06T08:00:00	ND	ND	ND	ND	ND	ND	1.2	234.7	ND	ND	29.5	0.25
86386	2019-12-06T09:00:00	ND	ND	ND	ND	ND	ND	1.2	207.9	ND	ND	154.4	0
86387	2019-12-06T10:00:00	ND	ND	ND	ND	ND	ND	0.4	206.9	ND	ND	175.3	0
86388	2019-12-06T11:00:00	ND	ND	ND	ND	ND	15.7	0.8	158.2	ND	ND	497	0
86389	2019-12-06T12:00:00	ND	ND	ND	ND	ND	28.2	0.9	134.9	ND	ND	622.5	0
86390	2019-12-06T13:00:00	ND	ND	ND	ND	ND	37.8	1	137.7	ND	ND	648.9	0
86391	2019-12-06T14:00:00	ND	ND	ND	ND	ND	56	1.2	136	ND	ND	649	0
86392	2019-12-06T15:00:00	ND	ND	ND	ND	ND	58.3	0.7	136.5	ND	ND	592.5	0
86393	2019-12-06T16:00:00	ND	ND	ND	ND	ND	22.4	2.2	319.1	ND	ND	471.8	0
86394	2019-12-06T17:00:00	ND	ND	ND	ND	ND	12.5	2.1	360	ND	ND	346.7	0
86395	2019-12-06T18:00:00	ND	ND	ND	ND	ND	5.1	1.6	12.5	ND	ND	386	0.25
86396	2019-12-06T19:00:00	ND	ND	ND	ND	ND	3.4	1	15.5	ND	ND	0	0
86397	2019-12-06T20:00:00	ND	ND	ND	ND	ND	8.5	2.1	310.8	ND	ND	0	0
86398	2019-12-06T21:00:00	ND	ND	ND	ND	ND	4.4	2.7	239.2	ND	ND	0	0
86399	2019-12-06T22:00:00	ND	ND	ND	ND	ND	5.9	2.1	238.3	ND	ND	0	0
86400	2019-12-06T23:00:00	ND	ND	ND	ND	ND	2.5	1.4	214.9	ND	ND	0	0
86401	2019-12-07T00:00:00	ND	ND	ND	ND	ND	4.5	0.9	248.8	ND	ND	0	0
86402	2019-12-07T01:00:00	ND	ND	ND	ND	ND	4.6	0.4	271.1	ND	ND	0	0
86403	2019-12-07T02:00:00	ND	ND	ND	ND	ND	0.6	0.8	92.1	ND	ND	0	0
86404	2019-12-07T03:00:00	ND	ND	ND	ND	ND	0.6	0.9	78.6	ND	ND	0	0
86405	2019-12-07T04:00:00	ND	ND	ND	ND	ND	5.2	1.1	148.1	ND	ND	0	0
86406	2019-12-07T05:00:00	ND	ND	ND	ND	ND	7.3	1	187.9	ND	ND	0	0
86407	2019-12-07T06:00:00	ND	ND	ND	ND	ND	4.4	1.2	224.5	ND	ND	0	1.27
86408	2019-12-07T07:00:00	ND	ND	ND	ND	ND	2.4	1.3	218.7	ND	ND	0	45.47
86409	2019-12-07T08:00:00	ND	ND	ND	ND	ND	3.7	1.3	240.7	ND	ND	36.9	19.05
86410	2019-12-07T09:00:00	ND	ND	ND	ND	ND	4	1	264.4	ND	ND	133.3	0.76
86411	2019-12-07T10:00:00	ND	ND	ND	ND	ND	10.5	0.5	254.4	ND	ND	157.5	0
86412	2019-12-07T11:00:00	ND	ND	ND	ND	ND	27.9	0.3	118	ND	ND	479.2	0
86413	2019-12-07T12:00:00	ND	ND	ND	ND	ND	43.6	0.5	206.2	ND	ND	649	0
86414	2019-12-07T13:00:00	ND	ND	ND	ND	ND	42.2	1.3	147.2	ND	ND	649.5	0
86415	2019-12-07T14:00:00	ND	ND	ND	ND	ND	38.8	2.3	126.9	ND	ND	576.4	0
86416	2019-12-07T15:00:00	ND	ND	ND	ND	ND	27.8	2.7	106.5	ND	ND	649.2	0
86417	2019-12-07T16:00:00	ND	ND	ND	ND	ND	16.6	1.7	93.4	ND	ND	425.4	0
86418	2019-12-07T17:00:00	ND	ND	ND	ND	ND	13.7	1.1	19.3	ND	ND	163.4	0
86419	2019-12-07T18:00:00	ND	ND	ND	ND	ND	13.7	1.1	329.4	ND	ND	0	0
86420	2019-12-07T19:00:00	ND	ND	ND	ND	ND	3.7	0.7	303.1	ND	ND	0	0
86421	2019-12-07T20:00:00	ND	ND	ND	ND	ND	4.4	1	314.9	ND	ND	0	0
86422	2019-12-07T21:00:00	ND	ND	ND	ND	ND	3.7	1.5	312.3	ND	ND	0	0
86423	2019-12-07T22:00:00	ND	ND	ND	ND	ND	2.1	0.2	269.4	ND	ND	0	0
86424	2019-12-07T23:00:00	ND	ND	ND	ND	ND	0.7	0.8	207.7	ND	ND	0	0
86425	2019-12-08T00:00:00	ND	ND	ND	ND	ND	0.8	0.4	189.7	ND	ND	0	0
86426	2019-12-08T01:00:00	ND	ND	ND	ND	ND	0.7	0.4	245.1	ND	ND	0	0
86427	2019-12-08T02:00:00	ND	ND	ND	ND	ND	0.6	0.5	301.5	ND	ND	0	0
86428	2019-12-08T03:00:00	ND	ND	ND	ND	ND	0.6	0.5	304.4	ND	ND	0	0
86429	2019-12-08T04:00:00	ND	ND	ND	ND	ND	1	0.5	235.9	ND	ND	0	0
86430	2019-12-08T05:00:00	ND	ND	ND	ND	ND	0.7	0.5	178.1	ND	ND	0	0
86431	2019-12-08T06:00:00	ND	ND	ND	ND	ND	0.6	0.5	172	ND	ND	0	0
86432	2019-12-08T07:00:00	ND	ND	ND	ND	ND	0.9	0.8	187.6	ND	ND	0	0
86433	2019-12-08T08:00:00	ND	ND	ND	ND	ND	2.8	1	140.6	ND	ND	65.7	0
86434	2019-12-08T09:00:00	ND	ND	ND	ND	ND	8.6	0.4	123.8	ND	ND	278.7	0
86435	2019-12-08T10:00:00	ND	ND	ND	ND	ND	27.6	0.3	146.1	ND	ND	592.7	0
86436	2019-12-08T11:00:00	ND	ND	ND	ND	ND	46.8	1	130.9	ND	ND	601.6	0
86437	2019-12-08T12:00:00	ND	ND	ND	ND	ND	66.1	1.1	71	ND	ND	601.8	0
86438	2019-12-08T13:00:00	ND	ND	ND	ND	ND	73.4	1.4	66.2	ND	ND	630.9	0
86439	2019-12-08T14:00:00	ND	ND	ND	ND	ND	83	0.3	69.9	ND	ND	646.1	0
86440	2019-12-08T15:00:00	ND	ND	ND	ND	ND	36.9	1.7	46.9	ND	ND	606.5	0
86441	2019-12-08T16:00:00	ND	ND	ND	ND	ND	31.1	1.2	104	ND	ND	389	0
86442	2019-12-08T17:00:00	ND	ND	ND	ND	ND	27.8	0.4	9.1	ND	ND	338.8	0
86443	2019-12-08T18:00:00	ND	ND	ND	ND	ND	13.4	2.9	310.9	ND	ND	330.6	0
86444	2019-12-08T19:00:00	ND	ND	ND	ND	ND	7.6	2.2	321.6	ND	ND	0	0
86445	2019-12-08T20:00:00	ND	ND	ND	ND	ND	8.2	2.2	335.4	ND	ND	0	0
86446	2019-12-08T21:00:00	ND	ND	ND	ND	ND	9	1.8	331.9	ND	ND	0	0
86447	2019-12-08T22:00:00	ND	ND	ND	ND	ND	3.8	1.2	292.9	ND	ND	0	0
86448	2019-12-08T23:00:00	ND	ND	ND	ND	ND	1.9	0.5	354.1	ND	ND	0	0
86449	2019-12-09T00:00:00	ND	ND	ND	ND	ND	2	0.6	237.1	ND	ND	0	0
86450	2019-12-09T01:00:00	ND	ND	ND	ND	ND	6.3	1.1	311.1	ND	ND	0	0
86451	2019-12-09T02:00:00	ND	ND	ND	ND	ND	4.3	0.2	262.2	ND	ND	0	0
86452	2019-12-09T03:00:00	ND	ND	ND	ND	ND	4.8	0.5	300.4	ND	ND	0	0
86453	2019-12-09T04:00:00	ND	ND	ND	ND	ND	7.2	0.3	315.9	ND	ND	0	0
86454	2019-12-09T05:00:00	ND	ND	ND	ND	ND	0.9	0.5	127.1	ND	ND	0	0
86455	2019-12-09T06:00:00	ND	ND	ND	ND	ND	1.1	0.8	301.5	ND	ND	0	0
86456	2019-12-09T07:00:00	ND	ND	ND	ND	ND	0.9	0.9	309.1	ND	ND	0	0
86457	2019-12-09T08:00:00	ND	ND	ND	ND	ND	1.1	0.3	39.6	ND	ND	61.7	0
86458	2019-12-09T09:00:00	ND	ND	ND	ND	ND	2	0.5	108	ND	ND	173.9	0
86459	2019-12-09T10:00:00	ND	ND	ND	ND	ND	11.8	1.1	151.9	ND	ND	405	0
86460	2019-12-09T11:00:00	ND	ND	ND	ND	ND	35.2	0.6	232.9	ND	ND	648.9	0
86461	2019-12-09T12:00:00	ND	ND	ND	ND	ND	65.5	0.7	80.8	ND	ND	649.2	0
86462	2019-12-09T13:00:00	ND	ND	ND	ND	ND	90	1.5	97.4	ND	ND	649	0
86463	2019-12-09T14:00:00	ND	ND	ND	ND	ND	68.4	1.7	353.5	ND	ND	605.6	0
86464	2019-12-09T15:00:00	ND	ND	ND	ND	ND	56.9	0.3	14.7	ND	ND	598.4	0
86465	2019-12-09T16:00:00	ND	ND	ND	ND	ND	46.4	1.1	10.6	ND	ND	537.6	0
86466	2019-12-09T17:00:00	ND	ND	ND	ND	ND	26.6	3.6	323.1	ND	ND	625.1	0
86467	2019-12-09T18:00:00	ND	ND	ND	ND	ND	17.7	3.2	329.4	ND	ND	326.7	0
86468	2019-12-09T19:00:00	ND	ND	ND	ND	ND	6.4	3.2	320	ND	ND	0	0
86469	2019-12-09T20:00:00	ND	ND	ND	ND	ND	3.9	3.1	313.5	ND	ND	0	0
86470	2019-12-09T21:00:00	ND	ND	ND	ND	ND	2.1	1	337.4	ND	ND	0	0
86471	2019-12-09T22:00:00	ND	ND	ND	ND	ND	0.9	0.5	107.9	ND	ND	0	0
86472	2019-12-09T23:00:00	ND	ND	ND	ND	ND	5	1.5	326.3	ND	ND	0	0
86473	2019-12-10T00:00:00	ND	ND	ND	ND	ND	1.3	0.6	92.9	ND	ND	0	0
86474	2019-12-10T01:00:00	ND	ND	ND	ND	ND	0.6	0.7	145.2	ND	ND	0	0
86475	2019-12-10T02:00:00	ND	ND	ND	ND	ND	1.3	0.8	204.5	ND	ND	0	0
86476	2019-12-10T03:00:00	ND	ND	ND	ND	ND	0.9	0.5	152.4	ND	ND	0	0
86477	2019-12-10T04:00:00	ND	ND	ND	ND	ND	0.9	0.3	132.8	ND	ND	0	0
86478	2019-12-10T05:00:00	ND	ND	ND	ND	ND	1	0.9	241.6	ND	ND	0	0
86479	2019-12-10T06:00:00	ND	ND	ND	ND	ND	0.8	0.9	237.3	ND	ND	0	0
86480	2019-12-10T07:00:00	ND	ND	ND	ND	ND	0.9	0.6	200.3	ND	ND	0	0
86481	2019-12-10T08:00:00	ND	ND	ND	ND	ND	3.5	1.1	232.5	ND	ND	83.5	0
86482	2019-12-10T09:00:00	ND	ND	ND	ND	ND	8.1	1	188	ND	ND	403.5	0
86483	2019-12-10T10:00:00	ND	ND	ND	ND	ND	19.9	0.9	175.8	ND	ND	631.4	0
86484	2019-12-10T11:00:00	ND	ND	ND	ND	ND	51.8	0.3	64.1	ND	ND	618.9	0
86485	2019-12-10T12:00:00	ND	ND	ND	ND	ND	50.1	0.9	94.5	ND	ND	649.4	0
86486	2019-12-10T13:00:00	ND	ND	ND	ND	ND	44.2	0.5	350.2	ND	ND	629.2	0
86487	2019-12-10T14:00:00	ND	ND	ND	ND	ND	32.6	2.4	334.5	ND	ND	543.7	0
86488	2019-12-10T15:00:00	ND	ND	ND	ND	ND	18.7	4.4	330	ND	ND	639.2	0
86489	2019-12-10T16:00:00	ND	ND	ND	ND	ND	16.9	3.6	332.1	ND	ND	648.6	0
86490	2019-12-10T17:00:00	ND	ND	ND	ND	ND	10.1	2.7	338.2	ND	ND	648.3	0
86491	2019-12-10T18:00:00	ND	ND	ND	ND	ND	5.9	3	301.7	ND	ND	150.1	0
86492	2019-12-10T19:00:00	ND	ND	ND	ND	ND	9.3	4.7	324.3	ND	ND	0	0
86493	2019-12-10T20:00:00	ND	ND	ND	ND	ND	6.1	2	321.1	ND	ND	0	0
86494	2019-12-10T21:00:00	ND	ND	ND	ND	ND	8.1	2.7	299.9	ND	ND	0	0
86495	2019-12-10T22:00:00	ND	ND	ND	ND	ND	7.9	2.1	304.5	ND	ND	0	0
86496	2019-12-10T23:00:00	ND	ND	ND	ND	ND	7.9	1.7	306.5	ND	ND	0	0
86497	2019-12-11T00:00:00	ND	ND	ND	ND	ND	4.5	0.3	52.9	ND	ND	0	0
86498	2019-12-11T01:00:00	ND	ND	ND	ND	ND	0.7	0.7	64.1	ND	ND	0	0
86499	2019-12-11T02:00:00	ND	ND	ND	ND	ND	4.9	0.6	138.3	ND	ND	0	0
86500	2019-12-11T03:00:00	ND	ND	ND	ND	ND	7.9	0.8	177.6	ND	ND	0	0
86501	2019-12-11T04:00:00	ND	ND	ND	ND	ND	7.5	0.5	187.5	ND	ND	0	0
86502	2019-12-11T05:00:00	ND	ND	ND	ND	ND	3.4	0.7	213.7	ND	ND	0	0
86503	2019-12-11T06:00:00	ND	ND	ND	ND	ND	2.1	0.7	278.5	ND	ND	0	0
86504	2019-12-11T07:00:00	ND	ND	ND	ND	ND	1	0.7	240.9	ND	ND	0	0
86505	2019-12-11T08:00:00	ND	ND	ND	ND	ND	0.9	1.5	185.2	ND	ND	45.5	0
86506	2019-12-11T09:00:00	ND	ND	ND	ND	ND	4	0.7	205	ND	ND	139.7	0
86507	2019-12-11T10:00:00	ND	ND	ND	ND	ND	9.4	0.6	54.6	ND	ND	462.8	0
86508	2019-12-11T11:00:00	ND	ND	ND	ND	ND	26.3	1.2	130.3	ND	ND	564.5	0
86509	2019-12-11T12:00:00	ND	ND	ND	ND	ND	37.4	0.3	15.8	ND	ND	645.4	0
86510	2019-12-11T13:00:00	ND	ND	ND	ND	ND	25.5	2	310.5	ND	ND	607.6	0
86511	2019-12-11T14:00:00	ND	ND	ND	ND	ND	15.3	3.1	324.3	ND	ND	602.7	0
86512	2019-12-11T15:00:00	ND	ND	ND	ND	ND	17.7	1.4	333.9	ND	ND	561.9	0
86513	2019-12-11T16:00:00	ND	ND	ND	ND	ND	14.4	3.2	327.3	ND	ND	635.8	0
86514	2019-12-11T17:00:00	ND	ND	ND	ND	ND	12.1	2.8	327.9	ND	ND	624.8	0
86515	2019-12-11T18:00:00	ND	ND	ND	ND	ND	8.3	2.9	323.8	ND	ND	336.9	0
86516	2019-12-11T19:00:00	ND	ND	ND	ND	ND	7.2	2.4	326.5	ND	ND	0	0
86517	2019-12-11T20:00:00	ND	ND	ND	ND	ND	8.8	2.3	333.5	ND	ND	0	0
86518	2019-12-11T21:00:00	ND	ND	ND	ND	ND	11.2	1.6	347.5	ND	ND	0	0
86519	2019-12-11T22:00:00	ND	ND	ND	ND	ND	1.4	0.3	161.5	ND	ND	0	0
86520	2019-12-11T23:00:00	ND	ND	ND	ND	ND	2.5	2.3	237.7	ND	ND	0	0
86521	2019-12-12T00:00:00	ND	ND	ND	ND	ND	1.6	1.6	222	ND	ND	0	0
86522	2019-12-12T01:00:00	ND	ND	ND	ND	ND	3.7	1	207.5	ND	ND	0	0
86523	2019-12-12T02:00:00	ND	ND	ND	ND	ND	5.8	0.9	179.1	ND	ND	0	0
86524	2019-12-12T03:00:00	ND	ND	ND	ND	ND	6.4	1.1	191.1	ND	ND	0	0
86525	2019-12-12T04:00:00	ND	ND	ND	ND	ND	3.7	0.6	133.7	ND	ND	0	0
86526	2019-12-12T05:00:00	ND	ND	ND	ND	ND	1.2	0.8	124.8	ND	ND	0	0
86527	2019-12-12T06:00:00	ND	ND	ND	ND	ND	0.7	1.4	190.7	ND	ND	0	2.29
86528	2019-12-12T07:00:00	ND	ND	ND	ND	ND	0.8	1.4	195	ND	ND	0	0
86529	2019-12-12T08:00:00	ND	ND	ND	ND	ND	1.2	0.9	202.6	ND	ND	40.6	0
86530	2019-12-12T09:00:00	ND	ND	ND	ND	ND	4.8	0.3	207.1	ND	ND	173.2	0
86531	2019-12-12T10:00:00	ND	ND	ND	ND	ND	14.1	0.7	188.9	ND	ND	572.5	0
86532	2019-12-12T11:00:00	ND	ND	ND	ND	ND	29.2	0.9	115.7	ND	ND	649	10.16
86533	2019-12-12T12:00:00	ND	ND	ND	ND	ND	17	0.8	82.9	ND	ND	540.6	58.42
86534	2019-12-12T13:00:00	ND	ND	ND	ND	ND	37.9	1.2	245.1	ND	ND	432.4	0
86535	2019-12-12T14:00:00	ND	ND	ND	ND	ND	49.3	0.6	150.9	ND	ND	649.1	0
86536	2019-12-12T15:00:00	ND	ND	ND	ND	ND	58.8	1.4	85.6	ND	ND	649.4	0
86537	2019-12-12T16:00:00	ND	ND	ND	ND	ND	42	1.4	344.8	ND	ND	458.2	0
86538	2019-12-12T17:00:00	ND	ND	ND	ND	ND	9.3	4	320.9	ND	ND	245.3	0
86539	2019-12-12T18:00:00	ND	ND	ND	ND	ND	5.6	2.9	321	ND	ND	209.5	0
86540	2019-12-12T19:00:00	ND	ND	ND	ND	ND	3	1.9	337	ND	ND	0	0
86541	2019-12-12T20:00:00	ND	ND	ND	ND	ND	0.7	0.9	116.4	ND	ND	0	0
86542	2019-12-12T21:00:00	ND	ND	ND	ND	ND	1	0.7	140.8	ND	ND	0	0
86543	2019-12-12T22:00:00	ND	ND	ND	ND	ND	1.1	0.4	278.5	ND	ND	0	0
86544	2019-12-12T23:00:00	ND	ND	ND	ND	ND	0.8	0.8	220.7	ND	ND	0	0
86545	2019-12-13T00:00:00	ND	ND	ND	ND	ND	2.7	2.2	239.5	ND	ND	0	0
86546	2019-12-13T01:00:00	ND	ND	ND	ND	ND	8.9	1.6	236.5	ND	ND	0	0
86547	2019-12-13T02:00:00	ND	ND	ND	ND	ND	10.9	1.1	232.9	ND	ND	0	0
86548	2019-12-13T03:00:00	ND	ND	ND	ND	ND	7.4	0.2	323.2	ND	ND	0	0
86549	2019-12-13T04:00:00	ND	ND	ND	ND	ND	6.6	0.5	22.6	ND	ND	0	0
86550	2019-12-13T05:00:00	ND	ND	ND	ND	ND	1	0.3	102.9	ND	ND	0	0
86551	2019-12-13T06:00:00	ND	ND	ND	ND	ND	0.9	0.8	180.3	ND	ND	0	0
86552	2019-12-13T07:00:00	ND	ND	ND	ND	ND	0.6	0.7	204.8	ND	ND	0	11.68
86553	2019-12-13T08:00:00	ND	ND	ND	ND	ND	1.5	0.3	37.5	ND	ND	9.1	5.08
86554	2019-12-13T09:00:00	ND	ND	ND	ND	ND	1.7	0.2	28.2	ND	ND	150.5	0
86555	2019-12-13T10:00:00	ND	ND	ND	ND	ND	4.9	0.5	272.3	ND	ND	238.7	0
86556	2019-12-13T11:00:00	ND	ND	ND	ND	ND	14.2	0.7	146	ND	ND	497.8	0
86557	2019-12-13T12:00:00	ND	ND	ND	ND	ND	38.5	0.7	218	ND	ND	588.9	0
86558	2019-12-13T13:00:00	ND	ND	ND	ND	ND	36	1.7	262.4	ND	ND	648.9	0
86559	2019-12-13T14:00:00	ND	ND	ND	ND	ND	65	0.7	217.1	ND	ND	648	0
86560	2019-12-13T15:00:00	ND	ND	ND	ND	ND	73.3	0.8	296.5	ND	ND	648.8	0
86561	2019-12-13T16:00:00	ND	ND	ND	ND	ND	8.4	3.1	315.6	ND	ND	375.1	0
86562	2019-12-13T17:00:00	ND	ND	ND	ND	ND	3.1	2.9	309.1	ND	ND	304.1	0.25
86563	2019-12-13T18:00:00	ND	ND	ND	ND	ND	1.7	2.3	316.1	ND	ND	148.4	0
86564	2019-12-13T19:00:00	ND	ND	ND	ND	ND	2.4	2.1	325.7	ND	ND	0	0
86565	2019-12-13T20:00:00	ND	ND	ND	ND	ND	1.9	2.2	327.7	ND	ND	0	0
86566	2019-12-13T21:00:00	ND	ND	ND	ND	ND	2.7	0.7	26.2	ND	ND	0	0
86567	2019-12-13T22:00:00	ND	ND	ND	ND	ND	0.8	0.4	307.7	ND	ND	0	0
86568	2019-12-13T23:00:00	ND	ND	ND	ND	ND	2.5	0.9	325.6	ND	ND	0	0.51
86569	2019-12-14T00:00:00	ND	ND	ND	ND	ND	0.7	0.5	225.1	ND	ND	0	0.25
86570	2019-12-14T01:00:00	ND	ND	ND	ND	ND	0.5	0.9	229.2	ND	ND	0	0
86571	2019-12-14T02:00:00	ND	ND	ND	ND	ND	0.9	0.8	194.4	ND	ND	0	11.18
86572	2019-12-14T03:00:00	ND	ND	ND	ND	ND	0.6	0.7	250.1	ND	ND	0	0
86573	2019-12-14T04:00:00	ND	ND	ND	ND	ND	1.5	0.8	303.8	ND	ND	0	0.51
86574	2019-12-14T05:00:00	ND	ND	ND	ND	ND	0.8	0.8	198.5	ND	ND	0	0
86575	2019-12-14T06:00:00	ND	ND	ND	ND	ND	1	0.7	250.5	ND	ND	0	1.27
86576	2019-12-14T07:00:00	ND	ND	ND	ND	ND	0.8	0.6	296.1	ND	ND	0	0.25
86577	2019-12-14T08:00:00	ND	ND	ND	ND	ND	1	0.3	210.7	ND	ND	40.8	0
86578	2019-12-14T09:00:00	ND	ND	ND	ND	ND	5.3	0.5	223.2	ND	ND	244.3	0
86579	2019-12-14T10:00:00	ND	ND	ND	ND	ND	11.2	0.6	91	ND	ND	571.4	0
86580	2019-12-14T11:00:00	ND	ND	ND	ND	ND	16.3	0.8	83.4	ND	ND	584	0
86581	2019-12-14T12:00:00	ND	ND	ND	ND	ND	25.5	0.8	207.9	ND	ND	642	0
86582	2019-12-14T13:00:00	ND	ND	ND	ND	ND	40.8	0.6	221	ND	ND	617	0
86583	2019-12-14T14:00:00	ND	ND	ND	ND	ND	59	0.7	99.8	ND	ND	644	0
86584	2019-12-14T15:00:00	ND	ND	ND	ND	ND	25.5	2.5	327.7	ND	ND	554.7	0
86585	2019-12-14T16:00:00	ND	ND	ND	ND	ND	5.5	2.6	327.6	ND	ND	251.2	0
86586	2019-12-14T17:00:00	ND	ND	ND	ND	ND	7.2	2.3	330.9	ND	ND	191.4	0
86587	2019-12-14T18:00:00	ND	ND	ND	ND	ND	6.7	3.1	326	ND	ND	211.4	0
86588	2019-12-14T19:00:00	ND	ND	ND	ND	ND	3.7	1.8	342	ND	ND	0	0
86589	2019-12-14T20:00:00	ND	ND	ND	ND	ND	1.2	1.5	336.6	ND	ND	0	0
86590	2019-12-14T21:00:00	ND	ND	ND	ND	ND	2.2	1.6	253.4	ND	ND	0	0
86591	2019-12-14T22:00:00	ND	ND	ND	ND	ND	4.1	1.9	234.9	ND	ND	0	1.78
86592	2019-12-14T23:00:00	ND	ND	ND	ND	ND	1.6	1.7	245.4	ND	ND	0	0.25
86593	2019-12-15T00:00:00	ND	ND	ND	ND	ND	0.7	1.5	240.3	ND	ND	0	0
86594	2019-12-15T01:00:00	ND	ND	ND	ND	ND	0.7	0.8	233.1	ND	ND	0	0.25
86595	2019-12-15T02:00:00	ND	ND	ND	ND	ND	0.4	0.4	228.2	ND	ND	0	0
86596	2019-12-15T03:00:00	ND	ND	ND	ND	ND	0.7	0.6	115.1	ND	ND	0	0
86597	2019-12-15T04:00:00	ND	ND	ND	ND	ND	0.7	0.7	119	ND	ND	0	0
86598	2019-12-15T05:00:00	ND	ND	ND	ND	ND	0.5	0.9	96.1	ND	ND	0	0
86599	2019-12-15T06:00:00	ND	ND	ND	ND	ND	0.7	0.6	79.2	ND	ND	0	0
86600	2019-12-15T07:00:00	ND	ND	ND	ND	ND	1.1	0.6	24.4	ND	ND	0	0
86601	2019-12-15T08:00:00	ND	ND	ND	ND	ND	3.1	0.3	75.7	ND	ND	120.5	0
86602	2019-12-15T09:00:00	ND	ND	ND	ND	ND	5.1	1.3	113.1	ND	ND	528.5	0
86603	2019-12-15T10:00:00	ND	ND	ND	ND	ND	11.9	1	107.4	ND	ND	428.9	0
86604	2019-12-15T11:00:00	ND	ND	ND	ND	ND	30.6	0.8	216.3	ND	ND	523.6	0
86605	2019-12-15T12:00:00	ND	ND	ND	ND	ND	57.4	1.1	196.4	ND	ND	648.6	0
86606	2019-12-15T13:00:00	ND	ND	ND	ND	ND	63.1	0.7	178.4	ND	ND	648.4	0
86607	2019-12-15T14:00:00	ND	ND	ND	ND	ND	59.2	0.8	201.3	ND	ND	649	0
86608	2019-12-15T15:00:00	ND	ND	ND	ND	ND	60.4	0.3	217.1	ND	ND	619.9	0
86609	2019-12-15T16:00:00	ND	ND	ND	ND	ND	42.3	1.9	347.7	ND	ND	412.7	0
86610	2019-12-15T17:00:00	ND	ND	ND	ND	ND	16.3	2.4	316.7	ND	ND	468.6	0
86611	2019-12-15T18:00:00	ND	ND	ND	ND	ND	7.7	1.9	312.8	ND	ND	386	0
86612	2019-12-15T19:00:00	ND	ND	ND	ND	ND	3.1	2	315	ND	ND	0	0
86613	2019-12-15T20:00:00	ND	ND	ND	ND	ND	1.5	1.1	348.7	ND	ND	0	0
86614	2019-12-15T21:00:00	ND	ND	ND	ND	ND	0.6	0.3	287.1	ND	ND	0	0
86615	2019-12-15T22:00:00	ND	ND	ND	ND	ND	0.9	0.8	293	ND	ND	0	0
86616	2019-12-15T23:00:00	ND	ND	ND	ND	ND	2.5	1.6	264	ND	ND	0	0
86617	2019-12-16T00:00:00	ND	ND	ND	ND	ND	0.7	0.3	223.7	ND	ND	0	0
86618	2019-12-16T01:00:00	ND	ND	ND	ND	ND	1.1	0.5	322	ND	ND	0	0
86619	2019-12-16T02:00:00	ND	ND	ND	ND	ND	1	0.4	268.3	ND	ND	0	0
86620	2019-12-16T03:00:00	ND	ND	ND	ND	ND	1.7	0.3	299.1	ND	ND	0	0
86621	2019-12-16T04:00:00	ND	ND	ND	ND	ND	5.2	0.7	301.8	ND	ND	0	0
86622	2019-12-16T05:00:00	ND	ND	ND	ND	ND	1.6	0.7	66.8	ND	ND	0	0
86623	2019-12-16T06:00:00	ND	ND	ND	ND	ND	0.6	0.5	75.2	ND	ND	0	0
86624	2019-12-16T07:00:00	ND	ND	ND	ND	ND	0.7	0.1	116.7	ND	ND	0	0
86625	2019-12-16T08:00:00	ND	ND	ND	ND	ND	1.6	1	246.3	ND	ND	39.5	0
86626	2019-12-16T09:00:00	ND	ND	ND	ND	ND	3.5	1.5	192.5	ND	ND	336.5	0
86627	2019-12-16T10:00:00	ND	ND	ND	ND	ND	12.5	1.2	193.6	ND	ND	553.2	0
86628	2019-12-16T11:00:00	ND	ND	ND	ND	ND	35.2	0.4	132	ND	ND	648.8	0
86629	2019-12-16T12:00:00	ND	ND	ND	ND	ND	63.6	1	129.2	ND	ND	637	0
86630	2019-12-16T13:00:00	ND	ND	ND	ND	ND	64	0.8	7.9	ND	ND	636.6	0
86631	2019-12-16T14:00:00	ND	ND	ND	ND	ND	45.2	0.8	0.1	ND	ND	454.3	0
86632	2019-12-16T15:00:00	ND	ND	ND	ND	ND	28.8	1.4	313.4	ND	ND	605.7	0
86633	2019-12-16T16:00:00	ND	ND	ND	ND	ND	19.6	2.6	330.1	ND	ND	623.3	0
86634	2019-12-16T17:00:00	ND	ND	ND	ND	ND	11.9	3.1	320.7	ND	ND	648.6	0
86635	2019-12-16T18:00:00	ND	ND	ND	ND	ND	11	2.7	253.4	ND	ND	303.2	0
86636	2019-12-16T19:00:00	ND	ND	ND	ND	ND	1.9	2.1	309.1	ND	ND	0	0
86637	2019-12-16T20:00:00	ND	ND	ND	ND	ND	3.1	1.4	341.6	ND	ND	0	0
86638	2019-12-16T21:00:00	ND	ND	ND	ND	ND	0.8	0.8	107.5	ND	ND	0	0
86639	2019-12-16T22:00:00	ND	ND	ND	ND	ND	0.6	0.4	185.4	ND	ND	0	0
86640	2019-12-16T23:00:00	ND	ND	ND	ND	ND	0.5	1.1	206.9	ND	ND	0	0
86641	2019-12-17T00:00:00	ND	ND	ND	ND	ND	1.3	1.4	247.6	ND	ND	0	0
86642	2019-12-17T01:00:00	ND	ND	ND	ND	ND	0.7	1	233.4	ND	ND	0	0
86643	2019-12-17T02:00:00	ND	ND	ND	ND	ND	0.6	0.5	55.2	ND	ND	0	0
86644	2019-12-17T03:00:00	ND	ND	ND	ND	ND	0.6	0.6	75.8	ND	ND	0	0
86645	2019-12-17T04:00:00	ND	ND	ND	ND	ND	0.7	0.4	81.4	ND	ND	0	0
86646	2019-12-17T05:00:00	ND	ND	ND	ND	ND	0.8	0.8	130.3	ND	ND	0	0
86647	2019-12-17T06:00:00	ND	ND	ND	ND	ND	0.6	1	74.5	ND	ND	0	0
86648	2019-12-17T07:00:00	ND	ND	ND	ND	ND	0.7	1.3	78.1	ND	ND	0	0
86649	2019-12-17T08:00:00	ND	ND	ND	ND	ND	1.6	0.9	66.6	ND	ND	53.8	0
86650	2019-12-17T09:00:00	ND	ND	ND	ND	ND	8.1	0.8	145.4	ND	ND	292.4	0
86651	2019-12-17T10:00:00	ND	ND	ND	ND	ND	10.8	1.2	184.6	ND	ND	584.4	0
86652	2019-12-17T11:00:00	ND	ND	ND	ND	ND	10.1	1.2	304.6	ND	ND	548.3	0
86653	2019-12-17T12:00:00	ND	ND	ND	ND	ND	15.1	1.5	306.7	ND	ND	383.4	0.25
86654	2019-12-17T13:00:00	ND	ND	ND	ND	ND	47.8	0.1	327.7	ND	ND	554.1	0
86655	2019-12-17T14:00:00	ND	ND	ND	ND	ND	46.3	1.9	290.6	ND	ND	648.8	0
86656	2019-12-17T15:00:00	ND	ND	ND	ND	ND	7.4	2.5	54.3	ND	ND	492.1	28.19
86657	2019-12-17T16:00:00	ND	ND	ND	ND	ND	3.8	2.3	58.9	ND	ND	230.1	0
86658	2019-12-17T17:00:00	ND	ND	ND	ND	ND	5.8	2.2	68.1	ND	ND	479.1	0
86659	2019-12-17T18:00:00	ND	ND	ND	ND	ND	1.3	1.3	63.9	ND	ND	351.3	0
86660	2019-12-17T19:00:00	ND	ND	ND	ND	ND	0.9	0.9	117.7	ND	ND	0	0
86661	2019-12-17T20:00:00	ND	ND	ND	ND	ND	0.7	1	110.8	ND	ND	0	0
86662	2019-12-17T21:00:00	ND	ND	ND	ND	ND	1.3	1.9	237.6	ND	ND	0	0
86663	2019-12-17T22:00:00	ND	ND	ND	ND	ND	5.6	1.4	251.2	ND	ND	0	0
86664	2019-12-17T23:00:00	ND	ND	ND	ND	ND	6.6	1.6	246.7	ND	ND	0	0
86665	2019-12-18T00:00:00	ND	ND	ND	ND	ND	1.6	0.9	177.5	ND	ND	0	0
86666	2019-12-18T01:00:00	ND	ND	ND	ND	ND	2.9	0.4	180.6	ND	ND	0	0
86667	2019-12-18T02:00:00	ND	ND	ND	ND	ND	2.4	0.7	119.5	ND	ND	0	0
86668	2019-12-18T03:00:00	ND	ND	ND	ND	ND	0.7	0.6	104.1	ND	ND	0	0
86669	2019-12-18T04:00:00	ND	ND	ND	ND	ND	1.2	0.3	155.8	ND	ND	0	0
86670	2019-12-18T05:00:00	ND	ND	ND	ND	ND	1.6	0.6	185.2	ND	ND	0	0
86671	2019-12-18T06:00:00	ND	ND	ND	ND	ND	0.6	0.4	173.4	ND	ND	0	0
86672	2019-12-18T07:00:00	ND	ND	ND	ND	ND	1	0.8	134.2	ND	ND	0	0
86673	2019-12-18T08:00:00	ND	ND	ND	ND	ND	1.8	0.6	164.3	ND	ND	44.6	0
86674	2019-12-18T09:00:00	ND	ND	ND	ND	ND	4	1.1	200.8	ND	ND	350.1	0
86675	2019-12-18T10:00:00	ND	ND	ND	ND	ND	14.5	1.3	238.1	ND	ND	371	0
86676	2019-12-18T11:00:00	ND	ND	ND	ND	ND	25.6	0.8	206.2	ND	ND	640.3	0
86677	2019-12-18T12:00:00	ND	ND	ND	ND	ND	50.6	0.9	151.2	ND	ND	628.7	0
86678	2019-12-18T13:00:00	ND	ND	ND	ND	ND	67.7	0.7	155	ND	ND	648.1	0
86679	2019-12-18T14:00:00	ND	ND	ND	ND	ND	25.1	2.1	357.5	ND	ND	557.9	0
86680	2019-12-18T15:00:00	ND	ND	ND	ND	ND	6.9	2.3	302	ND	ND	179.8	0.25
86681	2019-12-18T16:00:00	ND	ND	ND	ND	ND	15	0.2	267.9	ND	ND	339.1	0.25
86682	2019-12-18T17:00:00	ND	ND	ND	ND	ND	9.9	1.6	327.5	ND	ND	510.2	0
86683	2019-12-18T18:00:00	ND	ND	ND	ND	ND	4.8	2.4	319.4	ND	ND	277.1	0
86684	2019-12-18T19:00:00	ND	ND	ND	ND	ND	4.3	2.4	329	ND	ND	0	0
86685	2019-12-18T20:00:00	ND	ND	ND	ND	ND	3.8	2.3	303.5	ND	ND	0	0
86686	2019-12-18T21:00:00	ND	ND	ND	ND	ND	1.7	1.9	313.9	ND	ND	0	0
86687	2019-12-18T22:00:00	ND	ND	ND	ND	ND	1.4	0.9	6.1	ND	ND	0	0
86688	2019-12-18T23:00:00	ND	ND	ND	ND	ND	0.7	0.8	88.7	ND	ND	0	0
86689	2019-12-19T00:00:00	ND	ND	ND	ND	ND	0.9	0.6	302	ND	ND	0	0
86690	2019-12-19T01:00:00	ND	ND	ND	ND	ND	0.7	1.3	248.3	ND	ND	0	0
86691	2019-12-19T02:00:00	ND	ND	ND	ND	ND	1.2	0.6	261.9	ND	ND	0	0
86692	2019-12-19T03:00:00	ND	ND	ND	ND	ND	3.7	1.1	301.2	ND	ND	0	0
86693	2019-12-19T04:00:00	ND	ND	ND	ND	ND	3.9	0.5	288.4	ND	ND	0	0
86694	2019-12-19T05:00:00	ND	ND	ND	ND	ND	0.7	0.4	74	ND	ND	0	0
86695	2019-12-19T06:00:00	ND	ND	ND	ND	ND	0.7	0.2	220.4	ND	ND	0	0
86696	2019-12-19T07:00:00	ND	ND	ND	ND	ND	0.8	0.7	95	ND	ND	0	0
86697	2019-12-19T08:00:00	ND	ND	ND	ND	ND	1.1	0.3	212	ND	ND	62.9	0
86698	2019-12-19T09:00:00	ND	ND	ND	ND	ND	6.2	0.8	232.8	ND	ND	312.6	0
86699	2019-12-19T10:00:00	ND	ND	ND	ND	ND	23.2	1.2	221.9	ND	ND	626.1	0
86700	2019-12-19T11:00:00	ND	ND	ND	ND	ND	43.8	0.9	189.7	ND	ND	648.5	0
86701	2019-12-19T12:00:00	ND	ND	ND	ND	ND	64.9	1.5	168.9	ND	ND	648.8	0
86702	2019-12-19T13:00:00	ND	ND	ND	ND	ND	75.2	1.1	107.7	ND	ND	647.4	0
86703	2019-12-19T14:00:00	ND	ND	ND	ND	ND	91.2	0.9	113.6	ND	ND	636.9	0
86704	2019-12-19T15:00:00	ND	ND	ND	ND	ND	108.2	0.9	23.3	ND	ND	534	0
86705	2019-12-19T16:00:00	ND	ND	ND	ND	ND	40.3	1.4	349.1	ND	ND	508.2	0
86706	2019-12-19T17:00:00	ND	ND	ND	ND	ND	15.5	4.1	330.4	ND	ND	642.4	0
86707	2019-12-19T18:00:00	ND	ND	ND	ND	ND	10.1	3.5	333.6	ND	ND	323.2	0
86708	2019-12-19T19:00:00	ND	ND	ND	ND	ND	8.6	4.2	323.3	ND	ND	0	0
86709	2019-12-19T20:00:00	ND	ND	ND	ND	ND	9	3.9	320.1	ND	ND	0	0
86710	2019-12-19T21:00:00	ND	ND	ND	ND	ND	8.1	2.7	337.9	ND	ND	0	0
86711	2019-12-19T22:00:00	ND	ND	ND	ND	ND	1.2	0.7	106.4	ND	ND	0	0
86712	2019-12-19T23:00:00	ND	ND	ND	ND	ND	2.3	1.2	265	ND	ND	0	0
86713	2019-12-20T00:00:00	ND	ND	ND	ND	ND	5	1.6	252.5	ND	ND	0	0
86714	2019-12-20T01:00:00	ND	ND	ND	ND	ND	0.7	0.5	161.9	ND	ND	0	0
86715	2019-12-20T02:00:00	ND	ND	ND	ND	ND	0.6	0.8	222.3	ND	ND	0	0
86716	2019-12-20T03:00:00	ND	ND	ND	ND	ND	1	0.7	229.3	ND	ND	0	0
86717	2019-12-20T04:00:00	ND	ND	ND	ND	ND	0.9	0.4	226.2	ND	ND	0	0
86718	2019-12-20T05:00:00	ND	ND	ND	ND	ND	0.6	0.5	173.2	ND	ND	0	0
86719	2019-12-20T06:00:00	ND	ND	ND	ND	ND	0.8	0.7	117.4	ND	ND	0	0
86720	2019-12-20T07:00:00	ND	ND	ND	ND	ND	0.9	0.6	105.4	ND	ND	0	0
86721	2019-12-20T08:00:00	ND	ND	ND	ND	ND	1.3	0.8	127.2	ND	ND	48.8	0
86722	2019-12-20T09:00:00	ND	ND	ND	ND	ND	5.9	0.3	256.9	ND	ND	249.6	0
86723	2019-12-20T10:00:00	ND	ND	ND	ND	ND	31.3	1.4	181.9	ND	ND	552.3	0
86724	2019-12-20T11:00:00	ND	ND	ND	ND	ND	ND	1.7	192.4	ND	ND	648.4	0
86725	2019-12-20T12:00:00	ND	ND	ND	ND	ND	33.5	1.4	210.6	ND	ND	633.2	0
86726	2019-12-20T13:00:00	ND	ND	ND	ND	ND	49.1	0.7	213.8	ND	ND	637.3	0
86727	2019-12-20T14:00:00	ND	ND	ND	ND	ND	65.3	0.2	130.3	ND	ND	644	0
86728	2019-12-20T15:00:00	ND	ND	ND	ND	ND	50.3	0.4	29.7	ND	ND	601.3	0
86729	2019-12-20T16:00:00	ND	ND	ND	ND	ND	16.5	2.6	329.6	ND	ND	352	0
86730	2019-12-20T17:00:00	ND	ND	ND	ND	ND	12.6	2.8	339.6	ND	ND	295	0
86731	2019-12-20T18:00:00	ND	ND	ND	ND	ND	8	3.5	319.2	ND	ND	223.7	0
86732	2019-12-20T19:00:00	ND	ND	ND	ND	ND	5.4	3.5	323.1	ND	ND	0	0
86733	2019-12-20T20:00:00	ND	ND	ND	ND	ND	6.8	3.4	322.1	ND	ND	0	0
86734	2019-12-20T21:00:00	ND	ND	ND	ND	ND	5.2	1.9	336.9	ND	ND	0	0
86735	2019-12-20T22:00:00	ND	ND	ND	ND	ND	6.4	2.7	306.9	ND	ND	0	0
86736	2019-12-20T23:00:00	ND	ND	ND	ND	ND	6.9	1.9	294	ND	ND	0	0
86737	2019-12-21T00:00:00	ND	ND	ND	ND	ND	2.9	0.6	241.6	ND	ND	0	0
86738	2019-12-21T01:00:00	ND	ND	ND	ND	ND	1.8	0.8	196.3	ND	ND	0	0
86739	2019-12-21T02:00:00	ND	ND	ND	ND	ND	1.4	0.9	175.4	ND	ND	0	0
86740	2019-12-21T03:00:00	ND	ND	ND	ND	ND	1.6	0.6	124	ND	ND	0	0
86741	2019-12-21T04:00:00	ND	ND	ND	ND	ND	1.6	0.5	136.3	ND	ND	0	0
86742	2019-12-21T05:00:00	ND	ND	ND	ND	ND	2	0.6	101	ND	ND	0	0
86743	2019-12-21T06:00:00	ND	ND	ND	ND	ND	2	0.4	143.9	ND	ND	0	0
86744	2019-12-21T07:00:00	ND	ND	ND	ND	ND	1.8	0.8	296.9	ND	ND	0	0
86745	2019-12-21T08:00:00	ND	ND	ND	ND	ND	2.6	0.1	93	ND	ND	44.4	0
86746	2019-12-21T09:00:00	ND	ND	ND	ND	ND	5.3	1.1	101.5	ND	ND	218	0
86747	2019-12-21T10:00:00	ND	ND	ND	ND	ND	8.6	0.7	179.7	ND	ND	382.3	0
86748	2019-12-21T11:00:00	ND	ND	ND	ND	ND	18.6	1.4	184.6	ND	ND	538.1	0
86749	2019-12-21T12:00:00	ND	ND	ND	ND	ND	42.5	1.1	198.7	ND	ND	642.7	0
86750	2019-12-21T13:00:00	ND	ND	ND	ND	ND	75.1	0.8	151.6	ND	ND	646.3	0
86751	2019-12-21T14:00:00	ND	ND	ND	ND	ND	68.9	0.8	155.6	ND	ND	645.4	0
86752	2019-12-21T15:00:00	ND	ND	ND	ND	ND	44.4	0.7	87.3	ND	ND	582.7	0
86753	2019-12-21T16:00:00	ND	ND	ND	ND	ND	15.3	1.9	315.3	ND	ND	361	0
86754	2019-12-21T17:00:00	ND	ND	ND	ND	ND	9.6	3.2	322.3	ND	ND	258.9	0
86755	2019-12-21T18:00:00	ND	ND	ND	ND	ND	6.9	2.7	319.9	ND	ND	172.8	0
86756	2019-12-21T19:00:00	ND	ND	ND	ND	ND	4.1	2.4	323.1	ND	ND	0	0
86757	2019-12-21T20:00:00	ND	ND	ND	ND	ND	3.5	2.7	319.5	ND	ND	0	0
86758	2019-12-21T21:00:00	ND	ND	ND	ND	ND	4.3	2.2	325.8	ND	ND	0	0
86759	2019-12-21T22:00:00	ND	ND	ND	ND	ND	2.7	0.6	83	ND	ND	0	0
86760	2019-12-21T23:00:00	ND	ND	ND	ND	ND	4.2	0.8	340.9	ND	ND	0	0
86761	2019-12-22T00:00:00	ND	ND	ND	ND	ND	3.5	0.9	322.3	ND	ND	0	0
86762	2019-12-22T01:00:00	ND	ND	ND	ND	ND	2.2	0.8	243.9	ND	ND	0	0
86763	2019-12-22T02:00:00	ND	ND	ND	ND	ND	2.2	1.7	235.6	ND	ND	0	0
86764	2019-12-22T03:00:00	ND	ND	ND	ND	ND	2.1	1.1	250	ND	ND	0	0
86765	2019-12-22T04:00:00	ND	ND	ND	ND	ND	1.8	0.7	237.6	ND	ND	0	0
86766	2019-12-22T05:00:00	ND	ND	ND	ND	ND	1.8	0.5	241.7	ND	ND	0	0
86767	2019-12-22T06:00:00	ND	ND	ND	ND	ND	2	0.3	225.1	ND	ND	0	0
86768	2019-12-22T07:00:00	ND	ND	ND	ND	ND	3	0.6	218.7	ND	ND	0	0
86769	2019-12-22T08:00:00	ND	ND	ND	ND	ND	5.9	0.3	212.9	ND	ND	91.7	0
86770	2019-12-22T09:00:00	ND	ND	ND	ND	ND	7.6	0.9	90.6	ND	ND	341.1	0
86771	2019-12-22T10:00:00	ND	ND	ND	ND	ND	11.9	0.5	142.4	ND	ND	297.5	0
86772	2019-12-22T11:00:00	ND	ND	ND	ND	ND	27.1	1.3	104.9	ND	ND	512	0
86773	2019-12-22T12:00:00	ND	ND	ND	ND	ND	36	0.9	99.9	ND	ND	648.9	0
86774	2019-12-22T13:00:00	ND	ND	ND	ND	ND	50.4	1	134.1	ND	ND	648.6	0
86775	2019-12-22T14:00:00	ND	ND	ND	ND	ND	75.9	0.9	115	ND	ND	648.9	0
86776	2019-12-22T15:00:00	ND	ND	ND	ND	ND	84.1	0.4	101.5	ND	ND	625.6	0
86777	2019-12-22T16:00:00	ND	ND	ND	ND	ND	24.8	2.1	326.9	ND	ND	474.1	0
86778	2019-12-22T17:00:00	ND	ND	ND	ND	ND	21.7	2.7	328.2	ND	ND	438.7	0
86779	2019-12-22T18:00:00	ND	ND	ND	ND	ND	13.8	2.6	331.7	ND	ND	288.1	0
86780	2019-12-22T19:00:00	ND	ND	ND	ND	ND	5.8	2.9	321.6	ND	ND	0	0
86781	2019-12-22T20:00:00	ND	ND	ND	ND	ND	7.5	3.2	322.6	ND	ND	0	0
86782	2019-12-22T21:00:00	ND	ND	ND	ND	ND	8.7	1.8	351.3	ND	ND	0	0
86783	2019-12-22T22:00:00	ND	ND	ND	ND	ND	6.5	1.1	4.6	ND	ND	0	0
86784	2019-12-22T23:00:00	ND	ND	ND	ND	ND	1.8	0.6	128.9	ND	ND	0	0
86785	2019-12-23T00:00:00	ND	ND	ND	ND	ND	5.9	1.6	299.2	ND	ND	0	0
86786	2019-12-23T01:00:00	ND	ND	ND	ND	ND	5.5	1.4	304.2	ND	ND	0	0
86787	2019-12-23T02:00:00	ND	ND	ND	ND	ND	7.8	1.9	263.4	ND	ND	0	0
86788	2019-12-23T03:00:00	ND	ND	ND	ND	ND	4.7	1.3	239.6	ND	ND	0	0
86789	2019-12-23T04:00:00	ND	ND	ND	ND	ND	2.6	1	208.4	ND	ND	0	0
86790	2019-12-23T05:00:00	ND	ND	ND	ND	ND	1.8	0.9	214.7	ND	ND	0	1.52
86791	2019-12-23T06:00:00	ND	ND	ND	ND	ND	1.7	1	249	ND	ND	0	0.51
86792	2019-12-23T07:00:00	ND	ND	ND	ND	ND	1.7	0.4	255.8	ND	ND	0	0.25
86793	2019-12-23T08:00:00	ND	ND	ND	ND	ND	2.8	0.7	230.5	ND	ND	43	0
86794	2019-12-23T09:00:00	ND	ND	ND	ND	ND	6.5	0.6	201.3	ND	ND	336.4	0
86795	2019-12-23T10:00:00	ND	ND	ND	ND	ND	15	1	186	ND	ND	594.1	0
86796	2019-12-23T11:00:00	ND	ND	ND	ND	ND	36	0.7	227.2	ND	ND	637.3	0
86797	2019-12-23T12:00:00	ND	ND	ND	ND	ND	48.7	1.3	146	ND	ND	655	0
86798	2019-12-23T13:00:00	ND	ND	ND	ND	ND	41.2	1.4	180.2	ND	ND	656	0
86799	2019-12-23T14:00:00	ND	ND	ND	ND	ND	59.3	1.3	264.2	ND	ND	652.9	0
86800	2019-12-23T15:00:00	ND	ND	ND	ND	ND	25.7	1.1	10	ND	ND	374.8	0
86801	2019-12-23T16:00:00	45.8	ND	ND	ND	ND	16.1	1.4	11.4	ND	ND	411.7	0
86802	2019-12-23T17:00:00	52.7	ND	ND	ND	ND	12.2	1.5	356.8	ND	ND	443.6	0
86803	2019-12-23T18:00:00	47.3	ND	ND	ND	ND	5.4	2.4	324.2	ND	ND	252	0
86804	2019-12-23T19:00:00	11.8	ND	ND	ND	ND	3.2	2.3	324	ND	ND	0	0
86805	2019-12-23T20:00:00	20.5	ND	ND	ND	ND	3.1	1.1	346.8	ND	ND	0	0
86806	2019-12-23T21:00:00	81.6	ND	ND	ND	ND	3.3	1	80	ND	ND	0	0
86807	2019-12-23T22:00:00	138.5	ND	ND	ND	ND	3.3	0.6	198.2	ND	ND	0	0
86808	2019-12-23T23:00:00	99.5	ND	ND	ND	ND	1.7	0.7	258.1	ND	ND	0	0
86809	2019-12-24T00:00:00	47.9	ND	ND	ND	ND	1.6	1.1	314.3	ND	ND	0	0
86810	2019-12-24T01:00:00	22.1	ND	ND	ND	ND	3	1.5	316.5	ND	ND	0	0
86811	2019-12-24T02:00:00	21.9	ND	ND	ND	ND	3.2	0.5	53.6	ND	ND	0	0
86812	2019-12-24T03:00:00	72	ND	ND	ND	ND	2.1	1	59.1	ND	ND	0	0
86813	2019-12-24T04:00:00	83.9	ND	ND	ND	ND	2.1	0.9	61.9	ND	ND	0	0
86814	2019-12-24T05:00:00	70.8	ND	ND	ND	ND	1.9	0.8	94.9	ND	ND	0	0
86815	2019-12-24T06:00:00	84	ND	ND	ND	ND	2.7	0.6	182.3	ND	ND	0	0
86816	2019-12-24T07:00:00	104.2	ND	ND	ND	ND	2.6	1	206.9	ND	ND	0	0
86817	2019-12-24T08:00:00	102.9	ND	ND	ND	ND	3.6	1.1	239.3	ND	ND	51.8	0
86818	2019-12-24T09:00:00	104.6	ND	ND	ND	ND	9.7	1.1	197.9	ND	ND	546.6	0
86819	2019-12-24T10:00:00	96.2	ND	ND	ND	ND	20.7	1.2	204.4	ND	ND	649.4	0
86820	2019-12-24T11:00:00	101.9	ND	ND	ND	ND	34	1.2	198.5	ND	ND	649.2	0
86821	2019-12-24T12:00:00	86.5	ND	ND	ND	ND	49.1	1.1	226.8	ND	ND	649.4	0
86822	2019-12-24T13:00:00	77.9	ND	ND	ND	ND	55.1	1.3	183.7	ND	ND	649.4	0
86823	2019-12-24T14:00:00	85.9	ND	ND	ND	ND	61.7	0.8	155.6	ND	ND	649.9	0
86824	2019-12-24T15:00:00	91.8	ND	ND	ND	ND	48.2	0.6	359.3	ND	ND	590.8	0
86825	2019-12-24T16:00:00	53.8	ND	ND	ND	ND	11.8	2.5	333.5	ND	ND	324.8	0
86826	2019-12-24T17:00:00	46.3	ND	ND	ND	ND	7.9	2.6	333	ND	ND	321.4	0
86827	2019-12-24T18:00:00	30.9	ND	ND	ND	ND	7	3.1	325.3	ND	ND	177.4	0
86828	2019-12-24T19:00:00	28.1	ND	ND	ND	ND	4.8	3.7	315.7	ND	ND	0	0
86829	2019-12-24T20:00:00	28.8	ND	ND	ND	ND	5.7	3.9	320.2	ND	ND	0	0
86830	2019-12-24T21:00:00	23.3	ND	ND	ND	ND	3.2	0.8	0.2	ND	ND	0	0
86831	2019-12-24T22:00:00	32.9	ND	ND	ND	ND	5.7	1.4	351.4	ND	ND	0	0
86832	2019-12-24T23:00:00	31.7	ND	ND	ND	ND	8	2.1	342.4	ND	ND	0	0
86833	2019-12-25T00:00:00	54.6	ND	ND	ND	ND	2.4	1	128.9	ND	ND	0	0
86834	2019-12-25T01:00:00	113.4	ND	ND	ND	ND	3.8	1.1	162	ND	ND	0	0
86835	2019-12-25T02:00:00	117.3	ND	ND	ND	ND	2.8	0.8	201.1	ND	ND	0	0
86836	2019-12-25T03:00:00	97.7	ND	ND	ND	ND	2.6	1.2	207.9	ND	ND	0	0
86837	2019-12-25T04:00:00	75.8	ND	ND	ND	ND	1.9	1	206	ND	ND	0	0
86838	2019-12-25T05:00:00	64.2	ND	ND	ND	ND	7.5	1.3	277.4	ND	ND	0	7.62
86839	2019-12-25T06:00:00	43.2	ND	ND	ND	ND	2.2	0.6	131.9	ND	ND	0	0
86840	2019-12-25T07:00:00	37.5	ND	ND	ND	ND	2.3	0.1	70.7	ND	ND	0	0
86841	2019-12-25T08:00:00	56.1	ND	ND	ND	ND	2.7	0.5	73.6	ND	ND	29.5	0
86842	2019-12-25T09:00:00	72.2	ND	ND	ND	ND	5.9	0.3	186.9	ND	ND	218.5	0
86843	2019-12-25T10:00:00	81	ND	ND	ND	ND	11.7	0.9	119.6	ND	ND	504.2	0
86844	2019-12-25T11:00:00	60.7	ND	ND	ND	ND	22.1	1.1	130.5	ND	ND	623.3	0
86845	2019-12-25T12:00:00	54	ND	ND	ND	ND	36.2	1.2	255.5	ND	ND	645	0
86846	2019-12-25T13:00:00	55.1	ND	ND	ND	ND	47.6	0.1	198.8	ND	ND	612.7	0
86847	2019-12-25T14:00:00	58	ND	ND	ND	ND	55.6	0.8	200	ND	ND	649.6	0
86848	2019-12-25T15:00:00	49.2	ND	ND	ND	ND	60.8	1.1	228.7	ND	ND	639.7	0
86849	2019-12-25T16:00:00	42.5	ND	ND	ND	ND	41.6	1.2	335	ND	ND	649.9	0
86850	2019-12-25T17:00:00	23.2	ND	ND	ND	ND	11.5	2.7	317.8	ND	ND	428.4	0
86851	2019-12-25T18:00:00	12.9	ND	ND	ND	ND	8.5	2.8	325.5	ND	ND	158.8	0
86852	2019-12-25T19:00:00	8.4	ND	ND	ND	ND	5.8	3	320.4	ND	ND	0	0
86853	2019-12-25T20:00:00	10.1	ND	ND	ND	ND	6.9	3.2	330.9	ND	ND	0	0
86854	2019-12-25T21:00:00	12.7	ND	ND	ND	ND	3.5	0.9	358.7	ND	ND	0	0
86855	2019-12-25T22:00:00	39.5	ND	ND	ND	ND	1.8	1	250.1	ND	ND	0	0
86856	2019-12-25T23:00:00	50.1	ND	ND	ND	ND	1.4	0.6	256.7	ND	ND	0	0
86857	2019-12-26T00:00:00	43	ND	ND	ND	ND	1.7	1.1	294.2	ND	ND	0	0
86858	2019-12-26T01:00:00	43.8	ND	ND	ND	ND	1.7	0.8	274.5	ND	ND	0	0
86859	2019-12-26T02:00:00	41.3	ND	ND	ND	ND	1.6	0.5	213.9	ND	ND	0	0
86860	2019-12-26T03:00:00	57	ND	ND	ND	ND	1.7	0.6	157.5	ND	ND	0	0
86861	2019-12-26T04:00:00	52.6	ND	ND	ND	ND	1.6	0.6	103.4	ND	ND	0	0
86862	2019-12-26T05:00:00	53.6	ND	ND	ND	ND	1.6	0.3	229.5	ND	ND	0	0
86863	2019-12-26T06:00:00	63.3	ND	ND	ND	ND	1.8	0.9	247	ND	ND	0	0
86864	2019-12-26T07:00:00	74.5	ND	ND	ND	ND	1.9	0.4	243.2	ND	ND	0	0
86865	2019-12-26T08:00:00	102.6	ND	ND	ND	ND	3.9	0.2	158.6	ND	ND	56	0
86866	2019-12-26T09:00:00	102.7	ND	ND	ND	ND	7.4	1.1	209.3	ND	ND	369.7	0
86867	2019-12-26T10:00:00	80	ND	ND	ND	ND	16	1	174.1	ND	ND	582.2	0
86868	2019-12-26T11:00:00	74.1	ND	ND	ND	ND	32.1	0.9	186.5	ND	ND	637.3	0
86869	2019-12-26T12:00:00	71.3	ND	ND	ND	ND	50.2	0.4	154.9	ND	ND	648.3	0
86870	2019-12-26T13:00:00	83.4	ND	ND	ND	ND	78	0.6	65.4	ND	ND	625	0
86871	2019-12-26T14:00:00	95.4	ND	ND	ND	ND	71	1.6	46.3	ND	ND	646.5	0
86872	2019-12-26T15:00:00	86.8	ND	ND	ND	ND	40.8	1	78	ND	ND	628	0
86873	2019-12-26T16:00:00	65.5	ND	ND	ND	ND	23.9	2.6	340.1	ND	ND	538.7	0
86874	2019-12-26T17:00:00	68.2	ND	ND	ND	ND	12.4	3.9	328.3	ND	ND	617.7	0
86875	2019-12-26T18:00:00	46	ND	ND	ND	ND	8.1	2.8	336.1	ND	ND	379	0
86876	2019-12-26T19:00:00	29.3	ND	ND	ND	ND	6.7	3.5	324.5	ND	ND	0	0
86877	2019-12-26T20:00:00	28.6	ND	ND	ND	ND	8.9	3.8	327	ND	ND	0	0
86878	2019-12-26T21:00:00	21.9	ND	ND	ND	ND	7.8	2.3	345.8	ND	ND	0	0
86879	2019-12-26T22:00:00	20.1	ND	ND	ND	ND	6.3	1.6	338.1	ND	ND	0	0
86880	2019-12-26T23:00:00	15.9	ND	ND	ND	ND	5.1	1.4	288.5	ND	ND	0	0
86881	2019-12-27T00:00:00	29.7	ND	ND	ND	ND	2.1	1.1	253	ND	ND	0	0
86882	2019-12-27T01:00:00	56.2	ND	ND	ND	ND	1.8	1.3	235.7	ND	ND	0	0
86883	2019-12-27T02:00:00	50.2	ND	ND	ND	ND	2.9	1.5	233.3	ND	ND	0	0
86884	2019-12-27T03:00:00	35.9	ND	ND	ND	ND	5.2	1.5	237.1	ND	ND	0	0
86885	2019-12-27T04:00:00	35.7	ND	ND	ND	ND	3.7	1	179.9	ND	ND	0	0
86886	2019-12-27T05:00:00	41.2	ND	ND	ND	ND	2.9	0.6	173.2	ND	ND	0	0
86887	2019-12-27T06:00:00	44.7	ND	ND	ND	ND	2.2	0.5	136.2	ND	ND	0	0
86888	2019-12-27T07:00:00	70.8	ND	ND	ND	ND	2.9	0.5	141.1	ND	ND	0	0
86889	2019-12-27T08:00:00	82.4	ND	ND	ND	ND	3.1	0.6	205.6	ND	ND	64	0
86890	2019-12-27T09:00:00	112.9	ND	ND	ND	ND	4.1	0.6	231.2	ND	ND	157.5	0
86891	2019-12-27T10:00:00	96.2	ND	ND	ND	ND	7.5	0.3	260.2	ND	ND	420.2	0
86892	2019-12-27T11:00:00	83.3	ND	ND	ND	ND	16	0.5	194.1	ND	ND	513.3	0
86893	2019-12-27T12:00:00	82.4	ND	ND	ND	ND	33.5	0.4	131	ND	ND	645.1	0
86894	2019-12-27T13:00:00	95.2	ND	ND	ND	ND	46.2	1.3	102.7	ND	ND	649.4	0
86895	2019-12-27T14:00:00	107.2	ND	ND	ND	ND	54	1.4	68.4	ND	ND	649.4	0
86896	2019-12-27T15:00:00	99.4	ND	ND	ND	ND	40.1	1.3	103.8	ND	ND	649.2	0
86897	2019-12-27T16:00:00	85.5	ND	ND	ND	ND	12.8	1.9	106.1	ND	ND	553.4	0
86898	2019-12-27T17:00:00	63.4	ND	ND	ND	ND	12.8	1.6	324.3	ND	ND	250.1	0
86899	2019-12-27T18:00:00	38.1	ND	ND	ND	ND	11.6	2	347.5	ND	ND	223.8	0
86900	2019-12-27T19:00:00	25.5	ND	ND	ND	ND	8.2	2.1	312.6	ND	ND	0	0
86901	2019-12-27T20:00:00	29.1	ND	ND	ND	ND	7.1	2.1	330.8	ND	ND	0	0
86902	2019-12-27T21:00:00	25.4	ND	ND	ND	ND	4.5	0.4	34.2	ND	ND	0	0
86903	2019-12-27T22:00:00	85.3	ND	ND	ND	ND	2.9	0.7	171	ND	ND	0	0
86904	2019-12-27T23:00:00	100.3	ND	ND	ND	ND	2.7	0.4	285	ND	ND	0	0
86905	2019-12-28T00:00:00	65.8	ND	ND	ND	ND	3.1	1.8	311.5	ND	ND	0	0
86906	2019-12-28T01:00:00	26.3	ND	ND	ND	ND	6.7	1.8	308.7	ND	ND	0	0
86907	2019-12-28T02:00:00	27.6	ND	ND	ND	ND	2.3	1	77.7	ND	ND	0	0
86908	2019-12-28T03:00:00	47.1	ND	ND	ND	ND	1.9	0.7	292.3	ND	ND	0	0
86909	2019-12-28T04:00:00	48.2	ND	ND	ND	ND	3.6	1.2	294.7	ND	ND	0	0
86910	2019-12-28T05:00:00	37.5	ND	ND	ND	ND	2.5	0.3	272.4	ND	ND	0	0
86911	2019-12-28T06:00:00	74.5	ND	ND	ND	ND	1.8	0.4	356.9	ND	ND	0	0
86912	2019-12-28T07:00:00	75.2	ND	ND	ND	ND	2.2	0.3	262.8	ND	ND	0	0
86913	2019-12-28T08:00:00	96.8	ND	ND	ND	ND	3.9	0.8	106.5	ND	ND	33.2	0
86914	2019-12-28T09:00:00	165	ND	ND	ND	ND	7.1	0.6	106.6	ND	ND	161	0
86915	2019-12-28T10:00:00	170	ND	ND	ND	ND	15.4	1	59.5	ND	ND	531.3	0
86916	2019-12-28T11:00:00	109.4	ND	ND	ND	ND	28.8	1	133	ND	ND	649.3	0
86917	2019-12-28T12:00:00	89.5	ND	ND	ND	ND	54.2	1	110.6	ND	ND	636.4	0
86918	2019-12-28T13:00:00	99.1	ND	ND	ND	ND	78.8	1	117	ND	ND	638.6	0
86919	2019-12-28T14:00:00	117.6	ND	ND	ND	ND	76.3	1	123.9	ND	ND	617	0
86920	2019-12-28T15:00:00	95.8	ND	ND	ND	ND	80.8	1.2	307.9	ND	ND	642.5	0
86921	2019-12-28T16:00:00	74.7	ND	ND	ND	ND	57.8	2	323.5	ND	ND	557.9	0
86922	2019-12-28T17:00:00	53.8	ND	ND	ND	ND	18.7	3.4	334.3	ND	ND	526.9	0
86923	2019-12-28T18:00:00	36.5	ND	ND	ND	ND	12.4	3.3	327.9	ND	ND	149.9	0
86924	2019-12-28T19:00:00	32.5	ND	ND	ND	ND	10	3.5	324	ND	ND	0	0
86925	2019-12-28T20:00:00	37.8	ND	ND	ND	ND	9.5	4.1	321.1	ND	ND	0	0
86926	2019-12-28T21:00:00	35.8	ND	ND	ND	ND	3	0.7	72.6	ND	ND	0	0
86927	2019-12-28T22:00:00	84.5	ND	ND	ND	ND	4.3	0.6	307.5	ND	ND	0	0
86928	2019-12-28T23:00:00	56.8	ND	ND	ND	ND	14.1	0.8	39.6	ND	ND	0	0
86929	2019-12-29T00:00:00	188.4	ND	ND	ND	ND	11	0.7	252.5	ND	ND	0	0
86930	2019-12-29T01:00:00	148.9	ND	ND	ND	ND	6.6	0.8	227.1	ND	ND	0	0
86931	2019-12-29T02:00:00	85.9	ND	ND	ND	ND	2.1	1.7	229.2	ND	ND	0	0
86932	2019-12-29T03:00:00	55.1	ND	ND	ND	ND	1.6	0.8	205.6	ND	ND	0	0
86933	2019-12-29T04:00:00	50.3	ND	ND	ND	ND	1.6	0.9	218.2	ND	ND	0	0
86934	2019-12-29T05:00:00	43.4	ND	ND	ND	ND	1.6	0.9	222.6	ND	ND	0	0
86935	2019-12-29T06:00:00	46.4	ND	ND	ND	ND	2	0.8	229.5	ND	ND	0	0
86936	2019-12-29T07:00:00	62.9	ND	ND	ND	ND	2.5	0.2	262	ND	ND	0	0
86937	2019-12-29T08:00:00	66.9	ND	ND	ND	ND	4.9	0.8	214.3	ND	ND	53.1	0
86938	2019-12-29T09:00:00	76.7	ND	ND	ND	ND	9.4	0.6	234.2	ND	ND	294.7	0
86939	2019-12-29T10:00:00	68.1	ND	ND	ND	ND	22.2	1.4	183.5	ND	ND	512.4	0
86940	2019-12-29T11:00:00	77.6	ND	ND	ND	ND	37.8	1.3	151.7	ND	ND	649.4	0
86941	2019-12-29T12:00:00	77.1	ND	ND	ND	ND	47.5	0.4	173.5	ND	ND	644.3	0
86942	2019-12-29T13:00:00	78.1	ND	ND	ND	ND	46.2	0.9	13	ND	ND	566.8	0
86943	2019-12-29T14:00:00	51.9	ND	ND	ND	ND	42.7	0.8	124.7	ND	ND	526.4	0
86944	2019-12-29T15:00:00	46	ND	ND	ND	ND	36.4	1.9	25.3	ND	ND	611.2	0
86945	2019-12-29T16:00:00	37.4	ND	ND	ND	ND	24.2	3	331.1	ND	ND	379.4	0
86946	2019-12-29T17:00:00	36.2	ND	ND	ND	ND	19.4	4.1	327.2	ND	ND	573.5	0
86947	2019-12-29T18:00:00	27.8	ND	ND	ND	ND	15.3	3.8	327.6	ND	ND	450.7	0
86948	2019-12-29T19:00:00	19.6	ND	ND	ND	ND	11.5	3.4	332	ND	ND	0	0
86949	2019-12-29T20:00:00	22.8	ND	ND	ND	ND	11.2	3.5	322.9	ND	ND	0	0
86950	2019-12-29T21:00:00	27.2	ND	ND	ND	ND	13.9	3.1	298.1	ND	ND	0	0
86951	2019-12-29T22:00:00	42.3	ND	ND	ND	ND	10	1.6	236.9	ND	ND	0	0
86952	2019-12-29T23:00:00	50.1	ND	ND	ND	ND	6.3	1.6	194	ND	ND	0	0
86953	2019-12-30T00:00:00	50.4	ND	ND	ND	ND	6.2	0.7	154.4	ND	ND	0	0
86954	2019-12-30T01:00:00	43.1	ND	ND	ND	ND	4.4	1.1	99.8	ND	ND	0	0
86955	2019-12-30T02:00:00	51.6	ND	ND	ND	ND	6.2	1.7	68.7	ND	ND	0	0
86956	2019-12-30T03:00:00	67.4	ND	ND	ND	ND	9	1.5	97.4	ND	ND	0	0
86957	2019-12-30T04:00:00	40.6	ND	ND	ND	ND	8.2	1.1	55.4	ND	ND	0	6.1
86958	2019-12-30T05:00:00	34.3	ND	ND	ND	ND	4.9	0.2	165.2	ND	ND	0	ND
86959	2019-12-30T06:00:00	30	ND	ND	ND	ND	2.9	1.2	271.9	ND	ND	0	1.52
86960	2019-12-30T07:00:00	30.5	ND	ND	ND	ND	2.2	0.6	204.6	ND	ND	0	0
86961	2019-12-30T08:00:00	37.8	ND	ND	ND	ND	3.2	0.7	202.3	ND	ND	62.4	0
86962	2019-12-30T09:00:00	53.9	ND	ND	ND	ND	7.4	1.1	237.9	ND	ND	332.9	0
86963	2019-12-30T10:00:00	69.2	ND	ND	ND	ND	16.6	0.6	183.2	ND	ND	566.2	0
86964	2019-12-30T11:00:00	58	ND	ND	ND	ND	30.8	0.5	181.7	ND	ND	641.5	0
86965	2019-12-30T12:00:00	85.7	ND	ND	ND	ND	40.1	0.7	170.3	ND	ND	649.3	0
86966	2019-12-30T13:00:00	81.2	ND	ND	ND	ND	60	0.7	28	ND	ND	647.3	0
86967	2019-12-30T14:00:00	57.5	ND	ND	ND	ND	36.1	1.5	4.5	ND	ND	628.6	0
86968	2019-12-30T15:00:00	51	ND	ND	ND	ND	14.3	4.1	346.9	ND	ND	579.8	0
86969	2019-12-30T16:00:00	41.5	ND	ND	ND	ND	12.6	4.4	344	ND	ND	625.2	0
86970	2019-12-30T17:00:00	37.2	ND	ND	ND	ND	14.2	3.6	301	ND	ND	435.5	0
86971	2019-12-30T18:00:00	43.9	ND	ND	ND	ND	8.6	2.8	217.2	ND	ND	0	3.05
86972	2019-12-30T19:00:00	46.5	ND	ND	ND	ND	6.8	0.3	274	ND	ND	0	12.7
86973	2019-12-30T20:00:00	40.9	ND	ND	ND	ND	2.6	0.5	163.3	ND	ND	0	6.1
86974	2019-12-30T21:00:00	36.7	ND	ND	ND	ND	2.2	1.4	219	ND	ND	0	2.29
86975	2019-12-30T22:00:00	32.2	ND	ND	ND	ND	2.2	1.5	220.8	ND	ND	0	9.14
86976	2019-12-30T23:00:00	22	ND	ND	ND	ND	3.7	1.7	234.9	ND	ND	0	17.02
86977	2019-12-31T00:00:00	16.1	ND	ND	ND	ND	2.3	0.8	201.9	ND	ND	0	31.24
86978	2019-12-31T01:00:00	24	ND	ND	ND	ND	3.6	1.1	236.7	ND	ND	0	3.3
86979	2019-12-31T02:00:00	60.6	ND	ND	ND	ND	3.9	1	210	ND	ND	0	2.79
86980	2019-12-31T03:00:00	ND	ND	ND	ND	ND	5.4	1.1	204.3	ND	ND	0	1.02
86981	2019-12-31T04:00:00	2.8	ND	ND	ND	ND	4.7	0.9	210.1	ND	ND	0	4.83
86982	2019-12-31T05:00:00	16.2	ND	ND	ND	ND	3.7	0.7	220.2	ND	ND	0	4.32
86983	2019-12-31T06:00:00	24.9	ND	ND	ND	ND	3.6	0.7	287.5	ND	ND	0	13.72
86984	2019-12-31T07:00:00	10.4	ND	ND	ND	ND	2.4	1	308.2	ND	ND	0	6.1
86985	2019-12-31T08:00:00	10.7	ND	ND	ND	ND	2.4	0.2	25.5	ND	ND	40.4	0
86986	2019-12-31T09:00:00	117	ND	ND	ND	ND	8.7	0.7	123.3	ND	ND	354.1	0
86987	2019-12-31T10:00:00	55.7	ND	ND	ND	ND	19.4	0.8	71.5	ND	ND	603.5	0
86988	2019-12-31T11:00:00	31.1	ND	ND	ND	ND	26.9	1.4	94.6	ND	ND	600.2	0
86989	2019-12-31T12:00:00	40.7	ND	ND	ND	ND	46.4	0.6	192.4	ND	ND	625.3	0
86990	2019-12-31T13:00:00	50.6	ND	ND	ND	ND	56.2	0.3	8.3	ND	ND	619.7	0
86991	2019-12-31T14:00:00	15.7	ND	ND	ND	ND	14.9	1.7	332.7	ND	ND	527.4	0
86992	2019-12-31T15:00:00	99.2	ND	ND	ND	ND	13.1	3	345.1	ND	ND	599.5	0
86993	2019-12-31T16:00:00	26.1	ND	ND	ND	ND	11.6	3.6	345.4	ND	ND	648.8	0
86994	2019-12-31T17:00:00	ND	ND	ND	ND	ND	12.5	4.5	346.2	ND	ND	527	0
86995	2019-12-31T18:00:00	ND	ND	ND	ND	ND	10.9	3.8	344.9	ND	ND	269.1	0
86996	2019-12-31T19:00:00	7.2	ND	ND	ND	ND	5.7	2.2	289.2	ND	ND	0	0
86997	2019-12-31T20:00:00	102.8	ND	ND	ND	ND	5.8	2.3	255.4	ND	ND	0	0
86998	2019-12-31T21:00:00	128.1	ND	ND	ND	ND	4.3	2	228.2	ND	ND	0	0
86999	2019-12-31T22:00:00	93.8	ND	ND	ND	ND	3.1	1.2	203.7	ND	ND	0	0
87000	2019-12-31T23:00:00	89.3	ND	ND	ND	ND	2.9	1.4	164.6	ND	ND	0	0
87001	2020-01-01T00:00:00	74.4	ND	ND	ND	ND	3.6	1.1	198.5	ND	ND	0	0.25
